{
  "fields": [{"type":"int","id":"_id"},{"info":{"type_override":"text","notes":"Hora UTC de lectura de los datos (AAAA-MM-DD HH:mm:SS)(+1 para CET invierno, +2 para CET verano)","label":"date"},"type":"text","id":"TIMESTAMP"},{"info":{"type_override":"text","notes":"Record Number - identificador del registro","label":"int"},"type":"text","id":"RECORD"},{"info":{"type_override":"text","notes":"Velocidad media del viento en el periodo de 10 minutos leído","label":"float"},"type":"text","id":"VV_S_WVT"},{"info":{"type_override":"text","notes":"Dirección media del viento en el periodo de 10 minutos leído","label":"float"},"type":"text","id":"DV_D1_WVT"},{"info":{"type_override":"text","notes":"Velocidad máxima del viento en el periodo de 10 minutos leído","label":"float"},"type":"text","id":"VV10m3Seg_Max"},{"info":{"type_override":"text","notes":"Dirección de la racha máxima del viento en el periodo de 10 minutos leído","label":"text"},"type":"text","id":"DV10m3Seg_SMM"},{"info":{"type_override":"text","notes":"Presión atmosférica media en el periodo de 10 minutos leído","label":"text"},"type":"text","id":"PRE_Avg"},{"info":{"type_override":"text","notes":"Temperatura del aire media en el periodo de 10 minutos leído","label":"text"},"type":"text","id":"TEM_Avg"},{"info":{"type_override":"text","notes":"Humedad relativa del aire promedio en el periodo de 10 minutos leído","label":"text"},"type":"text","id":"HUM_Avg"},{"info":{"type_override":"text","notes":"Radiación solar media en el periodo de 10 minutos leído","label":"text"},"type":"text","id":"RAD_Avg"},{"info":{"type_override":"text","notes":"Precipitación acumulada en el periodo de 10 minutos leído","label":"text"},"type":"text","id":"PLU_Tot"}],
  "records": [
    [1392810,"2026-01-01 00:00:00","30390","1.841","286.6","2.777","298.6","1019.977","8.15","70.45","-1.021","0.0"],
    [1392811,"2026-01-01 00:10:00","30391","1.7269999999999999","275.9","2.842","278.8","1019.8919999999999","8.09","70.64","-0.584","0.0"],
    [1392812,"2026-01-01 00:20:00","30392","1.4809999999999999","287.1","2.973","290.7","1019.888","7.876","71.96","-0.69","0.0"],
    [1392813,"2026-01-01 00:30:00","30393","1.695","291.4","2.581","296.2","1019.8639999999999","7.837000000000001","71.53","-1.147","0.0"],
    [1392814,"2026-01-01 00:40:00","30394","1.608","299.4","2.679","302.9","1019.779","7.593999999999999","72.04","-2.024","0.0"],
    [1392815,"2026-01-01 00:50:00","30395","1.5619999999999998","277.4","2.515","302.9","1019.755","7.347","72.74","-2.778","0.0"],
    [1392816,"2026-01-01 01:00:00","30396","1.376","285.3","2.123","268.1","1019.7189999999999","7.081","73.46","-2.78","0.0"],
    [1392817,"2026-01-01 01:10:00","30397","1.2590000000000001","277.9","2.352","269.8","1019.633","6.9110000000000005","74.19","-2.785","0.0"],
    [1392818,"2026-01-01 01:20:00","30398","1.391","272.6","2.385","254.1","1019.623","6.667999999999999","75.12","-2.694","0.0"],
    [1392819,"2026-01-01 01:30:00","30399","1.5819999999999999","284.5","2.025","292","1019.633","6.398","76.59","-2.736","0.0"],
    [1392820,"2026-01-01 01:40:00","30400","1.416","285.4","2.189","288.4","1019.721","6.382000000000001","76.84","-2.786","0.0"],
    [1392821,"2026-01-01 01:50:00","30401","2.025","286.4","3.038","282.1","1019.745","6.653","75.7","-2.863","0.0"],
    [1392822,"2026-01-01 02:00:00","30402","1.588","263.0","2.744","271.1","1019.7719999999999","6.9239999999999995","73.55","-2.795","0.0"],
    [1392823,"2026-01-01 02:10:00","30403","1.485","270.0","2.613","279.7","1019.824","6.53","75.0","-2.786","0.0"],
    [1392824,"2026-01-01 02:20:00","30404","1.212","270.1","1.96","274.6","1019.709","6.184","76.44","-2.786","0.0"],
    [1392825,"2026-01-01 02:30:00","30405","0.9209999999999999","271.1","1.568","275.5","1019.671","5.943","77.39","-2.79","0.0"],
    [1392826,"2026-01-01 02:40:00","30406","1.026","281.4","1.699","289.6","1019.6010000000001","5.723","78.12","-2.818","0.0"],
    [1392827,"2026-01-01 02:50:00","30407","0.9840000000000001","282.6","1.535","285.6","1019.553","5.7139999999999995","77.84","-2.7910000000000004","0.0"],
    [1392828,"2026-01-01 03:00:00","30408","1.128","284.7","1.797","281.3","1019.503","5.4479999999999995","78.83","-2.7910000000000004","0.0"],
    [1392829,"2026-01-01 03:10:00","30409","1.051","281.3","1.633","270.4","1019.372","5.457999999999999","79.05","-2.8","0.0"],
    [1392830,"2026-01-01 03:20:00","30410","1.0070000000000001","282.4","1.535","297.8","1019.2080000000001","5.352","79.29","-2.7939999999999996","0.0"],
    [1392831,"2026-01-01 03:30:00","30411","1.194","282.6","2.091","299.7","1019.1060000000001","5.314","79.34","-2.7969999999999997","0.0"],
    [1392832,"2026-01-01 03:40:00","30412","1.364","283.6","1.927","296.7","1019.018","5.2410000000000005","79.51","-2.7960000000000003","0.0"],
    [1392833,"2026-01-01 03:50:00","30413","1.402","285.0","2.058","290.5","1018.898","5.257999999999999","79.19","-2.7969999999999997","0.0"],
    [1392834,"2026-01-01 04:00:00","30414","1.4580000000000002","286.5","2.287","283.2","1018.82","5.05","80.0","-2.7960000000000003","0.0"],
    [1392835,"2026-01-01 04:10:00","30415","1.6030000000000002","285.4","2.581","290.6","1018.845","4.928999999999999","80.4","-2.792","0.0"],
    [1392836,"2026-01-01 04:20:00","30416","2.043","296.9","3.005","305.7","1018.821","4.623","81.3","-2.7710000000000004","0.0"],
    [1392837,"2026-01-01 04:30:00","30417","1.865","295.8","2.744","279.7","1018.742","4.459","81.9","-2.798","0.0"],
    [1392838,"2026-01-01 04:40:00","30418","1.528","291.3","2.319","285.4","1018.7330000000001","4.355","82.1","-2.802","0.0"],
    [1392839,"2026-01-01 04:50:00","30419","1.629","298.0","2.515","293.5","1018.717","4.15","82.8","-2.803","0.0"],
    [1392840,"2026-01-01 05:00:00","30420","1.69","294.4","2.483","293","1018.602","4.2","82.8","-2.805","0.0"],
    [1392841,"2026-01-01 05:10:00","30421","1.452","284.8","2.254","279.6","1018.51","4.257","82.4","-2.802","0.0"],
    [1392842,"2026-01-01 05:20:00","30422","1.7169999999999999","286.5","2.45","285.8","1018.4060000000001","4.187","82.1","-2.741","0.0"],
    [1392843,"2026-01-01 05:30:00","30423","1.558","292.3","2.091","295.2","1018.345","3.8089999999999997","83.9","-2.8089999999999997","0.0"],
    [1392844,"2026-01-01 05:40:00","30424","1.271","294.9","2.319","300.8","1018.304","3.949","83.7","-2.8080000000000003","0.0"],
    [1392845,"2026-01-01 05:50:00","30425","1.419","293.2","2.483","286.2","1018.3380000000001","4.2010000000000005","82.5","-2.8139999999999996","0.0"],
    [1392846,"2026-01-01 06:00:00","30426","2.0","299.5","3.528","306.9","1018.4","4.2410000000000005","81.7","-2.8169999999999997","0.0"],
    [1392847,"2026-01-01 06:10:00","30427","2.27","299.4","3.659","313.4","1018.4730000000001","4.313","81.1","-2.8110000000000004","0.0"],
    [1392848,"2026-01-01 06:20:00","30428","1.969","293.8","3.397","293","1018.4889999999999","4.289","80.9","-2.8089999999999997","0.0"],
    [1392849,"2026-01-01 06:30:00","30429","1.919","291.8","3.201","293.9","1018.445","4.2589999999999995","80.7","-2.812","0.0"],
    [1392850,"2026-01-01 06:40:00","30430","1.969","291.7","3.005","305.6","1018.471","4.232","80.3","-2.78","0.0"],
    [1392851,"2026-01-01 06:50:00","30431","1.983","286.4","2.973","283.7","1018.447","4.13","80.4","-2.7430000000000003","0.0"],
    [1392852,"2026-01-01 07:00:00","30432","2.313","288.4","3.267","292.4","1018.438","3.938","81.1","-2.1719999999999997","0.0"],
    [1392853,"2026-01-01 07:10:00","30433","2.043","285.6","3.691","287.3","1018.434","3.875","81.6","-0.812","0.0"],
    [1392854,"2026-01-01 07:20:00","30434","2.239","284.9","3.267","303.7","1018.3889999999999","3.963","81.4","2.146","0.0"],
    [1392855,"2026-01-01 07:30:00","30435","2.195","286.6","4.41","305.2","1018.4110000000001","4.096","80.8","7.821000000000001","0.0"],
    [1392856,"2026-01-01 07:40:00","30436","2.324","286.4","3.92","298.7","1018.377","4.199","80.3","18.1","0.0"],
    [1392857,"2026-01-01 07:50:00","30437","2.7560000000000002","291.5","4.051","307.8","1018.318","4.341","80.0","29.97","0.0"],
    [1392858,"2026-01-01 08:00:00","30438","2.508","295.1","4.149","289.6","1018.2689999999999","4.619","78.98","38.54","0.0"],
    [1392859,"2026-01-01 08:10:00","30439","2.193","290.4","3.528","288.3","1018.238","4.835","78.3","44.62","0.0"],
    [1392860,"2026-01-01 08:20:00","30440","2.552","290.6","4.41","290.7","1018.257","5.026","77.52","49.85","0.0"],
    [1392861,"2026-01-01 08:30:00","30441","2.7260000000000004","297.5","3.985","304.3","1018.2489999999999","5.178999999999999","77.35","56.18","0.0"],
    [1392862,"2026-01-01 08:40:00","30442","2.441","296.9","3.724","295.6","1018.206","5.494","76.49","69.03","0.0"],
    [1392863,"2026-01-01 08:50:00","30443","2.944","295.0","4.9","293.9","1018.2660000000001","5.912000000000001","74.88","119.8","0.0"],
    [1392864,"2026-01-01 09:00:00","30444","3.233","297.6","4.769","306.1","1018.393","6.279","73.41","169.1","0.0"],
    [1392865,"2026-01-01 09:10:00","30445","2.7030000000000003","300.2","4.345","307.3","1018.46","6.5729999999999995","71.84","165.8","0.0"],
    [1392866,"2026-01-01 09:20:00","30446","2.875","296.8","4.704","311.4","1018.505","6.96","70.36","234.5","0.0"],
    [1392867,"2026-01-01 09:30:00","30447","3.112","295.9","5.227","297.8","1018.6160000000001","7.327000000000001","68.63","240.7","0.0"],
    [1392868,"2026-01-01 09:40:00","30448","3.1430000000000002","297.2","4.867","301.4","1018.5989999999999","7.687","67.52","286.8","0.0"],
    [1392869,"2026-01-01 09:50:00","30449","3.072","294.6","5.227","288.4","1018.5830000000001","8.12","65.83","304.4","0.0"],
    [1392870,"2026-01-01 10:00:00","30450","2.427","297.8","3.855","314.4","1018.567","8.61","64.42","328.1","0.0"],
    [1392871,"2026-01-01 10:10:00","30451","2.667","291.8","4.541","298.1","1018.5","8.95","62.77","340.0","0.0"],
    [1392872,"2026-01-01 10:20:00","30452","2.8560000000000003","291.4","4.214","300","1018.4010000000001","9.21","62.36","355.0","0.0"],
    [1392873,"2026-01-01 10:30:00","30453","2.557","284.9","3.887","283.7","1018.314","9.48","61.59","379.5","0.0"],
    [1392874,"2026-01-01 10:40:00","30454","2.45","286.6","3.691","290.1","1018.163","9.79","61.22","390.0","0.0"],
    [1392875,"2026-01-01 10:50:00","30455","2.696","290.6","4.671","296.2","1018.059","10.19","60.87","397.2","0.0"],
    [1392876,"2026-01-01 11:00:00","30456","1.92","286.7","3.332","281","1017.873","10.67","60.11","410.4","0.0"],
    [1392877,"2026-01-01 11:10:00","30457","1.912","272.5","3.495","256.1","1017.702","10.88","59.92","396.8","0.0"],
    [1392878,"2026-01-01 11:20:00","30458","1.4069999999999998","248.0","2.548","178","1017.4889999999999","11.34","59.82","395.8","0.0"],
    [1392879,"2026-01-01 11:30:00","30459","1.505","243.2","3.593","282","1017.3439999999999","11.66","59.16","403.7","0.0"],
    [1392880,"2026-01-01 11:40:00","30460","1.4509999999999998","246.8","3.136","208","1017.143","11.65","60.01","481.7","0.0"],
    [1392881,"2026-01-01 11:50:00","30461","1.213","237.6","3.234","222.6","1016.962","11.94","59.37","449.8","0.0"],
    [1392882,"2026-01-01 12:00:00","30462","1.5230000000000001","230.8","3.43","219.9","1016.732","12.12","59.83","437.0","0.0"],
    [1392883,"2026-01-01 12:10:00","30463","2.303","236.0","4.508","213.1","1016.548","12.31","60.41","416.7","0.0"],
    [1392884,"2026-01-01 12:20:00","30464","3.245","224.6","5.423","213.4","1016.242","12.83","61.16","433.1","0.0"],
    [1392885,"2026-01-01 12:30:00","30465","4.9719999999999995","218.1","7.611","235.7","1016.107","13.07","61.89","437.2","0.0"],
    [1392886,"2026-01-01 12:40:00","30466","4.513999999999999","215.5","7.285","186","1015.965","12.97","63.28","439.9","0.0"],
    [1392887,"2026-01-01 12:50:00","30467","5.479","218.2","7.971","215.7","1015.7769999999999","13.09","62.69","447.6","0.0"],
    [1392888,"2026-01-01 13:00:00","30468","5.0889999999999995","217.5","8.49","211.6","1015.59","13.08","62.8","429.0","0.0"],
    [1392889,"2026-01-01 13:10:00","30469","5.225","221.3","7.611","219.8","1015.454","13.18","61.92","385.7","0.0"],
    [1392890,"2026-01-01 13:20:00","30470","4.928","224.4","7.709","217.8","1015.38","13.14","61.77","380.8","0.0"],
    [1392891,"2026-01-01 13:30:00","30471","4.7010000000000005","224.5","8.49","222.4","1015.2510000000001","13.07","62.82","373.9","0.0"],
    [1392892,"2026-01-01 13:40:00","30472","4.374","221.4","7.35","219.6","1015.1110000000001","13.29","62.54","355.4","0.0"],
    [1392893,"2026-01-01 13:50:00","30473","5.234","224.0","8.33","204","1014.987","13.16","62.14","342.8","0.0"],
    [1392894,"2026-01-01 14:00:00","30474","4.295","226.0","6.925","201.9","1014.8560000000001","13.28","63.35","320.6","0.0"],
    [1392895,"2026-01-01 14:10:00","30475","4.459","226.1","6.86","228.1","1014.775","13.18","62.45","313.3","0.0"],
    [1392896,"2026-01-01 14:20:00","30476","4.163","225.2","6.272","237.8","1014.697","13.09","63.54","275.2","0.0"],
    [1392897,"2026-01-01 14:30:00","30477","4.1160000000000005","226.5","6.141","206.1","1014.669","13.15","61.33","228.4","0.0"],
    [1392898,"2026-01-01 14:40:00","30478","3.488","226.9","6.337","227.4","1014.6010000000001","12.98","62.51","178.0","0.0"],
    [1392899,"2026-01-01 14:50:00","30479","4.3389999999999995","223.9","6.37","223.6","1014.5930000000001","12.78","62.88","146.2","0.0"],
    [1392900,"2026-01-01 15:00:00","30480","3.966","222.9","5.913","232.1","1014.539","12.6","64.53","131.7","0.0"],
    [1392901,"2026-01-01 15:10:00","30481","4.183","225.2","6.762","219.4","1014.453","12.5","63.49","125.3","0.0"],
    [1392902,"2026-01-01 15:20:00","30482","4.644","222.5","6.566","216.3","1014.3969999999999","12.4","64.8","106.8","0.0"],
    [1392903,"2026-01-01 15:30:00","30483","3.611","227.7","6.272","225.6","1014.342","12.31","65.77","84.5","0.0"],
    [1392904,"2026-01-01 15:40:00","30484","3.306","226.7","5.488","229.7","1014.352","12.17","65.52","60.18","0.0"],
    [1392905,"2026-01-01 15:50:00","30485","2.597","229.1","4.769","227.9","1014.2739999999999","12.0","67.32","48.8","0.0"],
    [1392906,"2026-01-01 16:00:00","30486","2.55","228.0","4.606","207.7","1014.2489999999999","11.81","68.56","35.49","0.0"],
    [1392907,"2026-01-01 16:10:00","30487","2.21","226.1","3.822","221.5","1014.198","11.58","69.24","24.18","0.0"],
    [1392908,"2026-01-01 16:20:00","30488","1.9480000000000002","226.4","3.267","224.3","1014.1","11.36","70.07","14.07","0.0"],
    [1392909,"2026-01-01 16:30:00","30489","1.972","231.2","3.267","276.7","1014.063","11.17","70.94","4.644","0.0"],
    [1392910,"2026-01-01 16:40:00","30490","1.9280000000000002","232.6","3.299","242.1","1014.0039999999999","10.99","71.39","-0.255","0.0"],
    [1392911,"2026-01-01 16:50:00","30491","1.954","229.3","2.94","244.3","1013.939","10.76","72.11","-2.077","0.0"],
    [1392912,"2026-01-01 17:00:00","30492","2.056","228.0","3.136","239.9","1013.931","10.58","72.72","-2.761","0.0"],
    [1392913,"2026-01-01 17:10:00","30493","1.871","227.9","3.038","226.3","1013.908","10.36","73.32","-2.762","0.0"],
    [1392914,"2026-01-01 17:20:00","30494","1.861","227.5","2.973","246.9","1013.93","10.11","74.55","-2.762","0.0"],
    [1392915,"2026-01-01 17:30:00","30495","1.797","234.2","3.071","233.2","1013.954","9.98","75.85","-2.763","0.0"],
    [1392916,"2026-01-01 17:40:00","30496","0.9329999999999999","248.3","1.797","251.7","1013.9680000000001","9.94","76.49","-2.762","0.0"],
    [1392917,"2026-01-01 17:50:00","30497","1.577","245.4","2.907","234.8","1013.995","9.8","77.88","-2.824","0.0"],
    [1392918,"2026-01-01 18:00:00","30498","1.3630000000000002","243.0","2.319","250.2","1013.972","9.81","78.43","-2.764","0.0"],
    [1392919,"2026-01-01 18:10:00","30499","1.2429999999999999","257.4","2.385","234.6","1013.9119999999999","9.68","79.13","-2.767","0.0"],
    [1392920,"2026-01-01 18:20:00","30500","1.0979999999999999","279.7","1.993","289.5","1013.905","9.12","80.8","-2.7969999999999997","0.0"],
    [1392921,"2026-01-01 18:30:00","30501","1.238","280.3","2.744","283.7","1013.957","8.95","82.0","-2.862","0.0"],
    [1392922,"2026-01-01 18:40:00","30502","1.475","269.3","2.483","278.2","1013.9860000000001","8.85","82.1","-2.946","0.0"],
    [1392923,"2026-01-01 18:50:00","30503","1.442","230.8","2.287","240.4","1013.893","9.25","79.38","-2.77","0.0"],
    [1392924,"2026-01-01 19:00:00","30504","1.396","225.0","1.993","213.8","1013.828","9.27","78.64","-2.778","0.0"],
    [1392925,"2026-01-01 19:10:00","30505","1.137","243.5","1.829","244.2","1013.709","9.11","79.02","-2.778","0.0"],
    [1392926,"2026-01-01 19:20:00","30506","1.246","226.0","1.862","220.1","1013.796","8.89","79.51","-2.792","0.0"],
    [1392927,"2026-01-01 19:30:00","30507","1.4340000000000002","235.7","1.993","223","1013.789","8.83","79.81","-2.784","0.0"],
    [1392928,"2026-01-01 19:40:00","30508","1.2890000000000001","241.2","1.927","245","1013.808","8.75","79.72","-2.785","0.0"],
    [1392929,"2026-01-01 19:50:00","30509","1.088","245.2","1.797","246.1","1013.837","8.31","80.6","-2.783","0.0"],
    [1392930,"2026-01-01 20:00:00","30510","1.186","263.5","2.091","273","1013.819","7.399","83.9","-2.787","0.0"],
    [1392931,"2026-01-01 20:10:00","30511","0.9359999999999999","263.5","1.764","281","1013.7389999999999","7.3660000000000005","86.0","-2.7960000000000003","0.0"],
    [1392932,"2026-01-01 20:20:00","30512","0.9590000000000001","272.6","1.927","275","1013.7410000000001","7.666","84.6","-2.793","0.0"],
    [1392933,"2026-01-01 20:30:00","30513","1.2830000000000001","272.3","2.417","292.9","1013.7860000000001","7.82","83.9","-2.787","0.0"],
    [1392934,"2026-01-01 20:40:00","30514","1.338","269.6","2.45","283.2","1013.842","8.18","81.7","-2.7319999999999998","0.0"],
    [1392935,"2026-01-01 20:50:00","30515","1.494","259.4","2.483","267.7","1013.895","8.42","79.99","-2.778","0.0"],
    [1392936,"2026-01-01 21:00:00","30516","1.3230000000000002","263.7","2.646","269.7","1013.8910000000001","8.72","77.55","-2.633","0.0"],
    [1392937,"2026-01-01 21:10:00","30517","1.258","264.2","2.548","284.7","1013.944","8.7","76.91","-2.7760000000000002","0.0"],
    [1392938,"2026-01-01 21:20:00","30518","1.17","267.7","2.189","286.9","1013.982","8.44","77.48","-2.748","0.0"],
    [1392939,"2026-01-01 21:30:00","30519","1.081","253.5","1.895","236.7","1013.8689999999999","8.37","77.99","-2.793","0.0"],
    [1392940,"2026-01-01 21:40:00","30520","1.14","265.0","2.058","247.6","1013.8589999999999","8.29","77.5","-2.79","0.0"],
    [1392941,"2026-01-01 21:50:00","30521","1.115","261.6","2.254","265.3","1013.825","7.928999999999999","78.41","-2.7889999999999997","0.0"],
    [1392942,"2026-01-01 22:00:00","30522","1.436","271.9","2.515","272.9","1013.797","7.681","79.12","-2.6710000000000003","0.0"],
    [1392943,"2026-01-01 22:10:00","30523","1.104","250.3","2.254","273.4","1013.693","7.8020000000000005","78.57","-2.15","0.0"],
    [1392944,"2026-01-01 22:20:00","30524","0.972","266.1","1.829","285.5","1013.6610000000001","7.692","78.1","-2.0069999999999997","0.0"],
    [1392945,"2026-01-01 22:30:00","30525","1.023","251.7","2.123","278.2","1013.5930000000001","7.479","79.17","-2.006","0.0"],
    [1392946,"2026-01-01 22:40:00","30526","0.9540000000000001","246.2","1.927","254.1","1013.645","8.0","75.66","-1.964","0.0"],
    [1392947,"2026-01-01 22:50:00","30527","0.88","265.9","1.405","284.2","1013.66","8.02","74.89","-1.7009999999999998","0.0"],
    [1392948,"2026-01-01 23:00:00","30528","1.4809999999999999","291.6","2.025","292.2","1013.7539999999999","6.992000000000001","79.95","-2.17","0.0"],
    [1392949,"2026-01-01 23:10:00","30529","1.038","288.9","1.764","295.7","1013.845","6.474","81.7","-2.571","0.0"],
    [1392950,"2026-01-01 23:20:00","30530","0.529","305.6","1.503","281.6","1013.752","6.525","80.9","-2.752","0.0"],
    [1392951,"2026-01-01 23:30:00","30531","0.0","0.0","0","0","1013.565","6.612","79.62","-2.189","0.0"],
    [1392952,"2026-01-01 23:40:00","30532","0.45","222.9","1.111","218.1","1013.2739999999999","7.059","76.93","-1.8769999999999998","0.0"],
    [1392953,"2026-01-01 23:50:00","30533","0.5670000000000001","223.6","0.98","218.1","1013.043","7.313","74.74","-1.307","0.0"],
    [1392954,"2026-01-02 00:00:00","30534","0.639","202.1","1.405","203.8","1012.804","7.242999999999999","74.43","-1.7469999999999999","0.0"],
    [1392955,"2026-01-02 00:10:00","30535","1.071","211.6","1.731","213.5","1012.7410000000001","7.292999999999999","73.47","-1.3419999999999999","0.0"],
    [1392956,"2026-01-02 00:20:00","30536","1.375","210.3","1.797","210.6","1012.686","7.2010000000000005","73.17","-1.699","0.0"],
    [1392957,"2026-01-02 00:30:00","30537","1.3359999999999999","234.6","1.764","248.1","1012.6160000000001","6.949","72.52","-2.513","0.0"],
    [1392958,"2026-01-02 00:40:00","30538","1.261","237.4","1.862","245","1012.725","6.975","71.16","-2.7910000000000004","0.0"],
    [1392959,"2026-01-02 00:50:00","30539","1.149","252.3","2.319","266.8","1012.7689999999999","7.027","70.64","-2.793","0.0"],
    [1392960,"2026-01-02 01:00:00","30540","1.534","262.7","2.581","290.6","1012.71","7.178999999999999","69.51","-2.7939999999999996","0.0"],
    [1392961,"2026-01-02 01:10:00","30541","1.473","252.3","2.483","281.4","1012.706","6.99","69.52","-2.786","0.0"],
    [1392962,"2026-01-02 01:20:00","30542","1.29","250.0","2.156","288.9","1012.587","6.81","69.83","-2.793","0.0"],
    [1392963,"2026-01-02 01:30:00","30543","1.4809999999999999","283.8","3.005","315","1012.5139999999999","6.9239999999999995","68.64","-2.792","0.0"],
    [1392964,"2026-01-02 01:40:00","30544","2.012","298.9","4.051","294","1012.55","6.897","68.35","-2.793","0.0"],
    [1392965,"2026-01-02 01:50:00","30545","2.502","302.0","4.247","306.9","1012.4789999999999","6.707000000000001","69.48","-2.793","0.0"],
    [1392966,"2026-01-02 02:00:00","30546","2.157","289.4","3.43","281.5","1012.2810000000001","6.644","69.48","-2.7910000000000004","0.0"],
    [1392967,"2026-01-02 02:10:00","30547","2.717","301.3","4.475","310.9","1012.187","6.611000000000001","69.62","-2.8","0.0"],
    [1392968,"2026-01-02 02:20:00","30548","2.435","290.1","4.181","284.1","1012.11","6.574","69.63","-2.7880000000000003","0.0"],
    [1392969,"2026-01-02 02:30:00","30549","1.7890000000000001","275.4","3.071","310.8","1012.0369999999999","6.614","68.98","-2.787","0.0"],
    [1392970,"2026-01-02 02:40:00","30550","1.156","257.4","2.156","210.1","1011.939","6.5729999999999995","68.89","-2.787","0.0"],
    [1392971,"2026-01-02 02:50:00","30551","1.835","265.6","4.443","293.5","1011.778","6.381","69.88","-2.781","0.0"],
    [1392972,"2026-01-02 03:00:00","30552","2.7239999999999998","285.5","4.214","295.1","1011.655","6.087000000000001","71.36","-2.6689999999999996","0.0"],
    [1392973,"2026-01-02 03:10:00","30553","1.7830000000000001","267.4","3.365","259.7","1011.482","5.996","71.53","-2.6039999999999996","0.0"],
    [1392974,"2026-01-02 03:20:00","30554","1.989","294.3","3.299","303.6","1011.345","5.688","73.15","-2.647","0.0"],
    [1392975,"2026-01-02 03:30:00","30555","1.723","296.2","2.646","307.4","1011.326","5.672999999999999","73.3","-2.759","0.0"],
    [1392976,"2026-01-02 03:40:00","30556","3.37","309.6","6.337","315.7","1011.302","6.218999999999999","70.96","-2.8080000000000003","0.0"],
    [1392977,"2026-01-02 03:50:00","30557","3.895","315.7","7.285","318.1","1011.1669999999999","6.769","67.81","-2.5610000000000004","0.0"],
    [1392978,"2026-01-02 04:00:00","30558","2.2880000000000003","303.3","4.018","314.7","1011.0210000000001","6.81","67.19","-2.539","0.0"],
    [1392979,"2026-01-02 04:10:00","30559","1.838","296.8","5.325","347.6","1010.99","6.579","67.98","-2.577","0.0"],
    [1392980,"2026-01-02 04:20:00","30560","1.676","291.1","3.005","317.8","1010.927","6.65","67.85","-2.213","0.0"],
    [1392981,"2026-01-02 04:30:00","30561","1.358","251.1","2.679","250.9","1010.742","6.669","67.45","-2.628","0.0"],
    [1392982,"2026-01-02 04:40:00","30562","1.5019999999999998","227.5","2.842","280.4","1010.758","6.474","68.23","-2.6489999999999996","0.0"],
    [1392983,"2026-01-02 04:50:00","30563","1.899","277.6","3.626","255.9","1010.712","6.39","68.83","-2.4019999999999997","0.0"],
    [1392984,"2026-01-02 05:00:00","30564","1.51","275.1","2.319","281.2","1010.703","6.2989999999999995","69.32","-2.049","0.0"],
    [1392985,"2026-01-02 05:10:00","30565","0.7609999999999999","283.6","2.875","282.9","1010.592","6.237","69.58","-2.033","0.0"],
    [1392986,"2026-01-02 05:20:00","30566","1.1059999999999999","300.4","2.221","314.4","1010.45","6.529","68.4","-1.955","0.0"],
    [1392987,"2026-01-02 05:30:00","30567","1.454","289.9","1.927","295.1","1010.373","6.557","68.45","-1.969","0.0"],
    [1392988,"2026-01-02 05:40:00","30568","1.521","306.9","4.116","320.9","1010.482","6.556","68.75","-2.334","0.0"],
    [1392989,"2026-01-02 05:50:00","30569","0.8220000000000001","307.7","3.169","302.8","1010.6110000000001","6.582999999999999","68.28","-2.708","0.0"],
    [1392990,"2026-01-02 06:00:00","30570","3.177","308.2","6.501","309.4","1010.51","6.517","67.72","-2.407","0.0"],
    [1392991,"2026-01-02 06:10:00","30571","3.0439999999999996","304.6","4.639","320.8","1010.62","5.888","70.81","-2.194","0.0"],
    [1392992,"2026-01-02 06:20:00","30572","3.6069999999999998","319.8","5.88","325.6","1010.742","6.101","69.05","-2.421","0.0"],
    [1392993,"2026-01-02 06:30:00","30573","3.28","328.4","5.161","324.4","1010.836","6.109","68.55","-2.126","0.0"],
    [1392994,"2026-01-02 06:40:00","30574","3.6310000000000002","325.2","5.521","319.1","1010.942","6.162999999999999","68.04","-2.131","0.0"],
    [1392995,"2026-01-02 06:50:00","30575","3.8280000000000003","319.7","5.913","335.8","1011.028","6.23","67.25","-2.099","0.0"],
    [1392996,"2026-01-02 07:00:00","30576","2.852","318.1","5.39","300.4","1010.99","6.164","66.89","-2.029","0.0"],
    [1392997,"2026-01-02 07:10:00","30577","2.6689999999999996","317.7","4.312","313.3","1011.005","5.732","68.6","-1.2429999999999999","0.0"],
    [1392998,"2026-01-02 07:20:00","30578","2.838","316.0","4.312","317.2","1011.067","5.551","69.67","0.32799999999999996","0.0"],
    [1392999,"2026-01-02 07:30:00","30579","3.528","313.5","6.141","311.5","1011.095","5.622000000000001","68.99","4.823","0.0"],
    [1393000,"2026-01-02 07:40:00","30580","2.6630000000000003","319.4","4.475","327.7","1011.068","5.256","70.69","11.76","0.0"],
    [1393001,"2026-01-02 07:50:00","30581","3.429","314.9","5.553","319.6","1011.09","5.412000000000001","70.2","20.24","0.0"],
    [1393002,"2026-01-02 08:00:00","30582","3.128","307.6","4.606","312.2","1011.0930000000001","5.821000000000001","68.52","29.2","0.0"],
    [1393003,"2026-01-02 08:10:00","30583","2.985","294.5","5.259","289.4","1011.216","6.007999999999999","67.69","35.92","0.0"],
    [1393004,"2026-01-02 08:20:00","30584","3.886","301.8","6.239","319.6","1011.265","5.962000000000001","68.11","48.88","0.0"],
    [1393005,"2026-01-02 08:30:00","30585","4.436","312.2","7.154","320.1","1011.216","6.1610000000000005","67.63","59.97","0.0"],
    [1393006,"2026-01-02 08:40:00","30586","3.5189999999999997","305.4","6.011","320.9","1011.2560000000001","6.403","67.24","63.54","0.0"],
    [1393007,"2026-01-02 08:50:00","30587","3.569","303.8","5.782","306.8","1011.3480000000001","6.483","66.6","89.4","0.0"],
    [1393008,"2026-01-02 09:00:00","30588","4.37","312.3","6.925","306.3","1011.3710000000001","6.689","64.98","119.1","0.0"],
    [1393009,"2026-01-02 09:10:00","30589","4.573","317.2","7.873","318.6","1011.289","6.867999999999999","64.7","225.9","0.0"],
    [1393010,"2026-01-02 09:20:00","30590","4.178","312.3","7.971","310.6","1011.2810000000001","7.37","63.44","285.4","0.0"],
    [1393011,"2026-01-02 09:30:00","30591","5.956","313.0","8.43","321.2","1011.2230000000001","7.4879999999999995","62.61","277.3","0.0"],
    [1393012,"2026-01-02 09:40:00","30592","6.071000000000001","313.6","8.98","313.4","1011.255","7.519","62.58","274.4","0.0"],
    [1393013,"2026-01-02 09:50:00","30593","4.785","312.3","8.95","310.4","1011.324","7.773","62.04","274.3","0.0"],
    [1393014,"2026-01-02 10:00:00","30594","5.813","312.0","8.07","309.7","1011.297","7.736000000000001","61.38","281.7","0.0"],
    [1393015,"2026-01-02 10:10:00","30595","5.38","316.1","7.481","315.9","1011.2360000000001","8.13","60.78","300.1","0.0"],
    [1393016,"2026-01-02 10:20:00","30596","5.526","313.6","8.17","320.2","1011.178","8.59","59.0","304.7","0.0"],
    [1393017,"2026-01-02 10:30:00","30597","4.529","310.4","6.337","318.9","1011.082","9.33","57.15","382.5","0.0"],
    [1393018,"2026-01-02 10:40:00","30598","3.214","308.6","5.292","291.6","1011.058","9.88","56.39","328.5","0.0"],
    [1393019,"2026-01-02 10:50:00","30599","4.306","309.3","5.717","324.2","1011.0110000000001","9.71","56.44","270.4","0.0"],
    [1393020,"2026-01-02 11:00:00","30600","4.593999999999999","301.1","6.599","303.7","1010.942","9.5","57.72","269.1","0.0"],
    [1393021,"2026-01-02 11:10:00","30601","4.263","289.4","7.415","290.5","1010.9910000000001","9.59","57.29","272.4","0.0"],
    [1393022,"2026-01-02 11:20:00","30602","3.698","290.5","5.913","288","1010.855","9.67","57.38","286.5","0.0"],
    [1393023,"2026-01-02 11:30:00","30603","3.9330000000000003","309.7","5.455","313.8","1010.4680000000001","10.11","56.92","345.9","0.0"],
    [1393024,"2026-01-02 11:40:00","30604","2.6919999999999997","302.1","3.985","307.5","1010.1339999999999","10.41","56.03","202.7","0.0"],
    [1393025,"2026-01-02 11:50:00","30605","1.839","275.5","3.267","315.4","1009.8839999999999","10.62","56.13","196.6","0.0"],
    [1393026,"2026-01-02 12:00:00","30606","1.714","260.3","3.234","266.1","1009.668","10.68","55.7","206.1","0.0"],
    [1393027,"2026-01-02 12:10:00","30607","1.409","249.5","2.842","255.7","1009.443","11.33","53.74","396.1","0.0"],
    [1393028,"2026-01-02 12:20:00","30608","1.661","265.0","2.842","246.9","1009.2860000000001","12.25","51.05","480.4","0.0"],
    [1393029,"2026-01-02 12:30:00","30609","1.374","251.9","2.646","289.6","1009.105","12.22","50.78","390.3","0.0"],
    [1393030,"2026-01-02 12:40:00","30610","2.133","290.0","3.626","301.4","1009.035","11.98","50.51","195.1","0.0"],
    [1393031,"2026-01-02 12:50:00","30611","1.234","246.3","2.581","278.4","1008.932","11.61","52.05","206.4","0.0"],
    [1393032,"2026-01-02 13:00:00","30612","1.489","269.6","2.613","263.1","1008.7660000000001","11.67","52.06","240.8","0.0"],
    [1393033,"2026-01-02 13:10:00","30613","1.764","274.7","2.842","297.4","1008.637","11.64","53.53","251.2","0.0"],
    [1393034,"2026-01-02 13:20:00","30614","1.515","238.9","2.744","285.2","1008.438","11.9","52.92","315.9","0.0"],
    [1393035,"2026-01-02 13:30:00","30615","0.96","263.1","1.993","297","1008.2360000000001","12.03","52.79","236.9","0.0"],
    [1393036,"2026-01-02 13:40:00","30616","1.33","287.0","2.058","291.4","1008.1289999999999","11.79","54.02","179.8","0.0"],
    [1393037,"2026-01-02 13:50:00","30617","0.97","263.3","1.731","275.9","1008.1030000000001","12.03","54.33","186.4","0.0"],
    [1393038,"2026-01-02 14:00:00","30618","0.8079999999999999","234.2","1.568","240.7","1007.971","12.09","54.75","181.9","0.0"],
    [1393039,"2026-01-02 14:10:00","30619","0.9159999999999999","258.7","1.601","265.1","1007.959","12.05","56.2","154.7","0.0"],
    [1393040,"2026-01-02 14:20:00","30620","1.189","251.4","2.287","310.8","1008.061","12.19","56.72","163.9","0.0"],
    [1393041,"2026-01-02 14:30:00","30621","1.383","247.4","2.319","223.6","1007.975","12.21","57.98","154.6","0.0"],
    [1393042,"2026-01-02 14:40:00","30622","0.99","276.2","1.797","302.9","1007.8860000000001","12.22","58.76","134.8","0.0"],
    [1393043,"2026-01-02 14:50:00","30623","1.213","283.5","1.927","285.9","1007.842","12.23","59.43","112.9","0.0"],
    [1393044,"2026-01-02 15:00:00","30624","1.1340000000000001","278.5","1.895","293","1007.806","12.22","60.35","89.5","0.0"],
    [1393045,"2026-01-02 15:10:00","30625","1.304","300.2","1.895","306.8","1007.789","12.23","62.0","70.44","0.0"],
    [1393046,"2026-01-02 15:20:00","30626","1.0190000000000001","288.9","1.927","319.6","1007.812","12.23","63.19","67.62","0.0"],
    [1393047,"2026-01-02 15:30:00","30627","0.8590000000000001","270.4","1.47","278.2","1007.8960000000001","12.24","63.11","63.38","0.0"],
    [1393048,"2026-01-02 15:40:00","30628","0.805","267.3","1.47","277.9","1007.9860000000001","12.19","63.67","60.87","0.0"],
    [1393049,"2026-01-02 15:50:00","30629","0.6829999999999999","272.2","1.339","274","1007.8910000000001","12.01","64.37","47.7","0.0"],
    [1393050,"2026-01-02 16:00:00","30630","0.648","288.1","1.437","271.1","1007.814","11.82","64.78","28.95","0.0"],
    [1393051,"2026-01-02 16:10:00","30631","0.444","293.9","0.882","288.4","1007.7080000000001","11.47","66.67","15.27","0.0"],
    [1393052,"2026-01-02 16:20:00","30632","0.466","280.1","1.013","298.9","1007.6410000000001","11.33","66.22","8.13","0.0"],
    [1393053,"2026-01-02 16:30:00","30633","0.8009999999999999","299.0","1.078","301.6","1007.513","11.04","68.71","2.675","0.0"],
    [1393054,"2026-01-02 16:40:00","30634","0.141","299.1","0.784","297.1","1007.3739999999999","10.78","66.58","-0.313","0.0"],
    [1393055,"2026-01-02 16:50:00","30635","0.129","294.3","0.555","294.4","1007.4639999999999","10.82","66.49","-1.588","0.0"],
    [1393056,"2026-01-02 17:00:00","30636","0.196","270.2","0.817","268.8","1007.471","10.4","67.81","-2.312","0.0"],
    [1393057,"2026-01-02 17:10:00","30637","0.424","286.2","1.078","286.4","1007.534","10.3","67.9","-2.4130000000000003","0.0"],
    [1393058,"2026-01-02 17:20:00","30638","1.0270000000000001","300.2","1.339","279.7","1007.6160000000001","9.96","69.54","-2.1180000000000003","0.0"],
    [1393059,"2026-01-02 17:30:00","30639","0.27","252.2","1.209","306.2","1007.61","9.88","68.4","-2.238","0.0"],
    [1393060,"2026-01-02 17:40:00","30640","0.81","262.5","1.699","244.6","1007.612","9.94","68.18","-2.364","0.0"],
    [1393061,"2026-01-02 17:50:00","30641","0.882","271.5","1.731","252.6","1007.505","9.76","69.71","-2.468","0.0"],
    [1393062,"2026-01-02 18:00:00","30642","1.195","274.8","2.091","267.5","1007.6410000000001","9.54","71.09","-2.412","0.0"],
    [1393063,"2026-01-02 18:10:00","30643","1.41","296.0","2.613","333.3","1007.6469999999999","9.34","72.12","-2.5140000000000002","0.0"],
    [1393064,"2026-01-02 18:20:00","30644","1.445","305.9","2.548","339.4","1007.602","9.2","73.09","-2.37","0.0"],
    [1393065,"2026-01-02 18:30:00","30645","1.3359999999999999","297.5","2.221","307","1007.696","8.96","73.61","-2.324","0.0"],
    [1393066,"2026-01-02 18:40:00","30646","1.3","294.6","2.254","295.6","1007.785","8.67","74.5","-2.638","0.0"],
    [1393067,"2026-01-02 18:50:00","30647","1.374","270.6","2.483","268.4","1007.815","9.04","72.13","-2.4530000000000003","0.0"],
    [1393068,"2026-01-02 19:00:00","30648","1.064","288.4","1.764","271.2","1007.71","8.93","71.9","-2.075","0.0"],
    [1393069,"2026-01-02 19:10:00","30649","0.7440000000000001","297.4","1.47","312.2","1007.684","8.29","74.84","-2.6319999999999997","0.0"],
    [1393070,"2026-01-02 19:20:00","30650","1.73","320.5","2.875","323.7","1007.691","8.22","75.83","-2.728","0.0"],
    [1393071,"2026-01-02 19:30:00","30651","1.734","304.5","3.005","310.4","1007.779","8.99","71.54","-2.296","0.0"],
    [1393072,"2026-01-02 19:40:00","30652","1.494","292.1","2.548","291","1007.828","9.21","69.17","-2.51","0.0"],
    [1393073,"2026-01-02 19:50:00","30653","1.7830000000000001","285.5","2.973","274.3","1007.6289999999999","9.08","69.15","-2.437","0.0"],
    [1393074,"2026-01-02 20:00:00","30654","1.6980000000000002","284.4","2.907","277.9","1007.615","8.94","69.15","-2.124","0.0"],
    [1393075,"2026-01-02 20:10:00","30655","1.835","284.2","2.94","300.7","1007.6089999999999","8.55","70.81","-2.231","0.0"],
    [1393076,"2026-01-02 20:20:00","30656","1.9909999999999999","287.0","2.907","305","1007.762","8.5","70.92","-1.9680000000000002","0.0"],
    [1393077,"2026-01-02 20:30:00","30657","2.448","293.7","3.985","296.3","1007.817","8.42","71.22","-1.9909999999999999","0.0"],
    [1393078,"2026-01-02 20:40:00","30658","2.044","299.3","3.463","309.3","1007.658","8.69","69.43","-2.013","0.0"],
    [1393079,"2026-01-02 20:50:00","30659","1.889","279.1","3.005","283.4","1007.582","8.9","68.03","-1.974","0.0"],
    [1393080,"2026-01-02 21:00:00","30660","1.746","277.4","3.267","281.8","1007.627","8.91","67.8","-1.526","0.0"],
    [1393081,"2026-01-02 21:10:00","30661","1.6269999999999998","280.3","3.267","280.6","1007.643","8.86","67.89","-1.472","0.0"],
    [1393082,"2026-01-02 21:20:00","30662","2.263","296.8","3.887","295.3","1007.709","8.79","68.07","-1.8940000000000001","0.0"],
    [1393083,"2026-01-02 21:30:00","30663","2.395","299.9","4.051","301.5","1007.703","8.98","66.82","-1.9680000000000002","0.0"],
    [1393084,"2026-01-02 21:40:00","30664","2.805","305.2","4.279","304.6","1007.49","9.07","66.56","-1.903","0.0"],
    [1393085,"2026-01-02 21:50:00","30665","2.459","292.6","4.181","301.8","1007.457","9.2","65.62","-1.815","0.0"],
    [1393086,"2026-01-02 22:00:00","30666","1.4569999999999999","280.0","2.973","287.1","1007.528","9.07","66.14","-1.89","0.0"],
    [1393087,"2026-01-02 22:10:00","30667","2.175","289.4","3.92","288.6","1007.6360000000001","8.97","66.63","-1.956","0.0"],
    [1393088,"2026-01-02 22:20:00","30668","3.0980000000000003","301.5","5.227","315","1007.673","8.95","66.74","-1.79","0.0"],
    [1393089,"2026-01-02 22:30:00","30669","3.158","312.7","5.194","318.7","1007.487","9.15","65.76","-1.379","0.0"],
    [1393090,"2026-01-02 22:40:00","30670","1.656","298.7","3.691","315.3","1007.482","9.23","65.62","-1.29","0.0"],
    [1393091,"2026-01-02 22:50:00","30671","1.5759999999999998","291.5","2.809","275.7","1007.3969999999999","9.11","66.24","-1.511","0.0"],
    [1393092,"2026-01-02 23:00:00","30672","1.8359999999999999","299.7","3.038","316.1","1007.31","9.03","66.76","-1.8359999999999999","0.0"],
    [1393093,"2026-01-02 23:10:00","30673","1.979","301.3","3.136","312.9","1007.265","8.91","67.51","-1.7919999999999998","0.0"],
    [1393094,"2026-01-02 23:20:00","30674","1.776","289.3","3.136","314.7","1007.1560000000001","9.05","66.83","-1.298","0.0"],
    [1393095,"2026-01-02 23:30:00","30675","1.288","293.3","2.025","303","1007.064","8.88","67.78","-1.288","0.0"],
    [1393096,"2026-01-02 23:40:00","30676","1.757","279.2","3.005","276.3","1007.0039999999999","8.71","68.53","-1.321","0.0"],
    [1393097,"2026-01-02 23:50:00","30677","1.919","280.1","3.005","295.8","1006.885","8.52","69.37","-1.2990000000000002","0.0"],
    [1393098,"2026-01-03 00:00:00","30678","1.6030000000000002","273.1","3.038","283.1","1006.961","8.51","68.96","-1.287","0.0"],
    [1393099,"2026-01-03 00:10:00","30679","1.791","277.2","2.646","278.7","1006.8810000000001","8.24","70.25","-1.286","0.0"],
    [1393100,"2026-01-03 00:20:00","30680","1.869","285.8","3.103","271","1006.948","8.36","69.78","-1.284","0.0"],
    [1393101,"2026-01-03 00:30:00","30681","1.771","295.0","3.234","314","1006.9760000000001","8.34","69.92","-1.286","0.0"],
    [1393102,"2026-01-03 00:40:00","30682","2.436","309.0","3.691","315.2","1006.895","8.47","69.68","-1.29","0.0"],
    [1393103,"2026-01-03 00:50:00","30683","2.193","300.5","3.659","322.8","1006.8380000000001","8.88","67.92","-1.287","0.0"],
    [1393104,"2026-01-03 01:00:00","30684","1.405","289.9","2.254","291.7","1006.9110000000001","8.9","67.19","-1.29","0.0"],
    [1393105,"2026-01-03 01:10:00","30685","1.531","290.1","2.483","290.5","1006.985","8.5","68.88","-1.786","0.0"],
    [1393106,"2026-01-03 01:20:00","30686","1.681","295.6","2.777","284.7","1006.925","8.14","70.45","-1.8030000000000002","0.0"],
    [1393107,"2026-01-03 01:30:00","30687","1.425","294.8","2.483","306.3","1006.938","7.8660000000000005","71.84","-2.036","0.0"],
    [1393108,"2026-01-03 01:40:00","30688","1.493","286.5","2.417","288.8","1007.049","7.945","71.46","-1.475","0.0"],
    [1393109,"2026-01-03 01:50:00","30689","1.412","285.7","2.777","283.9","1007.0160000000001","8.01","71.27","-1.262","0.0"],
    [1393110,"2026-01-03 02:00:00","30690","1.124","291.9","2.646","265.1","1007.201","8.14","70.44","-1.291","0.0"],
    [1393111,"2026-01-03 02:10:00","30691","0.629","301.2","1.568","297.2","1007.252","7.996","71.71","-1.2919999999999998","0.0"],
    [1393112,"2026-01-03 02:20:00","30692","1.713","299.9","2.777","287.4","1007.2560000000001","8.25","71.12","-1.166","0.0"],
    [1393113,"2026-01-03 02:30:00","30693","1.6569999999999998","301.1","2.45","293.4","1007.195","8.4","70.58","-0.6459999999999999","0.0"],
    [1393114,"2026-01-03 02:40:00","30694","1.5830000000000002","302.2","2.385","308","1007.1410000000001","8.43","70.82","-0.637","0.0"],
    [1393115,"2026-01-03 02:50:00","30695","1.761","300.5","2.679","307.4","1007.002","8.44","71.36","-0.937","0.0"],
    [1393116,"2026-01-03 03:00:00","30696","1.286","278.3","2.156","281.9","1006.937","8.6","70.58","-1.041","0.0"],
    [1393117,"2026-01-03 03:10:00","30697","1.435","289.8","2.058","273.2","1006.919","8.52","70.64","-1.285","0.0"],
    [1393118,"2026-01-03 03:20:00","30698","1.5419999999999998","304.5","2.548","309.1","1006.7389999999999","8.4","71.2","-1.286","0.0"],
    [1393119,"2026-01-03 03:30:00","30699","1.315","302.9","2.189","297","1006.655","8.33","71.81","-1.294","0.0"],
    [1393120,"2026-01-03 03:40:00","30700","1.672","307.0","2.613","317","1006.7460000000001","8.29","72.35","-1.435","0.0"],
    [1393121,"2026-01-03 03:50:00","30701","1.501","301.4","2.613","323.2","1006.704","8.31","72.83","-1.295","0.0"],
    [1393122,"2026-01-03 04:00:00","30702","1.014","292.9","1.96","296.7","1006.712","8.33","72.24","-1.2919999999999998","0.0"],
    [1393123,"2026-01-03 04:10:00","30703","1.018","311.8","1.568","304","1006.635","8.31","72.77","-1.29","0.0"],
    [1393124,"2026-01-03 04:20:00","30704","1.1440000000000001","320.3","1.764","312.8","1006.502","8.32","73.49","-1.2890000000000001","0.0"],
    [1393125,"2026-01-03 04:30:00","30705","1.376","291.4","1.993","283.4","1006.595","8.39","72.94","-1.2770000000000001","0.0"],
    [1393126,"2026-01-03 04:40:00","30706","0.787","311.2","1.731","309.4","1006.534","8.26","73.9","-1.113","0.0"],
    [1393127,"2026-01-03 04:50:00","30707","0.386","321.8","0.98","327.8","1006.35","8.25","74.67","-1.2109999999999999","0.0"],
    [1393128,"2026-01-03 05:00:00","30708","1.002","331.4","1.797","332.4","1006.183","8.31","76.59","-1.371","0.0"],
    [1393129,"2026-01-03 05:10:00","30709","1.161","334.6","1.731","336","1006.24","8.57","75.67","-1.8630000000000002","0.0"],
    [1393130,"2026-01-03 05:20:00","30710","1.1079999999999999","333.4","1.764","327.8","1006.2739999999999","8.63","75.1","-1.369","0.0"],
    [1393131,"2026-01-03 05:30:00","30711","1.525","280.0","2.352","278.7","1006.546","8.81","72.75","-1.629","0.0"],
    [1393132,"2026-01-03 05:40:00","30712","1.2670000000000001","296.1","2.45","297.9","1006.6619999999999","8.1","75.23","-1.297","0.0"],
    [1393133,"2026-01-03 05:50:00","30713","1.3980000000000001","285.4","1.96","287.3","1006.7310000000001","8.08","74.4","-1.298","0.0"],
    [1393134,"2026-01-03 06:00:00","30714","1.475","279.9","2.025","270.9","1006.789","8.06","74.21","-1.215","0.0"],
    [1393135,"2026-01-03 06:10:00","30715","1.7369999999999999","278.9","2.515","281.6","1006.9680000000001","8.02","74.5","-0.8490000000000001","0.0"],
    [1393136,"2026-01-03 06:20:00","30716","1.744","275.5","2.483","261.7","1007.1569999999999","7.877000000000001","75.45","-1.236","0.0"],
    [1393137,"2026-01-03 06:30:00","30717","1.4569999999999999","306.3","2.123","320.2","1007.176","7.904","75.53","-1.2690000000000001","0.0"],
    [1393138,"2026-01-03 06:40:00","30718","1.068","299.7","1.895","319.3","1007.413","7.921","75.14","-1.2919999999999998","0.0"],
    [1393139,"2026-01-03 06:50:00","30719","0.98","329.4","1.797","333.4","1007.3610000000001","7.872000000000001","75.67","-1.6480000000000001","0.0"],
    [1393140,"2026-01-03 07:00:00","30720","0.9940000000000001","345.8","1.731","337.5","1007.258","7.925","75.25","-1.714","0.0"],
    [1393141,"2026-01-03 07:10:00","30721","0.91","354.3","1.601","19.78","1007.1210000000001","7.904","76.4","-0.7829999999999999","0.0"],
    [1393142,"2026-01-03 07:20:00","30722","2.521","49.99","6.893","62.27","1006.9830000000001","8.63","79.06","0.24600000000000002","0.0"],
    [1393143,"2026-01-03 07:30:00","30723","4.874","60.51","7.285","67.53","1006.808","10.53","79.82","5.276","0.0"],
    [1393144,"2026-01-03 07:40:00","30724","4.806","55.48","7.317","73.42","1006.926","10.75","77.45","14.42","0.0"],
    [1393145,"2026-01-03 07:50:00","30725","4.9","52.17","7.317","57.93","1007.0889999999999","10.94","75.26","19.25","0.0"],
    [1393146,"2026-01-03 08:00:00","30726","4.801","59.48","6.762","72.13","1006.965","10.96","74.28","28.11","0.0"],
    [1393147,"2026-01-03 08:10:00","30727","4.7139999999999995","53.42","6.991","66.34","1007.073","11.01","73.77","41.75","0.0"],
    [1393148,"2026-01-03 08:20:00","30728","4.71","55.05","7.121","49.7","1007.05","10.99","73.17","55.35","0.0"],
    [1393149,"2026-01-03 08:30:00","30729","4.669","56.68","6.86","50.08","1007.148","10.93","73.26","63.56","0.0"],
    [1393150,"2026-01-03 08:40:00","30730","4.402","55.15","7.448","56.94","1007.315","10.94","72.48","78.46","0.0"],
    [1393151,"2026-01-03 08:50:00","30731","4.199","53.42","6.566","50.67","1007.5880000000001","11.03","72.43","113.1","0.0"],
    [1393152,"2026-01-03 09:00:00","30732","4.74","55.69","6.697","54.37","1007.543","11.17","71.61","140.9","0.0"],
    [1393153,"2026-01-03 09:10:00","30733","4.165","62.07","5.945","71.61","1007.5930000000001","11.29","71.76","148.0","0.0"],
    [1393154,"2026-01-03 09:20:00","30734","4.446000000000001","56.85","7.023","61.83","1007.64","11.33","71.37","148.4","0.0"],
    [1393155,"2026-01-03 09:30:00","30735","4.324","60.55","6.272","74.3","1007.85","11.48","70.83","239.7","0.0"],
    [1393156,"2026-01-03 09:40:00","30736","4.861000000000001","61.98","7.35","59.51","1008.048","11.63","69.72","181.1","0.0"],
    [1393157,"2026-01-03 09:50:00","30737","4.277","56.58","6.501","55.05","1008.1139999999999","11.51","70.67","165.0","0.0"],
    [1393158,"2026-01-03 10:00:00","30738","4.531000000000001","53.56","6.599","54.51","1008.327","11.49","71.2","145.3","0.0"],
    [1393159,"2026-01-03 10:10:00","30739","4.618","55.34","6.827","66.62","1008.206","11.48","71.42","169.2","0.0"],
    [1393160,"2026-01-03 10:20:00","30740","5.039","53.63","7.709","55.41","1008.005","11.63","71.05","257.9","0.0"],
    [1393161,"2026-01-03 10:30:00","30741","4.916","52.06","7.35","59.07","1007.882","11.62","71.05","213.9","0.0"],
    [1393162,"2026-01-03 10:40:00","30742","4.775","53.89","6.501","45.44","1007.877","11.46","71.91","146.4","0.0"],
    [1393163,"2026-01-03 10:50:00","30743","4.024","49.71","5.619","68.37","1007.962","11.37","72.3","114.2","0.0"],
    [1393164,"2026-01-03 11:00:00","30744","4.426","49.12","6.86","44.25","1007.893","11.35","72.43","195.5","0.0"],
    [1393165,"2026-01-03 11:10:00","30745","4.023","47.83","6.599","60.1","1007.837","11.58","71.4","241.8","0.0"],
    [1393166,"2026-01-03 11:20:00","30746","4.702","53.21","6.37","52.44","1007.7130000000001","11.65","70.81","210.4","0.0"],
    [1393167,"2026-01-03 11:30:00","30747","5.261","52.89","7.84","57.14","1007.645","11.64","70.59","194.4","0.0"],
    [1393168,"2026-01-03 11:40:00","30748","4.831","54.46","6.599","52.1","1007.4830000000001","11.66","70.55","189.8","0.0"],
    [1393169,"2026-01-03 11:50:00","30749","4.772","53.61","6.729","61.46","1007.352","11.48","71.36","132.7","0.0"],
    [1393170,"2026-01-03 12:00:00","30750","4.573","51.84","6.762","48.1","1007.1160000000001","11.33","72.46","178.1","0.0"],
    [1393171,"2026-01-03 12:10:00","30751","4.44","57.59","6.501","55.04","1007.1439999999999","11.39","72.35","182.4","0.0"],
    [1393172,"2026-01-03 12:20:00","30752","4.822","54.86","6.403","51.68","1007.0939999999999","11.28","72.07","132.9","0.0"],
    [1393173,"2026-01-03 12:30:00","30753","4.498","56.68","5.88","54.6","1006.955","11.18","72.45","109.7","0.0"],
    [1393174,"2026-01-03 12:40:00","30754","4.708","51.95","6.762","40.9","1006.717","11.15","72.2","124.3","0.0"],
    [1393175,"2026-01-03 12:50:00","30755","4.613","50.79","6.566","61.65","1006.6360000000001","11.17","72.3","104.8","0.0"],
    [1393176,"2026-01-03 13:00:00","30756","4.0489999999999995","52.59","6.337","54.75","1006.587","11.14","72.92","80.2","0.0"],
    [1393177,"2026-01-03 13:10:00","30757","4.043","50.76","5.945","38.61","1006.416","11.25","73.0","116.7","0.0"],
    [1393178,"2026-01-03 13:20:00","30758","3.8089999999999997","57.4","5.488","77.31","1006.3580000000001","11.52","72.08","140.7","0.0"],
    [1393179,"2026-01-03 13:30:00","30759","4.151","60.64","6.272","39.9","1006.4069999999999","11.54","71.22","113.2","0.0"],
    [1393180,"2026-01-03 13:40:00","30760","4.0889999999999995","56.38","6.141","49.54","1006.3380000000001","11.56","71.37","94.4","0.0"],
    [1393181,"2026-01-03 13:50:00","30761","4.024","56.28","5.847","58.91","1006.334","11.47","71.46","88.2","0.0"],
    [1393182,"2026-01-03 14:00:00","30762","4.14","67.67","5.88","72.92","1006.265","11.52","71.29","81.2","0.0"],
    [1393183,"2026-01-03 14:10:00","30763","3.9","63.08","5.88","58.12","1006.329","11.5","72.25","70.05","0.0"],
    [1393184,"2026-01-03 14:20:00","30764","4.394","70.06","6.043","68.67","1006.324","11.46","72.57","53.14","0.0"],
    [1393185,"2026-01-03 14:30:00","30765","3.866","64.48","5.521","59.1","1006.4","11.41","72.8","39.13","0.0"],
    [1393186,"2026-01-03 14:40:00","30766","4.053999999999999","56.06","6.174","45.53","1006.2919999999999","11.33","72.91","51.46","0.0"],
    [1393187,"2026-01-03 14:50:00","30767","4.003","45.96","6.468","58.62","1006.112","11.33","72.2","58.04","0.0"],
    [1393188,"2026-01-03 15:00:00","30768","3.415","46.92","5.357","27.32","1005.962","11.33","72.13","58.59","0.0"],
    [1393189,"2026-01-03 15:10:00","30769","4.4110000000000005","50.2","6.468","60.77","1006.035","11.3","71.6","55.25","0.0"],
    [1393190,"2026-01-03 15:20:00","30770","4.07","53.72","6.37","69.11","1006.051","11.28","71.58","37.95","0.0"],
    [1393191,"2026-01-03 15:30:00","30771","4.407","56.68","6.011","47.18","1006.035","11.27","71.64","28.95","0.0"],
    [1393192,"2026-01-03 15:40:00","30772","4.252","55.1","6.403","64.03","1005.919","11.25","71.98","25.35","0.0"],
    [1393193,"2026-01-03 15:50:00","30773","3.614","54.82","5.488","49.57","1005.888","11.24","72.89","18.13","0.0"],
    [1393194,"2026-01-03 16:00:00","30774","4.591","56.7","6.337","32.53","1005.7710000000001","11.24","72.73","14.37","0.0"],
    [1393195,"2026-01-03 16:10:00","30775","4.468","60.09","6.827","46.21","1005.825","11.25","73.17","10.19","0.0"],
    [1393196,"2026-01-03 16:20:00","30776","4.237","63.68","6.011","59.88","1005.822","11.22","73.59","6.216","0.0"],
    [1393197,"2026-01-03 16:30:00","30777","4.231","66.66","6.37","71.35","1005.7189999999999","11.19","73.94","2.5869999999999997","0.0"],
    [1393198,"2026-01-03 16:40:00","30778","3.94","73.23","5.619","71.61","1005.819","11.14","74.03","0.617","0.0"],
    [1393199,"2026-01-03 16:50:00","30779","4.386","67.6","6.011","70.14","1005.8530000000001","11.13","73.96","-0.313","0.0"],
    [1393200,"2026-01-03 17:00:00","30780","3.778","64.03","5.651","48.55","1005.883","11.16","74.03","-0.55","0.0"],
    [1393201,"2026-01-03 17:10:00","30781","3.9139999999999997","69.48","5.586","74.35","1005.873","11.19","75.57","-0.56","0.0"],
    [1393202,"2026-01-03 17:20:00","30782","4.273","71.56","6.435","69.12","1005.818","11.16","76.32","-0.602","0.0"],
    [1393203,"2026-01-03 17:30:00","30783","4.215","77.61","6.076","75.42","1005.8789999999999","11.17","76.64","-0.585","0.0"],
    [1393204,"2026-01-03 17:40:00","30784","4.02","77.46","5.913","79.95","1005.898","11.18","76.16","-0.583","0.0"],
    [1393205,"2026-01-03 17:50:00","30785","4.204","75.29","5.978","72.4","1005.96","11.23","75.63","-0.596","0.0"],
    [1393206,"2026-01-03 18:00:00","30786","4.099","76.53","6.174","79.68","1006.012","11.26","74.63","-0.613","0.0"],
    [1393207,"2026-01-03 18:10:00","30787","4.016","71.52","5.684","60.35","1006.039","11.23","74.75","-0.5870000000000001","0.0"],
    [1393208,"2026-01-03 18:20:00","30788","4.169","70.78","6.37","64.78","1006.066","11.24","74.6","-0.627","0.0"],
    [1393209,"2026-01-03 18:30:00","30789","4.365","71.85","6.141","80.5","1006.061","11.17","73.81","-0.917","0.0"],
    [1393210,"2026-01-03 18:40:00","30790","3.912","67.21","5.815","72.22","1006.057","11.18","73.87","-1.226","0.0"],
    [1393211,"2026-01-03 18:50:00","30791","4.183","65.67","5.782","53.39","1006.074","11.17","73.98","-1.2690000000000001","0.0"],
    [1393212,"2026-01-03 19:00:00","30792","4.234","63.92","5.978","76.03","1006.1060000000001","11.21","74.11","-1.26","0.0"],
    [1393213,"2026-01-03 19:10:00","30793","4.42","61.63","6.501","66.28","1006.115","11.2","73.79","-1.252","0.0"],
    [1393214,"2026-01-03 19:20:00","30794","4.645","65.68","6.631","64.72","1006.102","11.23","74.47","-1.263","0.0"],
    [1393215,"2026-01-03 19:30:00","30795","4.243","56.0","6.207","54.8","1006.1289999999999","11.19","75.39","-1.5959999999999999","0.0"],
    [1393216,"2026-01-03 19:40:00","30796","4.546","56.5","6.566","59.09","1006.164","11.12","74.95","-2.0340000000000003","0.0"],
    [1393217,"2026-01-03 19:50:00","30797","4.206","53.72","7.023","76.21","1006.227","11.06","75.63","-2.026","0.0"],
    [1393218,"2026-01-03 20:00:00","30798","4.251","55.09","6.501","44.65","1006.2280000000001","10.98","76.0","-2.131","0.0"],
    [1393219,"2026-01-03 20:10:00","30799","4.493","61.96","6.762","57.81","1006.217","10.87","77.01","-2.68","0.0"],
    [1393220,"2026-01-03 20:20:00","30800","4.685","58.46","6.533","64.74","1006.21","10.74","78.36","-2.761","0.0"],
    [1393221,"2026-01-03 20:30:00","30801","4.212","50.23","6.468","43.78","1006.265","10.58","79.09","-2.763","0.0"],
    [1393222,"2026-01-03 20:40:00","30802","4.3","54.87","6.305","55.7","1006.2289999999999","10.49","79.63","-2.761","0.0"],
    [1393223,"2026-01-03 20:50:00","30803","4.449","52.64","6.043","54.13","1006.206","10.34","80.7","-2.623","0.1"],
    [1393224,"2026-01-03 21:00:00","30804","4.518","52.19","6.729","55.22","1006.24","10.21","82.1","-2.166","0.0"],
    [1393225,"2026-01-03 21:10:00","30805","4.099","56.26","6.109","65.62","1006.2389999999999","10.1","83.3","-2.063","0.1"],
    [1393226,"2026-01-03 21:20:00","30806","3.988","55.55","5.913","45.61","1006.189","9.99","83.9","-2.046","0.1"],
    [1393227,"2026-01-03 21:30:00","30807","3.9739999999999998","53.58","5.619","58.41","1006.193","9.94","84.1","-2.147","0.1"],
    [1393228,"2026-01-03 21:40:00","30808","4.086","52.22","6.305","45.74","1006.204","9.93","84.2","-2.06","0.0"],
    [1393229,"2026-01-03 21:50:00","30809","4.024","51.0","6.729","57.04","1006.2360000000001","9.86","83.3","-2.024","0.0"],
    [1393230,"2026-01-03 22:00:00","30810","4.263","51.23","6.403","46.73","1006.291","9.82","82.3","-2.024","0.0"],
    [1393231,"2026-01-03 22:10:00","30811","3.4589999999999996","48.14","6.076","32.06","1006.35","9.82","82.0","-2.011","0.0"],
    [1393232,"2026-01-03 22:20:00","30812","3.4130000000000003","51.08","5.684","56.73","1006.3919999999999","9.86","81.7","-2.019","0.0"],
    [1393233,"2026-01-03 22:30:00","30813","3.266","52.03","4.998","49.5","1006.41","9.83","82.0","-2.0469999999999997","0.0"],
    [1393234,"2026-01-03 22:40:00","30814","3.582","61.68","5.423","61.65","1006.423","9.83","81.9","-2.173","0.0"],
    [1393235,"2026-01-03 22:50:00","30815","2.753","59.91","4.508","36.84","1006.454","9.83","82.2","-2.086","0.0"],
    [1393236,"2026-01-03 23:00:00","30816","3.031","54.89","4.737","60.8","1006.431","9.8","82.3","-2.102","0.0"],
    [1393237,"2026-01-03 23:10:00","30817","2.83","55.53","4.769","50.65","1006.403","9.91","82.4","-2.032","0.0"],
    [1393238,"2026-01-03 23:20:00","30818","2.222","58.32","3.136","49.73","1006.3789999999999","9.95","81.8","-2.016","0.0"],
    [1393239,"2026-01-03 23:30:00","30819","2.4930000000000003","48.89","3.561","56.62","1006.285","9.92","82.0","-2.046","0.0"],
    [1393240,"2026-01-03 23:40:00","30820","3.094","58.71","4.573","38.8","1006.193","9.81","83.1","-2.041","0.1"],
    [1393241,"2026-01-03 23:50:00","30821","3.2880000000000003","60.03","4.573","61.33","1006.191","9.64","83.9","-2.025","0.0"],
    [1393242,"2026-01-04 00:00:00","30822","2.66","60.61","4.116","64.91","1006.1289999999999","9.52","85.7","-1.959","0.1"],
    [1393243,"2026-01-04 00:10:00","30823","3.016","53.89","4.835","50.16","1006.102","9.43","86.8","-1.895","0.0"],
    [1393244,"2026-01-04 00:20:00","30824","3.488","66.08","5.227","64.07","1006.047","9.37","85.9","-1.999","0.1"],
    [1393245,"2026-01-04 00:30:00","30825","4.199","73.45","5.684","80.6","1006.064","9.26","84.0","-1.9680000000000002","0.0"],
    [1393246,"2026-01-04 00:40:00","30826","3.613","67.6","5.749","76.68","1006.0360000000001","9.25","85.5","-2.013","0.1"],
    [1393247,"2026-01-04 00:50:00","30827","3.984","63.73","5.749","49.3","1006.0319999999999","9.18","85.6","-1.944","0.1"],
    [1393248,"2026-01-04 01:00:00","30828","4.2780000000000005","63.99","6.37","74.09","1006.023","9.15","84.6","-2.01","0.0"],
    [1393249,"2026-01-04 01:10:00","30829","4.273","66.01","6.697","76.03","1006.002","9.1","83.5","-2.062","0.1"],
    [1393250,"2026-01-04 01:20:00","30830","3.2119999999999997","61.09","5.782","62.2","1005.9960000000001","9.13","84.4","-2.0340000000000003","0.0"],
    [1393251,"2026-01-04 01:30:00","30831","3.701","57.63","6.141","61.96","1005.985","9.1","83.6","-2.05","0.1"],
    [1393252,"2026-01-04 01:40:00","30832","4.379","56.45","7.056","36.49","1005.9939999999999","9.05","80.7","-2.325","0.0"],
    [1393253,"2026-01-04 01:50:00","30833","4.734","57.35","7.056","49.9","1005.946","9.08","77.57","-2.4419999999999997","0.0"],
    [1393254,"2026-01-04 02:00:00","30834","4.226","60.7","6.762","65.07","1005.8989999999999","9.16","78.53","-1.3519999999999999","0.0"],
    [1393255,"2026-01-04 02:10:00","30835","3.908","56.47","5.455","61.41","1005.8539999999999","9.18","77.54","-1.285","0.0"],
    [1393256,"2026-01-04 02:20:00","30836","4.32","51.1","6.991","58.34","1005.8539999999999","9.14","77.07","-1.2209999999999999","0.0"],
    [1393257,"2026-01-04 02:30:00","30837","4.527","53.89","6.795","59.81","1005.8530000000001","8.99","75.95","-0.43200000000000005","0.0"],
    [1393258,"2026-01-04 02:40:00","30838","4.742","64.42","6.697","71.75","1005.808","8.96","74.92","-0.335","0.0"],
    [1393259,"2026-01-04 02:50:00","30839","5.091","68.94","7.611","69.82","1005.685","8.98","74.64","-0.444","0.0"],
    [1393260,"2026-01-04 03:00:00","30840","5.285","60.39","8.07","69.97","1005.548","9.04","71.46","-0.353","0.0"],
    [1393261,"2026-01-04 03:10:00","30841","5.827000000000001","59.22","7.644","51.29","1005.437","9.05","69.98","-0.303","0.0"],
    [1393262,"2026-01-04 03:20:00","30842","6.178","53.59","8.72","54.53","1005.421","8.94","68.71","-1.171","0.0"],
    [1393263,"2026-01-04 03:30:00","30843","5.871","52.5","8.89","49.94","1005.414","8.61","71.92","-1.9769999999999999","0.2"],
    [1393264,"2026-01-04 03:40:00","30844","5.452000000000001","53.54","8.23","52.24","1005.3969999999999","8.49","74.13","-2.779","0.1"],
    [1393265,"2026-01-04 03:50:00","30845","5.681","52.48","8.07","50.01","1005.3889999999999","8.38","74.69","-2.785","0.1"],
    [1393266,"2026-01-04 04:00:00","30846","5.398","55.21","8.92","53.16","1005.3489999999999","8.29","75.74","-2.784","0.0"],
    [1393267,"2026-01-04 04:10:00","30847","5.54","55.04","8.69","47.24","1005.2860000000001","8.24","75.74","-2.78","0.0"],
    [1393268,"2026-01-04 04:20:00","30848","4.873","52.08","8.2","50.69","1005.23","8.22","74.17","-2.785","0.1"],
    [1393269,"2026-01-04 04:30:00","30849","4.977","48.39","8.1","55.6","1005.2180000000001","8.09","73.14","-2.859","0.0"],
    [1393270,"2026-01-04 04:40:00","30850","4.637","48.03","6.893","51.16","1005.2139999999999","8.07","74.0","-2.7960000000000003","0.1"],
    [1393271,"2026-01-04 04:50:00","30851","4.906000000000001","54.16","6.925","39.62","1005.209","7.935","77.22","-2.79","0.1"],
    [1393272,"2026-01-04 05:00:00","30852","5.127999999999999","53.93","7.611","53.89","1005.209","7.94","77.17","-2.79","0.1"],
    [1393273,"2026-01-04 05:10:00","30853","4.891","51.8","7.383","30.96","1005.235","7.9510000000000005","76.51","-2.787","0.1"],
    [1393274,"2026-01-04 05:20:00","30854","5.229","50.61","7.873","40.06","1005.278","7.859","75.47","-2.787","0.0"],
    [1393275,"2026-01-04 05:30:00","30855","5.353","52.99","9.51","57.03","1005.2860000000001","7.771","72.21","-2.6310000000000002","0.0"],
    [1393276,"2026-01-04 05:40:00","30856","5.891","51.33","9.21","49.69","1005.247","7.638999999999999","72.88","-2.764","0.0"],
    [1393277,"2026-01-04 05:50:00","30857","5.7620000000000005","56.3","8","59.99","1005.2560000000001","7.642","73.59","-2.7760000000000002","0.1"],
    [1393278,"2026-01-04 06:00:00","30858","5.511","51.58","7.644","62.8","1005.275","7.62","74.03","-2.7880000000000003","0.1"],
    [1393279,"2026-01-04 06:10:00","30859","5.224","56.98","7.709","65.1","1005.291","7.702000000000001","75.26","-2.748","0.0"],
    [1393280,"2026-01-04 06:20:00","30860","4.909","56.61","6.893","63.47","1005.306","7.665","76.77","-2.439","0.0"],
    [1393281,"2026-01-04 06:30:00","30861","5.379","65.07","7.873","79.79","1005.2510000000001","7.651","76.26","-2.231","0.0"],
    [1393282,"2026-01-04 06:40:00","30862","4.427","56.4","6.697","48.25","1005.2139999999999","7.796","78.01","-1.5419999999999998","0.0"],
    [1393283,"2026-01-04 06:50:00","30863","3.2260000000000004","36.84","6.533","39.49","1005.283","7.705","78.78","-1.2930000000000001","0.0"],
    [1393284,"2026-01-04 07:00:00","30864","2.27","28.64","4.149","21.38","1005.3810000000001","7.722","79.57","-1.273","0.0"],
    [1393285,"2026-01-04 07:10:00","30865","1.811","12.03","3.299","36.72","1005.432","7.675","79.57","-0.44799999999999995","0.0"],
    [1393286,"2026-01-04 07:20:00","30866","1.341","349.8","2.189","352.3","1005.5010000000001","7.489","79.53","0.366","0.0"],
    [1393287,"2026-01-04 07:30:00","30867","1.6059999999999999","344.3","2.646","345.2","1005.5930000000001","7.4239999999999995","79.39","1.3880000000000001","0.0"],
    [1393288,"2026-01-04 07:40:00","30868","1.307","353.4","2.254","341.7","1005.702","7.432","79.55","4.144","0.0"],
    [1393289,"2026-01-04 07:50:00","30869","1.324","16.44","1.927","21.15","1005.831","7.443","79.62","6.74","0.0"],
    [1393290,"2026-01-04 08:00:00","30870","1.028","15.07","1.797","18.52","1005.909","7.513","79.57","9.44","0.0"],
    [1393291,"2026-01-04 08:10:00","30871","0.888","356.6","1.503","352.4","1005.952","7.539","81.0","13.09","0.0"],
    [1393292,"2026-01-04 08:20:00","30872","0.838","344.3","1.307","352.6","1005.9630000000001","7.572","81.3","20.75","0.0"],
    [1393293,"2026-01-04 08:30:00","30873","0.29100000000000004","317.5","1.111","305.5","1005.9830000000001","7.666","80.8","23.06","0.0"],
    [1393294,"2026-01-04 08:40:00","30874","0.992","295.7","1.535","303.9","1006.0369999999999","7.778","81.6","24.66","0.0"],
    [1393295,"2026-01-04 08:50:00","30875","1.6219999999999999","304.0","2.123","305.6","1006.01","7.791","83.0","38.61","0.0"],
    [1393296,"2026-01-04 09:00:00","30876","1.446","295.1","2.025","304.7","1006.0219999999999","7.896","83.7","49.75","0.0"],
    [1393297,"2026-01-04 09:10:00","30877","1.3459999999999999","291.6","2.156","300.1","1006.0360000000001","7.936","83.4","58.44","0.0"],
    [1393298,"2026-01-04 09:20:00","30878","1.5190000000000001","290.9","1.993","274.8","1006.11","8.02","83.3","54.01","0.0"],
    [1393299,"2026-01-04 09:30:00","30879","1.568","295.2","2.123","301.6","1006.165","8.04","82.9","54.33","0.0"],
    [1393300,"2026-01-04 09:40:00","30880","1.261","296.1","1.862","305.3","1006.28","8.11","83.1","49.51","0.0"],
    [1393301,"2026-01-04 09:50:00","30881","1.349","287.8","1.829","290.9","1006.4060000000001","8.06","84.1","47.76","0.0"],
    [1393302,"2026-01-04 10:00:00","30882","1.1420000000000001","299.0","2.025","312.1","1006.507","8.03","84.2","48.97","0.0"],
    [1393303,"2026-01-04 10:10:00","30883","1.72","308.2","2.254","311.7","1006.544","8.01","83.7","54.49","0.0"],
    [1393304,"2026-01-04 10:20:00","30884","1.646","299.4","2.091","311.6","1006.541","7.952999999999999","83.6","64.7","0.0"],
    [1393305,"2026-01-04 10:30:00","30885","1.359","300.1","2.221","306.7","1006.5089999999999","8.01","83.6","68.38","0.0"],
    [1393306,"2026-01-04 10:40:00","30886","1.449","296.1","2.189","304","1006.475","8.08","82.3","66.41","0.0"],
    [1393307,"2026-01-04 10:50:00","30887","1.0959999999999999","302.1","1.862","295.9","1006.4639999999999","8.2","82.0","63.88","0.0"],
    [1393308,"2026-01-04 11:00:00","30888","0.991","269.2","1.568","284.4","1006.453","8.18","82.6","58.86","0.0"],
    [1393309,"2026-01-04 11:10:00","30889","0.807","239.7","1.633","261.7","1006.3969999999999","8.18","83.0","63.37","0.0"],
    [1393310,"2026-01-04 11:20:00","30890","0.878","251.0","1.405","248.6","1006.279","8.16","83.5","79.93","0.0"],
    [1393311,"2026-01-04 11:30:00","30891","0.728","260.2","1.339","285.9","1006.1039999999999","8.14","84.0","105.7","0.0"],
    [1393312,"2026-01-04 11:40:00","30892","1.095","243.7","1.96","281.7","1005.933","8.2","84.2","106.6","0.0"],
    [1393313,"2026-01-04 11:50:00","30893","0.674","261.5","1.568","293.3","1005.765","8.18","84.6","139.4","0.0"],
    [1393314,"2026-01-04 12:00:00","30894","0.845","229.8","1.633","202.8","1005.7","8.25","85.3","91.8","0.0"],
    [1393315,"2026-01-04 12:10:00","30895","0.41200000000000003","252.6","1.503","239.5","1005.6010000000001","8.23","84.7","116.3","0.0"],
    [1393316,"2026-01-04 12:20:00","30896","0.677","264.3","1.503","290.5","1005.4960000000001","8.32","83.6","82.4","0.0"],
    [1393317,"2026-01-04 12:30:00","30897","0.754","282.9","1.633","276.2","1005.45","8.38","82.9","92.1","0.0"],
    [1393318,"2026-01-04 12:40:00","30898","0.8390000000000001","275.5","1.339","290.5","1005.3480000000001","8.36","83.1","104.6","0.0"],
    [1393319,"2026-01-04 12:50:00","30899","0.59","219.0","1.045","217.6","1005.2239999999999","8.46","83.8","92.8","0.0"],
    [1393320,"2026-01-04 13:00:00","30900","0.727","216.7","1.895","209","1005.133","8.63","83.8","101.4","0.0"],
    [1393321,"2026-01-04 13:10:00","30901","1.2329999999999999","213.4","2.352","219.5","1005.0269999999999","8.73","83.7","84.4","0.0"],
    [1393322,"2026-01-04 13:20:00","30902","1.6480000000000001","214.5","2.875","208.1","1004.936","8.8","83.1","60.76","0.0"],
    [1393323,"2026-01-04 13:30:00","30903","1.104","243.5","2.319","205.2","1004.845","9.06","82.4","53.82","0.0"],
    [1393324,"2026-01-04 13:40:00","30904","1.341","234.6","2.777","219.6","1004.812","9.15","80.4","44.05","0.0"],
    [1393325,"2026-01-04 13:50:00","30905","1.18","256.0","2.809","279.1","1004.711","9.22","78.45","45.71","0.0"],
    [1393326,"2026-01-04 14:00:00","30906","1.025","257.8","2.319","258.6","1004.664","9.23","78.54","52.75","0.0"],
    [1393327,"2026-01-04 14:10:00","30907","1.5430000000000001","305.1","2.385","307.5","1004.613","9.26","80.5","62.28","0.0"],
    [1393328,"2026-01-04 14:20:00","30908","1.385","293.9","2.221","301.3","1004.585","9.13","82.0","66.23","0.0"],
    [1393329,"2026-01-04 14:30:00","30909","1.036","317.6","1.699","320.5","1004.672","9.14","82.3","67.9","0.0"],
    [1393330,"2026-01-04 14:40:00","30910","0.991","337.8","1.405","349.6","1004.7360000000001","9.16","82.5","78.48","0.0"],
    [1393331,"2026-01-04 14:50:00","30911","0.302","327.2","1.241","327.3","1004.8480000000001","9.24","82.3","59.42","0.0"],
    [1393332,"2026-01-04 15:00:00","30912","0.0","0.0","0","0","1004.967","9.31","81.8","41.97","0.0"],
    [1393333,"2026-01-04 15:10:00","30913","0.003","322.0","0.098","322","1005.095","9.28","82.0","23.21","0.0"],
    [1393334,"2026-01-04 15:20:00","30914","0.253","227.0","0.817","210.5","1005.19","9.28","82.3","14.31","0.0"],
    [1393335,"2026-01-04 15:30:00","30915","0.015","276.7","0.457","276.7","1005.2339999999999","9.22","81.9","10.58","0.0"],
    [1393336,"2026-01-04 15:40:00","30916","0.611","242.9","1.176","243.6","1005.268","9.19","81.9","7.044","0.0"],
    [1393337,"2026-01-04 15:50:00","30917","0.988","288.1","1.666","288.5","1005.308","9.19","82.3","4.422","0.0"],
    [1393338,"2026-01-04 16:00:00","30918","1.264","282.0","1.895","269","1005.324","9.14","82.7","2.603","0.0"],
    [1393339,"2026-01-04 16:10:00","30919","1.4680000000000002","303.8","2.907","323.1","1005.3430000000001","9.06","83.5","1.7830000000000001","0.0"],
    [1393340,"2026-01-04 16:20:00","30920","1.577","317.4","2.483","312.3","1005.331","9.01","82.9","1.2690000000000001","0.0"],
    [1393341,"2026-01-04 16:30:00","30921","1.965","317.2","3.071","310.7","1005.34","9.0","81.4","0.6859999999999999","0.0"],
    [1393342,"2026-01-04 16:40:00","30922","1.361","313.0","2.058","310.1","1005.367","9.02","81.0","-0.055999999999999994","0.0"],
    [1393343,"2026-01-04 16:50:00","30923","1.9609999999999999","314.4","2.907","312.6","1005.4169999999999","9.02","80.2","-0.534","0.0"],
    [1393344,"2026-01-04 17:00:00","30924","1.7819999999999998","318.1","2.744","309.6","1005.44","9.02","78.76","-0.57","0.0"],
    [1393345,"2026-01-04 17:10:00","30925","1.338","308.2","2.287","302.7","1005.4989999999999","8.95","79.78","-1.173","0.0"],
    [1393346,"2026-01-04 17:20:00","30926","1.008","337.9","1.829","331.4","1005.576","8.87","80.8","-1.133","0.0"],
    [1393347,"2026-01-04 17:30:00","30927","1.443","4.273","2.352","8.29","1005.696","8.93","79.59","-0.768","0.0"],
    [1393348,"2026-01-04 17:40:00","30928","1.692","56.5","2.515","58.08","1005.826","8.95","80.4","-1.258","0.0"],
    [1393349,"2026-01-04 17:50:00","30929","1.265","44.83","1.829","64.83","1005.988","8.71","81.8","-1.7530000000000001","0.0"],
    [1393350,"2026-01-04 18:00:00","30930","1.2329999999999999","29.4","2.123","46.32","1006.092","8.51","83.2","-1.786","0.0"],
    [1393351,"2026-01-04 18:10:00","30931","0.992","17.14","1.764","29.11","1006.2130000000001","8.36","84.3","-1.321","0.0"],
    [1393352,"2026-01-04 18:20:00","30932","1.3090000000000002","342.9","1.927","334.2","1006.326","8.32","84.9","-1.271","0.0"],
    [1393353,"2026-01-04 18:30:00","30933","0.675","13.59","2.613","61.83","1006.454","8.28","83.4","-1.198","0.0"],
    [1393354,"2026-01-04 18:40:00","30934","2.145","52.65","4.018","67.68","1006.567","8.6","69.81","-1.249","0.0"],
    [1393355,"2026-01-04 18:50:00","30935","1.556","5.87","3.397","28.09","1006.578","8.81","71.99","-0.7559999999999999","0.0"],
    [1393356,"2026-01-04 19:00:00","30936","1.304","3.622","2.45","24.93","1006.6410000000001","8.62","73.3","-1.107","0.0"],
    [1393357,"2026-01-04 19:10:00","30937","0.674","28.99","1.666","17.6","1006.722","8.65","72.09","-1.131","0.0"],
    [1393358,"2026-01-04 19:20:00","30938","1.784","50.59","5.586","71.05","1006.77","8.6","68.04","-1.26","0.0"],
    [1393359,"2026-01-04 19:30:00","30939","3.503","52.59","6.011","51.29","1006.7610000000001","8.98","52.98","-1.247","0.1"],
    [1393360,"2026-01-04 19:40:00","30940","3.679","54.08","5.978","64.21","1006.745","9.08","50.42","-1.073","0.0"],
    [1393361,"2026-01-04 19:50:00","30941","4.23","56.0","6.239","61.9","1006.7360000000001","9.04","49.2","-0.7809999999999999","0.0"],
    [1393362,"2026-01-04 20:00:00","30942","3.968","57.26","5.815","57.9","1006.775","9.01","49.57","-0.846","0.0"],
    [1393363,"2026-01-04 20:10:00","30943","4.343999999999999","60.76","6.697","65.08","1006.818","9.02","50.57","-0.713","0.0"],
    [1393364,"2026-01-04 20:20:00","30944","4.317","68.1","6.207","78.3","1006.862","8.94","51.33","-0.845","0.0"],
    [1393365,"2026-01-04 20:30:00","30945","3.117","52.29","5.913","76.99","1006.941","9.0","53.36","-0.884","0.0"],
    [1393366,"2026-01-04 20:40:00","30946","3.361","56.86","5.063","54","1007.008","8.99","50.66","-1.004","0.0"],
    [1393367,"2026-01-04 20:50:00","30947","1.2","296.6","3.071","44.09","1007.079","8.52","71.11","-0.7959999999999999","0.0"],
    [1393368,"2026-01-04 21:00:00","30948","1.3840000000000001","290.8","2.385","309","1007.071","7.791","81.0","-1.061","0.0"],
    [1393369,"2026-01-04 21:10:00","30949","1.685","296.7","2.777","307.3","1007.0219999999999","7.6979999999999995","82.0","-0.9129999999999999","0.0"],
    [1393370,"2026-01-04 21:20:00","30950","1.734","300.5","2.515","301.6","1007.012","7.711","81.5","-1.025","0.0"],
    [1393371,"2026-01-04 21:30:00","30951","2.145","306.6","3.071","322.2","1007.005","7.711","80.9","-0.905","0.0"],
    [1393372,"2026-01-04 21:40:00","30952","1.911","305.3","2.973","311.7","1007.028","7.662000000000001","81.4","-0.758","0.0"],
    [1393373,"2026-01-04 21:50:00","30953","1.844","297.4","2.973","305.8","1007.0830000000001","7.617000000000001","81.5","-0.877","0.0"],
    [1393374,"2026-01-04 22:00:00","30954","2.45","301.0","3.822","302","1007.1139999999999","7.601","80.9","-0.828","0.0"],
    [1393375,"2026-01-04 22:10:00","30955","2.169","313.2","3.528","313.5","1007.197","7.595","81.1","-0.904","0.0"],
    [1393376,"2026-01-04 22:20:00","30956","2.48","315.5","3.659","321.8","1007.319","7.582999999999999","80.6","-0.8440000000000001","0.0"],
    [1393377,"2026-01-04 22:30:00","30957","2.092","323.8","3.365","311","1007.45","7.5729999999999995","80.6","-0.93","0.0"],
    [1393378,"2026-01-04 22:40:00","30958","2.9139999999999997","325.9","4.606","325.5","1007.553","7.449","79.13","-0.747","0.0"],
    [1393379,"2026-01-04 22:50:00","30959","3.097","330.6","4.737","328.6","1007.572","7.394","77.29","-0.7070000000000001","0.0"],
    [1393380,"2026-01-04 23:00:00","30960","2.833","320.6","4.835","334.3","1007.567","7.39","75.95","-0.728","0.0"],
    [1393381,"2026-01-04 23:10:00","30961","3.557","312.1","5.39","309.1","1007.581","7.409","75.57","-0.7140000000000001","0.0"],
    [1393382,"2026-01-04 23:20:00","30962","3.9139999999999997","313.6","5.521","308.9","1007.579","7.382999999999999","75.59","-0.647","0.0"],
    [1393383,"2026-01-04 23:30:00","30963","3.0810000000000004","320.7","4.279","313.7","1007.6289999999999","7.343","76.32","-0.669","0.0"],
    [1393384,"2026-01-04 23:40:00","30964","3.07","326.4","5.684","333.9","1007.612","7.308","76.6","-0.7659999999999999","0.0"],
    [1393385,"2026-01-04 23:50:00","30965","3.3480000000000003","329.8","5.259","309.3","1007.577","7.254","76.27","-0.82","0.0"],
    [1393386,"2026-01-05 00:00:00","30966","3.133","327.4","4.965","335.8","1007.57","7.199","76.43","-1.075","0.0"],
    [1393387,"2026-01-05 00:10:00","30967","3.26","320.3","5.423","306.9","1007.566","7.1579999999999995","75.68","-0.8690000000000001","0.0"],
    [1393388,"2026-01-05 00:20:00","30968","3.892","325.8","5.847","329","1007.507","7.117999999999999","74.74","-0.7140000000000001","0.0"],
    [1393389,"2026-01-05 00:30:00","30969","3.795","325.1","6.272","305.4","1007.5239999999999","7.045","74.08","-0.7609999999999999","0.0"],
    [1393390,"2026-01-05 00:40:00","30970","4.086","323.9","6.599","315.6","1007.502","7.024","73.67","-0.7240000000000001","0.0"],
    [1393391,"2026-01-05 00:50:00","30971","4.207","317.9","6.207","323.6","1007.4069999999999","6.987","72.72","-0.65","0.0"],
    [1393392,"2026-01-05 01:00:00","30972","4.157","312.7","6.337","305.1","1007.398","6.92","72.73","-0.619","0.0"],
    [1393393,"2026-01-05 01:10:00","30973","4.215","314.3","6.337","319.8","1007.4019999999999","6.87","72.5","-0.624","0.0"],
    [1393394,"2026-01-05 01:20:00","30974","4.135","314.5","5.423","321.3","1007.4110000000001","6.837999999999999","73.71","-0.647","0.0"],
    [1393395,"2026-01-05 01:30:00","30975","3.452","315.6","5.39","315.2","1007.434","6.763999999999999","75.63","-0.8390000000000001","0.0"],
    [1393396,"2026-01-05 01:40:00","30976","3.889","322.5","5.782","323.8","1007.471","6.632999999999999","76.36","-1.5290000000000001","0.0"],
    [1393397,"2026-01-05 01:50:00","30977","3.9019999999999997","326.4","5.945","323.1","1007.544","6.415","77.93","-2.335","0.0"],
    [1393398,"2026-01-05 02:00:00","30978","4.184","315.4","5.815","317.6","1007.581","6.235","79.74","-2.218","0.1"],
    [1393399,"2026-01-05 02:10:00","30979","4.397","313.0","6.403","316.3","1007.6080000000001","6.162000000000001","80.2","-2.148","0.1"],
    [1393400,"2026-01-05 02:20:00","30980","4.272","314.5","6.533","313.6","1007.6560000000001","6.121","81.1","-2.063","0.0"],
    [1393401,"2026-01-05 02:30:00","30981","4.056","311.5","6.337","304.7","1007.758","6.072","82.3","-2.021","0.0"],
    [1393402,"2026-01-05 02:40:00","30982","4.181","319.6","6.468","317.7","1007.696","6.04","82.7","-2.016","0.0"],
    [1393403,"2026-01-05 02:50:00","30983","4.104","314.7","5.619","304.9","1007.618","5.968999999999999","82.7","-1.9369999999999998","0.0"],
    [1393404,"2026-01-05 03:00:00","30984","4.374","313.7","6.795","309.6","1007.6039999999999","5.906000000000001","82.4","-2.009","0.1"],
    [1393405,"2026-01-05 03:10:00","30985","4.478","315.8","7.187","309.1","1007.5830000000001","5.832999999999999","82.1","-2.025","0.1"],
    [1393406,"2026-01-05 03:20:00","30986","4.984","311.4","6.631","306.5","1007.574","5.712000000000001","80.9","-2.042","0.0"],
    [1393407,"2026-01-05 03:30:00","30987","4.324","306.9","7.317","313.6","1007.539","5.62","79.44","-2.05","0.0"],
    [1393408,"2026-01-05 03:40:00","30988","4.687","306.4","6.827","310.4","1007.55","5.564","78.02","-1.8330000000000002","0.1"],
    [1393409,"2026-01-05 03:50:00","30989","5.414","313.0","8.3","285.5","1007.5239999999999","5.516","77.67","-1.423","0.0"],
    [1393410,"2026-01-05 04:00:00","30990","4.519","315.3","7.285","312.7","1007.515","5.506","76.9","-1.6480000000000001","0.0"],
    [1393411,"2026-01-05 04:10:00","30991","4.059","311.9","6.599","300","1007.5419999999999","5.452999999999999","77.53","-1.5030000000000001","0.0"],
    [1393412,"2026-01-05 04:20:00","30992","4.684","304.9","7.285","306.8","1007.4830000000001","5.33","78.04","-2.042","0.0"],
    [1393413,"2026-01-05 04:30:00","30993","4.703","300.0","7.644","308.2","1007.414","5.245","78.76","-2.055","0.0"],
    [1393414,"2026-01-05 04:40:00","30994","4.592","308.0","7.415","293.8","1007.451","5.2139999999999995","78.15","-2.145","0.0"],
    [1393415,"2026-01-05 04:50:00","30995","4.665","327.5","7.709","335.5","1007.551","5.292999999999999","77.13","-2.3209999999999997","0.0"],
    [1393416,"2026-01-05 05:00:00","30996","3.408","327.8","5.357","313.4","1007.576","5.226","78.09","-2.1430000000000002","0.1"],
    [1393417,"2026-01-05 05:10:00","30997","3.8739999999999997","324.0","6.925","327.4","1007.5830000000001","5.167000000000001","76.94","-1.7730000000000001","0.0"],
    [1393418,"2026-01-05 05:20:00","30998","4.72","327.3","7.84","320.7","1007.663","5.166","75.77","-1.088","0.0"],
    [1393419,"2026-01-05 05:30:00","30999","4.697","321.9","7.317","322.6","1007.673","5.111000000000001","73.68","-0.574","0.0"],
    [1393420,"2026-01-05 05:40:00","31000","4.261","319.9","7.154","315","1007.705","5.086","72.25","-0.521","0.0"],
    [1393421,"2026-01-05 05:50:00","31001","5.0169999999999995","319.9","7.873","303.4","1007.742","4.955","70.83","-0.159","0.0"],
    [1393422,"2026-01-05 06:00:00","31002","5.857","316.6","9.11","319.4","1007.857","4.774","71.22","-0.061","0.0"],
    [1393423,"2026-01-05 06:10:00","31003","5.608","313.5","8.33","320","1007.927","4.6419999999999995","69.65","-0.013999999999999999","0.0"],
    [1393424,"2026-01-05 06:20:00","31004","5.742999999999999","315.2","8.95","311","1007.9889999999999","4.623","68.94","-0.32799999999999996","0.0"],
    [1393425,"2026-01-05 06:30:00","31005","5.6129999999999995","316.3","8.43","316.9","1007.9580000000001","4.605","70.07","-0.43","0.0"],
    [1393426,"2026-01-05 06:40:00","31006","5.234","320.3","8.36","327","1007.9580000000001","4.563","70.4","-0.447","0.0"],
    [1393427,"2026-01-05 06:50:00","31007","5.899","317.6","9.02","312.2","1007.997","4.46","70.39","-0.215","0.0"],
    [1393428,"2026-01-05 07:00:00","31008","5.56","310.7","9.21","311.8","1008.1110000000001","4.337","71.53","-0.107","0.0"],
    [1393429,"2026-01-05 07:10:00","31009","5.09","308.1","7.513","310.1","1008.17","4.218","73.12","0.342","0.0"],
    [1393430,"2026-01-05 07:20:00","31010","5.649","310.2","8.85","319.9","1008.252","4.107","73.68","1.163","0.0"],
    [1393431,"2026-01-05 07:30:00","31011","5.135","310.4","8.98","316.7","1008.284","4.061","74.33","2.75","0.0"],
    [1393432,"2026-01-05 07:40:00","31012","5.051","305.8","8.07","311.6","1008.308","3.9939999999999998","75.13","10.48","0.0"],
    [1393433,"2026-01-05 07:50:00","31013","4.914","305.4","8.36","300.7","1008.409","3.9739999999999998","76.26","21.47","0.0"],
    [1393434,"2026-01-05 08:00:00","31014","5.497000000000001","311.4","8.2","330.9","1008.493","4.012","76.57","31.18","0.0"],
    [1393435,"2026-01-05 08:10:00","31015","4.958","313.0","7.546","316.5","1008.533","4.039","76.43","39.52","0.0"],
    [1393436,"2026-01-05 08:20:00","31016","4.669","310.4","8.17","305.2","1008.571","4.091","76.27","46.93","0.0"],
    [1393437,"2026-01-05 08:30:00","31017","5.733","311.5","8.59","301.8","1008.682","4.159","75.97","57.31","0.0"],
    [1393438,"2026-01-05 08:40:00","31018","5.406000000000001","320.7","8.62","317.2","1008.765","4.217","75.47","59.9","0.0"],
    [1393439,"2026-01-05 08:50:00","31019","5.317","314.0","8.1","317.2","1008.819","4.256","75.48","65.31","0.0"],
    [1393440,"2026-01-05 09:00:00","31020","5.832999999999999","315.9","8.33","312.1","1008.8530000000001","4.159","75.68","67.72","0.0"],
    [1393441,"2026-01-05 09:10:00","31021","6.353","313.2","9.24","310.8","1008.931","4.07","75.95","63.55","0.0"],
    [1393442,"2026-01-05 09:20:00","31022","5.779","317.3","9.11","304.2","1009.025","4.106","75.73","65.0","0.0"],
    [1393443,"2026-01-05 09:30:00","31023","5.5120000000000005","317.6","8.98","310.2","1009.135","4.131","74.82","66.36","0.0"],
    [1393444,"2026-01-05 09:40:00","31024","5.316","313.6","8.13","322.9","1009.196","4.127","74.5","77.51","0.0"],
    [1393445,"2026-01-05 09:50:00","31025","5.684","315.0","9.28","311.5","1009.2410000000001","4.087","74.43","90.8","0.0"],
    [1393446,"2026-01-05 10:00:00","31026","5.711","320.1","8.66","314.7","1009.275","4.106","73.96","111.0","0.0"],
    [1393447,"2026-01-05 10:10:00","31027","5.8389999999999995","310.2","7.971","312.3","1009.243","4.121","73.72","126.8","0.0"],
    [1393448,"2026-01-05 10:20:00","31028","4.645","309.8","6.958","305.1","1009.325","4.303","73.33","130.9","0.0"],
    [1393449,"2026-01-05 10:30:00","31029","4.599","309.7","6.697","305.1","1009.452","4.553999999999999","72.82","122.8","0.0"],
    [1393450,"2026-01-05 10:40:00","31030","3.695","318.2","7.056","322.4","1009.4110000000001","4.609","72.28","112.5","0.0"],
    [1393451,"2026-01-05 10:50:00","31031","3.5639999999999996","310.9","5.357","306","1009.257","4.947","71.61","114.9","0.0"],
    [1393452,"2026-01-05 11:00:00","31032","2.758","306.8","4.345","304.5","1009.247","5.277","70.29","119.4","0.0"],
    [1393453,"2026-01-05 11:10:00","31033","2.9930000000000003","300.2","4.769","303.9","1009.198","5.544","69.54","121.7","0.0"],
    [1393454,"2026-01-05 11:20:00","31034","3.9789999999999996","302.2","5.651","306.5","1009.073","5.398","71.4","118.4","0.0"],
    [1393455,"2026-01-05 11:30:00","31035","4.289","299.9","6.468","307","1008.913","5.155","73.51","103.0","0.0"],
    [1393456,"2026-01-05 11:40:00","31036","4.0280000000000005","299.6","5.978","297","1008.8660000000001","5.145","73.73","103.9","0.0"],
    [1393457,"2026-01-05 11:50:00","31037","4.544","303.3","6.664","317.3","1008.716","5.016","73.96","95.4","0.0"],
    [1393458,"2026-01-05 12:00:00","31038","4.003","302.0","6.991","299.8","1008.535","5.0360000000000005","74.76","92.1","0.0"],
    [1393459,"2026-01-05 12:10:00","31039","3.5060000000000002","295.5","5.423","310.1","1008.4060000000001","5.109","75.89","101.6","0.0"],
    [1393460,"2026-01-05 12:20:00","31040","4.662","293.4","7.546","296.5","1008.4010000000001","5.121","76.12","116.0","0.0"],
    [1393461,"2026-01-05 12:30:00","31041","4.636","296.9","6.86","307.3","1008.342","5.11","76.03","154.4","0.0"],
    [1393462,"2026-01-05 12:40:00","31042","4.427","293.3","6.566","304.3","1008.2719999999999","5.162999999999999","75.22","140.1","0.0"],
    [1393463,"2026-01-05 12:50:00","31043","4.527","294.2","7.089","304.7","1008.12","5.044","75.1","122.9","0.0"],
    [1393464,"2026-01-05 13:00:00","31044","4.332","288.9","7.513","289.4","1008.0239999999999","5.075","74.58","127.8","0.0"],
    [1393465,"2026-01-05 13:10:00","31045","4.736000000000001","294.2","8.59","292.6","1007.9789999999999","5.051","73.29","86.6","0.0"],
    [1393466,"2026-01-05 13:20:00","31046","4.588","302.4","7.807","305.6","1007.87","5.039","72.83","81.4","0.0"],
    [1393467,"2026-01-05 13:30:00","31047","4.6739999999999995","312.4","7.383","316.6","1007.988","5.048","72.64","62.61","0.0"],
    [1393468,"2026-01-05 13:40:00","31048","5.178999999999999","314.0","7.971","306.8","1007.85","5.016","72.7","79.69","0.0"],
    [1393469,"2026-01-05 13:50:00","31049","5.007","309.3","7.219","307.6","1007.918","5.103","72.86","74.89","0.0"],
    [1393470,"2026-01-05 14:00:00","31050","4.551","302.7","7.775","310.1","1008.112","5.143","72.02","57.75","0.0"],
    [1393471,"2026-01-05 14:10:00","31051","4.909","312.2","7.546","310.6","1008.2","5.099","70.67","64.63","0.0"],
    [1393472,"2026-01-05 14:20:00","31052","4.776","317.9","7.546","337","1008.252","5.141","70.38","57.96","0.0"],
    [1393473,"2026-01-05 14:30:00","31053","4.404","316.0","6.991","311.3","1008.248","5.187","69.79","48.4","0.0"],
    [1393474,"2026-01-05 14:40:00","31054","4.57","315.5","6.403","319.1","1008.203","5.178999999999999","69.5","42.32","0.0"],
    [1393475,"2026-01-05 14:50:00","31055","3.784","314.0","5.782","306.8","1008.205","5.218","70.24","37.29","0.0"],
    [1393476,"2026-01-05 15:00:00","31056","4.091","311.9","6.435","313.6","1008.202","5.247999999999999","70.09","50.06","0.0"],
    [1393477,"2026-01-05 15:10:00","31057","4.13","311.5","5.684","313.5","1008.2330000000001","5.3260000000000005","70.0","62.36","0.0"],
    [1393478,"2026-01-05 15:20:00","31058","4.453","310.8","6.468","322.5","1008.3380000000001","5.476","69.28","71.9","0.0"],
    [1393479,"2026-01-05 15:30:00","31059","4.369","308.4","6.501","317.4","1008.37","5.437","69.49","53.03","0.0"],
    [1393480,"2026-01-05 15:40:00","31060","4.048","306.8","6.86","307.1","1008.3910000000001","5.332000000000001","69.52","38.07","0.0"],
    [1393481,"2026-01-05 15:50:00","31061","4.462","308.4","7.317","310","1008.4630000000001","5.159","69.84","27.61","0.0"],
    [1393482,"2026-01-05 16:00:00","31062","4.614","314.4","6.566","322.3","1008.4839999999999","5.021","70.31","18.94","0.0"],
    [1393483,"2026-01-05 16:10:00","31063","4.747","310.7","7.448","309.7","1008.495","4.916","70.66","11.23","0.0"],
    [1393484,"2026-01-05 16:20:00","31064","4.6819999999999995","312.3","6.991","289.4","1008.497","4.762","71.38","6.055","0.0"],
    [1393485,"2026-01-05 16:30:00","31065","4.822","310.3","6.697","309.3","1008.47","4.6930000000000005","71.83","3.563","0.0"],
    [1393486,"2026-01-05 16:40:00","31066","5.074","311.2","7.285","322.1","1008.5189999999999","4.623","72.11","1.41","0.0"],
    [1393487,"2026-01-05 16:50:00","31067","5.092","308.2","7.121","310.6","1008.544","4.538","72.23","0.263","0.0"],
    [1393488,"2026-01-05 17:00:00","31068","4.684","310.2","7.154","299.6","1008.5310000000001","4.4910000000000005","72.09","-0.562","0.0"],
    [1393489,"2026-01-05 17:10:00","31069","5.1370000000000005","310.9","7.448","321.7","1008.5419999999999","4.438","71.83","-0.667","0.0"],
    [1393490,"2026-01-05 17:20:00","31070","4.9430000000000005","313.1","7.873","323.8","1008.529","4.418","71.52","-0.772","0.0"],
    [1393491,"2026-01-05 17:30:00","31071","4.66","312.8","7.317","318.8","1008.545","4.4110000000000005","70.87","-0.94","0.0"],
    [1393492,"2026-01-05 17:40:00","31072","4.86","309.8","7.383","301.8","1008.548","4.391","70.05","-0.838","0.0"],
    [1393493,"2026-01-05 17:50:00","31073","4.2860000000000005","311.7","6.697","320.5","1008.5260000000001","4.333","69.87","-0.982","0.0"],
    [1393494,"2026-01-05 18:00:00","31074","4.425","311.0","6.305","311.8","1008.492","4.328","69.7","-1.198","0.0"],
    [1393495,"2026-01-05 18:10:00","31075","4.205","314.1","6.403","315.6","1008.4580000000001","4.335","69.45","-1.161","0.0"],
    [1393496,"2026-01-05 18:20:00","31076","3.4189999999999996","308.4","5.684","311.2","1008.457","4.4319999999999995","69.37","-1.161","0.0"],
    [1393497,"2026-01-05 18:30:00","31077","3.577","305.8","5.717","302.4","1008.502","4.5089999999999995","68.97","-1.206","0.0"],
    [1393498,"2026-01-05 18:40:00","31078","4.376","312.0","6.86","306.5","1008.637","4.673","68.5","-1.173","0.0"],
    [1393499,"2026-01-05 18:50:00","31079","3.753","309.5","6.305","321.4","1008.737","4.713","68.66","-1.045","0.0"],
    [1393500,"2026-01-05 19:00:00","31080","3.437","308.6","6.566","312.3","1008.8969999999999","4.711","68.8","-0.941","0.0"],
    [1393501,"2026-01-05 19:10:00","31081","3.6860000000000004","304.4","5.913","324.1","1009.055","4.672","67.57","-0.833","0.0"],
    [1393502,"2026-01-05 19:20:00","31082","3.853","300.2","6.403","306.7","1009.1469999999999","4.583","67.52","-0.818","0.0"],
    [1393503,"2026-01-05 19:30:00","31083","3.897","303.1","6.37","302.2","1009.189","4.585","67.49","-0.9840000000000001","0.0"],
    [1393504,"2026-01-05 19:40:00","31084","4.302","301.1","6.468","291.6","1009.174","4.604","67.02","-0.782","0.0"],
    [1393505,"2026-01-05 19:50:00","31085","3.759","299.2","5.455","296.9","1009.187","4.503","67.25","-0.8","0.0"],
    [1393506,"2026-01-05 20:00:00","31086","3.4539999999999997","297.7","5.651","292.2","1009.265","4.473","67.69","-0.9359999999999999","0.0"],
    [1393507,"2026-01-05 20:10:00","31087","4.681","301.4","7.383","304.3","1009.314","4.381","67.04","-0.764","0.0"],
    [1393508,"2026-01-05 20:20:00","31088","4.338","304.3","7.383","301.2","1009.2","4.353","66.5","-0.9159999999999999","0.0"],
    [1393509,"2026-01-05 20:30:00","31089","3.838","300.9","6.109","300.3","1009.171","4.393","66.34","-1.035","0.0"],
    [1393510,"2026-01-05 20:40:00","31090","3.242","302.6","5.292","291.5","1009.1","4.468999999999999","66.24","-1.189","0.0"],
    [1393511,"2026-01-05 20:50:00","31091","3.1210000000000004","304.6","4.671","300.9","1009.047","4.502","66.14","-1.2409999999999999","0.0"],
    [1393512,"2026-01-05 21:00:00","31092","3.385","304.1","5.194","310.6","1009.0419999999999","4.5969999999999995","65.35","-1.249","0.0"],
    [1393513,"2026-01-05 21:10:00","31093","3.1630000000000003","306.9","5.161","310.1","1009.096","4.585","65.14","-1.291","0.0"],
    [1393514,"2026-01-05 21:20:00","31094","3.1310000000000002","303.4","5.194","306.9","1009.174","4.659","64.63","-1.294","0.0"],
    [1393515,"2026-01-05 21:30:00","31095","3.142","307.1","4.41","299.4","1009.159","4.548","64.94","-1.266","0.0"],
    [1393516,"2026-01-05 21:40:00","31096","3.6430000000000002","309.4","6.501","324.9","1009.171","4.551","65.56","-1.304","0.0"],
    [1393517,"2026-01-05 21:50:00","31097","4.425","306.9","6.958","315","1009.225","4.539","65.62","-1.1059999999999999","0.0"],
    [1393518,"2026-01-05 22:00:00","31098","4.6339999999999995","309.5","7.089","317.9","1009.2289999999999","4.387","65.9","-1.105","0.0"],
    [1393519,"2026-01-05 22:10:00","31099","4.586","315.3","6.272","314","1009.2710000000001","4.413","65.95","-1.2830000000000001","0.0"],
    [1393520,"2026-01-05 22:20:00","31100","3.625","312.3","6.697","321.9","1009.335","4.462","66.03","-1.256","0.0"],
    [1393521,"2026-01-05 22:30:00","31101","3.685","313.0","6.37","320.7","1009.47","4.449","66.32","-1.3030000000000002","0.0"],
    [1393522,"2026-01-05 22:40:00","31102","3.79","308.8","5.651","320.1","1009.4910000000001","4.51","66.2","-1.3","0.0"],
    [1393523,"2026-01-05 22:50:00","31103","4.1419999999999995","309.8","6.37","298.4","1009.525","4.405","66.02","-1.306","0.0"],
    [1393524,"2026-01-05 23:00:00","31104","4.513","309.1","7.35","308.3","1009.61","4.423","65.94","-1.305","0.0"],
    [1393525,"2026-01-05 23:10:00","31105","5.055","314.2","7.84","313.5","1009.632","4.349","66.21","-1.2209999999999999","0.0"],
    [1393526,"2026-01-05 23:20:00","31106","5.257000000000001","315.5","8.13","319.8","1009.7130000000001","4.297","66.03","-1.182","0.0"],
    [1393527,"2026-01-05 23:30:00","31107","5.325","316.2","7.677","313.2","1009.6610000000001","4.175","66.47","-1.268","0.0"],
    [1393528,"2026-01-05 23:40:00","31108","4.846","317.1","7.481","325.8","1009.574","4.112","67.36","-1.31","0.0"],
    [1393529,"2026-01-05 23:50:00","31109","5.685","316.1","9.54","310.1","1009.4889999999999","4.1419999999999995","67.64","-1.315","0.0"],
    [1393530,"2026-01-06 00:00:00","31110","5.012","316.1","7.219","306.8","1009.4110000000001","4.082","67.87","-1.3159999999999998","0.0"],
    [1393531,"2026-01-06 00:10:00","31111","3.946","307.4","6.109","313.2","1009.3560000000001","4.001","68.26","-1.315","0.0"],
    [1393532,"2026-01-06 00:20:00","31112","3.593","306.9","5.521","298.1","1009.235","3.9339999999999997","68.99","-1.317","0.0"],
    [1393533,"2026-01-06 00:30:00","31113","3.8789999999999996","307.4","6.207","310","1009.198","3.9189999999999996","69.21","-1.314","0.0"],
    [1393534,"2026-01-06 00:40:00","31114","4.7330000000000005","310.7","7.023","308.5","1009.2330000000001","3.841","69.19","-1.319","0.0"],
    [1393535,"2026-01-06 00:50:00","31115","4.9","309.6","7.415","303.8","1009.323","3.6839999999999997","69.37","-1.318","0.0"],
    [1393536,"2026-01-06 01:00:00","31116","5.462999999999999","309.2","8.26","303","1009.441","3.503","69.74","-1.317","0.0"],
    [1393537,"2026-01-06 01:10:00","31117","5.426","317.0","8.23","325.3","1009.482","3.372","70.81","-1.325","0.0"],
    [1393538,"2026-01-06 01:20:00","31118","5.202000000000001","317.7","7.644","322.5","1009.4860000000001","3.2680000000000002","71.65","-1.473","0.0"],
    [1393539,"2026-01-06 01:30:00","31119","5.127000000000001","315.9","7.84","328.1","1009.362","3.197","71.79","-1.92","0.0"],
    [1393540,"2026-01-06 01:40:00","31120","4.955","317.4","7.187","312.9","1009.438","3.052","72.32","-2.064","0.0"],
    [1393541,"2026-01-06 01:50:00","31121","5.182","319.6","7.807","316.4","1009.432","2.883","72.79","-2.083","0.0"],
    [1393542,"2026-01-06 02:00:00","31122","4.9639999999999995","323.6","7.415","314.6","1009.576","2.865","72.63","-2.197","0.0"],
    [1393543,"2026-01-06 02:10:00","31123","4.461","321.9","7.448","309.6","1009.674","2.727","73.11","-2.276","0.0"],
    [1393544,"2026-01-06 02:20:00","31124","4.927","322.1","7.644","313.6","1009.7130000000001","2.617","73.57","-2.165","0.0"],
    [1393545,"2026-01-06 02:30:00","31125","5.244","316.9","8.07","311.9","1009.7810000000001","2.5669999999999997","73.97","-2.187","0.0"],
    [1393546,"2026-01-06 02:40:00","31126","5.921","321.8","9.93","330","1009.789","2.634","73.31","-2.117","0.0"],
    [1393547,"2026-01-06 02:50:00","31127","5.76","320.4","8.46","319.5","1009.765","2.6639999999999997","72.26","-2.073","0.0"],
    [1393548,"2026-01-06 03:00:00","31128","6.257000000000001","316.4","10.19","310.5","1009.685","2.6460000000000004","71.49","-1.969","0.0"],
    [1393549,"2026-01-06 03:10:00","31129","6.4879999999999995","316.5","9.6","320.4","1009.627","2.541","71.69","-1.9809999999999999","0.0"],
    [1393550,"2026-01-06 03:20:00","31130","6.827999999999999","317.9","9.41","315.8","1009.503","2.506","71.05","-2.066","0.0"],
    [1393551,"2026-01-06 03:30:00","31131","6.656000000000001","318.9","10","328.6","1009.416","2.48","69.9","-2.052","0.0"],
    [1393552,"2026-01-06 03:40:00","31132","6.382000000000001","318.9","9.57","313.9","1009.3689999999999","2.4","70.13","-2.121","0.0"],
    [1393553,"2026-01-06 03:50:00","31133","6.436","317.9","10.55","314.3","1009.3960000000001","2.379","69.43","-2.037","0.0"],
    [1393554,"2026-01-06 04:00:00","31134","6.4110000000000005","320.0","11.47","339.3","1009.425","2.266","69.6","-2.173","0.0"],
    [1393555,"2026-01-06 04:10:00","31135","6.995","316.6","9.77","313.4","1009.4119999999999","2.339","67.75","-2.096","0.0"],
    [1393556,"2026-01-06 04:20:00","31136","7.166","316.6","11.01","308.4","1009.404","2.259","67.83","-2.052","0.0"],
    [1393557,"2026-01-06 04:30:00","31137","6.84","314.0","10.39","321","1009.317","2.209","67.94","-2.082","0.0"],
    [1393558,"2026-01-06 04:40:00","31138","6.357","313.0","9.7","318.6","1009.332","2.148","68.04","-2.084","0.0"],
    [1393559,"2026-01-06 04:50:00","31139","5.986000000000001","313.6","9.05","309.8","1009.378","2.019","68.94","-2.14","0.0"],
    [1393560,"2026-01-06 05:00:00","31140","7.825","311.8","11.4","306.1","1009.325","2.363","66.13","-2.65","0.0"],
    [1393561,"2026-01-06 05:10:00","31141","6.6129999999999995","305.1","9.54","305.7","1009.2189999999999","2.309","66.24","-2.05","0.0"],
    [1393562,"2026-01-06 05:20:00","31142","6.482","303.4","9.9","313.7","1009.204","2.21","66.55","-2.234","0.0"],
    [1393563,"2026-01-06 05:30:00","31143","6.349","300.1","9.87","303.7","1009.302","2.36","65.42","-2.274","0.0"],
    [1393564,"2026-01-06 05:40:00","31144","6.028","303.4","10.16","301","1009.336","2.181","66.69","-2.101","0.0"],
    [1393565,"2026-01-06 05:50:00","31145","6.028","297.0","9.8","299.5","1009.316","2.109","66.98","-2.187","0.0"],
    [1393566,"2026-01-06 06:00:00","31146","6.251","298.8","9.41","294.1","1009.3389999999999","2.112","66.75","-2.235","0.0"],
    [1393567,"2026-01-06 06:10:00","31147","5.662000000000001","301.9","9.11","288.9","1009.44","2.0780000000000003","67.15","-2.307","0.0"],
    [1393568,"2026-01-06 06:20:00","31148","6.466","307.6","10.81","316.8","1009.623","2.061","67.43","-2.4019999999999997","0.0"],
    [1393569,"2026-01-06 06:30:00","31149","6.978","312.2","9.87","316.6","1009.702","2.042","67.54","-2.355","0.0"],
    [1393570,"2026-01-06 06:40:00","31150","5.933","310.6","8.56","312.3","1009.7310000000001","2.011","67.49","-2.333","0.0"],
    [1393571,"2026-01-06 06:50:00","31151","5.397","311.9","7.938","333.2","1009.8560000000001","1.921","67.64","-2.491","0.0"],
    [1393572,"2026-01-06 07:00:00","31152","6.517","314.3","9.21","312.9","1009.952","1.9569999999999999","67.31","-2.295","0.0"],
    [1393573,"2026-01-06 07:10:00","31153","5.672999999999999","308.9","8.89","288.2","1010.0980000000001","1.919","67.19","-1.178","0.0"],
    [1393574,"2026-01-06 07:20:00","31154","5.914","312.6","9.44","299.6","1010.238","1.969","66.67","1.158","0.0"],
    [1393575,"2026-01-06 07:30:00","31155","6.0360000000000005","311.9","9.11","307.8","1010.327","1.919","66.94","4.405","0.0"],
    [1393576,"2026-01-06 07:40:00","31156","5.672000000000001","311.2","7.677","307.5","1010.298","1.868","66.93","7.9110000000000005","0.0"],
    [1393577,"2026-01-06 07:50:00","31157","4.482","308.8","6.664","307.5","1010.3380000000001","1.8359999999999999","66.66","11.72","0.0"],
    [1393578,"2026-01-06 08:00:00","31158","5.494","304.9","7.677","312.5","1010.37","1.896","65.95","16.74","0.0"],
    [1393579,"2026-01-06 08:10:00","31159","5.05","305.3","7.611","298.5","1010.3839999999999","1.901","65.92","22.52","0.0"],
    [1393580,"2026-01-06 08:20:00","31160","5.01","308.8","7.579","311.7","1010.502","2.043","65.44","27.31","0.0"],
    [1393581,"2026-01-06 08:30:00","31161","5.132999999999999","305.9","7.775","314","1010.623","2.27","64.22","30.72","0.0"],
    [1393582,"2026-01-06 08:40:00","31162","5.065","304.9","7.187","300.3","1010.8380000000001","2.552","63.09","34.75","0.0"],
    [1393583,"2026-01-06 08:50:00","31163","5.348","313.2","8.3","306.3","1010.94","2.65","63.18","109.8","0.0"],
    [1393584,"2026-01-06 09:00:00","31164","5.4","311.5","7.546","307.2","1011.079","2.925","62.3","213.7","0.0"],
    [1393585,"2026-01-06 09:10:00","31165","4.886","312.1","6.893","321.4","1011.23","3.2939999999999996","61.29","243.4","0.0"],
    [1393586,"2026-01-06 09:20:00","31166","5.296","305.8","7.285","296.1","1011.3910000000001","3.495","60.79","268.4","0.0"],
    [1393587,"2026-01-06 09:30:00","31167","4.865","308.2","6.991","325.6","1011.46","3.71","60.4","291.6","0.0"],
    [1393588,"2026-01-06 09:40:00","31168","5.343","312.0","7.546","318.8","1011.543","4.032","58.96","313.1","0.0"],
    [1393589,"2026-01-06 09:50:00","31169","5.034","312.2","7.546","326.2","1011.63","4.294","57.92","334.1","0.0"],
    [1393590,"2026-01-06 10:00:00","31170","4.928999999999999","302.3","7.35","308","1011.7280000000001","4.66","56.74","353.3","0.0"],
    [1393591,"2026-01-06 10:10:00","31171","5.57","306.2","8","309","1011.84","4.761","56.4","371.6","0.0"],
    [1393592,"2026-01-06 10:20:00","31172","4.788","305.8","7.677","309.2","1011.872","5.09","55.84","387.9","0.0"],
    [1393593,"2026-01-06 10:30:00","31173","5.865","306.0","8.36","299.7","1011.8960000000001","5.247999999999999","54.77","404.3","0.0"],
    [1393594,"2026-01-06 10:40:00","31174","5.9510000000000005","304.8","9.02","307.1","1011.9119999999999","5.273","53.81","418.4","0.0"],
    [1393595,"2026-01-06 10:50:00","31175","5.955","306.3","9.05","304.4","1011.8910000000001","5.5920000000000005","52.31","430.4","0.0"],
    [1393596,"2026-01-06 11:00:00","31176","5.35","303.5","7.35","315","1011.841","5.954","51.2","441.0","0.0"],
    [1393597,"2026-01-06 11:10:00","31177","5.013999999999999","300.6","7.807","299","1011.77","6.336","50.36","450.3","0.0"],
    [1393598,"2026-01-06 11:20:00","31178","5.01","303.6","7.219","305.6","1011.688","6.587000000000001","49.78","457.8","0.0"],
    [1393599,"2026-01-06 11:30:00","31179","4.9830000000000005","307.3","6.893","300.1","1011.605","6.834","49.79","463.6","0.0"],
    [1393600,"2026-01-06 11:40:00","31180","4.5","307.7","6.827","303.9","1011.562","7.141","49.04","467.7","0.0"],
    [1393601,"2026-01-06 11:50:00","31181","5.282","306.9","7.154","315.9","1011.508","7.251","48.45","470.8","0.0"],
    [1393602,"2026-01-06 12:00:00","31182","5.349","311.8","7.187","323.6","1011.365","7.265","47.69","472.8","0.0"],
    [1393603,"2026-01-06 12:10:00","31183","4.74","308.9","7.089","308","1011.2810000000001","7.6370000000000005","47.11","471.9","0.0"],
    [1393604,"2026-01-06 12:20:00","31184","4.801","309.2","6.664","303","1011.198","7.813","45.65","470.6","0.0"],
    [1393605,"2026-01-06 12:30:00","31185","3.7969999999999997","305.6","6.076","313.4","1011.1039999999999","8.16","46.17","467.0","0.0"],
    [1393606,"2026-01-06 12:40:00","31186","4.0","310.1","6.043","339.3","1011.0039999999999","8.42","45.09","462.7","0.0"],
    [1393607,"2026-01-06 12:50:00","31187","3.883","311.9","5.586","316.8","1010.893","8.64","43.52","457.6","0.0"],
    [1393608,"2026-01-06 13:00:00","31188","3.858","313.3","6.207","323.9","1010.835","8.71","43.59","452.6","0.0"],
    [1393609,"2026-01-06 13:10:00","31189","4.03","317.8","5.978","307.5","1010.788","8.75","43.63","441.4","0.0"],
    [1393610,"2026-01-06 13:20:00","31190","3.2910000000000004","304.4","5.161","329.7","1010.7610000000001","8.94","44.64","386.5","0.0"],
    [1393611,"2026-01-06 13:30:00","31191","4.109","301.2","7.056","312.5","1010.7389999999999","9.25","40.97","464.5","0.0"],
    [1393612,"2026-01-06 13:40:00","31192","5.025","309.7","6.762","307.9","1010.808","8.88","41.41","363.8","0.0"],
    [1393613,"2026-01-06 13:50:00","31193","4.114","316.0","6.501","324.1","1010.828","8.34","44.46","271.2","0.0"],
    [1393614,"2026-01-06 14:00:00","31194","4.29","316.2","5.847","321.6","1010.8989999999999","8.59","45.11","362.1","0.0"],
    [1393615,"2026-01-06 14:10:00","31195","4.371","310.5","6.501","322.3","1010.893","8.72","44.6","320.5","0.0"],
    [1393616,"2026-01-06 14:20:00","31196","4.408","307.6","6.305","304.6","1010.9639999999999","8.7","43.73","298.9","0.0"],
    [1393617,"2026-01-06 14:30:00","31197","4.6530000000000005","314.8","6.893","322.3","1011.05","8.72","45.09","227.1","0.0"],
    [1393618,"2026-01-06 14:40:00","31198","4.4910000000000005","319.6","6.37","337.9","1011.09","8.25","47.54","218.6","0.0"],
    [1393619,"2026-01-06 14:50:00","31199","4.449","318.8","6.011","318.7","1011.13","8.38","47.97","244.8","0.0"],
    [1393620,"2026-01-06 15:00:00","31200","4.808","317.9","7.089","313.2","1011.207","8.37","48.59","221.9","0.0"],
    [1393621,"2026-01-06 15:10:00","31201","3.928","312.0","6.533","309.5","1011.2760000000001","8.29","49.26","181.7","0.0"],
    [1393622,"2026-01-06 15:20:00","31202","4.463","309.7","6.403","310.4","1011.345","8.27","49.24","177.4","0.0"],
    [1393623,"2026-01-06 15:30:00","31203","4.303","305.5","5.488","291","1011.393","8.06","49.66","150.2","0.0"],
    [1393624,"2026-01-06 15:40:00","31204","3.863","307.9","5.455","311.7","1011.404","7.954","49.6","125.3","0.0"],
    [1393625,"2026-01-06 15:50:00","31205","4.042","310.3","6.076","304.3","1011.461","7.8","49.13","100.5","0.0"],
    [1393626,"2026-01-06 16:00:00","31206","3.917","317.7","5.913","313","1011.57","7.562","49.08","75.3","0.0"],
    [1393627,"2026-01-06 16:10:00","31207","3.83","307.6","5.717","332.2","1011.7130000000001","7.26","49.95","29.6","0.0"],
    [1393628,"2026-01-06 16:20:00","31208","4.337","300.1","6.501","303","1011.867","6.981","50.73","14.07","0.0"],
    [1393629,"2026-01-06 16:30:00","31209","4.927","306.1","7.481","308","1012.018","6.8389999999999995","48.87","8.74","0.0"],
    [1393630,"2026-01-06 16:40:00","31210","4.305","299.9","6.305","314.7","1012.1080000000001","6.6339999999999995","48.3","3.634","0.0"],
    [1393631,"2026-01-06 16:50:00","31211","3.875","300.7","6.305","323.4","1012.118","6.417000000000001","48.97","-0.094","0.0"],
    [1393632,"2026-01-06 17:00:00","31212","3.5589999999999997","302.0","5.684","292.1","1012.222","6.122000000000001","50.9","-2.065","0.0"],
    [1393633,"2026-01-06 17:10:00","31213","3.2680000000000002","298.0","5.325","320.1","1012.336","5.843999999999999","52.27","-2.821","0.0"],
    [1393634,"2026-01-06 17:20:00","31214","2.765","289.4","4.606","292.6","1012.451","5.5889999999999995","53.24","-2.909","0.0"],
    [1393635,"2026-01-06 17:30:00","31215","2.505","288.8","3.789","300.3","1012.57","5.228","54.92","-3.075","0.0"],
    [1393636,"2026-01-06 17:40:00","31216","2.532","286.6","3.887","291.1","1012.6080000000001","4.976","55.98","-3.134","0.0"],
    [1393637,"2026-01-06 17:50:00","31217","2.595","292.5","4.247","285.5","1012.692","4.913","56.4","-3.0639999999999996","0.0"],
    [1393638,"2026-01-06 18:00:00","31218","2.903","289.2","5.031","284.9","1012.709","5.012","56.08","-3.1289999999999996","0.0"],
    [1393639,"2026-01-06 18:10:00","31219","3.385","288.5","5.194","300.3","1012.835","5.1770000000000005","54.69","-3.063","0.0"],
    [1393640,"2026-01-06 18:20:00","31220","3.141","295.0","6.043","321.6","1012.9730000000001","5.092","54.53","-2.92","0.0"],
    [1393641,"2026-01-06 18:30:00","31221","2.197","309.3","4.051","298.5","1013.168","4.851","54.94","-3.142","0.0"],
    [1393642,"2026-01-06 18:40:00","31222","1.686","348.0","3.365","353.8","1013.315","5.29","51.62","-3.3539999999999996","0.0"],
    [1393643,"2026-01-06 18:50:00","31223","1.66","335.8","3.071","317.3","1013.4860000000001","5.539","49.79","-3.286","0.0"],
    [1393644,"2026-01-06 19:00:00","31224","1.841","325.8","2.973","318.9","1013.743","5.499","50.26","-3.365","0.0"],
    [1393645,"2026-01-06 19:10:00","31225","1.5519999999999998","355.8","2.875","307.8","1013.852","5.279","51.5","-3.1289999999999996","0.0"],
    [1393646,"2026-01-06 19:20:00","31226","1.621","354.4","2.646","337.4","1013.953","4.8919999999999995","52.92","-3.293","0.0"],
    [1393647,"2026-01-06 19:30:00","31227","2.226","337.9","3.43","336.8","1014.0160000000001","5.166","52.05","-3.5060000000000002","0.0"],
    [1393648,"2026-01-06 19:40:00","31228","2.017","341.3","3.038","339.2","1014.18","5.336","51.41","-3.072","0.0"],
    [1393649,"2026-01-06 19:50:00","31229","2.807","334.5","4.279","350.2","1014.325","5.263999999999999","51.65","-3.295","0.0"],
    [1393650,"2026-01-06 20:00:00","31230","2.943","328.6","5.292","339","1014.4780000000001","5.49","51.37","-3.048","0.0"],
    [1393651,"2026-01-06 20:10:00","31231","2.845","322.4","4.769","321.6","1014.59","5.212000000000001","52.9","-2.8710000000000004","0.0"],
    [1393652,"2026-01-06 20:20:00","31232","3.8560000000000003","315.6","4.965","328.4","1014.543","5.157","53.37","-2.87","0.0"],
    [1393653,"2026-01-06 20:30:00","31233","4.024","317.2","5.357","321.9","1014.533","4.967","54.87","-2.8110000000000004","0.0"],
    [1393654,"2026-01-06 20:40:00","31234","3.202","310.2","5.455","317.7","1014.653","4.873","55.18","-2.819","0.0"],
    [1393655,"2026-01-06 20:50:00","31235","2.658","297.0","4.051","308.7","1014.773","4.422","56.29","-2.823","0.0"],
    [1393656,"2026-01-06 21:00:00","31236","2.966","290.2","4.541","305.9","1014.936","4.329","56.4","-2.853","0.0"],
    [1393657,"2026-01-06 21:10:00","31237","3.093","297.8","5.194","314.7","1015.02","4.3469999999999995","56.19","-2.827","0.0"],
    [1393658,"2026-01-06 21:20:00","31238","3.24","295.7","4.867","308.4","1015.085","4.154","57.44","-2.822","0.0"],
    [1393659,"2026-01-06 21:30:00","31239","3.675","297.6","5.423","304.6","1015.1339999999999","4.1080000000000005","57.86","-2.827","0.0"],
    [1393660,"2026-01-06 21:40:00","31240","3.555","302.2","5.161","306.2","1015.122","4.148","57.36","-2.858","0.0"],
    [1393661,"2026-01-06 21:50:00","31241","3.128","302.7","5.292","309","1015.197","4.342","55.5","-2.8710000000000004","0.0"],
    [1393662,"2026-01-06 22:00:00","31242","3.324","299.5","5.161","304.4","1015.263","4.379","55.08","-2.96","0.0"],
    [1393663,"2026-01-06 22:10:00","31243","3.725","301.7","6.109","308.1","1015.268","4.371","55.34","-2.862","0.0"],
    [1393664,"2026-01-06 22:20:00","31244","3.6310000000000002","306.2","6.664","294.9","1015.298","4.583","53.17","-2.917","0.0"],
    [1393665,"2026-01-06 22:30:00","31245","3.918","305.0","5.913","308.4","1015.414","4.555","52.79","-2.8510000000000004","0.0"],
    [1393666,"2026-01-06 22:40:00","31246","3.95","302.4","6.337","293.8","1015.5210000000001","4.478","52.9","-2.824","0.0"],
    [1393667,"2026-01-06 22:50:00","31247","5.188","301.5","7.873","298.2","1015.507","4.478","52.71","-2.858","0.0"],
    [1393668,"2026-01-06 23:00:00","31248","4.405","304.0","7.35","295.9","1015.549","4.446000000000001","52.53","-2.815","0.0"],
    [1393669,"2026-01-06 23:10:00","31249","4.724","306.0","6.501","303.2","1015.548","4.399","52.59","-2.822","0.0"],
    [1393670,"2026-01-06 23:20:00","31250","4.728","306.8","7.023","308.9","1015.549","4.349","53.16","-2.822","0.0"],
    [1393671,"2026-01-06 23:30:00","31251","5.113","308.4","9.11","308.7","1015.447","4.4239999999999995","55.25","-2.827","0.0"],
    [1393672,"2026-01-06 23:40:00","31252","4.913","308.4","6.827","304.1","1015.418","4.342","57.59","-2.784","0.0"],
    [1393673,"2026-01-06 23:50:00","31253","4.565","310.1","6.958","312.8","1015.342","4.229","58.49","-2.806","0.0"],
    [1393674,"2026-01-07 00:00:00","31254","4.604","319.1","6.599","313.5","1015.273","4.281000000000001","57.72","-2.825","0.0"],
    [1393675,"2026-01-07 00:10:00","31255","4.584","319.5","7.579","338.1","1015.3","4.266","56.97","-2.823","0.0"],
    [1393676,"2026-01-07 00:20:00","31256","4.516","314.8","7.187","323.7","1015.2769999999999","4.288","55.65","-2.801","0.0"],
    [1393677,"2026-01-07 00:30:00","31257","4.245","302.3","6.795","314.1","1015.222","4.003","56.08","-2.804","0.0"],
    [1393678,"2026-01-07 00:40:00","31258","5.113","305.9","7.873","316.1","1015.155","3.951","55.67","-2.8080000000000003","0.0"],
    [1393679,"2026-01-07 00:50:00","31259","5.5","313.1","8.85","295.6","1015.1489999999999","3.924","55.2","-2.7710000000000004","0.0"],
    [1393680,"2026-01-07 01:00:00","31260","6.125","312.8","9.28","321.7","1015.273","3.977","53.92","-2.637","0.0"],
    [1393681,"2026-01-07 01:10:00","31261","5.291","309.2","7.383","301.6","1015.284","3.8280000000000003","54.15","-2.7060000000000004","0.0"],
    [1393682,"2026-01-07 01:20:00","31262","5.221","308.8","9.21","316.1","1015.2660000000001","3.687","54.19","-2.758","0.0"],
    [1393683,"2026-01-07 01:30:00","31263","6.417999999999999","307.9","9.05","313.1","1015.296","3.448","55.51","-2.201","0.0"],
    [1393684,"2026-01-07 01:40:00","31264","5.622999999999999","301.9","9.24","304.7","1015.4","3.181","57.14","-2.197","0.0"],
    [1393685,"2026-01-07 01:50:00","31265","5.836","312.8","8.72","314.2","1015.442","2.986","58.35","-2.461","0.0"],
    [1393686,"2026-01-07 02:00:00","31266","6.25","310.1","8.98","307.8","1015.432","2.948","58.29","-2.548","0.0"],
    [1393687,"2026-01-07 02:10:00","31267","6.205","316.3","9.05","306.2","1015.482","2.824","58.94","-2.5180000000000002","0.0"],
    [1393688,"2026-01-07 02:20:00","31268","5.653","318.3","8.79","323.3","1015.535","2.8369999999999997","58.15","-2.739","0.0"],
    [1393689,"2026-01-07 02:30:00","31269","5.55","308.1","9.6","308.5","1015.669","2.7489999999999997","58.12","-2.705","0.0"],
    [1393690,"2026-01-07 02:40:00","31270","4.228","308.6","6.533","292","1015.673","2.65","58.04","-2.824","0.0"],
    [1393691,"2026-01-07 02:50:00","31271","5.115","316.9","9.15","338.2","1015.574","2.615","58.27","-2.8280000000000003","0.0"],
    [1393692,"2026-01-07 03:00:00","31272","6.1610000000000005","317.0","10.52","309","1015.426","2.612","57.74","-2.678","0.0"],
    [1393693,"2026-01-07 03:10:00","31273","7.874","312.2","12.22","307.2","1015.32","2.616","57.08","-2.539","0.0"],
    [1393694,"2026-01-07 03:20:00","31274","6.921","307.4","10.42","312.5","1015.306","2.577","56.8","-2.3369999999999997","0.0"],
    [1393695,"2026-01-07 03:30:00","31275","6.599","307.0","10.78","299.6","1015.35","2.541","56.52","-2.529","0.0"],
    [1393696,"2026-01-07 03:40:00","31276","6.689","308.3","11.11","305.6","1015.572","2.425","56.68","-2.524","0.0"],
    [1393697,"2026-01-07 03:50:00","31277","5.542000000000001","304.1","9.18","294.4","1015.768","2.302","56.8","-2.622","0.0"],
    [1393698,"2026-01-07 04:00:00","31278","5.162999999999999","307.1","9.31","309.5","1015.8330000000001","2.205","57.29","-2.7739999999999996","0.0"],
    [1393699,"2026-01-07 04:10:00","31279","5.124","312.8","8.56","321.6","1015.914","2.173","57.51","-2.77","0.0"],
    [1393700,"2026-01-07 04:20:00","31280","4.5169999999999995","300.4","7.775","302.5","1016.0189999999999","2.145","57.35","-2.819","0.0"],
    [1393701,"2026-01-07 04:30:00","31281","4.4030000000000005","308.8","8.36","296.8","1016.1469999999999","2.13","57.5","-2.845","0.0"],
    [1393702,"2026-01-07 04:40:00","31282","4.9719999999999995","315.9","8.82","324","1016.204","2.272","57.45","-2.82","0.0"],
    [1393703,"2026-01-07 04:50:00","31283","3.681","313.2","5.945","313.7","1016.063","2.148","58.09","-2.818","0.0"],
    [1393704,"2026-01-07 05:00:00","31284","4.285","300.7","6.795","303.8","1016.084","1.9969999999999999","58.55","-2.805","0.0"],
    [1393705,"2026-01-07 05:10:00","31285","3.767","303.8","6.468","323.2","1016.077","1.8419999999999999","59.31","-2.821","0.0"],
    [1393706,"2026-01-07 05:20:00","31286","5.371","307.5","8.72","324.2","1015.95","1.8980000000000001","59.32","-2.83","0.0"],
    [1393707,"2026-01-07 05:30:00","31287","5.6339999999999995","301.9","10.06","301.1","1015.941","2.062","58.11","-2.786","0.0"],
    [1393708,"2026-01-07 05:40:00","31288","5.15","293.3","9.02","288.9","1016.1160000000001","1.9509999999999998","58.36","-2.735","0.0"],
    [1393709,"2026-01-07 05:50:00","31289","5.643","306.6","8.4","307","1016.28","1.8980000000000001","58.92","-2.7230000000000003","0.0"],
    [1393710,"2026-01-07 06:00:00","31290","3.9360000000000004","301.7","6.925","304.3","1016.388","1.7380000000000002","59.35","-2.7960000000000003","0.0"],
    [1393711,"2026-01-07 06:10:00","31291","3.213","314.9","5.096","317","1016.6010000000001","1.686","59.67","-2.8480000000000003","0.0"],
    [1393712,"2026-01-07 06:20:00","31292","3.971","311.1","5.455","322.8","1016.7410000000001","1.715","59.38","-2.846","0.0"],
    [1393713,"2026-01-07 06:30:00","31293","3.952","315.9","6.174","328.5","1016.68","1.722","59.05","-2.827","0.0"],
    [1393714,"2026-01-07 06:40:00","31294","3.49","295.8","4.867","289.9","1016.7560000000001","1.546","59.28","-2.85","0.0"],
    [1393715,"2026-01-07 06:50:00","31295","4.2139999999999995","291.4","6.141","291.4","1016.7589999999999","1.405","59.71","-2.8110000000000004","0.0"],
    [1393716,"2026-01-07 07:00:00","31296","4.313","283.3","6.566","277.4","1016.725","1.3119999999999998","60.09","-2.6919999999999997","0.0"],
    [1393717,"2026-01-07 07:10:00","31297","3.718","279.2","6.501","262.2","1016.801","1.351","59.67","-1.25","0.0"],
    [1393718,"2026-01-07 07:20:00","31298","3.65","278.6","6.37","282.6","1016.8919999999999","1.3459999999999999","60.05","1.347","0.0"],
    [1393719,"2026-01-07 07:30:00","31299","2.436","266.1","4.9","262.3","1016.8960000000001","1.2590000000000001","60.53","5.353","0.0"],
    [1393720,"2026-01-07 07:40:00","31300","2.474","288.7","5.096","331.6","1017.0089999999999","1.328","59.44","9.73","0.0"],
    [1393721,"2026-01-07 07:50:00","31301","4.6819999999999995","309.9","6.762","309.7","1017.003","2.046","55.32","14.06","0.0"],
    [1393722,"2026-01-07 08:00:00","31302","4.637","314.7","7.187","313.6","1017.171","2.404","53.24","19.08","0.0"],
    [1393723,"2026-01-07 08:10:00","31303","4.703","323.5","8.89","329","1017.393","2.64","51.55","23.52","0.0"],
    [1393724,"2026-01-07 08:20:00","31304","4.128","309.4","7.317","303.2","1017.5219999999999","2.589","51.65","27.22","0.0"],
    [1393725,"2026-01-07 08:30:00","31305","5.147","305.0","8.2","301","1017.6339999999999","2.62","51.71","30.83","0.0"],
    [1393726,"2026-01-07 08:40:00","31306","5.1610000000000005","312.7","7.677","318.9","1017.567","2.58","52.62","34.59","0.0"],
    [1393727,"2026-01-07 08:50:00","31307","4.985","311.6","7.056","297","1017.4060000000001","2.8080000000000003","51.44","119.1","0.0"],
    [1393728,"2026-01-07 09:00:00","31308","5.348","310.2","8.36","318.9","1017.449","3.175","50.15","218.2","0.0"],
    [1393729,"2026-01-07 09:10:00","31309","6.151","313.6","9.38","311.4","1017.6619999999999","3.377","48.72","247.4","0.0"],
    [1393730,"2026-01-07 09:20:00","31310","5.678999999999999","308.1","8.79","301.5","1017.82","3.508","48.97","271.1","0.0"],
    [1393731,"2026-01-07 09:30:00","31311","5.787999999999999","313.5","8.82","320.6","1017.903","3.576","49.36","294.5","0.0"],
    [1393732,"2026-01-07 09:40:00","31312","5.127999999999999","308.2","7.677","314.9","1018.044","3.838","48.65","317.0","0.0"],
    [1393733,"2026-01-07 09:50:00","31313","5.053","308.1","7.35","309.5","1018.049","4.066","48.44","338.7","0.0"],
    [1393734,"2026-01-07 10:00:00","31314","4.776","310.5","7.056","315.9","1018.169","4.364","47.35","363.6","0.0"],
    [1393735,"2026-01-07 10:10:00","31315","3.9819999999999998","308.2","6.305","324.5","1018.107","4.78","45.87","376.4","0.0"],
    [1393736,"2026-01-07 10:20:00","31316","3.92","304.4","5.717","323.6","1018.0219999999999","5.414","43.63","393.4","0.0"],
    [1393737,"2026-01-07 10:30:00","31317","4.718999999999999","299.8","7.448","313.5","1018.1239999999999","5.531000000000001","43.08","410.8","0.0"],
    [1393738,"2026-01-07 10:40:00","31318","4.7780000000000005","303.0","7.285","301.2","1018.1560000000001","5.7589999999999995","42.87","425.5","0.0"],
    [1393739,"2026-01-07 10:50:00","31319","5.595","312.6","8.82","316.5","1018.26","6.091","42.16","439.3","0.0"],
    [1393740,"2026-01-07 11:00:00","31320","5.937","315.5","9.21","317.9","1018.255","6.091","42.75","449.3","0.0"],
    [1393741,"2026-01-07 11:10:00","31321","5.146","310.3","8.33","326.2","1018.25","6.252000000000001","42.6","457.6","0.0"],
    [1393742,"2026-01-07 11:20:00","31322","5.278","308.0","8.13","310.7","1018.189","6.4110000000000005","42.38","464.0","0.0"],
    [1393743,"2026-01-07 11:30:00","31323","5.1339999999999995","311.4","7.938","322.7","1018.074","6.6339999999999995","41.66","468.2","0.0"],
    [1393744,"2026-01-07 11:40:00","31324","5.362","316.5","7.873","311.9","1017.9639999999999","6.678","40.84","472.8","0.0"],
    [1393745,"2026-01-07 11:50:00","31325","4.391","319.0","7.481","322.5","1017.798","6.936","40.6","476.2","0.0"],
    [1393746,"2026-01-07 12:00:00","31326","4.302","318.2","7.023","318.5","1017.612","7.172999999999999","39.82","478.0","0.0"],
    [1393747,"2026-01-07 12:10:00","31327","4.13","327.2","6.86","341.5","1017.505","7.371","40.03","478.2","0.0"],
    [1393748,"2026-01-07 12:20:00","31328","4.614","328.9","6.86","340.3","1017.383","7.4110000000000005","39.64","478.1","0.0"],
    [1393749,"2026-01-07 12:30:00","31329","4.989","330.6","7.023","338.5","1017.2560000000001","7.5889999999999995","38.36","475.1","0.0"],
    [1393750,"2026-01-07 12:40:00","31330","4.4319999999999995","330.9","6.501","341.3","1017.183","7.827000000000001","38.1","477.1","0.0"],
    [1393751,"2026-01-07 12:50:00","31331","4.231","326.5","6.501","332.9","1017.128","8.23","37.51","446.9","0.0"],
    [1393752,"2026-01-07 13:00:00","31332","3.639","316.3","5.88","324.4","1017.0930000000001","8.28","36.72","386.7","0.0"],
    [1393753,"2026-01-07 13:10:00","31333","4.66","320.6","7.056","323.4","1016.946","8.7","35.29","410.6","0.0"],
    [1393754,"2026-01-07 13:20:00","31334","4.904","304.3","7.121","324.9","1016.8330000000001","8.39","34.89","320.9","0.0"],
    [1393755,"2026-01-07 13:30:00","31335","3.9589999999999996","304.5","6.141","292","1016.73","8.49","35.24","321.5","0.0"],
    [1393756,"2026-01-07 13:40:00","31336","4.587","301.0","6.337","314.5","1016.77","8.42","35.77","350.8","0.0"],
    [1393757,"2026-01-07 13:50:00","31337","4.047","304.3","6.697","292.3","1016.703","8.38","36.41","255.5","0.0"],
    [1393758,"2026-01-07 14:00:00","31338","3.5239999999999996","301.4","5.847","285.5","1016.622","8.48","36.09","335.9","0.0"],
    [1393759,"2026-01-07 14:10:00","31339","4.086","307.7","6.435","305.5","1016.563","8.8","35.94","359.5","0.0"],
    [1393760,"2026-01-07 14:20:00","31340","4.297","288.4","6.141","295.7","1016.548","8.92","35.31","290.7","0.0"],
    [1393761,"2026-01-07 14:30:00","31341","3.188","282.3","5.717","260.8","1016.5039999999999","8.97","35.12","286.8","0.0"],
    [1393762,"2026-01-07 14:40:00","31342","2.287","275.8","4.704","287.1","1016.572","9.22","36.14","272.7","0.0"],
    [1393763,"2026-01-07 14:50:00","31343","2.439","299.4","4.116","311.5","1016.7080000000001","9.25","37.44","250.6","0.0"],
    [1393764,"2026-01-07 15:00:00","31344","3.4189999999999996","321.0","4.933","324.3","1016.7819999999999","8.95","37.62","227.3","0.0"],
    [1393765,"2026-01-07 15:10:00","31345","3.8110000000000004","309.4","6.239","294","1016.8489999999999","8.65","38.46","203.7","0.0"],
    [1393766,"2026-01-07 15:20:00","31346","4.042","310.9","5.945","317.6","1016.933","8.42","39.2","179.6","0.0"],
    [1393767,"2026-01-07 15:30:00","31347","3.926","310.4","6.011","308.7","1017.055","8.29","40.44","153.2","0.0"],
    [1393768,"2026-01-07 15:40:00","31348","3.187","310.1","5.553","319.4","1016.988","8.21","40.81","130.0","0.0"],
    [1393769,"2026-01-07 15:50:00","31349","3.906","310.0","5.913","315","1016.8810000000001","8.08","41.35","108.9","0.0"],
    [1393770,"2026-01-07 16:00:00","31350","2.439","302.0","4.018","293","1016.814","7.876","41.75","72.48","0.0"],
    [1393771,"2026-01-07 16:10:00","31351","2.57","301.6","4.606","313.3","1016.81","7.4910000000000005","42.77","29.79","0.0"],
    [1393772,"2026-01-07 16:20:00","31352","2.435","300.4","4.279","299.2","1016.813","7.235","43.83","22.81","0.0"],
    [1393773,"2026-01-07 16:30:00","31353","1.794","292.0","2.875","292.7","1016.8919999999999","7.301","43.21","12.51","0.0"],
    [1393774,"2026-01-07 16:40:00","31354","1.864","301.1","3.038","310","1016.9839999999999","7.1979999999999995","44.29","3.947","0.0"],
    [1393775,"2026-01-07 16:50:00","31355","2.823","313.8","4.573","326.9","1016.935","7.1610000000000005","44.93","1.083","0.0"],
    [1393776,"2026-01-07 17:00:00","31356","2.455","315.5","3.985","300.9","1017.008","7.1","45.72","-1.548","0.0"],
    [1393777,"2026-01-07 17:10:00","31357","2.5839999999999996","321.1","3.92","318","1017.1339999999999","6.9","46.48","-2.053","0.0"],
    [1393778,"2026-01-07 17:20:00","31358","2.918","327.2","4.312","331.3","1017.3589999999999","6.831","47.19","-2.0269999999999997","0.0"],
    [1393779,"2026-01-07 17:30:00","31359","3.1510000000000002","316.5","4.704","303.9","1017.44","6.869","47.37","-1.976","0.0"],
    [1393780,"2026-01-07 17:40:00","31360","2.6260000000000003","309.1","4.116","312","1017.4010000000001","6.76","48.5","-2.0269999999999997","0.0"],
    [1393781,"2026-01-07 17:50:00","31361","2.862","303.1","3.985","300.1","1017.4169999999999","6.487","49.22","-2.22","0.0"],
    [1393782,"2026-01-07 18:00:00","31362","3.2760000000000002","301.1","5.031","298.7","1017.497","6.349","49.87","-2.7039999999999997","0.0"],
    [1393783,"2026-01-07 18:10:00","31363","2.987","302.9","4.802","313.2","1017.513","6.289","50.44","-2.705","0.0"],
    [1393784,"2026-01-07 18:20:00","31364","2.5340000000000003","293.6","4.018","313.5","1017.515","6.226","51.14","-2.8089999999999997","0.0"],
    [1393785,"2026-01-07 18:30:00","31365","2.495","290.9","4.083","289.6","1017.602","6.273","50.72","-2.785","0.0"],
    [1393786,"2026-01-07 18:40:00","31366","1.699","275.9","3.038","267.6","1017.632","6.093999999999999","51.37","-2.7539999999999996","0.0"],
    [1393787,"2026-01-07 18:50:00","31367","1.391","286.8","2.646","276.1","1017.7919999999999","6.005","52.57","-2.35","0.0"],
    [1393788,"2026-01-07 19:00:00","31368","1.092","282.3","2.058","269.3","1017.809","5.936","53.97","-2.6460000000000004","0.0"],
    [1393789,"2026-01-07 19:10:00","31369","1.473","272.0","2.809","267.9","1017.948","6.294","53.7","-2.608","0.0"],
    [1393790,"2026-01-07 19:20:00","31370","1.58","275.0","2.875","257.1","1018.063","6.165","54.88","-2.3569999999999998","0.0"],
    [1393791,"2026-01-07 19:30:00","31371","1.276","276.4","2.221","274.6","1017.924","5.867999999999999","55.75","-2.265","0.0"],
    [1393792,"2026-01-07 19:40:00","31372","1.1909999999999998","248.2","2.123","252","1017.887","5.895","55.84","-2.293","0.0"],
    [1393793,"2026-01-07 19:50:00","31373","0.883","271.2","2.058","270.9","1017.9580000000001","5.957999999999999","56.71","-2.05","0.0"],
    [1393794,"2026-01-07 20:00:00","31374","0.401","258.4","1.405","270.9","1017.905","5.577000000000001","58.56","-2.052","0.0"],
    [1393795,"2026-01-07 20:10:00","31375","0.723","220.4","1.601","224.4","1017.938","5.832000000000001","57.26","-2.036","0.0"],
    [1393796,"2026-01-07 20:20:00","31376","0.18100000000000002","280.9","1.405","227.5","1017.954","5.962000000000001","57.61","-1.433","0.0"],
    [1393797,"2026-01-07 20:30:00","31377","0.672","198.0","1.503","192.6","1018.174","5.97","58.08","-1.7380000000000002","0.0"],
    [1393798,"2026-01-07 20:40:00","31378","0.909","252.9","1.764","259.5","1018.3480000000001","6.466","56.8","-1.883","0.0"],
    [1393799,"2026-01-07 20:50:00","31379","0.179","272.5","1.111","281.1","1018.4010000000001","6.401","57.82","-2.635","0.0"],
    [1393800,"2026-01-07 21:00:00","31380","0.40399999999999997","219.3","1.405","237.9","1018.403","5.93","60.2","-2.898","0.0"],
    [1393801,"2026-01-07 21:10:00","31381","0.23600000000000002","198.9","1.013","199.1","1018.576","5.641","61.93","-2.812","0.0"],
    [1393802,"2026-01-07 21:20:00","31382","0.002","193.3","0.033","192.8","1018.711","5.093999999999999","65.1","-2.8160000000000003","0.0"],
    [1393803,"2026-01-07 21:30:00","31383","0.366","307.5","1.829","287.3","1018.814","5.515","64.68","-2.775","0.0"],
    [1393804,"2026-01-07 21:40:00","31384","0.677","309.5","2.189","342.3","1018.852","5.829","64.87","-2.778","0.0"],
    [1393805,"2026-01-07 21:50:00","31385","1.8030000000000002","310.9","4.181","320.9","1018.965","6.375","66.54","-3.182","0.0"],
    [1393806,"2026-01-07 22:00:00","31386","1.932","323.8","3.691","310.4","1018.98","7.218","63.44","-2.8569999999999998","0.0"],
    [1393807,"2026-01-07 22:10:00","31387","1.2","309.2","3.169","342.5","1019.2489999999999","7.045","63.59","-2.819","0.0"],
    [1393808,"2026-01-07 22:20:00","31388","2.227","328.7","3.855","336.3","1019.3539999999999","7.142","63.95","-3.07","0.0"],
    [1393809,"2026-01-07 22:30:00","31389","1.714","298.9","2.809","317.5","1019.455","6.893","64.67","-2.821","0.0"],
    [1393810,"2026-01-07 22:40:00","31390","1.514","293.9","2.907","324.3","1019.671","6.5489999999999995","66.37","-2.855","0.0"],
    [1393811,"2026-01-07 22:50:00","31391","1.3230000000000002","272.3","3.267","277.8","1019.808","6.942","64.9","-3.0269999999999997","0.0"],
    [1393812,"2026-01-07 23:00:00","31392","1.6280000000000001","269.8","3.691","278.3","1019.8910000000001","7.091","63.77","-2.802","0.0"],
    [1393813,"2026-01-07 23:10:00","31393","1.278","280.6","2.45","268.5","1020.0189999999999","6.723","64.61","-2.613","0.0"],
    [1393814,"2026-01-07 23:20:00","31394","1.371","277.6","2.94","270.3","1020.007","6.494","65.13","-2.832","0.0"],
    [1393815,"2026-01-07 23:30:00","31395","1.462","301.6","2.058","301","1020.095","6.096","66.1","-2.805","0.0"],
    [1393816,"2026-01-07 23:40:00","31396","0.9640000000000001","279.3","2.385","305.7","1020.059","5.22","69.68","-2.8739999999999997","0.0"],
    [1393817,"2026-01-07 23:50:00","31397","0.527","250.1","1.633","268.3","1020.01","5.504","68.91","-2.8160000000000003","0.0"],
    [1393818,"2026-01-08 00:00:00","31398","1.53","266.6","2.777","262.1","1019.931","5.502000000000001","69.05","-2.815","0.0"],
    [1393819,"2026-01-08 00:10:00","31399","1.5590000000000002","280.0","2.711","282","1020.202","4.855","69.85","-2.5","0.0"],
    [1393820,"2026-01-08 00:20:00","31400","1.271","256.3","2.058","243.4","1020.245","4.49","71.24","-2.821","0.0"],
    [1393821,"2026-01-08 00:30:00","31401","1.5119999999999998","258.6","3.136","280.6","1020.2760000000001","4.603","69.86","-2.7569999999999997","0.0"],
    [1393822,"2026-01-08 00:40:00","31402","1.6669999999999998","283.5","3.299","283.4","1020.128","4.236000000000001","71.72","-2.688","0.0"],
    [1393823,"2026-01-08 00:50:00","31403","1.666","301.9","2.744","300.6","1019.873","4.1080000000000005","72.84","-2.739","0.0"],
    [1393824,"2026-01-08 01:00:00","31404","2.026","289.5","3.495","295.4","1019.799","4.2330000000000005","72.87","-2.825","0.0"],
    [1393825,"2026-01-08 01:10:00","31405","1.649","267.3","3.201","301.3","1019.953","4.476","72.06","-2.805","0.0"],
    [1393826,"2026-01-08 01:20:00","31406","2.911","313.7","4.508","319.2","1019.913","4.25","73.62","-2.762","0.0"],
    [1393827,"2026-01-08 01:30:00","31407","2.765","312.1","4.051","317.5","1019.867","4.587","72.55","-2.7739999999999996","0.0"],
    [1393828,"2026-01-08 01:40:00","31408","2.405","306.7","3.495","304.8","1020.052","4.638","72.23","-2.725","0.0"],
    [1393829,"2026-01-08 01:50:00","31409","2.66","309.5","3.855","310.3","1020.2439999999999","4.58","73.29","-2.812","0.0"],
    [1393830,"2026-01-08 02:00:00","31410","3.326","312.5","5.945","321.1","1020.125","5.127999999999999","72.7","-3.01","0.0"],
    [1393831,"2026-01-08 02:10:00","31411","3.148","305.0","5.259","326","1020.211","5.792999999999999","70.51","-2.826","0.0"],
    [1393832,"2026-01-08 02:20:00","31412","3.622","307.6","5.815","309.4","1020.198","5.977","70.42","-2.818","0.0"],
    [1393833,"2026-01-08 02:30:00","31413","2.992","308.5","5.161","313.4","1020.183","5.796","71.06","-2.642","0.0"],
    [1393834,"2026-01-08 02:40:00","31414","2.99","314.9","4.606","313.7","1020.193","5.87","70.78","-2.573","0.0"],
    [1393835,"2026-01-08 02:50:00","31415","2.7510000000000003","316.7","4.312","331.6","1020.175","5.6","71.76","-2.733","0.0"],
    [1393836,"2026-01-08 03:00:00","31416","2.694","317.0","4.835","322.9","1020.0219999999999","5.614","71.9","-2.622","0.0"],
    [1393837,"2026-01-08 03:10:00","31417","2.1180000000000003","313.3","3.691","325.1","1019.941","5.482","72.46","-2.73","0.0"],
    [1393838,"2026-01-08 03:20:00","31418","2.215","304.5","3.691","325.1","1020.112","5.303999999999999","72.95","-2.585","0.0"],
    [1393839,"2026-01-08 03:30:00","31419","1.3840000000000001","286.2","2.679","306.2","1020.297","4.975","74.36","-2.787","0.0"],
    [1393840,"2026-01-08 03:40:00","31420","1.4869999999999999","271.9","2.679","273.6","1020.291","5.207999999999999","74.4","-2.799","0.0"],
    [1393841,"2026-01-08 03:50:00","31421","1.234","293.2","2.319","309.6","1020.0269999999999","5.296","73.79","-2.4019999999999997","0.0"],
    [1393842,"2026-01-08 04:00:00","31422","1.175","276.3","2.123","301.8","1020.008","5.114","74.79","-2.81","0.0"],
    [1393843,"2026-01-08 04:10:00","31423","1.495","301.7","2.646","311","1020.118","5.149","74.5","-2.616","0.0"],
    [1393844,"2026-01-08 04:20:00","31424","1.4180000000000001","316.3","2.581","324.4","1020.054","5.148","74.96","-2.7289999999999996","0.0"],
    [1393845,"2026-01-08 04:30:00","31425","1.3419999999999999","311.9","2.287","306.8","1020.0260000000001","5.111000000000001","75.6","-2.6919999999999997","0.0"],
    [1393846,"2026-01-08 04:40:00","31426","1.5190000000000001","307.6","3.397","312.6","1019.941","5.206","76.11","-2.773","0.0"],
    [1393847,"2026-01-08 04:50:00","31427","2.5180000000000002","310.5","4.312","313.9","1019.997","5.6339999999999995","75.32","-2.815","0.0"],
    [1393848,"2026-01-08 05:00:00","31428","1.679","302.4","2.973","316.4","1020.1","5.735","74.58","-2.615","0.0"],
    [1393849,"2026-01-08 05:10:00","31429","1.09","296.5","1.993","294.8","1020.03","5.6370000000000005","75.01","-2.773","0.0"],
    [1393850,"2026-01-08 05:20:00","31430","0.8220000000000001","286.5","2.189","288.4","1020.072","5.7620000000000005","74.78","-2.695","0.0"],
    [1393851,"2026-01-08 05:30:00","31431","0.9059999999999999","295.4","1.764","299.7","1020.0989999999999","5.492999999999999","75.45","-2.7230000000000003","0.0"],
    [1393852,"2026-01-08 05:40:00","31432","1.05","296.7","2.091","305.4","1020.074","5.322","76.72","-2.8080000000000003","0.0"],
    [1393853,"2026-01-08 05:50:00","31433","1.3619999999999999","297.9","2.189","304.6","1020.0419999999999","5.2829999999999995","77.31","-2.465","0.0"],
    [1393854,"2026-01-08 06:00:00","31434","1.137","273.9","2.156","267.8","1020.155","5.646","76.88","-2.783","0.0"],
    [1393855,"2026-01-08 06:10:00","31435","1.4509999999999998","280.6","2.94","305.2","1020.158","5.807","75.16","-2.532","0.0"],
    [1393856,"2026-01-08 06:20:00","31436","1.966","292.8","3.463","300.8","1020.028","5.644","76.69","-2.755","0.0"],
    [1393857,"2026-01-08 06:30:00","31437","1.617","255.1","3.005","260.4","1020.0219999999999","5.9670000000000005","75.14","-2.7439999999999998","0.0"],
    [1393858,"2026-01-08 06:40:00","31438","1.5959999999999999","249.1","2.711","253.4","1020.1519999999999","6.042999999999999","74.68","-2.5340000000000003","0.0"],
    [1393859,"2026-01-08 06:50:00","31439","1.6130000000000002","239.5","2.483","275.7","1020.2510000000001","5.973","74.78","-2.334","0.0"],
    [1393860,"2026-01-08 07:00:00","31440","1.2670000000000001","254.7","2.777","272","1020.202","5.879","75.66","-2.121","0.0"],
    [1393861,"2026-01-08 07:10:00","31441","1.6119999999999999","268.1","3.169","259.7","1020.1030000000001","5.996","75.38","-0.629","0.0"],
    [1393862,"2026-01-08 07:20:00","31442","1.219","271.2","2.352","269.6","1020.13","5.334","78.08","1.456","0.0"],
    [1393863,"2026-01-08 07:30:00","31443","1.383","203.2","2.352","203.1","1020.172","5.869","77.53","5.447","0.0"],
    [1393864,"2026-01-08 07:40:00","31444","1.815","207.3","3.038","204.8","1020.203","6.178","76.52","8.8","0.0"],
    [1393865,"2026-01-08 07:50:00","31445","1.703","231.0","3.071","232.7","1020.166","6.596","75.45","12.1","0.0"],
    [1393866,"2026-01-08 08:00:00","31446","1.86","259.8","3.463","297.8","1020.303","6.577999999999999","75.44","17.6","0.0"],
    [1393867,"2026-01-08 08:10:00","31447","1.113","275.9","3.528","291.7","1020.424","6.612","75.94","23.79","0.0"],
    [1393868,"2026-01-08 08:20:00","31448","1.112","245.6","2.156","258.4","1020.507","6.917000000000001","76.22","28.58","0.0"],
    [1393869,"2026-01-08 08:30:00","31449","1.127","260.3","2.875","243.9","1020.419","7.547999999999999","74.47","33.92","0.0"],
    [1393870,"2026-01-08 08:40:00","31450","0.39399999999999996","262.3","1.731","265.4","1020.6060000000001","7.888","73.35","44.83","0.0"],
    [1393871,"2026-01-08 08:50:00","31451","0.033","15.77","0.457","6.194","1020.618","7.996","73.11","81.1","0.0"],
    [1393872,"2026-01-08 09:00:00","31452","0.182","218.9","2.189","210.3","1020.8","8.77","70.6","190.9","0.0"],
    [1393873,"2026-01-08 09:10:00","31453","0.376","246.6","1.927","256.7","1020.834","9.7","67.98","251.1","0.0"],
    [1393874,"2026-01-08 09:20:00","31454","1.232","308.4","2.875","313.9","1020.7860000000001","10.89","64.45","289.8","0.0"],
    [1393875,"2026-01-08 09:30:00","31455","2.551","309.1","3.985","311.7","1020.615","10.49","65.64","179.8","0.0"],
    [1393876,"2026-01-08 09:40:00","31456","1.215","286.4","2.613","275.7","1020.699","10.72","64.8","262.3","0.0"],
    [1393877,"2026-01-08 09:50:00","31457","2.167","278.5","3.953","278.9","1020.725","11.07","63.25","311.4","0.0"],
    [1393878,"2026-01-08 10:00:00","31458","2.948","282.9","5.259","291.3","1020.685","11.26","62.94","272.2","0.0"],
    [1393879,"2026-01-08 10:10:00","31459","3.458","294.0","4.998","294","1020.5219999999999","11.03","64.2","172.3","0.0"],
    [1393880,"2026-01-08 10:20:00","31460","3.568","293.2","5.847","283.4","1020.426","11.03","64.86","143.2","0.0"],
    [1393881,"2026-01-08 10:30:00","31461","3.9730000000000003","300.7","6.337","288.4","1020.414","11.29","64.52","153.0","0.0"],
    [1393882,"2026-01-08 10:40:00","31462","3.8539999999999996","302.3","5.455","305.8","1020.3430000000001","11.41","64.33","213.9","0.0"],
    [1393883,"2026-01-08 10:50:00","31463","3.5589999999999997","309.1","5.357","316.4","1020.066","11.65","63.49","206.1","0.0"],
    [1393884,"2026-01-08 11:00:00","31464","3.6239999999999997","308.6","5.847","303.9","1019.816","11.8","62.85","180.4","0.0"],
    [1393885,"2026-01-08 11:10:00","31465","3.906","302.1","6.468","311.3","1019.71","12.25","61.42","328.4","0.0"],
    [1393886,"2026-01-08 11:20:00","31466","1.964","263.0","4.051","271.3","1019.712","13.13","58.36","450.6","0.0"],
    [1393887,"2026-01-08 11:30:00","31467","2.454","264.1","5.227","248.2","1019.7719999999999","13.91","56.08","444.1","0.0"],
    [1393888,"2026-01-08 11:40:00","31468","3.495","289.1","6.207","311.8","1019.707","14.17","55.14","452.2","0.0"],
    [1393889,"2026-01-08 11:50:00","31469","4.294","293.0","6.337","297.3","1019.5239999999999","14.3","54.69","464.8","0.0"],
    [1393890,"2026-01-08 12:00:00","31470","4.306","296.0","6.958","279.1","1019.4839999999999","14.44","54.32","456.3","0.0"],
    [1393891,"2026-01-08 12:10:00","31471","3.326","298.9","5.063","315","1019.309","14.81","53.27","455.8","0.0"],
    [1393892,"2026-01-08 12:20:00","31472","3.517","294.4","6.533","303.1","1019.248","14.95","52.61","452.0","0.0"],
    [1393893,"2026-01-08 12:30:00","31473","4.277","310.6","6.991","312.9","1019.0889999999999","15.02","52.99","441.8","0.0"],
    [1393894,"2026-01-08 12:40:00","31474","3.821","316.9","6.37","312","1018.8889999999999","15.26","52.73","414.1","0.0"],
    [1393895,"2026-01-08 12:50:00","31475","3.3089999999999997","314.7","5.292","332.8","1018.8489999999999","15.46","52.52","420.6","0.0"],
    [1393896,"2026-01-08 13:00:00","31476","3.775","320.2","5.423","316.6","1018.738","15.66","52.05","404.0","0.0"],
    [1393897,"2026-01-08 13:10:00","31477","3.3360000000000003","313.8","5.423","307.7","1018.58","15.93","51.6","400.4","0.0"],
    [1393898,"2026-01-08 13:20:00","31478","3.617","311.5","6.076","320.3","1018.617","16.02","51.61","384.9","0.0"],
    [1393899,"2026-01-08 13:30:00","31479","3.383","293.8","5.063","276.8","1018.6439999999999","16.27","50.09","380.0","0.0"],
    [1393900,"2026-01-08 13:40:00","31480","4.12","299.2","6.533","307.2","1018.64","16.22","49.97","388.3","0.0"],
    [1393901,"2026-01-08 13:50:00","31481","3.8810000000000002","295.5","5.913","294.7","1018.553","16.24","49.54","380.9","0.0"],
    [1393902,"2026-01-08 14:00:00","31482","5.212999999999999","295.9","8.49","289.1","1018.383","16.22","49.56","326.8","0.0"],
    [1393903,"2026-01-08 14:10:00","31483","5.237","294.1","7.775","283.8","1018.5169999999999","15.86","50.48","230.7","0.0"],
    [1393904,"2026-01-08 14:20:00","31484","4.878","301.8","8.59","307.1","1018.6260000000001","15.91","50.84","246.2","0.0"],
    [1393905,"2026-01-08 14:30:00","31485","4.675","298.5","6.958","295.6","1018.5089999999999","15.88","50.36","236.5","0.0"],
    [1393906,"2026-01-08 14:40:00","31486","4.115","300.6","6.599","302","1018.5210000000001","16.11","49.85","259.6","0.0"],
    [1393907,"2026-01-08 14:50:00","31487","3.533","298.5","6.043","288.5","1018.3589999999999","16.34","49.35","258.6","0.0"],
    [1393908,"2026-01-08 15:00:00","31488","3.5","303.2","5.553","312.8","1018.345","16.43","49.62","189.1","0.0"],
    [1393909,"2026-01-08 15:10:00","31489","4.247","298.7","6.435","281.7","1018.457","15.77","51.15","97.6","0.0"],
    [1393910,"2026-01-08 15:20:00","31490","3.613","304.6","7.579","303.9","1018.447","15.89","51.15","149.4","0.0"],
    [1393911,"2026-01-08 15:30:00","31491","4.5360000000000005","295.8","8.82","300.6","1018.444","16.04","50.27","160.6","0.0"],
    [1393912,"2026-01-08 15:40:00","31492","5.9079999999999995","305.1","10.26","299.8","1018.569","15.93","50.26","71.06","0.0"],
    [1393913,"2026-01-08 15:50:00","31493","4.151","308.7","7.121","298.9","1018.61","15.51","51.89","39.38","0.0"],
    [1393914,"2026-01-08 16:00:00","31494","3.965","297.7","6.991","319.2","1018.821","15.25","52.25","27.97","0.0"],
    [1393915,"2026-01-08 16:10:00","31495","3.4389999999999996","291.0","5.651","296","1018.623","14.84","53.67","16.16","0.0"],
    [1393916,"2026-01-08 16:20:00","31496","3.5380000000000003","283.6","8.17","290.5","1018.498","14.85","53.13","9.54","0.0"],
    [1393917,"2026-01-08 16:30:00","31497","2.293","256.0","4.639","250.9","1018.643","14.74","53.45","5.182","0.0"],
    [1393918,"2026-01-08 16:40:00","31498","2.009","267.6","4.083","248.7","1018.825","14.67","53.47","0.865","0.0"],
    [1393919,"2026-01-08 16:50:00","31499","1.743","297.3","3.43","298.3","1018.638","14.04","56.06","-1.071","0.0"],
    [1393920,"2026-01-08 17:00:00","31500","1.3519999999999999","250.4","3.463","267.5","1018.482","14.05","55.31","-2.006","0.0"],
    [1393921,"2026-01-08 17:10:00","31501","1.288","219.0","1.927","231.7","1018.7","14.08","55.08","-1.994","0.0"],
    [1393922,"2026-01-08 17:20:00","31502","1.068","256.0","1.764","264","1018.7310000000001","13.93","55.8","-2.008","0.0"],
    [1393923,"2026-01-08 17:30:00","31503","1.034","304.2","2.189","312","1018.7589999999999","13.43","58.64","-2.021","0.0"],
    [1393924,"2026-01-08 17:40:00","31504","1.321","306.7","2.385","315.1","1018.706","13.06","59.84","-2.026","0.0"],
    [1393925,"2026-01-08 17:50:00","31505","0.7440000000000001","267.9","1.372","279.9","1018.686","13.41","56.92","-2.11","0.0"],
    [1393926,"2026-01-08 18:00:00","31506","1.095","237.4","1.829","232.5","1018.6439999999999","13.72","55.56","-2.0069999999999997","0.0"],
    [1393927,"2026-01-08 18:10:00","31507","1.197","239.0","1.96","276.9","1018.743","13.39","56.97","-1.959","0.0"],
    [1393928,"2026-01-08 18:20:00","31508","1.192","257.1","1.993","298.8","1018.795","12.84","60.24","-1.7519999999999998","0.0"],
    [1393929,"2026-01-08 18:30:00","31509","1.568","233.5","3.397","264.4","1018.6289999999999","13.27","59.09","-2.0269999999999997","0.0"],
    [1393930,"2026-01-08 18:40:00","31510","2.799","230.8","5.161","221.1","1018.447","13.87","53.51","-2.0780000000000003","0.0"],
    [1393931,"2026-01-08 18:50:00","31511","2.292","236.3","3.691","254.1","1018.4639999999999","14.14","51.41","-1.6909999999999998","0.0"],
    [1393932,"2026-01-08 19:00:00","31512","2.719","233.0","5.031","259.2","1018.454","14.18","50.7","-1.8659999999999999","0.0"],
    [1393933,"2026-01-08 19:10:00","31513","2.395","244.9","5.586","247.2","1018.427","14.31","50.05","-2.022","0.0"],
    [1393934,"2026-01-08 19:20:00","31514","2.6510000000000002","246.4","4.933","218.8","1018.331","14.71","48.13","-1.982","0.0"],
    [1393935,"2026-01-08 19:30:00","31515","2.31","254.7","4.965","288.9","1018.2589999999999","14.47","49.05","-1.6669999999999998","0.0"],
    [1393936,"2026-01-08 19:40:00","31516","2.2","253.7","4.769","257.1","1018.19","14.31","49.24","-1.96","0.0"],
    [1393937,"2026-01-08 19:50:00","31517","1.8159999999999998","245.2","3.136","270.4","1018.107","14.21","49.01","-2.002","0.0"],
    [1393938,"2026-01-08 20:00:00","31518","2.5810000000000004","276.1","5.096","295.3","1018.0369999999999","14.22","48.91","-2.048","0.0"],
    [1393939,"2026-01-08 20:10:00","31519","2.616","277.9","4.867","289","1018.005","14.11","48.86","-2.031","0.0"],
    [1393940,"2026-01-08 20:20:00","31520","1.964","275.9","3.724","306.3","1017.783","13.96","49.27","-2.015","0.0"],
    [1393941,"2026-01-08 20:30:00","31521","1.197","242.9","2.058","243.4","1017.704","13.57","50.71","-2.043","0.0"],
    [1393942,"2026-01-08 20:40:00","31522","1.3659999999999999","228.5","2.417","235.6","1017.6189999999999","13.3","51.68","-2.082","0.0"],
    [1393943,"2026-01-08 20:50:00","31523","1.0190000000000001","246.9","1.666","250.6","1017.45","13.27","51.84","-2.202","0.0"],
    [1393944,"2026-01-08 21:00:00","31524","0.779","246.2","1.405","192.1","1017.3389999999999","13.11","52.39","-2.323","0.0"],
    [1393945,"2026-01-08 21:10:00","31525","0.85","218.4","1.731","227.3","1017.3589999999999","12.68","53.39","-2.609","0.0"],
    [1393946,"2026-01-08 21:20:00","31526","0.21100000000000002","251.5","1.47","279.3","1017.368","11.9","57.09","-2.759","0.0"],
    [1393947,"2026-01-08 21:30:00","31527","0.24600000000000002","286.7","1.829","3.711","1017.296","11.48","59.09","-2.694","0.0"],
    [1393948,"2026-01-08 21:40:00","31528","0.632","347.9","1.797","320.6","1017.2339999999999","11.53","58.8","-2.596","0.0"],
    [1393949,"2026-01-08 21:50:00","31529","0.467","75.18","1.633","335.1","1017.112","11.56","58.59","-2.763","0.0"],
    [1393950,"2026-01-08 22:00:00","31530","0.861","117.5","1.666","108.9","1017.02","11.89","56.62","-2.9419999999999997","0.0"],
    [1393951,"2026-01-08 22:10:00","31531","0.45399999999999996","7.266","1.601","130.5","1017.0939999999999","11.79","57.1","-2.781","0.0"],
    [1393952,"2026-01-08 22:20:00","31532","0.518","223.2","2.091","255.6","1016.913","11.18","58.93","-2.7539999999999996","0.0"],
    [1393953,"2026-01-08 22:30:00","31533","1.28","230.2","2.254","249.5","1016.6669999999999","12.09","54.79","-2.7710000000000004","0.0"],
    [1393954,"2026-01-08 22:40:00","31534","1.334","244.2","2.679","278.6","1016.4169999999999","12.44","53.25","-2.761","0.0"],
    [1393955,"2026-01-08 22:50:00","31535","1.994","265.4","4.541","276.5","1016.4680000000001","12.16","54.5","-2.833","0.0"],
    [1393956,"2026-01-08 23:00:00","31536","2.838","269.6","6.305","264.7","1016.3810000000001","12.6","52.82","-2.873","0.0"],
    [1393957,"2026-01-08 23:10:00","31537","3.802","265.6","7.709","272.9","1016.0939999999999","12.8","52.16","-2.763","0.0"],
    [1393958,"2026-01-08 23:20:00","31538","3.63","257.7","7.056","263.2","1015.95","13.16","50.67","-2.763","0.0"],
    [1393959,"2026-01-08 23:30:00","31539","2.356","247.1","5.913","235.3","1015.9739999999999","13.04","51.2","-2.531","0.0"],
    [1393960,"2026-01-08 23:40:00","31540","2.267","240.9","4.737","249.9","1015.9689999999999","12.65","52.94","-2.3080000000000003","0.0"],
    [1393961,"2026-01-08 23:50:00","31541","2.548","252.7","4.965","276.5","1015.802","12.7","52.95","-2.03","0.0"],
    [1393962,"2026-01-09 00:00:00","31542","2.9330000000000003","255.6","5.39","267.9","1015.7669999999999","12.77","52.64","-1.88","0.0"],
    [1393963,"2026-01-09 00:10:00","31543","2.8689999999999998","245.7","6.762","239.8","1015.635","12.77","52.78","-1.87","0.0"],
    [1393964,"2026-01-09 00:20:00","31544","4.121","236.9","6.925","269.1","1015.3689999999999","13.2","51.88","-2.16","0.0"],
    [1393965,"2026-01-09 00:30:00","31545","4.617","237.7","8.59","248.4","1015.2560000000001","13.56","51.31","-2.104","0.0"],
    [1393966,"2026-01-09 00:40:00","31546","3.904","238.9","7.546","271.2","1015.082","13.35","53.39","-1.4180000000000001","0.0"],
    [1393967,"2026-01-09 00:50:00","31547","4.801","235.6","8.95","243.8","1014.934","13.5","51.79","-1.983","0.0"],
    [1393968,"2026-01-09 01:00:00","31548","5.122000000000001","231.5","8.4","214.6","1014.795","13.28","53.51","-1.318","0.0"],
    [1393969,"2026-01-09 01:10:00","31549","4.785","238.0","8.07","264.7","1014.813","13.22","53.92","-1.473","0.0"],
    [1393970,"2026-01-09 01:20:00","31550","3.863","249.8","7.448","239","1014.88","13.17","54.96","-1.598","0.0"],
    [1393971,"2026-01-09 01:30:00","31551","5.188","246.8","9.6","244.5","1014.904","13.73","51.91","-2.323","0.0"],
    [1393972,"2026-01-09 01:40:00","31552","4.007","243.5","7.807","243.8","1014.959","13.6","53.19","-1.5630000000000002","0.0"],
    [1393973,"2026-01-09 01:50:00","31553","4.01","254.5","7.938","270.6","1015.028","13.63","53.67","-1.7819999999999998","0.0"],
    [1393974,"2026-01-09 02:00:00","31554","3.3689999999999998","236.7","5.782","224","1014.982","13.18","55.55","-1.6769999999999998","0.0"],
    [1393975,"2026-01-09 02:10:00","31555","2.991","247.3","5.619","269.9","1015.0310000000001","13.39","54.15","-2.056","0.0"],
    [1393976,"2026-01-09 02:20:00","31556","3.197","243.3","7.285","236.1","1014.9639999999999","13.28","54.35","-2.019","0.0"],
    [1393977,"2026-01-09 02:30:00","31557","3.9619999999999997","234.4","6.697","222.5","1014.8910000000001","13.59","51.89","-2.287","0.0"],
    [1393978,"2026-01-09 02:40:00","31558","4.211","234.2","11.11","225.3","1014.73","13.74","50.94","-2.055","0.0"],
    [1393979,"2026-01-09 02:50:00","31559","4.117","232.8","10.42","220.1","1014.725","13.61","51.08","-1.889","0.0"],
    [1393980,"2026-01-09 03:00:00","31560","3.301","239.7","5.651","247.9","1014.773","13.6","50.81","-1.986","0.0"],
    [1393981,"2026-01-09 03:10:00","31561","2.886","257.5","5.129","270.7","1014.685","13.35","51.61","-1.972","0.0"],
    [1393982,"2026-01-09 03:20:00","31562","2.302","242.6","5.357","242.2","1014.6669999999999","13.05","52.52","-2.115","0.0"],
    [1393983,"2026-01-09 03:30:00","31563","2.7680000000000002","241.7","6.109","276.5","1014.683","13.21","51.72","-2.347","0.0"],
    [1393984,"2026-01-09 03:40:00","31564","2.779","268.3","5.782","293","1014.6210000000001","13.14","51.91","-2.346","0.0"],
    [1393985,"2026-01-09 03:50:00","31565","2.115","291.3","3.332","283.2","1014.525","12.05","56.46","-1.8559999999999999","0.0"],
    [1393986,"2026-01-09 04:00:00","31566","3.2039999999999997","309.6","4.345","305.1","1014.495","11.58","58.74","-2.278","0.0"],
    [1393987,"2026-01-09 04:10:00","31567","3.25","315.2","4.704","315.4","1014.4760000000001","11.69","57.64","-2.214","0.0"],
    [1393988,"2026-01-09 04:20:00","31568","3.241","317.0","4.9","310.3","1014.454","11.54","57.98","-2.075","0.0"],
    [1393989,"2026-01-09 04:30:00","31569","2.8160000000000003","309.2","4.704","314.1","1014.456","11.25","58.88","-2.191","0.0"],
    [1393990,"2026-01-09 04:40:00","31570","2.336","309.3","4.508","298","1014.437","11.11","59.42","-2.588","0.0"],
    [1393991,"2026-01-09 04:50:00","31571","1.801","304.9","3.43","316.1","1014.2189999999999","11.03","59.54","-2.761","0.0"],
    [1393992,"2026-01-09 05:00:00","31572","1.439","264.7","2.679","271.8","1014.073","11.03","59.35","-2.764","0.0"],
    [1393993,"2026-01-09 05:10:00","31573","1.5019999999999998","267.2","2.777","251","1014.117","10.78","60.45","-2.764","0.0"],
    [1393994,"2026-01-09 05:20:00","31574","1.986","285.1","5.423","304.7","1013.956","10.72","61.04","-2.863","0.0"],
    [1393995,"2026-01-09 05:30:00","31575","2.9130000000000003","285.0","4.9","312.6","1013.8739999999999","11.0","60.12","-2.86","0.0"],
    [1393996,"2026-01-09 05:40:00","31576","3.141","300.6","6.207","297.6","1013.81","11.04","60.41","-2.782","0.0"],
    [1393997,"2026-01-09 05:50:00","31577","2.45","256.8","4.541","270.6","1013.923","11.09","60.02","-2.752","0.0"],
    [1393998,"2026-01-09 06:00:00","31578","2.325","262.8","4.443","266","1013.982","11.0","60.8","-2.7489999999999997","0.0"],
    [1393999,"2026-01-09 06:10:00","31579","3.2439999999999998","252.1","7.481","266.2","1013.947","12.02","57.51","-3.512","0.0"],
    [1394000,"2026-01-09 06:20:00","31580","3.221","246.5","8.46","242.9","1013.832","12.8","54.95","-3.185","0.0"],
    [1394001,"2026-01-09 06:30:00","31581","3.303","239.5","5.913","238.3","1013.936","13.06","54.24","-2.889","0.0"],
    [1394002,"2026-01-09 06:40:00","31582","3.345","231.6","5.521","233.2","1013.888","12.93","54.85","-2.762","0.0"],
    [1394003,"2026-01-09 06:50:00","31583","3.35","232.7","5.488","223.8","1013.813","12.91","55.03","-2.748","0.0"],
    [1394004,"2026-01-09 07:00:00","31584","3.386","230.8","6.501","226.5","1013.8560000000001","12.88","55.18","-2.549","0.0"],
    [1394005,"2026-01-09 07:10:00","31585","3.798","230.4","6.435","248.8","1013.955","12.81","55.38","-1.656","0.0"],
    [1394006,"2026-01-09 07:20:00","31586","3.802","227.7","5.913","214.2","1013.9110000000001","12.75","55.7","0.7090000000000001","0.0"],
    [1394007,"2026-01-09 07:30:00","31587","4.063","228.6","6.043","204.7","1013.898","12.82","55.41","4.1610000000000005","0.0"],
    [1394008,"2026-01-09 07:40:00","31588","5.297999999999999","225.0","9.31","213.1","1013.84","13.09","54.35","10.0","0.0"],
    [1394009,"2026-01-09 07:50:00","31589","4.817","222.6","6.566","232.1","1014.0060000000001","12.94","55.06","15.84","0.0"],
    [1394010,"2026-01-09 08:00:00","31590","5.018","219.8","7.383","221.6","1014.04","13.11","55.34","20.15","0.0"],
    [1394011,"2026-01-09 08:10:00","31591","4.888999999999999","220.9","7.219","225","1014.043","13.15","55.41","24.32","0.0"],
    [1394012,"2026-01-09 08:20:00","31592","5.13","224.5","8.1","222","1014.03","13.44","53.65","27.78","0.0"],
    [1394013,"2026-01-09 08:30:00","31593","5.041","227.7","7.448","218.8","1014.005","13.58","53.22","31.59","0.0"],
    [1394014,"2026-01-09 08:40:00","31594","3.795","228.2","5.847","224.1","1013.9989999999999","13.56","53.46","35.33","0.0"],
    [1394015,"2026-01-09 08:50:00","31595","4.098","226.8","6.795","218","1013.9889999999999","13.64","53.25","129.9","0.0"],
    [1394016,"2026-01-09 09:00:00","31596","4.084","226.6","7.285","224.9","1014.0189999999999","14.08","51.62","209.8","0.0"],
    [1394017,"2026-01-09 09:10:00","31597","3.975","231.6","6.501","252.7","1014.0210000000001","14.43","50.66","238.3","0.0"],
    [1394018,"2026-01-09 09:20:00","31598","3.9530000000000003","228.4","5.88","205.1","1013.985","14.76","49.55","261.1","0.0"],
    [1394019,"2026-01-09 09:30:00","31599","3.4760000000000004","231.1","5.423","220.6","1013.957","15.22","48.09","283.4","0.0"],
    [1394020,"2026-01-09 09:40:00","31600","3.341","235.6","5.815","216.6","1014.0269999999999","15.55","46.78","305.7","0.0"],
    [1394021,"2026-01-09 09:50:00","31601","3.6689999999999996","251.0","6.86","281.6","1014.048","15.83","45.59","323.6","0.0"],
    [1394022,"2026-01-09 10:00:00","31602","4.21","243.4","8.17","247.8","1014.058","15.99","44.65","363.3","0.0"],
    [1394023,"2026-01-09 10:10:00","31603","3.613","243.0","6.762","220.7","1013.943","16.25","44.06","370.8","0.0"],
    [1394024,"2026-01-09 10:20:00","31604","4.545","247.4","11.11","271.8","1013.807","16.21","43.57","293.2","0.0"],
    [1394025,"2026-01-09 10:30:00","31605","4.48","233.4","8.2","250.1","1013.685","16.14","43.48","348.3","0.0"],
    [1394026,"2026-01-09 10:40:00","31606","3.8480000000000003","236.6","7.285","239.2","1013.6519999999999","16.4","42.51","371.5","0.0"],
    [1394027,"2026-01-09 10:50:00","31607","3.7880000000000003","236.6","7.84","226.8","1013.492","16.8","41.53","420.7","0.0"],
    [1394028,"2026-01-09 11:00:00","31608","4.468999999999999","237.9","8.07","212.2","1013.4060000000001","16.83","40.18","430.5","0.0"],
    [1394029,"2026-01-09 11:10:00","31609","4.644","245.5","8.13","290.7","1013.317","16.97","38.55","440.5","0.0"],
    [1394030,"2026-01-09 11:20:00","31610","4.9510000000000005","239.2","11.5","236.4","1013.192","17.05","37.45","446.6","0.0"],
    [1394031,"2026-01-09 11:30:00","31611","4.87","240.1","8.17","268.5","1013.0939999999999","17.15","37.09","469.7","0.0"],
    [1394032,"2026-01-09 11:40:00","31612","4.622","263.4","9.44","257.2","1013.0880000000001","17.21","36.4","500.7","0.0"],
    [1394033,"2026-01-09 11:50:00","31613","3.9789999999999996","252.0","8.79","287.8","1013.008","17.47","36.36","540.4","0.0"],
    [1394034,"2026-01-09 12:00:00","31614","5.395","235.7","11.43","244.9","1012.9","17.09","36.79","427.4","0.0"],
    [1394035,"2026-01-09 12:10:00","31615","5.956","233.4","10.29","236.3","1012.7710000000001","16.71","37.51","389.3","0.0"],
    [1394036,"2026-01-09 12:20:00","31616","6.397","240.1","13.03","274.9","1012.669","16.59","37.4","453.6","0.0"],
    [1394037,"2026-01-09 12:30:00","31617","4.5569999999999995","243.9","9.38","269","1012.508","16.57","37.32","341.0","0.0"],
    [1394038,"2026-01-09 12:40:00","31618","5.172000000000001","236.4","11.34","220.7","1012.237","16.56","37.9","317.6","0.0"],
    [1394039,"2026-01-09 12:50:00","31619","5.0569999999999995","235.4","8.46","233.6","1012.1","16.27","37.5","286.3","0.0"],
    [1394040,"2026-01-09 13:00:00","31620","4.484","235.7","8.23","221.3","1011.9010000000001","16.33","37.75","276.4","0.0"],
    [1394041,"2026-01-09 13:10:00","31621","5.696000000000001","243.1","10.49","283.4","1011.747","16.53","35.79","358.9","0.0"],
    [1394042,"2026-01-09 13:20:00","31622","5.473","247.2","10.78","254.5","1011.605","16.62","34.81","413.4","0.0"],
    [1394043,"2026-01-09 13:30:00","31623","4.497","253.1","9.41","293.5","1011.445","16.84","35.09","396.7","0.0"],
    [1394044,"2026-01-09 13:40:00","31624","5.144","246.0","8.98","242.1","1011.34","16.78","35.11","396.8","0.0"],
    [1394045,"2026-01-09 13:50:00","31625","4.239","238.4","8.92","232.2","1011.155","16.89","35.7","376.5","0.0"],
    [1394046,"2026-01-09 14:00:00","31626","5.523","251.7","10.55","277.7","1010.961","16.75","35.68","365.5","0.0"],
    [1394047,"2026-01-09 14:10:00","31627","5.369","240.6","10.42","271.9","1010.8439999999999","16.72","34.44","343.6","0.0"],
    [1394048,"2026-01-09 14:20:00","31628","6.472","254.5","13.92","275.2","1010.752","16.66","33.39","320.6","0.0"],
    [1394049,"2026-01-09 14:30:00","31629","6.068","262.6","12.77","266.1","1010.63","16.55","33.15","299.7","0.0"],
    [1394050,"2026-01-09 14:40:00","31630","3.785","245.8","8.2","264.4","1010.556","16.74","33.63","277.3","0.0"],
    [1394051,"2026-01-09 14:50:00","31631","4.302","239.5","10.26","204.3","1010.525","16.73","34.15","238.7","0.0"],
    [1394052,"2026-01-09 15:00:00","31632","5.129","243.0","9.34","275","1010.436","16.6","33.63","230.4","0.0"],
    [1394053,"2026-01-09 15:10:00","31633","3.972","245.6","9.02","261.5","1010.4169999999999","16.52","34.35","205.9","0.0"],
    [1394054,"2026-01-09 15:20:00","31634","4.0","245.4","8.69","232.9","1010.492","16.54","34.82","181.3","0.0"],
    [1394055,"2026-01-09 15:30:00","31635","3.847","243.1","7.742","283.9","1010.5830000000001","16.47","35.17","155.3","0.0"],
    [1394056,"2026-01-09 15:40:00","31636","3.786","256.5","8.56","279.3","1010.53","16.34","36.05","130.4","0.0"],
    [1394057,"2026-01-09 15:50:00","31637","2.804","244.6","6.925","261","1010.449","16.31","36.3","102.5","0.0"],
    [1394058,"2026-01-09 16:00:00","31638","4.971","252.4","10.19","281.7","1010.451","16.17","34.84","64.16","0.0"],
    [1394059,"2026-01-09 16:10:00","31639","4.037","245.6","8.1","261.3","1010.705","15.92","35.09","22.03","0.0"],
    [1394060,"2026-01-09 16:20:00","31640","5.653","257.9","15.45","297.3","1011.294","15.78","37.41","9.12","0.0"],
    [1394061,"2026-01-09 16:30:00","31641","7.934","274.5","15.12","280.1","1011.818","13.53","53.99","9.26","0.0"],
    [1394062,"2026-01-09 16:40:00","31642","4.072","235.9","8.13","245.2","1011.06","12.69","57.59","4.668","0.0"],
    [1394063,"2026-01-09 16:50:00","31643","4.215","246.9","9.83","264.7","1011.0889999999999","12.77","52.88","-0.27699999999999997","0.0"],
    [1394064,"2026-01-09 17:00:00","31644","5.043","256.5","11.63","252.8","1011.107","12.83","48.3","-2.181","0.0"],
    [1394065,"2026-01-09 17:10:00","31645","4.593999999999999","244.4","11.66","275.8","1010.9839999999999","12.62","48.46","-2.503","0.0"],
    [1394066,"2026-01-09 17:20:00","31646","4.4110000000000005","241.5","7.448","270.4","1010.898","12.72","45.48","-2.7739999999999996","0.0"],
    [1394067,"2026-01-09 17:30:00","31647","4.621","241.3","9.93","269.9","1010.8639999999999","12.91","41.02","-2.87","0.0"],
    [1394068,"2026-01-09 17:40:00","31648","4.518","235.8","8.95","249.6","1010.9630000000001","13.05","36.66","-2.807","0.0"],
    [1394069,"2026-01-09 17:50:00","31649","4.1819999999999995","255.3","8.49","225.7","1011.2539999999999","12.93","36.25","-2.7880000000000003","0.0"],
    [1394070,"2026-01-09 18:00:00","31650","5.517","271.5","11.43","294.5","1011.654","12.84","35.9","-2.7539999999999996","0.0"],
    [1394071,"2026-01-09 18:10:00","31651","4.538","278.4","8.85","272.8","1011.944","12.71","36.07","-2.767","0.0"],
    [1394072,"2026-01-09 18:20:00","31652","4.408","287.2","8.49","311.1","1012.443","12.28","36.97","-2.7910000000000004","0.0"],
    [1394073,"2026-01-09 18:30:00","31653","4.783","287.9","8.79","290","1012.546","12.13","36.97","-2.843","0.0"],
    [1394074,"2026-01-09 18:40:00","31654","5.622000000000001","291.7","9.21","293.2","1012.569","12.07","37.16","-2.822","0.0"],
    [1394075,"2026-01-09 18:50:00","31655","5.3839999999999995","283.9","9.77","275.6","1012.5089999999999","11.83","38.51","-2.761","0.0"],
    [1394076,"2026-01-09 19:00:00","31656","5.981","285.1","9.51","290.3","1012.5980000000001","11.69","39.58","-2.665","0.0"],
    [1394077,"2026-01-09 19:10:00","31657","5.227","283.1","8.43","286.6","1012.758","11.34","41.4","-2.571","0.0"],
    [1394078,"2026-01-09 19:20:00","31658","4.457","285.8","7.089","291.9","1012.9060000000001","11.05","42.93","-2.752","0.0"],
    [1394079,"2026-01-09 19:30:00","31659","4.863","286.6","8.17","278.5","1013.1519999999999","10.84","44.44","-2.761","0.0"],
    [1394080,"2026-01-09 19:40:00","31660","3.516","278.5","8.23","283.8","1013.051","10.84","44.93","-2.8","0.0"],
    [1394081,"2026-01-09 19:50:00","31661","2.8760000000000003","266.0","5.619","290.2","1013.2689999999999","10.63","45.66","-2.7969999999999997","0.0"],
    [1394082,"2026-01-09 20:00:00","31662","2.66","246.6","5.619","260.4","1013.2180000000001","10.53","45.65","-2.838","0.0"],
    [1394083,"2026-01-09 20:10:00","31663","2.6310000000000002","242.2","6.207","258.9","1013.18","10.42","45.6","-2.9419999999999997","0.0"],
    [1394084,"2026-01-09 20:20:00","31664","2.449","291.3","4.247","283.8","1013.298","10.03","47.1","-2.9560000000000004","0.0"],
    [1394085,"2026-01-09 20:30:00","31665","2.5469999999999997","290.4","5.39","275.9","1013.63","9.54","48.21","-3.0810000000000004","0.0"],
    [1394086,"2026-01-09 20:40:00","31666","3.2689999999999997","283.1","6.501","283","1013.7660000000001","9.75","47.17","-3.602","0.0"],
    [1394087,"2026-01-09 20:50:00","31667","4.643","278.6","8.1","275.4","1013.9730000000001","9.91","45.85","-3.0189999999999997","0.0"],
    [1394088,"2026-01-09 21:00:00","31668","4.058","278.3","6.435","294.2","1014.07","9.81","45.87","-2.764","0.0"],
    [1394089,"2026-01-09 21:10:00","31669","4.29","267.8","8.72","257.2","1014.033","9.77","45.82","-2.7760000000000002","0.0"],
    [1394090,"2026-01-09 21:20:00","31670","4.393","265.9","10.19","281.1","1013.8919999999999","9.79","45.21","-2.7689999999999997","0.0"],
    [1394091,"2026-01-09 21:30:00","31671","5.95","279.6","9.6","288","1013.845","9.61","46.11","-2.705","0.0"],
    [1394092,"2026-01-09 21:40:00","31672","7.814","292.2","11.99","291.5","1013.8639999999999","9.56","46.69","-2.642","0.0"],
    [1394093,"2026-01-09 21:50:00","31673","7.621","298.2","11.53","295.1","1013.9789999999999","9.5","47.26","-2.535","0.0"],
    [1394094,"2026-01-09 22:00:00","31674","8.06","297.7","12.38","289.6","1014.054","9.43","47.91","-2.404","0.0"],
    [1394095,"2026-01-09 22:10:00","31675","8.13","297.5","13.1","300.3","1014.1160000000001","9.33","48.52","-2.425","0.0"],
    [1394096,"2026-01-09 22:20:00","31676","7.702999999999999","295.3","13.23","293.2","1014.166","9.2","49.33","-2.369","0.0"],
    [1394097,"2026-01-09 22:30:00","31677","7.275","294.6","11.14","299.3","1014.206","9.15","49.68","-2.4290000000000003","0.0"],
    [1394098,"2026-01-09 22:40:00","31678","7.462999999999999","298.2","12.71","303.5","1014.32","9.04","50.37","-2.577","0.0"],
    [1394099,"2026-01-09 22:50:00","31679","7.165","296.4","11.79","311.3","1014.414","9.0","50.66","-2.376","0.0"],
    [1394100,"2026-01-09 23:00:00","31680","7.06","301.6","12.35","288.2","1014.508","8.78","51.94","-2.43","0.0"],
    [1394101,"2026-01-09 23:10:00","31681","6.051","302.1","9.15","294.9","1014.6510000000001","8.68","52.51","-2.421","0.0"],
    [1394102,"2026-01-09 23:20:00","31682","5.809","301.7","9.77","283.3","1014.7719999999999","8.52","53.07","-2.77","0.0"],
    [1394103,"2026-01-09 23:30:00","31683","6.468","300.3","10.71","308.1","1014.7669999999999","8.58","52.92","-2.766","0.0"],
    [1394104,"2026-01-09 23:40:00","31684","6.756","301.0","11.4","306.6","1014.707","8.51","53.53","-2.668","0.0"],
    [1394105,"2026-01-09 23:50:00","31685","7.244","305.6","12.02","312.6","1014.684","8.53","53.79","-2.613","0.0"],
    [1394106,"2026-01-10 00:00:00","31686","7.646","301.9","12.05","301.1","1014.6510000000001","8.49","54.16","-2.533","0.0"],
    [1394107,"2026-01-10 00:10:00","31687","7.053","305.6","10.62","320.6","1014.6619999999999","8.44","54.62","-2.379","0.0"],
    [1394108,"2026-01-10 00:20:00","31688","7.678","304.7","13.49","321.9","1014.567","8.42","55.04","-2.628","0.0"],
    [1394109,"2026-01-10 00:30:00","31689","7.44","305.4","10.91","311.5","1014.576","8.37","55.52","-2.452","0.0"],
    [1394110,"2026-01-10 00:40:00","31690","7.247999999999999","304.2","10.98","319.8","1014.5830000000001","8.37","55.5","-2.611","0.0"],
    [1394111,"2026-01-10 00:50:00","31691","7.367999999999999","305.5","12.15","324.9","1014.592","8.37","55.53","-2.524","0.0"],
    [1394112,"2026-01-10 01:00:00","31692","6.682","307.5","11.86","316.9","1014.6","8.25","56.17","-2.456","0.0"],
    [1394113,"2026-01-10 01:10:00","31693","7.768","312.1","11.79","314.1","1014.6560000000001","8.22","56.46","-2.484","0.0"],
    [1394114,"2026-01-10 01:20:00","31694","6.915","314.6","10.42","311.5","1014.702","8.18","56.64","-2.463","0.0"],
    [1394115,"2026-01-10 01:30:00","31695","6.357","317.1","10.06","312.7","1014.805","8.07","57.23","-2.574","0.0"],
    [1394116,"2026-01-10 01:40:00","31696","6.8","310.2","11.07","309.5","1015.0010000000001","8.1","57.1","-2.628","0.0"],
    [1394117,"2026-01-10 01:50:00","31697","6.888999999999999","306.4","11.5","296.6","1015.194","8.04","57.58","-2.531","0.0"],
    [1394118,"2026-01-10 02:00:00","31698","7.321000000000001","312.3","10.68","298.3","1015.432","8.01","58.1","-2.605","0.0"],
    [1394119,"2026-01-10 02:10:00","31699","7.068","313.3","10.16","307.4","1015.49","8.03","58.21","-2.519","0.0"],
    [1394120,"2026-01-10 02:20:00","31700","6.829","315.0","10.36","314.5","1015.6010000000001","7.952999999999999","58.69","-2.546","0.0"],
    [1394121,"2026-01-10 02:30:00","31701","7.242999999999999","310.2","13.46","311.7","1015.567","7.8660000000000005","59.23","-2.377","0.0"],
    [1394122,"2026-01-10 02:40:00","31702","6.649","304.7","10.62","301.4","1015.5369999999999","7.746","59.79","-2.314","0.0"],
    [1394123,"2026-01-10 02:50:00","31703","7.29","307.2","11.01","307.2","1015.5039999999999","7.766","59.76","-2.603","0.0"],
    [1394124,"2026-01-10 03:00:00","31704","7.062","308.0","11.01","320.1","1015.52","7.7410000000000005","59.92","-2.496","0.0"],
    [1394125,"2026-01-10 03:10:00","31705","6.968999999999999","308.6","10.09","312.1","1015.663","7.709","60.21","-2.439","0.0"],
    [1394126,"2026-01-10 03:20:00","31706","7.178999999999999","309.5","9.96","306.2","1015.702","7.689","60.31","-2.384","0.0"],
    [1394127,"2026-01-10 03:30:00","31707","7.4670000000000005","312.7","10.88","305.5","1015.75","7.709","60.18","-2.553","0.0"],
    [1394128,"2026-01-10 03:40:00","31708","7.684","314.6","11.43","317.9","1015.8919999999999","7.749","60.08","-2.353","0.0"],
    [1394129,"2026-01-10 03:50:00","31709","7.629","304.4","11.34","296.2","1015.747","7.704","60.2","-2.324","0.0"],
    [1394130,"2026-01-10 04:00:00","31710","7.082000000000001","308.6","11.01","308.3","1015.7330000000001","7.643","60.55","-2.387","0.0"],
    [1394131,"2026-01-10 04:10:00","31711","6.855","313.3","10.03","301.4","1015.878","7.62","60.79","-2.4530000000000003","0.0"],
    [1394132,"2026-01-10 04:20:00","31712","6.75","311.3","11.17","319.5","1016.018","7.56","61.17","-2.582","0.0"],
    [1394133,"2026-01-10 04:30:00","31713","6.771","312.2","9.96","308.6","1016.196","7.541","61.32","-2.6310000000000002","0.0"],
    [1394134,"2026-01-10 04:40:00","31714","7.337000000000001","312.4","11.76","316.1","1016.178","7.564","61.33","-2.441","0.0"],
    [1394135,"2026-01-10 04:50:00","31715","6.968999999999999","314.8","10.94","300","1016.074","7.445","62.01","-2.1959999999999997","0.0"],
    [1394136,"2026-01-10 05:00:00","31716","7.224","313.3","10.68","316.9","1016.007","7.352","62.46","-2.364","0.0"],
    [1394137,"2026-01-10 05:10:00","31717","6.651","306.8","10.39","302.5","1015.8939999999999","7.192","63.1","-2.421","0.0"],
    [1394138,"2026-01-10 05:20:00","31718","8.31","308.6","11.96","320","1015.9789999999999","7.303999999999999","62.57","-2.6889999999999996","0.0"],
    [1394139,"2026-01-10 05:30:00","31719","8.05","310.7","11.34","323.5","1016.135","7.351","62.38","-2.2769999999999997","0.0"],
    [1394140,"2026-01-10 05:40:00","31720","6.598","302.0","10.42","310.5","1016.201","7.151","63.21","-2.217","0.0"],
    [1394141,"2026-01-10 05:50:00","31721","6.6339999999999995","309.7","10.32","320.3","1016.4739999999999","7.104","63.51","-2.5839999999999996","0.0"],
    [1394142,"2026-01-10 06:00:00","31722","6.566","308.0","11.11","308.1","1016.454","7.0920000000000005","63.44","-2.548","0.0"],
    [1394143,"2026-01-10 06:10:00","31723","8.17","307.3","12.77","304.6","1016.471","7.125","63.22","-2.5789999999999997","0.0"],
    [1394144,"2026-01-10 06:20:00","31724","7.542000000000001","308.8","11.56","310.6","1016.4960000000001","7.193","62.66","-2.408","0.0"],
    [1394145,"2026-01-10 06:30:00","31725","6.367999999999999","314.6","10.09","305.7","1016.64","7.1339999999999995","62.87","-2.313","0.0"],
    [1394146,"2026-01-10 06:40:00","31726","6.644","311.0","10.49","320","1016.675","7.14","62.52","-2.67","0.0"],
    [1394147,"2026-01-10 06:50:00","31727","7.5920000000000005","311.0","13.3","306.2","1016.8489999999999","7.182","62.14","-2.553","0.0"],
    [1394148,"2026-01-10 07:00:00","31728","6.751","312.6","10.13","319.2","1017.069","7.233","61.9","-2.019","0.0"],
    [1394149,"2026-01-10 07:10:00","31729","7.381","309.4","11.66","303.2","1017.0939999999999","7.289","61.45","-0.99","0.0"],
    [1394150,"2026-01-10 07:20:00","31730","6.942","308.2","10.88","306.3","1017.1210000000001","7.315","61.27","2.036","0.0"],
    [1394151,"2026-01-10 07:30:00","31731","6.027","307.8","9.44","318.1","1017.201","7.242999999999999","61.48","5.831","0.0"],
    [1394152,"2026-01-10 07:40:00","31732","5.556","306.9","8.72","300.1","1017.2919999999999","7.317","60.99","10.45","0.0"],
    [1394153,"2026-01-10 07:50:00","31733","5.655","307.4","9.11","320.4","1017.454","7.341","61.18","15.2","0.0"],
    [1394154,"2026-01-10 08:00:00","31734","6.207000000000001","305.0","11.66","299.1","1017.685","7.382000000000001","61.5","19.53","0.0"],
    [1394155,"2026-01-10 08:10:00","31735","5.335","305.1","8.66","302.1","1017.8960000000001","7.402","61.83","23.57","0.0"],
    [1394156,"2026-01-10 08:20:00","31736","5.15","302.6","9.18","317","1018.1489999999999","7.432","61.92","26.97","0.0"],
    [1394157,"2026-01-10 08:30:00","31737","4.334","306.1","7.285","302.4","1018.3330000000001","7.5360000000000005","61.73","30.94","0.0"],
    [1394158,"2026-01-10 08:40:00","31738","3.818","307.9","6.566","324.6","1018.541","7.71","61.26","36.13","0.0"],
    [1394159,"2026-01-10 08:50:00","31739","3.904","314.0","5.749","309.9","1018.752","7.955","60.46","137.3","0.0"],
    [1394160,"2026-01-10 09:00:00","31740","3.471","314.4","6.337","295.6","1018.997","8.35","59.27","214.6","0.0"],
    [1394161,"2026-01-10 09:10:00","31741","4.038","306.1","7.089","286.3","1019.1189999999999","8.67","57.85","247.1","0.0"],
    [1394162,"2026-01-10 09:20:00","31742","3.764","307.6","7.775","310.8","1019.13","9.06","56.65","299.5","0.0"],
    [1394163,"2026-01-10 09:30:00","31743","3.923","318.4","6.958","285","1019.2410000000001","9.37","55.4","262.3","0.0"],
    [1394164,"2026-01-10 09:40:00","31744","3.9189999999999996","320.6","6.729","327.4","1019.3889999999999","9.42","55.21","235.7","0.0"],
    [1394165,"2026-01-10 09:50:00","31745","3.572","329.4","6.403","339","1019.5269999999999","9.46","55.28","249.0","0.0"],
    [1394166,"2026-01-10 10:00:00","31746","2.965","317.3","5.259","338","1019.554","9.86","54.74","290.0","0.0"],
    [1394167,"2026-01-10 10:10:00","31747","3.093","327.1","5.913","335.4","1019.595","9.9","54.33","266.1","0.0"],
    [1394168,"2026-01-10 10:20:00","31748","3.48","333.2","6.043","347.4","1019.4739999999999","9.8","54.59","264.7","0.0"],
    [1394169,"2026-01-10 10:30:00","31749","3.3489999999999998","331.3","7.089","315.3","1019.427","10.02","54.2","257.1","0.0"],
    [1394170,"2026-01-10 10:40:00","31750","4.311","334.6","6.337","334.2","1019.283","10.16","53.58","333.5","0.0"],
    [1394171,"2026-01-10 10:50:00","31751","4.824","334.1","6.958","325.7","1019.092","10.53","52.5","438.5","0.0"],
    [1394172,"2026-01-10 11:00:00","31752","4.228","323.3","7.089","316.8","1018.933","11.04","50.59","448.5","0.0"],
    [1394173,"2026-01-10 11:10:00","31753","4.419","318.3","7.219","298.7","1018.84","11.43","49.11","448.1","0.0"],
    [1394174,"2026-01-10 11:20:00","31754","4.535","308.9","7.089","320","1018.7080000000001","11.68","48.63","454.1","0.0"],
    [1394175,"2026-01-10 11:30:00","31755","4.779","297.4","8.56","281","1018.6010000000001","12.11","47.0","459.7","0.0"],
    [1394176,"2026-01-10 11:40:00","31756","6.222","293.3","10.71","297.1","1018.487","12.09","46.27","466.2","0.0"],
    [1394177,"2026-01-10 11:50:00","31757","5.577000000000001","285.5","10.26","308.5","1018.306","12.32","45.74","469.2","0.0"],
    [1394178,"2026-01-10 12:00:00","31758","5.382000000000001","287.8","8.95","277.1","1018.2410000000001","12.29","46.25","469.7","0.0"],
    [1394179,"2026-01-10 12:10:00","31759","5.945","283.0","10.22","284.5","1018.12","12.59","44.76","469.3","0.0"],
    [1394180,"2026-01-10 12:20:00","31760","4.724","277.1","9.02","277.2","1017.8939999999999","12.78","43.48","467.6","0.0"],
    [1394181,"2026-01-10 12:30:00","31761","4.263","275.2","8.33","277.4","1017.6410000000001","13.07","42.64","463.5","0.0"],
    [1394182,"2026-01-10 12:40:00","31762","4.053999999999999","268.7","9.7","307.6","1017.546","13.38","41.71","457.9","0.0"],
    [1394183,"2026-01-10 12:50:00","31763","5.455","279.6","10.22","285.4","1017.378","13.24","40.83","452.5","0.0"],
    [1394184,"2026-01-10 13:00:00","31764","5.45","280.3","9.34","275.7","1017.3969999999999","13.39","40.68","443.4","0.0"],
    [1394185,"2026-01-10 13:10:00","31765","4.334","265.4","8.17","289.2","1017.329","13.56","39.62","432.2","0.0"],
    [1394186,"2026-01-10 13:20:00","31766","5.4","274.1","10.09","263.1","1017.2180000000001","13.58","39.77","421.5","0.0"],
    [1394187,"2026-01-10 13:30:00","31767","5.58","278.5","10.06","309.1","1016.98","13.6","39.36","409.5","0.0"],
    [1394188,"2026-01-10 13:40:00","31768","5.579","284.1","9.87","297.6","1016.8580000000001","13.76","39.98","396.8","0.0"],
    [1394189,"2026-01-10 13:50:00","31769","6.8420000000000005","286.3","11.43","294","1016.7289999999999","13.77","40.16","388.2","0.0"],
    [1394190,"2026-01-10 14:00:00","31770","5.726","281.6","10.81","288.9","1016.7489999999999","13.8","40.42","368.5","0.0"],
    [1394191,"2026-01-10 14:10:00","31771","5.855","274.4","9.83","289.8","1016.845","13.7","41.42","347.4","0.0"],
    [1394192,"2026-01-10 14:20:00","31772","6.397","280.5","11.34","289.5","1017.0369999999999","13.54","42.27","325.9","0.0"],
    [1394193,"2026-01-10 14:30:00","31773","5.892","291.8","9.7","297.7","1017.193","13.69","42.88","302.9","0.0"],
    [1394194,"2026-01-10 14:40:00","31774","4.967","280.5","8.79","286.6","1017.2280000000001","13.7","42.58","282.2","0.0"],
    [1394195,"2026-01-10 14:50:00","31775","5.252000000000001","281.0","8.95","285.4","1017.26","13.74","42.75","258.8","0.0"],
    [1394196,"2026-01-10 15:00:00","31776","3.9010000000000002","265.1","8.3","289.9","1017.168","13.67","43.14","235.6","0.0"],
    [1394197,"2026-01-10 15:10:00","31777","4.374","276.8","9.28","290","1017.163","13.56","44.0","210.5","0.0"],
    [1394198,"2026-01-10 15:20:00","31778","4.471","270.5","8.53","298.6","1017.081","13.49","44.04","184.5","0.0"],
    [1394199,"2026-01-10 15:30:00","31779","4.093999999999999","267.8","8.56","285.7","1017.1160000000001","13.45","44.47","158.9","0.0"],
    [1394200,"2026-01-10 15:40:00","31780","3.36","263.7","8.17","259.1","1017.1060000000001","13.44","44.61","133.5","0.0"],
    [1394201,"2026-01-10 15:50:00","31781","3.56","277.4","7.35","290.3","1017.135","13.29","45.15","109.3","0.0"],
    [1394202,"2026-01-10 16:00:00","31782","3.906","283.9","6.337","298.3","1017.227","13.08","45.95","84.6","0.0"],
    [1394203,"2026-01-10 16:10:00","31783","2.481","272.7","4.933","295.6","1017.318","12.87","46.71","42.91","0.0"],
    [1394204,"2026-01-10 16:20:00","31784","3.068","267.6","5.292","272.5","1017.4810000000001","12.83","46.71","15.74","0.0"],
    [1394205,"2026-01-10 16:30:00","31785","3.766","278.2","7.219","319.1","1017.623","12.78","46.77","9.75","0.0"],
    [1394206,"2026-01-10 16:40:00","31786","2.7769999999999997","270.0","6.076","286.7","1017.7669999999999","12.54","47.72","4.236000000000001","0.0"],
    [1394207,"2026-01-10 16:50:00","31787","2.301","249.5","4.639","286.7","1017.8739999999999","12.33","48.34","-0.04","0.0"],
    [1394208,"2026-01-10 17:00:00","31788","2.045","243.0","4.279","231.8","1017.951","12.11","49.08","-2.279","0.0"],
    [1394209,"2026-01-10 17:10:00","31789","2.7739999999999996","270.5","7.677","276","1018.025","12.04","49.3","-2.852","0.0"],
    [1394210,"2026-01-10 17:20:00","31790","3.037","257.0","7.546","285.4","1017.9989999999999","12.05","49.02","-2.89","0.0"],
    [1394211,"2026-01-10 17:30:00","31791","2.717","261.2","6.337","267.9","1017.949","11.86","49.7","-2.803","0.0"],
    [1394212,"2026-01-10 17:40:00","31792","3.1310000000000002","277.4","7.513","299.4","1018.02","11.73","49.99","-2.7739999999999996","0.0"],
    [1394213,"2026-01-10 17:50:00","31793","4.7669999999999995","284.4","8.75","283.4","1018.1289999999999","11.75","49.71","-2.8930000000000002","0.0"],
    [1394214,"2026-01-10 18:00:00","31794","4.628","286.9","8.13","275.9","1018.163","11.64","50.15","-2.761","0.0"],
    [1394215,"2026-01-10 18:10:00","31795","4.9639999999999995","287.7","7.252","297","1018.1669999999999","11.59","50.25","-2.752","0.0"],
    [1394216,"2026-01-10 18:20:00","31796","4.537","288.3","7.35","296.3","1018.303","11.39","50.91","-2.764","0.0"],
    [1394217,"2026-01-10 18:30:00","31797","3.825","291.0","8.1","303.3","1018.375","11.3","50.96","-2.773","0.0"],
    [1394218,"2026-01-10 18:40:00","31798","3.5210000000000004","296.3","6.272","295.7","1018.419","11.02","52.05","-2.8360000000000003","0.0"],
    [1394219,"2026-01-10 18:50:00","31799","3.7289999999999996","295.9","5.978","303.1","1018.55","10.91","52.32","-2.861","0.0"],
    [1394220,"2026-01-10 19:00:00","31800","4.292","299.1","7.252","296.9","1018.653","10.97","52.2","-2.8689999999999998","0.0"],
    [1394221,"2026-01-10 19:10:00","31801","3.949","300.1","7.056","302.3","1018.705","10.89","52.65","-2.858","0.0"],
    [1394222,"2026-01-10 19:20:00","31802","3.62","301.9","5.815","309.4","1018.7539999999999","10.63","53.61","-2.767","0.0"],
    [1394223,"2026-01-10 19:30:00","31803","4.226","296.4","7.35","305","1018.7389999999999","10.54","53.88","-2.932","0.0"],
    [1394224,"2026-01-10 19:40:00","31804","3.264","294.1","5.619","299","1018.7860000000001","10.42","54.15","-2.765","0.0"],
    [1394225,"2026-01-10 19:50:00","31805","3.1919999999999997","296.2","5.227","306.7","1018.935","10.27","54.6","-2.932","0.0"],
    [1394226,"2026-01-10 20:00:00","31806","3.623","301.1","6.305","298.4","1019.069","10.24","54.77","-3.091","0.0"],
    [1394227,"2026-01-10 20:10:00","31807","3.069","304.0","5.553","315.5","1019.1239999999999","10.18","55.02","-2.9010000000000002","0.0"],
    [1394228,"2026-01-10 20:20:00","31808","1.973","293.8","3.299","317.8","1019.185","9.77","56.32","-3.0210000000000004","0.0"],
    [1394229,"2026-01-10 20:30:00","31809","1.252","285.3","2.777","285.3","1019.2510000000001","9.55","57.1","-3.23","0.0"],
    [1394230,"2026-01-10 20:40:00","31810","1.729","283.3","3.528","281.9","1019.2139999999999","9.45","57.45","-3.4730000000000003","0.0"],
    [1394231,"2026-01-10 20:50:00","31811","2.165","299.1","4.377","259.4","1019.2080000000001","9.39","57.86","-3.0410000000000004","0.0"],
    [1394232,"2026-01-10 21:00:00","31812","3.248","304.3","5.39","309.8","1019.137","9.53","57.38","-3.344","0.0"],
    [1394233,"2026-01-10 21:10:00","31813","3.1439999999999997","302.7","5.488","311.6","1019.158","9.62","56.84","-2.9360000000000004","0.0"],
    [1394234,"2026-01-10 21:20:00","31814","2.8169999999999997","299.4","4.704","303.2","1019.1460000000001","9.43","57.51","-2.912","0.0"],
    [1394235,"2026-01-10 21:30:00","31815","2.494","304.4","4.9","319.8","1019.079","9.3","58.07","-3.011","0.0"],
    [1394236,"2026-01-10 21:40:00","31816","2.51","305.8","4.377","289.5","1019.043","9.19","58.36","-2.9219999999999997","0.0"],
    [1394237,"2026-01-10 21:50:00","31817","3.225","295.7","5.684","309.5","1019.043","9.23","57.98","-3.1710000000000003","0.0"],
    [1394238,"2026-01-10 22:00:00","31818","3.2910000000000004","298.4","5.749","301.1","1019.1039999999999","9.2","57.77","-2.917","0.0"],
    [1394239,"2026-01-10 22:10:00","31819","2.825","313.9","6.239","307.5","1019.2339999999999","9.17","57.92","-2.9330000000000003","0.0"],
    [1394240,"2026-01-10 22:20:00","31820","1.9240000000000002","3.16","3.267","342.5","1019.4760000000001","9.16","58.0","-2.9189999999999996","0.0"],
    [1394241,"2026-01-10 22:30:00","31821","2.37","358.2","4.9","2.856","1019.65","8.9","58.88","-3.264","0.0"],
    [1394242,"2026-01-10 22:40:00","31822","2.8539999999999996","356.0","5.815","356.4","1019.666","9.29","56.88","-2.9730000000000003","0.0"],
    [1394243,"2026-01-10 22:50:00","31823","3.158","5.664","6.043","0.602","1019.735","9.49","55.72","-3.0610000000000004","0.0"],
    [1394244,"2026-01-10 23:00:00","31824","3.412","7.532","5.586","359.4","1019.743","9.83","53.78","-2.963","0.0"],
    [1394245,"2026-01-10 23:10:00","31825","2.628","8.86","4.802","3.13","1019.796","9.39","56.07","-2.891","0.0"],
    [1394246,"2026-01-10 23:20:00","31826","2.2569999999999997","16.25","4.312","26.3","1019.7819999999999","9.29","57.7","-2.8789999999999996","0.0"],
    [1394247,"2026-01-10 23:30:00","31827","2.128","12.18","3.397","358.9","1019.84","9.02","60.17","-3.005","0.0"],
    [1394248,"2026-01-10 23:40:00","31828","1.8530000000000002","345.6","2.94","325.9","1019.909","8.8","59.59","-3.05","0.0"],
    [1394249,"2026-01-10 23:50:00","31829","1.9680000000000002","328.2","2.94","334.2","1019.9839999999999","8.64","59.3","-3.094","0.0"],
    [1394250,"2026-01-11 00:00:00","31830","2.8089999999999997","323.5","3.953","323.8","1020.072","8.59","59.09","-2.91","0.0"],
    [1394251,"2026-01-11 00:10:00","31831","2.249","330.0","4.051","308.5","1020.076","8.01","61.14","-2.835","0.0"],
    [1394252,"2026-01-11 00:20:00","31832","2.225","347.0","3.397","339.7","1020.169","7.947","61.76","-2.9760000000000004","0.0"],
    [1394253,"2026-01-11 00:30:00","31833","2.336","334.9","3.789","356.3","1020.248","8.3","60.24","-2.935","0.0"],
    [1394254,"2026-01-11 00:40:00","31834","2.228","307.9","3.593","318.5","1020.2589999999999","7.973","61.29","-2.806","0.0"],
    [1394255,"2026-01-11 00:50:00","31835","1.6740000000000002","275.3","3.103","262.9","1020.2330000000001","7.621","62.7","-2.833","0.0"],
    [1394256,"2026-01-11 01:00:00","31836","1.9869999999999999","282.0","3.234","267.3","1020.2510000000001","7.511","63.19","-2.7510000000000003","0.0"],
    [1394257,"2026-01-11 01:10:00","31837","2.033","289.3","3.757","282.1","1020.317","6.867000000000001","66.33","-2.7769999999999997","0.0"],
    [1394258,"2026-01-11 01:20:00","31838","1.946","291.0","3.365","272.3","1020.416","6.763","67.09","-2.721","0.0"],
    [1394259,"2026-01-11 01:30:00","31839","1.962","301.1","3.724","304.3","1020.453","6.642","68.08","-2.72","0.0"],
    [1394260,"2026-01-11 01:40:00","31840","2.35","297.0","3.691","305.1","1020.63","6.684","68.58","-2.763","0.0"],
    [1394261,"2026-01-11 01:50:00","31841","3.012","304.9","4.377","304.4","1020.7360000000001","6.76","68.71","-2.158","0.0"],
    [1394262,"2026-01-11 02:00:00","31842","2.3609999999999998","300.6","3.528","306.6","1020.807","6.622000000000001","69.46","-2.14","0.0"],
    [1394263,"2026-01-11 02:10:00","31843","1.702","298.8","2.548","298","1020.952","6.462999999999999","70.13","-2.202","0.0"],
    [1394264,"2026-01-11 02:20:00","31844","1.911","302.2","2.973","306","1021.133","6.574","70.12","-2.477","0.0"],
    [1394265,"2026-01-11 02:30:00","31845","2.248","309.4","3.528","319.3","1021.15","7.223","67.38","-2.371","0.0"],
    [1394266,"2026-01-11 02:40:00","31846","2.398","305.2","3.332","308.7","1021.2139999999999","7.108","66.54","-2.352","0.0"],
    [1394267,"2026-01-11 02:50:00","31847","3.065","317.9","4.606","317.9","1021.297","7.561","63.6","-2.6630000000000003","0.0"],
    [1394268,"2026-01-11 03:00:00","31848","2.7769999999999997","315.5","3.92","318.3","1021.3760000000001","7.938","61.25","-2.188","0.0"],
    [1394269,"2026-01-11 03:10:00","31849","2.4330000000000003","311.5","3.332","304.9","1021.422","7.66","62.07","-2.2680000000000002","0.0"],
    [1394270,"2026-01-11 03:20:00","31850","2.315","301.9","3.561","307","1021.4989999999999","7.51","62.07","-2.551","0.0"],
    [1394271,"2026-01-11 03:30:00","31851","2.9160000000000004","302.5","4.051","307.7","1021.46","7.468999999999999","61.89","-2.506","0.0"],
    [1394272,"2026-01-11 03:40:00","31852","3.46","305.0","5.39","305.3","1021.5319999999999","7.388","62.13","-2.33","0.0"],
    [1394273,"2026-01-11 03:50:00","31853","3.977","306.9","6.174","314","1021.472","7.398","62.56","-2.1319999999999997","0.0"],
    [1394274,"2026-01-11 04:00:00","31854","2.9989999999999997","307.0","5.129","301.4","1021.488","7.354","63.06","-2.08","0.0"],
    [1394275,"2026-01-11 04:10:00","31855","2.9730000000000003","303.9","4.573","314.4","1021.525","7.337000000000001","63.5","-2.3","0.0"],
    [1394276,"2026-01-11 04:20:00","31856","3.0189999999999997","301.2","4.835","303.2","1021.592","7.3870000000000005","63.12","-2.161","0.0"],
    [1394277,"2026-01-11 04:30:00","31857","2.998","305.1","5.227","316.4","1021.595","7.115","64.53","-2.365","0.0"],
    [1394278,"2026-01-11 04:40:00","31858","2.8810000000000002","302.9","4.867","304","1021.6060000000001","7.196000000000001","63.96","-2.149","0.0"],
    [1394279,"2026-01-11 04:50:00","31859","3.037","306.8","5.194","321.5","1021.6460000000001","7.268","63.15","-2.595","0.0"],
    [1394280,"2026-01-11 05:00:00","31860","2.911","302.5","5.129","317.4","1021.7760000000001","7.364","62.02","-2.457","0.0"],
    [1394281,"2026-01-11 05:10:00","31861","2.852","297.9","4.279","295.4","1021.9639999999999","7.065","63.57","-2.573","0.0"],
    [1394282,"2026-01-11 05:20:00","31862","2.7439999999999998","298.4","4.247","296.1","1022.0110000000001","6.827999999999999","65.46","-2.6319999999999997","0.0"],
    [1394283,"2026-01-11 05:30:00","31863","2.758","292.5","4.606","301","1022.012","6.716","66.51","-2.7539999999999996","0.0"],
    [1394284,"2026-01-11 05:40:00","31864","3.1830000000000003","300.2","4.671","292.1","1022.096","6.749","67.03","-2.577","0.0"],
    [1394285,"2026-01-11 05:50:00","31865","3.215","300.6","5.096","308.4","1022.227","6.656000000000001","68.25","-2.687","0.0"],
    [1394286,"2026-01-11 06:00:00","31866","3.537","308.7","4.965","317.9","1022.39","6.515","69.63","-2.5860000000000003","0.0"],
    [1394287,"2026-01-11 06:10:00","31867","3.554","307.1","5.815","310.6","1022.54","6.546","69.85","-2.707","0.0"],
    [1394288,"2026-01-11 06:20:00","31868","3.313","307.6","4.737","303.7","1022.613","6.43","70.49","-2.6910000000000003","0.0"],
    [1394289,"2026-01-11 06:30:00","31869","3.358","315.0","5.031","318.6","1022.683","6.593999999999999","70.28","-2.7880000000000003","0.0"],
    [1394290,"2026-01-11 06:40:00","31870","3.375","319.4","5.586","330.2","1022.81","7.045","68.52","-2.843","0.0"],
    [1394291,"2026-01-11 06:50:00","31871","3.8960000000000004","313.6","6.109","307.3","1022.808","7.22","67.87","-2.783","0.0"],
    [1394292,"2026-01-11 07:00:00","31872","3.281","309.4","4.704","320.2","1022.959","7.024","68.7","-2.197","0.0"],
    [1394293,"2026-01-11 07:10:00","31873","3.8989999999999996","314.9","5.521","321.7","1023.084","6.966","69.18","-1.021","0.0"],
    [1394294,"2026-01-11 07:20:00","31874","3.213","304.7","5.521","316.3","1023.1560000000001","6.542000000000001","70.6","1.876","0.0"],
    [1394295,"2026-01-11 07:30:00","31875","3.603","308.8","4.933","304.8","1023.293","6.242000000000001","71.86","5.579","0.0"],
    [1394296,"2026-01-11 07:40:00","31876","3.315","314.6","4.606","311.1","1023.443","6.172999999999999","72.16","10.77","0.0"],
    [1394297,"2026-01-11 07:50:00","31877","2.7769999999999997","323.7","4.573","316.9","1023.592","6.212999999999999","71.99","16.08","0.0"],
    [1394298,"2026-01-11 08:00:00","31878","2.414","308.7","3.757","309.2","1023.592","6.136","72.27","21.31","0.0"],
    [1394299,"2026-01-11 08:10:00","31879","2.532","296.8","3.724","312.4","1023.5880000000001","6.194","72.52","26.45","0.0"],
    [1394300,"2026-01-11 08:20:00","31880","2.603","292.1","4.606","299","1023.592","6.519","71.3","31.41","0.0"],
    [1394301,"2026-01-11 08:30:00","31881","3.2910000000000004","295.9","5.063","294.2","1023.648","6.591","71.12","36.83","0.0"],
    [1394302,"2026-01-11 08:40:00","31882","3.58","300.7","4.933","297.8","1023.622","6.928999999999999","70.07","41.81","0.0"],
    [1394303,"2026-01-11 08:50:00","31883","3.055","298.4","5.488","305.6","1023.665","7.38","68.38","139.9","0.0"],
    [1394304,"2026-01-11 09:00:00","31884","4.266","299.0","6.925","302.6","1023.7919999999999","7.747999999999999","67.01","205.6","0.0"],
    [1394305,"2026-01-11 09:10:00","31885","4.513999999999999","302.9","6.631","304.8","1023.8889999999999","8.08","65.67","238.5","0.0"],
    [1394306,"2026-01-11 09:20:00","31886","4.575","304.6","7.415","296.5","1023.966","8.32","64.75","255.8","0.0"],
    [1394307,"2026-01-11 09:30:00","31887","4.334","301.1","6.501","291.3","1024.106","8.5","64.02","277.4","0.0"],
    [1394308,"2026-01-11 09:40:00","31888","5.008","305.6","8.3","300.8","1024.263","8.77","63.32","305.7","0.0"],
    [1394309,"2026-01-11 09:50:00","31889","5.5760000000000005","306.5","8.36","324.2","1024.4660000000001","8.78","63.21","327.4","0.0"],
    [1394310,"2026-01-11 10:00:00","31890","6.287999999999999","306.3","8.62","301.7","1024.494","8.92","62.24","347.1","0.0"],
    [1394311,"2026-01-11 10:10:00","31891","5.905","305.4","8.36","309.8","1024.393","9.04","61.81","365.5","0.0"],
    [1394312,"2026-01-11 10:20:00","31892","5.375","310.6","7.415","302.7","1024.185","9.41","60.83","383.0","0.0"],
    [1394313,"2026-01-11 10:30:00","31893","4.622","312.4","7.219","319.8","1024.28","9.83","59.62","398.3","0.0"],
    [1394314,"2026-01-11 10:40:00","31894","5.452999999999999","312.6","7.546","309.7","1024.266","10.11","58.64","413.4","0.0"],
    [1394315,"2026-01-11 10:50:00","31895","5.497999999999999","316.0","7.219","309.3","1024.1480000000001","10.29","57.69","426.7","0.0"],
    [1394316,"2026-01-11 11:00:00","31896","5.521","318.1","7.317","323.8","1024.0539999999999","10.57","56.78","436.6","0.0"],
    [1394317,"2026-01-11 11:10:00","31897","5.222","314.3","7.513","317.5","1024.063","10.85","55.23","449.2","0.0"],
    [1394318,"2026-01-11 11:20:00","31898","4.5169999999999995","326.4","7.383","325.3","1024.026","11.06","53.64","449.1","0.0"],
    [1394319,"2026-01-11 11:30:00","31899","3.803","325.2","6.076","326.1","1023.914","11.5","52.91","458.9","0.0"],
    [1394320,"2026-01-11 11:40:00","31900","3.943","323.2","5.978","331","1023.887","11.77","52.4","465.5","0.0"],
    [1394321,"2026-01-11 11:50:00","31901","3.2710000000000004","319.8","5.357","332.6","1023.862","12.03","51.73","461.6","0.0"],
    [1394322,"2026-01-11 12:00:00","31902","3.19","321.3","5.031","334.9","1023.7739999999999","12.48","50.12","469.6","0.0"],
    [1394323,"2026-01-11 12:10:00","31903","3.908","319.7","5.357","312.2","1023.553","12.25","50.12","471.9","0.0"],
    [1394324,"2026-01-11 12:20:00","31904","2.815","315.2","4.933","315.2","1023.577","12.75","49.12","487.5","0.0"],
    [1394325,"2026-01-11 12:30:00","31905","2.285","305.2","4.051","290.4","1023.513","12.85","49.25","450.0","0.0"],
    [1394326,"2026-01-11 12:40:00","31906","1.949","289.9","3.855","286.7","1023.3489999999999","12.97","49.27","453.7","0.0"],
    [1394327,"2026-01-11 12:50:00","31907","1.9880000000000002","231.5","4.214","208","1023.1460000000001","13.17","49.22","483.2","0.0"],
    [1394328,"2026-01-11 13:00:00","31908","1.662","210.1","3.691","204.9","1023.068","13.03","52.65","313.7","0.0"],
    [1394329,"2026-01-11 13:10:00","31909","2.299","202.8","4.9","197.7","1022.931","12.09","56.85","259.2","0.0"],
    [1394330,"2026-01-11 13:20:00","31910","2.721","210.8","4.835","221.5","1022.8330000000001","12.45","56.02","374.0","0.0"],
    [1394331,"2026-01-11 13:30:00","31911","2.571","210.2","4.214","255.6","1022.73","12.41","54.87","354.4","0.0"],
    [1394332,"2026-01-11 13:40:00","31912","2.407","205.3","3.92","182.2","1022.5010000000001","12.48","54.59","350.5","0.0"],
    [1394333,"2026-01-11 13:50:00","31913","2.124","200.0","3.659","161.7","1022.3330000000001","12.54","54.3","358.9","0.0"],
    [1394334,"2026-01-11 14:00:00","31914","1.8980000000000001","193.0","3.789","199.9","1022.2289999999999","12.88","54.56","344.8","0.0"],
    [1394335,"2026-01-11 14:10:00","31915","2.3209999999999997","208.8","4.312","220.5","1022.2819999999999","12.8","53.68","324.8","0.0"],
    [1394336,"2026-01-11 14:20:00","31916","2.0140000000000002","208.3","4.835","200.9","1022.304","12.81","56.03","333.4","0.0"],
    [1394337,"2026-01-11 14:30:00","31917","1.749","190.7","3.789","168.5","1022.308","12.97","56.83","322.9","0.0"],
    [1394338,"2026-01-11 14:40:00","31918","2.069","183.4","4.051","187.1","1022.198","12.54","57.96","297.5","0.0"],
    [1394339,"2026-01-11 14:50:00","31919","1.9409999999999998","199.4","3.691","217.8","1022.2189999999999","12.61","58.4","273.1","0.0"],
    [1394340,"2026-01-11 15:00:00","31920","2.036","202.1","3.659","212.4","1022.377","12.61","58.19","247.3","0.0"],
    [1394341,"2026-01-11 15:10:00","31921","2.32","210.0","5.455","210.5","1022.444","12.68","57.96","225.2","0.0"],
    [1394342,"2026-01-11 15:20:00","31922","2.3409999999999997","202.0","5.717","177.3","1022.539","12.52","58.31","196.3","0.0"],
    [1394343,"2026-01-11 15:30:00","31923","2.174","206.6","4.247","192.2","1022.5419999999999","12.35","58.33","161.7","0.0"],
    [1394344,"2026-01-11 15:40:00","31924","1.673","202.2","4.41","202.4","1022.534","12.43","57.93","137.8","0.0"],
    [1394345,"2026-01-11 15:50:00","31925","1.996","218.6","4.345","227.5","1022.6010000000001","12.18","58.6","115.1","0.0"],
    [1394346,"2026-01-11 16:00:00","31926","2.68","219.5","4.639","194.3","1022.7","11.99","59.72","97.5","0.0"],
    [1394347,"2026-01-11 16:10:00","31927","3.0380000000000003","219.9","4.443","221.1","1022.6360000000001","11.66","61.46","55.03","0.0"],
    [1394348,"2026-01-11 16:20:00","31928","2.156","211.4","3.985","227.3","1022.77","11.42","62.77","22.26","0.0"],
    [1394349,"2026-01-11 16:30:00","31929","2.148","221.8","4.247","212","1022.721","11.28","63.49","14.63","0.0"],
    [1394350,"2026-01-11 16:40:00","31930","2.302","218.9","3.495","209.2","1022.789","11.09","64.32","6.82","0.0"],
    [1394351,"2026-01-11 16:50:00","31931","2.5860000000000003","212.8","4.508","205.9","1022.618","11.12","64.06","1.579","0.0"],
    [1394352,"2026-01-11 17:00:00","31932","2.4130000000000003","210.7","4.835","230.1","1022.633","11.0","64.82","-1.192","0.0"],
    [1394353,"2026-01-11 17:10:00","31933","2.057","212.7","4.704","217.2","1022.7139999999999","10.71","66.56","-2.597","0.0"],
    [1394354,"2026-01-11 17:20:00","31934","3.127","214.3","5.423","186.3","1022.735","10.85","66.77","-2.7889999999999997","0.0"],
    [1394355,"2026-01-11 17:30:00","31935","2.56","205.4","6.141","180.9","1022.698","10.67","67.52","-2.995","0.0"],
    [1394356,"2026-01-11 17:40:00","31936","2.89","217.5","5.357","200.5","1022.812","10.8","66.34","-2.759","0.0"],
    [1394357,"2026-01-11 17:50:00","31937","1.966","230.1","2.973","216","1023.0310000000001","10.49","66.43","-2.762","0.0"],
    [1394358,"2026-01-11 18:00:00","31938","1.874","234.0","3.332","217.5","1022.916","10.5","64.75","-2.765","0.0"],
    [1394359,"2026-01-11 18:10:00","31939","1.324","232.9","2.385","223.4","1023.039","10.12","66.42","-2.761","0.0"],
    [1394360,"2026-01-11 18:20:00","31940","1.2209999999999999","236.9","2.352","252.4","1023.125","9.63","69.43","-2.772","0.0"],
    [1394361,"2026-01-11 18:30:00","31941","0.89","250.7","1.666","280.7","1023.334","9.3","71.31","-2.765","0.0"],
    [1394362,"2026-01-11 18:40:00","31942","0.9129999999999999","261.9","1.862","247.5","1023.455","8.64","74.29","-2.985","0.0"],
    [1394363,"2026-01-11 18:50:00","31943","1.0190000000000001","264.8","1.731","269","1023.485","8.32","76.03","-2.8280000000000003","0.0"],
    [1394364,"2026-01-11 19:00:00","31944","0.878","247.8","1.829","222.5","1023.547","8.27","77.28","-2.812","0.0"],
    [1394365,"2026-01-11 19:10:00","31945","0.9009999999999999","268.1","2.025","255.5","1023.576","8.28","76.17","-2.822","0.0"],
    [1394366,"2026-01-11 19:20:00","31946","1.1179999999999999","237.0","1.601","236.2","1023.632","8.61","75.43","-2.819","0.0"],
    [1394367,"2026-01-11 19:30:00","31947","0.46799999999999997","223.2","1.209","221.8","1023.6460000000001","8.64","74.16","-2.787","0.0"],
    [1394368,"2026-01-11 19:40:00","31948","0.003","242.5","0.098","241.4","1023.552","8.46","74.47","-2.785","0.0"],
    [1394369,"2026-01-11 19:50:00","31949","0.0","276.5","0.033","276.5","1023.444","7.76","77.57","-2.784","0.0"],
    [1394370,"2026-01-11 20:00:00","31950","0.0","0.0","0","0","1023.332","7.685","79.05","-2.7880000000000003","0.0"],
    [1394371,"2026-01-11 20:10:00","31951","0.009000000000000001","243.7","0.261","231.6","1023.308","7.791","77.88","-2.7739999999999996","0.0"],
    [1394372,"2026-01-11 20:20:00","31952","0.11699999999999999","234.0","0.588","231.8","1023.329","7.245","79.43","-2.7889999999999997","0.0"],
    [1394373,"2026-01-11 20:30:00","31953","0.28","267.3","0.751","278.6","1023.387","6.815","81.5","-2.79","0.0"],
    [1394374,"2026-01-11 20:40:00","31954","0.612","246.7","1.143","264.8","1023.4639999999999","6.518","82.4","-2.7880000000000003","0.0"],
    [1394375,"2026-01-11 20:50:00","31955","0.737","264.8","1.143","261.1","1023.554","6.615","82.3","-2.74","0.0"],
    [1394376,"2026-01-11 21:00:00","31956","0.851","262.7","1.339","260.4","1023.5310000000001","7.224","80.2","-2.5980000000000003","0.0"],
    [1394377,"2026-01-11 21:10:00","31957","1.052","265.7","1.895","267.9","1023.551","7.15","79.21","-2.574","0.0"],
    [1394378,"2026-01-11 21:20:00","31958","1.037","280.3","1.601","278.6","1023.6110000000001","6.8","79.8","-2.556","0.0"],
    [1394379,"2026-01-11 21:30:00","31959","1.111","284.0","1.503","282.8","1023.577","6.52","81.0","-2.695","0.0"],
    [1394380,"2026-01-11 21:40:00","31960","0.42200000000000004","275.9","1.307","265.1","1023.558","6.419","81.9","-2.613","0.0"],
    [1394381,"2026-01-11 21:50:00","31961","1.162","279.3","1.829","281","1023.546","6.3839999999999995","81.6","-2.484","0.0"],
    [1394382,"2026-01-11 22:00:00","31962","1.057","276.8","1.993","300.3","1023.518","6.13","82.4","-2.262","0.0"],
    [1394383,"2026-01-11 22:10:00","31963","0.8240000000000001","283.5","1.862","272.5","1023.447","5.985","83.1","-2.385","0.0"],
    [1394384,"2026-01-11 22:20:00","31964","1.321","288.1","2.417","298.7","1023.3810000000001","5.895","82.9","-2.124","0.0"],
    [1394385,"2026-01-11 22:30:00","31965","1.482","283.9","2.809","270.6","1023.453","6.194","81.5","-2.386","0.0"],
    [1394386,"2026-01-11 22:40:00","31966","1.4269999999999998","284.0","2.45","273.5","1023.462","6.635","78.37","-2.164","0.0"],
    [1394387,"2026-01-11 22:50:00","31967","1.03","281.6","1.731","294.3","1023.457","6.687","77.45","-2.096","0.0"],
    [1394388,"2026-01-11 23:00:00","31968","1.137","281.4","1.993","284.7","1023.357","6.559","77.84","-2.182","0.0"],
    [1394389,"2026-01-11 23:10:00","31969","0.836","275.0","1.895","268.4","1023.4019999999999","6.529","77.75","-2.273","0.0"],
    [1394390,"2026-01-11 23:20:00","31970","1.136","271.3","1.764","276","1023.334","6.718999999999999","76.94","-2.491","0.0"],
    [1394391,"2026-01-11 23:30:00","31971","1.344","280.3","2.45","274","1023.3489999999999","6.74","76.28","-2.1519999999999997","0.0"],
    [1394392,"2026-01-11 23:40:00","31972","1.4","275.7","2.417","273.8","1023.2230000000001","6.647","76.48","-2.214","0.0"],
    [1394393,"2026-01-11 23:50:00","31973","1.216","277.8","2.221","273.1","1023.255","6.401","77.62","-2.145","0.0"],
    [1394394,"2026-01-12 00:00:00","31974","1.247","266.3","2.156","266.4","1023.216","6.257999999999999","78.69","-2.22","0.0"],
    [1394395,"2026-01-12 00:10:00","31975","1.604","281.7","2.45","274.4","1023.186","6.2589999999999995","78.4","-2.0709999999999997","0.0"],
    [1394396,"2026-01-12 00:20:00","31976","1.6909999999999998","290.8","2.548","293.8","1023.182","5.917000000000001","79.76","-2.0340000000000003","0.0"],
    [1394397,"2026-01-12 00:30:00","31977","1.63","284.0","3.463","283","1023.183","5.919","80.2","-2.059","0.0"],
    [1394398,"2026-01-12 00:40:00","31978","1.49","280.0","2.548","292.8","1023.1039999999999","6.162999999999999","78.57","-2.075","0.0"],
    [1394399,"2026-01-12 00:50:00","31979","1.507","282.8","2.679","289.4","1023.008","6.202999999999999","77.82","-2.374","0.0"],
    [1394400,"2026-01-12 01:00:00","31980","1.535","281.4","3.038","272.6","1022.929","6.3260000000000005","76.94","-2.397","0.0"],
    [1394401,"2026-01-12 01:10:00","31981","1.765","282.1","2.744","293.1","1022.873","6.162999999999999","77.05","-2.27","0.0"],
    [1394402,"2026-01-12 01:20:00","31982","1.59","282.6","2.613","270.8","1022.783","6.522","74.8","-2.398","0.0"],
    [1394403,"2026-01-12 01:30:00","31983","1.5219999999999998","269.4","2.777","249.4","1022.7410000000001","6.21","75.67","-2.089","0.0"],
    [1394404,"2026-01-12 01:40:00","31984","1.989","281.4","3.169","264.9","1022.796","6.031000000000001","76.57","-2.033","0.0"],
    [1394405,"2026-01-12 01:50:00","31985","1.585","286.6","2.777","298.4","1022.98","5.8260000000000005","77.5","-1.9169999999999998","0.0"],
    [1394406,"2026-01-12 02:00:00","31986","1.396","286.9","2.319","282","1023.07","5.904","77.17","-1.876","0.0"],
    [1394407,"2026-01-12 02:10:00","31987","1.071","266.4","2.254","279.4","1022.928","6.062","76.8","-2.0380000000000003","0.0"],
    [1394408,"2026-01-12 02:20:00","31988","1.341","266.9","2.45","286.5","1023.02","6.473","74.76","-2.036","0.0"],
    [1394409,"2026-01-12 02:30:00","31989","1.274","257.2","2.515","264.2","1022.948","6.727","73.63","-2.012","0.0"],
    [1394410,"2026-01-12 02:40:00","31990","1.3619999999999999","267.3","2.613","237.2","1022.789","6.602","73.7","-1.8259999999999998","0.0"],
    [1394411,"2026-01-12 02:50:00","31991","1.163","265.3","2.287","285.6","1022.6260000000001","6.2010000000000005","75.26","-1.945","0.0"],
    [1394412,"2026-01-12 03:00:00","31992","1.246","268.6","2.254","269.1","1022.561","6.312","75.07","-2.072","0.0"],
    [1394413,"2026-01-12 03:10:00","31993","1.035","271.4","1.96","266.5","1022.5219999999999","6.3629999999999995","74.42","-2.171","0.0"],
    [1394414,"2026-01-12 03:20:00","31994","1.446","260.9","2.679","278.5","1022.5889999999999","6.437","73.87","-2.313","0.0"],
    [1394415,"2026-01-12 03:30:00","31995","1.703","272.1","2.907","270.3","1022.515","6.522","73.31","-2.261","0.0"],
    [1394416,"2026-01-12 03:40:00","31996","1.754","268.1","2.809","293.6","1022.4010000000001","6.73","72.05","-2.367","0.0"],
    [1394417,"2026-01-12 03:50:00","31997","1.505","268.1","3.038","270.5","1022.115","6.641","72.12","-2.1390000000000002","0.0"],
    [1394418,"2026-01-12 04:00:00","31998","2.131","278.9","3.463","263.9","1022.007","6.416","72.73","-2.0580000000000003","0.0"],
    [1394419,"2026-01-12 04:10:00","31999","1.75","272.1","3.234","291.5","1021.875","6.0089999999999995","74.19","-2.024","0.0"],
    [1394420,"2026-01-12 04:20:00","32000","2.157","275.5","3.822","285.2","1021.847","5.787000000000001","75.01","-1.935","0.0"],
    [1394421,"2026-01-12 04:30:00","32001","1.84","269.6","3.299","251.9","1021.8530000000001","5.756","75.37","-2.013","0.0"],
    [1394422,"2026-01-12 04:40:00","32002","1.56","263.8","2.809","250.5","1021.829","5.846","75.07","-2.046","0.0"],
    [1394423,"2026-01-12 04:50:00","32003","1.4069999999999998","268.8","2.973","300.5","1021.9019999999999","5.94","74.41","-2.041","0.0"],
    [1394424,"2026-01-12 05:00:00","32004","1.294","258.3","2.711","283.4","1021.846","6.053","73.94","-2.045","0.0"],
    [1394425,"2026-01-12 05:10:00","32005","1.351","258.4","2.646","284.6","1021.957","6.225","73.18","-2.066","0.0"],
    [1394426,"2026-01-12 05:20:00","32006","1.254","248.9","2.091","219.1","1021.953","6.3260000000000005","72.5","-2.0669999999999997","0.0"],
    [1394427,"2026-01-12 05:30:00","32007","0.675","263.8","1.993","255.9","1021.925","6.183","72.74","-2.043","0.0"],
    [1394428,"2026-01-12 05:40:00","32008","1.081","254.7","1.927","237.3","1021.893","6.114","73.26","-2.115","0.0"],
    [1394429,"2026-01-12 05:50:00","32009","1.183","247.7","1.993","262.8","1021.9169999999999","6.215","72.8","-2.0669999999999997","0.0"],
    [1394430,"2026-01-12 06:00:00","32010","1.492","271.3","2.385","285.7","1021.975","6.1160000000000005","73.03","-2.069","0.0"],
    [1394431,"2026-01-12 06:10:00","32011","1.6569999999999998","276.8","3.071","291.4","1021.86","5.946000000000001","74.04","-2.0669999999999997","0.0"],
    [1394432,"2026-01-12 06:20:00","32012","1.598","267.4","3.201","285.1","1021.8969999999999","5.999","73.91","-2.064","0.0"],
    [1394433,"2026-01-12 06:30:00","32013","2.083","278.7","3.495","266.6","1021.887","5.825","74.3","-2.02","0.0"],
    [1394434,"2026-01-12 06:40:00","32014","1.974","273.1","4.051","302.8","1021.8989999999999","5.5489999999999995","75.78","-1.9080000000000001","0.0"],
    [1394435,"2026-01-12 06:50:00","32015","1.841","266.2","3.234","272.8","1021.955","5.53","75.93","-2.01","0.0"],
    [1394436,"2026-01-12 07:00:00","32016","2.461","279.6","4.149","301.2","1021.8939999999999","5.687","75.16","-1.839","0.0"],
    [1394437,"2026-01-12 07:10:00","32017","2.256","277.9","4.475","281.4","1021.921","6.047000000000001","73.69","-1.163","0.0"],
    [1394438,"2026-01-12 07:20:00","32018","2.44","277.3","3.626","288.7","1021.9169999999999","6.122000000000001","73.05","0.8440000000000001","0.0"],
    [1394439,"2026-01-12 07:30:00","32019","2.129","275.7","3.561","272.9","1021.94","6.222","72.08","6.787000000000001","0.0"],
    [1394440,"2026-01-12 07:40:00","32020","2.008","273.8","3.397","270.3","1021.955","6.301","71.83","17.27","0.0"],
    [1394441,"2026-01-12 07:50:00","32021","1.875","267.3","3.365","268.4","1021.909","6.41","71.62","28.18","0.0"],
    [1394442,"2026-01-12 08:00:00","32022","1.72","263.1","3.103","280.3","1021.975","6.646","70.46","38.22","0.0"],
    [1394443,"2026-01-12 08:10:00","32023","1.683","266.6","3.365","280","1022.0360000000001","6.742999999999999","70.06","47.47","0.0"],
    [1394444,"2026-01-12 08:20:00","32024","1.31","244.6","2.45","259","1022.0989999999999","6.792999999999999","69.94","55.14","0.0"],
    [1394445,"2026-01-12 08:30:00","32025","1.554","250.1","3.169","271.5","1022.137","7.147","68.65","64.0","0.0"],
    [1394446,"2026-01-12 08:40:00","32026","2.3369999999999997","267.5","4.508","276.1","1022.184","7.417000000000001","67.74","77.14","0.0"],
    [1394447,"2026-01-12 08:50:00","32027","1.868","276.1","3.038","276.4","1022.2710000000001","7.609","67.41","137.6","0.0"],
    [1394448,"2026-01-12 09:00:00","32028","1.548","284.0","2.352","291","1022.327","8.12","66.38","195.9","0.0"],
    [1394449,"2026-01-12 09:10:00","32029","2.244","281.3","3.561","288.3","1022.294","8.46","65.13","180.3","0.0"],
    [1394450,"2026-01-12 09:20:00","32030","1.855","267.1","3.397","265.3","1022.345","8.59","64.74","169.9","0.0"],
    [1394451,"2026-01-12 09:30:00","32031","1.796","283.3","3.136","290.7","1022.279","8.89","64.42","246.3","0.0"],
    [1394452,"2026-01-12 09:40:00","32032","2.737","287.7","3.953","295.4","1022.182","9.11","63.23","219.3","0.0"],
    [1394453,"2026-01-12 09:50:00","32033","1.9169999999999998","289.9","3.267","294.1","1022.188","9.62","62.7","288.0","0.0"],
    [1394454,"2026-01-12 10:00:00","32034","2.451","286.7","3.822","286.3","1022.177","10.41","60.31","357.5","0.0"],
    [1394455,"2026-01-12 10:10:00","32035","2.717","280.4","3.985","279.9","1022.1389999999999","10.8","59.45","324.7","0.0"],
    [1394456,"2026-01-12 10:20:00","32036","2.801","282.9","4.149","289.6","1022.0419999999999","11.25","59.07","320.0","0.0"],
    [1394457,"2026-01-12 10:30:00","32037","2.9360000000000004","278.2","4.149","280.2","1021.97","11.1","59.86","212.9","0.0"],
    [1394458,"2026-01-12 10:40:00","32038","1.976","270.7","3.267","286.2","1021.987","11.03","59.72","243.6","0.0"],
    [1394459,"2026-01-12 10:50:00","32039","1.795","269.4","3.332","251.6","1021.878","11.2","60.05","251.2","0.0"],
    [1394460,"2026-01-12 11:00:00","32040","1.5759999999999998","264.8","2.809","299","1021.803","11.31","60.66","243.4","0.0"],
    [1394461,"2026-01-12 11:10:00","32041","1.736","274.5","3.201","288.6","1021.655","11.63","60.73","290.3","0.0"],
    [1394462,"2026-01-12 11:20:00","32042","2.097","288.5","3.169","292.4","1021.52","12.03","59.94","324.7","0.0"],
    [1394463,"2026-01-12 11:30:00","32043","1.09","254.0","2.287","271","1021.313","12.66","59.07","406.7","0.0"],
    [1394464,"2026-01-12 11:40:00","32044","1.138","267.8","2.189","288.5","1021.1060000000001","13.34","57.74","381.2","0.0"],
    [1394465,"2026-01-12 11:50:00","32045","1.3980000000000001","264.3","2.711","285.2","1020.948","13.73","58.3","325.0","0.0"],
    [1394466,"2026-01-12 12:00:00","32046","2.314","233.7","6.925","208","1020.7230000000001","14.08","61.36","305.0","0.0"],
    [1394467,"2026-01-12 12:10:00","32047","2.647","236.5","5.455","276.7","1020.4860000000001","14.49","64.5","288.3","0.0"],
    [1394468,"2026-01-12 12:20:00","32048","2.52","226.9","4.933","208.9","1020.393","14.55","63.05","308.0","0.0"],
    [1394469,"2026-01-12 12:30:00","32049","3.034","229.0","7.317","210","1020.307","14.63","63.25","283.3","0.0"],
    [1394470,"2026-01-12 12:40:00","32050","3.0380000000000003","231.4","5.717","239.8","1020.21","14.58","62.53","286.2","0.0"],
    [1394471,"2026-01-12 12:50:00","32051","2.5069999999999997","230.3","4.41","224.6","1020.069","14.6","60.64","310.0","0.0"],
    [1394472,"2026-01-12 13:00:00","32052","2.127","231.9","3.365","209.7","1019.966","14.94","60.17","345.7","0.0"],
    [1394473,"2026-01-12 13:10:00","32053","3.352","223.9","6.599","215.4","1019.832","15.22","62.2","345.3","0.0"],
    [1394474,"2026-01-12 13:20:00","32054","4.516","223.1","7.154","238.7","1019.76","15.11","65.87","361.3","0.0"],
    [1394475,"2026-01-12 13:30:00","32055","5.187","225.3","8.1","217.8","1019.699","15.01","70.55","371.0","0.0"],
    [1394476,"2026-01-12 13:40:00","32056","5.343999999999999","226.8","8.79","217.8","1019.6410000000001","14.94","70.74","391.1","0.0"],
    [1394477,"2026-01-12 13:50:00","32057","5.11","222.0","7.579","199.6","1019.5060000000001","15.04","71.48","382.8","0.0"],
    [1394478,"2026-01-12 14:00:00","32058","4.7139999999999995","224.5","7.415","224.3","1019.444","15.09","70.91","364.8","0.0"],
    [1394479,"2026-01-12 14:10:00","32059","5.502999999999999","220.5","7.938","215","1019.383","14.91","71.66","341.1","0.0"],
    [1394480,"2026-01-12 14:20:00","32060","5.521","220.3","8.62","224.3","1019.3789999999999","14.72","72.46","284.0","0.0"],
    [1394481,"2026-01-12 14:30:00","32061","4.729","216.0","7.415","215.3","1019.3589999999999","14.55","74.09","242.6","0.0"],
    [1394482,"2026-01-12 14:40:00","32062","4.355","214.6","7.579","226.1","1019.317","14.54","74.78","238.6","0.0"],
    [1394483,"2026-01-12 14:50:00","32063","4.2780000000000005","213.8","6.664","229.7","1019.278","14.35","76.4","218.6","0.0"],
    [1394484,"2026-01-12 15:00:00","32064","4.71","212.5","6.631","209.2","1019.2189999999999","14.3","77.07","244.8","0.0"],
    [1394485,"2026-01-12 15:10:00","32065","4.763","214.7","7.056","203.8","1019.201","14.27","77.89","229.7","0.0"],
    [1394486,"2026-01-12 15:20:00","32066","5.397","214.6","7.742","212.6","1019.201","14.2","78.64","226.5","0.0"],
    [1394487,"2026-01-12 15:30:00","32067","5.5089999999999995","215.0","8.04","225.2","1019.2360000000001","14.03","79.67","164.2","0.0"],
    [1394488,"2026-01-12 15:40:00","32068","4.249","217.4","6.991","222.4","1019.16","13.84","81.0","122.7","0.0"],
    [1394489,"2026-01-12 15:50:00","32069","4.313","217.2","6.566","229.6","1019.0880000000001","13.69","81.7","93.4","0.0"],
    [1394490,"2026-01-12 16:00:00","32070","4.25","216.5","6.958","207.3","1019.11","13.53","82.9","70.64","0.0"],
    [1394491,"2026-01-12 16:10:00","32071","4.945","219.2","8.92","222.8","1019.052","13.43","83.7","58.92","0.0"],
    [1394492,"2026-01-12 16:20:00","32072","5.438","221.6","9.15","218.7","1019.04","13.37","83.4","35.91","0.0"],
    [1394493,"2026-01-12 16:30:00","32073","4.937","225.4","7.611","231.5","1019.0089999999999","13.28","83.1","19.91","0.0"],
    [1394494,"2026-01-12 16:40:00","32074","4.97","223.6","7.383","223.1","1018.936","13.17","83.7","7.96","0.0"],
    [1394495,"2026-01-12 16:50:00","32075","5.095","220.9","7.121","217.7","1018.952","13.1","83.4","1.271","0.0"],
    [1394496,"2026-01-12 17:00:00","32076","4.828","223.6","6.631","224.3","1019.0369999999999","13.08","82.7","-0.927","0.0"],
    [1394497,"2026-01-12 17:10:00","32077","4.1610000000000005","225.4","6.795","222.5","1019.081","13.04","82.6","-1.6469999999999998","0.0"],
    [1394498,"2026-01-12 17:20:00","32078","4.079","224.8","6.631","223.5","1019.113","12.99","82.8","-2.149","0.0"],
    [1394499,"2026-01-12 17:30:00","32079","3.428","226.8","5.096","227.1","1019.1189999999999","12.91","82.9","-2.2880000000000003","0.0"],
    [1394500,"2026-01-12 17:40:00","32080","3.273","227.6","5.39","227.7","1019.207","12.92","82.6","-2.521","0.0"],
    [1394501,"2026-01-12 17:50:00","32081","1.9409999999999998","228.8","3.691","219.5","1019.2919999999999","12.6","83.2","-2.387","0.0"],
    [1394502,"2026-01-12 18:00:00","32082","1.464","237.6","2.646","229.9","1019.3330000000001","12.27","84.3","-2.7569999999999997","0.0"],
    [1394503,"2026-01-12 18:10:00","32083","1.051","239.0","1.96","236.5","1019.3","12.08","84.9","-2.761","0.0"],
    [1394504,"2026-01-12 18:20:00","32084","1.082","235.1","1.993","235.1","1019.324","11.84","85.5","-2.761","0.0"],
    [1394505,"2026-01-12 18:30:00","32085","1.133","233.4","2.189","214.3","1019.341","11.8","85.5","-2.761","0.0"],
    [1394506,"2026-01-12 18:40:00","32086","1.1340000000000001","234.2","2.385","242.5","1019.41","11.77","85.2","-2.761","0.0"],
    [1394507,"2026-01-12 18:50:00","32087","0.898","231.0","2.189","237.7","1019.4730000000001","11.64","85.7","-2.761","0.0"],
    [1394508,"2026-01-12 19:00:00","32088","1.042","236.3","2.385","245.5","1019.459","11.51","86.1","-2.761","0.0"],
    [1394509,"2026-01-12 19:10:00","32089","1.034","234.0","1.731","261.4","1019.454","11.4","86.5","-2.761","0.0"],
    [1394510,"2026-01-12 19:20:00","32090","0.9570000000000001","240.3","1.829","234.1","1019.46","11.37","86.7","-2.761","0.0"],
    [1394511,"2026-01-12 19:30:00","32091","0.528","246.7","1.078","246.4","1019.485","11.16","86.8","-2.761","0.0"],
    [1394512,"2026-01-12 19:40:00","32092","0.529","248.1","1.078","241.3","1019.529","10.55","88.1","-2.766","0.0"],
    [1394513,"2026-01-12 19:50:00","32093","0.833","244.2","1.601","246.1","1019.546","10.46","89.9","-2.762","0.0"],
    [1394514,"2026-01-12 20:00:00","32094","0.9690000000000001","246.0","1.503","238.7","1019.461","10.76","89.6","-2.7289999999999996","0.0"],
    [1394515,"2026-01-12 20:10:00","32095","0.335","268.3","1.013","263.6","1019.3939999999999","10.12","88.8","-2.6660000000000004","0.0"],
    [1394516,"2026-01-12 20:20:00","32096","0.456","264.4","0.751","254.1","1019.398","9.9","91.0","-2.753","0.0"],
    [1394517,"2026-01-12 20:30:00","32097","0.153","269.0","0.653","266","1019.418","9.74","91.1","-2.74","0.0"],
    [1394518,"2026-01-12 20:40:00","32098","0.003","262.0","0.098","262","1019.372","9.48","91.7","-2.673","0.0"],
    [1394519,"2026-01-12 20:50:00","32099","0.047","270.4","0.784","270.5","1019.323","9.18","91.6","-2.6489999999999996","0.0"],
    [1394520,"2026-01-12 21:00:00","32100","0.6970000000000001","270.3","1.013","270.6","1019.305","8.79","91.8","-2.715","0.0"],
    [1394521,"2026-01-12 21:10:00","32101","1.246","285.6","1.601","282.8","1019.28","8.79","92.0","-2.7739999999999996","0.0"],
    [1394522,"2026-01-12 21:20:00","32102","1.305","286.3","1.601","281.1","1019.2919999999999","8.75","91.1","-2.773","0.0"],
    [1394523,"2026-01-12 21:30:00","32103","1.469","286.0","1.797","285.5","1019.227","8.56","90.3","-2.29","0.0"],
    [1394524,"2026-01-12 21:40:00","32104","1.114","284.1","1.535","287.1","1019.1360000000001","8.42","89.8","-2.476","0.0"],
    [1394525,"2026-01-12 21:50:00","32105","0.871","273.7","1.372","280.6","1019.1439999999999","8.56","89.6","-2.45","0.0"],
    [1394526,"2026-01-12 22:00:00","32106","1.4040000000000001","281.0","1.927","279.2","1019.1439999999999","8.63","89.1","-1.288","0.0"],
    [1394527,"2026-01-12 22:10:00","32107","1.216","287.9","1.895","279.7","1019.107","8.46","88.8","-1.77","0.0"],
    [1394528,"2026-01-12 22:20:00","32108","0.823","273.0","1.633","262.5","1019.127","8.54","89.5","-1.347","0.0"],
    [1394529,"2026-01-12 22:30:00","32109","0.698","266.5","1.405","275.9","1019.169","9.12","88.1","-1.27","0.0"],
    [1394530,"2026-01-12 22:40:00","32110","1.08","269.1","1.568","269.6","1019.163","9.43","86.6","-1.272","0.0"],
    [1394531,"2026-01-12 22:50:00","32111","1.153","274.1","1.568","267.3","1019.188","9.49","85.3","-1.285","0.0"],
    [1394532,"2026-01-12 23:00:00","32112","0.9470000000000001","271.2","1.568","264.4","1019.169","9.5","85.0","-1.287","0.0"],
    [1394533,"2026-01-12 23:10:00","32113","1.202","278.1","2.058","269.1","1019.17","9.56","85.2","-1.286","0.0"],
    [1394534,"2026-01-12 23:20:00","32114","1.037","272.5","1.96","265.7","1019.0939999999999","9.46","86.2","-1.272","0.0"],
    [1394535,"2026-01-12 23:30:00","32115","0.261","275.1","1.437","271.6","1019.008","9.54","86.2","-1.139","0.0"],
    [1394536,"2026-01-12 23:40:00","32116","0.736","290.4","1.699","292.8","1018.959","9.4","86.7","-0.6609999999999999","0.0"],
    [1394537,"2026-01-12 23:50:00","32117","0.68","279.2","1.437","259.4","1018.8939999999999","9.29","87.4","-0.986","0.0"],
    [1394538,"2026-01-13 00:00:00","32118","1.18","290.3","1.503","290","1018.785","9.15","87.7","-0.53","0.0"],
    [1394539,"2026-01-13 00:10:00","32119","1.2919999999999998","289.7","1.764","291.1","1018.694","9.03","88.5","-0.5329999999999999","0.0"],
    [1394540,"2026-01-13 00:20:00","32120","1.42","277.7","2.058","281.9","1018.592","9.13","88.3","-0.5479999999999999","0.0"],
    [1394541,"2026-01-13 00:30:00","32121","1.419","280.8","2.123","281.9","1018.46","9.24","87.2","-0.522","0.0"],
    [1394542,"2026-01-13 00:40:00","32122","1.188","279.9","2.123","281.4","1018.425","9.23","87.3","-0.446","0.0"],
    [1394543,"2026-01-13 00:50:00","32123","1.056","265.7","1.797","283.9","1018.3839999999999","9.43","87.0","-0.504","0.0"],
    [1394544,"2026-01-13 01:00:00","32124","1.614","288.3","2.091","285.8","1018.253","9.44","86.6","-0.429","0.0"],
    [1394545,"2026-01-13 01:10:00","32125","1.401","289.0","1.895","291.1","1018.194","9.34","87.3","-0.513","0.0"],
    [1394546,"2026-01-13 01:20:00","32126","1.7080000000000002","274.0","2.254","273.5","1018.1419999999999","9.34","87.1","-0.526","0.0"],
    [1394547,"2026-01-13 01:30:00","32127","1.314","282.8","1.797","274.7","1018.085","9.26","87.0","-0.621","0.0"],
    [1394548,"2026-01-13 01:40:00","32128","1.341","279.8","1.993","273.5","1018.013","9.18","87.3","-0.866","0.0"],
    [1394549,"2026-01-13 01:50:00","32129","0.976","264.0","1.666","279.1","1017.9839999999999","9.24","87.0","-0.624","0.0"],
    [1394550,"2026-01-13 02:00:00","32130","1.505","280.6","2.123","275","1018.0","9.26","86.3","-0.526","0.0"],
    [1394551,"2026-01-13 02:10:00","32131","1.716","278.7","2.319","278.7","1017.893","9.1","86.5","-0.527","0.0"],
    [1394552,"2026-01-13 02:20:00","32132","1.46","276.9","1.829","278.7","1017.7760000000001","9.08","86.2","-0.546","0.0"],
    [1394553,"2026-01-13 02:30:00","32133","1.544","282.5","2.287","290","1017.711","9.08","85.9","-0.586","0.0"],
    [1394554,"2026-01-13 02:40:00","32134","1.6880000000000002","281.7","2.221","275.4","1017.548","9.06","85.5","-1.051","0.0"],
    [1394555,"2026-01-13 02:50:00","32135","1.8519999999999999","277.2","2.221","276.9","1017.443","9.14","84.9","-1.087","0.0"],
    [1394556,"2026-01-13 03:00:00","32136","1.985","274.1","2.417","260.1","1017.3760000000001","9.09","84.7","-0.691","0.0"],
    [1394557,"2026-01-13 03:10:00","32137","1.579","282.4","2.711","288.7","1017.29","9.09","84.5","-0.705","0.0"],
    [1394558,"2026-01-13 03:20:00","32138","1.6869999999999998","277.2","2.385","272.4","1017.212","9.16","84.1","-0.5379999999999999","0.0"],
    [1394559,"2026-01-13 03:30:00","32139","1.9680000000000002","277.3","2.352","274.7","1017.113","9.18","83.5","-0.47200000000000003","0.0"],
    [1394560,"2026-01-13 03:40:00","32140","1.67","281.0","2.091","281.8","1017.002","9.06","83.7","-0.504","0.0"],
    [1394561,"2026-01-13 03:50:00","32141","1.7480000000000002","279.3","2.385","283","1017.012","9.03","83.6","-0.4","0.0"],
    [1394562,"2026-01-13 04:00:00","32142","1.808","285.8","2.613","283.3","1017.0169999999999","9.0","83.7","-0.331","0.0"],
    [1394563,"2026-01-13 04:10:00","32143","1.666","281.3","2.287","274.3","1016.954","9.04","83.5","-0.131","0.0"],
    [1394564,"2026-01-13 04:20:00","32144","1.922","278.9","2.581","274.9","1016.962","9.0","83.4","-0.109","0.0"],
    [1394565,"2026-01-13 04:30:00","32145","1.777","285.1","2.221","282.9","1016.9730000000001","8.97","83.4","-0.273","0.0"],
    [1394566,"2026-01-13 04:40:00","32146","1.916","287.0","2.94","275.9","1017.015","9.09","82.8","-0.363","0.0"],
    [1394567,"2026-01-13 04:50:00","32147","1.535","283.2","2.515","292.9","1016.9789999999999","9.2","81.3","-0.377","0.0"],
    [1394568,"2026-01-13 05:00:00","32148","0.998","280.0","1.568","270.6","1016.91","9.29","80.9","-0.32799999999999996","0.0"],
    [1394569,"2026-01-13 05:10:00","32149","1.43","277.4","2.646","279.6","1016.9639999999999","9.4","80.4","-0.11900000000000001","0.0"],
    [1394570,"2026-01-13 05:20:00","32150","1.986","291.3","2.711","298.6","1017.0210000000001","9.28","80.3","-0.094","0.0"],
    [1394571,"2026-01-13 05:30:00","32151","1.834","289.2","2.679","278.6","1017.034","9.21","80.3","-0.242","0.0"],
    [1394572,"2026-01-13 05:40:00","32152","1.534","285.9","2.123","282.3","1017.0980000000001","9.32","80.3","-0.41600000000000004","0.0"],
    [1394573,"2026-01-13 05:50:00","32153","1.1340000000000001","290.4","1.633","288","1017.107","9.42","79.97","-0.444","0.0"],
    [1394574,"2026-01-13 06:00:00","32154","1.3519999999999999","275.5","2.058","280.6","1017.091","9.58","79.48","-0.452","0.0"],
    [1394575,"2026-01-13 06:10:00","32155","1.393","279.8","2.254","266.7","1017.075","9.63","79.02","-0.47600000000000003","0.0"],
    [1394576,"2026-01-13 06:20:00","32156","1.745","272.4","2.711","284","1017.127","9.69","78.5","-0.496","0.0"],
    [1394577,"2026-01-13 06:30:00","32157","1.8769999999999998","275.1","2.646","276.5","1017.197","9.63","78.11","-0.392","0.0"],
    [1394578,"2026-01-13 06:40:00","32158","1.7380000000000002","281.3","2.581","268.8","1017.285","9.54","78.54","-0.447","0.0"],
    [1394579,"2026-01-13 06:50:00","32159","1.546","283.5","2.189","287.2","1017.2760000000001","9.65","78.52","-0.494","0.0"],
    [1394580,"2026-01-13 07:00:00","32160","1.847","279.2","2.483","283.2","1017.314","9.74","77.93","-0.091","0.0"],
    [1394581,"2026-01-13 07:10:00","32161","1.541","276.4","2.254","268.9","1017.2860000000001","9.77","77.42","1.238","0.0"],
    [1394582,"2026-01-13 07:20:00","32162","1.666","271.8","2.319","262.2","1017.315","9.78","77.33","1.841","0.0"],
    [1394583,"2026-01-13 07:30:00","32163","1.6269999999999998","274.5","3.038","277.3","1017.331","9.79","76.96","5.903","0.0"],
    [1394584,"2026-01-13 07:40:00","32164","1.734","262.6","2.679","277.2","1017.36","9.86","76.51","8.55","0.0"],
    [1394585,"2026-01-13 07:50:00","32165","1.42","271.4","2.45","289.7","1017.3919999999999","9.91","76.13","15.4","0.0"],
    [1394586,"2026-01-13 08:00:00","32166","1.9369999999999998","270.8","2.94","271.4","1017.442","9.95","75.78","26.44","0.0"],
    [1394587,"2026-01-13 08:10:00","32167","2.037","279.4","2.973","297.9","1017.4689999999999","10.0","75.31","42.14","0.0"],
    [1394588,"2026-01-13 08:20:00","32168","1.9469999999999998","284.5","2.875","265.8","1017.553","10.1","74.91","39.5","0.0"],
    [1394589,"2026-01-13 08:30:00","32169","1.9240000000000002","282.0","2.875","287.1","1017.569","10.18","74.78","34.12","0.0"],
    [1394590,"2026-01-13 08:40:00","32170","1.69","278.4","2.417","262.1","1017.566","10.26","74.81","61.55","0.0"],
    [1394591,"2026-01-13 08:50:00","32171","1.765","273.9","2.515","275.9","1017.6439999999999","10.47","74.23","111.5","0.0"],
    [1394592,"2026-01-13 09:00:00","32172","2.157","287.5","3.201","282","1017.7139999999999","10.94","72.81","232.4","0.0"],
    [1394593,"2026-01-13 09:10:00","32173","2.1790000000000003","286.1","3.365","282.4","1017.7919999999999","11.5","70.69","244.7","0.0"],
    [1394594,"2026-01-13 09:20:00","32174","2.251","282.1","3.299","287.7","1017.7769999999999","11.85","69.83","281.2","0.0"],
    [1394595,"2026-01-13 09:30:00","32175","2.114","282.5","3.855","273.7","1017.827","12.01","69.64","278.1","0.0"],
    [1394596,"2026-01-13 09:40:00","32176","2.365","300.0","3.528","305.1","1017.873","12.72","68.74","325.2","0.0"],
    [1394597,"2026-01-13 09:50:00","32177","2.5269999999999997","291.6","4.247","283.6","1017.947","13.09","67.99","330.2","0.0"],
    [1394598,"2026-01-13 10:00:00","32178","2.495","290.9","3.463","289.8","1018.018","13.43","67.84","410.0","0.0"],
    [1394599,"2026-01-13 10:10:00","32179","2.322","283.9","3.626","281.4","1018.0369999999999","14.02","66.16","417.4","0.0"],
    [1394600,"2026-01-13 10:20:00","32180","2.189","292.0","3.103","283.7","1018.054","13.99","67.03","355.1","0.0"],
    [1394601,"2026-01-13 10:30:00","32181","2.511","289.9","3.267","294.8","1018.0210000000001","14.03","67.36","345.6","0.0"],
    [1394602,"2026-01-13 10:40:00","32182","2.037","289.1","3.234","288.8","1017.946","14.16","67.48","354.3","0.0"],
    [1394603,"2026-01-13 10:50:00","32183","1.4580000000000002","274.9","2.45","287.1","1017.8389999999999","14.58","67.2","362.6","0.0"],
    [1394604,"2026-01-13 11:00:00","32184","1.6969999999999998","269.0","2.809","285.2","1017.676","14.86","66.93","397.7","0.0"],
    [1394605,"2026-01-13 11:10:00","32185","1.213","242.1","2.483","287.1","1017.4989999999999","15.35","66.57","414.2","0.0"],
    [1394606,"2026-01-13 11:20:00","32186","1.3630000000000002","229.1","2.679","284.8","1017.2589999999999","15.81","64.57","398.7","0.0"],
    [1394607,"2026-01-13 11:30:00","32187","1.6119999999999999","215.4","3.005","219.9","1017.081","15.94","65.55","411.3","0.0"],
    [1394608,"2026-01-13 11:40:00","32188","1.9040000000000001","222.2","4.377","222.2","1016.826","16.28","65.12","458.0","0.0"],
    [1394609,"2026-01-13 11:50:00","32189","3.625","221.8","5.847","221.5","1016.566","15.89","66.78","451.6","0.0"],
    [1394610,"2026-01-13 12:00:00","32190","3.2030000000000003","219.6","5.063","204.5","1016.429","16.24","65.21","455.7","0.0"],
    [1394611,"2026-01-13 12:10:00","32191","4.251","214.0","6.174","213.4","1016.2819999999999","16.14","64.78","434.6","0.0"],
    [1394612,"2026-01-13 12:20:00","32192","3.8539999999999996","218.1","6.239","207.2","1016.0980000000001","16.19","64.41","370.6","0.0"],
    [1394613,"2026-01-13 12:30:00","32193","2.892","225.6","4.835","199.4","1016.008","15.92","65.81","353.2","0.0"],
    [1394614,"2026-01-13 12:40:00","32194","2.958","227.3","5.063","229.3","1015.8860000000001","16.26","64.84","380.6","0.0"],
    [1394615,"2026-01-13 12:50:00","32195","3.167","224.4","5.031","229.5","1015.795","16.28","62.97","417.2","0.0"],
    [1394616,"2026-01-13 13:00:00","32196","3.681","223.9","6.272","217.3","1015.703","16.39","61.08","446.2","0.0"],
    [1394617,"2026-01-13 13:10:00","32197","3.7239999999999998","223.8","5.978","225.3","1015.6360000000001","16.11","61.79","375.5","0.0"],
    [1394618,"2026-01-13 13:20:00","32198","4.115","218.5","7.056","223","1015.549","16.1","62.4","359.0","0.0"],
    [1394619,"2026-01-13 13:30:00","32199","3.545","225.1","5.978","222.2","1015.51","16.17","63.4","371.5","0.0"],
    [1394620,"2026-01-13 13:40:00","32200","4.4030000000000005","222.7","7.023","226.8","1015.477","15.96","65.52","345.5","0.0"],
    [1394621,"2026-01-13 13:50:00","32201","4.356","218.2","6.697","215.7","1015.47","15.9","67.59","334.8","0.0"],
    [1394622,"2026-01-13 14:00:00","32202","3.767","224.1","7.415","223","1015.467","16.14","67.8","362.6","0.0"],
    [1394623,"2026-01-13 14:10:00","32203","3.752","227.1","5.488","239.7","1015.404","15.96","68.98","345.1","0.0"],
    [1394624,"2026-01-13 14:20:00","32204","3.103","227.1","5.651","207.5","1015.325","16.11","68.05","328.7","0.0"],
    [1394625,"2026-01-13 14:30:00","32205","3.946","219.6","6.043","230.2","1015.265","16.12","67.73","317.8","0.0"],
    [1394626,"2026-01-13 14:40:00","32206","2.872","222.8","4.41","205.9","1015.2139999999999","16.21","67.27","285.2","0.0"],
    [1394627,"2026-01-13 14:50:00","32207","2.83","216.2","4.639","217.1","1015.1469999999999","16.08","68.46","238.6","0.0"],
    [1394628,"2026-01-13 15:00:00","32208","3.735","212.9","5.978","213.7","1015.1030000000001","15.88","68.68","222.9","0.0"],
    [1394629,"2026-01-13 15:10:00","32209","3.594","217.0","5.455","213","1015.086","15.66","69.5","209.2","0.0"],
    [1394630,"2026-01-13 15:20:00","32210","2.544","213.6","4.802","213.9","1015.07","15.67","70.15","187.1","0.0"],
    [1394631,"2026-01-13 15:30:00","32211","3.045","210.4","4.998","213.8","1015.091","15.47","71.33","143.4","0.0"],
    [1394632,"2026-01-13 15:40:00","32212","2.8960000000000004","213.5","5.815","206.8","1015.1619999999999","15.17","73.19","121.1","0.0"],
    [1394633,"2026-01-13 15:50:00","32213","2.1790000000000003","214.5","3.528","219.4","1015.225","15.15","73.54","114.3","0.0"],
    [1394634,"2026-01-13 16:00:00","32214","2.509","209.7","3.397","218.3","1015.2180000000001","14.97","74.36","76.01","0.0"],
    [1394635,"2026-01-13 16:10:00","32215","1.922","221.1","3.136","199.3","1015.243","14.67","75.91","36.26","0.0"],
    [1394636,"2026-01-13 16:20:00","32216","2.0780000000000003","219.8","3.463","225","1015.2560000000001","14.47","77.18","16.69","0.0"],
    [1394637,"2026-01-13 16:30:00","32217","1.999","225.0","3.136","229.4","1015.3","14.44","77.66","8.65","0.0"],
    [1394638,"2026-01-13 16:40:00","32218","1.945","221.5","3.201","215.4","1015.307","14.34","78.42","4.177","0.0"],
    [1394639,"2026-01-13 16:50:00","32219","1.063","234.9","2.287","232.2","1015.3639999999999","14.29","78.82","1.61","0.0"],
    [1394640,"2026-01-13 17:00:00","32220","0.86","232.7","1.633","201.2","1015.53","14.08","79.72","-0.7120000000000001","0.0"],
    [1394641,"2026-01-13 17:10:00","32221","0.9309999999999999","239.9","1.895","241","1015.691","13.87","80.4","-1.7409999999999999","0.0"],
    [1394642,"2026-01-13 17:20:00","32222","0.7040000000000001","231.1","1.437","209.9","1015.758","13.66","80.9","-2.114","0.0"],
    [1394643,"2026-01-13 17:30:00","32223","0.051","238.2","0.653","236.1","1015.748","13.39","81.8","-2.748","0.0"],
    [1394644,"2026-01-13 17:40:00","32224","0.004","251.8","0.098","251.7","1015.7439999999999","12.89","83.8","-2.758","0.0"],
    [1394645,"2026-01-13 17:50:00","32225","0.0","251.7","0.033","251.7","1015.7669999999999","12.69","85.1","-2.761","0.0"],
    [1394646,"2026-01-13 18:00:00","32226","0.0","0.0","0","0","1015.808","12.58","85.6","-2.173","0.0"],
    [1394647,"2026-01-13 18:10:00","32227","0.003","251.8","0.065","251.8","1015.783","12.62","85.8","-1.431","0.0"],
    [1394648,"2026-01-13 18:20:00","32228","0.011000000000000001","229.2","0.392","228.3","1015.831","12.62","85.3","-2.352","0.0"],
    [1394649,"2026-01-13 18:30:00","32229","0.07400000000000001","151.5","0.653","143.3","1015.8919999999999","12.54","85.8","-2.763","0.0"],
    [1394650,"2026-01-13 18:40:00","32230","0.792","123.6","1.829","140.5","1015.8510000000001","12.93","85.4","-2.767","0.0"],
    [1394651,"2026-01-13 18:50:00","32231","0.48","107.6","1.176","97.7","1015.931","12.83","85.1","-2.761","0.0"],
    [1394652,"2026-01-13 19:00:00","32232","0.17600000000000002","116.6","0.653","116.8","1016.047","12.22","87.2","-2.761","0.0"],
    [1394653,"2026-01-13 19:10:00","32233","0.06","113.9","0.49","113.8","1016.09","11.93","88.5","-2.3040000000000003","0.0"],
    [1394654,"2026-01-13 19:20:00","32234","0.0","112.6","0.033","112.6","1016.1060000000001","11.85","89.0","-1.9040000000000001","0.0"],
    [1394655,"2026-01-13 19:30:00","32235","0.8490000000000001","88.3","1.209","84.6","1016.1489999999999","11.79","89.8","-1.996","0.0"],
    [1394656,"2026-01-13 19:40:00","32236","0.321","117.7","1.666","118.4","1016.2339999999999","11.89","90.4","-2.043","0.0"],
    [1394657,"2026-01-13 19:50:00","32237","0.004","143.8","0.196","143.9","1016.283","11.65","90.4","-2.72","0.0"],
    [1394658,"2026-01-13 20:00:00","32238","0.0","0.0","0","0","1016.334","11.51","91.1","-2.727","0.0"],
    [1394659,"2026-01-13 20:10:00","32239","0.271","72.84","0.621","72.66","1016.3560000000001","11.6","92.3","-2.57","0.0"],
    [1394660,"2026-01-13 20:20:00","32240","0.588","78.93","0.849","85.1","1016.34","11.46","92.9","-2.123","0.0"],
    [1394661,"2026-01-13 20:30:00","32241","0.6","74.0","0.915","69.33","1016.382","11.55","94.0","-2.494","0.0"],
    [1394662,"2026-01-13 20:40:00","32242","0.43799999999999994","307.1","1.405","295.7","1016.495","11.31","94.0","-1.6059999999999999","0.0"],
    [1394663,"2026-01-13 20:50:00","32243","1.12","296.1","1.568","291.7","1016.6189999999999","10.78","93.8","-1.551","0.0"],
    [1394664,"2026-01-13 21:00:00","32244","0.7879999999999999","287.6","1.372","287.6","1016.6419999999999","10.6","94.1","-1.4040000000000001","0.0"],
    [1394665,"2026-01-13 21:10:00","32245","0.475","299.8","0.915","302.6","1016.6519999999999","10.65","93.6","-1.253","0.0"],
    [1394666,"2026-01-13 21:20:00","32246","0.505","298.1","0.751","296.7","1016.587","10.46","93.0","-1.7790000000000001","0.0"],
    [1394667,"2026-01-13 21:30:00","32247","0.8320000000000001","294.6","1.274","296.2","1016.676","10.24","92.6","-2.311","0.0"],
    [1394668,"2026-01-13 21:40:00","32248","0.623","292.2","1.078","297.4","1016.683","10.23","92.5","-2.488","0.0"],
    [1394669,"2026-01-13 21:50:00","32249","0.733","278.9","1.274","277.6","1016.6139999999999","10.29","91.7","-2.645","0.0"],
    [1394670,"2026-01-13 22:00:00","32250","1.0959999999999999","277.2","1.437","274.2","1016.655","10.36","90.9","-2.7510000000000003","0.0"],
    [1394671,"2026-01-13 22:10:00","32251","1.2009999999999998","282.9","1.666","279.2","1016.7360000000001","10.53","89.5","-1.892","0.0"],
    [1394672,"2026-01-13 22:20:00","32252","0.5720000000000001","286.0","1.209","275.4","1016.747","10.48","89.0","-1.5519999999999998","0.0"],
    [1394673,"2026-01-13 22:30:00","32253","0.657","283.3","1.078","281.3","1016.7360000000001","10.36","89.0","-2.457","0.0"],
    [1394674,"2026-01-13 22:40:00","32254","0.521","289.0","1.143","304.1","1016.7360000000001","10.04","89.5","-2.764","0.0"],
    [1394675,"2026-01-13 22:50:00","32255","0.732","274.8","1.503","273.1","1016.755","10.19","90.2","-2.494","0.0"],
    [1394676,"2026-01-13 23:00:00","32256","0.8220000000000001","273.5","1.535","274.6","1016.753","10.24","89.9","-1.693","0.0"],
    [1394677,"2026-01-13 23:10:00","32257","1.305","278.1","1.862","282.7","1016.773","10.54","88.9","-2.02","0.0"],
    [1394678,"2026-01-13 23:20:00","32258","1.4369999999999998","276.4","2.058","283.5","1016.816","10.49","87.8","-2.237","0.0"],
    [1394679,"2026-01-13 23:30:00","32259","1.18","280.1","2.025","280.6","1016.796","10.31","87.6","-2.416","0.0"],
    [1394680,"2026-01-13 23:40:00","32260","1.766","277.1","2.581","283","1016.9069999999999","10.12","88.4","-2.7039999999999997","0.0"],
    [1394681,"2026-01-13 23:50:00","32261","1.817","273.9","2.875","261.3","1017.007","10.0","88.3","-2.362","0.0"],
    [1394682,"2026-01-14 00:00:00","32262","1.265","287.0","1.96","281.4","1016.8910000000001","9.99","88.4","-2.695","0.0"],
    [1394683,"2026-01-14 00:10:00","32263","1.212","282.1","2.319","279.5","1016.8739999999999","9.9","88.6","-2.745","0.0"],
    [1394684,"2026-01-14 00:20:00","32264","1.452","275.8","2.156","282","1016.8439999999999","10.06","87.9","-2.702","0.0"],
    [1394685,"2026-01-14 00:30:00","32265","1.3419999999999999","276.6","1.927","278.5","1016.812","9.99","87.6","-2.753","0.0"],
    [1394686,"2026-01-14 00:40:00","32266","0.795","283.1","1.503","278.9","1016.721","9.84","87.2","-2.759","0.0"],
    [1394687,"2026-01-14 00:50:00","32267","1.585","275.7","2.548","276.7","1016.686","9.77","88.0","-2.7680000000000002","0.0"],
    [1394688,"2026-01-14 01:00:00","32268","1.64","276.1","2.548","269","1016.699","9.72","87.4","-2.717","0.0"],
    [1394689,"2026-01-14 01:10:00","32269","1.63","270.5","2.483","266","1016.7719999999999","9.64","87.4","-2.755","0.0"],
    [1394690,"2026-01-14 01:20:00","32270","1.848","268.1","2.417","265.2","1016.824","9.6","87.3","-2.748","0.0"],
    [1394691,"2026-01-14 01:30:00","32271","1.61","275.7","2.287","277.8","1016.872","9.51","87.1","-2.76","0.0"],
    [1394692,"2026-01-14 01:40:00","32272","1.7209999999999999","276.3","2.417","277.3","1016.85","9.46","87.0","-2.772","0.0"],
    [1394693,"2026-01-14 01:50:00","32273","1.71","273.7","2.417","266.7","1016.8330000000001","9.48","86.4","-2.738","0.0"],
    [1394694,"2026-01-14 02:00:00","32274","1.425","280.9","2.025","287.4","1016.867","9.36","86.3","-2.56","0.0"],
    [1394695,"2026-01-14 02:10:00","32275","1.222","284.7","2.679","277.6","1016.8489999999999","9.15","86.9","-2.5639999999999996","0.0"],
    [1394696,"2026-01-14 02:20:00","32276","1.31","285.8","2.385","280","1016.808","9.14","87.2","-2.457","0.0"],
    [1394697,"2026-01-14 02:30:00","32277","1.3159999999999998","286.4","2.189","273.9","1016.7389999999999","9.09","87.2","-2.432","0.0"],
    [1394698,"2026-01-14 02:40:00","32278","1.389","290.5","2.45","288.6","1016.689","9.11","86.9","-2.145","0.0"],
    [1394699,"2026-01-14 02:50:00","32279","1.587","293.0","2.646","301.6","1016.659","9.09","86.6","-2.2119999999999997","0.0"],
    [1394700,"2026-01-14 03:00:00","32280","1.6369999999999998","294.8","2.973","285.3","1016.645","9.21","85.9","-2.537","0.0"],
    [1394701,"2026-01-14 03:10:00","32281","1.848","282.2","2.973","277.2","1016.68","9.4","84.8","-2.487","0.0"],
    [1394702,"2026-01-14 03:20:00","32282","1.2409999999999999","289.6","2.189","278.5","1016.6039999999999","9.27","84.8","-2.496","0.0"],
    [1394703,"2026-01-14 03:30:00","32283","1.571","283.7","2.319","285.4","1016.546","9.3","84.7","-2.3369999999999997","0.0"],
    [1394704,"2026-01-14 03:40:00","32284","1.77","287.1","3.201","292.1","1016.577","9.11","84.7","-2.1109999999999998","0.0"],
    [1394705,"2026-01-14 03:50:00","32285","1.6269999999999998","290.3","3.136","310.4","1016.579","8.95","85.3","-2.227","0.0"],
    [1394706,"2026-01-14 04:00:00","32286","1.8780000000000001","287.1","3.43","283.1","1016.596","8.97","85.3","-2.713","0.0"],
    [1394707,"2026-01-14 04:10:00","32287","1.989","288.9","4.214","302.8","1016.58","9.0","84.9","-2.6630000000000003","0.0"],
    [1394708,"2026-01-14 04:20:00","32288","1.672","291.5","2.875","284.1","1016.555","9.16","84.6","-2.698","0.0"],
    [1394709,"2026-01-14 04:30:00","32289","1.5230000000000001","287.9","2.613","296.1","1016.5210000000001","9.17","84.6","-2.583","0.0"],
    [1394710,"2026-01-14 04:40:00","32290","1.709","287.2","3.201","296.7","1016.445","9.14","84.6","-2.188","0.0"],
    [1394711,"2026-01-14 04:50:00","32291","2.392","288.8","4.345","279.5","1016.3860000000001","8.99","85.2","-2.12","0.0"],
    [1394712,"2026-01-14 05:00:00","32292","2.135","291.3","3.593","310.9","1016.405","9.06","84.7","-2.324","0.0"],
    [1394713,"2026-01-14 05:10:00","32293","1.847","287.0","2.875","276.9","1016.398","8.99","84.4","-2.688","0.0"],
    [1394714,"2026-01-14 05:20:00","32294","2.127","288.1","4.116","279.7","1016.482","9.0","84.7","-2.763","0.0"],
    [1394715,"2026-01-14 05:30:00","32295","2.8960000000000004","289.4","4.671","303.6","1016.533","9.06","84.9","-2.7760000000000002","0.0"],
    [1394716,"2026-01-14 05:40:00","32296","3.484","289.4","5.357","283.8","1016.6489999999999","9.12","84.3","-2.6919999999999997","0.0"],
    [1394717,"2026-01-14 05:50:00","32297","2.5810000000000004","292.6","4.606","289.9","1016.568","9.11","83.9","-2.108","0.0"],
    [1394718,"2026-01-14 06:00:00","32298","1.8130000000000002","289.9","2.809","288.4","1016.5830000000001","9.01","84.2","-2.324","0.0"],
    [1394719,"2026-01-14 06:10:00","32299","1.82","289.8","3.201","310.6","1016.6139999999999","8.88","85.0","-2.695","0.0"],
    [1394720,"2026-01-14 06:20:00","32300","1.6580000000000001","285.4","3.267","290.2","1016.7180000000001","8.9","86.0","-2.262","0.0"],
    [1394721,"2026-01-14 06:30:00","32301","2.168","289.6","3.757","299.1","1016.805","8.97","86.3","-2.123","0.0"],
    [1394722,"2026-01-14 06:40:00","32302","2.289","294.2","3.495","308","1016.923","8.88","86.1","-2.34","0.0"],
    [1394723,"2026-01-14 06:50:00","32303","2.184","304.8","3.985","318.4","1016.9639999999999","8.94","86.0","-2.582","0.0"],
    [1394724,"2026-01-14 07:00:00","32304","1.564","289.8","2.483","289.1","1017.073","8.84","86.0","-2.394","0.0"],
    [1394725,"2026-01-14 07:10:00","32305","1.685","291.6","3.299","288.7","1017.25","8.71","86.6","-0.72","0.0"],
    [1394726,"2026-01-14 07:20:00","32306","1.5719999999999998","300.5","2.842","292.6","1017.285","8.7","86.7","1.7309999999999999","0.0"],
    [1394727,"2026-01-14 07:30:00","32307","1.776","291.5","2.809","295.2","1017.316","8.87","86.6","7.257999999999999","0.0"],
    [1394728,"2026-01-14 07:40:00","32308","1.226","286.5","2.123","286.6","1017.3710000000001","9.08","86.2","10.6","0.0"],
    [1394729,"2026-01-14 07:50:00","32309","1.515","293.4","2.515","316.1","1017.437","9.24","86.2","26.79","0.0"],
    [1394730,"2026-01-14 08:00:00","32310","2.024","292.9","2.973","290.7","1017.569","9.31","86.1","31.36","0.0"],
    [1394731,"2026-01-14 08:10:00","32311","2.004","294.5","3.463","289.1","1017.7139999999999","9.22","86.7","34.7","0.0"],
    [1394732,"2026-01-14 08:20:00","32312","1.6540000000000001","289.7","3.136","304.9","1017.818","9.22","87.1","46.89","0.0"],
    [1394733,"2026-01-14 08:30:00","32313","1.819","290.7","2.777","285.2","1017.877","9.36","87.0","67.21","0.0"],
    [1394734,"2026-01-14 08:40:00","32314","1.401","280.6","3.136","276.3","1017.966","9.57","86.4","108.5","0.0"],
    [1394735,"2026-01-14 08:50:00","32315","2.364","299.6","4.214","303.6","1017.9860000000001","9.98","85.4","213.9","0.0"],
    [1394736,"2026-01-14 09:00:00","32316","2.875","295.6","4.475","305.2","1018.1039999999999","10.24","83.6","206.0","0.0"],
    [1394737,"2026-01-14 09:10:00","32317","2.27","292.2","3.92","300.5","1018.2510000000001","10.56","82.2","226.7","0.0"],
    [1394738,"2026-01-14 09:20:00","32318","2.12","294.5","3.593","301.7","1018.31","10.81","80.9","256.0","0.0"],
    [1394739,"2026-01-14 09:30:00","32319","1.749","289.9","2.907","294","1018.3989999999999","11.2","79.51","264.1","0.0"],
    [1394740,"2026-01-14 09:40:00","32320","2.415","287.5","3.659","301.5","1018.525","11.39","78.62","275.4","0.0"],
    [1394741,"2026-01-14 09:50:00","32321","2.592","291.4","3.626","287.1","1018.557","11.5","78.0","297.2","0.0"],
    [1394742,"2026-01-14 10:00:00","32322","2.245","292.9","3.561","282.6","1018.546","11.85","76.99","309.2","0.0"],
    [1394743,"2026-01-14 10:10:00","32323","2.3169999999999997","287.3","3.136","289.1","1018.607","12.08","75.69","333.3","0.0"],
    [1394744,"2026-01-14 10:20:00","32324","2.123","297.2","3.267","310.9","1018.61","12.45","74.85","334.8","0.0"],
    [1394745,"2026-01-14 10:30:00","32325","2.279","297.1","3.267","304.1","1018.579","12.82","73.57","377.6","0.0"],
    [1394746,"2026-01-14 10:40:00","32326","2.263","298.8","3.528","304.5","1018.5369999999999","13.14","72.71","396.2","0.0"],
    [1394747,"2026-01-14 10:50:00","32327","1.925","278.7","3.365","272.7","1018.553","13.39","71.45","399.4","0.0"],
    [1394748,"2026-01-14 11:00:00","32328","2.301","285.8","3.757","298.1","1018.443","13.54","70.96","425.0","0.0"],
    [1394749,"2026-01-14 11:10:00","32329","2.364","304.8","3.43","304.8","1018.3860000000001","13.71","70.31","435.1","0.0"],
    [1394750,"2026-01-14 11:20:00","32330","1.02","295.2","1.96","304.9","1018.2439999999999","14.22","69.45","443.1","0.0"],
    [1394751,"2026-01-14 11:30:00","32331","1.127","290.5","2.091","303.5","1018.1439999999999","14.7","67.43","450.9","0.0"],
    [1394752,"2026-01-14 11:40:00","32332","1.208","293.8","2.646","265.7","1018.0880000000001","14.89","67.39","463.2","0.0"],
    [1394753,"2026-01-14 11:50:00","32333","1.4669999999999999","301.3","2.515","259.3","1018.018","14.93","66.99","469.1","0.0"],
    [1394754,"2026-01-14 12:00:00","32334","0.8490000000000001","259.1","2.189","276.7","1017.924","15.19","66.12","399.7","0.0"],
    [1394755,"2026-01-14 12:10:00","32335","0.5820000000000001","245.1","1.666","298.3","1017.813","15.57","66.0","443.7","0.0"],
    [1394756,"2026-01-14 12:20:00","32336","0.977","2.508","2.025","76.1","1017.676","15.18","66.79","314.9","0.0"],
    [1394757,"2026-01-14 12:30:00","32337","2.011","89.7","2.94","87.7","1017.477","14.02","75.29","401.9","0.0"],
    [1394758,"2026-01-14 12:40:00","32338","1.569","106.6","3.071","131.6","1017.438","13.94","75.97","436.5","0.0"],
    [1394759,"2026-01-14 12:50:00","32339","2.4619999999999997","90.4","3.789","89.2","1017.243","13.92","76.28","410.7","0.0"],
    [1394760,"2026-01-14 13:00:00","32340","2.2680000000000002","94.2","3.561","85.3","1017.1619999999999","13.97","76.25","413.6","0.0"],
    [1394761,"2026-01-14 13:10:00","32341","1.4909999999999999","115.6","2.94","110.2","1017.1039999999999","13.99","76.13","321.8","0.0"],
    [1394762,"2026-01-14 13:20:00","32342","1.3619999999999999","121.6","2.809","125.9","1016.993","14.41","74.43","418.3","0.0"],
    [1394763,"2026-01-14 13:30:00","32343","1.245","116.9","3.169","102.6","1017.0169999999999","14.72","73.14","424.1","0.0"],
    [1394764,"2026-01-14 13:40:00","32344","0.733","125.3","2.025","170.5","1017.015","14.69","73.05","294.7","0.0"],
    [1394765,"2026-01-14 13:50:00","32345","0.6970000000000001","157.8","3.267","185.1","1016.944","15.05","72.79","364.9","0.0"],
    [1394766,"2026-01-14 14:00:00","32346","0.6859999999999999","159.5","2.483","161.2","1016.842","14.68","73.97","146.4","0.0"],
    [1394767,"2026-01-14 14:10:00","32347","0.9470000000000001","152.5","2.385","144.7","1016.875","14.04","76.81","154.5","0.0"],
    [1394768,"2026-01-14 14:20:00","32348","0.88","175.0","2.679","208.7","1016.818","13.99","77.5","180.4","0.0"],
    [1394769,"2026-01-14 14:30:00","32349","0.9309999999999999","155.2","2.319","195.6","1016.8580000000001","14.04","77.43","182.1","0.0"],
    [1394770,"2026-01-14 14:40:00","32350","0.973","173.8","4.312","192","1016.805","14.09","77.41","159.5","0.0"],
    [1394771,"2026-01-14 14:50:00","32351","1.765","194.9","4.965","175.1","1016.873","14.01","76.43","169.2","0.0"],
    [1394772,"2026-01-14 15:00:00","32352","1.636","168.1","2.744","161.7","1016.831","13.84","77.42","130.2","0.0"],
    [1394773,"2026-01-14 15:10:00","32353","1.629","177.9","3.169","228.5","1016.808","13.88","78.06","126.3","0.0"],
    [1394774,"2026-01-14 15:20:00","32354","1.177","170.8","3.561","175.7","1016.801","13.89","78.99","123.9","0.0"],
    [1394775,"2026-01-14 15:30:00","32355","1.145","174.6","2.417","182.7","1016.807","13.85","80.0","89.7","0.0"],
    [1394776,"2026-01-14 15:40:00","32356","1.205","179.0","2.123","171.6","1016.8839999999999","13.58","81.6","74.03","0.0"],
    [1394777,"2026-01-14 15:50:00","32357","1.195","201.6","2.091","177.1","1016.9780000000001","13.69","82.1","92.3","0.0"],
    [1394778,"2026-01-14 16:00:00","32358","0.968","198.5","1.895","188.7","1016.987","13.64","82.6","63.31","0.0"],
    [1394779,"2026-01-14 16:10:00","32359","1.399","196.8","3.365","136","1017.082","13.54","83.2","47.03","0.0"],
    [1394780,"2026-01-14 16:20:00","32360","1.827","213.2","3.43","196.7","1017.202","13.45","83.8","31.85","0.0"],
    [1394781,"2026-01-14 16:30:00","32361","1.774","208.5","4.9","275.8","1017.222","13.38","84.5","27.37","0.0"],
    [1394782,"2026-01-14 16:40:00","32362","0.953","191.8","1.699","175.7","1017.168","13.26","84.9","9.96","0.0"],
    [1394783,"2026-01-14 16:50:00","32363","1.453","211.3","4.737","160.8","1017.138","13.16","85.4","2.7039999999999997","0.0"],
    [1394784,"2026-01-14 17:00:00","32364","1.45","204.0","3.234","212.7","1017.195","13.14","85.6","-0.23","0.0"],
    [1394785,"2026-01-14 17:10:00","32365","1.464","189.2","4.018","141.8","1017.1569999999999","13.07","86.0","-1.969","0.0"],
    [1394786,"2026-01-14 17:20:00","32366","1.521","200.7","3.626","274.1","1017.096","13.13","85.8","-2.373","0.0"],
    [1394787,"2026-01-14 17:30:00","32367","1.5659999999999998","205.0","3.495","187.4","1017.22","13.16","85.7","-2.24","0.0"],
    [1394788,"2026-01-14 17:40:00","32368","1.8730000000000002","199.0","4.541","161.7","1017.3589999999999","13.1","86.3","-2.582","0.0"],
    [1394789,"2026-01-14 17:50:00","32369","1.815","208.5","3.691","191.8","1017.408","13.08","86.5","-2.358","0.0"],
    [1394790,"2026-01-14 18:00:00","32370","1.632","212.2","3.299","189","1017.544","12.94","87.1","-2.474","0.0"],
    [1394791,"2026-01-14 18:10:00","32371","0.7070000000000001","226.0","1.633","189.5","1017.572","12.74","87.5","-2.459","0.0"],
    [1394792,"2026-01-14 18:20:00","32372","0.919","237.0","2.875","201.6","1017.689","12.42","88.6","-2.7089999999999996","0.0"],
    [1394793,"2026-01-14 18:30:00","32373","0.22699999999999998","236.7","1.274","176.6","1017.6610000000001","11.98","89.1","-2.69","0.0"],
    [1394794,"2026-01-14 18:40:00","32374","0.741","229.9","2.058","212.9","1017.663","11.82","90.6","-2.765","0.0"],
    [1394795,"2026-01-14 18:50:00","32375","1.023","226.2","2.581","210","1017.727","11.93","90.6","-2.735","0.0"],
    [1394796,"2026-01-14 19:00:00","32376","1.7719999999999998","201.5","4.279","192.3","1017.703","12.39","89.7","-2.923","0.0"],
    [1394797,"2026-01-14 19:10:00","32377","1.8530000000000002","208.2","4.508","237.4","1017.857","12.52","88.4","-2.7769999999999997","0.0"],
    [1394798,"2026-01-14 19:20:00","32378","2.01","218.7","4.051","176.9","1017.955","12.36","88.9","-2.7960000000000003","0.0"],
    [1394799,"2026-01-14 19:30:00","32379","2.224","224.8","3.724","228.9","1017.938","12.65","88.1","-2.72","0.0"],
    [1394800,"2026-01-14 19:40:00","32380","2.177","221.6","3.92","217.7","1017.952","12.5","87.4","-2.747","0.0"],
    [1394801,"2026-01-14 19:50:00","32381","1.891","229.7","4.802","196.8","1017.865","12.43","85.9","-2.761","0.0"],
    [1394802,"2026-01-14 20:00:00","32382","0.792","237.9","1.862","240.9","1017.909","11.91","87.0","-2.761","0.0"],
    [1394803,"2026-01-14 20:10:00","32383","0.938","264.4","1.633","268.5","1017.914","11.33","89.3","-2.7289999999999996","0.0"],
    [1394804,"2026-01-14 20:20:00","32384","0.887","242.7","1.47","241.5","1017.932","11.19","91.1","-2.7539999999999996","0.0"],
    [1394805,"2026-01-14 20:30:00","32385","0.563","240.0","0.98","242.6","1017.834","10.83","91.3","-2.7489999999999997","0.0"],
    [1394806,"2026-01-14 20:40:00","32386","1.068","271.1","1.829","259.6","1017.818","10.47","91.7","-2.673","0.0"],
    [1394807,"2026-01-14 20:50:00","32387","1.26","274.4","1.895","269.5","1017.826","10.12","92.2","-2.7439999999999998","0.0"],
    [1394808,"2026-01-14 21:00:00","32388","1.548","279.5","2.417","278.8","1017.9010000000001","9.87","92.3","-2.761","0.0"],
    [1394809,"2026-01-14 21:10:00","32389","1.6280000000000001","271.8","2.581","267","1017.9680000000001","9.93","92.1","-2.74","0.0"],
    [1394810,"2026-01-14 21:20:00","32390","1.893","272.4","2.842","256.9","1018.0210000000001","10.04","91.5","-2.759","0.0"],
    [1394811,"2026-01-14 21:30:00","32391","1.94","276.3","3.038","278.1","1017.997","10.06","90.5","-2.758","0.0"],
    [1394812,"2026-01-14 21:40:00","32392","1.389","271.0","2.45","275.9","1018.0010000000001","9.65","90.2","-2.755","0.0"],
    [1394813,"2026-01-14 21:50:00","32393","1.0979999999999999","276.9","2.156","272.6","1018.015","9.44","90.2","-2.763","0.0"],
    [1394814,"2026-01-14 22:00:00","32394","0.741","265.9","1.568","285.8","1018.0260000000001","9.29","90.4","-2.765","0.0"],
    [1394815,"2026-01-14 22:10:00","32395","0.6859999999999999","259.7","1.437","256.5","1018.092","9.3","90.2","-2.765","0.0"],
    [1394816,"2026-01-14 22:20:00","32396","1.6969999999999998","267.4","2.777","278.8","1018.181","9.31","90.2","-2.764","0.0"],
    [1394817,"2026-01-14 22:30:00","32397","1.567","281.4","2.319","278.3","1018.191","9.09","90.0","-2.758","0.0"],
    [1394818,"2026-01-14 22:40:00","32398","1.436","266.6","2.254","276.7","1018.238","8.92","90.9","-2.75","0.0"],
    [1394819,"2026-01-14 22:50:00","32399","1.445","275.0","1.895","268.3","1018.238","8.91","90.8","-2.773","0.0"],
    [1394820,"2026-01-14 23:00:00","32400","1.58","272.0","2.221","281.7","1018.191","8.87","90.7","-2.758","0.0"],
    [1394821,"2026-01-14 23:10:00","32401","1.525","276.2","2.156","267.7","1018.1260000000001","8.92","90.2","-2.7760000000000002","0.0"],
    [1394822,"2026-01-14 23:20:00","32402","1.324","268.6","2.123","264","1018.138","8.7","89.8","-2.802","0.0"],
    [1394823,"2026-01-14 23:30:00","32403","1.577","277.6","2.744","275.2","1018.205","8.65","87.9","-2.783","0.0"],
    [1394824,"2026-01-14 23:40:00","32404","1.72","282.1","2.842","268.6","1018.2410000000001","8.33","88.4","-2.786","0.0"],
    [1394825,"2026-01-14 23:50:00","32405","1.073","291.7","2.319","277.7","1018.16","7.813","89.3","-2.782","0.0"],
    [1394826,"2026-01-15 00:00:00","32406","0.62","298.1","1.503","268.3","1018.123","7.6579999999999995","90.2","-2.784","0.0"],
    [1394827,"2026-01-15 00:10:00","32407","0.963","243.4","1.731","233.3","1018.125","7.855","90.2","-2.78","0.0"],
    [1394828,"2026-01-15 00:20:00","32408","1.248","231.9","1.895","226.7","1018.075","8.09","88.5","-2.785","0.0"],
    [1394829,"2026-01-15 00:30:00","32409","1.278","250.7","1.895","247.4","1017.9989999999999","8.22","87.1","-2.7910000000000004","0.0"],
    [1394830,"2026-01-15 00:40:00","32410","1.401","267.5","2.091","275.2","1017.8430000000001","8.43","85.3","-2.989","0.0"],
    [1394831,"2026-01-15 00:50:00","32411","1.891","279.3","2.744","278.9","1017.885","8.28","84.1","-2.8510000000000004","0.0"],
    [1394832,"2026-01-15 01:00:00","32412","2.075","274.8","2.94","273.6","1017.9839999999999","7.96","85.3","-2.792","0.0"],
    [1394833,"2026-01-15 01:10:00","32413","2.186","274.6","2.973","266.9","1018.0989999999999","7.846","85.3","-2.793","0.0"],
    [1394834,"2026-01-15 01:20:00","32414","1.253","282.8","2.058","285.1","1018.172","7.746","85.2","-2.79","0.0"],
    [1394835,"2026-01-15 01:30:00","32415","1.381","284.0","2.254","276.3","1018.181","7.666","85.4","-2.801","0.0"],
    [1394836,"2026-01-15 01:40:00","32416","1.1740000000000002","286.9","1.895","295.8","1018.1439999999999","7.566","85.5","-2.7939999999999996","0.0"],
    [1394837,"2026-01-15 01:50:00","32417","1.357","283.4","1.829","278.8","1018.209","7.416","86.3","-2.807","0.0"],
    [1394838,"2026-01-15 02:00:00","32418","1.556","271.0","2.156","278.3","1018.2389999999999","7.574","85.7","-2.7910000000000004","0.0"],
    [1394839,"2026-01-15 02:10:00","32419","1.7690000000000001","281.7","2.483","280","1018.202","7.519","85.8","-2.7910000000000004","0.0"],
    [1394840,"2026-01-15 02:20:00","32420","1.1320000000000001","298.6","1.96","318.3","1018.078","7.212000000000001","86.4","-2.792","0.0"],
    [1394841,"2026-01-15 02:30:00","32421","1.406","290.4","2.483","283.9","1017.99","6.97","87.6","-2.8680000000000003","0.0"],
    [1394842,"2026-01-15 02:40:00","32422","1.7080000000000002","261.7","2.94","274.2","1018.039","7.335","87.0","-2.78","0.0"],
    [1394843,"2026-01-15 02:50:00","32423","2.2680000000000002","270.5","3.495","278.5","1018.023","7.042000000000001","87.2","-2.6510000000000002","0.0"],
    [1394844,"2026-01-15 03:00:00","32424","2.335","290.3","3.463","290","1018.063","6.736000000000001","88.6","-2.316","0.0"],
    [1394845,"2026-01-15 03:10:00","32425","1.2670000000000001","287.7","2.679","290.7","1017.877","6.86","89.8","-2.758","0.0"],
    [1394846,"2026-01-15 03:20:00","32426","1.986","284.5","2.973","295.8","1017.8489999999999","7.022","89.4","-2.741","0.0"],
    [1394847,"2026-01-15 03:30:00","32427","1.76","287.8","2.94","288.1","1017.804","6.987","89.8","-2.63","0.0"],
    [1394848,"2026-01-15 03:40:00","32428","1.8969999999999998","292.6","3.691","293.7","1017.898","6.992000000000001","90.0","-2.745","0.0"],
    [1394849,"2026-01-15 03:50:00","32429","2.073","305.0","3.201","312.2","1017.8639999999999","7.2589999999999995","89.9","-2.7539999999999996","0.0"],
    [1394850,"2026-01-15 04:00:00","32430","1.9380000000000002","305.4","3.103","311.8","1017.813","7.392","89.7","-2.63","0.0"],
    [1394851,"2026-01-15 04:10:00","32431","1.365","253.6","2.385","300.8","1017.7760000000001","7.376","90.0","-2.6060000000000003","0.0"],
    [1394852,"2026-01-15 04:20:00","32432","1.5659999999999998","247.0","2.646","267.9","1017.737","7.405","90.4","-2.698","0.0"],
    [1394853,"2026-01-15 04:30:00","32433","1.635","258.3","2.646","285.5","1017.811","7.485","90.7","-2.45","0.0"],
    [1394854,"2026-01-15 04:40:00","32434","0.98","272.2","2.483","271.1","1017.822","7.369","91.2","-2.3819999999999997","0.0"],
    [1394855,"2026-01-15 04:50:00","32435","0.8540000000000001","258.6","1.895","254","1017.8889999999999","7.294","91.7","-2.506","0.0"],
    [1394856,"2026-01-15 05:00:00","32436","0.636","303.5","2.646","297.4","1017.8489999999999","7.075","91.7","-2.7119999999999997","0.0"],
    [1394857,"2026-01-15 05:10:00","32437","1.786","304.8","2.842","311.8","1017.88","7.28","91.6","-2.7889999999999997","0.0"],
    [1394858,"2026-01-15 05:20:00","32438","1.8780000000000001","292.3","3.365","287.6","1017.7769999999999","7.399","88.3","-2.8","0.0"],
    [1394859,"2026-01-15 05:30:00","32439","2.412","280.2","3.855","286.3","1017.712","7.361000000000001","85.3","-2.824","0.0"],
    [1394860,"2026-01-15 05:40:00","32440","2.023","290.8","3.953","295.4","1017.703","6.947","84.5","-2.79","0.0"],
    [1394861,"2026-01-15 05:50:00","32441","1.979","295.8","3.234","294.1","1017.7239999999999","6.861000000000001","84.9","-2.826","0.0"],
    [1394862,"2026-01-15 06:00:00","32442","2.272","293.1","3.659","295","1017.7139999999999","6.957000000000001","84.0","-2.806","0.0"],
    [1394863,"2026-01-15 06:10:00","32443","2.083","294.2","3.005","295","1017.7360000000001","7.044","83.4","-2.81","0.0"],
    [1394864,"2026-01-15 06:20:00","32444","2.46","299.7","4.247","305.4","1017.818","7.16","83.0","-2.805","0.0"],
    [1394865,"2026-01-15 06:30:00","32445","3.415","307.8","4.769","306.4","1017.827","7.468999999999999","81.8","-2.891","0.0"],
    [1394866,"2026-01-15 06:40:00","32446","2.688","302.9","4.279","299.8","1017.8439999999999","7.5089999999999995","81.2","-2.7889999999999997","0.0"],
    [1394867,"2026-01-15 06:50:00","32447","2.544","304.9","3.985","309.3","1017.795","7.46","81.3","-2.7760000000000002","0.0"],
    [1394868,"2026-01-15 07:00:00","32448","3.0069999999999997","310.1","3.855","305.3","1017.707","7.473","81.4","-2.569","0.0"],
    [1394869,"2026-01-15 07:10:00","32449","3.033","316.3","4.214","318.5","1017.6460000000001","7.75","79.98","-1.37","0.0"],
    [1394870,"2026-01-15 07:20:00","32450","3.199","319.9","4.508","319.3","1017.668","7.846","80.0","1.565","0.0"],
    [1394871,"2026-01-15 07:30:00","32451","2.4219999999999997","300.5","4.181","312.7","1017.68","7.876","79.59","7.877999999999999","0.0"],
    [1394872,"2026-01-15 07:40:00","32452","2.5980000000000003","300.4","4.149","309.2","1017.699","7.5760000000000005","81.1","15.49","0.0"],
    [1394873,"2026-01-15 07:50:00","32453","2.7510000000000003","300.2","4.704","311.2","1017.732","7.687","81.1","26.59","0.0"],
    [1394874,"2026-01-15 08:00:00","32454","2.34","294.4","3.593","304","1017.676","7.7410000000000005","80.7","35.06","0.0"],
    [1394875,"2026-01-15 08:10:00","32455","2.895","292.6","4.312","289.9","1017.6160000000001","7.728","80.8","41.06","0.0"],
    [1394876,"2026-01-15 08:20:00","32456","2.457","280.3","3.822","280.9","1017.6060000000001","7.854","80.3","45.09","0.0"],
    [1394877,"2026-01-15 08:30:00","32457","2.628","288.0","4.083","291.3","1017.6439999999999","8.02","80.1","49.32","0.0"],
    [1394878,"2026-01-15 08:40:00","32458","2.627","290.1","4.149","297.3","1017.685","8.31","79.97","56.24","0.0"],
    [1394879,"2026-01-15 08:50:00","32459","3.0639999999999996","290.4","4.443","271.1","1017.826","8.89","78.22","187.6","0.0"],
    [1394880,"2026-01-15 09:00:00","32460","3.085","291.7","5.259","304.6","1017.921","9.4","76.61","218.1","0.0"],
    [1394881,"2026-01-15 09:10:00","32461","2.6319999999999997","287.5","4.704","283.6","1017.943","9.77","75.24","240.6","0.0"],
    [1394882,"2026-01-15 09:20:00","32462","1.9509999999999998","273.4","4.247","300","1017.933","10.15","74.03","263.4","0.0"],
    [1394883,"2026-01-15 09:30:00","32463","2.383","276.9","4.41","293.8","1018.025","10.38","73.25","282.7","0.0"],
    [1394884,"2026-01-15 09:40:00","32464","3.1919999999999997","289.7","4.998","295.2","1018.097","10.63","72.42","303.9","0.0"],
    [1394885,"2026-01-15 09:50:00","32465","3.372","296.7","4.639","300.7","1018.163","11.07","70.76","326.1","0.0"],
    [1394886,"2026-01-15 10:00:00","32466","3.362","294.6","5.521","302.6","1018.183","11.63","68.54","345.5","0.0"],
    [1394887,"2026-01-15 10:10:00","32467","3.5069999999999997","305.9","4.639","323.2","1018.078","12.02","67.45","364.8","0.0"],
    [1394888,"2026-01-15 10:20:00","32468","2.193","296.7","3.757","305","1018.0319999999999","12.53","66.0","378.7","0.0"],
    [1394889,"2026-01-15 10:30:00","32469","2.281","282.5","3.789","273.8","1018.043","12.82","65.42","394.4","0.0"],
    [1394890,"2026-01-15 10:40:00","32470","2.095","284.0","3.299","285.6","1017.971","12.97","66.35","407.2","0.0"],
    [1394891,"2026-01-15 10:50:00","32471","1.162","259.8","3.528","286.1","1017.9060000000001","13.29","67.6","418.1","0.0"],
    [1394892,"2026-01-15 11:00:00","32472","1.3619999999999999","245.1","2.646","278.6","1017.806","13.71","65.72","427.2","0.1"],
    [1394893,"2026-01-15 11:10:00","32473","1.4809999999999999","249.1","2.613","254.2","1017.694","13.7","66.19","435.0","0.0"],
    [1394894,"2026-01-15 11:20:00","32474","1.6369999999999998","239.1","3.234","284.6","1017.5830000000001","13.98","66.29","439.8","0.0"],
    [1394895,"2026-01-15 11:30:00","32475","1.567","231.5","3.169","214.7","1017.453","14.29","66.52","443.9","0.0"],
    [1394896,"2026-01-15 11:40:00","32476","2.738","217.8","4.606","205.5","1017.323","14.16","67.75","443.3","0.0"],
    [1394897,"2026-01-15 11:50:00","32477","2.937","216.1","5.978","221.4","1017.22","14.49","68.31","448.0","0.0"],
    [1394898,"2026-01-15 12:00:00","32478","3.8489999999999998","213.8","6.795","208.5","1017.079","14.06","70.8","455.6","0.0"],
    [1394899,"2026-01-15 12:10:00","32479","3.43","215.4","6.239","183.5","1016.962","14.15","71.94","454.9","0.0"],
    [1394900,"2026-01-15 12:20:00","32480","3.0989999999999998","214.4","4.835","211","1016.852","14.4","72.27","453.3","0.0"],
    [1394901,"2026-01-15 12:30:00","32481","2.8169999999999997","209.4","5.161","224.3","1016.677","14.44","73.45","451.1","0.0"],
    [1394902,"2026-01-15 12:40:00","32482","3.487","216.7","6.403","222.2","1016.5319999999999","14.49","73.43","442.8","0.0"],
    [1394903,"2026-01-15 12:50:00","32483","3.068","209.3","6.403","216.6","1016.3610000000001","14.59","73.16","440.5","0.0"],
    [1394904,"2026-01-15 13:00:00","32484","3.128","209.9","4.639","216.9","1016.201","14.48","74.47","433.2","0.0"],
    [1394905,"2026-01-15 13:10:00","32485","3.023","197.2","4.998","217.8","1016.044","14.36","76.14","432.7","0.0"],
    [1394906,"2026-01-15 13:20:00","32486","2.77","190.5","5.031","177.8","1015.8839999999999","14.28","77.52","414.9","0.0"],
    [1394907,"2026-01-15 13:30:00","32487","2.8339999999999996","195.5","5.357","220.8","1015.705","14.39","77.35","404.4","0.0"],
    [1394908,"2026-01-15 13:40:00","32488","3.147","193.5","5.39","184.3","1015.6060000000001","14.39","77.83","386.3","0.0"],
    [1394909,"2026-01-15 13:50:00","32489","2.7489999999999997","207.0","5.684","207","1015.4680000000001","14.66","77.76","378.0","0.0"],
    [1394910,"2026-01-15 14:00:00","32490","3.5980000000000003","208.6","7.513","210.9","1015.319","14.61","77.81","364.0","0.0"],
    [1394911,"2026-01-15 14:10:00","32491","3.187","211.1","5.521","212.4","1015.181","14.99","74.97","347.5","0.0"],
    [1394912,"2026-01-15 14:20:00","32492","3.924","212.0","6.37","209.3","1015.043","14.93","71.33","330.8","0.0"],
    [1394913,"2026-01-15 14:30:00","32493","4.628","210.6","7.089","202.3","1015.0089999999999","14.72","68.38","312.2","0.0"],
    [1394914,"2026-01-15 14:40:00","32494","4.284","214.4","7.219","199.5","1014.987","14.64","69.59","289.5","0.0"],
    [1394915,"2026-01-15 14:50:00","32495","4.388999999999999","212.1","7.35","224.1","1014.9739999999999","14.55","68.29","269.3","0.0"],
    [1394916,"2026-01-15 15:00:00","32496","4.106","211.4","7.252","216.3","1015.002","14.56","68.66","244.7","0.0"],
    [1394917,"2026-01-15 15:10:00","32497","3.472","212.2","6.239","223.8","1015.06","14.47","68.74","221.0","0.0"],
    [1394918,"2026-01-15 15:20:00","32498","2.5140000000000002","212.8","5.031","212.3","1015.049","14.6","67.6","193.2","0.0"],
    [1394919,"2026-01-15 15:30:00","32499","4.3389999999999995","217.0","7.807","210.5","1015.018","14.4","65.56","170.7","0.0"],
    [1394920,"2026-01-15 15:40:00","32500","4.0","217.1","6.566","221.7","1014.957","14.2","66.52","148.6","0.0"],
    [1394921,"2026-01-15 15:50:00","32501","3.792","213.9","6.272","194.2","1014.9580000000001","14.09","68.33","105.8","0.0"],
    [1394922,"2026-01-15 16:00:00","32502","3.721","219.0","7.481","213.2","1014.99","13.78","68.41","68.85","0.0"],
    [1394923,"2026-01-15 16:10:00","32503","3.234","215.2","5.455","207.7","1015.0039999999999","13.5","69.99","35.9","0.0"],
    [1394924,"2026-01-15 16:20:00","32504","3.0669999999999997","214.0","6.305","240.4","1015.0089999999999","13.17","72.42","19.04","0.0"],
    [1394925,"2026-01-15 16:30:00","32505","3.3569999999999998","213.1","6.403","230.9","1014.995","13.0","72.88","13.09","0.0"],
    [1394926,"2026-01-15 16:40:00","32506","3.736","215.9","6.403","232.2","1014.942","12.89","73.36","6.742999999999999","0.0"],
    [1394927,"2026-01-15 16:50:00","32507","3.7539999999999996","221.9","5.978","220.8","1014.89","13.0","72.49","1.5230000000000001","0.0"],
    [1394928,"2026-01-15 17:00:00","32508","3.301","221.0","5.651","201","1014.944","12.81","73.43","-1.141","0.0"],
    [1394929,"2026-01-15 17:10:00","32509","3.614","219.9","7.023","201.5","1014.962","12.74","74.34","-2.5269999999999997","0.0"],
    [1394930,"2026-01-15 17:20:00","32510","3.4560000000000004","219.3","6.207","187.1","1015.0269999999999","12.73","75.61","-2.701","0.0"],
    [1394931,"2026-01-15 17:30:00","32511","3.359","223.5","6.403","215","1015.159","12.72","76.97","-2.775","0.0"],
    [1394932,"2026-01-15 17:40:00","32512","2.242","238.2","5.978","217.2","1015.255","12.55","77.87","-2.7569999999999997","0.0"],
    [1394933,"2026-01-15 17:50:00","32513","1.294","259.2","2.417","269.8","1015.3610000000001","12.01","79.56","-2.761","0.0"],
    [1394934,"2026-01-15 18:00:00","32514","1.88","228.0","4.149","227","1015.4839999999999","11.81","80.5","-3.114","0.0"],
    [1394935,"2026-01-15 18:10:00","32515","2.9389999999999996","227.0","4.737","211.9","1015.563","12.51","77.58","-3.287","0.0"],
    [1394936,"2026-01-15 18:20:00","32516","1.485","234.4","2.809","217.2","1015.635","12.31","77.07","-2.775","0.0"],
    [1394937,"2026-01-15 18:30:00","32517","1.5019999999999998","233.0","2.973","235.9","1015.6610000000001","11.81","78.77","-2.845","0.0"],
    [1394938,"2026-01-15 18:40:00","32518","2.238","231.4","3.757","223.1","1015.6410000000001","12.03","78.49","-2.805","0.0"],
    [1394939,"2026-01-15 18:50:00","32519","3.25","220.5","4.704","228.4","1015.556","12.51","77.09","-3.048","0.0"],
    [1394940,"2026-01-15 19:00:00","32520","1.794","233.1","4.018","210.3","1015.541","12.39","76.91","-2.761","0.0"],
    [1394941,"2026-01-15 19:10:00","32521","1.119","231.2","2.091","223.4","1015.577","11.91","78.34","-2.772","0.0"],
    [1394942,"2026-01-15 19:20:00","32522","1.45","230.6","2.515","246.4","1015.573","11.54","79.53","-2.793","0.0"],
    [1394943,"2026-01-15 19:30:00","32523","1.545","232.1","2.679","241.5","1015.587","11.42","79.61","-2.77","0.0"],
    [1394944,"2026-01-15 19:40:00","32524","1.33","229.0","2.091","264.8","1015.628","11.33","79.17","-2.761","0.0"],
    [1394945,"2026-01-15 19:50:00","32525","0.557","260.8","1.764","246","1015.7310000000001","10.99","79.65","-2.767","0.0"],
    [1394946,"2026-01-15 20:00:00","32526","0.21100000000000002","259.0","1.013","250.1","1015.672","10.3","81.9","-3.2489999999999997","0.0"],
    [1394947,"2026-01-15 20:10:00","32527","0.44799999999999995","259.8","0.882","249.6","1015.6469999999999","9.95","82.4","-2.801","0.0"],
    [1394948,"2026-01-15 20:20:00","32528","0.535","274.2","0.882","269.9","1015.668","9.64","84.3","-2.779","0.0"],
    [1394949,"2026-01-15 20:30:00","32529","0.6970000000000001","271.1","1.176","267.6","1015.706","9.46","84.1","-2.763","0.0"],
    [1394950,"2026-01-15 20:40:00","32530","0.318","276.5","0.719","266.8","1015.6560000000001","9.19","82.7","-2.763","0.0"],
    [1394951,"2026-01-15 20:50:00","32531","0.675","277.8","0.947","274.4","1015.578","9.1","83.4","-2.764","0.0"],
    [1394952,"2026-01-15 21:00:00","32532","0.488","259.5","0.849","260.1","1015.566","9.05","82.3","-2.721","0.0"],
    [1394953,"2026-01-15 21:10:00","32533","0.08800000000000001","263.2","0.425","263.2","1015.493","9.06","80.4","-2.685","0.0"],
    [1394954,"2026-01-15 21:20:00","32534","0.245","271.1","0.882","272.2","1015.446","8.84","81.1","-2.73","0.0"],
    [1394955,"2026-01-15 21:30:00","32535","0.713","263.4","0.915","272.6","1015.408","8.58","82.5","-2.701","0.0"],
    [1394956,"2026-01-15 21:40:00","32536","0.506","265.2","1.274","271.5","1015.2719999999999","8.55","82.8","-2.571","0.0"],
    [1394957,"2026-01-15 21:50:00","32537","1.168","271.0","1.96","272.6","1015.27","8.4","83.0","-2.773","0.0"],
    [1394958,"2026-01-15 22:00:00","32538","1.016","273.8","1.568","279.2","1015.2289999999999","8.37","83.7","-2.7710000000000004","0.0"],
    [1394959,"2026-01-15 22:10:00","32539","1.155","267.3","1.666","283","1015.21","8.38","83.7","-2.78","0.0"],
    [1394960,"2026-01-15 22:20:00","32540","0.838","258.0","1.47","265.4","1015.2139999999999","8.64","82.7","-2.752","0.0"],
    [1394961,"2026-01-15 22:30:00","32541","0.8490000000000001","269.9","1.993","279.4","1015.253","8.61","82.4","-2.764","0.0"],
    [1394962,"2026-01-15 22:40:00","32542","0.747","240.4","1.241","241.2","1015.296","8.35","82.8","-2.784","0.0"],
    [1394963,"2026-01-15 22:50:00","32543","0.902","243.6","1.405","248.4","1015.2310000000001","8.33","82.4","-2.697","0.0"],
    [1394964,"2026-01-15 23:00:00","32544","0.8370000000000001","269.4","1.601","255.6","1015.0889999999999","8.0","83.4","-2.717","0.0"],
    [1394965,"2026-01-15 23:10:00","32545","1.121","287.4","1.731","286.4","1014.9839999999999","7.602","84.4","-2.718","0.0"],
    [1394966,"2026-01-15 23:20:00","32546","1.59","283.3","2.123","278.5","1014.946","7.505","85.4","-2.7","0.0"],
    [1394967,"2026-01-15 23:30:00","32547","1.598","270.0","2.581","272.1","1014.956","7.881","84.8","-2.387","0.0"],
    [1394968,"2026-01-15 23:40:00","32548","1.679","281.7","2.515","274.4","1014.938","7.812","84.4","-1.8330000000000002","0.0"],
    [1394969,"2026-01-15 23:50:00","32549","1.4140000000000001","278.1","2.417","270.6","1014.921","7.64","85.7","-0.8240000000000001","0.0"],
    [1394970,"2026-01-16 00:00:00","32550","1.433","269.1","1.927","269.2","1014.8889999999999","8.01","85.3","-0.6509999999999999","0.0"],
    [1394971,"2026-01-16 00:10:00","32551","1.834","274.7","2.319","275.2","1014.813","8.07","83.8","-0.8420000000000001","0.0"],
    [1394972,"2026-01-16 00:20:00","32552","1.5090000000000001","262.5","2.254","261.6","1014.7339999999999","7.965","84.0","-1.286","0.0"],
    [1394973,"2026-01-16 00:30:00","32553","1.778","268.1","2.711","266.3","1014.672","7.9079999999999995","83.7","-2.186","0.0"],
    [1394974,"2026-01-16 00:40:00","32554","1.886","275.7","2.842","283.7","1014.617","7.848","83.3","-2.0540000000000003","0.0"],
    [1394975,"2026-01-16 00:50:00","32555","1.454","280.2","2.221","267.8","1014.5139999999999","7.359","84.6","-2.491","0.0"],
    [1394976,"2026-01-16 01:00:00","32556","1.9969999999999999","275.4","2.679","273.4","1014.533","7.489","84.9","-2.4730000000000003","0.0"],
    [1394977,"2026-01-16 01:10:00","32557","1.455","278.3","2.189","282.3","1014.5060000000001","7.252000000000001","84.9","-2.339","0.0"],
    [1394978,"2026-01-16 01:20:00","32558","1.6540000000000001","277.0","2.417","279.3","1014.575","7.28","85.0","-2.455","0.0"],
    [1394979,"2026-01-16 01:30:00","32559","1.4569999999999999","280.1","2.189","277.3","1014.523","7.106","85.1","-2.392","0.0"],
    [1394980,"2026-01-16 01:40:00","32560","1.133","280.3","1.731","276.6","1014.451","7.1","86.0","-2.589","0.0"],
    [1394981,"2026-01-16 01:50:00","32561","1.51","275.2","2.287","283.5","1014.393","7.197","85.8","-2.658","0.0"],
    [1394982,"2026-01-16 02:00:00","32562","1.879","276.9","2.515","272.3","1014.3710000000001","7.117000000000001","85.4","-2.416","0.0"],
    [1394983,"2026-01-16 02:10:00","32563","2.043","277.7","2.45","273.9","1014.3910000000001","6.77","85.7","-2.049","0.0"],
    [1394984,"2026-01-16 02:20:00","32564","1.655","275.2","2.385","278.4","1014.306","6.638999999999999","86.6","-2.245","0.0"],
    [1394985,"2026-01-16 02:30:00","32565","1.655","273.9","2.548","281.2","1014.262","6.67","86.4","-2.184","0.0"],
    [1394986,"2026-01-16 02:40:00","32566","1.651","274.0","2.417","271.3","1014.2180000000001","6.662999999999999","86.4","-2.481","0.0"],
    [1394987,"2026-01-16 02:50:00","32567","1.89","273.2","2.777","277.5","1014.2410000000001","6.567","86.5","-2.102","0.0"],
    [1394988,"2026-01-16 03:00:00","32568","1.376","285.6","2.221","269.7","1014.1469999999999","6.242000000000001","86.7","-2.072","0.0"],
    [1394989,"2026-01-16 03:10:00","32569","1.013","290.3","1.96","302.3","1014.05","5.896","87.6","-2.366","0.0"],
    [1394990,"2026-01-16 03:20:00","32570","0.591","274.5","1.013","284","1014.023","5.952999999999999","88.0","-2.456","0.0"],
    [1394991,"2026-01-16 03:30:00","32571","0.036000000000000004","265.9","0.653","266.6","1014.0160000000001","5.957000000000001","87.7","-2.4730000000000003","0.0"],
    [1394992,"2026-01-16 03:40:00","32572","1.8459999999999999","271.7","2.711","265.6","1013.9830000000001","5.959","87.5","-2.742","0.0"],
    [1394993,"2026-01-16 03:50:00","32573","1.925","280.5","2.515","275.9","1013.9910000000001","5.9510000000000005","86.7","-2.1590000000000003","0.0"],
    [1394994,"2026-01-16 04:00:00","32574","1.642","281.5","2.091","282.1","1014.0360000000001","5.769","87.0","-2.138","0.0"],
    [1394995,"2026-01-16 04:10:00","32575","0.997","286.4","1.797","277.2","1013.948","5.8629999999999995","86.7","-2.084","0.0"],
    [1394996,"2026-01-16 04:20:00","32576","0.375","296.4","0.98","294.1","1013.89","5.544","86.8","-2.575","0.0"],
    [1394997,"2026-01-16 04:30:00","32577","0.498","282.0","1.078","265.3","1013.8739999999999","5.617999999999999","88.0","-2.7260000000000004","0.0"],
    [1394998,"2026-01-16 04:40:00","32578","2.5789999999999997","279.5","3.789","282.7","1013.9760000000001","5.982","86.6","-2.509","0.0"],
    [1394999,"2026-01-16 04:50:00","32579","2.597","274.8","3.724","281.2","1014.048","5.775","86.5","-2.05","0.0"],
    [1395000,"2026-01-16 05:00:00","32580","1.652","281.5","2.319","286.9","1014.049","5.7170000000000005","86.8","-1.986","0.0"],
    [1395001,"2026-01-16 05:10:00","32581","2.148","283.2","2.842","281.8","1013.9889999999999","5.746","86.8","-2.115","0.0"],
    [1395002,"2026-01-16 05:20:00","32582","1.547","290.4","2.809","281.1","1013.9019999999999","5.603","86.4","-2.168","0.0"],
    [1395003,"2026-01-16 05:30:00","32583","1.002","287.5","2.385","283","1013.8480000000001","5.568","86.6","-2.722","0.0"],
    [1395004,"2026-01-16 05:40:00","32584","0.902","297.4","1.666","316.4","1013.8389999999999","5.612","86.0","-2.6319999999999997","0.0"],
    [1395005,"2026-01-16 05:50:00","32585","1.28","277.9","2.156","282.9","1013.78","5.77","85.5","-2.6630000000000003","0.0"],
    [1395006,"2026-01-16 06:00:00","32586","1.829","283.9","3.071","281.6","1013.8510000000001","5.68","85.0","-2.616","0.0"],
    [1395007,"2026-01-16 06:10:00","32587","2.86","274.2","3.887","270.7","1013.926","5.772","84.3","-2.219","0.0"],
    [1395008,"2026-01-16 06:20:00","32588","2.07","279.4","2.973","268.9","1013.9839999999999","5.528","85.3","-2.06","0.0"],
    [1395009,"2026-01-16 06:30:00","32589","2.079","279.1","2.613","276.8","1013.943","5.765","84.9","-2.218","0.0"],
    [1395010,"2026-01-16 06:40:00","32590","2.119","275.5","2.744","271.1","1013.935","6.218999999999999","82.5","-2.104","0.0"],
    [1395011,"2026-01-16 06:50:00","32591","2.131","282.1","3.071","283.3","1014.003","5.978","82.9","-2.0","0.0"],
    [1395012,"2026-01-16 07:00:00","32592","1.9069999999999998","276.1","2.777","272.7","1014.018","5.877000000000001","83.8","-1.915","0.0"],
    [1395013,"2026-01-16 07:10:00","32593","2.359","268.7","3.495","267.7","1014.0089999999999","6.294","82.1","-1.011","0.0"],
    [1395014,"2026-01-16 07:20:00","32594","2.048","267.6","3.495","273.1","1013.9889999999999","6.482","80.4","4.726","0.0"],
    [1395015,"2026-01-16 07:30:00","32595","1.506","262.3","2.744","260.2","1014.075","6.537000000000001","80.2","10.66","0.0"],
    [1395016,"2026-01-16 07:40:00","32596","1.53","272.4","2.417","278.4","1014.1160000000001","6.515","80.3","22.49","0.0"],
    [1395017,"2026-01-16 07:50:00","32597","1.98","272.9","3.169","265.7","1014.0939999999999","6.321000000000001","81.5","33.97","0.0"],
    [1395018,"2026-01-16 08:00:00","32598","1.8119999999999998","269.9","2.777","274.4","1014.179","6.513","80.8","45.72","0.0"],
    [1395019,"2026-01-16 08:10:00","32599","1.585","280.9","2.777","277.7","1014.263","6.641","80.6","61.83","0.0"],
    [1395020,"2026-01-16 08:20:00","32600","1.624","277.6","2.613","269.2","1014.248","7.084","79.79","77.02","0.0"],
    [1395021,"2026-01-16 08:30:00","32601","2.061","282.7","3.038","268.9","1014.284","7.6160000000000005","78.43","94.4","0.0"],
    [1395022,"2026-01-16 08:40:00","32602","1.9280000000000002","287.3","3.201","285.6","1014.387","8.23","77.37","113.9","0.0"],
    [1395023,"2026-01-16 08:50:00","32603","2.498","287.2","3.397","284.3","1014.447","8.76","75.27","171.3","0.0"],
    [1395024,"2026-01-16 09:00:00","32604","2.6060000000000003","295.8","3.724","300","1014.438","9.3","73.17","215.3","0.0"],
    [1395025,"2026-01-16 09:10:00","32605","2.1319999999999997","295.2","3.789","291.8","1014.435","9.91","71.14","241.9","0.0"],
    [1395026,"2026-01-16 09:20:00","32606","2.924","293.7","4.41","303.5","1014.4760000000001","10.38","68.57","271.8","0.0"],
    [1395027,"2026-01-16 09:30:00","32607","2.673","289.5","4.247","304.6","1014.5989999999999","10.68","67.04","248.7","0.0"],
    [1395028,"2026-01-16 09:40:00","32608","2.6180000000000003","292.7","4.606","296","1014.676","10.86","66.57","288.1","0.0"],
    [1395029,"2026-01-16 09:50:00","32609","2.33","281.6","3.495","290.5","1014.7610000000001","11.14","65.07","242.8","0.0"],
    [1395030,"2026-01-16 10:00:00","32610","1.7380000000000002","280.4","3.005","298.6","1014.852","11.12","64.8","212.1","0.0"],
    [1395031,"2026-01-16 10:10:00","32611","1.6030000000000002","274.1","3.528","288.5","1014.847","11.26","64.04","203.5","0.0"],
    [1395032,"2026-01-16 10:20:00","32612","1.767","282.2","2.875","269.5","1014.83","11.32","63.68","205.9","0.0"],
    [1395033,"2026-01-16 10:30:00","32613","1.906","276.0","3.136","288.7","1014.738","11.54","62.96","196.4","0.0"],
    [1395034,"2026-01-16 10:40:00","32614","2.278","286.6","3.463","298.1","1014.696","11.62","62.93","157.5","0.0"],
    [1395035,"2026-01-16 10:50:00","32615","2.6519999999999997","284.5","3.691","281.5","1014.7189999999999","11.55","62.73","147.4","0.0"],
    [1395036,"2026-01-16 11:00:00","32616","2.142","287.8","2.973","291.3","1014.687","11.49","63.27","155.3","0.0"],
    [1395037,"2026-01-16 11:10:00","32617","2.399","287.8","3.365","290.8","1014.607","11.59","63.33","178.9","0.0"],
    [1395038,"2026-01-16 11:20:00","32618","2.208","281.4","3.691","290.2","1014.492","11.53","63.49","226.4","0.0"],
    [1395039,"2026-01-16 11:30:00","32619","2.021","295.0","3.267","274.6","1014.317","11.87","62.9","233.1","0.0"],
    [1395040,"2026-01-16 11:40:00","32620","1.218","290.9","1.927","279.4","1014.148","12.33","61.27","209.2","0.0"],
    [1395041,"2026-01-16 11:50:00","32621","1.93","293.6","3.103","278.9","1014.078","12.47","61.65","214.8","0.0"],
    [1395042,"2026-01-16 12:00:00","32622","1.254","284.6","2.025","287.8","1013.8580000000001","13.05","59.71","399.3","0.0"],
    [1395043,"2026-01-16 12:10:00","32623","0.6659999999999999","331.3","1.47","321.6","1013.7130000000001","14.5","56.23","563.0","0.0"],
    [1395044,"2026-01-16 12:20:00","32624","0.511","42.47","1.568","57.87","1013.6310000000001","15.06","53.96","541.0","0.0"],
    [1395045,"2026-01-16 12:30:00","32625","1.531","63.84","2.189","77.4","1013.5089999999999","13.98","58.04","370.7","0.0"],
    [1395046,"2026-01-16 12:40:00","32626","1.35","75.58","2.548","44.56","1013.326","14.29","56.98","531.6","0.0"],
    [1395047,"2026-01-16 12:50:00","32627","1.3730000000000002","63.66","2.613","55.05","1013.186","14.44","56.91","491.0","0.0"],
    [1395048,"2026-01-16 13:00:00","32628","2.088","68.04","3.169","99.4","1013.02","14.39","57.1","469.0","0.0"],
    [1395049,"2026-01-16 13:10:00","32629","2.428","95.0","3.659","88.5","1012.923","13.63","62.78","389.7","0.0"],
    [1395050,"2026-01-16 13:20:00","32630","2.015","96.4","3.038","116","1012.956","13.16","64.9","197.4","0.0"],
    [1395051,"2026-01-16 13:30:00","32631","2.338","90.8","3.43","87.4","1012.948","13.05","69.42","273.4","0.0"],
    [1395052,"2026-01-16 13:40:00","32632","2.031","94.3","3.365","110.4","1013.0110000000001","13.32","71.97","281.8","0.0"],
    [1395053,"2026-01-16 13:50:00","32633","2.536","91.8","4.214","92.5","1013.0260000000001","13.16","73.07","258.7","0.0"],
    [1395054,"2026-01-16 14:00:00","32634","2.246","93.0","3.593","78.37","1012.932","13.45","74.18","443.3","0.0"],
    [1395055,"2026-01-16 14:10:00","32635","2.747","87.0","4.018","80.3","1012.8860000000001","13.64","73.5","342.0","0.0"],
    [1395056,"2026-01-16 14:20:00","32636","2.035","93.9","3.038","95.6","1012.923","13.27","71.41","155.1","0.0"],
    [1395057,"2026-01-16 14:30:00","32637","2.116","88.6","3.071","86.6","1013.013","13.29","71.36","124.6","0.0"],
    [1395058,"2026-01-16 14:40:00","32638","1.935","91.4","3.332","71.2","1013.023","13.25","69.52","100.7","0.0"],
    [1395059,"2026-01-16 14:50:00","32639","1.469","90.2","2.711","131","1012.998","13.35","64.42","92.0","0.0"],
    [1395060,"2026-01-16 15:00:00","32640","1.4869999999999999","81.7","2.156","41.99","1012.9839999999999","13.42","63.59","90.2","0.0"],
    [1395061,"2026-01-16 15:10:00","32641","1.349","81.2","2.45","69.14","1013.002","13.4","67.25","89.6","0.0"],
    [1395062,"2026-01-16 15:20:00","32642","1.949","83.7","3.528","80.9","1012.928","13.37","71.15","94.3","0.0"],
    [1395063,"2026-01-16 15:30:00","32643","2.165","84.3","3.953","87.5","1012.8489999999999","13.33","74.92","79.37","0.0"],
    [1395064,"2026-01-16 15:40:00","32644","1.944","78.11","2.842","82.7","1012.785","13.23","77.67","45.27","0.0"],
    [1395065,"2026-01-16 15:50:00","32645","2.279","76.59","3.528","69.86","1012.7860000000001","13.15","78.84","31.0","0.0"],
    [1395066,"2026-01-16 16:00:00","32646","2.248","74.87","3.691","85.8","1012.8489999999999","13.11","80.1","18.69","0.0"],
    [1395067,"2026-01-16 16:10:00","32647","2.4330000000000003","68.95","3.397","68.13","1012.8960000000001","13.06","81.3","22.18","0.0"],
    [1395068,"2026-01-16 16:20:00","32648","2.133","72.33","3.267","76.55","1012.872","13.07","81.7","24.29","0.0"],
    [1395069,"2026-01-16 16:30:00","32649","2.2359999999999998","71.61","3.365","65.62","1012.877","13.07","82.4","6.777","0.0"],
    [1395070,"2026-01-16 16:40:00","32650","2.6910000000000003","67.94","3.822","81.6","1012.846","13.05","82.8","2.025","0.0"],
    [1395071,"2026-01-16 16:50:00","32651","2.483","72.47","3.626","78.27","1012.7819999999999","13.09","84.3","0.981","0.0"],
    [1395072,"2026-01-16 17:00:00","32652","1.974","71.12","2.94","72.16","1012.819","13.06","86.0","-0.128","0.0"],
    [1395073,"2026-01-16 17:10:00","32653","2.04","64.51","3.005","57.01","1012.873","13.05","87.1","-1.0859999999999999","0.0"],
    [1395074,"2026-01-16 17:20:00","32654","1.6440000000000001","60.52","3.43","36.31","1012.909","13.02","87.0","-1.311","0.0"],
    [1395075,"2026-01-16 17:30:00","32655","1.055","64.44","2.711","65.12","1013.0","13.2","85.1","-1.3419999999999999","0.0"],
    [1395076,"2026-01-16 17:40:00","32656","0.703","124.4","2.581","86.1","1013.044","13.17","85.1","-1.262","0.0"],
    [1395077,"2026-01-16 17:50:00","32657","0.93","177.3","2.385","185.1","1013.1360000000001","13.29","81.7","-1.261","0.0"],
    [1395078,"2026-01-16 18:00:00","32658","1.111","193.5","3.005","223.5","1013.203","13.51","78.74","-1.19","0.0"],
    [1395079,"2026-01-16 18:10:00","32659","0.47100000000000003","203.6","2.744","298.1","1013.2","13.42","78.84","-1.298","0.0"],
    [1395080,"2026-01-16 18:20:00","32660","0.878","175.2","3.005","174.5","1013.2560000000001","13.35","78.33","-1.41","0.0"],
    [1395081,"2026-01-16 18:30:00","32661","1.041","145.6","3.169","188.2","1013.295","13.46","77.35","-1.28","0.0"],
    [1395082,"2026-01-16 18:40:00","32662","0.361","114.7","1.372","107","1013.355","13.53","77.21","-1.228","0.0"],
    [1395083,"2026-01-16 18:50:00","32663","0.857","82.0","2.613","47.73","1013.368","13.47","77.55","-1.347","0.0"],
    [1395084,"2026-01-16 19:00:00","32664","0.598","94.9","1.176","95","1013.37","13.3","79.25","-2.6839999999999997","0.1"],
    [1395085,"2026-01-16 19:10:00","32665","0.775","105.3","1.241","89.1","1013.415","13.1","81.3","-2.562","0.0"],
    [1395086,"2026-01-16 19:20:00","32666","0.823","103.4","1.405","122.7","1013.434","13.16","81.9","-1.672","0.0"],
    [1395087,"2026-01-16 19:30:00","32667","0.583","123.3","1.993","113.4","1013.472","13.18","82.4","-2.2159999999999997","0.0"],
    [1395088,"2026-01-16 19:40:00","32668","0.126","126.8","0.686","148.1","1013.4810000000001","13.18","82.3","-2.5180000000000002","0.0"],
    [1395089,"2026-01-16 19:50:00","32669","0.188","137.4","1.143","162.9","1013.482","13.1","83.0","-1.8219999999999998","0.0"],
    [1395090,"2026-01-16 20:00:00","32670","0.43700000000000006","150.7","1.503","159.3","1013.46","13.18","82.4","-1.9","0.0"],
    [1395091,"2026-01-16 20:10:00","32671","0.369","150.7","1.176","176.1","1013.456","13.12","82.8","-2.001","0.0"],
    [1395092,"2026-01-16 20:20:00","32672","0.452","166.5","1.176","174.5","1013.3939999999999","13.15","82.7","-1.8530000000000002","0.0"],
    [1395093,"2026-01-16 20:30:00","32673","0.474","185.8","1.307","179.5","1013.3739999999999","13.05","81.6","-1.4140000000000001","0.0"],
    [1395094,"2026-01-16 20:40:00","32674","0.302","177.8","0.915","168.4","1013.4169999999999","12.75","81.5","-1.301","0.0"],
    [1395095,"2026-01-16 20:50:00","32675","0.064","139.9","0.457","142.4","1013.3969999999999","12.76","80.4","-1.6769999999999998","0.0"],
    [1395096,"2026-01-16 21:00:00","32676","0.214","122.6","0.653","121.2","1013.3860000000001","12.53","82.2","-1.96","0.0"],
    [1395097,"2026-01-16 21:10:00","32677","0.8190000000000001","94.1","1.241","94.8","1013.4169999999999","12.22","83.3","-1.271","0.0"],
    [1395098,"2026-01-16 21:20:00","32678","0.439","104.4","0.849","106.2","1013.414","12.06","84.2","-1.52","0.0"],
    [1395099,"2026-01-16 21:30:00","32679","0.389","102.9","0.653","102.8","1013.372","11.95","84.1","-1.72","0.0"],
    [1395100,"2026-01-16 21:40:00","32680","0.743","88.9","0.98","82.9","1013.385","11.99","85.1","-1.261","0.0"],
    [1395101,"2026-01-16 21:50:00","32681","0.621","91.5","0.98","86.3","1013.352","12.15","86.2","-1.264","0.0"],
    [1395102,"2026-01-16 22:00:00","32682","0.425","100.7","0.719","98.7","1013.324","12.13","87.3","-1.354","0.0"],
    [1395103,"2026-01-16 22:10:00","32683","0.606","102.6","1.176","101","1013.29","12.11","88.1","-1.284","0.0"],
    [1395104,"2026-01-16 22:20:00","32684","0.774","100.4","1.209","108.5","1013.3","12.02","88.7","-1.39","0.0"],
    [1395105,"2026-01-16 22:30:00","32685","0.223","98.0","0.653","100.8","1013.2610000000001","12.03","89.0","-1.495","0.0"],
    [1395106,"2026-01-16 22:40:00","32686","0.541","100.9","1.339","99.9","1013.257","11.93","89.3","-1.199","0.0"],
    [1395107,"2026-01-16 22:50:00","32687","1.083","103.0","2.058","104.6","1013.155","12.14","89.6","-1.137","0.0"],
    [1395108,"2026-01-16 23:00:00","32688","1.01","103.9","1.829","107.2","1013.09","12.6","88.0","-0.645","0.0"],
    [1395109,"2026-01-16 23:10:00","32689","1.3559999999999999","96.9","2.319","95.5","1012.9889999999999","12.71","87.1","-0.8140000000000001","0.0"],
    [1395110,"2026-01-16 23:20:00","32690","1.4180000000000001","92.0","2.515","98.4","1012.8989999999999","13.01","85.0","-0.6970000000000001","0.0"],
    [1395111,"2026-01-16 23:30:00","32691","1.9269999999999998","88.5","2.94","86.9","1012.7439999999999","13.14","84.5","-1.123","0.0"],
    [1395112,"2026-01-16 23:40:00","32692","1.629","89.6","3.005","95.7","1012.617","12.94","85.7","-0.932","0.0"],
    [1395113,"2026-01-16 23:50:00","32693","1.575","99.6","3.953","81.3","1012.562","13.2","84.0","-1.396","0.0"],
    [1395114,"2026-01-17 00:00:00","32694","2.8480000000000003","95.3","4.769","97.4","1012.493","13.19","81.9","-2.406","0.0"],
    [1395115,"2026-01-17 00:10:00","32695","2.045","56.94","2.94","54.93","1012.3760000000001","12.68","82.2","-2.301","0.1"],
    [1395116,"2026-01-17 00:20:00","32696","1.67","62.02","2.515","50.62","1012.322","12.45","86.0","-1.265","0.0"],
    [1395117,"2026-01-17 00:30:00","32697","2.075","59.57","2.613","62.56","1012.2130000000001","12.56","88.0","-1.2229999999999999","0.0"],
    [1395118,"2026-01-17 00:40:00","32698","2.165","63.88","3.038","58.68","1012.185","12.7","87.6","-1.19","0.0"],
    [1395119,"2026-01-17 00:50:00","32699","2.398","63.52","3.397","67.83","1012.1","12.8","87.5","-1.23","0.0"],
    [1395120,"2026-01-17 01:00:00","32700","2.5","61.12","3.299","59.73","1011.998","12.98","86.9","-1.247","0.0"],
    [1395121,"2026-01-17 01:10:00","32701","2.6289999999999996","60.48","4.116","51.79","1011.872","13.05","86.6","-1.324","0.0"],
    [1395122,"2026-01-17 01:20:00","32702","2.551","66.0","3.691","69.69","1011.7760000000001","13.09","87.7","-1.795","0.0"],
    [1395123,"2026-01-17 01:30:00","32703","2.798","65.12","4.247","71.02","1011.7080000000001","13.06","88.8","-1.426","0.0"],
    [1395124,"2026-01-17 01:40:00","32704","2.861","65.43","4.312","75.18","1011.709","13.11","88.1","-1.305","0.0"],
    [1395125,"2026-01-17 01:50:00","32705","3.142","67.32","4.541","66.69","1011.694","13.19","88.2","-1.261","0.0"],
    [1395126,"2026-01-17 02:00:00","32706","3.608","73.52","5.455","77.13","1011.6289999999999","13.32","89.5","-1.158","0.0"],
    [1395127,"2026-01-17 02:10:00","32707","3.597","74.1","5.357","70.29","1011.563","13.34","90.0","-1.21","0.0"],
    [1395128,"2026-01-17 02:20:00","32708","3.293","72.88","4.41","70.06","1011.5","13.32","90.7","-0.74","0.0"],
    [1395129,"2026-01-17 02:30:00","32709","3.907","76.9","5.651","74.26","1011.421","13.39","91.3","-0.927","0.0"],
    [1395130,"2026-01-17 02:40:00","32710","4.141","80.1","5.619","79.19","1011.365","13.43","91.6","-1.252","0.0"],
    [1395131,"2026-01-17 02:50:00","32711","3.759","81.1","5.88","78.63","1011.283","13.43","92.1","-1.224","0.0"],
    [1395132,"2026-01-17 03:00:00","32712","3.517","98.6","5.945","99.2","1011.203","13.42","90.8","-1.349","0.0"],
    [1395133,"2026-01-17 03:10:00","32713","2.463","103.6","4.475","82.7","1011.1519999999999","13.55","88.5","-1.5130000000000001","0.0"],
    [1395134,"2026-01-17 03:20:00","32714","2.406","102.3","5.227","133.1","1011.145","13.56","88.0","-1.262","0.0"],
    [1395135,"2026-01-17 03:30:00","32715","2.311","108.1","4.377","113","1011.073","13.56","87.5","-1.261","0.0"],
    [1395136,"2026-01-17 03:40:00","32716","1.808","107.1","3.757","81.2","1011.038","13.58","87.2","-1.261","0.0"],
    [1395137,"2026-01-17 03:50:00","32717","2.2969999999999997","108.3","4.41","88.2","1010.882","13.59","86.3","-1.261","0.0"],
    [1395138,"2026-01-17 04:00:00","32718","2.64","104.2","5.521","89.7","1010.762","13.64","85.9","-1.261","0.0"],
    [1395139,"2026-01-17 04:10:00","32719","3.075","101.4","5.194","89.7","1010.6339999999999","13.7","85.2","-1.261","0.0"],
    [1395140,"2026-01-17 04:20:00","32720","4.578","96.8","7.023","101.8","1010.44","13.76","85.0","-1.261","0.0"],
    [1395141,"2026-01-17 04:30:00","32721","3.9739999999999998","97.3","6.141","84.9","1010.335","13.77","84.4","-1.261","0.0"],
    [1395142,"2026-01-17 04:40:00","32722","2.694","102.9","6.37","100.9","1010.4069999999999","13.76","85.5","-1.261","0.0"],
    [1395143,"2026-01-17 04:50:00","32723","2.852","103.9","4.737","92.1","1010.42","13.75","86.2","-1.244","0.0"],
    [1395144,"2026-01-17 05:00:00","32724","3.156","97.7","5.945","89.1","1010.347","13.78","86.1","-1.246","0.0"],
    [1395145,"2026-01-17 05:10:00","32725","3.738","94.3","5.129","88.1","1010.302","13.79","86.6","-0.9159999999999999","0.0"],
    [1395146,"2026-01-17 05:20:00","32726","4.129","94.3","5.978","97.8","1010.291","13.79","86.9","-0.563","0.0"],
    [1395147,"2026-01-17 05:30:00","32727","4.355","94.2","5.88","100.9","1010.2460000000001","13.82","86.4","-0.6779999999999999","0.0"],
    [1395148,"2026-01-17 05:40:00","32728","4.165","90.8","6.174","91.5","1010.148","13.85","85.7","-0.613","0.0"],
    [1395149,"2026-01-17 05:50:00","32729","4.91","83.8","6.468","80.8","1010.064","13.76","87.6","-0.708","0.0"],
    [1395150,"2026-01-17 06:00:00","32730","5.224","85.7","7.579","84.8","1010.0269999999999","13.62","88.6","-1.218","0.0"],
    [1395151,"2026-01-17 06:10:00","32731","4.857","89.4","7.383","85.4","1010.102","13.67","87.7","-1.204","0.0"],
    [1395152,"2026-01-17 06:20:00","32732","4.657","90.1","7.317","87.2","1010.0880000000001","13.67","87.3","-1.181","0.0"],
    [1395153,"2026-01-17 06:30:00","32733","5.291","85.4","7.285","87.2","1010.047","13.7","87.8","-0.552","0.0"],
    [1395154,"2026-01-17 06:40:00","32734","5.422000000000001","87.0","8.17","86","1010.071","13.69","87.8","-0.5329999999999999","0.0"],
    [1395155,"2026-01-17 06:50:00","32735","5.335","88.7","7.546","86.3","1010.078","13.72","87.7","-0.557","0.0"],
    [1395156,"2026-01-17 07:00:00","32736","5.625","94.7","8.4","100.8","1010.079","13.79","87.5","-0.604","0.0"],
    [1395157,"2026-01-17 07:10:00","32737","5.175","98.8","8.36","74.93","1010.0830000000001","13.93","85.3","-0.16899999999999998","0.0"],
    [1395158,"2026-01-17 07:20:00","32738","5.135","98.0","8.2","100","1010.1010000000001","14.0","84.4","0.607","0.0"],
    [1395159,"2026-01-17 07:30:00","32739","5.106","97.9","8.4","87.6","1010.084","14.01","84.9","1.973","0.0"],
    [1395160,"2026-01-17 07:40:00","32740","4.855","96.3","7.023","92.7","1010.0980000000001","14.01","85.7","4.742","0.0"],
    [1395161,"2026-01-17 07:50:00","32741","4.498","95.6","7.383","97.4","1010.168","13.92","87.5","5.797999999999999","0.0"],
    [1395162,"2026-01-17 08:00:00","32742","4.856","94.9","7.056","95.5","1010.2310000000001","13.91","88.0","7.987","0.0"],
    [1395163,"2026-01-17 08:10:00","32743","4.955","97.7","8.17","86.8","1010.284","13.91","88.0","5.83","0.0"],
    [1395164,"2026-01-17 08:20:00","32744","5.01","99.6","7.644","94","1010.2660000000001","13.92","87.7","11.48","0.0"],
    [1395165,"2026-01-17 08:30:00","32745","4.99","96.1","7.677","101.4","1010.2719999999999","13.85","88.0","14.33","0.0"],
    [1395166,"2026-01-17 08:40:00","32746","4.547","95.4","7.35","99.2","1010.335","13.88","87.3","26.89","0.0"],
    [1395167,"2026-01-17 08:50:00","32747","5.327000000000001","92.1","7.938","104.4","1010.3910000000001","13.89","88.5","30.94","0.0"],
    [1395168,"2026-01-17 09:00:00","32748","4.902","96.1","7.611","98.1","1010.442","13.87","88.5","27.29","0.0"],
    [1395169,"2026-01-17 09:10:00","32749","5.635","93.5","7.905","96.4","1010.4010000000001","13.9","87.7","36.23","0.0"],
    [1395170,"2026-01-17 09:20:00","32750","5.042","95.4","8.36","109.2","1010.457","13.91","87.7","47.09","0.0"],
    [1395171,"2026-01-17 09:30:00","32751","5.67","93.7","8.33","93.2","1010.471","13.91","87.5","66.87","0.0"],
    [1395172,"2026-01-17 09:40:00","32752","5.691","89.5","9.21","86.2","1010.492","13.96","87.1","43.23","0.0"],
    [1395173,"2026-01-17 09:50:00","32753","5.746","89.9","8.75","90.7","1010.5310000000001","13.91","88.0","59.58","0.0"],
    [1395174,"2026-01-17 10:00:00","32754","5.92","94.6","8.89","98.3","1010.5319999999999","13.94","87.5","70.62","0.0"],
    [1395175,"2026-01-17 10:10:00","32755","5.317","96.3","8.3","104.2","1010.5","13.97","86.4","35.2","0.0"],
    [1395176,"2026-01-17 10:20:00","32756","5.105","97.2","7.807","104.1","1010.5419999999999","14.01","86.1","75.84","0.0"],
    [1395177,"2026-01-17 10:30:00","32757","5.1770000000000005","96.3","7.742","88.6","1010.5269999999999","14.08","86.0","70.4","0.0"],
    [1395178,"2026-01-17 10:40:00","32758","5.483","92.7","8.66","98.2","1010.456","14.08","85.6","73.46","0.0"],
    [1395179,"2026-01-17 10:50:00","32759","5.379","89.6","8.1","83","1010.4730000000001","14.01","87.5","46.5","0.0"],
    [1395180,"2026-01-17 11:00:00","32760","6.106","88.0","8.56","84.7","1010.393","13.91","88.2","86.2","0.0"],
    [1395181,"2026-01-17 11:10:00","32761","5.564","85.8","8.3","86.5","1010.304","13.94","88.1","85.3","0.0"],
    [1395182,"2026-01-17 11:20:00","32762","6.247999999999999","86.4","8.3","84","1010.2130000000001","13.94","87.8","69.33","0.0"],
    [1395183,"2026-01-17 11:30:00","32763","5.917999999999999","86.4","8.98","86.2","1010.053","13.89","88.2","56.49","0.0"],
    [1395184,"2026-01-17 11:40:00","32764","5.695","89.3","8.69","84.4","1009.8810000000001","13.87","88.1","58.84","0.0"],
    [1395185,"2026-01-17 11:50:00","32765","5.2139999999999995","91.2","7.938","74","1009.682","13.88","88.1","80.9","0.0"],
    [1395186,"2026-01-17 12:00:00","32766","5.371","88.7","7.873","85.4","1009.5219999999999","13.81","88.6","60.15","0.0"],
    [1395187,"2026-01-17 12:10:00","32767","4.542","96.2","6.925","100.5","1009.378","13.89","89.1","161.2","0.2"],
    [1395188,"2026-01-17 12:20:00","32768","4.869","97.1","6.86","96.7","1009.2739999999999","13.85","89.3","111.6","0.1"],
    [1395189,"2026-01-17 12:30:00","32769","4.63","100.6","8.36","87.2","1009.205","13.89","87.7","117.4","0.0"],
    [1395190,"2026-01-17 12:40:00","32770","3.906","99.8","8.1","81.6","1009.058","14.01","87.2","134.1","0.0"],
    [1395191,"2026-01-17 12:50:00","32771","4.569","100.0","8.89","104.9","1008.935","14.13","86.9","171.7","0.0"],
    [1395192,"2026-01-17 13:00:00","32772","3.392","101.6","6.795","103.6","1008.829","14.02","88.1","155.2","0.0"],
    [1395193,"2026-01-17 13:10:00","32773","3.5069999999999997","101.7","6.762","101.7","1008.752","14.07","88.3","144.8","0.0"],
    [1395194,"2026-01-17 13:20:00","32774","3.2489999999999997","106.4","6.435","137.4","1008.668","14.17","87.6","199.9","0.0"],
    [1395195,"2026-01-17 13:30:00","32775","3.81","105.7","7.285","125","1008.597","14.3","86.4","134.3","0.0"],
    [1395196,"2026-01-17 13:40:00","32776","3.522","103.9","6.011","91.1","1008.559","14.26","86.3","68.34","0.0"],
    [1395197,"2026-01-17 13:50:00","32777","3.2310000000000003","104.1","6.011","91.1","1008.551","14.21","86.5","60.39","0.0"],
    [1395198,"2026-01-17 14:00:00","32778","2.6830000000000003","107.5","6.076","105","1008.596","14.17","87.0","32.31","0.0"],
    [1395199,"2026-01-17 14:10:00","32779","2.685","110.9","5.619","111.4","1008.534","14.13","87.4","39.13","0.0"],
    [1395200,"2026-01-17 14:20:00","32780","3.3169999999999997","104.5","6.599","121.4","1008.4830000000001","14.03","88.2","23.95","0.0"],
    [1395201,"2026-01-17 14:30:00","32781","2.101","120.6","5.521","126.7","1008.492","13.91","89.0","6.571000000000001","0.0"],
    [1395202,"2026-01-17 14:40:00","32782","2.456","235.5","5.945","228.1","1008.689","12.66","84.0","2.519","0.3"],
    [1395203,"2026-01-17 14:50:00","32783","2.108","202.8","4.443","176.1","1009.062","11.42","89.4","5.452000000000001","1.5"],
    [1395204,"2026-01-17 15:00:00","32784","1.76","238.7","3.332","226.5","1008.885","11.03","93.7","8.82","1.0"],
    [1395205,"2026-01-17 15:10:00","32785","1.2830000000000001","236.9","2.319","223.1","1008.686","10.96","94.9","9.46","0.5"],
    [1395206,"2026-01-17 15:20:00","32786","0.736","242.2","1.699","288","1008.628","10.95","95.1","16.71","0.2"],
    [1395207,"2026-01-17 15:30:00","32787","0.9590000000000001","283.6","1.568","297.8","1008.4889999999999","11.02","95.1","19.66","0.2"],
    [1395208,"2026-01-17 15:40:00","32788","0.6809999999999999","342.5","1.666","324.9","1008.436","11.07","95.1","23.45","0.0"],
    [1395209,"2026-01-17 15:50:00","32789","1.0590000000000002","9.96","1.568","7.003","1008.4580000000001","11.09","94.9","31.3","0.0"],
    [1395210,"2026-01-17 16:00:00","32790","1.3430000000000002","29.45","1.862","32.51","1008.433","11.15","94.3","23.54","0.0"],
    [1395211,"2026-01-17 16:10:00","32791","1.248","39.01","1.764","33.79","1008.428","11.23","93.7","10.94","0.0"],
    [1395212,"2026-01-17 16:20:00","32792","1.466","52.71","2.058","43.44","1008.48","11.27","93.4","8.31","0.0"],
    [1395213,"2026-01-17 16:30:00","32793","1.71","49.16","2.352","57.73","1008.5219999999999","11.25","93.3","2.64","0.2"],
    [1395214,"2026-01-17 16:40:00","32794","1.77","44.62","2.515","46.57","1008.456","11.15","94.2","1.061","0.2"],
    [1395215,"2026-01-17 16:50:00","32795","2.0540000000000003","50.55","3.005","51.71","1008.475","11.14","93.9","0.27699999999999997","0.2"],
    [1395216,"2026-01-17 17:00:00","32796","1.6680000000000001","42.53","2.548","45.32","1008.4060000000001","11.16","93.2","-0.267","0.0"],
    [1395217,"2026-01-17 17:10:00","32797","1.489","58.21","2.515","57.96","1008.443","11.24","92.8","-1.176","0.0"],
    [1395218,"2026-01-17 17:20:00","32798","1.2690000000000001","42.04","2.091","41.98","1008.449","11.3","92.8","-1.261","0.0"],
    [1395219,"2026-01-17 17:30:00","32799","1.74","47.21","2.581","27.41","1008.49","11.29","92.9","-1.261","0.0"],
    [1395220,"2026-01-17 17:40:00","32800","1.859","54.29","3.267","42.18","1008.6210000000001","11.25","92.6","-1.2570000000000001","0.1"],
    [1395221,"2026-01-17 17:50:00","32801","2.137","43.37","3.332","42.77","1008.6560000000001","11.31","92.1","-1.255","0.0"],
    [1395222,"2026-01-17 18:00:00","32802","1.716","42.52","2.679","39.27","1008.6669999999999","11.34","91.9","-1.256","0.0"],
    [1395223,"2026-01-17 18:10:00","32803","1.7690000000000001","42.05","2.809","32.48","1008.666","11.37","91.5","-1.261","0.1"],
    [1395224,"2026-01-17 18:20:00","32804","1.4969999999999999","36.72","2.679","49","1008.632","11.36","91.9","-1.261","0.2"],
    [1395225,"2026-01-17 18:30:00","32805","1.199","43.44","2.613","37.74","1008.696","11.32","92.5","-1.252","0.1"],
    [1395226,"2026-01-17 18:40:00","32806","1.531","47.05","2.417","39.21","1008.672","11.24","93.1","-1.179","0.5"],
    [1395227,"2026-01-17 18:50:00","32807","1.274","32.36","2.417","36.66","1008.755","11.17","93.5","-1.083","0.2"],
    [1395228,"2026-01-17 19:00:00","32808","1.821","36.86","2.548","38.6","1008.7869999999999","11.2","92.6","-1.088","0.4"],
    [1395229,"2026-01-17 19:10:00","32809","1.9409999999999998","20.88","3.136","13.33","1008.674","11.18","94.0","-0.8540000000000001","1.0"],
    [1395230,"2026-01-17 19:20:00","32810","2.127","38.61","2.973","31.63","1008.692","11.18","94.7","-0.6970000000000001","0.5"],
    [1395231,"2026-01-17 19:30:00","32811","2.733","40.19","4.345","40.31","1008.579","11.05","95.6","-0.5529999999999999","0.2"],
    [1395232,"2026-01-17 19:40:00","32812","2.412","40.65","4.573","64.28","1008.676","11.09","94.9","-0.5820000000000001","0.0"],
    [1395233,"2026-01-17 19:50:00","32813","3.014","45.87","5.357","37.76","1008.6289999999999","11.22","93.1","-0.629","0.0"],
    [1395234,"2026-01-17 20:00:00","32814","3.427","41.08","5.815","33.38","1008.51","11.37","91.5","-0.773","0.0"],
    [1395235,"2026-01-17 20:10:00","32815","2.464","33.79","3.561","30.71","1008.388","11.49","91.1","-0.7090000000000001","0.0"],
    [1395236,"2026-01-17 20:20:00","32816","2.633","45.17","4.443","40.4","1008.3789999999999","11.47","91.4","-0.809","0.0"],
    [1395237,"2026-01-17 20:30:00","32817","3.964","49.23","5.684","33.98","1008.419","11.48","91.4","-0.7609999999999999","0.1"],
    [1395238,"2026-01-17 20:40:00","32818","3.503","46.16","4.867","53.52","1008.44","11.39","93.8","-0.564","0.4"],
    [1395239,"2026-01-17 20:50:00","32819","2.9360000000000004","38.01","5.227","29.61","1008.375","11.44","94.4","-0.616","0.0"],
    [1395240,"2026-01-17 21:00:00","32820","2.138","32.2","3.528","27.09","1008.3330000000001","11.46","93.8","-0.624","0.1"],
    [1395241,"2026-01-17 21:10:00","32821","1.881","39.44","3.789","36.09","1008.341","11.53","93.6","-0.92","0.0"],
    [1395242,"2026-01-17 21:20:00","32822","3.7880000000000003","45.19","5.651","52.55","1008.313","11.69","93.3","-1.195","0.0"],
    [1395243,"2026-01-17 21:30:00","32823","3.154","36.29","5.717","35.08","1008.275","11.8","92.5","-0.903","0.1"],
    [1395244,"2026-01-17 21:40:00","32824","3.576","43.0","5.521","38.53","1008.2289999999999","11.83","91.1","-1.166","0.0"],
    [1395245,"2026-01-17 21:50:00","32825","3.359","38.55","5.031","24.28","1008.175","11.79","91.2","-1.115","0.3"],
    [1395246,"2026-01-17 22:00:00","32826","3.048","37.62","5.096","20.98","1008.105","11.56","93.3","-0.863","0.4"],
    [1395247,"2026-01-17 22:10:00","32827","3.248","36.22","5.749","34.51","1008.1160000000001","11.64","92.7","-1.187","0.3"],
    [1395248,"2026-01-17 22:20:00","32828","2.965","40.85","4.835","46.02","1008.1160000000001","11.6","94.1","-0.725","1.0"],
    [1395249,"2026-01-17 22:30:00","32829","3.103","45.95","5.096","44.26","1008.1110000000001","11.62","95.4","-0.603","1.1"],
    [1395250,"2026-01-17 22:40:00","32830","2.7430000000000003","46.45","4.214","61.35","1008.171","11.75","95.8","-0.563","1.3"],
    [1395251,"2026-01-17 22:50:00","32831","1.8519999999999999","275.9","3.234","221.7","1008.2869999999999","11.54","96.1","-0.032","1.7"],
    [1395252,"2026-01-17 23:00:00","32832","1.7730000000000001","302.4","3.103","351.7","1008.2639999999999","11.13","96.2","0.138","1.5"],
    [1395253,"2026-01-17 23:10:00","32833","0.7440000000000001","8.17","2.679","0.209","1008.3330000000001","10.94","96.6","-0.354","3.1"],
    [1395254,"2026-01-17 23:20:00","32834","1.75","221.2","3.169","219.1","1008.448","10.9","97.2","-0.348","3.0"],
    [1395255,"2026-01-17 23:30:00","32835","1.075","239.1","2.515","237.6","1008.3330000000001","10.87","97.5","-0.441","2.9"],
    [1395256,"2026-01-17 23:40:00","32836","1.5430000000000001","322.6","2.777","341.1","1008.284","10.88","97.6","-0.48700000000000004","0.2"],
    [1395257,"2026-01-17 23:50:00","32837","1.005","8.84","1.96","333.3","1008.273","10.88","97.7","-0.563","0.0"],
    [1395258,"2026-01-18 00:00:00","32838","0.6970000000000001","28.1","1.176","43.1","1008.247","10.91","97.7","-0.563","0.1"],
    [1395259,"2026-01-18 00:10:00","32839","0.5","11.01","1.47","13.23","1008.165","10.88","97.7","-0.966","0.0"],
    [1395260,"2026-01-18 00:20:00","32840","0.0","0.0","0","0","1008.176","10.87","97.7","-0.919","0.0"],
    [1395261,"2026-01-18 00:30:00","32841","0.021","274.5","0.359","274.7","1008.203","10.86","97.8","-0.5870000000000001","0.0"],
    [1395262,"2026-01-18 00:40:00","32842","0.149","238.5","1.176","220","1008.176","10.87","97.8","-0.526","0.0"],
    [1395263,"2026-01-18 00:50:00","32843","0.012","271.0","0.49","274","1008.183","10.91","97.7","-0.516","0.0"],
    [1395264,"2026-01-18 01:00:00","32844","0.009000000000000001","185.1","0.425","185.4","1008.164","10.85","97.7","-0.9690000000000001","0.0"],
    [1395265,"2026-01-18 01:10:00","32845","0.003","184.9","0.098","184.9","1008.195","10.79","97.7","-1.2590000000000001","0.0"],
    [1395266,"2026-01-18 01:20:00","32846","0.151","265.5","0.751","272.9","1008.196","10.69","97.6","-1.255","0.0"],
    [1395267,"2026-01-18 01:30:00","32847","0.535","267.6","1.143","266.3","1008.278","10.65","97.6","-1.216","0.0"],
    [1395268,"2026-01-18 01:40:00","32848","0.8959999999999999","270.5","1.437","269.9","1008.3439999999999","10.55","97.6","-1.261","0.0"],
    [1395269,"2026-01-18 01:50:00","32849","0.9440000000000001","284.8","1.274","279.4","1008.3510000000001","10.29","97.5","-1.261","0.0"],
    [1395270,"2026-01-18 02:00:00","32850","0.315","288.0","0.882","286","1008.3739999999999","10.11","97.5","-1.436","0.0"],
    [1395271,"2026-01-18 02:10:00","32851","0.032","298.8","0.392","298.9","1008.3439999999999","9.94","97.5","-1.944","0.0"],
    [1395272,"2026-01-18 02:20:00","32852","0.0","0.0","0","0","1008.433","9.86","97.5","-1.673","0.0"],
    [1395273,"2026-01-18 02:30:00","32853","0.0","0.0","0","0","1008.564","9.81","97.5","-1.643","0.0"],
    [1395274,"2026-01-18 02:40:00","32854","0.226","288.6","0.686","289.1","1008.685","9.74","97.5","-1.401","0.0"],
    [1395275,"2026-01-18 02:50:00","32855","0.633","292.0","0.751","293.5","1008.7260000000001","9.56","97.5","-1.263","0.0"],
    [1395276,"2026-01-18 03:00:00","32856","0.439","297.8","0.784","295.1","1008.742","9.42","97.5","-1.2690000000000001","0.0"],
    [1395277,"2026-01-18 03:10:00","32857","0.067","323.4","0.719","9.97","1008.7760000000001","9.42","97.6","-1.187","0.0"],
    [1395278,"2026-01-18 03:20:00","32858","0.738","21.56","1.045","26.14","1008.788","9.83","97.8","-0.581","0.0"],
    [1395279,"2026-01-18 03:30:00","32859","0.46799999999999997","3.339","1.013","9.87","1008.8","10.03","97.7","-0.9059999999999999","0.0"],
    [1395280,"2026-01-18 03:40:00","32860","0.289","314.3","0.882","306.6","1008.7610000000001","9.87","97.6","-1.1640000000000001","0.0"],
    [1395281,"2026-01-18 03:50:00","32861","0.583","315.5","0.817","330.3","1008.725","9.93","97.6","-0.9229999999999999","0.0"],
    [1395282,"2026-01-18 04:00:00","32862","0.862","285.7","1.535","289.9","1008.7189999999999","10.09","97.7","-0.772","0.0"],
    [1395283,"2026-01-18 04:10:00","32863","0.603","296.9","0.947","325.9","1008.7339999999999","10.18","97.6","-0.988","0.0"],
    [1395284,"2026-01-18 04:20:00","32864","0.79","303.8","1.666","290.5","1008.807","10.15","97.6","-1.2690000000000001","0.0"],
    [1395285,"2026-01-18 04:30:00","32865","0.8290000000000001","289.4","1.699","298.4","1008.803","10.2","97.5","-1.263","0.0"],
    [1395286,"2026-01-18 04:40:00","32866","0.19399999999999998","311.8","1.078","315.2","1008.805","10.02","97.5","-0.872","0.0"],
    [1395287,"2026-01-18 04:50:00","32867","0.35","333.1","1.078","334.7","1008.823","10.12","97.5","-0.519","0.0"],
    [1395288,"2026-01-18 05:00:00","32868","0.515","293.1","1.111","307.2","1008.924","10.12","97.5","-0.534","0.0"],
    [1395289,"2026-01-18 05:10:00","32869","0.11599999999999999","283.1","1.143","294.5","1008.8689999999999","10.24","97.5","-0.6","0.0"],
    [1395290,"2026-01-18 05:20:00","32870","1.07","164.4","3.365","165.3","1008.918","10.82","97.6","-1.3940000000000001","0.0"],
    [1395291,"2026-01-18 05:30:00","32871","0.884","116.2","3.365","147.1","1008.971","11.14","96.7","-0.7390000000000001","0.1"],
    [1395292,"2026-01-18 05:40:00","32872","1.1079999999999999","125.2","2.973","91.2","1009.063","11.09","96.1","-1.209","0.1"],
    [1395293,"2026-01-18 05:50:00","32873","1.125","121.9","3.365","146.9","1009.192","11.07","95.6","-0.735","0.1"],
    [1395294,"2026-01-18 06:00:00","32874","1.2670000000000001","111.9","2.744","122.7","1009.265","10.91","93.4","-0.757","0.0"],
    [1395295,"2026-01-18 06:10:00","32875","0.47600000000000003","115.2","1.568","149.1","1009.414","11.21","86.6","0.5820000000000001","0.0"],
    [1395296,"2026-01-18 06:20:00","32876","1.256","104.1","3.136","104.8","1009.523","11.69","80.4","0.19399999999999998","0.1"],
    [1395297,"2026-01-18 06:30:00","32877","1.3630000000000002","100.1","2.254","98","1009.533","11.85","81.7","-1.114","0.0"],
    [1395298,"2026-01-18 06:40:00","32878","1.337","96.4","2.646","143.9","1009.625","11.81","80.5","-1.262","0.1"],
    [1395299,"2026-01-18 06:50:00","32879","1.389","102.2","2.025","98.1","1009.808","11.81","79.76","-0.934","0.1"],
    [1395300,"2026-01-18 07:00:00","32880","0.851","98.0","1.699","82.8","1009.957","11.51","82.1","-0.742","0.0"],
    [1395301,"2026-01-18 07:10:00","32881","1.21","93.6","3.757","85.6","1010.018","11.41","85.5","-0.491","0.1"],
    [1395302,"2026-01-18 07:20:00","32882","1.943","80.1","3.528","61.49","1010.0989999999999","11.62","87.5","1.367","0.2"],
    [1395303,"2026-01-18 07:30:00","32883","1.492","60.32","2.45","77.13","1010.169","11.42","89.6","5.962000000000001","0.0"],
    [1395304,"2026-01-18 07:40:00","32884","1.2890000000000001","4.305","1.829","287.2","1010.253","11.16","90.9","10.29","0.0"],
    [1395305,"2026-01-18 07:50:00","32885","1.382","317.4","2.254","309.8","1010.3910000000001","10.69","91.8","17.62","0.0"],
    [1395306,"2026-01-18 08:00:00","32886","0.745","333.5","1.437","334.2","1010.492","10.73","92.5","19.15","0.0"],
    [1395307,"2026-01-18 08:10:00","32887","0.496","336.2","1.013","338.8","1010.534","10.92","92.3","20.72","0.0"],
    [1395308,"2026-01-18 08:20:00","32888","0.736","342.6","1.764","347.5","1010.602","10.94","92.2","20.15","0.1"],
    [1395309,"2026-01-18 08:30:00","32889","0.8909999999999999","357.5","1.764","8.02","1010.707","11.02","92.1","35.72","0.2"],
    [1395310,"2026-01-18 08:40:00","32890","0.809","341.7","1.699","13.04","1010.828","11.18","92.0","54.23","0.0"],
    [1395311,"2026-01-18 08:50:00","32891","0.541","315.0","1.111","314.8","1010.9060000000001","11.37","92.0","73.19","0.0"],
    [1395312,"2026-01-18 09:00:00","32892","0.436","325.2","0.915","340.8","1010.9760000000001","11.49","92.0","64.11","0.0"],
    [1395313,"2026-01-18 09:10:00","32893","0.27699999999999997","4.601","1.045","6.648","1011.055","11.55","91.5","70.37","0.0"],
    [1395314,"2026-01-18 09:20:00","32894","0.33399999999999996","325.3","0.882","289.7","1011.1519999999999","11.8","91.0","103.8","0.1"],
    [1395315,"2026-01-18 09:30:00","32895","0.608","299.2","1.078","292.7","1011.255","11.96","92.0","133.7","0.0"],
    [1395316,"2026-01-18 09:40:00","32896","0.518","356.2","1.764","8.42","1011.442","12.04","92.1","117.9","0.0"],
    [1395317,"2026-01-18 09:50:00","32897","0.97","11.06","2.091","6.39","1011.553","12.04","88.8","109.4","0.0"],
    [1395318,"2026-01-18 10:00:00","32898","1.288","20.3","2.483","20.36","1011.612","12.34","84.9","108.9","0.0"],
    [1395319,"2026-01-18 10:10:00","32899","2.5780000000000003","34.85","3.953","28.4","1011.7130000000001","12.42","84.7","73.92","0.0"],
    [1395320,"2026-01-18 10:20:00","32900","2.427","33.99","3.757","28.82","1011.7639999999999","11.96","89.5","59.44","0.4"],
    [1395321,"2026-01-18 10:30:00","32901","2.943","34.49","4.639","46.29","1011.7489999999999","11.59","92.7","82.9","0.4"],
    [1395322,"2026-01-18 10:40:00","32902","2.5980000000000003","19.54","4.279","10.47","1011.613","11.74","91.0","127.5","0.1"],
    [1395323,"2026-01-18 10:50:00","32903","2.286","19.41","4.116","19.31","1011.558","11.85","89.6","189.7","0.0"],
    [1395324,"2026-01-18 11:00:00","32904","1.91","14.51","2.973","11.92","1011.5010000000001","12.02","88.8","192.9","0.0"],
    [1395325,"2026-01-18 11:10:00","32905","2.0669999999999997","20.41","3.397","9.62","1011.5","12.29","87.6","188.5","0.0"],
    [1395326,"2026-01-18 11:20:00","32906","2.2430000000000003","23.05","3.593","25.04","1011.3989999999999","12.38","86.8","182.8","0.0"],
    [1395327,"2026-01-18 11:30:00","32907","1.983","11.16","3.495","19.65","1011.217","12.44","85.0","322.3","0.0"],
    [1395328,"2026-01-18 11:40:00","32908","2.105","8.13","3.397","1.162","1011.0880000000001","12.9","82.0","451.5","0.0"],
    [1395329,"2026-01-18 11:50:00","32909","2.408","3.7060000000000004","3.593","2.42","1011.0260000000001","13.13","80.1","335.1","0.0"],
    [1395330,"2026-01-18 12:00:00","32910","2.476","15.05","3.691","16.17","1011.0310000000001","13.27","79.26","230.6","0.0"],
    [1395331,"2026-01-18 12:10:00","32911","2.122","15.6","3.789","3.534","1010.96","13.21","79.22","107.9","0.0"],
    [1395332,"2026-01-18 12:20:00","32912","2.144","21.53","3.397","14.41","1010.821","12.97","82.6","68.72","0.5"],
    [1395333,"2026-01-18 12:30:00","32913","2.977","18.92","4.312","17.65","1010.7280000000001","12.38","86.7","83.8","0.7"],
    [1395334,"2026-01-18 12:40:00","32914","2.408","22.21","3.757","25.14","1010.666","12.07","88.0","105.4","0.2"],
    [1395335,"2026-01-18 12:50:00","32915","2.841","14.15","4.475","0.71","1010.543","12.2","87.0","147.6","0.0"],
    [1395336,"2026-01-18 13:00:00","32916","2.7939999999999996","18.23","4.279","31.24","1010.459","12.32","87.1","155.5","0.0"],
    [1395337,"2026-01-18 13:10:00","32917","2.9219999999999997","14.91","4.279","16.04","1010.427","12.37","87.6","131.7","0.0"],
    [1395338,"2026-01-18 13:20:00","32918","3.236","11.44","4.802","9.13","1010.3380000000001","12.34","87.6","106.9","0.0"],
    [1395339,"2026-01-18 13:30:00","32919","2.72","3.437","4.769","359.9","1010.22","12.4","87.2","126.9","0.0"],
    [1395340,"2026-01-18 13:40:00","32920","2.7889999999999997","18.1","4.573","10.1","1010.279","12.43","86.7","97.6","0.0"],
    [1395341,"2026-01-18 13:50:00","32921","2.855","17.9","3.953","11.1","1010.313","12.34","87.1","88.2","0.0"],
    [1395342,"2026-01-18 14:00:00","32922","2.722","12.16","3.953","6.019","1010.337","12.36","87.3","109.4","0.0"],
    [1395343,"2026-01-18 14:10:00","32923","2.273","23.09","3.822","28.86","1010.388","12.52","86.9","147.8","0.0"],
    [1395344,"2026-01-18 14:20:00","32924","3.03","37.15","5.945","47.36","1010.368","12.7","85.4","207.8","0.0"],
    [1395345,"2026-01-18 14:30:00","32925","4.376","45.3","6.435","46.03","1010.441","12.62","83.5","160.9","0.0"],
    [1395346,"2026-01-18 14:40:00","32926","4.212","42.26","6.893","58.72","1010.5110000000001","12.57","82.5","137.5","0.0"],
    [1395347,"2026-01-18 14:50:00","32927","3.556","38.12","5.717","45.1","1010.6010000000001","12.62","84.5","119.2","0.0"],
    [1395348,"2026-01-18 15:00:00","32928","4.269","36.92","6.533","24.67","1010.679","12.56","85.9","86.1","0.0"],
    [1395349,"2026-01-18 15:10:00","32929","3.7969999999999997","31.78","6.207","50.44","1010.689","12.44","86.0","111.5","0.0"],
    [1395350,"2026-01-18 15:20:00","32930","3.4789999999999996","32.63","5.194","29.56","1010.709","12.5","85.8","99.3","0.0"],
    [1395351,"2026-01-18 15:30:00","32931","3.156","31.41","5.031","23.91","1010.69","12.56","85.8","74.86","0.0"],
    [1395352,"2026-01-18 15:40:00","32932","3.298","35.45","4.671","18.04","1010.7","12.63","86.5","44.31","0.0"],
    [1395353,"2026-01-18 15:50:00","32933","4.288","39.84","6.403","30.25","1010.717","12.75","87.0","53.57","0.0"],
    [1395354,"2026-01-18 16:00:00","32934","3.866","41.83","6.207","34.95","1010.763","12.73","87.7","57.09","0.0"],
    [1395355,"2026-01-18 16:10:00","32935","4.498","41.02","6.109","50.92","1010.806","12.62","87.8","47.44","0.0"],
    [1395356,"2026-01-18 16:20:00","32936","3.321","43.85","5.88","35.45","1010.8710000000001","12.65","87.0","30.67","0.0"],
    [1395357,"2026-01-18 16:30:00","32937","3.2030000000000003","42.3","5.096","35.93","1010.925","12.66","88.9","18.39","0.0"],
    [1395358,"2026-01-18 16:40:00","32938","3.12","39.92","4.704","42.7","1010.972","12.61","89.6","10.69","0.0"],
    [1395359,"2026-01-18 16:50:00","32939","3.045","49.67","4.867","57.97","1010.967","12.62","89.5","4.062","0.0"],
    [1395360,"2026-01-18 17:00:00","32940","4.05","54.0","5.553","61.19","1011.08","12.73","88.6","0.743","0.0"],
    [1395361,"2026-01-18 17:10:00","32941","3.93","50.27","5.553","51.58","1011.174","12.79","88.0","-0.239","0.0"],
    [1395362,"2026-01-18 17:20:00","32942","3.4589999999999996","61.76","5.031","65.51","1011.221","12.77","85.5","-0.6809999999999999","0.0"],
    [1395363,"2026-01-18 17:30:00","32943","3.1519999999999997","59.51","4.345","60.75","1011.299","12.77","84.5","-0.961","0.0"],
    [1395364,"2026-01-18 17:40:00","32944","3.2560000000000002","62.08","5.619","57.44","1011.441","12.79","84.8","-1.014","0.0"],
    [1395365,"2026-01-18 17:50:00","32945","4.236000000000001","53.19","6.403","52.57","1011.5260000000001","12.69","86.2","-0.521","0.0"],
    [1395366,"2026-01-18 18:00:00","32946","3.6210000000000004","41.29","5.259","42.92","1011.566","12.55","88.0","-0.523","0.0"],
    [1395367,"2026-01-18 18:10:00","32947","3.5869999999999997","38.02","5.325","41.85","1011.627","12.6","87.2","-0.736","0.0"],
    [1395368,"2026-01-18 18:20:00","32948","3.273","63.35","5.161","74.13","1011.711","12.66","86.3","-0.812","0.0"],
    [1395369,"2026-01-18 18:30:00","32949","3.6310000000000002","64.15","5.292","56.72","1011.825","12.72","84.2","-1.113","0.0"],
    [1395370,"2026-01-18 18:40:00","32950","3.8289999999999997","65.5","5.227","55.94","1011.913","12.76","83.6","-1.117","0.0"],
    [1395371,"2026-01-18 18:50:00","32951","4.338","70.13","6.893","73.77","1012.01","12.78","84.0","-0.9540000000000001","0.0"],
    [1395372,"2026-01-18 19:00:00","32952","4.504","64.76","7.023","52.33","1012.112","12.73","83.2","-1.178","0.0"],
    [1395373,"2026-01-18 19:10:00","32953","5.401","66.44","7.611","73.39","1012.187","12.86","82.3","-0.885","0.0"],
    [1395374,"2026-01-18 19:20:00","32954","5.428","64.46","8.4","60.94","1012.2819999999999","12.85","84.2","-0.8109999999999999","0.0"],
    [1395375,"2026-01-18 19:30:00","32955","5.042","58.91","7.187","61.71","1012.25","12.84","82.5","-0.855","0.0"],
    [1395376,"2026-01-18 19:40:00","32956","5.473","61.65","8.07","74.8","1012.2660000000001","12.88","81.5","-0.9229999999999999","0.0"],
    [1395377,"2026-01-18 19:50:00","32957","4.322","50.38","6.729","62.17","1012.342","12.88","83.9","-0.644","0.0"],
    [1395378,"2026-01-18 20:00:00","32958","4.086","45.81","6.991","51.41","1012.4689999999999","12.67","85.7","-0.524","0.0"],
    [1395379,"2026-01-18 20:10:00","32959","4.697","40.77","8.33","27.37","1012.543","12.66","85.2","-0.586","0.0"],
    [1395380,"2026-01-18 20:20:00","32960","5.894","41.1","8.53","47.1","1012.5889999999999","12.44","86.7","0.272","0.6"],
    [1395381,"2026-01-18 20:30:00","32961","4.793","42.77","7.285","41.52","1012.666","12.06","90.0","-0.9359999999999999","0.2"],
    [1395382,"2026-01-18 20:40:00","32962","4.574","44.61","7.677","32.8","1012.668","12.12","89.2","-1.264","0.1"],
    [1395383,"2026-01-18 20:50:00","32963","4.792","42.43","7.252","46.16","1012.789","11.84","90.3","-0.65","1.2"],
    [1395384,"2026-01-18 21:00:00","32964","4.961","40.63","7.873","45.82","1012.762","11.43","94.9","-0.34299999999999997","1.2"],
    [1395385,"2026-01-18 21:10:00","32965","4.128","39.9","6.043","21.67","1012.8430000000001","11.52","94.4","-0.586","0.1"],
    [1395386,"2026-01-18 21:20:00","32966","3.806","35.27","5.913","40.79","1012.831","11.77","92.6","-0.6940000000000001","0.0"],
    [1395387,"2026-01-18 21:30:00","32967","3.5780000000000003","32.88","5.553","38.52","1012.868","11.86","91.4","-0.439","0.0"],
    [1395388,"2026-01-18 21:40:00","32968","2.766","30.34","4.704","25.22","1012.835","11.82","91.0","0.065","0.0"],
    [1395389,"2026-01-18 21:50:00","32969","3.0860000000000003","37.17","5.88","36.01","1012.8710000000001","11.89","90.7","-0.748","0.2"],
    [1395390,"2026-01-18 22:00:00","32970","3.3569999999999998","23.69","5.847","33.56","1012.919","11.96","89.4","-0.601","0.0"],
    [1395391,"2026-01-18 22:10:00","32971","3.5789999999999997","28.81","6.011","29.21","1012.938","11.92","88.8","-1.057","0.0"],
    [1395392,"2026-01-18 22:20:00","32972","3.5410000000000004","22.69","5.194","25.22","1012.8610000000001","11.96","87.9","-1.2309999999999999","0.0"],
    [1395393,"2026-01-18 22:30:00","32973","4.244","33.36","7.35","30.67","1012.7639999999999","11.98","87.9","-1.168","0.0"],
    [1395394,"2026-01-18 22:40:00","32974","4.046","38.83","8.04","35.08","1012.7280000000001","12.18","87.2","-1.242","0.0"],
    [1395395,"2026-01-18 22:50:00","32975","5.742000000000001","38.88","8.1","29.35","1012.7389999999999","12.32","86.0","-1.288","0.0"],
    [1395396,"2026-01-18 23:00:00","32976","5.35","39.37","8.92","46.96","1012.803","12.1","88.6","-0.9279999999999999","0.5"],
    [1395397,"2026-01-18 23:10:00","32977","5.294","36.5","8.13","44.95","1012.837","11.99","89.5","-1.255","0.0"],
    [1395398,"2026-01-18 23:20:00","32978","5.042","39.07","8.69","31.63","1012.915","11.98","89.3","-0.899","0.5"],
    [1395399,"2026-01-18 23:30:00","32979","4.699","37.07","7.383","28.17","1012.939","11.82","90.1","-1.107","0.2"],
    [1395400,"2026-01-18 23:40:00","32980","4.937","34.01","7.905","46.86","1012.9639999999999","11.84","90.4","-1.167","0.5"],
    [1395401,"2026-01-18 23:50:00","32981","4.829","40.4","7.775","41.89","1012.934","11.91","89.5","-1.262","0.0"],
    [1395402,"2026-01-19 00:00:00","32982","4.602","41.12","6.631","38.94","1012.865","12.15","86.7","-0.363","0.0"],
    [1395403,"2026-01-19 00:10:00","32983","4.055","41.11","6.991","30.13","1012.808","12.17","86.4","-0.113","0.0"],
    [1395404,"2026-01-19 00:20:00","32984","4.598","46.55","6.599","50.49","1012.7310000000001","12.22","86.5","-1.266","0.1"],
    [1395405,"2026-01-19 00:30:00","32985","4.163","43.7","6.239","50.57","1012.7","12.21","86.2","-1.355","0.0"],
    [1395406,"2026-01-19 00:40:00","32986","4.292","39.18","6.599","35.69","1012.704","12.15","84.8","-1.262","0.0"],
    [1395407,"2026-01-19 00:50:00","32987","4.711","40.71","6.664","31.37","1012.716","12.14","83.5","-1.167","0.0"],
    [1395408,"2026-01-19 01:00:00","32988","3.94","35.32","6.076","38.26","1012.7260000000001","12.15","83.1","-0.765","0.0"],
    [1395409,"2026-01-19 01:10:00","32989","3.8160000000000003","38.29","5.619","29.23","1012.711","12.12","82.6","-1.416","0.0"],
    [1395410,"2026-01-19 01:20:00","32990","3.4819999999999998","39.6","5.782","31.16","1012.732","12.1","82.4","-1.9080000000000001","0.0"],
    [1395411,"2026-01-19 01:30:00","32991","3.736","36.91","6.207","43.1","1012.7080000000001","12.0","82.9","-1.996","0.0"],
    [1395412,"2026-01-19 01:40:00","32992","3.855","38.08","5.619","30.29","1012.668","11.93","83.1","-1.8769999999999998","0.0"],
    [1395413,"2026-01-19 01:50:00","32993","3.733","41.35","6.599","32.17","1012.7510000000001","11.91","83.1","-2.228","0.0"],
    [1395414,"2026-01-19 02:00:00","32994","5.078","46.21","7.611","59.31","1012.8430000000001","11.94","83.5","-2.158","0.0"],
    [1395415,"2026-01-19 02:10:00","32995","4.73","44.23","7.252","51.1","1012.885","11.94","83.7","-1.6059999999999999","0.0"],
    [1395416,"2026-01-19 02:20:00","32996","4.317","39.6","7.187","34.58","1012.89","11.84","83.9","-1.262","0.0"],
    [1395417,"2026-01-19 02:30:00","32997","3.654","42.47","5.259","37.26","1012.95","11.75","84.0","-1.261","0.0"],
    [1395418,"2026-01-19 02:40:00","32998","3.3480000000000003","36.47","5.259","43.25","1012.949","11.73","83.8","-1.248","0.0"],
    [1395419,"2026-01-19 02:50:00","32999","2.605","38.19","4.835","41.4","1012.942","11.64","84.4","-1.219","0.0"],
    [1395420,"2026-01-19 03:00:00","33000","3.0260000000000002","45.35","6.011","55.18","1012.8960000000001","11.66","84.1","-1.101","0.0"],
    [1395421,"2026-01-19 03:10:00","33001","3.6039999999999996","45.18","5.88","30.22","1012.814","11.66","85.4","-1.455","0.1"],
    [1395422,"2026-01-19 03:20:00","33002","2.793","45.68","4.965","47","1012.7080000000001","11.53","87.9","-1.569","0.3"],
    [1395423,"2026-01-19 03:30:00","33003","1.791","29.61","3.789","35.43","1012.567","11.27","91.1","-1.261","0.4"],
    [1395424,"2026-01-19 03:40:00","33004","2.1390000000000002","11.04","3.92","19.12","1012.444","11.29","90.2","-1.261","0.0"],
    [1395425,"2026-01-19 03:50:00","33005","1.571","338.0","2.679","327","1012.36","11.26","88.9","-1.261","0.0"],
    [1395426,"2026-01-19 04:00:00","33006","1.2409999999999999","346.6","1.993","347.3","1012.34","11.08","88.9","-1.262","0.0"],
    [1395427,"2026-01-19 04:10:00","33007","1.227","340.0","2.123","337.5","1012.3789999999999","11.04","89.0","-1.261","0.0"],
    [1395428,"2026-01-19 04:20:00","33008","1.011","338.8","2.646","329.7","1012.3510000000001","11.03","88.8","-1.26","0.0"],
    [1395429,"2026-01-19 04:30:00","33009","1.368","353.8","2.156","340.1","1012.28","11.06","88.1","-1.28","0.0"],
    [1395430,"2026-01-19 04:40:00","33010","1.9880000000000002","18.22","3.136","21.04","1012.253","11.06","87.0","-1.916","0.0"],
    [1395431,"2026-01-19 04:50:00","33011","1.6980000000000002","14.33","2.744","15.67","1012.145","11.03","86.2","-2.041","0.0"],
    [1395432,"2026-01-19 05:00:00","33012","1.4380000000000002","359.5","2.875","14.72","1012.08","10.79","86.5","-2.4219999999999997","0.0"],
    [1395433,"2026-01-19 05:10:00","33013","1.6280000000000001","7.917999999999999","2.842","10.18","1012.1080000000001","10.74","86.1","-2.122","0.0"],
    [1395434,"2026-01-19 05:20:00","33014","1.985","12.43","2.842","13.84","1012.072","10.82","84.8","-1.345","0.0"],
    [1395435,"2026-01-19 05:30:00","33015","1.77","15.34","2.809","20.04","1012.082","10.86","83.9","-1.263","0.0"],
    [1395436,"2026-01-19 05:40:00","33016","1.4909999999999999","19.46","2.45","16.42","1012.1080000000001","10.96","83.2","-1.261","0.0"],
    [1395437,"2026-01-19 05:50:00","33017","1.7919999999999998","24.9","3.397","32.28","1012.14","11.04","83.3","-1.263","0.0"],
    [1395438,"2026-01-19 06:00:00","33018","1.713","11.54","3.397","22.26","1012.207","11.15","82.4","-1.2590000000000001","0.0"],
    [1395439,"2026-01-19 06:10:00","33019","1.072","11.16","2.45","48.41","1012.2489999999999","10.94","83.4","-1.305","0.0"],
    [1395440,"2026-01-19 06:20:00","33020","1.7469999999999999","20.49","2.973","22.35","1012.255","11.0","82.7","-1.296","0.0"],
    [1395441,"2026-01-19 06:30:00","33021","1.9080000000000001","358.2","3.169","15.22","1012.243","11.06","82.3","-1.2690000000000001","0.0"],
    [1395442,"2026-01-19 06:40:00","33022","1.746","2.113","3.397","18.36","1012.3710000000001","10.96","82.6","-1.568","0.0"],
    [1395443,"2026-01-19 06:50:00","33023","2.281","11.22","3.789","11.75","1012.434","11.0","81.7","-1.595","0.0"],
    [1395444,"2026-01-19 07:00:00","33024","2.267","12.33","3.561","22.6","1012.405","11.02","81.4","-1.3419999999999999","0.0"],
    [1395445,"2026-01-19 07:10:00","33025","2.299","8.56","3.103","9.84","1012.383","11.06","80.7","-0.5489999999999999","0.0"],
    [1395446,"2026-01-19 07:20:00","33026","2.2319999999999998","7.263999999999999","3.659","9.86","1012.4810000000001","10.99","80.8","2.373","0.0"],
    [1395447,"2026-01-19 07:30:00","33027","1.7469999999999999","358.6","3.299","5.922","1012.5930000000001","10.87","81.4","9.56","0.0"],
    [1395448,"2026-01-19 07:40:00","33028","1.274","4.457","2.417","2.081","1012.75","10.78","82.2","20.68","0.0"],
    [1395449,"2026-01-19 07:50:00","33029","1.306","27.19","2.744","1.237","1012.8939999999999","10.85","81.8","33.63","0.0"],
    [1395450,"2026-01-19 08:00:00","33030","1.635","48.0","2.646","39.53","1012.9580000000001","11.01","80.9","48.11","0.0"],
    [1395451,"2026-01-19 08:10:00","33031","2.092","17.8","2.777","20.77","1013.1189999999999","11.19","80.1","60.63","0.0"],
    [1395452,"2026-01-19 08:20:00","33032","2.146","10.73","2.94","1.323","1013.242","11.42","79.09","75.54","0.0"],
    [1395453,"2026-01-19 08:30:00","33033","1.818","11.72","2.809","2.469","1013.302","11.54","78.53","98.4","0.0"],
    [1395454,"2026-01-19 08:40:00","33034","1.371","354.6","3.169","352.7","1013.25","11.77","78.83","136.5","0.0"],
    [1395455,"2026-01-19 08:50:00","33035","1.973","351.7","3.463","0.144","1013.294","12.14","77.21","203.5","0.0"],
    [1395456,"2026-01-19 09:00:00","33036","2.113","8.75","3.887","7.196","1013.413","12.42","75.4","170.3","0.0"],
    [1395457,"2026-01-19 09:10:00","33037","2.533","5.419","3.887","12.65","1013.4910000000001","12.44","75.03","168.9","0.0"],
    [1395458,"2026-01-19 09:20:00","33038","2.5860000000000003","11.49","4.083","18.48","1013.528","12.51","74.16","145.9","0.0"],
    [1395459,"2026-01-19 09:30:00","33039","2.641","20.0","5.292","9.73","1013.547","12.61","73.45","145.4","0.0"],
    [1395460,"2026-01-19 09:40:00","33040","3.2689999999999997","21.98","5.031","32.95","1013.577","12.69","71.91","118.7","0.0"],
    [1395461,"2026-01-19 09:50:00","33041","2.9610000000000003","15.6","5.292","14.68","1013.613","12.68","72.23","97.6","0.0"],
    [1395462,"2026-01-19 10:00:00","33042","3.6289999999999996","25.68","5.586","32.23","1013.7339999999999","12.31","75.87","126.7","0.1"],
    [1395463,"2026-01-19 10:10:00","33043","3.6719999999999997","18.61","6.501","18.62","1013.711","11.96","79.59","217.4","0.1"],
    [1395464,"2026-01-19 10:20:00","33044","3.0180000000000002","22.65","4.802","15.72","1013.69","12.12","80.6","350.3","0.0"],
    [1395465,"2026-01-19 10:30:00","33045","3.975","22.49","5.978","31.79","1013.6619999999999","12.62","78.1","496.7","0.0"],
    [1395466,"2026-01-19 10:40:00","33046","4.4319999999999995","24.85","7.121","12.44","1013.622","12.51","78.5","300.6","0.1"],
    [1395467,"2026-01-19 10:50:00","33047","3.91","14.46","6.533","3.614","1013.653","12.31","80.6","345.6","0.0"],
    [1395468,"2026-01-19 11:00:00","33048","5.22","19.41","8.3","20.31","1013.6519999999999","12.54","79.62","479.7","0.0"],
    [1395469,"2026-01-19 11:10:00","33049","4.343999999999999","18.09","7.84","24.99","1013.6489999999999","12.33","81.3","179.3","0.2"],
    [1395470,"2026-01-19 11:20:00","33050","4.533","23.65","6.533","14.02","1013.7189999999999","11.83","82.8","102.8","0.3"],
    [1395471,"2026-01-19 11:30:00","33051","3.6910000000000003","16.87","5.847","9.15","1013.632","11.37","86.3","55.68","0.6"],
    [1395472,"2026-01-19 11:40:00","33052","2.682","10.33","4.377","11.33","1013.554","11.24","88.1","54.72","0.1"],
    [1395473,"2026-01-19 11:50:00","33053","3.3369999999999997","5.723","6.925","11.08","1013.538","11.4","85.1","69.19","0.0"],
    [1395474,"2026-01-19 12:00:00","33054","2.707","7.192","5.553","3.033","1013.487","11.5","83.6","93.3","0.0"],
    [1395475,"2026-01-19 12:10:00","33055","3.8930000000000002","3.917","6.795","20.15","1013.398","11.73","82.4","200.9","0.0"],
    [1395476,"2026-01-19 12:20:00","33056","4.37","8.02","8.2","349.4","1013.265","11.91","81.5","271.0","0.0"],
    [1395477,"2026-01-19 12:30:00","33057","3.647","12.17","5.553","10.49","1013.197","11.85","83.0","164.7","0.1"],
    [1395478,"2026-01-19 12:40:00","33058","4.609","14.08","7.056","13.78","1013.113","11.94","79.94","88.0","0.0"],
    [1395479,"2026-01-19 12:50:00","33059","3.773","9.02","6.501","1.175","1013.063","11.84","79.94","89.2","0.1"],
    [1395480,"2026-01-19 13:00:00","33060","3.636","6.619","5.325","23.1","1013.0239999999999","11.69","82.2","164.5","0.2"],
    [1395481,"2026-01-19 13:10:00","33061","3.78","7.916","6.272","23.16","1013.039","11.63","83.7","84.1","0.3"],
    [1395482,"2026-01-19 13:20:00","33062","3.7030000000000003","10.47","5.717","12.88","1013.0160000000001","11.58","82.5","39.78","0.3"],
    [1395483,"2026-01-19 13:30:00","33063","3.1519999999999997","6.207000000000001","4.9","354.4","1012.94","11.3","85.4","24.77","0.2"],
    [1395484,"2026-01-19 13:40:00","33064","2.638","6.296","4.965","12.68","1012.8910000000001","11.4","85.5","49.25","0.0"],
    [1395485,"2026-01-19 13:50:00","33065","2.739","4.891","5.521","8.58","1012.895","11.69","84.0","108.3","0.0"],
    [1395486,"2026-01-19 14:00:00","33066","3.698","7.271","5.586","5.615","1012.855","12.08","82.1","150.0","0.0"],
    [1395487,"2026-01-19 14:10:00","33067","3.5180000000000002","9.67","5.847","10.58","1012.8660000000001","12.18","81.4","85.4","0.0"],
    [1395488,"2026-01-19 14:20:00","33068","4.129","8.24","6.762","356.5","1012.812","12.25","81.0","77.91","0.0"],
    [1395489,"2026-01-19 14:30:00","33069","3.3810000000000002","12.43","6.403","19.47","1012.835","12.25","81.9","111.3","0.0"],
    [1395490,"2026-01-19 14:40:00","33070","4.148","10.1","6.37","7.424","1012.8539999999999","12.4","80.5","125.3","0.0"],
    [1395491,"2026-01-19 14:50:00","33071","4.056","18.42","6.599","23.77","1012.85","12.52","79.93","128.3","0.0"],
    [1395492,"2026-01-19 15:00:00","33072","3.725","18.48","5.651","14.44","1012.802","12.51","80.8","81.0","0.0"],
    [1395493,"2026-01-19 15:10:00","33073","3.801","14.88","6.599","14.94","1012.813","12.43","80.6","83.5","0.0"],
    [1395494,"2026-01-19 15:20:00","33074","4.118","13.0","6.076","6","1012.927","12.44","79.73","93.4","0.0"],
    [1395495,"2026-01-19 15:30:00","33075","3.977","10.87","6.435","17.88","1012.883","12.45","79.66","113.9","0.0"],
    [1395496,"2026-01-19 15:40:00","33076","3.885","14.69","6.011","24.54","1012.942","12.51","79.26","83.1","0.0"],
    [1395497,"2026-01-19 15:50:00","33077","4.096","14.0","6.272","5.003","1012.949","12.57","78.44","57.97","0.0"],
    [1395498,"2026-01-19 16:00:00","33078","3.589","16.2","6.043","6.324","1012.8889999999999","12.54","78.45","45.76","0.0"],
    [1395499,"2026-01-19 16:10:00","33079","3.9930000000000003","17.56","6.827","6.643","1012.868","12.47","78.5","25.86","0.0"],
    [1395500,"2026-01-19 16:20:00","33080","4.524","16.94","6.991","12.46","1012.8580000000001","12.5","77.79","16.54","0.0"],
    [1395501,"2026-01-19 16:30:00","33081","4.079","11.07","6.893","5.504","1012.836","12.39","78.67","11.38","0.0"],
    [1395502,"2026-01-19 16:40:00","33082","3.665","13.5","6.991","1.517","1012.845","12.3","78.78","5.667000000000001","0.0"],
    [1395503,"2026-01-19 16:50:00","33083","3.773","15.9","5.488","20.27","1012.877","12.26","78.98","1.8630000000000002","0.0"],
    [1395504,"2026-01-19 17:00:00","33084","3.6039999999999996","12.91","5.619","6.212","1012.9010000000001","12.27","78.81","0.7170000000000001","0.0"],
    [1395505,"2026-01-19 17:10:00","33085","3.281","14.03","6.272","1.862","1012.795","12.24","78.8","-0.7929999999999999","0.0"],
    [1395506,"2026-01-19 17:20:00","33086","3.525","11.97","6.599","19.32","1012.758","12.32","77.8","-1.263","0.0"],
    [1395507,"2026-01-19 17:30:00","33087","3.824","15.87","5.945","12.72","1012.815","12.34","77.6","-1.252","0.0"],
    [1395508,"2026-01-19 17:40:00","33088","4.074","11.68","5.913","8.81","1012.8380000000001","12.45","76.75","-1.206","0.0"],
    [1395509,"2026-01-19 17:50:00","33089","3.873","13.12","7.023","5.904","1012.967","12.46","76.85","-0.802","0.0"],
    [1395510,"2026-01-19 18:00:00","33090","4.005","15.93","5.978","6.856","1012.972","12.42","77.24","-0.7859999999999999","0.0"],
    [1395511,"2026-01-19 18:10:00","33091","3.807","17.67","6.697","9.08","1013.0","12.4","77.86","-1.222","0.0"],
    [1395512,"2026-01-19 18:20:00","33092","4.252","19.07","7.546","26.96","1013.046","12.34","79.07","-2.714","0.0"],
    [1395513,"2026-01-19 18:30:00","33093","3.781","20.15","5.913","19.62","1013.084","12.16","80.9","-2.728","0.0"],
    [1395514,"2026-01-19 18:40:00","33094","3.707","25.01","6.697","51.81","1013.138","12.16","81.1","-2.5180000000000002","0.1"],
    [1395515,"2026-01-19 18:50:00","33095","4.1739999999999995","22.05","6.762","20.11","1013.227","12.11","81.4","-2.391","0.1"],
    [1395516,"2026-01-19 19:00:00","33096","4.824","27.49","7.971","20.57","1013.319","11.88","83.5","-1.9269999999999998","0.4"],
    [1395517,"2026-01-19 19:10:00","33097","4.988","22.66","7.187","40.97","1013.3389999999999","11.66","85.8","-1.456","0.3"],
    [1395518,"2026-01-19 19:20:00","33098","4.327","21.02","7.938","18.9","1013.337","11.41","86.8","-1.301","0.2"],
    [1395519,"2026-01-19 19:30:00","33099","4.485","18.3","7.023","10.79","1013.355","11.35","87.0","-1.266","0.2"],
    [1395520,"2026-01-19 19:40:00","33100","4.291","18.22","6.468","24.59","1013.327","11.44","86.1","-1.3940000000000001","0.0"],
    [1395521,"2026-01-19 19:50:00","33101","3.75","15.47","6.403","15.14","1013.2330000000001","11.57","84.5","-1.2919999999999998","0.0"],
    [1395522,"2026-01-19 20:00:00","33102","4.648","15.11","7.611","351.3","1013.207","11.7","83.3","-0.977","0.1"],
    [1395523,"2026-01-19 20:10:00","33103","4.7410000000000005","20.9","7.35","25.68","1013.181","11.83","81.9","-1.374","0.0"],
    [1395524,"2026-01-19 20:20:00","33104","5.212999999999999","23.07","8.36","14.33","1013.14","11.88","81.2","-1.187","0.0"],
    [1395525,"2026-01-19 20:30:00","33105","4.939","21.13","7.513","26.67","1013.082","11.87","80.6","-0.905","0.0"],
    [1395526,"2026-01-19 20:40:00","33106","4.271","17.97","8","11.51","1013.0889999999999","11.91","79.99","-0.498","0.0"],
    [1395527,"2026-01-19 20:50:00","33107","4.84","22.61","7.35","15.89","1013.0369999999999","11.99","78.95","-0.493","0.0"],
    [1395528,"2026-01-19 21:00:00","33108","4.232","28.26","7.089","22.65","1012.998","12.02","79.03","-1.206","0.0"],
    [1395529,"2026-01-19 21:10:00","33109","5.997999999999999","27.59","8.33","38.85","1013.0169999999999","12.03","78.73","-1.3459999999999999","0.0"],
    [1395530,"2026-01-19 21:20:00","33110","5.904","29.54","10","23.17","1013.081","12.05","78.55","-1.264","0.0"],
    [1395531,"2026-01-19 21:30:00","33111","6.13","32.11","11.17","26.25","1013.225","12.11","78.45","-1.507","0.0"],
    [1395532,"2026-01-19 21:40:00","33112","5.269","35.55","8.92","29.42","1013.262","12.08","80.3","-2.072","0.0"],
    [1395533,"2026-01-19 21:50:00","33113","5.835","30.21","9.7","13.45","1013.278","11.93","81.8","-2.019","0.1"],
    [1395534,"2026-01-19 22:00:00","33114","5.979","27.49","10.39","28.8","1013.257","11.8","81.9","-2.028","0.1"],
    [1395535,"2026-01-19 22:10:00","33115","4.553999999999999","22.35","7.611","40.21","1013.21","11.66","82.4","-2.039","0.0"],
    [1395536,"2026-01-19 22:20:00","33116","4.656000000000001","23.65","7.317","23.72","1013.1519999999999","11.65","81.8","-2.134","0.0"],
    [1395537,"2026-01-19 22:30:00","33117","5.209","26.81","8.92","29.03","1013.209","11.68","81.6","-2.296","0.0"],
    [1395538,"2026-01-19 22:40:00","33118","4.51","25.65","8.89","22.33","1013.2739999999999","11.78","81.2","-2.449","0.1"],
    [1395539,"2026-01-19 22:50:00","33119","4.878","32.75","10.26","24.78","1013.295","11.7","82.2","-2.533","0.1"],
    [1395540,"2026-01-19 23:00:00","33120","5.314","35.16","10.75","40.81","1013.2860000000001","11.67","83.2","-2.09","0.3"],
    [1395541,"2026-01-19 23:10:00","33121","5.604","36.02","11.01","28.12","1013.235","11.45","84.8","-1.709","0.4"],
    [1395542,"2026-01-19 23:20:00","33122","5.7589999999999995","33.03","9.38","42.19","1013.1669999999999","11.31","86.5","-1.205","0.7"],
    [1395543,"2026-01-19 23:30:00","33123","5.03","27.71","9.38","34.95","1013.063","11.14","88.0","-0.981","1.0"],
    [1395544,"2026-01-19 23:40:00","33124","4.51","20.99","7.579","24.06","1012.921","10.53","93.2","-0.5379999999999999","0.9"],
    [1395545,"2026-01-19 23:50:00","33125","4.5169999999999995","15.58","6.893","17.98","1012.712","10.4","93.3","-0.586","1.0"],
    [1395546,"2026-01-20 00:00:00","33126","3.988","16.58","6.305","26.91","1012.558","10.33","93.6","-0.929","0.7"],
    [1395547,"2026-01-20 00:10:00","33127","4.619","18.21","8.1","14.46","1012.4780000000001","10.35","93.2","-1.256","0.5"],
    [1395548,"2026-01-20 00:20:00","33128","5.272","19.98","7.971","13.25","1012.325","10.74","88.7","-1.264","0.3"],
    [1395549,"2026-01-20 00:30:00","33129","4.651","20.32","8.53","15.04","1012.178","10.97","85.9","-1.273","0.1"],
    [1395550,"2026-01-20 00:40:00","33130","5.367000000000001","21.28","8.56","21.36","1011.97","11.1","83.2","-1.631","0.1"],
    [1395551,"2026-01-20 00:50:00","33131","5.944","23.95","10.88","9.92","1011.934","11.35","79.96","-1.7069999999999999","0.1"],
    [1395552,"2026-01-20 01:00:00","33132","5.577999999999999","19.89","8.46","9.69","1011.93","11.32","79.79","-1.931","0.1"],
    [1395553,"2026-01-20 01:10:00","33133","6.056","20.99","9.73","13.52","1011.841","11.29","78.95","-1.804","0.2"],
    [1395554,"2026-01-20 01:20:00","33134","6.124","20.03","10.75","5.728","1011.7280000000001","11.08","79.89","-2.004","0.1"],
    [1395555,"2026-01-20 01:30:00","33135","6.579","19.61","10.49","19.22","1011.722","11.04","79.28","-1.905","0.2"],
    [1395556,"2026-01-20 01:40:00","33136","6.54","19.56","11.3","16.46","1011.76","11.03","78.15","-1.87","0.0"],
    [1395557,"2026-01-20 01:50:00","33137","7.332999999999999","15.18","11.47","7.794","1011.7539999999999","11.05","77.11","-1.6780000000000002","0.2"],
    [1395558,"2026-01-20 02:00:00","33138","6.973","19.46","12.22","21.51","1011.7460000000001","10.86","77.82","-1.818","0.3"],
    [1395559,"2026-01-20 02:10:00","33139","7.862","17.94","13.1","5.583","1011.712","10.82","77.37","-2.037","0.4"],
    [1395560,"2026-01-20 02:20:00","33140","6.814","19.0","11.2","25.01","1011.675","10.68","77.69","-2.043","0.5"],
    [1395561,"2026-01-20 02:30:00","33141","7.675","18.6","14.01","20.43","1011.582","10.67","76.71","-1.9340000000000002","0.1"],
    [1395562,"2026-01-20 02:40:00","33142","8.42","18.27","12.12","16.18","1011.586","10.95","73.64","-1.198","0.0"],
    [1395563,"2026-01-20 02:50:00","33143","8.01","20.79","13.2","19.35","1011.74","10.79","73.85","-1.218","0.0"],
    [1395564,"2026-01-20 03:00:00","33144","8.78","20.74","13.52","17.3","1011.775","10.45","75.24","-1.506","0.2"],
    [1395565,"2026-01-20 03:10:00","33145","8.47","22.43","14.34","20.38","1011.783","10.3","75.66","-2.075","0.2"],
    [1395566,"2026-01-20 03:20:00","33146","7.535","19.82","11.66","8.91","1011.809","10.24","76.07","-2.166","0.2"],
    [1395567,"2026-01-20 03:30:00","33147","6.928","16.77","11.14","19.57","1011.84","10.11","76.63","-2.147","0.3"],
    [1395568,"2026-01-20 03:40:00","33148","6.132999999999999","16.18","10","21.47","1011.823","10.01","77.02","-2.063","0.2"],
    [1395569,"2026-01-20 03:50:00","33149","6.154","14.66","11.3","15.7","1011.67","9.93","77.2","-2.037","0.2"],
    [1395570,"2026-01-20 04:00:00","33150","6.388999999999999","16.0","10.13","23.14","1011.567","9.83","76.73","-2.044","0.1"],
    [1395571,"2026-01-20 04:10:00","33151","6.3870000000000005","12.81","12.32","24.11","1011.5310000000001","9.94","75.01","-1.4","0.0"],
    [1395572,"2026-01-20 04:20:00","33152","6.376","11.83","13.98","358.6","1011.5369999999999","9.88","75.51","-1.844","0.1"],
    [1395573,"2026-01-20 04:30:00","33153","6.732","13.88","9.96","19.72","1011.459","9.83","74.65","-1.9969999999999999","0.1"],
    [1395574,"2026-01-20 04:40:00","33154","6.291","10.72","11.04","6.05","1011.297","9.74","74.83","-2.0340000000000003","0.0"],
    [1395575,"2026-01-20 04:50:00","33155","5.347","4.878","10.91","10.99","1011.216","9.75","75.29","-1.781","0.0"],
    [1395576,"2026-01-20 05:00:00","33156","5.166","356.1","10.62","347.5","1011.0939999999999","9.85","74.1","-1.288","0.1"],
    [1395577,"2026-01-20 05:10:00","33157","4.654","349.8","8.62","345.7","1010.953","9.86","73.14","-1.735","0.0"],
    [1395578,"2026-01-20 05:20:00","33158","5.479","6.643","9.73","343.8","1010.868","9.99","71.92","-2.636","0.1"],
    [1395579,"2026-01-20 05:30:00","33159","5.394","7.346","9.73","7.76","1010.7869999999999","10.05","70.45","-2.2319999999999998","0.0"],
    [1395580,"2026-01-20 05:40:00","33160","5.4110000000000005","2.115","9.02","4.147","1010.7919999999999","10.3","68.19","-0.9640000000000001","0.0"],
    [1395581,"2026-01-20 05:50:00","33161","5.665","10.06","8.82","0.768","1010.8330000000001","10.29","68.12","-0.5820000000000001","0.0"],
    [1395582,"2026-01-20 06:00:00","33162","6.32","13.39","11.17","2.662","1010.8539999999999","10.18","69.24","-0.483","0.0"],
    [1395583,"2026-01-20 06:10:00","33163","6.7860000000000005","12.0","10.81","7.431","1010.954","10.06","69.63","-0.67","0.0"],
    [1395584,"2026-01-20 06:20:00","33164","6.348","14.08","10.32","7.681","1010.9860000000001","10.03","69.67","-1.177","0.0"],
    [1395585,"2026-01-20 06:30:00","33165","6.187","18.03","10.45","14.54","1011.045","10.01","70.01","-0.523","0.0"],
    [1395586,"2026-01-20 06:40:00","33166","6.172999999999999","20.43","10.78","19.76","1011.1189999999999","10.02","71.26","-1.595","0.0"],
    [1395587,"2026-01-20 06:50:00","33167","5.06","20.3","8.23","12.23","1011.185","9.93","73.02","-2.7460000000000004","0.0"],
    [1395588,"2026-01-20 07:00:00","33168","4.105","15.09","7.35","15.86","1011.186","9.93","73.74","-2.5380000000000003","0.0"],
    [1395589,"2026-01-20 07:10:00","33169","4.692","15.57","7.448","22.81","1011.17","10.11","72.89","-1.45","0.0"],
    [1395590,"2026-01-20 07:20:00","33170","5.104","19.59","7.938","20.85","1011.15","10.32","72.79","-1.2819999999999998","0.1"],
    [1395591,"2026-01-20 07:30:00","33171","5.058","17.89","9.6","26.57","1011.289","10.07","74.07","-0.24","0.1"],
    [1395592,"2026-01-20 07:40:00","33172","5.147","14.76","7.873","16.51","1011.39","9.8","76.05","2.503","0.1"],
    [1395593,"2026-01-20 07:50:00","33173","5.409","15.42","8.75","17.44","1011.446","9.69","76.59","4.7860000000000005","0.2"],
    [1395594,"2026-01-20 08:00:00","33174","5.546","15.96","8.82","17.16","1011.5830000000001","9.81","76.05","4.526","0.2"],
    [1395595,"2026-01-20 08:10:00","33175","4.993","14.84","8.69","13.59","1011.7739999999999","9.87","75.88","7.874","0.2"],
    [1395596,"2026-01-20 08:20:00","33176","5.877999999999999","15.83","9.54","19.83","1011.95","9.98","74.62","10.17","0.3"],
    [1395597,"2026-01-20 08:30:00","33177","4.959","14.76","8.72","19.78","1011.941","9.95","75.13","12.9","0.3"],
    [1395598,"2026-01-20 08:40:00","33178","4.935","14.79","7.905","21.93","1011.89","10.14","73.93","12.88","0.2"],
    [1395599,"2026-01-20 08:50:00","33179","4.118","4.652","7.35","3.017","1011.971","9.62","78.74","14.51","0.2"],
    [1395600,"2026-01-20 09:00:00","33180","4.217","13.41","7.742","11.2","1012.034","9.78","76.24","16.89","0.2"],
    [1395601,"2026-01-20 09:10:00","33181","4.249","7.537000000000001","8.04","12.02","1012.102","9.67","77.8","21.82","0.1"],
    [1395602,"2026-01-20 09:20:00","33182","3.917","9.19","7.089","13.62","1012.209","9.42","79.92","24.22","0.2"],
    [1395603,"2026-01-20 09:30:00","33183","4.648","10.74","7.971","11.08","1012.242","9.4","80.0","26.55","0.2"],
    [1395604,"2026-01-20 09:40:00","33184","4.177","10.37","7.252","11.43","1012.29","9.36","81.0","31.6","0.4"],
    [1395605,"2026-01-20 09:50:00","33185","4.243","11.2","6.599","14.89","1012.3639999999999","9.4","81.5","38.69","0.1"],
    [1395606,"2026-01-20 10:00:00","33186","3.605","10.06","7.089","23.65","1012.421","9.5","81.6","34.45","0.2"],
    [1395607,"2026-01-20 10:10:00","33187","3.7260000000000004","4.337","6.795","8.08","1012.413","9.62","81.3","45.08","0.3"],
    [1395608,"2026-01-20 10:20:00","33188","3.572","0.845","5.945","4.05","1012.377","9.64","81.9","44.26","0.3"],
    [1395609,"2026-01-20 10:30:00","33189","4.2989999999999995","1.24","7.709","4.518","1012.316","9.58","83.5","43.22","0.4"],
    [1395610,"2026-01-20 10:40:00","33190","4.104","354.5","7.35","2.868","1012.212","9.58","84.8","44.52","0.4"],
    [1395611,"2026-01-20 10:50:00","33191","3.3139999999999996","351.5","5.717","357","1012.043","9.41","85.8","42.58","0.4"],
    [1395612,"2026-01-20 11:00:00","33192","3.505","355.0","6.762","353.4","1011.951","9.59","84.2","46.59","0.3"],
    [1395613,"2026-01-20 11:10:00","33193","3.3789999999999996","353.7","5.782","341.2","1011.8889999999999","9.8","83.1","44.48","0.3"],
    [1395614,"2026-01-20 11:20:00","33194","3.595","358.0","6.893","7.39","1011.8480000000001","9.85","82.5","41.12","0.6"],
    [1395615,"2026-01-20 11:30:00","33195","3.86","347.6","7.383","335.6","1011.699","9.62","85.6","28.34","0.5"],
    [1395616,"2026-01-20 11:40:00","33196","3.804","341.9","6.827","358.3","1011.5419999999999","9.47","87.8","44.28","0.4"],
    [1395617,"2026-01-20 11:50:00","33197","3.3789999999999996","348.6","5.259","6.433","1011.5110000000001","9.72","85.4","38.86","0.3"],
    [1395618,"2026-01-20 12:00:00","33198","4.226","5.636","6.991","9.43","1011.414","9.84","85.5","31.99","0.1"],
    [1395619,"2026-01-20 12:10:00","33199","4.713","14.48","8.46","20.1","1011.307","10.06","85.3","29.13","0.3"],
    [1395620,"2026-01-20 12:20:00","33200","4.708","14.43","8.33","5.211","1011.25","10.29","82.8","21.8","0.2"],
    [1395621,"2026-01-20 12:30:00","33201","4.426","12.16","7.775","9.61","1011.22","10.17","83.9","17.22","0.2"],
    [1395622,"2026-01-20 12:40:00","33202","4.039","7.871","7.121","15.78","1011.186","10.01","85.6","13.42","0.1"],
    [1395623,"2026-01-20 12:50:00","33203","3.6289999999999996","359.0","6.468","354.6","1011.1289999999999","9.95","86.9","13.57","0.1"],
    [1395624,"2026-01-20 13:00:00","33204","3.642","358.2","5.749","4.614","1011.0110000000001","9.93","87.3","14.74","0.0"],
    [1395625,"2026-01-20 13:10:00","33205","3.537","359.7","6.109","4.402","1010.922","10.04","86.7","12.71","0.2"],
    [1395626,"2026-01-20 13:20:00","33206","3.6510000000000002","355.2","6.239","347.4","1010.842","10.13","86.2","12.39","0.0"],
    [1395627,"2026-01-20 13:30:00","33207","2.943","1.926","5.88","358.5","1010.809","10.2","85.9","11.09","0.0"],
    [1395628,"2026-01-20 13:40:00","33208","3.0069999999999997","10.22","5.455","13.67","1010.791","10.35","84.8","9.57","0.0"],
    [1395629,"2026-01-20 13:50:00","33209","2.928","12.19","4.998","12.72","1010.784","10.46","84.0","9.49","0.0"],
    [1395630,"2026-01-20 14:00:00","33210","3.6710000000000003","18.08","5.815","20.17","1010.743","10.81","83.0","9.14","0.0"],
    [1395631,"2026-01-20 14:10:00","33211","3.116","19.21","5.259","24.18","1010.752","11.08","82.4","9.94","0.0"],
    [1395632,"2026-01-20 14:20:00","33212","5.357","29.0","10.39","48.36","1010.753","11.44","81.1","9.94","0.1"],
    [1395633,"2026-01-20 14:30:00","33213","6.735","36.79","11.69","52.18","1010.77","11.77","79.55","9.62","0.0"],
    [1395634,"2026-01-20 14:40:00","33214","8.12","40.91","12.09","34.3","1010.832","11.97","79.29","9.22","0.0"],
    [1395635,"2026-01-20 14:50:00","33215","6.821000000000001","40.04","10.88","28.43","1010.914","12.01","79.2","10.14","0.0"],
    [1395636,"2026-01-20 15:00:00","33216","7.237","42.2","12.32","40.02","1010.959","12.08","78.69","10.86","0.0"],
    [1395637,"2026-01-20 15:10:00","33217","6.425","41.04","10.75","31.56","1011.002","12.07","78.83","12.77","0.0"],
    [1395638,"2026-01-20 15:20:00","33218","6.6","36.22","12.09","52.09","1011.057","12.04","79.65","10.7","0.0"],
    [1395639,"2026-01-20 15:30:00","33219","6.653","40.54","11.14","40.61","1011.137","11.93","80.8","8.11","0.0"],
    [1395640,"2026-01-20 15:40:00","33220","6.271","36.06","10.26","27.95","1011.221","11.91","81.4","5.861000000000001","0.0"],
    [1395641,"2026-01-20 15:50:00","33221","6.568","36.58","11.17","46.58","1011.243","11.91","81.3","4.474","0.0"],
    [1395642,"2026-01-20 16:00:00","33222","5.996","42.3","11.04","35.51","1011.293","11.88","81.9","4.769","0.0"],
    [1395643,"2026-01-20 16:10:00","33223","6.382999999999999","42.52","10.42","58.92","1011.39","11.74","82.8","3.641","0.0"],
    [1395644,"2026-01-20 16:20:00","33224","6.143","40.21","11.56","52.52","1011.466","11.74","83.6","1.474","0.0"],
    [1395645,"2026-01-20 16:30:00","33225","5.382999999999999","40.27","8.69","38.55","1011.482","11.74","83.6","1.063","0.0"],
    [1395646,"2026-01-20 16:40:00","33226","5.739","40.16","9.05","34.47","1011.5189999999999","11.86","82.5","0.35700000000000004","0.0"],
    [1395647,"2026-01-20 16:50:00","33227","5.604","36.83","9.93","65.16","1011.553","11.79","83.3","-0.247","0.0"],
    [1395648,"2026-01-20 17:00:00","33228","5.815","43.58","9.28","49.69","1011.6","11.75","83.3","-1.0759999999999998","0.0"],
    [1395649,"2026-01-20 17:10:00","33229","5.9239999999999995","42.44","10.85","42.94","1011.699","11.81","82.8","-1.18","0.0"],
    [1395650,"2026-01-20 17:20:00","33230","5.398","36.73","10.58","36.53","1011.808","11.9","82.7","-1.244","0.0"],
    [1395651,"2026-01-20 17:30:00","33231","5.442","38.98","10.22","45.05","1011.8480000000001","12.03","81.9","-0.8690000000000001","0.0"],
    [1395652,"2026-01-20 17:40:00","33232","4.292","36.62","7.121","41.58","1011.929","12.1","81.9","-0.682","0.0"],
    [1395653,"2026-01-20 17:50:00","33233","5.032","32.8","8.69","40.04","1011.9910000000001","12.15","80.8","-0.579","0.0"],
    [1395654,"2026-01-20 18:00:00","33234","5.263","37.2","9.02","21.93","1012.0310000000001","12.32","80.0","-0.618","0.0"],
    [1395655,"2026-01-20 18:10:00","33235","6.4479999999999995","45.92","10.85","43.11","1012.059","12.41","79.32","-0.604","0.0"],
    [1395656,"2026-01-20 18:20:00","33236","7.071000000000001","42.63","10.81","57.06","1012.067","12.5","78.57","-0.546","0.0"],
    [1395657,"2026-01-20 18:30:00","33237","6.973","44.54","9.77","53.5","1012.102","12.43","78.8","-0.513","0.0"],
    [1395658,"2026-01-20 18:40:00","33238","6.7","45.17","10.29","50.86","1012.082","12.45","78.77","-0.516","0.0"],
    [1395659,"2026-01-20 18:50:00","33239","6.524","42.32","10.06","25.92","1012.102","12.42","79.42","-0.514","0.0"],
    [1395660,"2026-01-20 19:00:00","33240","6.317","45.35","9.34","53.51","1012.115","12.44","79.44","-0.523","0.0"],
    [1395661,"2026-01-20 19:10:00","33241","7.154","42.37","11.17","43.07","1012.107","12.43","78.88","-0.515","0.0"],
    [1395662,"2026-01-20 19:20:00","33242","6.171","43.58","9.83","46.5","1012.081","12.45","78.96","-0.524","0.0"],
    [1395663,"2026-01-20 19:30:00","33243","5.085","41.16","9.02","26.88","1012.048","12.45","79.7","-0.514","0.0"],
    [1395664,"2026-01-20 19:40:00","33244","6.808","46.92","10.06","50.37","1012.073","12.41","79.06","-0.525","0.0"],
    [1395665,"2026-01-20 19:50:00","33245","6.817","47.27","10.45","48.62","1012.091","12.39","78.73","-0.505","0.0"],
    [1395666,"2026-01-20 20:00:00","33246","6.468999999999999","42.2","9.93","32.48","1012.0360000000001","12.34","79.24","-0.535","0.0"],
    [1395667,"2026-01-20 20:10:00","33247","7.007999999999999","44.02","10.03","43.29","1012.0360000000001","12.42","78.75","-0.573","0.0"],
    [1395668,"2026-01-20 20:20:00","33248","6.694","44.9","9.87","34.97","1012.062","12.39","78.63","-0.529","0.0"],
    [1395669,"2026-01-20 20:30:00","33249","6.36","44.0","10.55","48.33","1012.1610000000001","12.4","78.62","-0.541","0.0"],
    [1395670,"2026-01-20 20:40:00","33250","5.891","45.06","9.11","32.97","1012.2510000000001","12.46","78.87","-0.5489999999999999","0.0"],
    [1395671,"2026-01-20 20:50:00","33251","5.46","41.58","9.08","39.13","1012.262","12.54","79.26","-0.583","0.0"],
    [1395672,"2026-01-20 21:00:00","33252","5.072","45.42","8.89","27.2","1012.289","12.57","79.38","-0.565","0.0"],
    [1395673,"2026-01-20 21:10:00","33253","5.2170000000000005","40.1","8.33","44.19","1012.299","12.54","79.01","-0.528","0.0"],
    [1395674,"2026-01-20 21:20:00","33254","4.865","46.04","7.285","51.78","1012.291","12.54","79.11","-0.516","0.0"],
    [1395675,"2026-01-20 21:30:00","33255","5.25","39.04","8.53","26.61","1012.332","12.54","78.99","-0.541","0.0"],
    [1395676,"2026-01-20 21:40:00","33256","4.815","40.28","8.26","43.79","1012.3430000000001","12.56","78.85","-0.541","0.0"],
    [1395677,"2026-01-20 21:50:00","33257","4.761","39.27","7.023","32.8","1012.367","12.59","78.36","-0.574","0.0"],
    [1395678,"2026-01-20 22:00:00","33258","4.3069999999999995","39.93","6.533","22.98","1012.4169999999999","12.6","78.45","-0.528","0.0"],
    [1395679,"2026-01-20 22:10:00","33259","4.638999999999999","42.71","7.317","38.79","1012.5","12.59","78.57","-0.6609999999999999","0.0"],
    [1395680,"2026-01-20 22:20:00","33260","4.354","39.02","7.905","38.55","1012.615","12.63","78.39","-1.043","0.0"],
    [1395681,"2026-01-20 22:30:00","33261","4.198","35.62","6.697","46.69","1012.6010000000001","12.66","78.27","-0.635","0.0"],
    [1395682,"2026-01-20 22:40:00","33262","3.534","29.25","6.076","28.91","1012.63","12.63","78.2","-0.565","0.0"],
    [1395683,"2026-01-20 22:50:00","33263","3.2230000000000003","25.82","5.684","13.71","1012.653","12.59","78.24","-0.5760000000000001","0.0"],
    [1395684,"2026-01-20 23:00:00","33264","2.715","17.31","4.802","21.83","1012.65","12.49","77.95","-0.56","0.0"],
    [1395685,"2026-01-20 23:10:00","33265","2.835","19.8","4.214","31.11","1012.575","12.44","77.75","-0.63","0.0"],
    [1395686,"2026-01-20 23:20:00","33266","2.338","18.4","3.724","30.84","1012.428","12.39","77.98","-0.675","0.0"],
    [1395687,"2026-01-20 23:30:00","33267","2.385","12.88","4.116","1.614","1012.363","12.27","78.77","-0.7490000000000001","0.0"],
    [1395688,"2026-01-20 23:40:00","33268","2.356","13.31","3.822","29.33","1012.3439999999999","12.2","78.99","-0.7559999999999999","0.0"],
    [1395689,"2026-01-20 23:50:00","33269","2.175","17.37","3.397","10.88","1012.3539999999999","12.19","78.9","-0.888","0.0"],
    [1395690,"2026-01-21 00:00:00","33270","2.4530000000000003","24.31","3.789","19.42","1012.37","12.27","78.43","-1.0270000000000001","0.0"],
    [1395691,"2026-01-21 00:10:00","33271","2.551","20.15","4.279","21.4","1012.3510000000001","12.1","81.0","-2.438","0.0"],
    [1395692,"2026-01-21 00:20:00","33272","2.051","13.99","3.757","11.76","1012.283","11.88","82.3","-2.7089999999999996","0.0"],
    [1395693,"2026-01-21 00:30:00","33273","1.597","8.36","2.679","357.8","1012.26","11.96","81.0","-1.7409999999999999","0.0"],
    [1395694,"2026-01-21 00:40:00","33274","2.125","356.9","3.822","354.6","1012.2439999999999","12.02","80.5","-1.274","0.0"],
    [1395695,"2026-01-21 00:50:00","33275","1.755","348.1","2.809","338.2","1012.196","12.01","80.2","-1.265","0.0"],
    [1395696,"2026-01-21 01:00:00","33276","1.319","5.39","2.221","6.906","1012.13","11.88","80.9","-1.228","0.0"],
    [1395697,"2026-01-21 01:10:00","33277","1.527","0.355","3.038","346.3","1012.084","11.81","81.3","-1.247","0.0"],
    [1395698,"2026-01-21 01:20:00","33278","1.345","351.6","2.613","1.452","1012.1139999999999","11.82","81.0","-1.723","0.0"],
    [1395699,"2026-01-21 01:30:00","33279","1.892","6.856","3.397","1.047","1012.102","11.87","80.5","-1.237","0.0"],
    [1395700,"2026-01-21 01:40:00","33280","1.421","14.75","NAN","1.047","1012.0269999999999","11.81","80.7","-1.107","0.0"],
    [1395701,"2026-01-21 01:50:00","33281","1.645","12.34","NAN","1.047","1011.8860000000001","11.77","80.5","-1.177","0.0"],
    [1395702,"2026-01-21 02:00:00","33282","1.334","12.3","NAN","1.047","1011.8610000000001","11.7","81.1","-1.182","0.0"],
    [1395703,"2026-01-21 02:10:00","33283","1.064","359.9","1.927","16.75","1011.84","11.6","81.9","-1.228","0.0"],
    [1395704,"2026-01-21 02:20:00","33284","1.075","341.0","1.927","332.8","1011.8330000000001","11.6","81.9","-1.209","0.0"],
    [1395705,"2026-01-21 02:30:00","33285","1.15","334.6","1.764","341.2","1011.742","11.71","81.1","-0.997","0.0"],
    [1395706,"2026-01-21 02:40:00","33286","1.318","296.5","2.058","301.2","1011.7","11.38","83.9","-0.6990000000000001","0.0"],
    [1395707,"2026-01-21 02:50:00","33287","1.53","305.8","1.993","299.7","1011.632","11.07","86.8","-1.069","0.0"],
    [1395708,"2026-01-21 03:00:00","33288","1.1059999999999999","293.5","2.189","303.7","1011.565","11.03","87.2","-1.028","0.0"],
    [1395709,"2026-01-21 03:10:00","33289","0.574","290.4","1.209","297.7","1011.3889999999999","10.97","87.4","-1.138","0.0"],
    [1395710,"2026-01-21 03:20:00","33290","1.147","295.7","1.666","301.7","1011.311","10.91","87.8","-1.2329999999999999","0.0"],
    [1395711,"2026-01-21 03:30:00","33291","0.732","293.6","1.47","293.3","1011.143","10.9","88.0","-1.2590000000000001","0.0"],
    [1395712,"2026-01-21 03:40:00","33292","0.003","292.5","0.098","292.3","1010.959","10.84","88.0","-1.2590000000000001","0.0"],
    [1395713,"2026-01-21 03:50:00","33293","0.0","296.6","0.033","296.6","1010.715","10.77","88.1","-1.258","0.0"],
    [1395714,"2026-01-21 04:00:00","33294","0.41600000000000004","291.3","1.307","289.8","1010.563","10.71","88.6","-1.261","0.0"],
    [1395715,"2026-01-21 04:10:00","33295","1.114","282.3","1.437","285.3","1010.512","10.78","88.4","-1.2590000000000001","0.0"],
    [1395716,"2026-01-21 04:20:00","33296","0.884","294.3","1.274","287.2","1010.48","10.81","87.8","-1.242","0.0"],
    [1395717,"2026-01-21 04:30:00","33297","0.982","307.5","1.405","304.6","1010.453","10.84","87.9","-1.255","0.0"],
    [1395718,"2026-01-21 04:40:00","33298","0.34600000000000003","281.9","1.078","290.6","1010.452","10.87","87.4","-1.23","0.0"],
    [1395719,"2026-01-21 04:50:00","33299","0.025","285.7","0.719","271.8","1010.3939999999999","10.78","87.7","-1.255","0.0"],
    [1395720,"2026-01-21 05:00:00","33300","0.39399999999999996","293.1","1.013","292.4","1010.35","10.76","87.9","-1.244","0.0"],
    [1395721,"2026-01-21 05:10:00","33301","0.249","296.0","0.947","297.8","1010.335","10.76","87.9","-1.216","0.0"],
    [1395722,"2026-01-21 05:20:00","33302","0.32799999999999996","291.4","1.437","271.7","1010.336","10.7","88.1","-1.253","0.0"],
    [1395723,"2026-01-21 05:30:00","33303","1.206","274.6","2.156","275.4","1010.299","10.71","88.2","-1.21","0.0"],
    [1395724,"2026-01-21 05:40:00","33304","1.217","285.8","2.091","278","1010.285","10.69","88.2","-1.129","0.0"],
    [1395725,"2026-01-21 05:50:00","33305","0.578","293.7","1.47","300.3","1010.1669999999999","10.62","88.4","-1.254","0.0"],
    [1395726,"2026-01-21 06:00:00","33306","1.197","283.8","2.091","264.5","1010.1489999999999","10.69","88.2","-1.2409999999999999","0.0"],
    [1395727,"2026-01-21 06:10:00","33307","1.375","298.5","2.777","313.2","1010.173","10.7","88.1","-1.23","0.0"],
    [1395728,"2026-01-21 06:20:00","33308","1.021","287.4","1.927","292.2","1010.217","10.72","87.6","-1.232","0.0"],
    [1395729,"2026-01-21 06:30:00","33309","1.2770000000000001","294.2","1.993","312.3","1010.193","10.8","86.9","-1.218","0.0"],
    [1395730,"2026-01-21 06:40:00","33310","0.903","292.7","2.221","307.4","1010.143","10.89","86.0","-1.194","0.0"],
    [1395731,"2026-01-21 06:50:00","33311","0.5920000000000001","286.3","1.731","310.5","1010.075","10.86","85.8","-1.238","0.0"],
    [1395732,"2026-01-21 07:00:00","33312","0.335","291.4","0.98","289.1","1010.041","10.91","85.3","-0.943","0.0"],
    [1395733,"2026-01-21 07:10:00","33313","0.643","298.8","1.339","300.5","1009.948","10.91","85.2","-0.151","0.0"],
    [1395734,"2026-01-21 07:20:00","33314","0.882","273.4","1.601","267.9","1009.875","11.08","84.2","1.48","0.0"],
    [1395735,"2026-01-21 07:30:00","33315","0.397","274.0","1.437","274.6","1009.807","11.17","83.3","4.099","0.0"],
    [1395736,"2026-01-21 07:40:00","33316","0.836","284.6","1.731","293.5","1009.784","11.14","83.2","8.21","0.0"],
    [1395737,"2026-01-21 07:50:00","33317","0.39799999999999996","286.8","1.045","287.7","1009.685","11.17","82.7","15.48","0.0"],
    [1395738,"2026-01-21 08:00:00","33318","0.5529999999999999","268.0","1.339","243.7","1009.612","11.23","82.0","32.07","0.0"],
    [1395739,"2026-01-21 08:10:00","33319","0.8690000000000001","273.5","1.699","302","1009.5319999999999","11.35","81.6","50.43","0.0"],
    [1395740,"2026-01-21 08:20:00","33320","1.72","307.4","3.365","321","1009.4810000000001","11.35","82.0","43.97","0.0"],
    [1395741,"2026-01-21 08:30:00","33321","0.945","288.1","1.895","310.9","1009.45","11.52","81.0","89.2","0.0"],
    [1395742,"2026-01-21 08:40:00","33322","1.146","303.0","2.613","314.4","1009.3660000000001","11.95","79.67","170.4","0.0"],
    [1395743,"2026-01-21 08:50:00","33323","2.064","314.6","3.365","315.2","1009.237","12.25","77.07","178.0","0.0"],
    [1395744,"2026-01-21 09:00:00","33324","1.605","304.0","2.385","308","1009.1239999999999","12.52","75.97","201.5","0.0"],
    [1395745,"2026-01-21 09:10:00","33325","1.989","298.5","3.397","306.9","1009.086","12.7","74.54","227.3","0.0"],
    [1395746,"2026-01-21 09:20:00","33326","2.346","309.8","3.626","309","1009.072","12.74","74.62","268.3","0.0"],
    [1395747,"2026-01-21 09:30:00","33327","2.07","290.6","3.495","284.5","1009.06","13.03","74.53","258.4","0.0"],
    [1395748,"2026-01-21 09:40:00","33328","1.9140000000000001","273.0","3.169","287.3","1009.057","12.77","75.39","135.9","0.0"],
    [1395749,"2026-01-21 09:50:00","33329","1.5019999999999998","278.1","2.254","289.7","1009.0189999999999","12.6","76.54","126.9","0.0"],
    [1395750,"2026-01-21 10:00:00","33330","1.038","251.8","2.058","236.8","1009.003","12.68","77.31","119.2","0.0"],
    [1395751,"2026-01-21 10:10:00","33331","1.0290000000000001","217.7","2.025","200.9","1008.893","12.92","76.59","214.5","0.0"],
    [1395752,"2026-01-21 10:20:00","33332","1.3980000000000001","218.4","2.319","224.2","1008.7769999999999","13.13","75.03","177.3","0.0"],
    [1395753,"2026-01-21 10:30:00","33333","1.5530000000000002","202.2","3.593","214.6","1008.579","13.1","76.18","195.5","0.0"],
    [1395754,"2026-01-21 10:40:00","33334","1.7380000000000002","213.8","2.94","213.2","1008.39","13.2","76.26","257.4","0.0"],
    [1395755,"2026-01-21 10:50:00","33335","2.127","201.3","4.051","192.7","1008.198","13.66","75.58","494.1","0.0"],
    [1395756,"2026-01-21 11:00:00","33336","2.521","212.5","4.051","224.7","1007.987","14.26","73.75","549.8","0.0"],
    [1395757,"2026-01-21 11:10:00","33337","3.0389999999999997","213.6","4.769","212.5","1007.793","14.19","73.28","368.6","0.0"],
    [1395758,"2026-01-21 11:20:00","33338","2.589","210.2","5.357","213.5","1007.623","14.3","73.59","279.7","0.0"],
    [1395759,"2026-01-21 11:30:00","33339","3.0860000000000003","227.7","5.455","215","1007.432","13.95","72.85","248.8","0.0"],
    [1395760,"2026-01-21 11:40:00","33340","3.388","222.0","5.749","214.8","1007.2260000000001","14.02","73.42","270.3","0.0"],
    [1395761,"2026-01-21 11:50:00","33341","3.262","226.6","5.161","215.2","1007.052","13.76","74.53","227.8","0.0"],
    [1395762,"2026-01-21 12:00:00","33342","3.2680000000000002","220.0","6.403","229.3","1006.885","13.69","74.82","207.7","0.0"],
    [1395763,"2026-01-21 12:10:00","33343","3.076","223.9","5.521","210","1006.6419999999999","13.67","74.76","217.8","0.0"],
    [1395764,"2026-01-21 12:20:00","33344","3.576","224.6","5.619","226.7","1006.425","13.69","74.51","183.8","0.0"],
    [1395765,"2026-01-21 12:30:00","33345","3.7689999999999997","223.6","6.37","198","1006.205","13.51","74.97","149.6","0.0"],
    [1395766,"2026-01-21 12:40:00","33346","3.7680000000000002","224.5","5.913","218.7","1005.9","13.47","75.0","142.3","0.0"],
    [1395767,"2026-01-21 12:50:00","33347","3.4010000000000002","229.2","5.684","225.7","1005.578","13.38","75.4","196.7","0.0"],
    [1395768,"2026-01-21 13:00:00","33348","4.091","223.7","6.566","227.5","1005.237","13.6","74.44","327.4","0.0"],
    [1395769,"2026-01-21 13:10:00","33349","3.69","223.5","6.925","213.7","1004.9169999999999","14.2","72.48","429.6","0.0"],
    [1395770,"2026-01-21 13:20:00","33350","4.213","227.3","6.86","222.8","1004.7919999999999","14.29","71.53","437.0","0.0"],
    [1395771,"2026-01-21 13:30:00","33351","4.377","221.6","7.154","216.4","1004.5989999999999","13.98","72.82","261.7","0.0"],
    [1395772,"2026-01-21 13:40:00","33352","4.406000000000001","218.4","7.023","199.8","1004.3960000000001","14.1","72.84","483.4","0.0"],
    [1395773,"2026-01-21 13:50:00","33353","4.282","216.6","8.17","213.9","1004.285","14.45","71.97","398.5","0.0"],
    [1395774,"2026-01-21 14:00:00","33354","4.377","223.0","6.958","204","1004.071","14.41","71.45","404.9","0.0"],
    [1395775,"2026-01-21 14:10:00","33355","4.6739999999999995","221.8","7.677","212.5","1003.878","14.31","71.72","289.7","0.0"],
    [1395776,"2026-01-21 14:20:00","33356","3.802","226.7","7.513","224.3","1003.8639999999999","14.22","72.47","319.5","0.0"],
    [1395777,"2026-01-21 14:30:00","33357","4.181","226.4","6.827","220.8","1003.654","14.36","71.81","354.2","0.0"],
    [1395778,"2026-01-21 14:40:00","33358","4.757","225.9","7.35","219.4","1003.448","14.18","72.73","308.2","0.0"],
    [1395779,"2026-01-21 14:50:00","33359","4.868","223.9","7.84","220.6","1003.305","14.14","72.03","269.0","0.0"],
    [1395780,"2026-01-21 15:00:00","33360","4.454","223.3","7.546","222.2","1003.29","13.92","71.77","141.4","0.0"],
    [1395781,"2026-01-21 15:10:00","33361","4.271","224.3","7.154","225.9","1003.105","13.67","72.73","143.0","0.0"],
    [1395782,"2026-01-21 15:20:00","33362","4.1610000000000005","220.6","7.023","194.5","1002.8960000000001","13.47","73.75","121.4","0.0"],
    [1395783,"2026-01-21 15:30:00","33363","3.895","218.4","7.481","211","1002.6160000000001","13.33","73.96","119.5","0.0"],
    [1395784,"2026-01-21 15:40:00","33364","3.5189999999999997","216.2","6.533","231.2","1002.335","13.24","74.73","115.3","0.0"],
    [1395785,"2026-01-21 15:50:00","33365","3.1310000000000002","217.8","5.161","261.6","1002.097","13.22","74.8","101.2","0.0"],
    [1395786,"2026-01-21 16:00:00","33366","3.4730000000000003","217.1","5.455","214.7","1002.01","13.03","76.13","58.93","0.0"],
    [1395787,"2026-01-21 16:10:00","33367","3.947","222.4","6.403","218.8","1001.933","12.84","76.89","45.38","0.0"],
    [1395788,"2026-01-21 16:20:00","33368","2.917","228.7","5.259","228.1","1001.797","12.74","77.56","31.39","0.0"],
    [1395789,"2026-01-21 16:30:00","33369","2.852","228.6","5.717","217.9","1001.7539999999999","12.63","78.15","18.32","0.0"],
    [1395790,"2026-01-21 16:40:00","33370","2.97","227.2","5.782","213.9","1001.6039999999999","12.55","78.58","9.98","0.0"],
    [1395791,"2026-01-21 16:50:00","33371","2.46","228.3","4.312","209.4","1001.383","12.44","80.4","3.838","0.0"],
    [1395792,"2026-01-21 17:00:00","33372","3.557","225.7","5.913","207.4","1001.242","12.42","81.2","0.319","0.0"],
    [1395793,"2026-01-21 17:10:00","33373","3.391","229.0","5.913","243.2","1001.086","12.46","81.8","-0.5760000000000001","0.0"],
    [1395794,"2026-01-21 17:20:00","33374","3.3289999999999997","228.0","5.88","208.1","1000.957","12.52","82.6","-0.995","0.0"],
    [1395795,"2026-01-21 17:30:00","33375","4.22","225.1","8.62","210.2","1000.827","12.63","82.7","-1.0590000000000002","0.0"],
    [1395796,"2026-01-21 17:40:00","33376","3.54","225.3","7.742","218.9","1000.688","12.72","82.9","-0.794","0.0"],
    [1395797,"2026-01-21 17:50:00","33377","3.4360000000000004","228.0","5.945","214","1000.52","12.71","83.5","-1.226","0.0"],
    [1395798,"2026-01-21 18:00:00","33378","3.498","224.4","7.873","215.8","1000.48","12.72","83.5","-1.264","0.0"],
    [1395799,"2026-01-21 18:10:00","33379","3.633","229.6","6.664","214.6","1000.298","12.78","83.1","-1.2590000000000001","0.0"],
    [1395800,"2026-01-21 18:20:00","33380","3.3160000000000003","223.3","6.239","227","1000.115","12.88","83.0","-1.0390000000000001","0.0"],
    [1395801,"2026-01-21 18:30:00","33381","3.548","213.9","6.239","224.8","999.9003","12.89","83.5","-1.2329999999999999","0.0"],
    [1395802,"2026-01-21 18:40:00","33382","2.995","212.8","5.945","237.3","999.8267","12.91","82.2","-1.261","0.0"],
    [1395803,"2026-01-21 18:50:00","33383","3.7739999999999996","216.7","6.305","220.6","999.7758","12.94","81.6","-1.215","0.0"],
    [1395804,"2026-01-21 19:00:00","33384","4.606","215.6","7.383","198.6","999.683","13.02","80.6","-1.24","0.0"],
    [1395805,"2026-01-21 19:10:00","33385","4.238","216.5","6.991","224.5","999.6094","12.99","77.3","-1.222","0.0"],
    [1395806,"2026-01-21 19:20:00","33386","3.8930000000000002","215.9","5.913","197.9","999.4272","13.03","76.85","-0.9640000000000001","0.0"],
    [1395807,"2026-01-21 19:30:00","33387","4.218","219.7","7.448","232.1","999.2187","13.07","75.8","-1.8219999999999998","0.0"],
    [1395808,"2026-01-21 19:40:00","33388","3.573","222.7","5.978","210.3","999.0106","12.92","75.73","-2.661","0.0"],
    [1395809,"2026-01-21 19:50:00","33389","3.39","225.8","5.651","222.4","998.8666","12.65","78.46","-2.782","0.1"],
    [1395810,"2026-01-21 20:00:00","33390","2.492","229.1","5.227","222.2","998.7462","12.3","81.7","-2.6430000000000002","0.1"],
    [1395811,"2026-01-21 20:10:00","33391","2.278","231.7","3.626","247.3","998.6465","12.05","83.7","-1.65","0.0"],
    [1395812,"2026-01-21 20:20:00","33392","2.735","229.7","5.227","209.5","998.5761","12.05","84.4","-1.2930000000000001","0.0"],
    [1395813,"2026-01-21 20:30:00","33393","2.545","225.3","4.41","217.1","998.4232","12.01","84.9","-1.249","0.0"],
    [1395814,"2026-01-21 20:40:00","33394","2.372","232.0","4.149","217.6","998.3527","11.92","85.7","-0.878","0.0"],
    [1395815,"2026-01-21 20:50:00","33395","2.82","229.2","4.377","239.4","998.2939","11.85","86.1","-1.219","0.0"],
    [1395816,"2026-01-21 21:00:00","33396","2.7289999999999996","229.3","4.606","231.9","998.1974","11.82","85.9","-0.5670000000000001","0.0"],
    [1395817,"2026-01-21 21:10:00","33397","2.985","229.0","4.933","254.5","998.0075","11.78","85.6","-0.526","0.0"],
    [1395818,"2026-01-21 21:20:00","33398","2.842","228.7","4.606","239.1","997.8424","11.75","85.4","-0.515","0.0"],
    [1395819,"2026-01-21 21:30:00","33399","3.6180000000000003","231.3","6.435","228.3","997.7428","11.78","86.1","-0.525","0.0"],
    [1395820,"2026-01-21 21:40:00","33400","3.596","228.9","7.448","217.9","997.5651","11.92","86.6","-0.546","0.0"],
    [1395821,"2026-01-21 21:50:00","33401","3.846","227.5","6.305","218.5","997.3986","11.86","85.9","-0.551","0.0"],
    [1395822,"2026-01-21 22:00:00","33402","3.108","227.3","4.965","226.1","997.2491","11.81","85.8","-0.5329999999999999","0.0"],
    [1395823,"2026-01-21 22:10:00","33403","2.678","229.4","4.639","223.5","997.1375","11.7","86.4","-0.521","0.0"],
    [1395824,"2026-01-21 22:20:00","33404","2.373","231.5","4.247","232.5","997.0456","11.66","86.5","-0.514","0.0"],
    [1395825,"2026-01-21 22:30:00","33405","2.487","226.3","5.096","232.7","997.0264","11.76","86.8","-1.271","0.0"],
    [1395826,"2026-01-21 22:40:00","33406","2.5580000000000003","230.3","5.619","215.1","996.923","11.88","85.8","-1.72","0.0"],
    [1395827,"2026-01-21 22:50:00","33407","3.658","226.3","6.337","218.5","996.8439","12.19","81.8","-1.536","0.0"],
    [1395828,"2026-01-21 23:00:00","33408","3.89","222.0","6.272","214.8","996.8633","12.65","77.82","-1.179","0.0"],
    [1395829,"2026-01-21 23:10:00","33409","4.305","220.4","7.219","211.4","996.75","12.47","81.3","-2.1069999999999998","0.1"],
    [1395830,"2026-01-21 23:20:00","33410","4.115","217.3","7.154","225.2","996.4991","12.47","80.4","-1.253","0.0"],
    [1395831,"2026-01-21 23:30:00","33411","3.8680000000000003","216.4","5.325","216.3","996.3172","12.53","80.2","-1.251","0.0"],
    [1395832,"2026-01-21 23:40:00","33412","3.094","212.5","4.867","212.5","996.0893","12.51","80.9","-1.2590000000000001","0.0"],
    [1395833,"2026-01-21 23:50:00","33413","2.362","211.4","3.691","211.1","995.8258","12.5","81.7","-1.171","0.0"],
    [1395834,"2026-01-22 00:00:00","33414","2.292","214.7","3.822","230.9","995.7092","12.55","82.7","-1.226","0.0"],
    [1395835,"2026-01-22 00:10:00","33415","1.6880000000000002","233.6","3.103","217.3","995.6572","12.62","82.7","-1.177","0.0"],
    [1395836,"2026-01-22 00:20:00","33416","0.5760000000000001","258.7","1.895","276.7","995.5452","12.62","82.7","-0.725","0.0"],
    [1395837,"2026-01-22 00:30:00","33417","0.606","310.3","1.862","302.7","995.3748","12.42","83.5","-0.816","0.0"],
    [1395838,"2026-01-22 00:40:00","33418","1.024","259.1","2.515","217.9","995.2054","12.38","84.4","-1.5319999999999998","0.1"],
    [1395839,"2026-01-22 00:50:00","33419","1.578","255.1","3.43","251.5","995.0886","12.62","85.5","-1.906","0.0"],
    [1395840,"2026-01-22 01:00:00","33420","1.5230000000000001","249.4","3.724","265.5","994.9697","12.73","85.7","-1.945","0.0"],
    [1395841,"2026-01-22 01:10:00","33421","1.318","257.4","4.606","270.6","994.8478","12.67","86.5","-1.9809999999999999","0.1"],
    [1395842,"2026-01-22 01:20:00","33422","1.561","280.4","3.267","280.8","994.6002","12.39","87.1","-1.537","0.0"],
    [1395843,"2026-01-22 01:40:00","33423","1.2690000000000001","225.4","2.385","232.7","994.3748","12.17","86.8","-1.676","0.2"],
    [1395844,"2026-01-22 01:50:00","33424","1.013","243.5","1.895","233.7","994.2719","12.2","85.9","-1.3619999999999999","0.0"],
    [1395845,"2026-01-22 02:00:00","33425","1.24","270.6","2.221","289.9","994.185","12.01","85.3","-1.33","0.0"],
    [1395846,"2026-01-22 02:10:00","33426","1.536","240.9","3.136","241.6","994.0406","11.92","84.9","-2.083","0.0"],
    [1395847,"2026-01-22 02:20:00","33427","1.439","236.2","2.711","217.6","993.8998","11.98","83.5","-2.761","0.0"],
    [1395848,"2026-01-22 02:30:00","33428","0.743","243.7","2.809","227.5","993.7872","11.76","84.1","-2.761","0.0"],
    [1395849,"2026-01-22 02:40:00","33429","1.536","239.6","3.169","295.1","993.5603","11.62","84.1","-2.764","0.0"],
    [1395850,"2026-01-22 02:50:00","33430","1.599","229.1","2.907","223.8","993.4511","11.61","83.1","-2.747","0.0"],
    [1395851,"2026-01-22 03:00:00","33431","1.212","273.7","2.352","270.9","993.3932","11.63","82.6","-2.07","0.0"],
    [1395852,"2026-01-22 03:10:00","33432","1.5930000000000002","271.4","3.005","279.5","993.2419","11.24","85.4","-2.012","0.1"],
    [1395853,"2026-01-22 03:20:00","33433","1.629","283.3","2.744","281.1","992.9444","11.1","86.6","-1.945","0.0"],
    [1395854,"2026-01-22 03:30:00","33434","1.7380000000000002","307.9","2.417","315.2","992.7377","10.96","88.0","-1.756","0.0"],
    [1395855,"2026-01-22 03:40:00","33435","2.219","321.1","3.593","322.2","992.6345","11.08","87.8","-1.982","0.0"],
    [1395856,"2026-01-22 03:50:00","33436","2.386","329.0","4.345","333.9","992.6077","11.31","86.1","-1.818","0.0"],
    [1395857,"2026-01-22 04:00:00","33437","3.4189999999999996","337.8","5.684","332.8","992.4851","11.58","83.4","-2.197","0.1"],
    [1395858,"2026-01-22 04:10:00","33438","3.134","333.9","5.423","325.5","992.3856","11.82","80.9","-2.521","0.1"],
    [1395859,"2026-01-22 04:20:00","33439","2.964","325.5","5.161","327","992.4021","11.7","81.2","-2.415","0.0"],
    [1395860,"2026-01-22 04:30:00","33440","3.102","309.9","5.815","324.6","992.4841","11.76","80.5","-2.108","0.0"],
    [1395861,"2026-01-22 04:40:00","33441","2.8810000000000002","299.2","4.573","306.5","992.5286","11.51","82.6","-2.043","0.1"],
    [1395862,"2026-01-22 04:50:00","33442","2.541","314.3","4.247","318.7","992.4303","11.26","84.5","-2.1319999999999997","0.1"],
    [1395863,"2026-01-22 05:00:00","33443","2.5980000000000003","307.6","3.593","326.1","992.3722","11.43","82.9","-1.901","0.0"],
    [1395864,"2026-01-22 05:10:00","33444","2.695","300.5","5.096","280.6","992.4313","11.34","82.5","-1.268","0.1"],
    [1395865,"2026-01-22 05:20:00","33445","2.929","306.9","5.553","312.3","992.4167","11.38","79.55","-1.5119999999999998","0.0"],
    [1395866,"2026-01-22 05:30:00","33446","3.645","307.7","6.337","314.7","992.467","11.26","79.49","-1.251","0.0"],
    [1395867,"2026-01-22 05:40:00","33447","4.578","311.7","8.69","308.7","992.5439","11.15","79.39","-0.631","0.0"],
    [1395868,"2026-01-22 05:50:00","33448","5.331","316.2","8.69","308.7","992.6609","11.27","77.15","-0.564","0.0"],
    [1395869,"2026-01-22 06:00:00","33449","5.2620000000000005","312.7","8.75","315.3","992.8184","11.25","77.06","-2.205","0.0"],
    [1395870,"2026-01-22 06:10:00","33450","5.66","313.8","9.38","326.7","992.9142","11.14","77.95","-2.282","0.0"],
    [1395871,"2026-01-22 06:20:00","33451","5.582000000000001","319.4","8.49","325.4","993.1241","11.25","76.96","-1.87","0.0"],
    [1395872,"2026-01-22 06:30:00","33452","4.861000000000001","334.2","7.644","336.7","993.3467","11.19","77.3","-1.2690000000000001","0.0"],
    [1395873,"2026-01-22 06:40:00","33453","4.637","333.2","7.415","302.4","993.5103","11.05","78.34","-1.262","0.0"],
    [1395874,"2026-01-22 06:50:00","33454","4.503","329.4","7.611","328.5","993.6262","11.03","78.33","-1.49","0.0"],
    [1395875,"2026-01-22 07:00:00","33455","4.069","326.4","7.35","313.2","993.7522","10.83","80.4","-2.509","0.0"],
    [1395876,"2026-01-22 07:10:00","33456","4.251","336.9","6.697","321.4","993.9139","10.75","80.8","-1.974","0.0"],
    [1395877,"2026-01-22 07:20:00","33457","3.3939999999999997","344.5","6.991","328.2","994.05","10.83","80.1","-1.09","0.0"],
    [1395878,"2026-01-22 07:30:00","33458","2.8160000000000003","339.3","4.639","332.8","994.2064","10.78","80.4","0.55","0.0"],
    [1395879,"2026-01-22 07:40:00","33459","1.86","343.6","3.365","344","994.4958","10.82","79.95","0.99","0.0"],
    [1395880,"2026-01-22 07:50:00","33460","1.78","325.9","3.005","333.1","994.7382","10.9","80.1","1.6159999999999999","0.2"],
    [1395881,"2026-01-22 08:00:00","33461","2.208","323.8","3.822","347.3","994.9047","10.75","81.9","2.765","0.2"],
    [1395882,"2026-01-22 08:10:00","33462","1.5019999999999998","332.3","3.005","317.1","995.1105","10.66","82.4","4.6610000000000005","0.0"],
    [1395883,"2026-01-22 08:20:00","33463","0.377","354.6","1.013","358.2","995.3353","10.66","82.8","6.477","0.1"],
    [1395884,"2026-01-22 08:30:00","33464","0.418","44.27","1.176","60.8","995.4946","10.65","83.3","14.64","0.0"],
    [1395885,"2026-01-22 08:40:00","33465","1.33","44.99","2.319","18.44","995.6017","10.65","84.2","30.12","0.1"],
    [1395886,"2026-01-22 08:50:00","33466","1.9909999999999999","12.94","3.397","5.421","995.6937","10.77","82.8","53.39","0.0"],
    [1395887,"2026-01-22 09:00:00","33467","2.4090000000000003","339.7","4.704","331.4","995.7958","11.06","80.9","139.3","0.0"],
    [1395888,"2026-01-22 09:10:00","33468","3.043","322.6","4.802","318.3","995.8394","11.41","78.66","246.3","0.0"],
    [1395889,"2026-01-22 09:20:00","33469","2.9339999999999997","328.8","5.357","331.2","996.0349","11.59","77.62","193.3","0.0"],
    [1395890,"2026-01-22 09:30:00","33470","2.838","318.9","4.541","333.9","996.1671","11.64","77.06","211.6","0.0"],
    [1395891,"2026-01-22 09:40:00","33471","2.763","315.6","4.377","326.1","996.1163","11.76","76.76","230.2","0.0"],
    [1395892,"2026-01-22 09:50:00","33472","3.1660000000000004","318.9","5.521","308.9","996.1875","11.77","76.97","195.3","0.0"],
    [1395893,"2026-01-22 10:00:00","33473","2.839","324.4","4.443","335.3","996.3194","11.84","77.28","183.5","0.0"],
    [1395894,"2026-01-22 10:10:00","33474","2.388","323.0","4.345","311.4","996.533","12.09","76.34","197.1","0.0"],
    [1395895,"2026-01-22 10:20:00","33475","2.43","319.8","3.985","307.3","996.6932","12.27","73.46","156.7","0.0"],
    [1395896,"2026-01-22 10:30:00","33476","1.661","323.6","2.842","324.8","996.8519","12.33","72.42","131.6","0.0"],
    [1395897,"2026-01-22 10:40:00","33477","1.291","294.5","2.385","306.7","996.8473","12.4","72.35","157.1","0.0"],
    [1395898,"2026-01-22 10:50:00","33478","1.524","215.2","2.548","190.5","996.7549","12.4","74.43","204.8","0.0"],
    [1395899,"2026-01-22 11:00:00","33479","1.354","193.6","2.581","169.2","996.6057","12.43","72.76","181.5","0.0"],
    [1395900,"2026-01-22 11:10:00","33480","1.915","222.0","2.907","243.3","996.6531","12.31","74.92","151.1","0.0"],
    [1395901,"2026-01-22 11:20:00","33481","2.0069999999999997","269.6","4.051","293","996.8431","12.0","76.6","174.4","0.0"],
    [1395902,"2026-01-22 11:30:00","33482","2.908","274.1","4.737","282.3","996.9495","11.82","75.32","178.5","0.0"],
    [1395903,"2026-01-22 11:40:00","33483","2.983","284.1","5.096","288.2","996.9916","11.94","75.14","215.8","0.0"],
    [1395904,"2026-01-22 11:50:00","33484","2.7880000000000003","282.2","4.443","287.9","996.9887","12.36","73.19","325.3","0.0"],
    [1395905,"2026-01-22 12:00:00","33485","2.057","267.1","4.247","236.7","997.07","13.32","69.28","489.1","0.0"],
    [1395906,"2026-01-22 12:10:00","33486","1.892","226.7","3.626","216.7","997.1235","13.29","68.86","248.4","0.1"],
    [1395907,"2026-01-22 12:20:00","33487","2.148","261.0","3.789","266.1","997.4153","13.2","68.2","267.3","0.0"],
    [1395908,"2026-01-22 12:30:00","33488","1.868","273.0","3.365","286.9","997.5515","13.81","67.38","512.1","0.0"],
    [1395909,"2026-01-22 12:40:00","33489","2.565","263.2","4.214","260.2","997.553","14.29","62.93","553.0","0.0"],
    [1395910,"2026-01-22 12:50:00","33490","3.097","238.9","5.063","211.8","997.4073","14.28","64.89","484.7","0.0"],
    [1395911,"2026-01-22 13:00:00","33491","3.286","224.9","6.566","223.6","997.2896","14.19","63.97","516.9","0.0"],
    [1395912,"2026-01-22 13:10:00","33492","3.8789999999999996","220.7","5.782","229.8","997.2635","14.41","62.48","495.0","0.0"],
    [1395913,"2026-01-22 13:20:00","33493","4.115","216.2","5.88","215.7","997.3174","14.21","62.12","478.0","0.0"],
    [1395914,"2026-01-22 13:30:00","33494","3.668","214.0","6.207","200.2","997.4207","14.25","60.84","469.4","0.0"],
    [1395915,"2026-01-22 13:40:00","33495","2.609","200.2","4.802","232.3","997.3821","14.53","61.0","456.5","0.0"],
    [1395916,"2026-01-22 13:50:00","33496","2.271","197.6","5.194","218.1","997.4257","14.67","59.41","451.7","0.0"],
    [1395917,"2026-01-22 14:00:00","33497","2.802","206.4","6.337","181.7","997.4752","14.43","59.94","372.9","0.0"],
    [1395918,"2026-01-22 14:10:00","33498","2.392","205.0","4.639","260.9","997.4034","14.33","59.36","381.6","0.1"],
    [1395919,"2026-01-22 14:20:00","33499","2.167","200.5","4.606","179.7","997.4605","14.53","58.93","359.0","0.0"],
    [1395920,"2026-01-22 14:30:00","33500","2.009","190.3","3.234","169.3","997.5141","14.68","58.37","338.2","0.0"],
    [1395921,"2026-01-22 14:40:00","33501","1.989","176.2","3.103","188","997.582","14.42","58.08","318.7","0.0"],
    [1395922,"2026-01-22 14:50:00","33502","1.611","177.7","4.541","187.9","997.6362","14.55","58.07","296.7","0.0"],
    [1395923,"2026-01-22 15:00:00","33503","0.868","194.3","2.515","152.8","997.7679","14.95","57.27","271.8","0.0"],
    [1395924,"2026-01-22 15:10:00","33504","1.413","169.5","2.287","156.5","997.9207","15.06","55.4","247.9","0.0"],
    [1395925,"2026-01-22 15:20:00","33505","0.885","161.5","2.091","188.8","998.02","14.85","55.26","221.8","0.0"],
    [1395926,"2026-01-22 15:30:00","33506","1.3130000000000002","165.8","2.319","159.2","998.1589","15.02","55.4","193.6","0.0"],
    [1395927,"2026-01-22 15:40:00","33507","1.399","198.1","2.711","231.3","998.2577","15.06","56.38","168.0","0.0"],
    [1395928,"2026-01-22 15:50:00","33508","1.703","206.7","3.299","209.4","998.3585","14.92","55.39","143.9","0.0"],
    [1395929,"2026-01-22 16:00:00","33509","1.5130000000000001","201.1","2.744","171.5","998.4192","14.83","56.01","118.2","0.0"],
    [1395930,"2026-01-22 16:10:00","33510","1.882","204.8","3.463","211.3","998.5832","14.52","56.64","91.8","0.0"],
    [1395931,"2026-01-22 16:20:00","33511","1.2229999999999999","199.3","2.613","220.2","998.67","14.08","59.65","32.92","0.0"],
    [1395932,"2026-01-22 16:30:00","33512","1.5019999999999998","205.4","3.169","215.7","998.8782","13.83","62.74","17.76","0.0"],
    [1395933,"2026-01-22 16:40:00","33513","1.195","203.5","2.483","223.6","999.0731","13.75","63.77","13.44","0.0"],
    [1395934,"2026-01-22 16:50:00","33514","0.9620000000000001","207.4","2.156","210.2","999.1483","13.48","64.28","6.644","0.0"],
    [1395935,"2026-01-22 17:00:00","33515","1.075","208.7","1.731","208.4","999.1834","13.39","65.15","1.405","0.0"],
    [1395936,"2026-01-22 17:10:00","33516","0.8809999999999999","247.0","1.372","246.1","999.2912","13.14","64.8","-1.686","0.0"],
    [1395937,"2026-01-22 17:20:00","33517","0.948","280.9","2.711","342.1","999.3931","12.93","65.33","-2.863","0.0"],
    [1395938,"2026-01-22 17:30:00","33518","0.867","287.5","2.254","290.5","999.5469","12.85","63.0","-2.98","0.0"],
    [1395939,"2026-01-22 17:40:00","33519","1.1540000000000001","302.8","2.385","297.6","999.6191","12.5","64.7","-3.062","0.0"],
    [1395940,"2026-01-22 17:50:00","33520","1.3319999999999999","286.6","2.352","271.4","999.7814","12.27","64.74","-2.944","0.0"],
    [1395941,"2026-01-22 18:00:00","33521","1.486","288.0","2.548","281.9","999.9509","12.61","63.29","-2.57","0.0"],
    [1395942,"2026-01-22 18:10:00","33522","2.312","305.8","3.757","304.5","1000.03","12.14","65.48","-2.7569999999999997","0.0"],
    [1395943,"2026-01-22 18:20:00","33523","1.59","304.6","2.581","308.4","1000.1110000000001","11.92","65.54","-2.7910000000000004","0.0"],
    [1395944,"2026-01-22 18:30:00","33524","1.3530000000000002","282.5","2.94","326.4","1000.186","11.66","66.2","-3.26","0.0"],
    [1395945,"2026-01-22 18:40:00","33525","1.163","275.0","1.927","302.9","1000.2489999999999","11.86","65.3","-2.7969999999999997","0.0"],
    [1395946,"2026-01-22 18:50:00","33526","1.8769999999999998","322.5","2.679","329.3","1000.145","11.31","68.43","-2.926","0.0"],
    [1395947,"2026-01-22 19:00:00","33527","2.2359999999999998","322.5","3.561","316.5","1000.2260000000001","11.56","65.09","-3.237","0.0"],
    [1395948,"2026-01-22 19:10:00","33528","1.202","276.8","2.254","249.3","1000.258","11.72","62.57","-2.983","0.0"],
    [1395949,"2026-01-22 19:20:00","33529","1.004","254.4","1.862","289.7","1000.39","11.74","62.19","-3.112","0.0"],
    [1395950,"2026-01-22 19:30:00","33530","1.239","277.6","3.332","293.6","1000.317","11.62","62.53","-3.1439999999999997","0.0"],
    [1395951,"2026-01-22 19:40:00","33531","1.105","266.4","2.646","287.7","1000.3560000000001","11.67","60.79","-3.057","0.0"],
    [1395952,"2026-01-22 19:50:00","33532","1.33","285.9","2.385","293.1","1000.319","10.9","65.11","-3.113","0.0"],
    [1395953,"2026-01-22 20:00:00","33533","1.263","246.2","2.417","258.1","1000.428","10.85","65.02","-3.3539999999999996","0.0"],
    [1395954,"2026-01-22 20:10:00","33534","1.41","235.9","2.319","238.6","1000.544","11.04","63.51","-2.8169999999999997","0.0"],
    [1395955,"2026-01-22 20:20:00","33535","1.301","243.3","2.254","252.4","1000.5360000000001","11.06","63.02","-2.883","0.0"],
    [1395956,"2026-01-22 20:30:00","33536","0.778","258.0","1.993","278.9","1000.485","10.97","62.92","-2.863","0.0"],
    [1395957,"2026-01-22 20:40:00","33537","1.475","236.5","2.319","239.7","1000.56","10.77","63.76","-3.043","0.0"],
    [1395958,"2026-01-22 20:50:00","33538","1.4280000000000002","223.7","2.319","239.7","1000.576","10.5","64.68","-2.783","0.0"],
    [1395959,"2026-01-22 21:00:00","33539","1.442","240.5","2.287","235","1000.565","10.57","61.97","-3.094","0.0"],
    [1395960,"2026-01-22 21:10:00","33540","1.631","255.8","3.169","219.1","1000.6460000000001","10.7","60.65","-2.865","0.0"],
    [1395961,"2026-01-22 21:20:00","33541","0.8420000000000001","271.0","1.731","288.9","1000.539","10.42","61.66","-2.9189999999999996","0.0"],
    [1395962,"2026-01-22 21:30:00","33542","0.8759999999999999","291.4","1.862","302.3","1000.4010000000001","9.98","63.8","-3.053","0.0"],
    [1395963,"2026-01-22 21:40:00","33543","0.647","246.6","1.241","255.4","1000.3580000000001","9.85","64.28","-3.2460000000000004","0.0"],
    [1395964,"2026-01-22 21:50:00","33544","1.217","264.5","2.287","273.8","1000.3710000000001","9.92","65.05","-2.8310000000000004","0.0"],
    [1395965,"2026-01-22 22:00:00","33545","0.863","246.4","1.731","241.7","1000.408","9.89","65.25","-2.9989999999999997","0.0"],
    [1395966,"2026-01-22 22:10:00","33546","0.371","243.3","1.568","251.1","1000.314","9.7","66.31","-2.7910000000000004","0.0"],
    [1395967,"2026-01-22 22:20:00","33547","0.677","252.0","1.535","243.7","1000.253","8.95","71.08","-3.122","0.0"],
    [1395968,"2026-01-22 22:30:00","33548","0.657","241.0","1.405","249.1","1000.169","9.17","69.32","-2.944","0.0"],
    [1395969,"2026-01-22 22:40:00","33549","0.282","247.1","1.143","242.7","1000.0010000000001","8.93","69.47","-2.863","0.0"],
    [1395970,"2026-01-22 22:50:00","33550","0.871","265.1","1.699","263.7","999.8911","8.6","71.75","-3.0180000000000002","0.0"],
    [1395971,"2026-01-22 23:00:00","33551","0.6609999999999999","262.9","1.633","272.2","999.9767","8.48","72.56","-2.8760000000000003","0.0"],
    [1395972,"2026-01-22 23:10:00","33552","1.515","273.6","2.483","285.6","1000.059","8.18","74.44","-2.995","0.0"],
    [1395973,"2026-01-22 23:20:00","33553","1.287","277.8","2.581","272.9","999.9637","8.02","75.43","-2.948","0.0"],
    [1395974,"2026-01-22 23:30:00","33554","1.175","259.7","1.895","260.7","999.9866","7.816","76.59","-2.839","0.0"],
    [1395975,"2026-01-22 23:40:00","33555","1.115","264.6","2.123","287.9","999.9717","7.975","75.14","-2.818","0.0"],
    [1395976,"2026-01-22 23:50:00","33556","1.011","276.1","1.666","247.8","999.9069","7.292999999999999","77.54","-2.88","0.0"],
    [1395977,"2026-01-23 00:00:00","33557","1.1340000000000001","276.3","1.666","275.6","999.7641","7.263","78.8","-3.117","0.0"],
    [1395978,"2026-01-23 00:10:00","33558","1.08","259.3","1.862","267.9","999.8181","7.8420000000000005","75.49","-2.8089999999999997","0.0"],
    [1395979,"2026-01-23 00:20:00","33559","0.845","264.8","1.96","259.5","999.8438","7.567","75.95","-2.8089999999999997","0.0"],
    [1395980,"2026-01-23 00:30:00","33560","1.0590000000000002","262.4","1.993","273.2","999.877","7.2139999999999995","77.61","-2.862","0.0"],
    [1395981,"2026-01-23 00:40:00","33561","0.782","247.2","1.895","281.9","999.6581","7.279","77.4","-2.8110000000000004","0.0"],
    [1395982,"2026-01-23 00:50:00","33562","1.224","270.1","2.025","280.3","999.4714","6.725","79.51","-2.7910000000000004","0.0"],
    [1395983,"2026-01-23 01:00:00","33563","0.426","243.9","1.241","270.4","999.4179","6.564","80.9","-2.799","0.0"],
    [1395984,"2026-01-23 01:10:00","33564","0.858","287.2","1.372","297.7","999.2062","6.441","81.7","-2.792","0.0"],
    [1395985,"2026-01-23 01:20:00","33565","0.306","271.3","1.143","284.8","999.0886","6.26","82.6","-2.7889999999999997","0.0"],
    [1395986,"2026-01-23 01:30:00","33566","0.917","274.2","1.96","266.7","999.0806","6.537999999999999","81.8","-2.444","0.0"],
    [1395987,"2026-01-23 01:40:00","33567","1.4509999999999998","289.9","2.352","287.4","999.0023","6.386","81.4","-2.153","0.0"],
    [1395988,"2026-01-23 01:50:00","33568","1.181","291.4","1.666","288.1","998.9739999999999","6.024","83.7","-2.365","0.0"],
    [1395989,"2026-01-23 02:00:00","33569","1.214","286.9","2.156","292","998.8759","5.977","84.3","-2.22","0.0"],
    [1395990,"2026-01-23 02:10:00","33570","1.074","287.0","1.731","293.2","998.7869","5.9910000000000005","83.7","-2.117","0.0"],
    [1395991,"2026-01-23 02:20:00","33571","0.5820000000000001","271.3","1.339","263.5","998.6846","6.2170000000000005","82.8","-2.041","0.0"],
    [1395992,"2026-01-23 02:30:00","33572","0.5539999999999999","278.7","1.013","259.5","998.4372","6.492999999999999","80.9","-1.726","0.0"],
    [1395993,"2026-01-23 02:40:00","33573","0.674","264.4","1.307","263.8","998.309","6.534","81.1","-1.8319999999999999","0.0"],
    [1395994,"2026-01-23 02:50:00","33574","0.27899999999999997","266.1","0.849","218.6","998.0853","6.769","79.34","-1.314","0.0"],
    [1395995,"2026-01-23 03:00:00","33575","0.687","225.9","1.274","209.7","998.0591","7.005","78.45","-1.565","0.0"],
    [1395996,"2026-01-23 03:10:00","33576","0.247","244.8","1.372","214.9","997.9568","7.156000000000001","77.26","-1.5","0.0"],
    [1395997,"2026-01-23 03:20:00","33577","1.084","236.7","2.091","227.1","997.9382","7.422000000000001","75.55","-1.835","0.0"],
    [1395998,"2026-01-23 03:30:00","33578","0.8390000000000001","228.7","1.568","234.6","997.8693","7.617000000000001","73.92","-1.9580000000000002","0.0"],
    [1395999,"2026-01-23 03:40:00","33579","0.619","273.5","1.111","272.4","997.6757","7.306","76.19","-2.0709999999999997","0.0"],
    [1396000,"2026-01-23 03:50:00","33580","0.966","274.5","1.307","279.6","997.6133","6.904","78.75","-2.141","0.0"],
    [1396001,"2026-01-23 04:00:00","33581","1.137","280.6","1.927","284.1","997.4816","6.665","79.42","-2.4819999999999998","0.0"],
    [1396002,"2026-01-23 04:10:00","33582","0.956","281.9","1.47","288.9","997.4092","6.774","78.09","-2.6919999999999997","0.0"],
    [1396003,"2026-01-23 04:20:00","33583","0.672","280.8","0.915","279.3","997.2924","6.7139999999999995","77.85","-2.7739999999999996","0.0"],
    [1396004,"2026-01-23 04:30:00","33584","0.32899999999999996","286.8","0.915","285.7","997.1651","6.8","76.93","-2.7880000000000003","0.0"],
    [1396005,"2026-01-23 04:40:00","33585","0.384","276.8","0.947","277","997.091","6.98","74.97","-2.742","0.0"],
    [1396006,"2026-01-23 04:50:00","33586","0.9570000000000001","285.0","1.241","282.2","997.0112","6.75","76.61","-2.708","0.0"],
    [1396007,"2026-01-23 05:00:00","33587","0.711","275.5","1.764","274.1","996.8967","6.5120000000000005","77.93","-1.851","0.0"],
    [1396008,"2026-01-23 05:10:00","33588","1.564","279.3","2.319","269","996.9297","6.646","78.73","-1.28","0.0"],
    [1396009,"2026-01-23 05:20:00","33589","1.1159999999999999","254.3","1.96","276","996.9141","6.582999999999999","79.94","-1.409","0.0"],
    [1396010,"2026-01-23 05:30:00","33590","0.998","282.5","2.058","287.7","996.6691","6.452999999999999","80.6","-1.943","0.0"],
    [1396011,"2026-01-23 05:40:00","33591","1.028","288.9","1.895","228.7","996.605","6.222","81.5","-2.656","0.0"],
    [1396012,"2026-01-23 05:50:00","33592","1.371","281.8","2.156","286.4","996.7251","6.13","81.7","-2.5780000000000003","0.0"],
    [1396013,"2026-01-23 06:00:00","33593","1.2429999999999999","262.8","2.483","271","996.5329","6.194","82.0","-2.59","0.0"],
    [1396014,"2026-01-23 06:10:00","33594","1.34","275.3","2.483","268.4","996.436","6.43","80.5","-1.761","0.0"],
    [1396015,"2026-01-23 06:20:00","33595","1.123","276.5","1.895","284.1","996.2378","6.45","79.46","-2.175","0.0"],
    [1396016,"2026-01-23 06:30:00","33596","0.823","270.9","1.535","285.8","995.9963","6.483","78.72","-2.761","0.0"],
    [1396017,"2026-01-23 06:40:00","33597","0.978","275.7","1.47","288.7","995.9757","6.4910000000000005","78.34","-2.772","0.0"],
    [1396018,"2026-01-23 06:50:00","33598","0.667","268.8","1.339","273.4","995.9639","6.28","79.29","-2.7060000000000004","0.0"],
    [1396019,"2026-01-23 07:00:00","33599","1.226","262.8","2.058","265.8","996.1495","6.486000000000001","78.65","-2.015","0.0"],
    [1396020,"2026-01-23 07:10:00","33600","1.34","265.4","2.352","280.7","996.5003","6.794","75.73","0.09699999999999999","0.0"],
    [1396021,"2026-01-23 07:20:00","33601","1.318","278.2","2.189","298.3","996.675","6.845","74.91","3.432","0.0"],
    [1396022,"2026-01-23 07:30:00","33602","1.3230000000000002","278.6","2.058","255.6","996.7519","6.8229999999999995","75.21","8.77","0.0"],
    [1396023,"2026-01-23 07:40:00","33603","0.924","276.5","2.025","285.7","996.6454","6.968999999999999","74.06","13.87","0.0"],
    [1396024,"2026-01-23 07:50:00","33604","0.6970000000000001","267.7","1.503","260.4","996.544","7.252000000000001","72.73","23.58","0.0"],
    [1396025,"2026-01-23 08:00:00","33605","1.028","268.0","2.352","268","996.6461","7.68","71.01","32.98","0.0"],
    [1396026,"2026-01-23 08:10:00","33606","0.718","264.9","2.189","298.3","996.5972","7.791","72.26","67.83","0.0"],
    [1396027,"2026-01-23 08:20:00","33607","1.43","268.4","2.483","287.7","996.6634","8.52","71.52","97.1","0.0"],
    [1396028,"2026-01-23 08:30:00","33608","1.5730000000000002","261.8","2.777","271.6","996.7828","9.19","69.53","78.67","0.0"],
    [1396029,"2026-01-23 08:40:00","33609","1.295","278.9","2.581","279.7","996.6213","9.3","68.48","133.0","0.0"],
    [1396030,"2026-01-23 08:50:00","33610","1.287","266.9","2.156","275.1","996.4688","9.63","68.06","207.2","0.0"],
    [1396031,"2026-01-23 09:00:00","33611","1.8019999999999998","275.8","2.94","291.2","996.4324","10.17","65.76","236.5","0.0"],
    [1396032,"2026-01-23 09:10:00","33612","2.096","284.1","3.234","298.4","996.4072","10.66","63.99","262.7","0.0"],
    [1396033,"2026-01-23 09:20:00","33613","1.705","271.2","2.679","292.2","996.2861","11.19","63.69","288.1","0.0"],
    [1396034,"2026-01-23 09:30:00","33614","1.82","271.7","3.626","293.3","996.2662","11.71","63.21","311.9","0.0"],
    [1396035,"2026-01-23 09:40:00","33615","1.9380000000000002","271.0","3.365","272.1","996.2198","11.83","63.75","334.8","0.0"],
    [1396036,"2026-01-23 09:50:00","33616","1.982","274.8","3.463","267.3","996.2018","12.06","64.16","355.6","0.0"],
    [1396037,"2026-01-23 10:00:00","33617","1.7369999999999999","277.9","3.071","268.6","996.2513","12.45","63.64","374.8","0.0"],
    [1396038,"2026-01-23 10:10:00","33618","1.386","268.2","2.581","282.1","996.3103","12.81","61.97","392.2","0.0"],
    [1396039,"2026-01-23 10:20:00","33619","1.3230000000000002","262.3","2.548","272.4","996.2686","13.17","60.7","409.5","0.0"],
    [1396040,"2026-01-23 10:30:00","33620","0.828","250.2","2.548","281.3","996.2484","13.93","58.54","424.6","0.1"],
    [1396041,"2026-01-23 10:40:00","33621","1.087","227.1","2.744","200.2","996.1714","14.43","56.46","441.4","0.0"],
    [1396042,"2026-01-23 10:50:00","33622","2.083","209.4","3.365","203.9","996.1364","14.45","54.64","446.0","0.0"],
    [1396043,"2026-01-23 11:00:00","33623","1.2919999999999998","232.1","2.581","255.9","996.1347","14.81","54.85","480.3","0.0"],
    [1396044,"2026-01-23 11:10:00","33624","3.0439999999999996","219.9","6.043","206.9","996.1197","15.0","53.66","461.4","0.0"],
    [1396045,"2026-01-23 11:20:00","33625","4.471","214.7","6.729","219.5","996.1061","14.19","56.94","386.9","0.0"],
    [1396046,"2026-01-23 11:30:00","33626","3.862","225.4","5.978","222.8","996.0274","14.17","56.54","370.3","0.0"],
    [1396047,"2026-01-23 11:40:00","33627","3.017","228.0","5.161","233.3","995.9717","13.97","55.58","243.5","0.0"],
    [1396048,"2026-01-23 11:50:00","33628","4.1930000000000005","226.3","6.664","227.5","995.8356","13.64","56.07","217.1","0.0"],
    [1396049,"2026-01-23 12:00:00","33629","4.442","226.1","6.697","241.8","995.6853","13.38","55.84","204.6","0.0"],
    [1396050,"2026-01-23 12:10:00","33630","5.21","225.1","9.51","221","995.7422","13.33","56.78","202.9","0.0"],
    [1396051,"2026-01-23 12:20:00","33631","5.669","226.3","9.31","232","995.8076","13.21","60.66","264.1","0.0"],
    [1396052,"2026-01-23 12:30:00","33632","4.823","221.5","7.611","221.5","995.7435","13.68","59.74","369.0","0.0"],
    [1396053,"2026-01-23 12:40:00","33633","4.51","221.7","7.775","236.8","995.7028","14.22","58.35","457.9","0.0"],
    [1396054,"2026-01-23 12:50:00","33634","2.385","229.0","4.867","213.5","995.6064","15.02","58.19","433.9","0.0"],
    [1396055,"2026-01-23 13:00:00","33635","2.062","249.2","3.822","276.1","995.4319","15.35","54.98","312.1","0.0"],
    [1396056,"2026-01-23 13:10:00","33636","4.427","306.6","6.631","302.6","995.487","15.21","46.5","292.6","0.0"],
    [1396057,"2026-01-23 13:20:00","33637","5.042","303.8","8.4","307","995.3594","15.51","43.61","422.0","0.0"],
    [1396058,"2026-01-23 13:30:00","33638","4.459","290.7","7.742","311","995.3505","15.29","41.38","231.6","0.0"],
    [1396059,"2026-01-23 13:40:00","33639","3.259","264.7","6.501","267.2","995.247","15.4","40.68","364.2","0.0"],
    [1396060,"2026-01-23 13:50:00","33640","2.019","243.9","4.508","233.7","995.1696","16.04","39.03","443.9","0.0"],
    [1396061,"2026-01-23 14:00:00","33641","2.766","268.1","5.749","240.9","995.0923","16.25","37.61","415.1","0.0"],
    [1396062,"2026-01-23 14:10:00","33642","4.356","284.4","7.905","291.2","995.0574","15.96","35.85","397.6","0.0"],
    [1396063,"2026-01-23 14:20:00","33643","4.833","287.2","9.47","303.6","995.1061","15.8","36.06","378.1","0.0"],
    [1396064,"2026-01-23 14:30:00","33644","5.23","292.8","9.31","301.7","995.2797","15.87","36.03","355.9","0.0"],
    [1396065,"2026-01-23 14:40:00","33645","4.512","290.3","8.07","265.3","995.3311","15.79","35.84","336.4","0.0"],
    [1396066,"2026-01-23 14:50:00","33646","3.378","292.3","6.468","301.6","995.3999","16.04","36.55","313.8","0.0"],
    [1396067,"2026-01-23 15:00:00","33647","2.5610000000000004","288.3","3.953","280.1","995.5314","16.12","36.69","288.3","0.0"],
    [1396068,"2026-01-23 15:10:00","33648","3.77","297.8","6.925","298.8","995.6199","16.07","35.31","264.4","0.0"],
    [1396069,"2026-01-23 15:20:00","33649","4.197","273.5","9.7","258.5","995.6545","15.72","31.07","240.8","0.0"],
    [1396070,"2026-01-23 15:30:00","33650","4.438","283.8","8.95","269.9","995.7488","15.33","30.73","214.5","0.0"],
    [1396071,"2026-01-23 15:40:00","33651","4.234","288.8","7.187","289.6","995.7774","15.16","32.19","187.3","0.0"],
    [1396072,"2026-01-23 15:50:00","33652","4.805","293.1","7.415","295","995.8793","14.94","33.46","160.4","0.0"],
    [1396073,"2026-01-23 16:00:00","33653","4.506","294.8","7.285","294.5","996.0010000000001","14.66","35.23","132.8","0.0"],
    [1396074,"2026-01-23 16:10:00","33654","3.9730000000000003","284.2","7.905","270.2","996.1412","14.34","36.72","104.8","0.0"],
    [1396075,"2026-01-23 16:20:00","33655","3.154","296.0","5.684","301.9","996.2103","14.12","36.91","38.3","0.0"],
    [1396076,"2026-01-23 16:30:00","33656","3.57","291.3","6.109","295.4","996.1944","13.7","38.16","18.81","0.0"],
    [1396077,"2026-01-23 16:40:00","33657","2.0909999999999997","281.9","5.063","289.6","996.1708","13.35","40.68","13.71","0.0"],
    [1396078,"2026-01-23 16:50:00","33658","1.473","272.1","3.397","280.9","996.0916","13.13","41.7","7.531000000000001","0.0"],
    [1396079,"2026-01-23 17:00:00","33659","1.229","250.7","2.417","273.1","996.2715","12.87","42.81","2.011","0.0"],
    [1396080,"2026-01-23 17:10:00","33660","1.6540000000000001","234.5","2.777","208.9","996.5507","12.62","43.63","-1.8359999999999999","0.0"],
    [1396081,"2026-01-23 17:20:00","33661","1.8359999999999999","231.7","3.332","232.9","996.6987","12.61","44.15","-3.1060000000000003","0.0"],
    [1396082,"2026-01-23 17:30:00","33662","1.901","230.3","3.724","255.7","996.8569","12.41","44.89","-3.5860000000000003","0.0"],
    [1396083,"2026-01-23 17:40:00","33663","2.041","239.6","4.279","255.4","996.9923","12.59","43.61","-3.505","0.0"],
    [1396084,"2026-01-23 17:50:00","33664","1.1159999999999999","251.0","3.757","235.2","997.0854","12.43","44.89","-3.484","0.0"],
    [1396085,"2026-01-23 18:00:00","33665","1.056","303.6","1.96","323.5","997.046","11.8","49.02","-3.571","0.0"],
    [1396086,"2026-01-23 18:10:00","33666","1.238","312.3","2.417","313","997.1105","10.77","52.99","-4.247","0.0"],
    [1396087,"2026-01-23 18:20:00","33667","1.339","308.7","2.352","302.2","997.174","10.62","53.04","-3.617","0.0"],
    [1396088,"2026-01-23 18:30:00","33668","0.982","292.1","1.993","286.6","997.3394","10.55","52.66","-3.613","0.0"],
    [1396089,"2026-01-23 18:40:00","33669","0.9059999999999999","286.9","1.829","288.6","997.5019","10.54","53.19","-3.509","0.0"],
    [1396090,"2026-01-23 18:50:00","33670","1.867","294.4","4.377","292.2","997.5125","10.16","55.31","-3.772","0.0"],
    [1396091,"2026-01-23 19:00:00","33671","2.52","286.7","4.377","268.6","997.6005","10.94","52.14","-3.7489999999999997","0.0"],
    [1396092,"2026-01-23 19:10:00","33672","2.4330000000000003","296.0","3.691","288.5","997.5892","10.91","52.08","-3.55","0.0"],
    [1396093,"2026-01-23 19:20:00","33673","3.159","312.7","4.933","316.1","997.5278","11.36","50.13","-4.069","0.0"],
    [1396094,"2026-01-23 19:30:00","33674","1.705","296.5","2.94","305.5","997.4406","11.33","49.71","-3.447","0.0"],
    [1396095,"2026-01-23 19:40:00","33675","2.137","297.4","3.365","308.2","997.1968","10.54","53.17","-3.609","0.0"],
    [1396096,"2026-01-23 19:50:00","33676","1.9080000000000001","288.7","3.365","286","997.0176","10.31","54.18","-3.6010000000000004","0.0"],
    [1396097,"2026-01-23 20:00:00","33677","2.145","290.4","3.365","295.2","996.7239","10.17","55.48","-3.233","0.0"],
    [1396098,"2026-01-23 20:10:00","33678","2.682","293.7","4.181","294.8","996.6402","10.06","56.48","-3.3810000000000002","0.0"],
    [1396099,"2026-01-23 20:20:00","33679","2.467","296.9","4.541","301.1","996.6737","10.0","57.17","-3.1189999999999998","0.0"],
    [1396100,"2026-01-23 20:30:00","33680","2.637","306.4","5.717","297.2","996.7321","10.12","56.9","-3.1489999999999996","0.0"],
    [1396101,"2026-01-23 20:40:00","33681","2.176","318.6","4.214","313.9","996.8649","10.41","55.38","-3.0","0.0"],
    [1396102,"2026-01-23 20:50:00","33682","1.331","311.7","2.842","309.4","997.0126","10.1","56.05","-3.27","0.0"],
    [1396103,"2026-01-23 21:00:00","33683","1.514","258.0","2.45","301.4","997.1801","9.93","56.12","-3.372","0.0"],
    [1396104,"2026-01-23 21:10:00","33684","1.5490000000000002","240.8","2.189","233.9","997.2562","9.71","57.3","-3.138","0.0"],
    [1396105,"2026-01-23 21:20:00","33685","1.075","240.9","2.123","255.7","997.1533","9.67","57.39","-2.9619999999999997","0.0"],
    [1396106,"2026-01-23 21:30:00","33686","1.1059999999999999","244.1","2.156","250.4","997.0533","9.2","59.26","-3.2510000000000003","0.0"],
    [1396107,"2026-01-23 21:40:00","33687","1.617","248.5","3.103","254.2","997.3197","9.26","58.75","-2.885","0.0"],
    [1396108,"2026-01-23 21:50:00","33688","1.181","267.6","1.96","256.4","997.3352","9.71","56.4","-2.764","0.0"],
    [1396109,"2026-01-23 22:00:00","33689","1.6019999999999999","232.8","2.973","201.9","997.3722","9.49","57.13","-2.785","0.0"],
    [1396110,"2026-01-23 22:10:00","33690","1.291","257.2","2.385","231.8","997.2934","9.57","57.38","-2.55","0.0"],
    [1396111,"2026-01-23 22:20:00","33691","0.903","286.4","1.437","255.2","997.0487","9.04","60.83","-2.32","0.0"],
    [1396112,"2026-01-23 22:30:00","33692","1.3719999999999999","264.0","1.927","310.4","996.9473","8.6","62.13","-2.417","0.0"],
    [1396113,"2026-01-23 22:40:00","33693","1.128","263.7","2.287","265.8","996.9021","9.28","58.7","-2.127","0.0"],
    [1396114,"2026-01-23 22:50:00","33694","0.828","272.0","1.535","286.8","996.9585","8.85","61.35","-2.025","0.0"],
    [1396115,"2026-01-23 23:00:00","33695","0.0","247.1","0.229","247.1","996.9559","8.54","62.67","-2.036","0.0"],
    [1396116,"2026-01-23 23:10:00","33696","0.004","253.3","0.098","253.2","996.8739999999999","8.33","65.68","-1.966","0.0"],
    [1396117,"2026-01-23 23:20:00","33697","0.5670000000000001","1.776","1.209","1.549","996.6873","8.09","66.65","-1.663","0.0"],
    [1396118,"2026-01-23 23:30:00","33698","0.5379999999999999","6.395","1.013","0.161","996.6154","7.919","67.35","-1.564","0.0"],
    [1396119,"2026-01-23 23:40:00","33699","0.604","10.43","1.241","10.28","996.6504","8.06","67.54","-1.29","0.0"],
    [1396120,"2026-01-23 23:50:00","33700","0.39799999999999996","9.05","1.307","10.02","996.6047","8.32","66.08","-1.291","0.0"],
    [1396121,"2026-01-24 00:00:00","33701","0.0","0.0","0","0","996.5692","8.68","64.71","-1.31","0.0"],
    [1396122,"2026-01-24 00:10:00","33702","0.586","306.4","1.437","299.5","996.4138","8.39","66.79","-1.63","0.0"],
    [1396123,"2026-01-24 00:20:00","33703","0.521","321.4","0.98","349.3","996.0323","7.912000000000001","69.73","-1.516","0.0"],
    [1396124,"2026-01-24 00:30:00","33704","0.763","308.0","0.98","328.1","995.9014","7.989","68.57","-1.7530000000000001","0.0"],
    [1396125,"2026-01-24 00:40:00","33705","1.6119999999999999","293.0","2.254","284.1","995.8968","8.05","69.62","-1.4380000000000002","0.0"],
    [1396126,"2026-01-24 00:50:00","33706","0.821","313.5","1.568","293.5","995.63","7.495","72.71","-1.722","0.0"],
    [1396127,"2026-01-24 01:00:00","33707","0.055999999999999994","241.7","0.784","230.5","995.4725","7.492999999999999","73.19","-1.942","0.0"],
    [1396128,"2026-01-24 01:10:00","33708","1.335","269.3","2.385","277.4","995.551","7.771","71.89","-2.044","0.0"],
    [1396129,"2026-01-24 01:20:00","33709","1.6580000000000001","286.3","2.483","285.9","995.5192","7.597","71.57","-1.9769999999999999","0.0"],
    [1396130,"2026-01-24 01:30:00","33710","0.909","276.2","1.47","277.6","995.4653","7.388","72.62","-2.099","0.0"],
    [1396131,"2026-01-24 01:40:00","33711","0.06","299.8","0.817","301.7","995.2391","7.3020000000000005","72.94","-2.041","0.0"],
    [1396132,"2026-01-24 01:50:00","33712","0.508","221.7","1.731","194.1","995.2275","7.402","72.91","-1.9340000000000002","0.0"],
    [1396133,"2026-01-24 02:00:00","33713","1.47","269.0","2.679","279","995.2772","7.5120000000000005","72.5","-1.804","0.0"],
    [1396134,"2026-01-24 02:10:00","33714","1.641","291.6","3.136","275.5","995.2328","7.189","73.71","-1.554","0.0"],
    [1396135,"2026-01-24 02:20:00","33715","1.5490000000000002","288.1","3.005","271.7","995.1756","7.186","74.17","-1.456","0.0"],
    [1396136,"2026-01-24 02:30:00","33716","1.305","295.1","3.136","260.1","994.9774","7.434","73.85","-1.4680000000000002","0.0"],
    [1396137,"2026-01-24 02:40:00","33717","0.965","269.7","1.993","237.8","994.9447","7.803999999999999","71.74","-1.341","0.0"],
    [1396138,"2026-01-24 02:50:00","33718","1.227","289.9","3.038","266.5","994.8726","7.72","71.67","-1.2930000000000001","0.0"],
    [1396139,"2026-01-24 03:00:00","33719","1.2329999999999999","283.8","2.385","269.4","994.7429","7.6370000000000005","72.18","-1.298","0.0"],
    [1396140,"2026-01-24 03:10:00","33720","1.6440000000000001","282.0","2.875","274.3","994.5624","7.728","71.56","-1.2930000000000001","0.0"],
    [1396141,"2026-01-24 03:20:00","33721","0.522","285.3","1.274","319","994.3479","7.792999999999999","71.1","-1.291","0.0"],
    [1396142,"2026-01-24 03:30:00","33722","1.294","297.3","3.038","279.7","994.169","7.902","71.3","-1.495","0.0"],
    [1396143,"2026-01-24 03:40:00","33723","2.0669999999999997","273.6","4.41","265.7","994.2048","8.36","70.29","-3.108","0.0"],
    [1396144,"2026-01-24 03:50:00","33724","2.147","279.7","5.129","294.7","994.0872","8.72","71.45","-3.0839999999999996","0.0"],
    [1396145,"2026-01-24 04:00:00","33725","2.149","301.8","4.116","283.9","993.7721","8.26","73.71","-2.575","0.0"],
    [1396146,"2026-01-24 04:10:00","33726","2.275","319.6","3.43","331","993.2080000000001","8.61","73.45","-2.656","0.0"],
    [1396147,"2026-01-24 04:20:00","33727","1.9780000000000002","348.3","3.593","340.8","993.0292","9.11","72.14","-2.2840000000000003","0.0"],
    [1396148,"2026-01-24 04:30:00","33728","1.014","303.6","2.385","312.7","993.2718","9.23","72.62","-1.885","0.0"],
    [1396149,"2026-01-24 04:40:00","33729","1.111","290.0","1.96","300.5","993.4132","9.26","72.71","-1.294","0.0"],
    [1396150,"2026-01-24 04:50:00","33730","1.608","286.3","3.136","293.3","993.2346","8.89","74.98","-1.507","0.0"],
    [1396151,"2026-01-24 05:00:00","33731","1.6640000000000001","286.9","3.038","289.4","993.2109","8.19","79.01","-2.0469999999999997","0.0"],
    [1396152,"2026-01-24 05:10:00","33732","1.2830000000000001","284.4","2.254","277.4","992.9033","7.711","82.1","-2.066","0.0"],
    [1396153,"2026-01-24 05:20:00","33733","0.785","288.1","1.993","268.4","992.7660000000001","7.546","82.6","-2.0180000000000002","0.0"],
    [1396154,"2026-01-24 05:30:00","33734","0.584","262.1","1.601","270.7","992.6816","7.61","82.6","-1.801","0.0"],
    [1396155,"2026-01-24 05:40:00","33735","0.595","230.1","2.189","119.2","992.7881","7.757999999999999","82.0","-1.2990000000000002","0.0"],
    [1396156,"2026-01-24 05:50:00","33736","1.1","132.0","3.234","85.5","992.9207","8.04","82.1","-2.049","0.1"],
    [1396157,"2026-01-24 06:00:00","33737","2.765","85.1","4.606","82.4","992.7294","9.32","85.0","-2.358","0.7"],
    [1396158,"2026-01-24 06:10:00","33738","1.9409999999999998","50.61","3.593","59.58","992.5356","9.17","87.1","-1.286","0.5"],
    [1396159,"2026-01-24 06:20:00","33739","0.489","91.8","2.385","80.6","992.6339","9.05","88.2","-1.232","0.8"],
    [1396160,"2026-01-24 06:30:00","33740","1.649","100.7","2.94","73.57","992.9404","9.01","89.2","-1.172","0.9"],
    [1396161,"2026-01-24 06:40:00","33741","3.582","44.41","4.802","36.28","992.4581","8.4","94.2","-0.536","0.8"],
    [1396162,"2026-01-24 06:50:00","33742","1.321","40.32","3.757","36.75","992.433","8.19","95.3","-0.73","0.0"],
    [1396163,"2026-01-24 07:00:00","33743","0.596","36.18","2.254","40.27","992.5069","8.15","95.4","-0.698","0.1"],
    [1396164,"2026-01-24 07:10:00","33744","1.749","298.8","3.136","290.7","992.4396","7.917999999999999","95.3","-0.309","0.0"],
    [1396165,"2026-01-24 07:20:00","33745","1.412","295.7","2.385","303.5","992.252","7.635","95.6","-0.29100000000000004","0.5"],
    [1396166,"2026-01-24 07:30:00","33746","1.285","265.7","2.221","282.4","992.2494","7.33","95.6","0.51","0.8"],
    [1396167,"2026-01-24 07:40:00","33747","0.43200000000000005","330.7","0.98","12.58","992.2072","7.19","96.0","1.7630000000000001","1.0"],
    [1396168,"2026-01-24 07:50:00","33748","1.825","284.7","4.083","266.4","992.3207","7.247999999999999","96.1","2.988","0.2"],
    [1396169,"2026-01-24 08:00:00","33749","2.2230000000000003","286.4","4.018","291.5","992.3837","6.936","95.9","6.377000000000001","0.5"],
    [1396170,"2026-01-24 08:10:00","33750","2.909","320.0","3.985","314.2","992.198","7.0329999999999995","96.1","16.88","0.1"],
    [1396171,"2026-01-24 08:20:00","33751","2.7889999999999997","317.1","4.279","318.8","992.12","7.305","95.9","15.57","0.1"],
    [1396172,"2026-01-24 08:30:00","33752","3.068","308.6","4.247","305","992.0974","7.371","95.8","34.51","0.7"],
    [1396173,"2026-01-24 08:40:00","33753","3.248","313.6","4.998","307.3","992.1145","7.516","95.9","34.03","0.0"],
    [1396174,"2026-01-24 08:50:00","33754","5.222","318.3","7.938","296.4","992.1108","7.416","95.0","33.96","0.1"],
    [1396175,"2026-01-24 09:00:00","33755","4.792","326.5","8.1","331.1","991.9167","7.185","94.4","64.48","0.4"],
    [1396176,"2026-01-24 09:10:00","33756","5.012","314.3","8","336","991.7869999999999","7.242000000000001","93.0","102.0","0.1"],
    [1396177,"2026-01-24 09:20:00","33757","5.062","297.6","8.17","304","992.1916","7.254","89.5","77.02","0.0"],
    [1396178,"2026-01-24 09:30:00","33758","4.772","293.4","7.481","295","992.6293","7.037000000000001","89.1","45.38","0.1"],
    [1396179,"2026-01-24 09:40:00","33759","3.529","282.1","6.272","291.5","992.9175","6.974","89.8","55.25","0.3"],
    [1396180,"2026-01-24 09:50:00","33760","4.205","273.1","8.3","288.3","993.1909","6.627999999999999","87.7","41.52","0.4"],
    [1396181,"2026-01-24 10:00:00","33761","4.993","287.5","9.15","290.8","993.5139","6.279","84.3","44.29","0.2"],
    [1396182,"2026-01-24 10:10:00","33762","4.663","285.1","8.56","300.2","993.7363","5.928","82.8","50.49","0.1"],
    [1396183,"2026-01-24 10:20:00","33763","4.175","279.4","7.709","276.1","993.8127","5.771","82.2","45.97","0.0"],
    [1396184,"2026-01-24 10:30:00","33764","3.641","262.7","6.958","255.5","993.8626","5.876","80.2","51.66","0.0"],
    [1396185,"2026-01-24 10:40:00","33765","3.029","250.1","5.488","267.4","993.8492","5.965","79.61","40.67","0.0"],
    [1396186,"2026-01-24 10:50:00","33766","3.138","243.2","6.011","232.8","993.8607","6.021","78.28","32.03","0.0"],
    [1396187,"2026-01-24 11:00:00","33767","2.9","232.0","5.717","265.3","993.9663","6.079","77.69","20.73","0.0"],
    [1396188,"2026-01-24 11:10:00","33768","3.278","227.7","5.259","218.6","994.0465","6.051","78.35","17.68","0.0"],
    [1396189,"2026-01-24 11:20:00","33769","4.061","228.5","6.991","234","994.025","6.122999999999999","78.43","23.61","0.1"],
    [1396190,"2026-01-24 11:30:00","33770","3.8169999999999997","228.1","5.717","224.6","994.0089","6.056","80.4","31.39","0.1"],
    [1396191,"2026-01-24 11:40:00","33771","3.503","225.8","4.802","264.6","993.9376","5.975","82.7","40.29","0.3"],
    [1396192,"2026-01-24 11:50:00","33772","2.787","227.7","4.998","217.9","993.832","5.98","82.6","58.71","0.4"],
    [1396193,"2026-01-24 12:00:00","33773","2.6010000000000004","230.1","5.063","247.5","993.6622","6.109","83.2","88.7","0.2"],
    [1396194,"2026-01-24 12:10:00","33774","3.5239999999999996","227.4","7.154","216.3","993.5646","6.305","81.7","132.4","0.1"],
    [1396195,"2026-01-24 12:20:00","33775","3.1910000000000003","228.6","5.194","225.1","993.4958","6.505","83.4","152.3","0.0"],
    [1396196,"2026-01-24 12:30:00","33776","2.841","228.5","5.619","259.6","993.4327","6.702999999999999","83.2","179.7","0.0"],
    [1396197,"2026-01-24 12:40:00","33777","3.553","227.6","6.501","239","993.4609","6.678999999999999","80.3","148.1","0.0"],
    [1396198,"2026-01-24 12:50:00","33778","3.2310000000000003","230.1","6.664","252.4","993.5495","6.555","79.48","121.4","0.0"],
    [1396199,"2026-01-24 13:00:00","33779","2.855","233.1","4.541","254.5","993.6232","6.478","80.2","79.29","0.1"],
    [1396200,"2026-01-24 13:10:00","33780","2.028","243.5","3.985","274.1","993.6781","6.14","83.0","41.45","0.3"],
    [1396201,"2026-01-24 13:20:00","33781","2.315","257.6","4.671","270.9","993.7711","5.587999999999999","87.7","36.95","0.6"],
    [1396202,"2026-01-24 13:30:00","33782","2.126","245.3","5.194","281","993.8759","5.403","88.2","40.44","0.6"],
    [1396203,"2026-01-24 13:40:00","33783","2.7680000000000002","261.8","5.194","237.4","993.9053","5.417000000000001","84.6","40.99","0.3"],
    [1396204,"2026-01-24 13:50:00","33784","3.011","259.1","5.292","276.3","993.9664","5.35","85.4","42.17","0.2"],
    [1396205,"2026-01-24 14:00:00","33785","3.352","268.8","6.403","282.9","994.0393","5.2139999999999995","85.5","57.67","0.4"],
    [1396206,"2026-01-24 14:10:00","33786","2.553","289.8","5.847","304.5","994.1675","4.975","87.3","32.97","0.5"],
    [1396207,"2026-01-24 14:20:00","33787","2.9560000000000004","289.2","5.847","304.5","994.3071","4.673","91.0","22.98","0.8"],
    [1396208,"2026-01-24 14:30:00","33788","2.3480000000000003","273.0","4.083","260.4","994.4153","4.218","94.2","26.96","0.9"],
    [1396209,"2026-01-24 14:40:00","33789","2.315","249.0","4.149","245.4","994.4728","4.332","94.9","29.72","0.8"],
    [1396210,"2026-01-24 14:50:00","33790","2.248","276.9","4.247","270.1","994.567","4.458","95.4","17.28","0.6"],
    [1396211,"2026-01-24 15:00:00","33791","3.193","285.9","5.292","294.7","994.7515","4.664","95.7","15.02","0.8"],
    [1396212,"2026-01-24 15:10:00","33792","2.43","274.2","4.998","286.7","994.9261","4.791","95.8","16.37","0.6"],
    [1396213,"2026-01-24 15:20:00","33793","1.8319999999999999","252.3","3.724","282.1","995.0678","4.9510000000000005","95.6","18.27","0.2"],
    [1396214,"2026-01-24 15:30:00","33794","1.864","230.2","3.071","249.1","995.2582","5.11","95.1","15.33","0.3"],
    [1396215,"2026-01-24 15:40:00","33795","2.096","228.7","3.299","229.5","995.38","5.164","94.5","12.09","0.2"],
    [1396216,"2026-01-24 15:50:00","33796","2.622","222.8","4.149","226.4","995.3731","5.3","93.8","11.9","0.1"],
    [1396217,"2026-01-24 16:00:00","33797","3.2880000000000003","218.5","4.671","211","995.4379","5.5889999999999995","91.3","9.4","0.0"],
    [1396218,"2026-01-24 16:10:00","33798","3.415","215.4","5.259","222","995.3912","6.057","87.2","6.877000000000001","0.0"],
    [1396219,"2026-01-24 16:20:00","33799","2.8169999999999997","223.9","4.933","219.2","995.5242","6.501","82.2","4.71","0.0"],
    [1396220,"2026-01-24 16:30:00","33800","2.8760000000000003","219.8","4.345","220.2","995.68","6.808","79.33","3.9189999999999996","0.0"],
    [1396221,"2026-01-24 16:40:00","33801","2.529","223.2","3.626","217.6","995.8328","7.14","76.1","3.693","0.0"],
    [1396222,"2026-01-24 16:50:00","33802","2.43","218.0","3.855","225.8","995.9888","7.294","75.5","2.44","0.0"],
    [1396223,"2026-01-24 17:00:00","33803","2.299","215.9","3.528","205.6","996.143","7.331","75.71","2.0380000000000003","0.0"],
    [1396224,"2026-01-24 17:10:00","33804","1.808","216.6","3.561","211.5","996.2451","7.516","73.68","0.8370000000000001","0.0"],
    [1396225,"2026-01-24 17:20:00","33805","2.217","213.9","3.201","208.1","996.3766","7.5889999999999995","73.09","0.134","0.0"],
    [1396226,"2026-01-24 17:30:00","33806","2.119","211.4","3.659","199.3","996.475","7.66","72.7","-0.141","0.0"],
    [1396227,"2026-01-24 17:40:00","33807","2.488","219.1","4.051","232.4","996.5863","7.905","70.96","-0.434","0.0"],
    [1396228,"2026-01-24 17:50:00","33808","2.1719999999999997","216.4","3.365","232.8","996.6905","8.2","68.42","-0.315","0.0"],
    [1396229,"2026-01-24 18:00:00","33809","1.845","211.1","3.005","203.2","996.7365","8.2","68.72","-0.502","0.0"],
    [1396230,"2026-01-24 18:10:00","33810","2.227","215.0","3.43","206.2","996.7988","8.11","70.4","-0.5529999999999999","0.0"],
    [1396231,"2026-01-24 18:20:00","33811","1.8459999999999999","218.1","2.711","212.3","996.8603","8.3","68.89","-0.5589999999999999","0.0"],
    [1396232,"2026-01-24 18:30:00","33812","1.945","214.9","2.875","210.2","996.9288","8.31","68.78","-0.544","0.0"],
    [1396233,"2026-01-24 18:40:00","33813","1.742","232.2","3.136","226.3","997.0836","8.29","69.12","-0.642","0.0"],
    [1396234,"2026-01-24 18:50:00","33814","0.977","234.8","1.764","214.1","997.2264","8.33","68.1","-0.875","0.0"],
    [1396235,"2026-01-24 19:00:00","33815","1.2570000000000001","225.7","1.895","224.9","997.3408","8.44","67.36","-0.9620000000000001","0.0"],
    [1396236,"2026-01-24 19:10:00","33816","0.966","240.9","2.123","225","997.4407","8.59","65.95","-0.784","0.0"],
    [1396237,"2026-01-24 19:20:00","33817","0.45299999999999996","257.9","0.98","282.4","997.5782","8.0","70.94","-1.2429999999999999","0.0"],
    [1396238,"2026-01-24 19:30:00","33818","1.204","229.7","2.385","223.4","997.7103","8.03","69.7","-1.294","0.0"],
    [1396239,"2026-01-24 19:40:00","33819","0.20600000000000002","208.0","1.535","213.6","997.8062","8.32","68.16","-1.232","0.0"],
    [1396240,"2026-01-24 19:50:00","33820","0.242","194.1","0.98","195","997.9235","7.907","72.48","-1.2930000000000001","0.0"],
    [1396241,"2026-01-24 20:00:00","33821","0.24600000000000002","221.7","1.339","199.3","997.9944","7.62","73.91","-1.3","0.0"],
    [1396242,"2026-01-24 20:10:00","33822","1.166","207.3","2.189","218.7","998.0352","8.04","70.46","-1.318","0.0"],
    [1396243,"2026-01-24 20:20:00","33823","1.5019999999999998","232.1","2.744","201.9","998.1161","8.49","65.73","-1.571","0.0"],
    [1396244,"2026-01-24 20:30:00","33824","1.5819999999999999","237.1","2.973","233.1","998.2874","8.75","63.26","-1.507","0.0"],
    [1396245,"2026-01-24 20:40:00","33825","1.486","241.9","3.626","255","998.4282","8.81","62.36","-1.7730000000000001","0.0"],
    [1396246,"2026-01-24 20:50:00","33826","1.475","265.3","3.593","240.1","998.5618","8.82","62.1","-1.8980000000000001","0.0"],
    [1396247,"2026-01-24 21:00:00","33827","1.4369999999999998","258.3","3.332","280.8","998.6365","8.73","62.11","-1.892","0.0"],
    [1396248,"2026-01-24 21:10:00","33828","1.9269999999999998","244.0","3.953","281.2","998.7189","8.8","61.28","-1.6540000000000001","0.0"],
    [1396249,"2026-01-24 21:20:00","33829","1.227","266.1","3.038","292.1","998.9182","8.65","62.3","-1.347","0.0"],
    [1396250,"2026-01-24 21:30:00","33830","1.3780000000000001","296.8","3.397","319.5","999.0623","8.24","64.94","-1.9380000000000002","0.0"],
    [1396251,"2026-01-24 21:40:00","33831","1.286","348.9","3.299","356.7","999.3402","8.23","64.69","-2.156","0.0"],
    [1396252,"2026-01-24 21:50:00","33832","1.156","2.927","2.221","350.3","999.4213","8.3","64.37","-1.966","0.0"],
    [1396253,"2026-01-24 22:00:00","33833","1.483","343.2","3.463","337.9","999.5461","8.06","65.14","-2.1590000000000003","0.0"],
    [1396254,"2026-01-24 22:10:00","33834","1.598","318.6","3.299","303.5","999.5578","8.18","63.75","-2.009","0.0"],
    [1396255,"2026-01-24 22:20:00","33835","1.235","309.4","3.789","303","999.6212","8.1","63.68","-2.033","0.0"],
    [1396256,"2026-01-24 22:30:00","33836","1.611","323.9","3.724","308.9","999.7712","8.08","63.47","-2.138","0.0"],
    [1396257,"2026-01-24 22:40:00","33837","1.615","340.3","2.646","334.6","999.9375","8.25","62.21","-1.995","0.0"],
    [1396258,"2026-01-24 22:50:00","33838","1.7280000000000002","328.2","3.136","327.9","1000.09","8.15","63.05","-2.142","0.0"],
    [1396259,"2026-01-24 23:00:00","33839","1.726","338.8","3.267","336.1","1000.1210000000001","8.21","62.86","-2.061","0.0"],
    [1396260,"2026-01-24 23:10:00","33840","1.911","356.1","3.071","342.2","1000.194","8.09","63.07","-2.209","0.0"],
    [1396261,"2026-01-24 23:20:00","33841","2.064","359.3","4.377","5.486","1000.2180000000001","8.17","62.98","-2.14","0.0"],
    [1396262,"2026-01-24 23:30:00","33842","2.591","331.6","5.651","309.3","1000.294","8.31","62.27","-2.219","0.0"],
    [1396263,"2026-01-24 23:40:00","33843","1.517","337.3","3.463","270","1000.3969999999999","8.27","62.0","-2.261","0.0"],
    [1396264,"2026-01-24 23:50:00","33844","1.973","354.0","4.279","334.8","1000.4639999999999","8.34","61.42","-2.517","0.0"],
    [1396265,"2026-01-25 00:00:00","33845","2.859","8.23","6.011","30","1000.556","8.39","61.7","-2.2769999999999997","0.0"],
    [1396266,"2026-01-25 00:10:00","33846","2.66","354.8","4.671","327.8","1000.6519999999999","8.49","60.98","-2.227","0.0"],
    [1396267,"2026-01-25 00:20:00","33847","3.366","338.0","5.815","329.5","1000.703","8.44","61.6","-2.262","0.0"],
    [1396268,"2026-01-25 00:30:00","33848","2.926","337.1","4.704","8.37","1000.757","8.39","62.19","-2.259","0.0"],
    [1396269,"2026-01-25 00:40:00","33849","2.009","335.8","3.528","333.2","1000.813","8.32","62.51","-2.748","0.0"],
    [1396270,"2026-01-25 00:50:00","33850","1.705","310.6","3.528","302.2","1001.105","8.08","63.85","-2.7939999999999996","0.0"],
    [1396271,"2026-01-25 01:00:00","33851","3.117","322.6","4.508","327.4","1001.355","7.825","65.61","-2.891","0.0"],
    [1396272,"2026-01-25 01:10:00","33852","3.1889999999999996","326.4","5.227","334.6","1001.3689999999999","7.9479999999999995","65.22","-2.7889999999999997","0.0"],
    [1396273,"2026-01-25 01:20:00","33853","3.5239999999999996","326.8","6.076","327.9","1001.3539999999999","7.858","65.75","-2.772","0.0"],
    [1396274,"2026-01-25 01:30:00","33854","3.074","327.9","4.965","322.7","1001.457","7.821000000000001","66.13","-2.784","0.0"],
    [1396275,"2026-01-25 01:40:00","33855","2.553","303.2","4.867","299.1","1001.5160000000001","7.582000000000001","67.44","-2.785","0.0"],
    [1396276,"2026-01-25 01:50:00","33856","2.701","326.6","4.965","312.2","1001.383","7.55","68.0","-2.784","0.0"],
    [1396277,"2026-01-25 02:00:00","33857","2.6460000000000004","328.1","5.357","322","1001.352","7.641","67.79","-2.7939999999999996","0.0"],
    [1396278,"2026-01-25 02:10:00","33858","2.805","299.9","5.88","295.1","1001.423","7.662999999999999","67.93","-2.906","0.0"],
    [1396279,"2026-01-25 02:20:00","33859","1.9469999999999998","249.9","4.377","237.2","1001.441","7.853","66.98","-2.802","0.0"],
    [1396280,"2026-01-25 02:30:00","33860","1.641","255.1","3.855","281","1001.367","7.801","67.4","-2.799","0.0"],
    [1396281,"2026-01-25 02:40:00","33861","3.103","278.8","6.664","285.8","1001.3510000000001","7.767","68.34","-2.8789999999999996","0.0"],
    [1396282,"2026-01-25 02:50:00","33862","4.6080000000000005","301.5","6.925","305.2","1001.434","7.745","69.18","-2.79","0.0"],
    [1396283,"2026-01-25 03:00:00","33863","4.422","310.2","7.317","299.6","1001.6389999999999","7.906000000000001","68.54","-2.705","0.0"],
    [1396284,"2026-01-25 03:10:00","33864","2.46","308.7","4.312","305.4","1001.89","7.835","68.63","-2.7760000000000002","0.0"],
    [1396285,"2026-01-25 03:20:00","33865","2.73","320.7","4.377","317.3","1001.942","7.781000000000001","68.99","-2.7569999999999997","0.0"],
    [1396286,"2026-01-25 03:30:00","33866","3.861","323.1","6.533","313.8","1001.928","7.827999999999999","69.03","-2.6510000000000002","0.0"],
    [1396287,"2026-01-25 03:40:00","33867","4.033","327.1","7.35","328.5","1001.967","8.08","67.69","-2.6839999999999997","0.0"],
    [1396288,"2026-01-25 03:50:00","33868","4.261","325.1","7.35","346.8","1002.2080000000001","8.0","67.95","-2.7039999999999997","0.0"],
    [1396289,"2026-01-25 04:00:00","33869","3.475","325.1","6.697","310.4","1002.3510000000001","7.979","68.05","-2.6010000000000004","0.0"],
    [1396290,"2026-01-25 04:10:00","33870","2.804","320.4","5.978","320.8","1002.4689999999999","7.997000000000001","67.69","-2.7289999999999996","0.0"],
    [1396291,"2026-01-25 04:20:00","33871","1.992","327.2","4.149","347","1002.6360000000001","7.872000000000001","68.14","-2.792","0.0"],
    [1396292,"2026-01-25 04:30:00","33872","2.451","333.4","5.161","334.5","1002.6189999999999","7.902","67.91","-2.8339999999999996","0.0"],
    [1396293,"2026-01-25 04:40:00","33873","2.181","325.8","4.639","333","1002.67","7.718","68.67","-2.937","0.0"],
    [1396294,"2026-01-25 04:50:00","33874","1.084","353.5","2.679","344.3","1002.668","7.6739999999999995","68.64","-2.839","0.0"],
    [1396295,"2026-01-25 05:00:00","33875","2.551","335.2","5.063","341.9","1002.7610000000001","7.678999999999999","68.56","-3.002","0.0"],
    [1396296,"2026-01-25 05:10:00","33876","2.506","331.5","5.586","332.2","1002.674","7.817","67.85","-2.825","0.0"],
    [1396297,"2026-01-25 05:20:00","33877","2.7560000000000002","340.6","4.508","329","1002.7080000000001","7.754","67.97","-2.8160000000000003","0.0"],
    [1396298,"2026-01-25 05:30:00","33878","4.273","332.0","6.762","333.9","1002.794","7.932","66.92","-2.833","0.0"],
    [1396299,"2026-01-25 05:40:00","33879","3.4539999999999997","323.6","6.109","329.8","1002.7230000000001","7.867999999999999","67.12","-2.65","0.0"],
    [1396300,"2026-01-25 05:50:00","33880","3.3510000000000004","318.3","6.697","297.5","1002.699","7.732","67.66","-2.762","0.0"],
    [1396301,"2026-01-25 06:00:00","33881","2.65","322.6","4.9","313.9","1002.7230000000001","7.542999999999999","68.35","-2.79","0.0"],
    [1396302,"2026-01-25 06:10:00","33882","2.89","330.3","4.737","323.3","1002.846","7.806","66.96","-2.813","0.0"],
    [1396303,"2026-01-25 06:20:00","33883","2.481","326.7","4.41","334.5","1003.0360000000001","7.858","66.46","-2.779","0.0"],
    [1396304,"2026-01-25 06:30:00","33884","1.214","224.2","2.091","246.2","1003.43","7.649","67.05","-2.73","0.0"],
    [1396305,"2026-01-25 06:40:00","33885","0.795","229.1","1.601","255.2","1003.422","7.31","68.55","-2.798","0.0"],
    [1396306,"2026-01-25 06:50:00","33886","0.722","287.9","1.764","299.7","1003.278","7.189","69.11","-2.7969999999999997","0.0"],
    [1396307,"2026-01-25 07:00:00","33887","1.44","296.1","2.385","338.6","1003.168","6.632000000000001","71.83","-2.155","0.0"],
    [1396308,"2026-01-25 07:10:00","33888","1.9909999999999999","229.3","2.744","243.4","1003.3489999999999","6.632000000000001","72.12","1.327","0.0"],
    [1396309,"2026-01-25 07:20:00","33889","1.723","287.5","3.103","312.6","1003.2510000000001","6.513999999999999","72.19","9.38","0.0"],
    [1396310,"2026-01-25 07:30:00","33890","2.342","288.7","4.998","297","1003.201","6.513","72.68","19.91","0.0"],
    [1396311,"2026-01-25 07:40:00","33891","2.06","291.0","4.867","278.5","1003.177","7.55","67.0","31.6","0.0"],
    [1396312,"2026-01-25 07:50:00","33892","1.54","240.6","3.038","239.5","1003.429","7.845","65.25","39.24","0.0"],
    [1396313,"2026-01-25 08:00:00","33893","1.4080000000000001","260.0","3.038","273.9","1003.5089999999999","7.864","65.39","48.43","0.0"],
    [1396314,"2026-01-25 08:10:00","33894","2.276","282.9","4.573","296.4","1003.336","7.865","65.63","56.03","0.0"],
    [1396315,"2026-01-25 08:20:00","33895","2.168","271.6","5.194","262.2","1003.4760000000001","8.16","63.92","67.0","0.0"],
    [1396316,"2026-01-25 08:30:00","33896","1.8780000000000001","279.1","4.214","296.3","1003.4910000000001","8.31","63.18","78.41","0.0"],
    [1396317,"2026-01-25 08:40:00","33897","1.9180000000000001","258.4","4.377","266.1","1003.495","8.69","61.51","129.0","0.0"],
    [1396318,"2026-01-25 08:50:00","33898","2.188","278.0","4.41","279.4","1003.3380000000001","8.98","61.02","156.1","0.0"],
    [1396319,"2026-01-25 09:00:00","33899","2.4419999999999997","278.8","4.802","285.3","1003.165","9.17","61.12","214.6","0.0"],
    [1396320,"2026-01-25 09:10:00","33900","2.2969999999999997","256.3","4.933","293.7","1003.235","9.47","60.25","237.4","0.0"],
    [1396321,"2026-01-25 09:20:00","33901","1.848","238.5","3.299","284.3","1003.3389999999999","9.74","59.52","240.2","0.0"],
    [1396322,"2026-01-25 09:30:00","33902","1.945","261.9","3.757","276.4","1003.3860000000001","10.16","58.44","260.9","0.0"],
    [1396323,"2026-01-25 09:40:00","33903","3.449","293.5","6.37","297.9","1003.1669999999999","10.45","57.42","305.5","0.0"],
    [1396324,"2026-01-25 09:50:00","33904","4.949","291.4","6.958","286.8","1003.172","10.74","56.14","296.9","0.1"],
    [1396325,"2026-01-25 10:00:00","33905","3.853","277.8","6.468","274.2","1003.1210000000001","11.21","53.78","401.2","0.0"],
    [1396326,"2026-01-25 10:10:00","33906","4.934","290.1","7.971","295.4","1003.102","11.65","52.29","414.0","0.0"],
    [1396327,"2026-01-25 10:20:00","33907","5.242999999999999","286.8","8.92","284.9","1003.143","11.83","51.62","407.3","0.0"],
    [1396328,"2026-01-25 10:30:00","33908","3.9930000000000003","249.4","7.415","274.3","1003.04","12.1","49.36","417.0","0.0"],
    [1396329,"2026-01-25 10:40:00","33909","3.514","241.7","7.187","263.1","1003.0880000000001","12.36","48.64","457.0","0.0"],
    [1396330,"2026-01-25 10:50:00","33910","3.3369999999999997","242.0","6.86","269.2","1003.0360000000001","12.67","48.17","478.3","0.0"],
    [1396331,"2026-01-25 11:00:00","33911","3.8989999999999996","273.7","7.775","320.4","1002.7719999999999","12.92","49.39","457.8","0.0"],
    [1396332,"2026-01-25 11:10:00","33912","4.652","279.3","8.53","289.7","1002.5110000000001","13.15","48.46","464.8","0.0"],
    [1396333,"2026-01-25 11:20:00","33913","6.287000000000001","287.7","10.85","290.6","1002.3389999999999","13.28","48.18","494.2","0.0"],
    [1396334,"2026-01-25 11:30:00","33914","6.007000000000001","292.9","9.28","301.8","1002.092","13.36","48.02","505.2","0.0"],
    [1396335,"2026-01-25 11:40:00","33915","5.891","277.6","9.87","268.7","1002.041","13.56","46.62","512.0","0.0"],
    [1396336,"2026-01-25 11:50:00","33916","5.105","269.3","9.77","246","1001.916","13.46","45.55","478.4","0.0"],
    [1396337,"2026-01-25 12:00:00","33917","4.135","260.6","9.34","290","1001.548","13.75","45.54","479.8","0.0"],
    [1396338,"2026-01-25 12:10:00","33918","5.138","267.2","10.03","286.7","1001.4680000000001","13.68","45.51","486.5","0.0"],
    [1396339,"2026-01-25 12:20:00","33919","4.351","260.1","8.82","255.2","1001.3589999999999","13.78","45.16","477.4","0.0"],
    [1396340,"2026-01-25 12:30:00","33920","4.287","253.3","8.46","226.2","1001.528","13.91","44.76","534.5","0.0"],
    [1396341,"2026-01-25 12:40:00","33921","5.021","246.8","9.93","275.4","1001.5269999999999","14.18","43.98","572.1","0.0"],
    [1396342,"2026-01-25 12:50:00","33922","4.5169999999999995","244.4","9.83","269.1","1001.421","14.38","44.4","555.1","0.0"],
    [1396343,"2026-01-25 13:00:00","33923","4.03","238.9","8.66","276.3","1001.2510000000001","14.53","44.28","479.6","0.0"],
    [1396344,"2026-01-25 13:10:00","33924","3.9189999999999996","232.9","7.285","217.7","1000.857","13.95","46.15","298.4","0.0"],
    [1396345,"2026-01-25 13:20:00","33925","3.366","237.9","6.076","253.4","1000.622","14.24","44.98","459.1","0.0"],
    [1396346,"2026-01-25 13:30:00","33926","5.249","272.7","10.62","282.4","1000.544","14.67","43.09","486.2","0.0"],
    [1396347,"2026-01-25 13:40:00","33927","4.224","249.9","8.82","272.5","1000.452","14.85","42.39","483.0","0.0"],
    [1396348,"2026-01-25 13:50:00","33928","4.248","253.5","7.709","275.2","1000.334","14.98","41.95","442.3","0.0"],
    [1396349,"2026-01-25 14:00:00","33929","4.095","241.0","8.43","253.2","1000.1410000000001","14.62","42.91","174.9","0.0"],
    [1396350,"2026-01-25 14:10:00","33930","4.2010000000000005","245.3","8.1","255.4","1000.0239999999999","14.27","42.92","107.2","0.0"],
    [1396351,"2026-01-25 14:20:00","33931","4.2589999999999995","247.7","8.62","241.4","999.8589","14.45","42.7","230.4","0.0"],
    [1396352,"2026-01-25 14:30:00","33932","4.177","252.2","8.13","279.4","999.7502","15.0","41.71","422.9","0.0"],
    [1396353,"2026-01-25 14:40:00","33933","3.464","245.7","7.481","277.8","999.6339","15.19","41.95","229.6","0.0"],
    [1396354,"2026-01-25 14:50:00","33934","4.045","250.1","8.04","284.3","999.4626","14.9","42.83","249.8","0.0"],
    [1396355,"2026-01-25 15:00:00","33935","3.605","250.2","7.546","272.4","999.4677","15.25","42.42","320.6","0.0"],
    [1396356,"2026-01-25 15:10:00","33936","3.016","239.9","5.88","275","999.4293","15.15","42.97","240.4","0.0"],
    [1396357,"2026-01-25 15:20:00","33937","2.572","231.0","4.606","225.9","999.2353","14.9","44.19","176.5","0.0"],
    [1396358,"2026-01-25 15:30:00","33938","2.983","229.9","6.076","238.8","999.2879","14.73","45.71","153.5","0.0"],
    [1396359,"2026-01-25 15:40:00","33939","3.2939999999999996","226.9","6.043","225.5","999.3468","14.28","51.22","167.9","0.0"],
    [1396360,"2026-01-25 15:50:00","33940","3.052","226.6","6.076","214.8","999.2789","14.05","55.15","78.68","0.0"],
    [1396361,"2026-01-25 16:00:00","33941","4.031000000000001","221.3","7.448","223.9","999.2233","13.79","58.03","38.78","0.0"],
    [1396362,"2026-01-25 16:10:00","33942","3.73","215.7","5.88","200.3","998.9313","13.77","61.16","72.69","0.0"],
    [1396363,"2026-01-25 16:20:00","33943","3.6189999999999998","221.7","5.717","209.8","998.7509","13.9","58.27","35.4","0.0"],
    [1396364,"2026-01-25 16:30:00","33944","2.967","229.6","4.965","227.2","998.6514","14.27","49.21","10.27","0.0"],
    [1396365,"2026-01-25 16:40:00","33945","2.824","228.6","4.606","251.8","998.5432","14.23","46.59","2.219","0.0"],
    [1396366,"2026-01-25 16:50:00","33946","2.611","228.5","5.161","258.3","998.3414","14.13","46.53","-0.41200000000000003","0.0"],
    [1396367,"2026-01-25 17:00:00","33947","2.415","229.3","4.149","220.4","998.1327","14.05","46.33","-1.018","0.0"],
    [1396368,"2026-01-25 17:10:00","33948","2.8510000000000004","221.5","5.259","220.5","997.9628","14.09","47.26","-1.693","0.0"],
    [1396369,"2026-01-25 17:20:00","33949","7.082999999999999","318.3","12.22","343.2","999.2012","12.29","59.55","1.838","1.3"],
    [1396370,"2026-01-25 17:30:00","33950","4.566","326.4","7.317","330.8","999.1676","8.42","80.9","1.3119999999999998","1.1"],
    [1396371,"2026-01-25 17:40:00","33951","2.121","330.4","3.071","328","998.5078","8.07","82.3","-1.726","0.1"],
    [1396372,"2026-01-25 17:50:00","33952","2.7319999999999998","320.2","3.626","319.7","998.7723","8.37","79.92","-1.21","0.0"],
    [1396373,"2026-01-25 18:00:00","33953","4.158","296.0","6.762","286.3","999.8257","8.62","80.9","-0.961","0.3"],
    [1396374,"2026-01-25 18:10:00","33954","2.983","283.5","8.79","290.6","999.6894","8.51","83.0","-1.379","0.4"],
    [1396375,"2026-01-25 18:20:00","33955","2.025","285.4","3.561","292.8","999.2114","8.86","80.9","-1.22","0.0"],
    [1396376,"2026-01-25 18:30:00","33956","1.556","233.5","2.646","228.8","998.9494","9.02","79.75","-0.835","0.0"],
    [1396377,"2026-01-25 18:40:00","33957","0.917","230.9","1.568","231.1","998.9554","9.01","79.09","-1.245","0.0"],
    [1396378,"2026-01-25 18:50:00","33958","0.529","239.2","1.307","239.2","999.1611","9.11","78.02","-1.229","0.0"],
    [1396379,"2026-01-25 19:00:00","33959","0.084","300.0","0.915","295.1","999.1683","8.89","80.0","-1.3730000000000002","0.0"],
    [1396380,"2026-01-25 19:10:00","33960","1.2009999999999998","308.3","2.091","311.4","999.2819","8.51","82.9","-2.023","0.0"],
    [1396381,"2026-01-25 19:20:00","33961","2.062","315.9","2.548","315.2","999.4524","7.754","86.6","-2.454","0.0"],
    [1396382,"2026-01-25 19:30:00","33962","1.335","299.9","2.385","323.1","999.5446","7.801","87.4","-2.528","0.0"],
    [1396383,"2026-01-25 19:40:00","33963","0.6559999999999999","302.4","1.699","323.3","999.4184","7.965","85.2","-2.5140000000000002","0.0"],
    [1396384,"2026-01-25 19:50:00","33964","1.419","275.3","2.548","250.1","999.5383","7.846","85.7","-2.7680000000000002","0.0"],
    [1396385,"2026-01-25 20:00:00","33965","1.13","260.2","2.058","294.1","999.5338","8.22","83.3","-2.451","0.0"],
    [1396386,"2026-01-25 20:10:00","33966","1.054","241.8","1.96","256.7","999.4754","8.25","83.0","-2.138","0.0"],
    [1396387,"2026-01-25 20:20:00","33967","1.229","240.3","3.43","271.1","999.2702","8.56","79.43","-2.094","0.0"],
    [1396388,"2026-01-25 20:30:00","33968","1.5830000000000002","291.7","2.809","274.6","999.0402","8.65","76.92","-1.604","0.0"],
    [1396389,"2026-01-25 20:40:00","33969","1.8769999999999998","293.2","3.691","301.8","998.9979","8.23","79.03","-1.7369999999999999","0.0"],
    [1396390,"2026-01-25 20:50:00","33970","2.307","290.6","5.096","299","999.0587","8.66","76.2","-1.328","0.0"],
    [1396391,"2026-01-25 21:00:00","33971","2.065","296.7","3.887","300.7","999.304","8.99","73.53","-1.3","0.0"],
    [1396392,"2026-01-25 21:10:00","33972","3.089","293.5","5.651","319.3","999.4639","9.48","69.31","-1.273","0.0"],
    [1396393,"2026-01-25 21:20:00","33973","3.7560000000000002","285.4","6.239","304.9","999.7215","9.72","67.0","-0.9890000000000001","0.0"],
    [1396394,"2026-01-25 21:30:00","33974","2.6260000000000003","285.5","4.606","275.7","999.8402","9.41","68.76","-0.769","0.0"],
    [1396395,"2026-01-25 21:40:00","33975","1.806","296.4","3.593","296.9","1000.048","9.22","69.44","-1.249","0.0"],
    [1396396,"2026-01-25 21:50:00","33976","1.038","285.4","2.058","261.8","1000.158","8.93","70.89","-1.4580000000000002","0.0"],
    [1396397,"2026-01-25 22:00:00","33977","2.9810000000000003","294.3","7.089","307.8","1000.188","8.93","69.36","-1.569","0.0"],
    [1396398,"2026-01-25 22:10:00","33978","4.7989999999999995","308.0","8.75","323.1","1000.4","8.99","66.8","-1.31","0.0"],
    [1396399,"2026-01-25 22:20:00","33979","5.127999999999999","306.2","9.02","301.3","1000.654","9.03","65.32","-1.288","0.0"],
    [1396400,"2026-01-25 22:30:00","33980","4.216","304.7","6.337","309","1000.711","8.91","65.02","-1.38","0.0"],
    [1396401,"2026-01-25 22:40:00","33981","4.556","313.8","7.677","325.1","1000.765","8.95","63.76","-1.8330000000000002","0.0"],
    [1396402,"2026-01-25 22:50:00","33982","5.888999999999999","316.2","10.62","318.3","1000.712","9.04","62.26","-2.199","0.0"],
    [1396403,"2026-01-25 23:00:00","33983","6.856","309.8","10.98","306.8","1000.6469999999999","8.96","62.08","-2.488","0.0"],
    [1396404,"2026-01-25 23:10:00","33984","6.672999999999999","305.9","11.11","308.1","1000.659","8.99","61.53","-2.3369999999999997","0.0"],
    [1396405,"2026-01-25 23:20:00","33985","6.181","306.2","11.79","315.6","1000.8760000000001","8.82","62.37","-2.436","0.0"],
    [1396406,"2026-01-25 23:30:00","33986","6.445","305.8","11.01","299.9","1000.92","8.84","61.64","-2.62","0.0"],
    [1396407,"2026-01-25 23:40:00","33987","7.068","307.9","11.3","319.7","1000.9760000000001","8.81","61.76","-2.461","0.0"],
    [1396408,"2026-01-25 23:50:00","33988","7.305","305.0","11.11","293.1","1001.207","8.97","60.44","-2.6060000000000003","0.0"],
    [1396409,"2026-01-26 00:00:00","33989","6.311","301.4","10.39","308.8","1001.175","8.98","60.26","-2.523","0.0"],
    [1396410,"2026-01-26 00:10:00","33990","6.566","300.3","11.92","294.5","1001.163","8.97","60.35","-2.543","0.0"],
    [1396411,"2026-01-26 00:20:00","33991","5.041","296.0","8.17","301.8","1001.29","8.89","60.89","-2.5839999999999996","0.0"],
    [1396412,"2026-01-26 00:30:00","33992","3.446","278.3","7.611","292.3","1001.5210000000001","8.8","61.4","-2.77","0.0"],
    [1396413,"2026-01-26 00:40:00","33993","1.75","239.8","3.92","302.3","1001.582","8.57","62.44","-2.781","0.0"],
    [1396414,"2026-01-26 00:50:00","33994","1.6280000000000001","221.7","2.973","224.4","1001.793","8.3","63.78","-2.9339999999999997","0.0"],
    [1396415,"2026-01-26 01:00:00","33995","0.747","173.6","1.699","223.6","1001.7689999999999","8.14","64.31","-2.971","0.0"],
    [1396416,"2026-01-26 01:10:00","33996","1.629","164.2","3.038","173.9","1001.74","8.29","63.35","-3.4010000000000002","0.0"],
    [1396417,"2026-01-26 01:20:00","33997","1.228","192.1","3.365","157.8","1001.867","8.58","62.38","-3.241","0.0"],
    [1396418,"2026-01-26 01:30:00","33998","1.794","176.3","3.789","181.7","1001.7280000000001","8.9","61.13","-3.08","0.0"],
    [1396419,"2026-01-26 01:40:00","33999","1.301","173.4","3.789","171.3","1001.862","8.87","61.32","-2.866","0.0"],
    [1396420,"2026-01-26 01:50:00","34000","1.51","187.0","3.332","171.9","1002.047","8.79","61.94","-2.949","0.0"],
    [1396421,"2026-01-26 02:00:00","34001","1.4269999999999998","188.3","2.973","173.7","1002.1110000000001","8.64","62.97","-3.009","0.0"],
    [1396422,"2026-01-26 02:10:00","34002","0.6990000000000001","172.9","1.601","168.8","1002.1489999999999","8.5","63.86","-2.911","0.0"],
    [1396423,"2026-01-26 02:20:00","34003","1.172","192.1","3.136","163.8","1002.0360000000001","8.77","62.71","-3.2739999999999996","0.0"],
    [1396424,"2026-01-26 02:30:00","34004","1.534","197.8","3.103","161.2","1002.1089999999999","8.83","62.42","-3.17","0.0"],
    [1396425,"2026-01-26 02:40:00","34005","1.929","196.0","4.279","268.6","1002.05","8.89","62.24","-2.9989999999999997","0.0"],
    [1396426,"2026-01-26 02:50:00","34006","2.066","254.2","4.606","271.8","1002.008","8.83","62.6","-2.8710000000000004","0.0"],
    [1396427,"2026-01-26 03:00:00","34007","2.036","228.2","5.357","212.4","1001.92","8.82","62.61","-2.888","0.0"],
    [1396428,"2026-01-26 03:10:00","34008","1.8119999999999998","250.5","4.704","284.9","1001.933","8.82","62.51","-2.9760000000000004","0.0"],
    [1396429,"2026-01-26 03:20:00","34009","2.782","281.7","7.546","292.3","1002.064","8.95","61.93","-2.927","0.0"],
    [1396430,"2026-01-26 03:30:00","34010","2.897","276.0","6.011","306.7","1002.053","8.94","62.04","-2.853","0.0"],
    [1396431,"2026-01-26 03:40:00","34011","5.676","304.0","13.46","308.4","1001.955","9.05","61.78","-2.846","0.0"],
    [1396432,"2026-01-26 03:50:00","34012","8.1","312.8","12.81","309","1001.934","9.16","61.52","-2.592","0.0"],
    [1396433,"2026-01-26 04:00:00","34013","7.361000000000001","307.2","12.61","317.5","1001.9730000000001","9.11","61.95","-2.306","0.0"],
    [1396434,"2026-01-26 04:10:00","34014","8.02","311.3","14.21","304.9","1001.98","9.14","61.78","-2.35","0.0"],
    [1396435,"2026-01-26 04:20:00","34015","8.31","313.3","12.97","321.3","1002.005","9.05","62.37","-2.195","0.0"],
    [1396436,"2026-01-26 04:30:00","34016","9.45","311.3","14.01","307.1","1001.985","9.04","62.54","-2.0909999999999997","0.0"],
    [1396437,"2026-01-26 04:40:00","34017","8.61","309.7","14.14","309.6","1001.937","8.95","63.1","-2.116","0.0"],
    [1396438,"2026-01-26 04:50:00","34018","8.56","309.7","13.95","304.1","1002.053","8.97","63.02","-2.176","0.0"],
    [1396439,"2026-01-26 05:00:00","34019","9.47","313.9","14.67","314.1","1002.258","8.99","63.02","-2.352","0.0"],
    [1396440,"2026-01-26 05:10:00","34020","8.12","310.4","12.02","300.1","1002.3889999999999","9.09","62.66","-2.166","0.0"],
    [1396441,"2026-01-26 05:20:00","34021","8.41","309.7","14.08","317.1","1002.4730000000001","9.07","63.0","-2.253","0.0"],
    [1396442,"2026-01-26 05:30:00","34022","7.6770000000000005","306.8","11.83","313.4","1002.6360000000001","9.07","62.98","-2.124","0.0"],
    [1396443,"2026-01-26 05:40:00","34023","8.57","310.7","13.13","304.7","1002.549","9.17","62.53","-2.283","0.0"],
    [1396444,"2026-01-26 05:50:00","34024","7.341","310.5","11.24","307.4","1002.6060000000001","9.12","62.99","-2.176","0.0"],
    [1396445,"2026-01-26 06:00:00","34025","8.31","316.0","11.76","331.8","1002.921","9.29","62.24","-2.315","0.0"],
    [1396446,"2026-01-26 06:10:00","34026","7.747999999999999","313.0","12.09","311.5","1003.148","9.26","62.64","-2.0469999999999997","0.0"],
    [1396447,"2026-01-26 06:20:00","34027","7.848","313.1","13.1","310.6","1003.37","9.04","63.85","-2.009","0.0"],
    [1396448,"2026-01-26 06:30:00","34028","8.11","312.9","13.1","310.6","1003.5239999999999","8.94","64.28","-1.9969999999999999","0.0"],
    [1396449,"2026-01-26 06:40:00","34029","7.763999999999999","319.2","12.28","320.3","1003.8510000000001","8.77","65.2","-2.102","0.0"],
    [1396450,"2026-01-26 06:50:00","34030","7.357","319.5","13.16","330.8","1004.164","8.9","64.29","-2.1109999999999998","0.0"],
    [1396451,"2026-01-26 07:00:00","34031","6.3020000000000005","321.9","10.42","324.1","1004.4760000000001","8.92","64.15","-1.403","0.0"],
    [1396452,"2026-01-26 07:10:00","34032","6.803","319.7","11.63","318.6","1004.633","9.04","63.55","1.483","0.0"],
    [1396453,"2026-01-26 07:20:00","34033","7.059","317.4","11.17","313.1","1004.785","9.11","63.2","6.086","0.0"],
    [1396454,"2026-01-26 07:30:00","34034","6.331","329.2","11.6","320.2","1005.034","9.14","62.81","11.79","0.0"],
    [1396455,"2026-01-26 07:40:00","34035","4.637","340.3","7.611","332.7","1005.2639999999999","9.21","62.36","24.24","0.0"],
    [1396456,"2026-01-26 07:50:00","34036","3.8510000000000004","332.3","6.697","339.9","1005.495","9.23","62.34","40.16","0.0"],
    [1396457,"2026-01-26 08:00:00","34037","2.935","331.0","5.684","282.7","1005.8389999999999","9.15","63.03","46.88","0.0"],
    [1396458,"2026-01-26 08:10:00","34038","2.866","323.7","4.965","329.9","1006.0930000000001","9.17","63.18","60.13","0.0"],
    [1396459,"2026-01-26 08:20:00","34039","3.947","325.6","6.501","332.8","1006.3580000000001","9.14","63.8","71.59","0.0"],
    [1396460,"2026-01-26 08:30:00","34040","4.481","316.4","6.991","322.2","1006.4760000000001","9.26","63.53","92.9","0.0"],
    [1396461,"2026-01-26 08:40:00","34041","4.564","312.2","7.187","303.1","1006.439","9.4","63.28","111.7","0.0"],
    [1396462,"2026-01-26 08:50:00","34042","4.593999999999999","308.3","6.631","312.5","1006.363","9.45","63.53","144.0","0.0"],
    [1396463,"2026-01-26 09:00:00","34043","4.462","312.6","7.742","327.3","1006.413","9.7","63.22","169.7","0.0"],
    [1396464,"2026-01-26 09:10:00","34044","5.058","304.2","8.4","309.3","1006.372","9.96","62.24","199.7","0.0"],
    [1396465,"2026-01-26 09:20:00","34045","6.151","302.0","9.77","312.7","1006.431","10.2","61.51","172.5","0.0"],
    [1396466,"2026-01-26 09:30:00","34046","6.157","305.5","10.09","309.1","1006.4760000000001","10.27","61.56","168.5","0.1"],
    [1396467,"2026-01-26 09:40:00","34047","6.9479999999999995","304.1","10.39","300.8","1006.56","10.45","60.57","201.4","0.0"],
    [1396468,"2026-01-26 09:50:00","34048","6.773","306.5","10.49","315.2","1006.707","10.63","60.19","231.2","0.0"],
    [1396469,"2026-01-26 10:00:00","34049","7.001","306.9","11.07","308.8","1006.765","10.86","59.77","296.1","0.0"],
    [1396470,"2026-01-26 10:10:00","34050","6.2989999999999995","307.4","10.85","312.6","1006.676","11.06","59.25","269.4","0.0"],
    [1396471,"2026-01-26 10:20:00","34051","6.216","305.3","11.17","314.1","1006.7460000000001","11.33","58.34","325.2","0.0"],
    [1396472,"2026-01-26 10:30:00","34052","5.584","299.1","9.93","303","1006.916","11.66","57.65","359.1","0.0"],
    [1396473,"2026-01-26 10:40:00","34053","4.926","291.0","8.92","315","1007.127","11.96","56.97","413.0","0.0"],
    [1396474,"2026-01-26 10:50:00","34054","5.3629999999999995","295.3","8.62","278.2","1007.159","12.33","55.95","484.9","0.0"],
    [1396475,"2026-01-26 11:00:00","34055","6.221","302.6","10.55","296.8","1007.053","12.45","55.38","467.4","0.0"],
    [1396476,"2026-01-26 11:10:00","34056","7.439","301.3","11.79","304.8","1006.975","12.5","54.81","508.5","0.0"],
    [1396477,"2026-01-26 11:20:00","34057","7.525","301.7","12.28","308.4","1006.855","12.71","54.72","494.5","0.0"],
    [1396478,"2026-01-26 11:30:00","34058","8.57","299.9","12.97","297.2","1006.696","12.72","53.81","448.1","0.0"],
    [1396479,"2026-01-26 11:40:00","34059","7.149","301.0","11.6","297","1006.635","12.98","53.15","380.4","0.0"],
    [1396480,"2026-01-26 11:50:00","34060","6.169","300.9","11.79","312.7","1006.498","13.11","52.53","396.8","0.0"],
    [1396481,"2026-01-26 12:00:00","34061","5.787999999999999","299.2","10.62","306.9","1006.485","13.36","51.68","362.7","0.0"],
    [1396482,"2026-01-26 12:10:00","34062","5.83","292.8","10.36","303.5","1006.4989999999999","13.17","51.77","285.1","0.0"],
    [1396483,"2026-01-26 12:20:00","34063","4.723","289.7","8.85","294.7","1006.4680000000001","13.15","52.52","275.2","0.0"],
    [1396484,"2026-01-26 12:30:00","34064","3.378","252.8","6.501","256.9","1006.446","13.18","52.1","247.7","0.0"],
    [1396485,"2026-01-26 12:40:00","34065","3.8930000000000002","269.1","7.089","263.5","1006.308","13.07","52.36","251.7","0.0"],
    [1396486,"2026-01-26 12:50:00","34066","4.012","270.2","7.775","280.1","1006.22","13.07","52.53","295.6","0.0"],
    [1396487,"2026-01-26 13:00:00","34067","3.35","264.0","7.644","276","1006.148","13.47","51.71","338.7","0.0"],
    [1396488,"2026-01-26 13:10:00","34068","3.585","263.2","7.775","284.7","1006.115","13.72","51.22","404.3","0.0"],
    [1396489,"2026-01-26 13:20:00","34069","4.996","277.9","9.15","263","1005.935","13.56","52.03","333.6","0.0"],
    [1396490,"2026-01-26 13:30:00","34070","4.502","266.8","8.62","289.5","1005.91","13.74","51.74","358.9","0.0"],
    [1396491,"2026-01-26 13:40:00","34071","4.706","276.6","8","285.1","1006.079","14.21","49.98","441.7","0.0"],
    [1396492,"2026-01-26 13:50:00","34072","4.982","274.5","8.56","273.7","1006.1139999999999","14.66","47.77","498.4","0.0"],
    [1396493,"2026-01-26 14:00:00","34073","5.9670000000000005","285.7","8.92","284","1005.835","14.82","47.11","420.9","0.0"],
    [1396494,"2026-01-26 14:10:00","34074","5.861000000000001","296.2","10.13","287.8","1005.61","14.99","47.42","420.0","0.0"],
    [1396495,"2026-01-26 14:20:00","34075","6.181","291.2","9.31","291","1005.63","14.92","46.82","365.1","0.0"],
    [1396496,"2026-01-26 14:30:00","34076","6.0120000000000005","293.8","10.22","290.1","1005.7339999999999","14.81","46.84","271.1","0.0"],
    [1396497,"2026-01-26 14:40:00","34077","4.383","286.8","8.92","314.8","1005.704","14.67","47.97","213.8","0.0"],
    [1396498,"2026-01-26 14:50:00","34078","5.801","290.8","9.34","287.3","1005.554","14.58","47.73","193.2","0.0"],
    [1396499,"2026-01-26 15:00:00","34079","5.104","289.7","7.807","283.9","1005.6439999999999","14.53","47.75","165.2","0.0"],
    [1396500,"2026-01-26 15:10:00","34080","3.162","265.7","7.089","282.7","1005.943","14.62","46.98","147.3","0.0"],
    [1396501,"2026-01-26 15:20:00","34081","5.066","287.1","7.84","295.4","1005.795","14.47","47.29","143.7","0.0"],
    [1396502,"2026-01-26 15:30:00","34082","4.681","279.9","9.21","283.4","1006.1160000000001","14.34","46.69","124.8","0.0"],
    [1396503,"2026-01-26 15:40:00","34083","3.805","277.7","6.599","301.3","1006.2769999999999","14.22","46.82","98.1","0.0"],
    [1396504,"2026-01-26 15:50:00","34084","4.093","288.1","7.056","299.9","1006.222","14.01","47.9","81.8","0.0"],
    [1396505,"2026-01-26 16:00:00","34085","3.929","286.5","6.664","279.4","1006.2919999999999","13.85","48.16","60.07","0.0"],
    [1396506,"2026-01-26 16:10:00","34086","3.117","286.6","4.998","288.1","1006.441","13.64","49.34","44.01","0.0"],
    [1396507,"2026-01-26 16:20:00","34087","2.355","275.1","3.985","265.9","1006.2460000000001","13.55","49.59","32.58","0.0"],
    [1396508,"2026-01-26 16:30:00","34088","1.567","278.3","3.005","281.3","1006.288","13.41","50.55","24.21","0.0"],
    [1396509,"2026-01-26 16:40:00","34089","2.095","283.2","4.802","286.8","1006.404","13.42","49.68","14.05","0.0"],
    [1396510,"2026-01-26 16:50:00","34090","2.076","280.3","4.116","290.2","1006.31","13.31","49.9","6.071000000000001","0.0"],
    [1396511,"2026-01-26 17:00:00","34091","2.06","279.9","3.92","304.7","1006.377","13.03","51.36","1.649","0.0"],
    [1396512,"2026-01-26 17:10:00","34092","1.4969999999999999","272.6","3.332","286.2","1006.372","12.94","52.04","-0.624","0.0"],
    [1396513,"2026-01-26 17:20:00","34093","1.041","244.5","2.385","245.5","1006.5310000000001","12.8","52.92","-1.33","0.0"],
    [1396514,"2026-01-26 17:30:00","34094","1.41","267.7","3.071","260.8","1006.655","12.76","53.63","-1.825","0.0"],
    [1396515,"2026-01-26 17:40:00","34095","1.2429999999999999","230.5","2.385","264.1","1006.65","12.64","53.92","-1.328","0.0"],
    [1396516,"2026-01-26 17:50:00","34096","1.355","225.4","1.895","250.2","1006.842","12.6","54.02","-1.306","0.0"],
    [1396517,"2026-01-26 18:00:00","34097","1.465","231.5","2.744","247","1006.952","12.68","53.49","-1.278","0.0"],
    [1396518,"2026-01-26 18:10:00","34098","1.844","231.5","4.083","234.4","1006.743","12.86","52.52","-1.301","0.0"],
    [1396519,"2026-01-26 18:20:00","34099","2.353","222.2","3.43","208.1","1006.812","12.84","52.52","-1.261","0.0"],
    [1396520,"2026-01-26 18:30:00","34100","2.209","228.5","3.299","217.3","1006.882","12.82","53.47","-1.986","0.0"],
    [1396521,"2026-01-26 18:40:00","34101","2.153","228.4","3.365","227.6","1006.827","12.6","56.52","-3.466","0.0"],
    [1396522,"2026-01-26 18:50:00","34102","1.98","222.9","3.365","209.5","1006.943","12.26","59.46","-4.4430000000000005","0.0"],
    [1396523,"2026-01-26 19:00:00","34103","1.919","225.7","2.842","224.3","1006.971","12.05","61.83","-4.4319999999999995","0.1"],
    [1396524,"2026-01-26 19:10:00","34104","1.879","225.0","2.777","240.8","1006.982","12.13","60.99","-2.327","0.0"],
    [1396525,"2026-01-26 19:20:00","34105","1.819","226.7","3.005","218.7","1006.9910000000001","12.09","60.53","-2.379","0.0"],
    [1396526,"2026-01-26 19:30:00","34106","1.8259999999999998","253.4","4.312","289.5","1006.972","12.19","61.02","-3.4810000000000003","0.0"],
    [1396527,"2026-01-26 19:40:00","34107","1.956","230.2","3.169","227.1","1006.9580000000001","12.24","61.12","-2.7969999999999997","0.0"],
    [1396528,"2026-01-26 19:50:00","34108","2.076","211.0","3.103","203.8","1006.789","11.89","64.39","-1.444","0.0"],
    [1396529,"2026-01-26 20:00:00","34109","1.413","213.5","2.45","211.4","1006.671","11.77","65.66","-1.261","0.0"],
    [1396530,"2026-01-26 20:10:00","34110","1.445","208.5","3.071","217.2","1006.622","11.61","66.79","-1.261","0.0"],
    [1396531,"2026-01-26 20:20:00","34111","2.332","214.9","3.43","199.2","1006.525","11.59","66.76","-1.294","0.0"],
    [1396532,"2026-01-26 20:30:00","34112","2.656","226.8","4.345","217","1006.4019999999999","11.8","63.85","-2.178","0.0"],
    [1396533,"2026-01-26 20:40:00","34113","1.42","232.6","2.711","250.6","1006.284","11.95","61.13","-2.095","0.0"],
    [1396534,"2026-01-26 20:50:00","34114","1.818","230.4","3.201","207.9","1006.29","11.83","61.48","-2.552","0.0"],
    [1396535,"2026-01-26 21:00:00","34115","1.919","226.5","3.201","249.3","1006.173","11.79","61.26","-2.2680000000000002","0.0"],
    [1396536,"2026-01-26 21:10:00","34116","1.6159999999999999","229.3","2.548","238.7","1005.935","11.72","61.86","-2.011","0.0"],
    [1396537,"2026-01-26 21:20:00","34117","1.5190000000000001","230.9","2.385","233.9","1005.7610000000001","11.62","62.16","-2.025","0.0"],
    [1396538,"2026-01-26 21:30:00","34118","1.525","240.7","3.103","270","1005.61","11.61","62.12","-2.352","0.0"],
    [1396539,"2026-01-26 21:40:00","34119","1.48","243.7","2.45","276.3","1005.543","11.64","62.0","-2.7569999999999997","0.0"],
    [1396540,"2026-01-26 21:50:00","34120","1.425","249.5","2.777","235.3","1005.552","11.57","62.52","-2.753","0.0"],
    [1396541,"2026-01-26 22:00:00","34121","1.3230000000000002","255.3","2.287","270.1","1005.436","11.55","62.81","-2.759","0.0"],
    [1396542,"2026-01-26 22:10:00","34122","1.505","239.5","2.515","241.4","1005.43","11.37","63.69","-2.75","0.0"],
    [1396543,"2026-01-26 22:20:00","34123","1.354","250.4","2.352","242.8","1005.41","11.11","64.97","-2.541","0.0"],
    [1396544,"2026-01-26 22:30:00","34124","1.214","253.0","2.45","272.9","1005.38","11.05","65.83","-1.386","0.0"],
    [1396545,"2026-01-26 22:40:00","34125","1.209","258.2","2.646","267.7","1005.2539999999999","11.05","66.14","-0.763","0.0"],
    [1396546,"2026-01-26 22:50:00","34126","1.261","251.5","2.058","283.6","1005.18","11.01","66.56","-0.6579999999999999","0.0"],
    [1396547,"2026-01-26 23:00:00","34127","1.455","276.8","2.548","286","1005.192","11.01","66.78","-0.5660000000000001","0.0"],
    [1396548,"2026-01-26 23:10:00","34128","1.3459999999999999","270.4","2.287","277.4","1005.172","11.01","66.52","-0.619","0.0"],
    [1396549,"2026-01-26 23:20:00","34129","1.7790000000000001","267.3","2.875","278.5","1005.1469999999999","11.2","65.6","-0.7709999999999999","0.0"],
    [1396550,"2026-01-26 23:30:00","34130","1.252","266.2","2.156","267.9","1005.08","11.28","66.47","-0.6890000000000001","0.0"],
    [1396551,"2026-01-26 23:40:00","34131","0.657","273.5","1.666","278.8","1004.9110000000001","10.68","69.71","-0.8220000000000001","0.0"],
    [1396552,"2026-01-26 23:50:00","34132","1.047","284.7","1.437","270","1004.7539999999999","10.85","68.38","-0.799","0.0"],
    [1396553,"2026-01-27 00:00:00","34133","0.6759999999999999","293.6","1.111","299.2","1004.4739999999999","10.58","70.6","-0.718","0.0"],
    [1396554,"2026-01-27 00:10:00","34134","0.8059999999999999","276.6","1.372","275.5","1004.324","10.81","69.0","-0.615","0.0"],
    [1396555,"2026-01-27 00:20:00","34135","1.0390000000000001","273.9","1.633","271.7","1004.3589999999999","11.15","67.45","-0.588","0.0"],
    [1396556,"2026-01-27 00:30:00","34136","1.254","268.4","2.156","264.7","1004.2869999999999","10.98","68.76","-1.084","0.0"],
    [1396557,"2026-01-27 00:40:00","34137","1.466","270.0","2.385","255.6","1004.199","11.32","66.0","-1.262","0.0"],
    [1396558,"2026-01-27 00:50:00","34138","1.095","271.2","2.123","290.5","1004.172","11.36","65.92","-1.26","0.0"],
    [1396559,"2026-01-27 01:00:00","34139","1.274","278.5","1.927","297.2","1004.2280000000001","10.96","68.17","-1.3980000000000001","0.0"],
    [1396560,"2026-01-27 01:10:00","34140","1.033","272.5","2.221","281.7","1004.227","10.88","68.31","-2.076","0.0"],
    [1396561,"2026-01-27 01:20:00","34141","1.168","274.1","2.123","246.8","1004.238","10.56","70.27","-2.378","0.0"],
    [1396562,"2026-01-27 01:30:00","34142","0.971","258.0","2.254","251","1004.086","10.78","69.47","-2.048","0.0"],
    [1396563,"2026-01-27 01:40:00","34143","0.94","244.9","1.699","257.7","1003.8939999999999","10.71","69.81","-2.005","0.0"],
    [1396564,"2026-01-27 01:50:00","34144","1.195","272.6","2.254","275","1003.789","10.79","69.06","-2.022","0.0"],
    [1396565,"2026-01-27 02:00:00","34145","1.085","270.8","1.895","269.4","1003.722","10.22","71.53","-2.086","0.0"],
    [1396566,"2026-01-27 02:10:00","34146","0.753","277.4","1.633","283.6","1003.513","10.12","71.82","-2.097","0.0"],
    [1396567,"2026-01-27 02:20:00","34147","0.8079999999999999","297.5","2.189","297.9","1003.49","9.87","72.86","-2.045","0.0"],
    [1396568,"2026-01-27 02:30:00","34148","0.95","298.0","1.993","312.1","1003.505","9.5","74.49","-2.065","0.0"],
    [1396569,"2026-01-27 02:40:00","34149","1.3159999999999998","314.6","2.483","312.7","1003.278","9.5","75.38","-2.004","0.0"],
    [1396570,"2026-01-27 02:50:00","34150","0.308","307.7","1.535","322.6","1003.206","9.35","76.19","-1.9869999999999999","0.0"],
    [1396571,"2026-01-27 03:00:00","34151","0.287","167.0","1.405","139.4","1002.987","9.45","76.06","-1.7790000000000001","0.0"],
    [1396572,"2026-01-27 03:10:00","34152","0.46299999999999997","161.6","1.143","145.6","1002.7410000000001","9.81","73.76","-1.455","0.0"],
    [1396573,"2026-01-27 03:20:00","34153","0.997","224.1","1.503","215","1002.687","9.64","75.01","-1.34","0.0"],
    [1396574,"2026-01-27 03:30:00","34154","0.988","253.9","1.601","249.4","1002.6010000000001","9.71","75.13","-1.2890000000000001","0.0"],
    [1396575,"2026-01-27 03:40:00","34155","0.91","260.7","1.633","226.1","1002.3789999999999","9.39","76.89","-1.365","0.0"],
    [1396576,"2026-01-27 03:50:00","34156","0.838","253.1","1.862","259.2","1002.2460000000001","9.37","77.37","-1.2919999999999998","0.0"],
    [1396577,"2026-01-27 04:00:00","34157","0.972","265.9","2.123","263.1","1002.168","9.34","78.14","-1.287","0.0"],
    [1396578,"2026-01-27 04:10:00","34158","1.079","251.4","2.025","214","1002.0269999999999","9.36","78.47","-1.2990000000000002","0.0"],
    [1396579,"2026-01-27 04:20:00","34159","0.995","235.1","2.287","231.3","1001.8760000000001","9.43","78.43","-1.29","0.0"],
    [1396580,"2026-01-27 04:30:00","34160","1.445","226.7","2.842","223.2","1001.7610000000001","9.27","79.33","-1.4","0.0"],
    [1396581,"2026-01-27 04:40:00","34161","1.4040000000000001","265.2","2.319","226.6","1001.247","9.33","79.23","-1.381","0.0"],
    [1396582,"2026-01-27 04:50:00","34162","1.358","281.7","2.581","281.8","1000.8689999999999","9.01","80.4","-1.354","0.0"],
    [1396583,"2026-01-27 05:00:00","34163","1.4","279.4","2.515","281.2","1000.8789999999999","8.71","82.2","-1.89","0.0"],
    [1396584,"2026-01-27 05:10:00","34164","1.6580000000000001","275.7","2.777","278.2","1000.7360000000001","8.93","81.4","-1.774","0.0"],
    [1396585,"2026-01-27 05:20:00","34165","1.3130000000000002","270.2","2.483","273.5","1000.42","8.91","81.3","-1.703","0.0"],
    [1396586,"2026-01-27 05:30:00","34166","0.966","251.6","2.711","274.4","1000.293","8.99","81.4","-1.6380000000000001","0.0"],
    [1396587,"2026-01-27 05:40:00","34167","1.196","231.9","2.091","230.2","1000.0189999999999","9.23","80.2","-1.95","0.0"],
    [1396588,"2026-01-27 05:50:00","34168","1.14","267.1","1.731","280.2","999.9388","9.19","79.93","-2.01","0.0"],
    [1396589,"2026-01-27 06:00:00","34169","1.254","258.1","2.515","236.1","999.8748","8.91","81.4","-2.0909999999999997","0.0"],
    [1396590,"2026-01-27 06:10:00","34170","1.1909999999999998","239.5","2.123","231.9","1000.013","8.86","81.7","-2.12","0.0"],
    [1396591,"2026-01-27 06:20:00","34171","0.907","274.8","1.731","263.3","999.887","8.78","81.9","-2.224","0.0"],
    [1396592,"2026-01-27 06:30:00","34172","1.057","270.2","2.189","269.5","999.9661","8.63","82.6","-2.39","0.0"],
    [1396593,"2026-01-27 06:40:00","34173","0.802","252.6","2.058","276","1000.1360000000001","8.75","82.5","-2.202","0.0"],
    [1396594,"2026-01-27 06:50:00","34174","0.445","278.0","0.882","280.3","1000.018","8.42","82.6","-2.089","0.0"],
    [1396595,"2026-01-27 07:00:00","34175","0.516","262.3","1.307","271.6","999.7873","8.37","84.3","-1.192","0.0"],
    [1396596,"2026-01-27 07:10:00","34176","1.435","277.8","2.287","281","999.5376","8.38","84.2","0.606","0.0"],
    [1396597,"2026-01-27 07:20:00","34177","1.3230000000000002","260.4","2.352","289.4","999.6307","8.76","83.4","3.32","0.0"],
    [1396598,"2026-01-27 07:30:00","34178","1.844","282.5","2.515","285.2","999.6551","8.6","83.6","11.6","0.0"],
    [1396599,"2026-01-27 07:40:00","34179","2.235","283.4","2.907","275.1","999.9592","8.72","83.2","25.05","0.0"],
    [1396600,"2026-01-27 07:50:00","34180","2.231","280.6","3.299","276.2","999.9062","8.72","83.4","36.78","0.0"],
    [1396601,"2026-01-27 08:00:00","34181","1.9480000000000002","285.3","2.875","283.4","999.9348","8.98","82.2","39.02","0.0"],
    [1396602,"2026-01-27 08:10:00","34182","0.792","312.6","1.372","309.8","999.665","8.98","82.6","54.24","0.0"],
    [1396603,"2026-01-27 08:20:00","34183","0.731","290.4","1.176","272.4","999.7109","9.32","82.7","82.4","0.0"],
    [1396604,"2026-01-27 08:30:00","34184","0.424","288.6","1.045","293.5","999.6476","9.75","81.5","92.6","0.0"],
    [1396605,"2026-01-27 08:40:00","34185","0.517","266.3","1.013","283.2","999.378","10.07","79.82","105.3","0.0"],
    [1396606,"2026-01-27 08:50:00","34186","0.835","262.4","1.633","272.4","999.3074","10.58","78.13","154.7","0.0"],
    [1396607,"2026-01-27 09:00:00","34187","0.8","275.0","1.503","264.8","999.0397","11.35","76.2","283.2","0.0"],
    [1396608,"2026-01-27 09:10:00","34188","0.848","215.2","1.895","222","998.7468","12.05","75.03","168.1","0.0"],
    [1396609,"2026-01-27 09:20:00","34189","0.9059999999999999","208.3","1.895","164.5","998.6103","12.34","75.48","195.0","0.0"],
    [1396610,"2026-01-27 09:30:00","34190","1.4709999999999999","231.1","2.679","270.6","998.6235","12.53","76.48","125.3","0.0"],
    [1396611,"2026-01-27 09:40:00","34191","1.815","284.9","3.071","291.4","998.8943","12.24","75.43","106.8","0.0"],
    [1396612,"2026-01-27 09:50:00","34192","0.982","257.8","1.993","292.1","998.8602","11.95","76.29","117.3","0.0"],
    [1396613,"2026-01-27 10:00:00","34193","1.358","298.8","2.091","280.4","998.6080000000001","12.05","77.24","84.1","0.0"],
    [1396614,"2026-01-27 10:10:00","34194","1.171","299.5","2.025","296.1","998.5047","11.78","78.55","50.71","0.1"],
    [1396615,"2026-01-27 10:20:00","34195","0.9520000000000001","287.6","2.123","286.7","998.3597","11.67","80.5","63.02","0.1"],
    [1396616,"2026-01-27 10:30:00","34196","1.222","282.9","1.927","292.3","998.199","11.61","81.9","55.42","0.0"],
    [1396617,"2026-01-27 10:40:00","34197","1.3230000000000002","277.3","2.123","289.9","997.997","11.56","82.1","57.82","0.0"],
    [1396618,"2026-01-27 10:50:00","34198","0.887","225.0","2.287","238.8","998.0106","11.85","82.7","54.95","0.0"],
    [1396619,"2026-01-27 11:00:00","34199","1.905","233.6","3.561","193.6","998.0107","12.27","82.9","43.27","0.1"],
    [1396620,"2026-01-27 11:10:00","34200","1.209","250.9","2.483","268.1","998.0483","12.09","84.0","73.76","0.1"],
    [1396621,"2026-01-27 11:20:00","34201","1.9180000000000001","284.0","2.744","271.7","997.8648","11.55","85.1","128.1","0.0"],
    [1396622,"2026-01-27 11:30:00","34202","1.485","266.1","2.483","277.5","997.7922","11.31","85.3","128.5","0.0"],
    [1396623,"2026-01-27 11:40:00","34203","1.031","259.9","2.123","267.3","997.6917","11.54","85.0","141.6","0.0"],
    [1396624,"2026-01-27 11:50:00","34204","0.851","241.2","1.993","220.1","997.5179","12.0","83.8","111.7","0.0"],
    [1396625,"2026-01-27 12:00:00","34205","1.046","248.6","1.895","275.9","997.4345","12.29","82.4","86.0","0.0"],
    [1396626,"2026-01-27 12:10:00","34206","1.123","233.6","2.025","248.2","997.2375","12.32","82.0","92.9","0.0"],
    [1396627,"2026-01-27 12:20:00","34207","1.901","216.1","3.887","225.6","996.9226","12.5","83.1","122.7","0.0"],
    [1396628,"2026-01-27 12:30:00","34208","3.7289999999999996","223.2","6.762","213","996.5833","13.37","82.6","111.6","0.0"],
    [1396629,"2026-01-27 12:40:00","34209","3.872","227.1","5.978","226.9","996.3107","13.96","79.86","125.2","0.0"],
    [1396630,"2026-01-27 12:50:00","34210","3.937","226.6","6.86","223.4","996.0969","14.06","79.75","154.6","0.0"],
    [1396631,"2026-01-27 13:00:00","34211","4.21","227.8","7.219","232.2","995.8098","14.18","79.31","166.5","0.0"],
    [1396632,"2026-01-27 13:10:00","34212","4.665","225.9","7.219","238.8","995.6714","14.18","78.81","96.1","0.0"],
    [1396633,"2026-01-27 13:20:00","34213","4.9719999999999995","227.3","8.2","220.4","995.6387","14.12","78.84","88.5","0.0"],
    [1396634,"2026-01-27 13:30:00","34214","5.452999999999999","225.8","9.51","200.7","995.4333","14.06","78.42","80.2","0.0"],
    [1396635,"2026-01-27 13:40:00","34215","4.498","227.6","7.154","259.2","995.2055","13.77","80.6","80.3","0.0"],
    [1396636,"2026-01-27 13:50:00","34216","3.9330000000000003","228.6","6.958","207.4","995.3057","13.62","81.8","59.27","0.0"],
    [1396637,"2026-01-27 14:00:00","34217","5.01","226.1","9.83","234.5","995.4255","13.62","81.0","43.06","0.1"],
    [1396638,"2026-01-27 14:10:00","34218","5.553999999999999","226.5","8.82","221.6","995.4806","13.7","80.1","35.54","0.1"],
    [1396639,"2026-01-27 14:20:00","34219","5.407","223.6","8.85","228.7","995.345","13.53","81.5","30.76","0.1"],
    [1396640,"2026-01-27 14:30:00","34220","4.902","224.5","9.47","225.2","995.199","13.36","83.0","27.26","0.2"],
    [1396641,"2026-01-27 14:40:00","34221","4.882","224.5","8.69","220.8","995.1433","13.22","84.1","23.92","0.2"],
    [1396642,"2026-01-27 14:50:00","34222","4.525","226.1","7.775","215.4","995.3","13.23","83.9","22.25","0.1"],
    [1396643,"2026-01-27 15:00:00","34223","4.034","225.4","7.644","227.8","995.3622","13.3","83.2","21.72","0.0"],
    [1396644,"2026-01-27 15:10:00","34224","4.994","223.5","8.13","203.6","995.1904","13.52","81.8","22.32","0.0"],
    [1396645,"2026-01-27 15:20:00","34225","4.187","220.0","7.513","216","994.91","13.34","83.6","25.46","0.0"],
    [1396646,"2026-01-27 15:30:00","34226","3.785","223.9","6.37","225.2","994.8007","13.31","84.2","36.53","0.0"],
    [1396647,"2026-01-27 15:40:00","34227","2.115","187.3","4.116","205.1","993.7807","13.25","84.6","28.27","0.0"],
    [1396648,"2026-01-27 15:50:00","34228","2.377","220.9","6.272","223.1","993.8216","13.18","85.5","30.29","0.0"],
    [1396649,"2026-01-27 16:00:00","34229","3.525","225.8","6.043","226","994.5167","13.27","85.9","85.6","0.0"],
    [1396650,"2026-01-27 16:10:00","34230","3.097","223.8","4.965","224","994.2225","13.6","84.5","101.5","0.0"],
    [1396651,"2026-01-27 16:20:00","34231","2.46","219.6","3.757","212.3","993.9332","13.73","84.2","61.98","0.0"],
    [1396652,"2026-01-27 16:30:00","34232","1.287","240.2","3.397","207.7","993.8430000000001","13.67","84.4","20.61","0.0"],
    [1396653,"2026-01-27 16:40:00","34233","0.956","244.5","2.123","248.3","993.9001","13.53","84.9","5.6129999999999995","0.0"],
    [1396654,"2026-01-27 16:50:00","34234","0.904","261.5","2.221","324.5","993.9409","13.4","85.5","3.1189999999999998","0.0"],
    [1396655,"2026-01-27 17:00:00","34235","1.028","211.6","2.287","171.9","993.8444","13.29","86.1","1.73","0.0"],
    [1396656,"2026-01-27 17:10:00","34236","1.825","194.1","4.965","225.6","993.7075","13.52","84.8","-0.33","0.0"],
    [1396657,"2026-01-27 17:20:00","34237","1.902","222.7","4.345","228.2","993.7378","13.74","84.1","-1.264","0.0"],
    [1396658,"2026-01-27 17:30:00","34238","2.792","219.9","6.272","233.8","993.8088","13.88","84.8","-0.8029999999999999","0.0"],
    [1396659,"2026-01-27 17:40:00","34239","2.38","218.8","4.573","202.4","993.655","13.99","85.4","-0.386","0.0"],
    [1396660,"2026-01-27 17:50:00","34240","3.508","216.7","5.88","220.5","993.4589","14.0","86.4","-1.071","0.1"],
    [1396661,"2026-01-27 18:00:00","34241","3.395","224.7","6.239","220.6","993.2745","14.0","87.7","-1.6640000000000001","0.2"],
    [1396662,"2026-01-27 18:10:00","34242","3.342","220.7","5.455","231.6","993.1456","13.93","88.4","-1.5590000000000002","0.0"],
    [1396663,"2026-01-27 18:20:00","34243","4.768","218.6","8.85","194.4","992.9398","13.98","87.6","-1.321","0.1"],
    [1396664,"2026-01-27 18:30:00","34244","4.237","220.6","7.415","223.4","992.7986","13.98","86.7","-1.861","0.0"],
    [1396665,"2026-01-27 18:40:00","34245","3.8710000000000004","225.8","6.468","222.3","992.8109","14.06","85.6","-1.3559999999999999","0.0"],
    [1396666,"2026-01-27 18:50:00","34246","3.3680000000000003","226.4","5.292","224.9","992.784","14.04","85.6","-1.258","0.0"],
    [1396667,"2026-01-27 19:00:00","34247","3.3960000000000004","223.5","5.423","215.8","992.7686","14.0","85.7","-1.187","0.0"],
    [1396668,"2026-01-27 19:10:00","34248","2.109","210.4","4.181","200.1","992.5436","13.89","86.0","-1.047","0.0"],
    [1396669,"2026-01-27 19:20:00","34249","3.23","217.0","6.043","225.5","992.3945","13.83","86.4","-1.246","0.0"],
    [1396670,"2026-01-27 19:30:00","34250","2.589","216.5","4.606","226.4","992.2394","13.85","86.2","-0.995","0.0"],
    [1396671,"2026-01-27 19:40:00","34251","1.5","261.3","2.875","222.3","992.2232","13.56","87.8","-1.2209999999999999","0.0"],
    [1396672,"2026-01-27 19:50:00","34252","1.255","236.3","1.96","210.8","992.1666","13.29","88.6","-1.264","0.0"],
    [1396673,"2026-01-27 20:00:00","34253","1.033","237.8","1.731","238.3","992.0463","13.29","88.7","-1.261","0.0"],
    [1396674,"2026-01-27 20:10:00","34254","1.078","239.5","1.764","249.6","992.1138","13.3","88.4","-1.261","0.0"],
    [1396675,"2026-01-27 20:20:00","34255","1.389","231.9","2.221","237.6","992.1716","13.22","88.2","-1.261","0.0"],
    [1396676,"2026-01-27 20:30:00","34256","1.338","231.9","2.156","223.1","992.2601","13.1","87.5","-1.261","0.1"],
    [1396677,"2026-01-27 20:40:00","34257","1.8130000000000002","272.0","2.875","288.3","992.4508","12.92","88.0","-1.288","0.1"],
    [1396678,"2026-01-27 20:50:00","34258","2.094","261.9","5.39","295.5","992.6581","12.48","89.9","-1.261","0.5"],
    [1396679,"2026-01-27 21:00:00","34259","2.5980000000000003","220.5","4.345","218.2","992.7489999999999","12.55","89.8","-1.2990000000000002","0.3"],
    [1396680,"2026-01-27 21:10:00","34260","3.347","217.4","5.39","207.5","992.6719","12.79","85.6","-1.844","0.2"],
    [1396681,"2026-01-27 21:20:00","34261","1.86","225.0","3.397","221.2","992.4259","12.74","83.9","-2.349","0.0"],
    [1396682,"2026-01-27 21:30:00","34262","1.7719999999999998","232.4","3.561","226.1","992.584","12.41","85.8","-2.085","0.0"],
    [1396683,"2026-01-27 21:40:00","34263","1.247","267.7","2.548","268.2","992.7026","12.16","87.3","-2.0980000000000003","0.0"],
    [1396684,"2026-01-27 21:50:00","34264","1.301","269.5","2.581","292","992.8445","11.7","89.1","-2.37","0.0"],
    [1396685,"2026-01-27 22:00:00","34265","2.202","283.1","4.541","300.1","992.8465","12.0","81.3","-2.293","0.0"],
    [1396686,"2026-01-27 22:10:00","34266","2.758","295.0","5.357","296.9","992.9272","11.95","76.69","-2.18","0.0"],
    [1396687,"2026-01-27 22:20:00","34267","5.026","288.6","9.38","291.1","993.1979","11.87","72.09","-2.05","0.0"],
    [1396688,"2026-01-27 22:30:00","34268","4.042","252.2","9.7","284.5","993.6432","11.95","66.77","-1.294","0.0"],
    [1396689,"2026-01-27 22:40:00","34269","3.3810000000000002","235.8","7.317","201.5","993.7744","11.71","66.24","-1.446","0.0"],
    [1396690,"2026-01-27 22:50:00","34270","3.091","244.4","6.827","268.2","993.8911","11.61","64.4","-1.527","0.0"],
    [1396691,"2026-01-27 23:00:00","34271","2.483","243.4","5.325","229.9","994.0583","11.35","65.46","-1.775","0.0"],
    [1396692,"2026-01-27 23:10:00","34272","2.048","244.5","3.561","230.3","994.1485","10.94","67.56","-2.004","0.0"],
    [1396693,"2026-01-27 23:20:00","34273","2.609","233.0","4.671","226.6","994.0258","10.84","67.38","-2.032","0.0"],
    [1396694,"2026-01-27 23:30:00","34274","2.815","231.7","5.292","253.3","994.1219","10.6","68.72","-1.949","0.0"],
    [1396695,"2026-01-27 23:40:00","34275","3.324","228.4","5.161","247.2","994.2985","10.46","69.03","-1.959","0.0"],
    [1396696,"2026-01-27 23:50:00","34276","3.986","228.5","6.468","212.7","994.3941","10.42","68.9","-1.996","0.0"],
    [1396697,"2026-01-28 00:00:00","34277","4.12","228.9","7.807","222.3","994.4578","10.85","65.95","-2.165","0.0"],
    [1396698,"2026-01-28 00:10:00","34278","4.62","227.2","8.23","244","994.4997","11.21","64.14","-1.6469999999999998","0.0"],
    [1396699,"2026-01-28 00:20:00","34279","4.245","227.4","7.448","226.7","994.4363","10.95","65.17","-1.617","0.0"],
    [1396700,"2026-01-28 00:30:00","34280","4.41","228.7","7.317","228.5","994.5917","11.03","63.85","-1.979","0.0"],
    [1396701,"2026-01-28 00:40:00","34281","3.9010000000000002","228.3","6.729","225.7","994.7928","10.84","64.58","-2.084","0.0"],
    [1396702,"2026-01-28 00:50:00","34282","3.6189999999999998","228.8","5.978","225.1","994.9313","10.63","64.97","-2.38","0.0"],
    [1396703,"2026-01-28 01:00:00","34283","5.327999999999999","226.9","8.53","219.5","995.064","10.65","63.32","-2.573","0.0"],
    [1396704,"2026-01-28 01:10:00","34284","5.789","227.3","9.28","205.8","995.2404","10.84","59.69","-2.375","0.0"],
    [1396705,"2026-01-28 01:20:00","34285","4.862","228.6","8.33","234.3","995.4557","11.0","57.64","-1.9680000000000002","0.0"],
    [1396706,"2026-01-28 01:30:00","34286","5.74","223.9","8.98","227.5","995.4869","11.05","54.97","-2.02","0.0"],
    [1396707,"2026-01-28 01:40:00","34287","5.846","223.0","9.47","203.9","995.5588","10.95","53.16","-1.876","0.0"],
    [1396708,"2026-01-28 01:50:00","34288","5.278","213.8","7.742","200.9","995.6536","10.81","52.72","-1.692","0.0"],
    [1396709,"2026-01-28 02:00:00","34289","4.873","222.0","8.07","226.9","995.8775","10.87","51.59","-2.13","0.1"],
    [1396710,"2026-01-28 02:10:00","34290","4.477","223.7","6.893","230.8","996.0527","10.73","52.3","-2.125","0.0"],
    [1396711,"2026-01-28 02:20:00","34291","3.6689999999999996","227.5","5.455","231.6","996.1138","10.46","53.7","-2.353","0.0"],
    [1396712,"2026-01-28 02:30:00","34292","4.013","229.4","6.664","201.2","996.1307","10.57","51.49","-2.72","0.0"],
    [1396713,"2026-01-28 02:40:00","34293","3.2460000000000004","242.8","8.79","287.3","996.1228","10.9","47.1","-2.859","0.0"],
    [1396714,"2026-01-28 02:50:00","34294","3.5810000000000004","228.0","5.782","208.7","996.227","10.5","49.74","-2.7710000000000004","0.0"],
    [1396715,"2026-01-28 03:00:00","34295","3.9389999999999996","227.8","6.827","220.6","996.2544","10.57","48.31","-2.8139999999999996","0.0"],
    [1396716,"2026-01-28 03:10:00","34296","3.972","225.8","8.46","214.5","996.2553","10.44","49.04","-2.7769999999999997","0.0"],
    [1396717,"2026-01-28 03:20:00","34297","3.9810000000000003","219.3","5.717","206.4","996.2786","10.37","49.54","-2.7969999999999997","0.0"],
    [1396718,"2026-01-28 03:30:00","34298","3.4139999999999997","221.5","5.913","221.4","996.301","9.87","53.21","-2.766","0.0"],
    [1396719,"2026-01-28 03:40:00","34299","3.0780000000000003","228.8","5.39","234","996.5421","9.77","52.44","-2.92","0.0"],
    [1396720,"2026-01-28 03:50:00","34300","3.148","226.0","5.325","214.1","996.5003","9.89","50.97","-3.009","0.0"],
    [1396721,"2026-01-28 04:00:00","34301","4.053999999999999","219.7","5.913","220.5","996.5693","9.78","51.27","-2.867","0.0"],
    [1396722,"2026-01-28 04:10:00","34302","3.861","222.8","6.631","203.5","996.7298","9.8","51.02","-2.806","0.0"],
    [1396723,"2026-01-28 04:20:00","34303","3.344","229.0","5.325","261.2","996.6176","9.54","51.76","-2.775","0.0"],
    [1396724,"2026-01-28 04:30:00","34304","3.909","229.6","6.37","219","996.6804","9.57","51.18","-2.9360000000000004","0.0"],
    [1396725,"2026-01-28 04:40:00","34305","6.314","220.1","10.32","226.6","997.1381","9.82","51.43","-3.2319999999999998","0.0"],
    [1396726,"2026-01-28 04:50:00","34306","6.697","219.6","10.29","209.6","997.4655","10.11","48.6","-2.707","0.0"],
    [1396727,"2026-01-28 05:00:00","34307","4.325","228.3","8.4","222.2","997.2307","10.0","47.64","-2.448","0.0"],
    [1396728,"2026-01-28 05:10:00","34308","3.748","228.5","6.697","225.2","996.9778","9.73","47.82","-2.786","0.0"],
    [1396729,"2026-01-28 05:20:00","34309","4.803999999999999","220.6","7.677","225.2","996.7072","9.77","47.52","-2.7880000000000003","0.0"],
    [1396730,"2026-01-28 05:30:00","34310","5.353","216.9","9.18","209.9","996.8275","9.72","47.8","-2.7880000000000003","0.0"],
    [1396731,"2026-01-28 05:40:00","34311","5.202999999999999","222.5","7.709","222.8","997.1731","9.81","47.76","-2.783","0.0"],
    [1396732,"2026-01-28 05:50:00","34312","4.562","227.9","7.481","221.7","997.4117","9.8","47.6","-2.6319999999999997","0.0"],
    [1396733,"2026-01-28 06:00:00","34313","4.191","228.8","7.905","215.5","997.5421","9.59","50.56","-2.6660000000000004","0.0"],
    [1396734,"2026-01-28 06:10:00","34314","3.417","230.8","5.847","232.9","997.4221","9.31","52.22","-2.6860000000000004","0.0"],
    [1396735,"2026-01-28 06:20:00","34315","2.9419999999999997","228.3","5.455","261.5","997.1135","8.91","53.66","-2.6889999999999996","0.0"],
    [1396736,"2026-01-28 06:30:00","34316","2.024","234.8","3.626","248.4","996.9863","8.75","53.04","-2.822","0.0"],
    [1396737,"2026-01-28 06:40:00","34317","1.317","246.0","2.711","214.5","996.9449","8.58","53.26","-3.091","0.0"],
    [1396738,"2026-01-28 06:50:00","34318","1.662","271.7","3.332","264.3","997.0246","8.38","53.85","-3.0210000000000004","0.0"],
    [1396739,"2026-01-28 07:00:00","34319","2.158","253.8","4.083","248.4","996.9728","8.28","53.93","-0.098","0.0"],
    [1396740,"2026-01-28 07:10:00","34320","1.574","257.8","2.711","258.3","996.918","8.3","53.32","3.02","0.0"],
    [1396741,"2026-01-28 07:20:00","34321","2.372","249.4","6.631","282.5","996.8938","8.74","50.15","9.43","0.0"],
    [1396742,"2026-01-28 07:30:00","34322","3.239","272.6","7.252","273.5","996.7844","9.56","46.04","22.91","0.0"],
    [1396743,"2026-01-28 07:40:00","34323","4.475","288.6","7.219","287.8","996.5551","9.39","47.96","34.0","0.0"],
    [1396744,"2026-01-28 07:50:00","34324","3.049","262.5","5.782","278.9","996.5476","9.45","47.46","34.42","0.0"],
    [1396745,"2026-01-28 08:00:00","34325","2.6919999999999997","251.6","5.161","265.1","996.6080000000001","9.72","46.04","46.02","0.0"],
    [1396746,"2026-01-28 08:10:00","34326","2.6710000000000003","276.5","7.481","283.5","996.4995","9.55","47.44","61.12","0.0"],
    [1396747,"2026-01-28 08:20:00","34327","1.811","218.1","4.573","244.2","996.8806","9.8","46.05","76.86","0.0"],
    [1396748,"2026-01-28 08:30:00","34328","0.511","244.3","2.744","232","996.8319","9.8","47.41","111.7","0.0"],
    [1396749,"2026-01-28 08:40:00","34329","1.042","84.9","1.96","109.8","996.8359","9.87","48.48","181.3","0.0"],
    [1396750,"2026-01-28 08:50:00","34330","0.735","156.1","2.581","118.2","997.0569","10.23","47.36","171.3","0.0"],
    [1396751,"2026-01-28 09:00:00","34331","1.685","260.6","3.495","268.4","996.6583","10.25","46.46","130.0","0.0"],
    [1396752,"2026-01-28 09:10:00","34332","1.689","242.4","3.136","284","996.5012","10.27","46.91","151.6","0.0"],
    [1396753,"2026-01-28 09:20:00","34333","1.778","213.6","3.005","200.7","996.4839","10.34","46.12","160.4","0.0"],
    [1396754,"2026-01-28 09:30:00","34334","0.925","193.4","1.829","144.6","996.2584","10.54","44.94","190.1","0.0"],
    [1396755,"2026-01-28 09:40:00","34335","1.892","194.5","3.659","212","995.8937","10.5","48.07","210.2","0.0"],
    [1396756,"2026-01-28 09:50:00","34336","2.529","215.7","5.325","232.1","995.9312","10.54","48.37","236.3","0.0"],
    [1396757,"2026-01-28 10:00:00","34337","3.841","219.8","5.945","213","996.2563","10.61","47.87","209.4","0.0"],
    [1396758,"2026-01-28 10:10:00","34338","3.313","228.2","5.586","252.5","996.1097","10.6","48.38","174.2","0.0"],
    [1396759,"2026-01-28 10:20:00","34339","3.572","228.4","6.631","251.3","996.0467","10.42","49.44","165.2","0.0"],
    [1396760,"2026-01-28 10:30:00","34340","3.8510000000000004","228.3","6.403","204.4","996.071","10.33","48.48","147.1","0.0"],
    [1396761,"2026-01-28 10:40:00","34341","2.997","228.8","5.194","224.3","996.0252","10.35","47.67","145.1","0.0"],
    [1396762,"2026-01-28 10:50:00","34342","2.5469999999999997","229.8","4.639","250.9","995.9089","10.36","47.99","142.5","0.0"],
    [1396763,"2026-01-28 11:00:00","34343","3.0469999999999997","228.0","4.573","207.8","995.7876","10.36","47.74","141.6","0.0"],
    [1396764,"2026-01-28 11:10:00","34344","2.371","243.5","4.704","236.2","995.5593","10.36","47.63","167.8","0.0"],
    [1396765,"2026-01-28 11:20:00","34345","2.147","273.1","3.757","281.1","995.1664","10.5","47.4","162.0","0.0"],
    [1396766,"2026-01-28 11:30:00","34346","2.694","285.5","5.88","293.7","994.6816","10.58","47.16","150.9","0.0"],
    [1396767,"2026-01-28 11:40:00","34347","2.93","286.5","4.671","290.8","994.4068","10.62","46.91","140.7","0.0"],
    [1396768,"2026-01-28 11:50:00","34348","2.322","285.6","4.541","293.4","994.3417","10.54","47.85","132.2","0.0"],
    [1396769,"2026-01-28 12:00:00","34349","2.035","284.3","3.528","307.6","994.3151","10.62","47.79","114.1","0.0"],
    [1396770,"2026-01-28 12:10:00","34350","2.6710000000000003","289.4","4.541","290.6","994.0967","10.62","47.12","105.6","0.0"],
    [1396771,"2026-01-28 12:20:00","34351","1.9809999999999999","287.1","3.626","285.6","993.7443","10.59","47.7","104.3","0.0"],
    [1396772,"2026-01-28 12:30:00","34352","1.15","272.2","2.254","276.4","993.6232","10.72","47.68","106.3","0.0"],
    [1396773,"2026-01-28 12:40:00","34353","1.8619999999999999","284.5","3.332","277.9","993.5951","10.92","46.9","125.3","0.0"],
    [1396774,"2026-01-28 12:50:00","34354","1.905","274.7","3.757","285.4","993.6357","11.01","46.3","115.8","0.0"],
    [1396775,"2026-01-28 13:00:00","34355","3.2439999999999998","224.1","6.272","218","993.6207","10.83","52.48","99.2","0.0"],
    [1396776,"2026-01-28 13:10:00","34356","3.39","224.6","5.455","219.3","993.4994","10.29","62.69","110.1","0.0"],
    [1396777,"2026-01-28 13:20:00","34357","2.093","238.3","4.312","226.7","993.3249","10.3","63.81","147.3","0.0"],
    [1396778,"2026-01-28 13:30:00","34358","2.416","238.0","4.769","250.3","993.2217","10.62","64.22","266.7","0.0"],
    [1396779,"2026-01-28 13:40:00","34359","2.3369999999999997","257.6","4.998","270.7","993.0352","11.0","62.23","349.3","0.0"],
    [1396780,"2026-01-28 13:50:00","34360","2.98","292.0","4.9","292.2","992.9094","11.23","57.36","293.6","0.0"],
    [1396781,"2026-01-28 14:00:00","34361","3.0610000000000004","288.1","4.279","318.5","992.7887","11.1","53.72","201.8","0.0"],
    [1396782,"2026-01-28 14:10:00","34362","3.161","287.0","5.292","276.4","992.6294","11.25","52.51","249.6","0.0"],
    [1396783,"2026-01-28 14:20:00","34363","3.443","297.6","5.39","305.6","992.5543","11.45","53.73","239.7","0.0"],
    [1396784,"2026-01-28 14:30:00","34364","3.549","301.2","5.031","297.8","992.424","11.32","54.23","224.7","0.0"],
    [1396785,"2026-01-28 14:40:00","34365","3.676","316.0","5.227","308","992.312","11.19","54.25","190.7","0.0"],
    [1396786,"2026-01-28 15:00:00","34366","4.418","312.2","6.337","307.3","992.0496","11.36","53.49","256.9","0.0"],
    [1396787,"2026-01-28 15:10:00","34367","3.658","309.9","6.827","319.4","991.8816","11.54","53.09","285.5","0.0"],
    [1396788,"2026-01-28 15:20:00","34368","3.548","297.1","5.945","289.4","991.7712","11.7","52.93","257.0","0.0"],
    [1396789,"2026-01-28 15:30:00","34369","3.795","298.5","6.174","291.1","991.8085","11.82","52.79","239.2","0.0"],
    [1396790,"2026-01-28 15:40:00","34370","3.783","307.6","5.292","329.3","991.9211","11.96","51.88","203.7","0.0"],
    [1396791,"2026-01-28 15:50:00","34371","3.977","299.2","6.174","299","992.0555","11.87","51.63","173.4","0.0"],
    [1396792,"2026-01-28 16:00:00","34372","3.8510000000000004","313.9","5.978","333.8","992.1588","11.81","51.96","146.6","0.0"],
    [1396793,"2026-01-28 16:10:00","34373","4.652","305.3","7.252","299.2","992.2353","11.41","51.83","120.0","0.0"],
    [1396794,"2026-01-28 16:20:00","34374","3.785","305.2","6.925","309.5","992.4299","11.08","51.71","64.27","0.0"],
    [1396795,"2026-01-28 16:30:00","34375","3.967","319.4","6.566","319.3","992.6244","11.07","51.54","22.47","0.0"],
    [1396796,"2026-01-28 16:40:00","34376","2.8760000000000003","329.6","5.815","320.7","992.813","10.97","51.25","17.21","0.0"],
    [1396797,"2026-01-28 16:50:00","34377","2.551","316.5","5.619","324.4","993.1247","10.92","49.38","11.6","0.0"],
    [1396798,"2026-01-28 17:00:00","34378","4.917","305.7","9.51","319.5","993.3387","10.72","48.31","6.154","0.0"],
    [1396799,"2026-01-28 17:10:00","34379","6.739","301.7","11.24","308.1","993.4472","10.37","49.01","1.76","0.0"],
    [1396800,"2026-01-28 17:20:00","34380","7.52","300.3","11.27","285.3","993.6875","10.14","49.93","-1.056","0.0"],
    [1396801,"2026-01-28 17:30:00","34381","7.025","299.8","10.32","296.9","994.2177","9.89","50.47","-2.112","0.0"],
    [1396802,"2026-01-28 17:40:00","34382","6.398","304.8","10.03","317.1","994.493","9.8","51.02","-2.54","0.0"],
    [1396803,"2026-01-28 17:50:00","34383","6.252000000000001","305.2","8.92","314.3","994.6995","9.66","51.99","-2.7060000000000004","0.0"],
    [1396804,"2026-01-28 18:00:00","34384","5.371","297.3","8.72","302.8","994.9711","9.46","52.52","-2.759","0.0"],
    [1396805,"2026-01-28 18:10:00","34385","5.167000000000001","298.6","8.85","284.1","995.2349","9.23","53.07","-2.762","0.0"],
    [1396806,"2026-01-28 18:20:00","34386","5.729","301.2","9.64","303.1","995.5037","9.17","53.48","-2.782","0.0"],
    [1396807,"2026-01-28 18:30:00","34387","4.5569999999999995","294.4","7.546","305.7","995.9416","9.07","53.63","-2.778","0.0"],
    [1396808,"2026-01-28 18:40:00","34388","4.9510000000000005","292.2","8.69","304.5","996.3618","9.07","52.33","-2.92","0.0"],
    [1396809,"2026-01-28 18:50:00","34389","4.721","283.2","9.24","277.5","996.6145","9.18","51.72","-2.812","0.0"],
    [1396810,"2026-01-28 19:00:00","34390","4.338","290.7","9.02","273.5","996.8954","9.04","52.41","-2.7769999999999997","0.0"],
    [1396811,"2026-01-28 19:10:00","34391","5.397","287.6","8.4","285.7","997.1076","9.01","52.39","-2.795","0.0"],
    [1396812,"2026-01-28 19:20:00","34392","6.039","291.6","10.29","280.2","997.3098","8.98","53.43","-2.7739999999999996","0.0"],
    [1396813,"2026-01-28 19:30:00","34393","5.945","294.3","10.19","281","997.4379","8.94","54.84","-2.688","0.0"],
    [1396814,"2026-01-28 19:40:00","34394","6.18","299.3","11.2","296","997.7037","8.94","56.41","-2.782","0.0"],
    [1396815,"2026-01-28 19:50:00","34395","5.542999999999999","291.4","10.09","300.4","998.1389999999999","9.0","57.15","-2.755","0.0"],
    [1396816,"2026-01-28 20:00:00","34396","5.3839999999999995","291.5","10.68","306.6","998.3989999999999","8.93","58.31","-2.7460000000000004","0.0"],
    [1396817,"2026-01-28 20:10:00","34397","5.872999999999999","292.6","10.55","296.7","998.5178","8.92","59.0","-2.781","0.0"],
    [1396818,"2026-01-28 20:20:00","34398","5.89","296.2","10","293.3","998.7659","8.9","59.55","-2.625","0.0"],
    [1396819,"2026-01-28 20:30:00","34399","4.144","281.6","8.07","280.2","999.0985","8.82","60.23","-2.641","0.0"],
    [1396820,"2026-01-28 20:40:00","34400","3.452","261.8","8.17","274.9","999.2128","8.64","61.37","-2.762","0.0"],
    [1396821,"2026-01-28 20:50:00","34401","3.0380000000000003","274.0","6.631","288.8","999.3269","8.53","62.21","-2.765","0.0"],
    [1396822,"2026-01-28 21:00:00","34402","2.864","273.5","7.415","298.8","999.3619","8.35","63.36","-2.784","0.0"],
    [1396823,"2026-01-28 21:10:00","34403","2.401","250.2","5.684","245.9","999.5851","8.28","63.88","-2.7910000000000004","0.0"],
    [1396824,"2026-01-28 21:20:00","34404","2.613","208.5","4.508","212","999.9615","8.19","64.55","-2.787","0.0"],
    [1396825,"2026-01-28 21:30:00","34405","2.7560000000000002","222.0","4.867","236.1","1000.2769999999999","7.957999999999999","65.84","-2.79","0.0"],
    [1396826,"2026-01-28 21:40:00","34406","2.467","247.9","4.639","257","1000.2739999999999","8.05","65.44","-2.787","0.0"],
    [1396827,"2026-01-28 21:50:00","34407","2.265","252.3","4.573","254.8","1000.175","8.07","65.48","-2.7889999999999997","0.0"],
    [1396828,"2026-01-28 22:00:00","34408","2.279","247.9","4.671","269.1","1000.173","8.04","65.74","-2.7939999999999996","0.0"],
    [1396829,"2026-01-28 22:10:00","34409","1.633","262.6","3.724","256.9","1000.248","8.05","65.67","-2.8089999999999997","0.0"],
    [1396830,"2026-01-28 22:20:00","34410","2.246","277.6","3.724","262","1000.32","8.17","65.38","-2.891","0.0"],
    [1396831,"2026-01-28 22:30:00","34411","2.516","298.2","3.626","307.8","1000.467","7.869","66.85","-2.7910000000000004","0.0"],
    [1396832,"2026-01-28 22:40:00","34412","1.885","298.8","3.659","313.8","1000.5980000000001","7.598","68.43","-2.7880000000000003","0.0"],
    [1396833,"2026-01-28 22:50:00","34413","1.196","302.7","2.025","316.6","1000.687","7.425","68.89","-2.792","0.0"],
    [1396834,"2026-01-28 23:00:00","34414","0.715","317.3","1.797","288.1","1000.6160000000001","7.212999999999999","70.25","-2.783","0.0"],
    [1396835,"2026-01-28 23:10:00","34415","1.0170000000000001","269.4","2.189","282.7","1000.625","7.439","69.52","-2.7230000000000003","0.0"],
    [1396836,"2026-01-28 23:20:00","34416","1.003","246.2","2.123","265.6","1000.82","8.04","66.35","-2.102","0.0"],
    [1396837,"2026-01-28 23:30:00","34417","1.15","275.4","2.221","294.7","1000.9680000000001","7.747000000000001","68.32","-2.046","0.0"],
    [1396838,"2026-01-28 23:40:00","34418","1.996","304.3","3.92","313.8","1000.8710000000001","7.132000000000001","71.45","-2.151","0.0"],
    [1396839,"2026-01-28 23:50:00","34419","2.903","290.1","4.312","296.7","1000.808","8.23","67.54","-2.54","0.0"],
    [1396840,"2026-01-29 00:00:00","34420","2.181","289.4","3.659","278.3","1000.9760000000001","8.66","65.31","-2.013","0.0"],
    [1396841,"2026-01-29 00:10:00","34421","1.135","297.6","2.189","310.7","1000.904","8.29","67.18","-2.0469999999999997","0.0"],
    [1396842,"2026-01-29 00:20:00","34422","1.692","317.9","3.299","305.1","1000.8539999999999","8.24","67.89","-2.103","0.0"],
    [1396843,"2026-01-29 00:30:00","34423","2.057","323.8","3.332","325","1001.0039999999999","8.51","67.04","-1.8869999999999998","0.0"],
    [1396844,"2026-01-29 00:40:00","34424","2.37","316.6","3.757","304.1","1001.0360000000001","8.54","67.16","-1.9180000000000001","0.0"],
    [1396845,"2026-01-29 00:50:00","34425","1.8730000000000002","299.3","3.691","292.8","1001.285","8.39","67.96","-1.57","0.0"],
    [1396846,"2026-01-29 01:00:00","34426","2.08","292.3","4.933","292","1001.3739999999999","8.24","68.94","-1.546","0.0"],
    [1396847,"2026-01-29 01:10:00","34427","2.74","290.8","4.998","277.3","1001.316","8.62","67.0","-1.581","0.0"],
    [1396848,"2026-01-29 01:20:00","34428","2.504","291.5","4.573","303.6","1001.323","8.62","66.82","-1.709","0.0"],
    [1396849,"2026-01-29 01:30:00","34429","2.708","282.9","4.704","274.6","1001.3989999999999","8.72","66.11","-2.009","0.0"],
    [1396850,"2026-01-29 01:40:00","34430","3.04","276.5","5.259","277.1","1001.6560000000001","8.81","65.71","-1.992","0.0"],
    [1396851,"2026-01-29 01:50:00","34431","3.3169999999999997","271.2","6.174","290.4","1001.898","8.95","64.75","-2.032","0.0"],
    [1396852,"2026-01-29 02:00:00","34432","3.6239999999999997","277.8","6.631","272.7","1001.9019999999999","8.94","64.6","-2.022","0.0"],
    [1396853,"2026-01-29 02:10:00","34433","4.6610000000000005","292.1","7.579","271.7","1001.846","8.74","65.52","-2.035","0.0"],
    [1396854,"2026-01-29 02:20:00","34434","4.583","290.5","6.827","290","1001.852","8.64","65.84","-2.502","0.0"],
    [1396855,"2026-01-29 02:30:00","34435","4.138","290.8","7.056","312.7","1001.745","8.55","66.22","-2.583","0.0"],
    [1396856,"2026-01-29 02:40:00","34436","4.005","299.9","6.468","304.4","1001.637","8.58","65.92","-2.779","0.0"],
    [1396857,"2026-01-29 02:50:00","34437","4.379","304.3","6.925","320","1001.498","8.71","65.15","-2.752","0.0"],
    [1396858,"2026-01-29 03:00:00","34438","2.763","254.9","5.129","304.5","1001.561","8.56","65.56","-2.238","0.0"],
    [1396859,"2026-01-29 03:10:00","34439","2.494","248.6","4.214","266.6","1001.4069999999999","8.16","67.74","-2.2680000000000002","0.0"],
    [1396860,"2026-01-29 03:20:00","34440","2.326","252.5","3.92","287.7","1001.405","8.62","65.39","-1.8980000000000001","0.0"],
    [1396861,"2026-01-29 03:30:00","34441","2.499","261.1","5.259","297.7","1001.1519999999999","8.37","66.75","-2.063","0.0"],
    [1396862,"2026-01-29 03:40:00","34442","2.7769999999999997","292.1","4.573","297.8","1000.916","8.15","67.82","-1.995","0.0"],
    [1396863,"2026-01-29 03:50:00","34443","2.863","310.6","4.541","315.4","1000.959","8.07","68.19","-2.201","0.0"],
    [1396864,"2026-01-29 04:00:00","34444","1.058","289.9","3.397","295.4","1001.039","8.22","66.83","-2.174","0.0"],
    [1396865,"2026-01-29 04:10:00","34445","0.385","286.9","1.013","265.7","1001.091","8.07","67.02","-2.585","0.0"],
    [1396866,"2026-01-29 04:20:00","34446","0.6629999999999999","296.9","2.189","312.6","1001.169","7.797999999999999","68.2","-2.853","0.0"],
    [1396867,"2026-01-29 04:30:00","34447","1.225","304.8","1.862","307.8","1001.158","7.354","70.36","-2.917","0.0"],
    [1396868,"2026-01-29 04:40:00","34448","1.433","306.0","2.417","320.2","1001.268","7.172000000000001","71.22","-2.813","0.0"],
    [1396869,"2026-01-29 04:50:00","34449","1.911","303.7","3.267","315.4","1001.166","7.18","71.53","-2.795","0.0"],
    [1396870,"2026-01-29 05:00:00","34450","1.53","293.5","2.319","291.3","1000.941","7.272","71.07","-2.7939999999999996","0.0"],
    [1396871,"2026-01-29 05:10:00","34451","1.71","295.6","2.646","293.9","1001.038","7.197","71.55","-2.79","0.0"],
    [1396872,"2026-01-29 05:20:00","34452","1.915","290.4","3.397","286","1000.934","7.337000000000001","71.0","-2.229","0.0"],
    [1396873,"2026-01-29 05:30:00","34453","2.255","291.0","3.822","299.5","1000.998","7.422999999999999","70.45","-2.167","0.0"],
    [1396874,"2026-01-29 05:40:00","34454","2.161","285.2","3.528","273.4","1001.201","7.474","70.65","-1.6269999999999998","0.0"],
    [1396875,"2026-01-29 05:50:00","34455","1.945","287.2","3.299","289.1","1001.409","7.4910000000000005","71.05","-1.2930000000000001","0.0"],
    [1396876,"2026-01-29 06:00:00","34456","1.963","297.9","3.528","293.2","1001.3610000000001","7.49","71.61","-1.2930000000000001","0.0"],
    [1396877,"2026-01-29 06:10:00","34457","1.861","290.2","3.299","318.3","1001.403","7.527","71.29","-1.31","0.0"],
    [1396878,"2026-01-29 06:20:00","34458","1.801","286.7","3.43","296.4","1001.597","7.689","70.18","-1.33","0.0"],
    [1396879,"2026-01-29 06:30:00","34459","0.605","278.4","2.058","270.8","1001.6210000000001","7.808","69.54","-1.29","0.0"],
    [1396880,"2026-01-29 06:40:00","34460","0.187","79.92","0.849","39.62","1001.492","7.765","69.71","-1.2919999999999998","0.0"],
    [1396881,"2026-01-29 06:50:00","34461","0.478","177.5","1.633","179.6","1001.4689999999999","7.894","68.98","-1.288","0.0"],
    [1396882,"2026-01-29 07:00:00","34462","1.135","193.8","1.764","202","1001.6","8.06","68.2","0.08","0.0"],
    [1396883,"2026-01-29 07:10:00","34463","1.082","244.2","1.731","212.3","1001.6360000000001","8.07","68.16","3.502","0.0"],
    [1396884,"2026-01-29 07:20:00","34464","1.274","309.0","2.123","322.4","1001.5039999999999","7.907","69.33","6.744","0.0"],
    [1396885,"2026-01-29 07:30:00","34465","0.865","268.8","1.764","324.5","1001.42","7.752999999999999","70.16","21.34","0.0"],
    [1396886,"2026-01-29 07:40:00","34466","1.0090000000000001","266.8","1.666","262.7","1001.475","8.01","68.72","25.82","0.0"],
    [1396887,"2026-01-29 07:50:00","34467","0.8759999999999999","263.1","1.633","258.1","1001.6419999999999","8.08","69.0","31.91","0.0"],
    [1396888,"2026-01-29 08:00:00","34468","0.987","257.2","1.535","267.8","1001.784","8.19","69.09","36.0","0.0"],
    [1396889,"2026-01-29 08:10:00","34469","1.044","267.4","1.797","265.7","1001.8919999999999","8.53","68.12","69.41","0.0"],
    [1396890,"2026-01-29 08:20:00","34470","1.166","282.1","2.254","292.6","1001.8","8.93","66.77","80.6","0.0"],
    [1396891,"2026-01-29 08:30:00","34471","1.0290000000000001","285.3","1.601","283.8","1001.758","8.96","66.64","113.6","0.0"],
    [1396892,"2026-01-29 08:40:00","34472","1.496","295.9","2.842","311.7","1001.717","9.61","65.98","213.4","0.0"],
    [1396893,"2026-01-29 08:50:00","34473","2.891","316.3","4.704","308.2","1001.592","10.15","63.54","243.5","0.0"],
    [1396894,"2026-01-29 09:00:00","34474","3.383","304.8","5.423","301.4","1001.618","10.61","62.16","275.5","0.0"],
    [1396895,"2026-01-29 09:10:00","34475","2.7239999999999998","299.2","4.41","307","1001.783","10.8","61.33","170.3","0.0"],
    [1396896,"2026-01-29 09:20:00","34476","2.693","293.8","4.802","303.7","1001.702","10.53","62.24","177.9","0.0"],
    [1396897,"2026-01-29 09:30:00","34477","3.11","291.8","4.998","295.7","1001.507","10.78","61.91","265.7","0.0"],
    [1396898,"2026-01-29 09:40:00","34478","3.8289999999999997","297.1","6.011","303.5","1001.395","11.29","60.61","296.9","0.0"],
    [1396899,"2026-01-29 09:50:00","34479","2.844","293.6","4.769","293.3","1001.551","11.4","60.16","235.9","0.0"],
    [1396900,"2026-01-29 10:00:00","34480","2.821","288.1","5.194","297.6","1001.52","11.72","59.02","344.4","0.0"],
    [1396901,"2026-01-29 10:10:00","34481","2.608","279.6","4.9","284.2","1001.7330000000001","12.18","57.61","436.5","0.0"],
    [1396902,"2026-01-29 10:20:00","34482","3.446","289.3","5.227","294.3","1001.813","12.38","57.0","428.7","0.0"],
    [1396903,"2026-01-29 10:30:00","34483","2.8939999999999997","288.2","4.639","296.9","1001.6510000000001","12.66","55.97","456.5","0.0"],
    [1396904,"2026-01-29 10:40:00","34484","3.165","297.8","4.573","286.1","1001.613","12.59","56.39","275.4","0.0"],
    [1396905,"2026-01-29 10:50:00","34485","2.512","298.9","3.92","278.9","1001.548","12.99","56.54","475.3","0.0"],
    [1396906,"2026-01-29 11:00:00","34486","1.857","306.0","2.907","320.9","1001.4760000000001","13.43","55.65","358.0","0.0"],
    [1396907,"2026-01-29 11:10:00","34487","1.4969999999999999","265.0","2.613","248.4","1001.334","13.05","55.4","168.7","0.0"],
    [1396908,"2026-01-29 11:20:00","34488","1.719","286.8","2.907","294.3","1001.38","12.96","55.8","241.1","0.0"],
    [1396909,"2026-01-29 11:30:00","34489","1.107","304.1","2.744","313","1001.067","13.53","55.23","373.1","0.0"],
    [1396910,"2026-01-29 11:40:00","34490","0.813","252.8","2.254","214.2","1000.676","14.06","53.73","291.9","0.0"],
    [1396911,"2026-01-29 11:50:00","34491","2.006","268.1","3.953","292.5","1000.682","13.99","53.64","249.2","0.0"],
    [1396912,"2026-01-29 12:00:00","34492","2.405","234.7","4.345","248","1000.4739999999999","14.68","49.65","355.7","0.0"],
    [1396913,"2026-01-29 12:10:00","34493","3.267","226.7","4.933","207.5","1000.2","15.46","48.01","575.1","0.0"],
    [1396914,"2026-01-29 12:20:00","34494","3.45","228.0","6.174","193.7","999.9586","15.62","47.61","544.2","0.0"],
    [1396915,"2026-01-29 12:30:00","34495","4.796","221.6","6.991","225.2","999.8345","15.36","47.83","530.0","0.0"],
    [1396916,"2026-01-29 12:40:00","34496","4.449","223.8","7.513","208.7","999.7347","15.27","48.35","457.1","0.0"],
    [1396917,"2026-01-29 12:50:00","34497","4.271","224.5","6.795","221.9","999.3537","15.39","48.31","524.8","0.0"],
    [1396918,"2026-01-29 13:00:00","34498","4.197","226.3","7.383","218.2","999.195","15.13","50.92","355.5","0.0"],
    [1396919,"2026-01-29 13:10:00","34499","4.072","211.2","7.121","220.8","999.082","14.92","53.01","257.2","0.0"],
    [1396920,"2026-01-29 13:20:00","34500","5.132999999999999","217.3","8.72","203","999.0861","15.0","52.76","378.7","0.0"],
    [1396921,"2026-01-29 13:30:00","34501","5.449","216.7","8.72","232.3","999.1399","14.42","58.11","237.7","0.0"],
    [1396922,"2026-01-29 13:40:00","34502","5.7170000000000005","218.7","8.62","205.6","999.1689","14.4","56.42","404.7","0.0"],
    [1396923,"2026-01-29 13:50:00","34503","5.372999999999999","216.0","9.54","230.6","999.2261","14.58","55.57","312.0","0.0"],
    [1396924,"2026-01-29 14:00:00","34504","5.382000000000001","218.3","9.31","209.1","999.3085","14.08","57.26","236.4","0.0"],
    [1396925,"2026-01-29 14:10:00","34505","5.263999999999999","218.3","9.15","222.7","999.275","13.69","59.35","135.3","0.0"],
    [1396926,"2026-01-29 14:20:00","34506","5.115","219.8","8.46","226.2","999.3605","13.38","61.89","104.9","0.0"],
    [1396927,"2026-01-29 14:30:00","34507","4.582","220.7","9.41","233.5","999.1533","13.27","61.94","84.8","0.0"],
    [1396928,"2026-01-29 14:40:00","34508","4.362","219.9","8","218.7","999.0677","13.13","63.49","75.08","0.0"],
    [1396929,"2026-01-29 14:50:00","34509","4.643","226.0","8.07","237","999.1852","13.04","64.26","60.14","0.0"],
    [1396930,"2026-01-29 15:00:00","34510","4.854","228.1","7.415","225.5","999.2141","12.98","64.84","46.86","0.0"],
    [1396931,"2026-01-29 15:10:00","34511","3.705","231.6","6.305","224.5","999.3998","12.98","64.73","35.97","0.0"],
    [1396932,"2026-01-29 15:20:00","34512","3.7","227.5","6.141","207.8","999.4446","12.9","65.71","37.48","0.0"],
    [1396933,"2026-01-29 15:30:00","34513","2.923","231.0","5.227","222.8","999.7128","12.87","66.96","50.92","0.0"],
    [1396934,"2026-01-29 15:40:00","34514","4.058","228.7","6.37","236.4","999.9546","12.88","68.84","40.62","0.0"],
    [1396935,"2026-01-29 15:50:00","34515","4.4030000000000005","228.9","7.252","219.5","999.7763","12.95","71.14","26.74","0.0"],
    [1396936,"2026-01-29 16:00:00","34516","4.1530000000000005","231.0","6.762","230.4","999.2214","12.83","71.87","25.02","0.0"],
    [1396937,"2026-01-29 16:10:00","34517","5.132999999999999","227.0","8.36","219.8","999.2829","12.75","71.53","30.48","0.0"],
    [1396938,"2026-01-29 16:20:00","34518","4.66","229.8","7.415","215.9","999.7606","12.75","70.95","27.56","0.0"],
    [1396939,"2026-01-29 16:30:00","34519","4.343","228.9","6.697","211.8","1000.0039999999999","12.71","72.17","20.91","0.0"],
    [1396940,"2026-01-29 16:40:00","34520","5.321000000000001","226.5","8.2","208.9","999.5666","12.7","72.15","18.55","0.0"],
    [1396941,"2026-01-29 16:50:00","34521","4.8839999999999995","228.4","6.958","206.8","999.2603","12.65","72.3","22.52","0.0"],
    [1396942,"2026-01-29 17:00:00","34522","4.615","228.9","7.481","207.3","999.2133","12.57","73.61","9.46","0.0"],
    [1396943,"2026-01-29 17:10:00","34523","4.211","228.6","7.709","225.7","999.2165","12.5","73.95","2.1919999999999997","0.0"],
    [1396944,"2026-01-29 17:20:00","34524","2.786","231.3","5.455","203.5","999.3474","12.37","74.66","-1.087","0.0"],
    [1396945,"2026-01-29 17:30:00","34525","3.092","229.1","4.9","212.2","999.5446","12.09","76.72","-2.043","0.0"],
    [1396946,"2026-01-29 17:40:00","34526","2.066","233.4","4.018","250.8","999.7376","11.91","77.89","-2.602","0.0"],
    [1396947,"2026-01-29 17:50:00","34527","1.944","231.3","3.757","243.1","999.8815","12.02","76.69","-2.761","0.0"],
    [1396948,"2026-01-29 18:00:00","34528","1.422","243.4","3.299","285","1000.081","12.1","76.25","-2.761","0.0"],
    [1396949,"2026-01-29 18:10:00","34529","2.061","256.0","4.149","279.6","1000.1419999999999","12.13","76.92","-2.7710000000000004","0.0"],
    [1396950,"2026-01-29 18:20:00","34530","1.814","241.8","3.169","235","1000.0889999999999","12.03","77.16","-2.761","0.0"],
    [1396951,"2026-01-29 18:30:00","34531","1.4809999999999999","241.3","3.005","235.5","999.9899","11.8","77.89","-2.761","0.0"],
    [1396952,"2026-01-29 18:40:00","34532","1.524","268.8","2.646","243.4","999.9678","11.5","78.29","-2.761","0.0"],
    [1396953,"2026-01-29 18:50:00","34533","0.33899999999999997","298.3","1.47","306.3","1000.035","10.69","81.3","-3.24","0.0"],
    [1396954,"2026-01-29 19:00:00","34534","0.128","33.77","0.849","34.85","1000.1210000000001","10.52","82.7","-2.799","0.0"],
    [1396955,"2026-01-29 19:10:00","34535","0.037000000000000005","35.04","0.784","34.95","1000.413","10.07","83.9","-2.761","0.0"],
    [1396956,"2026-01-29 19:20:00","34536","0.259","287.1","1.601","292","1000.6","9.92","85.3","-2.7689999999999997","0.0"],
    [1396957,"2026-01-29 19:30:00","34537","0.653","261.6","2.221","264.6","1000.824","10.45","82.8","-2.467","0.0"],
    [1396958,"2026-01-29 19:40:00","34538","0.924","260.9","1.633","233.3","1000.813","10.48","80.8","-2.225","0.0"],
    [1396959,"2026-01-29 19:50:00","34539","1.3869999999999998","306.7","2.123","320.8","1000.8480000000001","9.98","81.1","-2.044","0.0"],
    [1396960,"2026-01-29 20:00:00","34540","2.369","328.5","3.201","333.1","1000.72","10.0","82.0","-2.553","0.0"],
    [1396961,"2026-01-29 20:10:00","34541","2.2430000000000003","343.5","3.332","334.5","1000.446","10.96","75.9","-2.26","0.0"],
    [1396962,"2026-01-29 20:20:00","34542","2.248","336.2","3.201","329.7","1000.592","11.34","71.66","-2.061","0.0"],
    [1396963,"2026-01-29 20:30:00","34543","1.7","303.3","3.365","325.1","1000.546","11.42","70.25","-2.169","0.0"],
    [1396964,"2026-01-29 20:40:00","34544","1.0759999999999998","256.0","1.666","237.5","1000.6210000000001","10.93","73.63","-2.052","0.0"],
    [1396965,"2026-01-29 20:50:00","34545","1.07","294.0","1.764","301.2","1000.625","10.71","73.33","-2.0340000000000003","0.0"],
    [1396966,"2026-01-29 21:00:00","34546","1.015","299.6","2.254","296.7","1000.7639999999999","10.43","74.1","-2.101","0.0"],
    [1396967,"2026-01-29 21:10:00","34547","1.067","287.5","2.221","288.2","1000.951","10.53","73.32","-2.351","0.0"],
    [1396968,"2026-01-29 21:20:00","34548","1.5630000000000002","303.6","2.679","312.1","1001.125","10.29","73.92","-2.1590000000000003","0.0"],
    [1396969,"2026-01-29 21:30:00","34549","1.4240000000000002","302.2","2.548","318.5","1001.279","10.07","74.6","-2.07","0.0"],
    [1396970,"2026-01-29 21:40:00","34550","1.396","286.5","2.809","287.2","1001.416","10.0","74.81","-2.032","0.0"],
    [1396971,"2026-01-29 21:50:00","34551","0.866","230.6","1.503","259.2","1001.3919999999999","10.15","73.94","-2.022","0.0"],
    [1396972,"2026-01-29 22:00:00","34552","0.797","215.7","1.47","213.1","1001.5319999999999","10.07","74.23","-2.479","0.0"],
    [1396973,"2026-01-29 22:10:00","34553","1.284","241.7","2.319","278.1","1001.66","9.99","74.68","-2.764","0.0"],
    [1396974,"2026-01-29 22:20:00","34554","1.6540000000000001","256.6","2.875","245.6","1001.872","9.95","74.89","-2.7510000000000003","0.0"],
    [1396975,"2026-01-29 22:30:00","34555","0.539","266.2","1.535","295.3","1001.706","9.8","75.42","-2.7560000000000002","0.0"],
    [1396976,"2026-01-29 22:40:00","34556","0.517","299.5","1.143","303.4","1001.7180000000001","9.36","77.56","-2.208","0.0"],
    [1396977,"2026-01-29 22:50:00","34557","1.074","295.4","2.385","299.2","1001.97","9.24","79.06","-1.7","0.0"],
    [1396978,"2026-01-29 23:00:00","34558","1.645","300.3","3.005","280.9","1001.804","9.59","79.01","-1.3530000000000002","0.0"],
    [1396979,"2026-01-29 23:10:00","34559","2.0980000000000003","280.0","3.365","276.9","1002.01","10.04","76.69","-1.8330000000000002","0.0"],
    [1396980,"2026-01-29 23:20:00","34560","1.984","296.6","3.528","299.5","1001.924","9.88","77.24","-1.9380000000000002","0.0"],
    [1396981,"2026-01-29 23:30:00","34561","2.166","306.0","3.495","316.9","1001.778","10.1","76.81","-2.386","0.0"],
    [1396982,"2026-01-29 23:40:00","34562","1.9269999999999998","295.5","3.136","293.4","1001.885","10.35","75.76","-1.989","0.0"],
    [1396983,"2026-01-29 23:50:00","34563","1.5930000000000002","291.6","2.875","311","1001.953","10.43","75.67","-1.567","0.0"],
    [1396984,"2026-01-30 00:00:00","34564","1.298","287.9","2.45","266.2","1002.0260000000001","10.43","75.97","-1.202","0.0"],
    [1396985,"2026-01-30 00:10:00","34565","1.433","268.5","2.548","284.9","1001.9810000000001","10.64","74.99","-1.276","0.0"],
    [1396986,"2026-01-30 00:20:00","34566","1.193","244.8","2.189","289.7","1002.033","10.65","74.73","-1.504","0.0"],
    [1396987,"2026-01-30 00:30:00","34567","0.992","260.7","2.156","270.9","1002.013","10.2","75.97","-2.105","0.0"],
    [1396988,"2026-01-30 00:40:00","34568","1.214","261.3","2.025","269.7","1001.7669999999999","9.66","78.4","-2.7739999999999996","0.0"],
    [1396989,"2026-01-30 00:50:00","34569","0.925","269.9","1.633","272.4","1001.7560000000001","9.42","79.28","-2.765","0.0"],
    [1396990,"2026-01-30 01:00:00","34570","1.024","272.6","2.287","276.9","1001.7130000000001","8.77","81.4","-2.7739999999999996","0.0"],
    [1396991,"2026-01-30 01:10:00","34571","1.7","267.4","2.875","261.2","1001.7230000000001","8.96","82.0","-2.775","0.0"],
    [1396992,"2026-01-30 01:20:00","34572","1.453","291.5","2.646","293","1001.691","8.6","81.3","-2.591","0.0"],
    [1396993,"2026-01-30 01:30:00","34573","0.745","281.4","1.339","293.1","1001.6","8.01","84.2","-2.786","0.0"],
    [1396994,"2026-01-30 01:40:00","34574","1.03","285.9","1.731","288.9","1001.58","7.985","84.7","-2.782","0.0"],
    [1396995,"2026-01-30 01:50:00","34575","1.135","280.0","1.895","276.1","1001.68","7.928","84.9","-2.786","0.0"],
    [1396996,"2026-01-30 02:00:00","34576","1.13","267.0","2.417","270","1001.6110000000001","8.2","84.2","-2.787","0.0"],
    [1396997,"2026-01-30 02:10:00","34577","0.63","251.5","2.156","268.6","1001.61","8.24","82.8","-2.759","0.0"],
    [1396998,"2026-01-30 02:20:00","34578","1.026","255.1","2.091","283.6","1001.635","8.09","84.0","-2.7880000000000003","0.0"],
    [1396999,"2026-01-30 02:30:00","34579","1.245","258.1","2.123","264.5","1001.6519999999999","8.4","82.5","-2.779","0.0"],
    [1397000,"2026-01-30 02:40:00","34580","1.091","268.9","1.895","272.1","1001.788","8.23","82.3","-2.784","0.0"],
    [1397001,"2026-01-30 02:50:00","34581","0.995","271.4","1.895","256.6","1001.8860000000001","7.683","84.6","-2.853","0.0"],
    [1397002,"2026-01-30 03:00:00","34582","0.8109999999999999","291.6","1.339","312.1","1001.8910000000001","7.818","84.4","-2.792","0.0"],
    [1397003,"2026-01-30 03:10:00","34583","0.659","275.7","1.339","290","1001.883","7.627000000000001","85.0","-2.847","0.0"],
    [1397004,"2026-01-30 03:20:00","34584","0.727","289.6","1.176","320.2","1001.951","7.246","85.7","-2.793","0.0"],
    [1397005,"2026-01-30 03:30:00","34585","1.199","313.7","2.515","330","1002.1089999999999","6.983","87.0","-2.8280000000000003","0.0"],
    [1397006,"2026-01-30 03:40:00","34586","2.628","327.0","3.985","325.3","1002.243","7.954","85.4","-2.969","0.0"],
    [1397007,"2026-01-30 03:50:00","34587","2.412","299.3","3.985","296.2","1002.342","9.33","76.67","-3.117","0.0"],
    [1397008,"2026-01-30 04:00:00","34588","2.826","293.4","4.247","282.3","1002.335","9.72","73.79","-3.304","0.0"],
    [1397009,"2026-01-30 04:10:00","34589","3.596","305.6","5.586","311","1002.446","9.35","75.66","-2.878","0.0"],
    [1397010,"2026-01-30 04:20:00","34590","4.681","307.6","8.13","316.3","1002.6160000000001","9.93","72.46","-3.034","0.0"],
    [1397011,"2026-01-30 04:30:00","34591","4.631","303.2","7.35","316.9","1002.805","10.23","70.57","-2.87","0.0"],
    [1397012,"2026-01-30 04:40:00","34592","5.859","304.3","10.13","310.5","1002.916","10.79","66.96","-3.3930000000000002","0.0"],
    [1397013,"2026-01-30 04:50:00","34593","5.476","315.0","8.13","333.9","1003.007","11.23","63.76","-2.8169999999999997","0.0"],
    [1397014,"2026-01-30 05:00:00","34594","5.796","311.0","9.57","302.2","1003.169","11.3","62.22","-2.773","0.0"],
    [1397015,"2026-01-30 05:10:00","34595","5.81","305.7","9.83","318.5","1003.205","11.17","61.85","-2.668","0.0"],
    [1397016,"2026-01-30 05:20:00","34596","6.159","300.9","9.87","318.7","1003.279","11.14","61.35","-2.7310000000000003","0.0"],
    [1397017,"2026-01-30 05:30:00","34597","5.85","301.8","9.7","298.9","1003.4739999999999","11.05","61.29","-2.7489999999999997","0.0"],
    [1397018,"2026-01-30 05:40:00","34598","6.053","305.9","9.44","305.1","1003.6460000000001","11.16","60.12","-2.742","0.0"],
    [1397019,"2026-01-30 05:50:00","34599","6.097","311.9","8.85","311.7","1003.669","11.22","58.72","-2.782","0.0"],
    [1397020,"2026-01-30 06:00:00","34600","6.465","309.4","10.85","311.3","1003.699","11.28","57.37","-2.8310000000000004","0.0"],
    [1397021,"2026-01-30 06:10:00","34601","7.3660000000000005","308.2","12.25","312.9","1003.709","11.64","54.26","-2.823","0.0"],
    [1397022,"2026-01-30 06:20:00","34602","6.547999999999999","313.4","10.98","316.3","1003.7189999999999","11.57","54.67","-2.5660000000000003","0.0"],
    [1397023,"2026-01-30 06:30:00","34603","6.459","312.0","10.13","310.7","1003.9810000000001","11.35","56.0","-2.541","0.0"],
    [1397024,"2026-01-30 06:40:00","34604","6.792000000000001","311.5","10.29","311.1","1004.062","11.38","55.38","-2.7510000000000003","0.0"],
    [1397025,"2026-01-30 06:50:00","34605","7.165","313.6","11.92","309.2","1004.025","11.52","54.29","-2.3040000000000003","0.0"],
    [1397026,"2026-01-30 07:00:00","34606","7.181","310.4","11.89","316.5","1004.123","11.55","53.72","-0.6890000000000001","0.0"],
    [1397027,"2026-01-30 07:10:00","34607","7.43","312.4","10.88","324.6","1004.1389999999999","11.51","53.52","2.639","0.0"],
    [1397028,"2026-01-30 07:20:00","34608","6.099","313.2","8.89","301.9","1004.132","11.39","54.02","8.12","0.0"],
    [1397029,"2026-01-30 07:30:00","34609","5.266","301.6","8.85","305.5","1004.432","11.31","53.81","14.09","0.0"],
    [1397030,"2026-01-30 07:40:00","34610","4.103","302.4","7.121","304","1004.576","11.13","54.67","18.74","0.0"],
    [1397031,"2026-01-30 07:50:00","34611","3.165","304.3","7.023","311.7","1004.7810000000001","11.24","54.21","20.56","0.0"],
    [1397032,"2026-01-30 08:00:00","34612","1.706","263.4","3.92","317.2","1005.169","11.15","54.11","21.81","0.0"],
    [1397033,"2026-01-30 08:10:00","34613","2.122","230.6","3.789","233.4","1005.602","11.03","54.84","30.79","0.0"],
    [1397034,"2026-01-30 08:20:00","34614","2.549","266.1","5.782","292.9","1005.768","11.19","54.65","35.96","0.0"],
    [1397035,"2026-01-30 08:30:00","34615","4.476","307.2","8","310.3","1005.684","11.78","52.16","125.9","0.0"],
    [1397036,"2026-01-30 08:40:00","34616","5.316","310.4","8.2","311.7","1005.65","12.35","49.51","213.1","0.0"],
    [1397037,"2026-01-30 08:50:00","34617","5.052","311.4","7.219","327.2","1005.529","12.68","48.31","242.3","0.0"],
    [1397038,"2026-01-30 09:00:00","34618","3.7060000000000004","291.1","6.403","310.8","1005.675","13.05","47.04","269.4","0.0"],
    [1397039,"2026-01-30 09:10:00","34619","3.9939999999999998","296.9","5.88","299.4","1005.93","13.4","46.9","296.0","0.0"],
    [1397040,"2026-01-30 09:20:00","34620","4.508","301.3","6.991","291.2","1005.921","13.65","45.51","321.0","0.0"],
    [1397041,"2026-01-30 09:30:00","34621","3.784","299.0","5.749","306.5","1005.846","13.98","44.54","345.3","0.0"],
    [1397042,"2026-01-30 09:40:00","34622","3.069","277.8","4.737","281.1","1005.975","14.68","40.61","368.9","0.0"],
    [1397043,"2026-01-30 09:50:00","34623","2.241","264.1","4.149","264.6","1005.9839999999999","15.12","38.13","391.3","0.0"],
    [1397044,"2026-01-30 10:00:00","34624","4.158","295.0","6.533","297","1005.855","15.19","39.41","378.7","0.0"],
    [1397045,"2026-01-30 10:10:00","34625","4.69","292.3","8.62","297","1005.725","15.37","38.44","443.5","0.0"],
    [1397046,"2026-01-30 10:20:00","34626","3.963","283.2","6.697","285.8","1005.807","15.62","37.74","454.2","0.0"],
    [1397047,"2026-01-30 10:30:00","34627","3.617","291.1","5.357","291.9","1005.783","15.75","38.11","465.5","0.0"],
    [1397048,"2026-01-30 10:40:00","34628","2.923","295.0","5.194","251.2","1005.697","15.84","38.58","487.5","0.0"],
    [1397049,"2026-01-30 10:50:00","34629","2.906","281.4","4.737","272.3","1005.797","15.67","38.09","196.5","0.0"],
    [1397050,"2026-01-30 11:00:00","34630","2.0540000000000003","282.9","4.051","298.7","1005.715","14.76","40.46","135.4","0.0"],
    [1397051,"2026-01-30 11:10:00","34631","2.427","289.4","4.508","282.7","1005.676","15.74","39.63","526.1","0.0"],
    [1397052,"2026-01-30 11:20:00","34632","3.515","304.4","6.272","316.7","1005.566","16.13","38.98","526.5","0.0"],
    [1397053,"2026-01-30 11:30:00","34633","4.515","297.0","6.827","301.6","1005.3889999999999","16.26","38.4","537.5","0.0"],
    [1397054,"2026-01-30 11:40:00","34634","4.173","294.0","6.239","297.6","1005.337","16.6","37.94","549.4","0.0"],
    [1397055,"2026-01-30 11:50:00","34635","3.766","284.9","6.207","304.3","1005.232","16.76","37.1","507.1","0.0"],
    [1397056,"2026-01-30 12:00:00","34636","3.825","260.3","7.709","300.6","1005.015","17.07","34.84","528.4","0.0"],
    [1397057,"2026-01-30 12:10:00","34637","4.023","262.7","8.62","273.7","1004.6260000000001","17.35","33.68","502.1","0.0"],
    [1397058,"2026-01-30 12:20:00","34638","3.9","259.9","7.383","265.6","1004.445","17.49","34.98","543.3","0.0"],
    [1397059,"2026-01-30 12:30:00","34639","4.018","226.6","7.938","231.5","1004.383","17.41","39.5","537.0","0.0"],
    [1397060,"2026-01-30 12:40:00","34640","4.093","230.4","8.04","237.7","1004.2689999999999","17.23","42.58","541.0","0.0"],
    [1397061,"2026-01-30 12:50:00","34641","5.3660000000000005","277.2","11.11","296","1004.0980000000001","17.49","37.92","536.2","0.0"],
    [1397062,"2026-01-30 13:00:00","34642","4.196000000000001","252.6","7.709","259.2","1003.8760000000001","17.94","34.79","534.7","0.0"],
    [1397063,"2026-01-30 13:10:00","34643","4.802","240.9","8.82","270.3","1003.711","17.84","34.38","522.4","0.0"],
    [1397064,"2026-01-30 13:20:00","34644","4.231","238.9","8.82","247.2","1003.672","17.95","33.92","506.9","0.0"],
    [1397065,"2026-01-30 13:30:00","34645","4.385","241.8","8.69","278.1","1003.7410000000001","18.05","34.33","450.6","0.0"],
    [1397066,"2026-01-30 13:40:00","34646","4.627","230.8","9.83","237.7","1003.595","17.48","39.88","435.4","0.0"],
    [1397067,"2026-01-30 13:50:00","34647","5.477","226.4","9.34","222.5","1003.332","16.76","45.32","462.1","0.0"],
    [1397068,"2026-01-30 14:00:00","34648","5.353","228.9","8.79","228.8","1003.061","17.23","41.72","463.9","0.0"],
    [1397069,"2026-01-30 14:10:00","34649","5.001","227.3","8.89","242.4","1002.8839999999999","17.43","39.75","425.5","0.0"],
    [1397070,"2026-01-30 14:20:00","34650","4.782","229.1","7.546","230.9","1002.8","17.41","41.84","404.5","0.0"],
    [1397071,"2026-01-30 14:30:00","34651","4.0680000000000005","230.5","6.631","263.9","1002.868","17.42","42.05","384.1","0.0"],
    [1397072,"2026-01-30 14:40:00","34652","4.218999999999999","229.6","7.644","269.8","1002.801","17.28","43.55","372.5","0.0"],
    [1397073,"2026-01-30 14:50:00","34653","4.0169999999999995","234.0","6.599","208.3","1002.821","17.1","42.55","319.7","0.0"],
    [1397074,"2026-01-30 15:00:00","34654","2.76","240.0","5.945","279.6","1002.7589999999999","17.1","44.7","322.4","0.0"],
    [1397075,"2026-01-30 15:10:00","34655","3.978","222.0","8.49","200.5","1002.732","17.21","43.54","248.7","0.0"],
    [1397076,"2026-01-30 15:20:00","34656","4.726","218.2","6.827","226.6","1002.7360000000001","16.39","48.82","221.5","0.0"],
    [1397077,"2026-01-30 15:30:00","34657","4.038","217.1","6.893","211.2","1002.814","16.2","51.05","238.6","0.0"],
    [1397078,"2026-01-30 15:40:00","34658","4.256","213.1","7.219","217","1002.882","15.94","57.23","214.9","0.0"],
    [1397079,"2026-01-30 15:50:00","34659","4.431","222.5","7.971","235.4","1002.8889999999999","15.56","60.98","188.3","0.0"],
    [1397080,"2026-01-30 16:00:00","34660","4.566","227.9","7.873","221.9","1002.8760000000001","15.3","60.07","150.8","0.0"],
    [1397081,"2026-01-30 16:10:00","34661","4.465","229.0","8.17","206.9","1002.79","14.94","60.7","135.3","0.0"],
    [1397082,"2026-01-30 16:20:00","34662","4.121","230.5","8.1","230.5","1002.7080000000001","14.53","65.44","82.8","0.0"],
    [1397083,"2026-01-30 16:30:00","34663","3.542","226.8","6.664","223.1","1002.5889999999999","14.24","70.25","43.03","0.0"],
    [1397084,"2026-01-30 16:40:00","34664","4.675","224.2","7.971","216.2","1002.403","14.17","71.73","28.0","0.0"],
    [1397085,"2026-01-30 16:50:00","34665","3.307","230.3","5.749","213.3","1002.2710000000001","13.95","73.92","17.2","0.0"],
    [1397086,"2026-01-30 17:00:00","34666","3.727","228.3","6.207","218.1","1002.196","13.71","75.77","9.01","0.0"],
    [1397087,"2026-01-30 17:10:00","34667","3.37","227.8","5.521","213.9","1002.2560000000001","13.51","76.59","1.631","0.0"],
    [1397088,"2026-01-30 17:20:00","34668","3.853","227.0","6.958","218.7","1002.2689999999999","13.4","77.53","-1.249","0.0"],
    [1397089,"2026-01-30 17:30:00","34669","3.9789999999999996","226.5","6.207","225.4","1002.137","13.54","74.16","-2.461","0.0"],
    [1397090,"2026-01-30 17:40:00","34670","2.967","229.7","4.933","213.5","1002.056","13.63","70.86","-2.742","0.0"],
    [1397091,"2026-01-30 17:50:00","34671","2.471","226.3","4.181","219.3","1001.924","13.34","71.21","-2.733","0.0"],
    [1397092,"2026-01-30 18:00:00","34672","1.828","229.3","3.561","236.2","1001.873","13.21","70.72","-2.68","0.0"],
    [1397093,"2026-01-30 18:10:00","34673","1.189","232.6","2.287","235.8","1001.6619999999999","12.82","71.8","-2.761","0.0"],
    [1397094,"2026-01-30 18:20:00","34674","0.882","249.2","1.699","246.6","1001.46","12.6","71.41","-2.7739999999999996","0.0"],
    [1397095,"2026-01-30 18:30:00","34675","0.59","282.6","1.47","262.8","1001.211","12.3","72.11","-2.772","0.0"],
    [1397096,"2026-01-30 18:40:00","34676","0.12","263.9","0.751","257.6","1000.9910000000001","11.99","72.19","-2.767","0.0"],
    [1397097,"2026-01-30 18:50:00","34677","0.0","293.0","0.033","293","1000.7610000000001","11.92","71.44","-2.759","0.0"],
    [1397098,"2026-01-30 19:00:00","34678","0.08800000000000001","258.4","0.882","257.9","1000.4910000000001","11.79","69.94","-2.698","0.0"],
    [1397099,"2026-01-30 19:10:00","34679","0.506","268.8","0.915","264","1000.319","11.96","67.23","-2.086","0.0"],
    [1397100,"2026-01-30 19:20:00","34680","0.532","249.3","1.372","271.6","1000.1489999999999","11.61","67.91","-1.876","0.0"],
    [1397101,"2026-01-30 19:30:00","34681","0.512","253.4","1.078","235.5","999.8083","11.68","66.34","-1.416","0.0"],
    [1397102,"2026-01-30 19:40:00","34682","0.951","299.1","1.96","303.3","999.6271","11.64","68.34","-1.266","0.0"],
    [1397103,"2026-01-30 19:50:00","34683","1.381","262.2","2.515","263","999.7037","11.85","65.23","-1.385","0.0"],
    [1397104,"2026-01-30 20:00:00","34684","1.14","236.5","1.927","238.1","999.6206","12.91","58.46","-1.2590000000000001","0.0"],
    [1397105,"2026-01-30 20:10:00","34685","1.5330000000000001","228.6","2.581","227.2","999.6115","12.94","58.34","-1.262","0.0"],
    [1397106,"2026-01-30 20:20:00","34686","1.629","223.7","2.679","232.7","999.6135","12.91","58.2","-1.263","0.0"],
    [1397107,"2026-01-30 20:30:00","34687","3.161","245.8","8.79","276","999.6486","13.15","56.02","-1.483","0.0"],
    [1397108,"2026-01-30 20:40:00","34688","3.984","275.2","7.905","288.2","999.4739","13.41","54.23","-1.2890000000000001","0.0"],
    [1397109,"2026-01-30 20:50:00","34689","5.694","310.6","8.89","321.4","999.1821","12.84","58.13","-0.951","0.0"],
    [1397110,"2026-01-30 21:00:00","34690","7.152","314.2","10.39","323.6","998.8245","12.38","61.38","-0.82","0.0"],
    [1397111,"2026-01-30 21:10:00","34691","5.755","307.7","9.31","318.2","998.9185","12.31","61.64","-1.126","0.0"],
    [1397112,"2026-01-30 21:20:00","34692","5.523","311.9","8.75","310.9","998.7953","12.15","63.62","-1.9040000000000001","0.0"],
    [1397113,"2026-01-30 21:30:00","34693","6.1129999999999995","312.6","8.98","319.1","998.7242","11.94","65.22","-2.376","0.0"],
    [1397114,"2026-01-30 21:40:00","34694","4.52","299.9","7.383","305.8","998.6691","11.68","67.08","-1.189","0.0"],
    [1397115,"2026-01-30 21:50:00","34695","4.365","297.8","6.795","304.6","998.5336","11.39","69.74","-1.454","0.0"],
    [1397116,"2026-01-30 22:10:00","34696","2.9","293.6","4.671","273.7","998.2025","11.27","69.97","-1.709","0.0"],
    [1397117,"2026-01-30 22:20:00","34697","3.694","316.4","5.651","313.6","997.8989","11.49","67.11","-1.9240000000000002","0.0"],
    [1397118,"2026-01-30 22:30:00","34698","3.714","308.4","5.945","305.2","997.6638","11.49","67.44","-2.019","0.0"],
    [1397119,"2026-01-30 22:40:00","34699","3.339","304.6","4.933","306.8","997.5831","11.41","68.23","-1.381","0.0"],
    [1397120,"2026-01-30 22:50:00","34700","3.418","305.6","5.161","302.7","997.4889999999999","11.3","69.14","-1.261","0.0"],
    [1397121,"2026-01-30 23:00:00","34701","3.17","310.1","4.9","307.5","997.2355","11.21","69.7","-1.264","0.0"],
    [1397122,"2026-01-30 23:10:00","34702","2.852","307.4","4.312","324.4","997.0676","11.19","69.62","-1.265","0.0"],
    [1397123,"2026-01-30 23:20:00","34703","2.199","290.4","3.201","276.3","996.9418","11.09","70.01","-1.264","0.0"],
    [1397124,"2026-01-30 23:30:00","34704","2.265","284.5","3.757","281.6","996.8926","10.95","71.34","-1.261","0.0"],
    [1397125,"2026-01-30 23:40:00","34705","2.758","287.9","4.312","277","996.6841","10.85","71.77","-1.261","0.0"],
    [1397126,"2026-01-30 23:50:00","34706","2.577","284.3","4.769","296.6","996.5587","10.82","72.27","-1.229","0.0"],
    [1397127,"2026-01-31 00:00:00","34707","2.781","290.3","4.41","291.5","996.4276","10.84","71.61","-1.2570000000000001","0.0"],
    [1397128,"2026-01-31 00:10:00","34708","2.872","286.4","5.096","303.9","996.304","10.85","71.04","-1.2590000000000001","0.0"],
    [1397129,"2026-01-31 00:20:00","34709","2.715","276.8","4.377","254.4","996.2019","10.77","71.49","-1.261","0.0"],
    [1397130,"2026-01-31 00:30:00","34710","2.6","288.7","3.985","286.1","996.0728","10.57","72.27","-1.261","0.0"],
    [1397131,"2026-01-31 00:40:00","34711","2.877","293.7","4.573","300","995.9448","10.61","71.54","-1.261","0.0"],
    [1397132,"2026-01-31 00:50:00","34712","3.444","298.4","5.717","323","995.8371","10.76","70.74","-1.254","0.0"],
    [1397133,"2026-01-31 01:00:00","34713","2.983","293.9","5.031","293.9","995.6419999999999","10.83","70.32","-1.247","0.0"],
    [1397134,"2026-01-31 01:10:00","34714","2.563","291.5","4.051","305.2","995.325","10.82","69.76","-1.32","0.0"],
    [1397135,"2026-01-31 01:20:00","34715","2.47","298.5","4.377","323","995.1176","10.56","70.85","-1.943","0.0"],
    [1397136,"2026-01-31 01:30:00","34716","2.8139999999999996","307.4","4.573","314.7","994.9981","10.46","71.28","-2.024","0.0"],
    [1397137,"2026-01-31 01:40:00","34717","2.969","314.7","4.475","318.2","994.9547","10.56","70.99","-2.021","0.0"],
    [1397138,"2026-01-31 01:50:00","34718","2.88","310.3","4.018","318.4","994.9294","10.44","71.56","-2.029","0.0"],
    [1397139,"2026-01-31 02:00:00","34719","2.461","304.6","3.561","319.1","994.8353","10.29","72.14","-2.035","0.0"],
    [1397140,"2026-01-31 02:10:00","34720","2.14","294.6","2.907","300.7","994.7847","10.08","72.72","-2.057","0.0"],
    [1397141,"2026-01-31 02:20:00","34721","2.006","282.1","3.92","299.9","994.7753","10.09","72.56","-2.015","0.0"],
    [1397142,"2026-01-31 02:30:00","34722","1.8619999999999999","280.6","3.397","303.7","994.6981","9.98","72.77","-2.026","0.0"],
    [1397143,"2026-01-31 02:40:00","34723","2.17","293.8","3.397","312.3","994.6815","9.79","73.0","-2.347","0.0"],
    [1397144,"2026-01-31 02:50:00","34724","2.377","319.7","3.691","323.2","994.8017","9.97","72.0","-2.512","0.0"],
    [1397145,"2026-01-31 03:00:00","34725","2.645","310.4","4.345","306.2","994.7476","10.09","71.29","-2.496","0.0"],
    [1397146,"2026-01-31 03:10:00","34726","3.0460000000000003","299.0","5.031","317","994.6542","10.12","70.46","-2.524","0.0"],
    [1397147,"2026-01-31 03:20:00","34727","2.431","290.5","4.377","279.9","994.5594","10.15","69.54","-2.3890000000000002","0.0"],
    [1397148,"2026-01-31 03:30:00","34728","1.999","313.9","3.169","309.9","994.6354","10.01","70.22","-2.088","0.0"],
    [1397149,"2026-01-31 03:40:00","34729","1.865","327.6","2.973","336.6","994.6572","10.19","69.57","-1.301","0.0"],
    [1397150,"2026-01-31 03:50:00","34730","1.886","290.6","3.332","303.7","994.6609","10.35","68.59","-1.265","0.0"],
    [1397151,"2026-01-31 04:00:00","34731","1.755","292.6","3.985","261.6","994.7867","10.46","67.89","-1.238","0.0"],
    [1397152,"2026-01-31 04:10:00","34732","2.1430000000000002","278.1","4.541","308.7","994.8668","10.54","67.49","-1.258","0.0"],
    [1397153,"2026-01-31 04:20:00","34733","2.506","280.3","4.639","292.6","994.9767","10.5","66.94","-1.252","0.0"],
    [1397154,"2026-01-31 04:30:00","34734","3.013","286.5","7.187","288.1","995.2075","10.28","67.33","-1.7109999999999999","0.0"],
    [1397155,"2026-01-31 04:40:00","34735","6.22","304.1","11.43","300.8","995.6566","9.95","66.84","-1.754","0.0"],
    [1397156,"2026-01-31 04:50:00","34736","4.187","300.7","7.611","309.9","995.9862","9.51","66.69","-1.3659999999999999","0.0"],
    [1397157,"2026-01-31 05:00:00","34737","4.204","304.6","10.29","288.4","996.207","9.32","67.14","-1.264","0.0"],
    [1397158,"2026-01-31 05:10:00","34738","4.272","323.2","7.709","330.5","996.3737","9.29","67.42","-1.258","0.0"],
    [1397159,"2026-01-31 05:20:00","34739","3.91","329.2","7.023","347.2","996.4125","9.31","67.52","-1.189","0.0"],
    [1397160,"2026-01-31 05:30:00","34740","3.4019999999999997","330.8","7.121","306.1","996.5052","9.41","67.41","-1.253","0.0"],
    [1397161,"2026-01-31 05:40:00","34741","3.7510000000000003","319.9","6.762","333.1","996.5847","9.44","67.97","-1.7380000000000002","0.0"],
    [1397162,"2026-01-31 05:50:00","34742","5.82","306.3","9.44","308.9","996.7189","9.46","67.87","-1.5230000000000001","0.0"],
    [1397163,"2026-01-31 06:00:00","34743","5.952999999999999","305.7","11.04","313.7","996.9219","9.51","66.85","-1.271","0.0"],
    [1397164,"2026-01-31 06:10:00","34744","7.351","309.4","11.56","318.6","997.1838","9.69","64.35","-1.268","0.0"],
    [1397165,"2026-01-31 06:20:00","34745","8.0","312.4","11.37","303.7","997.4009","9.82","62.1","-1.266","0.0"],
    [1397166,"2026-01-31 06:30:00","34746","6.69","307.0","13.65","309.5","997.6111","9.74","61.43","-1.2690000000000001","0.0"],
    [1397167,"2026-01-31 06:40:00","34747","7.604","303.9","13.1","301.1","997.8203","9.73","59.75","-1.374","0.0"],
    [1397168,"2026-01-31 06:50:00","34748","7.346","306.1","12.35","316.8","998.0657","9.77","58.19","-1.272","0.0"],
    [1397169,"2026-01-31 07:00:00","34749","8.07","305.9","12.28","307.5","998.3330000000001","9.74","57.34","-0.511","0.0"],
    [1397170,"2026-01-31 07:10:00","34750","6.849","309.6","11.43","321.2","998.5981","9.71","56.66","1.744","0.0"],
    [1397171,"2026-01-31 07:20:00","34751","6.622000000000001","303.4","10.19","302.9","998.8489","9.6","56.59","5.207999999999999","0.0"],
    [1397172,"2026-01-31 07:30:00","34752","6.877999999999999","297.2","10.29","326.2","998.9649","9.54","56.19","9.86","0.0"],
    [1397173,"2026-01-31 07:40:00","34753","6.511","297.3","10.29","298.2","999.1531","9.48","56.17","17.73","0.0"],
    [1397174,"2026-01-31 07:50:00","34754","5.29","297.7","9.67","318.2","999.3571","9.37","56.82","27.13","0.0"],
    [1397175,"2026-01-31 08:00:00","34755","5.985","298.6","9.51","300.8","999.5389","9.42","56.44","40.13","0.0"],
    [1397176,"2026-01-31 08:10:00","34756","6.468","299.1","10.52","304.9","999.6288","9.53","55.87","54.45","0.0"],
    [1397177,"2026-01-31 08:20:00","34757","6.2989999999999995","304.3","10.62","318.6","999.7676","9.58","55.76","67.37","0.0"],
    [1397178,"2026-01-31 08:30:00","34758","5.209","306.7","9.24","309.6","999.8524","9.57","56.21","76.7","0.0"],
    [1397179,"2026-01-31 08:40:00","34759","5.443","307.9","9.38","336.9","999.9266","9.54","56.59","87.4","0.0"],
    [1397180,"2026-01-31 08:50:00","34760","7.426","306.5","11.76","311.9","1000.087","9.51","56.38","87.4","0.0"],
    [1397181,"2026-01-31 09:00:00","34761","6.9510000000000005","303.8","10.81","305.7","1000.323","9.61","55.97","83.1","0.0"],
    [1397182,"2026-01-31 09:10:00","34762","7.579","304.1","11.04","300.5","1000.461","9.96","55.12","243.4","0.0"],
    [1397183,"2026-01-31 09:20:00","34763","8.15","305.5","13","310.4","1000.555","10.63","53.22","325.6","0.0"],
    [1397184,"2026-01-31 09:30:00","34764","6.825","306.5","11.89","298","1000.7330000000001","10.96","52.46","312.3","0.0"],
    [1397185,"2026-01-31 09:40:00","34765","6.722","303.6","11.17","309.3","1000.96","11.16","51.55","331.4","0.0"],
    [1397186,"2026-01-31 09:50:00","34766","6.8420000000000005","301.5","10.16","296.4","1001.1389999999999","11.59","50.14","407.4","0.0"],
    [1397187,"2026-01-31 10:00:00","34767","5.79","300.1","11.79","311.4","1001.3330000000001","12.07","48.87","427.8","0.0"],
    [1397188,"2026-01-31 10:10:00","34768","6.626","299.5","10.94","296.2","1001.6060000000001","12.14","48.22","451.5","0.0"],
    [1397189,"2026-01-31 10:20:00","34769","7.181","301.3","11.01","307.9","1001.7260000000001","12.3","47.61","445.0","0.0"],
    [1397190,"2026-01-31 10:30:00","34770","7.193","303.1","11.79","295.4","1001.8939999999999","12.44","47.29","460.0","0.0"],
    [1397191,"2026-01-31 10:40:00","34771","7.507999999999999","306.4","13.72","325.4","1002.096","12.77","46.77","498.0","0.0"],
    [1397192,"2026-01-31 10:50:00","34772","6.702999999999999","304.3","11.04","323.4","1002.2080000000001","13.01","46.17","511.3","0.0"],
    [1397193,"2026-01-31 11:00:00","34773","7.585","302.7","11.79","310.8","1002.395","13.19","45.05","526.2","0.0"],
    [1397194,"2026-01-31 11:10:00","34774","7.443","306.7","12.54","316.6","1002.5360000000001","13.63","44.62","537.8","0.0"],
    [1397195,"2026-01-31 11:20:00","34775","7.915","304.2","11.53","317.3","1002.6489999999999","13.68","44.26","541.0","0.0"],
    [1397196,"2026-01-31 11:30:00","34776","6.734","300.5","10.42","293.1","1002.77","14.1","43.43","550.4","0.0"],
    [1397197,"2026-01-31 11:40:00","34777","7.099","303.8","11.34","306.9","1002.857","14.27","43.66","558.2","0.0"],
    [1397198,"2026-01-31 11:50:00","34778","7.277","294.6","12.64","297.7","1003.0","14.49","41.83","542.9","0.0"],
    [1397199,"2026-01-31 12:00:00","34779","9.08","309.9","13.65","318.2","1003.097","14.37","42.3","521.9","0.0"],
    [1397200,"2026-01-31 12:10:00","34780","8.84","312.7","12.71","311.5","1003.1139999999999","14.39","42.08","542.8","0.0"],
    [1397201,"2026-01-31 12:20:00","34781","7.935","309.7","12.45","309.8","1003.1089999999999","14.56","41.99","559.5","0.0"],
    [1397202,"2026-01-31 12:30:00","34782","7.432","314.3","11.17","322.7","1003.09","14.81","41.45","555.0","0.0"],
    [1397203,"2026-01-31 12:40:00","34783","6.881","316.6","10.78","327.5","1003.1460000000001","14.88","41.66","548.0","0.0"],
    [1397204,"2026-01-31 12:50:00","34784","7.546","312.4","11.14","321","1003.2439999999999","14.91","41.07","542.1","0.0"],
    [1397205,"2026-01-31 13:00:00","34785","6.27","305.7","11.56","310.5","1003.345","15.21","41.61","533.0","0.0"],
    [1397206,"2026-01-31 13:10:00","34786","6.7860000000000005","312.5","10.29","306.6","1003.3530000000001","15.19","42.03","522.5","0.0"],
    [1397207,"2026-01-31 13:20:00","34787","6.148","311.1","8.66","304.2","1003.426","15.5","41.43","509.2","0.0"],
    [1397208,"2026-01-31 13:30:00","34788","6.735","306.4","10.36","319.9","1003.45","15.57","40.31","496.9","0.0"],
    [1397209,"2026-01-31 13:40:00","34789","5.721","298.3","10.13","303.4","1003.564","15.89","39.53","480.3","0.0"],
    [1397210,"2026-01-31 13:50:00","34790","6.194","300.7","10.19","334","1003.7810000000001","15.92","39.23","465.9","0.0"],
    [1397211,"2026-01-31 14:00:00","34791","5.8629999999999995","303.5","10.42","311.9","1004.066","15.87","39.25","448.7","0.0"],
    [1397212,"2026-01-31 14:10:00","34792","5.675","302.2","8.59","310.7","1004.195","15.82","39.34","428.5","0.0"],
    [1397213,"2026-01-31 14:20:00","34793","4.695","309.5","9.57","300.6","1004.313","16.04","39.71","407.2","0.0"],
    [1397214,"2026-01-31 14:30:00","34794","5.337999999999999","302.9","10.03","306.7","1004.4689999999999","15.88","39.46","387.5","0.0"],
    [1397215,"2026-01-31 14:40:00","34795","5.138999999999999","311.1","7.677","303","1004.548","15.89","40.38","364.8","0.0"],
    [1397216,"2026-01-31 14:50:00","34796","4.476","318.1","7.546","320.4","1004.694","15.96","39.88","340.0","0.0"],
    [1397217,"2026-01-31 15:00:00","34797","4.921","315.1","7.219","319.7","1004.903","15.86","40.42","316.8","0.0"],
    [1397218,"2026-01-31 15:10:00","34798","3.779","304.3","6.239","309.5","1004.9939999999999","15.85","40.82","292.0","0.0"],
    [1397219,"2026-01-31 15:20:00","34799","4.1","292.7","7.579","277.1","1005.1410000000001","15.89","40.66","267.5","0.0"],
    [1397220,"2026-01-31 15:30:00","34800","4.717","297.0","9.08","312.3","1005.2360000000001","15.77","40.5","241.9","0.0"],
    [1397221,"2026-01-31 15:40:00","34801","4.21","303.2","6.729","285.1","1005.2689999999999","15.75","40.5","213.8","0.0"],
    [1397222,"2026-01-31 15:50:00","34802","5.082","299.3","7.873","280.7","1005.437","15.64","40.67","186.0","0.0"],
    [1397223,"2026-01-31 16:00:00","34803","3.832","306.2","6.893","311.7","1005.618","15.47","42.19","157.7","0.0"],
    [1397224,"2026-01-31 16:10:00","34804","3.825","286.5","6.468","272.8","1005.773","15.22","42.97","130.2","0.0"],
    [1397225,"2026-01-31 16:20:00","34805","3.987","296.2","6.697","292.7","1005.927","14.81","45.01","80.4","0.0"],
    [1397226,"2026-01-31 16:30:00","34806","3.967","308.8","7.285","299.1","1005.972","14.61","46.13","23.53","0.0"],
    [1397227,"2026-01-31 16:40:00","34807","3.397","301.6","6.468","320.9","1006.1089999999999","14.41","46.68","18.5","0.0"],
    [1397228,"2026-01-31 16:50:00","34808","1.879","291.7","5.357","291.5","1006.3539999999999","14.03","48.06","13.04","0.0"],
    [1397229,"2026-01-31 17:00:00","34809","1.867","270.6","3.985","291.5","1006.566","14.04","47.68","7.526","0.0"],
    [1397230,"2026-01-31 17:10:00","34810","2.945","271.4","6.043","273.2","1006.925","13.71","48.08","2.186","0.0"],
    [1397231,"2026-01-31 17:20:00","34811","2.372","278.0","5.161","283.9","1007.225","13.44","48.8","-0.925","0.0"],
    [1397232,"2026-01-31 17:30:00","34812","2.116","277.5","4.639","286.2","1007.375","13.12","50.12","-2.628","0.0"],
    [1397233,"2026-01-31 17:40:00","34813","3.3160000000000003","291.5","6.011","302.1","1007.4580000000001","12.87","51.0","-2.9330000000000003","0.0"],
    [1397234,"2026-01-31 17:50:00","34814","4.477","295.5","7.35","307.5","1007.5110000000001","12.86","51.03","-2.799","0.0"],
    [1397235,"2026-01-31 18:00:00","34815","4.928999999999999","294.9","8.75","289","1007.73","12.81","51.22","-2.764","0.0"],
    [1397236,"2026-01-31 18:10:00","34816","5.233","295.6","9.67","286","1007.8430000000001","12.67","51.63","-2.7569999999999997","0.0"],
    [1397237,"2026-01-31 18:20:00","34817","5.229","291.4","9.44","295.1","1008.074","12.57","51.72","-2.6839999999999997","0.0"],
    [1397238,"2026-01-31 18:30:00","34818","3.89","296.9","7.938","280.4","1008.2510000000001","12.29","52.84","-2.858","0.0"],
    [1397239,"2026-01-31 18:40:00","34819","3.359","304.3","6.435","322.3","1008.3939999999999","12.32","52.6","-2.878","0.0"],
    [1397240,"2026-01-31 18:50:00","34820","2.326","304.1","3.855","317.6","1008.453","12.14","53.16","-2.918","0.0"],
    [1397241,"2026-01-31 19:00:00","34821","2.66","301.5","4.867","301.6","1008.5089999999999","11.91","54.0","-3.048","0.0"],
    [1397242,"2026-01-31 19:10:00","34822","1.77","311.0","3.626","299.5","1008.745","12.0","53.56","-2.927","0.0"],
    [1397243,"2026-01-31 19:20:00","34823","1.088","277.4","3.463","252.1","1008.8960000000001","11.64","54.46","-3.3539999999999996","0.0"],
    [1397244,"2026-01-31 19:30:00","34824","2.1590000000000003","301.5","4.475","309.8","1009.039","11.8","54.4","-3.377","0.0"],
    [1397245,"2026-01-31 19:40:00","34825","3.449","300.4","6.174","321.8","1009.148","11.79","54.84","-3.029","0.0"],
    [1397246,"2026-01-31 19:50:00","34826","4.289","296.4","8.49","307.4","1009.182","11.86","54.57","-2.963","0.0"],
    [1397247,"2026-01-31 20:00:00","34827","4.4430000000000005","301.9","7.677","297.3","1009.173","11.84","54.71","-2.767","0.0"],
    [1397248,"2026-01-31 20:10:00","34828","4.516","308.9","7.644","318.6","1009.14","11.76","55.2","-2.761","0.0"],
    [1397249,"2026-01-31 20:20:00","34829","5.832999999999999","310.6","10.98","310.3","1009.1360000000001","11.68","55.46","-2.775","0.0"],
    [1397250,"2026-01-31 20:30:00","34830","6.811","305.9","10.62","310.6","1009.2489999999999","11.69","55.52","-2.476","0.0"],
    [1397251,"2026-01-31 20:40:00","34831","6.46","310.5","9.38","307","1009.346","11.59","55.7","-2.5269999999999997","0.0"],
    [1397252,"2026-01-31 20:50:00","34832","5.478","322.5","11.01","319.6","1009.435","11.56","55.55","-2.552","0.0"],
    [1397253,"2026-01-31 21:00:00","34833","6.495","317.7","11.2","302.1","1009.576","11.41","56.12","-2.738","0.0"],
    [1397254,"2026-01-31 21:10:00","34834","7.11","309.0","10.06","308.3","1009.659","11.43","55.87","-2.3369999999999997","0.0"],
    [1397255,"2026-01-31 21:20:00","34835","6.733","309.6","9.83","317.2","1009.834","11.26","56.67","-2.256","0.0"],
    [1397256,"2026-01-31 21:30:00","34836","6.4879999999999995","311.4","10.75","302.9","1009.9780000000001","11.19","56.74","-2.488","0.0"],
    [1397257,"2026-01-31 21:40:00","34837","6.08","309.4","9.9","310","1010.034","11.12","57.08","-2.491","0.0"],
    [1397258,"2026-01-31 21:50:00","34838","6.405","303.0","11.73","312.7","1010.092","11.06","57.16","-2.556","0.0"],
    [1397259,"2026-01-31 22:00:00","34839","6.5920000000000005","305.9","10.94","307.4","1010.295","10.98","57.62","-2.387","0.0"],
    [1397260,"2026-01-31 22:10:00","34840","5.946000000000001","307.4","9.31","310.2","1010.4010000000001","11.02","57.26","-2.71","0.0"],
    [1397261,"2026-01-31 22:20:00","34841","6.57","311.9","9.6","312.2","1010.453","11.15","56.55","-2.7089999999999996","0.0"],
    [1397262,"2026-01-31 22:30:00","34842","6.704","307.7","12.09","309.9","1010.512","11.23","55.91","-2.623","0.0"],
    [1397263,"2026-01-31 22:40:00","34843","7.182","304.3","12.09","290.4","1010.689","11.23","55.73","-2.5580000000000003","0.0"],
    [1397264,"2026-01-31 22:50:00","34844","6.284","308.4","9.44","312.3","1010.693","11.19","55.92","-2.359","0.0"],
    [1397265,"2026-01-31 23:00:00","34845","6.8260000000000005","308.8","10.29","307.8","1010.691","11.17","55.86","-2.576","0.0"],
    [1397266,"2026-01-31 23:10:00","34846","6.803","308.3","10.62","312","1010.688","11.14","55.9","-2.47","0.0"],
    [1397267,"2026-01-31 23:20:00","34847","6.57","311.2","10.85","309.7","1010.525","11.12","55.77","-2.4619999999999997","0.0"],
    [1397268,"2026-01-31 23:30:00","34848","6.6579999999999995","307.6","10.91","312","1010.306","11.14","55.42","-2.531","0.0"],
    [1397269,"2026-01-31 23:50:00","34849","7.579","301.1","11.14","316.6","1010.1669999999999","10.96","56.09","-2.4619999999999997","0.0"],
    [1397270,"2026-02-01 00:00:00","34850","7.665","301.0","12.15","311","1010.187","10.86","56.5","-2.154","0.0"],
    [1397271,"2026-02-01 00:10:00","34851","7.256","301.3","11.07","302.7","1010.25","10.74","56.98","-2.167","0.0"],
    [1397272,"2026-02-01 00:20:00","34852","6.513999999999999","303.8","10","300","1010.444","10.63","57.33","-2.343","0.0"],
    [1397273,"2026-02-01 00:30:00","34853","5.577000000000001","306.3","9.21","312.9","1010.457","10.56","57.48","-2.522","0.0"],
    [1397274,"2026-02-01 00:40:00","34854","7.122999999999999","301.8","12.48","295.6","1010.413","10.56","57.22","-2.653","0.0"],
    [1397275,"2026-02-01 00:50:00","34855","7.7589999999999995","304.7","11.73","313.2","1010.395","10.63","57.06","-2.251","0.0"],
    [1397276,"2026-02-01 01:00:00","34856","7.581","303.9","12.15","306.8","1010.387","10.6","57.14","-2.309","0.0"],
    [1397277,"2026-02-01 01:10:00","34857","7.53","306.7","12.02","311.2","1010.3939999999999","10.48","57.68","-2.1790000000000003","0.0"],
    [1397278,"2026-02-01 01:20:00","34858","7.734","308.4","12.12","304.5","1010.3480000000001","10.39","57.99","-2.314","0.0"],
    [1397279,"2026-02-01 01:30:00","34859","7.487","307.3","12.35","322","1010.3","10.43","57.59","-2.346","0.0"],
    [1397280,"2026-02-01 01:40:00","34860","8.19","308.3","13.07","299","1010.33","10.56","56.62","-2.5269999999999997","0.0"],
    [1397281,"2026-02-01 01:50:00","34861","7.742999999999999","309.5","11.6","307.3","1010.2719999999999","10.56","56.47","-2.279","0.0"],
    [1397282,"2026-02-01 02:00:00","34862","7.406000000000001","312.1","11.04","338.3","1010.2860000000001","10.5","56.63","-2.414","0.0"],
    [1397283,"2026-02-01 02:10:00","34863","8.04","313.4","13.46","321.4","1010.265","10.63","55.87","-2.2119999999999997","0.0"],
    [1397284,"2026-02-01 02:20:00","34864","6.608","311.8","9.24","324.9","1010.196","10.47","56.36","-2.34","0.0"],
    [1397285,"2026-02-01 02:30:00","34865","6.992000000000001","314.2","10.13","322","1010.03","10.49","55.97","-2.528","0.0"],
    [1397286,"2026-02-01 02:40:00","34866","7.249","314.8","10.85","303.8","1010.0160000000001","10.52","55.52","-2.568","0.0"],
    [1397287,"2026-02-01 02:50:00","34867","6.138","311.6","9.02","304.2","1009.949","10.47","55.62","-2.365","0.0"],
    [1397288,"2026-02-01 03:00:00","34868","6.829","316.8","10.36","319.9","1009.904","10.38","55.89","-2.658","0.0"],
    [1397289,"2026-02-01 03:10:00","34869","5.605","321.4","8.72","335.6","1009.878","10.39","55.71","-2.282","0.0"],
    [1397290,"2026-02-01 03:20:00","34870","3.333","295.6","7.742","326","1010.12","10.25","56.02","-2.495","0.0"],
    [1397291,"2026-02-01 03:30:00","34871","1.43","161.2","3.365","161.4","1010.311","10.31","55.43","-2.758","0.0"],
    [1397292,"2026-02-01 03:40:00","34872","1.425","277.6","5.749","266.9","1010.413","10.14","57.2","-2.822","0.0"],
    [1397293,"2026-02-01 03:50:00","34873","1.45","174.6","3.103","306.1","1010.659","10.23","56.0","-2.767","0.0"],
    [1397294,"2026-02-01 04:00:00","34874","1.6669999999999998","263.9","3.626","252.8","1010.755","10.06","56.26","-2.75","0.0"],
    [1397295,"2026-02-01 04:10:00","34875","1.4569999999999999","289.6","4.247","276.8","1010.925","9.92","56.72","-2.767","0.0"],
    [1397296,"2026-02-01 04:20:00","34876","1.9240000000000002","335.7","6.501","338","1011.02","9.54","58.56","-2.783","0.0"],
    [1397297,"2026-02-01 04:30:00","34877","5.646","335.5","7.611","336.9","1010.7639999999999","9.45","59.42","-2.713","0.0"],
    [1397298,"2026-02-01 04:40:00","34878","5.897","329.7","8.26","335.7","1010.6260000000001","9.5","58.79","-2.491","0.0"],
    [1397299,"2026-02-01 04:50:00","34879","4.918","327.6","8.36","325.3","1010.63","9.64","57.56","-2.555","0.0"],
    [1397300,"2026-02-01 05:00:00","34880","3.485","315.4","6.239","320","1010.793","9.72","56.78","-2.7430000000000003","0.0"],
    [1397301,"2026-02-01 05:10:00","34881","3.804","322.1","6.109","324.9","1010.7","9.78","56.55","-2.6069999999999998","0.0"],
    [1397302,"2026-02-01 05:20:00","34882","3.014","328.2","5.063","310.4","1010.85","9.65","56.89","-2.702","0.0"],
    [1397303,"2026-02-01 05:30:00","34883","3.793","341.7","7.056","337.7","1010.957","9.73","56.45","-2.715","0.0"],
    [1397304,"2026-02-01 05:40:00","34884","3.065","302.9","5.259","290.1","1011.062","9.58","56.95","-2.411","0.0"],
    [1397305,"2026-02-01 05:50:00","34885","4.609","289.2","7.056","289.4","1011.067","9.26","58.38","-2.302","0.0"],
    [1397306,"2026-02-01 06:00:00","34886","4.386","290.6","6.631","291.9","1010.9630000000001","8.95","59.98","-2.0140000000000002","0.0"],
    [1397307,"2026-02-01 06:10:00","34887","4.873","297.0","7.056","307.6","1010.92","8.7","61.36","-2.108","0.0"],
    [1397308,"2026-02-01 06:20:00","34888","3.924","288.3","8.04","303.3","1010.924","8.41","62.6","-2.032","0.0"],
    [1397309,"2026-02-01 06:30:00","34889","3.242","289.7","5.684","290.9","1011.068","8.05","64.38","-2.189","0.0"],
    [1397310,"2026-02-01 06:40:00","34890","2.945","287.6","5.292","291.5","1011.248","7.775","65.61","-2.699","0.0"],
    [1397311,"2026-02-01 06:50:00","34891","2.7","295.2","4.018","294.4","1011.2919999999999","7.587000000000001","66.38","-2.023","0.0"],
    [1397312,"2026-02-01 07:00:00","34892","3.656","305.9","5.521","312.6","1011.418","7.9879999999999995","64.52","-0.249","0.0"],
    [1397313,"2026-02-01 07:10:00","34893","3.6","303.8","4.933","305.4","1011.383","8.13","63.79","2.9360000000000004","0.0"],
    [1397314,"2026-02-01 07:20:00","34894","2.6189999999999998","316.3","3.691","293.4","1011.2710000000001","7.867999999999999","65.2","9.39","0.0"],
    [1397315,"2026-02-01 07:30:00","34895","2.313","305.5","3.43","313.4","1011.247","7.617000000000001","66.48","18.37","0.0"],
    [1397316,"2026-02-01 07:40:00","34896","1.64","282.1","2.515","295.9","1011.2510000000001","7.539","66.81","24.7","0.0"],
    [1397317,"2026-02-01 07:50:00","34897","1.284","277.3","2.809","279.6","1011.408","7.723","65.92","37.63","0.0"],
    [1397318,"2026-02-01 08:00:00","34898","1.9380000000000002","288.3","4.573","286.2","1011.4760000000001","7.939","65.37","56.34","0.0"],
    [1397319,"2026-02-01 08:10:00","34899","2.997","291.9","4.802","299.8","1011.442","8.24","64.3","61.78","0.0"],
    [1397320,"2026-02-01 08:20:00","34900","3.5660000000000003","282.2","5.749","299.2","1011.355","8.17","64.29","65.66","0.0"],
    [1397321,"2026-02-01 08:30:00","34901","3.437","292.5","5.815","282.7","1011.685","8.27","64.1","87.4","0.0"],
    [1397322,"2026-02-01 08:40:00","34902","3.985","295.4","6.174","291.9","1011.602","8.52","63.11","125.3","0.0"],
    [1397323,"2026-02-01 08:50:00","34903","3.5239999999999996","291.9","5.292","288.1","1011.6460000000001","8.85","61.63","118.4","0.0"],
    [1397324,"2026-02-01 09:00:00","34904","3.903","291.6","6.501","288.4","1011.6030000000001","8.87","61.41","119.1","0.0"],
    [1397325,"2026-02-01 09:10:00","34905","3.207","293.4","5.488","292.5","1011.535","8.91","61.5","132.9","0.0"],
    [1397326,"2026-02-01 09:20:00","34906","4.053999999999999","291.3","6.272","290.5","1011.5010000000001","8.98","61.47","135.7","0.0"],
    [1397327,"2026-02-01 09:30:00","34907","3.968","292.0","5.717","304.4","1011.5010000000001","9.06","60.95","138.7","0.0"],
    [1397328,"2026-02-01 09:40:00","34908","3.987","288.9","6.762","296","1011.518","9.23","60.28","89.9","0.0"],
    [1397329,"2026-02-01 09:50:00","34909","4.28","292.2","6.501","285.7","1011.63","9.12","60.8","81.7","0.0"],
    [1397330,"2026-02-01 10:00:00","34910","3.8","281.8","6.174","287.4","1011.555","9.04","61.71","120.1","0.0"],
    [1397331,"2026-02-01 10:10:00","34911","3.825","294.3","5.945","295.8","1011.692","9.06","63.09","95.3","0.0"],
    [1397332,"2026-02-01 10:20:00","34912","3.5789999999999997","293.7","5.978","269","1011.7080000000001","9.12","63.11","81.1","0.0"],
    [1397333,"2026-02-01 10:30:00","34913","4.092","297.1","6.337","291.2","1011.635","9.21","63.38","65.31","0.0"],
    [1397334,"2026-02-01 10:40:00","34914","4.37","299.8","6.631","301.7","1011.4680000000001","9.38","62.62","72.52","0.0"],
    [1397335,"2026-02-01 10:50:00","34915","3.5639999999999996","304.9","5.978","305.3","1011.56","9.55","62.24","103.4","0.0"],
    [1397336,"2026-02-01 11:00:00","34916","3.782","294.3","6.109","283.1","1011.4910000000001","9.89","61.08","153.3","0.0"],
    [1397337,"2026-02-01 11:10:00","34917","4.276","296.3","6.566","301","1011.2610000000001","10.42","58.91","214.1","0.0"],
    [1397338,"2026-02-01 11:20:00","34918","3.968","289.5","5.782","293.4","1011.107","10.62","57.45","258.3","0.0"],
    [1397339,"2026-02-01 11:30:00","34919","3.318","291.9","5.488","300.9","1010.9839999999999","11.24","56.47","410.6","0.0"],
    [1397340,"2026-02-01 11:40:00","34920","3.767","289.2","5.88","291.2","1010.877","11.67","54.69","397.3","0.0"],
    [1397341,"2026-02-01 11:50:00","34921","3.2439999999999998","306.9","5.031","320","1010.62","11.86","54.37","384.5","0.0"],
    [1397342,"2026-02-01 12:00:00","34922","2.8510000000000004","305.7","4.541","324","1010.329","11.75","54.78","299.1","0.0"],
    [1397343,"2026-02-01 12:10:00","34923","2.8169999999999997","290.7","4.606","281.4","1010.2589999999999","12.0","53.85","376.8","0.0"],
    [1397344,"2026-02-01 12:20:00","34924","2.7969999999999997","290.7","4.573","312.3","1010.24","12.54","52.31","434.3","0.0"],
    [1397345,"2026-02-01 12:30:00","34925","2.267","289.2","3.626","325.4","1010.075","12.88","52.03","450.1","0.0"],
    [1397346,"2026-02-01 12:40:00","34926","2.2230000000000003","283.6","4.247","272.4","1009.796","13.15","50.76","482.3","0.0"],
    [1397347,"2026-02-01 12:50:00","34927","2.658","264.9","4.475","211.6","1009.5089999999999","13.6","49.95","599.7","0.0"],
    [1397348,"2026-02-01 13:00:00","34928","2.7460000000000004","222.2","4.41","206.2","1009.324","13.66","48.95","458.8","0.0"],
    [1397349,"2026-02-01 13:10:00","34929","2.289","223.7","4.737","209.9","1009.0110000000001","13.91","48.25","507.6","0.0"],
    [1397350,"2026-02-01 13:20:00","34930","3.117","209.7","5.161","223","1008.8330000000001","13.85","48.15","467.7","0.0"],
    [1397351,"2026-02-01 13:30:00","34931","3.148","209.3","5.619","214.2","1008.5219999999999","13.32","51.38","500.1","0.0"],
    [1397352,"2026-02-01 13:40:00","34932","2.89","202.6","4.541","215.5","1008.372","13.3","53.06","468.5","0.0"],
    [1397353,"2026-02-01 13:50:00","34933","2.426","196.2","5.259","182.5","1008.318","13.26","53.98","424.8","0.0"],
    [1397354,"2026-02-01 14:00:00","34934","2.6719999999999997","206.0","5.455","244.6","1008.168","13.33","54.01","395.6","0.0"],
    [1397355,"2026-02-01 14:10:00","34935","2.6039999999999996","204.0","4.9","222.9","1008.245","13.13","55.51","272.1","0.0"],
    [1397356,"2026-02-01 14:20:00","34936","2.273","200.3","4.737","171.5","1008.1669999999999","13.11","57.78","231.0","0.0"],
    [1397357,"2026-02-01 14:30:00","34937","2.495","200.2","3.953","184.1","1008.0939999999999","13.42","57.81","261.4","0.0"],
    [1397358,"2026-02-01 14:40:00","34938","3.0410000000000004","192.8","6.207","173.4","1008.1260000000001","13.44","61.75","248.8","0.0"],
    [1397359,"2026-02-01 14:50:00","34939","2.353","207.5","5.782","185.1","1008.0369999999999","13.88","61.78","268.8","0.0"],
    [1397360,"2026-02-01 15:00:00","34940","2.6","214.0","4.279","209.7","1007.9630000000001","14.33","57.81","238.1","0.0"],
    [1397361,"2026-02-01 15:10:00","34941","3.33","221.9","5.259","222.2","1007.779","14.54","54.73","232.2","0.0"],
    [1397362,"2026-02-01 15:20:00","34942","3.673","225.2","6.403","231.7","1007.596","14.81","52.14","243.5","0.0"],
    [1397363,"2026-02-01 15:30:00","34943","3.988","224.8","6.043","214.8","1007.556","14.8","50.53","169.3","0.0"],
    [1397364,"2026-02-01 15:40:00","34944","2.787","227.9","5.619","212.3","1007.633","14.92","49.55","160.6","0.0"],
    [1397365,"2026-02-01 15:50:00","34945","1.9480000000000002","245.8","3.495","236.5","1007.704","14.82","49.61","123.2","0.0"],
    [1397366,"2026-02-01 16:00:00","34946","2.918","262.3","5.749","286.7","1007.669","14.76","47.5","93.5","0.0"],
    [1397367,"2026-02-01 16:10:00","34947","2.481","271.2","5.031","299.3","1007.698","14.58","44.64","70.18","0.0"],
    [1397368,"2026-02-01 16:20:00","34948","2.157","273.8","3.691","258","1007.804","14.33","45.59","58.69","0.0"],
    [1397369,"2026-02-01 16:30:00","34949","1.65","264.2","3.005","279.2","1007.81","14.19","46.58","54.64","0.0"],
    [1397370,"2026-02-01 16:40:00","34950","0.9740000000000001","264.2","1.993","263.8","1007.942","14.09","47.6","43.8","0.0"],
    [1397371,"2026-02-01 16:50:00","34951","1.107","253.0","2.287","268.8","1008.0930000000001","13.94","49.09","34.83","0.0"],
    [1397372,"2026-02-01 17:00:00","34952","1.3","238.3","2.385","261.8","1008.135","13.78","49.98","20.9","0.0"],
    [1397373,"2026-02-01 17:10:00","34953","1.584","230.5","2.45","240.3","1008.115","13.53","50.92","5.966","0.0"],
    [1397374,"2026-02-01 17:20:00","34954","1.6569999999999998","235.4","2.94","256.3","1008.198","13.12","52.0","-0.782","0.0"],
    [1397375,"2026-02-01 17:30:00","34955","1.932","233.3","3.005","255.5","1008.2180000000001","12.97","51.73","-2.5269999999999997","0.0"],
    [1397376,"2026-02-01 17:40:00","34956","1.5619999999999998","236.6","3.365","251.8","1008.2260000000001","12.86","52.04","-2.762","0.0"],
    [1397377,"2026-02-01 17:50:00","34957","1.386","237.4","2.385","232.7","1008.296","12.65","52.77","-2.772","0.0"],
    [1397378,"2026-02-01 18:00:00","34958","1.489","244.8","2.744","253.4","1008.304","12.46","53.44","-2.7689999999999997","0.0"],
    [1397379,"2026-02-01 18:10:00","34959","0.972","250.8","2.613","278.8","1008.182","12.27","54.59","-2.7710000000000004","0.0"],
    [1397380,"2026-02-01 18:20:00","34960","0.845","239.0","1.96","243.4","1008.17","11.65","56.91","-2.98","0.0"],
    [1397381,"2026-02-01 18:30:00","34961","0.434","243.2","0.947","241.3","1008.1360000000001","11.45","58.11","-2.773","0.0"],
    [1397382,"2026-02-01 18:40:00","34962","0.38299999999999995","240.0","0.98","249.1","1008.067","10.9","60.37","-2.792","0.0"],
    [1397383,"2026-02-01 18:50:00","34963","0.019","211.2","0.359","197.9","1008.092","10.52","63.48","-2.764","0.0"],
    [1397384,"2026-02-01 19:00:00","34964","0.0","0.0","0","0","1007.993","10.16","64.2","-2.841","0.0"],
    [1397385,"2026-02-01 19:10:00","34965","0.86","244.9","1.666","250.3","1007.9960000000001","10.29","62.5","-2.799","0.0"],
    [1397386,"2026-02-01 19:20:00","34966","0.075","249.8","0.588","249.4","1007.877","10.41","62.14","-2.7560000000000002","0.0"],
    [1397387,"2026-02-01 19:30:00","34967","0.113","269.5","0.849","316.1","1007.873","9.78","65.6","-2.763","0.0"],
    [1397388,"2026-02-01 19:40:00","34968","0.792","315.6","1.241","321.6","1007.815","9.48","65.9","-2.763","0.0"],
    [1397389,"2026-02-01 19:50:00","34969","1.188","342.2","1.895","341.5","1007.7289999999999","9.72","66.25","-2.7460000000000004","0.0"],
    [1397390,"2026-02-01 20:00:00","34970","0.8809999999999999","293.8","1.47","284.7","1007.79","9.81","65.78","-2.762","0.0"],
    [1397391,"2026-02-01 20:10:00","34971","1.082","272.5","3.169","206.9","1007.915","9.39","67.68","-2.611","0.0"],
    [1397392,"2026-02-01 20:20:00","34972","1.781","238.0","3.103","236.7","1007.96","10.23","64.53","-2.873","0.0"],
    [1397393,"2026-02-01 20:30:00","34973","0.7959999999999999","258.8","2.287","263.9","1007.789","10.22","64.98","-2.102","0.0"],
    [1397394,"2026-02-01 20:40:00","34974","0.7929999999999999","264.7","1.307","255.9","1007.579","9.61","68.05","-2.7239999999999998","0.0"],
    [1397395,"2026-02-01 20:50:00","34975","0.897","271.6","1.503","253.2","1007.6389999999999","9.44","68.66","-2.772","0.0"],
    [1397396,"2026-02-01 21:00:00","34976","1.3619999999999999","267.0","2.221","276.9","1007.607","9.7","67.6","-2.767","0.0"],
    [1397397,"2026-02-01 21:10:00","34977","1.176","277.4","1.797","269","1007.4860000000001","9.47","68.58","-2.7769999999999997","0.0"],
    [1397398,"2026-02-01 21:20:00","34978","1.4340000000000002","285.4","1.731","287.8","1007.342","8.61","72.04","-2.75","0.0"],
    [1397399,"2026-02-01 21:30:00","34979","1.3869999999999998","270.0","1.927","277","1007.3689999999999","8.64","72.82","-2.795","0.0"],
    [1397400,"2026-02-01 21:40:00","34980","1.4269999999999998","241.2","2.189","255","1007.414","9.16","70.22","-2.7710000000000004","0.0"],
    [1397401,"2026-02-01 21:50:00","34981","1.274","241.2","2.058","238","1007.5039999999999","9.05","70.29","-2.682","0.0"],
    [1397402,"2026-02-01 22:00:00","34982","0.728","240.9","1.372","257.3","1007.452","8.78","71.79","-2.778","0.0"],
    [1397403,"2026-02-01 22:10:00","34983","1.506","269.2","2.907","269.5","1007.3580000000001","8.6","72.93","-2.641","0.0"],
    [1397404,"2026-02-01 22:20:00","34984","1.369","276.6","2.417","257.9","1007.37","8.18","74.72","-2.7030000000000003","0.0"],
    [1397405,"2026-02-01 22:30:00","34985","1.329","283.1","2.025","280.2","1007.3389999999999","7.772","76.77","-2.775","0.0"],
    [1397406,"2026-02-01 22:40:00","34986","0.66","287.6","1.47","277.3","1007.092","7.692","77.83","-2.784","0.0"],
    [1397407,"2026-02-01 22:50:00","34987","0.519","296.0","0.784","299.9","1006.904","7.343999999999999","79.04","-2.786","0.0"],
    [1397408,"2026-02-01 23:00:00","34988","0.179","290.7","0.751","295.1","1006.684","7.037999999999999","80.7","-2.7710000000000004","0.0"],
    [1397409,"2026-02-01 23:10:00","34989","0.251","291.1","0.784","294.5","1006.653","6.976","81.4","-2.625","0.0"],
    [1397410,"2026-02-01 23:20:00","34990","0.324","284.0","0.849","284","1006.4739999999999","7.129","81.1","-2.5580000000000003","0.0"],
    [1397411,"2026-02-01 23:30:00","34991","0.22899999999999998","263.8","1.045","259.1","1006.578","7.162000000000001","79.99","-2.289","0.0"],
    [1397412,"2026-02-01 23:40:00","34992","1.5290000000000001","271.8","2.515","272.3","1006.523","6.982","80.6","-2.5989999999999998","0.0"],
    [1397413,"2026-02-01 23:50:00","34993","1.294","280.3","2.515","273.2","1006.288","6.937","80.6","-2.33","0.0"],
    [1397414,"2026-02-02 00:00:00","34994","1.023","289.0","1.535","287.4","1006.195","6.605","81.8","-2.641","0.0"],
    [1397415,"2026-02-02 00:10:00","34995","1.3719999999999999","278.6","1.764","278.3","1006.279","6.803999999999999","82.2","-2.7230000000000003","0.0"],
    [1397416,"2026-02-02 00:20:00","34996","1.561","285.3","2.123","298.1","1006.263","6.877999999999999","80.9","-2.211","0.0"],
    [1397417,"2026-02-02 00:30:00","34997","1.57","285.2","2.254","278.1","1006.193","6.732","81.6","-2.457","0.0"],
    [1397418,"2026-02-02 00:40:00","34998","0.774","281.3","1.862","282.3","1006.0139999999999","6.901","80.6","-2.1319999999999997","0.0"],
    [1397419,"2026-02-02 00:50:00","34999","1.0759999999999998","285.7","1.764","285.4","1005.819","6.972","80.5","-2.7289999999999996","0.0"],
    [1397420,"2026-02-02 01:00:00","35000","0.52","262.8","1.111","269.8","1005.7460000000001","7.2620000000000005","78.91","-2.29","0.0"],
    [1397421,"2026-02-02 01:10:00","35001","1.915","271.5","2.907","276.7","1005.7080000000001","7.487","78.04","-2.6719999999999997","0.0"],
    [1397422,"2026-02-02 01:20:00","35002","2.075","277.7","3.005","271.5","1005.5110000000001","7.399","77.84","-2.147","0.0"],
    [1397423,"2026-02-02 01:30:00","35003","1.199","284.2","1.96","275.6","1005.2230000000001","6.859","79.88","-2.279","0.0"],
    [1397424,"2026-02-02 01:40:00","35004","1.175","288.2","2.221","286.1","1005.0160000000001","6.727","80.9","-2.68","0.0"],
    [1397425,"2026-02-02 01:50:00","35005","1.881","274.6","2.581","259.9","1004.9910000000001","6.893","80.7","-2.388","0.0"],
    [1397426,"2026-02-02 02:00:00","35006","2.069","276.1","3.267","274.2","1004.914","6.837999999999999","80.6","-2.146","0.0"],
    [1397427,"2026-02-02 02:10:00","35007","1.886","285.4","2.744","298.5","1004.7539999999999","6.5920000000000005","81.4","-2.0780000000000003","0.0"],
    [1397428,"2026-02-02 02:20:00","35008","1.837","286.0","2.417","294.7","1004.5189999999999","6.4670000000000005","82.7","-2.217","0.0"],
    [1397429,"2026-02-02 02:30:00","35009","2.028","271.5","3.103","261.3","1004.404","6.761","81.5","-2.0909999999999997","0.0"],
    [1397430,"2026-02-02 02:40:00","35010","2.272","266.6","3.234","269.6","1004.2310000000001","6.672999999999999","81.5","-1.3869999999999998","0.0"],
    [1397431,"2026-02-02 02:50:00","35011","1.693","256.2","2.907","278.9","1004.0319999999999","6.795","81.1","-1.551","0.0"],
    [1397432,"2026-02-02 03:00:00","35012","1.682","274.7","2.94","272.8","1003.952","6.852","80.6","-1.601","0.0"],
    [1397433,"2026-02-02 03:10:00","35013","0.991","312.1","1.927","309.9","1003.7639999999999","6.422000000000001","81.8","-1.94","0.0"],
    [1397434,"2026-02-02 03:20:00","35014","1.088","313.5","1.731","334","1003.6010000000001","6.316","83.2","-1.801","0.0"],
    [1397435,"2026-02-02 03:30:00","35015","0.59","294.0","1.209","286.5","1003.4680000000001","6.466","82.8","-1.329","0.0"],
    [1397436,"2026-02-02 03:40:00","35016","0.898","262.6","1.666","245.5","1003.262","6.827999999999999","81.5","-1.314","0.0"],
    [1397437,"2026-02-02 03:50:00","35017","1.065","255.1","1.895","266","1003.176","7.1129999999999995","80.2","-1.2930000000000001","0.0"],
    [1397438,"2026-02-02 04:00:00","35018","1.5430000000000001","284.6","2.287","293.7","1003.039","6.956","80.4","-1.294","0.0"],
    [1397439,"2026-02-02 04:10:00","35019","1.224","285.4","1.895","299.9","1002.929","6.824","81.3","-1.3530000000000002","0.0"],
    [1397440,"2026-02-02 04:20:00","35020","0.332","288.7","1.176","290.4","1002.842","6.939","80.5","-1.8359999999999999","0.0"],
    [1397441,"2026-02-02 04:30:00","35021","0.748","293.5","1.274","312.4","1002.6560000000001","6.727","81.3","-2.1590000000000003","0.0"],
    [1397442,"2026-02-02 04:40:00","35022","1.425","276.0","2.711","268.3","1002.602","7.109","80.5","-2.3040000000000003","0.0"],
    [1397443,"2026-02-02 04:50:00","35023","2.3369999999999997","269.1","3.593","259.3","1002.659","7.348","78.7","-1.8980000000000001","0.0"],
    [1397444,"2026-02-02 05:00:00","35024","2.062","271.0","3.201","262.4","1002.672","7.103","79.23","-1.501","0.0"],
    [1397445,"2026-02-02 05:10:00","35025","2.075","293.2","3.267","290.9","1002.378","7.037000000000001","79.55","-1.4140000000000001","0.0"],
    [1397446,"2026-02-02 05:20:00","35026","2.1919999999999997","297.9","3.463","297.2","1002.1360000000001","7.222","78.87","-1.3019999999999998","0.0"],
    [1397447,"2026-02-02 05:30:00","35027","1.429","307.4","2.548","313","1001.924","7.41","78.19","-1.3090000000000002","0.0"],
    [1397448,"2026-02-02 05:40:00","35028","1.784","303.0","3.43","314.8","1001.7860000000001","7.47","77.56","-1.9380000000000002","0.0"],
    [1397449,"2026-02-02 05:50:00","35029","2.17","295.7","3.985","303.6","1001.804","7.629","76.78","-1.827","0.0"],
    [1397450,"2026-02-02 06:00:00","35030","1.765","295.9","3.659","306","1001.712","7.542000000000001","77.2","-1.296","0.0"],
    [1397451,"2026-02-02 06:10:00","35031","1.815","290.4","2.973","297.8","1001.653","7.584","76.83","-1.295","0.0"],
    [1397452,"2026-02-02 06:20:00","35032","2.296","292.6","3.724","292.4","1001.5989999999999","7.603","76.76","-1.2930000000000001","0.0"],
    [1397453,"2026-02-02 06:30:00","35033","2.033","293.5","3.234","301.4","1001.3889999999999","7.671","76.79","-1.261","0.0"],
    [1397454,"2026-02-02 06:40:00","35034","1.91","289.0","3.169","285.3","1001.368","7.834","75.97","-0.852","0.0"],
    [1397455,"2026-02-02 06:50:00","35035","1.423","300.8","2.45","273.2","1001.08","7.847","76.14","-0.514","0.0"],
    [1397456,"2026-02-02 07:00:00","35036","1.71","298.7","2.711","293.4","1000.9019999999999","7.947","76.01","0.951","0.0"],
    [1397457,"2026-02-02 07:10:00","35037","1.7","288.2","2.875","286.3","1001.081","8.08","75.47","2.6710000000000003","0.0"],
    [1397458,"2026-02-02 07:20:00","35038","0.789","289.9","1.633","293.4","1000.8860000000001","8.15","75.56","7.733","0.0"],
    [1397459,"2026-02-02 07:30:00","35039","1.521","282.9","2.352","299.1","1000.87","8.28","74.99","11.79","0.0"],
    [1397460,"2026-02-02 07:40:00","35040","1.754","270.5","2.842","276.9","1001.029","8.31","74.92","14.26","0.0"],
    [1397461,"2026-02-02 07:50:00","35041","1.955","285.5","3.201","273.8","1001.095","8.34","74.67","24.11","0.0"],
    [1397462,"2026-02-02 08:00:00","35042","1.6780000000000002","308.3","3.463","307.6","1000.8810000000001","8.46","74.36","35.74","0.0"],
    [1397463,"2026-02-02 08:10:00","35043","1.265","317.0","2.254","323","1000.595","8.75","73.18","31.93","0.0"],
    [1397464,"2026-02-02 08:20:00","35044","0.9329999999999999","318.1","1.862","325.3","1000.457","9.05","72.56","36.2","0.0"],
    [1397465,"2026-02-02 08:30:00","35045","1.084","302.9","1.535","299.2","1000.442","9.31","74.1","50.2","0.0"],
    [1397466,"2026-02-02 08:40:00","35046","0.622","343.5","1.339","308.8","1000.061","9.54","74.56","67.98","0.0"],
    [1397467,"2026-02-02 08:50:00","35047","0.773","323.7","1.274","326.4","999.8842","9.85","73.86","60.95","0.0"],
    [1397468,"2026-02-02 09:00:00","35048","0.937","303.4","1.699","287.3","999.9276","10.03","73.82","56.9","0.0"],
    [1397469,"2026-02-02 09:10:00","35049","1.067","295.3","1.699","267.9","999.8531","10.01","73.28","54.19","0.0"],
    [1397470,"2026-02-02 09:20:00","35050","0.303","299.7","0.849","278.4","999.5443","10.08","73.7","65.28","0.0"],
    [1397471,"2026-02-02 09:30:00","35051","0.493","297.2","1.339","314.4","999.4478","10.42","73.1","82.1","0.0"],
    [1397472,"2026-02-02 09:40:00","35052","1.264","279.2","2.319","310.6","999.5181","10.52","71.36","83.2","0.0"],
    [1397473,"2026-02-02 09:50:00","35053","1.389","262.6","2.417","248.8","999.6326","10.21","70.8","60.79","0.0"],
    [1397474,"2026-02-02 10:00:00","35054","2.367","301.9","3.691","298.3","999.6663","10.05","71.48","77.88","0.0"],
    [1397475,"2026-02-02 10:10:00","35055","2.572","291.3","3.659","310.9","999.7747","10.24","70.35","90.0","0.0"],
    [1397476,"2026-02-02 10:20:00","35056","1.591","300.5","2.483","292.5","999.7571","10.56","69.58","117.9","0.0"],
    [1397477,"2026-02-02 10:30:00","35057","1.01","310.8","2.025","279.9","999.565","11.12","68.89","181.3","0.0"],
    [1397478,"2026-02-02 10:40:00","35058","1.345","314.9","1.993","300.7","999.3702","11.42","68.33","160.3","0.0"],
    [1397479,"2026-02-02 10:50:00","35059","1.6030000000000002","300.2","2.483","290.1","999.3699","11.61","67.33","132.8","0.0"],
    [1397480,"2026-02-02 11:00:00","35060","1.127","299.0","1.666","294.9","999.0301","11.86","67.26","159.0","0.0"],
    [1397481,"2026-02-02 11:10:00","35061","1.3940000000000001","288.4","1.993","281.9","998.9832","12.21","66.24","125.4","0.0"],
    [1397482,"2026-02-02 11:20:00","35062","1.203","280.3","1.764","273.8","998.9636","12.1","66.9","85.8","0.0"],
    [1397483,"2026-02-02 11:30:00","35063","0.9940000000000001","290.1","1.503","298","998.7197","11.79","69.08","84.6","0.0"],
    [1397484,"2026-02-02 11:40:00","35064","0.8059999999999999","301.8","1.176","293.5","998.5943","11.82","69.23","101.2","0.0"],
    [1397485,"2026-02-02 11:50:00","35065","0.99","295.8","1.47","281.7","998.4377","12.13","69.07","102.6","0.0"],
    [1397486,"2026-02-02 12:00:00","35066","0.625","303.2","1.176","304.2","998.1225","12.11","70.14","37.89","0.0"],
    [1397487,"2026-02-02 12:10:00","35067","0.061","359.0","0.588","25.14","997.72","11.82","73.2","35.36","0.0"],
    [1397488,"2026-02-02 12:20:00","35068","0.409","32.74","1.045","38.61","997.4854","11.8","76.29","42.33","0.0"],
    [1397489,"2026-02-02 12:30:00","35069","0.825","33.95","1.633","36.43","997.0479","11.78","79.39","91.4","0.0"],
    [1397490,"2026-02-02 12:40:00","35070","1.304","43.57","2.45","42.28","996.7626","12.13","82.2","124.1","0.0"],
    [1397491,"2026-02-02 12:50:00","35071","0.597","17.21","1.503","353.5","996.8658","12.16","83.8","67.44","0.0"],
    [1397492,"2026-02-02 13:00:00","35072","1.4609999999999999","50.01","2.711","63.7","996.672","12.2","84.1","73.7","0.0"],
    [1397493,"2026-02-02 13:10:00","35073","1.699","62.17","2.254","71.09","996.4897","11.76","87.9","61.54","0.2"],
    [1397494,"2026-02-02 13:20:00","35074","1.849","60.17","2.581","53.54","996.1677","11.54","91.0","88.3","0.2"],
    [1397495,"2026-02-02 13:30:00","35075","1.672","54.01","2.515","62.07","995.9939999999999","11.37","92.6","79.87","0.2"],
    [1397496,"2026-02-02 13:40:00","35076","2.083","55.3","2.907","48.12","995.6461","11.44","93.6","139.2","0.0"],
    [1397497,"2026-02-02 13:50:00","35077","1.655","60.74","2.385","52.45","995.7119","11.47","93.9","44.89","0.0"],
    [1397498,"2026-02-02 14:00:00","35078","0.899","43.44","1.993","58.46","995.6689","11.42","94.2","43.38","0.1"],
    [1397499,"2026-02-02 14:10:00","35079","0.883","357.2","1.568","342.7","995.6821","11.5","94.4","50.18","0.0"],
    [1397500,"2026-02-02 14:20:00","35080","1.119","315.8","2.613","242.4","995.4918","11.57","94.5","93.6","0.1"],
    [1397501,"2026-02-02 14:30:00","35081","0.665","296.5","1.47","263.7","995.2352","11.44","94.7","76.67","0.1"],
    [1397502,"2026-02-02 14:40:00","35082","1.3359999999999999","286.7","2.417","289.6","995.1321","11.47","94.8","33.01","0.1"],
    [1397503,"2026-02-02 14:50:00","35083","1.09","269.8","2.189","283.6","995.07","11.33","94.8","32.01","0.1"],
    [1397504,"2026-02-02 15:00:00","35084","0.196","310.4","0.784","296.7","994.8614","11.27","95.1","42.25","0.0"],
    [1397505,"2026-02-02 15:10:00","35085","0.513","319.2","1.013","331.7","994.7456","11.34","95.1","36.81","0.1"],
    [1397506,"2026-02-02 15:20:00","35086","0.561","25.95","1.241","47.12","994.4068","11.59","95.4","29.35","0.0"],
    [1397507,"2026-02-02 15:30:00","35087","0.402","82.3","1.045","86.6","994.3436","11.8","95.4","29.29","0.1"],
    [1397508,"2026-02-02 15:40:00","35088","0.872","68.14","1.797","71.32","994.1206","11.93","95.5","26.22","0.0"],
    [1397509,"2026-02-02 15:50:00","35089","0.015","77.95","0.49","74.84","993.9647","12.04","95.5","21.35","0.0"],
    [1397510,"2026-02-02 16:00:00","35090","0.5539999999999999","90.0","1.437","137.7","993.7535","12.24","95.6","19.23","0.0"],
    [1397511,"2026-02-02 16:10:00","35091","0.389","97.9","2.613","90.6","993.7621","12.39","95.5","19.79","0.0"],
    [1397512,"2026-02-02 16:20:00","35092","0.024","124.4","0.653","127.2","993.804","12.38","95.4","10.11","0.0"],
    [1397513,"2026-02-02 16:30:00","35093","0.426","117.1","1.209","102.8","993.7896","12.39","95.4","5.277","0.0"],
    [1397514,"2026-02-02 16:40:00","35094","0.247","190.7","4.083","298.4","993.6823","12.51","95.4","2.405","0.2"],
    [1397515,"2026-02-02 16:50:00","35095","0.59","244.9","1.764","289.5","993.3568","12.49","95.2","1.577","0.0"],
    [1397516,"2026-02-02 17:00:00","35096","0.52","286.3","1.764","289.8","993.2689","12.33","95.2","1.078","0.0"],
    [1397517,"2026-02-02 17:10:00","35097","0.642","272.8","1.111","280.4","993.3383","12.31","95.3","-0.07","0.1"],
    [1397518,"2026-02-02 17:20:00","35098","0.648","277.4","1.47","239","993.2836","12.28","95.3","-0.503","0.0"],
    [1397519,"2026-02-02 17:30:00","35099","0.7440000000000001","295.6","1.111","302.5","993.1278","12.13","95.3","-0.53","0.0"],
    [1397520,"2026-02-02 17:40:00","35100","0.611","281.2","1.274","303.2","993.0612","12.04","95.5","-0.5670000000000001","0.1"],
    [1397521,"2026-02-02 17:50:00","35101","0.0","322.8","0.033","322.9","992.9157","12.05","95.5","-0.58","0.0"],
    [1397522,"2026-02-02 18:00:00","35102","0.624","270.2","1.633","279.5","993.1060000000001","12.08","95.6","-0.638","0.0"],
    [1397523,"2026-02-02 18:10:00","35103","1.159","278.1","2.091","293.9","993.0541","12.03","95.5","-0.5539999999999999","0.0"],
    [1397524,"2026-02-02 18:20:00","35104","0.607","260.4","1.47","270.8","993.0254","11.79","95.6","-0.5429999999999999","0.0"],
    [1397525,"2026-02-02 18:30:00","35105","1.337","237.5","4.247","224.7","993.2058","12.15","95.8","-0.988","0.0"],
    [1397526,"2026-02-02 18:40:00","35106","1.607","271.9","2.646","283.5","993.2589999999999","11.93","95.2","-0.868","0.0"],
    [1397527,"2026-02-02 18:50:00","35107","1.308","268.7","2.548","282.4","993.2039","11.49","95.2","-1.198","0.0"],
    [1397528,"2026-02-02 19:00:00","35108","1.064","252.6","2.319","272.7","993.2603","11.16","95.3","-1.281","0.0"],
    [1397529,"2026-02-02 19:10:00","35109","1.161","230.8","2.091","235.9","993.3651","11.15","95.4","-1.287","0.0"],
    [1397530,"2026-02-02 19:20:00","35110","1.5019999999999998","257.8","3.201","211.3","993.5019","11.35","95.3","-1.008","0.0"],
    [1397531,"2026-02-02 19:30:00","35111","1.446","270.1","2.385","281.2","993.3936","11.2","94.9","-0.898","0.0"],
    [1397532,"2026-02-02 19:40:00","35112","2.374","230.4","8","213.9","993.8987","11.37","95.4","-1.3130000000000002","2.3"],
    [1397533,"2026-02-02 19:50:00","35113","4.035","242.1","9.77","264","994.2855","11.74","96.3","-0.5589999999999999","2.0"],
    [1397534,"2026-02-02 20:00:00","35114","5.7170000000000005","267.9","11.66","294.2","994.8961","10.7","94.2","1.6280000000000001","0.3"],
    [1397535,"2026-02-02 20:10:00","35115","3.9210000000000003","275.6","6.076","256.3","994.9630000000001","10.27","83.6","0.109","0.0"],
    [1397536,"2026-02-02 20:20:00","35116","4.355","285.7","8.69","319.3","994.3557","10.36","80.2","-1.4040000000000001","0.0"],
    [1397537,"2026-02-02 20:30:00","35117","3.267","273.2","7.383","252","994.5076","11.4","73.3","-1.063","0.0"],
    [1397538,"2026-02-02 20:40:00","35118","3.654","296.8","6.141","268.5","994.1289999999999","11.38","72.09","0.198","0.0"],
    [1397539,"2026-02-02 20:50:00","35119","3.1630000000000003","241.1","5.651","219.1","994.6962","11.83","67.77","0.002","0.0"],
    [1397540,"2026-02-02 21:00:00","35120","2.8930000000000002","234.7","5.913","228.6","995.0867","11.91","67.89","-1.608","0.0"],
    [1397541,"2026-02-02 21:10:00","35121","2.315","247.9","3.822","218.7","994.8613","11.86","68.77","-1.2670000000000001","0.0"],
    [1397542,"2026-02-02 21:20:00","35122","2.92","226.2","4.835","234.4","995.1834","11.96","66.95","-1.261","0.0"],
    [1397543,"2026-02-02 21:30:00","35123","2.501","233.8","4.018","227.3","995.5442","11.68","68.42","-1.624","0.0"],
    [1397544,"2026-02-02 21:40:00","35124","3.4219999999999997","228.0","6.827","221.8","996.0062","11.84","67.35","-2.153","0.0"],
    [1397545,"2026-02-02 21:50:00","35125","3.323","227.8","6.435","215.4","996.2316","11.7","69.12","-2.405","0.0"],
    [1397546,"2026-02-02 22:00:00","35126","2.7689999999999997","232.1","4.737","230.7","996.3652","11.46","71.74","-2.144","0.0"],
    [1397547,"2026-02-02 22:10:00","35127","2.4419999999999997","226.1","3.887","221.9","996.4739","10.96","73.94","-2.197","0.0"],
    [1397548,"2026-02-02 22:20:00","35128","2.108","230.3","3.43","250.3","996.5103","10.64","75.08","-2.655","0.0"],
    [1397549,"2026-02-02 22:30:00","35129","2.095","235.8","3.43","279.4","996.5465","10.57","75.33","-2.75","0.0"],
    [1397550,"2026-02-02 22:40:00","35130","2.029","238.0","3.626","219","996.556","10.8","76.04","-2.74","0.0"],
    [1397551,"2026-02-02 22:50:00","35131","2.404","233.3","4.737","223.4","996.6414","11.05","78.3","-2.759","0.0"],
    [1397552,"2026-02-02 23:00:00","35132","2.8089999999999997","229.9","4.802","257.6","996.6872","11.13","80.4","-2.7489999999999997","0.0"],
    [1397553,"2026-02-02 23:10:00","35133","2.7939999999999996","229.9","4.573","245.6","996.7149","11.09","79.39","-2.741","0.0"],
    [1397554,"2026-02-02 23:20:00","35134","3.008","230.5","5.031","222.5","996.6762","11.2","74.48","-2.74","0.0"],
    [1397555,"2026-02-02 23:30:00","35135","2.9789999999999996","232.3","5.129","220.6","996.6378","11.44","69.26","-2.6010000000000004","0.0"],
    [1397556,"2026-02-02 23:40:00","35136","3.497","229.4","6.174","247.6","996.7068","11.25","67.94","-2.762","0.0"],
    [1397557,"2026-02-02 23:50:00","35137","3.077","230.4","4.933","249.1","996.8435","11.29","65.17","-2.7460000000000004","0.0"],
    [1397558,"2026-02-03 00:00:00","35138","2.786","230.2","4.41","234","996.9399","11.17","64.45","-2.763","0.0"],
    [1397559,"2026-02-03 00:10:00","35139","1.996","236.1","3.822","256.9","996.9924","11.14","63.75","-2.763","0.0"],
    [1397560,"2026-02-03 00:20:00","35140","2.6039999999999996","230.6","3.92","231.8","997.0808","10.97","63.84","-2.7689999999999997","0.0"],
    [1397561,"2026-02-03 00:30:00","35141","3.0180000000000002","228.9","4.443","243.7","997.2139","10.82","63.07","-2.762","0.0"],
    [1397562,"2026-02-03 00:40:00","35142","2.5780000000000003","231.1","4.018","234.2","997.2839","10.91","61.2","-2.765","0.0"],
    [1397563,"2026-02-03 00:50:00","35143","2.6460000000000004","231.6","4.214","263.1","997.3005","10.89","60.34","-2.7680000000000002","0.0"],
    [1397564,"2026-02-03 01:00:00","35144","2.938","234.7","5.325","268","997.2889","10.89","59.3","-2.87","0.0"],
    [1397565,"2026-02-03 01:10:00","35145","3.02","226.5","4.933","209.2","997.4321","11.12","57.44","-2.765","0.0"],
    [1397566,"2026-02-03 01:20:00","35146","2.52","234.2","4.573","231.1","997.535","11.07","57.12","-2.7769999999999997","0.0"],
    [1397567,"2026-02-03 01:30:00","35147","2.036","232.5","3.92","243.1","997.7389999999999","10.92","57.87","-2.7680000000000002","0.0"],
    [1397568,"2026-02-03 01:40:00","35148","2.517","237.9","5.684","248","997.7195","10.96","57.11","-2.97","0.0"],
    [1397569,"2026-02-03 01:50:00","35149","2.029","240.0","4.345","281.2","997.6995","11.09","56.2","-2.8819999999999997","0.0"],
    [1397570,"2026-02-03 02:00:00","35150","1.5819999999999999","238.8","4.377","263.8","997.9233","10.91","56.82","-2.824","0.0"],
    [1397571,"2026-02-03 02:10:00","35151","1.952","278.2","4.769","266.8","998.1935","10.75","57.65","-2.9360000000000004","0.0"],
    [1397572,"2026-02-03 02:20:00","35152","0.5479999999999999","317.6","2.221","290.3","998.4794","10.03","60.98","-3.174","0.0"],
    [1397573,"2026-02-03 02:30:00","35153","0.256","157.6","1.993","142.7","998.9089","9.69","62.46","-3.255","0.0"],
    [1397574,"2026-02-03 02:40:00","35154","1.558","173.7","2.581","191.1","999.2795","9.91","61.84","-3.0780000000000003","0.0"],
    [1397575,"2026-02-03 02:50:00","35155","0.7559999999999999","184.1","2.352","171.2","999.3535","9.96","61.23","-2.8939999999999997","0.0"],
    [1397576,"2026-02-03 03:00:00","35156","0.091","252.2","0.784","243.4","999.4351","9.39","64.09","-2.9589999999999996","0.0"],
    [1397577,"2026-02-03 03:10:00","35157","0.011000000000000001","164.2","0.817","53.82","999.5653","8.98","65.93","-3.194","0.0"],
    [1397578,"2026-02-03 03:20:00","35158","0.307","44.53","1.078","44.5","999.7042","8.58","67.83","-2.824","0.0"],
    [1397579,"2026-02-03 03:30:00","35159","0.647","28.48","1.405","26.94","999.7963","8.29","69.36","-3.054","0.0"],
    [1397580,"2026-02-03 03:40:00","35160","0.196","305.4","1.143","245.9","999.8488","8.36","68.96","-2.823","0.0"],
    [1397581,"2026-02-03 03:50:00","35161","0.061","263.0","1.143","259.2","999.9593","8.1","70.49","-2.852","0.0"],
    [1397582,"2026-02-03 04:00:00","35162","0.14400000000000002","275.3","1.111","269.3","1000.005","7.901","71.56","-2.792","0.0"],
    [1397583,"2026-02-03 04:10:00","35163","1.178","204.2","2.091","194.9","1000.232","8.14","70.5","-3.18","0.0"],
    [1397584,"2026-02-03 04:20:00","35164","0.966","258.7","1.764","292","1000.217","8.28","69.72","-2.772","0.0"],
    [1397585,"2026-02-03 04:30:00","35165","1.235","296.4","1.633","303.8","1000.2130000000001","7.409","74.09","-2.7939999999999996","0.0"],
    [1397586,"2026-02-03 04:40:00","35166","1.052","311.0","1.797","328.9","1000.197","6.894","76.59","-2.8280000000000003","0.0"],
    [1397587,"2026-02-03 04:50:00","35167","0.495","288.0","1.405","319.2","1000.2610000000001","7.03","77.26","-2.818","0.0"],
    [1397588,"2026-02-03 05:00:00","35168","0.294","309.9","1.078","309.7","1000.294","7.256","76.16","-2.792","0.0"],
    [1397589,"2026-02-03 05:10:00","35169","0.09","316.1","1.143","317.1","1000.4069999999999","6.821000000000001","77.08","-2.793","0.0"],
    [1397590,"2026-02-03 05:20:00","35170","0.292","307.9","0.98","309.5","1000.424","6.4910000000000005","79.89","-2.7910000000000004","0.0"],
    [1397591,"2026-02-03 05:30:00","35171","0.45399999999999996","310.4","0.98","308.2","1000.543","6.4079999999999995","80.5","-2.7910000000000004","0.0"],
    [1397592,"2026-02-03 05:40:00","35172","0.003","311.6","0.098","311.5","1000.687","6.648","79.04","-2.7539999999999996","0.0"],
    [1397593,"2026-02-03 05:50:00","35173","0.0","302.3","0.033","302.3","1000.932","6.617000000000001","79.08","-2.7230000000000003","0.0"],
    [1397594,"2026-02-03 06:00:00","35174","0.12300000000000001","232.9","0.915","229.6","1001.013","6.312","80.6","-2.7430000000000003","0.0"],
    [1397595,"2026-02-03 06:10:00","35175","0.48200000000000004","241.9","1.176","243.2","1001.039","6.166","81.6","-2.786","0.0"],
    [1397596,"2026-02-03 06:20:00","35176","0.698","257.1","1.209","238.6","1001.0980000000001","6.189","81.4","-2.6910000000000003","0.0"],
    [1397597,"2026-02-03 06:30:00","35177","0.731","268.6","1.078","276","1001.115","6.2","81.6","-2.7569999999999997","0.0"],
    [1397598,"2026-02-03 06:40:00","35178","0.8059999999999999","273.6","1.307","281.3","1001.128","6.311","80.3","-2.3680000000000003","0.0"],
    [1397599,"2026-02-03 06:50:00","35179","0.92","277.3","1.307","272.9","1001.1619999999999","6.108","81.2","-2.129","0.0"],
    [1397600,"2026-02-03 07:00:00","35180","0.7979999999999999","271.0","1.274","273.3","1001.302","6.318","80.2","-0.157","0.0"],
    [1397601,"2026-02-03 07:10:00","35181","1.354","275.8","1.96","282.5","1001.405","6.33","79.78","3.911","0.0"],
    [1397602,"2026-02-03 07:20:00","35182","1.399","275.1","1.862","282.7","1001.4730000000001","6.622999999999999","78.39","9.43","0.0"],
    [1397603,"2026-02-03 07:30:00","35183","1.635","281.0","2.417","278","1001.5889999999999","6.523","78.43","14.58","0.0"],
    [1397604,"2026-02-03 07:40:00","35184","1.0390000000000001","286.0","1.47","283.8","1001.6160000000001","6.346","79.65","19.7","0.0"],
    [1397605,"2026-02-03 07:50:00","35185","1.2409999999999999","283.9","1.895","290.8","1001.683","6.71","78.67","24.07","0.0"],
    [1397606,"2026-02-03 08:00:00","35186","1.103","292.5","1.895","300","1001.7539999999999","6.882000000000001","77.65","28.28","0.0"],
    [1397607,"2026-02-03 08:10:00","35187","1.578","284.7","2.777","277.4","1001.793","7.247999999999999","77.42","32.03","0.0"],
    [1397608,"2026-02-03 08:20:00","35188","1.598","275.6","2.777","277.4","1001.868","7.687","76.14","60.26","0.0"],
    [1397609,"2026-02-03 08:30:00","35189","1.79","283.0","3.038","274.5","1001.9739999999999","7.97","75.91","196.3","0.0"],
    [1397610,"2026-02-03 08:40:00","35190","0.9470000000000001","257.7","2.025","248.6","1002.0060000000001","8.63","73.46","224.0","0.0"],
    [1397611,"2026-02-03 08:50:00","35191","1.275","275.0","2.646","271.8","1002.002","9.08","71.72","252.2","0.0"],
    [1397612,"2026-02-03 09:00:00","35192","1.886","286.3","2.515","282.6","1001.977","9.51","70.92","279.9","0.0"],
    [1397613,"2026-02-03 09:10:00","35193","1.43","247.5","2.287","280.9","1002.055","9.87","69.99","305.9","0.0"],
    [1397614,"2026-02-03 09:20:00","35194","1.165","276.8","2.385","291.3","1002.1360000000001","10.51","67.47","331.1","0.0"],
    [1397615,"2026-02-03 09:30:00","35195","1.1340000000000001","270.7","2.025","298","1002.206","11.17","65.19","355.4","0.0"],
    [1397616,"2026-02-03 09:40:00","35196","1.524","279.0","3.038","292.5","1002.2410000000001","11.64","63.56","380.0","0.0"],
    [1397617,"2026-02-03 09:50:00","35197","1.742","291.1","2.711","301.4","1002.2260000000001","12.09","61.4","402.1","0.0"],
    [1397618,"2026-02-03 10:00:00","35198","2.162","296.0","3.136","303.4","1002.2310000000001","12.55","58.72","423.5","0.0"],
    [1397619,"2026-02-03 10:10:00","35199","1.724","285.8","2.679","293.2","1002.2589999999999","13.07","55.83","439.3","0.0"],
    [1397620,"2026-02-03 10:20:00","35200","2.006","302.7","2.875","308.7","1002.334","13.49","55.88","461.7","0.0"],
    [1397621,"2026-02-03 10:30:00","35201","1.807","288.5","2.744","285.9","1002.365","13.76","53.72","490.9","0.0"],
    [1397622,"2026-02-03 10:40:00","35202","1.652","278.4","3.397","292.9","1002.3489999999999","13.99","53.45","490.4","0.0"],
    [1397623,"2026-02-03 10:50:00","35203","1.7469999999999999","274.6","3.463","285","1002.3389999999999","13.76","53.53","295.1","0.0"],
    [1397624,"2026-02-03 11:00:00","35204","1.305","238.7","2.809","246.8","1002.2239999999999","14.01","53.28","469.0","0.0"],
    [1397625,"2026-02-03 11:10:00","35205","1.475","234.9","2.777","224.9","1002.145","14.46","52.47","558.9","0.0"],
    [1397626,"2026-02-03 11:20:00","35206","1.8459999999999999","221.9","3.659","219","1002.012","14.8","50.97","551.6","0.0"],
    [1397627,"2026-02-03 11:30:00","35207","1.824","238.6","3.332","259.8","1001.873","14.88","51.08","554.9","0.0"],
    [1397628,"2026-02-03 11:40:00","35208","1.4480000000000002","222.6","2.809","241.7","1001.7639999999999","15.24","51.6","553.2","0.0"],
    [1397629,"2026-02-03 11:50:00","35209","1.972","218.5","3.789","222","1001.676","15.38","53.43","559.0","0.0"],
    [1397630,"2026-02-03 12:00:00","35210","2.86","196.6","5.39","179.4","1001.6160000000001","15.2","58.88","566.7","0.0"],
    [1397631,"2026-02-03 12:10:00","35211","2.713","199.6","4.769","165.8","1001.525","14.89","60.74","565.1","0.0"],
    [1397632,"2026-02-03 12:20:00","35212","2.597","190.0","4.508","180.6","1001.335","14.62","61.48","563.9","0.0"],
    [1397633,"2026-02-03 12:30:00","35213","1.911","170.7","4.933","219.5","1001.1030000000001","14.31","61.99","539.8","0.0"],
    [1397634,"2026-02-03 12:40:00","35214","2.818","203.7","5.096","213.4","1000.915","15.13","54.51","560.5","0.0"],
    [1397635,"2026-02-03 12:50:00","35215","3.727","217.3","5.423","223.9","1000.791","15.27","51.07","557.0","0.0"],
    [1397636,"2026-02-03 13:00:00","35216","3.6039999999999996","213.0","6.468","221.9","1000.69","15.33","52.03","548.7","0.0"],
    [1397637,"2026-02-03 13:10:00","35217","2.88","201.7","6.011","203.7","1000.555","15.5","56.19","537.3","0.0"],
    [1397638,"2026-02-03 13:20:00","35218","2.878","202.2","5.684","229.2","1000.4110000000001","15.14","58.17","524.2","0.0"],
    [1397639,"2026-02-03 13:30:00","35219","3.735","209.9","5.978","209.2","1000.2289999999999","14.85","59.62","511.7","0.0"],
    [1397640,"2026-02-03 13:40:00","35220","2.9530000000000003","199.8","5.292","214.9","1000.1010000000001","14.84","61.52","497.2","0.0"],
    [1397641,"2026-02-03 13:50:00","35221","3.1","196.3","5.161","203.3","999.905","14.9","61.06","482.1","0.0"],
    [1397642,"2026-02-03 14:00:00","35222","2.995","202.7","4.867","217.4","999.7382","14.8","61.78","465.4","0.0"],
    [1397643,"2026-02-03 14:10:00","35223","2.978","200.6","6.174","204.6","999.6608","14.79","62.66","447.3","0.0"],
    [1397644,"2026-02-03 14:20:00","35224","3.998","209.1","6.893","210.1","999.6278","14.96","57.79","427.9","0.0"],
    [1397645,"2026-02-03 14:30:00","35225","3.306","205.0","6.239","225.5","999.6775","15.14","53.79","406.7","0.0"],
    [1397646,"2026-02-03 14:40:00","35226","2.7260000000000004","199.6","5.815","199.4","999.59","15.12","53.34","384.0","0.0"],
    [1397647,"2026-02-03 14:50:00","35227","3.112","205.2","5.455","221.3","999.5039999999999","15.17","53.49","361.1","0.0"],
    [1397648,"2026-02-03 15:00:00","35228","2.637","200.1","5.88","217.4","999.5098","15.19","55.41","334.3","0.0"],
    [1397649,"2026-02-03 15:10:00","35229","3.7739999999999996","207.1","6.272","208.9","999.4698","14.61","62.62","308.4","0.0"],
    [1397650,"2026-02-03 15:20:00","35230","3.1660000000000004","206.4","6.174","227.1","999.4263","14.32","67.68","269.2","0.0"],
    [1397651,"2026-02-03 15:30:00","35231","3.753","207.9","6.664","216.6","999.4089","14.15","68.28","248.1","0.0"],
    [1397652,"2026-02-03 15:40:00","35232","2.9210000000000003","207.0","5.161","223.7","999.4475","14.02","68.29","224.6","0.0"],
    [1397653,"2026-02-03 15:50:00","35233","3.534","211.5","6.337","201.1","999.4632","13.99","67.87","196.4","0.0"],
    [1397654,"2026-02-03 16:00:00","35234","4.235","213.3","6.566","217.7","999.5029","13.69","68.36","169.5","0.0"],
    [1397655,"2026-02-03 16:10:00","35235","4.277","218.5","7.611","211","999.5946","13.54","67.26","141.4","0.0"],
    [1397656,"2026-02-03 16:20:00","35236","3.645","217.7","7.317","234.8","999.6262","13.43","66.24","107.9","0.0"],
    [1397657,"2026-02-03 16:30:00","35237","2.92","217.9","5.488","214.9","999.6114","13.19","64.65","31.46","0.0"],
    [1397658,"2026-02-03 16:40:00","35238","2.932","215.4","4.965","233.7","999.6693","13.08","62.86","22.43","0.0"],
    [1397659,"2026-02-03 16:50:00","35239","2.479","221.6","4.312","204","999.7584","12.95","63.26","15.63","0.0"],
    [1397660,"2026-02-03 17:00:00","35240","2.752","212.9","5.717","209.4","999.7344","12.79","63.19","11.26","0.0"],
    [1397661,"2026-02-03 17:10:00","35241","3.1039999999999996","219.5","5.096","213.2","999.7729","12.75","63.79","5.104","0.0"],
    [1397662,"2026-02-03 17:20:00","35242","2.8569999999999998","222.6","4.769","201.4","999.8684","12.51","67.26","0.5529999999999999","0.0"],
    [1397663,"2026-02-03 17:30:00","35243","3.464","219.4","5.847","206.8","999.9164","12.43","69.63","-2.169","0.0"],
    [1397664,"2026-02-03 17:40:00","35244","2.641","222.4","4.573","196.6","999.9509","12.31","70.84","-2.7489999999999997","0.0"],
    [1397665,"2026-02-03 17:50:00","35245","1.6680000000000001","237.8","3.593","225.4","999.9499","12.05","71.21","-2.764","0.0"],
    [1397666,"2026-02-03 18:00:00","35246","1.072","237.4","2.091","245.2","999.957","11.72","72.1","-2.932","0.0"],
    [1397667,"2026-02-03 18:10:00","35247","1.054","236.5","2.091","246.3","999.9689","11.43","73.32","-3.1710000000000003","0.0"],
    [1397668,"2026-02-03 18:20:00","35248","0.897","243.2","1.666","248.9","999.9785","11.34","74.01","-3.0389999999999997","0.0"],
    [1397669,"2026-02-03 18:30:00","35249","1.483","229.0","2.417","219.9","999.9926","11.25","74.63","-3.031","0.0"],
    [1397670,"2026-02-03 18:40:00","35250","1.9","227.9","2.744","214.2","1000.179","11.37","74.8","-2.955","0.0"],
    [1397671,"2026-02-03 18:50:00","35251","1.8119999999999998","228.3","2.744","214.7","1000.258","11.5","74.53","-2.864","0.0"],
    [1397672,"2026-02-03 19:00:00","35252","1.083","234.5","2.352","221.3","1000.2460000000001","11.19","75.55","-2.78","0.0"],
    [1397673,"2026-02-03 19:10:00","35253","1.5430000000000001","227.0","2.385","225.4","1000.1569999999999","10.98","76.46","-3.12","0.0"],
    [1397674,"2026-02-03 19:20:00","35254","1.973","226.6","2.711","223.8","1000.173","11.23","75.1","-3.077","0.0"],
    [1397675,"2026-02-03 19:30:00","35255","1.3030000000000002","226.9","2.287","223.5","1000.1","11.29","72.86","-2.781","0.0"],
    [1397676,"2026-02-03 19:40:00","35256","1.224","227.9","1.993","210.4","999.9633","10.97","73.31","-2.866","0.0"],
    [1397677,"2026-02-03 19:50:00","35257","1.4069999999999998","230.1","2.156","217.7","1000.008","11.0","71.91","-2.8760000000000003","0.0"],
    [1397678,"2026-02-03 20:00:00","35258","0.67","236.1","1.699","264.9","999.9938","10.88","71.33","-2.83","0.0"],
    [1397679,"2026-02-03 20:10:00","35259","0.586","236.3","1.143","251.2","999.8478","10.73","71.6","-2.89","0.0"],
    [1397680,"2026-02-03 20:20:00","35260","0.027000000000000003","248.8","0.49","249","999.878","9.95","75.11","-3.157","0.0"],
    [1397681,"2026-02-03 20:30:00","35261","0.135","262.9","0.784","281.3","999.8358","9.25","79.39","-3.489","0.0"],
    [1397682,"2026-02-03 20:40:00","35262","0.861","274.5","1.503","274.2","999.8906","9.03","79.67","-3.011","0.0"],
    [1397683,"2026-02-03 20:50:00","35263","0.9209999999999999","276.1","1.47","265.9","999.8022","8.79","78.18","-2.765","0.0"],
    [1397684,"2026-02-03 21:00:00","35264","1.0979999999999999","280.1","1.601","272.1","999.8341","8.7","75.93","-2.767","0.0"],
    [1397685,"2026-02-03 21:10:00","35265","1.0290000000000001","277.8","1.47","286.7","999.8337","8.48","75.44","-2.767","0.0"],
    [1397686,"2026-02-03 21:20:00","35266","0.7659999999999999","276.9","1.274","274.3","999.8109","8.43","75.25","-2.7689999999999997","0.0"],
    [1397687,"2026-02-03 21:30:00","35267","0.584","277.7","1.209","270","999.7519","8.49","74.71","-2.778","0.0"],
    [1397688,"2026-02-03 21:40:00","35268","0.648","263.3","1.568","254.7","999.7614","8.5","73.98","-2.779","0.0"],
    [1397689,"2026-02-03 21:50:00","35269","0.6709999999999999","272.9","1.764","260.6","999.8455","8.57","73.27","-2.779","0.0"],
    [1397690,"2026-02-03 22:00:00","35270","0.622","283.2","1.633","289","999.8566","7.704","76.33","-2.781","0.0"],
    [1397691,"2026-02-03 22:10:00","35271","1.371","283.9","1.993","280.1","999.805","7.233","78.85","-2.783","0.0"],
    [1397692,"2026-02-03 22:20:00","35272","0.7979999999999999","274.1","1.503","279.2","999.6128","7.33","77.19","-2.7689999999999997","0.0"],
    [1397693,"2026-02-03 22:30:00","35273","0.813","271.7","1.274","272.9","999.5735","7.367000000000001","76.44","-2.782","0.0"],
    [1397694,"2026-02-03 22:40:00","35274","0.5670000000000001","264.4","1.111","266.2","999.5345","7.125","77.31","-2.787","0.0"],
    [1397695,"2026-02-03 22:50:00","35275","1.232","272.3","2.221","268.9","999.4960000000001","7.252999999999999","77.55","-2.764","0.0"],
    [1397696,"2026-02-03 23:00:00","35276","1.3230000000000002","276.6","1.666","281.7","999.3091","7.221","77.85","-2.767","0.0"],
    [1397697,"2026-02-03 23:10:00","35277","1.786","273.4","2.287","260.4","999.3918","7.336","78.13","-2.151","0.0"],
    [1397698,"2026-02-03 23:20:00","35278","2.039","281.5","2.679","276.4","999.2554","7.021","79.65","-1.8719999999999999","0.0"],
    [1397699,"2026-02-03 23:30:00","35279","2.346","276.1","3.136","281.5","999.1464","7.044","80.0","-1.645","0.0"],
    [1397700,"2026-02-03 23:40:00","35280","1.412","288.2","2.352","283.3","998.9316","6.744","81.6","-1.614","0.0"],
    [1397701,"2026-02-03 23:50:00","35281","1.666","278.6","2.483","272.6","998.8094","6.874","82.1","-2.532","0.0"],
    [1397702,"2026-02-04 00:00:00","35282","1.9509999999999998","280.1","2.515","276","998.6787","7.002000000000001","81.3","-2.123","0.0"],
    [1397703,"2026-02-04 00:10:00","35283","1.6569999999999998","281.9","2.483","279.8","998.4869","6.922999999999999","81.3","-2.074","0.0"],
    [1397704,"2026-02-04 00:20:00","35284","1.0","290.9","1.829","292.9","998.2897","6.667999999999999","82.1","-2.305","0.0"],
    [1397705,"2026-02-04 00:30:00","35285","0.6990000000000001","288.2","1.274","284.8","998.0969","6.422000000000001","82.9","-2.178","0.0"],
    [1397706,"2026-02-04 00:40:00","35286","0.53","286.2","1.078","285","997.9125","6.515","83.4","-1.943","0.0"],
    [1397707,"2026-02-04 00:50:00","35287","1.0070000000000001","278.6","1.699","267.9","997.8267","6.585","83.5","-1.569","0.0"],
    [1397708,"2026-02-04 01:00:00","35288","0.9359999999999999","277.4","1.927","273.9","997.6893","6.919","82.1","-1.295","0.0"],
    [1397709,"2026-02-04 01:10:00","35289","1.205","273.6","2.352","268.6","997.6098","7.0120000000000005","81.8","-1.524","0.0"],
    [1397710,"2026-02-04 01:20:00","35290","1.659","273.0","2.679","273.1","997.5257","6.776","81.2","-2.081","0.0"],
    [1397711,"2026-02-04 01:30:00","35291","1.5619999999999998","281.5","2.711","264.5","997.4089","6.428","81.9","-2.2359999999999998","0.0"],
    [1397712,"2026-02-04 01:40:00","35292","1.78","285.0","2.548","279.9","997.3013","6.192","82.5","-2.06","0.0"],
    [1397713,"2026-02-04 01:50:00","35293","0.986","290.2","1.633","301.4","997.1412","6.093","83.1","-1.38","0.0"],
    [1397714,"2026-02-04 02:00:00","35294","0.879","293.8","1.764","300.7","997.0681","6.018","83.3","-1.993","0.0"],
    [1397715,"2026-02-04 02:10:00","35295","1.139","289.2","1.895","283.3","996.9005","6.079","83.2","-2.12","0.0"],
    [1397716,"2026-02-04 02:20:00","35296","1.315","287.2","2.221","282.1","996.7399","6.2","82.5","-2.122","0.0"],
    [1397717,"2026-02-04 02:30:00","35297","1.188","293.5","2.287","270.1","996.5891","6.242000000000001","82.0","-2.285","0.0"],
    [1397718,"2026-02-04 02:40:00","35298","1.047","289.9","1.895","250.7","996.3226","6.209","81.2","-2.551","0.0"],
    [1397719,"2026-02-04 02:50:00","35299","0.941","278.5","1.764","269.3","996.0811","6.148","81.2","-2.63","0.0"],
    [1397720,"2026-02-04 03:00:00","35300","1.148","276.7","2.123","263","995.9167","6.12","80.8","-2.438","0.0"],
    [1397721,"2026-02-04 03:10:00","35301","1.21","285.4","1.699","285.3","995.6389999999999","5.852","81.6","-2.5","0.0"],
    [1397722,"2026-02-04 03:20:00","35302","1.0190000000000001","289.1","1.666","283.7","995.3184","5.8","82.2","-2.354","0.0"],
    [1397723,"2026-02-04 03:30:00","35303","1.2770000000000001","272.7","2.548","271.5","995.1772","5.689","82.9","-2.47","0.0"],
    [1397724,"2026-02-04 03:40:00","35304","1.751","283.3","2.613","270.8","995.1014","5.598","82.7","-2.077","0.0"],
    [1397725,"2026-02-04 03:50:00","35305","1.694","286.3","2.613","286.3","995.0475","5.504","83.5","-2.081","0.0"],
    [1397726,"2026-02-04 04:00:00","35306","1.255","296.7","1.927","296.6","994.7437","5.436","83.6","-1.4709999999999999","0.0"],
    [1397727,"2026-02-04 04:10:00","35307","0.925","293.4","1.862","299.1","994.5325","5.476","84.1","-1.4680000000000002","0.0"],
    [1397728,"2026-02-04 04:20:00","35308","0.9740000000000001","290.5","1.47","288.1","994.4177","5.691","83.9","-1.212","0.0"],
    [1397729,"2026-02-04 04:30:00","35309","1.376","287.8","1.797","294.9","994.3141","5.815","83.5","-1.2690000000000001","0.0"],
    [1397730,"2026-02-04 04:40:00","35310","1.078","295.7","1.797","294.6","994.2139","5.8389999999999995","83.8","-1.296","0.0"],
    [1397731,"2026-02-04 04:50:00","35311","1.125","296.2","1.895","298.1","994.07","5.939","83.6","-1.294","0.0"],
    [1397732,"2026-02-04 05:00:00","35312","1.107","298.4","2.058","286.7","993.8992","6.074","83.0","-1.294","0.0"],
    [1397733,"2026-02-04 05:10:00","35313","1.105","297.3","1.764","295.8","993.7254","6.102","82.9","-1.338","0.0"],
    [1397734,"2026-02-04 05:20:00","35314","0.929","299.1","1.764","296.5","993.53","6.16","82.8","-1.36","0.0"],
    [1397735,"2026-02-04 05:30:00","35315","1.663","283.9","2.287","277.6","993.5133","6.131","83.0","-1.544","0.0"],
    [1397736,"2026-02-04 05:40:00","35316","1.9240000000000002","275.8","3.038","270.3","993.4769","6.099","82.6","-1.2930000000000001","0.3"],
    [1397737,"2026-02-04 05:50:00","35317","1.7690000000000001","276.0","3.005","271.1","993.3668","5.89","84.9","-1.266","0.2"],
    [1397738,"2026-02-04 06:00:00","35318","1.649","289.4","2.679","286.4","993.2808","5.9110000000000005","85.8","-0.835","0.0"],
    [1397739,"2026-02-04 06:10:00","35319","0.872","289.6","2.483","294.6","993.2639","5.971","86.3","-0.8959999999999999","0.0"],
    [1397740,"2026-02-04 06:20:00","35320","1.1420000000000001","273.4","2.221","262.9","993.2425","6.093999999999999","85.8","-1.034","0.0"],
    [1397741,"2026-02-04 06:30:00","35321","1.493","263.0","2.483","257","993.3253","6.187","84.4","-0.76","0.0"],
    [1397742,"2026-02-04 06:40:00","35322","1.595","271.7","2.417","277.8","993.2460000000001","6.126","83.2","-0.636","0.0"],
    [1397743,"2026-02-04 06:50:00","35323","1.963","275.9","2.515","282.7","993.1458","6.102","82.3","-0.391","0.0"],
    [1397744,"2026-02-04 07:00:00","35324","2.101","277.5","2.94","280.6","993.1498","6.247000000000001","80.8","1.044","0.0"],
    [1397745,"2026-02-04 07:10:00","35325","1.444","276.8","2.352","284.3","993.2267","6.2829999999999995","81.0","4.133","0.0"],
    [1397746,"2026-02-04 07:20:00","35326","1.6680000000000001","273.6","2.417","261.3","993.3141","6.433","81.2","4.37","0.0"],
    [1397747,"2026-02-04 07:30:00","35327","1.472","277.6","2.352","278.7","993.3291","6.607","81.1","6.972","0.0"],
    [1397748,"2026-02-04 07:40:00","35328","1.679","281.1","2.483","272.3","993.2996","6.867000000000001","80.4","7.617000000000001","0.0"],
    [1397749,"2026-02-04 07:50:00","35329","1.465","273.6","2.744","266.1","993.2201","7.04","80.8","8.82","0.1"],
    [1397750,"2026-02-04 08:00:00","35330","1.482","263.3","2.483","249.3","993.1585","7.16","81.2","11.63","0.1"],
    [1397751,"2026-02-04 08:10:00","35331","1.4240000000000002","268.8","2.875","273.5","993.1225","7.095","82.1","25.39","0.0"],
    [1397752,"2026-02-04 08:20:00","35332","1.6480000000000001","275.8","3.005","265","993.1313","7.056","82.6","49.26","0.0"],
    [1397753,"2026-02-04 08:30:00","35333","1.203","277.9","1.96","271.1","993.0327","7.31","83.8","80.2","0.0"],
    [1397754,"2026-02-04 08:40:00","35334","0.747","267.0","1.339","272.6","992.9877","7.5520000000000005","85.5","87.4","0.0"],
    [1397755,"2026-02-04 08:50:00","35335","0.917","221.1","2.385","249.3","992.8703","8.2","84.6","101.4","0.0"],
    [1397756,"2026-02-04 09:00:00","35336","1.381","228.9","2.058","223.4","992.7444","8.77","81.1","119.6","0.0"],
    [1397757,"2026-02-04 09:10:00","35337","1.361","230.7","2.254","219.4","992.6729","9.06","79.93","135.2","0.0"],
    [1397758,"2026-02-04 09:20:00","35338","1.4140000000000001","229.9","2.189","219.7","992.6356","9.46","79.54","114.0","0.0"],
    [1397759,"2026-02-04 09:30:00","35339","1.5630000000000002","230.3","2.679","256.5","992.6429","9.44","78.82","92.5","0.0"],
    [1397760,"2026-02-04 09:40:00","35340","1.8619999999999999","230.5","3.169","241.7","992.6188","9.65","78.07","104.8","0.0"],
    [1397761,"2026-02-04 09:50:00","35341","1.755","231.4","3.234","238.9","992.5057","9.92","77.02","149.0","0.0"],
    [1397762,"2026-02-04 10:00:00","35342","1.462","231.6","2.94","242.5","992.308","10.22","76.92","221.7","0.0"],
    [1397763,"2026-02-04 10:10:00","35343","1.229","223.6","2.156","249.3","992.0538","10.54","76.19","228.8","0.0"],
    [1397764,"2026-02-04 10:20:00","35344","1.284","226.2","2.025","212.1","992.1083","10.67","75.85","201.5","0.0"],
    [1397765,"2026-02-04 10:30:00","35345","1.287","232.9","2.091","221.5","992.1055","10.62","75.2","151.1","0.0"],
    [1397766,"2026-02-04 10:40:00","35346","1.124","232.7","2.025","234.5","992.1385","10.77","74.87","133.9","0.0"],
    [1397767,"2026-02-04 10:50:00","35347","1.189","216.9","2.385","199","992.1014","10.93","73.99","152.5","0.0"],
    [1397768,"2026-02-04 11:00:00","35348","1.702","207.7","2.907","200.6","991.9808","11.31","72.56","238.5","0.0"],
    [1397769,"2026-02-04 11:10:00","35349","1.1340000000000001","213.9","3.234","217.4","991.8796","11.41","70.75","155.2","0.0"],
    [1397770,"2026-02-04 11:20:00","35350","2.67","218.7","4.933","213.4","991.8304","11.35","69.17","152.8","0.1"],
    [1397771,"2026-02-04 11:30:00","35351","1.9340000000000002","233.5","3.789","236.9","991.7783","11.42","68.45","150.7","0.0"],
    [1397772,"2026-02-04 11:40:00","35352","3.08","223.5","4.606","232.5","991.6328","11.34","68.27","147.6","0.0"],
    [1397773,"2026-02-04 11:50:00","35353","3.322","221.9","6.109","207.5","991.4719","11.35","69.12","167.2","0.0"],
    [1397774,"2026-02-04 12:00:00","35354","3.1069999999999998","221.9","4.639","227.9","991.3871","11.32","69.04","175.6","0.0"],
    [1397775,"2026-02-04 12:10:00","35355","2.719","218.9","4.279","217.8","991.3058","11.61","69.24","224.9","0.0"],
    [1397776,"2026-02-04 12:20:00","35356","2.867","216.4","4.802","217.4","991.1058","11.92","68.19","368.6","0.0"],
    [1397777,"2026-02-04 12:30:00","35357","3.7560000000000002","217.8","7.023","210.3","990.9407","11.88","67.16","220.4","0.0"],
    [1397778,"2026-02-04 12:40:00","35358","2.92","215.8","5.815","228.4","990.8466","12.02","67.66","339.0","0.0"],
    [1397779,"2026-02-04 12:50:00","35359","3.9419999999999997","218.8","7.481","205.5","990.7686","12.51","66.56","497.1","0.0"],
    [1397780,"2026-02-04 13:00:00","35360","4.113","219.9","6.697","218.2","990.7339999999999","12.94","65.14","701.9","0.0"],
    [1397781,"2026-02-04 13:10:00","35361","4.449","221.3","8.17","205.3","990.7728","13.02","64.94","390.9","0.0"],
    [1397782,"2026-02-04 13:20:00","35362","4.783","223.5","7.644","227.1","990.73","12.47","67.31","268.6","0.0"],
    [1397783,"2026-02-04 13:30:00","35363","4.843","226.9","8.36","215.9","990.6852","12.27","68.26","165.1","0.0"],
    [1397784,"2026-02-04 13:40:00","35364","4.235","227.3","7.873","216.1","990.7617","11.79","70.28","86.1","0.0"],
    [1397785,"2026-02-04 13:50:00","35365","4.287","224.7","6.697","224.1","990.8759","11.83","70.87","205.1","0.0"],
    [1397786,"2026-02-04 14:00:00","35366","4.074","224.4","7.089","217.1","990.9937","12.44","68.8","310.3","0.0"],
    [1397787,"2026-02-04 14:10:00","35367","3.929","228.4","7.121","229.4","990.9523","12.26","69.32","150.8","0.0"],
    [1397788,"2026-02-04 14:20:00","35368","3.492","226.8","6.076","223.6","990.882","12.16","69.58","149.0","0.0"],
    [1397789,"2026-02-04 14:30:00","35369","3.437","226.2","5.717","236.6","990.6676","12.09","70.67","164.0","0.0"],
    [1397790,"2026-02-04 14:40:00","35370","2.862","223.1","4.9","236.4","990.5587","12.58","68.64","240.1","0.0"],
    [1397791,"2026-02-04 14:50:00","35371","3.759","224.8","6.141","244.6","990.6014","12.68","66.37","125.0","0.0"],
    [1397792,"2026-02-04 15:00:00","35372","2.835","229.4","6.141","243.6","990.655","12.58","67.15","146.0","0.0"],
    [1397793,"2026-02-04 15:10:00","35373","2.086","255.0","3.691","209.3","990.7125","13.56","63.66","337.5","0.0"],
    [1397794,"2026-02-04 15:20:00","35374","2.29","286.5","3.724","298.9","990.7914","13.72","62.52","300.9","0.0"],
    [1397795,"2026-02-04 15:30:00","35375","1.892","233.1","3.299","242.5","990.8394","13.87","61.89","250.7","0.0"],
    [1397796,"2026-02-04 15:40:00","35376","2.12","230.7","3.463","238.7","990.9033","14.02","61.15","224.5","0.0"],
    [1397797,"2026-02-04 15:50:00","35377","1.746","261.6","3.038","279.6","990.8386","13.86","60.51","197.6","0.0"],
    [1397798,"2026-02-04 16:00:00","35378","2.543","283.4","4.606","297.2","990.8424","13.75","59.63","169.4","0.0"],
    [1397799,"2026-02-04 16:10:00","35379","3.03","286.9","4.541","291.9","990.9288","13.76","54.81","142.0","0.0"],
    [1397800,"2026-02-04 16:20:00","35380","3.733","292.3","6.305","298.3","991.0879","13.63","53.06","115.5","0.0"],
    [1397801,"2026-02-04 16:30:00","35381","3.3480000000000003","297.6","5.063","307.5","991.1682","13.22","54.29","38.51","0.0"],
    [1397802,"2026-02-04 16:40:00","35382","2.8539999999999996","295.5","4.835","304","991.3919","13.02","54.87","23.33","0.0"],
    [1397803,"2026-02-04 16:50:00","35383","1.6840000000000002","292.6","2.875","284.3","991.3705","12.77","55.96","15.2","0.0"],
    [1397804,"2026-02-04 17:00:00","35384","1.9280000000000002","276.0","4.41","274","991.3068","12.67","55.74","7.718","0.0"],
    [1397805,"2026-02-04 17:10:00","35385","1.86","285.0","3.822","288.4","991.4532","12.43","55.62","3.502","0.0"],
    [1397806,"2026-02-04 17:20:00","35386","0.9890000000000001","294.8","2.417","297.6","991.4895","12.11","56.89","-0.076","0.0"],
    [1397807,"2026-02-04 17:30:00","35387","0.62","299.0","1.829","282.6","991.5593","11.85","57.87","-2.505","0.0"],
    [1397808,"2026-02-04 17:40:00","35388","0.141","322.3","0.784","298.6","991.585","11.59","59.38","-3.207","0.0"],
    [1397809,"2026-02-04 17:50:00","35389","0.8690000000000001","218.8","1.568","251.7","991.8446","11.47","59.49","-3.227","0.0"],
    [1397810,"2026-02-04 18:00:00","35390","0.9740000000000001","229.9","1.666","249.9","992.1228","11.61","58.83","-2.767","0.0"],
    [1397811,"2026-02-04 18:10:00","35391","0.622","223.5","1.307","247.3","992.455","11.53","59.34","-2.762","0.0"],
    [1397812,"2026-02-04 18:20:00","35392","0.753","202.0","1.862","212.8","992.633","11.59","60.77","-2.815","0.0"],
    [1397813,"2026-02-04 18:30:00","35393","0.925","205.1","2.221","215.2","992.6816","11.56","65.82","-2.7310000000000003","0.0"],
    [1397814,"2026-02-04 18:40:00","35394","0.524","231.8","1.437","224.4","992.5007","11.38","72.01","-2.572","0.0"],
    [1397815,"2026-02-04 18:50:00","35395","0.972","256.2","1.535","241.3","992.58","11.33","73.35","-2.5580000000000003","0.0"],
    [1397816,"2026-02-04 19:00:00","35396","1.239","252.9","2.515","256.4","992.6248","11.19","72.81","-2.648","0.0"],
    [1397817,"2026-02-04 19:10:00","35397","1.167","276.3","2.581","275.5","992.455","11.48","70.27","-2.4130000000000003","0.0"],
    [1397818,"2026-02-04 19:20:00","35398","0.905","284.6","1.895","290.2","992.3066","11.19","70.3","-2.6260000000000003","0.0"],
    [1397819,"2026-02-04 19:30:00","35399","1.462","259.9","2.711","270.4","992.7791","11.11","69.65","-2.758","0.0"],
    [1397820,"2026-02-04 19:40:00","35400","1.315","271.0","2.548","265.8","992.8309","10.98","69.05","-2.721","0.0"],
    [1397821,"2026-02-04 19:50:00","35401","1.459","249.1","3.136","282.2","993.1564","10.85","69.24","-2.764","0.0"],
    [1397822,"2026-02-04 20:00:00","35402","1.4809999999999999","229.3","2.417","228.4","993.3416","10.99","67.72","-2.762","0.0"],
    [1397823,"2026-02-04 20:10:00","35403","1.5030000000000001","230.3","2.221","222.7","993.4797","10.85","67.55","-2.762","0.0"],
    [1397824,"2026-02-04 20:20:00","35404","1.824","224.5","2.711","218.8","993.3839","10.71","68.48","-2.763","0.0"],
    [1397825,"2026-02-04 20:30:00","35405","1.101","230.9","1.829","214.6","993.3283","10.74","67.84","-2.758","0.0"],
    [1397826,"2026-02-04 20:40:00","35406","1.065","235.8","1.699","233.8","993.6608","10.53","68.88","-2.764","0.0"],
    [1397827,"2026-02-04 20:50:00","35407","0.733","314.2","1.699","337.4","993.5074","10.03","71.48","-2.635","0.0"],
    [1397828,"2026-02-04 21:00:00","35408","1.409","337.6","2.319","325.8","993.3054","9.34","73.94","-2.7710000000000004","0.0"],
    [1397829,"2026-02-04 21:10:00","35409","1.229","287.4","1.993","323.3","993.7006","9.4","73.93","-2.77","0.0"],
    [1397830,"2026-02-04 21:20:00","35410","0.7170000000000001","254.8","1.307","239.1","993.8451","9.73","71.9","-2.539","0.0"],
    [1397831,"2026-02-04 21:30:00","35411","0.479","256.8","1.274","263.2","993.7260000000001","9.6","71.93","-2.25","0.0"],
    [1397832,"2026-02-04 21:40:00","35412","0.58","259.1","1.176","231.1","993.8354","9.62","72.13","-2.6069999999999998","0.0"],
    [1397833,"2026-02-04 21:50:00","35413","0.857","296.9","1.339","287.4","993.7919999999999","8.98","74.72","-2.735","0.0"],
    [1397834,"2026-02-04 22:00:00","35414","0.31","301.2","0.947","310.7","993.6714","8.82","75.68","-2.616","0.0"],
    [1397835,"2026-02-04 22:10:00","35415","1.151","297.7","2.221","299.2","993.8458","8.73","75.82","-2.537","0.0"],
    [1397836,"2026-02-04 22:20:00","35416","0.649","289.9","1.274","298.4","993.5386","8.62","76.77","-1.89","0.0"],
    [1397837,"2026-02-04 22:30:00","35417","0.736","283.5","1.176","280.5","993.5145","9.06","75.21","-1.296","0.0"],
    [1397838,"2026-02-04 22:40:00","35418","0.9359999999999999","287.1","1.96","294.7","993.4025","9.07","74.7","-2.4","0.0"],
    [1397839,"2026-02-04 22:50:00","35419","1.34","266.6","2.025","283","993.8462","9.02","75.37","-2.176","0.0"],
    [1397840,"2026-02-04 23:00:00","35420","1.138","270.5","2.287","272","994.2222","9.42","73.47","-0.883","0.0"],
    [1397841,"2026-02-04 23:10:00","35421","1.354","277.6","3.136","279.7","994.2473","9.5","73.51","-0.7140000000000001","0.0"],
    [1397842,"2026-02-04 23:20:00","35422","1.264","272.5","2.156","262","994.2291","9.44","73.69","-0.862","0.0"],
    [1397843,"2026-02-04 23:30:00","35423","1.0590000000000002","284.0","1.764","261.4","994.1959","9.27","74.53","-1.133","0.0"],
    [1397844,"2026-02-04 23:40:00","35424","1.324","295.4","2.254","319.6","994.1260000000001","9.08","75.94","-1.285","0.0"],
    [1397845,"2026-02-04 23:50:00","35425","1.27","265.8","1.993","284.8","994.1719","9.48","74.16","-0.76","0.0"],
    [1397846,"2026-02-05 00:00:00","35426","1.328","279.9","2.254","277.4","994.1912","9.43","74.03","-1.198","0.0"],
    [1397847,"2026-02-05 00:10:00","35427","1.237","285.6","2.319","298.1","994.179","8.9","76.56","-1.555","0.0"],
    [1397848,"2026-02-05 00:20:00","35428","0.838","266.2","1.601","270.5","994.0326","8.95","76.82","-2.667","0.0"],
    [1397849,"2026-02-05 00:30:00","35429","0.655","282.4","1.111","275.6","993.5946","9.01","75.66","-2.533","0.0"],
    [1397850,"2026-02-05 00:40:00","35430","1.025","276.3","1.47","278.4","993.4398","8.74","76.56","-2.7680000000000002","0.0"],
    [1397851,"2026-02-05 00:50:00","35431","1.262","272.4","1.764","276.5","993.5435","8.62","77.29","-2.75","0.0"],
    [1397852,"2026-02-05 01:00:00","35432","1.3769999999999998","282.0","1.895","292.5","993.7319","8.27","77.78","-2.198","0.0"],
    [1397853,"2026-02-05 01:10:00","35433","1.146","273.5","1.993","293","994.0211","8.01","79.44","-2.605","0.0"],
    [1397854,"2026-02-05 01:20:00","35434","1.064","275.2","1.699","289","994.0279","8.15","78.72","-2.292","0.0"],
    [1397855,"2026-02-05 01:30:00","35435","1.094","273.0","1.699","290.2","994.0609","7.906000000000001","79.73","-2.042","0.0"],
    [1397856,"2026-02-05 01:40:00","35436","0.853","264.2","1.862","267.3","993.9722","8.24","78.62","-1.89","0.0"],
    [1397857,"2026-02-05 01:50:00","35437","1.061","249.5","2.189","265.1","994.0824","8.53","77.58","-1.8780000000000001","0.0"],
    [1397858,"2026-02-05 02:00:00","35438","0.991","245.1","1.764","251.3","994.0957","8.74","76.67","-1.93","0.0"],
    [1397859,"2026-02-05 02:10:00","35439","1.172","248.8","2.221","231.1","994.1234","8.77","76.03","-2.044","0.0"],
    [1397860,"2026-02-05 02:20:00","35440","1.111","252.2","1.927","266.2","993.9728","8.46","77.29","-2.019","0.0"],
    [1397861,"2026-02-05 02:30:00","35441","1.51","267.6","2.581","269.5","994.0687","8.31","77.64","-1.8030000000000002","0.0"],
    [1397862,"2026-02-05 02:40:00","35442","1.411","242.4","2.907","244.5","994.0675","8.04","78.38","-1.476","0.0"],
    [1397863,"2026-02-05 02:50:00","35443","1.5290000000000001","263.3","2.907","268.1","994.097","8.12","78.22","-1.4269999999999998","0.0"],
    [1397864,"2026-02-05 03:00:00","35444","1.379","248.4","2.45","226.2","994.0628","8.21","77.98","-1.3969999999999998","0.0"],
    [1397865,"2026-02-05 03:10:00","35445","1.669","250.0","2.613","258.3","994.1891","8.34","77.72","-1.466","0.0"],
    [1397866,"2026-02-05 03:20:00","35446","1.344","220.9","2.123","215.2","993.9916","8.46","77.24","-1.3030000000000002","0.0"],
    [1397867,"2026-02-05 03:30:00","35447","1.7080000000000002","229.8","2.613","224.6","993.9742","8.29","77.89","-1.328","0.0"],
    [1397868,"2026-02-05 03:40:00","35448","1.28","242.7","1.993","229.6","993.8275","8.21","78.02","-1.29","0.0"],
    [1397869,"2026-02-05 03:50:00","35449","1.1079999999999999","288.4","1.666","292.9","993.6310000000001","8.08","78.73","-1.291","0.0"],
    [1397870,"2026-02-05 04:00:00","35450","1.051","280.0","1.503","289.9","993.3976","7.572","81.0","-1.29","0.0"],
    [1397871,"2026-02-05 04:10:00","35451","1.27","266.0","1.862","269.1","993.3383","7.777","80.8","-1.2919999999999998","0.0"],
    [1397872,"2026-02-05 04:20:00","35452","1.5630000000000002","266.1","2.581","271","993.5487","7.865","79.92","-1.296","0.0"],
    [1397873,"2026-02-05 04:30:00","35453","1.827","262.8","2.94","270.3","993.9124","8.02","80.4","-1.4469999999999998","0.0"],
    [1397874,"2026-02-05 04:40:00","35454","1.777","260.2","2.777","263.5","994.3430000000001","8.23","78.88","-1.2990000000000002","0.0"],
    [1397875,"2026-02-05 04:50:00","35455","1.686","273.4","2.973","278.5","994.3035","7.982","79.64","-1.2930000000000001","0.0"],
    [1397876,"2026-02-05 05:00:00","35456","1.861","281.0","2.907","282.3","994.2","7.662999999999999","80.5","-1.2890000000000001","0.0"],
    [1397877,"2026-02-05 05:10:00","35457","0.9329999999999999","280.1","1.666","281.8","993.8675","7.579","81.4","-1.291","0.0"],
    [1397878,"2026-02-05 05:20:00","35458","1.4","280.7","2.254","274.7","993.6647","7.716","81.1","-1.2919999999999998","0.0"],
    [1397879,"2026-02-05 05:30:00","35459","1.526","276.7","1.993","274.1","993.5121","7.7589999999999995","80.8","-1.2919999999999998","0.0"],
    [1397880,"2026-02-05 05:40:00","35460","1.5830000000000002","292.4","2.581","292.3","993.3928","7.787000000000001","80.8","-1.29","0.0"],
    [1397881,"2026-02-05 05:50:00","35461","1.5330000000000001","300.0","2.189","312.3","993.4960000000001","7.836","81.4","-1.291","0.0"],
    [1397882,"2026-02-05 06:00:00","35462","1.403","287.9","2.711","337","993.3204","8.34","80.7","-1.2890000000000001","0.0"],
    [1397883,"2026-02-05 06:10:00","35463","1.386","268.1","2.352","273.3","993.2748","8.97","77.41","-1.276","0.0"],
    [1397884,"2026-02-05 06:20:00","35464","1.59","270.1","2.679","269.5","993.2097","9.03","76.77","-1.2409999999999999","0.0"],
    [1397885,"2026-02-05 06:30:00","35465","1.588","278.2","2.613","273.1","993.2501","8.68","78.67","-1.07","0.0"],
    [1397886,"2026-02-05 06:40:00","35466","1.298","241.8","2.679","259.4","992.9925","8.67","78.75","-1.1740000000000002","0.0"],
    [1397887,"2026-02-05 06:50:00","35467","1.311","227.7","2.221","256.2","992.6684","9.07","77.06","-0.705","0.0"],
    [1397888,"2026-02-05 07:00:00","35468","1.694","298.5","2.515","306.6","992.5992","9.46","75.47","0.028999999999999998","0.0"],
    [1397889,"2026-02-05 07:10:00","35469","1.7369999999999999","271.1","3.953","290.6","993.0095","9.61","75.16","0.7909999999999999","0.0"],
    [1397890,"2026-02-05 07:20:00","35470","1.993","273.4","3.234","285.3","993.3587","10.07","72.69","2.925","0.0"],
    [1397891,"2026-02-05 07:30:00","35471","1.6059999999999999","268.7","2.777","246.2","993.5911","9.86","73.04","6.032","0.0"],
    [1397892,"2026-02-05 07:40:00","35472","1.305","268.3","2.483","265.1","993.5139999999999","9.61","74.27","14.76","0.0"],
    [1397893,"2026-02-05 07:50:00","35473","1.558","274.3","2.581","280.4","993.63","9.51","75.04","17.07","0.0"],
    [1397894,"2026-02-05 08:00:00","35474","0.912","253.1","2.058","263.5","993.4017","9.66","75.19","28.67","0.0"],
    [1397895,"2026-02-05 08:10:00","35475","0.875","253.7","1.568","219.3","993.2416","9.83","74.98","27.86","0.0"],
    [1397896,"2026-02-05 08:20:00","35476","0.9940000000000001","267.3","1.633","267.4","993.045","9.57","78.25","32.83","0.1"],
    [1397897,"2026-02-05 08:30:00","35477","1.479","282.6","2.058","286.6","992.9071","9.32","80.8","57.82","0.0"],
    [1397898,"2026-02-05 08:40:00","35478","1.281","259.8","2.352","270.7","992.8595","9.32","81.1","50.66","0.0"],
    [1397899,"2026-02-05 08:50:00","35479","1.14","259.2","2.058","227.4","992.9598","9.24","81.1","21.74","0.0"],
    [1397900,"2026-02-05 09:00:00","35480","1.1640000000000001","250.5","1.797","244.5","993.0233","9.3","82.1","25.89","0.3"],
    [1397901,"2026-02-05 09:10:00","35481","1.149","275.8","2.352","289.7","993.0947","9.14","83.9","43.95","0.1"],
    [1397902,"2026-02-05 09:20:00","35482","1.382","287.7","2.319","286.7","992.9695","8.83","85.7","52.07","0.0"],
    [1397903,"2026-02-05 09:30:00","35483","1.069","294.6","1.601","294.3","992.6934","8.85","87.2","57.62","0.0"],
    [1397904,"2026-02-05 09:40:00","35484","1.053","289.8","1.503","277.8","992.5135","9.1","87.4","59.39","0.2"],
    [1397905,"2026-02-05 09:50:00","35485","1.3090000000000002","258.3","2.058","275","992.7491","9.34","86.6","60.04","0.0"],
    [1397906,"2026-02-05 10:00:00","35486","1.9380000000000002","277.4","3.397","296.7","992.8457","9.54","86.3","59.09","0.2"],
    [1397907,"2026-02-05 10:10:00","35487","1.5430000000000001","284.7","2.679","280.5","992.6868","9.07","87.0","57.03","0.0"],
    [1397908,"2026-02-05 10:20:00","35488","1.375","294.5","2.45","279.1","992.4373","9.0","87.9","57.67","0.1"],
    [1397909,"2026-02-05 10:30:00","35489","0.937","313.6","1.503","309.2","992.0327","9.29","88.3","76.41","0.0"],
    [1397910,"2026-02-05 10:40:00","35490","0.41600000000000004","316.9","1.307","323.9","991.7604","9.9","88.1","127.8","0.1"],
    [1397911,"2026-02-05 10:50:00","35491","0.883","284.5","1.405","275.3","991.8816","10.31","86.7","126.2","0.0"],
    [1397912,"2026-02-05 11:00:00","35492","0.769","280.9","1.601","292.6","991.6829","10.67","86.0","223.3","0.0"],
    [1397913,"2026-02-05 11:10:00","35493","1.445","278.9","1.993","284","991.3549","10.78","86.4","205.9","0.0"],
    [1397914,"2026-02-05 11:20:00","35494","1.182","286.6","1.699","294.8","991.0399","10.87","86.7","277.4","0.0"],
    [1397915,"2026-02-05 11:30:00","35495","0.44799999999999995","257.9","1.241","200.4","990.8367","11.53","84.9","312.8","0.0"],
    [1397916,"2026-02-05 11:40:00","35496","0.44","298.1","1.274","305.6","990.4027","11.86","83.0","203.4","0.0"],
    [1397917,"2026-02-05 11:50:00","35497","1.114","304.6","2.156","313.1","990.1234","12.07","83.5","137.4","0.0"],
    [1397918,"2026-02-05 12:00:00","35498","0.528","287.6","1.372","297.2","989.6332","12.18","82.4","125.1","0.0"],
    [1397919,"2026-02-05 12:10:00","35499","0.251","280.7","0.915","277.9","989.3722","12.4","81.5","121.3","0.0"],
    [1397920,"2026-02-05 12:20:00","35500","0.024","143.3","0.523","169.3","989.1508","12.48","81.2","110.1","0.0"],
    [1397921,"2026-02-05 12:30:00","35501","0.37","176.9","1.339","183.4","988.8289","12.78","81.8","118.7","0.0"],
    [1397922,"2026-02-05 12:40:00","35502","0.46799999999999997","304.7","1.666","287.4","988.5254","12.98","82.1","96.8","0.0"],
    [1397923,"2026-02-05 12:50:00","35503","1.2590000000000001","287.5","1.797","281.4","988.5187","12.44","83.8","54.15","0.0"],
    [1397924,"2026-02-05 13:00:00","35504","0.9440000000000001","282.5","1.829","282.2","988.4068","12.07","84.8","74.56","0.0"],
    [1397925,"2026-02-05 13:10:00","35505","0.764","298.6","1.797","312.6","988.0094","12.31","84.8","91.9","0.0"],
    [1397926,"2026-02-05 13:20:00","35506","0.67","282.6","1.829","313.7","987.7802","12.09","85.7","80.5","0.0"],
    [1397927,"2026-02-05 13:30:00","35507","1.607","288.7","3.234","279.8","987.8282","12.19","85.6","49.36","0.0"],
    [1397928,"2026-02-05 13:40:00","35508","1.999","297.4","4.475","304.9","988.0145","11.89","86.4","36.59","0.0"],
    [1397929,"2026-02-05 13:50:00","35509","1.6740000000000002","301.0","4.312","315.4","987.7089","11.86","86.4","101.8","0.0"],
    [1397930,"2026-02-05 14:00:00","35510","1.376","182.6","3.201","149.4","986.8884","12.46","85.4","305.9","0.0"],
    [1397931,"2026-02-05 14:10:00","35511","1.632","179.2","3.855","163.6","986.7222","13.72","82.9","401.7","0.0"],
    [1397932,"2026-02-05 14:20:00","35512","0.858","190.6","2.548","156.4","986.9151","14.12","82.1","197.3","0.0"],
    [1397933,"2026-02-05 14:30:00","35513","1.943","218.0","3.169","221.2","986.8781","14.4","81.9","260.8","0.0"],
    [1397934,"2026-02-05 14:40:00","35514","2.05","250.5","3.234","270.9","987.051","14.4","82.3","206.9","0.0"],
    [1397935,"2026-02-05 14:50:00","35515","1.756","258.2","3.855","294.8","987.0621","14.4","81.9","200.3","0.0"],
    [1397936,"2026-02-05 15:00:00","35516","1.403","251.1","2.385","254.1","987.02","14.49","80.7","131.3","0.0"],
    [1397937,"2026-02-05 15:10:00","35517","2.8369999999999997","216.2","5.586","210.4","986.8759","14.6","81.4","220.0","0.0"],
    [1397938,"2026-02-05 15:20:00","35518","2.8089999999999997","210.5","5.553","210.2","986.6008","14.97","81.0","278.7","0.0"],
    [1397939,"2026-02-05 15:30:00","35519","3.535","213.6","5.586","185.7","986.4543","15.41","79.57","252.6","0.0"],
    [1397940,"2026-02-05 15:40:00","35520","4.272","214.4","7.056","214.2","986.4398","15.11","80.1","227.3","0.0"],
    [1397941,"2026-02-05 15:50:00","35521","4.1419999999999995","212.2","6.991","224.7","986.5703","15.1","80.4","200.2","0.0"],
    [1397942,"2026-02-05 16:00:00","35522","4.552","221.9","7.415","208.1","986.8166","14.98","80.7","173.1","0.0"],
    [1397943,"2026-02-05 16:10:00","35523","4.775","220.2","8.1","216.1","986.9760000000001","15.02","80.1","146.1","0.0"],
    [1397944,"2026-02-05 16:20:00","35524","4.765","224.6","8.26","215","987.1294","14.74","81.3","125.2","0.0"],
    [1397945,"2026-02-05 16:30:00","35525","3.3139999999999996","228.4","6.174","213.2","987.0538","14.54","81.9","58.75","0.0"],
    [1397946,"2026-02-05 16:40:00","35526","2.818","224.8","4.704","217.7","987.0034","14.45","81.9","26.56","0.0"],
    [1397947,"2026-02-05 16:50:00","35527","3.301","227.7","5.684","216.3","987.0241","14.25","82.7","21.11","0.0"],
    [1397948,"2026-02-05 17:00:00","35528","3.175","226.3","6.958","216.7","987.0499","14.15","81.7","12.97","0.0"],
    [1397949,"2026-02-05 17:10:00","35529","3.8080000000000003","223.1","5.913","230.5","987.1894","14.4","78.95","7.024","0.0"],
    [1397950,"2026-02-05 17:20:00","35530","3.907","224.2","6.501","228.4","987.3729","14.0","81.8","1.868","0.0"],
    [1397951,"2026-02-05 17:30:00","35531","3.665","233.7","6.174","217.7","987.6319","14.12","79.08","-1.335","0.0"],
    [1397952,"2026-02-05 17:40:00","35532","3.0580000000000003","231.0","5.815","237.9","987.8919999999999","14.27","76.22","-2.04","0.0"],
    [1397953,"2026-02-05 17:50:00","35533","2.6630000000000003","228.8","4.345","225","988.3826","13.76","79.7","-2.105","0.0"],
    [1397954,"2026-02-05 18:00:00","35534","3.009","232.7","5.031","271.1","988.6254","13.59","81.0","-2.3040000000000003","0.0"],
    [1397955,"2026-02-05 18:10:00","35535","3.985","249.4","9.05","258","988.6651","15.48","57.21","-4.135","0.0"],
    [1397956,"2026-02-05 18:20:00","35536","4.3580000000000005","248.2","9.15","278.6","988.6521","16.62","48.19","-2.5610000000000004","0.1"],
    [1397957,"2026-02-05 18:30:00","35537","3.483","252.4","7.775","277.6","988.8853","16.51","48.26","-1.3659999999999999","0.0"],
    [1397958,"2026-02-05 18:40:00","35538","3.7089999999999996","246.6","8.59","291.2","988.9586","16.61","46.93","-1.6469999999999998","0.0"],
    [1397959,"2026-02-05 18:50:00","35539","2.8689999999999998","246.1","5.292","276.3","988.9496","16.38","47.76","-2.2969999999999997","0.0"],
    [1397960,"2026-02-05 19:00:00","35540","3.181","259.0","6.631","241.1","988.9824","16.15","48.76","-2.739","0.0"],
    [1397961,"2026-02-05 19:10:00","35541","3.8569999999999998","266.5","7.971","275.9","989.1172","16.15","48.29","-2.8110000000000004","0.0"],
    [1397962,"2026-02-05 19:20:00","35542","3.301","272.2","6.729","298.4","989.2873","16.07","48.13","-2.741","0.0"],
    [1397963,"2026-02-05 19:30:00","35543","3.444","266.6","6.827","260.4","989.4679","16.05","47.89","-2.763","0.0"],
    [1397964,"2026-02-05 19:40:00","35544","2.674","254.2","5.749","311.6","989.5198","15.97","48.69","-2.737","0.0"],
    [1397965,"2026-02-05 19:50:00","35545","2.5580000000000003","235.3","4.475","259.1","989.574","15.68","50.0","-2.742","0.0"],
    [1397966,"2026-02-05 20:00:00","35546","2.74","231.7","5.553","242.4","989.6808","15.51","50.55","-2.764","0.0"],
    [1397967,"2026-02-05 20:10:00","35547","2.3040000000000003","234.0","4.671","246.8","989.7447","15.31","51.51","-2.765","0.0"],
    [1397968,"2026-02-05 20:20:00","35548","2.511","238.0","4.541","255.8","989.7758","15.41","50.86","-3.141","0.0"],
    [1397969,"2026-02-05 20:30:00","35549","3.83","229.3","5.815","227.3","990.1652","15.46","50.5","-2.8930000000000002","0.0"],
    [1397970,"2026-02-05 20:40:00","35550","3.408","225.3","5.129","222.5","990.2789","14.82","54.17","-2.123","0.0"],
    [1397971,"2026-02-05 20:50:00","35551","2.888","225.2","4.443","217","990.3601","14.75","54.33","-2.088","0.0"],
    [1397972,"2026-02-05 21:00:00","35552","3.812","218.0","5.684","216.9","990.6017","14.45","57.12","-1.982","0.0"],
    [1397973,"2026-02-05 21:10:00","35553","2.8569999999999998","226.2","4.704","208.8","990.8284","14.49","56.42","-2.641","0.0"],
    [1397974,"2026-02-05 21:20:00","35554","2.501","229.2","4.116","268.5","990.9079","14.7","53.55","-2.9130000000000003","0.0"],
    [1397975,"2026-02-05 21:30:00","35555","3.148","212.1","5.063","219.2","991.1559","14.28","58.9","-2.721","0.0"],
    [1397976,"2026-02-05 21:40:00","35556","2.9419999999999997","226.4","4.508","234","991.2957","14.28","59.03","-2.822","0.0"],
    [1397977,"2026-02-05 21:50:00","35557","2.958","224.0","4.998","201.6","991.3537","14.22","59.12","-2.7539999999999996","0.0"],
    [1397978,"2026-02-05 22:00:00","35558","3.37","220.6","4.541","225.1","991.2441","13.87","61.36","-2.71","0.0"],
    [1397979,"2026-02-05 22:10:00","35559","3.426","216.2","4.998","209.7","991.2073","14.06","59.41","-2.761","0.0"],
    [1397980,"2026-02-05 22:20:00","35560","2.978","215.8","4.769","225.7","991.183","14.0","59.65","-2.8289999999999997","0.0"],
    [1397981,"2026-02-05 22:30:00","35561","2.343","208.4","4.377","203.2","991.3163","14.1","58.4","-2.9210000000000003","0.0"],
    [1397982,"2026-02-05 22:40:00","35562","2.5180000000000002","198.6","4.508","182.6","991.5052","14.44","58.15","-2.9010000000000002","0.0"],
    [1397983,"2026-02-05 22:50:00","35563","3.4160000000000004","204.8","6.141","214.9","991.6859","14.34","60.51","-2.7569999999999997","0.0"],
    [1397984,"2026-02-05 23:00:00","35564","3.4530000000000003","207.7","5.651","228.7","991.7841","13.93","64.89","-2.512","0.0"],
    [1397985,"2026-02-05 23:10:00","35565","3.7889999999999997","214.6","6.337","203.5","991.7917","13.82","64.39","-2.736","0.0"],
    [1397986,"2026-02-05 23:20:00","35566","4.2860000000000005","221.3","7.611","210","991.7819","14.4","58.33","-3.1719999999999997","0.0"],
    [1397987,"2026-02-05 23:30:00","35567","4.93","215.8","8.04","219.6","991.7534","14.67","57.01","-2.8760000000000003","0.0"],
    [1397988,"2026-02-05 23:40:00","35568","4.745","211.8","7.187","209.5","991.8109","14.45","58.3","-2.641","0.0"],
    [1397989,"2026-02-05 23:50:00","35569","4.697","216.0","7.546","215.7","991.9363","14.32","59.97","-2.6439999999999997","0.0"],
    [1397990,"2026-02-06 00:00:00","35570","5.505","219.0","10.94","218.7","991.9403","14.79","55.51","-3.281","0.0"],
    [1397991,"2026-02-06 00:10:00","35571","5.577999999999999","216.9","9.38","218.3","992.1356","15.48","50.73","-2.92","0.0"],
    [1397992,"2026-02-06 00:20:00","35572","5.018","227.6","10.62","215.4","992.4695","15.59","49.82","-2.7710000000000004","0.0"],
    [1397993,"2026-02-06 00:30:00","35573","4.5569999999999995","230.3","8.66","215.9","992.5224","15.84","47.93","-2.6439999999999997","0.0"],
    [1397994,"2026-02-06 00:40:00","35574","4.53","230.9","8.17","216.7","992.5405","15.75","47.86","-2.6919999999999997","0.0"],
    [1397995,"2026-02-06 00:50:00","35575","4.79","230.3","8.79","211.6","992.6057","15.6","48.61","-2.57","0.0"],
    [1397996,"2026-02-06 01:00:00","35576","4.738","230.1","9.96","207.4","992.7358","15.67","46.96","-2.7089999999999996","0.0"],
    [1397997,"2026-02-06 01:10:00","35577","4.408","229.5","8.49","221.4","992.8498","15.4","48.64","-2.455","0.0"],
    [1397998,"2026-02-06 01:20:00","35578","3.614","238.5","7.056","216.9","992.8791","15.34","47.84","-2.623","0.0"],
    [1397999,"2026-02-06 01:30:00","35579","3.195","244.5","7.644","259.6","992.9871","15.23","47.69","-2.7510000000000003","0.0"],
    [1398000,"2026-02-06 01:40:00","35580","3.258","249.3","6.076","259.5","993.0891","15.25","46.91","-2.8289999999999997","0.0"],
    [1398001,"2026-02-06 01:50:00","35581","3.25","253.1","6.37","265.8","993.1313","15.19","46.94","-2.965","0.0"],
    [1398002,"2026-02-06 02:00:00","35582","2.687","241.2","5.031","263.3","993.204","15.14","47.09","-2.7680000000000002","0.0"],
    [1398003,"2026-02-06 02:10:00","35583","2.497","244.7","5.553","255","993.4162","14.81","48.36","-2.7710000000000004","0.0"],
    [1398004,"2026-02-06 02:20:00","35584","2.2359999999999998","235.1","4.475","216.4","993.7231","14.61","49.04","-2.763","0.0"],
    [1398005,"2026-02-06 02:30:00","35585","2.069","270.6","3.365","290.3","993.8775","14.29","50.85","-2.455","0.0"],
    [1398006,"2026-02-06 02:40:00","35586","2.7889999999999997","296.0","3.757","310.8","993.8802","12.7","57.31","-2.602","0.0"],
    [1398007,"2026-02-06 02:50:00","35587","3.7969999999999997","292.6","6.566","286.5","993.7692","13.21","55.8","-2.9730000000000003","0.0"],
    [1398008,"2026-02-06 03:00:00","35588","3.016","297.4","5.749","288.2","993.8937","13.4","55.29","-2.773","0.0"],
    [1398009,"2026-02-06 03:10:00","35589","1.7619999999999998","270.4","4.769","310.1","994.0916","13.15","56.54","-2.838","0.0"],
    [1398010,"2026-02-06 03:20:00","35590","0.5660000000000001","128.5","2.156","221.6","994.3417","12.84","57.5","-3.0260000000000002","0.0"],
    [1398011,"2026-02-06 03:30:00","35591","1.415","110.8","3.397","133.3","994.7183","13.04","56.28","-3.4819999999999998","0.0"],
    [1398012,"2026-02-06 03:40:00","35592","1.975","52.93","4.116","19.51","994.85","13.65","54.7","-3.1069999999999998","0.0"],
    [1398013,"2026-02-06 03:50:00","35593","1.541","19.08","3.038","349.6","994.9808","13.52","55.23","-2.79","0.0"],
    [1398014,"2026-02-06 04:00:00","35594","1.195","89.7","2.352","45.34","995.311","13.66","54.05","-3.1069999999999998","0.0"],
    [1398015,"2026-02-06 04:10:00","35595","1.091","93.8","2.221","92.9","995.5328","12.63","59.08","-2.8569999999999998","0.0"],
    [1398016,"2026-02-06 04:20:00","35596","0.8490000000000001","76.43","2.907","52.86","995.6955","12.91","56.7","-3.188","0.0"],
    [1398017,"2026-02-06 04:30:00","35597","0.879","56.86","2.875","78.31","995.8026","13.99","51.82","-3.165","0.0"],
    [1398018,"2026-02-06 04:40:00","35598","0.7390000000000001","302.4","2.842","297.9","995.9431","12.54","58.01","-2.87","0.0"],
    [1398019,"2026-02-06 04:50:00","35599","1.52","298.1","2.777","316","995.9987","12.51","58.01","-3.031","0.0"],
    [1398020,"2026-02-06 05:00:00","35600","0.8029999999999999","293.6","1.405","270.8","996.0723","12.27","58.48","-2.967","0.0"],
    [1398021,"2026-02-06 05:10:00","35601","1.943","294.5","3.985","303.4","996.1403","12.3","58.63","-3.2739999999999996","0.0"],
    [1398022,"2026-02-06 05:20:00","35602","1.5590000000000002","268.8","3.365","288.5","996.34","12.55","57.75","-2.952","0.0"],
    [1398023,"2026-02-06 05:30:00","35603","1.446","224.5","2.352","214.6","996.5492","12.64","57.59","-2.7769999999999997","0.0"],
    [1398024,"2026-02-06 05:40:00","35604","0.899","200.6","1.993","209.6","996.7282","12.28","59.06","-2.88","0.0"],
    [1398025,"2026-02-06 05:50:00","35605","0.715","321.8","1.927","82.1","996.7908","11.95","60.52","-2.8539999999999996","0.0"],
    [1398026,"2026-02-06 06:00:00","35606","0.564","291.3","1.633","259.3","996.8364","11.25","63.74","-3.052","0.0"],
    [1398027,"2026-02-06 06:10:00","35607","0.868","295.4","1.993","306.7","996.9449","11.39","63.18","-2.7939999999999996","0.0"],
    [1398028,"2026-02-06 06:20:00","35608","0.966","290.2","2.613","300.7","997.0833","11.34","63.52","-2.819","0.0"],
    [1398029,"2026-02-06 06:30:00","35609","2.543","281.1","5.325","277.2","997.2489999999999","11.73","62.31","-3.4019999999999997","0.0"],
    [1398030,"2026-02-06 06:40:00","35610","2.0380000000000003","262.1","4.671","253.4","997.3877","12.47","59.29","-2.696","0.0"],
    [1398031,"2026-02-06 06:50:00","35611","2.858","280.8","5.096","292.1","997.5039999999999","12.39","59.61","-1.636","0.0"],
    [1398032,"2026-02-06 07:00:00","35612","3.5180000000000002","281.6","5.619","302.3","997.5997","12.43","59.36","1.391","0.0"],
    [1398033,"2026-02-06 07:10:00","35613","2.964","272.9","6.207","267.2","997.8003","12.71","58.3","5.797999999999999","0.0"],
    [1398034,"2026-02-06 07:20:00","35614","2.115","273.5","3.855","284.5","998.0609","12.64","58.74","11.03","0.0"],
    [1398035,"2026-02-06 07:30:00","35615","1.383","272.5","3.169","298.3","998.4039","12.51","59.35","16.27","0.0"],
    [1398036,"2026-02-06 07:40:00","35616","1.197","269.7","2.548","274.6","998.5681","12.41","59.76","21.41","0.0"],
    [1398037,"2026-02-06 07:50:00","35617","1.091","267.7","2.646","274.5","998.6306","12.47","59.83","25.59","0.0"],
    [1398038,"2026-02-06 08:00:00","35618","1.17","253.0","2.548","305.1","998.8018","12.66","59.23","29.81","0.0"],
    [1398039,"2026-02-06 08:10:00","35619","1.611","224.2","2.548","260.3","999.0031","12.72","59.05","34.29","0.0"],
    [1398040,"2026-02-06 08:20:00","35620","1.7409999999999999","228.5","3.332","241","999.1025","13.01","57.98","128.8","0.0"],
    [1398041,"2026-02-06 08:30:00","35621","1.66","235.7","2.907","231.6","999.0777","13.51","56.34","206.7","0.0"],
    [1398042,"2026-02-06 08:40:00","35622","2.302","267.5","4.573","269.7","999.2133","14.27","53.42","234.9","0.0"],
    [1398043,"2026-02-06 08:50:00","35623","2.495","299.9","3.887","313.1","999.2919","14.69","53.36","262.7","0.0"],
    [1398044,"2026-02-06 09:00:00","35624","2.505","301.0","4.279","320","999.3035","14.86","52.77","289.7","0.0"],
    [1398045,"2026-02-06 09:10:00","35625","0.9520000000000001","338.7","2.483","9.2","999.5139999999999","15.53","51.6","313.7","0.0"],
    [1398046,"2026-02-06 09:20:00","35626","0.655","30.51","2.385","13.78","999.7133","15.9","50.17","338.9","0.0"],
    [1398047,"2026-02-06 09:30:00","35627","1.1159999999999999","97.2","3.561","83.5","999.8293","15.64","52.33","364.5","0.0"],
    [1398048,"2026-02-06 09:40:00","35628","1.07","48.32","2.45","30.35","999.8975","15.88","50.17","383.4","0.0"],
    [1398049,"2026-02-06 09:50:00","35629","1.666","309.0","3.267","302.9","999.9156","16.35","47.27","412.1","0.0"],
    [1398050,"2026-02-06 10:00:00","35630","2.867","280.2","6.207","296.8","1000.0310000000001","16.54","45.09","349.5","0.0"],
    [1398051,"2026-02-06 10:10:00","35631","4.178","274.7","7.415","270.2","1000.154","16.75","43.49","461.4","0.0"],
    [1398052,"2026-02-06 10:20:00","35632","4.979","282.2","8.53","294.6","1000.063","16.92","43.75","479.8","0.0"],
    [1398053,"2026-02-06 10:30:00","35633","5.53","281.7","9.8","266.5","999.9941","17.04","43.14","499.0","0.0"],
    [1398054,"2026-02-06 10:40:00","35634","5.041","289.1","8.17","302.2","999.9704","17.26","43.47","517.4","0.0"],
    [1398055,"2026-02-06 10:50:00","35635","4.711","279.0","9.15","281.9","1000.0110000000001","17.45","42.38","534.7","0.0"],
    [1398056,"2026-02-06 11:00:00","35636","3.818","257.5","7.709","256.6","1000.072","17.76","41.45","554.8","0.0"],
    [1398057,"2026-02-06 11:10:00","35637","3.503","253.5","7.35","294.4","1000.1460000000001","17.63","41.25","450.4","0.0"],
    [1398058,"2026-02-06 11:20:00","35638","3.5469999999999997","247.8","9.21","243.7","1000.168","17.72","40.3","450.5","0.0"],
    [1398059,"2026-02-06 11:30:00","35639","4.59","265.0","10.06","256.4","1000.1010000000001","17.56","40.09","494.9","0.0"],
    [1398060,"2026-02-06 11:40:00","35640","4.452","270.9","8.43","304.7","1000.049","17.82","39.44","595.8","0.0"],
    [1398061,"2026-02-06 11:50:00","35641","3.633","252.1","7.644","260.5","1000.056","18.0","38.67","573.2","0.0"],
    [1398062,"2026-02-06 12:00:00","35642","3.958","249.1","8.66","271.5","1000.1089999999999","18.22","37.87","606.5","0.0"],
    [1398063,"2026-02-06 12:10:00","35643","3.5869999999999997","253.9","7.807","276.5","1000.1489999999999","18.32","37.65","607.3","0.0"],
    [1398064,"2026-02-06 12:20:00","35644","3.073","262.2","6.893","285.1","1000.132","18.42","37.45","576.3","0.0"],
    [1398065,"2026-02-06 12:30:00","35645","4.048","225.7","6.305","251.5","1000.045","18.25","41.06","581.9","0.0"],
    [1398066,"2026-02-06 12:40:00","35646","4.948","222.5","7.775","219.2","999.9534","17.78","43.39","579.6","0.0"],
    [1398067,"2026-02-06 12:50:00","35647","4.516","218.3","7.383","212.5","999.9843","17.85","42.87","546.4","0.0"],
    [1398068,"2026-02-06 13:00:00","35648","3.928","207.2","6.435","218.1","999.915","17.8","47.03","556.7","0.0"],
    [1398069,"2026-02-06 13:10:00","35649","3.7560000000000002","198.2","7.971","214.6","999.9031","17.16","53.69","533.5","0.0"],
    [1398070,"2026-02-06 13:20:00","35650","4.954","213.5","7.971","214.6","999.9121","17.15","49.74","505.6","0.0"],
    [1398071,"2026-02-06 13:30:00","35651","5.252999999999999","219.7","9.96","205.9","999.9217","17.58","48.13","557.4","0.0"],
    [1398072,"2026-02-06 13:40:00","35652","5.395","223.6","8.85","208.8","999.8869","17.62","45.86","543.7","0.0"],
    [1398073,"2026-02-06 13:50:00","35653","5.106","222.2","7.742","207.8","999.9376","17.88","42.74","504.9","0.0"],
    [1398074,"2026-02-06 14:00:00","35654","4.09","210.9","7.84","222.2","999.9562","17.33","47.52","305.9","0.0"],
    [1398075,"2026-02-06 14:10:00","35655","5.18","220.8","8.26","227.8","999.9616","16.98","47.43","201.3","0.0"],
    [1398076,"2026-02-06 14:20:00","35656","4.68","218.5","7.317","222.6","999.9775","17.02","47.21","247.2","0.0"],
    [1398077,"2026-02-06 14:30:00","35657","5.032","222.2","8.89","219.2","1000.034","17.08","43.77","172.8","0.0"],
    [1398078,"2026-02-06 14:40:00","35658","5.101","225.1","8.23","220.2","1000.075","17.47","42.09","285.8","0.0"],
    [1398079,"2026-02-06 14:50:00","35659","5.303","223.8","8.23","208.7","1000.133","17.32","41.27","149.9","0.0"],
    [1398080,"2026-02-06 15:00:00","35660","5.127000000000001","223.9","8.82","224.8","1000.182","17.46","40.32","261.7","0.0"],
    [1398081,"2026-02-06 15:10:00","35661","4.881","218.9","7.971","202","1000.215","17.27","42.71","292.2","0.0"],
    [1398082,"2026-02-06 15:20:00","35662","4.666","222.3","7.677","221.8","1000.2689999999999","17.45","43.89","345.0","0.0"],
    [1398083,"2026-02-06 15:30:00","35663","4.6339999999999995","224.5","7.807","226.4","1000.36","17.37","44.06","309.6","0.0"],
    [1398084,"2026-02-06 15:40:00","35664","4.812","222.5","8.04","230.1","1000.431","17.09","47.84","163.6","0.0"],
    [1398085,"2026-02-06 15:50:00","35665","4.736000000000001","216.2","7.775","217.3","1000.5989999999999","16.17","57.6","158.3","0.0"],
    [1398086,"2026-02-06 16:00:00","35666","3.782","210.5","6.37","208","1000.696","15.82","60.45","138.8","0.0"],
    [1398087,"2026-02-06 16:10:00","35667","3.056","206.8","5.096","229","1000.7360000000001","15.61","64.93","155.9","0.0"],
    [1398088,"2026-02-06 16:20:00","35668","3.215","217.6","5.619","205.9","1000.701","15.13","72.06","130.6","0.0"],
    [1398089,"2026-02-06 16:30:00","35669","3.266","223.3","5.357","214.7","1000.5930000000001","14.74","73.26","68.27","0.0"],
    [1398090,"2026-02-06 16:40:00","35670","3.674","222.4","5.619","220.6","1000.579","14.72","69.75","28.83","0.0"],
    [1398091,"2026-02-06 16:50:00","35671","2.668","229.1","5.292","222.9","1000.623","14.63","69.25","20.69","0.0"],
    [1398092,"2026-02-06 17:00:00","35672","2.275","228.9","3.593","224.1","1000.6060000000001","14.48","69.38","14.84","0.0"],
    [1398093,"2026-02-06 17:10:00","35673","3.053","225.0","4.933","214.3","1000.612","14.42","68.3","7.01","0.0"],
    [1398094,"2026-02-06 17:20:00","35674","3.512","225.5","6.86","212.2","1000.658","14.42","66.97","1.294","0.0"],
    [1398095,"2026-02-06 17:30:00","35675","1.8869999999999998","230.3","3.92","232.4","1000.676","14.29","66.91","-1.4280000000000002","0.0"],
    [1398096,"2026-02-06 17:40:00","35676","1.159","235.8","2.058","227.7","1000.7360000000001","13.86","68.54","-2.886","0.0"],
    [1398097,"2026-02-06 17:50:00","35677","1.453","232.0","2.319","210.7","1000.795","13.79","67.97","-2.83","0.0"],
    [1398098,"2026-02-06 18:00:00","35678","0.8170000000000001","276.9","1.731","259.1","1000.7510000000001","13.53","69.01","-2.853","0.0"],
    [1398099,"2026-02-06 18:10:00","35679","0.397","257.3","1.437","244.3","1000.7560000000001","12.85","71.9","-3.543","0.0"],
    [1398100,"2026-02-06 18:20:00","35680","0.603","255.0","1.437","240.9","1000.872","13.03","70.03","-3.011","0.0"],
    [1398101,"2026-02-06 18:30:00","35681","0.34700000000000003","234.0","0.849","231.6","1000.9810000000001","12.85","69.82","-2.945","0.0"],
    [1398102,"2026-02-06 18:40:00","35682","1.555","200.7","3.136","204.1","1001.0260000000001","13.1","67.74","-3.6039999999999996","0.0"],
    [1398103,"2026-02-06 18:50:00","35683","1.45","219.0","3.397","218.2","1001.0060000000001","13.21","66.81","-2.9560000000000004","0.0"],
    [1398104,"2026-02-06 19:00:00","35684","2.5380000000000003","214.3","5.227","221.8","1001.135","13.27","68.34","-2.977","0.0"],
    [1398105,"2026-02-06 19:10:00","35685","2.316","219.9","4.508","200","1001.1460000000001","13.23","72.71","-2.819","0.0"],
    [1398106,"2026-02-06 19:20:00","35686","2.206","216.6","5.847","222.1","1001.13","13.08","76.59","-2.8569999999999998","0.0"],
    [1398107,"2026-02-06 19:30:00","35687","1.703","263.8","4.998","218","1001.076","12.73","79.76","-2.761","0.0"],
    [1398108,"2026-02-06 19:40:00","35688","1.0170000000000001","250.3","1.764","245.2","1000.9830000000001","12.03","80.8","-3.077","0.0"],
    [1398109,"2026-02-06 19:50:00","35689","0.922","218.0","1.503","228.5","1000.799","12.14","80.8","-2.8560000000000003","0.0"],
    [1398110,"2026-02-06 20:00:00","35690","1.4080000000000001","231.4","3.43","210.4","1000.7360000000001","12.32","78.42","-2.915","0.0"],
    [1398111,"2026-02-06 20:10:00","35691","1.094","257.6","1.731","278.9","1000.7669999999999","12.02","78.83","-2.7569999999999997","0.0"],
    [1398112,"2026-02-06 20:20:00","35692","1.256","257.0","2.809","204.9","1000.793","11.92","79.79","-2.7230000000000003","0.0"],
    [1398113,"2026-02-06 20:30:00","35693","1.089","249.3","1.666","229.2","1000.847","11.66","81.9","-2.5610000000000004","0.0"],
    [1398114,"2026-02-06 20:40:00","35694","1.492","231.9","2.352","226","1000.938","12.25","81.4","-2.562","0.0"],
    [1398115,"2026-02-06 20:50:00","35695","1.073","232.7","1.699","279.1","1000.919","12.13","81.3","-2.63","0.0"],
    [1398116,"2026-02-06 21:00:00","35696","1.228","272.4","2.091","241.4","1000.872","11.78","78.96","-2.309","0.0"],
    [1398117,"2026-02-06 21:10:00","35697","0.888","300.9","1.633","296.2","1000.783","10.75","80.7","-2.501","0.0"],
    [1398118,"2026-02-06 21:20:00","35698","0.6890000000000001","283.7","1.241","284.1","1000.7360000000001","10.6","78.26","-2.213","0.0"],
    [1398119,"2026-02-06 21:30:00","35699","0.998","287.4","1.731","279.6","1000.698","10.53","74.73","-2.049","0.0"],
    [1398120,"2026-02-06 21:40:00","35700","1.1520000000000001","304.9","1.568","314.4","1000.6619999999999","10.42","73.72","-2.252","0.0"],
    [1398121,"2026-02-06 21:50:00","35701","0.7759999999999999","318.3","1.437","328.9","1000.577","10.04","75.33","-2.253","0.0"],
    [1398122,"2026-02-06 22:00:00","35702","0.066","345.2","1.143","346.7","1000.545","10.75","71.91","-1.9269999999999998","0.0"],
    [1398123,"2026-02-06 22:10:00","35703","1.075","225.8","1.895","226.9","1000.6030000000001","11.31","68.69","-2.0709999999999997","0.0"],
    [1398124,"2026-02-06 22:20:00","35704","1.505","201.2","2.515","212.5","1000.8389999999999","11.34","68.48","-2.036","0.0"],
    [1398125,"2026-02-06 22:30:00","35705","1.195","201.4","2.287","210.6","1000.9860000000001","10.89","72.23","-2.388","0.0"],
    [1398126,"2026-02-06 22:40:00","35706","1.48","220.2","2.613","220","1001.005","10.69","71.12","-2.12","0.0"],
    [1398127,"2026-02-06 22:50:00","35707","1.719","242.9","3.136","251.9","1001.137","10.74","69.54","-1.975","0.0"],
    [1398128,"2026-02-06 23:00:00","35708","2.354","287.2","4.312","296","1001.1560000000001","10.74","69.43","-1.825","0.0"],
    [1398129,"2026-02-06 23:10:00","35709","1.952","292.4","3.626","298.4","1001.076","11.08","67.43","-1.956","0.0"],
    [1398130,"2026-02-06 23:20:00","35710","1.705","267.4","3.201","276.2","1001.177","11.18","66.68","-2.128","0.0"],
    [1398131,"2026-02-06 23:30:00","35711","1.7480000000000002","268.2","3.593","257.4","1001.169","11.24","65.95","-2.6630000000000003","0.0"],
    [1398132,"2026-02-06 23:40:00","35712","2.229","266.7","4.181","278.8","1001.085","11.61","63.48","-2.742","0.0"],
    [1398133,"2026-02-06 23:50:00","35713","2.21","277.3","4.443","306.5","1001.158","11.9","61.61","-2.7510000000000003","0.0"],
    [1398134,"2026-02-07 00:00:00","35714","3.5069999999999997","298.7","5.521","293.6","1001.2080000000001","11.85","62.26","-2.5469999999999997","0.0"],
    [1398135,"2026-02-07 00:10:00","35715","3.588","297.9","6.599","301.5","1001.252","11.93","62.15","-2.2359999999999998","0.0"],
    [1398136,"2026-02-07 00:20:00","35716","3.485","283.2","5.292","280.8","1001.2560000000001","11.77","62.49","-2.71","0.0"],
    [1398137,"2026-02-07 00:30:00","35717","3.597","271.3","6.762","279.6","1001.2710000000001","11.98","61.48","-2.78","0.0"],
    [1398138,"2026-02-07 00:40:00","35718","2.821","244.1","5.357","282.3","1001.302","12.04","61.14","-2.759","0.0"],
    [1398139,"2026-02-07 00:50:00","35719","2.653","235.3","4.606","250.5","1001.4010000000001","11.82","61.65","-2.762","0.0"],
    [1398140,"2026-02-07 01:00:00","35720","2.334","244.1","4.9","249.2","1001.467","11.71","62.13","-2.761","0.0"],
    [1398141,"2026-02-07 01:10:00","35721","2.293","255.3","4.377","288.3","1001.613","11.53","63.02","-2.766","0.0"],
    [1398142,"2026-02-07 01:20:00","35722","2.3369999999999997","265.6","4.606","278.2","1001.7310000000001","11.62","62.08","-2.775","0.0"],
    [1398143,"2026-02-07 01:30:00","35723","2.254","262.0","6.109","267","1001.753","11.67","61.4","-2.887","0.0"],
    [1398144,"2026-02-07 01:40:00","35724","2.265","242.8","4.345","256.9","1001.82","11.75","60.66","-2.803","0.0"],
    [1398145,"2026-02-07 01:50:00","35725","2.641","230.0","4.443","213.6","1001.995","11.61","61.11","-2.765","0.0"],
    [1398146,"2026-02-07 02:00:00","35726","2.484","226.8","4.149","272.9","1002.2280000000001","11.36","62.35","-2.761","0.0"],
    [1398147,"2026-02-07 02:10:00","35727","1.6019999999999999","208.9","3.071","222.7","1002.268","10.97","64.27","-2.781","0.0"],
    [1398148,"2026-02-07 02:20:00","35728","1.416","212.8","2.94","241.6","1002.299","10.64","65.74","-2.883","0.0"],
    [1398149,"2026-02-07 02:30:00","35729","1.443","244.1","3.397","262.7","1002.291","10.55","65.95","-2.937","0.0"],
    [1398150,"2026-02-07 02:40:00","35730","1.062","237.6","2.091","280.8","1002.3430000000001","10.43","66.3","-2.878","0.0"],
    [1398151,"2026-02-07 02:50:00","35731","1.435","237.6","2.842","222.9","1002.398","10.33","66.79","-2.9410000000000003","0.0"],
    [1398152,"2026-02-07 03:00:00","35732","1.402","228.8","3.071","211.5","1002.5110000000001","10.55","65.7","-2.8680000000000003","0.0"],
    [1398153,"2026-02-07 03:10:00","35733","0.943","234.0","1.895","213","1002.586","10.47","65.7","-2.799","0.0"],
    [1398154,"2026-02-07 03:20:00","35734","1.278","222.3","2.123","220.2","1002.6360000000001","10.29","66.15","-2.9010000000000002","0.0"],
    [1398155,"2026-02-07 03:30:00","35735","1.6680000000000001","242.1","3.495","262.6","1002.561","10.1","67.67","-2.989","0.0"],
    [1398156,"2026-02-07 03:40:00","35736","1.692","248.6","3.299","253","1002.467","10.47","66.23","-2.82","0.0"],
    [1398157,"2026-02-07 03:50:00","35737","1.355","239.1","2.352","251.7","1002.69","10.46","66.09","-2.7680000000000002","0.0"],
    [1398158,"2026-02-07 04:00:00","35738","1.81","225.9","2.809","222","1002.824","10.33","66.66","-2.767","0.0"],
    [1398159,"2026-02-07 04:10:00","35739","1.26","198.5","2.189","221.5","1003.0039999999999","10.19","67.41","-2.614","0.0"],
    [1398160,"2026-02-07 04:20:00","35740","1.169","213.0","2.091","179.2","1003.091","9.94","68.53","-2.5980000000000003","0.0"],
    [1398161,"2026-02-07 04:30:00","35741","1.643","229.1","2.809","226.9","1003.061","10.13","67.56","-2.722","0.0"],
    [1398162,"2026-02-07 04:40:00","35742","1.985","225.9","2.842","230.7","1003.1560000000001","10.5","65.54","-2.394","0.0"],
    [1398163,"2026-02-07 04:50:00","35743","1.1420000000000001","243.0","1.764","229.6","1003.23","10.48","64.89","-2.414","0.0"],
    [1398164,"2026-02-07 05:00:00","35744","1.094","268.4","1.862","296.2","1003.2130000000001","10.37","64.96","-2.267","0.0"],
    [1398165,"2026-02-07 05:10:00","35745","1.86","249.6","3.822","229.3","1003.16","10.09","66.11","-2.742","0.0"],
    [1398166,"2026-02-07 05:20:00","35746","2.696","228.4","4.671","244.5","1003.159","11.03","59.36","-2.822","0.0"],
    [1398167,"2026-02-07 05:30:00","35747","2.559","230.3","4.312","226.8","1003.265","11.17","55.8","-2.5989999999999998","0.0"],
    [1398168,"2026-02-07 05:40:00","35748","3.02","230.3","5.488","246.4","1003.184","11.53","52.87","-2.715","0.0"],
    [1398169,"2026-02-07 05:50:00","35749","2.465","241.0","4.279","243.3","1003.1519999999999","11.38","53.56","-2.445","0.0"],
    [1398170,"2026-02-07 06:00:00","35750","2.96","235.5","5.357","249.7","1003.308","11.31","52.92","-2.698","0.0"],
    [1398171,"2026-02-07 06:10:00","35751","3.04","237.2","5.586","245.8","1003.4119999999999","11.29","53.17","-2.7510000000000003","0.0"],
    [1398172,"2026-02-07 06:20:00","35752","2.253","243.3","4.9","249","1003.492","11.13","54.69","-2.4419999999999997","0.0"],
    [1398173,"2026-02-07 06:30:00","35753","2.439","240.4","6.011","225.2","1003.555","11.1","55.11","-2.571","0.0"],
    [1398174,"2026-02-07 06:40:00","35754","1.709","238.1","3.071","267.4","1003.584","11.07","55.49","-2.14","0.0"],
    [1398175,"2026-02-07 06:50:00","35755","1.883","244.3","3.757","230.7","1003.677","10.89","56.86","-0.01","0.0"],
    [1398176,"2026-02-07 07:00:00","35756","2.256","236.1","4.573","254.7","1003.678","10.82","57.07","5.615","0.0"],
    [1398177,"2026-02-07 07:10:00","35757","2.408","277.3","4.933","291.8","1003.6519999999999","10.85","57.23","8.71","0.0"],
    [1398178,"2026-02-07 07:20:00","35758","2.158","293.4","4.083","284.5","1003.6419999999999","10.33","59.02","13.24","0.0"],
    [1398179,"2026-02-07 07:30:00","35759","2.262","295.7","3.659","306.2","1003.693","10.43","57.45","15.58","0.0"],
    [1398180,"2026-02-07 07:40:00","35760","1.564","288.0","2.973","289.2","1003.7869999999999","10.91","53.71","20.12","0.0"],
    [1398181,"2026-02-07 07:50:00","35761","0.86","328.4","2.385","271.1","1004.0830000000001","10.65","55.0","24.27","0.0"],
    [1398182,"2026-02-07 08:00:00","35762","0.9079999999999999","308.1","1.927","325.5","1004.346","10.68","54.3","28.11","0.0"],
    [1398183,"2026-02-07 08:10:00","35763","0.059000000000000004","292.3","1.209","311.9","1004.4630000000001","10.78","52.89","35.3","0.0"],
    [1398184,"2026-02-07 08:20:00","35764","0.6579999999999999","268.0","1.829","275.3","1004.6289999999999","11.23","52.14","161.0","0.0"],
    [1398185,"2026-02-07 08:30:00","35765","1.713","288.2","3.789","314","1004.6569999999999","12.02","50.35","225.8","0.0"],
    [1398186,"2026-02-07 08:40:00","35766","2.14","271.1","5.194","295.3","1004.682","12.57","46.22","251.0","0.0"],
    [1398187,"2026-02-07 08:50:00","35767","2.8819999999999997","290.6","4.573","314.6","1004.8660000000001","12.78","45.44","274.5","0.0"],
    [1398188,"2026-02-07 09:00:00","35768","1.483","233.7","3.43","271.8","1005.084","13.18","44.04","301.2","0.0"],
    [1398189,"2026-02-07 09:10:00","35769","1.35","262.3","3.92","290.1","1005.295","13.38","44.14","327.5","0.0"],
    [1398190,"2026-02-07 09:20:00","35770","4.2669999999999995","293.6","9.24","305.8","1005.3919999999999","13.47","42.89","355.3","0.0"],
    [1398191,"2026-02-07 09:30:00","35771","5.048","286.6","7.971","283.5","1005.669","13.42","42.98","381.2","0.0"],
    [1398192,"2026-02-07 09:40:00","35772","2.917","277.5","6.305","290.9","1005.826","13.71","42.75","403.6","0.0"],
    [1398193,"2026-02-07 09:50:00","35773","2.918","247.3","6.305","264.2","1005.96","13.96","41.15","426.7","0.0"],
    [1398194,"2026-02-07 10:00:00","35774","4.022","256.3","8.3","266.5","1006.1080000000001","14.1","40.38","449.1","0.0"],
    [1398195,"2026-02-07 10:10:00","35775","3.875","264.5","8.43","280.8","1006.196","14.26","39.52","470.1","0.0"],
    [1398196,"2026-02-07 10:20:00","35776","4.332","276.0","7.807","269.4","1006.301","14.5","39.78","489.9","0.0"],
    [1398197,"2026-02-07 10:30:00","35777","4.074","269.6","8.75","255.2","1006.451","14.65","39.3","511.4","0.0"],
    [1398198,"2026-02-07 10:40:00","35778","3.412","268.8","9.08","289.3","1006.6039999999999","14.99","38.62","558.1","0.0"],
    [1398199,"2026-02-07 10:50:00","35779","6.162000000000001","291.3","9.93","284.2","1006.692","14.85","38.79","589.9","0.0"],
    [1398200,"2026-02-07 11:00:00","35780","3.9589999999999996","272.3","8","281.4","1006.705","14.85","38.69","366.0","0.0"],
    [1398201,"2026-02-07 11:10:00","35781","3.839","246.3","8.2","256.8","1006.7739999999999","14.82","37.81","530.9","0.0"],
    [1398202,"2026-02-07 11:20:00","35782","5.3660000000000005","285.9","9.38","297.7","1006.809","14.89","38.33","581.3","0.0"],
    [1398203,"2026-02-07 11:30:00","35783","4.19","273.5","7.905","290.2","1006.6260000000001","15.06","38.15","578.3","0.0"],
    [1398204,"2026-02-07 11:40:00","35784","5.563","290.8","9.21","294.8","1006.605","15.21","37.89","582.4","0.0"],
    [1398205,"2026-02-07 11:50:00","35785","5.662999999999999","285.7","10.26","282.4","1006.725","15.24","37.47","585.6","0.0"],
    [1398206,"2026-02-07 12:00:00","35786","5.95","291.3","11.24","298.4","1006.783","15.49","36.75","587.2","0.0"],
    [1398207,"2026-02-07 12:10:00","35787","4.53","260.9","9.05","261.9","1006.7719999999999","15.7","35.16","589.8","0.0"],
    [1398208,"2026-02-07 12:20:00","35788","5.162000000000001","286.7","9.9","276.7","1006.682","15.94","35.72","588.9","0.0"],
    [1398209,"2026-02-07 12:30:00","35789","5.0089999999999995","287.1","7.807","283","1006.633","15.72","35.55","586.6","0.0"],
    [1398210,"2026-02-07 12:40:00","35790","4.837","284.0","8.66","311.2","1006.4839999999999","15.87","35.75","583.4","0.0"],
    [1398211,"2026-02-07 12:50:00","35791","4.172","246.4","8.36","230.9","1006.3710000000001","15.86","34.89","575.3","0.0"],
    [1398212,"2026-02-07 13:00:00","35792","5.76","290.8","9.93","299.8","1006.301","15.91","36.01","571.2","0.0"],
    [1398213,"2026-02-07 13:10:00","35793","5.394","289.3","10.36","286.3","1006.172","15.96","36.15","561.3","0.0"],
    [1398214,"2026-02-07 13:20:00","35794","6.037999999999999","285.1","10.45","303.4","1006.1389999999999","15.88","36.12","552.5","0.0"],
    [1398215,"2026-02-07 13:30:00","35795","5.755","285.7","9.51","253.9","1006.0419999999999","15.71","36.14","539.9","0.0"],
    [1398216,"2026-02-07 13:40:00","35796","5.655","292.3","10.58","307.7","1006.097","15.87","35.8","525.0","0.0"],
    [1398217,"2026-02-07 13:50:00","35797","4.657","292.4","7.873","301.2","1006.0160000000001","16.19","35.84","508.7","0.0"],
    [1398218,"2026-02-07 14:00:00","35798","5.775","301.7","9.18","308","1005.9839999999999","16.08","36.68","492.1","0.0"],
    [1398219,"2026-02-07 14:10:00","35799","5.101","299.0","8.95","311.8","1006.1210000000001","16.2","36.19","472.7","0.0"],
    [1398220,"2026-02-07 14:20:00","35800","4.768","276.6","9.31","309.1","1006.115","16.08","35.69","452.7","0.0"],
    [1398221,"2026-02-07 14:30:00","35801","4.2780000000000005","278.9","8.23","270.3","1006.092","16.17","35.65","430.8","0.0"],
    [1398222,"2026-02-07 14:40:00","35802","4.419","270.0","8.17","254.5","1006.1189999999999","15.81","35.3","407.3","0.0"],
    [1398223,"2026-02-07 14:50:00","35803","4.228","259.4","8.43","298.6","1006.0419999999999","16.14","35.77","378.3","0.0"],
    [1398224,"2026-02-07 15:00:00","35804","3.877","241.5","7.873","264.5","1006.237","16.09","35.29","363.0","0.0"],
    [1398225,"2026-02-07 15:10:00","35805","3.435","242.9","7.121","235.7","1006.3589999999999","16.18","35.57","345.9","0.0"],
    [1398226,"2026-02-07 15:20:00","35806","3.449","243.2","6.174","237.3","1006.171","16.19","36.69","307.1","0.0"],
    [1398227,"2026-02-07 15:30:00","35807","4.056","228.5","7.317","230.2","1006.118","16.1","37.17","275.2","0.0"],
    [1398228,"2026-02-07 15:40:00","35808","3.3510000000000004","233.2","6.893","214","1006.298","15.91","37.37","226.8","0.0"],
    [1398229,"2026-02-07 15:50:00","35809","4.113","230.5","8.17","252.7","1006.5269999999999","15.74","36.61","185.2","0.0"],
    [1398230,"2026-02-07 16:00:00","35810","5.145","225.3","8.2","207.4","1006.6569999999999","15.19","43.08","124.7","0.0"],
    [1398231,"2026-02-07 16:10:00","35811","4.635","227.5","7.677","224.4","1006.602","14.59","48.57","78.82","0.0"],
    [1398232,"2026-02-07 16:20:00","35812","5.473","225.6","9.34","228.5","1006.503","14.16","51.56","54.75","0.0"],
    [1398233,"2026-02-07 16:30:00","35813","5.986000000000001","224.6","9.96","215.3","1006.579","13.69","57.96","44.3","0.0"],
    [1398234,"2026-02-07 16:40:00","35814","5.841","222.7","9.87","218","1006.673","13.45","62.69","33.83","0.0"],
    [1398235,"2026-02-07 16:50:00","35815","4.935","224.1","7.84","217.3","1006.791","13.37","63.45","25.86","0.0"],
    [1398236,"2026-02-07 17:00:00","35816","5.0680000000000005","226.2","8.98","222.1","1006.6510000000001","13.3","62.96","15.81","0.0"],
    [1398237,"2026-02-07 17:10:00","35817","3.446","231.4","6.174","224.7","1006.375","13.12","65.67","6.236000000000001","0.0"],
    [1398238,"2026-02-07 17:20:00","35818","3.055","230.3","5.815","215.8","1006.529","12.95","67.25","0.8959999999999999","0.0"],
    [1398239,"2026-02-07 17:30:00","35819","3.0989999999999998","228.5","5.455","206.9","1006.6460000000001","12.92","65.16","-1.483","0.0"],
    [1398240,"2026-02-07 17:40:00","35820","2.463","234.0","4.508","248.6","1006.492","12.8","64.4","-2.485","0.0"],
    [1398241,"2026-02-07 17:50:00","35821","2.374","229.7","4.181","241.3","1006.437","12.63","65.04","-2.747","0.0"],
    [1398242,"2026-02-07 18:00:00","35822","2.345","234.2","4.181","211.7","1006.5989999999999","12.66","64.17","-2.3609999999999998","0.0"],
    [1398243,"2026-02-07 18:10:00","35823","1.979","234.9","3.593","250.6","1006.4630000000001","12.54","64.58","-2.2159999999999997","0.0"],
    [1398244,"2026-02-07 18:20:00","35824","1.8259999999999998","237.7","3.953","252.1","1006.5160000000001","12.39","64.0","-2.298","0.0"],
    [1398245,"2026-02-07 18:30:00","35825","1.768","231.5","3.071","239.7","1006.5980000000001","12.25","63.06","-2.524","0.0"],
    [1398246,"2026-02-07 18:40:00","35826","1.8259999999999998","232.4","3.463","254.8","1006.467","12.07","63.76","-2.758","0.0"],
    [1398247,"2026-02-07 18:50:00","35827","1.8780000000000001","228.3","2.94","240.9","1006.546","11.89","64.75","-2.766","0.0"],
    [1398248,"2026-02-07 19:00:00","35828","1.31","235.2","2.45","236.4","1006.555","11.83","64.91","-2.784","0.0"],
    [1398249,"2026-02-07 19:10:00","35829","1.265","250.0","2.352","279.9","1006.352","11.76","65.04","-2.779","0.0"],
    [1398250,"2026-02-07 19:20:00","35830","1.062","268.8","2.777","269.5","1006.2669999999999","11.36","66.5","-2.634","0.0"],
    [1398251,"2026-02-07 19:30:00","35831","0.5379999999999999","298.4","1.176","284.7","1006.27","10.58","69.71","-2.638","0.0"],
    [1398252,"2026-02-07 19:40:00","35832","0.124","266.7","1.013","255.1","1006.2189999999999","10.67","69.17","-2.006","0.0"],
    [1398253,"2026-02-07 19:50:00","35833","0.441","244.3","1.111","241.6","1006.209","11.29","66.31","-1.361","0.0"],
    [1398254,"2026-02-07 20:00:00","35834","0.003","259.2","0.131","259.2","1006.0239999999999","11.18","67.89","-1.261","0.0"],
    [1398255,"2026-02-07 20:10:00","35835","0.003","256.9","0.098","256.9","1005.967","11.25","66.38","-1.261","0.0"],
    [1398256,"2026-02-07 20:20:00","35836","0.0","0.0","0","0","1005.845","11.12","68.85","-1.262","0.0"],
    [1398257,"2026-02-07 20:30:00","35837","0.0","0.0","0","0","1005.8639999999999","11.22","66.72","-1.266","0.0"],
    [1398258,"2026-02-07 20:40:00","35838","0.003","244.1","0.065","244.1","1005.7719999999999","11.38","65.73","-1.26","0.0"],
    [1398259,"2026-02-07 20:50:00","35839","0.0","244.0","0.033","244","1005.783","11.23","66.42","-1.261","0.0"],
    [1398260,"2026-02-07 21:00:00","35840","0.23399999999999999","209.5","1.666","204.2","1005.553","11.65","63.67","-1.272","0.0"],
    [1398261,"2026-02-07 21:10:00","35841","0.003","219.9","0.098","222.7","1005.5189999999999","11.58","64.1","-1.5619999999999998","0.0"],
    [1398262,"2026-02-07 21:20:00","35842","0.154","197.7","1.013","181.5","1005.595","11.41","65.42","-1.449","0.0"],
    [1398263,"2026-02-07 21:30:00","35843","0.0","0.0","0","0","1005.523","11.0","68.74","-1.285","0.0"],
    [1398264,"2026-02-07 21:40:00","35844","0.603","311.3","1.209","278.9","1005.3560000000001","10.67","70.04","-1.263","0.0"],
    [1398265,"2026-02-07 21:50:00","35845","0.889","264.4","1.829","274.8","1005.4169999999999","11.14","65.24","-1.281","0.0"],
    [1398266,"2026-02-07 22:00:00","35846","0.38799999999999996","298.7","1.078","314.2","1005.372","11.31","64.67","-1.261","0.0"],
    [1398267,"2026-02-07 22:10:00","35847","0.5329999999999999","283.8","1.209","294.1","1005.232","10.98","67.92","-1.6030000000000002","0.0"],
    [1398268,"2026-02-07 22:20:00","35848","0.09699999999999999","266.7","0.653","246.9","1005.087","10.8","68.8","-2.026","0.0"],
    [1398269,"2026-02-07 22:30:00","35849","0.6829999999999999","276.9","1.372","287","1004.992","10.75","70.74","-1.307","0.0"],
    [1398270,"2026-02-07 22:40:00","35850","0.426","255.7","1.47","218.7","1004.8839999999999","10.64","70.49","-1.255","0.0"],
    [1398271,"2026-02-07 22:50:00","35851","0.451","250.2","1.274","236.1","1004.788","10.88","70.51","-1.189","0.0"],
    [1398272,"2026-02-07 23:00:00","35852","0.7090000000000001","256.8","1.307","247.6","1004.716","11.04","71.44","-1.673","0.0"],
    [1398273,"2026-02-07 23:10:00","35853","0.7340000000000001","243.1","2.646","252.9","1004.6260000000001","11.25","73.62","-3.0589999999999997","0.0"],
    [1398274,"2026-02-07 23:20:00","35854","0.846","272.2","1.731","272.8","1004.4060000000001","11.05","73.41","-3.0860000000000003","0.0"],
    [1398275,"2026-02-07 23:30:00","35855","1.078","279.8","1.927","276.3","1004.202","10.87","74.89","-2.8989999999999996","0.0"],
    [1398276,"2026-02-07 23:40:00","35856","1.169","281.9","1.797","285.7","1004.067","10.95","76.1","-2.476","0.0"],
    [1398277,"2026-02-07 23:50:00","35857","0.624","295.4","1.176","292.2","1003.7239999999999","10.69","77.84","-2.066","0.0"],
    [1398278,"2026-02-08 00:00:00","35858","0.812","306.9","1.437","304.5","1003.4680000000001","10.64","78.81","-1.787","0.0"],
    [1398279,"2026-02-08 00:10:00","35859","0.649","297.9","1.437","311.7","1003.181","10.6","80.4","-1.507","0.0"],
    [1398280,"2026-02-08 00:20:00","35860","0.183","247.1","0.849","239.2","1003.0110000000001","10.87","78.42","-1.499","0.0"],
    [1398281,"2026-02-08 00:30:00","35861","0.048","278.6","1.111","11.62","1002.7330000000001","10.91","78.09","-1.694","0.0"],
    [1398282,"2026-02-08 00:40:00","35862","0.607","9.99","1.176","16.15","1002.39","10.8","79.16","-2.157","0.0"],
    [1398283,"2026-02-08 00:50:00","35863","0.266","296.0","2.352","286","1002.316","10.65","80.2","-2.207","0.0"],
    [1398284,"2026-02-08 01:00:00","35864","0.114","188.3","1.535","199.9","1002.293","10.64","81.6","-1.899","0.5"],
    [1398285,"2026-02-08 01:10:00","35865","0.878","246.7","2.679","275.2","1002.0989999999999","10.71","82.3","-1.611","0.6"],
    [1398286,"2026-02-08 01:20:00","35866","0.051","146.0","0.686","129.9","1001.905","10.4","85.3","-1.263","0.7"],
    [1398287,"2026-02-08 01:30:00","35867","0.802","110.9","2.352","116","1001.737","10.39","86.5","-1.261","0.0"],
    [1398288,"2026-02-08 01:40:00","35868","0.92","93.3","2.156","91.6","1001.418","10.36","87.6","-0.946","0.1"],
    [1398289,"2026-02-08 01:50:00","35869","0.212","277.4","1.535","254.3","1001.4860000000001","9.86","89.3","-0.713","0.0"],
    [1398290,"2026-02-08 02:00:00","35870","0.46799999999999997","284.6","2.548","265.4","1001.3689999999999","9.51","89.4","-0.789","0.0"],
    [1398291,"2026-02-08 02:10:00","35871","0.81","327.6","1.797","30.46","1001.1139999999999","9.24","90.4","-1.2830000000000001","0.0"],
    [1398292,"2026-02-08 02:20:00","35872","1.995","50.25","3.234","67.64","1000.7080000000001","9.86","92.3","-1.821","0.0"],
    [1398293,"2026-02-08 02:30:00","35873","1.9980000000000002","299.5","3.495","278.5","1001.078","9.7","91.5","-1.129","0.0"],
    [1398294,"2026-02-08 02:40:00","35874","2.3930000000000002","307.7","3.201","298.1","1001.079","9.0","91.1","-1.052","0.0"],
    [1398295,"2026-02-08 02:50:00","35875","1.3090000000000002","303.3","2.515","306.8","1000.855","9.03","90.7","-1.311","0.0"],
    [1398296,"2026-02-08 03:00:00","35876","0.736","313.8","2.025","257.1","1000.627","8.92","90.6","-1.771","0.0"],
    [1398297,"2026-02-08 03:10:00","35877","0.78","295.2","1.437","291.4","1000.405","8.54","90.9","-2.134","0.0"],
    [1398298,"2026-02-08 03:20:00","35878","0.991","282.6","1.993","281","1000.2560000000001","8.37","91.3","-2.176","0.0"],
    [1398299,"2026-02-08 03:30:00","35879","1.06","290.7","1.895","291.4","1000.0310000000001","8.27","90.9","-1.9369999999999998","0.0"],
    [1398300,"2026-02-08 03:40:00","35880","1.6230000000000002","294.8","2.907","292.9","999.91","8.09","90.9","-2.075","0.0"],
    [1398301,"2026-02-08 03:50:00","35881","1.7480000000000002","297.2","2.875","313.8","999.98","8.08","90.8","-1.804","0.0"],
    [1398302,"2026-02-08 04:00:00","35882","1.919","285.6","3.103","283.3","1000.046","8.2","89.9","-1.636","0.0"],
    [1398303,"2026-02-08 04:10:00","35883","2.697","290.0","3.659","285","1000.038","8.28","88.5","-1.2770000000000001","0.0"],
    [1398304,"2026-02-08 04:20:00","35884","1.786","291.2","2.842","308.1","999.9714","8.34","88.0","-1.245","0.0"],
    [1398305,"2026-02-08 04:30:00","35885","2.222","290.3","3.626","287.2","999.9135","8.31","87.6","-1.3","0.0"],
    [1398306,"2026-02-08 04:40:00","35886","2.4730000000000003","296.6","3.887","280.3","999.8549","8.15","87.4","-1.62","0.0"],
    [1398307,"2026-02-08 04:50:00","35887","3.05","293.7","4.704","290","999.9372","8.28","86.8","-1.275","0.0"],
    [1398308,"2026-02-08 05:00:00","35888","2.511","303.4","4.508","317","1000.0830000000001","8.54","84.6","-0.669","0.0"],
    [1398309,"2026-02-08 05:10:00","35889","3.2969999999999997","304.2","5.521","304.5","1000.015","8.57","83.3","-0.6890000000000001","0.0"],
    [1398310,"2026-02-08 05:20:00","35890","3.134","304.7","6.043","304.5","999.9423","8.51","82.0","-1.276","0.0"],
    [1398311,"2026-02-08 05:30:00","35891","3.325","308.6","4.998","316.1","999.7683","8.37","82.4","-1.473","0.0"],
    [1398312,"2026-02-08 05:40:00","35892","2.9960000000000004","305.3","4.508","312.7","999.7425","8.22","82.8","-1.7930000000000001","0.0"],
    [1398313,"2026-02-08 05:50:00","35893","3.272","309.4","4.998","321.5","999.7669999999999","8.09","83.5","-2.041","0.0"],
    [1398314,"2026-02-08 06:00:00","35894","2.858","305.9","4.345","317.9","999.7778","8.05","82.7","-2.073","0.0"],
    [1398315,"2026-02-08 06:10:00","35895","3.005","308.1","4.541","312.6","999.8596","8.13","81.5","-2.1180000000000003","0.0"],
    [1398316,"2026-02-08 06:20:00","35896","2.045","306.0","3.463","323.5","999.885","8.18","80.7","-2.055","0.0"],
    [1398317,"2026-02-08 06:30:00","35897","1.666","311.4","2.842","297.7","999.9355","8.05","81.2","-2.055","0.0"],
    [1398318,"2026-02-08 06:40:00","35898","1.883","303.3","3.43","309.7","999.9137","8.05","81.3","-1.7790000000000001","0.0"],
    [1398319,"2026-02-08 06:50:00","35899","2.366","305.9","3.691","299","999.8657","8.15","81.1","-0.8490000000000001","0.0"],
    [1398320,"2026-02-08 07:00:00","35900","1.278","290.5","3.528","325.8","999.929","8.12","80.6","1.6340000000000001","0.0"],
    [1398321,"2026-02-08 07:10:00","35901","3.035","311.5","4.933","313.6","999.9886","8.34","80.2","6.457999999999999","0.0"],
    [1398322,"2026-02-08 07:20:00","35902","2.008","303.4","3.561","299.6","1000.03","8.39","79.57","12.35","0.0"],
    [1398323,"2026-02-08 07:30:00","35903","1.5490000000000002","293.4","2.45","298.2","1000.1160000000001","7.9510000000000005","81.5","18.81","0.0"],
    [1398324,"2026-02-08 07:40:00","35904","1.147","291.8","1.731","298.2","1000.064","7.832999999999999","82.5","29.16","0.0"],
    [1398325,"2026-02-08 07:50:00","35905","1.5030000000000001","287.9","2.777","300.4","1000.1439999999999","7.928","83.5","37.88","0.0"],
    [1398326,"2026-02-08 08:00:00","35906","1.735","285.8","2.581","305","1000.184","8.1","83.1","50.63","0.0"],
    [1398327,"2026-02-08 08:10:00","35907","1.985","285.3","3.136","296.7","1000.1339999999999","8.25","82.3","68.2","0.0"],
    [1398328,"2026-02-08 08:20:00","35908","2.028","294.6","3.561","308.3","1000.2689999999999","8.54","81.6","129.7","0.0"],
    [1398329,"2026-02-08 08:30:00","35909","1.956","303.8","3.169","322.7","1000.316","8.95","80.2","144.7","0.0"],
    [1398330,"2026-02-08 08:40:00","35910","3.0189999999999997","317.4","4.475","314.5","1000.3919999999999","9.49","77.45","201.1","0.0"],
    [1398331,"2026-02-08 08:50:00","35911","2.8369999999999997","305.5","4.345","314.6","1000.434","9.91","75.28","244.5","0.0"],
    [1398332,"2026-02-08 09:00:00","35912","2.3280000000000003","296.0","3.463","297.9","1000.545","10.38","74.56","278.4","0.0"],
    [1398333,"2026-02-08 09:10:00","35913","2.94","293.1","5.129","293.8","1000.653","10.54","73.9","312.2","0.0"],
    [1398334,"2026-02-08 09:20:00","35914","3.3089999999999997","291.9","4.867","284","1000.7510000000001","10.07","75.23","319.2","0.0"],
    [1398335,"2026-02-08 09:30:00","35915","3.105","298.9","4.508","298.1","1000.831","10.34","74.52","343.8","0.0"],
    [1398336,"2026-02-08 09:40:00","35916","3.486","295.6","4.867","298.7","1000.9630000000001","10.65","72.64","370.9","0.0"],
    [1398337,"2026-02-08 09:50:00","35917","3.1510000000000002","290.6","4.769","305.4","1001.102","10.8","71.02","391.3","0.0"],
    [1398338,"2026-02-08 10:00:00","35918","3.185","297.5","4.867","308.7","1001.1610000000001","11.23","68.72","358.1","0.0"],
    [1398339,"2026-02-08 10:10:00","35919","3.245","300.9","5.325","299.7","1001.066","11.42","67.53","348.0","0.0"],
    [1398340,"2026-02-08 10:20:00","35920","3.7060000000000004","309.6","4.998","319.7","1001.0830000000001","11.59","66.93","414.7","0.0"],
    [1398341,"2026-02-08 10:30:00","35921","3.4589999999999996","308.5","4.671","310.3","1001.1519999999999","11.84","66.37","408.9","0.0"],
    [1398342,"2026-02-08 10:40:00","35922","3.238","304.3","4.998","304","1001.17","12.3","65.24","400.1","0.0"],
    [1398343,"2026-02-08 10:50:00","35923","3.2539999999999996","291.6","4.769","300.4","1001.177","12.63","63.57","407.5","0.0"],
    [1398344,"2026-02-08 11:00:00","35924","3.7260000000000004","296.0","6.729","287.7","1001.206","13.17","61.61","423.6","0.0"],
    [1398345,"2026-02-08 11:10:00","35925","5.122000000000001","304.9","7.644","316.9","1001.172","13.44","60.46","535.8","0.0"],
    [1398346,"2026-02-08 11:20:00","35926","4.394","291.7","7.285","281.3","1001.079","13.7","59.49","551.0","0.0"],
    [1398347,"2026-02-08 11:30:00","35927","4.691","297.9","7.252","297.4","1001.055","14.09","58.24","575.1","0.0"],
    [1398348,"2026-02-08 11:40:00","35928","4.205","294.2","7.219","309.4","1001.0039999999999","14.47","57.44","580.1","0.0"],
    [1398349,"2026-02-08 11:50:00","35929","4.665","297.7","7.219","309.4","1000.972","14.62","57.37","583.6","0.0"],
    [1398350,"2026-02-08 12:00:00","35930","4.428999999999999","298.6","6.664","316","1000.893","14.73","56.97","585.6","0.0"],
    [1398351,"2026-02-08 12:10:00","35931","4.678","296.4","6.925","299.2","1000.927","15.07","54.97","585.4","0.0"],
    [1398352,"2026-02-08 12:20:00","35932","4.2860000000000005","297.5","7.089","297.2","1001.0010000000001","15.2","54.99","583.8","0.0"],
    [1398353,"2026-02-08 12:30:00","35933","4.051","284.5","6.337","268.6","1001.075","15.1","54.81","579.6","0.0"],
    [1398354,"2026-02-08 12:40:00","35934","4.542","298.7","6.991","294.4","1001.033","15.42","53.15","576.5","0.0"],
    [1398355,"2026-02-08 12:50:00","35935","4.101","292.5","6.468","290.5","1000.9119999999999","15.65","51.89","570.1","0.0"],
    [1398356,"2026-02-08 13:00:00","35936","5.273","315.2","7.187","308.8","1000.929","15.5","52.81","563.1","0.0"],
    [1398357,"2026-02-08 13:10:00","35937","5.175","302.9","7.84","296.1","1000.8910000000001","15.51","51.83","556.5","0.0"],
    [1398358,"2026-02-08 13:20:00","35938","4.487","302.7","6.141","311.9","1000.8510000000001","15.92","51.19","544.5","0.0"],
    [1398359,"2026-02-08 13:30:00","35939","4.25","304.0","6.37","323.5","1000.952","16.05","50.1","531.2","0.0"],
    [1398360,"2026-02-08 13:40:00","35940","3.867","308.6","5.684","277.9","1001.0360000000001","16.22","48.81","518.6","0.0"],
    [1398361,"2026-02-08 13:50:00","35941","3.592","317.2","7.448","327.3","1001.03","16.51","48.15","504.9","0.0"],
    [1398362,"2026-02-08 14:00:00","35942","2.845","19.73","6.337","29.38","1001.056","16.36","45.63","490.1","0.0"],
    [1398363,"2026-02-08 14:10:00","35943","1.068","36.61","3.528","44.39","1001.097","16.46","43.76","450.3","0.0"],
    [1398364,"2026-02-08 14:20:00","35944","2.923","73.2","4.802","85.4","1001.1360000000001","16.23","45.96","450.0","0.0"],
    [1398365,"2026-02-08 14:30:00","35945","3.014","76.08","3.953","72.15","1001.2560000000001","16.2","46.16","439.5","0.0"],
    [1398366,"2026-02-08 14:40:00","35946","1.911","94.8","2.94","82.9","1001.3839999999999","16.26","44.51","425.8","0.0"],
    [1398367,"2026-02-08 14:50:00","35947","1.59","99.2","2.352","92","1001.434","16.14","45.19","399.3","0.0"],
    [1398368,"2026-02-08 15:00:00","35948","2.042","99.6","4.345","119.7","1001.465","15.92","46.05","375.7","0.0"],
    [1398369,"2026-02-08 15:10:00","35949","2.864","96.0","4.704","90.8","1001.569","15.78","48.08","342.5","0.0"],
    [1398370,"2026-02-08 15:20:00","35950","2.673","94.2","4.41","80.2","1001.706","15.37","53.41","300.2","0.0"],
    [1398371,"2026-02-08 15:30:00","35951","3.6860000000000004","90.1","4.541","89.1","1001.9839999999999","14.92","53.97","244.6","0.0"],
    [1398372,"2026-02-08 15:40:00","35952","2.971","89.0","4.312","92.2","1002.215","14.95","54.41","285.5","0.0"],
    [1398373,"2026-02-08 15:50:00","35953","3.109","84.9","4.345","101.8","1002.3639999999999","15.05","56.73","274.2","0.0"],
    [1398374,"2026-02-08 16:00:00","35954","2.421","77.35","3.593","79.86","1002.5319999999999","14.88","60.46","164.8","0.0"],
    [1398375,"2026-02-08 16:10:00","35955","2.823","87.0","3.593","81.2","1002.74","14.68","58.79","186.1","0.0"],
    [1398376,"2026-02-08 16:20:00","35956","2.909","96.4","4.149","98.3","1002.91","14.68","55.47","170.9","0.0"],
    [1398377,"2026-02-08 16:30:00","35957","3.25","90.0","4.083","91.9","1002.9680000000001","14.51","57.92","89.8","0.0"],
    [1398378,"2026-02-08 16:40:00","35958","2.819","89.6","3.855","80.8","1003.1239999999999","14.1","63.5","39.08","0.0"],
    [1398379,"2026-02-08 16:50:00","35959","1.989","85.7","3.038","86.2","1003.3839999999999","14.08","59.12","32.76","0.0"],
    [1398380,"2026-02-08 17:00:00","35960","1.984","72.22","3.332","75.64","1003.591","14.11","61.87","23.37","0.0"],
    [1398381,"2026-02-08 17:10:00","35961","1.84","72.52","4.018","74.67","1003.7589999999999","13.81","68.32","8.92","0.0"],
    [1398382,"2026-02-08 17:20:00","35962","1.564","77.08","2.058","70.99","1003.8960000000001","13.56","70.68","3.67","0.0"],
    [1398383,"2026-02-08 17:30:00","35963","1.345","71.64","4.051","352.6","1004.041","13.53","65.42","-0.851","0.0"],
    [1398384,"2026-02-08 17:40:00","35964","1.236","70.35","2.319","38.84","1004.321","13.07","70.04","-2.512","0.0"],
    [1398385,"2026-02-08 17:50:00","35965","2.037","68.26","4.41","105.7","1004.551","13.12","70.75","-2.099","0.0"],
    [1398386,"2026-02-08 18:00:00","35966","1.944","48.94","4.965","99.2","1004.789","13.67","65.82","-1.358","0.1"],
    [1398387,"2026-02-08 18:10:00","35967","1.411","24.8","2.123","42.77","1005.028","13.48","70.87","-1.2590000000000001","0.0"],
    [1398388,"2026-02-08 18:20:00","35968","1.244","38.16","2.156","22.33","1005.29","13.45","71.02","-1.26","0.0"],
    [1398389,"2026-02-08 18:30:00","35969","1.1909999999999998","45.98","1.862","40.21","1005.466","13.51","70.25","-1.261","0.0"],
    [1398390,"2026-02-08 18:40:00","35970","1.56","43.24","2.352","39.69","1005.541","13.43","70.04","-1.262","0.0"],
    [1398391,"2026-02-08 18:50:00","35971","2.4090000000000003","70.42","3.887","85.4","1005.6080000000001","13.56","65.7","-1.456","0.0"],
    [1398392,"2026-02-08 19:00:00","35972","3.1889999999999996","71.83","5.325","63.4","1005.7189999999999","13.04","72.48","-1.288","0.0"],
    [1398393,"2026-02-08 19:10:00","35973","3.1460000000000004","69.05","4.475","70.32","1005.9580000000001","12.59","74.1","-1.297","0.0"],
    [1398394,"2026-02-08 19:20:00","35974","3.0380000000000003","67.26","4.149","58.77","1006.1460000000001","12.57","73.17","-1.264","0.0"],
    [1398395,"2026-02-08 19:30:00","35975","3.13","59.72","4.737","62.04","1006.298","12.6","72.22","-1.261","0.0"],
    [1398396,"2026-02-08 19:40:00","35976","3.4930000000000003","56.07","4.867","63.74","1006.448","12.6","70.34","-1.264","0.0"],
    [1398397,"2026-02-08 19:50:00","35977","3.5810000000000004","58.98","6.86","88.2","1006.557","12.67","67.8","-1.262","0.0"],
    [1398398,"2026-02-08 20:00:00","35978","3.8539999999999996","65.0","5.717","60.15","1006.607","12.7","68.27","-1.262","0.0"],
    [1398399,"2026-02-08 20:10:00","35979","3.8560000000000003","65.02","5.913","60.75","1006.7","12.57","69.18","-1.604","0.0"],
    [1398400,"2026-02-08 20:20:00","35980","3.915","67.42","5.651","76.61","1006.7810000000001","12.42","70.07","-2.026","0.0"],
    [1398401,"2026-02-08 20:30:00","35981","3.5039999999999996","58.6","4.606","66.41","1006.9069999999999","12.24","72.41","-2.063","0.0"],
    [1398402,"2026-02-08 20:40:00","35982","3.403","59.5","5.129","61.3","1006.971","12.11","72.03","-2.469","0.0"],
    [1398403,"2026-02-08 20:50:00","35983","3.585","59.84","6.011","69.93","1006.867","12.05","71.02","-2.753","0.0"],
    [1398404,"2026-02-08 21:00:00","35984","3.042","65.95","4.867","72.88","1006.947","11.93","72.22","-2.722","0.0"],
    [1398405,"2026-02-08 21:10:00","35985","2.699","70.69","4.802","68.8","1007.077","11.71","73.63","-2.798","0.0"],
    [1398406,"2026-02-08 21:20:00","35986","2.542","64.18","4.051","73.54","1007.073","11.59","72.45","-2.767","0.0"],
    [1398407,"2026-02-08 21:30:00","35987","2.985","60.79","4.606","75.88","1007.097","11.53","72.9","-2.772","0.0"],
    [1398408,"2026-02-08 21:40:00","35988","2.8289999999999997","54.35","4.345","48.04","1007.175","11.47","74.2","-2.761","0.0"],
    [1398409,"2026-02-08 21:50:00","35989","2.972","43.44","4.475","41.13","1007.313","11.4","75.21","-2.759","0.0"],
    [1398410,"2026-02-08 22:00:00","35990","2.872","49.49","4.475","71.67","1007.497","11.33","74.66","-2.7569999999999997","0.0"],
    [1398411,"2026-02-08 22:10:00","35991","2.3480000000000003","39.96","3.463","52.89","1007.6210000000001","11.2","75.68","-2.761","0.0"],
    [1398412,"2026-02-08 22:20:00","35992","2.476","45.85","3.887","42.02","1007.675","11.08","76.53","-2.761","0.0"],
    [1398413,"2026-02-08 22:30:00","35993","1.929","46.34","3.299","53.12","1007.802","10.94","77.59","-2.76","0.0"],
    [1398414,"2026-02-08 22:40:00","35994","1.431","50.55","2.123","68.53","1007.9","10.71","78.81","-2.761","0.0"],
    [1398415,"2026-02-08 22:50:00","35995","1.9369999999999998","57.52","3.43","61.86","1007.784","10.46","79.79","-2.762","0.0"],
    [1398416,"2026-02-08 23:00:00","35996","2.287","66.29","3.299","67.35","1007.6139999999999","10.41","81.7","-2.761","0.0"],
    [1398417,"2026-02-08 23:10:00","35997","3.415","63.24","5.227","60.86","1007.38","10.54","81.2","-2.761","0.0"],
    [1398418,"2026-02-08 23:20:00","35998","3.198","59.85","4.639","58.68","1007.24","10.74","80.2","-2.761","0.0"],
    [1398419,"2026-02-08 23:30:00","35999","2.972","65.09","4.443","69.29","1007.029","10.65","81.0","-2.736","0.0"],
    [1398420,"2026-02-08 23:40:00","36000","3.05","63.89","4.867","64.72","1006.831","10.54","81.4","-2.761","0.0"],
    [1398421,"2026-02-08 23:50:00","36001","2.862","68.1","4.312","57.72","1006.7330000000001","10.58","81.1","-2.762","0.0"],
    [1398422,"2026-02-09 00:00:00","36002","2.408","63.27","3.855","65.19","1006.8939999999999","10.45","82.1","-2.761","0.0"],
    [1398423,"2026-02-09 00:10:00","36003","1.38","62.96","2.319","73.82","1007.113","10.4","81.7","-2.763","0.0"],
    [1398424,"2026-02-09 00:20:00","36004","1.065","65.29","1.797","70","1007.061","9.94","82.9","-2.7680000000000002","0.0"],
    [1398425,"2026-02-09 00:30:00","36005","0.653","329.2","2.711","279.5","1007.26","9.49","85.1","-2.8339999999999996","0.0"],
    [1398426,"2026-02-09 00:40:00","36006","1.81","278.0","3.332","283.8","1007.5239999999999","9.32","84.2","-1.3","0.0"],
    [1398427,"2026-02-09 00:50:00","36007","1.078","290.2","2.189","278.9","1007.6160000000001","9.03","83.6","-0.5329999999999999","0.0"],
    [1398428,"2026-02-09 01:00:00","36008","0.9329999999999999","295.1","2.189","301.6","1007.637","9.17","82.7","-0.5720000000000001","0.0"],
    [1398429,"2026-02-09 01:10:00","36009","0.978","284.7","1.503","276.4","1007.7080000000001","9.41","81.2","-0.87","0.0"],
    [1398430,"2026-02-09 01:20:00","36010","0.266","265.9","1.372","276.1","1007.66","9.56","80.1","-1.222","0.0"],
    [1398431,"2026-02-09 01:30:00","36011","0.261","278.5","0.98","283.4","1007.742","9.4","81.1","-2.063","0.0"],
    [1398432,"2026-02-09 01:40:00","36012","0.9309999999999999","280.1","1.437","287.2","1007.94","9.29","82.2","-1.179","0.0"],
    [1398433,"2026-02-09 01:50:00","36013","0.914","256.4","1.764","255","1007.967","9.58","80.9","-1.218","0.0"],
    [1398434,"2026-02-09 02:00:00","36014","0.823","270.2","1.045","270.9","1007.9789999999999","9.77","79.2","-1.264","0.0"],
    [1398435,"2026-02-09 02:10:00","36015","0.272","270.5","0.98","270.9","1007.915","9.77","79.14","-1.263","0.0"],
    [1398436,"2026-02-09 02:20:00","36016","0.792","275.0","1.601","276.3","1007.826","9.73","79.1","-1.7590000000000001","0.0"],
    [1398437,"2026-02-09 02:30:00","36017","0.737","281.9","1.372","284.4","1007.716","9.48","79.84","-2.7119999999999997","0.0"],
    [1398438,"2026-02-09 02:40:00","36018","0.589","281.1","0.98","284.9","1007.672","9.21","80.4","-2.739","0.0"],
    [1398439,"2026-02-09 02:50:00","36019","1.15","291.9","1.862","305.1","1007.7639999999999","8.84","82.2","-2.6830000000000003","0.0"],
    [1398440,"2026-02-09 03:00:00","36020","0.7509999999999999","299.5","1.372","314.1","1007.7860000000001","8.71","83.3","-2.761","0.0"],
    [1398441,"2026-02-09 03:10:00","36021","0.688","295.2","1.568","285","1007.758","8.48","83.4","-2.7680000000000002","0.0"],
    [1398442,"2026-02-09 03:20:00","36022","0.9309999999999999","265.5","1.601","287.7","1007.742","8.73","83.5","-2.253","0.0"],
    [1398443,"2026-02-09 03:30:00","36023","0.856","276.0","1.601","273","1007.59","8.93","82.2","-1.2790000000000001","0.0"],
    [1398444,"2026-02-09 03:40:00","36024","0.857","277.1","1.633","283.5","1007.4689999999999","8.86","82.1","-1.4409999999999998","0.0"],
    [1398445,"2026-02-09 03:50:00","36025","1.266","283.2","2.123","285.5","1007.4760000000001","8.72","82.4","-1.6580000000000001","0.0"],
    [1398446,"2026-02-09 04:00:00","36026","0.8540000000000001","282.4","1.209","278","1007.443","8.66","82.6","-1.266","0.0"],
    [1398447,"2026-02-09 04:10:00","36027","1.061","285.6","1.699","273.7","1007.341","8.43","82.8","-2.1069999999999998","0.0"],
    [1398448,"2026-02-09 04:20:00","36028","1.16","269.1","2.025","274.8","1007.576","8.6","81.5","-1.725","0.0"],
    [1398449,"2026-02-09 04:30:00","36029","1.82","283.3","3.659","276.7","1007.7","8.35","80.7","-1.901","0.0"],
    [1398450,"2026-02-09 04:40:00","36030","1.44","286.2","2.777","278.8","1007.791","7.904","81.5","-1.989","0.0"],
    [1398451,"2026-02-09 04:50:00","36031","1.383","285.6","2.45","281","1007.7339999999999","7.909","79.83","-2.043","0.0"],
    [1398452,"2026-02-09 05:00:00","36032","0.7240000000000001","296.7","1.764","300.6","1007.655","7.888","79.08","-2.062","0.0"],
    [1398453,"2026-02-09 05:10:00","36033","0.84","293.4","1.568","298","1007.5880000000001","8.03","78.2","-2.293","0.0"],
    [1398454,"2026-02-09 05:20:00","36034","0.932","272.1","1.47","274.4","1007.5060000000001","8.28","76.56","-2.062","0.0"],
    [1398455,"2026-02-09 05:30:00","36035","0.93","277.4","2.613","281.1","1007.409","8.46","74.94","-2.03","0.0"],
    [1398456,"2026-02-09 05:40:00","36036","1.3030000000000002","271.8","2.352","278.7","1007.3739999999999","8.11","76.67","-1.8019999999999998","0.0"],
    [1398457,"2026-02-09 05:50:00","36037","1.253","268.1","2.156","271.7","1007.453","7.867000000000001","78.35","-1.569","0.0"],
    [1398458,"2026-02-09 06:00:00","36038","2.005","269.3","2.744","272.1","1007.5160000000001","7.702999999999999","79.06","-1.304","0.0"],
    [1398459,"2026-02-09 06:10:00","36039","1.949","268.8","3.169","269.9","1007.628","7.462999999999999","79.82","-1.295","0.0"],
    [1398460,"2026-02-09 06:20:00","36040","1.8969999999999998","282.9","2.973","279.3","1007.6239999999999","7.119","80.8","-1.295","0.0"],
    [1398461,"2026-02-09 06:30:00","36041","1.364","290.8","2.581","299.8","1007.475","7.2620000000000005","80.5","-1.3019999999999998","0.0"],
    [1398462,"2026-02-09 06:40:00","36042","1.534","320.0","2.875","320.7","1007.2180000000001","7.841","77.58","-1.194","0.0"],
    [1398463,"2026-02-09 06:50:00","36043","1.276","308.6","2.875","318.6","1007.097","8.46","72.86","0.912","0.0"],
    [1398464,"2026-02-09 07:00:00","36044","1.215","272.3","1.993","272.4","1007.075","8.78","70.06","7.936","0.0"],
    [1398465,"2026-02-09 07:10:00","36045","1.611","282.7","2.581","289.7","1007.055","8.89","69.49","9.92","0.0"],
    [1398466,"2026-02-09 07:20:00","36046","1.614","295.2","2.613","306.6","1007.0260000000001","8.46","72.28","9.1","0.0"],
    [1398467,"2026-02-09 07:30:00","36047","2.019","310.9","3.234","311.1","1006.8969999999999","8.87","69.93","20.39","0.0"],
    [1398468,"2026-02-09 07:40:00","36048","1.749","303.7","3.136","310.5","1006.837","9.16","67.99","47.89","0.0"],
    [1398469,"2026-02-09 07:50:00","36049","1.82","293.6","3.267","305.3","1007.0880000000001","9.38","66.53","63.36","0.0"],
    [1398470,"2026-02-09 08:00:00","36050","2.675","308.5","4.279","317.2","1007.2610000000001","9.49","66.2","66.34","0.0"],
    [1398471,"2026-02-09 08:10:00","36051","2.843","307.7","4.247","312","1007.404","9.78","64.95","77.03","0.0"],
    [1398472,"2026-02-09 08:20:00","36052","2.191","308.5","3.887","314.8","1007.449","9.97","64.28","86.6","0.0"],
    [1398473,"2026-02-09 08:30:00","36053","2.755","312.4","4.083","307.3","1007.452","10.18","62.87","101.5","0.0"],
    [1398474,"2026-02-09 08:40:00","36054","2.6830000000000003","315.1","4.247","314.7","1007.5219999999999","10.35","61.85","98.6","0.0"],
    [1398475,"2026-02-09 08:50:00","36055","2.7539999999999996","313.0","4.508","308.9","1007.703","10.54","61.12","100.1","0.0"],
    [1398476,"2026-02-09 09:00:00","36056","3.012","317.1","5.194","307.4","1007.711","10.66","60.6","113.2","0.0"],
    [1398477,"2026-02-09 09:10:00","36057","3.1510000000000002","327.3","4.769","346.6","1007.628","10.69","61.11","137.2","0.0"],
    [1398478,"2026-02-09 09:20:00","36058","2.497","325.5","4.018","325.2","1007.674","10.73","60.64","143.1","0.0"],
    [1398479,"2026-02-09 09:30:00","36059","2.3040000000000003","336.5","3.855","332.3","1007.541","10.71","60.22","150.3","0.0"],
    [1398480,"2026-02-09 09:40:00","36060","2.04","324.5","3.234","330.4","1007.515","11.05","59.97","324.3","0.0"],
    [1398481,"2026-02-09 09:50:00","36061","1.868","329.8","2.94","325","1007.5060000000001","11.76","58.06","434.7","0.0"],
    [1398482,"2026-02-09 10:00:00","36062","1.22","338.7","2.548","336.5","1007.44","12.4","55.82","445.9","0.0"],
    [1398483,"2026-02-09 10:10:00","36063","1.492","350.7","2.319","359.6","1007.299","12.74","53.49","468.4","0.0"],
    [1398484,"2026-02-09 10:20:00","36064","1.1909999999999998","318.4","2.385","0.565","1007.258","13.15","51.89","481.7","0.0"],
    [1398485,"2026-02-09 10:30:00","36065","0.45799999999999996","204.4","2.254","178.6","1007.177","13.87","48.98","496.9","0.0"],
    [1398486,"2026-02-09 10:40:00","36066","1.7269999999999999","202.7","3.169","192.9","1007.153","14.08","47.42","515.6","0.0"],
    [1398487,"2026-02-09 10:50:00","36067","1.286","212.6","2.744","214","1007.1519999999999","13.97","48.23","528.3","0.0"],
    [1398488,"2026-02-09 11:00:00","36068","0.884","248.7","2.189","229.9","1007.007","14.29","48.06","537.2","0.0"],
    [1398489,"2026-02-09 11:10:00","36069","1.839","175.5","4.149","165.6","1007.056","13.83","51.37","550.6","0.0"],
    [1398490,"2026-02-09 11:20:00","36070","1.949","192.0","7.742","205.2","1006.975","14.17","53.95","567.7","0.0"],
    [1398491,"2026-02-09 11:30:00","36071","2.415","170.9","4.149","168.8","1006.9630000000001","13.59","58.55","573.3","0.0"],
    [1398492,"2026-02-09 11:40:00","36072","2.5340000000000003","203.6","4.083","218","1006.802","13.74","58.87","581.5","0.0"],
    [1398493,"2026-02-09 11:50:00","36073","2.7039999999999997","187.9","4.41","176.2","1006.692","13.68","59.05","588.3","0.0"],
    [1398494,"2026-02-09 12:00:00","36074","2.82","175.9","4.639","180.9","1006.562","13.57","60.77","579.9","0.0"],
    [1398495,"2026-02-09 12:10:00","36075","2.079","192.9","4.671","201.7","1006.498","13.95","60.77","582.7","0.0"],
    [1398496,"2026-02-09 12:20:00","36076","2.08","193.7","3.887","197.8","1006.465","14.24","59.72","591.1","0.0"],
    [1398497,"2026-02-09 12:30:00","36077","1.976","184.8","4.345","175.7","1006.4810000000001","14.13","59.35","602.8","0.0"],
    [1398498,"2026-02-09 12:40:00","36078","2.6069999999999998","170.3","4.345","167.8","1006.4730000000001","13.76","58.87","494.5","0.0"],
    [1398499,"2026-02-09 12:50:00","36079","2.906","180.2","4.965","179.9","1006.4889999999999","13.17","61.5","299.6","0.0"],
    [1398500,"2026-02-09 13:00:00","36080","2.9419999999999997","209.1","5.521","225","1006.4730000000001","13.21","61.3","227.2","0.0"],
    [1398501,"2026-02-09 13:10:00","36081","2.577","185.7","4.083","166","1006.33","13.41","60.6","522.0","0.0"],
    [1398502,"2026-02-09 13:20:00","36082","2.522","191.7","6.239","190.6","1006.197","14.21","57.67","637.5","0.0"],
    [1398503,"2026-02-09 13:30:00","36083","3.208","193.0","5.455","172.5","1006.1519999999999","14.65","56.53","587.1","0.0"],
    [1398504,"2026-02-09 13:40:00","36084","3.508","194.9","7.383","221.5","1005.8889999999999","14.92","57.06","541.5","0.0"],
    [1398505,"2026-02-09 13:50:00","36085","5.296","215.4","8.1","221.5","1005.807","15.22","52.65","425.4","0.0"],
    [1398506,"2026-02-09 14:00:00","36086","4.125","215.2","6.893","212.3","1005.687","15.12","53.66","313.4","0.0"],
    [1398507,"2026-02-09 14:10:00","36087","4.3919999999999995","214.6","7.154","216.1","1005.701","14.69","59.01","193.5","0.0"],
    [1398508,"2026-02-09 14:20:00","36088","4.637","216.8","7.35","213.5","1005.784","14.39","62.02","193.7","0.0"],
    [1398509,"2026-02-09 14:30:00","36089","3.68","219.4","6.533","222.4","1005.7610000000001","14.77","58.36","215.6","0.0"],
    [1398510,"2026-02-09 14:40:00","36090","3.1210000000000004","231.3","5.717","220.4","1005.7130000000001","15.29","53.85","277.8","0.0"],
    [1398511,"2026-02-09 14:50:00","36091","2.51","283.9","4.214","287","1005.801","16.35","49.13","477.9","0.0"],
    [1398512,"2026-02-09 15:00:00","36092","3.37","296.0","5.325","265.1","1005.8810000000001","16.33","45.58","332.1","0.0"],
    [1398513,"2026-02-09 15:10:00","36093","3.8339999999999996","323.1","6.305","315","1005.7869999999999","15.89","46.27","213.5","0.0"],
    [1398514,"2026-02-09 15:20:00","36094","3.175","300.3","4.769","283.8","1005.835","15.6","47.15","161.9","0.0"],
    [1398515,"2026-02-09 15:30:00","36095","3.3169999999999997","307.9","5.39","310.5","1005.8560000000001","15.55","46.89","166.2","0.0"],
    [1398516,"2026-02-09 15:40:00","36096","2.628","289.4","4.704","292.2","1006.0210000000001","15.6","47.04","218.5","0.0"],
    [1398517,"2026-02-09 15:50:00","36097","2.379","277.5","4.475","292.4","1006.204","15.5","47.22","121.2","0.0"],
    [1398518,"2026-02-09 16:00:00","36098","2.306","224.9","5.259","211.2","1006.0989999999999","15.0","56.12","84.3","0.0"],
    [1398519,"2026-02-09 16:10:00","36099","3.082","226.0","5.194","235.4","1006.15","14.07","65.46","70.38","0.0"],
    [1398520,"2026-02-09 16:20:00","36100","3.964","224.6","6.729","219","1006.342","13.79","66.81","60.89","0.0"],
    [1398521,"2026-02-09 16:30:00","36101","3.8169999999999997","221.8","6.664","220.9","1006.363","13.72","67.22","56.04","0.0"],
    [1398522,"2026-02-09 16:40:00","36102","2.677","226.4","4.083","221.5","1006.3510000000001","13.73","66.95","43.41","0.0"],
    [1398523,"2026-02-09 16:50:00","36103","1.986","233.2","4.149","220.5","1006.46","13.68","66.68","30.1","0.0"],
    [1398524,"2026-02-09 17:00:00","36104","1.755","233.0","2.744","219.4","1006.576","13.57","66.4","18.46","0.0"],
    [1398525,"2026-02-09 17:10:00","36105","1.381","242.4","2.973","220.5","1006.6619999999999","13.53","67.12","6.391","0.0"],
    [1398526,"2026-02-09 17:20:00","36106","1.57","254.3","2.842","239.3","1006.6460000000001","13.42","68.24","1.236","0.0"],
    [1398527,"2026-02-09 17:30:00","36107","2.591","236.2","4.541","226.3","1006.72","13.36","69.92","-0.946","0.0"],
    [1398528,"2026-02-09 17:40:00","36108","2.256","231.3","4.737","217.1","1006.671","13.22","71.26","-1.5419999999999998","0.0"],
    [1398529,"2026-02-09 17:50:00","36109","2.231","231.5","4.345","228.1","1006.7610000000001","13.22","71.13","-2.0069999999999997","0.0"],
    [1398530,"2026-02-09 18:00:00","36110","2.271","226.3","4.377","215.5","1006.8760000000001","13.12","73.12","-1.891","0.0"],
    [1398531,"2026-02-09 18:10:00","36111","1.766","236.2","3.071","209.6","1006.8860000000001","12.98","73.98","-2.005","0.0"],
    [1398532,"2026-02-09 18:20:00","36112","1.705","227.1","2.777","217.6","1006.783","12.81","74.05","-2.011","0.0"],
    [1398533,"2026-02-09 18:30:00","36113","1.598","226.7","2.842","244.8","1006.563","12.7","73.73","-2.003","0.0"],
    [1398534,"2026-02-09 18:40:00","36114","2.266","226.5","3.92","189.4","1006.368","12.83","73.72","-2.005","0.0"],
    [1398535,"2026-02-09 18:50:00","36115","3.572","219.8","5.749","222.9","1006.315","12.98","75.09","-2.011","0.0"],
    [1398536,"2026-02-09 19:00:00","36116","3.667","223.3","5.227","216.9","1006.2339999999999","13.0","76.78","-2.012","0.0"],
    [1398537,"2026-02-09 19:10:00","36117","3.435","226.3","5.553","223.4","1006.252","13.03","75.82","-2.012","0.0"],
    [1398538,"2026-02-09 19:20:00","36118","3.17","224.9","5.194","205.8","1006.418","13.0","76.38","-1.974","0.0"],
    [1398539,"2026-02-09 19:30:00","36119","2.488","231.3","4.573","277.3","1006.383","12.82","78.82","-1.554","0.0"],
    [1398540,"2026-02-09 19:40:00","36120","2.582","226.4","3.92","207.6","1006.4810000000001","12.71","79.91","-1.275","0.0"],
    [1398541,"2026-02-09 19:50:00","36121","2.6839999999999997","227.3","4.508","225.6","1006.552","12.82","79.27","-1.306","0.0"],
    [1398542,"2026-02-09 20:00:00","36122","2.416","226.3","3.887","227.3","1006.721","12.76","79.05","-1.261","0.0"],
    [1398543,"2026-02-09 20:10:00","36123","1.8259999999999998","230.4","3.332","256.4","1006.7510000000001","12.75","78.74","-1.261","0.0"],
    [1398544,"2026-02-09 20:20:00","36124","2.075","231.8","3.495","243.4","1006.795","12.74","78.78","-1.261","0.0"],
    [1398545,"2026-02-09 20:30:00","36125","1.7169999999999999","228.5","3.005","229.2","1006.76","12.75","79.13","-1.261","0.0"],
    [1398546,"2026-02-09 20:40:00","36126","1.621","233.2","3.234","248.2","1006.592","12.77","80.1","-1.261","0.0"],
    [1398547,"2026-02-09 20:50:00","36127","2.085","229.7","3.528","214","1006.45","12.81","81.2","-1.3259999999999998","0.0"],
    [1398548,"2026-02-09 21:00:00","36128","2.166","226.9","4.051","270.6","1006.2389999999999","12.71","81.7","-2.025","0.0"],
    [1398549,"2026-02-09 21:10:00","36129","1.82","230.8","3.234","213.2","1006.172","12.59","82.5","-2.161","0.0"],
    [1398550,"2026-02-09 21:20:00","36130","2.679","228.5","4.573","214.7","1006.2180000000001","12.62","81.1","-2.603","0.0"],
    [1398551,"2026-02-09 21:30:00","36131","1.945","232.7","3.561","226.9","1006.273","12.64","78.92","-2.7689999999999997","0.0"],
    [1398552,"2026-02-09 21:40:00","36132","1.993","227.0","2.907","216.8","1006.132","12.47","78.05","-2.79","0.2"],
    [1398553,"2026-02-09 21:50:00","36133","1.9809999999999999","236.0","3.789","240.6","1006.414","12.19","80.8","-2.694","0.2"],
    [1398554,"2026-02-09 22:00:00","36134","1.6969999999999998","242.3","4.279","241.5","1006.3689999999999","12.05","80.2","-2.728","0.4"],
    [1398555,"2026-02-09 22:10:00","36135","1.673","231.0","3.103","252","1006.221","11.8","79.2","-2.759","0.1"],
    [1398556,"2026-02-09 22:20:00","36136","1.3719999999999999","231.3","2.352","234.7","1006.049","11.7","78.76","-2.352","0.0"],
    [1398557,"2026-02-09 22:30:00","36137","1.043","229.3","1.993","245","1005.7819999999999","11.7","78.16","-1.102","0.0"],
    [1398558,"2026-02-09 22:40:00","36138","0.9690000000000001","233.1","1.862","246.7","1005.711","11.82","77.98","-0.513","0.0"],
    [1398559,"2026-02-09 22:50:00","36139","1.199","230.4","2.123","243.4","1005.798","11.85","78.65","-0.297","0.0"],
    [1398560,"2026-02-09 23:00:00","36140","1.415","229.6","2.613","248.1","1005.8","11.9","79.62","-0.42700000000000005","0.0"],
    [1398561,"2026-02-09 23:10:00","36141","1.338","230.2","2.548","249.3","1005.811","11.94","79.23","-1.173","0.1"],
    [1398562,"2026-02-09 23:20:00","36142","1.249","243.4","2.221","249.2","1005.962","11.89","80.1","-2.173","0.0"],
    [1398563,"2026-02-09 23:30:00","36143","1.3090000000000002","230.6","2.123","239.4","1005.823","11.84","79.88","-1.95","0.0"],
    [1398564,"2026-02-09 23:40:00","36144","1.0","232.9","2.254","258.7","1005.6110000000001","11.89","80.3","-1.287","0.0"],
    [1398565,"2026-02-09 23:50:00","36145","0.975","279.7","1.895","228.3","1005.326","11.86","82.2","-1.2570000000000001","0.0"],
    [1398566,"2026-02-10 00:00:00","36146","1.922","337.8","3.169","343.2","1005.183","11.67","83.1","-1.124","0.0"],
    [1398567,"2026-02-10 00:10:00","36147","2.116","342.8","3.463","339.2","1005.168","11.77","80.0","-0.9079999999999999","0.0"],
    [1398568,"2026-02-10 00:20:00","36148","2.537","336.7","3.985","339.7","1005.298","11.9","78.61","-1.19","0.0"],
    [1398569,"2026-02-10 00:30:00","36149","1.236","317.1","2.515","323.9","1005.324","11.89","79.15","-1.261","0.0"],
    [1398570,"2026-02-10 00:40:00","36150","1.0","297.8","2.417","324.2","1005.2589999999999","11.8","80.5","-1.744","0.1"],
    [1398571,"2026-02-10 00:50:00","36151","0.716","290.5","1.503","287.9","1005.1360000000001","11.53","82.6","-1.895","0.0"],
    [1398572,"2026-02-10 01:00:00","36152","1.251","247.7","2.254","221.2","1005.044","11.47","82.9","-1.215","0.0"],
    [1398573,"2026-02-10 01:10:00","36153","1.198","257.3","1.96","266.8","1004.9580000000001","11.41","83.5","-0.555","0.0"],
    [1398574,"2026-02-10 01:20:00","36154","1.087","249.7","2.156","268.6","1004.785","11.16","85.8","-0.52","0.0"],
    [1398575,"2026-02-10 01:30:00","36155","1.0290000000000001","271.6","2.123","271.3","1004.6260000000001","11.09","86.5","-0.518","0.0"],
    [1398576,"2026-02-10 01:40:00","36156","1.219","275.9","2.189","262.7","1004.414","10.94","87.2","-0.7659999999999999","0.0"],
    [1398577,"2026-02-10 01:50:00","36157","1.41","281.4","2.581","279.8","1004.409","10.88","87.3","-1.061","0.0"],
    [1398578,"2026-02-10 02:00:00","36158","1.923","305.4","2.679","310.2","1004.179","10.68","88.2","-1.261","0.0"],
    [1398579,"2026-02-10 02:10:00","36159","1.8090000000000002","299.6","2.548","309.7","1004.21","10.54","89.3","-1.278","0.0"],
    [1398580,"2026-02-10 02:20:00","36160","1.348","293.3","2.156","291.5","1004.1080000000001","10.42","89.6","-1.653","0.0"],
    [1398581,"2026-02-10 02:30:00","36161","1.206","290.1","1.927","286","1003.8689999999999","10.29","89.9","-2.043","0.0"],
    [1398582,"2026-02-10 02:40:00","36162","1.4909999999999999","288.6","2.221","309.2","1003.878","10.51","89.2","-1.9969999999999999","0.0"],
    [1398583,"2026-02-10 02:50:00","36163","1.976","296.9","3.071","301.7","1003.949","10.45","88.7","-1.912","0.0"],
    [1398584,"2026-02-10 03:00:00","36164","2.5860000000000003","311.6","4.279","329.7","1003.847","10.77","87.6","-1.886","0.0"],
    [1398585,"2026-02-10 03:10:00","36165","2.7680000000000002","304.7","4.214","305.7","1003.758","11.02","85.5","-1.69","0.0"],
    [1398586,"2026-02-10 03:20:00","36166","3.0669999999999997","310.5","4.639","322.4","1003.945","11.09","84.9","-1.896","0.0"],
    [1398587,"2026-02-10 03:30:00","36167","3.404","301.1","5.325","305.3","1004.1669999999999","11.06","84.7","-1.8619999999999999","0.0"],
    [1398588,"2026-02-10 03:40:00","36168","2.25","303.3","3.397","305.6","1004.077","10.96","84.7","-1.9609999999999999","0.0"],
    [1398589,"2026-02-10 03:50:00","36169","1.778","307.4","2.515","279.3","1003.925","10.77","85.5","-2.008","0.0"],
    [1398590,"2026-02-10 04:00:00","36170","1.3519999999999999","291.7","2.123","287","1004.0260000000001","10.75","85.3","-1.964","0.0"],
    [1398591,"2026-02-10 04:10:00","36171","1.6059999999999999","298.6","2.287","309.3","1004.166","10.51","85.7","-1.631","0.0"],
    [1398592,"2026-02-10 04:20:00","36172","1.9709999999999999","312.8","3.136","300.1","1004.0939999999999","10.26","87.3","-2.0709999999999997","0.0"],
    [1398593,"2026-02-10 04:30:00","36173","2.194","306.1","3.463","298.2","1004.183","10.56","85.9","-2.017","0.0"],
    [1398594,"2026-02-10 04:40:00","36174","1.7819999999999998","301.9","2.973","311","1004.118","10.78","84.4","-2.081","0.0"],
    [1398595,"2026-02-10 04:50:00","36175","2.199","305.6","3.887","306.9","1004.072","11.09","82.1","-2.303","0.0"],
    [1398596,"2026-02-10 05:00:00","36176","2.1719999999999997","311.6","3.593","311.8","1004.258","11.21","81.1","-2.231","0.0"],
    [1398597,"2026-02-10 05:10:00","36177","1.2770000000000001","295.8","2.385","311.3","1004.3510000000001","11.15","80.9","-2.0340000000000003","0.0"],
    [1398598,"2026-02-10 05:20:00","36178","1.0590000000000002","293.9","1.699","304","1004.38","10.92","82.0","-1.86","0.0"],
    [1398599,"2026-02-10 05:30:00","36179","1.5930000000000002","277.9","2.45","268.7","1004.4739999999999","10.67","83.2","-1.611","0.0"],
    [1398600,"2026-02-10 05:40:00","36180","2.399","310.6","3.267","320.5","1004.564","10.76","83.2","-1.37","0.0"],
    [1398601,"2026-02-10 05:50:00","36181","2.627","330.5","4.149","323.6","1004.669","11.03","82.3","-1.268","0.0"],
    [1398602,"2026-02-10 06:00:00","36182","2.237","330.2","3.299","330.4","1004.692","11.25","81.3","-1.167","0.0"],
    [1398603,"2026-02-10 06:10:00","36183","1.723","324.1","3.234","321.3","1004.7869999999999","11.22","81.6","-1.165","0.0"],
    [1398604,"2026-02-10 06:20:00","36184","1.2919999999999998","240.5","2.646","214","1005.003","11.21","82.0","-1.131","0.0"],
    [1398605,"2026-02-10 06:30:00","36185","0.9890000000000001","231.1","1.862","233.9","1005.194","11.28","82.0","-1.203","0.0"],
    [1398606,"2026-02-10 06:40:00","36186","0.619","234.8","1.47","227","1005.18","11.4","81.0","-0.956","0.0"],
    [1398607,"2026-02-10 06:50:00","36187","0.015","258.9","0.261","259.5","1004.998","11.25","81.7","0.127","0.0"],
    [1398608,"2026-02-10 07:00:00","36188","0.066","259.4","0.392","259.5","1004.909","11.02","83.4","3.153","0.0"],
    [1398609,"2026-02-10 07:10:00","36189","0.821","278.0","1.307","270.5","1005.203","10.86","84.5","7.422000000000001","0.0"],
    [1398610,"2026-02-10 07:20:00","36190","1.101","246.8","2.058","249.9","1005.439","11.25","83.2","13.78","0.0"],
    [1398611,"2026-02-10 07:30:00","36191","1.1520000000000001","250.6","2.025","258.3","1005.578","11.66","82.3","27.4","0.0"],
    [1398612,"2026-02-10 07:40:00","36192","0.917","241.8","1.633","201.1","1005.6310000000001","11.84","83.3","32.21","0.0"],
    [1398613,"2026-02-10 07:50:00","36193","0.636","266.1","1.372","278.5","1005.6489999999999","11.92","83.5","43.16","0.0"],
    [1398614,"2026-02-10 08:00:00","36194","0.379","301.1","1.013","310.5","1005.638","11.72","84.1","59.21","0.0"],
    [1398615,"2026-02-10 08:10:00","36195","0.15","286.2","0.947","272.8","1005.5060000000001","11.68","85.2","57.18","0.0"],
    [1398616,"2026-02-10 08:20:00","36196","0.9440000000000001","279.2","1.274","286.6","1005.431","11.93","85.0","142.4","0.0"],
    [1398617,"2026-02-10 08:30:00","36197","0.863","219.1","1.829","236.2","1005.315","12.56","83.9","191.9","0.0"],
    [1398618,"2026-02-10 08:40:00","36198","1.183","282.9","1.764","292.7","1005.425","13.08","82.5","201.4","0.0"],
    [1398619,"2026-02-10 08:50:00","36199","1.381","294.5","1.862","283.4","1005.578","12.93","82.8","118.6","0.0"],
    [1398620,"2026-02-10 09:00:00","36200","1.4","294.0","2.091","306.5","1005.577","12.94","81.5","236.2","0.0"],
    [1398621,"2026-02-10 09:10:00","36201","1.284","302.0","1.927","322","1005.459","13.47","77.79","360.2","0.0"],
    [1398622,"2026-02-10 09:20:00","36202","1.35","281.9","2.287","299.2","1005.471","13.85","73.76","248.8","0.0"],
    [1398623,"2026-02-10 09:30:00","36203","1.34","268.0","2.581","272.8","1005.495","13.92","73.96","276.7","0.0"],
    [1398624,"2026-02-10 09:40:00","36204","1.165","244.3","2.156","253.9","1005.5160000000001","14.22","73.6","208.4","0.0"],
    [1398625,"2026-02-10 09:50:00","36205","1.207","261.0","2.189","290.7","1005.446","14.37","73.51","364.6","0.0"],
    [1398626,"2026-02-10 10:00:00","36206","1.291","255.7","2.907","284","1005.3560000000001","14.93","72.89","350.0","0.0"],
    [1398627,"2026-02-10 10:10:00","36207","1.5859999999999999","304.3","2.613","318.7","1005.3969999999999","14.81","73.13","317.0","0.0"],
    [1398628,"2026-02-10 10:20:00","36208","0.945","306.5","1.666","308.9","1005.1039999999999","15.22","70.29","401.2","0.0"],
    [1398629,"2026-02-10 10:30:00","36209","0.948","221.8","1.699","214.9","1005.038","15.83","68.36","363.4","0.0"],
    [1398630,"2026-02-10 10:40:00","36210","1.177","263.3","2.711","277","1004.9110000000001","15.99","68.06","422.0","0.0"],
    [1398631,"2026-02-10 10:50:00","36211","1.535","262.9","2.94","202.2","1004.877","16.31","66.83","488.7","0.0"],
    [1398632,"2026-02-10 11:00:00","36212","1.5930000000000002","210.2","2.809","208.6","1005.033","16.45","67.14","292.7","0.0"],
    [1398633,"2026-02-10 11:10:00","36213","1.429","206.8","2.058","215.8","1004.935","15.77","69.9","194.3","0.0"],
    [1398634,"2026-02-10 11:20:00","36214","1.4","191.1","2.058","177.7","1004.75","15.5","72.96","226.1","0.0"],
    [1398635,"2026-02-10 11:30:00","36215","1.619","216.4","2.515","204.3","1004.936","15.39","74.05","247.9","0.0"],
    [1398636,"2026-02-10 11:40:00","36216","1.694","201.0","2.744","208.2","1004.887","15.14","76.36","202.3","0.0"],
    [1398637,"2026-02-10 11:50:00","36217","1.89","214.1","2.613","223.9","1004.7410000000001","15.7","75.3","406.5","0.0"],
    [1398638,"2026-02-10 12:00:00","36218","1.911","216.8","2.777","210.6","1004.7869999999999","16.29","72.03","391.2","0.0"],
    [1398639,"2026-02-10 12:10:00","36219","1.608","210.1","3.267","218.7","1004.742","16.68","70.96","281.6","0.0"],
    [1398640,"2026-02-10 12:20:00","36220","1.9980000000000002","218.4","3.495","211.4","1004.665","17.38","68.49","313.9","0.0"],
    [1398641,"2026-02-10 12:30:00","36221","1.804","195.3","2.94","167.2","1004.3839999999999","16.89","69.08","250.9","0.0"],
    [1398642,"2026-02-10 12:40:00","36222","1.585","192.2","2.711","179.2","1004.318","16.57","70.74","152.3","0.0"],
    [1398643,"2026-02-10 12:50:00","36223","0.747","191.0","2.809","171.2","1004.29","16.82","69.96","203.0","0.0"],
    [1398644,"2026-02-10 13:00:00","36224","0.653","207.1","1.535","177.1","1004.122","17.37","67.33","342.5","0.0"],
    [1398645,"2026-02-10 13:10:00","36225","1.693","198.6","3.038","215.4","1003.982","17.74","66.13","309.3","0.0"],
    [1398646,"2026-02-10 13:20:00","36226","1.0290000000000001","167.4","2.319","178.7","1003.803","17.26","68.69","217.5","0.0"],
    [1398647,"2026-02-10 13:30:00","36227","1.44","163.1","2.711","146.4","1003.518","17.04","69.41","170.0","0.0"],
    [1398648,"2026-02-10 13:40:00","36228","1.608","198.2","6.141","235","1003.2489999999999","17.5","68.3","268.4","0.0"],
    [1398649,"2026-02-10 13:50:00","36229","4.635","225.1","8.69","225.3","1003.1489999999999","18.64","61.43","271.9","0.0"],
    [1398650,"2026-02-10 14:00:00","36230","5.38","226.1","8.49","229.8","1003.043","18.56","61.61","308.1","0.0"],
    [1398651,"2026-02-10 14:10:00","36231","5.3229999999999995","223.0","8.62","219.3","1002.8560000000001","18.57","61.78","301.1","0.0"],
    [1398652,"2026-02-10 14:20:00","36232","5.3420000000000005","224.6","8.75","236.2","1002.7260000000001","18.63","61.04","428.7","0.0"],
    [1398653,"2026-02-10 14:30:00","36233","4.789","226.4","8.1","218.3","1002.602","18.69","60.43","419.5","0.0"],
    [1398654,"2026-02-10 14:40:00","36234","4.588","225.5","6.762","217.6","1002.551","18.62","60.79","365.0","0.0"],
    [1398655,"2026-02-10 14:50:00","36235","5.516","224.8","10.71","216.4","1002.3639999999999","18.94","59.21","353.4","0.0"],
    [1398656,"2026-02-10 15:00:00","36236","4.671","227.4","9.93","227.5","1002.315","18.73","60.47","342.3","0.0"],
    [1398657,"2026-02-10 15:10:00","36237","5.667999999999999","226.6","9.87","210.2","1002.166","18.62","60.2","368.5","0.0"],
    [1398658,"2026-02-10 15:20:00","36238","5.559","225.8","8.92","213.9","1001.9860000000001","18.99","58.54","291.8","0.0"],
    [1398659,"2026-02-10 15:30:00","36239","5.631","227.0","9.51","219.6","1001.812","19.12","58.21","184.1","0.0"],
    [1398660,"2026-02-10 15:40:00","36240","4.731","226.9","7.513","206.3","1001.57","19.18","58.07","171.1","0.0"],
    [1398661,"2026-02-10 15:50:00","36241","4.12","227.5","6.337","227.6","1001.57","18.93","59.09","142.2","0.0"],
    [1398662,"2026-02-10 16:00:00","36242","3.375","230.3","5.945","215.8","1001.633","18.73","60.24","138.9","0.0"],
    [1398663,"2026-02-10 16:10:00","36243","3.887","229.6","6.37","210.3","1001.615","18.89","60.0","102.7","0.0"],
    [1398664,"2026-02-10 16:20:00","36244","3.208","228.5","5.39","220.6","1001.693","18.92","60.27","78.68","0.0"],
    [1398665,"2026-02-10 16:30:00","36245","3.18","229.9","6.501","229.2","1001.773","18.44","62.48","64.79","0.0"],
    [1398666,"2026-02-10 16:40:00","36246","3.0069999999999997","229.4","4.9","213.8","1001.8689999999999","18.55","61.73","33.89","0.0"],
    [1398667,"2026-02-10 16:50:00","36247","3.095","228.2","4.867","251.8","1001.893","18.45","61.64","26.31","0.0"],
    [1398668,"2026-02-10 17:10:00","36248","3.326","228.0","5.39","220.8","1001.633","17.31","66.88","13.45","0.0"],
    [1398669,"2026-02-10 17:20:00","36249","3.032","228.4","4.867","231.4","1001.6460000000001","17.03","68.2","3.3089999999999997","0.0"],
    [1398670,"2026-02-10 17:30:00","36250","3.1489999999999996","230.0","5.553","228.5","1001.564","17.35","67.05","-0.319","0.0"],
    [1398671,"2026-02-10 17:40:00","36251","2.758","229.4","4.769","233.8","1001.518","17.14","68.02","-1.837","0.0"],
    [1398672,"2026-02-10 17:50:00","36252","3.452","229.3","5.455","213.5","1001.485","17.48","66.08","-2.017","0.0"],
    [1398673,"2026-02-10 18:00:00","36253","3.154","227.9","4.998","223.2","1001.6260000000001","17.5","65.37","-2.002","0.0"],
    [1398674,"2026-02-10 18:10:00","36254","3.17","228.1","4.377","218.3","1001.56","17.46","65.74","-1.713","0.0"],
    [1398675,"2026-02-10 18:20:00","36255","2.017","231.4","3.757","225.8","1001.553","17.23","66.79","-1.949","0.0"],
    [1398676,"2026-02-10 18:30:00","36256","2.41","226.8","3.528","225.7","1001.4780000000001","17.36","66.34","-2.006","0.0"],
    [1398677,"2026-02-10 18:40:00","36257","2.455","223.0","3.495","205.1","1001.4","17.37","66.56","-1.528","0.0"],
    [1398678,"2026-02-10 18:50:00","36258","2.883","220.2","4.377","217.5","1001.3610000000001","16.84","69.39","-1.227","0.0"],
    [1398679,"2026-02-10 19:00:00","36259","2.767","226.1","4.475","223.2","1001.3430000000001","16.96","69.31","-1.617","0.0"],
    [1398680,"2026-02-10 19:10:00","36260","2.8760000000000003","226.8","4.802","211.7","1001.28","16.85","70.0","-1.284","0.0"],
    [1398681,"2026-02-10 19:20:00","36261","2.18","230.9","4.149","216.6","1001.3960000000001","16.63","71.12","-1.295","0.0"],
    [1398682,"2026-02-10 19:30:00","36262","1.6269999999999998","234.8","3.201","231.3","1001.6410000000001","16.44","71.67","-1.66","0.0"],
    [1398683,"2026-02-10 19:40:00","36263","1.729","230.4","2.907","225.2","1001.673","16.61","71.07","-1.693","0.0"],
    [1398684,"2026-02-10 19:50:00","36264","1.844","225.3","2.515","225.7","1001.5930000000001","16.8","70.38","-1.4809999999999999","0.0"],
    [1398685,"2026-02-10 20:00:00","36265","2.093","216.2","3.038","219.8","1001.457","16.63","71.35","-1.6969999999999998","0.0"],
    [1398686,"2026-02-10 20:10:00","36266","1.8430000000000002","223.9","3.201","223.2","1001.574","16.32","72.94","-1.389","0.0"],
    [1398687,"2026-02-10 20:20:00","36267","1.121","238.9","2.515","232.7","1001.586","16.0","74.21","-1.7990000000000002","0.0"],
    [1398688,"2026-02-10 20:30:00","36268","1.413","201.7","2.744","170","1001.4789999999999","15.82","75.48","-1.979","0.0"],
    [1398689,"2026-02-10 20:40:00","36269","2.221","225.7","3.561","219.7","1001.4630000000001","15.87","75.9","-1.969","0.0"],
    [1398690,"2026-02-10 20:50:00","36270","2.43","215.2","4.475","219.4","1001.436","16.16","74.34","-1.999","0.0"],
    [1398691,"2026-02-10 21:00:00","36271","2.968","212.2","4.9","208.1","1001.314","16.3","73.51","-2.011","0.0"],
    [1398692,"2026-02-10 21:10:00","36272","3.303","209.3","5.227","203.6","1001.247","16.53","72.38","-1.9909999999999999","0.0"],
    [1398693,"2026-02-10 21:20:00","36273","3.7319999999999998","212.1","6.501","207","1001.2460000000001","16.37","73.45","-2.033","0.0"],
    [1398694,"2026-02-10 21:30:00","36274","3.487","213.7","5.227","225.4","1001.363","16.4","73.09","-2.0580000000000003","0.0"],
    [1398695,"2026-02-10 21:40:00","36275","3.639","211.2","5.063","219.2","1001.336","16.36","73.36","-2.1319999999999997","0.0"],
    [1398696,"2026-02-10 21:50:00","36276","2.334","247.8","4.214","210.2","1001.632","16.2","74.13","-1.976","0.0"],
    [1398697,"2026-02-10 22:00:00","36277","0.823","266.6","2.613","237.6","1001.421","15.74","75.61","-2.499","0.0"],
    [1398698,"2026-02-10 22:10:00","36278","0.9570000000000001","318.8","2.058","322.9","1001.1619999999999","15.51","76.48","-2.699","0.0"],
    [1398699,"2026-02-10 22:20:00","36279","0.98","247.9","2.711","257.8","1001.13","15.5","76.6","-2.698","0.0"],
    [1398700,"2026-02-10 22:30:00","36280","1.525","258.8","3.234","283.8","1001.1080000000001","15.6","75.53","-2.795","0.0"],
    [1398701,"2026-02-10 22:40:00","36281","1.4409999999999998","294.2","2.515","321","1001.1210000000001","15.41","75.73","-2.478","0.0"],
    [1398702,"2026-02-10 22:50:00","36282","1.16","262.7","1.862","297.1","1000.7339999999999","15.16","76.76","-2.548","0.0"],
    [1398703,"2026-02-10 23:00:00","36283","1.564","231.8","3.201","306.4","1000.637","15.14","77.01","-2.642","0.0"],
    [1398704,"2026-02-10 23:10:00","36284","1.022","276.4","1.895","296.9","1000.762","15.32","75.2","-2.614","0.0"],
    [1398705,"2026-02-10 23:20:00","36285","1.3130000000000002","264.7","2.94","267","1001.062","15.78","72.19","-2.537","0.0"],
    [1398706,"2026-02-10 23:30:00","36286","1.5219999999999998","239.2","2.94","293.3","1001.175","15.6","72.44","-2.654","0.0"],
    [1398707,"2026-02-10 23:40:00","36287","1.7280000000000002","228.6","2.744","239.6","1001.2180000000001","16.18","69.27","-2.6719999999999997","0.0"],
    [1398708,"2026-02-10 23:50:00","36288","1.103","244.1","2.385","202.1","1000.913","16.95","65.59","-2.595","0.0"],
    [1398709,"2026-02-11 00:00:00","36289","2.298","211.6","3.757","229.8","1001.0160000000001","17.27","63.53","-3.0469999999999997","0.0"],
    [1398710,"2026-02-11 00:10:00","36290","3.0869999999999997","225.7","5.782","214.3","1001.308","18.57","56.95","-3.4989999999999997","0.0"],
    [1398711,"2026-02-11 00:20:00","36291","2.569","259.7","5.031","270.7","1001.029","18.86","54.91","-2.867","0.0"],
    [1398712,"2026-02-11 00:30:00","36292","3.7","271.4","7.415","279.1","1000.9","19.09","53.89","-3.165","0.0"],
    [1398713,"2026-02-11 00:40:00","36293","3.097","261.2","6.239","268.4","1001.0419999999999","19.3","53.04","-2.81","0.0"],
    [1398714,"2026-02-11 00:50:00","36294","2.467","267.2","5.161","297.2","1001.362","19.19","53.12","-2.7289999999999996","0.0"],
    [1398715,"2026-02-11 01:00:00","36295","2.234","257.5","4.377","272.2","1001.562","19.07","53.22","-2.841","0.0"],
    [1398716,"2026-02-11 01:10:00","36296","2.048","236.0","3.691","255.9","1001.578","18.97","53.16","-2.8080000000000003","0.0"],
    [1398717,"2026-02-11 01:20:00","36297","1.632","217.7","3.201","212.6","1001.566","18.73","53.69","-3.0239999999999996","0.0"],
    [1398718,"2026-02-11 01:30:00","36298","1.122","233.0","2.646","165.5","1001.747","18.53","53.98","-3.283","0.0"],
    [1398719,"2026-02-11 01:40:00","36299","2.19","317.8","4.671","308.6","1001.7710000000001","18.4","54.22","-3.392","0.0"],
    [1398720,"2026-02-11 01:50:00","36300","2.9160000000000004","314.2","8.4","297.3","1001.775","18.89","52.18","-3.2680000000000002","0.0"],
    [1398721,"2026-02-11 02:00:00","36301","2.772","299.0","5.129","314.7","1001.831","18.79","52.39","-3.042","0.0"],
    [1398722,"2026-02-11 02:10:00","36302","2.113","269.5","8.53","285","1001.71","18.69","52.24","-3.272","0.0"],
    [1398723,"2026-02-11 02:20:00","36303","5.212999999999999","299.2","10.91","298.9","1002.182","18.87","51.2","-3.551","0.0"],
    [1398724,"2026-02-11 02:30:00","36304","5.886","297.4","10.49","301.6","1002.13","19.08","49.98","-2.9389999999999996","0.0"],
    [1398725,"2026-02-11 02:40:00","36305","6.739","299.0","10.88","280.3","1001.987","19.09","48.31","-2.79","0.0"],
    [1398726,"2026-02-11 02:50:00","36306","6.718999999999999","303.4","12.64","304.1","1002.097","18.98","47.65","-2.705","0.0"],
    [1398727,"2026-02-11 03:00:00","36307","6.3260000000000005","297.1","11.73","299.5","1002.074","18.77","48.46","-2.656","0.0"],
    [1398728,"2026-02-11 03:10:00","36308","7.662999999999999","301.6","15.91","304.9","1002.117","18.65","49.5","-2.737","0.0"],
    [1398729,"2026-02-11 03:20:00","36309","6.922000000000001","305.9","12.32","297.1","1002.107","18.6","49.83","-2.5269999999999997","0.0"],
    [1398730,"2026-02-11 03:30:00","36310","8.15","310.6","14.63","321.2","1002.132","18.41","49.89","-2.7260000000000004","0.0"],
    [1398731,"2026-02-11 03:40:00","36311","9.66","309.1","16.27","317.8","1002.0010000000001","18.61","47.67","-2.548","0.0"],
    [1398732,"2026-02-11 03:50:00","36312","10.94","302.4","18.2","310.1","1001.9580000000001","18.63","45.17","-2.508","0.0"],
    [1398733,"2026-02-11 04:00:00","36313","10.81","299.8","19.27","305.6","1002.012","18.65","43.72","-2.239","0.0"],
    [1398734,"2026-02-11 04:10:00","36314","10.12","296.7","19.01","311.4","1002.237","18.53","44.88","-2.168","0.0"],
    [1398735,"2026-02-11 04:20:00","36315","9.35","295.3","15.81","310","1002.3910000000001","18.33","45.69","-2.265","0.0"],
    [1398736,"2026-02-11 04:30:00","36316","8.22","296.5","13.39","291","1002.47","18.22","45.2","-2.184","0.0"],
    [1398737,"2026-02-11 04:40:00","36317","8.73","294.4","16.27","305","1002.579","18.14","44.35","-2.597","0.0"],
    [1398738,"2026-02-11 04:50:00","36318","9.98","297.1","16.07","295.1","1002.5830000000001","18.3","43.0","-2.494","0.0"],
    [1398739,"2026-02-11 05:00:00","36319","9.12","299.8","16.1","308.2","1002.59","18.14","43.24","-2.4459999999999997","0.0"],
    [1398740,"2026-02-11 05:10:00","36320","9.26","295.7","15.35","314.6","1002.544","18.13","43.08","-2.483","0.0"],
    [1398741,"2026-02-11 05:20:00","36321","9.25","294.3","14.93","293.9","1002.659","18.12","42.71","-2.4619999999999997","0.0"],
    [1398742,"2026-02-11 05:30:00","36322","7.353","291.8","14.08","291.9","1002.633","18.15","42.1","-2.329","0.0"],
    [1398743,"2026-02-11 05:40:00","36323","6.8420000000000005","290.2","13.23","281.9","1002.686","18.05","41.86","-2.546","0.0"],
    [1398744,"2026-02-11 05:50:00","36324","7.705","287.2","14.9","308.6","1002.827","18.11","41.07","-2.733","0.0"],
    [1398745,"2026-02-11 06:00:00","36325","5.8629999999999995","275.7","12.09","304.7","1003.165","18.13","40.67","-2.615","0.0"],
    [1398746,"2026-02-11 06:10:00","36326","3.786","252.8","8.69","262.9","1003.5089999999999","18.05","41.05","-2.693","0.0"],
    [1398747,"2026-02-11 06:20:00","36327","4.4030000000000005","237.1","9.93","226.4","1003.691","17.91","41.06","-2.8360000000000003","0.0"],
    [1398748,"2026-02-11 06:30:00","36328","4.051","235.5","7.938","297.1","1003.7589999999999","17.88","40.77","-2.7239999999999998","0.0"],
    [1398749,"2026-02-11 06:40:00","36329","3.737","229.0","7.317","227.8","1003.914","17.68","42.6","-1.89","0.0"],
    [1398750,"2026-02-11 06:50:00","36330","3.255","230.8","7.35","215.5","1004.1239999999999","17.01","46.87","0.6709999999999999","0.0"],
    [1398751,"2026-02-11 07:00:00","36331","4.249","248.8","12.74","199.6","1004.176","17.19","46.03","2.052","0.0"],
    [1398752,"2026-02-11 07:10:00","36332","4.087","283.7","7.252","287.4","1004.145","17.07","45.27","9.15","0.0"],
    [1398753,"2026-02-11 07:20:00","36333","3.6710000000000003","284.9","6.599","288.8","1004.321","17.08","43.9","19.79","0.0"],
    [1398754,"2026-02-11 07:30:00","36334","5.1080000000000005","284.7","8.62","285.4","1004.571","17.43","42.52","26.34","0.0"],
    [1398755,"2026-02-11 07:40:00","36335","3.8689999999999998","283.1","8.13","264.4","1004.946","17.6","42.29","36.12","0.0"],
    [1398756,"2026-02-11 07:50:00","36336","3.2319999999999998","289.8","6.043","297.3","1005.0369999999999","17.48","42.76","38.78","0.0"],
    [1398757,"2026-02-11 08:00:00","36337","1.974","290.2","5.096","301.1","1005.0830000000001","17.28","43.7","47.23","0.0"],
    [1398758,"2026-02-11 08:10:00","36338","2.471","298.9","4.377","273.7","1005.056","17.15","44.27","67.38","0.0"],
    [1398759,"2026-02-11 08:20:00","36339","2.045","252.6","3.724","254.6","1005.1080000000001","17.53","43.45","75.96","0.0"],
    [1398760,"2026-02-11 08:30:00","36340","2.318","222.3","3.659","212.5","1005.3480000000001","17.25","46.7","89.4","0.0"],
    [1398761,"2026-02-11 08:40:00","36341","2.9410000000000003","211.6","5.259","210.8","1005.4860000000001","17.11","48.29","133.9","0.0"],
    [1398762,"2026-02-11 08:50:00","36342","4.56","221.6","6.827","190.4","1005.65","17.14","49.22","138.5","0.0"],
    [1398763,"2026-02-11 09:00:00","36343","4.647","227.4","8.46","216.9","1005.625","17.44","47.99","124.5","0.0"],
    [1398764,"2026-02-11 09:10:00","36344","3.1630000000000003","247.3","6.501","302.5","1005.715","17.49","47.83","142.6","0.0"],
    [1398765,"2026-02-11 09:20:00","36345","2.458","272.7","5.227","299.4","1005.725","17.77","47.27","179.0","0.0"],
    [1398766,"2026-02-11 09:30:00","36346","1.4280000000000002","245.1","2.842","248.3","1005.94","17.96","45.48","127.7","0.0"],
    [1398767,"2026-02-11 09:40:00","36347","1.245","219.3","2.221","211.1","1006.419","18.46","45.54","393.3","0.0"],
    [1398768,"2026-02-11 09:50:00","36348","1.528","206.4","2.842","206.8","1006.415","19.34","43.41","461.2","0.0"],
    [1398769,"2026-02-11 10:00:00","36349","1.8730000000000002","202.9","3.691","175.9","1006.217","19.62","41.26","464.3","0.0"],
    [1398770,"2026-02-11 10:10:00","36350","1.686","235.3","4.541","291.7","1006.289","20.08","40.2","466.5","0.0"],
    [1398771,"2026-02-11 10:20:00","36351","3.199","271.8","7.023","286","1006.21","20.36","37.75","396.8","0.0"],
    [1398772,"2026-02-11 10:30:00","36352","3.424","255.1","6.893","258.6","1006.1010000000001","20.1","38.41","434.0","0.0"],
    [1398773,"2026-02-11 10:40:00","36353","4.383","264.1","8.1","264.4","1006.04","20.52","37.04","535.0","0.0"],
    [1398774,"2026-02-11 10:50:00","36354","3.805","244.7","7.285","309","1005.967","21.0","36.78","550.5","0.0"],
    [1398775,"2026-02-11 11:00:00","36355","3.6260000000000003","259.8","6.925","284.9","1005.831","21.08","36.78","529.7","0.0"],
    [1398776,"2026-02-11 11:10:00","36356","6.415","296.9","10.91","301","1005.727","20.95","35.49","462.8","0.0"],
    [1398777,"2026-02-11 11:20:00","36357","5.103","292.8","9.15","298.3","1005.49","21.27","34.91","547.3","0.0"],
    [1398778,"2026-02-11 11:30:00","36358","4.196000000000001","289.5","7.84","287.8","1005.377","21.53","34.28","575.5","0.0"],
    [1398779,"2026-02-11 11:40:00","36359","3.8710000000000004","283.3","6.109","281.9","1005.312","21.78","33.93","587.6","0.0"],
    [1398780,"2026-02-11 11:50:00","36360","3.71","268.2","7.023","290.9","1005.179","22.02","32.82","595.3","0.0"],
    [1398781,"2026-02-11 12:00:00","36361","3.862","264.3","8.56","227.3","1005.091","21.89","32.92","596.2","0.0"],
    [1398782,"2026-02-11 12:10:00","36362","4.356","292.8","7.35","308.3","1005.115","22.17","33.58","571.3","0.0"],
    [1398783,"2026-02-11 12:20:00","36363","5.178","290.2","9.83","309.7","1004.905","21.88","34.38","538.1","0.0"],
    [1398784,"2026-02-11 12:30:00","36364","5.88","301.2","9.93","317.9","1004.56","21.87","34.75","591.0","0.0"],
    [1398785,"2026-02-11 12:40:00","36365","5.558","300.3","9.21","305.7","1004.523","22.28","34.47","668.2","0.0"],
    [1398786,"2026-02-11 12:50:00","36366","5.162999999999999","292.9","9.6","315","1004.28","22.42","34.07","632.5","0.0"],
    [1398787,"2026-02-11 13:00:00","36367","5.31","280.7","8.07","281.1","1004.1060000000001","22.07","34.23","587.8","0.0"],
    [1398788,"2026-02-11 13:10:00","36368","4.812","265.8","8.04","295.6","1003.85","21.97","34.19","509.4","0.0"],
    [1398789,"2026-02-11 13:20:00","36369","4.695","263.1","7.775","218.5","1003.716","21.91","34.31","502.9","0.0"],
    [1398790,"2026-02-11 13:30:00","36370","5.121","264.9","9.54","261.7","1003.618","21.38","35.02","282.8","0.0"],
    [1398791,"2026-02-11 13:40:00","36371","4.2010000000000005","266.0","7.219","233.9","1003.557","21.57","35.27","373.4","0.0"],
    [1398792,"2026-02-11 13:50:00","36372","5.667000000000001","277.9","10.98","269.2","1003.33","21.42","35.19","318.6","0.0"],
    [1398793,"2026-02-11 14:00:00","36373","5.483","277.3","9.31","295.9","1003.138","21.47","35.29","396.8","0.0"],
    [1398794,"2026-02-11 14:10:00","36374","4.791","276.1","11.24","275.1","1002.929","22.24","33.93","617.5","0.0"],
    [1398795,"2026-02-11 14:20:00","36375","5.266","283.1","10.58","277.2","1002.687","22.39","33.83","507.2","0.0"],
    [1398796,"2026-02-11 14:30:00","36376","6.028","291.0","9.34","289.7","1002.565","22.1","34.24","407.9","0.0"],
    [1398797,"2026-02-11 14:40:00","36377","5.274","281.3","9.8","284.2","1002.71","21.88","34.13","279.0","0.0"],
    [1398798,"2026-02-11 14:50:00","36378","4.269","258.0","8.49","299.6","1002.68","21.63","35.21","190.7","0.0"],
    [1398799,"2026-02-11 15:00:00","36379","3.865","230.2","6.729","220.7","1002.664","21.24","37.62","134.8","0.0"],
    [1398800,"2026-02-11 15:10:00","36380","4.266","230.7","6.795","236.3","1002.617","20.89","39.78","156.5","0.0"],
    [1398801,"2026-02-11 15:20:00","36381","3.818","231.4","7.023","251.3","1002.482","20.78","40.63","145.9","0.0"],
    [1398802,"2026-02-11 15:30:00","36382","3.4619999999999997","231.7","6.533","254","1002.3","20.66","41.57","111.7","0.0"],
    [1398803,"2026-02-11 15:40:00","36383","3.5","228.0","5.945","246.3","1002.48","20.52","42.35","105.3","0.0"],
    [1398804,"2026-02-11 15:50:00","36384","4.12","232.2","8.69","243.5","1002.561","20.43","42.22","122.9","0.0"],
    [1398805,"2026-02-11 16:00:00","36385","3.6839999999999997","240.1","9.51","269.8","1002.518","20.25","42.62","84.1","0.0"],
    [1398806,"2026-02-11 16:10:00","36386","4.067","240.0","7.644","230.2","1002.185","20.1","43.08","50.89","0.0"],
    [1398807,"2026-02-11 16:20:00","36387","2.9","241.9","5.782","222.4","1002.118","20.02","43.58","42.04","0.0"],
    [1398808,"2026-02-11 16:30:00","36388","3.176","266.4","6.076","257.6","1001.763","19.85","44.56","29.44","0.0"],
    [1398809,"2026-02-11 16:40:00","36389","3.009","258.7","6.827","296.4","1001.6289999999999","19.78","44.55","14.67","0.0"],
    [1398810,"2026-02-11 16:50:00","36390","4.162","265.2","7.742","287.6","1001.4830000000001","19.68","44.49","8.96","0.0"],
    [1398811,"2026-02-11 17:00:00","36391","3.1719999999999997","273.3","6.599","292.3","1001.315","19.58","45.04","8.44","0.0"],
    [1398812,"2026-02-11 17:10:00","36392","2.7939999999999996","266.6","6.239","287.1","1001.1569999999999","19.46","45.41","4.457","0.0"],
    [1398813,"2026-02-11 17:20:00","36393","2.6910000000000003","271.1","5.161","302.3","1001.038","19.18","46.66","0.968","0.0"],
    [1398814,"2026-02-11 17:30:00","36394","2.405","251.1","5.39","268.6","1001.177","19.01","47.68","0.027000000000000003","0.0"],
    [1398815,"2026-02-11 17:40:00","36395","2.258","239.1","4.083","260.4","1001.3539999999999","18.81","49.15","-1.107","0.0"],
    [1398816,"2026-02-11 17:50:00","36396","2.528","264.0","5.194","291.5","1001.39","18.6","50.43","-1.193","0.0"],
    [1398817,"2026-02-11 18:00:00","36397","3.7960000000000003","290.8","5.88","291.6","1001.3589999999999","18.12","53.95","-1.921","0.0"],
    [1398818,"2026-02-11 18:10:00","36398","2.966","292.3","4.704","293.3","1001.204","17.51","58.92","-3.3539999999999996","0.0"],
    [1398819,"2026-02-11 18:20:00","36399","2.917","288.3","5.031","295.7","1001.061","17.15","61.88","-4.13","0.0"],
    [1398820,"2026-02-11 18:30:00","36400","1.817","245.3","3.659","274.9","1001.1030000000001","16.88","64.74","-4.496","0.0"],
    [1398821,"2026-02-11 18:40:00","36401","1.906","265.0","3.463","251","1000.9830000000001","16.82","65.98","-3.175","0.0"],
    [1398822,"2026-02-11 18:50:00","36402","2.2359999999999998","267.2","3.953","269.3","1000.798","16.67","66.2","-2.969","0.0"],
    [1398823,"2026-02-11 19:00:00","36403","2.87","287.1","4.41","295.9","1000.668","16.21","69.34","-2.71","0.0"],
    [1398824,"2026-02-11 19:10:00","36404","2.8280000000000003","281.9","4.671","279.1","1000.388","15.8","71.95","-3.138","0.0"],
    [1398825,"2026-02-11 19:20:00","36405","2.3680000000000003","276.3","4.704","290","1000.091","15.38","74.89","-3.46","0.1"],
    [1398826,"2026-02-11 19:30:00","36406","2.011","272.0","3.169","266","999.7255","15.02","77.52","-3.1","0.1"],
    [1398827,"2026-02-11 19:40:00","36407","2.126","296.9","5.717","315.2","999.6799","14.85","79.5","-1.395","0.0"],
    [1398828,"2026-02-11 19:50:00","36408","4.345","311.4","8.75","318.1","1000.1310000000001","15.19","77.97","-1.227","0.0"],
    [1398829,"2026-02-11 20:00:00","36409","5.1370000000000005","312.9","7.481","309","1000.273","15.45","76.76","-1.87","0.0"],
    [1398830,"2026-02-11 20:10:00","36410","4.361000000000001","315.9","6.272","312.9","999.9937","15.28","78.04","-2.583","0.0"],
    [1398831,"2026-02-11 20:20:00","36411","3.531","307.1","5.129","298.9","999.9773","15.2","79.08","-1.065","0.0"],
    [1398832,"2026-02-11 20:30:00","36412","2.946","292.5","5.651","309.8","999.8554","14.86","81.4","-0.478","0.0"],
    [1398833,"2026-02-11 20:40:00","36413","2.802","302.2","4.247","304.4","999.6052","14.6","82.7","-0.607","0.0"],
    [1398834,"2026-02-11 20:50:00","36414","2.866","300.2","4.443","294.4","999.5629","14.37","83.5","-1.245","0.0"],
    [1398835,"2026-02-11 21:00:00","36415","2.565","296.1","4.541","296.8","999.2192","14.24","83.6","-1.235","0.0"],
    [1398836,"2026-02-11 21:10:00","36416","2.282","282.5","3.136","296.5","998.9713","14.05","83.9","-1.4669999999999999","0.0"],
    [1398837,"2026-02-11 21:20:00","36417","1.993","275.5","3.365","267.7","999.0932","13.96","83.6","-1.735","0.0"],
    [1398838,"2026-02-11 21:30:00","36418","2.167","284.8","3.985","276.7","998.9860000000001","13.79","83.4","-2.008","0.0"],
    [1398839,"2026-02-11 21:40:00","36419","2.234","298.5","4.475","309","999.0425","13.69","83.0","-1.992","0.0"],
    [1398840,"2026-02-11 21:50:00","36420","1.589","293.6","2.875","296.7","999.049","13.7","82.4","-2.035","0.0"],
    [1398841,"2026-02-11 22:00:00","36421","1.4280000000000002","298.6","2.189","296.3","998.9207","13.57","83.3","-2.207","0.0"],
    [1398842,"2026-02-11 22:10:00","36422","1.744","294.2","2.809","309.3","998.8439","13.53","83.9","-2.513","0.0"],
    [1398843,"2026-02-11 22:20:00","36423","1.248","271.2","2.156","269.6","998.8403","13.72","83.1","-2.5340000000000003","0.0"],
    [1398844,"2026-02-11 22:30:00","36424","1.473","239.5","3.201","270.8","998.7048","13.78","82.6","-2.67","0.0"],
    [1398845,"2026-02-11 22:40:00","36425","1.054","255.5","2.058","273.4","998.5634","13.81","82.3","-2.7289999999999996","0.0"],
    [1398846,"2026-02-11 22:50:00","36426","1.5019999999999998","250.0","2.777","209.4","998.54","13.57","83.3","-2.7110000000000003","0.0"],
    [1398847,"2026-02-11 23:00:00","36427","1.198","276.4","2.156","294.1","998.5429","13.27","84.4","-2.569","0.0"],
    [1398848,"2026-02-11 23:10:00","36428","0.7979999999999999","298.2","1.601","324.6","998.576","12.99","85.8","-2.759","0.0"],
    [1398849,"2026-02-11 23:20:00","36429","0.0","0.0","0","0","998.4271","12.65","87.3","-2.761","0.0"],
    [1398850,"2026-02-11 23:30:00","36430","0.632","199.0","1.209","203.1","998.4858","12.57","88.7","-2.807","0.0"],
    [1398851,"2026-02-11 23:40:00","36431","0.598","173.5","1.601","177.8","998.3983","12.83","88.0","-2.761","0.0"],
    [1398852,"2026-02-11 23:50:00","36432","0.29100000000000004","62.72","1.274","17.23","998.2211","12.57","87.7","-2.7489999999999997","0.0"],
    [1398853,"2026-02-12 00:00:00","36433","0.968","59.9","1.862","26.75","998.1086","12.48","88.9","-2.773","0.0"],
    [1398854,"2026-02-12 00:10:00","36434","2.119","78.24","11.43","290.7","997.9764","13.2","86.1","-4.131","0.0"],
    [1398855,"2026-02-12 00:20:00","36435","4.189","262.7","12.12","252.8","997.7628","17.51","59.64","-6.303","0.0"],
    [1398856,"2026-02-12 00:30:00","36436","7.042999999999999","274.0","14.24","273","997.5882","18.53","50.08","-4.289","0.0"],
    [1398857,"2026-02-12 00:40:00","36437","8.31","283.0","15.94","272.6","997.7883","18.38","46.57","-2.7680000000000002","0.0"],
    [1398858,"2026-02-12 00:50:00","36438","8.1","288.4","14.5","291.2","997.8542","18.26","44.32","-2.392","0.0"],
    [1398859,"2026-02-12 01:00:00","36439","8.01","280.1","17.31","295.5","997.9706","18.22","45.13","-2.4730000000000003","0.0"],
    [1398860,"2026-02-12 01:10:00","36440","8.35","278.3","15.06","279.3","998.0305","18.02","46.99","-2.272","0.0"],
    [1398861,"2026-02-12 01:20:00","36441","9.42","278.7","16.63","292.3","998.0428","18.05","44.7","-2.555","0.0"],
    [1398862,"2026-02-12 01:30:00","36442","9.13","277.7","17.8","287","998.1487","18.05","43.25","-2.419","0.0"],
    [1398863,"2026-02-12 01:40:00","36443","8.64","272.3","17.48","294.6","998.3124","17.98","41.87","-2.157","0.0"],
    [1398864,"2026-02-12 01:50:00","36444","7.672000000000001","273.4","18.2","266.9","998.4972","17.77","41.45","-2.401","0.0"],
    [1398865,"2026-02-12 02:00:00","36445","9.21","273.9","16.1","265.8","998.6982","17.75","40.24","-2.36","0.0"],
    [1398866,"2026-02-12 02:10:00","36446","7.624","273.7","17.35","287.9","998.8179","17.51","40.71","-2.1","0.0"],
    [1398867,"2026-02-12 02:20:00","36447","8.33","271.6","15.71","296.2","998.931","17.43","40.36","-2.5380000000000003","0.0"],
    [1398868,"2026-02-12 02:30:00","36448","7.006","267.8","15.71","283.4","999.0253","17.34","40.18","-2.298","0.0"],
    [1398869,"2026-02-12 02:40:00","36449","7.369","257.6","14.67","261.4","998.99","17.29","39.69","-2.67","0.0"],
    [1398870,"2026-02-12 02:50:00","36450","7.506","258.2","16.46","274.9","999.0815","17.39","39.24","-2.463","0.0"],
    [1398871,"2026-02-12 03:00:00","36451","6.861000000000001","259.8","14.28","261.8","998.9876","17.15","40.06","-2.213","0.0"],
    [1398872,"2026-02-12 03:10:00","36452","6.566","252.6","13.65","260.9","998.9705","17.02","40.4","-2.354","0.0"],
    [1398873,"2026-02-12 03:20:00","36453","7.121","256.9","14.47","267","998.9394","16.96","40.53","-2.4659999999999997","0.0"],
    [1398874,"2026-02-12 03:30:00","36454","5.937","258.5","10.81","269.7","998.8389","16.83","40.73","-2.537","0.0"],
    [1398875,"2026-02-12 03:40:00","36455","7.437","262.7","14.24","264.7","999.0332","16.77","40.79","-2.642","0.0"],
    [1398876,"2026-02-12 03:50:00","36456","6.791","263.0","12.51","294.9","999.1188","16.74","40.65","-2.406","0.0"],
    [1398877,"2026-02-12 04:00:00","36457","6.035","250.8","12.25","255.6","998.9485","16.6","40.75","-2.526","0.0"],
    [1398878,"2026-02-12 04:10:00","36458","5.572","251.6","14.28","259.8","998.8312","16.49","40.77","-2.6260000000000003","0.0"],
    [1398879,"2026-02-12 04:20:00","36459","6.14","250.7","13.2","268.7","998.6935","16.46","40.56","-2.617","0.0"],
    [1398880,"2026-02-12 04:30:00","36460","6.513","256.9","11.76","263.5","998.7836","16.33","40.6","-2.678","0.0"],
    [1398881,"2026-02-12 04:40:00","36461","6.82","252.7","12.41","259.8","998.4761","16.33","40.4","-2.645","0.0"],
    [1398882,"2026-02-12 04:50:00","36462","7.341","252.7","17.35","272.5","997.8167","16.26","40.08","-2.437","0.0"],
    [1398883,"2026-02-12 05:00:00","36463","8.11","255.9","16.53","264.7","997.1292","16.21","39.11","-2.415","0.0"],
    [1398884,"2026-02-12 05:10:00","36464","8.89","256.5","16.99","274.3","996.5296","16.2","38.02","-2.334","0.0"],
    [1398885,"2026-02-12 05:20:00","36465","8.97","254.0","20.22","265.1","996.1447","16.11","37.68","-2.245","0.0"],
    [1398886,"2026-02-12 05:30:00","36466","8.95","260.8","18.95","268.3","995.9523","16.08","36.64","-2.2769999999999997","0.0"],
    [1398887,"2026-02-12 05:40:00","36467","10.46","268.4","20.55","275","995.7707","16.17","34.18","-2.495","0.0"],
    [1398888,"2026-02-12 05:50:00","36468","10.65","267.3","20.19","281.9","995.7209","16.27","32.12","-2.431","0.0"],
    [1398889,"2026-02-12 06:00:00","36469","11.04","268.4","21.43","271.1","995.7364","16.34","30.12","-2.2880000000000003","0.0"],
    [1398890,"2026-02-12 06:10:00","36470","10.98","277.4","22.41","278.5","995.7859","16.31","29.44","-2.134","0.0"],
    [1398891,"2026-02-12 06:20:00","36471","9.63","270.6","19.27","271.8","995.9014","16.29","29.4","-2.209","0.0"],
    [1398892,"2026-02-12 06:30:00","36472","10.49","275.5","17.31","297.2","996.2548","16.24","29.7","-2.133","0.0"],
    [1398893,"2026-02-12 06:40:00","36473","8.11","275.3","15.97","277.6","996.6232","16.03","30.62","-1.369","0.0"],
    [1398894,"2026-02-12 06:50:00","36474","8.02","280.9","14.99","268.5","996.9642","15.97","30.14","0.42","0.0"],
    [1398895,"2026-02-12 07:00:00","36475","7.3629999999999995","279.1","16.66","267.3","997.4053","15.98","29.78","4.736000000000001","0.0"],
    [1398896,"2026-02-12 07:10:00","36476","6.9479999999999995","272.9","12.71","304.9","997.7538","15.97","29.64","11.84","0.0"],
    [1398897,"2026-02-12 07:20:00","36477","7.401","279.8","16.76","327.7","998.1423","15.87","30.14","19.15","0.0"],
    [1398898,"2026-02-12 07:30:00","36478","6.422000000000001","279.5","12.58","257.9","998.4447","15.76","30.79","25.54","0.0"],
    [1398899,"2026-02-12 07:40:00","36479","6.282","281.3","14.67","307.1","998.6495","15.75","30.86","31.14","0.0"],
    [1398900,"2026-02-12 07:50:00","36480","6.308","275.8","12.05","264.2","998.8313","15.78","30.51","36.3","0.0"],
    [1398901,"2026-02-12 08:00:00","36481","6.035","277.9","13.72","290","999.095","15.9","29.89","41.85","0.0"],
    [1398902,"2026-02-12 08:10:00","36482","7.209","275.8","12.97","288.8","999.4111","16.06","29.25","127.5","0.0"],
    [1398903,"2026-02-12 08:20:00","36483","8.4","284.7","15.65","300.4","999.6235","16.26","28.8","204.7","0.0"],
    [1398904,"2026-02-12 08:30:00","36484","7.362","283.1","14.86","258.6","999.6722","16.38","28.5","235.6","0.0"],
    [1398905,"2026-02-12 08:40:00","36485","8.1","282.7","16.99","266.8","999.7562","16.48","28.36","266.9","0.0"],
    [1398906,"2026-02-12 08:50:00","36486","8.75","278.8","17.31","280.2","999.806","16.61","27.74","296.9","0.0"],
    [1398907,"2026-02-12 09:00:00","36487","7.928","278.7","16.37","267.9","999.9353","16.73","27.92","325.4","0.0"],
    [1398908,"2026-02-12 09:10:00","36488","7.721","283.9","16.24","292.4","1000.2439999999999","16.81","28.48","354.6","0.0"],
    [1398909,"2026-02-12 09:20:00","36489","8.55","287.2","16.66","284.4","1000.4019999999999","16.92","28.42","382.5","0.0"],
    [1398910,"2026-02-12 09:30:00","36490","8.61","285.2","15.81","273.5","1000.6160000000001","17.02","28.52","408.8","0.0"],
    [1398911,"2026-02-12 09:40:00","36491","9.32","290.7","15.94","294.1","1000.7189999999999","17.14","28.81","434.6","0.0"],
    [1398912,"2026-02-12 09:50:00","36492","9.84","284.8","18.88","291.8","1000.791","17.19","28.5","460.3","0.0"],
    [1398913,"2026-02-12 10:00:00","36493","10.36","290.5","16.01","307.1","1000.933","17.36","28.67","484.3","0.0"],
    [1398914,"2026-02-12 10:10:00","36494","8.02","281.5","14.86","305.8","1001.0889999999999","17.6","28.51","505.4","0.0"],
    [1398915,"2026-02-12 10:20:00","36495","7.176","275.2","13.98","302.7","1001.26","17.69","28.07","524.8","0.0"],
    [1398916,"2026-02-12 10:30:00","36496","8.23","280.2","14.41","308.6","1001.466","17.77","28.14","540.8","0.0"],
    [1398917,"2026-02-12 10:40:00","36497","8.7","279.9","16.27","296.7","1001.684","17.78","28.71","557.6","0.0"],
    [1398918,"2026-02-12 10:50:00","36498","7.721","277.5","14.99","294","1001.936","18.01","28.71","572.1","0.0"],
    [1398919,"2026-02-12 11:00:00","36499","8.81","283.5","16.04","301.5","1002.1419999999999","18.05","28.67","584.9","0.0"],
    [1398920,"2026-02-12 11:10:00","36500","8.17","284.3","15.32","282.6","1002.273","18.27","28.81","596.1","0.0"],
    [1398921,"2026-02-12 11:20:00","36501","9.84","288.8","18.03","300.1","1002.6039999999999","18.19","29.01","606.2","0.0"],
    [1398922,"2026-02-12 11:30:00","36502","7.527","282.7","14.77","289.6","1002.7719999999999","18.31","29.3","613.4","0.0"],
    [1398923,"2026-02-12 11:40:00","36503","9.49","283.7","18.1","285.3","1002.998","18.25","29.19","620.4","0.0"],
    [1398924,"2026-02-12 11:50:00","36504","9.47","291.5","18.55","300.4","1003.07","18.43","29.32","622.9","0.0"],
    [1398925,"2026-02-12 12:00:00","36505","8.44","290.8","16.3","311.2","1003.177","18.84","28.97","626.6","0.0"],
    [1398926,"2026-02-12 12:10:00","36506","7.608","284.2","16.99","292.8","1003.2819999999999","18.85","28.69","625.5","0.0"],
    [1398927,"2026-02-12 12:20:00","36507","8.26","284.7","14.5","294.3","1003.2489999999999","19.05","28.31","627.4","0.0"],
    [1398928,"2026-02-12 12:30:00","36508","9.74","287.0","16.63","303.7","1003.3810000000001","18.9","28.46","626.8","0.0"],
    [1398929,"2026-02-12 12:40:00","36509","9.95","292.2","16.33","287","1003.49","18.8","28.66","623.5","0.0"],
    [1398930,"2026-02-12 12:50:00","36510","9.03","287.7","15.58","291.2","1003.54","19.04","28.41","616.1","0.0"],
    [1398931,"2026-02-12 13:00:00","36511","8.13","276.6","13.72","250","1003.5419999999999","18.83","28.61","606.3","0.0"],
    [1398932,"2026-02-12 13:10:00","36512","10.35","293.5","17.28","300.8","1003.689","18.87","28.08","595.4","0.0"],
    [1398933,"2026-02-12 13:20:00","36513","10.26","298.2","16.07","303.1","1003.686","19.06","28.03","585.9","0.0"],
    [1398934,"2026-02-12 13:30:00","36514","11.38","299.1","17.64","309.2","1003.628","18.96","27.51","574.4","0.0"],
    [1398935,"2026-02-12 13:40:00","36515","9.89","294.9","15.55","308.6","1003.5369999999999","19.06","27.8","560.2","0.0"],
    [1398936,"2026-02-12 13:50:00","36516","8.0","288.9","15.19","287.2","1003.6080000000001","19.35","27.39","544.4","0.0"],
    [1398937,"2026-02-12 14:00:00","36517","8.27","293.6","14.9","288.3","1003.824","19.48","27.21","528.0","0.0"],
    [1398938,"2026-02-12 14:10:00","36518","7.865","288.9","13.26","301.5","1003.905","19.36","27.9","506.4","0.0"],
    [1398939,"2026-02-12 14:20:00","36519","8.43","296.6","14.44","308.5","1004.1360000000001","19.3","28.07","485.3","0.0"],
    [1398940,"2026-02-12 14:30:00","36520","7.89","284.7","12.38","287.8","1004.132","19.19","27.79","464.0","0.0"],
    [1398941,"2026-02-12 14:40:00","36521","9.23","293.3","14.14","297.7","1004.166","19.04","28.45","442.7","0.0"],
    [1398942,"2026-02-12 14:50:00","36522","8.33","289.0","13.98","297.4","1004.235","18.87","29.23","416.4","0.0"],
    [1398943,"2026-02-12 15:00:00","36523","7.888","287.1","12.97","288","1004.328","18.72","29.81","389.8","0.0"],
    [1398944,"2026-02-12 15:10:00","36524","7.541","291.9","13.72","288.2","1004.363","18.75","29.69","361.1","0.0"],
    [1398945,"2026-02-12 15:20:00","36525","7.356","289.9","14.31","285.8","1004.404","18.79","29.75","334.5","0.0"],
    [1398946,"2026-02-12 15:30:00","36526","7.489","284.3","12.87","266.9","1004.518","18.51","29.9","306.1","0.0"],
    [1398947,"2026-02-12 15:40:00","36527","7.385","282.5","13.36","259.7","1004.574","18.41","29.46","269.1","0.0"],
    [1398948,"2026-02-12 15:50:00","36528","7.374","276.7","13.98","294.3","1004.674","18.32","29.41","247.7","0.0"],
    [1398949,"2026-02-12 16:00:00","36529","7.063","287.2","11.47","272.8","1004.7539999999999","18.25","29.83","218.1","0.0"],
    [1398950,"2026-02-12 16:10:00","36530","7.075","293.5","11.56","295.3","1004.972","18.2","29.99","188.2","0.0"],
    [1398951,"2026-02-12 16:20:00","36531","6.859","290.9","11.47","282.7","1005.067","18.07","29.97","166.6","0.0"],
    [1398952,"2026-02-12 16:30:00","36532","7.671","298.4","12.18","309.2","1005.1160000000001","17.9","30.21","129.9","0.0"],
    [1398953,"2026-02-12 16:40:00","36533","8.56","297.5","13.13","302.3","1005.2280000000001","17.74","29.83","54.5","0.0"],
    [1398954,"2026-02-12 16:50:00","36534","8.18","295.4","12.94","279.9","1005.441","17.59","29.64","24.26","0.0"],
    [1398955,"2026-02-12 17:00:00","36535","8.29","290.7","12.9","290.2","1005.475","17.57","28.97","17.94","0.0"],
    [1398956,"2026-02-12 17:10:00","36536","6.319","290.2","12.22","310.6","1005.5269999999999","17.37","29.6","13.24","0.0"],
    [1398957,"2026-02-12 17:20:00","36537","6.722","294.3","11.69","311.8","1005.558","17.15","30.21","5.197","0.0"],
    [1398958,"2026-02-12 17:30:00","36538","6.192","288.9","10.32","286.6","1005.717","17.02","30.5","0.45899999999999996","0.0"],
    [1398959,"2026-02-12 17:40:00","36539","6.0520000000000005","289.5","12.74","302.5","1005.887","16.91","30.81","-1.896","0.0"],
    [1398960,"2026-02-12 17:50:00","36540","5.99","291.5","12.74","302.5","1006.117","16.91","30.7","-2.745","0.0"],
    [1398961,"2026-02-12 18:00:00","36541","6.132999999999999","290.8","11.07","291.4","1006.3380000000001","16.81","30.8","-2.9010000000000002","0.0"],
    [1398962,"2026-02-12 18:10:00","36542","6.313","290.2","11.04","296.2","1006.431","16.77","30.92","-2.793","0.0"],
    [1398963,"2026-02-12 18:20:00","36543","5.001","287.8","9.15","308.3","1006.316","16.63","31.59","-2.82","0.0"],
    [1398964,"2026-02-12 18:30:00","36544","5.518","293.4","10.32","298.8","1006.325","16.5","32.13","-3.1519999999999997","0.0"],
    [1398965,"2026-02-12 18:40:00","36545","6.0729999999999995","293.6","11.53","292.4","1006.328","16.65","31.87","-3.13","0.0"],
    [1398966,"2026-02-12 18:50:00","36546","4.652","289.8","8.53","311.6","1006.385","16.55","32.17","-2.841","0.0"],
    [1398967,"2026-02-12 19:00:00","36547","3.658","288.9","8.26","297.4","1006.43","16.4","32.69","-3.1919999999999997","0.0"],
    [1398968,"2026-02-12 19:10:00","36548","3.801","291.7","7.383","289.7","1006.294","16.28","33.27","-3.1689999999999996","0.0"],
    [1398969,"2026-02-12 19:20:00","36549","4.921","294.6","8.53","301.6","1006.1160000000001","16.41","33.04","-3.484","0.0"],
    [1398970,"2026-02-12 19:30:00","36550","4.293","296.1","7.546","298.6","1006.1569999999999","16.38","33.01","-3.117","0.0"],
    [1398971,"2026-02-12 19:40:00","36551","3.392","295.7","6.043","309.5","1006.291","16.24","33.31","-3.214","0.0"],
    [1398972,"2026-02-12 19:50:00","36552","3.179","291.9","7.317","313.5","1006.485","16.24","33.4","-3.2939999999999996","0.0"],
    [1398973,"2026-02-12 20:00:00","36553","3.327","287.1","6.337","286.7","1006.677","16.28","33.06","-3.583","0.0"],
    [1398974,"2026-02-12 20:10:00","36554","2.699","289.6","5.913","321.9","1006.717","16.15","33.31","-3.221","0.0"],
    [1398975,"2026-02-12 20:20:00","36555","2.696","291.8","5.031","308.5","1006.775","15.98","33.8","-3.1310000000000002","0.0"],
    [1398976,"2026-02-12 20:30:00","36556","2.167","298.7","5.063","290.4","1006.77","15.92","34.29","-3.2110000000000003","0.0"],
    [1398977,"2026-02-12 20:40:00","36557","1.929","303.6","3.757","318.6","1006.7389999999999","15.7","35.27","-3.0189999999999997","0.0"],
    [1398978,"2026-02-12 20:50:00","36558","1.7519999999999998","289.9","3.267","300.6","1006.834","15.78","34.98","-3.153","0.0"],
    [1398979,"2026-02-12 21:00:00","36559","2.546","287.5","4.181","317.5","1006.8539999999999","15.9","35.01","-3.215","0.0"],
    [1398980,"2026-02-12 21:10:00","36560","2.738","261.7","5.259","282.9","1006.818","16.2","34.65","-2.909","0.0"],
    [1398981,"2026-02-12 21:20:00","36561","2.397","262.4","5.129","261.3","1006.704","16.21","34.73","-2.728","0.0"],
    [1398982,"2026-02-12 21:30:00","36562","2.22","250.4","4.279","266.7","1006.544","15.84","35.82","-2.727","0.0"],
    [1398983,"2026-02-12 21:40:00","36563","3.0189999999999997","240.1","5.227","265.3","1006.293","15.52","38.73","-2.426","0.0"],
    [1398984,"2026-02-12 21:50:00","36564","3.2880000000000003","260.1","6.533","275.5","1006.1210000000001","15.23","42.87","-2.1390000000000002","0.0"],
    [1398985,"2026-02-12 22:00:00","36565","3.625","262.8","8.85","271.2","1005.821","15.28","41.32","-2.678","0.0"],
    [1398986,"2026-02-12 22:10:00","36566","3.7319999999999998","257.7","8.23","275.8","1005.548","15.88","38.08","-2.875","0.0"],
    [1398987,"2026-02-12 22:20:00","36567","3.483","284.2","7.513","276.5","1005.423","16.07","36.06","-2.541","0.0"],
    [1398988,"2026-02-12 22:30:00","36568","2.411","268.3","5.292","278.7","1005.613","16.02","36.34","-2.7239999999999998","0.0"],
    [1398989,"2026-02-12 22:40:00","36569","1.9","205.4","3.92","240.1","1005.9910000000001","16.09","36.15","-2.7230000000000003","0.0"],
    [1398990,"2026-02-12 22:50:00","36570","2.737","204.7","4.9","205.7","1006.0989999999999","15.73","37.89","-2.725","0.0"],
    [1398991,"2026-02-12 23:00:00","36571","2.41","233.7","5.259","232.5","1006.053","15.67","39.39","-2.217","0.0"],
    [1398992,"2026-02-12 23:10:00","36572","2.512","265.5","5.553","298.2","1005.6569999999999","15.35","40.88","-2.51","0.0"],
    [1398993,"2026-02-12 23:20:00","36573","4.013","282.9","7.644","279.4","1005.211","15.66","40.81","-2.6630000000000003","0.0"],
    [1398994,"2026-02-12 23:30:00","36574","2.56","318.9","5.325","324.1","1005.332","15.53","41.54","-2.659","0.0"],
    [1398995,"2026-02-12 23:40:00","36575","2.354","92.5","4.377","92.9","1005.7439999999999","15.66","40.48","-2.875","0.0"],
    [1398996,"2026-02-12 23:50:00","36576","2.787","158.6","5.488","152.4","1006.0930000000001","15.75","41.17","-2.859","0.0"],
    [1398997,"2026-02-13 00:00:00","36577","3.978","209.7","6.011","175.8","1006.132","15.58","44.7","-2.5989999999999998","0.0"],
    [1398998,"2026-02-13 00:10:00","36578","2.847","245.1","5.031","266.6","1005.4860000000001","15.26","46.15","-2.499","0.0"],
    [1398999,"2026-02-13 00:20:00","36579","3.75","263.9","7.709","262.6","1004.9939999999999","15.15","45.3","-2.324","0.0"],
    [1399000,"2026-02-13 00:30:00","36580","1.9180000000000001","277.1","4.116","283.2","1005.049","14.76","44.8","-2.041","0.0"],
    [1399001,"2026-02-13 00:40:00","36581","0.7490000000000001","138.4","1.96","129.8","1005.0889999999999","14.55","44.24","-2.617","0.0"],
    [1399002,"2026-02-13 00:50:00","36582","1.6269999999999998","166.9","3.757","179.1","1005.117","14.49","45.07","-2.273","0.0"],
    [1399003,"2026-02-13 01:00:00","36583","2.7260000000000004","211.3","5.684","228.6","1004.9760000000001","14.53","46.64","-2.204","0.0"],
    [1399004,"2026-02-13 01:10:00","36584","3.1919999999999997","238.6","6.272","229.2","1004.62","14.5","49.07","-2.0","0.0"],
    [1399005,"2026-02-13 01:20:00","36585","2.214","257.0","5.39","272.9","1004.148","14.59","46.71","-2.084","0.0"],
    [1399006,"2026-02-13 01:30:00","36586","1.659","181.9","3.593","171.7","1004.4989999999999","14.51","46.46","-2.356","0.0"],
    [1399007,"2026-02-13 01:40:00","36587","2.5780000000000003","204.6","4.377","215.7","1004.732","14.67","46.31","-1.986","0.0"],
    [1399008,"2026-02-13 01:50:00","36588","2.735","242.2","4.573","270.8","1004.2230000000001","14.72","45.45","-1.952","0.0"],
    [1399009,"2026-02-13 02:00:00","36589","2.551","239.8","4.965","231.3","1004.29","14.59","45.87","-1.672","0.0"],
    [1399010,"2026-02-13 02:10:00","36590","2.222","271.8","4.018","282.3","1003.825","14.07","48.11","-1.5019999999999998","0.0"],
    [1399011,"2026-02-13 02:20:00","36591","1.011","247.7","2.515","253.4","1003.7719999999999","13.95","48.38","-2.209","0.0"],
    [1399012,"2026-02-13 02:30:00","36592","1.228","249.9","2.287","256","1003.5830000000001","13.78","48.83","-2.675","0.0"],
    [1399013,"2026-02-13 02:40:00","36593","1.899","238.8","3.463","223.5","1003.172","13.59","49.97","-2.7489999999999997","0.0"],
    [1399014,"2026-02-13 02:50:00","36594","2.813","220.3","4.345","206.9","1003.191","13.75","51.3","-2.4459999999999997","0.0"],
    [1399015,"2026-02-13 03:00:00","36595","2.188","225.9","3.691","234.2","1002.7460000000001","13.63","52.2","-2.016","0.0"],
    [1399016,"2026-02-13 03:10:00","36596","1.555","206.1","2.875","222.9","1002.664","13.45","52.69","-2.1069999999999998","0.0"],
    [1399017,"2026-02-13 03:20:00","36597","1.3630000000000002","234.7","3.071","236.6","1002.2489999999999","13.17","53.84","-2.7310000000000003","0.0"],
    [1399018,"2026-02-13 03:30:00","36598","1.764","197.6","3.626","182.3","1002.42","13.18","53.77","-2.5269999999999997","0.0"],
    [1399019,"2026-02-13 03:40:00","36599","1.969","224.3","3.528","223.3","1002.23","13.18","53.57","-2.153","0.0"],
    [1399020,"2026-02-13 03:50:00","36600","1.713","198.0","3.789","212.5","1001.966","13.52","51.67","-2.07","0.0"],
    [1399021,"2026-02-13 04:00:00","36601","1.6680000000000001","202.0","3.136","230.4","1001.802","13.4","55.67","-2.119","0.0"],
    [1399022,"2026-02-13 04:10:00","36602","2.577","217.2","3.691","233.4","1001.4839999999999","13.46","58.56","-2.023","0.0"],
    [1399023,"2026-02-13 04:20:00","36603","1.974","206.8","3.887","211.7","1001.279","13.31","60.15","-1.464","0.0"],
    [1399024,"2026-02-13 04:30:00","36604","1.6380000000000001","168.3","3.103","176.2","1001.2280000000001","13.24","58.43","-1.605","0.0"],
    [1399025,"2026-02-13 04:40:00","36605","1.825","201.1","3.234","179.1","1001.1519999999999","13.36","54.93","-1.922","0.0"],
    [1399026,"2026-02-13 04:50:00","36606","2.1830000000000003","221.1","2.94","195.8","1000.895","13.3","54.09","-2.141","0.0"],
    [1399027,"2026-02-13 05:00:00","36607","2.761","220.6","4.214","215.7","1000.703","13.42","52.26","-2.424","0.0"],
    [1399028,"2026-02-13 05:10:00","36608","2.234","232.2","4.377","212.7","1000.4780000000001","13.73","49.16","-2.049","0.0"],
    [1399029,"2026-02-13 05:20:00","36609","1.594","239.8","2.94","269.2","1000.188","13.99","47.49","-1.511","0.0"],
    [1399030,"2026-02-13 05:30:00","36610","1.453","232.9","2.483","222.9","1000.061","13.83","48.27","-1.28","0.0"],
    [1399031,"2026-02-13 05:40:00","36611","0.6459999999999999","228.3","1.731","219.5","999.6365","13.51","50.24","-1.261","0.0"],
    [1399032,"2026-02-13 05:50:00","36612","0.51","345.9","1.078","351.5","999.5095","12.8","54.54","-1.4380000000000002","0.0"],
    [1399033,"2026-02-13 06:00:00","36613","0.14800000000000002","277.6","0.555","280.3","999.4323","12.71","54.41","-1.315","0.0"],
    [1399034,"2026-02-13 06:10:00","36614","0.8909999999999999","230.0","1.699","204","999.3176","12.62","55.7","-1.31","0.0"],
    [1399035,"2026-02-13 06:20:00","36615","0.9209999999999999","204.7","1.797","212","999.4541","13.01","53.42","-1.261","0.0"],
    [1399036,"2026-02-13 06:30:00","36616","0.5329999999999999","205.9","1.666","204.2","999.3445","13.12","52.79","-1.261","0.0"],
    [1399037,"2026-02-13 06:40:00","36617","0.006999999999999999","195.0","0.196","196.7","998.9818","12.95","54.23","-1.261","0.0"],
    [1399038,"2026-02-13 06:50:00","36618","0.345","178.8","1.405","178.8","998.65","12.67","55.65","-0.26899999999999996","0.0"],
    [1399039,"2026-02-13 07:00:00","36619","1.064","166.2","2.091","165","998.4156","13.11","52.37","1.546","0.0"],
    [1399040,"2026-02-13 07:10:00","36620","0.9259999999999999","186.9","2.352","179.5","998.2537","13.17","54.39","4.32","0.0"],
    [1399041,"2026-02-13 07:20:00","36621","1.635","203.5","3.724","203.4","998.4003","13.2","59.14","6.098","0.0"],
    [1399042,"2026-02-13 07:30:00","36622","2.417","210.6","4.247","192.8","998.6216","13.43","61.88","12.87","0.0"],
    [1399043,"2026-02-13 07:40:00","36623","1.3430000000000002","245.8","3.397","221","998.2701","13.23","63.05","24.23","0.0"],
    [1399044,"2026-02-13 07:50:00","36624","0.813","281.9","1.47","291","997.9127","12.64","59.76","35.8","0.0"],
    [1399045,"2026-02-13 08:00:00","36625","0.78","217.8","1.535","170.9","997.6683","12.67","59.26","35.93","0.0"],
    [1399046,"2026-02-13 08:10:00","36626","0.9259999999999999","270.6","2.189","263.3","997.29","13.14","62.32","37.34","0.0"],
    [1399047,"2026-02-13 08:20:00","36627","1.093","352.9","1.764","5.212","996.9341","12.88","62.88","32.51","0.0"],
    [1399048,"2026-02-13 08:30:00","36628","0.643","63.99","1.568","14.43","996.7548","12.77","63.83","27.14","0.0"],
    [1399049,"2026-02-13 08:40:00","36629","1.3969999999999998","26.71","2.45","24.75","996.2642","12.72","67.65","25.81","0.0"],
    [1399050,"2026-02-13 08:50:00","36630","1.202","0.5489999999999999","2.123","358.3","996.0118","12.44","69.54","30.11","0.1"],
    [1399051,"2026-02-13 09:00:00","36631","1.395","22.21","2.287","15.26","995.7141","12.4","71.23","40.82","0.1"],
    [1399052,"2026-02-13 09:10:00","36632","0.426","28.08","1.895","36.34","995.7014","12.55","72.88","44.2","0.0"],
    [1399053,"2026-02-13 09:20:00","36633","1.3319999999999999","345.9","3.299","270","995.5112","12.6","75.1","35.01","0.1"],
    [1399054,"2026-02-13 09:30:00","36634","1.649","351.0","2.744","299","995.2253","12.21","76.66","45.63","0.0"],
    [1399055,"2026-02-13 09:40:00","36635","1.673","304.0","4.083","285.6","995.1379","12.32","75.61","47.96","0.1"],
    [1399056,"2026-02-13 09:50:00","36636","0.509","210.8","1.535","213.4","995.0769","11.91","76.75","41.57","0.4"],
    [1399057,"2026-02-13 10:00:00","36637","1.339","290.1","1.993","298.8","994.8439","11.58","80.9","50.7","0.3"],
    [1399058,"2026-02-13 10:10:00","36638","0.601","201.6","1.797","332.4","994.5154","11.29","83.8","49.71","0.5"],
    [1399059,"2026-02-13 10:20:00","36639","0.33399999999999996","232.2","1.829","295.6","994.2389999999999","11.55","84.9","52.23","0.5"],
    [1399060,"2026-02-13 10:30:00","36640","0.836","292.0","1.96","291.6","993.9988","11.32","87.2","59.81","0.5"],
    [1399061,"2026-02-13 10:40:00","36641","1.462","291.0","2.189","273.6","993.8055","11.22","89.9","61.87","0.4"],
    [1399062,"2026-02-13 10:50:00","36642","0.894","274.0","1.699","275.3","993.7175","11.07","92.3","96.0","0.2"],
    [1399063,"2026-02-13 11:00:00","36643","0.738","279.7","1.307","263.4","993.302","11.14","91.9","79.81","0.3"],
    [1399064,"2026-02-13 11:20:00","36644","0.0","288.1","0.033","288.1","992.5059","11.25","93.5","34.15","0.3"],
    [1399065,"2026-02-13 11:30:00","36645","0.16399999999999998","288.2","0.849","288.2","992.2330000000001","11.42","93.3","69.55","0.2"],
    [1399066,"2026-02-13 11:40:00","36646","0.263","42.55","1.437","82.3","991.6969","11.73","93.1","109.7","0.1"],
    [1399067,"2026-02-13 11:50:00","36647","0.738","58.8","1.699","74.48","991.1835","12.05","91.9","104.5","0.0"],
    [1399068,"2026-02-13 12:00:00","36648","1.25","35.11","2.025","16.88","990.7413","12.21","90.8","58.48","0.3"],
    [1399069,"2026-02-13 12:10:00","36649","1.129","39.97","2.091","27.79","990.3351","12.3","91.7","39.76","0.6"],
    [1399070,"2026-02-13 12:20:00","36650","1.001","35.84","2.581","33.72","990.0417","12.14","93.3","38.19","0.6"],
    [1399071,"2026-02-13 12:30:00","36651","2.147","36.55","2.777","33.69","989.5057","12.06","93.2","63.46","0.6"],
    [1399072,"2026-02-13 12:40:00","36652","2.373","40.37","3.397","54.71","988.8464","12.12","93.4","108.1","0.5"],
    [1399073,"2026-02-13 12:50:00","36653","2.8339999999999996","46.87","4.083","36.88","988.2589","12.02","94.1","56.02","0.5"],
    [1399074,"2026-02-13 13:00:00","36654","3.198","58.36","4.149","61.44","987.925","11.81","94.5","47.4","0.5"],
    [1399075,"2026-02-13 13:10:00","36655","3.752","56.23","5.39","48.42","987.4459","11.56","95.5","76.29","0.2"],
    [1399076,"2026-02-13 13:20:00","36656","3.7230000000000003","55.94","5.815","50.15","986.8853","11.53","95.8","66.56","0.2"],
    [1399077,"2026-02-13 13:30:00","36657","3.825","54.87","6.076","64.95","986.3591","11.53","95.7","43.32","0.6"],
    [1399078,"2026-02-13 13:40:00","36658","4.1080000000000005","55.11","6.011","58.33","985.819","11.41","96.1","36.9","0.4"],
    [1399079,"2026-02-13 13:50:00","36659","2.478","60.11","4.41","52.28","985.4353","11.36","96.5","28.8","1.1"],
    [1399080,"2026-02-13 14:00:00","36660","4.144","296.9","8.49","279.3","985.4911","11.12","96.7","32.46","2.1"],
    [1399081,"2026-02-13 14:10:00","36661","4.373","305.7","6.729","295.8","985.4018","10.51","97.1","93.8","0.3"],
    [1399082,"2026-02-13 14:20:00","36662","2.6189999999999998","297.7","3.92","279.7","985.2444","10.8","97.3","117.9","0.4"],
    [1399083,"2026-02-13 14:30:00","36663","3.202","287.8","6.076","282.5","985.0536","10.93","97.3","117.2","0.1"],
    [1399084,"2026-02-13 14:40:00","36664","4.061","286.7","6.86","284.5","985.2460000000001","10.58","97.1","100.3","0.2"],
    [1399085,"2026-02-13 14:50:00","36665","5.227","297.4","9.54","297.6","985.3398","10.1","96.8","82.6","0.1"],
    [1399086,"2026-02-13 15:00:00","36666","3.3739999999999997","293.5","6.468","316.3","985.2974","9.77","96.5","48.55","0.0"],
    [1399087,"2026-02-13 15:10:00","36667","2.093","271.4","4.704","295.5","985.2498","9.71","96.4","29.74","0.3"],
    [1399088,"2026-02-13 15:20:00","36668","1.946","277.0","3.397","302.3","985.1953","9.65","96.3","24.28","0.2"],
    [1399089,"2026-02-13 15:30:00","36669","1.9409999999999998","273.2","4.083","274.6","985.1569999999999","9.59","96.2","24.89","0.2"],
    [1399090,"2026-02-13 15:50:00","36670","1.425","241.2","3.103","249.3","984.8857","9.84","96.3","35.74","0.3"],
    [1399091,"2026-02-13 16:00:00","36671","3.315","226.1","5.749","229.8","984.6805","10.58","96.2","40.54","0.1"],
    [1399092,"2026-02-13 16:10:00","36672","3.662","228.2","6.501","224.9","984.5619","11.42","95.4","31.69","0.1"],
    [1399093,"2026-02-13 16:20:00","36673","3.883","228.5","7.285","210.1","984.5259","11.7","94.5","20.17","0.1"],
    [1399094,"2026-02-13 16:30:00","36674","4.829","229.5","7.971","215.6","984.4777","11.79","93.7","14.49","0.1"],
    [1399095,"2026-02-13 16:40:00","36675","4.075","229.6","6.958","257.3","984.4337","11.85","92.1","12.23","0.1"],
    [1399096,"2026-02-13 16:50:00","36676","3.4730000000000003","229.2","6.239","244.9","984.4539","11.83","90.5","8.45","0.1"],
    [1399097,"2026-02-13 17:00:00","36677","3.469","228.5","5.651","248.1","984.4465","11.76","88.9","4.864","0.1"],
    [1399098,"2026-02-13 17:10:00","36678","3.2489999999999997","229.6","5.717","250.8","984.4756","11.84","87.0","2.45","0.0"],
    [1399099,"2026-02-13 17:20:00","36679","2.379","239.5","5.39","241.6","984.5613","11.89","85.2","0.506","0.1"],
    [1399100,"2026-02-13 17:30:00","36680","2.315","273.6","4.443","265.9","984.6942","11.64","86.2","-0.514","0.0"],
    [1399101,"2026-02-13 17:40:00","36681","2.293","279.1","4.214","289.7","984.7754","10.95","88.7","-0.7859999999999999","0.1"],
    [1399102,"2026-02-13 17:50:00","36682","1.909","268.0","3.659","288.3","984.8411","10.76","89.2","-1.26","0.1"],
    [1399103,"2026-02-13 18:00:00","36683","2.093","268.2","4.41","282.6","984.9566","10.56","89.7","-1.261","0.3"],
    [1399104,"2026-02-13 18:10:00","36684","1.601","270.0","3.299","288.7","985.0936","10.37","90.5","-1.261","0.2"],
    [1399105,"2026-02-13 18:20:00","36685","2.1","282.1","3.169","278.9","985.2329","10.22","90.9","-1.261","0.2"],
    [1399106,"2026-02-13 18:30:00","36686","1.9869999999999999","280.0","3.463","282.9","985.3660000000001","10.06","91.8","-1.2590000000000001","0.2"],
    [1399107,"2026-02-13 18:40:00","36687","2.1830000000000003","267.5","3.789","257.8","985.4622","9.94","92.5","-1.2590000000000001","0.4"],
    [1399108,"2026-02-13 18:50:00","36688","2.048","261.5","3.724","275.9","985.4847","9.98","92.4","-1.261","0.3"],
    [1399109,"2026-02-13 19:00:00","36689","1.709","267.5","3.365","295.8","985.5989999999999","10.01","91.4","-1.261","0.1"],
    [1399110,"2026-02-13 19:10:00","36690","1.56","252.8","2.875","291.3","985.7186","10.18","90.4","-1.261","0.1"],
    [1399111,"2026-02-13 19:20:00","36691","1.744","255.5","3.234","258.6","985.7953","10.46","87.6","-0.802","0.0"],
    [1399112,"2026-02-13 19:30:00","36692","1.52","244.2","3.822","268.4","985.9102","10.6","85.7","-0.505","0.0"],
    [1399113,"2026-02-13 19:40:00","36693","2.072","267.3","3.626","284.6","986.0488","10.65","83.5","-0.442","0.0"],
    [1399114,"2026-02-13 19:50:00","36694","2.886","277.1","6.631","289.6","986.21","10.71","81.0","-0.35100000000000003","0.0"],
    [1399115,"2026-02-13 20:00:00","36695","3.923","282.2","7.448","289","986.3713","10.86","77.26","0.02","0.0"],
    [1399116,"2026-02-13 20:10:00","36696","3.819","274.5","7.775","268.3","986.4812","10.92","75.7","-0.21","0.0"],
    [1399117,"2026-02-13 20:20:00","36697","4.526","285.6","7.513","285.5","986.5391","10.88","74.64","-0.22699999999999998","0.0"],
    [1399118,"2026-02-13 20:30:00","36698","4.4319999999999995","276.8","7.709","292","986.5236","10.92","73.1","-0.16","0.0"],
    [1399119,"2026-02-13 20:40:00","36699","5.08","278.0","10.88","283.6","986.6002","11.04","71.19","-0.365","0.0"],
    [1399120,"2026-02-13 20:50:00","36700","5.314","280.4","10.52","299.7","986.6519999999999","11.15","70.31","0.084","0.0"],
    [1399121,"2026-02-13 21:00:00","36701","5.28","281.0","10.91","288.5","986.6493","11.22","69.92","-0.491","0.0"],
    [1399122,"2026-02-13 21:10:00","36702","4.204","272.2","8.53","266.4","986.6555","11.39","69.32","-0.539","0.0"],
    [1399123,"2026-02-13 21:20:00","36703","4.06","264.9","10","270.9","986.688","11.52","68.84","-0.836","0.0"],
    [1399124,"2026-02-13 21:30:00","36704","4.146","257.7","8.79","252.1","986.6758","11.83","67.45","-1.246","0.0"],
    [1399125,"2026-02-13 21:40:00","36705","4.46","258.4","9.54","262.8","986.6244","12.06","66.35","-1.2690000000000001","0.0"],
    [1399126,"2026-02-13 21:50:00","36706","3.952","237.7","8.36","285.3","986.6956","12.23","65.14","-1.264","0.0"],
    [1399127,"2026-02-13 22:00:00","36707","3.792","236.4","6.566","290.5","986.7827","12.16","65.39","-1.265","0.0"],
    [1399128,"2026-02-13 22:10:00","36708","3.267","236.6","6.435","237.9","986.8912","12.22","65.13","-1.261","0.0"],
    [1399129,"2026-02-13 22:20:00","36709","3.298","249.0","6.664","270.9","986.8978","12.22","64.6","-1.266","0.0"],
    [1399130,"2026-02-13 22:30:00","36710","4.185","278.5","9.28","293.2","986.8882","12.09","65.07","-1.224","0.0"],
    [1399131,"2026-02-13 22:40:00","36711","3.641","285.6","6.337","296.8","986.9643","11.79","66.56","-1.2590000000000001","0.0"],
    [1399132,"2026-02-13 22:50:00","36712","4.636","291.5","7.644","277.1","987.0348","11.69","66.64","-1.2570000000000001","0.0"],
    [1399133,"2026-02-13 23:00:00","36713","3.7460000000000004","293.6","6.631","299.4","987.1681","11.64","66.48","-1.2570000000000001","0.0"],
    [1399134,"2026-02-13 23:10:00","36714","3.089","284.9","5.945","276.4","987.3058","11.46","67.06","-1.262","0.0"],
    [1399135,"2026-02-13 23:20:00","36715","3.384","298.1","5.88","270.1","987.4328","11.46","66.42","-1.261","0.0"],
    [1399136,"2026-02-13 23:30:00","36716","2.609","286.5","5.292","274.9","987.5502","11.46","65.42","-1.261","0.0"],
    [1399137,"2026-02-13 23:40:00","36717","1.655","270.4","3.267","298.9","987.677","11.38","65.46","-1.261","0.0"],
    [1399138,"2026-02-13 23:50:00","36718","2.044","262.0","5.521","254.7","987.7739999999999","11.37","64.95","-1.261","0.0"],
    [1399139,"2026-02-14 00:00:00","36719","1.443","264.3","3.43","255","987.8467","11.35","64.89","-1.261","0.0"],
    [1399140,"2026-02-14 00:10:00","36720","3.449","291.8","7.905","302.1","987.9730000000001","11.27","65.04","-1.254","0.0"],
    [1399141,"2026-02-14 00:20:00","36721","2.799","272.6","6.011","285.7","988.1235","11.2","65.23","-1.2570000000000001","0.0"],
    [1399142,"2026-02-14 00:30:00","36722","3.05","275.5","6.501","284.6","988.1703","11.12","65.26","-1.253","0.0"],
    [1399143,"2026-02-14 00:40:00","36723","3.31","290.8","6.729","315.2","988.1325","11.07","65.31","-1.261","0.0"],
    [1399144,"2026-02-14 00:50:00","36724","2.7760000000000002","288.8","8.17","266.8","988.0634","10.96","65.68","-1.2570000000000001","0.0"],
    [1399145,"2026-02-14 01:00:00","36725","5.647","293.7","10.42","314.5","988.0013","10.86","65.66","-1.261","0.0"],
    [1399146,"2026-02-14 01:10:00","36726","6.784","312.3","10.49","308.5","988.0219","10.94","64.65","-1.251","0.0"],
    [1399147,"2026-02-14 01:20:00","36727","6.244","317.6","12.54","315.7","988.1273","10.99","63.93","-1.2590000000000001","0.0"],
    [1399148,"2026-02-14 01:30:00","36728","6.313","320.5","11.14","314","988.2111","10.96","63.81","-1.252","0.0"],
    [1399149,"2026-02-14 01:40:00","36729","5.184","320.0","9.73","311.3","988.4272","10.93","63.95","-1.26","0.0"],
    [1399150,"2026-02-14 01:50:00","36730","3.3689999999999998","305.1","6.664","282.9","988.7162","10.86","64.24","-1.262","0.0"],
    [1399151,"2026-02-14 02:00:00","36731","2.8369999999999997","313.1","6.664","319.2","988.8478","10.8","64.54","-1.286","0.0"],
    [1399152,"2026-02-14 02:10:00","36732","3.135","321.5","5.488","326.6","988.9161","10.85","63.75","-1.314","0.0"],
    [1399153,"2026-02-14 02:20:00","36733","2.459","337.1","5.129","346.9","988.9973","10.82","63.98","-1.284","0.0"],
    [1399154,"2026-02-14 02:30:00","36734","3.864","342.8","7.415","347.7","989.1071","10.81","64.15","-1.29","0.0"],
    [1399155,"2026-02-14 02:40:00","36735","4.029","331.8","6.305","334.8","989.1928","10.75","64.12","-1.264","0.0"],
    [1399156,"2026-02-14 02:50:00","36736","3.6319999999999997","340.1","7.023","305.9","989.2398","10.74","64.04","-1.262","0.0"],
    [1399157,"2026-02-14 03:00:00","36737","3.81","329.8","6.958","333.4","989.3201","10.65","64.05","-1.262","0.0"],
    [1399158,"2026-02-14 03:10:00","36738","3.5","340.4","6.925","351.1","989.4426","10.68","63.78","-1.273","0.0"],
    [1399159,"2026-02-14 03:20:00","36739","3.845","341.8","7.415","358.7","989.5848","10.68","63.53","-1.261","0.0"],
    [1399160,"2026-02-14 03:30:00","36740","3.802","335.6","6.631","346","989.6713","10.67","63.32","-1.274","0.0"],
    [1399161,"2026-02-14 03:40:00","36741","3.4410000000000003","339.0","5.88","351.1","989.8683","10.68","63.01","-1.264","0.0"],
    [1399162,"2026-02-14 03:50:00","36742","2.867","341.7","4.867","343.5","990.0333","10.68","62.68","-1.2690000000000001","0.0"],
    [1399163,"2026-02-14 04:00:00","36743","2.6519999999999997","332.3","5.619","328.9","990.2357","10.61","63.09","-1.3019999999999998","0.0"],
    [1399164,"2026-02-14 04:10:00","36744","3.2939999999999996","330.8","5.227","333.4","990.3213","10.67","62.16","-1.2930000000000001","0.0"],
    [1399165,"2026-02-14 04:20:00","36745","2.254","330.5","3.953","348.7","990.4285","10.6","62.77","-1.2819999999999998","0.0"],
    [1399166,"2026-02-14 04:30:00","36746","3.263","333.6","5.913","346.9","990.5625","10.61","62.09","-1.42","0.0"],
    [1399167,"2026-02-14 04:40:00","36747","4.285","332.3","8.3","339","990.6721","10.7","60.89","-1.334","0.0"],
    [1399168,"2026-02-14 04:50:00","36748","3.67","334.6","5.586","330.4","990.7158","10.58","61.81","-1.284","0.0"],
    [1399169,"2026-02-14 05:00:00","36749","3.813","323.5","7.317","324.5","990.8308","10.52","61.93","-1.297","0.0"],
    [1399170,"2026-02-14 05:10:00","36750","3.177","326.8","5.455","337.5","990.9034","10.49","61.9","-1.2770000000000001","0.0"],
    [1399171,"2026-02-14 05:20:00","36751","2.721","335.7","5.684","324.7","991.0405","10.45","62.06","-1.298","0.0"],
    [1399172,"2026-02-14 05:30:00","36752","2.5810000000000004","336.7","4.116","329.1","991.2360000000001","10.49","61.81","-1.3219999999999998","0.0"],
    [1399173,"2026-02-14 05:40:00","36753","2.608","344.8","4.835","1.404","991.334","10.49","61.44","-1.445","0.0"],
    [1399174,"2026-02-14 05:50:00","36754","2.3209999999999997","337.5","4.671","297.8","991.405","10.51","61.08","-1.4880000000000002","0.0"],
    [1399175,"2026-02-14 06:00:00","36755","2.015","332.8","3.822","351.7","991.5367","10.54","60.68","-1.636","0.0"],
    [1399176,"2026-02-14 06:10:00","36756","2.997","351.5","7.089","1.549","991.6786","10.5","60.57","-1.641","0.0"],
    [1399177,"2026-02-14 06:20:00","36757","3.2560000000000002","343.2","6.403","352.2","991.7861","10.61","59.83","-1.454","0.0"],
    [1399178,"2026-02-14 06:30:00","36758","3.6","330.9","6.141","295.8","991.998","10.55","60.25","-1.338","0.0"],
    [1399179,"2026-02-14 06:40:00","36759","3.745","328.6","5.717","334.5","992.1887","10.51","60.49","-1.2229999999999999","0.0"],
    [1399180,"2026-02-14 06:50:00","36760","4.294","329.7","5.945","303.9","992.5577","10.47","60.47","0.147","0.0"],
    [1399181,"2026-02-14 07:00:00","36761","4.521","328.5","7.579","341.5","992.8041","10.44","60.34","2.891","0.0"],
    [1399182,"2026-02-14 07:10:00","36762","4.57","321.1","6.762","325.8","992.9993","10.27","61.21","7.938","0.0"],
    [1399183,"2026-02-14 07:20:00","36763","4.895","324.2","7.873","330.1","993.2383","10.26","60.83","15.15","0.0"],
    [1399184,"2026-02-14 07:30:00","36764","3.7289999999999996","322.8","5.782","316.3","993.6025","10.33","60.36","22.62","0.0"],
    [1399185,"2026-02-14 07:40:00","36765","3.259","326.7","4.802","323.4","993.9194","10.34","59.89","28.54","0.0"],
    [1399186,"2026-02-14 07:50:00","36766","3.327","326.6","6.37","337.5","994.1256","10.37","59.51","35.44","0.0"],
    [1399187,"2026-02-14 08:00:00","36767","1.7080000000000002","334.8","3.691","2.872","994.2853","10.33","60.07","49.35","0.0"],
    [1399188,"2026-02-14 08:10:00","36768","1.751","320.3","3.822","342.5","994.5547","10.34","59.99","81.7","0.0"],
    [1399189,"2026-02-14 08:20:00","36769","1.506","325.3","2.907","328.4","994.7711","10.52","58.73","94.7","0.0"],
    [1399190,"2026-02-14 08:30:00","36770","1.32","350.6","3.887","326.2","995.0","10.86","57.52","201.1","0.0"],
    [1399191,"2026-02-14 08:40:00","36771","1.695","330.5","4.279","312.8","995.1364","11.36","56.03","272.7","0.0"],
    [1399192,"2026-02-14 08:50:00","36772","1.864","321.8","3.626","349.6","995.2484","11.71","55.04","306.5","0.0"],
    [1399193,"2026-02-14 09:00:00","36773","2.161","308.2","5.945","323.7","995.3804","12.16","54.32","334.9","0.0"],
    [1399194,"2026-02-14 09:10:00","36774","2.943","300.2","6.501","332.8","995.5568","12.37","53.2","362.0","0.0"],
    [1399195,"2026-02-14 09:20:00","36775","3.168","299.0","6.239","328.8","995.6351","12.68","52.23","390.0","0.0"],
    [1399196,"2026-02-14 09:30:00","36776","2.0669999999999997","306.8","5.455","306.9","995.7818","13.11","51.84","413.4","0.0"],
    [1399197,"2026-02-14 09:40:00","36777","2.9739999999999998","311.6","6.468","349.4","995.9608","13.36","51.15","437.9","0.0"],
    [1399198,"2026-02-14 09:50:00","36778","5.531000000000001","299.5","9.51","313.2","996.0553","13.41","50.34","462.0","0.0"],
    [1399199,"2026-02-14 10:00:00","36779","5.287000000000001","299.4","9.73","289.6","996.0273","13.72","50.03","484.2","0.0"],
    [1399200,"2026-02-14 10:10:00","36780","6.876","298.3","10.13","302","996.2008","13.84","48.98","507.5","0.0"],
    [1399201,"2026-02-14 10:20:00","36781","7.769","306.0","11.92","310.6","996.3691","13.91","48.92","527.4","0.0"],
    [1399202,"2026-02-14 10:30:00","36782","7.456","305.0","11.76","303.7","996.5867","14.04","49.19","545.2","0.0"],
    [1399203,"2026-02-14 10:40:00","36783","8.08","303.1","11.89","311.5","996.7361","14.33","48.41","559.6","0.0"],
    [1399204,"2026-02-14 10:50:00","36784","7.409","303.3","11.34","288.3","996.8893","14.65","47.43","574.9","0.0"],
    [1399205,"2026-02-14 11:00:00","36785","7.337000000000001","311.9","12.12","315.8","997.0162","14.87","47.43","581.0","0.0"],
    [1399206,"2026-02-14 11:10:00","36786","7.394","306.2","11.96","307.7","997.1415","15.23","45.85","608.6","0.0"],
    [1399207,"2026-02-14 11:20:00","36787","7.36","296.6","11.96","281","997.2924","15.52","44.95","613.4","0.0"],
    [1399208,"2026-02-14 11:30:00","36788","7.061","302.9","10.94","310.3","997.4326","15.67","45.48","627.3","0.0"],
    [1399209,"2026-02-14 11:40:00","36789","7.556","304.0","12.02","311.9","997.5475","15.81","44.8","622.1","0.0"],
    [1399210,"2026-02-14 11:50:00","36790","7.9879999999999995","304.1","12.51","311.8","997.6143","15.86","44.19","622.6","0.0"],
    [1399211,"2026-02-14 12:00:00","36791","8.15","302.1","12.61","293.4","997.7377","16.27","42.69","630.1","0.0"],
    [1399212,"2026-02-14 12:10:00","36792","7.3020000000000005","304.7","11.07","329.8","997.8978","16.43","42.51","648.3","0.0"],
    [1399213,"2026-02-14 12:20:00","36793","8.57","305.3","13.43","311.6","998.0656","16.57","41.23","642.3","0.0"],
    [1399214,"2026-02-14 12:30:00","36794","7.932","306.7","12.32","324.1","998.1521","16.72","41.09","635.0","0.0"],
    [1399215,"2026-02-14 12:40:00","36795","7.907","308.9","11.07","312.9","998.2572","16.9","40.4","626.5","0.0"],
    [1399216,"2026-02-14 12:50:00","36796","7.8420000000000005","311.6","12.97","316.2","998.3961","17.08","40.19","617.5","0.0"],
    [1399217,"2026-02-14 13:00:00","36797","7.909","308.5","11.56","294.1","998.5381","17.23","39.92","600.5","0.0"],
    [1399218,"2026-02-14 13:10:00","36798","7.749","311.8","11.17","305.7","998.8358","17.28","39.94","601.4","0.0"],
    [1399219,"2026-02-14 13:20:00","36799","6.69","308.1","11.24","319.6","998.9874","17.61","39.64","592.9","0.0"],
    [1399220,"2026-02-14 13:30:00","36800","7.104","312.6","11.14","312.2","999.1434","17.54","40.05","582.0","0.0"],
    [1399221,"2026-02-14 13:40:00","36801","6.02","297.7","10.19","303.9","999.2755","17.86","39.74","551.8","0.0"],
    [1399222,"2026-02-14 13:50:00","36802","6.5120000000000005","309.6","10.98","315.3","999.4033","17.91","39.76","524.0","0.0"],
    [1399223,"2026-02-14 14:00:00","36803","7.178999999999999","311.8","12.18","320.3","999.5599","17.9","39.56","510.2","0.0"],
    [1399224,"2026-02-14 14:10:00","36804","6.8839999999999995","305.4","11.01","321.5","999.6625","17.99","39.2","496.9","0.0"],
    [1399225,"2026-02-14 14:20:00","36805","6.763","301.6","10.85","280.6","999.7633","18.42","37.28","485.6","0.0"],
    [1399226,"2026-02-14 14:30:00","36806","6.329","303.3","9.83","283.6","999.9126","18.63","36.41","465.7","0.0"],
    [1399227,"2026-02-14 14:40:00","36807","6.3660000000000005","300.0","11.4","311.1","1000.1210000000001","18.66","36.33","440.1","0.0"],
    [1399228,"2026-02-14 14:50:00","36808","7.165","301.6","11.01","301","1000.3969999999999","18.51","36.5","423.9","0.0"],
    [1399229,"2026-02-14 15:00:00","36809","6.3629999999999995","319.6","10.29","321.8","1000.617","18.4","37.66","396.3","0.0"],
    [1399230,"2026-02-14 15:10:00","36810","4.335","11.24","7.023","359.9","1000.878","16.22","59.22","369.5","0.0"],
    [1399231,"2026-02-14 15:20:00","36811","3.265","46.67","5.553","72.68","1000.935","15.34","62.14","338.5","0.0"],
    [1399232,"2026-02-14 15:30:00","36812","3.298","46.85","6.37","53.42","1001.0989999999999","15.53","62.78","310.9","0.0"],
    [1399233,"2026-02-14 15:40:00","36813","4.378","59.4","6.239","59.75","1001.285","14.72","67.15","284.6","0.0"],
    [1399234,"2026-02-14 15:50:00","36814","2.6519999999999997","35.99","4.965","53.71","1001.4839999999999","14.93","64.83","238.7","0.0"],
    [1399235,"2026-02-14 16:00:00","36815","5.331","54.98","8.2","60.08","1001.688","14.44","67.82","221.3","0.0"],
    [1399236,"2026-02-14 16:10:00","36816","4.781000000000001","58.36","6.86","48.13","1001.914","14.22","69.79","191.4","0.0"],
    [1399237,"2026-02-14 16:20:00","36817","3.6839999999999997","57.78","6.239","54.49","1002.166","14.25","69.44","161.5","0.0"],
    [1399238,"2026-02-14 16:30:00","36818","2.242","56.97","3.495","83.4","1002.472","14.38","67.97","130.8","0.0"],
    [1399239,"2026-02-14 16:40:00","36819","2.1180000000000003","68.78","3.071","75.31","1002.812","14.11","68.6","75.5","0.0"],
    [1399240,"2026-02-14 16:50:00","36820","2.214","81.6","3.659","88.9","1003.091","13.87","68.12","23.02","0.0"],
    [1399241,"2026-02-14 17:00:00","36821","3.2230000000000003","65.23","4.508","74.53","1003.3530000000001","13.51","72.56","18.21","0.0"],
    [1399242,"2026-02-14 17:10:00","36822","3.083","69.8","4.214","66.8","1003.559","13.5","71.11","13.39","0.0"],
    [1399243,"2026-02-14 17:20:00","36823","2.167","62.41","4.443","76.95","1003.925","13.3","71.59","6.922000000000001","0.0"],
    [1399244,"2026-02-14 17:30:00","36824","1.7009999999999998","72.38","2.875","71.09","1004.329","13.1","74.49","1.9409999999999998","0.0"],
    [1399245,"2026-02-14 17:40:00","36825","1.226","32.13","6.729","353.4","1004.6510000000001","12.69","74.17","-1.7930000000000001","0.0"],
    [1399246,"2026-02-14 17:50:00","36826","4.235","323.2","6.958","291","1004.8919999999999","15.18","37.76","-4.55","0.0"],
    [1399247,"2026-02-14 18:00:00","36827","5.64","314.5","9.18","323.3","1005.086","16.08","31.75","-3.9410000000000003","0.0"],
    [1399248,"2026-02-14 18:10:00","36828","6.05","321.6","10.16","326.3","1005.337","16.02","31.44","-3.157","0.0"],
    [1399249,"2026-02-14 18:20:00","36829","6.369","321.4","10.32","317.3","1005.6089999999999","15.99","30.8","-2.9330000000000003","0.0"],
    [1399250,"2026-02-14 18:30:00","36830","5.919","323.0","10.45","306.3","1005.847","15.92","30.41","-2.855","0.0"],
    [1399251,"2026-02-14 18:40:00","36831","6.236000000000001","317.9","9.34","316.1","1006.2689999999999","15.92","29.55","-2.8960000000000004","0.0"],
    [1399252,"2026-02-14 18:50:00","36832","4.1530000000000005","299.2","6.403","319.2","1006.5010000000001","15.2","32.13","-2.8760000000000003","0.0"],
    [1399253,"2026-02-14 19:00:00","36833","4.398","304.5","7.023","306.6","1006.763","15.03","32.32","-3.193","0.0"],
    [1399254,"2026-02-14 19:10:00","36834","4.665","311.4","8.17","318","1007.13","14.96","32.2","-3.364","0.0"],
    [1399255,"2026-02-14 19:20:00","36835","4.713","318.6","6.958","323.5","1007.304","15.15","30.93","-3.1210000000000004","0.0"],
    [1399256,"2026-02-14 19:30:00","36836","5.08","321.7","8.33","302.2","1007.497","15.14","30.28","-3.062","0.0"],
    [1399257,"2026-02-14 19:40:00","36837","5.151","318.8","8.4","317.2","1007.676","15.17","29.25","-3.088","0.0"],
    [1399258,"2026-02-14 19:50:00","36838","5.62","316.2","8.82","302","1007.8539999999999","15.14","28.76","-3.188","0.0"],
    [1399259,"2026-02-14 20:00:00","36839","4.8","316.9","7.187","316.1","1008.034","14.94","29.41","-2.841","0.0"],
    [1399260,"2026-02-14 20:10:00","36840","5.2","317.6","8.36","321.4","1008.3","14.71","29.82","-3.062","0.0"],
    [1399261,"2026-02-14 20:20:00","36841","5.277","318.5","7.383","311","1008.6469999999999","14.55","30.13","-2.832","0.0"],
    [1399262,"2026-02-14 20:30:00","36842","5.19","313.7","7.775","313.3","1009.071","14.29","30.96","-2.779","0.0"],
    [1399263,"2026-02-14 20:40:00","36843","4.531000000000001","303.9","7.056","307.4","1009.3919999999999","13.74","32.46","-2.917","0.0"],
    [1399264,"2026-02-14 20:50:00","36844","4.346","294.5","6.925","298.3","1009.5880000000001","13.73","31.21","-3.38","0.0"],
    [1399265,"2026-02-14 21:00:00","36845","4.593","296.6","7.285","301.8","1009.8389999999999","13.48","31.78","-3.389","0.0"],
    [1399266,"2026-02-14 21:10:00","36846","4.21","310.3","6.174","317.6","1009.97","13.45","32.38","-3.2560000000000002","0.0"],
    [1399267,"2026-02-14 21:20:00","36847","3.718","315.8","6.599","334.3","1010.1210000000001","13.37","32.57","-3.253","0.0"],
    [1399268,"2026-02-14 21:30:00","36848","3.484","321.0","6.337","334.2","1010.265","12.95","33.65","-3.5239999999999996","0.0"],
    [1399269,"2026-02-14 21:40:00","36849","5.135","327.9","9.83","338.5","1010.395","13.63","30.09","-4.053999999999999","0.0"],
    [1399270,"2026-02-14 22:00:00","36850","4.203","323.9","7.709","338.5","1010.6619999999999","13.76","29.43","-2.855","0.0"],
    [1399271,"2026-02-14 22:10:00","36851","3.911","305.9","6.958","316.4","1010.8939999999999","13.33","30.38","-3.3489999999999998","0.0"],
    [1399272,"2026-02-14 22:20:00","36852","3.904","290.8","7.121","316.9","1011.24","13.32","29.14","-3.471","0.0"],
    [1399273,"2026-02-14 22:30:00","36853","3.463","293.4","5.39","294.3","1011.449","12.86","30.89","-3.122","0.0"],
    [1399274,"2026-02-14 22:40:00","36854","3.322","280.6","5.521","266.9","1011.709","12.52","32.16","-3.014","0.0"],
    [1399275,"2026-02-14 22:50:00","36855","4.334","291.2","7.252","280.4","1011.7639999999999","12.56","34.66","-3.362","0.0"],
    [1399276,"2026-02-14 23:00:00","36856","4.414","299.3","6.305","299.8","1011.674","12.4","36.39","-3.0039999999999996","0.0"],
    [1399277,"2026-02-14 23:10:00","36857","4.228","298.0","7.677","294.4","1011.758","12.13","37.89","-3.154","0.0"],
    [1399278,"2026-02-14 23:20:00","36858","3.63","279.1","7.677","280.4","1011.6419999999999","12.25","37.52","-3.1630000000000003","0.0"],
    [1399279,"2026-02-14 23:30:00","36859","3.091","255.8","6.076","261.3","1011.8789999999999","12.13","38.74","-2.842","0.0"],
    [1399280,"2026-02-14 23:40:00","36860","3.14","226.2","5.194","189.2","1012.1460000000001","11.69","41.5","-2.7889999999999997","0.0"],
    [1399281,"2026-02-14 23:50:00","36861","3.502","226.4","5.423","241.9","1012.252","10.92","46.16","-2.699","0.0"],
    [1399282,"2026-02-15 00:00:00","36862","3.062","245.9","7.056","271.4","1012.1","10.66","47.89","-2.841","0.0"],
    [1399283,"2026-02-15 00:10:00","36863","2.9130000000000003","267.7","5.39","271.6","1011.975","10.7","47.7","-2.821","0.0"],
    [1399284,"2026-02-15 00:20:00","36864","3.221","278.3","7.611","292.6","1012.0169999999999","10.47","48.41","-2.824","0.0"],
    [1399285,"2026-02-15 00:30:00","36865","3.5869999999999997","278.9","6.697","272.7","1012.1339999999999","10.32","49.49","-2.8080000000000003","0.0"],
    [1399286,"2026-02-15 00:40:00","36866","3.315","276.8","7.252","282.2","1011.98","10.15","50.19","-2.989","0.0"],
    [1399287,"2026-02-15 00:50:00","36867","3.8169999999999997","280.2","7.383","277.1","1011.78","10.14","50.14","-2.891","0.0"],
    [1399288,"2026-02-15 01:00:00","36868","3.1489999999999996","265.3","5.553","262.6","1011.659","10.05","50.56","-2.847","0.0"],
    [1399289,"2026-02-15 01:10:00","36869","2.562","269.7","5.292","255","1011.927","9.95","51.03","-2.853","0.0"],
    [1399290,"2026-02-15 01:20:00","36870","2.3480000000000003","268.8","4.606","287.9","1012.1460000000001","9.64","52.33","-2.917","0.0"],
    [1399291,"2026-02-15 01:30:00","36871","2.6239999999999997","284.5","4.671","289.9","1012.0039999999999","9.34","53.6","-3.161","0.0"],
    [1399292,"2026-02-15 01:40:00","36872","4.104","282.9","7.219","278.6","1011.783","9.62","51.76","-3.427","0.0"],
    [1399293,"2026-02-15 01:50:00","36873","3.699","288.5","5.586","290.3","1011.706","9.14","53.79","-2.9619999999999997","0.0"],
    [1399294,"2026-02-15 02:00:00","36874","3.56","292.1","6.664","290.5","1011.82","9.09","53.58","-2.946","0.0"],
    [1399295,"2026-02-15 02:10:00","36875","4.331","298.5","6.795","284.6","1011.798","9.37","51.79","-3.341","0.0"],
    [1399296,"2026-02-15 02:20:00","36876","5.814","298.6","11.76","312.1","1011.814","9.51","51.3","-2.9610000000000003","0.0"],
    [1399297,"2026-02-15 02:30:00","36877","6.959","307.8","10.26","302.5","1011.916","9.57","51.63","-2.719","0.0"],
    [1399298,"2026-02-15 02:40:00","36878","6.4910000000000005","300.8","10.58","309.7","1012.015","9.44","52.02","-2.7430000000000003","0.0"],
    [1399299,"2026-02-15 02:50:00","36879","7.768","304.2","13","291.4","1011.972","9.46","51.82","-2.7030000000000003","0.0"],
    [1399300,"2026-02-15 03:00:00","36880","8.95","311.3","12.94","322.4","1011.94","9.44","52.13","-2.418","0.0"],
    [1399301,"2026-02-15 03:10:00","36881","9.36","312.2","12.05","313.5","1012.038","9.39","52.22","-2.305","0.0"],
    [1399302,"2026-02-15 03:20:00","36882","9.96","315.8","14.24","318.3","1012.074","9.4","52.1","-2.281","0.0"],
    [1399303,"2026-02-15 03:30:00","36883","9.76","314.8","13.98","319.6","1011.9689999999999","9.38","51.83","-2.287","0.0"],
    [1399304,"2026-02-15 03:40:00","36884","9.31","314.3","13.65","322.9","1012.087","9.32","52.14","-2.148","0.0"],
    [1399305,"2026-02-15 03:50:00","36885","9.11","316.8","13.46","306.6","1012.23","9.31","51.91","-2.369","0.0"],
    [1399306,"2026-02-15 04:00:00","36886","8.25","316.6","11.6","329.9","1012.421","9.2","52.45","-2.275","0.0"],
    [1399307,"2026-02-15 04:10:00","36887","8.12","316.2","12.81","315.3","1012.67","9.18","52.44","-2.3280000000000003","0.0"],
    [1399308,"2026-02-15 04:20:00","36888","9.3","313.4","15.39","337.8","1012.9010000000001","9.17","52.08","-2.609","0.0"],
    [1399309,"2026-02-15 04:30:00","36889","7.9670000000000005","319.7","12.32","326.7","1013.055","9.15","52.28","-2.344","0.0"],
    [1399310,"2026-02-15 04:40:00","36890","7.317","331.4","12.05","320.9","1013.2130000000001","9.12","52.18","-2.491","0.0"],
    [1399311,"2026-02-15 04:50:00","36891","4.198","9.51","8.46","334.5","1013.674","9.04","52.34","-2.725","0.0"],
    [1399312,"2026-02-15 05:00:00","36892","2.781","347.5","5.88","333.4","1013.985","9.01","51.57","-2.9760000000000004","0.0"],
    [1399313,"2026-02-15 05:10:00","36893","4.125","329.8","6.958","333.3","1014.2330000000001","9.17","50.74","-2.9330000000000003","0.0"],
    [1399314,"2026-02-15 05:20:00","36894","3.5789999999999997","327.4","5.619","337.3","1014.346","9.21","50.13","-2.8480000000000003","0.0"],
    [1399315,"2026-02-15 05:30:00","36895","3.5410000000000004","321.3","7.317","319.7","1014.4739999999999","9.22","49.86","-2.971","0.0"],
    [1399316,"2026-02-15 05:40:00","36896","3.0980000000000003","328.0","4.606","307.8","1014.4830000000001","8.77","52.43","-2.7680000000000002","0.0"],
    [1399317,"2026-02-15 05:50:00","36897","1.68","329.3","2.777","304","1014.7739999999999","8.47","53.06","-3.338","0.0"],
    [1399318,"2026-02-15 06:00:00","36898","2.3609999999999998","307.4","3.953","317.4","1015.008","8.07","54.47","-2.972","0.0"],
    [1399319,"2026-02-15 06:10:00","36899","2.6719999999999997","329.7","4.9","358.8","1015.424","8.04","54.45","-3.6839999999999997","0.0"],
    [1399320,"2026-02-15 06:20:00","36900","2.335","325.7","4.377","345.1","1015.7560000000001","8.76","51.4","-3.0989999999999998","0.0"],
    [1399321,"2026-02-15 06:30:00","36901","2.487","319.9","4.933","341","1015.807","8.17","54.1","-2.826","0.0"],
    [1399322,"2026-02-15 06:40:00","36902","3.372","322.6","5.357","328.1","1015.7810000000001","8.26","53.74","-1.544","0.0"],
    [1399323,"2026-02-15 06:50:00","36903","1.9180000000000001","328.3","3.299","326.8","1015.923","8.4","53.11","1.844","0.0"],
    [1399324,"2026-02-15 07:00:00","36904","1.3","332.9","2.515","331","1016.095","7.939","55.42","5.997000000000001","0.0"],
    [1399325,"2026-02-15 07:10:00","36905","1.0","348.5","2.123","334.5","1016.2710000000001","7.5360000000000005","57.13","11.88","0.0"],
    [1399326,"2026-02-15 07:20:00","36906","1.2409999999999999","344.2","2.385","324.2","1016.45","7.63","56.71","17.1","0.0"],
    [1399327,"2026-02-15 07:30:00","36907","1.956","336.8","4.704","340.9","1016.544","8.47","53.69","22.3","0.0"],
    [1399328,"2026-02-15 07:40:00","36908","3.1289999999999996","326.8","5.031","333.2","1016.748","8.76","53.08","27.52","0.0"],
    [1399329,"2026-02-15 07:50:00","36909","3.5860000000000003","344.3","6.403","327.4","1016.9830000000001","8.98","52.82","32.47","0.0"],
    [1399330,"2026-02-15 08:00:00","36910","1.932","22.59","3.103","16.97","1017.155","8.92","54.0","58.51","0.0"],
    [1399331,"2026-02-15 08:10:00","36911","1.909","17.48","3.201","16.02","1017.203","9.23","52.58","196.2","0.0"],
    [1399332,"2026-02-15 08:20:00","36912","2.039","18.13","3.234","30.61","1017.2819999999999","9.64","51.6","231.1","0.0"],
    [1399333,"2026-02-15 08:30:00","36913","1.959","330.2","3.299","317","1017.4060000000001","10.0","51.23","263.3","0.0"],
    [1399334,"2026-02-15 08:40:00","36914","2.013","331.7","3.234","307.5","1017.43","10.28","50.51","301.2","0.0"],
    [1399335,"2026-02-15 08:50:00","36915","1.791","353.1","3.822","332.6","1017.439","10.55","49.8","358.4","0.0"],
    [1399336,"2026-02-15 09:00:00","36916","2.81","330.5","4.933","326.4","1017.5160000000001","10.59","49.96","350.9","0.0"],
    [1399337,"2026-02-15 09:10:00","36917","3.096","312.5","4.671","305.5","1017.702","10.58","49.89","333.3","0.0"],
    [1399338,"2026-02-15 09:20:00","36918","2.316","332.4","4.247","326.9","1017.8430000000001","10.76","49.93","371.9","0.0"],
    [1399339,"2026-02-15 09:30:00","36919","2.1","328.0","4.671","308.9","1017.7410000000001","11.06","49.76","428.4","0.0"],
    [1399340,"2026-02-15 09:40:00","36920","3.83","311.0","5.619","305.2","1017.789","11.1","49.22","423.3","0.0"],
    [1399341,"2026-02-15 09:50:00","36921","3.905","295.9","6.174","302.1","1017.9010000000001","11.34","47.65","422.4","0.0"],
    [1399342,"2026-02-15 10:00:00","36922","4.209","304.3","6.305","302.6","1017.8539999999999","11.34","48.28","319.2","0.0"],
    [1399343,"2026-02-15 10:10:00","36923","4.481","300.9","6.305","301.9","1017.8480000000001","11.24","47.77","256.4","0.0"],
    [1399344,"2026-02-15 10:20:00","36924","4.37","310.5","7.187","316.7","1017.816","11.1","48.96","241.2","0.0"],
    [1399345,"2026-02-15 10:30:00","36925","3.638","324.9","5.978","324.2","1017.868","11.15","49.1","248.3","0.0"],
    [1399346,"2026-02-15 10:40:00","36926","2.766","346.8","4.9","346.3","1017.8710000000001","11.22","49.39","206.8","0.0"],
    [1399347,"2026-02-15 10:50:00","36927","2.48","337.8","4.214","353.3","1017.8380000000001","11.3","49.96","330.8","0.0"],
    [1399348,"2026-02-15 11:00:00","36928","2.283","330.3","4.018","4.679","1017.798","12.12","48.62","554.8","0.0"],
    [1399349,"2026-02-15 11:10:00","36929","1.786","354.8","3.789","357.7","1017.7410000000001","12.53","47.39","575.5","0.0"],
    [1399350,"2026-02-15 11:20:00","36930","1.6880000000000002","335.4","3.691","358","1017.7389999999999","12.54","47.57","596.8","0.0"],
    [1399351,"2026-02-15 11:30:00","36931","2.129","298.7","4.475","293.8","1017.546","13.28","45.87","621.8","0.0"],
    [1399352,"2026-02-15 11:40:00","36932","2.329","282.8","4.181","256.9","1017.451","13.6","44.54","587.0","0.0"],
    [1399353,"2026-02-15 11:50:00","36933","1.995","326.4","4.083","300.1","1017.253","13.4","46.15","576.2","0.0"],
    [1399354,"2026-02-15 12:00:00","36934","2.492","232.3","4.116","224.2","1017.313","13.75","43.76","560.8","0.0"],
    [1399355,"2026-02-15 12:10:00","36935","3.0660000000000003","208.3","5.357","219.8","1017.2760000000001","13.77","44.03","616.0","0.0"],
    [1399356,"2026-02-15 12:20:00","36936","2.762","210.2","5.161","220.8","1017.203","14.11","43.39","602.7","0.0"],
    [1399357,"2026-02-15 12:30:00","36937","3.468","201.2","6.795","238","1017.056","13.58","44.88","618.5","0.0"],
    [1399358,"2026-02-15 12:40:00","36938","3.5580000000000003","205.5","5.749","216.6","1016.8560000000001","13.7","45.03","613.8","0.0"],
    [1399359,"2026-02-15 12:50:00","36939","3.675","201.5","6.991","208","1016.622","13.32","46.78","609.5","0.0"],
    [1399360,"2026-02-15 13:00:00","36940","3.815","206.8","5.88","196.9","1016.538","13.2","47.85","598.4","0.0"],
    [1399361,"2026-02-15 13:10:00","36941","3.6039999999999996","204.2","6.207","202","1016.377","13.31","48.3","556.2","0.0"],
    [1399362,"2026-02-15 13:20:00","36942","3.508","207.5","6.566","225.5","1016.215","13.37","49.14","563.5","0.0"],
    [1399363,"2026-02-15 13:30:00","36943","4.322","210.5","7.709","240.6","1016.2769999999999","13.29","50.04","572.8","0.0"],
    [1399364,"2026-02-15 13:40:00","36944","3.635","197.1","6.925","222.8","1016.201","13.21","51.65","558.3","0.0"],
    [1399365,"2026-02-15 13:50:00","36945","3.54","203.5","6.403","216.4","1015.975","13.16","52.81","540.0","0.0"],
    [1399366,"2026-02-15 14:00:00","36946","3.161","191.5","5.423","177.2","1015.863","13.25","55.06","523.6","0.0"],
    [1399367,"2026-02-15 14:10:00","36947","2.596","185.2","4.802","192.9","1015.931","13.62","55.94","431.7","0.0"],
    [1399368,"2026-02-15 14:20:00","36948","3.188","191.3","5.455","198.7","1015.796","13.84","54.64","380.2","0.0"],
    [1399369,"2026-02-15 14:30:00","36949","2.489","200.9","5.619","217.1","1015.7339999999999","13.94","52.58","329.2","0.0"],
    [1399370,"2026-02-15 14:40:00","36950","3.34","219.9","5.553","221.3","1015.835","13.38","51.37","269.8","0.0"],
    [1399371,"2026-02-15 14:50:00","36951","3.9789999999999996","220.9","6.305","211.8","1015.952","12.74","56.58","225.3","0.0"],
    [1399372,"2026-02-15 15:00:00","36952","3.0469999999999997","208.6","5.325","228.1","1015.847","12.83","55.54","195.2","0.0"],
    [1399373,"2026-02-15 15:10:00","36953","2.62","223.0","4.606","229","1015.735","12.99","56.29","175.9","0.0"],
    [1399374,"2026-02-15 15:20:00","36954","1.954","220.9","4.769","208.5","1015.563","13.09","55.93","157.8","0.0"],
    [1399375,"2026-02-15 15:30:00","36955","3.029","220.6","5.651","201.1","1015.427","13.06","54.98","149.6","0.0"],
    [1399376,"2026-02-15 15:40:00","36956","3.3289999999999997","213.1","5.161","248","1015.247","13.01","56.12","130.1","0.0"],
    [1399377,"2026-02-15 15:50:00","36957","2.273","218.9","4.769","231.9","1015.24","12.97","57.69","114.0","0.0"],
    [1399378,"2026-02-15 16:00:00","36958","2.279","213.9","4.083","208.3","1015.305","12.99","59.98","90.6","0.0"],
    [1399379,"2026-02-15 16:10:00","36959","2.3409999999999997","213.2","4.639","205.5","1015.293","12.9","61.45","67.76","0.0"],
    [1399380,"2026-02-15 16:20:00","36960","1.8359999999999999","213.7","3.463","212.5","1015.3489999999999","12.92","61.53","57.59","0.0"],
    [1399381,"2026-02-15 16:30:00","36961","1.954","214.1","3.495","223.9","1015.332","13.0","60.03","60.83","0.0"],
    [1399382,"2026-02-15 16:40:00","36962","2.3609999999999998","208.2","4.247","222.6","1015.041","13.0","61.24","53.47","0.0"],
    [1399383,"2026-02-15 16:50:00","36963","2.279","227.6","5.292","202.8","1015.0880000000001","13.02","61.82","40.32","0.0"],
    [1399384,"2026-02-15 17:00:00","36964","1.198","225.0","2.711","199.8","1015.052","12.92","62.77","28.21","0.0"],
    [1399385,"2026-02-15 17:10:00","36965","0.253","276.3","2.45","220.9","1015.209","12.82","64.45","20.07","0.0"],
    [1399386,"2026-02-15 17:20:00","36966","0.175","352.3","1.045","352","1015.405","12.62","65.59","11.1","0.0"],
    [1399387,"2026-02-15 17:30:00","36967","0.737","319.5","1.274","320.1","1015.416","12.37","68.09","1.651","0.0"],
    [1399388,"2026-02-15 17:40:00","36968","0.264","338.7","1.209","340.9","1015.5369999999999","12.04","69.07","-1.624","0.0"],
    [1399389,"2026-02-15 17:50:00","36969","0.135","115.3","1.209","110","1015.482","12.3","66.53","-2.54","0.0"],
    [1399390,"2026-02-15 18:00:00","36970","0.201","103.0","0.686","95.8","1015.507","12.24","68.11","-2.708","0.0"],
    [1399391,"2026-02-15 18:10:00","36971","0.667","112.3","1.339","98","1015.515","12.02","68.41","-2.739","0.0"],
    [1399392,"2026-02-15 18:20:00","36972","0.376","67.55","1.372","97.8","1015.413","12.02","70.11","-2.3569999999999998","0.0"],
    [1399393,"2026-02-15 18:30:00","36973","0.124","302.4","0.817","251.2","1015.416","11.64","71.52","-1.966","0.0"],
    [1399394,"2026-02-15 18:40:00","36974","0.978","215.5","1.503","211.5","1015.346","12.14","68.36","-2.037","0.0"],
    [1399395,"2026-02-15 18:50:00","36975","1.255","272.3","1.895","302.1","1015.472","12.33","67.38","-1.3230000000000002","0.0"],
    [1399396,"2026-02-15 19:00:00","36976","0.29100000000000004","270.0","0.98","285.9","1015.461","11.76","70.13","-1.409","0.0"],
    [1399397,"2026-02-15 19:10:00","36977","0.986","304.4","1.862","305","1015.57","11.9","69.7","-1.774","0.0"],
    [1399398,"2026-02-15 19:20:00","36978","0.883","248.5","1.535","289.1","1015.515","12.18","67.32","-1.665","0.0"],
    [1399399,"2026-02-15 19:30:00","36979","0.9","261.9","1.339","264.9","1015.4960000000001","12.4","66.54","-1.514","0.0"],
    [1399400,"2026-02-15 19:40:00","36980","0.547","258.1","1.176","255.6","1015.6469999999999","12.17","67.37","-2.082","0.0"],
    [1399401,"2026-02-15 19:50:00","36981","0.6859999999999999","233.8","1.764","234.8","1015.788","12.43","65.93","-2.5869999999999997","0.0"],
    [1399402,"2026-02-15 20:00:00","36982","0.198","331.3","1.241","341.7","1015.6080000000001","11.92","68.68","-2.7560000000000002","0.0"],
    [1399403,"2026-02-15 20:10:00","36983","1.5119999999999998","264.3","3.169","294.4","1015.7360000000001","12.13","66.01","-3.0269999999999997","0.0"],
    [1399404,"2026-02-15 20:20:00","36984","1.5","266.7","3.626","285.5","1015.982","13.17","58.23","-2.825","0.0"],
    [1399405,"2026-02-15 20:30:00","36985","0.22","258.2","0.98","252.8","1015.95","12.77","59.39","-2.7260000000000004","0.0"],
    [1399406,"2026-02-15 20:40:00","36986","0.133","236.7","0.947","239.6","1015.9060000000001","12.15","61.98","-2.762","0.0"],
    [1399407,"2026-02-15 20:50:00","36987","0.654","237.9","1.895","238.4","1015.702","12.75","57.72","-2.583","0.0"],
    [1399408,"2026-02-15 21:00:00","36988","0.447","246.1","1.405","268","1015.703","12.84","56.96","-2.445","0.0"],
    [1399409,"2026-02-15 21:10:00","36989","0.044000000000000004","146.1","0.653","174.4","1015.4939999999999","12.21","60.19","-2.6860000000000004","0.0"],
    [1399410,"2026-02-15 21:20:00","36990","0.8059999999999999","234.1","2.581","236","1015.3710000000001","12.28","58.17","-2.83","0.0"],
    [1399411,"2026-02-15 21:30:00","36991","1.556","234.1","2.45","238.1","1015.305","13.05","53.79","-2.822","0.0"],
    [1399412,"2026-02-15 21:40:00","36992","1.992","249.2","3.887","212.1","1015.176","13.26","53.1","-2.813","0.0"],
    [1399413,"2026-02-15 21:50:00","36993","1.9180000000000001","255.3","3.757","268.9","1014.935","12.91","54.19","-2.7769999999999997","0.0"],
    [1399414,"2026-02-15 22:00:00","36994","1.8119999999999998","276.5","3.103","280.6","1015.013","12.86","54.32","-2.7569999999999997","0.0"],
    [1399415,"2026-02-15 22:10:00","36995","2.7510000000000003","287.9","3.985","296.4","1015.082","12.22","56.68","-2.762","0.0"],
    [1399416,"2026-02-15 22:20:00","36996","3.3480000000000003","293.2","6.109","287.1","1015.09","12.53","55.5","-2.7739999999999996","0.0"],
    [1399417,"2026-02-15 22:30:00","36997","2.38","296.8","4.181","293.5","1015.155","12.56","55.55","-2.761","0.0"],
    [1399418,"2026-02-15 22:40:00","36998","1.926","292.5","3.071","301.4","1015.039","12.2","57.01","-2.9339999999999997","0.0"],
    [1399419,"2026-02-15 22:50:00","36999","2.9989999999999997","295.8","5.031","291.5","1014.883","12.28","56.8","-2.821","0.0"],
    [1399420,"2026-02-15 23:00:00","37000","3.168","299.9","6.599","295.3","1014.8689999999999","12.38","56.75","-2.878","0.0"],
    [1399421,"2026-02-15 23:10:00","37001","3.188","300.6","5.586","313.8","1014.933","12.58","56.07","-2.779","0.0"],
    [1399422,"2026-02-15 23:20:00","37002","2.552","304.4","4.573","305.8","1014.8739999999999","12.52","56.49","-2.8789999999999996","0.0"],
    [1399423,"2026-02-15 23:30:00","37003","2.454","307.0","4.704","297.2","1014.78","12.62","56.15","-2.878","0.0"],
    [1399424,"2026-02-15 23:40:00","37004","2.4219999999999997","304.3","3.92","306.5","1014.7130000000001","12.47","57.02","-2.821","0.0"],
    [1399425,"2026-02-15 23:50:00","37005","1.808","314.7","3.887","332","1014.682","12.26","57.86","-2.7710000000000004","0.0"],
    [1399426,"2026-02-16 00:00:00","37006","1.8230000000000002","321.1","3.169","305.3","1014.847","12.43","57.17","-3.017","0.0"],
    [1399427,"2026-02-16 00:10:00","37007","1.348","306.6","2.711","320.7","1015.199","12.24","57.48","-2.762","0.0"],
    [1399428,"2026-02-16 00:20:00","37008","0.86","300.1","3.169","286.7","1014.883","11.91","58.96","-2.927","0.0"],
    [1399429,"2026-02-16 00:30:00","37009","1.561","296.6","3.103","283.5","1014.677","11.71","59.74","-2.923","0.0"],
    [1399430,"2026-02-16 00:40:00","37010","2.407","294.4","4.639","283","1014.7819999999999","11.45","61.2","-2.819","0.0"],
    [1399431,"2026-02-16 00:50:00","37011","3.255","289.2","5.521","292.1","1014.5060000000001","12.25","58.36","-3.096","0.0"],
    [1399432,"2026-02-16 01:00:00","37012","2.58","284.5","5.063","296.5","1014.4010000000001","12.31","58.14","-2.745","0.0"],
    [1399433,"2026-02-16 01:10:00","37013","2.041","271.4","4.802","305","1014.6439999999999","12.29","58.35","-2.596","0.0"],
    [1399434,"2026-02-16 01:20:00","37014","2.487","271.6","4.965","271.5","1014.8860000000001","12.54","57.69","-2.417","0.0"],
    [1399435,"2026-02-16 01:30:00","37015","2.205","270.2","4.083","291.7","1014.818","12.95","56.26","-2.194","0.0"],
    [1399436,"2026-02-16 01:40:00","37016","1.6059999999999999","275.4","3.528","259","1014.558","12.84","56.73","-2.5140000000000002","0.0"],
    [1399437,"2026-02-16 01:50:00","37017","1.546","265.7","3.593","310.3","1014.534","12.92","56.49","-2.82","0.0"],
    [1399438,"2026-02-16 02:00:00","37018","1.8419999999999999","224.8","3.822","211.9","1014.68","12.84","56.78","-2.826","0.0"],
    [1399439,"2026-02-16 02:10:00","37019","2.785","214.9","4.541","239.2","1014.56","12.94","56.82","-2.807","0.0"],
    [1399440,"2026-02-16 02:20:00","37020","2.145","248.3","4.965","254.7","1014.445","13.15","56.16","-2.76","0.0"],
    [1399441,"2026-02-16 02:30:00","37021","1.7309999999999999","272.7","3.528","260.1","1014.4630000000001","13.03","56.95","-2.7539999999999996","0.0"],
    [1399442,"2026-02-16 02:40:00","37022","2.201","275.8","4.835","287.7","1014.477","13.06","57.14","-2.877","0.0"],
    [1399443,"2026-02-16 02:50:00","37023","2.742","279.4","4.965","290.3","1014.3889999999999","13.57","55.59","-2.727","0.0"],
    [1399444,"2026-02-16 03:00:00","37024","1.993","275.7","4.475","300.6","1014.258","13.42","56.23","-2.702","0.0"],
    [1399445,"2026-02-16 03:10:00","37025","2.227","266.1","4.214","265.1","1014.2130000000001","13.58","55.65","-2.859","0.0"],
    [1399446,"2026-02-16 03:20:00","37026","3.148","288.8","5.227","291.6","1013.977","13.31","56.87","-2.73","0.0"],
    [1399447,"2026-02-16 03:30:00","37027","3.5780000000000003","296.9","6.043","289","1013.804","13.17","57.79","-2.656","0.0"],
    [1399448,"2026-02-16 03:40:00","37028","3.845","306.6","6.795","308.3","1013.695","12.93","59.02","-2.7","0.0"],
    [1399449,"2026-02-16 03:50:00","37029","4.005","292.3","6.207","306.8","1013.571","13.03","58.81","-2.7689999999999997","0.0"],
    [1399450,"2026-02-16 04:00:00","37030","2.917","271.3","7.317","275.5","1013.334","13.29","58.0","-2.7489999999999997","0.0"],
    [1399451,"2026-02-16 04:10:00","37031","3.0810000000000004","248.6","6.468","285.9","1013.316","13.64","56.82","-2.7739999999999996","0.0"],
    [1399452,"2026-02-16 04:20:00","37032","3.286","230.0","6.533","227.2","1013.3789999999999","13.78","56.5","-2.747","0.0"],
    [1399453,"2026-02-16 04:30:00","37033","3.4219999999999997","223.7","7.219","222.5","1013.362","13.97","56.37","-2.7969999999999997","0.0"],
    [1399454,"2026-02-16 04:40:00","37034","3.262","228.7","5.847","241.3","1013.577","13.72","57.44","-2.327","0.0"],
    [1399455,"2026-02-16 04:50:00","37035","2.81","236.8","5.357","261.8","1013.617","13.59","58.03","-2.569","0.0"],
    [1399456,"2026-02-16 05:00:00","37036","2.705","243.5","6.109","261.4","1013.706","13.72","57.87","-2.747","0.0"],
    [1399457,"2026-02-16 05:10:00","37037","2.497","266.6","6.435","215","1013.7860000000001","13.7","58.3","-2.6010000000000004","0.0"],
    [1399458,"2026-02-16 05:20:00","37038","2.5810000000000004","264.2","5.521","250.9","1013.945","13.38","59.92","-2.764","0.0"],
    [1399459,"2026-02-16 05:30:00","37039","2.294","234.2","3.822","282.2","1013.826","13.39","59.8","-2.673","0.0"],
    [1399460,"2026-02-16 05:40:00","37040","2.5810000000000004","226.2","5.096","261.3","1013.8889999999999","13.17","61.14","-2.7560000000000002","0.0"],
    [1399461,"2026-02-16 05:50:00","37041","2.56","275.5","4.965","293.4","1014.0980000000001","13.31","61.22","-2.667","0.0"],
    [1399462,"2026-02-16 06:00:00","37042","3.105","278.9","7.023","298","1013.982","13.16","62.09","-2.6189999999999998","0.0"],
    [1399463,"2026-02-16 06:10:00","37043","2.569","275.8","4.998","271.2","1013.7360000000001","12.95","63.01","-2.612","0.0"],
    [1399464,"2026-02-16 06:20:00","37044","2.8810000000000002","280.7","5.717","281.6","1013.75","12.84","63.76","-2.642","0.0"],
    [1399465,"2026-02-16 06:30:00","37045","2.8310000000000004","278.6","6.141","282.2","1013.613","12.93","63.57","-2.36","0.0"],
    [1399466,"2026-02-16 06:40:00","37046","2.261","274.2","4.083","257.1","1013.67","12.94","63.88","-0.9009999999999999","0.0"],
    [1399467,"2026-02-16 06:50:00","37047","2.408","279.5","4.606","288.2","1014.033","12.84","64.49","1.885","0.0"],
    [1399468,"2026-02-16 07:00:00","37048","1.485","269.9","2.842","296.2","1014.013","12.65","65.44","9.37","0.0"],
    [1399469,"2026-02-16 07:10:00","37049","0.958","266.1","2.058","287.7","1013.738","12.75","65.26","20.91","0.0"],
    [1399470,"2026-02-16 07:20:00","37050","0.856","289.2","2.221","299","1014.07","12.66","65.8","33.57","0.0"],
    [1399471,"2026-02-16 07:30:00","37051","1.422","229.4","2.417","252.9","1014.1519999999999","12.68","66.12","46.88","0.0"],
    [1399472,"2026-02-16 07:40:00","37052","0.7929999999999999","208.9","2.221","204.4","1014.3739999999999","12.68","66.35","55.52","0.0"],
    [1399473,"2026-02-16 07:50:00","37053","1.945","215.3","2.842","210.3","1014.39","13.02","65.39","72.92","0.0"],
    [1399474,"2026-02-16 08:00:00","37054","1.643","220.4","2.809","210.9","1014.216","13.39","64.04","99.4","0.0"],
    [1399475,"2026-02-16 08:10:00","37055","1.306","231.0","2.483","224","1014.163","13.93","61.95","152.2","0.0"],
    [1399476,"2026-02-16 08:20:00","37056","1.7819999999999998","228.4","2.94","206.3","1013.84","14.26","60.44","159.2","0.0"],
    [1399477,"2026-02-16 08:30:00","37057","1.649","239.1","4.312","238.1","1013.572","14.49","60.15","182.7","0.0"],
    [1399478,"2026-02-16 08:40:00","37058","2.648","234.6","5.194","252.2","1013.4780000000001","14.99","59.75","223.7","0.0"],
    [1399479,"2026-02-16 08:50:00","37059","3.264","232.2","6.86","238.4","1013.5889999999999","15.26","58.49","246.6","0.0"],
    [1399480,"2026-02-16 09:00:00","37060","3.305","236.9","6.697","269.4","1013.784","15.55","57.65","261.9","0.0"],
    [1399481,"2026-02-16 09:10:00","37061","3.361","233.3","5.815","232.6","1013.75","15.79","56.61","269.9","0.0"],
    [1399482,"2026-02-16 09:20:00","37062","2.82","234.6","4.377","266.3","1013.435","16.35","54.89","324.3","0.0"],
    [1399483,"2026-02-16 09:30:00","37063","3.3139999999999996","231.0","5.913","217.4","1013.398","16.76","53.65","343.2","0.0"],
    [1399484,"2026-02-16 09:40:00","37064","3.1889999999999996","226.3","6.239","222.7","1013.444","16.95","53.4","382.5","0.0"],
    [1399485,"2026-02-16 09:50:00","37065","3.116","242.0","5.945","282.3","1013.4730000000001","17.39","51.88","436.5","0.0"],
    [1399486,"2026-02-16 10:00:00","37066","2.866","234.9","5.39","257.3","1013.775","17.68","51.54","490.5","0.0"],
    [1399487,"2026-02-16 10:10:00","37067","2.447","247.6","6.239","252.5","1013.46","18.18","49.62","477.5","0.0"],
    [1399488,"2026-02-16 10:20:00","37068","3.418","276.2","7.775","300.4","1013.573","18.68","48.42","488.6","0.0"],
    [1399489,"2026-02-16 10:30:00","37069","4.817","284.1","9.51","288","1013.2589999999999","18.7","48.25","493.9","0.0"],
    [1399490,"2026-02-16 10:40:00","37070","5.319","284.4","10.29","295.7","1012.875","18.85","47.92","576.4","0.0"],
    [1399491,"2026-02-16 10:50:00","37071","5.445","289.8","10.13","296.1","1013.0239999999999","19.0","47.72","511.2","0.0"],
    [1399492,"2026-02-16 11:00:00","37072","5.965","298.2","10.39","310.2","1013.097","18.48","49.1","273.6","0.0"],
    [1399493,"2026-02-16 11:10:00","37073","5.518","296.6","10.16","297.5","1013.324","18.2","50.17","288.6","0.0"],
    [1399494,"2026-02-16 11:20:00","37074","6.499","295.9","11.34","301","1013.2439999999999","18.23","50.11","329.1","0.0"],
    [1399495,"2026-02-16 11:30:00","37075","6.166","291.8","10.32","296.9","1013.073","18.68","49.06","480.1","0.0"],
    [1399496,"2026-02-16 11:40:00","37076","5.962000000000001","292.3","10.06","296.1","1012.938","19.04","48.38","528.0","0.0"],
    [1399497,"2026-02-16 11:50:00","37077","5.922000000000001","283.9","10.52","278.5","1012.893","19.16","47.38","454.4","0.0"],
    [1399498,"2026-02-16 12:00:00","37078","5.907","291.3","10.16","290.4","1012.7239999999999","19.03","47.32","410.6","0.0"],
    [1399499,"2026-02-16 12:10:00","37079","6.037000000000001","296.5","10.36","302","1012.6469999999999","19.15","47.39","531.2","0.0"],
    [1399500,"2026-02-16 12:20:00","37080","4.631","283.6","8.07","287.6","1012.44","19.59","46.11","533.5","0.0"],
    [1399501,"2026-02-16 12:30:00","37081","5.957000000000001","283.5","11.53","302.9","1012.3839999999999","19.67","45.2","538.5","0.0"],
    [1399502,"2026-02-16 12:40:00","37082","4.834","260.7","8.95","268.8","1012.15","19.68","44.63","555.4","0.0"],
    [1399503,"2026-02-16 12:50:00","37083","7.303","283.3","14.37","287.9","1012.09","19.89","44.63","558.5","0.0"],
    [1399504,"2026-02-16 13:00:00","37084","5.8260000000000005","281.1","11.79","280.8","1012.012","19.99","44.47","565.1","0.0"],
    [1399505,"2026-02-16 13:10:00","37085","4.604","279.8","7.84","290.2","1011.696","20.13","44.09","527.1","0.0"],
    [1399506,"2026-02-16 13:20:00","37086","2.522","270.3","6.599","271.2","1011.3760000000001","20.35","43.62","518.4","0.0"],
    [1399507,"2026-02-16 13:30:00","37087","3.443","235.6","6.729","224.2","1011.2260000000001","21.02","42.24","497.3","0.0"],
    [1399508,"2026-02-16 13:40:00","37088","2.5789999999999997","252.0","6.566","278.2","1011.443","20.75","43.01","323.8","0.0"],
    [1399509,"2026-02-16 13:50:00","37089","3.011","272.6","6.566","287.8","1011.221","20.01","44.56","189.1","0.0"],
    [1399510,"2026-02-16 14:00:00","37090","2.392","229.1","4.508","248.3","1011.034","20.16","44.28","236.6","0.0"],
    [1399511,"2026-02-16 14:10:00","37091","3.54","213.3","6.011","215.9","1010.972","19.37","50.08","290.0","0.0"],
    [1399512,"2026-02-16 14:20:00","37092","2.148","217.7","4.606","213","1010.942","19.05","53.27","277.6","0.0"],
    [1399513,"2026-02-16 14:30:00","37093","3.3160000000000003","240.0","8.17","201.9","1010.8389999999999","19.87","48.47","240.1","0.0"],
    [1399514,"2026-02-16 14:40:00","37094","5.056","275.3","10.36","277","1010.9639999999999","20.51","43.08","227.6","0.0"],
    [1399515,"2026-02-16 14:50:00","37095","4.7780000000000005","262.5","9.51","284.6","1010.875","20.49","42.89","255.5","0.0"],
    [1399516,"2026-02-16 15:00:00","37096","4.413","263.6","10.16","269.1","1010.804","20.6","42.68","239.1","0.0"],
    [1399517,"2026-02-16 15:10:00","37097","4.658","272.6","7.971","294","1010.887","20.64","42.83","296.2","0.0"],
    [1399518,"2026-02-16 15:20:00","37098","4.648","262.0","8.62","265.4","1010.885","20.69","42.5","248.0","0.0"],
    [1399519,"2026-02-16 15:30:00","37099","4.218","256.2","10.03","278.2","1011.0139999999999","20.68","42.63","244.9","0.0"],
    [1399520,"2026-02-16 15:40:00","37100","2.748","260.8","6.37","277.8","1011.1460000000001","20.86","42.91","242.6","0.0"],
    [1399521,"2026-02-16 15:50:00","37101","4.465","266.8","10.52","315.8","1011.21","20.51","43.78","173.8","0.0"],
    [1399522,"2026-02-16 16:00:00","37102","3.616","256.9","10.06","264.6","1011.048","20.41","43.82","137.1","0.0"],
    [1399523,"2026-02-16 16:10:00","37103","4.622","266.6","8.66","266.8","1010.993","20.15","44.38","131.5","0.0"],
    [1399524,"2026-02-16 16:20:00","37104","4.2860000000000005","261.8","8.62","298.9","1010.8639999999999","20.25","44.43","125.1","0.0"],
    [1399525,"2026-02-16 16:30:00","37105","3.508","271.5","7.35","281.9","1010.7860000000001","19.9","45.75","65.74","0.0"],
    [1399526,"2026-02-16 16:40:00","37106","2.964","264.5","5.815","287.9","1010.6510000000001","19.62","46.51","48.53","0.0"],
    [1399527,"2026-02-16 16:50:00","37107","1.787","244.8","3.43","252.6","1010.7539999999999","19.48","46.98","41.0","0.0"],
    [1399528,"2026-02-16 17:00:00","37108","2.595","237.2","5.782","247.6","1010.821","19.58","46.49","34.5","0.0"],
    [1399529,"2026-02-16 17:10:00","37109","2.6210000000000004","236.6","5.815","268.4","1010.815","19.51","46.85","19.84","0.0"],
    [1399530,"2026-02-16 17:20:00","37110","3.64","255.7","7.415","267.9","1010.8430000000001","19.56","46.69","7.6610000000000005","0.0"],
    [1399531,"2026-02-16 17:30:00","37111","2.7239999999999998","261.8","5.553","227.9","1010.923","19.49","46.87","0.892","0.0"],
    [1399532,"2026-02-16 17:40:00","37112","2.952","236.2","6.076","273.3","1010.74","19.43","47.06","-1.7480000000000002","0.0"],
    [1399533,"2026-02-16 17:50:00","37113","2.407","242.5","4.475","222.6","1010.8380000000001","19.31","47.27","-2.6489999999999996","0.0"],
    [1399534,"2026-02-16 18:00:00","37114","2.343","252.9","6.533","296.6","1010.927","19.21","47.41","-2.843","0.0"],
    [1399535,"2026-02-16 18:10:00","37115","3.155","274.0","5.684","310.2","1010.814","19.21","47.38","-2.707","0.0"],
    [1399536,"2026-02-16 18:20:00","37116","2.526","280.4","5.031","303.3","1010.8510000000001","19.1","47.48","-2.701","0.0"],
    [1399537,"2026-02-16 18:30:00","37117","2.781","282.2","5.913","286.8","1011.095","18.84","48.38","-2.787","0.0"],
    [1399538,"2026-02-16 18:40:00","37118","1.6030000000000002","301.0","3.724","272.5","1011.222","18.57","49.21","-2.702","0.0"],
    [1399539,"2026-02-16 18:50:00","37119","0.8109999999999999","355.1","2.483","15.74","1011.242","18.19","50.34","-3.06","0.0"],
    [1399540,"2026-02-16 19:00:00","37120","0.956","2.949","2.123","348.7","1011.441","17.83","51.87","-3.225","0.0"],
    [1399541,"2026-02-16 19:10:00","37121","2.006","321.2","4.247","293.5","1011.4910000000001","17.86","52.47","-2.907","0.0"],
    [1399542,"2026-02-16 19:20:00","37122","2.603","322.9","6.043","327.6","1011.405","17.72","53.49","-2.886","0.0"],
    [1399543,"2026-02-16 19:30:00","37123","2.521","315.8","4.377","306.3","1011.462","17.54","54.26","-2.767","0.0"],
    [1399544,"2026-02-16 19:40:00","37124","2.9389999999999996","313.4","4.998","302.9","1011.581","17.56","54.48","-2.7310000000000003","0.0"],
    [1399545,"2026-02-16 19:50:00","37125","3.4760000000000004","313.4","6.141","307.2","1011.677","17.5","55.36","-2.728","0.0"],
    [1399546,"2026-02-16 20:00:00","37126","3.611","309.0","7.187","299.7","1011.4789999999999","17.35","56.18","-2.78","0.0"],
    [1399547,"2026-02-16 20:10:00","37127","4.593999999999999","310.3","8.4","304.2","1011.3660000000001","17.48","55.99","-2.765","0.0"],
    [1399548,"2026-02-16 20:20:00","37128","4.031000000000001","304.4","6.893","299.8","1011.3489999999999","17.34","56.86","-2.688","0.0"],
    [1399549,"2026-02-16 20:30:00","37129","3.487","310.9","6.697","307","1011.198","17.13","57.83","-2.719","0.0"],
    [1399550,"2026-02-16 20:40:00","37130","2.7230000000000003","304.3","5.031","289.3","1011.046","16.98","58.22","-2.7289999999999996","0.0"],
    [1399551,"2026-02-16 20:50:00","37131","2.929","301.7","4.867","319.5","1011.3430000000001","16.82","58.75","-2.862","0.0"],
    [1399552,"2026-02-16 21:00:00","37132","3.179","326.2","4.998","316.9","1011.65","16.86","58.66","-2.7260000000000004","0.0"],
    [1399553,"2026-02-16 21:10:00","37133","3.614","334.1","6.011","339.1","1011.762","16.91","58.13","-2.92","0.0"],
    [1399554,"2026-02-16 21:20:00","37134","3.583","319.7","6.599","328.4","1011.796","17.07","56.96","-2.7289999999999996","0.0"],
    [1399555,"2026-02-16 21:30:00","37135","5.153","316.8","8.13","303.2","1011.8969999999999","17.17","55.4","-2.741","0.0"],
    [1399556,"2026-02-16 21:40:00","37136","4.1739999999999995","312.8","6.991","317.3","1012.0189999999999","17.03","55.97","-2.6010000000000004","0.0"],
    [1399557,"2026-02-16 21:50:00","37137","4.266","306.1","6.501","332","1012.178","16.8","56.3","-2.7260000000000004","0.0"],
    [1399558,"2026-02-16 22:00:00","37138","4.408","310.1","6.631","310.5","1012.172","16.87","55.49","-2.681","0.0"],
    [1399559,"2026-02-16 22:10:00","37139","3.984","311.5","6.795","333.4","1012.28","16.57","56.59","-2.7539999999999996","0.0"],
    [1399560,"2026-02-16 22:20:00","37140","3.431","308.9","5.945","313.8","1012.321","16.45","57.32","-2.7239999999999998","0.0"],
    [1399561,"2026-02-16 22:30:00","37141","4.082","303.0","7.709","314.5","1012.422","16.27","57.87","-2.738","0.0"],
    [1399562,"2026-02-16 22:40:00","37142","4.215","299.1","7.448","311","1012.515","16.25","57.38","-2.7310000000000003","0.0"],
    [1399563,"2026-02-16 22:50:00","37143","4.47","303.0","8.3","307.4","1012.705","16.09","57.52","-2.733","0.0"],
    [1399564,"2026-02-16 23:00:00","37144","4.65","303.3","8.43","311.2","1012.887","16.02","57.16","-2.7230000000000003","0.0"],
    [1399565,"2026-02-16 23:10:00","37145","4.551","300.9","7.481","304.6","1013.028","15.94","57.07","-2.701","0.0"],
    [1399566,"2026-02-16 23:20:00","37146","3.714","293.0","7.056","310.8","1013.1389999999999","15.71","57.58","-2.7110000000000003","0.0"],
    [1399567,"2026-02-16 23:30:00","37147","3.137","295.6","5.488","296.4","1013.31","15.35","58.85","-2.717","0.0"],
    [1399568,"2026-02-16 23:40:00","37148","3.556","315.3","5.651","318.2","1013.211","15.2","59.48","-2.7910000000000004","0.0"],
    [1399569,"2026-02-16 23:50:00","37149","4.406000000000001","305.2","6.991","315.9","1013.038","15.42","57.58","-2.7439999999999998","0.0"],
    [1399570,"2026-02-17 00:00:00","37150","4.024","304.0","6.37","306.3","1012.9119999999999","15.36","56.83","-2.737","0.0"],
    [1399571,"2026-02-17 00:10:00","37151","4.164","295.0","6.599","319.2","1013.1469999999999","15.29","56.82","-2.7310000000000003","0.0"],
    [1399572,"2026-02-17 00:20:00","37152","4.606","285.4","7.415","296.1","1013.283","15.32","56.26","-2.697","0.0"],
    [1399573,"2026-02-17 00:30:00","37153","4.188","292.5","6.631","295.8","1013.409","15.06","56.98","-2.608","0.0"],
    [1399574,"2026-02-17 00:40:00","37154","2.977","271.8","5.227","287.7","1013.346","14.92","57.58","-2.718","0.0"],
    [1399575,"2026-02-17 00:50:00","37155","3.2560000000000002","279.8","5.292","289.3","1013.221","14.63","58.53","-2.714","0.0"],
    [1399576,"2026-02-17 01:00:00","37156","2.676","275.1","4.867","286.5","1013.117","14.36","59.52","-2.728","0.0"],
    [1399577,"2026-02-17 01:10:00","37157","1.969","271.2","3.43","291.2","1013.1389999999999","14.27","59.96","-2.7289999999999996","0.0"],
    [1399578,"2026-02-17 01:20:00","37158","1.7830000000000001","245.5","3.43","278.3","1013.44","14.1","60.53","-2.737","0.0"],
    [1399579,"2026-02-17 01:30:00","37159","1.935","234.3","3.103","223.1","1013.722","13.96","60.77","-2.735","0.0"],
    [1399580,"2026-02-17 01:40:00","37160","1.993","241.5","3.463","237.1","1013.584","13.62","62.14","-2.7439999999999998","0.0"],
    [1399581,"2026-02-17 01:50:00","37161","3.185","286.2","5.815","304.8","1013.5139999999999","13.78","59.72","-2.855","0.0"],
    [1399582,"2026-02-17 02:00:00","37162","4.317","294.7","6.925","296.3","1013.552","14.05","57.26","-2.948","0.0"],
    [1399583,"2026-02-17 02:10:00","37163","3.7030000000000003","291.8","6.239","297.4","1013.704","14.09","56.58","-2.7889999999999997","0.0"],
    [1399584,"2026-02-17 02:20:00","37164","3.5980000000000003","285.9","5.88","287.5","1013.9060000000001","14.06","56.22","-2.758","0.0"],
    [1399585,"2026-02-17 02:30:00","37165","3.681","291.1","6.337","303.6","1013.7719999999999","13.81","56.76","-2.7760000000000002","0.0"],
    [1399586,"2026-02-17 02:40:00","37166","3.984","295.6","6.337","324","1013.6239999999999","13.77","56.44","-2.759","0.0"],
    [1399587,"2026-02-17 02:50:00","37167","4.48","304.5","6.827","311.2","1013.681","13.78","55.91","-2.7760000000000002","0.0"],
    [1399588,"2026-02-17 03:00:00","37168","4.436","294.1","8.36","298.9","1013.711","13.82","54.86","-2.8289999999999997","0.0"],
    [1399589,"2026-02-17 03:10:00","37169","5.117","300.3","7.35","305.4","1013.765","13.85","53.91","-2.778","0.0"],
    [1399590,"2026-02-17 03:20:00","37170","4.758","291.7","8.17","284.6","1013.826","13.89","52.86","-2.77","0.0"],
    [1399591,"2026-02-17 03:30:00","37171","4.183","293.6","8.17","302.9","1013.937","13.76","52.79","-2.815","0.0"],
    [1399592,"2026-02-17 03:40:00","37172","4.495","296.3","7.317","303.8","1013.921","13.7","52.81","-2.762","0.0"],
    [1399593,"2026-02-17 03:50:00","37173","3.477","296.0","6.827","316.2","1014.052","13.56","52.73","-2.833","0.0"],
    [1399594,"2026-02-17 04:00:00","37174","3.258","294.0","5.39","306.5","1014.375","13.48","52.92","-2.943","0.0"],
    [1399595,"2026-02-17 04:10:00","37175","2.6910000000000003","295.5","4.704","301.6","1014.373","13.36","53.5","-2.9160000000000004","0.0"],
    [1399596,"2026-02-17 04:20:00","37176","1.905","294.0","4.247","293.7","1014.571","13.08","54.73","-2.827","0.0"],
    [1399597,"2026-02-17 04:30:00","37177","2.032","321.4","4.312","340.4","1014.687","12.74","56.31","-3.225","0.0"],
    [1399598,"2026-02-17 04:40:00","37178","1.811","347.3","3.92","340.2","1014.8689999999999","12.73","56.7","-3.0580000000000003","0.0"],
    [1399599,"2026-02-17 04:50:00","37179","1.706","293.7","3.495","316.1","1015.081","12.57","57.12","-3.497","0.0"],
    [1399600,"2026-02-17 05:00:00","37180","0.465","210.6","1.633","329.4","1015.419","12.36","57.2","-3.248","0.0"],
    [1399601,"2026-02-17 05:10:00","37181","0.385","131.7","1.372","121.9","1015.6210000000001","12.37","57.0","-3.469","0.0"],
    [1399602,"2026-02-17 05:20:00","37182","0.345","148.9","0.98","156.4","1015.819","12.16","57.94","-3.307","0.0"],
    [1399603,"2026-02-17 05:30:00","37183","0.698","117.6","2.091","90.3","1015.904","12.23","57.83","-2.9339999999999997","0.0"],
    [1399604,"2026-02-17 05:40:00","37184","0.375","127.1","1.274","140.7","1015.878","12.16","58.53","-2.946","0.0"],
    [1399605,"2026-02-17 05:50:00","37185","0.23600000000000002","284.7","1.437","291.2","1016.132","11.36","62.04","-3.05","0.0"],
    [1399606,"2026-02-17 06:00:00","37186","0.888","288.9","1.731","318.7","1016.404","11.21","61.93","-2.9210000000000003","0.0"],
    [1399607,"2026-02-17 06:10:00","37187","0.309","251.1","0.947","249.4","1016.671","11.34","60.5","-2.761","0.0"],
    [1399608,"2026-02-17 06:20:00","37188","0.49200000000000005","281.3","1.176","288.6","1016.7439999999999","10.99","62.52","-2.803","0.0"],
    [1399609,"2026-02-17 06:30:00","37189","0.579","346.6","1.503","340.9","1016.9069999999999","10.41","65.7","-1.62","0.0"],
    [1399610,"2026-02-17 06:40:00","37190","0.018000000000000002","26.44","0.523","25.49","1017.058","10.27","65.56","0.25","0.0"],
    [1399611,"2026-02-17 06:50:00","37191","0.35","115.0","0.751","115","1017.285","11.15","60.86","1.256","0.0"],
    [1399612,"2026-02-17 07:00:00","37192","0.89","105.0","1.339","91.1","1017.429","11.16","60.99","8.43","0.0"],
    [1399613,"2026-02-17 07:10:00","37193","0.5660000000000001","100.5","1.078","95.7","1017.6460000000001","11.33","59.73","18.5","0.0"],
    [1399614,"2026-02-17 07:20:00","37194","0.544","233.5","1.503","270.8","1017.808","11.3","59.82","26.17","0.0"],
    [1399615,"2026-02-17 07:30:00","37195","0.542","293.9","1.307","305.6","1018.054","10.83","63.14","32.73","0.0"],
    [1399616,"2026-02-17 07:40:00","37196","0.7609999999999999","314.3","1.927","327.8","1018.23","10.81","62.72","40.18","0.0"],
    [1399617,"2026-02-17 07:50:00","37197","2.926","330.5","4.279","322.6","1018.2739999999999","11.24","62.45","45.76","0.0"],
    [1399618,"2026-02-17 08:00:00","37198","2.721","327.2","4.312","329.5","1018.306","12.13","58.76","103.4","0.0"],
    [1399619,"2026-02-17 08:10:00","37199","2.185","331.5","4.116","336.4","1018.495","12.52","57.77","187.2","0.0"],
    [1399620,"2026-02-17 08:20:00","37200","2.5989999999999998","328.9","4.083","322.9","1018.4739999999999","12.81","57.0","205.4","0.0"],
    [1399621,"2026-02-17 08:30:00","37201","2.76","331.6","4.149","333.5","1018.622","13.12","56.71","265.8","0.0"],
    [1399622,"2026-02-17 08:40:00","37202","2.481","323.6","4.051","334.8","1018.823","13.52","55.18","264.2","0.0"],
    [1399623,"2026-02-17 08:50:00","37203","2.162","298.3","3.757","308.5","1018.8939999999999","13.95","53.0","300.5","0.0"],
    [1399624,"2026-02-17 09:00:00","37204","1.6059999999999999","309.8","3.267","272.5","1018.9","14.44","51.41","349.3","0.0"],
    [1399625,"2026-02-17 09:10:00","37205","0.966","253.6","2.025","181.4","1019.059","14.94","49.47","371.8","0.0"],
    [1399626,"2026-02-17 09:20:00","37206","0.8140000000000001","127.1","2.548","139","1019.362","14.38","53.01","396.2","0.0"],
    [1399627,"2026-02-17 09:30:00","37207","0.879","143.8","3.201","190.4","1019.676","14.51","52.43","424.0","0.0"],
    [1399628,"2026-02-17 09:40:00","37208","0.644","110.1","1.993","84.5","1019.789","15.05","51.57","441.9","0.0"],
    [1399629,"2026-02-17 09:50:00","37209","0.941","120.1","2.548","91.6","1019.935","15.28","50.01","464.5","0.0"],
    [1399630,"2026-02-17 10:00:00","37210","1.176","167.5","2.711","161.1","1019.94","15.01","50.74","477.0","0.0"],
    [1399631,"2026-02-17 10:10:00","37211","1.4069999999999998","111.4","3.92","94.7","1019.953","15.07","55.1","499.4","0.0"],
    [1399632,"2026-02-17 10:20:00","37212","2.45","95.2","4.149","85.7","1019.977","14.98","63.35","525.0","0.0"],
    [1399633,"2026-02-17 10:30:00","37213","2.96","89.5","4.737","80.8","1019.9760000000001","14.62","65.58","544.4","0.0"],
    [1399634,"2026-02-17 10:40:00","37214","3.509","85.5","5.063","76.95","1020.047","14.71","69.71","577.5","0.0"],
    [1399635,"2026-02-17 10:50:00","37215","3.5460000000000003","89.9","4.671","79.99","1020.072","14.6","70.92","589.8","0.0"],
    [1399636,"2026-02-17 11:00:00","37216","3.2689999999999997","89.1","4.998","92.1","1019.992","14.67","71.16","589.0","0.0"],
    [1399637,"2026-02-17 11:10:00","37217","3.92","85.3","5.325","87","1019.9630000000001","14.69","71.15","582.7","0.0"],
    [1399638,"2026-02-17 11:20:00","37218","4.115","86.5","6.37","81.4","1019.961","14.69","70.75","593.2","0.0"],
    [1399639,"2026-02-17 11:30:00","37219","3.681","92.4","5.521","83.4","1020.0110000000001","14.75","69.79","605.8","0.0"],
    [1399640,"2026-02-17 11:40:00","37220","3.661","96.0","5.455","75.17","1019.9839999999999","14.69","69.44","622.2","0.0"],
    [1399641,"2026-02-17 11:50:00","37221","4.115","92.0","5.749","88.8","1019.86","14.7","68.7","628.5","0.0"],
    [1399642,"2026-02-17 12:00:00","37222","4.421","87.9","6.337","87.1","1019.6460000000001","14.75","68.53","631.9","0.0"],
    [1399643,"2026-02-17 12:10:00","37223","4.5760000000000005","86.2","6.043","82.9","1019.58","14.74","68.47","635.2","0.0"],
    [1399644,"2026-02-17 12:20:00","37224","4.801","73.66","6.043","71.5","1019.513","14.84","68.67","632.9","0.0"],
    [1399645,"2026-02-17 12:30:00","37225","4.539","71.75","6.207","72.89","1019.4019999999999","14.87","68.46","626.6","0.0"],
    [1399646,"2026-02-17 12:40:00","37226","4.14","74.79","6.109","85.3","1019.3939999999999","14.96","68.74","617.6","0.0"],
    [1399647,"2026-02-17 12:50:00","37227","4.365","78.7","6.37","59.52","1019.317","14.98","67.66","616.7","0.0"],
    [1399648,"2026-02-17 13:00:00","37228","4.685","77.82","6.141","84","1019.2539999999999","14.81","67.63","608.2","0.0"],
    [1399649,"2026-02-17 13:10:00","37229","4.146","70.18","6.141","76.38","1019.13","14.92","67.73","602.0","0.0"],
    [1399650,"2026-02-17 13:20:00","37230","4.092","60.68","5.521","53.78","1019.056","14.87","67.49","588.9","0.0"],
    [1399651,"2026-02-17 13:30:00","37231","4.149","51.43","5.913","49.18","1018.8969999999999","14.76","67.75","575.6","0.0"],
    [1399652,"2026-02-17 13:40:00","37232","3.109","36.62","5.357","17.29","1018.674","14.94","67.53","561.6","0.0"],
    [1399653,"2026-02-17 13:50:00","37233","2.3819999999999997","28.41","4.998","34.17","1018.597","15.05","66.6","547.2","0.0"],
    [1399654,"2026-02-17 14:00:00","37234","2.2","11.75","3.855","9.46","1018.5139999999999","15.38","63.58","528.9","0.0"],
    [1399655,"2026-02-17 14:10:00","37235","1.848","58.37","2.842","61.34","1018.4760000000001","15.7","59.22","506.5","0.0"],
    [1399656,"2026-02-17 14:20:00","37236","2.7030000000000003","68.26","3.593","63.22","1018.328","15.62","60.58","487.7","0.0"],
    [1399657,"2026-02-17 14:30:00","37237","3.747","75.7","4.933","71.65","1018.248","15.31","66.9","470.8","0.0"],
    [1399658,"2026-02-17 14:40:00","37238","3.753","82.5","4.802","83.3","1018.2660000000001","14.73","72.73","446.9","0.0"],
    [1399659,"2026-02-17 14:50:00","37239","3.514","91.0","4.312","92.7","1018.202","14.48","72.74","422.3","0.0"],
    [1399660,"2026-02-17 15:00:00","37240","3.093","85.9","4.475","80.9","1018.206","14.65","71.36","394.7","0.0"],
    [1399661,"2026-02-17 15:10:00","37241","2.8489999999999998","91.6","4.573","83.7","1018.2489999999999","14.63","70.55","369.2","0.0"],
    [1399662,"2026-02-17 15:20:00","37242","2.141","84.3","3.201","77.33","1018.2230000000001","14.67","69.2","341.1","0.0"],
    [1399663,"2026-02-17 15:30:00","37243","2.371","75.22","3.267","83.3","1018.13","14.69","69.62","310.4","0.0"],
    [1399664,"2026-02-17 15:40:00","37244","3.255","85.6","4.835","91.4","1018.221","14.45","73.18","281.9","0.0"],
    [1399665,"2026-02-17 15:50:00","37245","2.714","80.8","3.626","86.8","1018.28","14.38","73.19","248.6","0.0"],
    [1399666,"2026-02-17 16:00:00","37246","3.009","65.67","3.953","66.58","1018.2539999999999","14.38","72.43","218.8","0.0"],
    [1399667,"2026-02-17 16:10:00","37247","3.057","70.34","4.279","71.79","1018.38","14.38","67.95","198.5","0.0"],
    [1399668,"2026-02-17 16:20:00","37248","3.5039999999999996","69.89","4.704","74.27","1018.398","14.36","66.37","169.7","0.0"],
    [1399669,"2026-02-17 16:30:00","37249","3.4589999999999996","70.1","4.573","71.78","1018.482","14.2","67.22","83.6","0.0"],
    [1399670,"2026-02-17 16:40:00","37250","3.214","71.95","5.292","58.97","1018.4580000000001","14.02","74.17","32.94","0.0"],
    [1399671,"2026-02-17 16:50:00","37251","3.779","94.5","5.521","97.2","1018.548","13.74","80.0","28.76","0.0"],
    [1399672,"2026-02-17 17:00:00","37252","2.858","96.9","4.704","103.1","1018.5980000000001","13.6","81.6","21.11","0.0"],
    [1399673,"2026-02-17 17:10:00","37253","2.468","95.7","4.41","89.4","1018.663","13.6","82.3","16.17","0.0"],
    [1399674,"2026-02-17 17:20:00","37254","2.74","88.7","4.41","89.4","1018.758","13.56","82.0","11.07","0.0"],
    [1399675,"2026-02-17 17:30:00","37255","2.697","85.3","3.789","80.6","1018.8330000000001","13.57","82.3","4.2139999999999995","0.0"],
    [1399676,"2026-02-17 17:40:00","37256","3.259","84.7","4.279","79.98","1018.87","13.5","83.8","-0.384","0.0"],
    [1399677,"2026-02-17 17:50:00","37257","3.0380000000000003","94.3","4.377","93.7","1019.0239999999999","13.43","84.4","-2.0180000000000002","0.0"],
    [1399678,"2026-02-17 18:00:00","37258","1.9669999999999999","97.4","3.495","94.6","1019.172","13.34","85.3","-2.6630000000000003","0.0"],
    [1399679,"2026-02-17 18:10:00","37259","3.062","92.8","4.541","94.7","1019.172","13.28","84.5","-2.737","0.0"],
    [1399680,"2026-02-17 18:20:00","37260","2.1","87.6","3.299","84","1019.258","13.22","85.0","-2.73","0.0"],
    [1399681,"2026-02-17 18:30:00","37261","2.134","83.2","3.071","92.4","1019.4119999999999","13.11","85.4","-2.755","0.0"],
    [1399682,"2026-02-17 18:40:00","37262","2.419","67.91","3.332","61.67","1019.459","12.92","86.3","-2.759","0.0"],
    [1399683,"2026-02-17 18:50:00","37263","2.112","69.03","3.038","77.73","1019.5","12.81","87.1","-2.758","0.0"],
    [1399684,"2026-02-17 19:00:00","37264","2.2569999999999997","61.7","3.103","70.62","1019.5210000000001","12.76","87.5","-2.76","0.0"],
    [1399685,"2026-02-17 19:10:00","37265","2.259","65.79","3.593","69.04","1019.5880000000001","12.88","87.2","-2.086","0.0"],
    [1399686,"2026-02-17 19:20:00","37266","2.085","74.6","3.299","68.95","1019.6489999999999","13.03","87.3","-1.3559999999999999","0.0"],
    [1399687,"2026-02-17 19:30:00","37267","2.583","79.5","3.43","83.4","1019.582","13.01","86.8","-2.025","0.0"],
    [1399688,"2026-02-17 19:40:00","37268","2.329","87.9","3.92","90.9","1019.5319999999999","12.92","86.9","-2.605","0.0"],
    [1399689,"2026-02-17 19:50:00","37269","2.592","86.5","4.018","86.3","1019.5089999999999","12.93","86.8","-2.7460000000000004","0.0"],
    [1399690,"2026-02-17 20:00:00","37270","2.417","88.3","3.724","86.5","1019.549","12.9","86.5","-2.506","0.0"],
    [1399691,"2026-02-17 20:10:00","37271","2.116","86.1","3.593","81.8","1019.553","12.85","86.3","-2.7039999999999997","0.0"],
    [1399692,"2026-02-17 20:20:00","37272","2.077","85.6","3.593","95","1019.6080000000001","12.77","86.6","-2.464","0.0"],
    [1399693,"2026-02-17 20:30:00","37273","2.032","85.4","3.005","77.58","1019.596","12.73","86.4","-2.6860000000000004","0.0"],
    [1399694,"2026-02-17 20:40:00","37274","2.1830000000000003","84.5","3.43","92","1019.627","12.63","86.3","-2.525","0.0"],
    [1399695,"2026-02-17 20:50:00","37275","2.3680000000000003","90.0","3.397","81.2","1019.547","12.65","86.1","-2.639","0.0"],
    [1399696,"2026-02-17 21:00:00","37276","2.296","90.3","4.018","104.9","1019.439","12.73","85.7","-2.239","0.0"],
    [1399697,"2026-02-17 21:10:00","37277","2.682","85.3","3.626","79.05","1019.413","12.7","86.0","-2.516","0.0"],
    [1399698,"2026-02-17 21:20:00","37278","2.7539999999999996","74.98","4.475","85.2","1019.43","12.65","85.8","-2.18","0.0"],
    [1399699,"2026-02-17 21:30:00","37279","2.54","72.93","3.626","64.79","1019.457","12.55","86.8","-1.541","0.0"],
    [1399700,"2026-02-17 21:40:00","37280","2.58","67.18","3.528","70.09","1019.416","12.56","86.6","-1.5719999999999998","0.0"],
    [1399701,"2026-02-17 21:50:00","37281","2.576","56.78","3.953","56.1","1019.471","12.63","86.5","-1.3259999999999998","0.0"],
    [1399702,"2026-02-17 22:00:00","37282","2.969","60.63","4.149","75.39","1019.456","12.68","85.6","-1.3230000000000002","0.0"],
    [1399703,"2026-02-17 22:10:00","37283","3.0439999999999996","62.83","4.737","54.12","1019.278","12.64","85.5","-1.824","0.0"],
    [1399704,"2026-02-17 22:20:00","37284","2.5069999999999997","60.82","4.083","68.24","1019.291","12.54","85.6","-2.046","0.0"],
    [1399705,"2026-02-17 22:30:00","37285","2.702","61.27","4.377","61.87","1019.2510000000001","12.55","85.5","-1.883","0.0"],
    [1399706,"2026-02-17 22:40:00","37286","2.917","54.28","4.018","46.54","1019.2139999999999","12.51","85.4","-2.123","0.0"],
    [1399707,"2026-02-17 22:50:00","37287","2.7539999999999996","55.1","3.757","54.38","1019.17","12.55","85.0","-1.964","0.0"],
    [1399708,"2026-02-17 23:00:00","37288","3.214","55.08","4.312","50.68","1019.1439999999999","12.54","84.8","-1.959","0.0"],
    [1399709,"2026-02-17 23:10:00","37289","3.105","60.12","4.116","58.44","1019.127","12.51","84.4","-1.722","0.0"],
    [1399710,"2026-02-17 23:20:00","37290","2.8169999999999997","63.41","4.214","69.8","1019.1419999999999","12.51","84.3","-1.345","0.0"],
    [1399711,"2026-02-17 23:30:00","37291","3.053","59.71","4.247","52.6","1019.118","12.43","83.9","-1.9580000000000002","0.0"],
    [1399712,"2026-02-17 23:40:00","37292","2.763","59.13","3.855","53.09","1019.1089999999999","12.38","84.2","-2.378","0.0"],
    [1399713,"2026-02-17 23:50:00","37293","2.987","51.48","3.953","62.72","1019.012","12.34","84.1","-2.7119999999999997","0.0"],
    [1399714,"2026-02-18 00:00:00","37294","3.068","56.58","4.181","67.62","1018.862","12.34","83.5","-2.71","0.0"],
    [1399715,"2026-02-18 00:10:00","37295","3.1889999999999996","59.1","4.443","52.99","1018.732","12.29","84.2","-2.688","0.0"],
    [1399716,"2026-02-18 00:20:00","37296","3.3110000000000004","54.94","4.737","53.01","1018.592","12.26","84.4","-2.5869999999999997","0.0"],
    [1399717,"2026-02-18 00:30:00","37297","3.258","53.77","4.639","52.7","1018.5369999999999","12.3","83.9","-2.281","0.0"],
    [1399718,"2026-02-18 00:40:00","37298","2.461","52.0","4.116","48.96","1018.643","12.31","83.5","-2.099","0.0"],
    [1399719,"2026-02-18 00:50:00","37299","2.1430000000000002","59.97","3.005","62.95","1018.701","12.2","84.5","-2.0669999999999997","0.0"],
    [1399720,"2026-02-18 01:00:00","37300","1.864","57.12","2.809","52.55","1018.71","12.06","85.2","-2.537","0.0"],
    [1399721,"2026-02-18 01:10:00","37301","1.625","60.53","2.319","62.07","1018.565","11.95","85.3","-2.719","0.0"],
    [1399722,"2026-02-18 01:20:00","37302","1.912","66.2","3.136","60.91","1018.53","11.77","86.2","-2.6830000000000003","0.0"],
    [1399723,"2026-02-18 01:30:00","37303","1.964","68.78","2.777","72.8","1018.488","11.69","86.7","-2.67","0.0"],
    [1399724,"2026-02-18 01:40:00","37304","2.116","66.97","2.94","61.14","1018.44","11.62","87.1","-2.736","0.0"],
    [1399725,"2026-02-18 01:50:00","37305","2.305","55.96","3.332","61.49","1018.4","11.73","86.5","-2.76","0.0"],
    [1399726,"2026-02-18 02:00:00","37306","2.222","54.09","3.43","61.94","1018.2460000000001","11.85","85.7","-2.761","0.0"],
    [1399727,"2026-02-18 02:10:00","37307","2.0469999999999997","60.05","2.809","49.53","1018.0","11.79","85.8","-2.761","0.0"],
    [1399728,"2026-02-18 02:20:00","37308","1.767","59.28","2.809","75.97","1017.939","11.63","86.2","-2.761","0.0"],
    [1399729,"2026-02-18 02:30:00","37309","1.6119999999999999","53.12","2.385","61.07","1017.817","11.35","87.7","-2.762","0.0"],
    [1399730,"2026-02-18 02:40:00","37310","1.7169999999999999","64.59","2.352","51.43","1017.738","11.42","87.7","-2.43","0.0"],
    [1399731,"2026-02-18 02:50:00","37311","1.817","67.0","2.385","65.36","1017.633","11.43","88.3","-2.011","0.0"],
    [1399732,"2026-02-18 03:00:00","37312","1.87","66.89","2.483","60.64","1017.505","11.46","88.1","-2.011","0.0"],
    [1399733,"2026-02-18 03:10:00","37313","1.675","58.24","2.287","58.8","1017.347","11.38","88.3","-2.151","0.0"],
    [1399734,"2026-02-18 03:20:00","37314","1.264","44.68","1.601","56.05","1017.201","11.35","88.3","-2.6510000000000002","0.0"],
    [1399735,"2026-02-18 03:30:00","37315","1.676","34.25","2.581","34.61","1016.957","11.28","88.1","-2.761","0.0"],
    [1399736,"2026-02-18 03:40:00","37316","1.651","31.66","2.319","36.37","1016.882","11.22","87.5","-2.761","0.0"],
    [1399737,"2026-02-18 03:50:00","37317","1.291","28.9","1.927","23.35","1016.929","11.22","87.6","-2.761","0.0"],
    [1399738,"2026-02-18 04:00:00","37318","0.815","28.88","1.143","29.04","1016.937","11.21","87.3","-2.761","0.0"],
    [1399739,"2026-02-18 04:10:00","37319","0.483","30.48","0.947","28.17","1016.8810000000001","11.06","87.5","-2.761","0.0"],
    [1399740,"2026-02-18 04:20:00","37320","0.0","0.0","0","0","1016.808","10.72","88.5","-2.761","0.0"],
    [1399741,"2026-02-18 04:30:00","37321","0.0","0.0","0","0","1016.675","10.58","89.7","-2.76","0.0"],
    [1399742,"2026-02-18 04:40:00","37322","0.426","24.55","1.143","23.62","1016.602","10.28","90.3","-2.7510000000000003","0.0"],
    [1399743,"2026-02-18 04:50:00","37323","0.41","26.23","1.045","23.82","1016.5880000000001","10.24","91.1","-2.687","0.0"],
    [1399744,"2026-02-18 05:00:00","37324","0.11","33.63","0.947","35.43","1016.439","10.01","91.2","-2.574","0.0"],
    [1399745,"2026-02-18 05:10:00","37325","0.057","38.22","0.588","38.43","1016.403","10.06","91.7","-2.648","0.0"],
    [1399746,"2026-02-18 05:20:00","37326","1.307","283.8","1.993","286.2","1016.475","9.75","91.3","-2.7","0.0"],
    [1399747,"2026-02-18 05:30:00","37327","1.597","276.7","2.091","261.7","1016.459","9.65","91.0","-2.7110000000000003","0.0"],
    [1399748,"2026-02-18 05:40:00","37328","1.39","282.1","2.156","277.6","1016.421","9.72","90.3","-2.761","0.0"],
    [1399749,"2026-02-18 05:50:00","37329","1.198","284.2","1.568","284.5","1016.299","9.53","90.2","-2.761","0.0"],
    [1399750,"2026-02-18 06:00:00","37330","1.036","284.5","1.372","284.5","1016.2339999999999","9.47","90.2","-2.761","0.0"],
    [1399751,"2026-02-18 06:10:00","37331","1.276","283.1","2.025","288.1","1016.258","9.21","90.5","-2.767","0.0"],
    [1399752,"2026-02-18 06:20:00","37332","1.202","275.7","1.633","281","1016.275","9.59","90.0","-2.761","0.0"],
    [1399753,"2026-02-18 06:30:00","37333","0.9990000000000001","276.9","1.764","276.5","1016.2410000000001","9.66","88.8","-2.148","0.0"],
    [1399754,"2026-02-18 06:40:00","37334","1.4140000000000001","277.7","2.287","277.6","1016.173","9.52","89.2","0.41600000000000004","0.0"],
    [1399755,"2026-02-18 06:50:00","37335","1.392","289.7","2.287","301.2","1016.1339999999999","9.51","88.7","4.041","0.0"],
    [1399756,"2026-02-18 07:00:00","37336","1.501","291.8","3.071","300.2","1016.085","9.33","89.5","13.31","0.0"],
    [1399757,"2026-02-18 07:10:00","37337","0.629","272.8","1.862","295.3","1016.097","9.66","89.1","26.66","0.0"],
    [1399758,"2026-02-18 07:20:00","37338","1.163","283.1","1.633","272.9","1016.1560000000001","9.88","88.4","39.92","0.0"],
    [1399759,"2026-02-18 07:30:00","37339","0.958","284.6","1.666","302.2","1016.061","9.99","88.2","56.08","0.0"],
    [1399760,"2026-02-18 07:40:00","37340","1.245","286.4","2.646","302.1","1016.076","10.37","87.7","72.75","0.0"],
    [1399761,"2026-02-18 07:50:00","37341","2.108","300.5","3.724","295.9","1016.138","10.74","86.8","77.08","0.0"],
    [1399762,"2026-02-18 08:00:00","37342","2.161","298.8","3.267","298.8","1016.2239999999999","10.98","85.2","100.2","0.0"],
    [1399763,"2026-02-18 08:10:00","37343","1.6380000000000001","296.4","2.744","315.7","1016.164","11.18","84.2","125.5","0.0"],
    [1399764,"2026-02-18 08:20:00","37344","1.973","297.4","3.071","300.8","1016.107","11.38","83.1","131.5","0.0"],
    [1399765,"2026-02-18 08:30:00","37345","1.4669999999999999","289.3","2.711","292.8","1016.0189999999999","11.79","81.7","273.7","0.0"],
    [1399766,"2026-02-18 08:40:00","37346","1.75","282.5","2.45","290.1","1015.939","12.1","79.3","242.0","0.0"],
    [1399767,"2026-02-18 08:50:00","37347","1.565","281.6","2.319","283.9","1015.793","12.16","78.69","274.0","0.0"],
    [1399768,"2026-02-18 09:00:00","37348","0.968","255.0","1.829","289.1","1015.7","12.57","77.52","313.1","0.0"],
    [1399769,"2026-02-18 09:10:00","37349","1.235","275.9","1.764","299.5","1015.66","12.9","75.54","360.7","0.0"],
    [1399770,"2026-02-18 09:20:00","37350","1.121","276.5","2.091","275.9","1015.4910000000001","13.18","74.02","411.9","0.0"],
    [1399771,"2026-02-18 09:30:00","37351","0.418","294.8","2.287","273.8","1015.3389999999999","13.99","71.03","427.8","0.0"],
    [1399772,"2026-02-18 09:40:00","37352","1.111","265.3","2.613","265.3","1015.5239999999999","14.26","68.07","398.5","0.0"],
    [1399773,"2026-02-18 09:50:00","37353","1.413","250.4","3.005","216.1","1015.538","14.58","66.79","418.1","0.0"],
    [1399774,"2026-02-18 10:00:00","37354","1.9269999999999998","243.5","3.103","210.2","1015.623","14.56","66.88","388.8","0.0"],
    [1399775,"2026-02-18 10:10:00","37355","1.713","236.5","3.038","238","1015.543","14.75","66.27","427.8","0.0"],
    [1399776,"2026-02-18 10:20:00","37356","1.837","253.1","3.626","276.3","1015.4060000000001","14.76","66.38","446.7","0.0"],
    [1399777,"2026-02-18 10:30:00","37357","1.725","255.3","3.463","263.9","1015.275","14.76","66.95","442.9","0.0"],
    [1399778,"2026-02-18 10:40:00","37358","1.858","235.1","3.561","201.2","1015.148","15.06","66.06","501.6","0.0"],
    [1399779,"2026-02-18 10:50:00","37359","1.953","200.9","4.247","170.8","1015.025","15.31","66.0","549.7","0.0"],
    [1399780,"2026-02-18 11:00:00","37360","2.274","200.9","4.279","182.7","1014.811","15.21","68.4","514.9","0.0"],
    [1399781,"2026-02-18 11:10:00","37361","2.49","205.7","4.41","213.8","1014.803","14.78","70.3","384.1","0.0"],
    [1399782,"2026-02-18 11:20:00","37362","2.568","204.3","4.508","232.4","1014.7610000000001","14.66","71.74","433.0","0.0"],
    [1399783,"2026-02-18 11:30:00","37363","2.8560000000000003","197.5","4.475","219.3","1014.743","14.84","71.12","515.7","0.8"],
    [1399784,"2026-02-18 11:40:00","37364","2.089","193.4","5.031","222.3","1014.58","14.71","72.08","463.9","0.0"],
    [1399785,"2026-02-18 11:50:00","37365","7.9639999999999995","209.5","50.54","191.5","1014.315","14.63","72.66","492.4","0.0"],
    [1399786,"2026-02-18 12:00:00","37366","2.7939999999999996","184.7","4.802","177.4","1014.0830000000001","14.54","73.38","303.5","0.0"],
    [1399787,"2026-02-18 12:10:00","37367","2.6689999999999996","204.1","4.933","227.4","1013.905","14.3","74.6","283.8","0.0"],
    [1399788,"2026-02-18 12:20:00","37368","2.634","209.4","5.455","215.9","1013.68","14.35","75.54","311.4","0.0"],
    [1399789,"2026-02-18 12:30:00","37369","2.488","202.6","4.933","220.2","1013.419","14.37","76.39","376.1","0.0"],
    [1399790,"2026-02-18 12:40:00","37370","2.6069999999999998","204.9","NAN","NAN","1007.873","14.19","77.32","393.9","0.0"],
    [1399791,"2026-02-18 12:50:00","37371","3.76","212.5","6.011","213.9","1012.9060000000001","14.47","76.82","399.2","0.0"],
    [1399792,"2026-02-18 13:00:00","37372","3.807","215.3","6.599","210","1012.63","14.35","77.62","379.0","0.0"],
    [1399793,"2026-02-18 13:10:00","37373","3.889","210.6","6.141","221.5","1012.307","14.1","78.74","392.6","0.0"],
    [1399794,"2026-02-18 13:20:00","37374","2.775","221.2","5.782","236.8","1012.0039999999999","14.17","78.67","306.1","0.0"],
    [1399795,"2026-02-18 13:30:00","37375","3.883","225.8","6.86","228.9","1011.7489999999999","14.67","75.08","583.4","0.0"],
    [1399796,"2026-02-18 13:40:00","37376","3.2319999999999998","215.6","5.586","208.8","1011.617","15.37","71.62","577.6","0.0"],
    [1399797,"2026-02-18 13:50:00","37377","4.0169999999999995","221.2","6.991","209","1011.477","15.52","69.13","557.4","0.0"],
    [1399798,"2026-02-18 14:00:00","37378","5.285","214.6","8.56","217.1","1011.176","15.22","70.7","539.1","0.0"],
    [1399799,"2026-02-18 14:10:00","37379","4.4510000000000005","214.3","7.121","212.8","1010.935","15.7","68.06","520.3","0.0"],
    [1399800,"2026-02-18 14:20:00","37380","4.302","213.8","7.611","219.3","1010.6030000000001","15.87","66.21","501.3","0.0"],
    [1399801,"2026-02-18 14:30:00","37381","3.6180000000000003","198.5","6.566","189.7","1010.2189999999999","15.56","69.1","481.7","0.0"],
    [1399802,"2026-02-18 14:40:00","37382","4.121","207.2","6.305","212.3","1010.1489999999999","15.02","73.55","459.8","0.0"],
    [1399803,"2026-02-18 14:50:00","37383","3.448","201.6","6.174","210.4","1009.909","15.27","72.18","434.9","0.0"],
    [1399804,"2026-02-18 15:00:00","37384","3.2969999999999997","196.1","6.762","181","1009.872","15.11","73.73","409.5","0.0"],
    [1399805,"2026-02-18 15:10:00","37385","3.522","194.2","7.252","167.4","1009.6260000000001","14.94","76.4","383.3","0.0"],
    [1399806,"2026-02-18 15:20:00","37386","3.135","198.7","6.239","224.1","1009.53","14.96","75.66","355.5","0.0"],
    [1399807,"2026-02-18 15:30:00","37387","3.266","196.4","6.109","177.8","1009.425","14.93","75.03","324.6","0.0"],
    [1399808,"2026-02-18 15:40:00","37388","2.864","198.7","5.292","172.6","1009.0110000000001","14.95","73.77","299.0","0.0"],
    [1399809,"2026-02-18 15:50:00","37389","2.352","210.1","5.488","172.8","1008.94","15.05","75.08","268.6","0.0"],
    [1399810,"2026-02-18 16:00:00","37390","2.201","210.5","3.887","220.3","1008.914","15.1","74.18","234.0","0.0"],
    [1399811,"2026-02-18 16:10:00","37391","2.5989999999999998","213.9","5.129","217","1008.8739999999999","15.13","72.12","200.9","0.0"],
    [1399812,"2026-02-18 16:20:00","37392","2.269","211.8","4.214","214.5","1008.8380000000001","15.36","69.61","173.5","0.0"],
    [1399813,"2026-02-18 16:30:00","37393","2.336","213.1","4.508","204.2","1008.7260000000001","15.27","68.38","131.2","0.0"],
    [1399814,"2026-02-18 16:40:00","37394","1.851","208.3","3.201","204.9","1008.533","14.68","72.74","53.49","0.0"],
    [1399815,"2026-02-18 16:50:00","37395","1.618","200.5","3.561","222.6","1008.232","14.47","72.9","40.52","0.0"],
    [1399816,"2026-02-18 17:00:00","37396","2.15","213.1","4.41","232.6","1008.212","14.31","72.41","32.46","0.0"],
    [1399817,"2026-02-18 17:10:00","37397","2.174","190.2","5.684","186.3","1008.049","14.28","72.64","21.57","0.0"],
    [1399818,"2026-02-18 17:20:00","37398","2.39","204.8","4.965","227","1008.038","13.7","78.3","10.66","0.0"],
    [1399819,"2026-02-18 17:30:00","37399","3.32","211.8","6.501","221.6","1007.9689999999999","13.55","79.57","3.639","0.0"],
    [1399820,"2026-02-18 17:40:00","37400","3.44","212.7","6.109","184.1","1007.8430000000001","13.31","80.9","1.3880000000000001","0.0"],
    [1399821,"2026-02-18 17:50:00","37401","2.838","217.4","5.031","225.3","1007.743","13.23","79.82","-1.621","0.0"],
    [1399822,"2026-02-18 18:00:00","37402","3.116","216.2","4.639","230.5","1007.898","13.21","81.4","-2.602","0.0"],
    [1399823,"2026-02-18 18:10:00","37403","3.722","214.6","6.109","221","1007.814","13.16","82.8","-2.7030000000000003","0.0"],
    [1399824,"2026-02-18 18:20:00","37404","3.572","213.4","6.795","210.3","1007.837","13.11","83.4","-2.2230000000000003","0.0"],
    [1399825,"2026-02-18 18:30:00","37405","2.524","216.8","4.475","230.9","1007.926","12.97","84.7","-2.524","0.0"],
    [1399826,"2026-02-18 18:40:00","37406","3.786","218.3","6.076","223.8","1008.041","13.06","84.7","-2.573","0.0"],
    [1399827,"2026-02-18 18:50:00","37407","3.841","218.2","6.141","227","1007.927","13.11","84.5","-2.032","0.0"],
    [1399828,"2026-02-18 19:00:00","37408","3.33","217.7","6.272","225.9","1007.742","13.03","85.0","-2.082","0.0"],
    [1399829,"2026-02-18 19:10:00","37409","3.46","218.5","6.011","219.3","1007.5930000000001","12.95","85.2","-2.364","0.0"],
    [1399830,"2026-02-18 19:20:00","37410","2.457","221.8","5.521","221.3","1007.4810000000001","12.9","85.4","-2.312","0.0"],
    [1399831,"2026-02-18 19:30:00","37411","3.528","223.6","6.043","217","1007.178","12.86","85.7","-2.18","0.0"],
    [1399832,"2026-02-18 19:40:00","37412","3.6069999999999998","224.5","5.227","207.5","1007.013","12.84","85.5","-2.252","0.0"],
    [1399833,"2026-02-18 19:50:00","37413","3.801","226.3","6.762","221.6","1006.816","12.77","86.8","-2.044","0.0"],
    [1399834,"2026-02-18 20:00:00","37414","4.5569999999999995","224.9","6.991","224.9","1006.6160000000001","12.81","87.0","-2.226","0.0"],
    [1399835,"2026-02-18 20:10:00","37415","4.232","226.4","7.644","212.4","1006.497","12.81","86.8","-2.141","0.0"],
    [1399836,"2026-02-18 20:20:00","37416","3.798","226.5","6.958","208.4","1006.347","12.73","87.7","-2.202","0.0"],
    [1399837,"2026-02-18 20:30:00","37417","3.885","221.7","6.043","220.1","1006.1080000000001","12.68","88.4","-2.247","0.0"],
    [1399838,"2026-02-18 20:40:00","37418","3.9210000000000003","225.9","5.488","220.7","1006.238","12.57","90.0","-2.342","0.0"],
    [1399839,"2026-02-18 20:50:00","37419","3.5410000000000004","226.1","5.88","212.2","1006.322","12.57","90.4","-2.53","0.0"],
    [1399840,"2026-02-18 21:00:00","37420","3.509","218.8","5.357","203.9","1006.4010000000001","12.49","90.2","-2.656","0.0"],
    [1399841,"2026-02-18 21:10:00","37421","3.781","218.4","6.337","211.8","1006.316","12.42","90.5","-2.645","0.0"],
    [1399842,"2026-02-18 21:20:00","37422","3.88","214.8","6.043","217.9","1006.12","12.37","90.8","-2.594","0.0"],
    [1399843,"2026-02-18 21:30:00","37423","3.845","216.2","7.154","233.3","1006.19","12.31","90.9","-2.623","0.0"],
    [1399844,"2026-02-18 21:40:00","37424","4.441","224.7","8.2","210.2","1006.138","12.38","90.8","-2.6519999999999997","0.0"],
    [1399845,"2026-02-18 21:50:00","37425","4.761","227.5","8.53","229.1","1006.057","12.45","89.9","-2.713","0.0"],
    [1399846,"2026-02-18 22:00:00","37426","4.569","228.5","7.056","223.1","1006.127","12.5","90.0","-2.668","0.0"],
    [1399847,"2026-02-18 22:10:00","37427","4.909","225.1","7.611","221.4","1006.16","12.54","90.2","-2.2640000000000002","0.0"],
    [1399848,"2026-02-18 22:20:00","37428","4.205","227.9","7.415","217.8","1006.183","12.44","90.8","-2.104","0.0"],
    [1399849,"2026-02-18 22:30:00","37429","3.7910000000000004","227.8","6.435","231.4","1006.316","12.42","90.8","-2.113","0.0"],
    [1399850,"2026-02-18 22:40:00","37430","3.653","229.2","5.651","233.4","1006.422","12.36","90.3","-2.144","0.0"],
    [1399851,"2026-02-18 22:50:00","37431","3.353","230.1","5.651","220.7","1006.3989999999999","12.4","89.8","-2.602","0.0"],
    [1399852,"2026-02-18 23:00:00","37432","3.795","229.6","5.945","236.8","1006.576","12.44","89.1","-2.687","0.0"],
    [1399853,"2026-02-18 23:10:00","37433","3.26","232.8","6.501","224.8","1006.768","12.4","89.0","-2.436","0.0"],
    [1399854,"2026-02-18 23:20:00","37434","3.023","229.9","4.998","225.6","1006.824","12.48","86.9","-2.977","0.0"],
    [1399855,"2026-02-18 23:30:00","37435","3.305","222.0","6.207","225.7","1006.8810000000001","12.84","82.8","-2.963","0.0"],
    [1399856,"2026-02-18 23:40:00","37436","1.796","234.9","3.136","283.1","1006.88","13.1","77.85","-3.05","0.0"],
    [1399857,"2026-02-18 23:50:00","37437","1.9169999999999998","256.7","4.149","254.1","1006.778","13.71","69.44","-4.005","0.0"],
    [1399858,"2026-02-19 00:00:00","37438","2.156","225.4","3.005","289.6","1006.7539999999999","14.44","63.23","-3.509","0.0"],
    [1399859,"2026-02-19 00:10:00","37439","1.527","209.4","3.593","225.3","1006.559","13.6","69.56","-2.759","0.0"],
    [1399860,"2026-02-19 00:20:00","37440","2.238","216.4","3.463","222.1","1006.53","13.5","69.84","-2.801","0.0"],
    [1399861,"2026-02-19 00:30:00","37441","2.22","221.7","3.593","224.2","1006.461","13.15","70.27","-2.885","0.0"],
    [1399862,"2026-02-19 00:40:00","37442","1.9669999999999999","229.6","3.43","242.2","1006.572","14.07","59.64","-2.365","0.0"],
    [1399863,"2026-02-19 00:50:00","37443","1.8980000000000001","229.4","3.299","244.7","1006.845","14.37","56.57","-1.8219999999999998","0.0"],
    [1399864,"2026-02-19 01:00:00","37444","1.561","234.2","2.548","202.2","1006.956","14.4","55.94","-1.796","0.0"],
    [1399865,"2026-02-19 01:10:00","37445","1.5119999999999998","219.0","2.319","206.6","1006.995","14.11","57.65","-1.41","0.0"],
    [1399866,"2026-02-19 01:20:00","37446","2.017","222.2","3.038","232.1","1007.05","13.79","62.59","-1.5630000000000002","0.0"],
    [1399867,"2026-02-19 01:30:00","37447","0.955","198.0","2.45","221.6","1007.0139999999999","13.62","64.08","-2.011","0.0"],
    [1399868,"2026-02-19 01:40:00","37448","1.125","200.7","2.679","233","1007.086","13.81","61.06","-1.929","0.0"],
    [1399869,"2026-02-19 01:50:00","37449","1.624","247.2","3.887","269.8","1007.2189999999999","14.23","55.03","-1.871","0.0"],
    [1399870,"2026-02-19 02:00:00","37450","2.365","284.4","4.573","292.3","1007.061","14.37","53.18","-1.838","0.0"],
    [1399871,"2026-02-19 02:10:00","37451","2.5380000000000003","267.2","5.847","281.4","1006.951","14.57","50.39","-2.0069999999999997","0.0"],
    [1399872,"2026-02-19 02:20:00","37452","4.081","270.7","10","275.4","1006.9580000000001","14.83","47.28","-2.073","0.0"],
    [1399873,"2026-02-19 02:30:00","37453","5.422000000000001","273.2","11.04","274.3","1006.809","14.87","45.03","-2.379","0.0"],
    [1399874,"2026-02-19 02:40:00","37454","4.484","264.6","10.71","288.5","1006.637","14.85","44.13","-2.296","0.0"],
    [1399875,"2026-02-19 02:50:00","37455","4.082","267.4","8.23","253.8","1006.6139999999999","14.52","45.48","-2.6260000000000003","0.0"],
    [1399876,"2026-02-19 03:00:00","37456","4.077","277.0","8.26","283.1","1006.698","14.35","44.9","-2.761","0.0"],
    [1399877,"2026-02-19 03:10:00","37457","2.815","252.7","5.847","275.3","1006.779","14.3","44.0","-2.8489999999999998","0.0"],
    [1399878,"2026-02-19 03:20:00","37458","3.7060000000000004","269.9","7.807","274.9","1006.925","14.12","44.37","-2.7910000000000004","0.0"],
    [1399879,"2026-02-19 03:30:00","37459","3.01","249.7","7.056","285","1007.07","13.92","44.72","-2.8489999999999998","0.0"],
    [1399880,"2026-02-19 03:40:00","37460","2.464","240.2","6.599","225.9","1007.079","13.61","44.9","-3.111","0.0"],
    [1399881,"2026-02-19 03:50:00","37461","2.57","239.4","5.619","226.2","1007.046","13.6","43.33","-3.157","0.0"],
    [1399882,"2026-02-19 04:00:00","37462","3.372","263.6","6.795","241","1006.919","13.65","41.56","-3.295","0.0"],
    [1399883,"2026-02-19 04:10:00","37463","5.678999999999999","291.1","10.91","297.3","1006.928","13.64","41.24","-3.0239999999999996","0.0"],
    [1399884,"2026-02-19 04:20:00","37464","7.064","297.4","10.98","305.7","1007.133","13.58","41.6","-2.775","0.0"],
    [1399885,"2026-02-19 04:30:00","37465","6.7860000000000005","293.3","11.01","292.3","1007.278","13.47","42.09","-2.733","0.0"],
    [1399886,"2026-02-19 04:40:00","37466","6.382999999999999","289.5","11.4","288.9","1007.439","13.21","42.86","-2.657","0.0"],
    [1399887,"2026-02-19 04:50:00","37467","6.513999999999999","284.0","12.35","282","1007.538","13.12","42.97","-2.7460000000000004","0.0"],
    [1399888,"2026-02-19 05:00:00","37468","4.936","277.4","10.03","279.8","1007.581","12.94","43.7","-2.6839999999999997","0.0"],
    [1399889,"2026-02-19 05:10:00","37469","5.975","278.8","10.58","293.3","1007.697","12.85","43.5","-2.762","0.0"],
    [1399890,"2026-02-19 05:20:00","37470","5.5089999999999995","277.3","9.64","254.1","1007.87","12.72","43.87","-2.7319999999999998","0.0"],
    [1399891,"2026-02-19 05:30:00","37471","5.478","276.9","10.26","281.6","1007.9069999999999","12.61","43.78","-2.745","0.0"],
    [1399892,"2026-02-19 05:40:00","37472","5.685","280.3","10.26","289.7","1007.953","12.49","44.16","-2.719","0.0"],
    [1399893,"2026-02-19 05:50:00","37473","4.979","273.6","8.98","254.5","1008.0039999999999","12.35","44.29","-2.735","0.0"],
    [1399894,"2026-02-19 06:00:00","37474","6.119","266.5","13.39","263.4","1007.987","12.54","42.78","-2.682","0.0"],
    [1399895,"2026-02-19 06:10:00","37475","6.067","269.5","12.28","292.5","1008.0160000000001","12.36","43.47","-2.401","0.0"],
    [1399896,"2026-02-19 06:20:00","37476","7.1339999999999995","285.2","11.86","276.1","1008.308","11.91","43.71","-2.123","0.0"],
    [1399897,"2026-02-19 06:30:00","37477","7.396","284.9","13.56","286","1008.312","11.73","42.76","-1.929","0.0"],
    [1399898,"2026-02-19 06:40:00","37478","6.9110000000000005","283.8","12.35","295.9","1008.298","11.57","43.03","0.27399999999999997","0.0"],
    [1399899,"2026-02-19 06:50:00","37479","6.46","282.9","11.86","281.9","1008.347","11.24","45.04","5.126","0.0"],
    [1399900,"2026-02-19 07:00:00","37480","6.422000000000001","291.9","10.98","295.5","1008.5010000000001","11.06","46.36","11.14","0.0"],
    [1399901,"2026-02-19 07:10:00","37481","6.577999999999999","296.0","11.73","310.7","1008.555","10.9","46.96","21.17","0.0"],
    [1399902,"2026-02-19 07:20:00","37482","6.68","288.1","11.66","293.8","1008.505","10.91","46.55","29.75","0.0"],
    [1399903,"2026-02-19 07:30:00","37483","7.61","289.0","11.43","308.9","1008.443","11.04","44.29","42.29","0.0"],
    [1399904,"2026-02-19 07:40:00","37484","7.291","285.9","13.03","291.2","1008.529","11.27","42.71","57.33","0.0"],
    [1399905,"2026-02-19 07:50:00","37485","5.9639999999999995","289.1","10.71","303.3","1008.9169999999999","11.41","42.24","67.29","0.0"],
    [1399906,"2026-02-19 08:00:00","37486","5.574","298.3","11.89","309.3","1009.451","11.26","43.53","74.55","0.0"],
    [1399907,"2026-02-19 08:10:00","37487","6.483","300.7","10.62","311.6","1009.91","11.0","44.98","64.04","0.0"],
    [1399908,"2026-02-19 08:20:00","37488","4.876","296.6","10.13","298.1","1010.179","10.79","46.45","79.79","0.0"],
    [1399909,"2026-02-19 08:30:00","37489","3.5","276.3","7.546","292.6","1010.3580000000001","10.89","46.75","186.2","0.0"],
    [1399910,"2026-02-19 08:40:00","37490","4.821000000000001","283.0","8.89","307.4","1010.623","11.17","46.01","165.1","0.0"],
    [1399911,"2026-02-19 08:50:00","37491","4.887","287.3","9.83","309.5","1010.715","11.05","46.38","87.7","0.0"],
    [1399912,"2026-02-19 09:00:00","37492","4.933","286.7","8.3","271.3","1010.684","11.25","45.72","284.7","0.0"],
    [1399913,"2026-02-19 09:10:00","37493","5.902","286.4","10.78","300","1010.8","12.09","43.46","388.8","0.0"],
    [1399914,"2026-02-19 09:20:00","37494","7.971","298.5","13.69","307.5","1010.915","12.45","42.83","458.0","0.0"],
    [1399915,"2026-02-19 09:30:00","37495","9.02","295.8","14.14","297","1010.9630000000001","12.41","42.59","387.3","0.0"],
    [1399916,"2026-02-19 09:40:00","37496","9.36","301.8","14.57","312.2","1011.033","12.8","41.41","352.3","0.0"],
    [1399917,"2026-02-19 09:50:00","37497","9.15","298.4","13.75","280.9","1011.1410000000001","12.58","41.89","246.4","0.0"],
    [1399918,"2026-02-19 10:00:00","37498","7.269","297.3","11.79","297.8","1011.48","12.54","42.98","261.1","0.0"],
    [1399919,"2026-02-19 10:10:00","37499","6.727","306.3","11.14","310.5","1011.663","12.22","44.42","224.5","0.0"],
    [1399920,"2026-02-19 10:20:00","37500","6.261","291.4","10.98","300.1","1011.659","12.29","44.39","294.6","0.0"],
    [1399921,"2026-02-19 10:30:00","37501","8.61","293.9","13.62","281.3","1012.023","12.07","44.94","321.8","0.0"],
    [1399922,"2026-02-19 10:40:00","37502","8.65","300.3","14.28","314.4","1012.1389999999999","12.05","45.07","259.3","0.0"],
    [1399923,"2026-02-19 10:50:00","37503","7.071000000000001","300.0","11.11","286.6","1012.19","12.22","45.51","239.2","0.0"],
    [1399924,"2026-02-19 11:00:00","37504","6.817","300.4","11.2","318.8","1012.28","12.53","45.05","274.9","0.0"],
    [1399925,"2026-02-19 11:10:00","37505","7.89","303.1","12.22","305.2","1012.22","12.79","44.16","311.7","0.0"],
    [1399926,"2026-02-19 11:20:00","37506","7.652","298.4","12.97","308.4","1012.1510000000001","12.92","43.32","340.5","0.0"],
    [1399927,"2026-02-19 11:30:00","37507","7.6739999999999995","300.0","13.43","300.6","1012.065","13.46","42.98","534.9","0.0"],
    [1399928,"2026-02-19 11:40:00","37508","7.737","297.3","11.86","296.8","1011.9580000000001","14.24","41.84","672.2","0.0"],
    [1399929,"2026-02-19 11:50:00","37509","7.752000000000001","298.7","13.56","317.4","1011.916","14.62","41.0","658.4","0.0"],
    [1399930,"2026-02-19 12:00:00","37510","7.2860000000000005","293.5","12.35","312.6","1011.9780000000001","15.08","39.91","655.8","0.0"],
    [1399931,"2026-02-19 12:10:00","37511","8.21","297.3","12.58","302.5","1012.033","15.22","39.52","664.9","0.0"],
    [1399932,"2026-02-19 12:20:00","37512","7.331","291.4","12.22","311.4","1011.8960000000001","15.26","39.65","656.1","0.0"],
    [1399933,"2026-02-19 12:30:00","37513","7.296","290.5","11.5","307.7","1011.908","15.42","38.75","664.1","0.0"],
    [1399934,"2026-02-19 12:40:00","37514","8.53","288.7","12.64","279.1","1011.928","15.33","38.0","674.4","0.0"],
    [1399935,"2026-02-19 12:50:00","37515","6.447","283.7","11.92","288.1","1011.938","15.61","37.69","663.3","0.0"],
    [1399936,"2026-02-19 13:00:00","37516","7.547000000000001","291.9","13.52","290.9","1012.08","15.75","37.23","647.8","0.0"],
    [1399937,"2026-02-19 13:10:00","37517","6.59","285.2","10.45","300.5","1012.159","15.82","37.12","628.1","0.0"],
    [1399938,"2026-02-19 13:20:00","37518","5.422999999999999","274.1","8.98","268.4","1012.1139999999999","15.89","36.78","612.6","0.0"],
    [1399939,"2026-02-19 13:30:00","37519","5.831","294.0","9.31","281.6","1012.067","16.17","36.94","598.3","0.0"],
    [1399940,"2026-02-19 13:40:00","37520","5.907","294.1","10.09","297.2","1012.028","16.39","36.88","581.2","0.0"],
    [1399941,"2026-02-19 13:50:00","37521","4.544","269.1","9.38","263.6","1012.007","16.56","35.93","566.7","0.0"],
    [1399942,"2026-02-19 14:00:00","37522","5.085","270.2","10.71","265","1012.085","16.43","35.77","551.9","0.0"],
    [1399943,"2026-02-19 14:10:00","37523","5.337999999999999","268.8","9.44","287","1012.0110000000001","16.55","35.29","532.8","0.0"],
    [1399944,"2026-02-19 14:20:00","37524","4.72","276.8","8.33","323.2","1012.007","16.5","35.45","512.6","0.0"],
    [1399945,"2026-02-19 14:30:00","37525","5.407","284.3","10.32","295.8","1012.055","16.74","35.87","489.3","0.0"],
    [1399946,"2026-02-19 14:40:00","37526","5.834","274.4","11.79","302.6","1012.1239999999999","16.49","36.06","465.9","0.0"],
    [1399947,"2026-02-19 14:50:00","37527","5.379","291.2","10.42","282.6","1012.0419999999999","16.63","36.47","440.6","0.0"],
    [1399948,"2026-02-19 15:00:00","37528","4.993","258.8","10.32","285.2","1011.919","16.67","35.85","417.1","0.0"],
    [1399949,"2026-02-19 15:10:00","37529","6.002999999999999","274.5","10.58","293.9","1012.018","16.53","35.87","389.8","0.0"],
    [1399950,"2026-02-19 15:20:00","37530","4.908","263.2","9.73","283.5","1011.9739999999999","16.53","35.69","360.7","0.0"],
    [1399951,"2026-02-19 15:30:00","37531","5.871","271.7","10.71","300.3","1011.9689999999999","16.56","35.56","332.8","0.0"],
    [1399952,"2026-02-19 15:40:00","37532","5.353","273.8","10.55","289.5","1012.0139999999999","16.49","35.49","304.7","0.0"],
    [1399953,"2026-02-19 15:50:00","37533","5.417000000000001","268.5","10.91","269.2","1011.9960000000001","16.42","35.95","275.0","0.0"],
    [1399954,"2026-02-19 16:00:00","37534","6.291","283.7","12.54","296.7","1012.112","15.99","36.74","234.9","0.0"],
    [1399955,"2026-02-19 16:10:00","37535","5.544","285.8","10.29","289.9","1012.3789999999999","15.99","36.75","213.1","0.0"],
    [1399956,"2026-02-19 16:20:00","37536","5.843999999999999","283.3","12.02","293.7","1012.683","15.78","37.01","182.3","0.0"],
    [1399957,"2026-02-19 16:30:00","37537","5.706","275.4","12.09","289.7","1012.779","15.6","37.64","150.9","0.0"],
    [1399958,"2026-02-19 16:40:00","37538","6.356","280.1","10.81","306.2","1012.961","15.27","38.5","121.1","0.0"],
    [1399959,"2026-02-19 16:50:00","37539","6.034","280.4","10.45","285.3","1013.029","15.04","38.87","53.43","0.0"],
    [1399960,"2026-02-19 17:00:00","37540","5.303","287.7","11.4","310.1","1013.1619999999999","14.8","39.65","23.95","0.0"],
    [1399961,"2026-02-19 17:10:00","37541","4.968999999999999","284.2","9.96","287.7","1013.395","14.6","40.18","18.2","0.0"],
    [1399962,"2026-02-19 17:20:00","37542","5.974","279.9","10.29","281.5","1013.613","14.47","40.37","12.18","0.0"],
    [1399963,"2026-02-19 17:30:00","37543","4.128","278.8","8.4","294.3","1013.768","14.24","41.3","5.646","0.0"],
    [1399964,"2026-02-19 17:40:00","37544","5.666","282.5","10.13","282","1013.9889999999999","14.06","41.33","0.703","0.0"],
    [1399965,"2026-02-19 17:50:00","37545","4.902","279.8","8.46","294.4","1014.2669999999999","13.91","41.64","-1.716","0.0"],
    [1399966,"2026-02-19 18:00:00","37546","4.742","280.8","7.84","256.7","1014.3839999999999","13.86","41.55","-2.659","0.0"],
    [1399967,"2026-02-19 18:10:00","37547","5.667999999999999","292.2","9.93","298.7","1014.625","13.65","41.85","-2.739","0.0"],
    [1399968,"2026-02-19 18:20:00","37548","5.652","287.9","9.87","306.5","1014.795","13.71","41.19","-2.747","0.0"],
    [1399969,"2026-02-19 18:30:00","37549","5.617999999999999","286.5","9.7","288.8","1014.887","13.6","41.39","-2.758","0.0"],
    [1399970,"2026-02-19 18:40:00","37550","4.176","285.2","6.827","288.1","1014.98","13.5","41.59","-2.759","0.0"],
    [1399971,"2026-02-19 18:50:00","37551","4.253","281.4","7.481","290.4","1014.949","13.47","41.38","-2.8710000000000004","0.0"],
    [1399972,"2026-02-19 19:00:00","37552","5.252000000000001","278.3","10.78","294.3","1014.933","13.59","40.48","-2.8689999999999998","0.0"],
    [1399973,"2026-02-19 19:10:00","37553","3.639","266.8","8.62","290.6","1014.817","13.6","40.22","-2.764","0.0"],
    [1399974,"2026-02-19 19:20:00","37554","2.4659999999999997","264.7","5.749","252.6","1015.048","13.52","40.16","-2.88","0.0"],
    [1399975,"2026-02-19 19:30:00","37555","2.383","266.9","4.867","254.2","1015.357","13.39","40.07","-3.424","0.0"],
    [1399976,"2026-02-19 19:40:00","37556","3.263","271.2","7.285","263.8","1015.6080000000001","13.44","39.42","-3.153","0.0"],
    [1399977,"2026-02-19 19:50:00","37557","3.134","267.1","8.17","242.2","1015.703","13.42","39.42","-3.053","0.0"],
    [1399978,"2026-02-19 20:00:00","37558","2.861","273.6","5.684","267.6","1016.028","13.28","40.07","-2.9189999999999996","0.0"],
    [1399979,"2026-02-19 20:10:00","37559","2.842","274.2","5.586","270.6","1015.8539999999999","13.1","40.59","-3.025","0.0"],
    [1399980,"2026-02-19 20:20:00","37560","2.2119999999999997","275.1","6.925","280.6","1015.9119999999999","12.6","42.06","-3.302","0.0"],
    [1399981,"2026-02-19 20:30:00","37561","1.1","277.6","3.071","256.7","1015.99","12.79","40.91","-3.4560000000000004","0.0"],
    [1399982,"2026-02-19 20:40:00","37562","2.2159999999999997","267.9","4.9","246.7","1016.24","12.72","41.04","-3.8139999999999996","0.0"],
    [1399983,"2026-02-19 20:50:00","37563","2.1109999999999998","227.2","3.528","254.8","1016.34","12.71","41.05","-3.228","0.0"],
    [1399984,"2026-02-19 21:00:00","37564","1.25","226.8","3.659","261.4","1016.471","12.68","40.92","-3.397","0.0"],
    [1399985,"2026-02-19 21:10:00","37565","1.139","240.6","2.123","245","1016.6","12.36","41.76","-3.55","0.0"],
    [1399986,"2026-02-19 21:20:00","37566","2.3480000000000003","274.0","4.345","274.5","1016.451","12.15","43.11","-3.522","0.0"],
    [1399987,"2026-02-19 21:30:00","37567","3.594","290.8","5.913","293.1","1016.3760000000001","11.71","45.21","-2.905","0.0"],
    [1399988,"2026-02-19 21:40:00","37568","3.9130000000000003","288.2","7.187","289","1016.221","11.47","46.47","-2.8080000000000003","0.0"],
    [1399989,"2026-02-19 21:50:00","37569","3.036","283.5","4.965","279.5","1016.087","11.37","47.03","-2.792","0.0"],
    [1399990,"2026-02-19 22:00:00","37570","1.98","280.3","4.835","300","1016.2360000000001","11.16","47.63","-3.2310000000000003","0.0"],
    [1399991,"2026-02-19 22:10:00","37571","1.382","252.7","2.777","248.1","1016.235","11.14","47.85","-3.42","0.0"],
    [1399992,"2026-02-19 22:20:00","37572","1.199","246.3","3.136","254.5","1016.2589999999999","11.06","47.99","-3.4160000000000004","0.0"],
    [1399993,"2026-02-19 22:30:00","37573","1.103","209.5","2.679","225.6","1016.201","11.0","47.91","-3.4130000000000003","0.0"],
    [1399994,"2026-02-19 22:40:00","37574","1.5019999999999998","229.4","3.593","249","1016.355","10.99","47.57","-3.549","0.0"],
    [1399995,"2026-02-19 22:50:00","37575","2.3","257.3","5.194","277.9","1016.687","11.3","46.28","-3.4419999999999997","0.0"],
    [1399996,"2026-02-19 23:00:00","37576","4.345","288.0","8.2","295.7","1016.676","11.46","45.85","-3.452","0.0"],
    [1399997,"2026-02-19 23:10:00","37577","4.265","289.4","7.971","318.7","1016.53","11.47","46.18","-2.793","0.0"],
    [1399998,"2026-02-19 23:20:00","37578","4.448","293.0","7.709","286.2","1016.422","11.4","46.4","-2.802","0.0"],
    [1399999,"2026-02-19 23:30:00","37579","3.403","276.3","6.305","277.6","1016.6669999999999","11.46","46.07","-2.806","0.0"],
    [1400000,"2026-02-19 23:40:00","37580","2.449","266.0","4.737","241.9","1016.8580000000001","11.37","46.3","-2.826","0.0"],
    [1400001,"2026-02-19 23:50:00","37581","4.475","278.1","8.1","291.3","1016.7539999999999","11.36","46.22","-2.9389999999999996","0.0"],
    [1400002,"2026-02-20 00:00:00","37582","5.311","283.3","8.72","289.5","1016.678","11.23","46.91","-2.761","0.0"],
    [1400003,"2026-02-20 00:10:00","37583","5.996","292.0","11.43","309.6","1016.693","11.23","46.86","-2.7539999999999996","0.0"],
    [1400004,"2026-02-20 00:20:00","37584","6.395","294.6","11.79","307.5","1016.779","11.25","46.78","-2.759","0.0"],
    [1400005,"2026-02-20 00:30:00","37585","7.221","297.8","11.79","307.5","1016.8510000000001","11.29","46.78","-2.739","0.0"],
    [1400006,"2026-02-20 00:40:00","37586","6.399","300.9","10.39","300.5","1016.835","11.2","47.31","-2.6860000000000004","0.0"],
    [1400007,"2026-02-20 00:50:00","37587","6.926","305.6","10.62","313.1","1016.825","11.14","47.67","-2.685","0.0"],
    [1400008,"2026-02-20 01:00:00","37588","7.727","303.8","11.66","297.4","1016.888","11.16","47.72","-2.591","0.0"],
    [1400009,"2026-02-20 01:10:00","37589","7.114","305.6","10.45","324.8","1017.012","11.01","48.41","-2.5639999999999996","0.0"],
    [1400010,"2026-02-20 01:20:00","37590","7.829","310.7","11.79","323","1017.2560000000001","11.16","47.85","-2.713","0.0"],
    [1400011,"2026-02-20 01:30:00","37591","8.33","308.4","11.92","313.3","1017.37","11.19","47.78","-2.454","0.0"],
    [1400012,"2026-02-20 01:40:00","37592","8.76","311.0","12.9","310.9","1017.4789999999999","11.1","48.12","-2.3930000000000002","0.0"],
    [1400013,"2026-02-20 01:50:00","37593","8.59","310.5","12.54","327.9","1017.7139999999999","11.1","48.19","-2.253","0.0"],
    [1400014,"2026-02-20 02:00:00","37594","8.72","309.8","13.85","301.5","1017.841","11.03","48.62","-2.142","0.0"],
    [1400015,"2026-02-20 02:10:00","37595","8.26","313.0","13.26","300.2","1017.965","10.9","49.45","-2.117","0.0"],
    [1400016,"2026-02-20 02:20:00","37596","7.632999999999999","306.5","12.05","292","1018.034","10.79","50.01","-2.151","0.0"],
    [1400017,"2026-02-20 02:30:00","37597","7.781000000000001","305.6","12.15","310.9","1017.966","10.65","50.74","-2.302","0.0"],
    [1400018,"2026-02-20 02:40:00","37598","8.57","310.6","14.5","315.4","1018.038","10.64","51.1","-2.186","0.0"],
    [1400019,"2026-02-20 02:50:00","37599","7.931","311.5","11.73","303.7","1018.063","10.56","51.72","-2.076","0.0"],
    [1400020,"2026-02-20 03:00:00","37600","8.02","309.6","12.35","294","1018.1569999999999","10.53","52.05","-2.102","0.0"],
    [1400021,"2026-02-20 03:10:00","37601","8.0","311.1","11.34","314","1018.145","10.54","52.08","-2.146","0.0"],
    [1400022,"2026-02-20 03:20:00","37602","6.7170000000000005","312.7","11.83","291.8","1018.071","10.46","52.48","-2.1590000000000003","0.0"],
    [1400023,"2026-02-20 03:30:00","37603","7.233","312.6","12.35","314.3","1018.1089999999999","10.56","51.98","-2.396","0.0"],
    [1400024,"2026-02-20 03:40:00","37604","7.347","312.9","11.34","298.5","1018.148","10.56","51.96","-2.274","0.0"],
    [1400025,"2026-02-20 03:50:00","37605","7.015","314.3","10.65","309","1018.206","10.51","52.08","-2.3609999999999998","0.0"],
    [1400026,"2026-02-20 04:00:00","37606","6.832000000000001","317.6","11.43","302.3","1018.285","10.41","52.62","-2.309","0.0"],
    [1400027,"2026-02-20 04:10:00","37607","5.797000000000001","318.9","9.9","306.5","1018.291","10.26","53.27","-2.591","0.0"],
    [1400028,"2026-02-20 04:20:00","37608","6.314","314.1","9.24","328.6","1018.388","10.24","53.4","-2.742","0.0"],
    [1400029,"2026-02-20 04:30:00","37609","5.882999999999999","314.6","9.34","315.1","1018.44","10.1","54.34","-2.5380000000000003","0.0"],
    [1400030,"2026-02-20 04:40:00","37610","6.9910000000000005","316.3","11.01","304","1018.3939999999999","10.01","54.81","-2.496","0.0"],
    [1400031,"2026-02-20 04:50:00","37611","6.792000000000001","314.5","11.24","311.9","1018.346","9.99","54.96","-2.299","0.0"],
    [1400032,"2026-02-20 05:00:00","37612","6.73","310.5","10.62","316.5","1018.495","9.96","55.06","-2.364","0.0"],
    [1400033,"2026-02-20 05:10:00","37613","6.0120000000000005","307.3","10.19","303.8","1018.8330000000001","9.91","55.58","-2.2769999999999997","0.0"],
    [1400034,"2026-02-20 05:20:00","37614","7.145","310.3","11.01","314","1018.966","9.99","55.56","-2.181","0.0"],
    [1400035,"2026-02-20 05:30:00","37615","8.16","310.7","12.71","306.7","1019.041","10.11","54.93","-2.023","0.0"],
    [1400036,"2026-02-20 05:40:00","37616","7.439","313.5","11.24","311.4","1019.155","10.09","55.19","-1.725","0.0"],
    [1400037,"2026-02-20 05:50:00","37617","6.654","314.6","10.62","315.2","1019.23","10.01","55.64","-1.445","0.0"],
    [1400038,"2026-02-20 06:00:00","37618","5.6610000000000005","318.7","9.11","328.5","1019.39","9.87","56.21","-1.7069999999999999","0.0"],
    [1400039,"2026-02-20 06:10:00","37619","4.87","323.0","8.3","311.3","1019.54","9.71","57.05","-1.8719999999999999","0.0"],
    [1400040,"2026-02-20 06:20:00","37620","5.374","328.0","8.89","326.8","1019.748","9.69","57.13","-1.7730000000000001","0.0"],
    [1400041,"2026-02-20 06:30:00","37621","5.111000000000001","328.1","8.82","324.1","1020.168","9.7","56.75","-0.6679999999999999","0.0"],
    [1400042,"2026-02-20 06:40:00","37622","4.357","329.8","6.86","334.4","1020.314","9.86","55.31","4.166","0.0"],
    [1400043,"2026-02-20 06:50:00","37623","3.248","332.8","5.586","344.9","1020.556","10.05","53.91","9.28","0.0"],
    [1400044,"2026-02-20 07:00:00","37624","4.585","325.2","7.579","331.7","1020.847","10.23","53.12","17.55","0.0"],
    [1400045,"2026-02-20 07:10:00","37625","4.909","315.0","7.579","306.1","1020.938","10.05","54.6","29.79","0.0"],
    [1400046,"2026-02-20 07:20:00","37626","5.365","308.3","7.611","300.4","1021.317","9.95","55.34","44.74","0.0"],
    [1400047,"2026-02-20 07:30:00","37627","5.05","314.8","8.75","310.2","1021.6110000000001","10.09","54.91","70.96","0.0"],
    [1400048,"2026-02-20 07:40:00","37628","6.34","313.9","9.21","308","1021.7080000000001","10.21","54.05","89.3","0.0"],
    [1400049,"2026-02-20 07:50:00","37629","4.981","310.5","7.187","303.8","1022.008","10.4","53.33","113.4","0.0"],
    [1400050,"2026-02-20 08:00:00","37630","4.118","304.4","7.219","296.2","1022.297","10.56","52.65","122.5","0.0"],
    [1400051,"2026-02-20 08:10:00","37631","3.9019999999999997","309.4","6.305","310.2","1022.217","10.52","52.78","117.9","0.0"],
    [1400052,"2026-02-20 08:20:00","37632","3.11","299.0","4.508","287.4","1022.37","10.59","52.46","132.7","0.0"],
    [1400053,"2026-02-20 08:30:00","37633","3.693","295.1","5.651","299.6","1022.692","10.87","51.61","198.9","0.0"],
    [1400054,"2026-02-20 08:40:00","37634","4.078","299.4","6.795","315.9","1022.953","11.06","51.28","263.0","0.0"],
    [1400055,"2026-02-20 08:50:00","37635","4.709","306.2","8.1","295.4","1023.1260000000001","11.52","50.57","397.8","0.0"],
    [1400056,"2026-02-20 09:00:00","37636","5.85","315.2","8.69","321.9","1023.2130000000001","11.65","49.89","460.2","0.0"],
    [1400057,"2026-02-20 09:10:00","37637","5.2170000000000005","325.6","8.04","333.3","1023.1569999999999","12.06","49.36","402.9","0.0"],
    [1400058,"2026-02-20 09:20:00","37638","5.1739999999999995","319.7","8.2","297.9","1023.232","12.0","49.43","310.0","0.0"],
    [1400059,"2026-02-20 09:30:00","37639","5.178","314.7","8","313.8","1023.4639999999999","11.91","49.95","357.2","0.0"],
    [1400060,"2026-02-20 09:40:00","37640","4.55","317.2","7.219","308","1023.425","12.16","49.75","444.7","0.0"],
    [1400061,"2026-02-20 09:50:00","37641","5.121","314.1","7.709","316.4","1023.4739999999999","12.56","48.97","472.4","0.0"],
    [1400062,"2026-02-20 10:00:00","37642","5.031000000000001","315.8","7.873","336.7","1023.6419999999999","12.73","48.32","523.3","0.0"],
    [1400063,"2026-02-20 10:10:00","37643","5.102","311.6","6.925","310.4","1023.925","12.94","47.44","555.8","0.0"],
    [1400064,"2026-02-20 10:20:00","37644","4.879","319.7","6.893","325.8","1023.8919999999999","13.3","46.69","585.9","0.0"],
    [1400065,"2026-02-20 10:30:00","37645","4.867","320.8","6.991","315.3","1024.08","13.62","45.68","592.2","0.0"],
    [1400066,"2026-02-20 10:40:00","37646","4.966","315.0","7.023","303.8","1024.171","13.87","46.0","623.1","0.0"],
    [1400067,"2026-02-20 10:50:00","37647","5.06","305.5","8.1","274.4","1024.3","14.34","44.99","640.0","0.0"],
    [1400068,"2026-02-20 11:00:00","37648","5.733","302.1","8.17","302.9","1024.241","14.48","44.61","678.8","0.0"],
    [1400069,"2026-02-20 11:10:00","37649","5.181","316.1","7.481","309.3","1024.2160000000001","14.79","43.66","669.2","0.0"],
    [1400070,"2026-02-20 11:20:00","37650","4.321000000000001","322.5","7.023","325.9","1024.099","15.1","42.72","545.2","0.0"],
    [1400071,"2026-02-20 11:30:00","37651","3.707","312.1","6.272","317.1","1024.0339999999999","15.17","42.72","568.9","0.0"],
    [1400072,"2026-02-20 11:40:00","37652","4.141","340.9","6.533","344.8","1023.807","15.97","38.84","738.1","0.0"],
    [1400073,"2026-02-20 11:50:00","37653","3.988","334.4","6.174","347.3","1023.6469999999999","16.08","39.3","625.6","0.0"],
    [1400074,"2026-02-20 12:00:00","37654","2.8310000000000004","333.0","5.161","24.56","1023.498","16.52","39.5","588.0","0.0"],
    [1400075,"2026-02-20 12:10:00","37655","3.082","352.3","6.141","16.62","1023.4630000000001","16.74","37.99","637.6","0.0"],
    [1400076,"2026-02-20 12:20:00","37656","4.795","301.1","6.795","308.5","1023.444","16.91","39.88","657.5","0.0"],
    [1400077,"2026-02-20 12:30:00","37657","4.631","308.6","7.154","319.6","1023.4960000000001","16.43","41.17","530.7","0.0"],
    [1400078,"2026-02-20 12:40:00","37658","4.333","303.4","6.893","308.4","1023.45","16.33","41.59","437.4","0.0"],
    [1400079,"2026-02-20 12:50:00","37659","3.733","309.3","5.521","290.6","1023.39","16.35","41.85","483.0","0.0"],
    [1400080,"2026-02-20 13:00:00","37660","4.0","315.7","6.109","307.2","1023.461","16.39","41.79","490.4","0.0"],
    [1400081,"2026-02-20 13:10:00","37661","3.9610000000000003","306.7","5.749","297.7","1023.446","16.36","42.21","460.7","0.0"],
    [1400082,"2026-02-20 13:20:00","37662","3.398","323.1","6.207","337.8","1023.485","16.2","43.84","379.1","0.0"],
    [1400083,"2026-02-20 13:30:00","37663","3.3369999999999997","323.7","7.383","321.2","1023.415","16.53","42.96","381.6","0.0"],
    [1400084,"2026-02-20 13:40:00","37664","4.342","301.3","6.729","293.6","1023.427","16.27","42.04","376.0","0.0"],
    [1400085,"2026-02-20 13:50:00","37665","4.992","305.9","6.958","286.8","1023.5039999999999","16.08","42.06","297.6","0.0"],
    [1400086,"2026-02-20 14:00:00","37666","4.005","302.1","6.337","310.6","1023.346","16.16","42.03","309.6","0.0"],
    [1400087,"2026-02-20 14:10:00","37667","4.604","307.0","6.305","304.1","1023.288","16.13","42.09","282.4","0.0"],
    [1400088,"2026-02-20 14:20:00","37668","3.991","305.3","6.795","302.2","1023.283","16.22","41.53","250.4","0.0"],
    [1400089,"2026-02-20 14:30:00","37669","3.8139999999999996","308.9","6.566","301.1","1023.183","16.17","41.97","203.3","0.0"],
    [1400090,"2026-02-20 14:40:00","37670","3.734","311.8","6.239","323.4","1023.0880000000001","16.17","42.12","205.1","0.0"],
    [1400091,"2026-02-20 14:50:00","37671","2.906","307.1","4.149","302.5","1023.018","16.26","41.91","193.1","0.0"],
    [1400092,"2026-02-20 15:00:00","37672","3.502","334.7","5.259","323.4","1022.936","16.17","41.4","160.9","0.0"],
    [1400093,"2026-02-20 15:10:00","37673","3.0380000000000003","330.7","4.475","336.8","1022.8760000000001","16.15","41.6","184.4","0.0"],
    [1400094,"2026-02-20 15:20:00","37674","2.016","309.0","3.495","329.4","1022.873","16.45","40.96","206.8","0.0"],
    [1400095,"2026-02-20 15:30:00","37675","1.756","248.6","3.757","215.7","1022.836","16.23","46.11","185.9","0.0"],
    [1400096,"2026-02-20 15:40:00","37676","1.925","203.8","3.136","227","1022.9119999999999","15.61","51.61","148.2","0.0"],
    [1400097,"2026-02-20 15:50:00","37677","2.115","200.3","3.299","215.9","1022.941","15.57","52.72","112.1","0.0"],
    [1400098,"2026-02-20 16:00:00","37678","1.829","189.7","3.724","201.6","1023.034","14.99","60.49","142.1","0.0"],
    [1400099,"2026-02-20 16:10:00","37679","2.141","188.7","3.43","186.5","1023.22","15.06","57.65","248.6","0.0"],
    [1400100,"2026-02-20 16:20:00","37680","1.839","182.5","3.757","181.7","1023.3389999999999","15.1","53.11","211.2","0.0"],
    [1400101,"2026-02-20 16:30:00","37681","2.146","192.6","3.463","175.5","1023.3489999999999","15.33","51.4","196.6","0.0"],
    [1400102,"2026-02-20 16:40:00","37682","1.79","194.1","3.43","164.9","1023.4680000000001","15.14","51.45","137.3","0.0"],
    [1400103,"2026-02-20 16:50:00","37683","1.74","205.4","5.063","225.3","1023.4580000000001","14.9","54.6","92.3","0.0"],
    [1400104,"2026-02-20 17:00:00","37684","1.7269999999999999","199.2","3.071","219.9","1023.497","14.56","56.14","57.94","0.0"],
    [1400105,"2026-02-20 17:10:00","37685","1.995","188.2","3.757","180.3","1023.676","14.33","58.27","30.7","0.0"],
    [1400106,"2026-02-20 17:20:00","37686","1.9080000000000001","180.1","3.005","182.4","1023.785","14.14","59.65","17.52","0.0"],
    [1400107,"2026-02-20 17:30:00","37687","1.692","175.9","3.691","175.7","1023.932","14.08","59.74","11.42","0.0"],
    [1400108,"2026-02-20 17:40:00","37688","1.4469999999999998","180.6","2.581","168.7","1024.137","13.82","66.02","3.912","0.0"],
    [1400109,"2026-02-20 17:50:00","37689","0.233","194.1","1.699","241.5","1024.348","13.42","69.48","-1.726","0.0"],
    [1400110,"2026-02-20 18:00:00","37690","0.474","289.5","1.339","304.1","1024.612","13.26","65.87","-3.013","0.0"],
    [1400111,"2026-02-20 18:10:00","37691","0.017","295.3","0.392","295.3","1024.83","12.83","68.64","-3.488","0.0"],
    [1400112,"2026-02-20 18:20:00","37692","0.0","0.0","0","0","1024.978","12.67","68.97","-3.4960000000000004","0.0"],
    [1400113,"2026-02-20 18:30:00","37693","1.03","67.5","2.287","80.4","1025.103","12.61","67.41","-3.4339999999999997","0.0"],
    [1400114,"2026-02-20 18:40:00","37694","1.611","70.19","2.613","74.42","1025.404","12.53","70.48","-3.0180000000000002","0.0"],
    [1400115,"2026-02-20 18:50:00","37695","1.808","63.0","2.515","62.3","1025.61","12.53","75.99","-3.3160000000000003","0.0"],
    [1400116,"2026-02-20 19:00:00","37696","1.3219999999999998","57.08","1.829","69.22","1025.7069999999999","12.49","76.5","-2.821","0.0"],
    [1400117,"2026-02-20 19:10:00","37697","1.6130000000000002","60.76","2.417","82.9","1025.661","12.36","76.45","-3.2239999999999998","0.0"],
    [1400118,"2026-02-20 19:20:00","37698","1.3969999999999998","51.96","1.764","45.37","1025.688","12.28","77.13","-2.8510000000000004","0.0"],
    [1400119,"2026-02-20 19:30:00","37699","1.639","63.8","3.332","93.8","1025.583","12.14","77.43","-3.44","0.0"],
    [1400120,"2026-02-20 19:40:00","37700","2.036","82.9","3.92","122","1025.517","12.82","77.2","-3.1210000000000004","0.0"],
    [1400121,"2026-02-20 19:50:00","37701","1.7209999999999999","78.02","2.973","78.06","1025.604","12.51","79.13","-2.9130000000000003","0.0"],
    [1400122,"2026-02-20 20:00:00","37702","1.209","33.09","2.254","72.98","1025.796","12.39","77.51","-2.897","0.0"],
    [1400123,"2026-02-20 20:10:00","37703","0.7509999999999999","9.25","1.209","27.59","1025.9089999999999","11.66","81.3","-3.49","0.0"],
    [1400124,"2026-02-20 20:20:00","37704","0.82","47.39","1.372","27.62","1025.8110000000001","11.33","82.7","-3.446","0.0"],
    [1400125,"2026-02-20 20:30:00","37705","0.16899999999999998","44.57","0.653","34.45","1025.724","11.26","81.6","-3.0069999999999997","0.0"],
    [1400126,"2026-02-20 20:40:00","37706","0.569","29.82","1.045","27.79","1025.7","10.76","81.4","-3.1180000000000003","0.0"],
    [1400127,"2026-02-20 20:50:00","37707","1.117","21.49","1.797","19.27","1025.894","10.59","82.1","-3.235","0.0"],
    [1400128,"2026-02-20 21:00:00","37708","1.182","4.1530000000000005","1.797","15.46","1026.109","10.93","79.77","-2.762","0.0"],
    [1400129,"2026-02-20 21:10:00","37709","0.428","353.7","0.98","0.581","1026.2","10.87","80.3","-2.787","0.0"],
    [1400130,"2026-02-20 21:20:00","37710","0.726","282.4","1.895","273.3","1026.257","10.72","79.64","-2.7689999999999997","0.0"],
    [1400131,"2026-02-20 21:30:00","37711","0.9179999999999999","271.6","2.091","273.9","1026.36","10.64","80.1","-2.841","0.0"],
    [1400132,"2026-02-20 21:40:00","37712","0.505","261.3","1.209","252.3","1026.4589999999998","10.93","77.49","-2.767","0.0"],
    [1400133,"2026-02-20 21:50:00","37713","0.9590000000000001","245.2","1.601","239.6","1026.297","10.89","75.25","-2.763","0.0"],
    [1400134,"2026-02-20 22:00:00","37714","0.19699999999999998","283.2","0.719","283.3","1026.5510000000002","10.28","76.41","-2.8339999999999996","0.0"],
    [1400135,"2026-02-20 22:10:00","37715","1.369","11.06","2.385","29.88","1026.556","10.01","78.32","-3.198","0.0"],
    [1400136,"2026-02-20 22:20:00","37716","0.6890000000000001","13.45","1.47","11.88","1026.569","10.13","77.14","-2.761","0.0"],
    [1400137,"2026-02-20 22:30:00","37717","0.214","15.85","0.882","17.97","1026.567","9.92","78.42","-2.8339999999999996","0.0"],
    [1400138,"2026-02-20 22:40:00","37718","0.8290000000000001","225.4","1.47","207.6","1026.776","10.43","75.62","-2.802","0.0"],
    [1400139,"2026-02-20 22:50:00","37719","0.289","340.2","2.254","23.59","1026.903","10.11","76.09","-2.813","0.0"],
    [1400140,"2026-02-20 23:00:00","37720","0.846","334.1","2.025","346.4","1026.928","9.83","77.16","-2.877","0.0"],
    [1400141,"2026-02-20 23:10:00","37721","1.345","194.7","2.45","188","1026.978","10.42","73.94","-2.833","0.0"],
    [1400142,"2026-02-20 23:20:00","37722","0.8490000000000001","247.3","1.895","281.3","1027.079","10.52","72.51","-2.82","0.0"],
    [1400143,"2026-02-20 23:30:00","37723","1.3030000000000002","260.1","2.94","279.7","1027.0910000000001","10.6","70.36","-3.054","0.0"],
    [1400144,"2026-02-20 23:40:00","37724","2.388","282.0","5.39","312.7","1027.035","11.4","64.53","-3.1310000000000002","0.0"],
    [1400145,"2026-02-20 23:50:00","37725","3.695","318.6","5.488","338.7","1027.049","11.77","61.95","-3.17","0.0"],
    [1400146,"2026-02-21 00:00:00","37726","3.3280000000000003","327.0","4.965","323.9","1027.19","11.94","60.88","-2.8339999999999996","0.0"],
    [1400147,"2026-02-21 00:10:00","37727","3.465","323.9","5.651","321.9","1027.347","11.87","60.57","-2.806","0.0"],
    [1400148,"2026-02-21 00:20:00","37728","3.8360000000000003","324.6","5.847","332.7","1027.368","11.73","60.62","-2.761","0.0"],
    [1400149,"2026-02-21 00:30:00","37729","4.65","325.3","7.448","319.5","1027.235","11.71","60.22","-2.764","0.0"],
    [1400150,"2026-02-21 00:40:00","37730","5.183","318.3","7.383","325","1027.1589999999999","11.71","59.87","-2.761","0.0"],
    [1400151,"2026-02-21 00:50:00","37731","3.873","317.2","6.958","301.8","1027.177","11.71","59.65","-2.7510000000000003","0.0"],
    [1400152,"2026-02-21 01:00:00","37732","3.361","329.8","5.521","341","1027.3519999999999","11.68","59.49","-2.763","0.0"],
    [1400153,"2026-02-21 01:10:00","37733","3.7769999999999997","326.8","6.043","346","1027.388","11.59","59.54","-2.766","0.0"],
    [1400154,"2026-02-21 01:20:00","37734","4.5169999999999995","318.1","7.285","321.4","1027.347","11.38","60.09","-2.759","0.0"],
    [1400155,"2026-02-21 01:30:00","37735","5.587999999999999","317.0","8.53","313.5","1027.435","11.41","59.69","-2.73","0.0"],
    [1400156,"2026-02-21 01:40:00","37736","4.387","324.5","6.991","317.9","1027.479","11.34","59.87","-2.673","0.0"],
    [1400157,"2026-02-21 01:50:00","37737","3.82","321.5","6.37","322.7","1027.539","11.14","60.53","-2.7539999999999996","0.0"],
    [1400158,"2026-02-21 02:00:00","37738","4.314","319.9","7.121","315.4","1027.48","11.1","60.47","-2.761","0.0"],
    [1400159,"2026-02-21 02:10:00","37739","4.254","309.3","7.219","314.1","1027.5739999999998","10.98","60.73","-2.76","0.0"],
    [1400160,"2026-02-21 02:20:00","37740","4.346","301.9","6.599","311.4","1027.632","10.86","60.97","-2.717","0.0"],
    [1400161,"2026-02-21 02:30:00","37741","4.801","306.3","6.893","325.5","1027.6989999999998","10.59","62.19","-2.728","0.0"],
    [1400162,"2026-02-21 02:40:00","37742","5.274","313.6","7.709","318.9","1027.69","10.57","62.98","-2.636","0.0"],
    [1400163,"2026-02-21 02:50:00","37743","3.73","312.9","5.586","305.5","1027.809","10.44","63.78","-2.718","0.0"],
    [1400164,"2026-02-21 03:00:00","37744","4.172","307.2","6.272","306.9","1027.903","10.17","64.79","-2.736","0.0"],
    [1400165,"2026-02-21 03:10:00","37745","3.2910000000000004","305.6","4.867","308.8","1027.9589999999998","9.94","65.47","-2.742","0.0"],
    [1400166,"2026-02-21 03:20:00","37746","2.906","300.6","4.965","294.9","1027.9089999999999","9.92","65.33","-2.762","0.0"],
    [1400167,"2026-02-21 03:30:00","37747","2.127","296.9","3.528","298.5","1027.947","9.6","66.67","-2.763","0.0"],
    [1400168,"2026-02-21 03:40:00","37748","2.7089999999999996","311.5","4.345","306.5","1028.048","9.55","67.06","-3.037","0.0"],
    [1400169,"2026-02-21 03:50:00","37749","3.037","320.0","5.357","320.8","1028.098","9.9","65.26","-2.8089999999999997","0.0"],
    [1400170,"2026-02-21 04:00:00","37750","3.093","315.8","4.998","313.7","1028.1760000000002","10.0","64.62","-2.773","0.0"],
    [1400171,"2026-02-21 04:10:00","37751","2.722","323.3","4.443","315.8","1028.172","9.94","64.8","-2.762","0.0"],
    [1400172,"2026-02-21 04:20:00","37752","2.977","324.7","4.802","335.6","1028.185","9.89","64.76","-2.7710000000000004","0.0"],
    [1400173,"2026-02-21 04:30:00","37753","3.187","320.5","5.39","313.9","1028.282","9.85","64.78","-2.761","0.0"],
    [1400174,"2026-02-21 04:40:00","37754","3.44","327.0","5.717","321.1","1028.395","9.84","64.57","-2.764","0.0"],
    [1400175,"2026-02-21 04:50:00","37755","2.8080000000000003","324.1","4.639","334.5","1028.472","9.92","64.03","-2.762","0.0"],
    [1400176,"2026-02-21 05:00:00","37756","3.096","309.5","4.998","311.2","1028.4460000000001","9.78","64.54","-2.765","0.0"],
    [1400177,"2026-02-21 05:10:00","37757","2.468","277.7","3.855","273.8","1028.504","9.36","66.58","-2.765","0.0"],
    [1400178,"2026-02-21 05:20:00","37758","2.289","279.3","4.279","274.6","1028.53","8.89","68.81","-2.7510000000000003","0.0"],
    [1400179,"2026-02-21 05:30:00","37759","2.1719999999999997","288.9","4.083","292.8","1028.558","8.26","71.64","-2.767","0.0"],
    [1400180,"2026-02-21 05:40:00","37760","2.958","319.3","4.573","316.4","1028.5910000000001","8.64","70.45","-2.983","0.0"],
    [1400181,"2026-02-21 05:50:00","37761","3.536","318.5","5.194","310.2","1028.663","9.15","67.5","-2.8739999999999997","0.0"],
    [1400182,"2026-02-21 06:00:00","37762","3.865","311.6","6.501","313.1","1028.704","9.46","65.68","-2.9419999999999997","0.0"],
    [1400183,"2026-02-21 06:10:00","37763","3.9789999999999996","312.6","6.207","321.1","1028.877","9.49","65.39","-2.7680000000000002","0.0"],
    [1400184,"2026-02-21 06:20:00","37764","3.867","311.0","6.893","315.8","1029.098","9.3","66.26","-2.7110000000000003","0.0"],
    [1400185,"2026-02-21 06:30:00","37765","3.384","319.5","5.063","334.5","1029.232","9.33","66.1","-1.824","0.0"],
    [1400186,"2026-02-21 06:40:00","37766","3.1519999999999997","320.3","5.194","328.5","1029.433","9.34","65.9","0.301","0.0"],
    [1400187,"2026-02-21 06:50:00","37767","3.408","308.9","4.9","321.3","1029.438","9.03","67.39","4.122","0.0"],
    [1400188,"2026-02-21 07:00:00","37768","2.955","307.0","4.835","306.9","1029.474","8.9","67.74","10.02","0.0"],
    [1400189,"2026-02-21 07:10:00","37769","4.125","305.8","6.435","305.9","1029.657","9.02","67.16","18.16","0.0"],
    [1400190,"2026-02-21 07:20:00","37770","4.5889999999999995","306.7","8","296.5","1029.855","9.02","67.27","24.2","0.0"],
    [1400191,"2026-02-21 07:30:00","37771","4.325","310.9","6.827","311.4","1029.9660000000001","8.92","68.01","29.37","0.0"],
    [1400192,"2026-02-21 07:40:00","37772","4.203","308.7","6.631","300.9","1030.122","8.97","67.9","34.25","0.0"],
    [1400193,"2026-02-21 07:50:00","37773","4.49","307.8","6.533","305.3","1030.212","9.06","67.42","71.28","0.0"],
    [1400194,"2026-02-21 08:00:00","37774","4.756","313.2","6.762","324.5","1030.282","9.46","66.0","178.6","0.0"],
    [1400195,"2026-02-21 08:10:00","37775","4.377","306.5","6.501","317.3","1030.381","9.98","63.76","211.6","0.0"],
    [1400196,"2026-02-21 08:20:00","37776","4.482","315.3","7.481","325.8","1030.412","10.34","62.15","244.4","0.0"],
    [1400197,"2026-02-21 08:30:00","37777","4.939","314.3","7.35","312.2","1030.365","10.54","61.25","277.6","0.0"],
    [1400198,"2026-02-21 08:40:00","37778","4.904","313.4","7.84","304.4","1030.469","10.87","60.06","309.5","0.0"],
    [1400199,"2026-02-21 08:50:00","37779","5.51","313.5","8.23","304.7","1030.5839999999998","11.02","59.28","340.1","0.0"],
    [1400200,"2026-02-21 09:00:00","37780","6.025","314.9","9.21","330.9","1030.683","11.24","58.46","369.3","0.0"],
    [1400201,"2026-02-21 09:10:00","37781","5.587999999999999","315.0","9.05","313.9","1030.809","11.21","58.84","397.9","0.0"],
    [1400202,"2026-02-21 09:20:00","37782","5.375","313.4","8.66","321.5","1030.883","11.65","57.54","425.2","0.0"],
    [1400203,"2026-02-21 09:30:00","37783","5.477","309.5","7.775","303.7","1030.8419999999999","11.95","56.71","452.1","0.0"],
    [1400204,"2026-02-21 09:40:00","37784","4.815","313.0","6.991","316.2","1030.849","12.31","55.49","475.6","0.0"],
    [1400205,"2026-02-21 09:50:00","37785","4.237","316.9","6.631","299","1030.993","12.76","54.16","499.6","0.0"],
    [1400206,"2026-02-21 10:00:00","37786","4.171","306.5","5.913","314.2","1030.9569999999999","13.07","53.05","521.8","0.0"],
    [1400207,"2026-02-21 10:10:00","37787","3.8760000000000003","319.2","6.043","320.8","1030.93","13.37","52.17","538.7","0.0"],
    [1400208,"2026-02-21 10:20:00","37788","3.852","313.1","5.455","308.8","1030.9660000000001","13.69","51.41","560.3","0.0"],
    [1400209,"2026-02-21 10:30:00","37789","3.267","296.6","4.835","297.8","1030.9389999999999","14.0","50.65","576.9","0.0"],
    [1400210,"2026-02-21 10:40:00","37790","3.3289999999999997","296.8","5.292","290.2","1030.891","14.5","50.18","592.6","0.0"],
    [1400211,"2026-02-21 10:50:00","37791","2.7110000000000003","275.1","4.475","263.1","1030.776","14.88","49.21","607.4","0.0"],
    [1400212,"2026-02-21 11:00:00","37792","2.287","279.4","3.887","309.2","1030.665","15.24","48.82","620.7","0.0"],
    [1400213,"2026-02-21 11:10:00","37793","3.063","278.5","5.161","276.8","1030.645","15.28","47.84","633.4","0.0"],
    [1400214,"2026-02-21 11:20:00","37794","2.6180000000000003","283.1","3.985","277.3","1030.518","15.47","46.53","641.8","0.0"],
    [1400215,"2026-02-21 11:30:00","37795","3.005","300.1","4.41","316","1030.354","15.72","46.49","650.8","0.0"],
    [1400216,"2026-02-21 11:40:00","37796","1.8419999999999999","264.7","2.94","276.4","1030.241","16.15","46.39","654.7","0.0"],
    [1400217,"2026-02-21 11:50:00","37797","1.609","236.0","2.842","249","1030.0910000000001","16.65","46.76","658.3","0.0"],
    [1400218,"2026-02-21 12:00:00","37798","2.1","203.3","3.887","174.1","1029.9089999999999","16.69","47.05","660.3","0.0"],
    [1400219,"2026-02-21 12:10:00","37799","2.489","195.0","4.149","164.3","1029.802","15.98","53.47","662.6","0.0"],
    [1400220,"2026-02-21 12:20:00","37800","2.986","200.3","4.737","173.9","1029.702","15.75","54.58","662.0","0.0"],
    [1400221,"2026-02-21 12:30:00","37801","3.573","208.5","5.521","222.9","1029.682","15.28","56.95","659.7","0.0"],
    [1400222,"2026-02-21 12:40:00","37802","3.0660000000000003","199.8","5.357","214.4","1029.635","15.51","58.81","653.7","0.0"],
    [1400223,"2026-02-21 12:50:00","37803","3.3480000000000003","200.6","5.553","215.4","1029.451","15.23","59.61","648.8","0.0"],
    [1400224,"2026-02-21 13:00:00","37804","3.017","197.8","5.292","170","1029.365","15.37","61.32","640.9","0.0"],
    [1400225,"2026-02-21 13:10:00","37805","3.14","201.0","5.259","217.5","1029.279","15.19","62.89","631.2","0.0"],
    [1400226,"2026-02-21 13:20:00","37806","2.7310000000000003","200.9","5.129","192.5","1029.154","15.56","61.81","620.4","0.0"],
    [1400227,"2026-02-21 13:30:00","37807","3.5469999999999997","210.5","6.109","212.7","1029.06","15.3","61.98","609.7","0.0"],
    [1400228,"2026-02-21 13:40:00","37808","2.7460000000000004","198.0","4.769","230.1","1028.988","15.07","63.21","595.1","0.0"],
    [1400229,"2026-02-21 13:50:00","37809","3.528","204.3","5.39","214.8","1028.98","15.14","62.78","579.6","0.0"],
    [1400230,"2026-02-21 14:00:00","37810","3.431","198.8","5.749","221.7","1028.9089999999999","15.05","62.86","563.0","0.0"],
    [1400231,"2026-02-21 14:10:00","37811","2.6660000000000004","198.0","4.149","184.7","1028.83","15.36","60.09","544.4","0.0"],
    [1400232,"2026-02-21 14:20:00","37812","2.872","194.3","5.031","213.3","1028.767","15.29","60.07","524.9","0.0"],
    [1400233,"2026-02-21 14:30:00","37813","2.792","190.1","4.965","192.9","1028.825","15.29","59.87","503.6","0.0"],
    [1400234,"2026-02-21 14:40:00","37814","3.069","210.2","5.292","231.4","1028.899","15.06","61.45","480.1","0.0"],
    [1400235,"2026-02-21 14:50:00","37815","3.6510000000000002","211.0","5.782","208.8","1028.859","15.12","60.35","455.1","0.0"],
    [1400236,"2026-02-21 15:00:00","37816","2.891","199.8","5.488","214","1028.797","15.3","60.19","428.5","0.0"],
    [1400237,"2026-02-21 15:10:00","37817","3.6710000000000003","211.7","5.945","199.1","1028.701","14.83","62.26","402.3","0.0"],
    [1400238,"2026-02-21 15:20:00","37818","3.201","209.8","5.488","237.2","1028.621","14.98","63.67","373.7","0.0"],
    [1400239,"2026-02-21 15:30:00","37819","3.4130000000000003","211.6","5.423","228.4","1028.6019999999999","14.68","63.89","345.5","0.0"],
    [1400240,"2026-02-21 15:40:00","37820","3.02","215.7","6.566","201.8","1028.572","14.71","63.29","315.5","0.0"],
    [1400241,"2026-02-21 15:50:00","37821","3.275","218.3","5.913","212.3","1028.49","14.86","60.82","285.2","0.0"],
    [1400242,"2026-02-21 16:00:00","37822","2.99","214.7","5.194","214.8","1028.474","14.8","60.27","254.4","0.0"],
    [1400243,"2026-02-21 16:10:00","37823","3.2680000000000002","217.6","4.9","212.8","1028.4660000000001","14.81","60.23","224.1","0.0"],
    [1400244,"2026-02-21 16:20:00","37824","2.8110000000000004","209.5","4.9","214.1","1028.519","14.7","62.31","192.4","0.0"],
    [1400245,"2026-02-21 16:30:00","37825","3.135","212.8","5.945","222.8","1028.4769999999999","14.41","62.73","161.4","0.0"],
    [1400246,"2026-02-21 16:40:00","37826","2.753","207.7","6.109","199.8","1028.47","14.08","64.33","131.4","0.0"],
    [1400247,"2026-02-21 16:50:00","37827","2.9360000000000004","209.2","5.553","202.8","1028.463","13.66","68.38","77.88","0.0"],
    [1400248,"2026-02-21 17:00:00","37828","2.753","218.4","5.717","221.8","1028.49","13.43","68.82","24.92","0.0"],
    [1400249,"2026-02-21 17:10:00","37829","2.9389999999999996","218.3","5.586","178.3","1028.492","13.43","66.01","18.74","0.0"],
    [1400250,"2026-02-21 17:20:00","37830","2.188","228.6","4.345","227.6","1028.604","13.27","67.15","13.03","0.0"],
    [1400251,"2026-02-21 17:30:00","37831","2.131","227.2","4.116","199","1028.76","13.0","67.61","6.131","0.0"],
    [1400252,"2026-02-21 17:40:00","37832","2.342","225.2","4.116","221.9","1028.822","13.15","65.59","0.9159999999999999","0.0"],
    [1400253,"2026-02-21 17:50:00","37833","2.186","223.9","3.397","211.6","1028.774","12.9","69.12","-2.0669999999999997","0.0"],
    [1400254,"2026-02-21 18:00:00","37834","2.81","218.0","5.161","212.6","1028.761","12.87","68.98","-2.964","0.0"],
    [1400255,"2026-02-21 18:10:00","37835","3.302","220.3","5.651","184","1028.808","12.87","69.77","-2.8160000000000003","0.0"],
    [1400256,"2026-02-21 18:20:00","37836","2.8339999999999996","222.6","5.063","227.6","1028.87","12.81","72.26","-2.7689999999999997","0.0"],
    [1400257,"2026-02-21 18:30:00","37837","2.908","216.9","6.468","218.5","1028.895","12.65","73.32","-2.987","0.0"],
    [1400258,"2026-02-21 18:40:00","37838","3.248","221.0","5.586","187.1","1028.935","12.75","74.03","-2.8139999999999996","0.0"],
    [1400259,"2026-02-21 18:50:00","37839","2.766","226.2","4.41","221.8","1028.9569999999999","12.66","76.38","-2.792","0.0"],
    [1400260,"2026-02-21 19:00:00","37840","1.787","228.0","2.907","225","1029.018","12.41","78.46","-2.795","0.0"],
    [1400261,"2026-02-21 19:10:00","37841","1.3940000000000001","231.7","2.581","248.5","1028.995","12.09","79.52","-3.0210000000000004","0.0"],
    [1400262,"2026-02-21 19:20:00","37842","1.703","228.5","2.94","245.6","1028.965","11.97","79.11","-3.002","0.0"],
    [1400263,"2026-02-21 19:30:00","37843","1.0490000000000002","232.0","2.156","213.7","1028.955","11.79","77.7","-2.821","0.0"],
    [1400264,"2026-02-21 19:40:00","37844","1.297","237.6","2.058","224.3","1028.953","11.69","76.14","-3.055","0.0"],
    [1400265,"2026-02-21 19:50:00","37845","1.35","231.0","2.058","225.3","1029.004","11.51","75.85","-2.8689999999999998","0.0"],
    [1400266,"2026-02-21 20:00:00","37846","1.3159999999999998","232.4","2.058","217.1","1029.048","11.46","75.12","-2.8169999999999997","0.0"],
    [1400267,"2026-02-21 20:10:00","37847","1.115","230.4","1.797","227.7","1028.976","11.39","74.68","-2.8819999999999997","0.0"],
    [1400268,"2026-02-21 20:20:00","37848","1.186","241.9","2.058","262.2","1028.897","11.5","74.06","-2.8169999999999997","0.0"],
    [1400269,"2026-02-21 20:30:00","37849","1.122","238.5","2.091","255.9","1028.828","11.52","73.81","-2.8160000000000003","0.0"],
    [1400270,"2026-02-21 20:40:00","37850","1.276","247.6","2.189","243.1","1028.836","11.55","73.64","-2.9010000000000002","0.0"],
    [1400271,"2026-02-21 20:50:00","37851","1.357","252.4","2.091","270.7","1028.905","11.49","73.69","-2.787","0.0"],
    [1400272,"2026-02-21 21:00:00","37852","1.374","246.9","2.319","262.8","1028.846","11.15","75.31","-2.812","0.0"],
    [1400273,"2026-02-21 21:10:00","37853","1.4409999999999998","241.3","2.581","231.2","1028.844","11.31","74.85","-2.7960000000000003","0.0"],
    [1400274,"2026-02-21 21:20:00","37854","1.6909999999999998","231.1","2.842","231.3","1028.859","11.41","74.48","-2.844","0.0"],
    [1400275,"2026-02-21 21:30:00","37855","1.6369999999999998","231.7","2.875","262.4","1028.825","11.35","74.63","-2.767","0.0"],
    [1400276,"2026-02-21 21:40:00","37856","1.7409999999999999","227.4","2.483","236.1","1028.868","11.1","75.25","-2.766","0.0"],
    [1400277,"2026-02-21 21:50:00","37857","1.83","227.8","2.548","225.5","1028.958","10.84","76.09","-2.761","0.0"],
    [1400278,"2026-02-21 22:00:00","37858","1.8619999999999999","228.4","2.875","233.7","1029.001","10.74","76.11","-2.761","0.0"],
    [1400279,"2026-02-21 22:10:00","37859","1.734","227.5","2.417","224.6","1028.933","10.85","75.12","-2.861","0.0"],
    [1400280,"2026-02-21 22:20:00","37860","1.787","228.2","2.483","213.2","1028.854","10.99","73.14","-2.7710000000000004","0.0"],
    [1400281,"2026-02-21 22:30:00","37861","1.5619999999999998","230.3","2.254","209.7","1028.894","10.86","73.17","-2.763","0.0"],
    [1400282,"2026-02-21 22:40:00","37862","1.7069999999999999","232.9","2.483","250.3","1028.925","10.76","73.12","-2.775","0.0"],
    [1400283,"2026-02-21 22:50:00","37863","2.055","228.5","2.907","227.1","1028.931","10.68","72.93","-2.778","0.0"],
    [1400284,"2026-02-21 23:00:00","37864","1.732","229.7","2.646","231.9","1028.907","10.69","71.81","-2.762","0.0"],
    [1400285,"2026-02-21 23:10:00","37865","1.95","226.1","3.038","226","1028.884","10.7","70.88","-2.7739999999999996","0.0"],
    [1400286,"2026-02-21 23:20:00","37866","2.129","230.6","2.973","222.3","1028.8419999999999","10.57","70.63","-2.763","0.0"],
    [1400287,"2026-02-21 23:30:00","37867","2.315","225.0","3.299","239","1028.7060000000001","10.37","71.04","-2.761","0.0"],
    [1400288,"2026-02-21 23:40:00","37868","2.454","225.3","3.267","225.8","1028.6960000000001","10.29","71.12","-2.76","0.0"],
    [1400289,"2026-02-21 23:50:00","37869","1.893","230.2","3.071","233.2","1028.684","9.93","72.23","-2.7489999999999997","0.0"],
    [1400290,"2026-02-22 00:00:00","37870","1.815","231.2","2.809","268.9","1028.657","9.7","73.01","-2.762","0.0"],
    [1400291,"2026-02-22 00:10:00","37871","1.989","232.3","3.005","237.1","1028.5510000000002","9.51","73.62","-2.762","0.0"],
    [1400292,"2026-02-22 00:20:00","37872","1.949","234.7","2.842","220.1","1028.497","9.56","73.11","-2.763","0.0"],
    [1400293,"2026-02-22 00:30:00","37873","1.791","237.9","3.005","228.3","1028.4289999999999","9.76","71.53","-2.763","0.0"],
    [1400294,"2026-02-22 00:40:00","37874","1.925","241.7","3.201","246.9","1028.259","10.12","68.96","-2.8560000000000003","0.0"],
    [1400295,"2026-02-22 00:50:00","37875","1.746","237.6","3.626","265.3","1028.2","10.73","65.45","-2.838","0.0"],
    [1400296,"2026-02-22 01:00:00","37876","1.4980000000000002","236.5","2.515","236.8","1028.167","10.44","66.08","-2.762","0.0"],
    [1400297,"2026-02-22 01:10:00","37877","1.9369999999999998","239.1","3.332","260.3","1028.118","10.37","65.5","-3.032","0.0"],
    [1400298,"2026-02-22 01:20:00","37878","1.844","228.4","2.842","217.6","1028.039","10.74","62.78","-2.7739999999999996","0.0"],
    [1400299,"2026-02-22 01:30:00","37879","1.4909999999999999","230.2","2.254","231.9","1027.904","10.13","65.72","-2.764","0.0"],
    [1400300,"2026-02-22 01:40:00","37880","1.699","229.4","2.319","243.5","1027.806","9.73","68.1","-2.764","0.0"],
    [1400301,"2026-02-22 01:50:00","37881","1.4180000000000001","232.1","2.385","254.6","1027.749","9.32","70.0","-2.762","0.0"],
    [1400302,"2026-02-22 02:00:00","37882","1.2109999999999999","252.9","2.221","282.9","1027.645","9.18","70.26","-2.779","0.0"],
    [1400303,"2026-02-22 02:10:00","37883","1.3230000000000002","267.5","2.744","257.7","1027.568","9.31","69.08","-2.765","0.0"],
    [1400304,"2026-02-22 02:20:00","37884","1.3430000000000002","249.4","2.679","288.9","1027.516","9.33","68.55","-2.764","0.0"],
    [1400305,"2026-02-22 02:30:00","37885","1.492","251.1","2.875","282.6","1027.357","9.34","68.38","-2.766","0.0"],
    [1400306,"2026-02-22 02:40:00","37886","1.548","238.4","2.385","242.5","1027.2160000000001","9.45","67.21","-2.765","0.0"],
    [1400307,"2026-02-22 02:50:00","37887","1.558","233.5","2.189","241.9","1027.037","9.11","68.82","-2.764","0.0"],
    [1400308,"2026-02-22 03:00:00","37888","1.611","239.5","2.515","250.5","1026.917","9.04","68.84","-2.7680000000000002","0.0"],
    [1400309,"2026-02-22 03:10:00","37889","1.3630000000000002","259.1","3.332","281.9","1026.827","8.66","70.66","-2.772","0.0"],
    [1400310,"2026-02-22 03:20:00","37890","1.758","257.7","3.561","254","1026.6760000000002","8.78","70.77","-2.8089999999999997","0.0"],
    [1400311,"2026-02-22 03:30:00","37891","1.955","245.1","3.724","256.6","1026.631","9.1","69.33","-2.765","0.0"],
    [1400312,"2026-02-22 03:40:00","37892","1.726","238.1","3.103","254.8","1026.613","8.96","70.18","-2.766","0.0"],
    [1400313,"2026-02-22 03:50:00","37893","1.617","248.7","2.679","275.5","1026.638","8.88","70.77","-2.772","0.0"],
    [1400314,"2026-02-22 04:00:00","37894","1.828","264.6","3.397","272.3","1026.634","8.85","70.4","-2.7689999999999997","0.0"],
    [1400315,"2026-02-22 04:10:00","37895","1.61","273.2","2.94","282.9","1026.5710000000001","8.78","70.02","-2.7880000000000003","0.0"],
    [1400316,"2026-02-22 04:20:00","37896","1.794","275.8","4.051","266.7","1026.539","8.87","69.24","-2.7889999999999997","0.0"],
    [1400317,"2026-02-22 04:30:00","37897","2.0780000000000003","270.9","3.953","260.3","1026.526","8.96","68.89","-2.772","0.0"],
    [1400318,"2026-02-22 04:40:00","37898","2.394","283.5","4.345","281.4","1026.5339999999999","8.87","69.59","-2.7760000000000002","0.0"],
    [1400319,"2026-02-22 04:50:00","37899","2.33","268.4","3.985","253.7","1026.531","9.23","68.23","-2.785","0.0"],
    [1400320,"2026-02-22 05:00:00","37900","1.982","259.1","3.757","264.4","1026.545","9.17","68.66","-2.7710000000000004","0.0"],
    [1400321,"2026-02-22 05:10:00","37901","2.173","262.0","3.593","293.6","1026.5610000000001","8.92","69.78","-2.7680000000000002","0.0"],
    [1400322,"2026-02-22 05:20:00","37902","2.2119999999999997","278.4","3.953","300.6","1026.622","8.94","69.8","-2.7689999999999997","0.0"],
    [1400323,"2026-02-22 05:30:00","37903","2.7","283.7","4.541","291.8","1026.542","9.35","68.17","-2.925","0.0"],
    [1400324,"2026-02-22 05:40:00","37904","2.282","283.0","4.214","283.4","1026.517","9.58","66.95","-2.77","0.0"],
    [1400325,"2026-02-22 05:50:00","37905","2.883","283.6","4.573","294.9","1026.538","9.3","68.3","-2.775","0.0"],
    [1400326,"2026-02-22 06:00:00","37906","2.46","283.8","3.953","279.6","1026.555","9.43","67.66","-2.775","0.0"],
    [1400327,"2026-02-22 06:10:00","37907","2.716","293.3","4.149","300.2","1026.5","9.26","68.6","-2.7710000000000004","0.0"],
    [1400328,"2026-02-22 06:20:00","37908","2.8110000000000004","293.5","4.41","312.5","1026.491","9.29","68.36","-2.74","0.0"],
    [1400329,"2026-02-22 06:30:00","37909","3.32","298.0","4.998","303.6","1026.487","9.31","68.49","-1.3980000000000001","0.0"],
    [1400330,"2026-02-22 06:40:00","37910","2.799","293.9","3.953","296.6","1026.575","9.34","68.45","1.784","0.0"],
    [1400331,"2026-02-22 06:50:00","37911","2.521","290.8","3.593","293.3","1026.663","9.34","68.48","6.834","0.0"],
    [1400332,"2026-02-22 07:00:00","37912","1.385","272.3","3.071","301.3","1026.761","9.88","65.96","12.95","0.0"],
    [1400333,"2026-02-22 07:10:00","37913","1.824","271.2","2.973","248.7","1026.861","9.79","66.09","19.34","0.0"],
    [1400334,"2026-02-22 07:20:00","37914","1.645","272.1","2.777","271.2","1026.934","9.14","68.97","25.09","0.0"],
    [1400335,"2026-02-22 07:30:00","37915","2.2119999999999997","268.6","3.103","271.8","1027.083","8.91","70.39","30.57","0.0"],
    [1400336,"2026-02-22 07:40:00","37916","2.073","280.8","3.267","286.2","1027.163","8.99","70.65","35.96","0.0"],
    [1400337,"2026-02-22 07:50:00","37917","1.536","288.7","2.548","289.1","1027.27","9.26","70.59","89.6","0.0"],
    [1400338,"2026-02-22 08:00:00","37918","0.775","314.3","2.189","302","1027.43","9.88","68.93","181.2","0.0"],
    [1400339,"2026-02-22 08:10:00","37919","0.028999999999999998","281.1","0.49","280.6","1027.503","11.21","63.28","209.6","0.0"],
    [1400340,"2026-02-22 08:20:00","37920","0.26","112.9","1.927","106.1","1027.6019999999999","11.31","63.25","251.4","0.0"],
    [1400341,"2026-02-22 08:30:00","37921","0.525","280.2","1.927","287","1027.687","11.9","63.3","268.9","0.0"],
    [1400342,"2026-02-22 08:40:00","37922","0.29600000000000004","277.1","0.849","285.2","1027.754","12.32","63.21","300.5","0.0"],
    [1400343,"2026-02-22 08:50:00","37923","1.1840000000000002","34.88","2.221","79.86","1027.849","12.78","66.14","324.4","0.0"],
    [1400344,"2026-02-22 09:00:00","37924","1.344","78.31","2.385","78.07","1027.86","12.98","65.28","330.6","0.0"],
    [1400345,"2026-02-22 09:10:00","37925","0.541","83.3","1.209","79.69","1027.8519999999999","13.7","63.21","402.3","0.0"],
    [1400346,"2026-02-22 09:20:00","37926","0.40299999999999997","317.5","1.993","293.9","1027.896","14.42","61.46","423.5","0.0"],
    [1400347,"2026-02-22 09:30:00","37927","2.03","295.6","3.332","301.1","1027.905","14.15","56.53","430.0","0.0"],
    [1400348,"2026-02-22 09:40:00","37928","2.932","293.6","4.769","279.4","1027.9160000000002","14.44","55.12","471.4","0.0"],
    [1400349,"2026-02-22 09:50:00","37929","3.15","286.8","4.933","289.9","1027.871","14.92","53.4","512.0","0.0"],
    [1400350,"2026-02-22 10:00:00","37930","2.592","279.8","4.606","298.8","1027.844","15.32","51.3","529.8","0.0"],
    [1400351,"2026-02-22 10:10:00","37931","2.168","263.1","3.757","265","1027.78","15.62","49.98","552.8","0.0"],
    [1400352,"2026-02-22 10:20:00","37932","1.774","259.7","3.365","269.4","1027.654","16.37","48.67","571.8","0.0"],
    [1400353,"2026-02-22 10:30:00","37933","1.5430000000000001","224.9","2.907","219.2","1027.653","17.01","47.99","587.6","0.0"],
    [1400354,"2026-02-22 10:40:00","37934","1.766","225.1","3.495","208.9","1027.649","17.73","46.53","602.2","0.0"],
    [1400355,"2026-02-22 10:50:00","37935","1.732","224.4","3.267","237.5","1027.645","17.88","46.61","619.5","0.0"],
    [1400356,"2026-02-22 11:00:00","37936","2.492","211.1","4.083","211.1","1027.607","18.02","46.87","624.6","0.0"],
    [1400357,"2026-02-22 11:10:00","37937","3.214","213.4","4.345","203.2","1027.539","17.74","46.89","628.2","0.0"],
    [1400358,"2026-02-22 11:20:00","37938","2.63","189.8","4.051","167","1027.48","16.93","50.48","644.8","0.0"],
    [1400359,"2026-02-22 11:30:00","37939","2.753","195.1","5.227","210.6","1027.488","16.22","55.67","656.0","0.0"],
    [1400360,"2026-02-22 11:40:00","37940","2.9539999999999997","199.4","5.063","210.1","1027.4569999999999","15.96","59.81","667.4","0.0"],
    [1400361,"2026-02-22 11:50:00","37941","2.9019999999999997","200.2","4.965","211.1","1027.384","15.82","63.3","672.5","0.0"],
    [1400362,"2026-02-22 12:00:00","37942","3.386","189.8","5.161","193.7","1027.277","15.48","65.14","674.8","0.0"],
    [1400363,"2026-02-22 12:10:00","37943","2.9539999999999997","198.6","5.096","217.6","1027.1480000000001","15.5","65.55","650.4","0.0"],
    [1400364,"2026-02-22 12:20:00","37944","2.46","197.3","3.887","202.1","1026.9360000000001","15.99","65.21","676.6","0.0"],
    [1400365,"2026-02-22 12:30:00","37945","2.695","195.9","4.671","174.4","1026.823","16.25","63.52","673.5","0.0"],
    [1400366,"2026-02-22 12:40:00","37946","2.478","189.6","3.887","179.6","1026.8039999999999","15.95","58.68","662.6","0.0"],
    [1400367,"2026-02-22 12:50:00","37947","1.6280000000000001","169.8","3.267","154.8","1026.68","16.32","58.41","654.4","0.0"],
    [1400368,"2026-02-22 13:00:00","37948","2.197","169.0","5.031","142","1026.568","16.12","60.25","647.9","0.0"],
    [1400369,"2026-02-22 13:10:00","37949","2.615","176.1","3.985","170.4","1026.458","16.26","60.56","637.3","0.0"],
    [1400370,"2026-02-22 13:20:00","37950","2.38","188.5","4.247","182.2","1026.371","16.56","59.15","629.1","0.0"],
    [1400371,"2026-02-22 13:30:00","37951","2.349","201.7","4.475","202.8","1026.2830000000001","16.74","60.99","619.5","0.0"],
    [1400372,"2026-02-22 13:40:00","37952","2.738","201.6","5.39","218.9","1026.106","16.94","56.13","600.0","0.0"],
    [1400373,"2026-02-22 13:50:00","37953","4.05","210.1","6.207","227.4","1025.993","16.74","53.0","587.7","0.0"],
    [1400374,"2026-02-22 14:00:00","37954","3.7439999999999998","214.4","6.337","217.5","1025.876","16.5","52.9","572.8","0.0"],
    [1400375,"2026-02-22 14:10:00","37955","3.7769999999999997","213.4","5.39","200.6","1025.845","17.02","52.43","548.3","0.0"],
    [1400376,"2026-02-22 14:20:00","37956","2.36","207.3","4.998","209.6","1025.781","17.04","54.67","507.5","0.0"],
    [1400377,"2026-02-22 14:30:00","37957","2.8169999999999997","213.2","4.541","219.2","1025.732","17.11","53.05","502.3","0.0"],
    [1400378,"2026-02-22 14:40:00","37958","3.7760000000000002","217.5","7.154","206.7","1025.677","16.6","56.32","487.3","0.0"],
    [1400379,"2026-02-22 14:50:00","37959","3.365","208.3","6.86","215.4","1025.618","16.58","57.78","458.5","0.0"],
    [1400380,"2026-02-22 15:00:00","37960","2.636","204.9","5.161","215.9","1025.586","16.54","61.47","431.7","0.0"],
    [1400381,"2026-02-22 15:10:00","37961","2.778","202.4","5.39","206.7","1025.538","16.44","59.91","400.6","0.0"],
    [1400382,"2026-02-22 15:20:00","37962","2.8739999999999997","208.2","5.488","211.3","1025.538","16.16","61.19","363.3","0.0"],
    [1400383,"2026-02-22 15:30:00","37963","3.4619999999999997","209.8","5.847","229.8","1025.532","16.05","62.84","341.2","0.0"],
    [1400384,"2026-02-22 15:40:00","37964","2.5810000000000004","208.7","4.508","202.3","1025.468","16.0","64.23","290.7","0.0"],
    [1400385,"2026-02-22 15:50:00","37965","2.521","205.1","4.737","225.6","1025.442","15.98","63.07","243.3","0.0"],
    [1400386,"2026-02-22 16:00:00","37966","2.765","200.2","5.357","207.9","1025.3519999999999","15.54","66.88","198.5","0.0"],
    [1400387,"2026-02-22 16:10:00","37967","2.798","199.2","6.468","212.5","1025.292","15.25","69.75","189.8","0.0"],
    [1400388,"2026-02-22 16:20:00","37968","2.26","195.1","3.985","230.8","1025.204","15.33","70.1","193.7","0.0"],
    [1400389,"2026-02-22 16:30:00","37969","3.447","213.3","6.533","222","1025.213","15.44","66.84","148.9","0.0"],
    [1400390,"2026-02-22 16:40:00","37970","3.5869999999999997","223.1","6.043","212.4","1025.263","15.68","60.25","111.5","0.0"],
    [1400391,"2026-02-22 16:50:00","37971","3.162","224.5","5.39","229.2","1025.24","15.48","61.74","80.3","0.0"],
    [1400392,"2026-02-22 17:00:00","37972","4.297","221.4","6.631","214.9","1025.229","15.32","61.76","45.08","0.0"],
    [1400393,"2026-02-22 17:10:00","37973","4.0889999999999995","221.4","6.272","213.5","1025.269","15.0","64.29","30.07","0.0"],
    [1400394,"2026-02-22 17:20:00","37974","3.787","219.7","6.86","205.9","1025.2839999999999","14.73","66.8","17.47","0.0"],
    [1400395,"2026-02-22 17:30:00","37975","3.7289999999999996","226.8","5.325","219.7","1025.333","14.51","68.55","7.162999999999999","0.0"],
    [1400396,"2026-02-22 17:40:00","37976","3.4810000000000003","224.0","5.619","229.4","1025.3419999999999","14.27","72.15","1.212","0.0"],
    [1400397,"2026-02-22 17:50:00","37977","3.068","225.4","4.802","221.8","1025.417","14.11","73.65","-0.39","0.0"],
    [1400398,"2026-02-22 18:00:00","37978","3.036","223.3","5.063","223.3","1025.496","14.13","73.39","-2.426","0.0"],
    [1400399,"2026-02-22 18:10:00","37979","2.099","223.4","3.593","201.6","1025.609","14.0","74.45","-2.71","0.0"],
    [1400400,"2026-02-22 18:20:00","37980","0.9","249.6","1.699","230.6","1025.639","13.64","74.48","-2.7489999999999997","0.0"],
    [1400401,"2026-02-22 18:30:00","37981","1.8219999999999998","217.8","3.332","209.8","1025.701","13.55","74.48","-2.8360000000000003","0.0"],
    [1400402,"2026-02-22 18:40:00","37982","2.592","216.7","4.247","199.1","1025.714","13.8","74.76","-2.762","0.0"],
    [1400403,"2026-02-22 18:50:00","37983","2.358","216.2","4.018","205.4","1025.718","13.65","77.1","-2.7569999999999997","0.0"],
    [1400404,"2026-02-22 19:00:00","37984","2.0980000000000003","219.4","3.267","222.2","1025.767","13.61","78.77","-2.7560000000000002","0.0"],
    [1400405,"2026-02-22 19:10:00","37985","1.2770000000000001","215.8","2.45","228.1","1025.797","13.42","79.79","-2.761","0.0"],
    [1400406,"2026-02-22 19:20:00","37986","1.091","250.7","3.071","236.7","1025.892","13.38","79.79","-2.766","0.0"],
    [1400407,"2026-02-22 19:30:00","37987","0.071","278.9","0.947","282.2","1025.951","12.97","80.7","-2.9789999999999996","0.0"],
    [1400408,"2026-02-22 19:40:00","37988","0.0","273.4","0.033","273.4","1026.008","12.65","82.6","-2.7939999999999996","0.0"],
    [1400409,"2026-02-22 19:50:00","37989","0.0","0.0","0","0","1026.01","12.23","84.0","-2.782","0.0"],
    [1400410,"2026-02-22 20:00:00","37990","0.502","214.9","1.372","216.7","1026.03","12.19","85.1","-2.762","0.0"],
    [1400411,"2026-02-22 20:10:00","37991","0.914","212.1","1.503","225.9","1026.094","12.58","82.1","-2.761","0.0"],
    [1400412,"2026-02-22 20:20:00","37992","1.237","235.4","1.666","233.8","1026.1760000000002","12.58","80.0","-2.7689999999999997","0.0"],
    [1400413,"2026-02-22 20:30:00","37993","1.284","237.2","1.764","266.2","1026.1889999999999","12.58","79.89","-2.761","0.0"],
    [1400414,"2026-02-22 20:40:00","37994","1.419","232.6","1.862","227.3","1026.203","12.45","80.3","-2.761","0.0"],
    [1400415,"2026-02-22 20:50:00","37995","1.507","238.3","2.385","250","1026.141","12.45","78.78","-2.761","0.0"],
    [1400416,"2026-02-22 21:00:00","37996","1.274","251.9","2.123","256.1","1026.095","12.58","75.33","-2.761","0.0"],
    [1400417,"2026-02-22 21:10:00","37997","1.2790000000000001","271.5","2.058","271.7","1026.11","12.16","75.5","-2.761","0.0"],
    [1400418,"2026-02-22 21:20:00","37998","1.1059999999999999","247.3","1.862","260.2","1026.1019999999999","11.71","77.49","-2.762","0.0"],
    [1400419,"2026-02-22 21:30:00","37999","1.3130000000000002","263.7","2.189","274.2","1026.0910000000001","11.65","78.04","-2.76","0.0"],
    [1400420,"2026-02-22 21:40:00","38000","1.21","252.4","2.156","270.5","1026.052","11.61","80.0","-2.761","0.0"],
    [1400421,"2026-02-22 21:50:00","38001","1.275","248.2","2.091","249.7","1026.022","11.63","79.66","-2.761","0.0"],
    [1400422,"2026-02-22 22:00:00","38002","1.016","254.5","1.96","251.9","1026.006","11.63","79.03","-2.759","0.0"],
    [1400423,"2026-02-22 22:10:00","38003","1.113","241.0","2.091","246.9","1025.983","11.27","80.5","-2.766","0.0"],
    [1400424,"2026-02-22 22:20:00","38004","1.433","228.3","2.417","224.8","1025.921","11.77","81.5","-2.761","0.0"],
    [1400425,"2026-02-22 22:30:00","38005","1.828","225.5","2.809","229.6","1025.961","12.0","83.2","-2.766","0.0"],
    [1400426,"2026-02-22 22:40:00","38006","1.965","225.9","3.201","232.1","1025.93","11.92","83.2","-2.762","0.0"],
    [1400427,"2026-02-22 22:50:00","38007","1.8780000000000001","230.6","3.103","231.4","1025.878","12.06","82.2","-2.762","0.0"],
    [1400428,"2026-02-22 23:00:00","38008","1.55","236.9","2.581","239.1","1025.731","12.08","78.44","-2.762","0.0"],
    [1400429,"2026-02-22 23:10:00","38009","1.3159999999999998","242.7","2.548","239.7","1025.644","11.98","75.49","-2.762","0.0"],
    [1400430,"2026-02-22 23:20:00","38010","1.383","241.2","2.711","242.4","1025.605","11.81","74.66","-2.77","0.0"],
    [1400431,"2026-02-22 23:30:00","38011","1.905","226.6","3.136","213.1","1025.57","11.94","74.15","-2.903","0.0"],
    [1400432,"2026-02-22 23:40:00","38012","2.273","225.7","3.267","212.6","1025.547","12.0","72.77","-2.8089999999999997","0.0"],
    [1400433,"2026-02-22 23:50:00","38013","1.899","226.4","2.613","220.7","1025.506","11.84","71.81","-2.762","0.0"],
    [1400434,"2026-02-23 00:00:00","38014","1.808","225.5","2.613","206.4","1025.3980000000001","11.52","71.68","-2.762","0.0"],
    [1400435,"2026-02-23 00:10:00","38015","1.796","226.5","2.842","225.8","1025.344","11.31","71.42","-2.761","0.0"],
    [1400436,"2026-02-23 00:20:00","38016","1.518","239.7","2.907","273.6","1025.319","11.07","71.4","-2.7710000000000004","0.0"],
    [1400437,"2026-02-23 00:30:00","38017","1.3619999999999999","255.4","3.005","257","1025.193","11.01","70.9","-2.761","0.0"],
    [1400438,"2026-02-23 00:40:00","38018","1.403","266.5","2.45","274.4","1025.108","10.73","71.62","-2.764","0.0"],
    [1400439,"2026-02-23 00:50:00","38019","1.476","263.6","2.711","275","1025.073","10.82","70.54","-2.761","0.0"],
    [1400440,"2026-02-23 01:00:00","38020","1.3719999999999999","269.0","2.123","284.2","1025.02","10.64","70.4","-2.759","0.0"],
    [1400441,"2026-02-23 01:10:00","38021","0.77","253.8","1.535","252.7","1024.937","10.52","70.05","-2.764","0.0"],
    [1400442,"2026-02-23 01:20:00","38022","1.195","268.1","2.385","299.5","1024.862","10.57","69.43","-2.764","0.0"],
    [1400443,"2026-02-23 01:30:00","38023","1.76","280.7","3.234","270.4","1024.785","10.69","68.53","-2.784","0.0"],
    [1400444,"2026-02-23 01:40:00","38024","1.969","271.4","3.561","284.9","1024.7060000000001","10.73","68.4","-2.761","0.0"],
    [1400445,"2026-02-23 01:50:00","38025","1.935","261.5","3.724","242.4","1024.637","11.11","66.74","-2.763","0.0"],
    [1400446,"2026-02-23 02:00:00","38026","1.7530000000000001","264.4","3.201","261.6","1024.576","10.79","67.86","-2.7539999999999996","0.0"],
    [1400447,"2026-02-23 02:10:00","38027","1.722","272.4","3.169","277.4","1024.486","10.67","68.45","-2.761","0.0"],
    [1400448,"2026-02-23 02:20:00","38028","1.7790000000000001","258.7","2.907","222.6","1024.34","10.77","67.8","-2.761","0.0"],
    [1400449,"2026-02-23 02:30:00","38029","1.91","252.2","3.528","245.9","1024.205","10.74","67.73","-2.76","0.0"],
    [1400450,"2026-02-23 02:40:00","38030","1.965","255.0","3.789","262.4","1024.116","10.76","67.65","-2.734","0.0"],
    [1400451,"2026-02-23 02:50:00","38031","1.755","268.5","3.561","285.7","1024.0510000000002","10.83","67.46","-2.76","0.0"],
    [1400452,"2026-02-23 03:00:00","38032","1.11","283.9","2.352","266.1","1023.995","10.67","68.25","-2.765","0.0"],
    [1400453,"2026-02-23 03:10:00","38033","1.5190000000000001","280.6","3.136","284.1","1023.971","10.65","68.88","-2.784","0.0"],
    [1400454,"2026-02-23 03:20:00","38034","2.316","291.5","3.626","278.4","1023.9110000000001","10.65","69.16","-2.7560000000000002","0.0"],
    [1400455,"2026-02-23 03:30:00","38035","1.682","295.8","2.744","311.1","1023.873","10.41","70.71","-2.758","0.0"],
    [1400456,"2026-02-23 03:40:00","38036","1.042","7.796","2.189","15.88","1023.86","10.3","71.33","-2.763","0.0"],
    [1400457,"2026-02-23 03:50:00","38037","0.254","29.14","1.045","44.18","1023.7669999999999","9.93","72.76","-2.7710000000000004","0.0"],
    [1400458,"2026-02-23 04:00:00","38038","0.0","0.0","0","0","1023.737","9.68","73.84","-2.78","0.0"],
    [1400459,"2026-02-23 04:10:00","38039","0.377","272.7","1.797","275.4","1023.8860000000001","9.56","73.98","-2.764","0.0"],
    [1400460,"2026-02-23 04:20:00","38040","0.322","279.0","1.274","286.8","1023.904","9.36","74.57","-2.761","0.0"],
    [1400461,"2026-02-23 04:30:00","38041","0.526","260.2","1.013","279.7","1023.9010000000001","9.43","75.12","-2.764","0.0"],
    [1400462,"2026-02-23 04:40:00","38042","1.004","289.7","1.96","279","1023.888","9.38","75.37","-2.697","0.0"],
    [1400463,"2026-02-23 04:50:00","38043","1.972","272.5","2.581","276.4","1023.948","9.29","76.54","-2.966","0.0"],
    [1400464,"2026-02-23 05:00:00","38044","1.012","254.6","2.025","242.3","1023.8860000000001","9.66","74.79","-2.75","0.0"],
    [1400465,"2026-02-23 05:10:00","38045","1.024","288.2","1.96","271.5","1023.8389999999999","9.65","74.12","-2.764","0.0"],
    [1400466,"2026-02-23 05:20:00","38046","0.728","280.8","1.307","286","1023.763","9.4","75.61","-2.7680000000000002","0.0"],
    [1400467,"2026-02-23 05:30:00","38047","1.036","292.2","1.601","280.6","1023.814","9.48","75.31","-2.782","0.0"],
    [1400468,"2026-02-23 05:40:00","38048","1.3090000000000002","294.2","2.319","297.2","1023.885","9.35","76.18","-2.7710000000000004","0.0"],
    [1400469,"2026-02-23 05:50:00","38049","0.986","295.2","2.156","300.7","1023.8480000000001","9.45","75.62","-2.7489999999999997","0.0"],
    [1400470,"2026-02-23 06:00:00","38050","1.129","295.6","1.829","289.4","1023.9019999999999","9.46","75.28","-2.764","0.0"],
    [1400471,"2026-02-23 06:10:00","38051","1.6740000000000002","283.8","2.613","278.7","1023.98","9.58","75.3","-2.978","0.0"],
    [1400472,"2026-02-23 06:20:00","38052","1.306","276.1","2.221","271.5","1024.02","9.93","73.39","-2.733","0.0"],
    [1400473,"2026-02-23 06:30:00","38053","1.3980000000000001","267.5","2.189","261.9","1024.0710000000001","10.05","72.58","-1.839","0.0"],
    [1400474,"2026-02-23 06:40:00","38054","1.308","275.0","2.417","257.4","1024.07","10.05","72.04","1.9380000000000002","0.0"],
    [1400475,"2026-02-23 06:50:00","38055","1.393","283.0","2.45","275.7","1024.127","9.68","73.31","9.58","0.0"],
    [1400476,"2026-02-23 07:00:00","38056","1.17","285.1","2.091","294.6","1024.213","9.66","73.82","19.1","0.0"],
    [1400477,"2026-02-23 07:10:00","38057","0.83","302.6","1.601","306.3","1024.345","9.65","74.0","29.1","0.0"],
    [1400478,"2026-02-23 07:20:00","38058","0.815","294.7","1.568","311.2","1024.464","9.73","74.2","38.79","0.0"],
    [1400479,"2026-02-23 07:30:00","38059","1.02","302.3","1.666","308.9","1024.628","10.0","73.75","48.63","0.0"],
    [1400480,"2026-02-23 07:40:00","38060","0.397","320.4","1.078","312.4","1024.8010000000002","10.34","72.96","55.9","0.0"],
    [1400481,"2026-02-23 07:50:00","38061","0.47700000000000004","303.8","1.274","275.2","1024.9180000000001","10.84","71.47","113.0","0.0"],
    [1400482,"2026-02-23 08:00:00","38062","0.9420000000000001","285.3","1.568","294.1","1024.944","11.82","68.0","167.9","0.0"],
    [1400483,"2026-02-23 08:10:00","38063","0.909","289.3","1.307","295.2","1024.875","12.39","66.19","193.8","0.0"],
    [1400484,"2026-02-23 08:20:00","38064","0.603","276.4","1.47","291.3","1024.775","12.95","64.09","251.0","0.0"],
    [1400485,"2026-02-23 08:30:00","38065","1.16","300.6","1.764","289.5","1024.905","13.48","63.07","287.7","0.0"],
    [1400486,"2026-02-23 08:40:00","38066","1.3219999999999998","313.1","2.123","314.6","1024.88","13.96","60.82","323.6","0.0"],
    [1400487,"2026-02-23 08:50:00","38067","0.992","309.7","1.797","322.6","1024.893","14.26","59.0","357.9","0.0"],
    [1400488,"2026-02-23 09:00:00","38068","1.055","300.0","1.862","344.5","1024.951","14.66","58.07","377.7","0.0"],
    [1400489,"2026-02-23 09:10:00","38069","0.705","342.1","1.405","287.9","1024.991","14.79","57.4","380.7","0.0"],
    [1400490,"2026-02-23 09:20:00","38070","1.534","40.86","2.352","24.51","1025.0739999999998","14.94","60.15","395.1","0.0"],
    [1400491,"2026-02-23 09:30:00","38071","1.274","35.35","1.993","10.88","1025.057","14.83","64.0","396.8","0.0"],
    [1400492,"2026-02-23 09:40:00","38072","1.906","73.31","2.777","68.69","1025.111","15.07","67.55","422.6","0.0"],
    [1400493,"2026-02-23 09:50:00","38073","1.979","88.8","3.169","85.6","1025.123","15.3","64.41","487.6","0.0"],
    [1400494,"2026-02-23 10:00:00","38074","2.16","78.3","3.038","75.44","1025.151","15.27","61.86","520.3","0.0"],
    [1400495,"2026-02-23 10:10:00","38075","1.706","78.45","2.973","83.2","1025.141","15.47","62.61","541.7","0.0"],
    [1400496,"2026-02-23 10:20:00","38076","2.235","88.4","3.528","85.5","1025.136","15.75","61.2","560.2","0.0"],
    [1400497,"2026-02-23 10:30:00","38077","2.786","75.16","4.018","82.5","1025.203","15.69","60.12","576.5","0.0"],
    [1400498,"2026-02-23 10:40:00","38078","3.193","77.08","3.985","77.41","1025.194","15.41","60.8","593.0","0.0"],
    [1400499,"2026-02-23 10:50:00","38079","2.815","77.99","3.691","83.6","1025.134","15.29","63.37","606.4","0.0"],
    [1400500,"2026-02-23 11:00:00","38080","2.454","88.6","3.332","82.1","1025.0839999999998","15.37","63.94","610.8","0.0"],
    [1400501,"2026-02-23 11:10:00","38081","2.515","87.5","3.267","82.3","1025.036","14.99","70.29","628.2","0.0"],
    [1400502,"2026-02-23 11:20:00","38082","2.6860000000000004","86.4","3.822","81.1","1025.031","15.2","74.41","638.3","0.0"],
    [1400503,"2026-02-23 11:30:00","38083","2.335","87.8","3.136","92.9","1024.997","15.05","74.8","643.3","0.0"],
    [1400504,"2026-02-23 11:40:00","38084","2.037","88.0","2.809","74.33","1024.894","15.3","72.09","649.3","0.0"],
    [1400505,"2026-02-23 11:50:00","38085","2.434","95.3","3.659","97","1024.7930000000001","15.33","72.23","654.8","0.0"],
    [1400506,"2026-02-23 12:00:00","38086","1.9709999999999999","98.7","2.842","88.7","1024.638","15.45","73.28","653.6","0.0"],
    [1400507,"2026-02-23 12:10:00","38087","2.164","91.8","3.267","78.06","1024.476","15.58","70.21","655.0","0.0"],
    [1400508,"2026-02-23 12:20:00","38088","2.3890000000000002","87.9","4.083","79.48","1024.3410000000001","15.87","68.3","650.0","0.0"],
    [1400509,"2026-02-23 12:30:00","38089","2.068","92.0","3.038","67.4","1024.184","15.73","68.27","652.1","0.0"],
    [1400510,"2026-02-23 12:40:00","38090","1.942","90.8","2.809","97.3","1024.0539999999999","15.73","65.74","643.4","0.0"],
    [1400511,"2026-02-23 12:50:00","38091","1.379","109.6","2.548","86.2","1023.9","16.42","64.91","636.6","0.0"],
    [1400512,"2026-02-23 13:00:00","38092","1.148","161.9","3.267","168.1","1023.834","16.85","65.81","626.5","0.0"],
    [1400513,"2026-02-23 13:10:00","38093","1.493","184.7","3.005","179","1023.805","16.37","68.57","619.3","0.0"],
    [1400514,"2026-02-23 13:20:00","38094","1.317","160.1","2.711","179.1","1023.801","16.48","67.79","602.0","0.0"],
    [1400515,"2026-02-23 13:30:00","38095","1.237","168.4","2.646","192.4","1023.663","16.62","65.54","592.3","0.0"],
    [1400516,"2026-02-23 13:40:00","38096","1.446","174.4","4.998","238.5","1023.5360000000001","16.92","64.0","580.2","0.0"],
    [1400517,"2026-02-23 13:50:00","38097","2.024","168.9","4.639","202","1023.3989999999999","16.5","64.5","566.7","0.0"],
    [1400518,"2026-02-23 14:00:00","38098","2.1180000000000003","168.3","3.136","145.9","1023.3530000000001","16.41","61.25","546.8","0.0"],
    [1400519,"2026-02-23 14:10:00","38099","2.238","173.1","3.626","204.1","1023.279","16.21","68.18","526.6","0.0"],
    [1400520,"2026-02-23 14:20:00","38100","1.9080000000000001","198.5","3.43","225","1023.202","16.47","70.29","507.2","0.0"],
    [1400521,"2026-02-23 14:30:00","38101","1.736","183.6","2.809","167.7","1023.154","16.5","69.5","483.3","0.0"],
    [1400522,"2026-02-23 14:40:00","38102","1.857","168.5","5.357","186","1023.1080000000001","15.9","71.03","458.3","0.0"],
    [1400523,"2026-02-23 14:50:00","38103","1.851","172.6","3.299","167.5","1023.1","16.05","69.93","432.1","0.0"],
    [1400524,"2026-02-23 15:00:00","38104","1.6469999999999998","184.6","3.169","145.7","1023.054","16.15","68.5","405.6","0.0"],
    [1400525,"2026-02-23 15:10:00","38105","1.945","182.9","3.136","188.2","1023.0060000000001","15.96","67.67","378.6","0.0"],
    [1400526,"2026-02-23 15:20:00","38106","2.136","171.1","3.887","211","1022.931","15.69","70.97","351.9","0.0"],
    [1400527,"2026-02-23 15:30:00","38107","2.3819999999999997","168.6","3.855","190.3","1022.8760000000001","15.52","73.51","325.6","0.0"],
    [1400528,"2026-02-23 15:40:00","38108","2.358","182.1","3.593","187.4","1022.873","15.39","74.77","299.9","0.0"],
    [1400529,"2026-02-23 15:50:00","38109","1.651","183.4","3.103","187","1022.7919999999999","15.36","79.09","270.7","0.0"],
    [1400530,"2026-02-23 16:00:00","38110","1.962","186.4","3.201","160.1","1022.74","15.12","79.36","241.4","0.0"],
    [1400531,"2026-02-23 16:10:00","38111","2.003","190.8","4.247","208.7","1022.732","14.96","80.2","211.9","0.0"],
    [1400532,"2026-02-23 16:20:00","38112","1.916","196.5","3.397","178.2","1022.755","14.94","79.9","181.5","0.0"],
    [1400533,"2026-02-23 16:30:00","38113","1.8769999999999998","209.0","3.103","214.9","1022.7589999999999","14.78","79.56","152.7","0.0"],
    [1400534,"2026-02-23 16:40:00","38114","1.4280000000000002","200.8","3.626","217.7","1022.711","14.66","79.39","121.9","0.0"],
    [1400535,"2026-02-23 16:50:00","38115","1.328","193.1","2.581","176.5","1022.725","14.56","80.3","90.1","0.0"],
    [1400536,"2026-02-23 17:00:00","38116","1.501","200.1","2.809","227","1022.7660000000001","14.15","82.2","30.69","0.0"],
    [1400537,"2026-02-23 17:10:00","38117","1.329","192.5","3.397","162.8","1022.862","13.88","84.0","22.38","0.0"],
    [1400538,"2026-02-23 17:20:00","38118","1.7280000000000002","183.2","2.679","173.9","1022.937","13.76","85.3","14.74","0.0"],
    [1400539,"2026-02-23 17:30:00","38119","1.5530000000000002","198.7","3.071","243.8","1022.9630000000001","13.55","86.2","6.615","0.0"],
    [1400540,"2026-02-23 17:40:00","38120","1.3840000000000001","210.9","2.515","213.4","1022.914","13.37","86.9","0.7659999999999999","0.0"],
    [1400541,"2026-02-23 17:50:00","38121","1.2590000000000001","211.3","2.548","230.7","1022.9119999999999","13.29","87.0","-2.15","0.0"],
    [1400542,"2026-02-23 18:00:00","38122","1.245","203.6","2.319","215.7","1022.954","13.27","87.3","-2.778","0.0"],
    [1400543,"2026-02-23 18:10:00","38123","0.716","191.7","2.025","171.2","1023.0060000000001","13.1","87.5","-3.284","0.0"],
    [1400544,"2026-02-23 18:20:00","38124","0.652","187.9","2.025","212.8","1023.081","13.06","86.6","-3.3989999999999996","0.0"],
    [1400545,"2026-02-23 18:30:00","38125","1.253","191.8","2.973","194.4","1023.185","13.06","87.0","-3.27","0.0"],
    [1400546,"2026-02-23 18:40:00","38126","1.3259999999999998","205.3","3.169","207.6","1023.212","13.09","85.9","-3.3789999999999996","0.0"],
    [1400547,"2026-02-23 18:50:00","38127","1.4509999999999998","203.6","2.679","218","1023.252","13.18","84.4","-3.46","0.0"],
    [1400548,"2026-02-23 19:00:00","38128","1.4409999999999998","226.7","2.45","217.9","1023.263","13.11","85.4","-3.2489999999999997","0.0"],
    [1400549,"2026-02-23 19:10:00","38129","1.2009999999999998","237.8","1.96","244","1023.25","12.94","86.2","-3.287","0.0"],
    [1400550,"2026-02-23 19:20:00","38130","1.077","231.4","1.797","233.5","1023.2689999999999","12.85","86.0","-3.326","0.0"],
    [1400551,"2026-02-23 19:30:00","38131","1.133","227.6","2.221","231","1023.248","12.76","85.5","-3.449","0.0"],
    [1400552,"2026-02-23 19:40:00","38132","1.247","243.1","1.993","235.6","1023.23","12.79","85.9","-3.2230000000000003","0.0"],
    [1400553,"2026-02-23 19:50:00","38133","1.219","241.7","2.156","223.3","1023.242","12.69","83.6","-3.4939999999999998","0.0"],
    [1400554,"2026-02-23 20:00:00","38134","1.189","233.7","2.352","213","1023.2710000000001","12.66","84.2","-3.47","0.0"],
    [1400555,"2026-02-23 20:10:00","38135","1.719","225.8","2.842","219","1023.2860000000001","12.69","84.8","-3.389","0.0"],
    [1400556,"2026-02-23 20:20:00","38136","1.69","225.7","2.907","222.7","1023.2410000000001","12.76","85.5","-3.135","0.0"],
    [1400557,"2026-02-23 20:30:00","38137","1.16","232.7","2.777","224.6","1023.201","12.82","86.4","-3.01","0.0"],
    [1400558,"2026-02-23 20:40:00","38138","0.81","242.8","1.633","232.2","1023.145","12.55","87.8","-2.86","0.0"],
    [1400559,"2026-02-23 20:50:00","38139","1.101","241.1","2.025","235.1","1023.1460000000001","12.41","87.7","-3.069","0.0"],
    [1400560,"2026-02-23 21:00:00","38140","0.736","255.6","1.601","250.1","1023.1039999999999","12.19","87.4","-2.9810000000000003","0.0"],
    [1400561,"2026-02-23 21:10:00","38141","0.256","269.0","0.915","269","1023.138","11.59","88.5","-3.023","0.0"],
    [1400562,"2026-02-23 21:20:00","38142","0.237","270.9","0.849","269","1023.133","11.4","90.5","-2.903","0.0"],
    [1400563,"2026-02-23 21:30:00","38143","0.08900000000000001","272.0","0.457","272","1023.125","11.05","91.2","-2.761","0.0"],
    [1400564,"2026-02-23 21:40:00","38144","0.54","284.6","0.947","303.3","1023.095","10.9","91.9","-2.761","0.0"],
    [1400565,"2026-02-23 21:50:00","38145","0.11900000000000001","272.3","0.751","272.1","1023.1610000000001","10.96","91.6","-2.761","0.0"],
    [1400566,"2026-02-23 22:00:00","38146","0.376","268.2","1.666","270.3","1023.154","10.78","90.5","-2.775","0.0"],
    [1400567,"2026-02-23 22:10:00","38147","1.168","265.6","1.666","258.8","1023.164","10.83","88.6","-3.182","0.0"],
    [1400568,"2026-02-23 22:20:00","38148","1.072","257.0","1.633","257.6","1023.1619999999999","11.13","85.3","-3.469","0.0"],
    [1400569,"2026-02-23 22:30:00","38149","1.3880000000000001","275.7","2.189","282","1023.179","11.13","82.8","-3.549","0.0"],
    [1400570,"2026-02-23 22:40:00","38150","0.894","260.6","1.437","271.3","1023.168","10.88","83.2","-3.5039999999999996","0.0"],
    [1400571,"2026-02-23 22:50:00","38151","0.9309999999999999","269.9","1.47","277.8","1023.069","10.76","83.3","-3.484","0.0"],
    [1400572,"2026-02-23 23:00:00","38152","1.598","272.6","2.287","273.8","1022.934","10.86","82.7","-3.5069999999999997","0.0"],
    [1400573,"2026-02-23 23:10:00","38153","1.028","281.6","2.091","278.2","1022.847","10.5","82.9","-3.2939999999999996","0.0"],
    [1400574,"2026-02-23 23:20:00","38154","1.879","277.0","2.417","274.4","1022.794","10.42","84.2","-3.339","0.0"],
    [1400575,"2026-02-23 23:30:00","38155","1.584","278.5","2.156","279.8","1022.735","10.48","83.4","-2.915","0.0"],
    [1400576,"2026-02-23 23:40:00","38156","1.5090000000000001","274.6","2.025","275.1","1022.727","10.49","83.3","-3.012","0.0"],
    [1400577,"2026-02-23 23:50:00","38157","1.818","273.8","2.189","260.3","1022.683","10.5","82.9","-3.0269999999999997","0.0"],
    [1400578,"2026-02-24 00:00:00","38158","1.689","271.5","2.254","279.3","1022.613","10.39","83.3","-2.8160000000000003","0.0"],
    [1400579,"2026-02-24 00:10:00","38159","1.673","272.4","2.679","291.5","1022.466","10.37","83.3","-2.8569999999999998","0.0"],
    [1400580,"2026-02-24 00:20:00","38160","1.794","284.2","2.613","286.3","1022.3810000000001","10.22","83.4","-2.7689999999999997","0.0"],
    [1400581,"2026-02-24 00:30:00","38161","1.6380000000000001","290.2","2.613","274.9","1022.32","9.87","84.5","-2.7710000000000004","0.0"],
    [1400582,"2026-02-24 00:40:00","38162","1.27","289.7","2.058","280.5","1022.2739999999999","9.51","85.7","-2.8789999999999996","0.0"],
    [1400583,"2026-02-24 00:50:00","38163","1.19","293.1","2.025","263.2","1022.212","9.34","86.5","-2.807","0.0"],
    [1400584,"2026-02-24 01:00:00","38164","1.405","292.6","2.646","279.6","1022.1389999999999","9.26","87.1","-2.772","0.0"],
    [1400585,"2026-02-24 01:10:00","38165","2.06","285.5","3.169","279.1","1022.075","9.5","86.4","-2.8369999999999997","0.0"],
    [1400586,"2026-02-24 01:20:00","38166","1.63","292.3","2.613","290.2","1021.9739999999999","9.42","85.7","-2.761","0.0"],
    [1400587,"2026-02-24 01:30:00","38167","1.4240000000000002","296.5","2.548","302.8","1021.8739999999999","9.46","85.3","-2.772","0.0"],
    [1400588,"2026-02-24 01:40:00","38168","1.071","292.6","1.96","300.1","1021.807","9.56","84.3","-2.8689999999999998","0.0"],
    [1400589,"2026-02-24 01:50:00","38169","1.004","286.9","1.568","279.6","1021.707","9.66","83.3","-2.909","0.0"],
    [1400590,"2026-02-24 02:00:00","38170","1.036","280.4","1.862","277.5","1021.66","10.16","81.0","-2.855","0.0"],
    [1400591,"2026-02-24 02:10:00","38171","1.209","269.6","1.96","267.9","1021.638","10.67","78.16","-3.13","0.0"],
    [1400592,"2026-02-24 02:20:00","38172","1.3619999999999999","267.4","2.221","280.2","1021.575","10.45","78.11","-3.057","0.0"],
    [1400593,"2026-02-24 02:30:00","38173","1.923","267.2","2.875","273.9","1021.4580000000001","10.24","79.05","-3.031","0.0"],
    [1400594,"2026-02-24 02:40:00","38174","1.9980000000000002","271.4","2.777","277.1","1021.293","10.28","78.77","-3.022","0.0"],
    [1400595,"2026-02-24 02:50:00","38175","1.6340000000000001","272.2","2.483","278","1021.182","10.32","78.13","-2.9560000000000004","0.0"],
    [1400596,"2026-02-24 03:00:00","38176","1.649","250.9","2.907","255.3","1021.123","10.15","78.38","-2.88","0.0"],
    [1400597,"2026-02-24 03:10:00","38177","2.003","266.8","3.332","292.2","1021.063","10.19","78.18","-2.908","0.0"],
    [1400598,"2026-02-24 03:20:00","38178","2.238","272.7","4.737","293.1","1021.041","10.14","77.83","-2.798","0.0"],
    [1400599,"2026-02-24 03:30:00","38179","2.786","279.0","4.737","310.9","1020.988","10.15","77.53","-2.9810000000000003","0.0"],
    [1400600,"2026-02-24 03:40:00","38180","2.8819999999999997","284.2","5.161","293.2","1020.938","10.55","75.54","-3.014","0.0"],
    [1400601,"2026-02-24 03:50:00","38181","1.778","264.7","3.822","255","1020.971","10.69","74.3","-2.903","0.0"],
    [1400602,"2026-02-24 04:00:00","38182","2.2840000000000003","265.5","4.214","251.2","1020.99","10.94","72.75","-2.839","0.0"],
    [1400603,"2026-02-24 04:10:00","38183","2.077","263.4","4.704","265.5","1020.946","10.85","72.67","-2.764","0.0"],
    [1400604,"2026-02-24 04:20:00","38184","2.399","255.8","4.933","251.6","1020.8660000000001","10.85","72.4","-2.7710000000000004","0.0"],
    [1400605,"2026-02-24 04:30:00","38185","2.477","267.4","4.835","273.4","1020.773","11.05","71.07","-2.793","0.0"],
    [1400606,"2026-02-24 04:40:00","38186","2.532","268.9","4.508","257.6","1020.753","10.64","72.82","-2.7430000000000003","0.0"],
    [1400607,"2026-02-24 04:50:00","38187","2.124","240.7","3.887","264.5","1020.709","10.72","72.01","-2.755","0.0"],
    [1400608,"2026-02-24 05:00:00","38188","1.974","240.4","3.495","260.9","1020.695","10.49","72.38","-2.762","0.0"],
    [1400609,"2026-02-24 05:10:00","38189","1.946","255.3","3.887","250.5","1020.655","10.43","72.51","-2.762","0.0"],
    [1400610,"2026-02-24 05:20:00","38190","2.2769999999999997","259.2","3.855","265","1020.617","10.51","71.86","-2.763","0.0"],
    [1400611,"2026-02-24 05:30:00","38191","2.17","267.0","4.116","258.6","1020.6010000000001","10.48","71.43","-2.748","0.0"],
    [1400612,"2026-02-24 05:40:00","38192","1.7309999999999999","276.5","4.083","275.9","1020.602","9.96","73.71","-2.75","0.0"],
    [1400613,"2026-02-24 05:50:00","38193","2.352","275.1","4.214","284.2","1020.6260000000001","9.63","75.11","-2.764","0.0"],
    [1400614,"2026-02-24 06:00:00","38194","1.956","261.6","3.985","254.5","1020.668","9.71","74.34","-2.761","0.0"],
    [1400615,"2026-02-24 06:10:00","38195","1.827","266.5","3.463","278.9","1020.605","9.71","73.89","-2.762","0.0"],
    [1400616,"2026-02-24 06:20:00","38196","1.579","252.4","3.92","279.9","1020.6010000000001","9.66","73.96","-2.17","0.0"],
    [1400617,"2026-02-24 06:30:00","38197","1.742","252.8","3.43","281.2","1020.591","9.69","73.53","0.348","0.0"],
    [1400618,"2026-02-24 06:40:00","38198","2.089","263.9","4.377","274.9","1020.584","9.65","73.49","4.51","0.0"],
    [1400619,"2026-02-24 06:50:00","38199","2.142","259.0","4.051","272.4","1020.617","9.71","72.97","11.81","0.0"],
    [1400620,"2026-02-24 07:00:00","38200","1.953","257.7","4.018","259.5","1020.62","9.92","71.81","19.51","0.0"],
    [1400621,"2026-02-24 07:10:00","38201","1.883","260.3","3.985","275.1","1020.655","10.14","70.78","27.01","0.0"],
    [1400622,"2026-02-24 07:20:00","38202","2.026","266.7","3.887","267.3","1020.6460000000001","10.21","70.41","34.27","0.0"],
    [1400623,"2026-02-24 07:30:00","38203","2.375","255.0","5.161","277","1020.6389999999999","10.25","70.22","40.71","0.0"],
    [1400624,"2026-02-24 07:40:00","38204","1.682","235.9","2.809","233.1","1020.732","10.53","69.09","46.27","0.0"],
    [1400625,"2026-02-24 07:50:00","38205","2.155","233.8","3.789","248","1020.7660000000001","10.75","68.32","138.6","0.0"],
    [1400626,"2026-02-24 08:00:00","38206","2.1109999999999998","239.5","3.593","252.3","1020.758","11.17","67.2","199.5","0.0"],
    [1400627,"2026-02-24 08:10:00","38207","2.06","235.3","3.92","275.1","1020.725","11.65","65.34","226.6","0.0"],
    [1400628,"2026-02-24 08:20:00","38208","2.505","235.1","4.181","269.9","1020.6619999999999","12.04","63.53","258.4","0.0"],
    [1400629,"2026-02-24 08:40:00","38209","2.6630000000000003","228.5","4.541","224.5","1020.6010000000001","12.88","59.94","328.9","0.0"],
    [1400630,"2026-02-24 08:50:00","38210","2.512","229.7","4.345","236.2","1020.544","13.31","58.72","367.5","0.0"],
    [1400631,"2026-02-24 09:00:00","38211","2.313","229.3","4.312","257.2","1020.443","13.63","57.53","394.6","0.0"],
    [1400632,"2026-02-24 09:10:00","38212","2.515","224.9","3.593","214.9","1020.4010000000001","13.9","57.5","410.6","0.0"],
    [1400633,"2026-02-24 09:20:00","38213","2.545","223.4","3.953","220.1","1020.39","14.0","58.47","424.5","0.0"],
    [1400634,"2026-02-24 09:30:00","38214","2.577","220.1","3.822","207.1","1020.345","14.21","58.11","468.9","0.0"],
    [1400635,"2026-02-24 09:40:00","38215","2.727","217.2","4.345","240.7","1020.258","14.54","56.89","481.8","0.0"],
    [1400636,"2026-02-24 09:50:00","38216","2.759","212.9","3.887","200.6","1020.212","14.93","56.53","536.0","0.0"],
    [1400637,"2026-02-24 10:00:00","38217","2.474","213.9","3.822","217.8","1020.123","15.33","61.34","546.7","0.0"],
    [1400638,"2026-02-24 10:10:00","38218","2.1519999999999997","204.7","3.757","196.8","1020.0419999999999","15.33","64.22","560.4","0.0"],
    [1400639,"2026-02-24 10:20:00","38219","2.4859999999999998","195.7","4.279","220.9","1020.074","15.68","64.29","594.6","0.0"],
    [1400640,"2026-02-24 10:30:00","38220","2.559","202.8","4.443","202.1","1020.068","15.56","70.69","619.9","0.0"],
    [1400641,"2026-02-24 10:40:00","38221","2.7710000000000004","204.9","5.194","215.8","1020.0219999999999","14.95","74.23","637.1","0.0"],
    [1400642,"2026-02-24 10:50:00","38222","2.925","201.1","5.325","206.8","1020.057","14.46","76.37","635.7","0.0"],
    [1400643,"2026-02-24 11:00:00","38223","3.358","206.6","6.207","213.8","1020.005","13.74","78.76","604.6","0.0"],
    [1400644,"2026-02-24 11:10:00","38224","4.43","217.1","6.109","209.7","1020.0","13.04","80.9","567.4","0.0"],
    [1400645,"2026-02-24 11:20:00","38225","3.7539999999999996","213.9","5.227","222","1019.96","13.0","81.9","647.6","0.0"],
    [1400646,"2026-02-24 11:30:00","38226","3.6430000000000002","212.4","5.39","214.3","1019.8530000000001","13.13","81.5","638.0","0.0"],
    [1400647,"2026-02-24 11:40:00","38227","3.0469999999999997","212.0","5.717","197.1","1019.7","13.82","78.62","685.5","0.0"],
    [1400648,"2026-02-24 11:50:00","38228","3.7680000000000002","212.0","6.305","194.5","1019.581","13.71","77.81","636.0","0.0"],
    [1400649,"2026-02-24 12:00:00","38229","3.748","214.1","6.141","218.3","1019.424","13.81","78.49","629.0","0.0"],
    [1400650,"2026-02-24 12:10:00","38230","3.47","205.2","6.109","228.2","1019.295","13.75","78.98","614.7","0.0"],
    [1400651,"2026-02-24 12:20:00","38231","3.5439999999999996","209.3","6.501","210.3","1019.177","13.86","78.46","623.4","0.0"],
    [1400652,"2026-02-24 12:30:00","38232","4.609","212.1","6.599","223.2","1019.04","13.3","79.46","612.1","0.0"],
    [1400653,"2026-02-24 12:40:00","38233","4.629","215.9","6.501","217.4","1018.9019999999999","13.35","79.99","621.2","0.0"],
    [1400654,"2026-02-24 12:50:00","38234","4.441","213.8","6.631","214.2","1018.796","13.55","79.85","576.6","0.0"],
    [1400655,"2026-02-24 13:00:00","38235","4.66","215.0","6.991","218.8","1018.677","13.47","79.97","547.0","0.0"],
    [1400656,"2026-02-24 13:10:00","38236","4.205","216.4","7.938","228","1018.558","13.62","80.1","562.7","0.0"],
    [1400657,"2026-02-24 13:20:00","38237","4.373","223.1","7.219","209.5","1018.405","13.88","78.88","503.7","0.0"],
    [1400658,"2026-02-24 13:30:00","38238","4.215","217.6","6.762","216.3","1018.255","14.16","78.28","486.0","0.0"],
    [1400659,"2026-02-24 13:40:00","38239","3.955","216.0","6.664","224.6","1018.1389999999999","14.36","77.49","521.5","0.0"],
    [1400660,"2026-02-24 13:50:00","38240","4.294","219.9","6.501","214.3","1018.005","14.5","76.41","518.8","0.0"],
    [1400661,"2026-02-24 14:00:00","38241","3.9360000000000004","215.9","7.219","217.1","1017.88","14.58","75.62","497.8","0.0"],
    [1400662,"2026-02-24 14:10:00","38242","4.052","213.0","6.631","220.9","1017.7769999999999","14.78","74.43","481.6","0.0"],
    [1400663,"2026-02-24 14:20:00","38243","4.209","217.6","6.762","217","1017.668","14.52","75.46","439.5","0.0"],
    [1400664,"2026-02-24 14:30:00","38244","4.118","215.3","6.403","223.4","1017.554","14.49","75.57","511.8","0.0"],
    [1400665,"2026-02-24 14:40:00","38245","4.75","211.2","7.285","208.9","1017.3960000000001","14.52","76.19","502.5","0.0"],
    [1400666,"2026-02-24 14:50:00","38246","4.689","210.4","7.448","203.7","1017.324","14.45","76.5","444.1","0.0"],
    [1400667,"2026-02-24 15:00:00","38247","4.803999999999999","211.1","7.579","223.6","1017.299","13.94","78.76","414.9","0.0"],
    [1400668,"2026-02-24 15:10:00","38248","2.9130000000000003","208.2","5.586","217.1","1017.2660000000001","14.48","77.17","420.5","0.0"],
    [1400669,"2026-02-24 15:20:00","38249","3.049","206.5","5.357","193.6","1017.2869999999999","14.54","76.52","427.3","0.0"],
    [1400670,"2026-02-24 15:30:00","38250","4.145","208.9","7.187","217.2","1017.315","14.17","77.51","401.2","0.0"],
    [1400671,"2026-02-24 15:40:00","38251","3.781","212.9","7.317","211.8","1017.2810000000001","14.03","77.77","364.7","0.0"],
    [1400672,"2026-02-24 15:50:00","38252","4.705","219.2","7.35","224.7","1017.2639999999999","13.91","77.65","338.9","0.0"],
    [1400673,"2026-02-24 16:00:00","38253","4.626","213.2","7.677","221.2","1017.2689999999999","13.68","79.21","304.8","0.0"],
    [1400674,"2026-02-24 16:10:00","38254","4.539","210.9","7.285","227.2","1017.2339999999999","13.41","80.1","266.1","0.0"],
    [1400675,"2026-02-24 16:20:00","38255","5.196000000000001","213.6","7.415","220.9","1017.212","13.2","80.8","238.8","0.0"],
    [1400676,"2026-02-24 16:30:00","38256","4.01","209.0","7.775","230.7","1017.2139999999999","13.11","81.0","183.4","0.0"],
    [1400677,"2026-02-24 16:40:00","38257","4.184","214.8","7.611","212.8","1017.188","12.89","82.5","166.7","0.0"],
    [1400678,"2026-02-24 16:50:00","38258","4.173","218.6","7.415","213.5","1017.203","12.86","82.4","144.5","0.0"],
    [1400679,"2026-02-24 17:00:00","38259","4.16","214.7","6.599","206.6","1017.305","12.53","84.2","68.32","0.0"],
    [1400680,"2026-02-24 17:10:00","38260","3.915","218.5","6.795","204.8","1017.357","12.33","85.4","47.66","0.0"],
    [1400681,"2026-02-24 17:20:00","38261","4.218","220.5","6.174","219.1","1017.3810000000001","12.28","86.0","32.47","0.0"],
    [1400682,"2026-02-24 17:30:00","38262","3.759","217.6","6.207","230.6","1017.387","12.21","86.6","16.83","0.0"],
    [1400683,"2026-02-24 17:40:00","38263","4.2139999999999995","218.0","6.925","223.6","1017.467","12.19","87.6","6.031000000000001","0.0"],
    [1400684,"2026-02-24 17:50:00","38264","3.716","219.1","7.513","227.2","1017.52","12.14","88.3","0.39799999999999996","0.0"],
    [1400685,"2026-02-24 18:00:00","38265","2.968","222.5","5.357","238.8","1017.558","12.09","89.0","-1.9569999999999999","0.0"],
    [1400686,"2026-02-24 18:10:00","38266","2.27","225.8","4.443","234.7","1017.635","12.0","89.3","-2.7489999999999997","0.0"],
    [1400687,"2026-02-24 18:20:00","38267","2.245","231.6","4.933","224.3","1017.6619999999999","12.02","89.6","-2.7560000000000002","0.0"],
    [1400688,"2026-02-24 18:30:00","38268","3.24","226.0","5.717","211.4","1017.648","12.12","89.5","-2.761","0.0"],
    [1400689,"2026-02-24 18:40:00","38269","2.98","226.3","5.325","230.8","1017.665","12.15","89.3","-2.7560000000000002","0.0"],
    [1400690,"2026-02-24 18:50:00","38270","3.3","222.3","5.717","208.9","1017.677","12.13","89.7","-2.752","0.0"],
    [1400691,"2026-02-24 19:00:00","38271","2.9610000000000003","221.8","5.39","219.3","1017.7639999999999","12.16","90.0","-2.718","0.0"],
    [1400692,"2026-02-24 19:10:00","38272","2.577","220.7","4.606","208.4","1017.8610000000001","12.15","90.4","-2.716","0.0"],
    [1400693,"2026-02-24 19:20:00","38273","2.6630000000000003","224.2","5.913","212.1","1017.885","12.18","90.8","-2.742","0.0"],
    [1400694,"2026-02-24 19:30:00","38274","2.841","220.6","4.41","209.1","1017.948","12.16","90.9","-2.719","0.0"],
    [1400695,"2026-02-24 19:40:00","38275","2.948","226.9","4.345","218.1","1017.937","12.25","90.9","-2.667","0.0"],
    [1400696,"2026-02-24 19:50:00","38276","3.141","228.1","6.207","220","1017.9","12.31","90.6","-2.7310000000000003","0.0"],
    [1400697,"2026-02-24 20:00:00","38277","2.9730000000000003","227.0","6.109","222.3","1017.931","12.29","90.6","-2.755","0.0"],
    [1400698,"2026-02-24 20:10:00","38278","3.055","224.6","5.455","222.2","1017.9960000000001","12.31","90.7","-2.75","0.0"],
    [1400699,"2026-02-24 20:20:00","38279","1.9469999999999998","234.4","3.397","234.9","1017.9839999999999","12.2","90.9","-2.739","0.0"],
    [1400700,"2026-02-24 20:30:00","38280","2.285","229.0","4.508","224.9","1018.008","12.08","91.5","-2.7460000000000004","0.0"],
    [1400701,"2026-02-24 20:40:00","38281","1.47","237.8","2.973","235.2","1018.061","12.0","91.6","-2.675","0.0"],
    [1400702,"2026-02-24 20:50:00","38282","1.757","229.5","3.659","220.6","1018.029","11.98","92.0","-2.623","0.0"],
    [1400703,"2026-02-24 21:00:00","38283","1.847","232.4","4.149","211.8","1017.9739999999999","11.92","92.1","-2.715","0.0"],
    [1400704,"2026-02-24 21:10:00","38284","2.197","229.4","3.397","217.2","1017.948","11.97","92.3","-2.721","0.0"],
    [1400705,"2026-02-24 21:20:00","38285","1.3319999999999999","238.7","3.724","223.4","1017.98","11.89","92.4","-2.5340000000000003","0.0"],
    [1400706,"2026-02-24 21:30:00","38286","1.099","248.8","2.613","252","1017.97","11.74","92.9","-2.349","0.0"],
    [1400707,"2026-02-24 21:40:00","38287","1.304","237.2","3.626","201.1","1017.965","11.66","93.2","-1.7890000000000001","0.0"],
    [1400708,"2026-02-24 21:50:00","38288","1.859","234.1","3.985","203.1","1017.9889999999999","11.76","93.6","-1.27","0.0"],
    [1400709,"2026-02-24 22:00:00","38289","1.686","232.6","3.43","219.2","1017.961","11.8","93.8","-1.261","0.0"],
    [1400710,"2026-02-24 22:10:00","38290","1.682","232.3","3.234","206.8","1017.9960000000001","11.8","94.0","-1.261","0.0"],
    [1400711,"2026-02-24 22:20:00","38291","2.22","230.6","3.855","211","1017.99","11.79","94.2","-1.261","0.0"],
    [1400712,"2026-02-24 22:30:00","38292","2.8169999999999997","227.3","4.639","236.2","1017.957","11.69","94.3","-1.0979999999999999","0.0"],
    [1400713,"2026-02-24 22:40:00","38293","2.8480000000000003","226.9","4.606","209.9","1017.893","11.53","94.8","-1.13","0.0"],
    [1400714,"2026-02-24 22:50:00","38294","2.194","233.4","3.691","214.1","1017.863","11.37","94.9","-1.8219999999999998","0.0"],
    [1400715,"2026-02-24 23:00:00","38295","2.057","230.3","3.822","209.4","1017.816","11.22","94.9","-2.026","0.0"],
    [1400716,"2026-02-24 23:10:00","38296","1.482","233.4","2.581","256.8","1017.8660000000001","11.1","94.8","-2.594","0.0"],
    [1400717,"2026-02-24 23:20:00","38297","1.479","234.5","2.744","215.8","1017.872","10.97","94.7","-2.605","0.0"],
    [1400718,"2026-02-24 23:30:00","38298","1.473","233.8","3.005","228.8","1017.818","10.91","94.7","-2.656","0.0"],
    [1400719,"2026-02-24 23:40:00","38299","1.393","229.3","2.091","215.5","1017.747","10.82","94.7","-2.627","0.0"],
    [1400720,"2026-02-24 23:50:00","38300","1.0659999999999998","234.8","1.96","238.1","1017.695","10.63","94.8","-2.605","0.0"],
    [1400721,"2026-02-25 00:00:00","38301","1.156","243.4","1.993","263","1017.705","10.49","95.1","-2.5869999999999997","0.0"],
    [1400722,"2026-02-25 00:10:00","38302","1.5959999999999999","253.8","2.973","260.1","1017.722","10.15","94.5","-2.445","0.0"],
    [1400723,"2026-02-25 00:20:00","38303","1.7280000000000002","260.2","3.071","265.7","1017.722","9.91","90.8","-3.409","0.0"],
    [1400724,"2026-02-25 00:30:00","38304","1.524","241.4","2.613","284.1","1017.664","10.09","87.3","-3.6239999999999997","0.0"],
    [1400725,"2026-02-25 00:40:00","38305","1.8430000000000002","228.4","2.744","219.6","1017.6239999999999","10.13","88.9","-3.0180000000000002","0.0"],
    [1400726,"2026-02-25 00:50:00","38306","1.405","230.9","2.417","224.8","1017.673","9.65","89.5","-2.888","0.0"],
    [1400727,"2026-02-25 01:00:00","38307","1.466","234.3","2.287","233.9","1017.686","9.58","87.9","-3.497","0.0"],
    [1400728,"2026-02-25 01:10:00","38308","1.462","233.5","2.744","245.7","1017.7560000000001","9.77","85.9","-3.589","0.0"],
    [1400729,"2026-02-25 01:20:00","38309","1.7890000000000001","232.1","2.842","247.4","1017.7810000000001","10.12","83.5","-4.003","0.0"],
    [1400730,"2026-02-25 01:30:00","38310","1.821","230.0","2.744","223.8","1017.831","10.39","82.1","-3.963","0.0"],
    [1400731,"2026-02-25 01:40:00","38311","1.8119999999999998","231.9","3.136","229.2","1017.837","10.73","82.7","-3.8360000000000003","0.0"],
    [1400732,"2026-02-25 01:50:00","38312","2.157","228.5","3.071","226.8","1017.803","10.81","88.0","-2.945","0.0"],
    [1400733,"2026-02-25 02:00:00","38313","2.26","218.0","3.103","232.9","1017.831","10.15","92.8","-1.359","0.0"],
    [1400734,"2026-02-25 02:10:00","38314","2.316","215.5","3.201","205.1","1017.828","9.77","95.2","-1.236","0.0"],
    [1400735,"2026-02-25 02:20:00","38315","1.874","208.5","3.201","205.1","1017.8439999999999","9.65","96.3","-1.234","0.0"],
    [1400736,"2026-02-25 02:30:00","38316","2.17","215.5","3.332","220.1","1017.796","10.21","96.9","-1.261","0.0"],
    [1400737,"2026-02-25 02:40:00","38317","2.8760000000000003","211.9","4.41","217.1","1017.738","10.63","97.0","-1.077","0.0"],
    [1400738,"2026-02-25 02:50:00","38318","3.0010000000000003","208.3","4.508","204.6","1017.7510000000001","10.63","97.0","-0.5379999999999999","0.0"],
    [1400739,"2026-02-25 03:00:00","38319","3.0060000000000002","212.6","4.443","205.9","1017.752","10.47","97.1","-0.513","0.0"],
    [1400740,"2026-02-25 03:10:00","38320","2.432","217.5","3.691","210.1","1017.822","10.15","97.2","-0.569","0.0"],
    [1400741,"2026-02-25 03:20:00","38321","1.3630000000000002","231.6","2.744","236.6","1017.841","9.85","97.3","-0.762","0.0"],
    [1400742,"2026-02-25 03:30:00","38322","0.9059999999999999","237.8","1.666","224.1","1017.8889999999999","9.37","97.3","-1.256","0.0"],
    [1400743,"2026-02-25 03:40:00","38323","0.654","241.2","1.307","272.4","1017.914","9.15","97.4","-1.5859999999999999","0.0"],
    [1400744,"2026-02-25 03:50:00","38324","0.595","231.5","1.568","238","1017.9810000000001","8.97","97.5","-2.421","0.0"],
    [1400745,"2026-02-25 04:00:00","38325","0.805","256.5","1.764","247.6","1018.08","8.73","97.5","-2.4930000000000003","0.0"],
    [1400746,"2026-02-25 04:10:00","38326","1.04","234.3","1.601","233.1","1018.18","8.51","97.5","-2.4530000000000003","0.0"],
    [1400747,"2026-02-25 04:20:00","38327","1.202","237.2","1.862","253.3","1018.222","7.912999999999999","97.4","-2.006","0.0"],
    [1400748,"2026-02-25 04:30:00","38328","0.45899999999999996","240.8","1.176","237.1","1018.337","7.647","97.5","-2.378","0.0"],
    [1400749,"2026-02-25 04:40:00","38329","0.001","261.2","0.033","261.2","1018.375","7.314","97.4","-2.752","0.0"],
    [1400750,"2026-02-25 04:50:00","38330","0.079","268.6","0.457","268.4","1018.3910000000001","7.103","97.4","-2.764","0.0"],
    [1400751,"2026-02-25 05:00:00","38331","0.0","0.0","0","0","1018.445","7.0","97.4","-2.701","0.0"],
    [1400752,"2026-02-25 05:10:00","38332","0.0","315.6","0.033","315.6","1018.562","7.169","97.5","-1.001","0.0"],
    [1400753,"2026-02-25 05:20:00","38333","0.0","0.0","0","0","1018.674","7.585","97.6","-0.059000000000000004","0.0"],
    [1400754,"2026-02-25 05:30:00","38334","0.026000000000000002","315.6","0.457","315.8","1018.7810000000001","7.845","97.5","0.039","0.0"],
    [1400755,"2026-02-25 05:40:00","38335","1.093","39.24","2.613","27.98","1018.927","8.68","97.7","-0.725","0.0"],
    [1400756,"2026-02-25 05:50:00","38336","3.05","38.24","4.606","31.41","1019.03","10.1","97.8","-1.791","0.0"],
    [1400757,"2026-02-25 06:00:00","38337","3.045","35.07","4.541","31.75","1019.166","10.38","97.5","-0.6990000000000001","0.0"],
    [1400758,"2026-02-25 06:10:00","38338","2.088","40.39","3.071","45.98","1019.199","10.54","97.3","-0.292","0.0"],
    [1400759,"2026-02-25 06:20:00","38339","2.475","38.73","4.181","48.68","1019.285","10.62","97.1","0.198","0.0"],
    [1400760,"2026-02-25 06:30:00","38340","3.2260000000000004","44.74","5.357","43.69","1019.346","10.67","96.9","0.995","0.0"],
    [1400761,"2026-02-25 06:40:00","38341","3.407","38.05","5.292","24.32","1019.421","10.74","96.6","2.614","0.0"],
    [1400762,"2026-02-25 06:50:00","38342","3.1719999999999997","36.33","4.704","30.29","1019.54","10.87","96.0","5.111000000000001","0.0"],
    [1400763,"2026-02-25 07:00:00","38343","3.1260000000000003","45.03","5.325","35.74","1019.72","11.0","95.0","8.43","0.0"],
    [1400764,"2026-02-25 07:10:00","38344","3.205","52.97","4.965","39.43","1019.875","11.18","93.8","13.61","0.0"],
    [1400765,"2026-02-25 07:20:00","38345","3.73","53.46","5.325","63.53","1020.028","11.38","92.0","17.38","0.0"],
    [1400766,"2026-02-25 07:30:00","38346","4.335","55.57","5.978","51.13","1020.243","11.44","91.3","25.15","0.0"],
    [1400767,"2026-02-25 07:40:00","38347","3.448","65.96","5.161","73.25","1020.3760000000001","11.38","90.7","39.91","0.0"],
    [1400768,"2026-02-25 07:50:00","38348","3.764","70.6","5.455","67.24","1020.418","11.5","90.8","53.22","0.0"],
    [1400769,"2026-02-25 08:00:00","38349","3.3139999999999996","73.51","4.933","79.69","1020.4939999999999","11.58","91.2","51.78","0.0"],
    [1400770,"2026-02-25 08:10:00","38350","2.847","57.87","4.149","64.32","1020.561","11.73","90.3","52.91","0.0"],
    [1400771,"2026-02-25 08:20:00","38351","3.3819999999999997","47.71","5.684","53.28","1020.6619999999999","11.88","87.5","80.8","0.0"],
    [1400772,"2026-02-25 08:30:00","38352","3.8680000000000003","56.4","5.455","51.34","1020.735","12.02","86.1","104.0","0.0"],
    [1400773,"2026-02-25 08:40:00","38353","3.9789999999999996","66.3","5.782","69.38","1020.775","12.1","85.4","91.8","0.0"],
    [1400774,"2026-02-25 08:50:00","38354","4.111000000000001","58.68","5.521","69.45","1020.832","12.18","85.0","109.8","0.0"],
    [1400775,"2026-02-25 09:00:00","38355","3.74","55.51","6.011","52.62","1020.926","12.23","85.5","84.4","0.0"],
    [1400776,"2026-02-25 09:10:00","38356","3.417","53.76","4.573","67.88","1021.008","12.34","85.7","92.3","0.0"],
    [1400777,"2026-02-25 09:20:00","38357","3.35","50.81","5.325","56.18","1021.102","12.47","84.6","106.1","0.0"],
    [1400778,"2026-02-25 09:30:00","38358","3.727","52.43","5.619","47","1021.2139999999999","12.62","83.6","144.1","0.0"],
    [1400779,"2026-02-25 09:40:00","38359","3.574","58.88","5.194","79.89","1021.293","12.78","82.7","205.1","0.0"],
    [1400780,"2026-02-25 09:50:00","38360","4.043","59.71","5.651","43.5","1021.435","12.98","82.4","209.9","0.0"],
    [1400781,"2026-02-25 10:00:00","38361","4.018","64.65","5.847","56.93","1021.534","13.25","81.6","246.2","0.0"],
    [1400782,"2026-02-25 10:10:00","38362","3.989","60.08","5.619","63.69","1021.57","13.35","81.5","243.7","0.0"],
    [1400783,"2026-02-25 10:20:00","38363","3.8","53.15","5.161","58.35","1021.655","13.43","82.1","291.8","0.0"],
    [1400784,"2026-02-25 10:30:00","38364","4.406000000000001","52.24","5.749","49.23","1021.765","13.49","82.0","375.0","0.0"],
    [1400785,"2026-02-25 10:40:00","38365","3.617","56.63","5.423","45.7","1021.8610000000001","13.62","81.6","361.8","0.0"],
    [1400786,"2026-02-25 10:50:00","38366","3.9339999999999997","58.3","5.129","43.44","1021.921","13.68","81.7","404.4","0.0"],
    [1400787,"2026-02-25 11:00:00","38367","3.878","55.54","5.521","54.64","1021.943","13.73","81.1","306.9","0.0"],
    [1400788,"2026-02-25 11:10:00","38368","3.978","55.84","5.39","54.58","1022.01","13.81","80.5","392.0","0.0"],
    [1400789,"2026-02-25 11:20:00","38369","3.585","60.32","5.325","60.97","1022.033","14.04","79.2","433.8","0.0"],
    [1400790,"2026-02-25 11:30:00","38370","3.972","59.71","5.325","68.94","1022.0239999999999","14.05","77.67","497.9","0.0"],
    [1400791,"2026-02-25 11:40:00","38371","3.858","58.88","5.619","72.29","1021.915","14.37","76.53","639.3","0.0"],
    [1400792,"2026-02-25 11:50:00","38372","4.129","58.21","5.88","59.19","1021.89","14.43","76.12","618.0","0.0"],
    [1400793,"2026-02-25 12:00:00","38373","3.786","55.9","5.619","61.11","1021.828","14.33","76.27","621.1","0.0"],
    [1400794,"2026-02-25 12:10:00","38374","4.098","63.88","5.717","74.78","1021.727","14.65","76.3","707.5","0.0"],
    [1400795,"2026-02-25 12:20:00","38375","4.216","59.72","5.782","75.98","1021.698","14.48","77.4","685.2","0.0"],
    [1400796,"2026-02-25 12:30:00","38376","4.079","51.35","5.717","47.51","1021.5989999999999","14.4","77.72","675.0","0.0"],
    [1400797,"2026-02-25 12:40:00","38377","4.163","57.46","5.717","76.92","1021.485","14.46","76.89","667.1","0.0"],
    [1400798,"2026-02-25 12:50:00","38378","4.075","58.27","5.586","52.61","1021.325","14.67","76.13","659.7","0.0"],
    [1400799,"2026-02-25 13:00:00","38379","4.243","60.76","6.207","78.34","1021.278","14.65","76.49","651.7","0.0"],
    [1400800,"2026-02-25 13:10:00","38380","4.149","68.36","5.815","80","1021.232","14.89","76.04","644.7","0.0"],
    [1400801,"2026-02-25 13:20:00","38381","4.4030000000000005","72.69","5.815","70.55","1021.211","14.83","76.22","634.7","0.0"],
    [1400802,"2026-02-25 13:30:00","38382","4.868","70.63","6.076","73.37","1021.17","14.64","76.59","624.6","0.0"],
    [1400803,"2026-02-25 13:40:00","38383","4.322","67.57","5.815","72.36","1021.107","14.81","76.73","609.5","0.0"],
    [1400804,"2026-02-25 13:50:00","38384","4.515","69.34","6.468","75.24","1021.096","14.8","76.52","596.6","0.0"],
    [1400805,"2026-02-25 14:00:00","38385","4.898","72.74","6.337","76.31","1021.033","14.76","76.95","580.9","0.0"],
    [1400806,"2026-02-25 14:10:00","38386","4.713","69.83","6.011","79.81","1021.0260000000001","14.83","77.1","560.6","0.0"],
    [1400807,"2026-02-25 14:20:00","38387","4.979","71.77","6.272","79.87","1021.05","14.87","76.31","542.4","0.0"],
    [1400808,"2026-02-25 14:30:00","38388","4.607","70.77","5.913","70.29","1021.029","15.0","76.07","519.8","0.0"],
    [1400809,"2026-02-25 14:40:00","38389","5.055","71.19","6.337","73.48","1021.063","14.86","76.51","496.2","0.0"],
    [1400810,"2026-02-25 14:50:00","38390","5.099","72.32","6.697","75.4","1021.081","14.89","76.58","469.7","0.0"],
    [1400811,"2026-02-25 15:00:00","38391","4.431","69.89","6.403","65.01","1021.0889999999999","14.87","78.31","441.7","0.0"],
    [1400812,"2026-02-25 15:10:00","38392","5.181","74.58","6.762","81.7","1021.0889999999999","14.87","77.0","414.8","0.0"],
    [1400813,"2026-02-25 15:20:00","38393","4.774","69.91","6.37","75.38","1021.1110000000001","14.79","77.33","386.9","0.0"],
    [1400814,"2026-02-25 15:30:00","38394","4.343","76.56","6.043","88.2","1021.1239999999999","14.88","77.13","358.6","0.0"],
    [1400815,"2026-02-25 15:40:00","38395","4.462","66.27","5.815","72.48","1021.14","14.79","77.34","327.1","0.0"],
    [1400816,"2026-02-25 15:50:00","38396","4.771","70.8","5.978","61.78","1021.204","14.59","78.55","297.3","0.0"],
    [1400817,"2026-02-25 16:00:00","38397","4.466","68.94","5.782","72.8","1021.26","14.6","78.3","264.8","0.0"],
    [1400818,"2026-02-25 16:10:00","38398","4.1610000000000005","69.42","5.521","67.56","1021.313","14.59","78.42","230.6","0.0"],
    [1400819,"2026-02-25 16:20:00","38399","3.6719999999999997","70.54","5.259","66.97","1021.385","14.48","78.68","196.8","0.0"],
    [1400820,"2026-02-25 16:30:00","38400","3.676","65.52","4.9","55.95","1021.449","14.42","78.95","166.8","0.0"],
    [1400821,"2026-02-25 16:40:00","38401","3.3960000000000004","63.16","4.802","68.23","1021.5360000000001","14.36","79.32","135.5","0.0"],
    [1400822,"2026-02-25 16:50:00","38402","3.6710000000000003","59.64","4.965","64.43","1021.565","14.24","79.96","105.9","0.0"],
    [1400823,"2026-02-25 17:00:00","38403","4.044","59.28","5.553","57.79","1021.6419999999999","14.03","81.2","44.38","0.0"],
    [1400824,"2026-02-25 17:10:00","38404","3.885","58.31","5.292","55.9","1021.71","13.88","81.9","26.66","0.0"],
    [1400825,"2026-02-25 17:20:00","38405","3.531","56.0","4.737","53.38","1021.799","13.77","82.3","16.8","0.0"],
    [1400826,"2026-02-25 17:30:00","38406","3.287","58.32","4.606","56.6","1022.003","13.66","82.5","9.13","0.0"],
    [1400827,"2026-02-25 17:40:00","38407","3.0039999999999996","61.77","4.41","65.31","1022.1489999999999","13.56","83.5","2.149","0.0"],
    [1400828,"2026-02-25 17:50:00","38408","2.738","59.13","4.018","61.63","1022.3","13.44","84.7","-1.339","0.0"],
    [1400829,"2026-02-25 18:00:00","38409","3.112","59.85","4.083","60.5","1022.3739999999999","13.35","85.6","-2.713","0.0"],
    [1400830,"2026-02-25 18:10:00","38410","2.8760000000000003","56.73","4.312","43.26","1022.428","13.3","86.9","-2.7539999999999996","0.0"],
    [1400831,"2026-02-25 18:20:00","38411","3.2430000000000003","58.8","4.606","54.94","1022.557","13.26","87.6","-2.764","0.0"],
    [1400832,"2026-02-25 18:30:00","38412","3.359","58.78","4.639","41.2","1022.65","13.24","87.6","-2.761","0.0"],
    [1400833,"2026-02-25 18:40:00","38413","3.056","56.77","4.214","58.49","1022.773","13.2","87.9","-2.762","0.0"],
    [1400834,"2026-02-25 18:50:00","38414","3.02","50.55","4.377","42.78","1022.9110000000001","13.18","88.1","-2.762","0.0"],
    [1400835,"2026-02-25 19:00:00","38415","3.103","51.74","4.769","57.25","1023.0039999999999","13.18","87.9","-2.766","0.0"],
    [1400836,"2026-02-25 19:10:00","38416","2.985","51.0","4.573","53.73","1023.058","13.15","87.8","-2.79","0.0"],
    [1400837,"2026-02-25 19:20:00","38417","2.841","45.52","4.508","48.73","1023.1289999999999","13.13","88.0","-2.763","0.0"],
    [1400838,"2026-02-25 19:30:00","38418","2.4419999999999997","44.82","3.757","49.05","1023.1389999999999","13.04","88.7","-2.762","0.0"],
    [1400839,"2026-02-25 19:40:00","38419","2.833","40.81","4.116","44.23","1023.181","13.0","89.1","-2.762","0.0"],
    [1400840,"2026-02-25 19:50:00","38420","3.207","37.91","4.573","21.14","1023.317","13.08","89.5","-2.656","0.0"],
    [1400841,"2026-02-25 20:00:00","38421","2.798","41.2","5.096","27.32","1023.457","13.13","89.7","-2.657","0.0"],
    [1400842,"2026-02-25 20:10:00","38422","3.085","39.81","5.586","30.08","1023.49","13.13","89.9","-2.383","0.0"],
    [1400843,"2026-02-25 20:20:00","38423","3.37","43.1","5.063","39.73","1023.622","13.15","90.0","-2.722","0.0"],
    [1400844,"2026-02-25 20:30:00","38424","3.409","43.06","5.357","46.76","1023.778","13.12","90.4","-2.6510000000000002","0.0"],
    [1400845,"2026-02-25 20:40:00","38425","2.918","42.2","5.096","55.01","1023.922","13.11","90.8","-2.18","0.0"],
    [1400846,"2026-02-25 20:50:00","38426","3.128","45.62","4.933","44.08","1023.977","13.15","90.3","-2.0269999999999997","0.0"],
    [1400847,"2026-02-25 21:00:00","38427","3.397","48.96","5.749","66.12","1024.012","13.17","89.8","-2.6060000000000003","0.0"],
    [1400848,"2026-02-25 21:10:00","38428","3.41","48.62","5.161","58.57","1024.09","13.17","89.9","-2.404","0.0"],
    [1400849,"2026-02-25 21:20:00","38429","3.592","50.71","5.063","52.38","1024.127","13.31","90.0","-1.972","0.0"],
    [1400850,"2026-02-25 21:30:00","38430","3.639","50.66","5.227","53.86","1024.1680000000001","13.33","90.5","-1.462","0.0"],
    [1400851,"2026-02-25 21:40:00","38431","3.35","55.47","5.194","54.23","1024.25","13.34","89.6","-1.261","0.0"],
    [1400852,"2026-02-25 21:50:00","38432","3.162","44.58","5.161","46.55","1024.379","13.24","87.3","-1.848","0.0"],
    [1400853,"2026-02-25 22:00:00","38433","3.4589999999999996","51.78","5.227","59.66","1024.425","13.19","87.2","-2.4730000000000003","0.0"],
    [1400854,"2026-02-25 22:10:00","38434","3.4560000000000004","47.0","5.096","56.28","1024.483","13.29","86.6","-1.347","0.0"],
    [1400855,"2026-02-25 22:20:00","38435","3.668","37.46","5.423","43.42","1024.512","13.37","85.7","-1.25","0.0"],
    [1400856,"2026-02-25 22:30:00","38436","2.7739999999999996","29.63","4.443","38.76","1024.528","13.39","84.5","-0.6809999999999999","0.0"],
    [1400857,"2026-02-25 22:40:00","38437","3.062","27.55","4.475","35.93","1024.531","13.41","84.6","-0.537","0.0"],
    [1400858,"2026-02-25 22:50:00","38438","3.0210000000000004","26.64","5.259","21.95","1024.644","13.33","85.7","-0.535","0.0"],
    [1400859,"2026-02-25 23:00:00","38439","3.2","30.56","4.802","30.9","1024.71","13.19","85.4","-0.746","0.0"],
    [1400860,"2026-02-25 23:10:00","38440","3.625","27.03","5.39","23.99","1024.787","13.03","84.9","-0.6509999999999999","0.0"],
    [1400861,"2026-02-25 23:20:00","38441","3.234","29.78","4.639","44.64","1024.7730000000001","12.77","85.5","-0.5329999999999999","0.0"],
    [1400862,"2026-02-25 23:30:00","38442","2.5610000000000004","30.49","4.116","28.09","1024.83","12.77","85.9","-0.5479999999999999","0.0"],
    [1400863,"2026-02-25 23:40:00","38443","3.1519999999999997","32.14","4.475","26.45","1024.749","12.77","85.9","-0.527","0.0"],
    [1400864,"2026-02-25 23:50:00","38444","3.178","33.58","5.194","29.74","1024.757","12.75","85.6","-0.557","0.0"],
    [1400865,"2026-02-26 00:00:00","38445","3.114","35.53","5.325","29.24","1024.826","12.66","85.2","-0.653","0.0"],
    [1400866,"2026-02-26 00:10:00","38446","3.031","43.74","4.965","63.17","1024.849","12.55","85.6","-1.079","0.0"],
    [1400867,"2026-02-26 00:20:00","38447","2.36","50.05","4.116","61.13","1024.889","12.55","85.6","-1.261","0.0"],
    [1400868,"2026-02-26 00:30:00","38448","2.2569999999999997","25.24","4.573","17.91","1024.974","12.44","85.9","-1.722","0.0"],
    [1400869,"2026-02-26 00:40:00","38449","2.85","26.58","4.083","22.53","1025.036","12.3","86.0","-2.62","0.0"],
    [1400870,"2026-02-26 00:50:00","38450","2.255","15.58","3.789","17.01","1025.095","12.18","86.1","-2.7319999999999998","0.0"],
    [1400871,"2026-02-26 01:00:00","38451","1.8840000000000001","10.15","2.907","350.6","1025.1889999999999","12.06","85.9","-2.6180000000000003","0.0"],
    [1400872,"2026-02-26 01:10:00","38452","1.584","354.5","2.483","9.2","1025.16","11.92","85.8","-2.761","0.0"],
    [1400873,"2026-02-26 01:20:00","38453","1.6669999999999998","355.3","2.581","358.5","1025.143","11.71","86.2","-2.8289999999999997","0.0"],
    [1400874,"2026-02-26 01:30:00","38454","1.3980000000000001","357.3","2.254","344.9","1025.13","11.47","86.5","-2.937","0.0"],
    [1400875,"2026-02-26 01:40:00","38455","1.445","5.202999999999999","2.352","10.75","1025.0710000000001","11.34","86.9","-2.923","0.0"],
    [1400876,"2026-02-26 01:50:00","38456","1.022","0.49700000000000005","1.764","2.211","1025.085","11.1","87.4","-2.875","0.0"],
    [1400877,"2026-02-26 02:00:00","38457","1.4169999999999998","342.2","2.091","349.6","1025.141","10.97","87.9","-3.009","0.0"],
    [1400878,"2026-02-26 02:10:00","38458","1.271","337.5","2.352","332.6","1025.171","10.98","87.9","-2.909","0.0"],
    [1400879,"2026-02-26 02:20:00","38459","1.294","349.5","1.927","351.2","1025.156","11.0","87.6","-2.763","0.0"],
    [1400880,"2026-02-26 02:30:00","38460","1.218","319.8","1.731","327.6","1025.145","10.74","87.7","-2.765","0.0"],
    [1400881,"2026-02-26 02:40:00","38461","1.29","332.3","1.927","330","1025.018","10.42","88.9","-2.819","0.0"],
    [1400882,"2026-02-26 02:50:00","38462","1.33","307.1","1.927","300.4","1025.046","10.2","89.4","-2.761","0.0"],
    [1400883,"2026-02-26 03:00:00","38463","0.73","304.7","1.535","301.1","1025.035","10.0","89.8","-2.821","0.0"],
    [1400884,"2026-02-26 03:10:00","38464","0.742","317.8","2.156","323.8","1024.9389999999999","9.7","90.4","-2.838","0.0"],
    [1400885,"2026-02-26 03:20:00","38465","1.825","315.5","2.679","314.7","1024.996","9.62","90.8","-2.77","0.0"],
    [1400886,"2026-02-26 03:30:00","38466","1.51","303.4","2.221","306.1","1025.0410000000002","9.51","90.6","-2.783","0.0"],
    [1400887,"2026-02-26 03:40:00","38467","2.0469999999999997","301.5","2.842","311.2","1025.075","9.64","90.4","-2.78","0.0"],
    [1400888,"2026-02-26 03:50:00","38468","1.6369999999999998","299.1","2.385","302.6","1025.128","9.76","89.8","-2.045","0.0"],
    [1400889,"2026-02-26 04:00:00","38469","1.129","305.1","1.96","318.9","1025.211","9.71","89.8","-2.247","0.0"],
    [1400890,"2026-02-26 04:10:00","38470","1.412","314.2","2.189","317.1","1025.244","9.65","89.6","-2.764","0.0"],
    [1400891,"2026-02-26 04:20:00","38471","1.391","319.8","2.189","315.9","1025.202","9.43","89.9","-2.9","0.0"],
    [1400892,"2026-02-26 04:30:00","38472","1.704","319.2","2.417","315.8","1025.208","9.46","90.1","-2.7889999999999997","0.0"],
    [1400893,"2026-02-26 04:40:00","38473","1.232","302.7","2.091","310.6","1025.325","9.4","89.8","-2.767","0.0"],
    [1400894,"2026-02-26 04:50:00","38474","1.183","310.3","1.993","309","1025.361","9.16","90.1","-2.779","0.0"],
    [1400895,"2026-02-26 05:00:00","38475","0.9440000000000001","311.6","1.699","312.2","1025.414","9.06","90.0","-2.7680000000000002","0.0"],
    [1400896,"2026-02-26 05:10:00","38476","1.113","304.3","2.287","299.8","1025.535","8.84","90.2","-2.8280000000000003","0.0"],
    [1400897,"2026-02-26 05:20:00","38477","1.868","312.7","2.94","314.4","1025.67","8.89","90.4","-2.778","0.0"],
    [1400898,"2026-02-26 05:30:00","38478","1.19","307.3","1.764","310.7","1025.695","8.89","90.0","-2.7689999999999997","0.0"],
    [1400899,"2026-02-26 05:40:00","38479","1.2229999999999999","307.2","2.123","300.5","1025.749","8.7","90.4","-2.85","0.0"],
    [1400900,"2026-02-26 05:50:00","38480","1.1179999999999999","298.9","1.993","302.7","1025.803","8.68","90.5","-2.778","0.0"],
    [1400901,"2026-02-26 06:00:00","38481","1.123","298.9","1.764","300.1","1025.897","8.66","90.5","-2.77","0.0"],
    [1400902,"2026-02-26 06:10:00","38482","1.649","297.7","2.744","299.8","1025.997","8.78","89.6","-2.8360000000000003","0.0"],
    [1400903,"2026-02-26 06:20:00","38483","1.266","297.1","2.123","300.6","1026.154","8.85","87.6","-2.431","0.0"],
    [1400904,"2026-02-26 06:30:00","38484","1.146","300.6","2.058","310.7","1026.1689999999999","8.69","86.4","-0.573","0.0"],
    [1400905,"2026-02-26 06:40:00","38485","1.355","294.8","2.025","299.6","1026.282","8.7","84.9","3.6210000000000004","0.0"],
    [1400906,"2026-02-26 06:50:00","38486","1.284","294.7","2.058","295.3","1026.424","8.71","84.4","10.71","0.0"],
    [1400907,"2026-02-26 07:00:00","38487","1.3030000000000002","298.2","1.927","297.5","1026.489","8.82","84.0","20.28","0.0"],
    [1400908,"2026-02-26 07:10:00","38488","1.145","297.0","1.862","302.5","1026.642","9.04","83.4","34.29","0.0"],
    [1400909,"2026-02-26 07:20:00","38489","1.2209999999999999","288.2","2.025","292.4","1026.838","9.37","82.4","64.03","0.0"],
    [1400910,"2026-02-26 07:30:00","38490","0.7190000000000001","281.3","1.535","270","1026.9660000000001","9.49","81.9","65.52","0.0"],
    [1400911,"2026-02-26 07:40:00","38491","1.054","266.2","1.829","261.1","1027.103","9.6","81.4","82.8","0.0"],
    [1400912,"2026-02-26 07:50:00","38492","0.6990000000000001","283.0","1.601","271.2","1027.205","9.82","81.5","104.2","0.0"],
    [1400913,"2026-02-26 08:00:00","38493","1.443","290.2","2.548","295.9","1027.329","10.26","81.3","124.9","0.0"],
    [1400914,"2026-02-26 08:10:00","38494","1.794","285.1","2.548","288.9","1027.462","10.59","79.66","131.3","0.0"],
    [1400915,"2026-02-26 08:20:00","38495","1.3030000000000002","276.9","1.993","281","1027.546","10.88","78.8","189.4","0.0"],
    [1400916,"2026-02-26 08:30:00","38496","1.693","276.6","2.613","274.1","1027.573","11.12","77.6","167.3","0.0"],
    [1400917,"2026-02-26 08:40:00","38497","1.4280000000000002","266.6","2.45","283.2","1027.577","11.65","76.02","318.3","0.0"],
    [1400918,"2026-02-26 08:50:00","38498","0.606","287.5","1.927","290.2","1027.654","12.04","73.73","373.7","0.0"],
    [1400919,"2026-02-26 09:00:00","38499","1.6769999999999998","3.391","4.018","19.14","1027.703","13.08","75.89","426.1","0.0"],
    [1400920,"2026-02-26 09:10:00","38500","2.8510000000000004","34.54","4.116","46.68","1027.786","13.53","78.42","453.0","0.0"],
    [1400921,"2026-02-26 09:20:00","38501","2.898","28.54","3.887","21.55","1027.7910000000002","13.52","78.28","451.1","0.0"],
    [1400922,"2026-02-26 09:30:00","38502","2.6630000000000003","37.19","4.149","31.05","1027.888","13.55","77.82","470.8","0.0"],
    [1400923,"2026-02-26 09:40:00","38503","2.6210000000000004","45.72","4.149","37.12","1027.942","13.74","77.19","495.1","0.0"],
    [1400924,"2026-02-26 09:50:00","38504","2.615","49.14","3.724","66.86","1028.018","13.83","76.34","519.8","0.0"],
    [1400925,"2026-02-26 10:00:00","38505","2.6860000000000004","65.73","4.377","66.94","1028.086","14.11","75.86","542.7","0.0"],
    [1400926,"2026-02-26 10:10:00","38506","2.904","57.54","4.018","64.03","1028.117","14.12","75.6","561.3","0.0"],
    [1400927,"2026-02-26 10:20:00","38507","2.819","64.63","4.247","67.68","1028.155","14.29","75.02","581.6","0.0"],
    [1400928,"2026-02-26 10:30:00","38508","2.8930000000000002","54.44","4.41","56.42","1028.1860000000001","14.31","74.82","600.4","0.0"],
    [1400929,"2026-02-26 10:40:00","38509","3.07","58.88","4.345","68.79","1028.197","14.25","74.83","615.0","0.0"],
    [1400930,"2026-02-26 10:50:00","38510","3.322","60.88","4.835","82.2","1028.133","14.29","75.0","629.7","0.0"],
    [1400931,"2026-02-26 11:00:00","38511","3.102","53.23","4.835","70.43","1028.018","14.49","74.2","643.1","0.0"],
    [1400932,"2026-02-26 11:10:00","38512","3.2739999999999996","71.24","4.9","111.7","1027.955","14.34","74.76","653.5","0.0"],
    [1400933,"2026-02-26 11:20:00","38513","3.142","53.7","4.737","81","1027.945","14.31","75.03","663.9","0.0"],
    [1400934,"2026-02-26 11:30:00","38514","3.377","69.37","4.867","81.6","1027.896","14.47","74.71","670.3","0.0"],
    [1400935,"2026-02-26 11:40:00","38515","3.397","70.75","4.867","58.11","1027.795","14.36","75.27","676.2","0.0"],
    [1400936,"2026-02-26 11:50:00","38516","3.487","71.44","5.259","75.6","1027.72","14.44","75.5","679.8","0.0"],
    [1400937,"2026-02-26 12:00:00","38517","3.279","77.18","5.292","48.84","1027.633","14.39","76.26","684.6","0.0"],
    [1400938,"2026-02-26 12:10:00","38518","3.285","83.4","4.639","73.66","1027.548","14.43","75.59","685.3","0.0"],
    [1400939,"2026-02-26 12:20:00","38519","3.412","85.8","5.194","61.06","1027.474","14.46","75.75","683.7","0.0"],
    [1400940,"2026-02-26 12:30:00","38520","2.997","87.1","6.239","120.6","1027.3239999999998","14.58","75.23","676.0","0.0"],
    [1400941,"2026-02-26 12:40:00","38521","3.65","86.8","5.031","90.9","1027.233","14.52","75.7","670.5","0.0"],
    [1400942,"2026-02-26 12:50:00","38522","2.853","96.4","4.835","69.78","1027.182","14.51","75.75","662.1","0.0"],
    [1400943,"2026-02-26 13:00:00","38523","3.444","80.4","4.737","84.5","1027.12","14.54","75.8","654.2","0.0"],
    [1400944,"2026-02-26 13:10:00","38524","4.199","86.5","4.671","85.1","1026.877","14.61","75.44","639.3","0.0"],
    [1400945,"2026-02-26 13:20:00","38525","2.867","82.7","4.312","155.2","1026.911","14.48","75.94","631.8","0.0"],
    [1400946,"2026-02-26 13:30:00","38526","2.9160000000000004","86.3","6.697","147.8","1026.912","14.29","76.57","623.3","0.0"],
    [1400947,"2026-02-26 13:40:00","38527","2.574","87.3","6.566","80.8","1026.857","14.32","76.46","606.4","0.0"],
    [1400948,"2026-02-26 13:50:00","38528","2.5340000000000003","92.7","4.116","101.2","1026.763","14.46","76.45","593.4","0.0"],
    [1400949,"2026-02-26 14:00:00","38529","1.92","101.5","3.659","92.2","1026.665","14.43","76.05","570.1","0.0"],
    [1400950,"2026-02-26 14:10:00","38530","1.5419999999999998","104.1","3.561","87.6","1026.601","14.78","74.94","536.2","0.0"],
    [1400951,"2026-02-26 14:20:00","38531","1.3330000000000002","112.2","3.463","89.5","1026.605","14.91","74.7","535.3","0.0"],
    [1400952,"2026-02-26 14:30:00","38532","1.784","102.2","3.495","126.4","1026.563","14.78","75.15","515.9","0.0"],
    [1400953,"2026-02-26 14:40:00","38533","0.9059999999999999","113.3","2.417","95.3","1026.546","14.96","75.05","489.3","0.0"],
    [1400954,"2026-02-26 14:50:00","38534","1.429","109.8","3.201","76.96","1026.642","15.06","74.59","467.0","0.0"],
    [1400955,"2026-02-26 15:00:00","38535","2.374","98.2","3.43","112","1026.579","14.63","75.82","441.0","0.0"],
    [1400956,"2026-02-26 15:10:00","38536","2.573","96.7","3.887","84.9","1026.474","14.34","76.75","414.8","0.0"],
    [1400957,"2026-02-26 15:20:00","38537","1.681","117.8","3.757","189.7","1026.478","14.33","76.99","383.7","0.0"],
    [1400958,"2026-02-26 15:30:00","38538","0.889","133.0","2.45","84.5","1026.393","15.04","73.79","361.8","0.0"],
    [1400959,"2026-02-26 15:40:00","38539","1.3030000000000002","130.4","3.071","108","1026.305","14.87","74.18","333.9","0.0"],
    [1400960,"2026-02-26 15:50:00","38540","1.099","141.5","3.365","128.7","1026.211","14.92","74.08","305.1","0.0"],
    [1400961,"2026-02-26 16:00:00","38541","1.739","107.3","4.083","121.3","1026.177","14.36","76.49","274.4","0.0"],
    [1400962,"2026-02-26 16:10:00","38542","1.49","119.2","2.842","120.8","1026.173","14.19","77.95","239.9","0.0"],
    [1400963,"2026-02-26 16:20:00","38543","1.095","139.9","3.169","115.7","1026.132","14.24","77.96","205.3","0.0"],
    [1400964,"2026-02-26 16:30:00","38544","0.6990000000000001","144.9","2.025","174.2","1026.109","14.35","77.47","174.2","0.0"],
    [1400965,"2026-02-26 16:40:00","38545","1.256","149.0","2.417","166.7","1026.121","14.21","77.85","141.4","0.0"],
    [1400966,"2026-02-26 16:50:00","38546","0.997","110.1","2.613","83.4","1026.106","14.01","78.87","112.9","0.0"],
    [1400967,"2026-02-26 17:00:00","38547","0.619","131.3","1.47","135.8","1026.131","13.67","80.6","54.22","0.0"],
    [1400968,"2026-02-26 17:10:00","38548","0.723","129.5","3.071","124.1","1026.151","13.51","81.5","28.16","0.0"],
    [1400969,"2026-02-26 17:20:00","38549","0.87","125.9","2.45","97.4","1026.173","13.38","82.3","19.07","0.0"],
    [1400970,"2026-02-26 17:30:00","38550","0.401","150.6","1.993","148.2","1026.218","13.25","82.8","11.15","0.0"],
    [1400971,"2026-02-26 17:40:00","38551","0.7340000000000001","142.2","2.221","118.1","1026.247","13.13","83.3","3.498","0.0"],
    [1400972,"2026-02-26 17:50:00","38552","0.846","166.8","2.352","186.7","1026.265","13.02","84.1","-0.823","0.0"],
    [1400973,"2026-02-26 18:00:00","38553","0.927","145.2","3.267","90.7","1026.295","13.05","84.2","-2.653","0.0"],
    [1400974,"2026-02-26 18:10:00","38554","1.334","158.3","3.071","182.8","1026.359","13.05","84.3","-3.136","0.0"],
    [1400975,"2026-02-26 18:20:00","38555","0.644","183.4","1.993","229.7","1026.401","12.91","84.4","-3.115","0.0"],
    [1400976,"2026-02-26 18:30:00","38556","0.46799999999999997","166.4","3.103","230","1026.405","12.71","85.6","-3.548","0.0"],
    [1400977,"2026-02-26 18:40:00","38557","0.597","143.4","2.515","179.5","1026.435","12.81","85.5","-3.282","0.0"],
    [1400978,"2026-02-26 18:50:00","38558","0.401","137.9","2.123","139.7","1026.451","12.81","85.5","-3.305","0.0"],
    [1400979,"2026-02-26 19:00:00","38559","0.254","149.0","1.829","108.5","1026.434","12.81","85.7","-3.1239999999999997","0.0"],
    [1400980,"2026-02-26 19:10:00","38560","0.753","152.8","2.417","159.8","1026.473","12.77","86.1","-3.055","0.0"],
    [1400981,"2026-02-26 19:20:00","38561","0.11","198.7","1.111","207.9","1026.548","12.67","86.3","-2.827","0.0"],
    [1400982,"2026-02-26 19:30:00","38562","0.0","0.0","0","0","1026.562","12.11","87.2","-3.082","0.0"],
    [1400983,"2026-02-26 19:40:00","38563","0.9540000000000001","175.3","2.711","229.3","1026.525","12.42","88.2","-3.305","0.0"],
    [1400984,"2026-02-26 19:50:00","38564","1.067","187.8","1.993","187.9","1026.62","12.55","87.5","-3.105","0.0"],
    [1400985,"2026-02-26 20:00:00","38565","0.937","181.2","2.809","186.6","1026.665","12.61","87.1","-3.1189999999999998","0.0"],
    [1400986,"2026-02-26 20:10:00","38566","1.261","180.8","2.581","168.8","1026.759","12.53","87.5","-3.077","0.0"],
    [1400987,"2026-02-26 20:20:00","38567","0.857","191.0","3.234","209","1026.8310000000001","12.48","87.7","-2.7769999999999997","0.0"],
    [1400988,"2026-02-26 20:30:00","38568","1.344","192.1","3.169","169.6","1026.886","12.43","88.2","-2.853","0.0"],
    [1400989,"2026-02-26 20:40:00","38569","1.339","198.0","3.724","181","1026.904","12.36","88.1","-2.853","0.0"],
    [1400990,"2026-02-26 20:50:00","38570","0.9990000000000001","196.3","2.483","179.2","1026.9160000000002","12.44","87.1","-2.762","0.0"],
    [1400991,"2026-02-26 21:00:00","38571","0.0","0.0","0","0","1026.877","12.14","87.6","-2.972","0.0"],
    [1400992,"2026-02-26 21:10:00","38572","0.0","232.0","0.033","232","1026.905","11.74","88.2","-2.806","0.0"],
    [1400993,"2026-02-26 21:20:00","38573","0.0","0.0","0","0","1026.91","11.22","89.3","-3.39","0.0"],
    [1400994,"2026-02-26 21:30:00","38574","0.0","0.0","0","0","1026.874","10.96","90.6","-3.134","0.0"],
    [1400995,"2026-02-26 21:40:00","38575","0.0","0.0","0","0","1026.9089999999999","10.68","91.4","-2.8","0.0"],
    [1400996,"2026-02-26 21:50:00","38576","0.0","0.0","0","0","1026.913","10.8","91.9","-2.878","0.0"],
    [1400997,"2026-02-26 22:00:00","38577","0.0","0.0","0","0","1026.886","10.44","91.7","-2.742","0.0"],
    [1400998,"2026-02-26 22:10:00","38578","0.0","0.0","0","0","1026.8310000000001","10.49","92.6","-2.094","0.0"],
    [1400999,"2026-02-26 22:20:00","38579","0.0","0.0","0","0","1026.8039999999999","10.79","92.9","-1.516","0.0"],
    [1401000,"2026-02-26 22:30:00","38580","0.469","250.5","1.47","256.2","1026.802","11.08","91.8","-1.548","0.0"],
    [1401001,"2026-02-26 22:40:00","38581","1.183","271.0","2.123","280.4","1026.822","11.3","90.6","-1.73","0.0"],
    [1401002,"2026-02-26 22:50:00","38582","0.9229999999999999","287.6","1.47","294.7","1026.778","11.24","89.9","-1.6440000000000001","0.0"],
    [1401003,"2026-02-26 23:00:00","38583","1.097","276.4","1.699","281.3","1026.736","11.21","90.3","-2.089","0.0"],
    [1401004,"2026-02-26 23:10:00","38584","0.483","274.6","1.47","260.5","1026.763","11.25","89.8","-2.029","0.0"],
    [1401005,"2026-02-26 23:20:00","38585","0.773","275.1","1.633","306.9","1026.6989999999998","11.26","89.6","-2.085","0.0"],
    [1401006,"2026-02-26 23:30:00","38586","0.64","277.0","1.405","264.3","1026.578","11.29","89.6","-2.327","0.0"],
    [1401007,"2026-02-26 23:40:00","38587","0.106","277.7","1.078","273.7","1026.483","11.18","89.5","-2.31","0.0"],
    [1401008,"2026-02-26 23:50:00","38588","0.846","279.2","1.96","265","1026.422","11.1","89.9","-2.761","0.0"],
    [1401009,"2026-02-27 00:00:00","38589","0.643","264.2","1.47","272.5","1026.2939999999999","11.13","89.9","-2.7510000000000003","0.0"],
    [1401010,"2026-02-27 00:10:00","38590","1.1159999999999999","278.5","2.091","269.2","1026.287","10.9","90.0","-2.695","0.0"],
    [1401011,"2026-02-27 00:20:00","38591","0.868","284.8","1.666","285.7","1026.242","10.69","90.2","-2.7289999999999996","0.0"],
    [1401012,"2026-02-27 00:30:00","38592","0.955","270.9","2.156","283.6","1026.1760000000002","10.62","90.4","-2.69","0.0"],
    [1401013,"2026-02-27 00:40:00","38593","1.0190000000000001","271.5","2.515","269","1026.109","10.47","89.6","-2.544","0.0"],
    [1401014,"2026-02-27 00:50:00","38594","1.27","279.3","2.189","279.6","1025.947","10.06","89.9","-2.759","0.0"],
    [1401015,"2026-02-27 01:00:00","38595","0.807","276.6","1.666","282.7","1025.889","9.99","90.6","-2.6289999999999996","0.0"],
    [1401016,"2026-02-27 01:10:00","38596","0.6709999999999999","284.1","1.372","297.6","1025.85","9.65","90.9","-2.763","0.0"],
    [1401017,"2026-02-27 01:20:00","38597","0.45","290.4","1.307","293.4","1025.798","9.47","91.7","-2.521","0.0"],
    [1401018,"2026-02-27 01:30:00","38598","0.188","281.2","1.176","284.8","1025.779","9.64","92.3","-1.7519999999999998","0.0"],
    [1401019,"2026-02-27 01:40:00","38599","0.588","300.2","1.601","302.6","1025.692","9.82","92.2","-1.262","0.0"],
    [1401020,"2026-02-27 01:50:00","38600","0.968","256.5","2.352","275.6","1025.596","10.17","92.2","-1.265","0.0"],
    [1401021,"2026-02-27 02:00:00","38601","0.879","282.4","1.568","280.6","1025.47","10.48","91.5","-1.262","0.0"],
    [1401022,"2026-02-27 02:10:00","38602","1.194","278.8","2.287","285.6","1025.4189999999999","10.46","91.5","-1.262","0.0"],
    [1401023,"2026-02-27 02:20:00","38603","1.78","287.7","2.711","290.2","1025.317","10.38","91.8","-1.252","0.0"],
    [1401024,"2026-02-27 02:30:00","38604","1.117","286.4","1.862","283.6","1025.218","10.2","92.3","-1.234","0.0"],
    [1401025,"2026-02-27 02:40:00","38605","1.692","286.6","2.875","306.3","1025.143","10.15","92.6","-1.194","0.0"],
    [1401026,"2026-02-27 02:50:00","38606","1.5090000000000001","285.0","2.94","301.7","1025.025","10.08","92.7","-1.138","0.0"],
    [1401027,"2026-02-27 03:00:00","38607","1.794","286.1","3.103","286","1025.005","9.96","92.9","-0.978","0.0"],
    [1401028,"2026-02-27 03:10:00","38608","2.309","288.4","3.299","289.4","1024.99","9.85","93.1","-0.757","0.0"],
    [1401029,"2026-02-27 03:20:00","38609","1.656","299.9","2.548","306.8","1024.907","9.83","93.3","-1.145","0.0"],
    [1401030,"2026-02-27 03:30:00","38610","1.018","288.2","2.156","297.2","1024.803","9.91","93.2","-1.218","0.0"],
    [1401031,"2026-02-27 03:40:00","38611","1.052","280.2","2.385","287.2","1024.732","9.93","93.1","-1.255","0.0"],
    [1401032,"2026-02-27 03:50:00","38612","1.598","282.8","2.777","282.9","1024.702","9.83","93.0","-1.254","0.0"],
    [1401033,"2026-02-27 04:00:00","38613","1.69","285.4","2.548","300.4","1024.654","9.73","93.0","-1.258","0.0"],
    [1401034,"2026-02-27 04:10:00","38614","1.057","268.5","1.993","259.2","1024.646","9.67","93.1","-1.2309999999999999","0.0"],
    [1401035,"2026-02-27 04:20:00","38615","1.493","291.7","2.711","289.8","1024.624","9.62","93.0","-1.15","0.0"],
    [1401036,"2026-02-27 04:30:00","38616","1.734","296.9","2.94","300.3","1024.604","9.5","92.8","-0.888","0.0"],
    [1401037,"2026-02-27 04:40:00","38617","1.695","286.8","2.875","299.1","1024.601","9.29","92.7","-0.636","0.0"],
    [1401038,"2026-02-27 04:50:00","38618","2.063","284.6","3.234","295.3","1024.617","9.04","92.6","-1.263","0.0"],
    [1401039,"2026-02-27 05:00:00","38619","1.944","281.8","2.875","273.6","1024.553","8.63","92.1","-2.008","0.0"],
    [1401040,"2026-02-27 05:10:00","38620","1.641","269.2","2.777","261.5","1024.493","8.61","92.4","-2.094","0.0"],
    [1401041,"2026-02-27 05:20:00","38621","1.7930000000000001","261.3","3.855","273.7","1024.553","8.51","91.4","-2.7560000000000002","0.0"],
    [1401042,"2026-02-27 05:30:00","38622","1.5730000000000002","277.3","3.43","278.1","1024.594","8.41","90.1","-2.6830000000000003","0.0"],
    [1401043,"2026-02-27 05:40:00","38623","1.8940000000000001","280.0","3.169","293.2","1024.578","8.45","89.8","-1.3119999999999998","0.0"],
    [1401044,"2026-02-27 05:50:00","38624","2.346","282.9","3.887","284.5","1024.5330000000001","8.41","88.8","-1.034","0.0"],
    [1401045,"2026-02-27 06:00:00","38625","2.5580000000000003","286.1","3.953","306.2","1024.545","8.44","88.1","-1.025","0.0"],
    [1401046,"2026-02-27 06:10:00","38626","2.461","292.4","3.92","300.2","1024.537","8.58","86.8","-0.578","0.0"],
    [1401047,"2026-02-27 06:20:00","38627","1.901","287.0","3.887","289.1","1024.563","8.67","87.0","-0.141","0.0"],
    [1401048,"2026-02-27 06:30:00","38628","1.506","283.6","2.45","284.7","1024.616","8.58","87.4","1.2329999999999999","0.0"],
    [1401049,"2026-02-27 06:40:00","38629","1.01","277.3","1.927","307.1","1024.598","8.55","88.1","3.763","0.0"],
    [1401050,"2026-02-27 06:50:00","38630","1.5190000000000001","281.6","2.45","270.9","1024.626","8.79","89.1","8.01","0.0"],
    [1401051,"2026-02-27 07:00:00","38631","1.3840000000000001","281.2","2.189","279.4","1024.642","8.97","90.5","13.48","0.0"],
    [1401052,"2026-02-27 07:10:00","38632","1.561","295.4","2.613","303.2","1024.749","8.98","91.0","19.11","0.0"],
    [1401053,"2026-02-27 07:20:00","38633","0.8640000000000001","289.5","1.633","289.1","1024.752","9.03","91.7","21.4","0.0"],
    [1401054,"2026-02-27 07:30:00","38634","0.85","276.9","1.47","288.4","1024.757","9.27","92.7","24.65","0.0"],
    [1401055,"2026-02-27 07:40:00","38635","1.109","284.2","1.96","280.5","1024.8310000000001","9.48","93.1","37.94","0.0"],
    [1401056,"2026-02-27 07:50:00","38636","1.376","291.3","2.123","307.9","1024.912","9.52","92.9","46.67","0.0"],
    [1401057,"2026-02-27 08:00:00","38637","1.3780000000000001","292.5","1.993","277.3","1024.945","9.65","92.4","59.59","0.0"],
    [1401058,"2026-02-27 08:10:00","38638","1.436","281.5","2.189","283.4","1024.933","9.85","91.7","80.9","0.0"],
    [1401059,"2026-02-27 08:20:00","38639","1.465","291.5","2.581","273.9","1024.878","10.0","90.9","103.9","0.0"],
    [1401060,"2026-02-27 08:30:00","38640","1.714","302.2","2.515","303.7","1024.885","10.24","89.2","121.9","0.0"],
    [1401061,"2026-02-27 08:40:00","38641","1.456","280.2","2.287","281.4","1024.858","10.42","88.1","159.5","0.0"],
    [1401062,"2026-02-27 08:50:00","38642","1.4269999999999998","281.6","2.254","285.2","1024.857","10.56","88.0","183.0","0.0"],
    [1401063,"2026-02-27 09:00:00","38643","1.432","290.9","2.319","282","1024.9089999999999","10.76","86.8","182.4","0.0"],
    [1401064,"2026-02-27 09:10:00","38644","1.37","291.2","2.254","309.7","1024.9460000000001","10.85","86.1","223.6","0.0"],
    [1401065,"2026-02-27 09:20:00","38645","1.052","288.9","1.96","293.5","1024.933","11.08","84.8","259.9","0.0"],
    [1401066,"2026-02-27 09:30:00","38646","1.09","271.7","1.927","298.5","1024.915","11.25","83.9","297.0","0.0"],
    [1401067,"2026-02-27 09:40:00","38647","1.192","272.1","3.561","241.3","1024.885","11.77","82.5","395.5","0.0"],
    [1401068,"2026-02-27 09:50:00","38648","1.383","263.1","3.397","231.6","1024.93","11.83","80.9","323.8","0.0"],
    [1401069,"2026-02-27 10:00:00","38649","0.591","272.1","2.45","238.9","1024.943","11.84","80.7","249.9","0.0"],
    [1401070,"2026-02-27 10:10:00","38650","1.6980000000000002","213.7","2.973","221.3","1024.891","11.79","81.1","275.7","0.0"],
    [1401071,"2026-02-27 10:20:00","38651","1.29","256.6","2.907","217.5","1024.954","12.01","80.3","371.8","0.0"],
    [1401072,"2026-02-27 10:30:00","38652","1.97","182.0","3.365","195.5","1024.941","12.15","79.31","519.1","0.0"],
    [1401073,"2026-02-27 10:40:00","38653","0.8490000000000001","182.0","2.417","196.8","1024.943","12.08","80.2","312.1","0.0"],
    [1401074,"2026-02-27 10:50:00","38654","1.272","221.1","2.679","219.9","1024.914","12.47","79.21","409.3","0.0"],
    [1401075,"2026-02-27 11:00:00","38655","1.74","213.8","3.953","176.1","1024.864","12.71","77.26","401.6","0.0"],
    [1401076,"2026-02-27 11:10:00","38656","2.063","186.7","3.757","233.7","1024.787","12.67","77.86","637.8","0.0"],
    [1401077,"2026-02-27 11:20:00","38657","2.34","199.6","5.129","190.7","1024.77","12.86","76.9","572.4","0.0"],
    [1401078,"2026-02-27 11:30:00","38658","1.574","182.6","3.038","209.1","1024.6680000000001","13.12","76.02","573.0","0.0"],
    [1401079,"2026-02-27 11:40:00","38659","1.8090000000000002","171.3","4.018","195.3","1024.588","13.0","76.43","541.5","0.0"],
    [1401080,"2026-02-27 11:50:00","38660","1.614","181.9","3.397","185.4","1024.4769999999999","12.8","77.75","419.6","0.0"],
    [1401081,"2026-02-27 12:00:00","38661","2.437","185.2","4.769","179.8","1024.387","13.28","76.04","618.2","0.0"],
    [1401082,"2026-02-27 12:10:00","38662","2.336","181.4","5.717","188.5","1024.288","12.73","77.32","454.1","0.0"],
    [1401083,"2026-02-27 12:20:00","38663","2.254","199.7","4.541","230.8","1024.181","12.99","76.98","458.7","0.0"],
    [1401084,"2026-02-27 12:30:00","38664","2.673","191.3","4.247","202.2","1024.111","13.29","76.06","537.8","0.0"],
    [1401085,"2026-02-27 12:40:00","38665","2.873","187.5","4.965","194","1024.01","13.11","76.55","428.4","0.0"],
    [1401086,"2026-02-27 12:50:00","38666","3.2260000000000004","209.9","5.259","210.7","1023.865","13.26","75.96","614.0","0.0"],
    [1401087,"2026-02-27 13:00:00","38667","3.08","192.9","5.455","222.7","1023.7280000000001","13.6","74.84","632.9","0.0"],
    [1401088,"2026-02-27 13:10:00","38668","3.0780000000000003","197.3","4.965","222.1","1023.59","13.51","74.91","392.5","0.0"],
    [1401089,"2026-02-27 13:20:00","38669","2.302","190.4","4.508","153.6","1023.422","13.24","76.39","399.4","0.0"],
    [1401090,"2026-02-27 13:30:00","38670","2.739","195.6","4.639","206.6","1023.299","13.62","74.8","493.8","0.0"],
    [1401091,"2026-02-27 13:40:00","38671","2.605","194.8","4.769","198.2","1023.176","13.42","75.43","414.6","0.0"],
    [1401092,"2026-02-27 13:50:00","38672","2.603","186.2","4.639","155.6","1023.085","13.53","75.14","482.1","0.0"],
    [1401093,"2026-02-27 14:00:00","38673","2.492","197.8","4.475","238","1022.956","13.87","73.96","522.2","0.0"],
    [1401094,"2026-02-27 14:10:00","38674","2.84","205.2","4.769","208.3","1022.8760000000001","14.14","72.89","612.5","0.0"],
    [1401095,"2026-02-27 14:20:00","38675","2.291","200.9","4.9","174","1022.7819999999999","14.09","73.13","530.1","0.0"],
    [1401096,"2026-02-27 14:30:00","38676","2.324","177.2","6.566","229.4","1022.74","14.2","72.67","528.2","0.0"],
    [1401097,"2026-02-27 14:40:00","38677","2.688","201.6","4.704","213.8","1022.707","13.56","75.61","446.4","0.0"],
    [1401098,"2026-02-27 14:50:00","38678","2.065","181.8","4.018","165.6","1022.6110000000001","13.76","74.6","330.5","0.0"],
    [1401099,"2026-02-27 15:00:00","38679","2.533","202.6","5.096","221.2","1022.535","13.57","75.64","372.6","0.0"],
    [1401100,"2026-02-27 15:10:00","38680","2.147","198.4","4.737","180","1022.413","13.85","75.02","319.9","0.0"],
    [1401101,"2026-02-27 15:20:00","38681","2.693","186.7","4.933","181.3","1022.41","13.21","77.03","155.3","0.0"],
    [1401102,"2026-02-27 15:30:00","38682","2.765","203.2","5.129","219.3","1022.328","13.0","78.25","156.1","0.0"],
    [1401103,"2026-02-27 15:40:00","38683","2.551","213.0","4.606","212.6","1022.2710000000001","13.1","78.18","165.3","0.0"],
    [1401104,"2026-02-27 15:50:00","38684","2.445","198.7","3.789","166.8","1022.227","13.03","78.66","152.0","0.0"],
    [1401105,"2026-02-27 16:00:00","38685","2.248","202.2","4.475","185.3","1022.2280000000001","13.11","78.55","136.9","0.0"],
    [1401106,"2026-02-27 16:10:00","38686","2.702","206.2","4.867","193.7","1022.095","12.92","78.9","119.1","0.0"],
    [1401107,"2026-02-27 16:20:00","38687","2.158","206.9","5.292","224.3","1021.9760000000001","12.89","79.15","99.9","0.0"],
    [1401108,"2026-02-27 16:30:00","38688","2.145","207.5","3.691","218","1021.955","12.92","78.75","87.7","0.0"],
    [1401109,"2026-02-27 16:40:00","38689","2.349","209.2","5.161","229.4","1021.938","12.8","79.37","76.59","0.0"],
    [1401110,"2026-02-27 16:50:00","38690","2.398","212.1","5.063","210.7","1021.918","12.73","79.87","84.3","0.0"],
    [1401111,"2026-02-27 17:00:00","38691","1.735","196.7","4.377","205.4","1021.8839999999999","12.75","80.2","83.1","0.0"],
    [1401112,"2026-02-27 17:10:00","38692","1.7819999999999998","194.4","4.573","186.3","1021.887","12.64","80.5","63.08","0.0"],
    [1401113,"2026-02-27 17:20:00","38693","2.314","198.8","3.822","205.1","1021.947","12.53","81.0","56.62","0.0"],
    [1401114,"2026-02-27 17:30:00","38694","1.903","201.7","4.965","162.2","1022.0419999999999","12.38","81.4","21.47","0.0"],
    [1401115,"2026-02-27 17:40:00","38695","1.5019999999999998","198.2","3.724","224.5","1022.0980000000001","12.24","82.2","4.739","0.0"],
    [1401116,"2026-02-27 17:50:00","38696","2.083","209.1","4.475","228.3","1022.201","12.22","82.3","0.215","0.0"],
    [1401117,"2026-02-27 18:00:00","38697","2.443","212.2","4.541","219.9","1022.335","12.23","81.9","-0.988","0.0"],
    [1401118,"2026-02-27 18:10:00","38698","2.165","212.6","3.855","220.4","1022.33","12.21","81.9","-1.255","0.0"],
    [1401119,"2026-02-27 18:20:00","38699","2.9019999999999997","216.8","4.933","218.5","1022.372","12.1","81.8","-1.266","0.0"],
    [1401120,"2026-02-27 18:30:00","38700","2.358","216.1","4.279","232.3","1022.3810000000001","12.08","81.7","-1.261","0.0"],
    [1401121,"2026-02-27 18:40:00","38701","2.009","211.1","3.789","196.5","1022.423","12.06","81.8","-1.423","0.0"],
    [1401122,"2026-02-27 18:50:00","38702","2.521","215.7","4.704","200.3","1022.515","11.99","82.1","-2.0180000000000002","0.0"],
    [1401123,"2026-02-27 19:00:00","38703","2.211","210.1","3.43","192.6","1022.5189999999999","11.95","82.4","-1.349","0.0"],
    [1401124,"2026-02-27 19:10:00","38704","1.9680000000000002","218.4","3.528","192.6","1022.429","11.94","82.3","-1.325","0.0"],
    [1401125,"2026-02-27 19:20:00","38705","2.417","211.6","4.639","198.8","1022.4810000000001","11.87","82.2","-1.6369999999999998","0.0"],
    [1401126,"2026-02-27 19:30:00","38706","2.3680000000000003","217.0","3.953","208.2","1022.485","11.86","82.0","-2.0980000000000003","0.0"],
    [1401127,"2026-02-27 19:40:00","38707","2.522","210.2","4.737","147.2","1022.437","11.83","81.7","-1.9369999999999998","0.0"],
    [1401128,"2026-02-27 19:50:00","38708","2.5","218.3","5.684","225.4","1022.523","11.82","81.6","-1.6869999999999998","0.0"],
    [1401129,"2026-02-27 20:00:00","38709","1.194","230.7","2.483","222.7","1022.47","11.85","81.6","-1.263","0.0"],
    [1401130,"2026-02-27 20:10:00","38710","0.7959999999999999","218.4","1.666","209.2","1022.48","11.71","81.8","-1.9180000000000001","0.0"],
    [1401131,"2026-02-27 20:20:00","38711","0.887","245.3","2.156","232.9","1022.5260000000001","11.64","82.1","-1.6880000000000002","0.0"],
    [1401132,"2026-02-27 20:30:00","38712","0.706","228.2","1.895","209.5","1022.5360000000001","11.48","82.5","-2.109","0.0"],
    [1401133,"2026-02-27 20:40:00","38713","0.001","246.8","0.033","246.9","1022.575","11.41","82.5","-2.524","0.0"],
    [1401134,"2026-02-27 20:50:00","38714","0.419","267.1","1.666","258.4","1022.665","11.13","83.6","-2.766","0.0"],
    [1401135,"2026-02-27 21:00:00","38715","0.257","263.2","1.045","271.5","1022.679","11.06","83.9","-2.066","0.0"],
    [1401136,"2026-02-27 21:10:00","38716","0.248","315.6","1.078","321.6","1022.716","10.9","84.4","-1.693","0.0"],
    [1401137,"2026-02-27 21:20:00","38717","0.657","230.3","1.797","227.3","1022.822","11.1","83.2","-1.105","0.0"],
    [1401138,"2026-02-27 21:30:00","38718","0.8320000000000001","235.7","1.829","280.6","1022.863","11.26","82.0","-0.6679999999999999","0.0"],
    [1401139,"2026-02-27 21:40:00","38719","0.8440000000000001","239.4","1.666","227.3","1022.812","11.29","81.4","-0.919","0.0"],
    [1401140,"2026-02-27 21:50:00","38720","0.371","256.6","1.797","265","1022.709","11.29","81.3","-1.0859999999999999","0.0"],
    [1401141,"2026-02-27 22:00:00","38721","0.294","243.6","1.143","244.5","1022.7189999999999","11.33","80.9","-1.208","0.0"],
    [1401142,"2026-02-27 22:10:00","38722","0.001","273.9","0.033","278","1022.873","11.36","81.1","-1.139","0.0"],
    [1401143,"2026-02-27 22:20:00","38723","0.0","0.0","0","0","1022.885","11.27","82.1","-1.227","0.0"],
    [1401144,"2026-02-27 22:30:00","38724","0.0","0.0","0","0","1022.8810000000001","11.19","82.8","-1.261","0.0"],
    [1401145,"2026-02-27 22:40:00","38725","0.0","281.7","0.033","281.7","1023.023","11.15","83.3","-1.258","0.0"],
    [1401146,"2026-02-27 22:50:00","38726","0.0","0.0","0","0","1023.197","11.26","82.6","-1.216","0.0"],
    [1401147,"2026-02-27 23:00:00","38727","0.0","0.0","0","0","1023.24","11.23","83.1","-0.782","0.0"],
    [1401148,"2026-02-27 23:10:00","38728","0.001","285.3","0.033","285.2","1023.217","11.09","83.8","-1.079","0.0"],
    [1401149,"2026-02-27 23:20:00","38729","0.0","0.0","0","0","1023.298","11.16","83.8","-0.831","0.0"],
    [1401150,"2026-02-27 23:30:00","38730","0.0","0.0","0","0","1023.372","11.31","83.0","-0.556","0.0"],
    [1401151,"2026-02-27 23:40:00","38731","0.0","285.4","0.033","285.4","1023.323","11.5","82.1","-0.627","0.0"],
    [1401152,"2026-02-27 23:50:00","38732","0.624","85.3","2.189","73.25","1023.182","11.93","76.49","-0.759","0.0"],
    [1401153,"2026-02-28 00:00:00","38733","0.23399999999999999","32.69","0.947","32.72","1023.1489999999999","12.1","75.62","-0.545","0.0"],
    [1401154,"2026-02-28 00:10:00","38734","0.263","9.34","1.078","27.2","1023.1619999999999","12.01","77.25","-0.616","0.0"],
    [1401155,"2026-02-28 00:20:00","38735","0.775","37.53","1.666","25.88","1023.078","11.95","78.22","-0.8220000000000001","0.0"],
    [1401156,"2026-02-28 00:30:00","38736","0.8440000000000001","44.54","1.699","41.98","1023.1139999999999","12.17","76.0","-0.696","0.0"],
    [1401157,"2026-02-28 00:40:00","38737","1.4809999999999999","47.69","2.287","53.2","1022.998","12.21","75.81","-0.7929999999999999","0.0"],
    [1401158,"2026-02-28 00:50:00","38738","1.6640000000000001","35.88","2.352","51.34","1022.997","12.22","75.64","-0.723","0.0"],
    [1401159,"2026-02-28 01:00:00","38739","1.604","41.13","2.613","53.8","1023.03","12.24","75.78","-0.647","0.0"],
    [1401160,"2026-02-28 01:10:00","38740","1.375","40.57","2.385","34.59","1023.07","12.24","75.67","-0.664","0.0"],
    [1401161,"2026-02-28 01:20:00","38741","1.7819999999999998","43.41","2.809","34.85","1023.056","12.25","76.33","-0.6829999999999999","0.0"],
    [1401162,"2026-02-28 01:30:00","38742","2.214","35.88","3.397","30.56","1023.01","12.28","76.63","-0.622","0.0"],
    [1401163,"2026-02-28 01:40:00","38743","2.536","29.66","3.757","15.36","1022.919","12.28","76.9","-0.647","0.0"],
    [1401164,"2026-02-28 01:50:00","38744","2.71","40.64","4.312","32.43","1022.9069999999999","12.3","76.18","-0.629","0.0"],
    [1401165,"2026-02-28 02:00:00","38745","2.492","39.13","3.593","39.76","1022.903","12.35","76.21","-0.65","0.0"],
    [1401166,"2026-02-28 02:10:00","38746","2.333","37.42","3.887","35.89","1022.888","12.32","77.62","-0.625","0.0"],
    [1401167,"2026-02-28 02:20:00","38747","2.525","43.37","4.41","61.07","1022.846","12.31","76.99","-0.66","0.0"],
    [1401168,"2026-02-28 02:30:00","38748","2.066","29.52","3.789","24.11","1022.76","12.34","76.02","-0.846","0.0"],
    [1401169,"2026-02-28 02:40:00","38749","2.085","30.51","3.136","22.69","1022.5980000000001","12.38","74.92","-1.089","0.0"],
    [1401170,"2026-02-28 02:50:00","38750","2.7239999999999998","35.24","4.508","33.62","1022.465","12.44","74.46","-1.242","0.0"],
    [1401171,"2026-02-28 03:00:00","38751","2.7689999999999997","37.14","4.377","39.14","1022.431","12.4","75.73","-1.261","0.0"],
    [1401172,"2026-02-28 03:10:00","38752","3.1860000000000004","50.31","4.606","47.61","1022.559","12.34","78.41","-1.244","0.0"],
    [1401173,"2026-02-28 03:20:00","38753","3.225","40.74","5.259","37.14","1022.6260000000001","12.27","80.7","-1.25","0.0"],
    [1401174,"2026-02-28 03:30:00","38754","2.465","39.18","4.083","34.56","1022.61","12.21","81.6","-1.24","0.0"],
    [1401175,"2026-02-28 03:40:00","38755","2.8560000000000003","39.19","4.214","32.35","1022.596","12.21","81.5","-1.237","0.0"],
    [1401176,"2026-02-28 03:50:00","38756","3.075","37.6","4.41","37.6","1022.5189999999999","12.23","81.2","-0.8140000000000001","0.0"],
    [1401177,"2026-02-28 04:00:00","38757","3.055","54.42","5.782","59.94","1022.543","12.34","80.9","-0.902","0.0"],
    [1401178,"2026-02-28 04:10:00","38758","3.1319999999999997","65.55","5.227","52.25","1022.669","12.52","80.2","-1.032","0.0"],
    [1401179,"2026-02-28 04:20:00","38759","2.801","63.01","4.541","66.71","1022.842","12.55","79.53","-1.083","0.0"],
    [1401180,"2026-02-28 04:30:00","38760","2.841","60.24","4.051","66.72","1022.921","12.59","79.29","-0.789","0.0"],
    [1401181,"2026-02-28 04:40:00","38761","3.225","58.28","5.325","72.87","1022.857","12.6","78.99","-0.637","0.0"],
    [1401182,"2026-02-28 04:50:00","38762","3.398","54.02","5.717","49.78","1022.915","12.6","78.92","-0.638","0.0"],
    [1401183,"2026-02-28 05:00:00","38763","3.862","56.02","5.782","47.08","1022.953","12.63","79.08","-0.778","0.0"],
    [1401184,"2026-02-28 05:10:00","38764","3.512","51.33","5.521","37.37","1022.998","12.63","79.33","-1.0090000000000001","0.0"],
    [1401185,"2026-02-28 05:20:00","38765","4.573","58.65","6.631","68.3","1023.0","12.64","79.59","-1.208","0.0"],
    [1401186,"2026-02-28 05:30:00","38766","4.743","57.4","7.089","56.52","1023.0319999999999","12.61","80.3","-1.219","0.0"],
    [1401187,"2026-02-28 05:40:00","38767","3.762","53.18","5.717","47.56","1022.9789999999999","12.65","78.54","-1.179","0.0"],
    [1401188,"2026-02-28 05:50:00","38768","4.6","60.0","7.023","54.51","1022.8989999999999","12.9","74.83","-1.261","0.0"],
    [1401189,"2026-02-28 06:00:00","38769","4.187","62.78","6.435","54.49","1023.0269999999999","13.08","72.03","-1.247","0.0"],
    [1401190,"2026-02-28 06:10:00","38770","4.797","60.27","7.056","67.04","1023.159","13.18","71.38","-0.907","0.0"],
    [1401191,"2026-02-28 06:20:00","38771","4.888","56.33","7.023","45.65","1023.25","13.12","72.54","-0.489","0.0"],
    [1401192,"2026-02-28 06:30:00","38772","4.832","61.23","6.697","58.88","1023.3430000000001","13.13","70.38","0.136","0.0"],
    [1401193,"2026-02-28 06:40:00","38773","5.022","70.95","7.187","65.66","1023.445","13.16","72.18","1.193","0.0"],
    [1401194,"2026-02-28 06:50:00","38774","4.441","78.81","6.501","87","1023.6339999999999","13.06","73.78","2.27","0.0"],
    [1401195,"2026-02-28 07:00:00","38775","4.406000000000001","86.3","7.317","88.4","1023.706","13.16","71.94","4.422","0.0"],
    [1401196,"2026-02-28 07:10:00","38776","3.9789999999999996","90.8","6.337","91.8","1023.823","13.22","71.68","7.484","0.0"],
    [1401197,"2026-02-28 07:20:00","38777","4.073","93.3","6.762","90.5","1023.923","13.26","72.06","13.2","0.0"],
    [1401198,"2026-02-28 07:30:00","38778","3.722","90.4","5.978","81.6","1024.09","13.25","72.92","15.45","0.0"],
    [1401199,"2026-02-28 07:40:00","38779","3.5180000000000002","88.2","5.521","99.6","1024.271","13.22","74.28","17.29","0.0"],
    [1401200,"2026-02-28 07:50:00","38780","3.7539999999999996","81.7","5.423","78.76","1024.333","13.21","75.39","29.08","0.0"],
    [1401201,"2026-02-28 08:00:00","38781","3.443","80.8","4.933","85","1024.52","13.24","74.94","36.38","0.0"],
    [1401202,"2026-02-28 08:10:00","38782","3.218","79.55","4.965","81.8","1024.641","13.29","75.79","32.31","0.0"],
    [1401203,"2026-02-28 08:20:00","38783","3.742","78.01","5.488","88","1024.622","13.35","75.39","41.73","0.0"],
    [1401204,"2026-02-28 08:30:00","38784","2.98","58.55","5.292","76.72","1024.688","13.38","76.38","45.16","0.0"],
    [1401205,"2026-02-28 08:40:00","38785","2.287","54.47","3.397","69.37","1024.887","13.27","78.11","51.92","0.0"],
    [1401206,"2026-02-28 08:50:00","38786","2.6430000000000002","52.36","3.887","49.69","1024.912","13.27","79.19","43.72","0.0"],
    [1401207,"2026-02-28 09:00:00","38787","3.111","48.93","5.096","49.34","1024.826","13.25","79.76","102.3","0.0"],
    [1401208,"2026-02-28 09:10:00","38788","2.272","50.8","3.463","52.84","1024.995","13.45","79.3","112.0","0.0"],
    [1401209,"2026-02-28 09:20:00","38789","3.005","42.09","5.129","32.35","1025.019","13.39","79.52","104.9","0.0"],
    [1401210,"2026-02-28 09:30:00","38790","3.262","42.24","4.639","31.84","1024.951","13.37","80.4","135.8","0.0"],
    [1401211,"2026-02-28 09:40:00","38791","3.123","47.83","4.541","54.12","1025.007","13.26","80.9","98.4","0.0"],
    [1401212,"2026-02-28 09:50:00","38792","3.138","45.16","4.312","44.1","1025.017","13.22","81.2","115.2","0.0"],
    [1401213,"2026-02-28 10:00:00","38793","3.111","48.57","4.508","47.93","1025.029","13.2","81.1","99.3","0.0"],
    [1401214,"2026-02-28 10:10:00","38794","3.2260000000000004","47.95","4.247","36.66","1025.192","13.15","81.1","73.68","0.0"],
    [1401215,"2026-02-28 10:20:00","38795","3.06","47.92","3.887","49.35","1025.141","13.17","81.0","106.9","0.0"],
    [1401216,"2026-02-28 10:30:00","38796","3.112","50.14","4.541","49.51","1025.103","13.26","80.8","141.4","0.0"],
    [1401217,"2026-02-28 10:40:00","38797","3.5069999999999997","41.5","5.129","45.26","1024.985","13.39","80.0","260.1","0.0"],
    [1401218,"2026-02-28 10:50:00","38798","3.463","46.13","5.063","49.98","1024.991","13.6","78.62","259.0","0.0"],
    [1401219,"2026-02-28 11:00:00","38799","3.952","47.44","5.521","58.53","1025.008","13.53","78.94","226.4","0.0"],
    [1401220,"2026-02-28 11:10:00","38800","3.5260000000000002","39.32","5.325","27.84","1025.052","13.53","78.89","141.3","0.0"],
    [1401221,"2026-02-28 11:20:00","38801","3.299","43.52","5.423","38.1","1025.0430000000001","13.4","79.16","160.0","0.0"],
    [1401222,"2026-02-28 11:30:00","38802","3.34","41.29","4.769","33.12","1025.068","13.43","79.48","133.8","0.0"],
    [1401223,"2026-02-28 11:40:00","38803","3.283","42.16","4.508","32.84","1024.9660000000001","13.4","80.8","117.8","0.0"],
    [1401224,"2026-02-28 11:50:00","38804","3.535","55.83","5.031","42.67","1024.897","13.5","80.0","122.2","0.0"],
    [1401225,"2026-02-28 12:00:00","38805","3.616","58.56","5.161","67.72","1024.864","13.55","78.56","166.4","0.0"],
    [1401226,"2026-02-28 12:10:00","38806","4.248","52.03","5.717","57.15","1024.789","13.8","77.65","221.6","0.0"],
    [1401227,"2026-02-28 12:20:00","38807","4.376","66.03","6.043","72.81","1024.675","13.96","77.19","286.5","0.0"],
    [1401228,"2026-02-28 12:30:00","38808","3.938","72.33","6.109","81.2","1024.693","13.99","78.15","237.2","0.0"],
    [1401229,"2026-02-28 12:40:00","38809","4.013","73.5","5.423","78.13","1024.601","13.88","78.85","182.3","0.0"],
    [1401230,"2026-02-28 12:50:00","38810","3.45","58.46","5.194","63.91","1024.451","13.83","78.91","178.0","0.0"],
    [1401231,"2026-02-28 13:00:00","38811","3.299","53.04","4.41","37.47","1024.318","13.91","78.05","246.0","0.0"],
    [1401232,"2026-02-28 13:10:00","38812","3.45","58.75","4.508","69.22","1024.22","13.95","77.29","248.4","0.0"],
    [1401233,"2026-02-28 13:20:00","38813","2.9219999999999997","69.44","4.083","66.67","1024.106","14.0","77.46","301.8","0.0"],
    [1401234,"2026-02-28 13:30:00","38814","2.951","58.56","4.508","46.99","1024.024","14.21","75.96","269.3","0.0"],
    [1401235,"2026-02-28 13:40:00","38815","3.057","71.47","4.149","65.88","1023.9169999999999","14.05","76.8","202.2","0.0"],
    [1401236,"2026-02-28 13:50:00","38816","2.943","73.55","3.92","69.47","1023.845","13.99","78.22","262.8","0.0"],
    [1401237,"2026-02-28 14:00:00","38817","2.813","74.9","3.757","74.25","1023.765","14.04","78.02","282.8","0.0"],
    [1401238,"2026-02-28 14:10:00","38818","2.497","73.46","3.43","66.38","1023.7289999999999","14.36","77.43","508.2","0.0"],
    [1401239,"2026-02-28 14:20:00","38819","2.418","82.6","3.789","80.7","1023.7260000000001","14.52","76.28","398.9","0.0"],
    [1401240,"2026-02-28 14:30:00","38820","2.012","75.58","3.365","69.67","1023.752","14.3","77.17","304.4","0.0"],
    [1401241,"2026-02-28 14:40:00","38821","2.424","86.9","4.475","77.99","1023.7389999999999","14.37","76.79","409.1","0.0"],
    [1401242,"2026-02-28 14:50:00","38822","2.9219999999999997","74.66","4.149","59","1023.702","14.54","75.88","328.5","0.0"],
    [1401243,"2026-02-28 15:00:00","38823","2.436","63.54","3.593","62.91","1023.721","14.51","77.27","242.8","0.0"],
    [1401244,"2026-02-28 15:10:00","38824","3.238","71.69","4.508","61.2","1023.798","14.24","78.49","192.0","0.0"],
    [1401245,"2026-02-28 15:20:00","38825","3.39","65.54","4.769","74.82","1023.852","14.3","77.12","233.3","0.0"],
    [1401246,"2026-02-28 15:30:00","38826","3.537","66.6","4.9","64.59","1023.878","14.23","76.7","124.1","0.0"],
    [1401247,"2026-02-28 15:40:00","38827","3.175","64.65","4.671","66.81","1023.952","14.18","76.22","105.8","0.0"],
    [1401248,"2026-02-28 15:50:00","38828","3.611","71.95","5.031","81.6","1023.8789999999999","14.22","75.91","119.0","0.0"],
    [1401249,"2026-02-28 16:00:00","38829","3.431","68.54","4.867","73.03","1023.883","14.22","75.55","138.8","0.0"],
    [1401250,"2026-02-28 16:10:00","38830","3.045","64.18","4.541","69.53","1023.85","14.16","74.86","98.1","0.0"],
    [1401251,"2026-02-28 16:20:00","38831","2.912","71.49","4.9","93.4","1023.825","14.14","75.66","83.9","0.0"],
    [1401252,"2026-02-28 16:30:00","38832","3.346","75.54","4.737","77.49","1023.826","14.14","75.35","51.19","0.0"],
    [1401253,"2026-02-28 16:40:00","38833","2.759","70.58","4.181","66","1023.852","14.12","74.7","37.99","0.0"],
    [1401254,"2026-02-28 16:50:00","38834","2.431","66.26","3.985","78.7","1023.92","14.06","75.02","29.9","0.0"],
    [1401255,"2026-02-28 17:00:00","38835","2.298","65.4","3.626","53.59","1023.915","13.94","75.93","38.89","0.0"],
    [1401256,"2026-02-28 17:10:00","38836","2.281","64.49","4.998","87","1023.9060000000001","13.87","76.72","22.91","0.0"],
    [1401257,"2026-02-28 17:20:00","38837","3.885","72.07","6.141","76.4","1023.921","13.79","75.73","11.69","0.0"],
    [1401258,"2026-02-28 17:30:00","38838","3.505","76.42","5.684","71.94","1024.055","13.78","75.75","3.313","0.0"],
    [1401259,"2026-02-28 17:40:00","38839","3.488","76.1","4.9","72.98","1024.136","13.78","74.61","0.8029999999999999","0.0"],
    [1401260,"2026-02-28 17:50:00","38840","3.318","75.32","4.965","77.68","1024.224","13.74","74.89","-0.12300000000000001","0.0"],
    [1401261,"2026-02-28 18:00:00","38841","2.9819999999999998","67.32","4.345","70.76","1024.305","13.69","75.27","-0.585","0.0"],
    [1401262,"2026-02-28 18:10:00","38842","3.502","68.74","4.9","79.93","1024.37","13.65","74.44","-0.877","0.0"],
    [1401263,"2026-02-28 18:20:00","38843","3.181","70.25","4.541","68.6","1024.445","13.64","75.21","-0.946","0.0"],
    [1401264,"2026-02-28 18:30:00","38844","3.425","73.75","4.9","66","1024.527","13.61","75.29","-0.966","0.0"],
    [1401265,"2026-02-28 18:40:00","38845","2.895","68.3","3.985","68.71","1024.656","13.58","75.24","-1.022","0.0"],
    [1401266,"2026-02-28 18:50:00","38846","3.037","68.24","4.279","76.91","1024.766","13.58","75.66","-1.131","0.0"],
    [1401267,"2026-02-28 19:00:00","38847","3.1910000000000003","72.08","4.573","60.21","1024.741","13.55","75.08","-1.127","0.0"],
    [1401268,"2026-02-28 19:10:00","38848","2.638","70.47","4.051","65.42","1024.751","13.49","76.0","-1.253","0.0"],
    [1401269,"2026-02-28 19:20:00","38849","3.347","69.68","4.639","66.98","1024.785","13.42","75.18","-1.255","0.0"],
    [1401270,"2026-02-28 19:30:00","38850","2.6839999999999997","70.79","3.92","72.61","1024.7930000000001","13.37","76.12","-1.52","0.0"],
    [1401271,"2026-02-28 19:40:00","38851","2.5580000000000003","75.0","4.312","66.56","1024.901","13.29","75.85","-1.465","0.0"],
    [1401272,"2026-02-28 19:50:00","38852","2.58","76.36","3.789","83.7","1024.997","13.36","75.4","-1.258","0.0"],
    [1401273,"2026-02-28 20:00:00","38853","2.134","70.77","3.332","68.66","1025.073","13.36","75.85","-1.258","0.0"],
    [1401274,"2026-02-28 20:10:00","38854","2.469","71.49","3.691","69","1025.125","13.35","74.84","-1.261","0.0"],
    [1401275,"2026-02-28 20:20:00","38855","1.9040000000000001","66.15","2.679","64.48","1025.231","13.38","75.16","-1.26","0.0"],
    [1401276,"2026-02-28 20:30:00","38856","1.859","74.19","2.875","73.61","1025.277","13.36","76.28","-1.261","0.0"],
    [1401277,"2026-02-28 20:40:00","38857","2.343","75.04","3.495","71.62","1025.335","13.34","75.47","-1.263","0.0"],
    [1401278,"2026-02-28 20:50:00","38858","2.5810000000000004","74.69","3.626","72.27","1025.28","13.24","76.49","-1.537","0.0"],
    [1401279,"2026-02-28 21:00:00","38859","1.56","73.0","2.646","70.63","1025.374","13.05","77.75","-1.9580000000000002","0.0"],
    [1401280,"2026-02-28 21:10:00","38860","1.479","73.65","2.45","71.59","1025.481","12.96","78.56","-1.4769999999999999","0.0"],
    [1401281,"2026-02-28 21:20:00","38861","1.565","71.63","2.842","66.78","1025.499","13.04","78.42","-1.2670000000000001","0.0"],
    [1401282,"2026-02-28 21:30:00","38862","1.209","74.0","1.797","72.93","1025.501","13.01","79.78","-1.335","0.0"],
    [1401283,"2026-02-28 21:40:00","38863","1.12","82.7","1.633","74.51","1025.47","12.87","80.5","-1.83","0.0"],
    [1401284,"2026-02-28 21:50:00","38864","1.187","73.15","1.601","93.9","1025.555","12.93","79.89","-1.554","0.0"],
    [1401285,"2026-02-28 22:00:00","38865","1.014","41.63","1.503","59.25","1025.596","12.84","80.6","-1.239","0.0"],
    [1401286,"2026-02-28 22:10:00","38866","0.621","51.94","0.947","46.7","1025.5410000000002","12.89","80.5","-1.131","0.0"],
    [1401287,"2026-02-28 22:20:00","38867","0.08800000000000001","65.42","0.751","66.54","1025.504","12.96","80.0","-1.0659999999999998","0.0"],
    [1401288,"2026-02-28 22:30:00","38868","0.0","0.0","0","0","1025.486","13.0","80.0","-1.057","0.0"],
    [1401289,"2026-02-28 22:40:00","38869","0.0","67.87","0.033","67.87","1025.427","12.94","80.7","-1.088","0.0"],
    [1401290,"2026-02-28 22:50:00","38870","0.0","0.0","0","0","1025.369","12.88","81.2","-1.1540000000000001","0.0"],
    [1401291,"2026-02-28 23:00:00","38871","0.0","0.0","0","0","1025.4","12.89","81.2","-1.136","0.0"],
    [1401292,"2026-02-28 23:10:00","38872","0.0","67.87","0.033","67.87","1025.444","12.89","81.2","-1.156","0.0"],
    [1401293,"2026-02-28 23:20:00","38873","0.0","0.0","0","0","1025.441","12.92","81.0","-1.031","0.0"],
    [1401294,"2026-02-28 23:30:00","38874","0.0","0.0","0","0","1025.308","12.88","81.0","-1.079","0.0"],
    [1401295,"2026-02-28 23:40:00","38875","0.0","0.0","0","0","1025.133","12.76","81.1","-1.2570000000000001","0.0"],
    [1401296,"2026-02-28 23:50:00","38876","0.0","0.0","0","0","1025.005","12.74","81.5","-1.261","0.0"],
    [1401297,"2026-03-01 00:00:00","38877","0.0","0.0","0","0","1025.018","12.59","81.7","-1.3459999999999999","0.0"],
    [1401298,"2026-03-01 00:10:00","38878","0.0","354.4","0.033","354.4","1025.0539999999999","12.55","81.0","-1.294","0.0"],
    [1401299,"2026-03-01 00:20:00","38879","0.37799999999999995","279.2","1.731","273.7","1025.097","12.72","79.1","-1.207","0.0"],
    [1401300,"2026-03-01 00:30:00","38880","1.082","272.0","1.96","263","1025.134","12.9","77.62","-0.8909999999999999","0.0"],
    [1401301,"2026-03-01 00:40:00","38881","0.845","275.9","1.633","287.2","1025.098","12.79","78.26","-1.031","0.0"],
    [1401302,"2026-03-01 00:50:00","38882","0.718","281.5","1.339","283.2","1025.072","12.74","78.48","-0.9079999999999999","0.0"],
    [1401303,"2026-03-01 01:00:00","38883","1.0090000000000001","269.0","1.666","275.7","1025.048","12.75","78.12","-0.988","0.0"],
    [1401304,"2026-03-01 01:10:00","38884","0.354","266.3","1.372","263.7","1025.0330000000001","12.74","78.34","-0.9520000000000001","0.0"],
    [1401305,"2026-03-01 01:20:00","38885","0.0","0.0","0","0","1024.9769999999999","12.65","79.03","-0.97","0.0"],
    [1401306,"2026-03-01 01:30:00","38886","0.0","0.0","0","0","1024.854","12.6","78.98","-1.186","0.0"],
    [1401307,"2026-03-01 01:40:00","38887","0.001","270.7","0.065","270.7","1024.739","12.68","78.24","-1.2590000000000001","0.0"],
    [1401308,"2026-03-01 01:50:00","38888","0.0","0.0","0","0","1024.678","12.76","77.44","-1.2309999999999999","0.0"],
    [1401309,"2026-03-01 02:00:00","38889","0.0","0.0","0","0","1024.634","12.8","76.98","-1.1840000000000002","0.0"],
    [1401310,"2026-03-01 02:10:00","38890","0.0","248.0","0.033","248","1024.642","12.8","76.89","-1.147","0.0"],
    [1401311,"2026-03-01 02:20:00","38891","0.166","248.7","0.849","264.2","1024.651","12.76","77.16","-1.187","0.0"],
    [1401312,"2026-03-01 02:30:00","38892","0.628","267.9","1.568","280.7","1024.604","12.7","77.65","-1.212","0.0"],
    [1401313,"2026-03-01 02:40:00","38893","0.669","271.4","1.764","280.6","1024.49","12.57","78.43","-1.244","0.0"],
    [1401314,"2026-03-01 02:50:00","38894","0.965","269.9","1.535","283","1024.4569999999999","12.47","79.1","-1.234","0.0"],
    [1401315,"2026-03-01 03:00:00","38895","0.45","270.6","1.209","280.6","1024.405","12.41","79.38","-1.251","0.0"],
    [1401316,"2026-03-01 03:10:00","38896","0.517","262.4","1.111","265.3","1024.3980000000001","12.44","79.16","-1.256","0.0"],
    [1401317,"2026-03-01 03:20:00","38897","0.574","269.8","1.372","271.4","1024.385","12.46","79.03","-1.261","0.0"],
    [1401318,"2026-03-01 03:30:00","38898","0.0","0.0","0","0","1024.386","12.42","79.09","-1.262","0.0"],
    [1401319,"2026-03-01 03:40:00","38899","0.273","281.7","0.98","279.7","1024.413","12.32","79.69","-1.268","0.0"],
    [1401320,"2026-03-01 03:50:00","38900","0.368","284.5","0.849","275.7","1024.4389999999999","12.04","81.3","-1.3119999999999998","0.0"],
    [1401321,"2026-03-01 04:00:00","38901","0.374","266.5","1.176","255.8","1024.508","11.94","81.9","-1.4069999999999998","0.0"],
    [1401322,"2026-03-01 04:10:00","38902","0.948","277.2","1.764","275","1024.527","12.01","81.6","-1.2690000000000001","0.0"],
    [1401323,"2026-03-01 04:20:00","38903","1.004","276.8","1.829","280.9","1024.53","11.96","81.6","-1.67","0.0"],
    [1401324,"2026-03-01 04:30:00","38904","0.985","261.0","2.156","279.2","1024.583","11.82","82.5","-2.015","0.0"],
    [1401325,"2026-03-01 04:40:00","38905","0.332","266.9","1.307","263.4","1024.635","11.63","83.1","-2.471","0.0"],
    [1401326,"2026-03-01 04:50:00","38906","0.0","0.0","0","0","1024.674","11.19","84.5","-2.641","0.0"],
    [1401327,"2026-03-01 05:00:00","38907","0.0","0.0","0","0","1024.708","11.11","85.8","-2.0540000000000003","0.0"],
    [1401328,"2026-03-01 05:10:00","38908","0.0","284.8","0.033","284.8","1024.782","11.32","84.8","-1.2919999999999998","0.0"],
    [1401329,"2026-03-01 05:20:00","38909","0.0","0.0","0","0","1024.79","11.33","84.6","-1.324","0.0"],
    [1401330,"2026-03-01 05:30:00","38910","0.0","0.0","0","0","1024.775","11.36","84.5","-1.942","0.0"],
    [1401331,"2026-03-01 05:40:00","38911","0.0","284.8","0.033","284.8","1024.829","11.23","84.5","-2.0140000000000002","0.0"],
    [1401332,"2026-03-01 05:50:00","38912","0.0","0.0","0","0","1024.83","11.02","85.3","-2.011","0.0"],
    [1401333,"2026-03-01 06:00:00","38913","0.0","0.0","0","0","1024.889","10.9","86.1","-1.391","0.0"],
    [1401334,"2026-03-01 06:10:00","38914","0.0","284.9","0.033","284.9","1024.955","10.81","86.5","-0.925","0.0"],
    [1401335,"2026-03-01 06:20:00","38915","0.0","0.0","0","0","1025.0230000000001","10.89","86.7","-0.196","0.0"],
    [1401336,"2026-03-01 06:30:00","38916","0.0","0.0","0","0","1025.01","10.99","86.6","1.435","0.0"],
    [1401337,"2026-03-01 06:40:00","38917","0.0","284.8","0.033","284.8","1024.9460000000001","11.0","86.4","6.797999999999999","0.0"],
    [1401338,"2026-03-01 06:50:00","38918","0.0","0.0","0","0","1024.92","11.06","86.2","23.68","0.0"],
    [1401339,"2026-03-01 07:00:00","38919","0.0","0.0","0","0","1025.007","11.12","86.2","40.97","0.0"],
    [1401340,"2026-03-01 07:10:00","38920","0.0","284.9","0.033","284.9","1025.073","11.31","85.9","52.85","0.0"],
    [1401341,"2026-03-01 07:20:00","38921","0.0","0.0","0","0","1025.113","11.62","85.2","67.77","0.0"],
    [1401342,"2026-03-01 07:30:00","38922","0.0","0.0","0","0","1025.236","12.08","82.9","78.57","0.0"],
    [1401343,"2026-03-01 07:40:00","38923","0.0","264.3","0.065","264.3","1025.404","12.45","80.5","67.23","0.0"],
    [1401344,"2026-03-01 07:50:00","38924","0.20199999999999999","282.4","0.915","285.7","1025.503","12.57","79.97","63.91","0.0"],
    [1401345,"2026-03-01 08:00:00","38925","0.0","0.0","0","0","1025.535","12.66","79.73","70.75","0.0"],
    [1401346,"2026-03-01 08:10:00","38926","0.447","274.6","1.307","274.5","1025.6019999999999","12.68","80.2","72.48","0.0"],
    [1401347,"2026-03-01 08:20:00","38927","0.725","259.8","1.568","256.6","1025.655","12.76","79.77","78.32","0.0"],
    [1401348,"2026-03-01 08:30:00","38928","0.941","263.4","1.666","281.7","1025.7269999999999","12.9","78.51","72.32","0.0"],
    [1401349,"2026-03-01 08:40:00","38929","0.858","269.7","1.535","287.5","1025.702","13.06","77.51","90.3","0.0"],
    [1401350,"2026-03-01 08:50:00","38930","1.001","279.9","1.96","289.1","1025.714","13.27","76.22","106.7","0.0"],
    [1401351,"2026-03-01 09:00:00","38931","1.179","277.2","1.895","286.3","1025.752","13.42","74.8","121.2","0.0"],
    [1401352,"2026-03-01 09:10:00","38932","1.3780000000000001","276.7","1.96","268.6","1025.82","13.55","73.0","139.7","0.0"],
    [1401353,"2026-03-01 09:20:00","38933","1.3419999999999999","285.6","2.417","281","1025.817","13.81","72.3","163.7","0.0"],
    [1401354,"2026-03-01 09:30:00","38934","1.449","281.9","2.287","276.8","1025.809","13.9","71.06","184.5","0.0"],
    [1401355,"2026-03-01 09:40:00","38935","1.272","283.4","2.189","272.6","1025.766","14.08","70.4","301.4","0.0"],
    [1401356,"2026-03-01 09:50:00","38936","0.865","282.6","1.927","277.4","1025.684","15.22","65.87","514.6","0.0"],
    [1401357,"2026-03-01 10:00:00","38937","1.483","228.8","3.169","237.7","1025.683","15.81","62.38","539.4","0.0"],
    [1401358,"2026-03-01 10:10:00","38938","1.0070000000000001","217.6","3.071","213.2","1025.687","16.22","61.31","589.6","0.0"],
    [1401359,"2026-03-01 10:20:00","38939","2.546","217.0","4.214","219.2","1025.687","16.07","60.41","656.1","0.0"],
    [1401360,"2026-03-01 10:30:00","38940","2.455","206.8","4.149","212.3","1025.722","15.93","61.26","671.0","0.0"],
    [1401361,"2026-03-01 10:40:00","38941","2.3209999999999997","197.9","3.757","214.6","1025.6789999999999","16.47","59.49","693.8","0.0"],
    [1401362,"2026-03-01 10:50:00","38942","2.499","212.8","3.92","171.7","1025.5639999999999","16.67","59.09","743.6","0.0"],
    [1401363,"2026-03-01 11:00:00","38943","2.017","244.3","3.855","269","1025.473","16.98","57.51","791.6","0.0"],
    [1401364,"2026-03-01 11:10:00","38944","2.95","296.9","5.063","296.8","1025.431","16.63","56.82","580.4","0.0"],
    [1401365,"2026-03-01 11:20:00","38945","2.503","279.3","3.659","267.2","1025.335","16.1","57.81","332.8","0.0"],
    [1401366,"2026-03-01 11:30:00","38946","2.015","283.0","3.495","281","1025.2830000000001","15.87","58.91","300.9","0.0"],
    [1401367,"2026-03-01 11:40:00","38947","1.775","289.8","2.581","299.8","1025.1760000000002","15.64","60.88","280.1","0.0"],
    [1401368,"2026-03-01 11:50:00","38948","1.8019999999999998","260.9","3.234","261","1025.027","15.69","60.81","289.6","0.0"],
    [1401369,"2026-03-01 12:00:00","38949","1.281","217.8","2.385","200.8","1024.8519999999999","16.52","58.39","531.2","0.0"],
    [1401370,"2026-03-01 12:10:00","38950","2.5069999999999997","209.3","5.325","213.7","1024.654","16.81","59.47","722.4","0.0"],
    [1401371,"2026-03-01 12:20:00","38951","3.469","193.1","5.749","199.7","1024.535","16.42","61.51","748.0","0.0"],
    [1401372,"2026-03-01 12:30:00","38952","3.628","188.5","6.076","172.9","1024.48","16.16","61.56","735.0","0.0"],
    [1401373,"2026-03-01 12:40:00","38953","3.157","185.6","5.325","187.1","1024.385","16.28","62.57","742.7","0.0"],
    [1401374,"2026-03-01 12:50:00","38954","3.806","185.3","5.815","182.6","1024.214","15.99","61.83","692.3","0.0"],
    [1401375,"2026-03-01 13:00:00","38955","3.423","195.4","5.913","173","1024.08","16.27","61.58","671.3","0.0"],
    [1401376,"2026-03-01 13:10:00","38956","3.648","198.2","6.501","193","1023.972","16.12","64.84","659.2","0.0"],
    [1401377,"2026-03-01 13:20:00","38957","3.7489999999999997","192.0","6.795","184","1023.882","15.71","66.0","649.3","0.0"],
    [1401378,"2026-03-01 13:30:00","38958","4.136","205.2","6.468","224.5","1023.8389999999999","16.04","63.03","645.8","0.0"],
    [1401379,"2026-03-01 13:40:00","38959","3.304","201.4","6.174","213.4","1023.701","16.13","63.67","623.3","0.0"],
    [1401380,"2026-03-01 13:50:00","38960","3.8489999999999998","198.6","6.37","212.4","1023.696","15.8","64.87","607.8","0.0"],
    [1401381,"2026-03-01 14:00:00","38961","3.34","193.6","6.501","175","1023.5989999999999","16.04","62.48","593.1","0.0"],
    [1401382,"2026-03-01 14:10:00","38962","3.818","203.5","6.925","227.5","1023.5110000000001","16.01","62.69","574.5","0.0"],
    [1401383,"2026-03-01 14:20:00","38963","3.6260000000000003","209.0","6.599","221.7","1023.388","16.02","63.69","555.6","0.0"],
    [1401384,"2026-03-01 14:30:00","38964","4.622","213.5","6.501","220.3","1023.377","15.57","65.73","527.5","0.0"],
    [1401385,"2026-03-01 14:40:00","38965","3.4539999999999997","195.5","6.925","158","1023.38","15.76","65.31","503.1","0.0"],
    [1401386,"2026-03-01 14:50:00","38966","4.168","205.5","7.285","220.6","1023.308","15.7","65.45","479.4","0.0"],
    [1401387,"2026-03-01 15:00:00","38967","3.693","192.9","7.84","174.6","1023.186","15.56","66.11","444.1","0.0"],
    [1401388,"2026-03-01 15:10:00","38968","3.5980000000000003","204.3","6.501","215.3","1023.1160000000001","15.43","67.29","353.1","0.0"],
    [1401389,"2026-03-01 15:20:00","38969","3.341","190.8","5.651","179.2","1023.061","14.89","69.25","234.4","0.0"],
    [1401390,"2026-03-01 15:30:00","38970","3.833","207.8","6.697","224.1","1023.005","15.11","68.43","313.2","0.0"],
    [1401391,"2026-03-01 15:40:00","38971","3.736","205.8","7.285","223.1","1022.942","14.92","69.42","230.9","0.0"],
    [1401392,"2026-03-01 15:50:00","38972","3.5860000000000003","203.9","7.056","225.8","1022.919","14.97","69.1","318.0","0.0"],
    [1401393,"2026-03-01 16:00:00","38973","3.824","206.3","6.37","216.1","1022.8919999999999","15.0","69.5","271.2","0.0"],
    [1401394,"2026-03-01 16:10:00","38974","3.596","207.3","6.011","222.2","1022.8589999999999","14.85","70.92","226.8","0.0"],
    [1401395,"2026-03-01 16:20:00","38975","3.83","207.7","7.187","203.5","1022.855","14.78","71.63","200.3","0.0"],
    [1401396,"2026-03-01 16:30:00","38976","4.454","211.0","7.154","210.7","1022.8439999999999","14.33","72.76","99.8","0.0"],
    [1401397,"2026-03-01 16:40:00","38977","3.532","208.5","6.533","224.4","1022.7860000000001","14.31","73.74","135.2","0.0"],
    [1401398,"2026-03-01 16:50:00","38978","4.053999999999999","213.3","6.631","239.9","1022.7389999999999","14.29","73.45","133.4","0.0"],
    [1401399,"2026-03-01 17:00:00","38979","3.972","216.4","7.415","207.2","1022.7330000000001","14.08","74.61","88.9","0.0"],
    [1401400,"2026-03-01 17:10:00","38980","4.5360000000000005","220.7","6.925","216.5","1022.688","13.83","75.96","38.53","0.0"],
    [1401401,"2026-03-01 17:20:00","38981","2.988","210.3","6.043","225.5","1022.643","13.74","76.83","24.39","0.0"],
    [1401402,"2026-03-01 17:30:00","38982","3.202","216.0","5.586","224.6","1022.6080000000001","13.6","77.55","14.76","0.0"],
    [1401403,"2026-03-01 17:40:00","38983","3.27","214.5","5.847","228.7","1022.6060000000001","13.47","78.51","6.803999999999999","0.0"],
    [1401404,"2026-03-01 17:50:00","38984","3.217","218.3","5.749","237.9","1022.645","13.33","79.39","1.213","0.0"],
    [1401405,"2026-03-01 18:00:00","38985","3.04","217.1","5.847","239.7","1022.678","13.2","80.1","-1.778","0.0"],
    [1401406,"2026-03-01 18:10:00","38986","2.912","214.2","5.194","229.6","1022.7710000000001","13.13","80.5","-2.741","0.0"],
    [1401407,"2026-03-01 18:20:00","38987","2.326","215.4","4.769","241.9","1022.812","12.98","81.2","-2.763","0.0"],
    [1401408,"2026-03-01 18:30:00","38988","2.217","212.1","5.39","200.6","1022.908","12.97","81.8","-2.761","0.0"],
    [1401409,"2026-03-01 18:40:00","38989","2.54","216.9","4.606","230.3","1022.997","12.96","82.0","-2.7910000000000004","0.0"],
    [1401410,"2026-03-01 18:50:00","38990","2.219","216.9","4.247","193.4","1023.034","12.86","82.6","-2.761","0.0"],
    [1401411,"2026-03-01 19:00:00","38991","2.764","219.8","4.41","225.9","1022.977","12.97","82.4","-2.5540000000000003","0.0"],
    [1401412,"2026-03-01 19:10:00","38992","2.3169999999999997","215.7","3.92","207.6","1022.962","13.05","82.1","-2.015","0.0"],
    [1401413,"2026-03-01 19:20:00","38993","2.8989999999999996","216.4","5.096","218.4","1022.977","13.12","81.8","-1.589","0.0"],
    [1401414,"2026-03-01 19:30:00","38994","2.8","218.6","4.345","260.8","1022.9780000000001","13.18","81.2","-1.401","0.0"],
    [1401415,"2026-03-01 19:40:00","38995","2.718","218.8","4.573","213.6","1023.015","13.17","80.8","-1.3230000000000002","0.0"],
    [1401416,"2026-03-01 19:50:00","38996","3.002","217.3","4.573","216.3","1022.977","13.11","80.3","-1.83","0.0"],
    [1401417,"2026-03-01 20:00:00","38997","2.5869999999999997","215.1","5.259","235.8","1023.0089999999999","13.09","79.57","-2.026","0.0"],
    [1401418,"2026-03-01 20:10:00","38998","2.7030000000000003","215.4","4.377","220.7","1023.061","13.01","78.63","-2.457","0.0"],
    [1401419,"2026-03-01 20:20:00","38999","2.381","217.6","4.443","214.4","1023.097","12.92","77.91","-2.761","0.0"],
    [1401420,"2026-03-01 20:30:00","39000","1.47","237.8","3.136","224","1023.096","12.64","78.85","-2.7710000000000004","0.0"],
    [1401421,"2026-03-01 20:40:00","39001","0.8220000000000001","238.1","1.503","247.2","1023.102","12.27","80.4","-2.8110000000000004","0.0"],
    [1401422,"2026-03-01 20:50:00","39002","0.8959999999999999","236.9","1.339","254","1023.0889999999999","12.16","82.4","-3.128","0.0"],
    [1401423,"2026-03-01 21:00:00","39003","0.9620000000000001","246.3","1.601","246.4","1023.096","12.0","83.3","-2.7939999999999996","0.0"],
    [1401424,"2026-03-01 21:10:00","39004","0.6629999999999999","256.3","1.176","247.3","1023.14","11.8","83.6","-2.7710000000000004","0.0"],
    [1401425,"2026-03-01 21:20:00","39005","0.255","256.8","0.751","251.1","1023.13","11.24","84.4","-3.217","0.0"],
    [1401426,"2026-03-01 21:30:00","39006","0.29600000000000004","267.0","1.078","277.1","1023.145","10.97","84.4","-3.319","0.0"],
    [1401427,"2026-03-01 21:40:00","39007","0.551","265.9","1.209","272.2","1023.123","11.07","83.5","-2.9389999999999996","0.0"],
    [1401428,"2026-03-01 21:50:00","39008","0.675","275.9","1.535","262.9","1023.1080000000001","11.03","82.9","-2.907","0.0"],
    [1401429,"2026-03-01 22:00:00","39009","0.304","278.2","0.98","273.8","1023.071","10.72","83.5","-2.762","0.0"],
    [1401430,"2026-03-01 22:10:00","39010","0.261","268.1","0.719","268.8","1023.0310000000001","10.44","85.0","-2.784","0.0"],
    [1401431,"2026-03-01 22:20:00","39011","0.149","271.8","0.751","275.3","1022.997","10.72","84.0","-2.7560000000000002","0.0"],
    [1401432,"2026-03-01 22:30:00","39012","0.6629999999999999","272.0","1.143","267.6","1022.9630000000001","10.5","84.6","-2.727","0.0"],
    [1401433,"2026-03-01 22:40:00","39013","0.522","271.9","0.947","269.6","1022.8969999999999","10.33","85.3","-2.263","0.0"],
    [1401434,"2026-03-01 22:50:00","39014","0.45899999999999996","272.5","0.98","275.3","1022.841","10.32","85.3","-2.655","0.0"],
    [1401435,"2026-03-01 23:00:00","39015","0.8","276.0","1.307","278","1022.778","10.33","85.0","-2.761","0.0"],
    [1401436,"2026-03-01 23:10:00","39016","0.8540000000000001","277.6","1.209","274.4","1022.6510000000001","10.13","84.9","-2.759","0.0"],
    [1401437,"2026-03-01 23:20:00","39017","0.95","281.6","1.601","280","1022.529","10.09","84.9","-2.762","0.0"],
    [1401438,"2026-03-01 23:30:00","39018","0.36700000000000005","281.0","0.882","283.4","1022.512","9.84","85.3","-2.7739999999999996","0.0"],
    [1401439,"2026-03-01 23:40:00","39019","0.0","280.8","0.033","280.8","1022.454","9.97","85.4","-2.219","0.0"],
    [1401440,"2026-03-01 23:50:00","39020","0.20800000000000002","278.8","0.555","278.9","1022.346","10.12","84.7","-1.255","0.0"],
    [1401441,"2026-03-02 00:00:00","39021","0.909","272.8","1.568","271.2","1022.2869999999999","10.29","84.3","-1.4669999999999999","0.0"],
    [1401442,"2026-03-02 00:10:00","39022","1.864","270.4","3.005","267.2","1022.2539999999999","10.29","83.9","-2.4","0.0"],
    [1401443,"2026-03-02 00:20:00","39023","1.609","278.2","2.287","275.5","1022.2439999999999","9.97","84.5","-1.381","0.0"],
    [1401444,"2026-03-02 00:30:00","39024","1.578","269.7","1.993","257.3","1022.165","9.73","85.3","-2.069","0.0"],
    [1401445,"2026-03-02 00:40:00","39025","1.4180000000000001","277.4","1.829","283.6","1022.0980000000001","9.64","85.5","-2.4859999999999998","0.0"],
    [1401446,"2026-03-02 00:50:00","39026","1.1","277.1","1.666","277","1022.012","9.6","85.6","-2.336","0.0"],
    [1401447,"2026-03-02 01:00:00","39027","0.82","281.3","1.503","281.2","1021.94","9.53","85.6","-2.6069999999999998","0.0"],
    [1401448,"2026-03-02 01:10:00","39028","0.858","275.9","1.568","278.9","1021.927","9.35","86.5","-2.76","0.0"],
    [1401449,"2026-03-02 01:20:00","39029","0.61","276.6","1.274","259.5","1021.8330000000001","9.46","86.2","-2.727","0.0"],
    [1401450,"2026-03-02 01:30:00","39030","0.785","275.6","1.274","279.4","1021.75","9.23","86.7","-2.7689999999999997","0.0"],
    [1401451,"2026-03-02 01:40:00","39031","0.35100000000000003","280.8","1.013","283.4","1021.676","9.11","86.8","-2.764","0.0"],
    [1401452,"2026-03-02 01:50:00","39032","0.5529999999999999","272.6","0.98","270.6","1021.548","8.97","87.6","-2.765","0.0"],
    [1401453,"2026-03-02 02:00:00","39033","0.257","275.4","0.98","274.8","1021.3639999999999","8.85","87.7","-2.7680000000000002","0.0"],
    [1401454,"2026-03-02 02:10:00","39034","1.137","274.1","1.47","275.4","1021.232","8.45","88.5","-2.784","0.0"],
    [1401455,"2026-03-02 02:20:00","39035","1.732","278.2","2.613","275.1","1021.1110000000001","8.41","89.1","-2.7680000000000002","0.0"],
    [1401456,"2026-03-02 02:30:00","39036","1.671","282.5","2.45","273.8","1021.0039999999999","8.4","88.5","-2.766","0.0"],
    [1401457,"2026-03-02 02:40:00","39037","1.093","283.9","1.568","281.6","1020.932","8.24","88.5","-2.77","0.0"],
    [1401458,"2026-03-02 02:50:00","39038","0.972","284.7","1.568","278.7","1020.883","8.09","88.9","-2.773","0.0"],
    [1401459,"2026-03-02 03:00:00","39039","0.767","286.5","1.47","279.6","1020.826","7.9079999999999995","89.1","-2.7739999999999996","0.0"],
    [1401460,"2026-03-02 03:10:00","39040","0.6779999999999999","269.1","1.339","270.7","1020.763","8.0","89.7","-2.775","0.0"],
    [1401461,"2026-03-02 03:20:00","39041","1.692","267.0","2.287","272","1020.675","8.29","89.2","-2.7760000000000002","0.0"],
    [1401462,"2026-03-02 03:30:00","39042","1.643","273.3","2.287","278.6","1020.612","8.3","88.7","-2.775","0.0"],
    [1401463,"2026-03-02 03:40:00","39043","1.376","272.0","2.025","285","1020.607","8.18","88.6","-2.775","0.0"],
    [1401464,"2026-03-02 03:50:00","39044","1.29","268.6","1.96","279.6","1020.6010000000001","8.1","88.6","-2.7739999999999996","0.0"],
    [1401465,"2026-03-02 04:00:00","39045","1.679","268.4","2.352","269.3","1020.5880000000001","7.994","88.4","-2.78","0.0"],
    [1401466,"2026-03-02 04:10:00","39046","1.82","274.2","2.352","257.5","1020.571","7.83","88.6","-2.7760000000000002","0.0"],
    [1401467,"2026-03-02 04:20:00","39047","1.702","280.8","2.483","279.7","1020.528","7.665","88.6","-2.779","0.0"],
    [1401468,"2026-03-02 04:30:00","39048","1.521","281.7","2.221","276.1","1020.518","7.547000000000001","88.7","-2.78","0.0"],
    [1401469,"2026-03-02 04:40:00","39049","1.062","288.0","1.797","300.6","1020.493","7.62","88.6","-2.781","0.0"],
    [1401470,"2026-03-02 04:50:00","39050","1.4369999999999998","271.9","2.352","259.1","1020.457","7.716","88.0","-2.784","0.0"],
    [1401471,"2026-03-02 05:00:00","39051","1.796","276.2","2.515","293.6","1020.4630000000001","7.638","87.5","-2.7760000000000002","0.0"],
    [1401472,"2026-03-02 05:10:00","39052","1.618","276.0","2.679","278.5","1020.449","7.534","87.4","-2.7769999999999997","0.0"],
    [1401473,"2026-03-02 05:20:00","39053","1.162","284.6","2.058","277.9","1020.445","7.404","87.5","-2.7760000000000002","0.0"],
    [1401474,"2026-03-02 05:30:00","39054","1.525","284.2","2.515","282.7","1020.4060000000001","7.242000000000001","87.8","-2.778","0.0"],
    [1401475,"2026-03-02 05:40:00","39055","1.995","285.1","2.548","290.9","1020.36","7.184","87.9","-2.7769999999999997","0.0"],
    [1401476,"2026-03-02 05:50:00","39056","1.4580000000000002","285.0","2.189","283.3","1020.3","7.013","88.1","-2.779","0.0"],
    [1401477,"2026-03-02 06:00:00","39057","1.3780000000000001","281.3","2.189","282.8","1020.323","6.952999999999999","88.2","-2.779","0.0"],
    [1401478,"2026-03-02 06:10:00","39058","1.39","279.5","2.483","276.2","1020.331","7.042999999999999","88.1","-2.781","0.0"],
    [1401479,"2026-03-02 06:20:00","39059","1.9909999999999999","272.3","3.332","282.7","1020.322","7.193","87.4","-1.546","0.0"],
    [1401480,"2026-03-02 06:30:00","39060","1.9869999999999999","281.8","2.875","279.2","1020.288","7.09","87.1","1.4080000000000001","0.0"],
    [1401481,"2026-03-02 06:40:00","39061","1.15","292.7","1.797","291.9","1020.306","6.989","87.4","10.97","0.0"],
    [1401482,"2026-03-02 06:50:00","39062","1.165","293.4","2.058","291.4","1020.37","7.221","87.1","30.01","0.0"],
    [1401483,"2026-03-02 07:00:00","39063","1.335","289.2","2.319","298.3","1020.455","7.557","85.8","30.77","0.0"],
    [1401484,"2026-03-02 07:10:00","39064","1.682","294.9","2.842","293.8","1020.477","7.864","85.1","36.4","0.0"],
    [1401485,"2026-03-02 07:20:00","39065","1.4069999999999998","294.6","2.515","291","1020.5360000000001","8.22","84.1","45.28","0.0"],
    [1401486,"2026-03-02 07:30:00","39066","1.222","291.8","1.927","280.4","1020.597","8.58","83.4","53.07","0.0"],
    [1401487,"2026-03-02 07:40:00","39067","1.3630000000000002","283.7","2.091","287.9","1020.635","9.04","81.9","116.2","0.0"],
    [1401488,"2026-03-02 07:50:00","39068","1.817","291.6","2.548","286.4","1020.7280000000001","9.49","80.1","158.4","0.0"],
    [1401489,"2026-03-02 08:00:00","39069","1.653","292.4","2.385","296.7","1020.758","9.99","78.95","187.9","0.0"],
    [1401490,"2026-03-02 08:10:00","39070","2.082","294.2","2.515","290.1","1020.757","10.35","76.96","222.7","0.0"],
    [1401491,"2026-03-02 08:20:00","39071","1.489","286.9","2.254","279.2","1020.8489999999999","10.76","75.95","259.6","0.0"],
    [1401492,"2026-03-02 08:30:00","39072","1.618","298.9","2.123","303.4","1020.8510000000001","11.17","74.06","309.2","0.0"],
    [1401493,"2026-03-02 08:40:00","39073","1.1340000000000001","284.5","2.483","301.8","1020.88","11.85","71.83","437.2","0.0"],
    [1401494,"2026-03-02 08:50:00","39074","0.635","287.4","1.47","307.5","1020.8989999999999","12.47","69.87","284.3","0.0"],
    [1401495,"2026-03-02 09:00:00","39075","1.024","286.6","1.993","294.9","1020.9810000000001","12.69","69.64","224.9","0.0"],
    [1401496,"2026-03-02 09:10:00","39076","2.116","281.5","3.234","284.8","1021.14","12.14","70.39","195.3","0.0"],
    [1401497,"2026-03-02 09:20:00","39077","1.6219999999999999","282.3","2.352","270.2","1021.178","11.71","72.29","204.3","0.0"],
    [1401498,"2026-03-02 09:30:00","39078","1.975","279.0","3.267","284.8","1021.203","11.97","71.19","203.7","0.0"],
    [1401499,"2026-03-02 09:40:00","39079","1.9240000000000002","287.3","2.875","296.4","1021.222","11.62","72.2","226.8","0.0"],
    [1401500,"2026-03-02 09:50:00","39080","1.724","282.1","3.071","298.1","1021.237","12.04","70.99","259.1","0.0"],
    [1401501,"2026-03-02 10:00:00","39081","1.526","285.7","2.385","298.2","1021.221","12.49","70.31","289.0","0.0"],
    [1401502,"2026-03-02 10:10:00","39082","1.4069999999999998","295.7","2.907","299.5","1021.235","12.8","70.26","271.7","0.0"],
    [1401503,"2026-03-02 10:20:00","39083","1.157","280.5","2.287","279.3","1021.2919999999999","13.03","69.64","225.3","0.0"],
    [1401504,"2026-03-02 10:30:00","39084","0.722","295.7","1.601","296.4","1021.335","13.16","70.94","216.0","0.0"],
    [1401505,"2026-03-02 10:40:00","39085","0.23600000000000002","345.1","0.98","338","1021.3530000000001","13.38","71.53","255.3","0.0"],
    [1401506,"2026-03-02 10:50:00","39086","0.7809999999999999","65.31","2.385","85.1","1021.2669999999999","13.69","72.19","319.9","0.0"],
    [1401507,"2026-03-02 11:00:00","39087","1.321","100.3","2.711","83","1021.26","13.96","73.85","350.8","0.0"],
    [1401508,"2026-03-02 11:10:00","39088","1.2819999999999998","100.1","2.679","101.6","1021.183","13.98","74.03","434.8","0.0"],
    [1401509,"2026-03-02 11:20:00","39089","2.464","73.58","3.953","77.32","1021.092","13.97","74.54","476.1","0.0"],
    [1401510,"2026-03-02 11:30:00","39090","2.44","61.47","4.247","83.3","1021.05","14.07","73.51","605.4","0.0"],
    [1401511,"2026-03-02 11:40:00","39091","3.073","63.66","4.312","60.6","1020.877","14.13","73.13","695.8","0.0"],
    [1401512,"2026-03-02 11:50:00","39092","3.445","70.65","5.129","61.66","1020.7239999999999","14.19","72.93","682.3","0.0"],
    [1401513,"2026-03-02 12:00:00","39093","4.038","79.15","5.717","58.95","1020.56","14.18","73.17","665.6","0.0"],
    [1401514,"2026-03-02 12:10:00","39094","3.748","74.87","5.815","86.2","1020.4839999999999","14.1","73.46","690.8","0.0"],
    [1401515,"2026-03-02 12:20:00","39095","3.51","81.9","5.815","75.07","1020.472","14.4","72.75","689.9","0.0"],
    [1401516,"2026-03-02 12:30:00","39096","3.535","78.49","5.651","75.21","1020.388","14.52","72.51","640.8","0.0"],
    [1401517,"2026-03-02 12:40:00","39097","3.576","77.06","5.031","82.4","1020.2669999999999","14.32","72.99","687.4","0.0"],
    [1401518,"2026-03-02 12:50:00","39098","3.386","82.5","4.867","87.8","1020.2139999999999","14.61","72.72","668.0","0.0"],
    [1401519,"2026-03-02 13:00:00","39099","3.4360000000000004","75.55","4.769","61.2","1020.128","14.7","72.15","689.8","0.0"],
    [1401520,"2026-03-02 13:10:00","39100","3.2689999999999997","90.7","5.063","81.7","1020.028","14.56","72.11","626.8","0.0"],
    [1401521,"2026-03-02 13:20:00","39101","3.445","90.7","5.651","86.4","1019.9069999999999","14.39","72.51","627.3","0.0"],
    [1401522,"2026-03-02 13:30:00","39102","3.4210000000000003","88.4","4.508","87.7","1019.868","14.38","73.36","652.1","0.0"],
    [1401523,"2026-03-02 13:40:00","39103","3.577","91.3","4.998","94.3","1019.706","14.43","73.5","621.9","0.0"],
    [1401524,"2026-03-02 13:50:00","39104","2.97","97.8","5.488","86.8","1019.6360000000001","14.56","73.1","606.6","0.0"],
    [1401525,"2026-03-02 14:00:00","39105","3.355","97.4","5.129","85.8","1019.5010000000001","14.53","73.72","594.6","0.0"],
    [1401526,"2026-03-02 14:10:00","39106","3.4930000000000003","94.3","4.965","97.7","1019.419","14.44","74.45","584.0","0.0"],
    [1401527,"2026-03-02 14:20:00","39107","3.128","96.4","4.541","87","1019.341","14.55","74.37","499.2","0.0"],
    [1401528,"2026-03-02 14:30:00","39108","2.8710000000000004","96.4","4.573","89.8","1019.312","14.55","73.77","456.5","0.0"],
    [1401529,"2026-03-02 14:40:00","39109","3.137","89.6","4.377","103","1019.302","14.4","74.52","409.1","0.0"],
    [1401530,"2026-03-02 14:50:00","39110","3.385","91.3","5.063","73.7","1019.279","14.42","75.46","413.0","0.0"],
    [1401531,"2026-03-02 15:00:00","39111","3.38","91.1","5.227","73.87","1019.2719999999999","14.16","76.77","278.4","0.0"],
    [1401532,"2026-03-02 15:10:00","39112","2.766","92.5","4.181","82.3","1019.2760000000001","13.99","78.1","139.4","0.0"],
    [1401533,"2026-03-02 15:20:00","39113","2.12","98.8","3.332","93.1","1019.2539999999999","13.94","78.67","135.7","0.0"],
    [1401534,"2026-03-02 15:30:00","39114","2.875","95.4","4.279","97.7","1019.1569999999999","13.98","78.79","146.6","0.0"],
    [1401535,"2026-03-02 15:40:00","39115","2.722","97.0","3.757","92.5","1019.0369999999999","13.86","79.36","154.9","0.0"],
    [1401536,"2026-03-02 15:50:00","39116","3.469","94.5","5.063","82.8","1018.868","13.9","79.62","155.7","0.0"],
    [1401537,"2026-03-02 16:00:00","39117","2.702","98.6","4.345","93.6","1018.868","13.88","79.75","143.2","0.0"],
    [1401538,"2026-03-02 16:10:00","39118","2.089","98.8","3.724","80.3","1018.933","13.93","79.36","122.9","0.0"],
    [1401539,"2026-03-02 16:20:00","39119","1.5519999999999998","102.4","3.169","129.9","1018.985","13.98","78.83","106.8","0.0"],
    [1401540,"2026-03-02 16:30:00","39120","1.715","99.2","3.103","80.2","1018.936","13.94","78.99","92.5","0.0"],
    [1401541,"2026-03-02 16:40:00","39121","2.185","91.3","3.332","84.3","1018.952","13.92","79.39","76.12","0.0"],
    [1401542,"2026-03-02 16:50:00","39122","1.766","104.4","3.169","116.4","1018.9680000000001","13.85","79.14","58.34","0.0"],
    [1401543,"2026-03-02 17:00:00","39123","1.7480000000000002","93.4","3.267","77.69","1018.946","13.75","77.89","45.63","0.0"],
    [1401544,"2026-03-02 17:10:00","39124","2.309","90.5","3.495","93.4","1018.9789999999999","13.7","77.65","32.09","0.0"],
    [1401545,"2026-03-02 17:20:00","39125","2.329","93.5","3.267","103.3","1019.0889999999999","13.61","78.63","18.81","0.0"],
    [1401546,"2026-03-02 17:30:00","39126","1.633","103.6","3.299","91","1019.203","13.55","79.19","8.12","0.0"],
    [1401547,"2026-03-02 17:40:00","39127","1.463","111.2","2.809","109.4","1019.279","13.55","79.7","2.488","0.0"],
    [1401548,"2026-03-02 17:50:00","39128","1.632","101.0","2.973","104.9","1019.4169999999999","13.52","79.18","-0.052000000000000005","0.0"],
    [1401549,"2026-03-02 18:00:00","39129","1.62","97.3","2.842","88.6","1019.5089999999999","13.5","78.52","-1.183","0.0"],
    [1401550,"2026-03-02 18:10:00","39130","2.174","92.6","2.907","93.8","1019.497","13.51","79.15","-1.506","0.0"],
    [1401551,"2026-03-02 18:20:00","39131","2.069","92.6","2.875","90.4","1019.533","13.42","79.69","-2.003","0.0"],
    [1401552,"2026-03-02 18:30:00","39132","2.35","93.5","3.103","91.2","1019.623","13.38","79.83","-1.5519999999999998","0.0"],
    [1401553,"2026-03-02 18:40:00","39133","2.221","91.9","3.495","100.4","1019.692","13.46","80.4","-1.2570000000000001","0.0"],
    [1401554,"2026-03-02 18:50:00","39134","2.077","90.7","3.169","89.6","1019.762","13.42","81.4","-1.449","0.0"],
    [1401555,"2026-03-02 19:00:00","39135","2.097","88.3","3.234","89.1","1019.814","13.33","81.4","-1.983","0.0"],
    [1401556,"2026-03-02 19:10:00","39136","1.985","94.1","2.875","91.7","1019.916","13.32","80.5","-1.8259999999999998","0.0"],
    [1401557,"2026-03-02 19:20:00","39137","1.909","88.6","2.94","85.4","1019.987","13.35","80.6","-1.4","0.0"],
    [1401558,"2026-03-02 19:30:00","39138","2.073","89.6","3.103","92.6","1019.985","13.37","80.6","-1.459","0.0"],
    [1401559,"2026-03-02 19:40:00","39139","1.7990000000000002","85.4","2.777","82.1","1019.9960000000001","13.28","81.0","-2.009","0.0"],
    [1401560,"2026-03-02 19:50:00","39140","2.019","78.99","3.071","89.9","1020.041","13.17","81.9","-2.031","0.0"],
    [1401561,"2026-03-02 20:00:00","39141","2.028","73.61","2.548","84.2","1020.025","13.07","82.8","-2.089","0.0"],
    [1401562,"2026-03-02 20:10:00","39142","2.252","68.66","2.907","80.8","1020.066","12.94","83.2","-2.066","0.0"],
    [1401563,"2026-03-02 20:20:00","39143","1.993","64.76","2.973","69.83","1020.079","12.89","83.7","-2.097","0.0"],
    [1401564,"2026-03-02 20:30:00","39144","2.395","60.76","3.659","61.27","1020.1610000000001","12.91","83.5","-2.162","0.0"],
    [1401565,"2026-03-02 20:40:00","39145","2.459","59.46","4.247","49.83","1020.211","12.99","83.2","-2.0269999999999997","0.0"],
    [1401566,"2026-03-02 20:50:00","39146","2.7539999999999996","58.76","3.757","48.39","1020.321","13.05","83.0","-1.9","0.0"],
    [1401567,"2026-03-02 21:00:00","39147","2.642","59.17","3.855","66.09","1020.388","13.07","82.3","-1.706","0.0"],
    [1401568,"2026-03-02 21:10:00","39148","2.989","57.73","4.377","60.13","1020.4","13.1","82.0","-1.2990000000000002","0.0"],
    [1401569,"2026-03-02 21:20:00","39149","3.4810000000000003","54.69","4.867","68.17","1020.3439999999999","13.15","81.7","-1.2690000000000001","0.0"],
    [1401570,"2026-03-02 21:30:00","39150","3.29","65.73","5.39","61.57","1020.47","13.18","81.5","-1.262","0.0"],
    [1401571,"2026-03-02 21:40:00","39151","3.112","62.46","5.292","71.39","1020.5369999999999","13.13","81.7","-1.262","0.0"],
    [1401572,"2026-03-02 21:50:00","39152","3.235","61.16","5.031","69.48","1020.515","13.11","81.0","-1.4669999999999999","0.0"],
    [1401573,"2026-03-02 22:00:00","39153","3.2560000000000002","57.89","4.639","57.14","1020.459","13.08","81.5","-1.81","0.0"],
    [1401574,"2026-03-02 22:10:00","39154","3.398","53.72","4.867","47.07","1020.454","13.05","81.5","-1.9869999999999999","0.0"],
    [1401575,"2026-03-02 22:20:00","39155","3.0780000000000003","56.75","4.377","52.33","1020.438","13.04","81.5","-1.979","0.0"],
    [1401576,"2026-03-02 22:30:00","39156","3.3489999999999998","55.29","4.965","60.66","1020.4110000000001","13.02","81.9","-1.9880000000000002","0.0"],
    [1401577,"2026-03-02 22:40:00","39157","3.122","50.1","4.998","76.88","1020.414","13.05","81.8","-1.6380000000000001","0.0"],
    [1401578,"2026-03-02 22:50:00","39158","3.028","41.28","4.41","36.9","1020.321","13.09","81.1","-1.781","0.0"],
    [1401579,"2026-03-02 23:00:00","39159","2.887","47.15","4.116","55.53","1020.3589999999999","13.01","81.2","-1.98","0.0"],
    [1401580,"2026-03-02 23:10:00","39160","3.385","45.17","4.9","45.83","1020.3489999999999","13.07","81.5","-1.653","0.0"],
    [1401581,"2026-03-02 23:20:00","39161","3.0460000000000003","46.57","4.606","39.69","1020.362","13.06","81.6","-1.547","0.0"],
    [1401582,"2026-03-02 23:30:00","39162","3.4530000000000003","45.9","5.39","41.4","1020.44","13.06","81.4","-1.516","0.0"],
    [1401583,"2026-03-02 23:40:00","39163","3.8930000000000002","48.02","5.749","54.55","1020.452","13.04","81.1","-1.9980000000000002","0.0"],
    [1401584,"2026-03-02 23:50:00","39164","3.715","41.77","5.521","54.89","1020.449","13.02","80.9","-1.9969999999999999","0.0"],
    [1401585,"2026-03-03 00:00:00","39165","3.8169999999999997","38.1","5.815","40.15","1020.39","12.97","82.4","-1.9509999999999998","0.0"],
    [1401586,"2026-03-03 00:10:00","39166","3.799","39.16","5.88","48.95","1020.352","12.9","82.5","-1.85","0.0"],
    [1401587,"2026-03-03 00:20:00","39167","3.575","36.71","5.423","26.08","1020.3660000000001","12.9","82.3","-1.37","0.0"],
    [1401588,"2026-03-03 00:30:00","39168","3.679","40.15","6.011","33.85","1020.445","12.93","82.4","-1.262","0.0"],
    [1401589,"2026-03-03 00:40:00","39169","3.611","38.08","5.063","30.04","1020.5210000000001","12.96","82.1","-1.261","0.0"],
    [1401590,"2026-03-03 00:50:00","39170","3.583","38.21","6.207","38.17","1020.452","12.92","81.9","-1.262","0.0"],
    [1401591,"2026-03-03 01:00:00","39171","3.537","40.35","5.782","39.81","1020.304","12.89","82.2","-1.268","0.0"],
    [1401592,"2026-03-03 01:10:00","39172","4.223","39.68","6.403","44.13","1020.2539999999999","12.9","82.4","-1.262","0.0"],
    [1401593,"2026-03-03 01:20:00","39173","4.192","43.65","6.762","47.26","1020.3589999999999","12.93","82.5","-1.261","0.0"],
    [1401594,"2026-03-03 01:30:00","39174","3.608","43.98","5.88","48.64","1020.39","12.95","81.9","-1.261","0.0"],
    [1401595,"2026-03-03 01:40:00","39175","3.737","43.04","5.847","32.77","1020.324","12.96","81.6","-1.261","0.0"],
    [1401596,"2026-03-03 01:50:00","39176","3.917","42.71","5.684","49.3","1020.225","12.93","81.0","-1.261","0.0"],
    [1401597,"2026-03-03 02:00:00","39177","4.082","42.0","6.403","46.5","1020.302","12.99","80.5","-1.261","0.0"],
    [1401598,"2026-03-03 02:10:00","39178","3.91","48.48","6.664","36.69","1020.35","12.99","80.5","-1.261","0.0"],
    [1401599,"2026-03-03 02:20:00","39179","4.253","50.79","6.207","57.2","1020.438","12.99","80.8","-1.261","0.0"],
    [1401600,"2026-03-03 02:30:00","39180","4.393","45.41","7.154","48.42","1020.4","13.03","79.39","-1.25","0.0"],
    [1401601,"2026-03-03 02:40:00","39181","3.6489999999999996","43.74","6.043","32.85","1020.2669999999999","13.05","78.64","-1.24","0.0"],
    [1401602,"2026-03-03 02:50:00","39182","4.603","39.05","7.154","40.98","1020.225","13.09","76.06","-1.261","0.0"],
    [1401603,"2026-03-03 03:00:00","39183","4.582","36.43","6.501","45.63","1020.252","13.18","74.63","-1.2590000000000001","0.0"],
    [1401604,"2026-03-03 03:10:00","39184","3.301","33.38","5.292","28.83","1020.204","13.17","74.69","-1.216","0.0"],
    [1401605,"2026-03-03 03:20:00","39185","3.181","21.75","4.965","11.92","1020.2","13.18","74.22","-0.8340000000000001","0.0"],
    [1401606,"2026-03-03 03:30:00","39186","3.3930000000000002","22.11","5.39","12.33","1020.1080000000001","13.09","74.36","-1.23","0.0"],
    [1401607,"2026-03-03 03:40:00","39187","3.366","24.8","6.305","17.28","1020.175","13.12","74.96","-1.254","0.0"],
    [1401608,"2026-03-03 03:50:00","39188","3.515","25.34","5.619","27.54","1020.3330000000001","13.21","74.24","-1.131","0.0"],
    [1401609,"2026-03-03 04:00:00","39189","3.43","23.02","5.129","20.19","1020.3660000000001","13.23","75.14","-2.285","0.0"],
    [1401610,"2026-03-03 04:10:00","39190","3.653","29.16","5.553","36.84","1020.289","13.04","77.13","-3.3710000000000004","0.0"],
    [1401611,"2026-03-03 04:20:00","39191","3.673","24.33","5.651","30.27","1020.247","13.05","77.12","-2.365","0.0"],
    [1401612,"2026-03-03 04:30:00","39192","3.1639999999999997","24.08","5.031","17.64","1020.217","13.1","76.95","-1.311","0.0"],
    [1401613,"2026-03-03 04:40:00","39193","3.307","31.14","4.835","13.07","1020.301","13.1","77.0","-1.261","0.0"],
    [1401614,"2026-03-03 04:50:00","39194","3.303","29.63","5.292","21.35","1020.368","13.14","76.8","-1.261","0.0"],
    [1401615,"2026-03-03 05:00:00","39195","3.4619999999999997","26.26","5.423","21.25","1020.291","13.08","76.81","-1.261","0.0"],
    [1401616,"2026-03-03 05:10:00","39196","3.2230000000000003","24.29","5.259","22.43","1020.352","13.09","76.77","-1.261","0.0"],
    [1401617,"2026-03-03 05:20:00","39197","3.565","22.58","4.965","15.22","1020.435","13.15","76.29","-1.2570000000000001","0.0"],
    [1401618,"2026-03-03 05:30:00","39198","2.932","21.5","4.443","21.48","1020.3739999999999","13.21","75.94","-1.0290000000000001","0.0"],
    [1401619,"2026-03-03 05:40:00","39199","2.269","16.38","3.397","6.131","1020.3639999999999","13.23","75.46","-0.638","0.0"],
    [1401620,"2026-03-03 05:50:00","39200","2.929","26.09","4.769","26.12","1020.284","13.29","74.98","-0.665","0.0"],
    [1401621,"2026-03-03 06:00:00","39201","3.035","20.78","4.933","18.27","1020.363","13.34","74.51","-0.594","0.0"],
    [1401622,"2026-03-03 06:10:00","39202","3.057","21.53","4.769","26.56","1020.268","13.42","74.13","-0.5429999999999999","0.0"],
    [1401623,"2026-03-03 06:20:00","39203","3.944","22.36","5.782","16.49","1020.168","13.52","73.64","-0.48200000000000004","0.0"],
    [1401624,"2026-03-03 06:30:00","39204","3.668","26.29","5.357","17.03","1020.11","13.59","73.26","0.376","0.0"],
    [1401625,"2026-03-03 06:40:00","39205","3.931","26.71","6.109","10.02","1020.1080000000001","13.62","73.06","1.495","0.0"],
    [1401626,"2026-03-03 06:50:00","39206","3.592","27.97","5.031","22.48","1020.14","13.74","72.72","6.142","0.0"],
    [1401627,"2026-03-03 07:00:00","39207","3.5580000000000003","31.16","5.782","28.71","1020.095","13.83","72.87","13.23","0.0"],
    [1401628,"2026-03-03 07:10:00","39208","4.297","30.0","6.795","31.74","1020.102","13.97","72.73","20.17","0.0"],
    [1401629,"2026-03-03 07:20:00","39209","3.861","33.29","5.88","21.01","1020.045","14.01","72.93","30.06","0.0"],
    [1401630,"2026-03-03 07:30:00","39210","4.215","28.94","6.501","35.97","1020.053","14.12","72.84","39.12","0.0"],
    [1401631,"2026-03-03 07:40:00","39211","4.0760000000000005","26.64","6.37","23.98","1020.0880000000001","14.07","72.15","37.99","0.0"],
    [1401632,"2026-03-03 07:50:00","39212","3.523","29.62","5.782","49.89","1020.186","14.18","72.3","47.34","0.0"],
    [1401633,"2026-03-03 08:00:00","39213","3.73","36.93","7.383","46.81","1020.237","14.34","71.9","60.55","0.0"],
    [1401634,"2026-03-03 08:10:00","39214","5.183","43.19","8.23","51.81","1020.312","14.61","71.56","79.98","0.0"],
    [1401635,"2026-03-03 08:20:00","39215","5.207000000000001","43.23","8.26","26.5","1020.4110000000001","14.64","72.75","100.7","0.0"],
    [1401636,"2026-03-03 08:30:00","39216","6.376","46.37","9.31","46.6","1020.4060000000001","14.71","74.55","103.4","0.0"],
    [1401637,"2026-03-03 08:40:00","39217","6.471","47.81","9.41","48.3","1020.535","14.76","74.19","101.2","0.0"],
    [1401638,"2026-03-03 08:50:00","39218","6.1339999999999995","46.38","9.87","36.5","1020.569","14.8","74.12","120.7","0.0"],
    [1401639,"2026-03-03 09:00:00","39219","6.994","44.66","9.8","41.38","1020.545","14.82","73.79","169.3","0.0"],
    [1401640,"2026-03-03 09:10:00","39220","6.819","43.82","NAN","41.38","1020.451","14.89","73.67","228.2","0.0"],
    [1401641,"2026-03-03 09:20:00","39221","6.4670000000000005","43.48","NAN","41.38","1020.4689999999999","15.03","73.27","253.3","0.0"],
    [1401642,"2026-03-03 09:30:00","39222","7.314","48.99","NAN","41.38","1020.638","15.09","73.03","291.4","0.0"],
    [1401643,"2026-03-03 09:40:00","39223","6.926","49.36","10.32","51.32","1020.779","15.14","74.18","290.0","0.0"],
    [1401644,"2026-03-03 09:50:00","39224","7.581","53.6","11.5","52.4","1020.847","15.17","75.31","249.9","0.0"],
    [1401645,"2026-03-03 10:00:00","39225","8.62","53.45","12.41","50.46","1020.846","15.21","75.27","253.2","0.0"],
    [1401646,"2026-03-03 10:10:00","39226","8.05","53.94","11.66","49.2","1020.952","15.2","75.88","289.1","0.0"],
    [1401647,"2026-03-03 10:20:00","39227","9.16","51.85","12.97","51.98","1020.9760000000001","15.26","75.14","345.8","0.0"],
    [1401648,"2026-03-03 10:30:00","39228","8.08","50.14","12.28","35.15","1020.951","15.34","74.71","384.9","0.0"],
    [1401649,"2026-03-03 10:40:00","39229","8.42","48.2","13.59","49.82","1020.95","15.39","73.7","370.4","0.0"],
    [1401650,"2026-03-03 10:50:00","39230","8.69","48.2","12.61","45.14","1020.98","15.33","73.63","407.5","0.0"],
    [1401651,"2026-03-03 11:00:00","39231","8.33","52.96","13.95","52.66","1021.052","15.3","74.18","322.4","0.0"],
    [1401652,"2026-03-03 11:10:00","39232","7.843","49.85","11.07","59.18","1021.1669999999999","15.5","73.75","464.0","0.0"],
    [1401653,"2026-03-03 11:20:00","39233","8.85","53.55","12.94","53.61","1021.2260000000001","15.5","73.95","329.0","0.0"],
    [1401654,"2026-03-03 11:30:00","39234","8.62","53.87","12.15","53.44","1021.222","15.36","74.8","316.7","0.0"],
    [1401655,"2026-03-03 11:40:00","39235","7.971","51.18","12.28","61.71","1021.2189999999999","15.39","74.98","289.8","0.0"],
    [1401656,"2026-03-03 11:50:00","39236","6.962000000000001","49.74","11.3","59.81","1021.2330000000001","15.4","75.17","285.9","0.0"],
    [1401657,"2026-03-03 12:00:00","39237","8.26","47.16","12.15","45.1","1021.087","15.45","74.59","325.4","0.0"],
    [1401658,"2026-03-03 12:10:00","39238","8.0","47.77","11.6","47.74","1021.035","15.49","74.33","360.3","0.0"],
    [1401659,"2026-03-03 12:20:00","39239","7.648","46.44","11.01","37.88","1020.929","15.8","73.43","528.1","0.0"],
    [1401660,"2026-03-03 12:30:00","39240","7.922999999999999","46.86","12.84","56.11","1020.8939999999999","15.68","73.42","327.6","0.0"],
    [1401661,"2026-03-03 12:40:00","39241","7.196000000000001","44.75","11.43","37.42","1020.757","15.61","74.14","345.0","0.0"],
    [1401662,"2026-03-03 12:50:00","39242","7.899","40.48","11.79","26.03","1020.61","15.67","74.06","314.8","0.0"],
    [1401663,"2026-03-03 13:00:00","39243","7.376","45.76","11.3","23.75","1020.5189999999999","15.55","74.83","231.7","0.0"],
    [1401664,"2026-03-03 13:10:00","39244","7.747000000000001","47.03","11.14","49.92","1020.3510000000001","15.4","75.55","222.5","0.0"],
    [1401665,"2026-03-03 13:20:00","39245","7.68","43.09","11.4","41.19","1020.1619999999999","15.43","75.57","258.5","0.0"],
    [1401666,"2026-03-03 13:30:00","39246","7.542000000000001","44.45","12.81","59.06","1020.0039999999999","15.51","75.09","257.2","0.0"],
    [1401667,"2026-03-03 13:40:00","39247","7.5920000000000005","44.72","11.4","49.93","1019.86","15.63","74.0","270.1","0.0"],
    [1401668,"2026-03-03 13:50:00","39248","7.332999999999999","46.18","11.69","50.58","1019.7510000000001","15.8","72.69","339.9","0.0"],
    [1401669,"2026-03-03 14:00:00","39249","8.29","47.05","12.12","45.4","1019.627","16.37","69.29","578.4","0.0"],
    [1401670,"2026-03-03 14:10:00","39250","8.3","43.07","12.38","37.86","1019.57","16.5","68.03","517.7","0.0"],
    [1401671,"2026-03-03 14:20:00","39251","7.646","42.12","12.58","23.29","1019.602","16.47","67.65","365.7","0.0"],
    [1401672,"2026-03-03 14:30:00","39252","7.468","46.75","13","42.35","1019.5269999999999","16.28","67.69","240.7","0.0"],
    [1401673,"2026-03-03 14:40:00","39253","7.45","42.31","11.43","33.37","1019.467","16.23","67.26","194.4","0.0"],
    [1401674,"2026-03-03 14:50:00","39254","7.457000000000001","49.71","10.71","48.25","1019.587","16.15","68.63","191.7","0.0"],
    [1401675,"2026-03-03 15:00:00","39255","7.393","48.41","11.79","43.54","1019.618","16.1","67.32","184.6","0.0"],
    [1401676,"2026-03-03 15:10:00","39256","7.67","49.89","12.12","59.07","1019.561","16.1","66.79","177.1","0.0"],
    [1401677,"2026-03-03 15:20:00","39257","8.43","52.7","12.09","66.02","1019.562","15.97","67.57","170.3","0.0"],
    [1401678,"2026-03-03 15:30:00","39258","8.67","52.46","12.38","49.79","1019.4910000000001","15.94","68.98","160.3","0.0"],
    [1401679,"2026-03-03 15:40:00","39259","8.95","53.9","12.81","53.37","1019.3539999999999","15.83","70.18","143.8","0.0"],
    [1401680,"2026-03-03 15:50:00","39260","8.61","52.24","11.92","62.16","1019.2660000000001","15.76","71.32","128.4","0.0"],
    [1401681,"2026-03-03 16:00:00","39261","8.25","53.35","11.73","55.09","1019.225","15.72","72.07","116.0","0.0"],
    [1401682,"2026-03-03 16:10:00","39262","8.32","52.78","12.09","48.29","1019.198","15.72","71.82","114.9","0.0"],
    [1401683,"2026-03-03 16:20:00","39263","8.5","52.53","13.95","58.34","1019.143","15.76","71.57","105.0","0.0"],
    [1401684,"2026-03-03 16:30:00","39264","8.47","52.53","11.99","55.47","1019.1410000000001","15.74","69.92","86.5","0.0"],
    [1401685,"2026-03-03 16:40:00","39265","8.42","53.48","11.34","67.33","1019.138","15.68","70.06","81.9","0.0"],
    [1401686,"2026-03-03 16:50:00","39266","8.53","56.08","11.53","52.85","1019.158","15.61","71.26","77.22","0.0"],
    [1401687,"2026-03-03 17:00:00","39267","7.72","53.45","11.43","49.8","1019.253","15.52","72.45","62.91","0.0"],
    [1401688,"2026-03-03 17:10:00","39268","7.018","52.13","10.29","40.8","1019.383","15.49","72.76","48.63","0.0"],
    [1401689,"2026-03-03 17:20:00","39269","6.853","52.3","10.16","56.42","1019.3739999999999","15.39","72.93","36.18","0.0"],
    [1401690,"2026-03-03 17:30:00","39270","6.1129999999999995","46.7","9.21","51.98","1019.331","15.36","73.2","17.08","0.0"],
    [1401691,"2026-03-03 17:40:00","39271","6.2170000000000005","48.39","9.6","52.88","1019.363","15.29","74.12","1.42","0.0"],
    [1401692,"2026-03-03 17:50:00","39272","5.539","47.72","8.92","41.28","1019.347","15.22","74.24","-1.202","0.0"],
    [1401693,"2026-03-03 18:00:00","39273","6.605","50.99","9.31","48.21","1019.421","15.38","71.68","-1.182","0.0"],
    [1401694,"2026-03-03 18:10:00","39274","5.791","48.52","8.62","41.96","1019.5","15.32","72.1","-1.194","0.0"],
    [1401695,"2026-03-03 18:20:00","39275","5.917999999999999","47.52","9.51","57.39","1019.565","15.5","68.48","-1.235","0.0"],
    [1401696,"2026-03-03 18:30:00","39276","6.311","48.56","9.44","48.43","1019.681","15.52","67.8","-1.227","0.0"],
    [1401697,"2026-03-03 18:40:00","39277","6.074","52.46","10.32","49.14","1019.821","15.28","71.17","-1.145","0.0"],
    [1401698,"2026-03-03 18:50:00","39278","6.511","55.78","8.82","55.11","1019.927","15.03","73.95","-1.225","0.0"],
    [1401699,"2026-03-03 19:00:00","39279","6.721","62.93","9.73","58.11","1020.0360000000001","14.82","75.95","-1.228","0.0"],
    [1401700,"2026-03-03 19:10:00","39280","7.685","63.19","10.98","60.1","1020.164","14.66","78.0","-1.228","0.0"],
    [1401701,"2026-03-03 19:20:00","39281","7.7829999999999995","61.49","10.71","63.34","1020.205","14.48","79.42","-1.227","0.0"],
    [1401702,"2026-03-03 19:30:00","39282","7.925","61.69","11.73","66.79","1020.165","14.38","79.48","-1.236","0.0"],
    [1401703,"2026-03-03 19:40:00","39283","8.6","61.76","12.15","59.78","1020.178","14.32","79.68","-1.228","0.0"],
    [1401704,"2026-03-03 19:50:00","39284","8.2","58.79","11.96","55.72","1020.263","14.27","79.69","-1.23","0.0"],
    [1401705,"2026-03-03 20:00:00","39285","8.22","56.32","12.81","65.48","1020.2489999999999","14.28","79.27","-1.228","0.0"],
    [1401706,"2026-03-03 20:10:00","39286","8.4","54.96","12.64","52.66","1020.263","14.33","78.87","-1.228","0.0"],
    [1401707,"2026-03-03 20:20:00","39287","9.59","55.07","13.43","62.19","1020.32","14.41","78.05","-1.2309999999999999","0.0"],
    [1401708,"2026-03-03 20:30:00","39288","8.18","51.6","13.46","57.05","1020.41","14.43","77.94","-1.232","0.0"],
    [1401709,"2026-03-03 20:40:00","39289","8.11","52.04","11.63","54.09","1020.4580000000001","14.5","76.81","-1.308","0.0"],
    [1401710,"2026-03-03 20:50:00","39290","7.081","51.39","11.56","61.63","1020.5210000000001","14.6","75.26","-1.456","0.0"],
    [1401711,"2026-03-03 21:00:00","39291","7.966","49.44","11.79","44.07","1020.539","14.67","74.29","-1.805","0.0"],
    [1401712,"2026-03-03 21:10:00","39292","7.481","47.89","12.35","50.08","1020.563","14.67","74.34","-1.561","0.0"],
    [1401713,"2026-03-03 21:20:00","39293","6.776","50.21","10.62","57.35","1020.6189999999999","14.58","75.52","-1.4069999999999998","0.0"],
    [1401714,"2026-03-03 21:30:00","39294","7.162000000000001","51.02","10.71","50.72","1020.6519999999999","14.56","75.95","-1.548","0.0"],
    [1401715,"2026-03-03 21:40:00","39295","6.303","48.19","9.6","48.32","1020.6239999999999","14.56","76.47","-1.2990000000000002","0.0"],
    [1401716,"2026-03-03 21:50:00","39296","5.849","50.51","9.6","45.94","1020.575","14.53","76.96","-1.2429999999999999","0.0"],
    [1401717,"2026-03-03 22:00:00","39297","6.894","52.26","9.9","49.56","1020.6189999999999","14.54","77.32","-1.235","0.0"],
    [1401718,"2026-03-03 22:10:00","39298","7.46","54.73","10.16","58.74","1020.6489999999999","14.53","78.29","-1.237","0.0"],
    [1401719,"2026-03-03 22:20:00","39299","6.902","56.14","9.73","64.13","1020.6469999999999","14.45","79.26","-1.2329999999999999","0.0"],
    [1401720,"2026-03-03 22:30:00","39300","7.121","54.28","10.45","51.13","1020.618","14.44","79.15","-1.2309999999999999","0.0"],
    [1401721,"2026-03-03 22:40:00","39301","8.04","52.55","10.88","56.22","1020.569","14.41","79.37","-1.2309999999999999","0.0"],
    [1401722,"2026-03-03 22:50:00","39302","8.31","53.26","12.15","60.79","1020.615","14.39","79.43","-1.235","0.0"],
    [1401723,"2026-03-03 23:00:00","39303","7.336","52.82","10.91","58.81","1020.66","14.39","78.72","-1.24","0.0"],
    [1401724,"2026-03-03 23:10:00","39304","8.32","53.27","10.88","47.06","1020.645","14.58","75.62","-1.249","0.0"],
    [1401725,"2026-03-03 23:20:00","39305","7.098","51.82","10.65","49.36","1020.55","14.59","75.83","-1.234","0.0"],
    [1401726,"2026-03-03 23:30:00","39306","6.852","48.63","10.68","48.82","1020.4580000000001","14.53","76.02","-1.235","0.0"],
    [1401727,"2026-03-03 23:40:00","39307","6.584","50.16","10.81","48.48","1020.4019999999999","14.56","75.7","-1.236","0.0"],
    [1401728,"2026-03-03 23:50:00","39308","6.032","49.58","10.39","60.16","1020.345","14.51","76.04","-1.232","0.0"],
    [1401729,"2026-03-04 00:00:00","39309","7.301","50.52","11.2","49.55","1020.302","14.58","74.68","-1.23","0.0"],
    [1401730,"2026-03-04 00:10:00","39310","7.84","50.15","12.28","59.6","1020.21","14.64","74.08","-1.2309999999999999","0.0"],
    [1401731,"2026-03-04 00:20:00","39311","7.814","52.1","11.47","59.27","1020.025","14.65","73.85","-1.235","0.0"],
    [1401732,"2026-03-04 00:30:00","39312","7.486000000000001","49.48","11.63","46.28","1019.972","14.66","73.39","-1.234","0.0"],
    [1401733,"2026-03-04 00:40:00","39313","6.653","47.97","9.87","63.02","1019.959","14.63","73.38","-1.26","0.0"],
    [1401734,"2026-03-04 00:50:00","39314","7.224","51.34","11.66","50.88","1019.915","14.64","72.83","-1.744","0.0"],
    [1401735,"2026-03-04 01:00:00","39315","6.979","46.79","10.85","56.49","1019.855","14.64","72.92","-1.77","0.0"],
    [1401736,"2026-03-04 01:10:00","39316","6.499","42.85","10.13","35.76","1019.678","14.58","72.72","-1.932","0.0"],
    [1401737,"2026-03-04 01:20:00","39317","6.487","45.0","10.13","55.31","1019.6039999999999","14.64","72.0","-1.982","0.0"],
    [1401738,"2026-03-04 01:30:00","39318","6.184","43.75","9.54","45.2","1019.51","14.67","71.04","-1.995","0.0"],
    [1401739,"2026-03-04 01:40:00","39319","6.567","46.44","11.89","35.68","1019.441","14.77","69.99","-1.899","0.0"],
    [1401740,"2026-03-04 01:50:00","39320","6.624","46.31","10.39","41.91","1019.378","14.82","69.23","-1.635","0.0"],
    [1401741,"2026-03-04 02:00:00","39321","6.989","47.0","10.91","55.06","1019.3439999999999","14.84","69.1","-1.376","0.0"],
    [1401742,"2026-03-04 02:10:00","39322","6.377999999999999","52.05","9.9","56.48","1019.342","14.69","70.84","-1.25","0.0"],
    [1401743,"2026-03-04 02:20:00","39323","6.922000000000001","51.83","11.27","57.6","1019.275","14.57","72.48","-1.2590000000000001","0.0"],
    [1401744,"2026-03-04 02:30:00","39324","6.547999999999999","49.07","10.78","47.64","1019.26","14.51","73.66","-1.249","0.0"],
    [1401745,"2026-03-04 02:40:00","39325","7.005","51.62","11.17","47.99","1019.212","14.5","73.43","-1.2690000000000001","0.0"],
    [1401746,"2026-03-04 02:50:00","39326","6.891","50.35","10.29","57.37","1019.153","14.46","74.34","-1.235","0.0"],
    [1401747,"2026-03-04 03:00:00","39327","7.193","51.12","10.42","59.37","1019.191","14.45","74.9","-1.229","0.0"],
    [1401748,"2026-03-04 03:10:00","39328","7.438","50.08","11.79","51.82","1019.187","14.54","73.97","-1.08","0.0"],
    [1401749,"2026-03-04 03:20:00","39329","7.225","48.12","11.66","51.75","1019.164","14.62","73.76","-0.5720000000000001","0.0"],
    [1401750,"2026-03-04 03:30:00","39330","6.669","50.52","11.24","47.96","1019.163","14.63","73.82","-0.5","0.0"],
    [1401751,"2026-03-04 03:40:00","39331","7.257999999999999","46.67","11.56","47.15","1019.102","14.64","74.04","-0.499","0.0"],
    [1401752,"2026-03-04 03:50:00","39332","6.795","42.55","11.92","31.73","1019.0","14.65","74.52","-0.493","0.0"],
    [1401753,"2026-03-04 04:00:00","39333","7.739","45.15","12.38","42.64","1018.887","14.65","74.93","-0.518","0.0"],
    [1401754,"2026-03-04 04:10:00","39334","7.946000000000001","45.36","12.25","33.73","1018.909","14.72","75.02","-0.52","0.0"],
    [1401755,"2026-03-04 04:20:00","39335","7.6979999999999995","48.05","11.27","18.46","1019.002","14.71","75.75","-0.496","0.0"],
    [1401756,"2026-03-04 04:30:00","39336","7.595","45.75","12.25","40.7","1019.062","14.7","75.81","-0.489","0.0"],
    [1401757,"2026-03-04 04:40:00","39337","7.98","45.44","12.48","49.14","1019.0419999999999","14.7","75.7","-0.523","0.0"],
    [1401758,"2026-03-04 04:50:00","39338","8.05","43.46","13.13","34.25","1018.925","14.7","75.63","-0.83","0.0"],
    [1401759,"2026-03-04 05:00:00","39339","8.06","42.87","12.87","52.56","1018.8439999999999","14.71","75.63","-1.225","0.0"],
    [1401760,"2026-03-04 05:10:00","39340","8.4","43.82","13.85","46.66","1018.931","14.73","75.25","-1.075","0.0"],
    [1401761,"2026-03-04 05:20:00","39341","8.09","42.96","11.96","36.73","1018.8919999999999","14.72","75.59","-0.6559999999999999","0.0"],
    [1401762,"2026-03-04 05:30:00","39342","7.37","46.76","13.07","44.16","1018.924","14.61","76.64","-0.985","0.0"],
    [1401763,"2026-03-04 05:40:00","39343","6.725","48.34","10","53.48","1019.025","14.47","78.42","-1.0959999999999999","0.0"],
    [1401764,"2026-03-04 05:50:00","39344","7.586","52.71","11.73","61.83","1019.191","14.46","79.01","-0.512","0.0"],
    [1401765,"2026-03-04 06:00:00","39345","7.086","46.79","11.56","35.36","1019.2739999999999","14.46","78.87","-0.49200000000000005","0.0"],
    [1401766,"2026-03-04 06:10:00","39346","7.142","47.03","11.14","55.23","1019.263","14.46","78.24","-0.48100000000000004","0.0"],
    [1401767,"2026-03-04 06:20:00","39347","7.457999999999999","47.48","10.78","39.25","1019.2589999999999","14.46","78.25","0.25","0.0"],
    [1401768,"2026-03-04 06:30:00","39348","7.515","50.06","12.12","37.91","1019.225","14.47","78.63","2.476","0.0"],
    [1401769,"2026-03-04 06:40:00","39349","7.377000000000001","47.09","11.96","41.65","1019.2689999999999","14.48","78.64","8.53","0.0"],
    [1401770,"2026-03-04 06:50:00","39350","8.18","48.33","11.79","56.72","1019.311","14.46","78.79","19.54","0.0"],
    [1401771,"2026-03-04 07:00:00","39351","6.971","47.64","10.49","50.79","1019.296","14.46","79.03","25.14","0.0"],
    [1401772,"2026-03-04 07:10:00","39352","7.108","46.05","11.27","53.69","1019.336","14.5","78.2","26.34","0.0"],
    [1401773,"2026-03-04 07:20:00","39353","7.029","46.78","10.09","36.85","1019.39","14.53","77.78","26.01","0.0"],
    [1401774,"2026-03-04 07:30:00","39354","7.2","48.42","12.28","45.85","1019.455","14.54","78.16","39.84","0.0"],
    [1401775,"2026-03-04 07:40:00","39355","6.9079999999999995","47.89","10.58","44.03","1019.5219999999999","14.58","78.21","52.97","0.0"],
    [1401776,"2026-03-04 07:50:00","39356","6.808","50.83","9.57","42.86","1019.612","14.57","78.43","37.0","0.0"],
    [1401777,"2026-03-04 08:00:00","39357","7.3420000000000005","47.47","11.3","41.86","1019.686","14.61","77.8","53.11","0.0"],
    [1401778,"2026-03-04 08:10:00","39358","7.733","50.44","11.14","51.69","1019.705","14.7","77.24","51.84","0.0"],
    [1401779,"2026-03-04 08:20:00","39359","7.792000000000001","50.88","13.1","55.19","1019.7280000000001","14.72","77.98","74.29","0.0"],
    [1401780,"2026-03-04 08:30:00","39360","7.869","47.81","11.2","49.51","1019.8","14.85","77.09","89.5","0.0"],
    [1401781,"2026-03-04 08:40:00","39361","6.794","46.91","10.81","44.46","1019.818","14.9","77.64","115.5","0.0"],
    [1401782,"2026-03-04 08:50:00","39362","6.544","50.71","10.91","58.61","1019.816","14.97","77.8","132.2","0.0"],
    [1401783,"2026-03-04 09:00:00","39363","7.5520000000000005","51.69","12.58","56.16","1019.817","14.97","78.07","167.4","0.0"],
    [1401784,"2026-03-04 09:10:00","39364","7.369","48.43","11.86","51.15","1019.7310000000001","15.04","77.47","171.4","0.0"],
    [1401785,"2026-03-04 09:20:00","39365","7.102","49.4","11.01","58.06","1019.7080000000001","15.11","77.23","213.3","0.0"],
    [1401786,"2026-03-04 09:30:00","39366","7.544","49.37","12.09","40.93","1019.643","15.34","75.91","303.4","0.0"],
    [1401787,"2026-03-04 09:40:00","39367","7.124","49.78","11.3","35.47","1019.6569999999999","15.44","76.16","330.6","0.0"],
    [1401788,"2026-03-04 09:50:00","39368","7.625","51.52","11.76","40.55","1019.68","15.57","75.66","371.8","0.0"],
    [1401789,"2026-03-04 10:00:00","39369","7.638999999999999","52.77","11.34","62.37","1019.745","15.65","75.34","411.0","0.0"],
    [1401790,"2026-03-04 10:10:00","39370","7.776","52.07","12.87","52.85","1019.811","15.81","74.56","458.8","0.0"],
    [1401791,"2026-03-04 10:20:00","39371","8.23","52.08","11.79","42.96","1019.87","15.94","73.65","468.1","0.0"],
    [1401792,"2026-03-04 10:30:00","39372","8.18","55.86","10.71","57.5","1019.8939999999999","15.91","73.97","392.9","0.0"],
    [1401793,"2026-03-04 10:40:00","39373","8.11","55.03","12.15","62.07","1019.9119999999999","15.9","73.85","401.9","0.0"],
    [1401794,"2026-03-04 10:50:00","39374","8.35","52.84","11.73","49.74","1019.914","15.88","74.55","397.6","0.0"],
    [1401795,"2026-03-04 11:00:00","39375","9.37","53.98","13.23","52.92","1019.8839999999999","15.87","74.52","447.4","0.0"],
    [1401796,"2026-03-04 11:10:00","39376","9.5","54.0","12.22","67.99","1019.88","15.95","73.91","491.2","0.0"],
    [1401797,"2026-03-04 11:20:00","39377","8.95","52.98","13.13","66.86","1019.814","16.12","73.29","491.8","0.0"],
    [1401798,"2026-03-04 11:30:00","39378","8.06","53.63","11.83","50.45","1019.816","15.98","74.11","331.3","0.0"],
    [1401799,"2026-03-04 11:40:00","39379","8.26","53.9","12.48","53.35","1019.789","16.0","74.77","415.2","0.0"],
    [1401800,"2026-03-04 11:50:00","39380","8.87","54.41","12.81","50.66","1019.7810000000001","16.16","74.73","544.1","0.0"],
    [1401801,"2026-03-04 12:00:00","39381","8.74","54.07","12.97","47.98","1019.615","16.09","75.36","504.7","0.0"],
    [1401802,"2026-03-04 12:10:00","39382","8.8","54.22","13.69","48.51","1019.507","16.11","75.93","575.0","0.0"],
    [1401803,"2026-03-04 12:20:00","39383","8.62","56.4","12.54","53.98","1019.42","16.13","76.06","553.5","0.0"],
    [1401804,"2026-03-04 12:30:00","39384","9.05","53.35","13.56","58.18","1019.441","16.12","75.24","523.2","0.0"],
    [1401805,"2026-03-04 12:40:00","39385","8.22","55.08","12.51","61.64","1019.357","16.15","75.06","475.0","0.0"],
    [1401806,"2026-03-04 12:50:00","39386","8.74","52.57","12.09","52.08","1019.178","16.01","75.14","394.6","0.0"],
    [1401807,"2026-03-04 13:00:00","39387","8.45","54.8","13.26","57.8","1019.1160000000001","15.85","75.32","300.6","0.0"],
    [1401808,"2026-03-04 13:10:00","39388","8.44","53.48","13.46","63.15","1018.9860000000001","15.77","75.71","264.7","0.0"],
    [1401809,"2026-03-04 13:20:00","39389","9.11","52.28","12.51","48.05","1018.865","15.64","76.51","255.6","0.0"],
    [1401810,"2026-03-04 13:30:00","39390","8.05","54.29","13.39","68.42","1018.813","15.65","76.69","252.1","0.0"],
    [1401811,"2026-03-04 13:40:00","39391","8.65","54.89","12.15","55.39","1018.768","15.62","75.99","239.2","0.0"],
    [1401812,"2026-03-04 13:50:00","39392","8.29","55.62","12.05","57.54","1018.673","15.63","76.02","270.3","0.0"],
    [1401813,"2026-03-04 14:00:00","39393","8.57","55.63","11.92","54.79","1018.543","15.64","75.96","272.2","0.0"],
    [1401814,"2026-03-04 14:10:00","39394","8.22","56.84","12.25","59.83","1018.482","15.64","75.89","278.9","0.0"],
    [1401815,"2026-03-04 14:20:00","39395","8.19","57.17","12.12","73.03","1018.466","15.62","76.24","245.8","0.0"],
    [1401816,"2026-03-04 14:30:00","39396","8.14","58.95","11.69","52.16","1018.3760000000001","15.59","76.89","266.4","0.0"],
    [1401817,"2026-03-04 14:40:00","39397","8.29","57.29","12.05","40.36","1018.28","15.59","77.15","251.7","0.0"],
    [1401818,"2026-03-04 14:50:00","39398","9.06","56.97","12.35","49.51","1018.1569999999999","15.46","77.95","249.1","0.0"],
    [1401819,"2026-03-04 15:00:00","39399","8.62","55.7","11.76","45.98","1018.107","15.49","78.03","261.8","0.0"],
    [1401820,"2026-03-04 15:10:00","39400","7.939","61.04","11.86","54.08","1018.1189999999999","15.63","77.71","290.2","0.0"],
    [1401821,"2026-03-04 15:20:00","39401","8.8","61.06","12.45","64.23","1018.123","15.52","77.95","201.5","0.0"],
    [1401822,"2026-03-04 15:30:00","39402","8.72","57.77","12.51","57.03","1018.02","15.41","78.17","206.9","0.0"],
    [1401823,"2026-03-04 15:40:00","39403","8.15","57.87","11.56","59.61","1018.0110000000001","15.5","77.26","167.8","0.0"],
    [1401824,"2026-03-04 15:50:00","39404","8.09","60.57","11.66","77.66","1018.008","15.35","78.16","142.3","0.0"],
    [1401825,"2026-03-04 16:00:00","39405","8.17","57.8","11.17","49.92","1017.825","15.31","78.17","145.0","0.0"],
    [1401826,"2026-03-04 16:10:00","39406","8.24","56.64","11.79","67.59","1017.818","15.32","77.8","148.2","0.0"],
    [1401827,"2026-03-04 16:20:00","39407","7.81","56.99","10.98","57.76","1017.8739999999999","15.41","76.78","121.6","0.0"],
    [1401828,"2026-03-04 16:30:00","39408","7.353","60.05","10.13","69.17","1017.937","15.38","77.43","86.3","0.0"],
    [1401829,"2026-03-04 16:40:00","39409","7.377999999999999","58.39","11.11","53.59","1017.857","15.14","79.33","59.17","0.0"],
    [1401830,"2026-03-04 16:50:00","39410","8.04","58.42","12.09","59.68","1017.78","15.03","79.83","47.95","0.0"],
    [1401831,"2026-03-04 17:00:00","39411","8.15","56.43","11.96","56.87","1017.778","14.83","81.6","41.96","0.0"],
    [1401832,"2026-03-04 17:10:00","39412","8.58","56.44","12.74","68.62","1017.794","14.73","82.2","27.96","0.0"],
    [1401833,"2026-03-04 17:20:00","39413","8.71","52.21","12.15","50.69","1017.738","14.72","81.4","18.58","0.0"],
    [1401834,"2026-03-04 17:30:00","39414","9.4","52.41","13.43","46.8","1017.679","14.85","79.95","10.92","0.0"],
    [1401835,"2026-03-04 17:40:00","39415","7.8839999999999995","50.75","12.09","41.5","1017.821","14.89","79.75","4.814","0.0"],
    [1401836,"2026-03-04 17:50:00","39416","8.36","53.78","11.99","54.79","1017.834","14.89","79.91","0.8029999999999999","0.0"],
    [1401837,"2026-03-04 18:00:00","39417","7.672000000000001","56.56","10.65","52.13","1018.018","14.83","81.3","-0.62","0.0"],
    [1401838,"2026-03-04 18:10:00","39418","7.143","54.81","10.36","55.28","1018.0989999999999","14.71","82.5","-1.222","0.0"],
    [1401839,"2026-03-04 18:20:00","39419","7.195","52.49","10.03","63.89","1018.034","14.71","81.8","-1.227","0.0"],
    [1401840,"2026-03-04 18:30:00","39420","7.3420000000000005","52.13","11.3","45.56","1018.064","14.83","79.48","-1.237","0.0"],
    [1401841,"2026-03-04 18:40:00","39421","7.997999999999999","53.64","12.25","49.17","1018.247","14.95","77.32","-1.2309999999999999","0.0"],
    [1401842,"2026-03-04 18:50:00","39422","8.42","56.26","12.67","54.6","1018.335","14.97","76.91","-1.227","0.0"],
    [1401843,"2026-03-04 19:00:00","39423","8.65","52.39","12.87","58","1018.096","14.93","77.14","-1.227","0.0"],
    [1401844,"2026-03-04 19:10:00","39424","9.0","54.26","11.83","41.83","1018.211","14.92","76.72","-1.227","0.0"],
    [1401845,"2026-03-04 19:20:00","39425","8.47","54.9","11.83","48.67","1018.419","14.9","76.89","-1.228","0.0"],
    [1401846,"2026-03-04 19:30:00","39426","8.12","53.03","11.92","50.92","1018.57","14.85","77.09","-1.228","0.0"],
    [1401847,"2026-03-04 19:40:00","39427","8.12","51.47","10.98","61.11","1018.552","14.82","76.95","-1.229","0.0"],
    [1401848,"2026-03-04 19:50:00","39428","8.1","53.17","12.22","47.64","1018.418","14.78","76.91","-1.234","0.0"],
    [1401849,"2026-03-04 20:00:00","39429","8.35","52.11","12.02","48.16","1018.284","14.75","76.65","-1.24","0.0"],
    [1401850,"2026-03-04 20:10:00","39430","8.11","51.58","11.07","56.05","1018.13","14.71","77.18","-1.229","0.0"],
    [1401851,"2026-03-04 20:20:00","39431","8.12","52.32","12.32","64.25","1018.067","14.68","77.5","-1.227","0.0"],
    [1401852,"2026-03-04 20:30:00","39432","7.888999999999999","53.57","12.28","54.02","1018.2660000000001","14.66","77.69","-1.229","0.0"],
    [1401853,"2026-03-04 20:40:00","39433","7.235","55.9","10.78","47.51","1018.512","14.59","78.33","-1.249","0.0"],
    [1401854,"2026-03-04 20:50:00","39434","7.002000000000001","53.71","10.19","44.27","1018.6410000000001","14.58","78.57","-1.239","0.0"],
    [1401855,"2026-03-04 21:00:00","39435","7.2860000000000005","51.63","10.98","57.52","1018.49","14.56","79.09","-1.229","0.0"],
    [1401856,"2026-03-04 21:10:00","39436","8.2","54.32","11.37","48.3","1018.451","14.56","79.02","-1.235","0.0"],
    [1401857,"2026-03-04 21:20:00","39437","7.817","50.55","10.49","47.62","1018.4689999999999","14.55","78.75","-1.2890000000000001","0.0"],
    [1401858,"2026-03-04 21:30:00","39438","6.888999999999999","50.39","10.29","58.9","1018.441","14.56","78.46","-1.527","0.0"],
    [1401859,"2026-03-04 21:40:00","39439","8.23","51.11","12.64","65.65","1018.429","14.61","77.77","-1.5","0.0"],
    [1401860,"2026-03-04 21:50:00","39440","7.233","50.7","11.37","32.87","1018.3610000000001","14.61","78.11","-1.29","0.0"],
    [1401861,"2026-03-04 22:00:00","39441","7.452999999999999","46.08","11.6","56.79","1018.216","14.56","78.03","-1.608","0.0"],
    [1401862,"2026-03-04 22:10:00","39442","7.587000000000001","45.97","11.37","33.92","1018.012","14.63","77.01","-1.382","0.0"],
    [1401863,"2026-03-04 22:20:00","39443","6.547000000000001","44.87","11.69","32.76","1017.8580000000001","14.63","76.67","-1.325","0.0"],
    [1401864,"2026-03-04 22:30:00","39444","6.899","46.59","9.77","60.6","1017.7739999999999","14.65","75.93","-1.3769999999999998","0.0"],
    [1401865,"2026-03-04 22:40:00","39445","6.189","46.78","10.45","49.7","1017.743","14.69","75.55","-1.238","0.0"],
    [1401866,"2026-03-04 22:50:00","39446","6.622999999999999","46.09","10.78","39.1","1017.673","14.7","76.1","-1.232","0.0"],
    [1401867,"2026-03-04 23:00:00","39447","6.235","48.29","9.44","49.88","1017.523","14.73","76.41","-1.229","0.0"],
    [1401868,"2026-03-04 23:10:00","39448","7.015","52.17","9.73","62.94","1017.425","14.73","76.64","-1.2309999999999999","0.0"],
    [1401869,"2026-03-04 23:20:00","39449","6.428999999999999","50.67","11.6","58.26","1017.346","14.72","76.83","-1.238","0.0"],
    [1401870,"2026-03-04 23:30:00","39450","6.88","49.74","10.26","52.96","1017.316","14.75","76.1","-1.251","0.0"],
    [1401871,"2026-03-04 23:40:00","39451","6.867000000000001","51.11","10.06","59.15","1017.298","14.75","75.82","-1.248","0.0"],
    [1401872,"2026-03-04 23:50:00","39452","7.31","52.23","9.73","40.29","1017.27","14.72","76.7","-1.229","0.0"],
    [1401873,"2026-03-05 00:00:00","39453","7.582000000000001","54.2","10.94","65.31","1017.2339999999999","14.68","77.26","-1.23","0.0"],
    [1401874,"2026-03-05 00:10:00","39454","8.08","53.66","11.04","49.72","1017.057","14.65","77.54","-1.23","0.0"],
    [1401875,"2026-03-05 00:20:00","39455","7.2989999999999995","51.37","11.6","69.28","1016.937","14.62","77.55","-1.2309999999999999","0.0"],
    [1401876,"2026-03-05 00:40:00","39456","7.428","44.26","10.68","45.23","1016.705","14.67","77.02","-1.275","0.0"],
    [1401877,"2026-03-05 00:50:00","39457","6.847","46.79","10.49","54.85","1016.43","14.64","77.96","-1.5119999999999998","0.0"],
    [1401878,"2026-03-05 01:00:00","39458","6.359","46.25","9.28","36.57","1016.205","14.63","78.79","-1.7480000000000002","0.0"],
    [1401879,"2026-03-05 01:10:00","39459","6.667000000000001","49.36","10.06","41.18","1015.914","14.68","78.27","-1.972","0.0"],
    [1401880,"2026-03-05 01:20:00","39460","6.6160000000000005","49.9","10.29","58.35","1015.7410000000001","14.76","77.17","-1.771","0.0"],
    [1401881,"2026-03-05 01:30:00","39461","6.382999999999999","45.45","10","40.36","1015.6260000000001","14.72","77.16","-1.765","0.0"],
    [1401882,"2026-03-05 01:40:00","39462","6.537999999999999","50.2","10","60.29","1015.568","14.74","76.53","-1.959","0.0"],
    [1401883,"2026-03-05 01:50:00","39463","7.09","52.23","10.94","43.49","1015.648","14.69","76.67","-1.722","0.0"],
    [1401884,"2026-03-05 02:00:00","39464","7.434","54.41","10.78","49.82","1016.03","14.69","77.13","-1.383","0.0"],
    [1401885,"2026-03-05 02:10:00","39465","7.638","57.08","12.94","49.9","1016.328","14.74","77.8","-1.225","0.0"],
    [1401886,"2026-03-05 02:20:00","39466","9.27","53.25","15.09","60.23","1016.211","14.87","77.56","-1.227","0.0"],
    [1401887,"2026-03-05 02:30:00","39467","9.43","53.49","13.75","53.87","1016.055","15.0","76.46","-1.071","0.0"],
    [1401888,"2026-03-05 02:40:00","39468","9.33","52.56","13.46","58.87","1015.935","14.93","75.69","-1.102","0.0"],
    [1401889,"2026-03-05 02:50:00","39469","8.53","54.03","12.35","55.32","1015.944","14.93","74.69","-1.631","0.0"],
    [1401890,"2026-03-05 03:00:00","39470","8.33","51.92","12.38","62.26","1015.8560000000001","14.95","73.29","-1.226","0.0"],
    [1401891,"2026-03-05 03:10:00","39471","7.897","47.33","12.84","55.9","1015.73","14.92","72.88","-1.227","0.0"],
    [1401892,"2026-03-05 03:20:00","39472","7.766","48.16","12.41","56.97","1015.558","14.81","74.11","-1.239","0.0"],
    [1401893,"2026-03-05 03:30:00","39473","8.59","50.63","12.45","54.74","1015.453","14.78","74.64","-1.244","0.0"],
    [1401894,"2026-03-05 03:40:00","39474","8.97","51.77","13.59","51.14","1015.421","14.85","74.77","-0.81","0.0"],
    [1401895,"2026-03-05 03:50:00","39475","8.3","51.14","13.39","63.53","1015.1619999999999","14.83","74.48","-0.6609999999999999","0.0"],
    [1401896,"2026-03-05 04:00:00","39476","7.893","47.43","12.58","40.5","1015.118","14.81","75.19","-0.519","0.0"],
    [1401897,"2026-03-05 04:10:00","39477","7.4879999999999995","45.71","11.92","61.24","1015.143","14.7","75.16","-0.8809999999999999","0.0"],
    [1401898,"2026-03-05 04:20:00","39478","7.377000000000001","45.87","13.82","50.41","1015.033","14.63","75.73","-1.222","0.0"],
    [1401899,"2026-03-05 04:30:00","39479","7.601","44.67","11.79","47.22","1014.924","14.56","76.1","-1.23","0.0"],
    [1401900,"2026-03-05 04:40:00","39480","8.32","48.37","12.45","45.38","1014.8839999999999","14.61","76.39","-1.247","0.0"],
    [1401901,"2026-03-05 04:50:00","39481","8.45","47.14","12.15","47.03","1014.905","14.78","74.2","-1.216","0.0"],
    [1401902,"2026-03-05 05:00:00","39482","7.53","49.11","11.27","50.8","1014.9839999999999","14.77","74.93","-0.596","0.0"],
    [1401903,"2026-03-05 05:10:00","39483","7.212999999999999","47.23","10.16","57.41","1014.799","14.69","75.45","-0.49200000000000005","0.0"],
    [1401904,"2026-03-05 05:20:00","39484","7.447","46.81","13.3","47.27","1014.66","14.73","75.52","-0.574","0.0"],
    [1401905,"2026-03-05 05:30:00","39485","7.775","45.36","13.36","45.54","1014.653","14.75","75.8","-0.518","0.0"],
    [1401906,"2026-03-05 05:40:00","39486","7.9239999999999995","45.6","15.68","32.91","1014.5139999999999","14.72","76.58","-0.483","0.0"],
    [1401907,"2026-03-05 05:50:00","39487","7.235","43.04","11.14","44.86","1014.414","14.71","77.15","-0.49200000000000005","0.0"],
    [1401908,"2026-03-05 06:00:00","39488","7.291","42.78","11.63","38.65","1014.284","14.75","76.72","-0.501","0.0"],
    [1401909,"2026-03-05 06:10:00","39489","6.861000000000001","43.49","11.56","37.21","1014.3789999999999","14.79","76.14","-0.516","0.0"],
    [1401910,"2026-03-05 06:20:00","39490","6.65","46.73","10.98","47.8","1014.645","14.78","75.78","-0.423","0.0"],
    [1401911,"2026-03-05 06:30:00","39491","6.1979999999999995","44.97","10.78","45.23","1014.7539999999999","14.71","76.72","0.031","0.0"],
    [1401912,"2026-03-05 06:40:00","39492","6.915","47.04","10.75","53.48","1014.716","14.65","78.03","0.5539999999999999","0.0"],
    [1401913,"2026-03-05 06:50:00","39493","7.446000000000001","44.95","12.9","52.88","1014.707","14.57","78.95","1.208","0.0"],
    [1401914,"2026-03-05 07:00:00","39494","7.127999999999999","45.23","12.02","26.14","1014.654","14.5","80.2","1.771","0.0"],
    [1401915,"2026-03-05 07:10:00","39495","7.752999999999999","47.49","12.45","38.72","1014.797","14.35","82.1","1.774","0.0"],
    [1401916,"2026-03-05 07:20:00","39496","7.822","44.77","11.96","48.11","1014.727","14.3","82.6","3.427","0.0"],
    [1401917,"2026-03-05 07:30:00","39497","8.02","43.05","13.03","47.59","1014.691","14.22","84.3","4.23","0.0"],
    [1401918,"2026-03-05 07:40:00","39498","8.35","42.15","13.36","26.55","1014.3960000000001","14.14","84.7","9.94","0.0"],
    [1401919,"2026-03-05 07:50:00","39499","8.2","40.68","13.62","48.58","1014.1489999999999","14.38","82.5","18.04","0.0"],
    [1401920,"2026-03-05 08:00:00","39500","7.882000000000001","45.13","11.17","41.07","1014.0089999999999","14.5","81.4","29.22","0.0"],
    [1401921,"2026-03-05 08:10:00","39501","7.9510000000000005","46.53","11.04","48.22","1013.9630000000001","14.61","80.3","30.08","0.0"],
    [1401922,"2026-03-05 08:20:00","39502","8.26","47.69","13.13","50.48","1013.9939999999999","14.63","80.1","29.73","0.0"],
    [1401923,"2026-03-05 08:30:00","39503","8.43","47.01","12.15","31.29","1013.9780000000001","14.68","79.97","38.41","0.0"],
    [1401924,"2026-03-05 08:40:00","39504","7.812","51.22","11.37","52.21","1014.163","14.68","80.8","38.2","0.0"],
    [1401925,"2026-03-05 08:50:00","39505","8.81","52.62","12.12","50.93","1014.077","14.66","81.6","47.88","0.0"],
    [1401926,"2026-03-05 09:00:00","39506","7.781000000000001","47.63","12.64","47.74","1014.002","14.64","81.8","39.0","0.0"],
    [1401927,"2026-03-05 09:10:00","39507","8.54","46.82","13.95","44.43","1013.943","14.6","82.0","30.65","0.0"],
    [1401928,"2026-03-05 09:20:00","39508","9.15","51.33","13.95","62.53","1014.045","14.58","82.1","27.28","0.0"],
    [1401929,"2026-03-05 09:30:00","39509","10.41","52.5","15.68","64.41","1014.2860000000001","14.52","82.7","15.18","0.0"],
    [1401930,"2026-03-05 09:40:00","39510","10.46","53.66","14.54","54.39","1014.421","14.42","84.0","4.34","0.0"],
    [1401931,"2026-03-05 09:50:00","39511","9.33","52.83","12.9","40.72","1014.625","14.21","86.4","4.21","0.0"],
    [1401932,"2026-03-05 10:00:00","39512","8.77","44.8","13.23","48.57","1014.2660000000001","13.77","90.3","14.71","0.0"],
    [1401933,"2026-03-05 10:10:00","39513","7.832999999999999","42.9","12.94","51.87","1014.096","13.66","90.9","21.39","0.0"],
    [1401934,"2026-03-05 10:20:00","39514","7.984","39.46","12.61","52.06","1013.645","13.62","91.3","23.82","0.0"],
    [1401935,"2026-03-05 10:30:00","39515","9.31","38.74","14.57","39.01","1013.757","13.54","91.4","22.18","0.0"],
    [1401936,"2026-03-05 10:40:00","39516","7.824","39.29","12.74","26.74","1013.645","13.51","91.8","36.8","0.0"],
    [1401937,"2026-03-05 10:50:00","39517","7.546","38.93","11.43","49.1","1013.5319999999999","13.46","92.5","38.28","0.0"],
    [1401938,"2026-03-05 11:00:00","39518","6.07","39.25","10.91","55.56","1013.2180000000001","13.33","94.1","89.6","0.0"],
    [1401939,"2026-03-05 11:10:00","39519","7.5360000000000005","39.59","10.98","39.06","1013.235","13.38","93.2","47.45","0.0"],
    [1401940,"2026-03-05 11:20:00","39520","7.763","35.12","12.32","41.93","1012.815","13.48","92.5","96.3","0.0"],
    [1401941,"2026-03-05 11:30:00","39521","8.66","39.8","13.69","46.85","1012.815","13.55","91.9","55.42","0.0"],
    [1401942,"2026-03-05 11:40:00","39522","7.591","38.78","12.09","32.76","1012.703","13.61","91.8","43.99","0.0"],
    [1401943,"2026-03-05 11:50:00","39523","7.899","39.74","12.67","37.5","1012.475","13.61","92.3","58.55","0.0"],
    [1401944,"2026-03-05 12:00:00","39524","8.65","43.66","15.48","41.77","1012.206","13.67","92.1","68.31","0.0"],
    [1401945,"2026-03-05 12:10:00","39525","9.6","45.77","15.35","51.28","1011.8889999999999","13.74","92.1","61.78","0.0"],
    [1401946,"2026-03-05 12:30:00","39526","9.78","46.96","14.37","44.59","1011.687","13.88","92.2","118.1","0.0"],
    [1401947,"2026-03-05 12:40:00","39527","9.21","48.78","13.13","55.17","1011.635","13.96","92.3","142.3","0.0"],
    [1401948,"2026-03-05 12:50:00","39528","10.02","52.17","14.01","55.21","1011.6260000000001","13.87","92.7","95.9","0.0"],
    [1401949,"2026-03-05 13:00:00","39529","9.96","52.65","14.63","52.73","1011.54","13.96","93.0","144.6","0.0"],
    [1401950,"2026-03-05 13:10:00","39530","9.41","52.91","14.57","54.52","1011.4789999999999","13.96","92.9","81.4","0.0"],
    [1401951,"2026-03-05 13:20:00","39531","9.6","51.54","13.46","50.17","1011.436","13.95","92.9","62.86","0.0"],
    [1401952,"2026-03-05 13:30:00","39532","9.4","55.07","15.06","51.23","1011.493","13.96","93.0","50.24","0.0"],
    [1401953,"2026-03-05 13:40:00","39533","8.09","52.89","11.56","62.56","1011.427","14.05","92.9","97.3","0.0"],
    [1401954,"2026-03-05 13:50:00","39534","8.06","54.34","12.32","61.84","1011.35","14.15","92.8","88.4","0.0"],
    [1401955,"2026-03-05 14:00:00","39535","6.563","58.35","9.02","51.67","1011.387","14.3","93.1","170.4","0.0"],
    [1401956,"2026-03-05 14:10:00","39536","6.652","63.04","9.7","55.03","1011.409","14.58","92.7","165.5","0.0"],
    [1401957,"2026-03-05 14:20:00","39537","6.567","62.68","10.71","69.88","1011.444","14.65","92.4","94.6","0.0"],
    [1401958,"2026-03-05 14:30:00","39538","5.757999999999999","60.73","8.04","81.8","1011.4680000000001","14.59","92.6","124.6","0.0"],
    [1401959,"2026-03-05 14:40:00","39539","6.125","68.48","9.15","72.33","1011.46","14.75","92.4","170.9","0.0"],
    [1401960,"2026-03-05 14:50:00","39540","5.749","66.75","8.43","68.18","1011.4889999999999","14.87","91.7","202.4","0.0"],
    [1401961,"2026-03-05 15:00:00","39541","5.648","62.34","8","69.98","1011.5889999999999","15.01","90.9","214.3","0.0"],
    [1401962,"2026-03-05 15:10:00","39542","5.3629999999999995","58.71","8.43","60.87","1011.5980000000001","15.0","90.5","157.9","0.0"],
    [1401963,"2026-03-05 15:20:00","39543","5.586","54.8","7.742","49.3","1011.595","14.85","91.0","108.5","0.0"],
    [1401964,"2026-03-05 15:30:00","39544","5.479","48.93","8.1","43.02","1011.558","14.78","91.8","149.4","0.0"],
    [1401965,"2026-03-05 15:40:00","39545","5.223","48.45","8.1","55.47","1011.548","14.74","91.8","123.9","0.0"],
    [1401966,"2026-03-05 15:50:00","39546","4.3919999999999995","44.97","6.239","37.1","1011.554","14.77","91.8","94.8","0.0"],
    [1401967,"2026-03-05 16:00:00","39547","4.711","47.57","7.742","54.1","1011.645","14.75","92.0","116.4","0.0"],
    [1401968,"2026-03-05 16:10:00","39548","5.445","51.88","9.24","64.52","1011.753","14.69","92.2","96.3","0.0"],
    [1401969,"2026-03-05 16:20:00","39549","5.902","53.79","8.4","55.68","1011.807","14.57","92.8","46.6","0.0"],
    [1401970,"2026-03-05 16:30:00","39550","6.43","53.68","8.92","49.59","1011.92","14.43","93.5","34.93","0.0"],
    [1401971,"2026-03-05 16:40:00","39551","6.395","51.62","9.15","49.26","1011.918","14.32","94.0","38.22","0.0"],
    [1401972,"2026-03-05 16:50:00","39552","5.462000000000001","50.8","8.43","57.36","1011.8760000000001","14.24","94.2","29.46","0.0"],
    [1401973,"2026-03-05 17:00:00","39553","6.386","54.04","9.18","57.37","1012.012","14.28","94.5","32.25","0.0"],
    [1401974,"2026-03-05 17:10:00","39554","6.11","58.83","8.53","52.51","1012.2139999999999","14.26","94.6","5.879","0.0"],
    [1401975,"2026-03-05 17:20:00","39555","5.5329999999999995","61.59","8.1","65.76","1012.289","14.23","94.5","1.94","0.0"],
    [1401976,"2026-03-05 17:30:00","39556","5.172000000000001","59.25","7.579","63.54","1012.35","14.2","94.5","0.366","0.0"],
    [1401977,"2026-03-05 17:40:00","39557","4.83","56.05","6.729","53.95","1012.3610000000001","14.22","94.5","-0.027000000000000003","0.0"],
    [1401978,"2026-03-05 17:50:00","39558","5.47","61.13","7.84","63.33","1012.368","14.24","94.4","-0.055","0.0"],
    [1401979,"2026-03-05 18:00:00","39559","6.08","63.2","9.41","59.35","1012.334","14.26","94.1","-0.45799999999999996","0.0"],
    [1401980,"2026-03-05 18:10:00","39560","6.034","61.03","8.59","72.4","1012.302","14.31","93.5","-0.787","0.0"],
    [1401981,"2026-03-05 18:20:00","39561","6.171","54.55","9.08","58.69","1012.3760000000001","14.26","93.8","-0.813","0.0"],
    [1401982,"2026-03-05 18:30:00","39562","6.172999999999999","51.27","9.15","41.67","1012.498","14.21","94.1","-1.158","0.0"],
    [1401983,"2026-03-05 18:40:00","39563","5.671","51.6","8.23","43.88","1012.541","14.2","94.0","-0.672","0.0"],
    [1401984,"2026-03-05 18:50:00","39564","6.204","50.2","8.59","40.47","1012.56","14.18","94.2","-0.556","0.0"],
    [1401985,"2026-03-05 19:00:00","39565","6.2170000000000005","54.0","8.92","61.26","1012.546","14.13","94.5","-0.54","0.0"],
    [1401986,"2026-03-05 19:10:00","39566","6.251","53.78","8.72","55.45","1012.553","14.08","94.8","-0.47","0.0"],
    [1401987,"2026-03-05 19:20:00","39567","5.831","52.01","8.46","62.96","1012.5830000000001","14.02","95.2","-0.486","0.0"],
    [1401988,"2026-03-05 19:30:00","39568","6.393","54.53","9.21","40.81","1012.693","14.0","95.2","-0.493","0.0"],
    [1401989,"2026-03-05 19:40:00","39569","5.4670000000000005","62.3","8.98","72.12","1012.785","13.96","95.5","-0.45399999999999996","0.0"],
    [1401990,"2026-03-05 19:50:00","39570","6.371","53.73","9.28","46.99","1012.716","13.91","96.0","-0.46299999999999997","0.0"],
    [1401991,"2026-03-05 20:00:00","39571","6.063","47.57","9.38","46.14","1012.6560000000001","13.91","95.9","-0.465","0.0"],
    [1401992,"2026-03-05 20:10:00","39572","5.941","45.4","9.57","46.95","1012.635","13.88","95.7","-0.489","0.0"],
    [1401993,"2026-03-05 20:20:00","39573","5.971","41.37","9.24","32.18","1012.697","13.91","95.4","-0.053","0.0"],
    [1401994,"2026-03-05 20:30:00","39574","6.175","45.51","9.83","40.94","1012.682","13.92","95.1","0.23600000000000002","0.0"],
    [1401995,"2026-03-05 20:40:00","39575","6.029","44.56","9.54","56.2","1012.58","13.94","94.8","0.249","0.0"],
    [1401996,"2026-03-05 20:50:00","39576","5.905","40.44","10.94","34.02","1012.5160000000001","13.93","94.5","0.254","0.0"],
    [1401997,"2026-03-05 21:00:00","39577","6.678999999999999","46.16","10.81","59.77","1012.538","13.91","94.1","0.253","0.0"],
    [1401998,"2026-03-05 21:10:00","39578","8.27","44.69","11.34","60.4","1012.551","13.95","93.0","0.253","0.0"],
    [1401999,"2026-03-05 21:20:00","39579","8.13","47.97","12.71","58.28","1012.653","14.0","91.9","0.249","0.0"],
    [1402000,"2026-03-05 21:30:00","39580","7.9270000000000005","50.9","11.6","42.2","1012.671","14.03","91.7","0.20199999999999999","0.0"],
    [1402001,"2026-03-05 21:40:00","39581","7.6","45.4","10.71","54.09","1012.59","14.04","91.2","-0.514","0.0"],
    [1402002,"2026-03-05 21:50:00","39582","6.896","47.36","10.55","47.7","1012.627","14.07","90.5","-0.359","0.0"],
    [1402003,"2026-03-05 22:00:00","39583","7.78","46.47","11.43","51.06","1012.632","14.13","89.4","-0.027000000000000003","0.0"],
    [1402004,"2026-03-05 22:10:00","39584","7.452000000000001","50.47","11.66","62.47","1012.664","14.21","88.3","-0.049","0.0"],
    [1402005,"2026-03-05 22:20:00","39585","8.06","51.78","12.02","40.33","1012.6160000000001","14.3","87.5","0.161","0.0"],
    [1402006,"2026-03-05 22:30:00","39586","7.712999999999999","50.97","12.02","61.4","1012.574","14.31","88.2","-0.31","0.0"],
    [1402007,"2026-03-05 22:40:00","39587","7.371","49.69","11.43","52.32","1012.5","14.22","89.2","-0.667","0.0"],
    [1402008,"2026-03-05 22:50:00","39588","8.69","50.62","12.48","46.12","1012.4","14.19","89.9","-0.598","0.0"],
    [1402009,"2026-03-05 23:00:00","39589","7.82","51.52","12.64","52.96","1012.237","14.11","90.8","-0.48200000000000004","0.0"],
    [1402010,"2026-03-05 23:10:00","39590","7.763","52.89","11.11","37.73","1012.22","14.06","90.8","-0.534","0.0"],
    [1402011,"2026-03-05 23:20:00","39591","7.723","50.69","11.07","60.9","1012.178","14.07","90.8","-0.77","0.0"],
    [1402012,"2026-03-05 23:30:00","39592","6.831","52.78","10.13","47.98","1012.172","14.1","90.9","-0.555","0.0"],
    [1402013,"2026-03-05 23:40:00","39593","6.452999999999999","50.52","9.54","47.23","1012.192","14.2","90.1","-0.451","0.0"],
    [1402014,"2026-03-05 23:50:00","39594","5.821000000000001","48.2","8.62","56.41","1012.204","14.14","90.0","0.222","0.0"],
    [1402015,"2026-03-06 00:00:00","39595","6.02","50.0","8.82","56.39","1012.193","14.12","89.8","-0.004","0.0"],
    [1402016,"2026-03-06 00:10:00","39596","6.266","50.35","10.55","57.19","1012.135","14.19","89.6","0.131","0.0"],
    [1402017,"2026-03-06 00:20:00","39597","5.766","49.42","8.2","51.52","1012.0939999999999","14.2","89.8","0.10099999999999999","0.0"],
    [1402018,"2026-03-06 00:30:00","39598","6.952000000000001","52.98","10.42","52.88","1012.051","14.22","89.8","-0.366","0.0"],
    [1402019,"2026-03-06 00:40:00","39599","7.319","50.94","11.73","48.26","1011.937","14.27","89.1","-0.484","0.0"],
    [1402020,"2026-03-06 00:50:00","39600","8.5","51.29","11.96","55.17","1011.8710000000001","14.15","90.2","-0.11199999999999999","0.0"],
    [1402021,"2026-03-06 01:00:00","39601","8.68","51.14","12.15","44.38","1011.797","14.05","90.8","-0.639","0.0"],
    [1402022,"2026-03-06 01:10:00","39602","8.25","52.24","11.14","50.13","1011.7739999999999","14.11","90.3","-0.9420000000000001","0.0"],
    [1402023,"2026-03-06 01:20:00","39603","8.34","51.82","11.99","46.99","1011.7339999999999","14.01","90.7","-0.35200000000000004","0.0"],
    [1402024,"2026-03-06 01:30:00","39604","8.06","53.06","11.34","54.32","1011.6489999999999","13.81","92.0","-0.445","0.0"],
    [1402025,"2026-03-06 01:40:00","39605","8.6","50.49","12.94","55.48","1011.653","13.56","94.5","-0.37799999999999995","0.0"],
    [1402026,"2026-03-06 01:50:00","39606","6.946000000000001","46.67","10.36","65.66","1011.597","13.51","94.9","-0.499","0.0"],
    [1402027,"2026-03-06 02:00:00","39607","7.077000000000001","44.05","11.11","42.03","1011.439","13.54","94.2","-0.501","0.0"],
    [1402028,"2026-03-06 02:10:00","39608","7.803999999999999","43.41","12.45","52.26","1011.312","13.67","92.8","-0.40700000000000003","0.0"],
    [1402029,"2026-03-06 02:20:00","39609","7.055","40.67","10.55","40.02","1011.171","13.73","92.2","-0.065","0.0"],
    [1402030,"2026-03-06 02:30:00","39610","6.8020000000000005","47.64","10.91","43.13","1011.178","13.74","92.3","-0.465","0.0"],
    [1402031,"2026-03-06 02:40:00","39611","6.901","49.23","10.42","71.52","1011.22","13.76","92.5","-0.502","0.0"],
    [1402032,"2026-03-06 02:50:00","39612","8.05","49.8","11.34","51.28","1011.1210000000001","13.73","92.5","-0.514","0.0"],
    [1402033,"2026-03-06 03:00:00","39613","7.649","48.18","11.43","42.34","1011.122","13.66","93.2","-0.508","0.0"],
    [1402034,"2026-03-06 03:10:00","39614","7.807","57.33","11.5","62.56","1011.15","13.5","92.7","-0.19","0.0"],
    [1402035,"2026-03-06 03:20:00","39615","8.59","62.81","12.94","78.48","1011.0889999999999","13.47","92.4","-0.534","0.0"],
    [1402036,"2026-03-06 03:30:00","39616","8.76","73.27","12.35","67.05","1011.057","13.54","92.6","-0.525","0.0"],
    [1402037,"2026-03-06 03:40:00","39617","8.25","74.53","12.05","75.26","1011.0260000000001","13.55","92.6","-0.518","0.0"],
    [1402038,"2026-03-06 03:50:00","39618","9.18","74.48","13.26","73.48","1010.96","13.57","92.1","-0.5329999999999999","0.0"],
    [1402039,"2026-03-06 04:00:00","39619","8.53","69.75","13.23","70.72","1010.922","13.61","92.0","-0.303","0.0"],
    [1402040,"2026-03-06 04:10:00","39620","8.21","64.47","11.11","77.95","1010.893","13.61","92.2","0.094","0.0"],
    [1402041,"2026-03-06 04:20:00","39621","8.49","62.58","11.69","69.78","1010.8710000000001","13.64","92.4","0.10300000000000001","0.0"],
    [1402042,"2026-03-06 04:30:00","39622","9.46","65.18","13.59","59.28","1010.9069999999999","13.68","92.2","0.21100000000000002","0.0"],
    [1402043,"2026-03-06 04:40:00","39623","9.58","63.21","14.44","72.84","1010.905","13.67","91.6","0.237","0.0"],
    [1402044,"2026-03-06 04:50:00","39624","10.12","53.82","14.73","42.96","1010.704","13.68","90.8","0.226","0.0"],
    [1402045,"2026-03-06 05:00:00","39625","9.37","51.24","13.46","62.82","1010.666","13.68","90.3","-0.254","0.0"],
    [1402046,"2026-03-06 05:10:00","39626","8.11","47.83","13","53.13","1010.663","13.67","89.9","-0.486","0.0"],
    [1402047,"2026-03-06 05:20:00","39627","8.57","52.57","13.75","47.49","1011.135","13.64","90.1","-0.5","0.0"],
    [1402048,"2026-03-06 05:30:00","39628","8.59","62.65","12.45","62.54","1011.785","13.67","90.2","-0.39399999999999996","0.0"],
    [1402049,"2026-03-06 05:40:00","39629","8.31","73.97","12.45","84.8","1011.8939999999999","13.69","90.2","-0.583","0.0"],
    [1402050,"2026-03-06 05:50:00","39630","8.2","71.29","12.22","79.89","1011.8939999999999","13.71","89.1","-0.594","0.0"],
    [1402051,"2026-03-06 06:00:00","39631","8.55","69.53","12.25","66.33","1011.926","13.68","89.3","-0.507","0.0"],
    [1402052,"2026-03-06 06:10:00","39632","7.914","64.53","11.92","70.44","1011.927","13.61","90.1","-0.8440000000000001","0.0"],
    [1402053,"2026-03-06 06:20:00","39633","7.682","63.99","11.11","69.36","1012.0310000000001","13.57","90.2","-1.248","0.0"],
    [1402054,"2026-03-06 06:30:00","39634","7.615","61.02","11.37","76.79","1012.09","13.64","90.0","-1.141","0.0"],
    [1402055,"2026-03-06 06:40:00","39635","8.56","62.45","12.12","66.58","1012.125","13.65","89.7","0.551","0.0"],
    [1402056,"2026-03-06 06:50:00","39636","8.62","62.93","12.18","54.49","1012.143","13.65","89.4","4.512","0.0"],
    [1402057,"2026-03-06 07:00:00","39637","9.34","60.74","13.39","58.43","1012.18","13.7","88.5","5.7170000000000005","0.0"],
    [1402058,"2026-03-06 07:10:00","39638","8.7","64.21","12.22","68.97","1012.268","13.75","87.9","7.15","0.0"],
    [1402059,"2026-03-06 07:20:00","39639","8.5","63.98","12.38","59.56","1012.323","13.68","87.9","6.382999999999999","0.0"],
    [1402060,"2026-03-06 07:30:00","39640","7.777","62.67","10.78","56.41","1012.3439999999999","13.68","88.2","9.91","0.0"],
    [1402061,"2026-03-06 07:40:00","39641","8.38","55.93","10.98","55.55","1012.393","13.69","88.8","18.14","0.0"],
    [1402062,"2026-03-06 07:50:00","39642","8.27","54.92","11.4","63.57","1012.4760000000001","13.53","90.1","24.63","0.0"],
    [1402063,"2026-03-06 08:00:00","39643","7.496","49.79","11.76","68.6","1012.385","13.52","90.6","32.8","0.0"],
    [1402064,"2026-03-06 08:10:00","39644","7.452000000000001","46.92","12.02","46.79","1012.311","13.46","91.8","27.34","0.0"],
    [1402065,"2026-03-06 08:20:00","39645","7.83","50.63","12.12","50.73","1012.289","13.39","92.0","22.87","0.0"],
    [1402066,"2026-03-06 08:30:00","39646","7.435","47.54","12.54","48.65","1012.2869999999999","13.37","92.0","44.49","0.0"],
    [1402067,"2026-03-06 08:40:00","39647","8.09","46.97","12.84","45.92","1012.311","13.35","92.4","36.97","0.0"],
    [1402068,"2026-03-06 08:50:00","39648","8.1","44.12","12.54","39.08","1012.2710000000001","13.25","92.6","21.15","0.0"],
    [1402069,"2026-03-06 09:00:00","39649","9.57","40.93","14.41","34.42","1012.2360000000001","13.14","93.6","23.84","0.0"],
    [1402070,"2026-03-06 09:10:00","39650","7.7589999999999995","46.02","14.54","55.06","1012.305","13.22","93.3","23.55","0.0"],
    [1402071,"2026-03-06 09:20:00","39651","8.81","48.51","14.05","53.77","1012.336","13.21","93.7","25.66","0.0"],
    [1402072,"2026-03-06 09:30:00","39652","9.69","47.88","16.07","44.84","1012.38","13.13","94.2","25.02","0.0"],
    [1402073,"2026-03-06 09:40:00","39653","9.38","45.15","14.73","30.09","1012.398","13.06","94.8","32.88","0.0"],
    [1402074,"2026-03-06 09:50:00","39654","8.38","43.32","12.41","37.77","1012.428","13.15","94.4","26.73","0.0"],
    [1402075,"2026-03-06 10:00:00","39655","9.19","50.84","14.6","61.79","1012.454","13.26","94.1","40.86","0.0"],
    [1402076,"2026-03-06 10:10:00","39656","8.78","60.32","13.3","58.12","1012.581","13.37","94.0","33.04","0.0"],
    [1402077,"2026-03-06 10:20:00","39657","9.4","56.94","13.33","56.28","1012.654","13.5","93.0","46.18","0.0"],
    [1402078,"2026-03-06 10:30:00","39658","9.74","54.87","13.59","50.21","1012.658","13.57","92.3","51.73","0.0"],
    [1402079,"2026-03-06 10:40:00","39659","8.77","57.48","12.51","42.07","1012.755","13.69","91.8","79.94","0.0"],
    [1402080,"2026-03-06 10:50:00","39660","8.64","57.21","11.6","59.93","1012.795","13.81","91.1","91.9","0.0"],
    [1402081,"2026-03-06 11:00:00","39661","8.43","58.76","12.54","48.79","1012.885","13.83","91.0","44.31","0.0"],
    [1402082,"2026-03-06 11:10:00","39662","9.33","59.83","12.48","59.66","1012.988","13.81","90.7","72.04","0.0"],
    [1402083,"2026-03-06 11:20:00","39663","7.23","65.93","10.85","60.3","1013.1289999999999","13.83","91.0","53.83","0.0"],
    [1402084,"2026-03-06 11:30:00","39664","8.8","63.8","12.18","59.07","1013.066","13.82","91.1","51.86","0.0"],
    [1402085,"2026-03-06 11:40:00","39665","8.08","62.61","12.28","63.88","1013.097","13.86","91.6","98.7","0.0"],
    [1402086,"2026-03-06 11:50:00","39666","7.308","65.83","11.37","68.95","1013.17","13.89","92.4","91.1","0.0"],
    [1402087,"2026-03-06 12:00:00","39667","8.4","67.3","10.91","77.39","1013.065","13.91","92.3","179.4","0.0"],
    [1402088,"2026-03-06 12:10:00","39668","7.756","66.92","11.14","69","1013.053","14.3","91.4","319.0","0.0"],
    [1402089,"2026-03-06 12:20:00","39669","7.5920000000000005","66.95","10.75","55.82","1013.1469999999999","14.26","90.8","109.9","0.0"],
    [1402090,"2026-03-06 12:30:00","39670","6.938","65.87","9.02","57.53","1013.0160000000001","14.09","91.2","150.3","0.0"],
    [1402091,"2026-03-06 12:40:00","39671","6.891","65.67","9.87","60.57","1013.0269999999999","14.35","90.1","285.1","0.0"],
    [1402092,"2026-03-06 12:50:00","39672","7.273","66.06","10.09","58.14","1013.051","14.49","89.0","220.9","0.0"],
    [1402093,"2026-03-06 13:00:00","39673","6.88","61.66","10.45","64.07","1013.1010000000001","14.31","89.4","126.3","0.0"],
    [1402094,"2026-03-06 13:10:00","39674","7.3629999999999995","55.52","10.85","58.84","1013.051","14.24","89.2","133.8","0.0"],
    [1402095,"2026-03-06 13:20:00","39675","6.992999999999999","51.97","9.41","64.89","1013.0189999999999","14.33","89.0","217.2","0.0"],
    [1402096,"2026-03-06 13:30:00","39676","6.193","53.9","9.6","66.54","1012.955","14.41","89.0","179.2","0.0"],
    [1402097,"2026-03-06 13:40:00","39677","6.879","52.83","10.62","47.12","1012.959","14.49","88.6","328.2","0.0"],
    [1402098,"2026-03-06 13:50:00","39678","7.1770000000000005","51.92","10.62","55.37","1012.944","14.56","88.0","306.6","0.0"],
    [1402099,"2026-03-06 14:00:00","39679","6.977","52.66","10.09","63.65","1012.967","14.58","88.2","315.1","0.0"],
    [1402100,"2026-03-06 14:10:00","39680","5.917999999999999","51.62","9.77","68.23","1012.938","14.69","88.1","369.0","0.0"],
    [1402101,"2026-03-06 14:20:00","39681","6.146","51.86","8.85","43.06","1012.922","14.93","88.0","478.6","0.0"],
    [1402102,"2026-03-06 14:30:00","39682","6.801","54.45","9.6","74.3","1012.992","15.29","86.4","535.6","0.0"],
    [1402103,"2026-03-06 14:40:00","39683","6.45","53.01","8.79","55.92","1013.059","14.89","87.2","297.4","0.0"],
    [1402104,"2026-03-06 14:50:00","39684","6.3260000000000005","52.69","8.4","39.26","1013.0319999999999","14.88","87.5","390.2","0.0"],
    [1402105,"2026-03-06 15:00:00","39685","6.614","54.05","8.85","54.39","1013.0889999999999","14.81","87.4","250.0","0.0"],
    [1402106,"2026-03-06 15:10:00","39686","6.385","53.58","9.77","43.28","1013.164","14.75","87.8","254.6","0.0"],
    [1402107,"2026-03-06 15:20:00","39687","6.051","52.27","9.05","50.72","1013.1460000000001","14.76","88.0","143.5","0.0"],
    [1402108,"2026-03-06 15:30:00","39688","6.857","55.63","9.77","56.76","1013.28","14.55","88.6","125.2","0.0"],
    [1402109,"2026-03-06 15:40:00","39689","5.879","52.02","8.04","44.19","1013.291","14.47","89.4","121.2","0.0"],
    [1402110,"2026-03-06 15:50:00","39690","6.221","56.07","9.47","55.39","1013.326","14.47","89.3","105.3","0.0"],
    [1402111,"2026-03-06 16:00:00","39691","5.593999999999999","51.55","8.4","50.09","1013.2410000000001","14.39","89.3","47.78","0.0"],
    [1402112,"2026-03-06 16:10:00","39692","6.129","55.16","8.66","60.6","1013.2739999999999","14.36","89.0","46.74","0.0"],
    [1402113,"2026-03-06 16:20:00","39693","6.252000000000001","56.64","9.44","60.65","1013.466","14.3","88.9","49.32","0.0"],
    [1402114,"2026-03-06 16:30:00","39694","6.81","54.41","9.38","58.68","1013.562","14.26","89.0","38.6","0.0"],
    [1402115,"2026-03-06 16:40:00","39695","7.155","55.31","10.91","57.63","1013.654","14.22","89.1","18.3","0.0"],
    [1402116,"2026-03-06 16:50:00","39696","7.282","52.01","11.01","53.16","1013.717","14.11","89.3","14.0","0.0"],
    [1402117,"2026-03-06 17:00:00","39697","7.046","51.35","10.26","59.75","1013.7510000000001","14.04","89.0","14.43","0.0"],
    [1402118,"2026-03-06 17:10:00","39698","7.325","52.88","10.22","60.58","1013.8530000000001","14.04","88.9","10.59","0.0"],
    [1402119,"2026-03-06 17:20:00","39699","6.499","59.52","10.55","46.14","1013.9939999999999","14.01","89.3","8.38","0.0"],
    [1402120,"2026-03-06 17:30:00","39700","6.242000000000001","77.35","8.36","69.8","1014.087","13.88","89.1","2.475","0.0"],
    [1402121,"2026-03-06 17:40:00","39701","5.662999999999999","81.7","8.1","87.9","1014.176","13.89","88.5","0.5429999999999999","0.0"],
    [1402122,"2026-03-06 17:50:00","39702","6.1160000000000005","82.3","8.43","80.7","1014.21","13.87","88.3","0.331","0.0"],
    [1402123,"2026-03-06 18:00:00","39703","6.309","80.9","8.49","76.04","1014.32","13.82","88.2","-1.218","0.0"],
    [1402124,"2026-03-06 18:10:00","39704","5.693","79.72","8.4","85.2","1014.3589999999999","13.84","88.7","-1.251","0.0"],
    [1402125,"2026-03-06 18:20:00","39705","5.6370000000000005","75.29","8.2","81.7","1014.59","13.73","89.1","-1.742","0.0"],
    [1402126,"2026-03-06 18:30:00","39706","5.271","73.96","7.971","73.49","1014.67","13.62","88.5","-1.629","0.0"],
    [1402127,"2026-03-06 18:40:00","39707","5.055","72.12","7.121","68.17","1014.704","13.63","87.9","-1.4","0.0"],
    [1402128,"2026-03-06 18:50:00","39708","4.474","69.3","6.501","72.55","1014.834","13.64","87.7","-1.587","0.0"],
    [1402129,"2026-03-06 19:00:00","39709","4.529","60.51","6.468","68.21","1014.942","13.68","87.4","-1.284","0.0"],
    [1402130,"2026-03-06 19:10:00","39710","4.266","56.97","5.978","55.46","1015.0889999999999","13.74","87.6","-1.26","0.0"],
    [1402131,"2026-03-06 19:20:00","39711","4.65","55.28","6.305","49.2","1015.255","13.79","88.7","-1.271","0.0"],
    [1402132,"2026-03-06 19:30:00","39712","4.522","60.95","6.305","63.46","1015.4069999999999","13.77","89.4","-1.392","0.0"],
    [1402133,"2026-03-06 19:40:00","39713","4.426","62.25","5.749","50.05","1015.534","13.73","88.0","-1.845","0.0"],
    [1402134,"2026-03-06 19:50:00","39714","4.678999999999999","61.54","6.925","67.29","1015.654","13.84","88.1","-1.321","0.0"],
    [1402135,"2026-03-06 20:00:00","39715","4.585","61.1","6.337","51.97","1015.7669999999999","13.76","88.7","-1.537","0.0"],
    [1402136,"2026-03-06 20:10:00","39716","4.4430000000000005","56.05","6.729","62.03","1015.827","13.73","88.9","-1.838","0.0"],
    [1402137,"2026-03-06 20:20:00","39717","4.868","49.75","7.187","43.82","1015.8330000000001","13.67","88.8","-1.801","0.0"],
    [1402138,"2026-03-06 20:30:00","39718","4.731","51.18","6.86","43.58","1015.928","13.72","88.8","-1.6030000000000002","0.0"],
    [1402139,"2026-03-06 20:40:00","39719","4.803","49.91","7.121","55.5","1016.0","13.8","89.6","-1.308","0.0"],
    [1402140,"2026-03-06 20:50:00","39720","5.36","53.61","8.4","51.78","1016.079","13.79","89.9","-1.262","0.0"],
    [1402141,"2026-03-06 21:00:00","39721","5.683","54.53","8.95","59.85","1016.177","13.8","90.6","-1.26","0.0"],
    [1402142,"2026-03-06 21:10:00","39722","5.791","50.9","8.2","43.06","1016.1569999999999","13.67","90.7","-1.173","0.0"],
    [1402143,"2026-03-06 21:20:00","39723","6.244","52.09","9.15","65.02","1016.175","13.69","90.3","-1.28","0.0"],
    [1402144,"2026-03-06 21:30:00","39724","6.222","50.53","8.82","66.99","1016.2189999999999","13.7","90.5","-1.258","0.0"],
    [1402145,"2026-03-06 21:40:00","39725","5.731","50.21","8.46","54.68","1016.21","13.67","90.8","-1.286","0.0"],
    [1402146,"2026-03-06 21:50:00","39726","6.535","52.31","10","52.22","1016.299","13.74","90.5","-1.2590000000000001","0.0"],
    [1402147,"2026-03-06 22:00:00","39727","6.056","51.74","9.51","47.84","1016.36","13.72","90.5","-1.24","0.0"],
    [1402148,"2026-03-06 22:10:00","39728","6.124","49.39","9.05","54.67","1016.3610000000001","13.79","91.0","-1.012","0.0"],
    [1402149,"2026-03-06 22:20:00","39729","6.734","54.75","9.15","39.43","1016.3539999999999","13.85","91.8","-0.578","0.0"],
    [1402150,"2026-03-06 22:30:00","39730","6.949","53.91","9.7","43.09","1016.3910000000001","13.81","92.1","-0.49700000000000005","0.0"],
    [1402151,"2026-03-06 22:40:00","39731","6.961","55.35","9.64","65.97","1016.444","13.83","92.2","-0.513","0.0"],
    [1402152,"2026-03-06 22:50:00","39732","6.17","57.07","9.57","59.06","1016.544","13.87","92.5","-0.511","0.0"],
    [1402153,"2026-03-06 23:00:00","39733","5.986000000000001","57.49","8.33","51.18","1016.6189999999999","13.83","92.7","-0.506","0.0"],
    [1402154,"2026-03-06 23:10:00","39734","5.564","58.44","7.513","50.14","1016.643","13.82","92.4","-0.499","0.0"],
    [1402155,"2026-03-06 23:20:00","39735","5.386","62.63","7.546","63.27","1016.69","13.8","92.0","-0.39799999999999996","0.0"],
    [1402156,"2026-03-06 23:30:00","39736","5.439","58.2","8.07","63.23","1016.6410000000001","13.83","91.1","-0.415","0.0"],
    [1402157,"2026-03-06 23:40:00","39737","5.895","60.93","8.13","72.42","1016.592","13.89","90.5","-0.41","0.0"],
    [1402158,"2026-03-06 23:50:00","39738","6.112","68.94","8.56","78.89","1016.64","13.94","90.4","-0.401","0.0"],
    [1402159,"2026-03-07 00:00:00","39739","6.542999999999999","68.91","8.59","63.2","1016.7130000000001","14.01","91.0","-0.48200000000000004","0.0"],
    [1402160,"2026-03-07 00:10:00","39740","6.068","72.9","8.36","78.76","1016.732","13.94","91.7","-0.405","0.0"],
    [1402161,"2026-03-07 00:20:00","39741","5.692","75.48","8.56","76.13","1016.7439999999999","13.82","90.2","-0.474","0.0"],
    [1402162,"2026-03-07 00:30:00","39742","5.3229999999999995","76.18","7.644","75.49","1016.778","13.87","89.3","-0.517","0.0"],
    [1402163,"2026-03-07 00:40:00","39743","5.251","78.16","8.23","80.4","1016.829","13.87","89.1","-0.5","0.0"],
    [1402164,"2026-03-07 00:50:00","39744","5.64","86.0","8","80.6","1016.878","13.9","88.2","-0.505","0.0"],
    [1402165,"2026-03-07 01:00:00","39745","4.905","83.6","6.958","81","1016.914","14.0","88.2","-0.5","0.0"],
    [1402166,"2026-03-07 01:10:00","39746","5.853","78.78","8.69","81.3","1016.8969999999999","13.94","89.0","-0.503","0.0"],
    [1402167,"2026-03-07 01:20:00","39747","6.107","80.9","8.89","81.6","1016.8560000000001","13.92","89.1","-0.501","0.0"],
    [1402168,"2026-03-07 01:30:00","39748","5.0360000000000005","85.8","7.187","78.66","1016.9010000000001","13.89","89.1","-0.6629999999999999","0.0"],
    [1402169,"2026-03-07 01:40:00","39749","4.601","88.0","7.709","81.1","1016.86","13.82","88.4","-1.198","0.0"],
    [1402170,"2026-03-07 01:50:00","39750","4.475","89.7","6.958","87.3","1016.842","13.9","88.7","-0.882","0.0"],
    [1402171,"2026-03-07 02:00:00","39751","5.559","79.34","7.415","74.33","1016.79","13.88","89.5","-0.499","0.0"],
    [1402172,"2026-03-07 02:10:00","39752","5.824","80.8","8.17","80.1","1016.784","13.81","90.0","-0.752","0.0"],
    [1402173,"2026-03-07 02:20:00","39753","5.422999999999999","83.5","7.873","78.7","1016.788","13.71","89.8","-1.25","0.0"],
    [1402174,"2026-03-07 02:30:00","39754","4.763999999999999","85.7","6.827","86.9","1016.773","13.69","89.4","-1.202","0.0"],
    [1402175,"2026-03-07 02:40:00","39755","4.727","80.5","7.448","80.5","1016.6569999999999","13.66","89.5","-1.255","0.0"],
    [1402176,"2026-03-07 02:50:00","39756","5.148","75.82","7.448","75.26","1016.4960000000001","13.58","89.6","-1.252","0.0"],
    [1402177,"2026-03-07 03:00:00","39757","4.031000000000001","72.46","6.076","73.92","1016.5219999999999","13.61","90.1","-1.198","0.0"],
    [1402178,"2026-03-07 03:10:00","39758","4.006","72.51","6.599","82.2","1016.547","13.61","90.5","-0.8440000000000001","0.0"],
    [1402179,"2026-03-07 03:20:00","39759","4.477","69.38","6.37","67.2","1016.547","13.6","90.2","-0.555","0.0"],
    [1402180,"2026-03-07 03:30:00","39760","4.359","74.36","6.86","70.36","1016.573","13.68","90.0","-0.713","0.0"],
    [1402181,"2026-03-07 03:40:00","39761","3.233","91.5","5.521","83.7","1016.618","13.68","90.2","-1.2670000000000001","0.0"],
    [1402182,"2026-03-07 03:50:00","39762","3.7939999999999996","86.3","5.553","87.6","1016.6030000000001","13.58","89.7","-1.354","0.0"],
    [1402183,"2026-03-07 04:00:00","39763","4.146","90.7","6.631","82.8","1016.6519999999999","13.49","87.2","-1.98","0.0"],
    [1402184,"2026-03-07 04:10:00","39764","2.322","103.1","3.757","97.9","1016.773","13.63","86.7","-1.935","0.0"],
    [1402185,"2026-03-07 04:20:00","39765","2.417","108.8","5.357","111.4","1016.8939999999999","13.73","87.3","-1.264","0.0"],
    [1402186,"2026-03-07 04:30:00","39766","2.4530000000000003","120.2","4.704","97.1","1017.11","13.57","86.3","-1.26","0.0"],
    [1402187,"2026-03-07 04:40:00","39767","1.453","115.1","2.94","129.4","1017.2919999999999","13.57","85.1","-1.202","0.0"],
    [1402188,"2026-03-07 04:50:00","39768","2.082","114.8","4.671","116.3","1017.331","13.6","84.7","-1.244","0.0"],
    [1402189,"2026-03-07 05:00:00","39769","1.758","115.2","3.92","91.5","1017.336","13.59","84.0","-1.2590000000000001","0.0"],
    [1402190,"2026-03-07 05:10:00","39770","1.212","122.1","3.724","100.9","1017.438","13.49","82.7","-1.3769999999999998","0.0"],
    [1402191,"2026-03-07 05:20:00","39771","0.701","111.9","2.777","151.6","1017.615","13.36","82.9","-2.141","0.0"],
    [1402192,"2026-03-07 05:30:00","39772","1.001","123.0","2.94","106.3","1017.7589999999999","13.28","84.1","-2.716","0.0"],
    [1402193,"2026-03-07 05:40:00","39773","1.449","121.1","2.875","119.9","1017.8580000000001","13.25","84.6","-2.6639999999999997","0.0"],
    [1402194,"2026-03-07 05:50:00","39774","0.9670000000000001","128.9","2.777","142.2","1017.99","13.21","84.8","-2.752","0.0"],
    [1402195,"2026-03-07 06:00:00","39775","0.8140000000000001","114.1","1.895","123.2","1018.071","13.11","85.2","-2.759","0.0"],
    [1402196,"2026-03-07 06:10:00","39776","0.769","109.1","1.47","114.2","1018.172","13.04","85.7","-1.8659999999999999","0.0"],
    [1402197,"2026-03-07 06:20:00","39777","0.40399999999999997","106.1","1.307","107","1018.27","12.87","86.4","2.6660000000000004","0.0"],
    [1402198,"2026-03-07 06:30:00","39778","1.012","96.7","1.666","101","1018.431","12.65","87.4","15.38","0.0"],
    [1402199,"2026-03-07 06:40:00","39779","0.584","101.7","1.437","96.7","1018.503","12.73","87.6","30.11","0.0"],
    [1402200,"2026-03-07 06:50:00","39780","0.5870000000000001","94.9","1.405","105.1","1018.592","12.8","87.3","48.45","0.0"],
    [1402201,"2026-03-07 07:00:00","39781","0.5479999999999999","113.3","1.535","111.2","1018.74","13.01","87.0","79.14","0.0"],
    [1402202,"2026-03-07 07:10:00","39782","0.369","93.0","1.339","85.2","1018.955","13.59","84.6","93.3","0.0"],
    [1402203,"2026-03-07 07:20:00","39783","0.6509999999999999","93.1","1.47","97.2","1019.1410000000001","13.93","82.8","90.4","0.0"],
    [1402204,"2026-03-07 07:30:00","39784","0.963","95.5","1.731","83","1019.278","14.05","81.8","153.9","0.0"],
    [1402205,"2026-03-07 07:40:00","39785","1.732","93.4","3.005","104.1","1019.3530000000001","14.23","80.9","154.6","0.0"],
    [1402206,"2026-03-07 07:50:00","39786","0.889","109.5","2.156","108.9","1019.449","14.02","77.55","136.9","0.0"],
    [1402207,"2026-03-07 08:00:00","39787","1.1520000000000001","108.1","2.875","118.4","1019.4110000000001","14.16","75.91","137.9","0.0"],
    [1402208,"2026-03-07 08:10:00","39788","1.561","99.9","2.711","112.8","1019.38","14.18","76.02","215.3","0.0"],
    [1402209,"2026-03-07 08:20:00","39789","1.598","100.6","2.777","106.4","1019.441","14.56","73.26","297.8","0.0"],
    [1402210,"2026-03-07 08:30:00","39790","1.274","101.6","2.744","87.5","1019.498","14.98","71.31","324.4","0.0"],
    [1402211,"2026-03-07 08:40:00","39791","2.008","97.5","3.299","93.8","1019.5139999999999","14.79","73.28","319.6","0.0"],
    [1402212,"2026-03-07 08:50:00","39792","2.563","92.1","3.855","90.2","1019.585","14.61","78.73","344.6","0.0"],
    [1402213,"2026-03-07 09:00:00","39793","3.056","95.2","3.789","89.2","1019.687","14.49","78.53","320.3","0.0"],
    [1402214,"2026-03-07 09:10:00","39794","2.481","96.7","3.593","111.9","1019.7560000000001","14.42","80.1","353.3","0.0"],
    [1402215,"2026-03-07 09:20:00","39795","2.517","93.8","3.822","100.9","1019.785","14.68","78.3","392.6","0.0"],
    [1402216,"2026-03-07 09:30:00","39796","2.9789999999999996","89.2","4.41","90.1","1019.7410000000001","14.46","78.85","298.6","0.0"],
    [1402217,"2026-03-07 09:40:00","39797","3.305","81.8","4.377","71.91","1019.78","14.69","78.4","385.8","0.0"],
    [1402218,"2026-03-07 09:50:00","39798","3.24","86.6","4.541","82","1019.8660000000001","14.55","77.56","269.5","0.0"],
    [1402219,"2026-03-07 10:00:00","39799","2.263","97.8","4.051","80.8","1019.946","14.46","76.53","315.9","0.0"],
    [1402220,"2026-03-07 10:10:00","39800","2.7489999999999997","93.7","4.149","80.8","1019.967","14.95","73.65","626.9","0.0"],
    [1402221,"2026-03-07 10:20:00","39801","2.907","91.9","3.953","85.9","1020.0360000000001","15.41","72.43","573.1","0.0"],
    [1402222,"2026-03-07 10:30:00","39802","3.31","87.7","4.41","89.3","1020.056","15.06","72.24","413.9","0.0"],
    [1402223,"2026-03-07 10:40:00","39803","3.115","93.7","4.279","78.5","1020.0369999999999","14.79","74.12","453.2","0.0"],
    [1402224,"2026-03-07 10:50:00","39804","3.267","90.3","4.802","84.7","1020.0269999999999","15.17","72.52","550.0","0.0"],
    [1402225,"2026-03-07 11:00:00","39805","3.485","86.6","4.965","80.1","1020.067","15.06","73.12","402.3","0.0"],
    [1402226,"2026-03-07 11:10:00","39806","3.194","83.4","4.214","90.7","1020.0989999999999","14.86","73.37","476.5","0.0"],
    [1402227,"2026-03-07 11:20:00","39807","3.4419999999999997","80.6","4.475","74.37","1020.168","14.96","73.6","378.7","0.0"],
    [1402228,"2026-03-07 11:30:00","39808","3.159","74.03","4.443","69.69","1020.192","14.75","75.99","298.6","0.0"],
    [1402229,"2026-03-07 11:40:00","39809","3.386","79.38","4.965","77.5","1020.2439999999999","14.76","76.11","275.5","0.0"],
    [1402230,"2026-03-07 11:50:00","39810","3.4939999999999998","78.26","4.704","76.74","1020.238","14.72","76.2","258.1","0.0"],
    [1402231,"2026-03-07 12:00:00","39811","3.714","79.6","4.965","80.5","1020.2739999999999","14.85","77.19","410.4","0.0"],
    [1402232,"2026-03-07 12:10:00","39812","3.998","81.5","5.292","86","1020.294","15.13","75.55","679.0","0.0"],
    [1402233,"2026-03-07 12:20:00","39813","3.62","81.5","4.9","78.43","1020.176","15.72","73.55","801.0","0.0"],
    [1402234,"2026-03-07 12:30:00","39814","3.998","74.85","5.717","89.9","1020.059","15.36","74.86","490.7","0.0"],
    [1402235,"2026-03-07 12:40:00","39815","4.105","76.89","5.194","79.54","1019.9960000000001","14.86","76.32","368.2","0.0"],
    [1402236,"2026-03-07 12:50:00","39816","4.052","74.92","5.194","80.2","1019.903","14.9","76.36","260.4","0.0"],
    [1402237,"2026-03-07 13:00:00","39817","4.127","74.81","5.161","85.9","1019.7769999999999","14.76","76.78","222.0","0.0"],
    [1402238,"2026-03-07 13:10:00","39818","4.294","82.4","5.88","86.7","1019.703","14.81","77.02","294.8","0.0"],
    [1402239,"2026-03-07 13:20:00","39819","4.467","75.23","5.978","85.7","1019.6010000000001","14.78","76.54","248.1","0.0"],
    [1402240,"2026-03-07 13:30:00","39820","4.395","77.97","5.847","82.5","1019.533","14.84","77.25","270.7","0.0"],
    [1402241,"2026-03-07 13:40:00","39821","4.271","80.3","6.043","84.4","1019.62","14.87","76.94","237.4","0.0"],
    [1402242,"2026-03-07 13:50:00","39822","4.215","86.2","6.305","82","1019.683","14.75","76.64","194.9","0.0"],
    [1402243,"2026-03-07 14:00:00","39823","2.541","104.3","4.769","110.1","1019.918","14.63","75.71","144.1","0.0"],
    [1402244,"2026-03-07 14:10:00","39824","2.178","114.3","4.377","114.2","1019.998","14.7","75.78","159.7","0.0"],
    [1402245,"2026-03-07 14:20:00","39825","1.9380000000000002","115.9","4.312","125","1020.025","14.62","78.19","96.3","0.0"],
    [1402246,"2026-03-07 14:30:00","39826","3.5580000000000003","190.8","7.383","182.4","1020.22","13.52","82.4","100.9","0.0"],
    [1402247,"2026-03-07 14:40:00","39827","3.6260000000000003","205.1","6.337","216.6","1020.322","12.53","85.1","132.5","0.0"],
    [1402248,"2026-03-07 14:50:00","39828","3.693","208.7","7.481","217.3","1020.3489999999999","12.4","83.8","122.9","0.0"],
    [1402249,"2026-03-07 15:00:00","39829","4.79","216.3","7.775","211.1","1020.425","12.24","82.5","69.84","0.0"],
    [1402250,"2026-03-07 15:10:00","39830","4.38","219.9","6.729","209.5","1020.395","12.04","82.9","41.03","0.0"],
    [1402251,"2026-03-07 15:20:00","39831","3.495","226.4","5.913","202.3","1020.283","11.82","85.7","35.75","0.0"],
    [1402252,"2026-03-07 15:30:00","39832","3.2539999999999996","225.8","5.129","217.3","1020.1469999999999","11.54","86.7","58.74","0.0"],
    [1402253,"2026-03-07 15:40:00","39833","3.779","224.6","5.782","225.2","1020.2239999999999","11.63","87.4","76.6","0.0"],
    [1402254,"2026-03-07 15:50:00","39834","2.262","229.4","3.691","229.8","1020.174","11.73","88.8","99.4","0.0"],
    [1402255,"2026-03-07 16:00:00","39835","1.787","237.8","3.887","261.5","1020.275","11.64","89.2","116.0","0.0"],
    [1402256,"2026-03-07 16:10:00","39836","1.825","247.9","3.953","249.2","1020.2719999999999","11.57","88.9","107.1","0.0"],
    [1402257,"2026-03-07 16:20:00","39837","1.8969999999999998","236.2","3.234","201.6","1020.279","11.52","87.7","69.2","0.0"],
    [1402258,"2026-03-07 16:30:00","39838","1.56","231.7","3.332","223.2","1020.398","11.51","86.6","57.98","0.0"],
    [1402259,"2026-03-07 16:40:00","39839","1.143","246.0","2.907","272.8","1020.475","11.57","86.1","39.17","0.0"],
    [1402260,"2026-03-07 16:50:00","39840","1.0859999999999999","250.6","2.221","258.6","1020.429","11.57","86.0","32.53","0.0"],
    [1402261,"2026-03-07 17:00:00","39841","1.069","258.2","2.091","281.3","1020.3510000000001","11.52","85.8","16.49","0.0"],
    [1402262,"2026-03-07 17:10:00","39842","1.186","241.5","2.646","240.3","1020.35","11.54","85.3","14.29","0.0"],
    [1402263,"2026-03-07 17:20:00","39843","1.284","240.2","2.744","212.7","1020.2860000000001","11.57","84.5","14.9","0.0"],
    [1402264,"2026-03-07 17:30:00","39844","0.847","277.9","2.025","292.2","1020.352","11.61","84.4","12.07","0.0"],
    [1402265,"2026-03-07 17:40:00","39845","0.961","300.0","1.47","301.3","1020.438","11.61","84.8","5.96","0.0"],
    [1402266,"2026-03-07 17:50:00","39846","0.8809999999999999","299.2","1.601","308.2","1020.59","11.7","84.9","1.101","0.0"],
    [1402267,"2026-03-07 18:00:00","39847","0.799","307.3","1.568","295.1","1020.73","11.75","84.4","-0.252","0.0"],
    [1402268,"2026-03-07 18:10:00","39848","0.638","292.5","1.111","294.7","1020.738","11.8","84.4","-1.3969999999999998","0.0"],
    [1402269,"2026-03-07 18:20:00","39849","0.772","288.2","1.372","272.9","1020.725","11.81","84.9","-1.969","0.0"],
    [1402270,"2026-03-07 18:30:00","39850","0.35200000000000004","277.5","1.045","284","1020.82","11.8","84.7","-1.719","0.0"],
    [1402271,"2026-03-07 18:40:00","39851","1.272","316.5","1.764","345.8","1020.8839999999999","11.88","85.9","-2.009","0.0"],
    [1402272,"2026-03-07 18:50:00","39852","1.9780000000000002","334.1","2.744","333.1","1020.9","11.94","86.7","-2.0069999999999997","0.0"],
    [1402273,"2026-03-07 19:00:00","39853","1.449","334.5","2.221","333.8","1020.92","12.01","86.3","-2.012","0.0"],
    [1402274,"2026-03-07 19:10:00","39854","1.4280000000000002","330.1","2.156","348.1","1020.8710000000001","12.01","86.2","-1.463","0.0"],
    [1402275,"2026-03-07 19:20:00","39855","2.397","330.2","3.201","329.8","1020.898","12.18","84.9","-1.359","0.0"],
    [1402276,"2026-03-07 19:30:00","39856","1.693","306.2","2.548","313.7","1020.9169999999999","12.34","85.0","-1.484","0.0"],
    [1402277,"2026-03-07 19:40:00","39857","2.023","295.4","2.744","273.5","1020.908","12.15","87.3","-1.605","0.0"],
    [1402278,"2026-03-07 19:50:00","39858","1.8259999999999998","301.4","2.907","310.2","1020.9580000000001","11.78","89.5","-1.2930000000000001","0.0"],
    [1402279,"2026-03-07 20:00:00","39859","1.139","297.7","1.96","317.7","1020.937","11.75","90.0","-1.272","0.0"],
    [1402280,"2026-03-07 20:10:00","39860","0.7040000000000001","285.7","1.339","285.4","1020.971","11.75","89.8","-1.261","0.0"],
    [1402281,"2026-03-07 20:20:00","39861","0.44299999999999995","275.6","1.111","277.3","1021.035","11.78","89.4","-1.198","0.0"],
    [1402282,"2026-03-07 20:30:00","39862","0.21","278.9","1.143","280.4","1021.1569999999999","11.75","89.1","-1.24","0.0"],
    [1402283,"2026-03-07 20:40:00","39863","0.342","290.8","1.143","284.2","1021.225","11.57","89.6","-1.261","0.0"],
    [1402284,"2026-03-07 20:50:00","39864","0.466","325.0","0.915","312.8","1021.2510000000001","11.6","90.3","-1.26","0.0"],
    [1402285,"2026-03-07 21:00:00","39865","1.96","33.45","3.201","18.72","1021.302","11.97","88.5","-1.177","0.0"],
    [1402286,"2026-03-07 21:10:00","39866","2.376","35.46","5.292","40.5","1021.305","12.67","83.7","-1.129","0.0"],
    [1402287,"2026-03-07 21:20:00","39867","3.077","40.07","4.9","29.75","1021.298","13.02","81.4","-1.245","0.0"],
    [1402288,"2026-03-07 21:30:00","39868","1.9040000000000001","25.85","4.541","37.45","1021.29","13.01","81.0","-1.236","0.0"],
    [1402289,"2026-03-07 21:40:00","39869","1.864","33.1","4.247","45.73","1021.253","12.8","82.2","-1.6680000000000001","0.0"],
    [1402290,"2026-03-07 21:50:00","39870","3.07","29.1","5.455","44.18","1021.172","12.87","83.3","-1.831","0.0"],
    [1402291,"2026-03-07 22:00:00","39871","3.076","36.76","4.933","49.79","1021.1669999999999","12.94","84.2","-1.6669999999999998","0.0"],
    [1402292,"2026-03-07 22:10:00","39872","3.3110000000000004","45.69","5.194","30.32","1021.107","12.92","84.5","-1.656","0.0"],
    [1402293,"2026-03-07 22:20:00","39873","3.096","43.94","4.671","30.45","1021.038","12.91","83.4","-1.485","0.0"],
    [1402294,"2026-03-07 22:30:00","39874","3.1060000000000003","44.95","4.769","36.26","1020.982","12.93","82.3","-1.5319999999999998","0.0"],
    [1402295,"2026-03-07 22:40:00","39875","2.055","30.12","3.299","53.99","1020.9019999999999","12.93","81.7","-1.262","0.0"],
    [1402296,"2026-03-07 22:50:00","39876","1.111","24.97","2.483","33.64","1020.872","12.71","82.3","-1.942","0.0"],
    [1402297,"2026-03-07 23:00:00","39877","0.47","338.2","2.058","327.3","1020.84","12.37","82.8","-2.623","0.0"],
    [1402298,"2026-03-07 23:10:00","39878","1.7080000000000002","291.7","2.319","291.2","1020.794","11.67","84.4","-2.129","0.0"],
    [1402299,"2026-03-07 23:20:00","39879","0.966","277.8","1.764","276.6","1020.77","11.2","87.1","-2.019","0.0"],
    [1402300,"2026-03-07 23:30:00","39880","0.679","275.5","1.699","284.8","1020.7360000000001","11.05","87.6","-2.515","0.0"],
    [1402301,"2026-03-07 23:40:00","39881","0.863","270.2","1.666","281.2","1020.755","10.92","87.9","-2.727","0.0"],
    [1402302,"2026-03-07 23:50:00","39882","0.976","265.4","1.699","273.8","1020.784","10.77","88.5","-2.249","0.0"],
    [1402303,"2026-03-08 00:00:00","39883","1.185","294.3","1.895","289.2","1020.742","10.68","88.8","-1.605","0.0"],
    [1402304,"2026-03-08 00:10:00","39884","0.757","294.5","1.797","286.3","1020.727","10.77","89.3","-1.365","0.0"],
    [1402305,"2026-03-08 00:20:00","39885","1.074","299.4","1.927","296.4","1020.709","10.77","89.1","-1.584","0.0"],
    [1402306,"2026-03-08 00:30:00","39886","1.0759999999999998","302.6","2.123","301.1","1020.7489999999999","10.84","89.1","-1.8619999999999999","0.0"],
    [1402307,"2026-03-08 00:40:00","39887","1.23","294.6","1.993","293.2","1020.7239999999999","10.9","89.0","-1.358","0.0"],
    [1402308,"2026-03-08 00:50:00","39888","0.6","301.6","1.503","310.7","1020.63","10.92","88.6","-1.265","0.0"],
    [1402309,"2026-03-08 01:00:00","39889","0.987","274.2","2.385","272.7","1020.5989999999999","10.99","88.5","-1.2930000000000001","0.0"],
    [1402310,"2026-03-08 01:10:00","39890","1.246","282.6","2.123","275.9","1020.541","11.08","87.7","-1.392","0.0"],
    [1402311,"2026-03-08 01:20:00","39891","0.934","302.1","1.764","308.3","1020.451","10.88","88.0","-1.949","0.0"],
    [1402312,"2026-03-08 01:30:00","39892","0.265","279.3","1.143","282.3","1020.4169999999999","10.69","88.4","-2.241","0.0"],
    [1402313,"2026-03-08 01:40:00","39893","0.809","288.0","1.274","290.2","1020.3430000000001","10.76","88.6","-2.097","0.0"],
    [1402314,"2026-03-08 01:50:00","39894","0.5770000000000001","288.9","1.535","294.7","1020.2769999999999","10.61","89.0","-2.012","0.0"],
    [1402315,"2026-03-08 02:00:00","39895","0.21600000000000003","289.0","1.339","294.4","1020.191","10.63","89.2","-1.584","0.0"],
    [1402316,"2026-03-08 02:10:00","39896","0.0","306.3","0.033","306.3","1020.1160000000001","10.46","89.4","-2.1630000000000003","0.0"],
    [1402317,"2026-03-08 02:20:00","39897","0.0","0.0","0","0","1020.092","10.36","89.7","-2.614","0.0"],
    [1402318,"2026-03-08 02:30:00","39898","0.6759999999999999","25.83","1.829","36.34","1020.049","10.31","90.0","-2.745","0.0"],
    [1402319,"2026-03-08 02:40:00","39899","1.0090000000000001","36.09","2.221","55.93","1019.993","10.48","88.5","-2.61","0.0"],
    [1402320,"2026-03-08 02:50:00","39900","1.128","309.5","1.503","293.6","1019.933","10.23","88.2","-2.1919999999999997","0.0"],
    [1402321,"2026-03-08 03:00:00","39901","0.8690000000000001","340.4","1.535","348.7","1019.8610000000001","9.95","89.2","-2.543","0.0"],
    [1402322,"2026-03-08 03:10:00","39902","1.4509999999999998","314.8","1.96","299.2","1019.834","9.99","88.8","-2.6239999999999997","0.0"],
    [1402323,"2026-03-08 03:20:00","39903","1.374","298.3","2.058","303.6","1019.79","9.84","89.2","-2.58","0.0"],
    [1402324,"2026-03-08 03:30:00","39904","1.157","288.9","1.895","276.4","1019.8","9.77","89.8","-2.52","0.0"],
    [1402325,"2026-03-08 03:40:00","39905","1.036","270.5","1.895","278.5","1019.835","9.92","89.4","-1.739","0.0"],
    [1402326,"2026-03-08 03:50:00","39906","1.273","283.7","2.025","287.4","1019.7869999999999","9.93","88.6","-1.274","0.0"],
    [1402327,"2026-03-08 04:00:00","39907","1.126","282.2","1.829","281.7","1019.7669999999999","9.95","88.2","-1.318","0.0"],
    [1402328,"2026-03-08 04:10:00","39908","0.436","294.4","1.666","301.9","1019.7810000000001","10.0","87.9","-1.272","0.0"],
    [1402329,"2026-03-08 04:20:00","39909","1.518","289.7","2.123","291.8","1019.826","10.04","88.3","-1.261","0.0"],
    [1402330,"2026-03-08 04:30:00","39910","1.276","290.7","1.895","286.9","1019.82","10.16","88.1","-1.245","0.0"],
    [1402331,"2026-03-08 04:40:00","39911","1.238","286.9","2.091","300.6","1019.862","10.25","88.3","-0.9520000000000001","0.0"],
    [1402332,"2026-03-08 04:50:00","39912","0.22399999999999998","298.9","1.535","280.8","1019.842","10.34","88.3","-0.9990000000000001","0.0"],
    [1402333,"2026-03-08 05:00:00","39913","0.015","318.9","0.686","317.2","1019.8739999999999","10.36","88.4","-0.7559999999999999","0.0"],
    [1402334,"2026-03-08 05:10:00","39914","0.376","301.7","1.47","302.9","1019.904","10.46","88.3","-0.514","0.0"],
    [1402335,"2026-03-08 05:20:00","39915","0.88","302.4","1.405","315.9","1019.949","10.54","88.2","-0.515","0.0"],
    [1402336,"2026-03-08 05:30:00","39916","1.213","301.7","1.829","297.7","1019.9069999999999","10.53","88.4","-0.9990000000000001","0.0"],
    [1402337,"2026-03-08 05:40:00","39917","0.917","305.2","1.372","299.2","1019.9119999999999","10.46","88.8","-1.256","0.0"],
    [1402338,"2026-03-08 05:50:00","39918","0.42100000000000004","304.0","1.143","291.4","1019.941","10.59","88.5","-0.701","0.0"],
    [1402339,"2026-03-08 06:00:00","39919","0.9990000000000001","41.36","2.94","37.08","1019.943","10.77","88.4","-0.912","0.0"],
    [1402340,"2026-03-08 06:10:00","39920","2.229","44.35","3.495","46.02","1019.926","11.63","84.2","-0.319","0.0"],
    [1402341,"2026-03-08 06:20:00","39921","1.869","41.02","3.005","36.61","1019.972","11.93","81.2","1.52","0.0"],
    [1402342,"2026-03-08 06:30:00","39922","1.57","3.8110000000000004","2.809","43.5","1020.118","11.87","81.1","2.835","0.0"],
    [1402343,"2026-03-08 06:40:00","39923","2.066","272.1","2.581","258.1","1020.2139999999999","10.58","84.8","6.102","0.0"],
    [1402344,"2026-03-08 06:50:00","39924","1.8769999999999998","271.9","2.907","271.2","1020.296","10.2","87.4","8.12","0.0"],
    [1402345,"2026-03-08 07:00:00","39925","0.919","281.9","1.829","275.5","1020.4169999999999","10.08","88.3","16.11","0.0"],
    [1402346,"2026-03-08 07:10:00","39926","0.851","295.2","1.405","274.8","1020.552","10.19","88.5","23.56","0.0"],
    [1402347,"2026-03-08 07:20:00","39927","0.805","296.1","1.47","294.6","1020.623","10.38","88.7","21.39","0.0"],
    [1402348,"2026-03-08 07:30:00","39928","0.943","269.1","1.405","271.9","1020.747","10.52","88.3","16.19","0.0"],
    [1402349,"2026-03-08 07:40:00","39929","1.143","247.7","1.764","250.4","1020.927","10.58","87.2","15.86","0.0"],
    [1402350,"2026-03-08 07:50:00","39930","1.757","272.1","2.548","267.5","1021.087","10.61","87.0","35.85","0.0"],
    [1402351,"2026-03-08 08:00:00","39931","2.336","273.3","2.907","268.8","1021.195","10.48","87.9","75.35","0.0"],
    [1402352,"2026-03-08 08:10:00","39932","1.112","287.7","2.058","264","1021.306","10.58","89.0","125.3","0.0"],
    [1402353,"2026-03-08 08:20:00","39933","0.963","291.9","1.535","291","1021.378","10.98","89.5","119.2","0.0"],
    [1402354,"2026-03-08 08:30:00","39934","0.9","294.2","1.895","306.6","1021.375","11.31","89.4","162.5","0.0"],
    [1402355,"2026-03-08 08:40:00","39935","1.053","300.5","1.797","297.4","1021.405","11.75","89.1","254.2","0.0"],
    [1402356,"2026-03-08 08:50:00","39936","1.5319999999999998","306.1","2.091","313.4","1021.4839999999999","12.46","88.0","371.0","0.0"],
    [1402357,"2026-03-08 09:00:00","39937","1.84","330.9","3.757","355.7","1021.53","12.82","84.7","406.7","0.0"],
    [1402358,"2026-03-08 09:10:00","39938","2.5660000000000003","10.41","3.724","8.36","1021.576","12.99","77.71","202.6","0.0"],
    [1402359,"2026-03-08 09:20:00","39939","1.591","26.91","2.581","52.36","1021.692","13.04","76.39","158.0","0.0"],
    [1402360,"2026-03-08 09:30:00","39940","1.034","39.91","2.45","43.81","1021.7860000000001","13.14","76.61","188.6","0.0"],
    [1402361,"2026-03-08 09:40:00","39941","0.986","316.4","2.156","320.8","1021.829","13.27","77.38","217.1","0.0"],
    [1402362,"2026-03-08 09:50:00","39942","1.272","278.4","2.123","278","1021.8330000000001","12.89","81.5","218.2","0.0"],
    [1402363,"2026-03-08 10:00:00","39943","1.655","274.4","2.613","285.3","1021.883","12.72","82.2","302.9","0.0"],
    [1402364,"2026-03-08 10:10:00","39944","0.87","281.7","1.927","285.3","1021.9119999999999","12.88","81.6","254.6","0.0"],
    [1402365,"2026-03-08 10:20:00","39945","0.555","30.57","1.47","100.5","1021.938","13.35","80.7","199.2","0.0"],
    [1402366,"2026-03-08 10:30:00","39946","2.151","58.46","3.822","38.94","1021.921","13.37","76.43","172.1","0.0"],
    [1402367,"2026-03-08 10:40:00","39947","3.052","62.21","4.606","51.48","1021.9010000000001","13.45","74.21","310.0","0.0"],
    [1402368,"2026-03-08 10:50:00","39948","2.883","58.58","4.083","50.24","1021.852","13.89","74.52","473.9","0.0"],
    [1402369,"2026-03-08 11:00:00","39949","3.115","59.08","4.508","71.72","1021.828","13.99","74.22","491.0","0.0"],
    [1402370,"2026-03-08 11:10:00","39950","3.051","59.99","4.508","46.3","1021.855","14.65","74.28","756.7","0.0"],
    [1402371,"2026-03-08 11:20:00","39951","3.696","63.68","5.194","72.15","1021.832","14.48","73.39","711.0","0.0"],
    [1402372,"2026-03-08 11:30:00","39952","3.633","72.79","5.717","79.84","1021.823","14.73","73.42","799.6","0.0"],
    [1402373,"2026-03-08 11:40:00","39953","3.4560000000000004","73.31","4.867","72.81","1021.818","14.58","73.26","537.4","0.0"],
    [1402374,"2026-03-08 11:50:00","39954","3.4130000000000003","77.64","4.541","79.59","1021.793","14.23","73.89","588.5","0.0"],
    [1402375,"2026-03-08 12:00:00","39955","3.318","74.25","4.704","60.23","1021.698","14.29","74.19","602.5","0.0"],
    [1402376,"2026-03-08 12:10:00","39956","3.072","77.91","4.181","83.6","1021.6060000000001","14.82","72.92","897.0","0.0"],
    [1402377,"2026-03-08 12:20:00","39957","3.483","81.5","5.063","92.7","1021.505","14.86","73.14","795.4","0.0"],
    [1402378,"2026-03-08 12:30:00","39958","3.522","86.3","5.717","88.2","1021.3710000000001","14.77","73.04","754.1","0.0"],
    [1402379,"2026-03-08 12:40:00","39959","4.452","73.91","6.533","84.6","1021.28","15.02","76.27","747.6","0.0"],
    [1402380,"2026-03-08 12:50:00","39960","4.547","80.9","6.043","91","1021.201","14.83","77.72","730.8","0.0"],
    [1402381,"2026-03-08 13:00:00","39961","4.487","81.6","5.88","69.95","1021.1110000000001","14.71","78.17","722.2","0.0"],
    [1402382,"2026-03-08 13:10:00","39962","4.533","80.4","5.978","87.8","1021.118","14.78","79.0","728.7","0.0"],
    [1402383,"2026-03-08 13:20:00","39963","4.67","84.1","6.109","84.5","1021.0880000000001","14.68","79.42","713.7","0.0"],
    [1402384,"2026-03-08 13:30:00","39964","4.578","83.8","5.978","84.7","1020.985","14.6","80.5","688.6","0.0"],
    [1402385,"2026-03-08 13:40:00","39965","4.282","84.7","5.684","87.1","1020.936","14.7","80.2","665.6","0.0"],
    [1402386,"2026-03-08 13:50:00","39966","4.271","81.7","5.815","76.94","1020.8860000000001","14.83","80.8","624.9","0.0"],
    [1402387,"2026-03-08 14:00:00","39967","3.911","82.6","5.325","80.6","1020.834","14.89","81.4","586.3","0.0"],
    [1402388,"2026-03-08 14:10:00","39968","4.261","78.13","5.292","74.05","1020.7589999999999","14.78","82.2","503.1","0.0"],
    [1402389,"2026-03-08 14:20:00","39969","3.862","85.6","5.357","89.3","1020.743","14.76","82.0","385.4","0.0"],
    [1402390,"2026-03-08 14:30:00","39970","4.21","82.0","5.161","79.33","1020.735","14.51","83.0","388.0","0.0"],
    [1402391,"2026-03-08 14:40:00","39971","3.9989999999999997","80.4","5.227","78.46","1020.671","14.42","83.1","259.3","0.0"],
    [1402392,"2026-03-08 14:50:00","39972","3.4730000000000003","78.33","4.704","83.5","1020.6239999999999","14.51","82.8","347.2","0.0"],
    [1402393,"2026-03-08 15:00:00","39973","3.285","94.3","4.181","94.4","1020.6080000000001","14.62","79.74","366.2","0.0"],
    [1402394,"2026-03-08 15:10:00","39974","3.014","92.4","4.083","87.1","1020.555","14.47","80.3","342.7","0.0"],
    [1402395,"2026-03-08 15:20:00","39975","2.9410000000000003","89.5","3.92","89.5","1020.5239999999999","14.35","80.6","260.9","0.0"],
    [1402396,"2026-03-08 15:30:00","39976","2.5980000000000003","90.2","3.528","77.78","1020.5039999999999","14.51","79.28","303.9","0.0"],
    [1402397,"2026-03-08 15:40:00","39977","2.7030000000000003","94.4","3.855","94.5","1020.53","14.67","77.75","397.3","0.0"],
    [1402398,"2026-03-08 15:50:00","39978","2.903","95.3","4.181","87.6","1020.548","14.71","77.98","366.9","0.0"],
    [1402399,"2026-03-08 16:00:00","39979","2.35","103.3","4.508","88.8","1020.525","14.68","78.83","315.1","0.0"],
    [1402400,"2026-03-08 16:10:00","39980","1.516","106.9","3.463","83.9","1020.561","14.75","77.31","283.5","0.0"],
    [1402401,"2026-03-08 16:20:00","39981","2.36","98.5","3.365","97.6","1020.566","14.52","77.83","255.0","0.0"],
    [1402402,"2026-03-08 16:30:00","39982","1.867","101.5","3.365","113.3","1020.6139999999999","14.4","78.51","175.3","0.0"],
    [1402403,"2026-03-08 16:40:00","39983","1.926","102.4","3.136","100.4","1020.6510000000001","14.44","77.15","192.9","0.0"],
    [1402404,"2026-03-08 16:50:00","39984","2.032","102.5","3.332","94.8","1020.694","14.39","76.43","139.7","0.0"],
    [1402405,"2026-03-08 17:00:00","39985","1.567","106.7","2.744","125.2","1020.753","14.32","76.57","106.4","0.0"],
    [1402406,"2026-03-08 17:10:00","39986","1.705","102.2","2.809","142.5","1020.801","14.2","77.26","75.02","0.0"],
    [1402407,"2026-03-08 17:20:00","39987","1.317","118.9","2.875","106.1","1020.8789999999999","14.04","78.32","27.97","0.0"],
    [1402408,"2026-03-08 17:30:00","39988","1.058","124.8","3.463","114.5","1020.932","13.85","77.98","18.07","0.0"],
    [1402409,"2026-03-08 17:40:00","39989","0.665","121.8","2.254","143","1021.055","13.65","78.19","9.62","0.0"],
    [1402410,"2026-03-08 17:50:00","39990","0.986","120.9","2.646","106.2","1021.1160000000001","13.51","78.78","3.543","0.0"],
    [1402411,"2026-03-08 18:00:00","39991","1.01","107.2","2.156","87","1021.17","13.46","78.91","-0.5720000000000001","0.0"],
    [1402412,"2026-03-08 18:10:00","39992","1.095","118.7","2.679","90.8","1021.232","13.39","78.89","-2.519","0.0"],
    [1402413,"2026-03-08 18:20:00","39993","0.863","131.6","2.254","141.7","1021.32","13.41","77.01","-2.75","0.0"],
    [1402414,"2026-03-08 18:30:00","39994","0.737","123.6","1.699","127.7","1021.422","13.35","76.88","-2.7889999999999997","0.0"],
    [1402415,"2026-03-08 18:40:00","39995","0.757","113.5","2.156","142","1021.5210000000001","13.39","78.91","-2.8169999999999997","0.0"],
    [1402416,"2026-03-08 18:50:00","39996","0.915","112.8","2.254","116.6","1021.573","13.26","79.99","-2.7910000000000004","0.0"],
    [1402417,"2026-03-08 19:00:00","39997","0.873","100.0","1.895","82.3","1021.684","13.28","80.7","-2.761","0.0"],
    [1402418,"2026-03-08 19:10:00","39998","0.838","106.5","2.385","141.2","1021.803","13.31","81.2","-2.171","0.0"],
    [1402419,"2026-03-08 19:20:00","39999","0.645","120.9","1.699","118.6","1021.885","13.33","81.2","-2.252","0.0"],
    [1402420,"2026-03-08 19:30:00","40000","0.469","117.9","3.299","294.3","1021.9639999999999","13.34","79.83","-2.026","0.0"],
    [1402421,"2026-03-08 19:40:00","40001","0.905","115.9","3.005","2.033","1022.0010000000001","13.42","79.68","-2.051","0.0"],
    [1402422,"2026-03-08 19:50:00","40002","0.899","118.8","3.724","237","1021.9580000000001","13.44","79.48","-2.759","0.0"],
    [1402423,"2026-03-08 20:00:00","40003","1.2770000000000001","134.9","6.631","247.9","1022.002","13.4","79.44","-2.7739999999999996","0.0"],
    [1402424,"2026-03-08 20:10:00","40004","0.445","108.2","1.699","58.73","1022.051","13.33","79.35","-2.761","0.0"],
    [1402425,"2026-03-08 20:20:00","40005","0.593","122.2","2.352","92.2","1022.1289999999999","13.16","79.91","-2.695","0.0"],
    [1402426,"2026-03-08 20:30:00","40006","0.42","131.0","2.091","127.6","1022.12","13.13","79.95","-2.496","0.0"],
    [1402427,"2026-03-08 20:40:00","40007","0.7120000000000001","153.4","2.352","189.5","1022.092","13.25","79.72","-2.7539999999999996","0.0"],
    [1402428,"2026-03-08 20:50:00","40008","0.475","99.9","2.287","104.6","1022.003","13.25","79.74","-2.824","0.0"],
    [1402429,"2026-03-08 21:00:00","40009","0.374","104.9","1.274","120","1021.935","13.07","80.6","-2.77","0.0"],
    [1402430,"2026-03-08 21:10:00","40010","0.009000000000000001","108.0","0.425","108","1021.813","12.57","81.9","-3.005","0.0"],
    [1402431,"2026-03-08 21:20:00","40011","0.0","0.0","0","0","1021.7760000000001","11.95","84.4","-3.4730000000000003","0.0"],
    [1402432,"2026-03-08 21:30:00","40012","0.031","101.7","0.555","101.2","1021.819","11.83","86.0","-2.927","0.0"],
    [1402433,"2026-03-08 21:40:00","40013","0.12300000000000001","344.1","0.817","100.2","1021.865","11.28","87.2","-2.765","0.0"],
    [1402434,"2026-03-08 21:50:00","40014","0.25","296.3","1.209","280.7","1021.918","11.29","87.5","-2.766","0.0"],
    [1402435,"2026-03-08 22:00:00","40015","1.4809999999999999","276.3","2.058","282.5","1021.918","11.25","88.3","-2.823","0.0"],
    [1402436,"2026-03-08 22:10:00","40016","1.538","276.5","2.254","276","1021.893","10.85","88.7","-2.679","0.0"],
    [1402437,"2026-03-08 22:20:00","40017","1.694","281.2","2.189","274.6","1021.8739999999999","10.62","90.1","-2.7460000000000004","0.0"],
    [1402438,"2026-03-08 22:30:00","40018","1.255","275.8","1.895","284.1","1021.8580000000001","10.64","90.2","-2.7289999999999996","0.0"],
    [1402439,"2026-03-08 22:40:00","40019","0.943","275.7","1.339","278.2","1021.825","10.62","90.2","-2.758","0.0"],
    [1402440,"2026-03-08 22:50:00","40020","0.606","273.1","1.241","264.8","1021.837","10.52","90.5","-2.761","0.0"],
    [1402441,"2026-03-08 23:00:00","40021","0.611","286.7","1.372","269.1","1021.8539999999999","10.45","90.5","-2.761","0.0"],
    [1402442,"2026-03-08 23:10:00","40022","1.1159999999999999","282.6","1.829","286","1021.793","10.45","90.9","-2.761","0.0"],
    [1402443,"2026-03-08 23:20:00","40023","0.55","282.7","1.699","286","1021.778","10.47","90.6","-2.638","0.0"],
    [1402444,"2026-03-08 23:30:00","40024","1.093","281.4","1.633","273","1021.732","10.3","90.9","-2.759","0.0"],
    [1402445,"2026-03-08 23:40:00","40025","1.137","275.9","1.895","275.3","1021.71","10.36","91.1","-2.752","0.0"],
    [1402446,"2026-03-08 23:50:00","40026","0.47100000000000003","275.1","1.764","281.9","1021.701","10.35","90.8","-2.714","0.0"],
    [1402447,"2026-03-09 00:00:00","40027","0.076","277.0","0.621","276.2","1021.704","10.2","90.9","-2.7289999999999996","0.0"],
    [1402448,"2026-03-09 00:10:00","40028","0.037000000000000005","267.7","0.588","267.1","1021.691","10.01","91.1","-2.725","0.0"],
    [1402449,"2026-03-09 00:20:00","40029","0.36700000000000005","275.9","0.98","281.9","1021.68","9.98","91.5","-2.562","0.0"],
    [1402450,"2026-03-09 00:30:00","40030","0.884","285.6","1.535","286","1021.648","9.99","91.6","-2.674","0.0"],
    [1402451,"2026-03-09 00:40:00","40031","1.071","295.2","1.633","299.8","1021.617","9.86","91.6","-2.319","0.0"],
    [1402452,"2026-03-09 00:50:00","40032","1.2429999999999999","288.9","1.96","285.4","1021.562","9.83","91.9","-2.372","0.0"],
    [1402453,"2026-03-09 01:00:00","40033","1.181","283.6","1.895","290.2","1021.507","9.86","91.9","-1.9080000000000001","0.0"],
    [1402454,"2026-03-09 01:10:00","40034","0.616","286.7","1.176","266.3","1021.438","9.99","91.9","-1.3719999999999999","0.0"],
    [1402455,"2026-03-09 01:20:00","40035","1.385","282.0","2.058","278.8","1021.3389999999999","10.21","91.8","-1.5590000000000002","0.0"],
    [1402456,"2026-03-09 01:30:00","40036","1.127","278.8","2.45","295.4","1021.181","10.33","91.5","-1.3090000000000002","0.0"],
    [1402457,"2026-03-09 01:40:00","40037","1.145","272.6","2.221","272.6","1021.048","10.44","91.3","-1.3119999999999998","0.0"],
    [1402458,"2026-03-09 01:50:00","40038","0.9359999999999999","289.2","1.731","288","1020.949","10.5","91.3","-1.319","0.0"],
    [1402459,"2026-03-09 02:00:00","40039","1.185","297.2","1.927","310.3","1020.831","10.54","91.1","-1.396","0.0"],
    [1402460,"2026-03-09 02:10:00","40040","1.319","303.3","2.254","312.3","1020.643","10.57","90.8","-1.556","0.0"],
    [1402461,"2026-03-09 02:20:00","40041","0.93","294.2","1.797","284.4","1020.5189999999999","10.6","90.5","-1.672","0.0"],
    [1402462,"2026-03-09 02:30:00","40042","1.463","276.0","2.123","281.8","1020.3989999999999","10.64","90.2","-1.72","0.0"],
    [1402463,"2026-03-09 02:40:00","40043","1.724","277.2","2.417","274.7","1020.2080000000001","10.59","89.9","-1.587","0.0"],
    [1402464,"2026-03-09 02:50:00","40044","1.588","284.7","2.548","290.5","1020.1560000000001","10.44","89.9","-1.8259999999999998","0.0"],
    [1402465,"2026-03-09 03:00:00","40045","1.6440000000000001","289.7","3.267","281.9","1020.051","10.3","90.1","-2.028","0.0"],
    [1402466,"2026-03-09 03:10:00","40046","1.719","282.3","2.679","281.3","1019.9830000000001","10.23","89.9","-2.103","0.0"],
    [1402467,"2026-03-09 03:20:00","40047","2.043","286.4","3.332","282.6","1019.8639999999999","10.16","89.6","-2.4","0.0"],
    [1402468,"2026-03-09 03:30:00","40048","1.931","280.7","3.365","279.8","1019.835","10.1","89.1","-2.076","0.0"],
    [1402469,"2026-03-09 03:40:00","40049","2.2769999999999997","288.4","3.43","302.5","1019.8330000000001","10.1","88.7","-2.013","0.0"],
    [1402470,"2026-03-09 03:50:00","40050","2.521","293.9","3.691","298.1","1019.834","10.12","87.8","-2.063","0.0"],
    [1402471,"2026-03-09 04:00:00","40051","2.506","292.4","4.41","297.7","1019.793","10.1","86.9","-2.625","0.0"],
    [1402472,"2026-03-09 04:10:00","40052","2.24","294.1","3.593","301.6","1019.7339999999999","10.0","86.6","-2.76","0.0"],
    [1402473,"2026-03-09 04:20:00","40053","1.9869999999999999","297.6","3.365","322.9","1019.753","9.97","86.3","-2.761","0.0"],
    [1402474,"2026-03-09 04:30:00","40054","2.253","300.0","3.561","312.5","1019.7769999999999","10.11","85.6","-2.7310000000000003","0.0"],
    [1402475,"2026-03-09 04:40:00","40055","2.0","297.5","3.267","304.3","1019.82","10.32","84.6","-2.148","0.0"],
    [1402476,"2026-03-09 04:50:00","40056","1.635","291.1","3.365","303","1019.867","10.42","84.2","-1.38","0.0"],
    [1402477,"2026-03-09 05:00:00","40057","1.389","305.9","2.548","312.5","1019.8389999999999","10.4","84.6","-1.6380000000000001","0.0"],
    [1402478,"2026-03-09 05:10:00","40058","1.0979999999999999","300.0","1.895","313.1","1019.817","10.4","84.3","-2.023","0.0"],
    [1402479,"2026-03-09 05:20:00","40059","1.165","288.5","2.025","280.6","1019.8589999999999","10.25","84.7","-2.195","0.0"],
    [1402480,"2026-03-09 05:30:00","40060","1.236","282.7","2.156","288.6","1019.908","9.96","85.7","-2.167","0.0"],
    [1402481,"2026-03-09 05:40:00","40061","1.288","275.8","2.515","270.6","1019.903","9.66","87.1","-2.589","0.0"],
    [1402482,"2026-03-09 05:50:00","40062","1.743","282.2","2.385","292.3","1019.8760000000001","9.52","87.9","-2.204","0.0"],
    [1402483,"2026-03-09 06:00:00","40063","1.6869999999999998","286.0","2.581","282.4","1019.836","9.3","88.7","-2.03","0.0"],
    [1402484,"2026-03-09 06:10:00","40064","1.4240000000000002","277.0","2.254","290.2","1019.888","9.22","89.1","-1.127","0.0"],
    [1402485,"2026-03-09 06:20:00","40065","1.15","271.8","1.96","292.5","1019.913","9.15","89.1","1.217","0.0"],
    [1402486,"2026-03-09 06:30:00","40066","1.485","278.2","2.581","280.7","1019.96","9.03","89.3","6.322","0.0"],
    [1402487,"2026-03-09 06:40:00","40067","1.655","263.7","2.613","264.3","1020.0039999999999","9.1","89.2","15.04","0.0"],
    [1402488,"2026-03-09 06:50:00","40068","1.548","275.7","2.777","290.9","1020.0419999999999","9.02","89.4","29.95","0.0"],
    [1402489,"2026-03-09 07:00:00","40069","2.182","291.4","3.659","307","1020.081","9.21","89.4","48.19","0.0"],
    [1402490,"2026-03-09 07:10:00","40070","2.158","297.8","3.463","301.6","1020.182","9.59","88.2","63.69","0.0"],
    [1402491,"2026-03-09 07:20:00","40071","2.095","287.3","3.495","317.1","1020.25","9.88","86.0","77.55","0.0"],
    [1402492,"2026-03-09 07:30:00","40072","2.117","288.6","3.789","289.4","1020.22","10.05","84.7","103.2","0.0"],
    [1402493,"2026-03-09 07:40:00","40073","1.83","288.1","2.94","282.1","1020.175","10.25","84.1","129.8","0.0"],
    [1402494,"2026-03-09 07:50:00","40074","2.2840000000000003","283.7","3.985","294.8","1020.182","10.44","82.7","125.3","0.0"],
    [1402495,"2026-03-09 08:00:00","40075","2.224","287.0","3.724","282.2","1020.2339999999999","10.57","82.0","125.1","0.0"],
    [1402496,"2026-03-09 08:10:00","40076","2.427","290.3","3.822","291.7","1020.299","10.65","81.3","136.5","0.0"],
    [1402497,"2026-03-09 08:20:00","40077","2.419","298.0","3.887","303.1","1020.393","10.75","81.0","146.8","0.0"],
    [1402498,"2026-03-09 08:30:00","40078","2.03","302.0","3.299","317.3","1020.447","10.92","80.1","182.9","0.0"],
    [1402499,"2026-03-09 08:40:00","40079","1.5590000000000002","303.2","2.744","307","1020.4010000000001","11.46","78.32","267.2","0.0"],
    [1402500,"2026-03-09 08:50:00","40080","1.215","300.5","1.764","287.4","1020.456","12.01","75.59","290.3","0.0"],
    [1402501,"2026-03-09 09:00:00","40081","0.462","319.9","1.143","299.7","1020.513","12.52","74.32","346.8","0.0"],
    [1402502,"2026-03-09 09:10:00","40082","0.209","49.63","1.143","77.18","1020.498","13.24","72.96","388.8","0.0"],
    [1402503,"2026-03-09 09:20:00","40083","0.8420000000000001","86.3","1.601","74.54","1020.418","13.52","73.35","374.5","0.0"],
    [1402504,"2026-03-09 09:30:00","40084","1.129","101.6","3.267","128.9","1020.404","13.33","73.42","364.5","0.0"],
    [1402505,"2026-03-09 09:40:00","40085","0.892","101.8","1.764","90.9","1020.3860000000001","13.48","74.33","337.9","0.0"],
    [1402506,"2026-03-09 09:50:00","40086","0.353","151.2","1.307","136.9","1020.4","13.83","73.72","412.2","0.0"],
    [1402507,"2026-03-09 10:00:00","40087","0.672","172.1","1.405","204.2","1020.382","14.55","70.43","601.2","0.0"],
    [1402508,"2026-03-09 10:10:00","40088","1.265","214.7","2.123","214.4","1020.382","15.08","67.79","666.6","0.0"],
    [1402509,"2026-03-09 10:20:00","40089","1.058","218.8","2.483","197.9","1020.3760000000001","15.1","66.2","582.0","0.0"],
    [1402510,"2026-03-09 10:30:00","40090","0.885","177.5","2.189","138.9","1020.296","15.01","65.33","344.3","0.0"],
    [1402511,"2026-03-09 10:40:00","40091","1.3769999999999998","139.3","3.528","169.8","1020.2539999999999","14.64","66.28","358.3","0.0"],
    [1402512,"2026-03-09 10:50:00","40092","1.422","123.1","4.998","97.3","1020.187","14.5","66.47","482.8","0.0"],
    [1402513,"2026-03-09 11:00:00","40093","2.126","179.0","5.586","227.8","1020.15","14.76","65.16","479.9","0.0"],
    [1402514,"2026-03-09 11:10:00","40094","2.112","185.9","3.757","190.4","1020.095","15.0","64.17","601.3","0.0"],
    [1402515,"2026-03-09 11:20:00","40095","2.4330000000000003","199.1","3.855","225.6","1019.9639999999999","15.39","63.43","700.6","0.0"],
    [1402516,"2026-03-09 11:30:00","40096","2.656","183.1","4.345","174.8","1019.819","15.4","63.94","770.9","0.0"],
    [1402517,"2026-03-09 11:40:00","40097","2.605","198.1","4.377","190.7","1019.6669999999999","15.61","63.29","765.7","0.0"],
    [1402518,"2026-03-09 11:50:00","40098","2.819","205.7","6.566","196.7","1019.56","15.78","63.22","752.9","0.0"],
    [1402519,"2026-03-09 12:00:00","40099","2.6910000000000003","200.5","5.325","212.9","1019.448","15.67","63.52","744.7","0.0"],
    [1402520,"2026-03-09 12:10:00","40100","2.948","203.3","6.305","203.7","1019.245","15.52","63.39","742.7","0.0"],
    [1402521,"2026-03-09 12:20:00","40101","3.076","204.3","4.737","225.9","1019.073","15.45","63.97","741.7","0.0"],
    [1402522,"2026-03-09 12:30:00","40102","3.035","185.3","7.644","181.9","1018.9580000000001","15.61","64.28","738.8","0.0"],
    [1402523,"2026-03-09 12:40:00","40103","2.944","194.6","5.749","215.2","1018.887","15.73","64.92","735.1","0.0"],
    [1402524,"2026-03-09 12:50:00","40104","3.133","191.3","5.684","213.1","1018.885","15.45","65.87","735.4","0.0"],
    [1402525,"2026-03-09 13:00:00","40105","3.0860000000000003","206.3","5.227","204.9","1018.793","15.73","65.88","730.4","0.0"],
    [1402526,"2026-03-09 13:10:00","40106","3.443","204.6","6.043","217.7","1018.674","15.91","66.33","721.0","0.0"],
    [1402527,"2026-03-09 13:20:00","40107","2.958","190.0","5.521","177.4","1018.575","15.64","67.65","712.2","0.0"],
    [1402528,"2026-03-09 13:30:00","40108","3.4160000000000004","204.0","5.815","218.9","1018.595","15.59","68.68","701.9","0.0"],
    [1402529,"2026-03-09 13:40:00","40109","3.34","197.6","5.619","176.3","1018.541","15.64","67.9","699.1","0.0"],
    [1402530,"2026-03-09 13:50:00","40110","3.0380000000000003","195.7","5.423","178","1018.4689999999999","15.68","68.59","695.4","0.0"],
    [1402531,"2026-03-09 14:00:00","40111","3.283","191.4","5.651","230.3","1018.5039999999999","15.45","68.3","677.1","0.0"],
    [1402532,"2026-03-09 14:10:00","40112","3.307","189.4","5.194","180.4","1018.46","15.43","68.31","654.5","0.0"],
    [1402533,"2026-03-09 14:20:00","40113","3.022","184.0","4.835","162.9","1018.436","15.35","69.75","623.9","0.0"],
    [1402534,"2026-03-09 14:30:00","40114","2.611","192.7","4.345","195","1018.441","15.56","68.0","597.7","0.0"],
    [1402535,"2026-03-09 14:40:00","40115","2.362","199.1","4.083","232.8","1018.383","15.72","66.71","565.0","0.0"],
    [1402536,"2026-03-09 14:50:00","40116","2.656","204.2","4.802","171.2","1018.33","15.77","65.68","537.2","0.0"],
    [1402537,"2026-03-09 15:00:00","40117","3.037","190.7","5.031","217.3","1018.298","15.42","67.43","508.6","0.0"],
    [1402538,"2026-03-09 15:10:00","40118","3.07","206.4","5.292","180.3","1018.22","15.51","67.85","479.0","0.0"],
    [1402539,"2026-03-09 15:20:00","40119","2.687","196.3","4.802","177.5","1018.189","15.38","69.34","447.5","0.0"],
    [1402540,"2026-03-09 15:30:00","40120","3.063","208.1","5.88","195","1018.257","15.21","69.15","397.4","0.0"],
    [1402541,"2026-03-09 15:40:00","40121","2.727","208.3","5.194","187","1018.262","15.03","70.89","299.4","0.0"],
    [1402542,"2026-03-09 15:50:00","40122","3.6660000000000004","206.6","6.305","184.7","1018.245","14.87","71.6","329.8","0.0"],
    [1402543,"2026-03-09 16:00:00","40123","3.347","209.9","5.815","213.5","1018.194","15.02","71.0","326.4","0.0"],
    [1402544,"2026-03-09 16:10:00","40124","3.423","211.8","5.749","218.8","1018.21","15.07","70.71","280.2","0.0"],
    [1402545,"2026-03-09 16:20:00","40125","3.2439999999999998","212.6","6.925","218.3","1018.148","14.64","72.4","122.5","0.0"],
    [1402546,"2026-03-09 16:30:00","40126","2.195","206.9","5.031","198.8","1018.096","14.35","73.69","79.99","0.0"],
    [1402547,"2026-03-09 16:40:00","40127","2.455","205.8","5.782","234.2","1018.105","14.12","73.58","54.07","0.0"],
    [1402548,"2026-03-09 16:50:00","40128","2.763","218.4","4.769","215.5","1018.095","14.0","74.34","42.54","0.0"],
    [1402549,"2026-03-09 17:00:00","40129","3.016","221.7","5.913","214.2","1018.15","13.89","75.01","54.2","0.0"],
    [1402550,"2026-03-09 17:10:00","40130","2.832","212.9","6.533","226","1018.198","13.86","75.89","34.94","0.0"],
    [1402551,"2026-03-09 17:20:00","40131","2.557","211.8","5.325","226.3","1018.207","13.79","76.94","27.64","0.0"],
    [1402552,"2026-03-09 17:30:00","40132","2.713","208.7","8.1","208.4","1018.1560000000001","13.67","76.81","16.14","0.0"],
    [1402553,"2026-03-09 17:40:00","40133","1.7930000000000001","205.7","3.593","164.4","1017.951","13.46","78.03","8.21","0.0"],
    [1402554,"2026-03-09 17:50:00","40134","1.882","207.0","3.855","199.7","1017.957","13.33","78.48","2.935","0.0"],
    [1402555,"2026-03-09 18:00:00","40135","1.7519999999999998","199.8","4.345","223.5","1017.954","13.29","78.66","-0.368","0.0"],
    [1402556,"2026-03-09 18:10:00","40136","1.8619999999999999","196.4","5.945","252.8","1017.982","13.14","79.85","-2.39","0.0"],
    [1402557,"2026-03-09 18:20:00","40137","1.9280000000000002","212.5","5.129","241.7","1018.07","13.08","80.0","-2.7680000000000002","0.0"],
    [1402558,"2026-03-09 18:30:00","40138","1.401","205.6","3.201","233.1","1018.199","13.02","80.3","-2.8989999999999996","0.0"],
    [1402559,"2026-03-09 18:40:00","40139","2.8569999999999998","214.0","6.043","185.6","1018.313","13.04","80.3","-2.826","0.0"],
    [1402560,"2026-03-09 18:50:00","40140","3.0039999999999996","218.4","6.109","223.3","1018.446","13.13","79.5","-2.761","0.0"],
    [1402561,"2026-03-09 19:00:00","40141","2.1430000000000002","227.6","3.43","231.3","1018.451","13.12","78.15","-2.761","0.0"],
    [1402562,"2026-03-09 19:10:00","40142","0.836","242.7","1.895","217.7","1018.449","12.85","77.72","-2.7710000000000004","0.0"],
    [1402563,"2026-03-09 19:20:00","40143","0.733","250.0","1.568","260.9","1018.482","12.63","78.05","-2.898","0.0"],
    [1402564,"2026-03-09 19:30:00","40144","1.078","236.7","1.699","231.8","1018.559","12.45","78.42","-2.786","0.0"],
    [1402565,"2026-03-09 19:40:00","40145","1.13","233.7","1.862","219.1","1018.6239999999999","12.38","77.94","-2.772","0.0"],
    [1402566,"2026-03-09 19:50:00","40146","0.99","252.1","1.699","272.2","1018.689","12.42","77.46","-2.7739999999999996","0.0"],
    [1402567,"2026-03-09 20:00:00","40147","0.953","250.5","1.666","240.6","1018.7869999999999","12.21","79.08","-2.762","0.0"],
    [1402568,"2026-03-09 20:10:00","40148","0.997","241.0","1.372","243.9","1018.888","12.33","79.45","-2.762","0.0"],
    [1402569,"2026-03-09 20:20:00","40149","0.49","249.2","1.437","243.1","1018.928","12.21","80.6","-2.761","0.0"],
    [1402570,"2026-03-09 20:30:00","40150","0.723","256.2","1.339","271.9","1019.0169999999999","11.85","82.6","-2.892","0.0"],
    [1402571,"2026-03-09 20:40:00","40151","0.8640000000000001","252.1","1.372","268.8","1019.133","11.78","84.0","-2.761","0.0"],
    [1402572,"2026-03-09 20:50:00","40152","0.36","247.4","0.849","235.1","1019.183","11.51","84.7","-2.761","0.0"],
    [1402573,"2026-03-09 21:00:00","40153","0.6829999999999999","268.2","1.731","267.9","1019.258","11.27","86.0","-2.759","0.0"],
    [1402574,"2026-03-09 21:10:00","40154","0.9","271.5","1.601","271.5","1019.332","11.23","86.8","-2.693","0.0"],
    [1402575,"2026-03-09 21:20:00","40155","0.9109999999999999","276.6","1.209","271.1","1019.2810000000001","11.09","87.3","-2.7569999999999997","0.0"],
    [1402576,"2026-03-09 21:30:00","40156","0.23199999999999998","279.0","1.045","261.3","1019.311","10.99","87.5","-2.758","0.0"],
    [1402577,"2026-03-09 21:40:00","40157","0.24","292.7","0.751","289.9","1019.3580000000001","10.84","87.9","-2.755","0.0"],
    [1402578,"2026-03-09 21:50:00","40158","0.5489999999999999","296.5","1.405","298.5","1019.32","10.72","88.5","-2.7489999999999997","0.0"],
    [1402579,"2026-03-09 22:00:00","40159","0.653","300.4","1.078","289.2","1019.29","10.78","88.4","-2.7289999999999996","0.0"],
    [1402580,"2026-03-09 22:10:00","40160","0.846","317.0","1.568","322.4","1019.262","10.7","88.1","-2.702","0.0"],
    [1402581,"2026-03-09 22:20:00","40161","0.863","313.9","1.437","319","1019.2489999999999","10.73","88.3","-2.722","0.0"],
    [1402582,"2026-03-09 22:30:00","40162","0.9179999999999999","295.8","1.241","296.2","1019.2589999999999","10.85","87.7","-2.7539999999999996","0.0"],
    [1402583,"2026-03-09 22:40:00","40163","1.107","268.9","1.797","270.8","1019.2669999999999","10.78","87.4","-2.76","0.0"],
    [1402584,"2026-03-09 22:50:00","40164","1.253","267.2","2.189","272.2","1019.25","10.74","86.9","-2.76","0.0"],
    [1402585,"2026-03-09 23:00:00","40165","0.8859999999999999","274.1","1.437","269","1019.123","10.38","86.7","-2.761","0.0"],
    [1402586,"2026-03-09 23:10:00","40166","1.0859999999999999","265.9","1.993","277.2","1019.1060000000001","10.28","87.2","-2.77","0.0"],
    [1402587,"2026-03-09 23:20:00","40167","1.2819999999999998","277.7","1.993","280.3","1019.1310000000001","10.17","86.8","-2.761","0.0"],
    [1402588,"2026-03-09 23:30:00","40168","1.7069999999999999","277.9","2.613","278.1","1019.0880000000001","9.76","88.0","-2.761","0.0"],
    [1402589,"2026-03-09 23:40:00","40169","1.5519999999999998","267.7","2.483","272.5","1019.096","9.86","89.0","-2.7560000000000002","0.0"],
    [1402590,"2026-03-09 23:50:00","40170","1.238","279.8","2.189","280.4","1019.0980000000001","9.84","89.3","-2.7489999999999997","0.0"],
    [1402591,"2026-03-10 00:00:00","40171","0.76","288.4","1.437","288.3","1019.034","9.53","89.6","-2.761","0.0"],
    [1402592,"2026-03-10 00:10:00","40172","0.9159999999999999","291.6","1.633","297.9","1018.9960000000001","9.45","90.3","-2.761","0.0"],
    [1402593,"2026-03-10 00:20:00","40173","0.94","294.5","1.862","270.1","1019.0089999999999","9.49","90.7","-2.762","0.0"],
    [1402594,"2026-03-10 00:30:00","40174","1.034","292.8","1.862","286.9","1019.0360000000001","9.67","90.7","-2.758","0.0"],
    [1402595,"2026-03-10 00:40:00","40175","1.08","283.4","1.731","273.4","1019.1160000000001","9.67","90.6","-2.762","0.0"],
    [1402596,"2026-03-10 00:50:00","40176","0.7829999999999999","291.9","1.96","300.3","1019.0980000000001","9.55","90.2","-2.742","0.0"],
    [1402597,"2026-03-10 01:00:00","40177","1.239","293.8","3.005","307","1019.085","9.45","90.6","-2.763","0.0"],
    [1402598,"2026-03-10 01:10:00","40178","1.122","297.4","2.091","304.1","1019.062","9.39","90.5","-2.761","0.0"],
    [1402599,"2026-03-10 01:20:00","40179","0.94","289.7","2.254","317.7","1018.962","9.4","90.5","-2.765","0.0"],
    [1402600,"2026-03-10 01:30:00","40180","0.9440000000000001","290.8","1.568","293.6","1018.9060000000001","9.44","90.1","-2.764","0.0"],
    [1402601,"2026-03-10 01:40:00","40181","1.005","288.7","1.764","304.5","1018.873","9.28","90.1","-2.765","0.0"],
    [1402602,"2026-03-10 01:50:00","40182","1.0959999999999999","289.7","1.993","309.1","1018.825","9.28","90.4","-2.764","0.0"],
    [1402603,"2026-03-10 02:00:00","40183","1.2570000000000001","270.7","2.091","274.2","1018.77","9.3","90.7","-2.7460000000000004","0.0"],
    [1402604,"2026-03-10 02:10:00","40184","1.136","263.0","2.091","284.2","1018.758","9.1","90.6","-2.6639999999999997","0.0"],
    [1402605,"2026-03-10 02:20:00","40185","1.307","267.5","2.254","271.1","1018.757","8.89","91.2","-2.763","0.0"],
    [1402606,"2026-03-10 02:30:00","40186","2.089","274.1","2.613","281.4","1018.7389999999999","8.89","92.0","-2.432","0.0"],
    [1402607,"2026-03-10 02:40:00","40187","2.195","279.8","2.711","283.8","1018.701","8.68","92.8","-2.031","0.0"],
    [1402608,"2026-03-10 02:50:00","40188","1.3030000000000002","279.1","1.797","274.6","1018.685","8.58","93.2","-2.218","0.0"],
    [1402609,"2026-03-10 03:00:00","40189","1.527","282.0","2.515","281.6","1018.6080000000001","8.51","93.4","-2.487","0.0"],
    [1402610,"2026-03-10 03:10:00","40190","1.2790000000000001","287.0","2.123","272.3","1018.5360000000001","8.56","93.5","-2.174","0.0"],
    [1402611,"2026-03-10 03:20:00","40191","1.182","285.1","1.829","282.6","1018.4939999999999","8.55","93.8","-2.5860000000000003","0.0"],
    [1402612,"2026-03-10 03:30:00","40192","1.2309999999999999","287.1","2.123","275.9","1018.4960000000001","8.57","93.8","-2.54","0.0"],
    [1402613,"2026-03-10 03:40:00","40193","1.175","281.9","1.96","291.7","1018.564","8.69","94.0","-2.596","0.0"],
    [1402614,"2026-03-10 03:50:00","40194","1.454","273.2","2.385","261.9","1018.645","8.81","94.0","-2.3680000000000003","0.0"],
    [1402615,"2026-03-10 04:00:00","40195","1.768","277.8","2.581","288.1","1018.693","8.76","93.8","-2.08","0.0"],
    [1402616,"2026-03-10 04:10:00","40196","1.556","276.1","2.189","267.6","1018.7389999999999","8.65","93.9","-2.068","0.0"],
    [1402617,"2026-03-10 04:20:00","40197","1.8130000000000002","280.0","2.45","279.4","1018.7539999999999","8.59","94.1","-2.059","0.0"],
    [1402618,"2026-03-10 04:30:00","40198","1.195","286.5","2.091","277.6","1018.735","8.45","94.2","-2.084","0.0"],
    [1402619,"2026-03-10 04:40:00","40199","1.194","293.0","2.058","300.1","1018.702","8.39","94.2","-2.354","0.0"],
    [1402620,"2026-03-10 04:50:00","40200","1.429","297.3","2.94","310.5","1018.682","8.42","94.4","-2.605","0.0"],
    [1402621,"2026-03-10 05:00:00","40201","1.483","291.6","2.287","294.5","1018.6560000000001","8.51","94.4","-2.449","0.0"],
    [1402622,"2026-03-10 05:10:00","40202","1.27","287.0","2.025","292.1","1018.669","8.47","94.3","-2.233","0.0"],
    [1402623,"2026-03-10 05:20:00","40203","1.629","281.1","2.45","284.1","1018.71","8.39","94.3","-2.313","0.0"],
    [1402624,"2026-03-10 05:30:00","40204","1.932","274.6","2.679","280","1018.819","8.35","94.3","-2.04","0.0"],
    [1402625,"2026-03-10 05:40:00","40205","1.8330000000000002","282.4","2.875","296","1018.8739999999999","8.16","94.3","-2.037","0.0"],
    [1402626,"2026-03-10 05:50:00","40206","1.6980000000000002","292.8","2.907","315","1018.862","8.08","94.4","-2.272","0.0"],
    [1402627,"2026-03-10 06:00:00","40207","1.625","289.2","2.45","283.8","1018.8989999999999","8.2","94.2","-1.955","0.0"],
    [1402628,"2026-03-10 06:10:00","40208","1.156","288.2","1.862","281.6","1018.857","8.21","94.0","-0.5","0.0"],
    [1402629,"2026-03-10 06:20:00","40209","0.601","267.9","1.274","291","1018.82","8.27","93.7","4.886","0.0"],
    [1402630,"2026-03-10 06:30:00","40210","1.224","295.1","1.862","299.4","1018.822","8.25","93.5","17.32","0.0"],
    [1402631,"2026-03-10 06:40:00","40211","1.47","291.3","2.45","298.2","1018.885","8.29","93.4","46.08","0.0"],
    [1402632,"2026-03-10 06:50:00","40212","1.399","293.2","2.189","296.6","1018.9910000000001","8.54","93.1","81.3","0.0"],
    [1402633,"2026-03-10 07:00:00","40213","1.5319999999999998","289.7","2.058","302.2","1019.038","8.82","92.6","106.7","0.0"],
    [1402634,"2026-03-10 07:10:00","40214","1.3769999999999998","293.2","2.319","298.5","1019.168","9.18","91.7","95.6","0.0"],
    [1402635,"2026-03-10 07:20:00","40215","1.901","290.9","3.365","305.1","1019.2410000000001","9.51","90.2","94.3","0.0"],
    [1402636,"2026-03-10 07:30:00","40216","2.311","287.0","3.528","284.6","1019.317","9.5","89.1","117.3","0.0"],
    [1402637,"2026-03-10 07:40:00","40217","1.966","292.9","3.005","301.6","1019.415","9.69","88.8","142.7","0.0"],
    [1402638,"2026-03-10 07:50:00","40218","2.096","293.2","3.103","299","1019.451","9.91","87.6","168.9","0.0"],
    [1402639,"2026-03-10 08:00:00","40219","1.9980000000000002","294.7","3.038","292.7","1019.546","10.3","86.3","210.2","0.0"],
    [1402640,"2026-03-10 08:10:00","40220","2.716","311.1","3.626","311.4","1019.6010000000001","10.73","84.1","257.8","0.0"],
    [1402641,"2026-03-10 08:20:00","40221","2.42","305.2","3.365","305.2","1019.6610000000001","11.14","82.0","286.2","0.0"],
    [1402642,"2026-03-10 08:30:00","40222","2.436","309.1","3.169","308.2","1019.76","11.59","79.71","318.4","0.0"],
    [1402643,"2026-03-10 08:40:00","40223","2.414","304.5","3.103","313.6","1019.868","12.05","77.97","353.8","0.0"],
    [1402644,"2026-03-10 08:50:00","40224","1.891","295.9","2.94","290.7","1019.972","12.61","75.83","404.7","0.0"],
    [1402645,"2026-03-10 09:00:00","40225","1.6030000000000002","293.3","2.679","293.6","1020.044","12.81","74.48","372.9","0.0"],
    [1402646,"2026-03-10 09:10:00","40226","0.953","314.7","1.797","310.9","1020.13","13.25","74.01","456.7","0.0"],
    [1402647,"2026-03-10 09:20:00","40227","0.7829999999999999","316.6","1.633","320.6","1020.193","13.61","71.94","514.1","0.0"],
    [1402648,"2026-03-10 09:30:00","40228","0.3","131.8","0.98","134.3","1020.15","14.09","71.0","501.6","0.0"],
    [1402649,"2026-03-10 09:40:00","40229","0.872","97.2","2.548","85.7","1020.1419999999999","14.55","69.65","528.7","0.0"],
    [1402650,"2026-03-10 09:50:00","40230","1.725","99.3","2.875","82.1","1020.212","14.31","70.12","599.6","0.0"],
    [1402651,"2026-03-10 10:00:00","40231","1.83","96.9","3.299","81.9","1020.27","14.35","69.2","594.9","0.0"],
    [1402652,"2026-03-10 10:10:00","40232","1.725","98.6","3.561","107.7","1020.336","14.69","67.59","605.6","0.0"],
    [1402653,"2026-03-10 10:20:00","40233","1.921","103.4","4.149","104.4","1020.393","14.71","67.09","631.4","0.0"],
    [1402654,"2026-03-10 10:30:00","40234","2.481","89.4","3.495","87.2","1020.4780000000001","14.47","69.28","668.4","0.0"],
    [1402655,"2026-03-10 10:40:00","40235","2.294","98.5","3.822","133.3","1020.4810000000001","14.56","68.64","656.3","0.0"],
    [1402656,"2026-03-10 10:50:00","40236","2.937","89.7","5.292","111.5","1020.493","14.55","69.75","667.0","0.0"],
    [1402657,"2026-03-10 11:00:00","40237","2.693","93.4","4.051","80.8","1020.518","14.5","70.86","654.1","0.0"],
    [1402658,"2026-03-10 11:10:00","40238","2.8539999999999996","95.1","3.92","105.9","1020.53","14.37","71.24","614.9","0.0"],
    [1402659,"2026-03-10 11:20:00","40239","2.799","96.7","3.92","96.2","1020.55","14.38","71.2","645.7","0.0"],
    [1402660,"2026-03-10 11:30:00","40240","2.505","93.6","3.92","96.2","1020.592","14.62","71.76","609.7","0.0"],
    [1402661,"2026-03-10 11:40:00","40241","2.845","92.6","4.181","83.8","1020.67","14.62","71.18","627.5","0.0"],
    [1402662,"2026-03-10 11:50:00","40242","2.8560000000000003","89.0","4.802","86.6","1020.743","14.62","72.9","519.7","0.0"],
    [1402663,"2026-03-10 12:00:00","40243","2.803","91.7","6.207","123.7","1020.7869999999999","14.48","72.78","522.2","0.0"],
    [1402664,"2026-03-10 12:10:00","40244","2.741","87.7","5.292","92.1","1020.7669999999999","14.54","72.99","565.6","0.0"],
    [1402665,"2026-03-10 12:20:00","40245","2.688","83.2","5.325","84.7","1020.73","14.7","71.89","584.0","0.0"],
    [1402666,"2026-03-10 12:30:00","40246","2.9930000000000003","86.6","5.945","85.9","1020.654","14.35","72.33","466.5","0.0"],
    [1402667,"2026-03-10 12:40:00","40247","3.0580000000000003","90.8","4.312","87","1020.577","14.19","73.35","396.0","0.0"],
    [1402668,"2026-03-10 12:50:00","40248","2.846","87.4","4.247","85.8","1020.495","14.3","74.56","504.4","0.0"],
    [1402669,"2026-03-10 13:00:00","40249","2.7110000000000003","86.1","3.953","86","1020.393","14.65","75.35","502.2","0.0"],
    [1402670,"2026-03-10 13:10:00","40250","3.06","87.6","4.965","74.7","1020.296","14.46","75.08","499.6","0.0"],
    [1402671,"2026-03-10 13:20:00","40251","2.76","84.1","5.913","71.24","1020.273","14.39","75.43","439.9","0.0"],
    [1402672,"2026-03-10 13:30:00","40252","2.659","94.2","4.149","76.78","1020.303","14.32","74.56","454.2","0.0"],
    [1402673,"2026-03-10 13:40:00","40253","2.356","95.1","5.325","105.5","1020.22","14.36","76.02","512.6","0.0"],
    [1402674,"2026-03-10 13:50:00","40254","2.5580000000000003","86.0","4.051","88.4","1020.24","14.58","75.52","574.3","0.0"],
    [1402675,"2026-03-10 14:00:00","40255","2.911","85.3","4.704","75.81","1020.187","14.85","74.91","641.4","0.0"],
    [1402676,"2026-03-10 14:10:00","40256","2.96","80.1","4.279","66.37","1020.148","14.97","74.12","663.4","0.0"],
    [1402677,"2026-03-10 14:20:00","40257","3.045","73.9","4.835","87.2","1020.1160000000001","15.06","74.2","633.8","0.0"],
    [1402678,"2026-03-10 14:30:00","40258","3.18","84.6","5.586","113.1","1020.1439999999999","14.85","74.65","599.8","0.0"],
    [1402679,"2026-03-10 14:40:00","40259","2.6519999999999997","87.2","3.822","95.4","1020.13","14.7","74.82","455.1","0.0"],
    [1402680,"2026-03-10 14:50:00","40260","3.045","91.4","6.762","100.3","1020.086","14.42","75.68","346.9","0.0"],
    [1402681,"2026-03-10 15:00:00","40261","2.717","94.9","4.737","104","1020.005","14.41","76.27","469.3","0.0"],
    [1402682,"2026-03-10 15:10:00","40262","3.2489999999999997","86.9","4.704","88.6","1019.957","14.69","75.51","484.7","0.0"],
    [1402683,"2026-03-10 15:20:00","40263","3.031","78.57","4.933","70.9","1019.918","14.63","75.78","420.6","0.0"],
    [1402684,"2026-03-10 15:30:00","40264","3.089","75.91","4.737","64.04","1019.904","14.61","76.09","425.2","0.0"],
    [1402685,"2026-03-10 15:40:00","40265","2.522","88.3","3.724","78.57","1019.845","14.61","74.97","386.8","0.0"],
    [1402686,"2026-03-10 15:50:00","40266","2.943","68.12","4.181","86.9","1019.8689999999999","14.59","74.99","362.8","0.0"],
    [1402687,"2026-03-10 16:00:00","40267","2.992","73.68","4.704","81.6","1019.8530000000001","14.54","74.92","328.4","0.0"],
    [1402688,"2026-03-10 16:10:00","40268","3.043","76.12","4.475","72.71","1019.82","14.43","74.48","291.0","0.0"],
    [1402689,"2026-03-10 16:20:00","40269","3.29","84.6","6.174","75.26","1019.791","14.29","75.42","253.4","0.0"],
    [1402690,"2026-03-10 16:30:00","40270","3.15","75.89","4.704","88.2","1019.778","14.16","76.45","219.6","0.0"],
    [1402691,"2026-03-10 16:40:00","40271","2.998","71.2","4.443","78.67","1019.807","14.18","76.67","190.0","0.0"],
    [1402692,"2026-03-10 16:50:00","40272","3.1719999999999997","76.51","4.737","66.52","1019.852","14.05","76.46","156.4","0.0"],
    [1402693,"2026-03-10 17:00:00","40273","2.832","78.08","4.443","57.24","1019.922","14.08","76.38","135.1","0.0"],
    [1402694,"2026-03-10 17:10:00","40274","2.551","88.4","3.691","81.6","1019.941","13.89","76.81","65.26","0.0"],
    [1402695,"2026-03-10 17:20:00","40275","3.174","72.89","4.965","59.71","1020.075","13.73","77.18","35.61","0.0"],
    [1402696,"2026-03-10 17:30:00","40276","2.918","81.0","4.965","68.08","1020.2130000000001","13.7","76.65","26.94","0.0"],
    [1402697,"2026-03-10 17:40:00","40277","2.6319999999999997","79.52","5.161","74.83","1020.311","13.59","76.44","17.84","0.0"],
    [1402698,"2026-03-10 17:50:00","40278","2.696","75.8","4.769","68.74","1020.4689999999999","13.55","76.38","7.5729999999999995","0.0"],
    [1402699,"2026-03-10 18:00:00","40279","2.7680000000000002","70.31","4.149","90.4","1020.6039999999999","13.48","77.14","1.058","0.0"],
    [1402700,"2026-03-10 18:10:00","40280","2.8760000000000003","72.5","4.933","85.4","1020.703","13.4","78.01","-1.61","0.0"],
    [1402701,"2026-03-10 18:20:00","40281","2.7039999999999997","63.25","4.018","57.71","1020.829","13.34","78.31","-2.7460000000000004","0.0"],
    [1402702,"2026-03-10 18:30:00","40282","2.658","65.45","3.495","70.03","1020.998","13.31","78.38","-2.7489999999999997","0.0"],
    [1402703,"2026-03-10 18:40:00","40283","2.688","65.72","3.724","77.05","1021.1619999999999","13.29","77.6","-2.7569999999999997","0.0"],
    [1402704,"2026-03-10 18:50:00","40284","2.878","68.17","4.018","68.74","1021.334","13.31","78.18","-2.76","0.0"],
    [1402705,"2026-03-10 19:00:00","40285","3.002","69.6","4.181","63.25","1021.5210000000001","13.36","77.91","-2.761","0.0"],
    [1402706,"2026-03-10 19:10:00","40286","2.443","69.22","4.018","70.29","1021.663","13.28","78.62","-2.7569999999999997","0.0"],
    [1402707,"2026-03-10 19:20:00","40287","2.239","68.89","3.855","75.58","1021.7669999999999","13.17","79.42","-2.755","0.0"],
    [1402708,"2026-03-10 19:30:00","40288","2.5","65.76","4.051","76.81","1021.824","13.19","78.9","-2.77","0.0"],
    [1402709,"2026-03-10 19:40:00","40289","2.43","63.56","3.659","86.6","1021.857","13.17","79.21","-2.761","0.0"],
    [1402710,"2026-03-10 19:50:00","40290","2.346","66.24","3.463","82.8","1021.959","13.17","79.2","-2.762","0.0"],
    [1402711,"2026-03-10 20:00:00","40291","2.4290000000000003","56.54","3.593","64.03","1022.071","13.12","78.53","-2.761","0.0"],
    [1402712,"2026-03-10 20:10:00","40292","1.9769999999999999","44.07","3.038","51.75","1022.1310000000001","13.04","78.76","-2.763","0.0"],
    [1402713,"2026-03-10 20:20:00","40293","1.954","45.66","3.038","65.72","1022.275","12.91","78.85","-2.83","0.0"],
    [1402714,"2026-03-10 20:30:00","40294","1.844","50.54","2.809","43.18","1022.3639999999999","12.93","78.85","-2.792","0.0"],
    [1402715,"2026-03-10 20:40:00","40295","1.6019999999999999","59.93","2.45","75.02","1022.459","12.74","80.6","-2.767","0.0"],
    [1402716,"2026-03-10 20:50:00","40296","2.233","49.71","3.267","55.39","1022.5189999999999","12.99","81.9","-2.344","0.0"],
    [1402717,"2026-03-10 21:00:00","40297","1.758","54.48","2.907","44.52","1022.5830000000001","13.13","83.1","-2.016","0.0"],
    [1402718,"2026-03-10 21:10:00","40298","2.562","52.15","3.724","52.13","1022.663","13.2","82.8","-1.9909999999999999","0.0"],
    [1402719,"2026-03-10 21:20:00","40299","2.097","46.1","2.875","42.44","1022.757","13.1","82.5","-2.7","0.0"],
    [1402720,"2026-03-10 21:30:00","40300","1.723","42.86","2.613","46.78","1022.823","12.97","83.0","-2.762","0.0"],
    [1402721,"2026-03-10 21:40:00","40301","2.008","47.8","2.711","45.37","1022.831","12.83","83.6","-2.764","0.0"],
    [1402722,"2026-03-10 21:50:00","40302","1.709","55.63","2.287","57.59","1022.801","12.74","84.0","-2.772","0.0"],
    [1402723,"2026-03-10 22:00:00","40303","1.555","46.76","2.385","52.86","1022.9","12.65","84.5","-2.7939999999999996","0.0"],
    [1402724,"2026-03-10 22:10:00","40304","1.689","42.19","2.646","48.52","1023.0310000000001","12.58","84.9","-2.763","0.0"],
    [1402725,"2026-03-10 22:20:00","40305","1.4780000000000002","37.85","2.091","44.39","1023.057","12.54","84.6","-2.761","0.0"],
    [1402726,"2026-03-10 22:30:00","40306","1.5830000000000002","28.76","2.417","29.62","1023.045","12.43","84.6","-2.762","0.0"],
    [1402727,"2026-03-10 22:40:00","40307","1.4180000000000001","354.8","1.96","344.7","1023.085","12.2","85.1","-2.767","0.0"],
    [1402728,"2026-03-10 22:50:00","40308","1.046","324.1","1.535","314.3","1023.14","11.62","85.1","-2.8560000000000003","0.0"],
    [1402729,"2026-03-10 23:00:00","40309","1.141","334.0","1.666","333.7","1023.1619999999999","11.48","86.5","-2.9010000000000002","0.0"],
    [1402730,"2026-03-10 23:10:00","40310","0.9670000000000001","319.8","1.307","308.3","1023.257","11.4","86.0","-2.762","0.0"],
    [1402731,"2026-03-10 23:20:00","40311","1.127","311.8","1.437","316.3","1023.298","10.93","86.6","-2.767","0.0"],
    [1402732,"2026-03-10 23:30:00","40312","1.0959999999999999","308.7","1.503","316.4","1023.283","10.52","87.1","-2.778","0.0"],
    [1402733,"2026-03-10 23:40:00","40313","0.858","308.7","1.339","308.8","1023.245","10.19","88.2","-2.7710000000000004","0.0"],
    [1402734,"2026-03-10 23:50:00","40314","0.8109999999999999","309.1","1.405","314.8","1023.257","10.23","88.8","-2.766","0.0"],
    [1402735,"2026-03-11 00:00:00","40315","0.779","304.5","1.568","303.8","1023.201","10.14","89.0","-2.765","0.0"],
    [1402736,"2026-03-11 00:10:00","40316","0.414","293.8","1.339","292.9","1023.178","10.18","89.3","-2.7769999999999997","0.0"],
    [1402737,"2026-03-11 00:20:00","40317","0.08800000000000001","294.4","0.621","294.7","1023.1569999999999","10.08","89.1","-2.764","0.0"],
    [1402738,"2026-03-11 00:30:00","40318","0.12","301.1","0.653","302.3","1023.183","10.13","89.8","-2.762","0.0"],
    [1402739,"2026-03-11 00:40:00","40319","0.313","281.8","0.947","276.8","1023.159","10.1","89.3","-2.7260000000000004","0.0"],
    [1402740,"2026-03-11 00:50:00","40320","1.014","279.5","1.764","282.4","1023.1439999999999","9.92","89.4","-2.761","0.0"],
    [1402741,"2026-03-11 01:00:00","40321","0.863","280.8","1.535","271.4","1023.192","9.6","89.8","-2.76","0.0"],
    [1402742,"2026-03-11 01:10:00","40322","0.765","290.2","1.503","292.8","1023.171","9.4","90.1","-2.762","0.0"],
    [1402743,"2026-03-11 01:20:00","40323","1.3459999999999999","304.2","1.927","311.1","1023.068","9.07","90.4","-2.763","0.0"],
    [1402744,"2026-03-11 01:30:00","40324","0.746","299.7","2.058","314.2","1022.982","9.12","91.1","-2.765","0.0"],
    [1402745,"2026-03-11 01:40:00","40325","0.08199999999999999","285.9","0.686","285.5","1022.893","9.27","91.0","-2.763","0.0"],
    [1402746,"2026-03-11 01:50:00","40326","1.054","281.3","1.862","281.1","1022.873","9.2","91.1","-2.7910000000000004","0.0"],
    [1402747,"2026-03-11 02:00:00","40327","1.072","282.5","1.535","284.9","1022.805","9.13","91.0","-2.763","0.0"],
    [1402748,"2026-03-11 02:10:00","40328","1.4080000000000001","283.4","1.862","282.6","1022.841","9.22","91.1","-2.765","0.0"],
    [1402749,"2026-03-11 02:20:00","40329","1.071","286.5","1.699","286.2","1022.7660000000001","9.2","90.6","-2.766","0.0"],
    [1402750,"2026-03-11 02:30:00","40330","1.159","294.2","1.993","280.1","1022.758","9.09","90.7","-2.813","0.0"],
    [1402751,"2026-03-11 02:40:00","40331","1.069","269.7","1.862","267.3","1022.762","9.32","90.6","-2.839","0.0"],
    [1402752,"2026-03-11 02:50:00","40332","1.3030000000000002","273.3","2.025","286","1022.7330000000001","9.29","90.1","-2.7680000000000002","0.0"],
    [1402753,"2026-03-11 03:00:00","40333","1.161","281.3","1.699","285.7","1022.79","9.06","90.0","-2.7689999999999997","0.0"],
    [1402754,"2026-03-11 03:10:00","40334","1.047","287.9","1.731","281.4","1022.885","9.07","90.2","-2.7689999999999997","0.0"],
    [1402755,"2026-03-11 03:20:00","40335","0.9570000000000001","283.3","1.47","295.9","1022.945","8.94","90.2","-2.765","0.0"],
    [1402756,"2026-03-11 03:30:00","40336","1.54","276.4","2.156","276.2","1023.035","9.0","90.3","-2.77","0.0"],
    [1402757,"2026-03-11 03:40:00","40337","1.599","276.9","2.679","291.1","1023.1080000000001","9.09","89.9","-2.767","0.0"],
    [1402758,"2026-03-11 03:50:00","40338","1.578","279.7","2.221","275.4","1023.1139999999999","8.93","89.8","-2.767","0.0"],
    [1402759,"2026-03-11 04:00:00","40339","1.4369999999999998","286.2","1.993","287.2","1023.11","8.77","89.9","-2.7680000000000002","0.0"],
    [1402760,"2026-03-11 04:10:00","40340","0.976","294.0","1.666","303.6","1023.073","8.62","90.0","-2.7710000000000004","0.0"],
    [1402761,"2026-03-11 04:20:00","40341","1.111","284.4","1.895","278.6","1023.079","8.69","90.2","-2.77","0.0"],
    [1402762,"2026-03-11 04:30:00","40342","0.8029999999999999","288.0","1.699","301.5","1023.0319999999999","8.6","90.1","-2.77","0.0"],
    [1402763,"2026-03-11 04:40:00","40343","0.763","288.5","1.405","283.6","1022.9580000000001","8.61","90.2","-2.775","0.0"],
    [1402764,"2026-03-11 04:50:00","40344","1.065","278.9","1.731","278.2","1022.8839999999999","8.62","90.0","-2.77","0.0"],
    [1402765,"2026-03-11 05:00:00","40345","1.679","283.0","2.483","283.5","1022.809","8.52","89.9","-2.778","0.0"],
    [1402766,"2026-03-11 05:10:00","40346","1.16","295.7","2.189","300.7","1022.832","8.29","89.9","-2.77","0.0"],
    [1402767,"2026-03-11 05:20:00","40347","0.973","289.6","1.764","285.1","1022.914","8.19","90.3","-2.807","0.0"],
    [1402768,"2026-03-11 05:30:00","40348","0.9490000000000001","292.4","1.568","308.1","1023.0369999999999","8.2","90.4","-2.784","0.0"],
    [1402769,"2026-03-11 05:40:00","40349","1.459","285.6","2.385","303.2","1023.0930000000001","8.4","90.3","-2.7769999999999997","0.0"],
    [1402770,"2026-03-11 05:50:00","40350","1.187","285.8","2.287","308.3","1023.107","8.37","89.9","-2.7960000000000003","0.0"],
    [1402771,"2026-03-11 06:00:00","40351","1.07","281.4","2.025","290.2","1023.138","8.41","89.5","-2.206","0.0"],
    [1402772,"2026-03-11 06:10:00","40352","1.298","283.0","1.927","287.1","1023.13","8.24","89.3","1.088","0.0"],
    [1402773,"2026-03-11 06:20:00","40353","1.094","279.2","1.633","275.6","1023.0939999999999","8.01","89.6","8.0","0.0"],
    [1402774,"2026-03-11 06:30:00","40354","1.396","259.2","2.189","278.9","1023.2","8.17","89.7","29.64","0.0"],
    [1402775,"2026-03-11 06:40:00","40355","1.5819999999999999","267.4","2.221","275.9","1023.245","8.29","89.2","66.55","0.0"],
    [1402776,"2026-03-11 06:50:00","40356","2.209","272.9","2.842","272.5","1023.2810000000001","8.47","88.8","92.7","0.0"],
    [1402777,"2026-03-11 07:00:00","40357","2.128","278.0","3.005","269.9","1023.324","8.67","88.3","107.9","0.0"],
    [1402778,"2026-03-11 07:10:00","40358","1.493","269.1","2.744","278.8","1023.459","8.93","87.9","80.7","0.0"],
    [1402779,"2026-03-11 07:20:00","40359","1.4880000000000002","270.8","3.267","285","1023.566","9.32","87.3","107.7","0.0"],
    [1402780,"2026-03-11 07:30:00","40360","2.103","293.9","3.691","298.3","1023.689","10.12","85.4","152.2","0.0"],
    [1402781,"2026-03-11 07:40:00","40361","2.217","291.2","3.463","295.5","1023.765","10.82","82.6","197.5","0.0"],
    [1402782,"2026-03-11 07:50:00","40362","2.423","292.7","4.116","298.1","1023.852","11.46","79.61","241.0","0.0"],
    [1402783,"2026-03-11 08:00:00","40363","2.499","297.0","3.822","314.7","1023.9110000000001","11.82","77.42","263.5","0.0"],
    [1402784,"2026-03-11 08:10:00","40364","2.8","302.8","4.149","291.3","1023.9689999999999","11.94","76.06","255.2","0.0"],
    [1402785,"2026-03-11 08:20:00","40365","1.94","299.2","2.973","303.7","1024.009","12.26","75.35","294.0","0.0"],
    [1402786,"2026-03-11 08:30:00","40366","2.7060000000000004","307.0","3.855","315","1024.006","12.53","73.92","308.7","0.0"],
    [1402787,"2026-03-11 08:40:00","40367","2.385","298.1","3.626","302.9","1024.0339999999999","12.82","72.25","352.4","0.0"],
    [1402788,"2026-03-11 08:50:00","40368","1.979","285.7","3.136","307.9","1024.0919999999999","13.32","70.75","361.1","0.0"],
    [1402789,"2026-03-11 09:00:00","40369","1.67","276.5","2.809","292.6","1024.118","13.59","69.36","388.0","0.0"],
    [1402790,"2026-03-11 09:10:00","40370","1.311","275.9","2.189","270.2","1024.122","14.16","68.47","473.4","0.0"],
    [1402791,"2026-03-11 09:20:00","40371","1.83","280.6","3.169","277.5","1024.0910000000001","14.41","66.88","515.3","0.0"],
    [1402792,"2026-03-11 09:30:00","40372","1.129","236.9","2.254","208.4","1024.0839999999998","15.17","64.82","509.4","0.0"],
    [1402793,"2026-03-11 09:40:00","40373","1.295","254.8","2.417","234.4","1024.086","15.83","61.01","550.1","0.0"],
    [1402794,"2026-03-11 09:50:00","40374","1.62","227.2","3.267","226.2","1024.115","15.67","59.97","566.3","0.0"],
    [1402795,"2026-03-11 10:00:00","40375","2.2769999999999997","214.6","3.659","202.9","1024.101","15.63","61.87","570.0","0.0"],
    [1402796,"2026-03-11 10:10:00","40376","2.1430000000000002","219.2","3.365","209.7","1024.065","15.73","61.13","618.7","0.0"],
    [1402797,"2026-03-11 10:20:00","40377","2.003","217.5","3.92","229.8","1024.019","16.12","60.6","646.0","0.0"],
    [1402798,"2026-03-11 10:30:00","40378","2.202","204.8","4.116","198.7","1023.9989999999999","15.94","62.83","629.2","0.0"],
    [1402799,"2026-03-11 10:40:00","40379","2.323","210.9","4.116","179.1","1023.941","16.26","61.42","647.8","0.0"],
    [1402800,"2026-03-11 10:50:00","40380","2.38","205.0","4.639","168.2","1023.8389999999999","16.41","61.57","641.6","0.0"],
    [1402801,"2026-03-11 11:00:00","40381","3.2710000000000004","210.9","4.41","213.1","1023.828","16.18","62.77","691.5","0.0"],
    [1402802,"2026-03-11 11:10:00","40382","3.3960000000000004","200.6","5.455","217.3","1023.918","15.87","63.8","656.3","0.0"],
    [1402803,"2026-03-11 11:20:00","40383","2.862","192.1","4.769","161.2","1024.024","15.86","64.91","675.8","0.0"],
    [1402804,"2026-03-11 11:30:00","40384","3.466","202.8","5.259","218.6","1024.11","15.9","65.53","659.3","0.0"],
    [1402805,"2026-03-11 11:40:00","40385","3.2039999999999997","198.0","4.965","177.4","1024.047","16.07","66.46","701.3","0.0"],
    [1402806,"2026-03-11 11:50:00","40386","3.217","194.5","6.827","184.1","1023.9630000000001","15.86","67.83","686.5","0.0"],
    [1402807,"2026-03-11 12:00:00","40387","3.4330000000000003","199.0","5.684","203.9","1023.8760000000001","15.98","68.49","699.0","0.0"],
    [1402808,"2026-03-11 12:10:00","40388","4.0280000000000005","200.2","7.579","182.9","1023.78","15.95","68.82","738.7","0.0"],
    [1402809,"2026-03-11 12:20:00","40389","3.498","194.2","6.762","186.3","1023.65","15.65","70.43","731.1","0.0"],
    [1402810,"2026-03-11 12:30:00","40390","4.863","208.4","7.579","223.7","1023.5269999999999","15.75","68.22","708.1","0.0"],
    [1402811,"2026-03-11 12:40:00","40391","3.835","200.7","6.958","203.4","1023.36","15.82","67.71","707.1","0.0"],
    [1402812,"2026-03-11 12:50:00","40392","4.168","204.6","7.121","220.6","1023.193","16.02","66.84","680.7","0.0"],
    [1402813,"2026-03-11 13:00:00","40393","4.575","205.0","7.971","210.1","1023.077","15.76","67.89","671.0","0.0"],
    [1402814,"2026-03-11 13:10:00","40394","3.822","204.6","7.285","211.6","1022.962","16.12","66.97","664.6","0.0"],
    [1402815,"2026-03-11 13:20:00","40395","3.555","205.8","6.697","220.9","1022.8939999999999","16.28","66.55","646.2","0.0"],
    [1402816,"2026-03-11 13:30:00","40396","4.178999999999999","206.8","6.827","212.3","1022.762","16.0","67.02","595.4","0.0"],
    [1402817,"2026-03-11 13:40:00","40397","3.139","201.0","5.717","219.7","1022.695","15.98","68.2","604.2","0.0"],
    [1402818,"2026-03-11 13:50:00","40398","3.315","199.8","7.089","221.7","1022.742","16.01","67.94","599.1","0.0"],
    [1402819,"2026-03-11 14:00:00","40399","3.753","204.6","6.729","214.7","1022.7310000000001","15.78","68.38","522.2","0.0"],
    [1402820,"2026-03-11 14:10:00","40400","3.673","207.2","6.664","219.2","1022.72","15.63","69.74","474.0","0.0"],
    [1402821,"2026-03-11 14:20:00","40401","3.2039999999999997","201.1","6.664","232.7","1022.7239999999999","15.79","70.62","479.7","0.0"],
    [1402822,"2026-03-11 14:30:00","40402","3.457","199.3","6.631","173.3","1022.64","15.82","71.27","462.9","0.0"],
    [1402823,"2026-03-11 14:40:00","40403","3.755","201.9","6.533","198.6","1022.56","15.83","71.91","463.8","0.0"],
    [1402824,"2026-03-11 14:50:00","40404","4.707","207.1","8.2","210.1","1022.47","15.54","71.87","419.0","0.0"],
    [1402825,"2026-03-11 15:00:00","40405","6.83","218.2","9.6","225.6","1022.404","15.21","73.15","358.0","0.0"],
    [1402826,"2026-03-11 15:10:00","40406","5.7010000000000005","216.5","9.15","229.8","1022.368","15.16","73.4","260.4","0.0"],
    [1402827,"2026-03-11 15:20:00","40407","5.0969999999999995","214.9","9.05","222.9","1022.3439999999999","15.05","74.22","241.5","0.0"],
    [1402828,"2026-03-11 15:30:00","40408","4.842","209.5","7.252","224","1022.3860000000001","15.1","74.81","256.4","0.0"],
    [1402829,"2026-03-11 15:40:00","40409","4.7330000000000005","212.2","7.84","211.4","1022.4169999999999","15.03","74.73","224.5","0.0"],
    [1402830,"2026-03-11 15:50:00","40410","4.677","211.8","9.05","199.1","1022.428","14.99","75.04","182.2","0.0"],
    [1402831,"2026-03-11 16:00:00","40411","4.92","213.3","8.26","202.6","1022.454","14.81","75.08","155.7","0.0"],
    [1402832,"2026-03-11 16:10:00","40412","5.228","214.8","8.92","235.4","1022.4910000000001","14.84","72.46","139.9","0.0"],
    [1402833,"2026-03-11 16:20:00","40413","4.439","212.3","7.677","222.3","1022.4689999999999","14.87","68.6","116.4","0.0"],
    [1402834,"2026-03-11 16:30:00","40414","4.7","214.5","8.46","229.6","1022.43","14.93","61.54","95.8","0.0"],
    [1402835,"2026-03-11 16:40:00","40415","4.215","216.0","7.219","221.2","1022.3610000000001","15.05","60.07","75.9","0.0"],
    [1402836,"2026-03-11 16:50:00","40416","4.928","218.4","7.677","205.5","1022.355","14.92","62.45","59.57","0.0"],
    [1402837,"2026-03-11 17:00:00","40417","4.213","219.9","6.827","212.1","1022.3989999999999","14.93","62.23","49.48","0.0"],
    [1402838,"2026-03-11 17:10:00","40418","5.0360000000000005","225.2","7.775","227.2","1022.472","14.91","60.9","38.45","0.0"],
    [1402839,"2026-03-11 17:20:00","40419","5.195","222.7","8.49","224.2","1022.5419999999999","14.84","61.92","30.81","0.0"],
    [1402840,"2026-03-11 17:30:00","40420","5.001","229.2","8.3","216.7","1022.693","14.72","66.22","25.8","0.0"],
    [1402841,"2026-03-11 17:40:00","40421","4.236000000000001","226.7","6.958","227.1","1022.936","14.55","71.86","19.06","0.0"],
    [1402842,"2026-03-11 17:50:00","40422","3.799","227.5","6.337","220.2","1022.863","14.39","71.82","6.914","0.0"],
    [1402843,"2026-03-11 18:00:00","40423","3.616","230.2","6.174","225.5","1022.9580000000001","14.26","72.39","1.272","0.0"],
    [1402844,"2026-03-11 18:10:00","40424","4.375","225.9","6.893","232.8","1023.0060000000001","14.28","74.37","-1.1179999999999999","0.0"],
    [1402845,"2026-03-11 18:20:00","40425","4.404","224.2","6.337","224.4","1023.102","14.16","77.02","-1.9909999999999999","0.0"],
    [1402846,"2026-03-11 18:30:00","40426","3.997","225.5","5.749","214.7","1023.199","14.04","79.17","-1.986","0.0"],
    [1402847,"2026-03-11 18:40:00","40427","4.119","221.4","6.86","228.8","1023.237","13.98","79.9","-1.974","0.0"],
    [1402848,"2026-03-11 18:50:00","40428","4.655","223.0","6.435","200.6","1023.2610000000001","14.06","77.37","-1.9780000000000002","0.0"],
    [1402849,"2026-03-11 19:00:00","40429","4.538","223.6","6.533","224.2","1023.2919999999999","14.11","75.46","-1.88","0.0"],
    [1402850,"2026-03-11 19:10:00","40430","3.8560000000000003","225.0","5.88","228.1","1023.295","14.06","75.35","-1.944","0.0"],
    [1402851,"2026-03-11 19:20:00","40431","3.332","224.9","4.704","219.5","1023.346","13.99","77.04","-2.012","0.0"],
    [1402852,"2026-03-11 19:30:00","40432","2.656","229.5","4.475","218.3","1023.422","13.83","76.71","-2.3890000000000002","0.0"],
    [1402853,"2026-03-11 19:40:00","40433","1.993","228.8","3.397","238.6","1023.4689999999999","13.66","75.72","-2.551","0.0"],
    [1402854,"2026-03-11 19:50:00","40434","1.976","234.7","3.691","229.8","1023.507","13.51","76.6","-2.755","0.0"],
    [1402855,"2026-03-11 20:00:00","40435","2.753","222.7","4.149","216.4","1023.497","13.6","77.54","-2.7539999999999996","0.0"],
    [1402856,"2026-03-11 20:10:00","40436","1.955","228.0","3.953","231","1023.4910000000001","13.52","78.47","-2.753","0.0"],
    [1402857,"2026-03-11 20:20:00","40437","2.062","226.4","3.103","219.8","1023.566","13.39","79.2","-2.7569999999999997","0.0"],
    [1402858,"2026-03-11 20:30:00","40438","1.751","231.7","3.103","219.9","1023.6560000000001","13.23","80.0","-2.761","0.0"],
    [1402859,"2026-03-11 20:40:00","40439","2.009","222.0","3.071","215.2","1023.686","13.31","81.0","-2.761","0.0"],
    [1402860,"2026-03-11 20:50:00","40440","2.1919999999999997","217.7","3.397","219.1","1023.6610000000001","13.17","81.9","-2.765","0.0"],
    [1402861,"2026-03-11 21:00:00","40441","1.6030000000000002","230.1","3.005","218.4","1023.625","13.05","83.0","-2.761","0.0"],
    [1402862,"2026-03-11 21:10:00","40442","1.587","228.0","2.777","200.7","1023.682","13.02","83.8","-2.765","0.0"],
    [1402863,"2026-03-11 21:20:00","40443","1.663","231.7","2.809","245.4","1023.717","13.02","84.3","-2.764","0.0"],
    [1402864,"2026-03-11 21:30:00","40444","1.256","240.6","2.483","209.5","1023.829","12.89","85.0","-2.761","0.0"],
    [1402865,"2026-03-11 21:40:00","40445","0.654","229.2","1.633","202","1023.937","12.72","85.8","-2.787","0.0"],
    [1402866,"2026-03-11 21:50:00","40446","0.857","275.5","1.666","270.1","1023.995","12.43","86.8","-2.801","0.0"],
    [1402867,"2026-03-11 22:00:00","40447","1.319","255.6","2.319","273.7","1024.0410000000002","12.3","88.1","-2.764","0.0"],
    [1402868,"2026-03-11 22:10:00","40448","0.8340000000000001","247.2","1.601","239.7","1024.123","12.31","87.9","-2.762","0.0"],
    [1402869,"2026-03-11 22:20:00","40449","0.152","232.4","0.915","236","1024.221","12.12","87.5","-2.793","0.0"],
    [1402870,"2026-03-11 22:30:00","40450","0.2","233.6","0.882","231.8","1024.287","11.82","87.9","-2.7689999999999997","0.0"],
    [1402871,"2026-03-11 22:40:00","40451","0.8109999999999999","244.3","1.339","236.7","1024.3110000000001","11.94","86.2","-2.9330000000000003","0.0"],
    [1402872,"2026-03-11 22:50:00","40452","0.157","250.2","0.653","250.3","1024.4189999999999","11.64","85.9","-2.7739999999999996","0.0"],
    [1402873,"2026-03-11 23:00:00","40453","0.875","290.6","1.862","301.9","1024.556","11.69","86.2","-2.786","0.0"],
    [1402874,"2026-03-11 23:10:00","40454","1.766","296.0","2.123","302.7","1024.593","11.31","85.6","-2.821","0.0"],
    [1402875,"2026-03-11 23:20:00","40455","1.1059999999999999","280.3","1.862","280.2","1024.596","11.35","83.9","-2.773","0.0"],
    [1402876,"2026-03-11 23:30:00","40456","0.7929999999999999","283.0","1.829","284.9","1024.566","10.87","83.8","-2.955","0.0"],
    [1402877,"2026-03-11 23:40:00","40457","0.596","3.355","1.503","16.17","1024.601","10.73","84.9","-2.8310000000000004","0.0"],
    [1402878,"2026-03-11 23:50:00","40458","0.10800000000000001","21.81","0.784","21.8","1024.635","10.65","85.6","-2.763","0.0"],
    [1402879,"2026-03-12 00:00:00","40459","0.792","321.7","1.437","306.6","1024.586","10.78","85.5","-2.7689999999999997","0.0"],
    [1402880,"2026-03-12 00:10:00","40460","1.044","326.9","1.503","328.2","1024.5910000000001","10.9","84.3","-2.7569999999999997","0.0"],
    [1402881,"2026-03-12 00:20:00","40461","0.866","338.6","1.241","341.3","1024.5910000000001","10.86","84.6","-2.734","0.0"],
    [1402882,"2026-03-12 00:30:00","40462","0.8140000000000001","341.3","1.176","340","1024.557","10.93","85.4","-2.6239999999999997","0.0"],
    [1402883,"2026-03-12 00:40:00","40463","0.9059999999999999","336.8","1.535","331.5","1024.624","10.98","85.9","-2.62","0.0"],
    [1402884,"2026-03-12 00:50:00","40464","0.943","347.5","1.993","346.8","1024.6580000000001","11.28","86.0","-2.6510000000000002","0.0"],
    [1402885,"2026-03-12 01:00:00","40465","1.308","353.2","1.927","359.3","1024.5919999999999","11.53","84.6","-2.609","0.0"],
    [1402886,"2026-03-12 01:10:00","40466","1.6159999999999999","346.5","2.548","349.3","1024.57","11.68","84.2","-2.855","0.0"],
    [1402887,"2026-03-12 01:20:00","40467","1.483","357.4","2.123","357.4","1024.57","12.08","82.4","-2.7510000000000003","0.0"],
    [1402888,"2026-03-12 01:30:00","40468","1.4069999999999998","356.4","1.862","352.4","1024.59","11.89","82.5","-2.761","0.0"],
    [1402889,"2026-03-12 01:40:00","40469","1.129","348.3","1.666","354.9","1024.5439999999999","11.85","82.9","-2.761","0.0"],
    [1402890,"2026-03-12 01:50:00","40470","1.186","341.1","1.895","327.5","1024.545","11.55","82.9","-2.736","0.0"],
    [1402891,"2026-03-12 02:00:00","40471","1.597","300.1","2.319","278.9","1024.569","11.59","83.2","-1.827","0.0"],
    [1402892,"2026-03-12 02:10:00","40472","1.262","299.1","2.254","305.6","1024.549","11.21","82.9","-1.215","0.0"],
    [1402893,"2026-03-12 02:20:00","40473","1.024","307.7","1.96","308.8","1024.52","11.29","83.9","-1.2","0.0"],
    [1402894,"2026-03-12 02:30:00","40474","0.735","337.9","1.633","341.8","1024.407","11.48","83.9","-1.261","0.0"],
    [1402895,"2026-03-12 02:40:00","40475","0.294","344.4","1.241","354.2","1024.375","11.7","83.5","-1.261","0.0"],
    [1402896,"2026-03-12 02:50:00","40476","0.02","302.1","0.719","302.1","1024.246","11.87","82.3","-2.055","0.0"],
    [1402897,"2026-03-12 03:00:00","40477","1.115","275.2","2.025","276.9","1024.2730000000001","11.56","82.6","-2.467","0.0"],
    [1402898,"2026-03-12 03:10:00","40478","0.7170000000000001","290.4","1.633","302.9","1024.249","11.2","83.1","-2.127","0.0"],
    [1402899,"2026-03-12 03:20:00","40479","0.7929999999999999","305.7","1.209","307.7","1024.183","10.92","84.7","-2.064","0.0"],
    [1402900,"2026-03-12 03:30:00","40480","0.546","320.2","1.013","328.3","1024.165","10.8","85.5","-2.004","0.0"],
    [1402901,"2026-03-12 03:40:00","40481","1.048","333.7","1.437","337.3","1024.222","10.88","86.3","-1.784","0.0"],
    [1402902,"2026-03-12 03:50:00","40482","0.9620000000000001","314.7","1.372","302.7","1024.318","11.02","86.1","-1.693","0.0"],
    [1402903,"2026-03-12 04:00:00","40483","1.033","293.4","1.601","296.1","1024.406","11.28","85.1","-1.4769999999999999","0.0"],
    [1402904,"2026-03-12 04:10:00","40484","0.486","303.2","1.274","297.3","1024.455","11.3","84.4","-1.266","0.0"],
    [1402905,"2026-03-12 04:20:00","40485","0.561","293.5","1.078","288.5","1024.413","11.32","84.1","-1.2930000000000001","0.0"],
    [1402906,"2026-03-12 04:30:00","40486","0.606","314.3","1.405","319.3","1024.495","11.32","84.0","-1.27","0.0"],
    [1402907,"2026-03-12 04:40:00","40487","0.053","317.6","0.457","318.9","1024.463","11.28","84.4","-1.265","0.0"],
    [1402908,"2026-03-12 04:50:00","40488","0.7090000000000001","275.5","1.666","278","1024.493","11.46","84.0","-1.262","0.0"],
    [1402909,"2026-03-12 05:00:00","40489","0.624","235.4","1.339","221.8","1024.322","11.57","82.5","-1.232","0.0"],
    [1402910,"2026-03-12 05:10:00","40490","1.4680000000000002","277.0","2.123","289.1","1024.229","11.35","82.4","-1.8769999999999998","0.0"],
    [1402911,"2026-03-12 05:20:00","40491","0.7290000000000001","273.0","1.764","279.3","1024.181","11.25","82.7","-1.911","0.0"],
    [1402912,"2026-03-12 05:30:00","40492","0.9229999999999999","285.5","1.47","289.5","1024.147","11.1","82.9","-1.774","0.0"],
    [1402913,"2026-03-12 05:40:00","40493","1.465","282.0","2.025","288","1024.144","10.91","83.8","-1.76","0.0"],
    [1402914,"2026-03-12 05:50:00","40494","1.936","283.9","2.352","283.5","1024.204","10.87","83.6","-1.462","0.0"],
    [1402915,"2026-03-12 06:00:00","40495","1.999","282.1","2.548","291.5","1024.263","10.73","83.8","-1.072","0.0"],
    [1402916,"2026-03-12 06:10:00","40496","1.781","264.5","2.548","271.8","1024.275","10.75","83.9","1.236","0.0"],
    [1402917,"2026-03-12 06:20:00","40497","1.838","269.2","2.94","263.6","1024.399","10.73","83.9","7.0329999999999995","0.0"],
    [1402918,"2026-03-12 06:30:00","40498","1.3030000000000002","268.6","2.581","275","1024.442","10.68","84.0","10.95","0.0"],
    [1402919,"2026-03-12 06:40:00","40499","1.564","261.7","2.581","280.4","1024.518","10.8","83.7","15.17","0.0"],
    [1402920,"2026-03-12 06:50:00","40500","2.194","280.3","2.646","277.7","1024.634","10.83","83.5","29.75","0.0"],
    [1402921,"2026-03-12 07:00:00","40501","2.0909999999999997","278.1","2.483","280.6","1024.685","10.88","83.5","39.22","0.0"],
    [1402922,"2026-03-12 07:10:00","40502","1.8130000000000002","283.1","2.221","280.7","1024.787","11.14","83.4","60.65","0.0"],
    [1402923,"2026-03-12 07:20:00","40503","1.403","276.1","1.96","279","1024.855","11.56","82.2","76.1","0.0"],
    [1402924,"2026-03-12 07:30:00","40504","1.344","265.4","2.221","271.7","1024.988","11.82","80.8","60.24","0.0"],
    [1402925,"2026-03-12 07:40:00","40505","1.3769999999999998","272.5","1.993","284.1","1025.057","12.02","80.1","55.87","0.0"],
    [1402926,"2026-03-12 07:50:00","40506","1.2209999999999999","281.6","1.601","272.1","1025.156","12.25","79.53","55.51","0.0"],
    [1402927,"2026-03-12 08:00:00","40507","1.27","276.2","1.699","289.6","1025.1789999999999","12.5","78.6","81.6","0.0"],
    [1402928,"2026-03-12 08:10:00","40508","1.442","283.2","1.829","289.1","1025.24","12.68","78.25","123.2","0.0"],
    [1402929,"2026-03-12 08:20:00","40509","1.3","286.3","1.699","282.8","1025.23","12.98","78.55","180.3","0.0"],
    [1402930,"2026-03-12 08:30:00","40510","1.305","292.0","1.666","295.5","1025.3010000000002","13.3","77.47","201.9","0.0"],
    [1402931,"2026-03-12 08:40:00","40511","1.68","286.8","2.385","289","1025.402","13.78","75.8","196.9","0.0"],
    [1402932,"2026-03-12 08:50:00","40512","1.6780000000000002","290.6","2.156","290.7","1025.519","14.08","74.26","217.8","0.0"],
    [1402933,"2026-03-12 09:00:00","40513","1.6680000000000001","284.4","2.45","286.5","1025.606","14.08","74.18","178.3","0.0"],
    [1402934,"2026-03-12 09:10:00","40514","1.338","278.0","2.352","273.9","1025.7160000000001","14.19","73.94","168.1","0.0"],
    [1402935,"2026-03-12 09:20:00","40515","1.422","272.2","2.254","298.3","1025.762","14.21","73.65","186.4","0.0"],
    [1402936,"2026-03-12 09:30:00","40516","1.453","279.0","2.156","274","1025.7930000000001","14.26","72.67","238.1","0.0"],
    [1402937,"2026-03-12 09:40:00","40517","1.331","273.8","2.091","295.2","1025.758","14.68","72.27","343.2","0.0"],
    [1402938,"2026-03-12 09:50:00","40518","1.0659999999999998","258.2","2.156","277.5","1025.749","15.63","69.98","613.3","0.0"],
    [1402939,"2026-03-12 10:00:00","40519","1.6869999999999998","224.8","3.169","225.9","1025.6889999999999","16.4","68.82","605.1","0.0"],
    [1402940,"2026-03-12 10:10:00","40520","2.609","208.5","5.161","234.8","1025.654","15.72","70.28","358.0","0.0"],
    [1402941,"2026-03-12 10:20:00","40521","2.339","195.5","5.455","189.8","1025.604","15.87","71.18","505.7","0.0"],
    [1402942,"2026-03-12 10:30:00","40522","2.8169999999999997","204.4","4.508","156.8","1025.56","16.03","70.61","604.2","0.0"],
    [1402943,"2026-03-12 10:40:00","40523","2.5380000000000003","183.1","5.357","181.3","1025.443","16.48","69.93","618.4","0.0"],
    [1402944,"2026-03-12 10:50:00","40524","3.34","176.2","5.782","172.6","1025.36","16.16","70.91","806.0","0.0"],
    [1402945,"2026-03-12 11:00:00","40525","3.1919999999999997","180.6","5.325","177","1025.279","16.32","70.95","758.9","0.0"],
    [1402946,"2026-03-12 11:10:00","40526","3.3810000000000002","177.7","6.435","164.4","1025.157","16.45","70.18","719.1","0.0"],
    [1402947,"2026-03-12 11:20:00","40527","4.039","176.7","5.717","183.1","1025.053","16.14","71.35","614.8","0.0"],
    [1402948,"2026-03-12 11:30:00","40528","3.424","174.3","5.488","166.3","1025.0","15.84","73.11","655.7","0.0"],
    [1402949,"2026-03-12 11:40:00","40529","3.612","183.3","6.533","165.1","1024.8419999999999","16.64","70.07","736.9","0.0"],
    [1402950,"2026-03-12 11:50:00","40530","3.611","183.9","6.501","165.7","1024.65","16.77","68.96","750.9","0.0"],
    [1402951,"2026-03-12 12:00:00","40531","2.997","193.7","5.39","207.4","1024.463","17.28","68.68","741.7","0.0"],
    [1402952,"2026-03-12 12:10:00","40532","2.9739999999999998","186.1","5.945","190.7","1024.287","17.16","69.95","714.4","0.0"],
    [1402953,"2026-03-12 12:20:00","40533","3.013","190.2","5.684","174","1024.103","16.95","70.88","658.1","0.0"],
    [1402954,"2026-03-12 12:30:00","40534","3.032","188.9","4.965","198.7","1023.916","16.76","72.14","714.6","0.0"],
    [1402955,"2026-03-12 12:40:00","40535","3.365","207.7","5.161","215.1","1023.783","16.72","71.17","733.0","0.0"],
    [1402956,"2026-03-12 12:50:00","40536","3.24","201.1","5.325","184.3","1023.632","16.58","71.12","740.7","0.0"],
    [1402957,"2026-03-12 13:00:00","40537","2.885","195.1","4.769","173.6","1023.48","16.55","71.26","547.4","0.0"],
    [1402958,"2026-03-12 13:10:00","40538","2.705","184.3","4.965","208.4","1023.321","16.17","73.11","512.9","0.0"],
    [1402959,"2026-03-12 13:20:00","40539","3.1010000000000004","179.1","5.031","162.2","1023.188","16.02","73.41","476.3","0.0"],
    [1402960,"2026-03-12 13:30:00","40540","2.8560000000000003","182.5","5.031","154","1023.081","15.75","74.65","464.3","0.0"],
    [1402961,"2026-03-12 13:40:00","40541","2.635","201.8","4.835","188.3","1022.948","16.02","74.3","494.3","0.0"],
    [1402962,"2026-03-12 13:50:00","40542","2.679","185.8","5.096","180.1","1022.837","16.23","73.59","588.7","0.0"],
    [1402963,"2026-03-12 14:00:00","40543","2.83","183.2","5.39","174.8","1022.7869999999999","16.13","74.13","663.1","0.0"],
    [1402964,"2026-03-12 14:10:00","40544","2.7960000000000003","183.9","5.619","175.9","1022.6010000000001","16.42","73.52","669.0","0.0"],
    [1402965,"2026-03-12 14:20:00","40545","3.0180000000000002","182.2","5.749","162.9","1022.4860000000001","16.43","73.63","631.4","0.0"],
    [1402966,"2026-03-12 14:30:00","40546","3.0180000000000002","172.1","5.096","159.2","1022.3939999999999","16.1","74.13","620.3","0.0"],
    [1402967,"2026-03-12 14:40:00","40547","2.983","179.5","4.965","184.7","1022.313","16.28","72.99","565.9","0.0"],
    [1402968,"2026-03-12 14:50:00","40548","2.489","187.0","4.573","205.7","1022.205","15.98","73.82","414.9","0.0"],
    [1402969,"2026-03-12 15:00:00","40549","2.845","204.0","6.762","196.7","1022.1619999999999","15.65","74.29","255.7","0.0"],
    [1402970,"2026-03-12 15:10:00","40550","2.324","201.8","4.312","219.7","1022.196","15.31","75.72","211.0","0.0"],
    [1402971,"2026-03-12 15:20:00","40551","3.0860000000000003","210.7","5.161","237.1","1022.107","15.16","74.55","180.2","0.0"],
    [1402972,"2026-03-12 15:30:00","40552","2.418","201.8","3.985","200.6","1022.0","15.22","71.61","192.3","0.0"],
    [1402973,"2026-03-12 15:40:00","40553","2.403","190.9","4.573","188","1021.878","15.13","69.18","207.0","0.0"],
    [1402974,"2026-03-12 15:50:00","40554","3.1430000000000002","217.0","5.455","212.5","1021.845","14.9","68.34","187.0","0.0"],
    [1402975,"2026-03-12 16:00:00","40555","2.522","203.3","6.076","219.5","1021.79","14.89","68.81","140.3","0.0"],
    [1402976,"2026-03-12 16:10:00","40556","1.743","199.4","3.953","187.7","1021.757","14.74","68.65","99.3","0.0"],
    [1402977,"2026-03-12 16:20:00","40557","1.973","178.0","3.724","123.2","1021.669","14.59","71.56","64.02","0.0"],
    [1402978,"2026-03-12 16:30:00","40558","2.01","179.6","3.332","170.6","1021.558","14.39","71.65","61.06","0.0"],
    [1402979,"2026-03-12 16:40:00","40559","1.829","195.0","3.724","218.6","1021.6560000000001","14.47","72.02","57.79","0.0"],
    [1402980,"2026-03-12 16:50:00","40560","1.9569999999999999","208.2","4.149","196.8","1021.7669999999999","14.51","72.27","113.8","0.0"],
    [1402981,"2026-03-12 17:00:00","40561","3.392","220.7","5.586","219.1","1021.801","14.65","71.38","137.0","0.0"],
    [1402982,"2026-03-12 17:10:00","40562","2.988","209.5","5.259","234.4","1021.801","14.71","71.19","106.3","0.0"],
    [1402983,"2026-03-12 17:20:00","40563","2.164","205.4","4.051","211.8","1021.808","14.56","73.49","50.26","0.0"],
    [1402984,"2026-03-12 17:30:00","40564","2.331","206.7","5.129","223.9","1021.7439999999999","14.52","74.96","26.84","0.0"],
    [1402985,"2026-03-12 17:40:00","40565","1.8419999999999999","205.1","5.031","208.2","1021.6039999999999","14.37","76.6","17.27","0.0"],
    [1402986,"2026-03-12 17:50:00","40566","2.0469999999999997","203.9","4.671","202.1","1021.6110000000001","14.11","78.23","8.78","0.0"],
    [1402987,"2026-03-12 18:00:00","40567","2.9610000000000003","215.3","5.292","227.3","1021.623","14.03","78.93","2.365","0.0"],
    [1402988,"2026-03-12 18:10:00","40568","3.332","221.1","4.965","206.5","1021.623","13.99","79.59","-1.159","0.0"],
    [1402989,"2026-03-12 18:20:00","40569","3.477","224.4","5.88","229.9","1021.666","14.02","78.77","-2.53","0.0"],
    [1402990,"2026-03-12 18:30:00","40570","3.3510000000000004","223.9","6.174","202.7","1021.693","14.04","78.76","-2.735","0.0"],
    [1402991,"2026-03-12 18:40:00","40571","3.455","222.2","6.272","232.2","1021.822","13.97","79.6","-2.74","0.0"],
    [1402992,"2026-03-12 18:50:00","40572","3.3680000000000003","222.2","5.194","208.5","1021.977","13.94","79.57","-2.7439999999999998","0.0"],
    [1402993,"2026-03-12 19:00:00","40573","2.467","226.0","4.149","224.6","1022.069","13.91","79.15","-2.7510000000000003","0.0"],
    [1402994,"2026-03-12 19:10:00","40574","1.445","235.5","2.973","233.4","1022.112","13.63","79.68","-2.758","0.0"],
    [1402995,"2026-03-12 19:20:00","40575","1.794","231.7","3.005","210.6","1022.1489999999999","13.46","80.0","-2.786","0.0"],
    [1402996,"2026-03-12 19:30:00","40576","2.218","201.8","4.279","208.2","1022.209","13.64","79.21","-2.801","0.0"],
    [1402997,"2026-03-12 19:40:00","40577","2.37","217.5","4.606","178.3","1022.148","13.48","80.1","-2.761","0.0"],
    [1402998,"2026-03-12 19:50:00","40578","2.544","219.2","3.855","215.9","1022.153","13.52","80.9","-2.762","0.0"],
    [1402999,"2026-03-12 20:00:00","40579","1.295","233.4","3.267","218.5","1022.165","13.51","81.1","-2.7689999999999997","0.0"],
    [1403000,"2026-03-12 20:10:00","40580","0.8079999999999999","239.9","1.666","240.7","1022.1489999999999","13.21","82.1","-3.011","0.0"],
    [1403001,"2026-03-12 20:20:00","40581","0.9329999999999999","238.0","1.437","243.8","1022.177","13.02","83.6","-2.8339999999999996","0.0"],
    [1403002,"2026-03-12 20:30:00","40582","0.96","239.2","1.699","239.7","1022.182","12.96","84.2","-2.7889999999999997","0.0"],
    [1403003,"2026-03-12 20:40:00","40583","0.677","248.6","1.307","250.1","1022.216","12.83","84.5","-2.843","0.0"],
    [1403004,"2026-03-12 20:50:00","40584","1.439","232.7","3.267","208.5","1022.2560000000001","12.9","85.1","-2.924","0.0"],
    [1403005,"2026-03-12 21:00:00","40585","2.1069999999999998","223.4","3.299","228.2","1022.2410000000001","13.16","85.1","-3.0010000000000003","0.0"],
    [1403006,"2026-03-12 21:10:00","40586","1.2830000000000001","230.2","2.254","212.3","1022.235","13.14","85.1","-2.802","0.0"],
    [1403007,"2026-03-12 21:20:00","40587","1.369","238.4","2.581","235.7","1022.2280000000001","13.0","85.7","-2.762","0.0"],
    [1403008,"2026-03-12 21:30:00","40588","1.01","239.3","1.829","225.8","1022.193","12.75","86.2","-2.77","0.0"],
    [1403009,"2026-03-12 21:40:00","40589","1.227","237.5","2.025","227.1","1022.247","12.74","86.5","-2.761","0.0"],
    [1403010,"2026-03-12 21:50:00","40590","0.932","246.8","1.535","250.4","1022.253","12.63","86.3","-2.773","0.0"],
    [1403011,"2026-03-12 22:00:00","40591","0.9570000000000001","286.9","1.535","299.3","1022.3","12.3","85.9","-2.762","0.0"],
    [1403012,"2026-03-12 22:10:00","40592","0.977","269.9","1.503","267.8","1022.318","11.68","86.2","-2.819","0.0"],
    [1403013,"2026-03-12 22:20:00","40593","1.402","265.4","2.123","271.3","1022.2139999999999","11.85","84.4","-2.81","0.0"],
    [1403014,"2026-03-12 22:30:00","40594","0.027999999999999997","234.0","0.523","229.9","1022.215","11.64","83.5","-2.784","0.0"],
    [1403015,"2026-03-12 22:40:00","40595","1.037","290.0","1.699","300.4","1022.1410000000001","11.24","84.5","-2.772","0.0"],
    [1403016,"2026-03-12 22:50:00","40596","0.18","298.7","0.653","297.9","1022.074","11.04","85.2","-2.761","0.0"],
    [1403017,"2026-03-12 23:00:00","40597","0.27899999999999997","297.5","0.588","297.4","1022.0260000000001","11.08","85.2","-2.762","0.0"],
    [1403018,"2026-03-12 23:10:00","40598","0.615","284.2","1.405","267.8","1022.076","11.08","84.7","-2.761","0.0"],
    [1403019,"2026-03-12 23:20:00","40599","1.5859999999999999","269.7","2.352","271.4","1022.0060000000001","11.03","84.7","-2.764","0.0"],
    [1403020,"2026-03-12 23:30:00","40600","1.535","277.4","2.646","267.2","1021.922","11.04","84.4","-2.761","0.0"],
    [1403021,"2026-03-12 23:40:00","40601","1.121","281.1","1.829","285.3","1021.788","10.58","85.4","-2.76","0.0"],
    [1403022,"2026-03-12 23:50:00","40602","1.046","269.3","1.535","268.2","1021.653","10.35","86.8","-2.761","0.0"],
    [1403023,"2026-03-13 00:00:00","40603","0.88","274.6","1.405","273.4","1021.555","10.33","86.8","-2.761","0.0"],
    [1403024,"2026-03-13 00:10:00","40604","0.812","270.5","1.209","267.9","1021.515","10.27","87.1","-2.761","0.0"],
    [1403025,"2026-03-13 00:20:00","40605","0.816","274.1","1.405","278.8","1021.5039999999999","10.12","87.1","-2.761","0.0"],
    [1403026,"2026-03-13 00:30:00","40606","1.074","282.8","1.568","282.1","1021.426","10.03","87.4","-2.761","0.0"],
    [1403027,"2026-03-13 00:40:00","40607","1.193","290.9","2.058","303.1","1021.4780000000001","10.1","87.6","-2.761","0.0"],
    [1403028,"2026-03-13 00:50:00","40608","1.169","286.1","2.189","297.5","1021.462","10.39","87.4","-2.763","0.0"],
    [1403029,"2026-03-13 01:00:00","40609","0.237","287.2","1.045","286.8","1021.441","10.34","87.1","-2.755","0.0"],
    [1403030,"2026-03-13 01:10:00","40610","1.083","278.9","1.535","282.3","1021.375","10.19","87.8","-2.773","0.0"],
    [1403031,"2026-03-13 01:20:00","40611","1.143","279.1","1.666","285.2","1021.297","10.16","88.2","-2.76","0.0"],
    [1403032,"2026-03-13 01:30:00","40612","1.4169999999999998","279.7","1.862","273.5","1021.1619999999999","10.06","88.2","-2.761","0.0"],
    [1403033,"2026-03-13 01:40:00","40613","1.181","285.2","1.927","278.1","1021.102","9.84","87.9","-2.759","0.0"],
    [1403034,"2026-03-13 01:50:00","40614","1.014","282.6","1.307","280.3","1021.0160000000001","9.6","88.6","-2.762","0.0"],
    [1403035,"2026-03-13 02:00:00","40615","1.07","281.9","1.503","291.6","1020.943","9.54","89.0","-2.762","0.0"],
    [1403036,"2026-03-13 02:10:00","40616","0.696","286.2","1.209","291.6","1020.788","9.47","88.9","-2.759","0.0"],
    [1403037,"2026-03-13 02:20:00","40617","0.7390000000000001","292.6","1.307","301","1020.648","9.26","89.3","-2.761","0.0"],
    [1403038,"2026-03-13 02:30:00","40618","0.732","287.3","1.372","283.5","1020.4689999999999","9.23","89.6","-2.761","0.0"],
    [1403039,"2026-03-13 02:40:00","40619","0.852","282.1","1.372","270.4","1020.2769999999999","9.1","89.7","-2.76","0.0"],
    [1403040,"2026-03-13 02:50:00","40620","0.98","283.3","1.535","283.1","1020.2139999999999","9.13","89.8","-2.7489999999999997","0.0"],
    [1403041,"2026-03-13 03:00:00","40621","0.645","282.7","1.339","287.1","1020.113","9.1","89.9","-2.761","0.0"],
    [1403042,"2026-03-13 03:10:00","40622","0.588","281.8","1.307","295","1019.992","9.04","89.8","-2.763","0.0"],
    [1403043,"2026-03-13 03:20:00","40623","0.715","282.3","1.209","285.1","1019.875","8.99","89.9","-2.7569999999999997","0.0"],
    [1403044,"2026-03-13 03:30:00","40624","0.8959999999999999","286.2","1.372","287.1","1019.7289999999999","9.07","89.8","-2.764","0.0"],
    [1403045,"2026-03-13 03:40:00","40625","0.7859999999999999","279.0","1.47","279.9","1019.673","9.1","89.4","-2.759","0.0"],
    [1403046,"2026-03-13 03:50:00","40626","0.6759999999999999","294.2","1.535","277.6","1019.68","9.11","89.1","-2.347","0.0"],
    [1403047,"2026-03-13 04:00:00","40627","0.745","293.2","1.372","297.4","1019.57","9.17","88.9","-1.979","0.0"],
    [1403048,"2026-03-13 04:10:00","40628","0.532","264.6","1.339","270.6","1019.443","9.26","88.3","-1.47","0.0"],
    [1403049,"2026-03-13 04:20:00","40629","1.261","273.7","1.862","284","1019.429","9.35","87.7","-1.611","0.0"],
    [1403050,"2026-03-13 04:30:00","40630","1.178","276.1","1.862","294.2","1019.377","9.32","87.1","-2.01","0.0"],
    [1403051,"2026-03-13 04:40:00","40631","1.339","272.9","1.927","281.6","1019.424","9.31","86.9","-1.844","0.0"],
    [1403052,"2026-03-13 04:50:00","40632","0.809","283.1","1.666","284.5","1019.3530000000001","9.31","86.4","-1.3159999999999998","0.0"],
    [1403053,"2026-03-13 05:00:00","40633","1.183","273.2","1.764","270.3","1019.36","9.26","86.2","-1.301","0.0"],
    [1403054,"2026-03-13 05:10:00","40634","1.35","277.8","1.829","276.9","1019.431","9.32","85.7","-1.263","0.0"],
    [1403055,"2026-03-13 05:20:00","40635","1.315","279.7","1.797","275.1","1019.4910000000001","9.33","85.1","-1.2309999999999999","0.0"],
    [1403056,"2026-03-13 05:30:00","40636","1.196","263.5","1.96","270.3","1019.5319999999999","9.35","84.7","-0.985","0.0"],
    [1403057,"2026-03-13 05:40:00","40637","1.4040000000000001","277.4","1.862","289.4","1019.5","9.41","84.1","-0.634","0.0"],
    [1403058,"2026-03-13 05:50:00","40638","1.5230000000000001","280.0","2.156","284.7","1019.584","9.45","84.1","-0.534","0.0"],
    [1403059,"2026-03-13 06:00:00","40639","1.536","277.4","2.221","283.9","1019.6310000000001","9.54","83.8","-0.078","0.0"],
    [1403060,"2026-03-13 06:10:00","40640","1.0490000000000002","284.4","2.189","300.8","1019.548","9.64","83.6","1.439","0.0"],
    [1403061,"2026-03-13 06:20:00","40641","1.3019999999999998","322.8","1.993","316.1","1019.4680000000001","9.85","83.8","4.415","0.0"],
    [1403062,"2026-03-13 06:30:00","40642","1.775","329.4","2.483","334.2","1019.382","10.07","83.1","12.86","0.0"],
    [1403063,"2026-03-13 06:40:00","40643","1.44","331.8","2.515","331.1","1019.363","10.21","82.5","27.94","0.0"],
    [1403064,"2026-03-13 06:50:00","40644","0.9590000000000001","295.4","1.601","284.5","1019.3939999999999","10.15","82.1","34.29","0.0"],
    [1403065,"2026-03-13 07:00:00","40645","1.067","300.0","1.601","306.4","1019.3639999999999","10.11","81.3","46.99","0.0"],
    [1403066,"2026-03-13 07:10:00","40646","0.851","288.9","1.47","282.2","1019.452","10.09","81.7","55.98","0.0"],
    [1403067,"2026-03-13 07:20:00","40647","1.1","282.2","1.535","285.6","1019.471","10.15","81.1","55.88","0.0"],
    [1403068,"2026-03-13 07:30:00","40648","1.113","286.9","1.699","291.8","1019.4989999999999","10.13","81.0","74.35","0.0"],
    [1403069,"2026-03-13 07:40:00","40649","1.195","278.3","1.797","281.5","1019.574","10.34","80.9","116.9","0.0"],
    [1403070,"2026-03-13 07:50:00","40650","0.98","271.6","1.437","280.2","1019.584","10.72","80.1","135.1","0.0"],
    [1403071,"2026-03-13 08:00:00","40651","0.82","276.5","1.241","275.4","1019.6080000000001","11.14","79.17","166.3","0.0"],
    [1403072,"2026-03-13 08:10:00","40652","1.158","279.9","1.535","271.2","1019.675","11.72","77.58","233.1","0.0"],
    [1403073,"2026-03-13 08:20:00","40653","0.8690000000000001","283.5","1.568","301.2","1019.679","12.21","77.03","234.3","0.0"],
    [1403074,"2026-03-13 08:30:00","40654","1.34","293.3","2.156","291.6","1019.6510000000001","12.71","75.59","330.4","0.0"],
    [1403075,"2026-03-13 08:40:00","40655","1.544","287.3","2.254","312.7","1019.596","12.82","74.61","222.8","0.0"],
    [1403076,"2026-03-13 08:50:00","40656","1.354","315.2","2.123","323.7","1019.587","13.06","74.86","208.0","0.0"],
    [1403077,"2026-03-13 09:00:00","40657","1.032","320.9","1.568","321","1019.565","13.42","75.1","307.1","0.0"],
    [1403078,"2026-03-13 09:10:00","40658","0.899","325.1","1.797","321.8","1019.576","14.02","73.97","305.5","0.0"],
    [1403079,"2026-03-13 09:20:00","40659","1.178","50.96","1.895","75.91","1019.596","14.13","74.78","304.1","0.0"],
    [1403080,"2026-03-13 09:30:00","40660","1.829","71.85","2.777","67.55","1019.4830000000001","14.32","74.97","495.7","0.0"],
    [1403081,"2026-03-13 09:40:00","40661","1.9380000000000002","67.4","2.94","84.6","1019.429","14.75","73.86","610.2","0.0"],
    [1403082,"2026-03-13 09:50:00","40662","2.404","76.24","3.332","74.49","1019.3430000000001","14.82","74.54","604.4","0.0"],
    [1403083,"2026-03-13 10:00:00","40663","1.6580000000000001","105.4","2.94","103.8","1019.291","14.68","73.33","437.4","0.0"],
    [1403084,"2026-03-13 10:10:00","40664","1.9780000000000002","94.9","4.867","88.4","1019.2310000000001","14.73","73.68","611.6","0.0"],
    [1403085,"2026-03-13 10:20:00","40665","2.241","92.0","3.985","110.1","1019.159","14.77","73.56","492.9","0.0"],
    [1403086,"2026-03-13 10:30:00","40666","2.18","79.83","4.639","64.77","1019.06","14.41","74.36","431.5","0.0"],
    [1403087,"2026-03-13 10:40:00","40667","1.7630000000000001","83.6","3.528","89.9","1018.975","14.43","74.48","547.9","0.0"],
    [1403088,"2026-03-13 10:50:00","40668","2.1069999999999998","92.5","4.116","82.6","1018.821","14.79","73.34","552.3","0.0"],
    [1403089,"2026-03-13 11:00:00","40669","2.8710000000000004","73.4","4.802","81.8","1018.688","14.67","74.05","666.0","0.0"],
    [1403090,"2026-03-13 11:10:00","40670","2.302","90.5","3.789","99.3","1018.6","14.95","73.32","730.6","0.0"],
    [1403091,"2026-03-13 11:20:00","40671","2.168","103.7","3.757","111.5","1018.477","15.15","71.6","734.7","0.0"],
    [1403092,"2026-03-13 11:30:00","40672","2.137","107.9","4.41","105.5","1018.435","15.05","71.85","746.3","0.0"],
    [1403093,"2026-03-13 11:40:00","40673","1.359","127.7","3.397","101.2","1018.328","15.3","71.56","748.9","0.0"],
    [1403094,"2026-03-13 11:50:00","40674","1.443","140.9","3.92","121.2","1018.2460000000001","15.43","70.41","769.0","0.0"],
    [1403095,"2026-03-13 12:00:00","40675","1.8940000000000001","111.3","3.43","104.5","1018.055","15.46","70.36","765.8","0.0"],
    [1403096,"2026-03-13 12:10:00","40676","1.879","158.3","4.573","168.3","1017.813","15.27","70.72","761.4","0.0"],
    [1403097,"2026-03-13 12:20:00","40677","1.3419999999999999","146.2","3.724","164.4","1017.602","15.45","70.79","757.3","0.0"],
    [1403098,"2026-03-13 12:30:00","40678","1.5759999999999998","169.3","4.345","176.6","1017.3919999999999","15.89","68.45","742.1","0.0"],
    [1403099,"2026-03-13 12:40:00","40679","2.467","206.5","4.639","203","1017.247","16.09","68.44","735.5","0.0"],
    [1403100,"2026-03-13 12:50:00","40680","2.883","193.5","5.129","214.3","1017.12","15.81","69.48","728.0","0.0"],
    [1403101,"2026-03-13 13:00:00","40681","3.053","188.2","4.508","193.9","1016.94","15.58","71.07","719.6","0.0"],
    [1403102,"2026-03-13 13:10:00","40682","2.7","185.4","4.639","183.1","1016.765","15.76","71.01","709.2","0.0"],
    [1403103,"2026-03-13 13:20:00","40683","3.205","177.2","6.239","206.9","1016.539","15.3","72.81","698.5","0.0"],
    [1403104,"2026-03-13 13:30:00","40684","2.386","186.3","4.345","175.3","1016.367","15.49","72.78","687.8","0.0"],
    [1403105,"2026-03-13 13:40:00","40685","2.509","184.2","5.39","182.4","1016.209","15.5","72.95","673.2","0.0"],
    [1403106,"2026-03-13 13:50:00","40686","2.439","184.3","4.41","169.7","1016.023","15.73","72.26","657.2","0.0"],
    [1403107,"2026-03-13 14:00:00","40687","2.7460000000000004","192.4","4.443","224.8","1015.8480000000001","15.79","72.34","638.1","0.0"],
    [1403108,"2026-03-13 14:10:00","40688","2.391","200.6","5.553","156.7","1015.712","15.69","72.94","618.6","0.0"],
    [1403109,"2026-03-13 14:20:00","40689","2.853","182.0","4.704","184.9","1015.5039999999999","15.57","73.54","595.4","0.0"],
    [1403110,"2026-03-13 14:30:00","40690","2.384","190.2","4.345","225.3","1015.393","15.84","73.45","573.7","0.0"],
    [1403111,"2026-03-13 14:40:00","40691","2.551","176.2","5.357","168.1","1015.2389999999999","15.48","74.3","554.6","0.0"],
    [1403112,"2026-03-13 14:50:00","40692","2.9619999999999997","181.6","5.161","210.8","1015.078","15.31","75.31","523.8","0.0"],
    [1403113,"2026-03-13 15:00:00","40693","2.323","181.9","4.116","173.9","1014.9010000000001","15.51","75.44","460.5","0.0"],
    [1403114,"2026-03-13 15:10:00","40694","2.701","183.7","4.671","166","1014.762","15.72","74.92","489.2","0.0"],
    [1403115,"2026-03-13 15:20:00","40695","2.589","201.6","6.109","206.6","1014.6519999999999","15.58","75.94","441.2","0.0"],
    [1403116,"2026-03-13 15:30:00","40696","2.562","196.3","4.933","219","1014.518","15.52","76.47","426.7","0.0"],
    [1403117,"2026-03-13 15:40:00","40697","2.958","202.5","5.455","229.2","1014.334","15.63","76.42","382.4","0.0"],
    [1403118,"2026-03-13 15:50:00","40698","2.656","205.7","5.782","228.8","1014.166","15.74","76.43","349.8","0.0"],
    [1403119,"2026-03-13 16:00:00","40699","2.9339999999999997","195.3","6.141","223.2","1013.972","15.89","75.94","324.3","0.0"],
    [1403120,"2026-03-13 16:10:00","40700","3.022","197.5","5.847","217.1","1013.801","15.73","76.62","290.8","0.0"],
    [1403121,"2026-03-13 16:20:00","40701","2.915","200.6","6.501","206.5","1013.635","15.69","76.7","258.5","0.0"],
    [1403122,"2026-03-13 16:30:00","40702","4.021","214.4","6.664","235.2","1013.653","15.48","77.49","224.7","0.0"],
    [1403123,"2026-03-13 16:40:00","40703","4.638","217.6","7.415","206.6","1013.7330000000001","15.02","79.39","126.6","0.0"],
    [1403124,"2026-03-13 16:50:00","40704","3.693","213.5","6.37","210.7","1013.64","14.78","81.1","164.4","0.0"],
    [1403125,"2026-03-13 17:00:00","40705","3.043","210.8","5.782","227.7","1013.4830000000001","14.94","80.9","131.6","0.0"],
    [1403126,"2026-03-13 17:10:00","40706","4.04","213.5","6.533","241.8","1013.4110000000001","14.71","80.9","90.1","0.0"],
    [1403127,"2026-03-13 17:20:00","40707","3.295","211.3","6.501","229.7","1013.3939999999999","14.45","81.4","47.74","0.0"],
    [1403128,"2026-03-13 17:30:00","40708","3.094","211.9","5.749","225.4","1013.2860000000001","14.24","82.0","32.15","0.0"],
    [1403129,"2026-03-13 17:40:00","40709","3.0780000000000003","211.9","4.802","224.3","1013.199","14.19","82.5","21.58","0.0"],
    [1403130,"2026-03-13 17:50:00","40710","3.3289999999999997","212.4","5.847","207.4","1013.085","14.12","83.3","8.46","0.0"],
    [1403131,"2026-03-13 18:00:00","40711","3.997","215.2","6.239","232","1013.08","14.04","84.0","1.25","0.0"],
    [1403132,"2026-03-13 18:10:00","40712","2.992","209.8","5.096","212.3","1012.972","13.93","84.8","-1.29","0.0"],
    [1403133,"2026-03-13 18:20:00","40713","3.554","218.5","6.533","233.1","1012.872","13.8","85.5","-2.5789999999999997","0.0"],
    [1403134,"2026-03-13 18:30:00","40714","3.693","215.6","5.945","225.5","1012.74","13.78","85.7","-2.675","0.0"],
    [1403135,"2026-03-13 18:40:00","40715","3.395","220.5","5.357","207.9","1012.701","13.74","86.0","-2.718","0.0"],
    [1403136,"2026-03-13 18:50:00","40716","3.279","221.0","5.945","228.6","1012.5880000000001","13.71","86.7","-2.673","0.0"],
    [1403137,"2026-03-13 19:00:00","40717","3.819","221.2","6.174","216.1","1012.405","13.71","86.9","-2.7430000000000003","0.0"],
    [1403138,"2026-03-13 19:10:00","40718","3.45","213.9","5.553","231.2","1012.17","13.67","87.2","-2.71","0.0"],
    [1403139,"2026-03-13 19:20:00","40719","2.8680000000000003","206.9","5.521","227.5","1011.951","13.58","87.8","-2.7489999999999997","0.0"],
    [1403140,"2026-03-13 19:30:00","40720","2.931","205.7","6.697","221.4","1011.855","13.52","88.0","-2.753","0.0"],
    [1403141,"2026-03-13 19:40:00","40721","3.1180000000000003","215.8","5.423","190.3","1011.765","13.54","88.0","-2.7560000000000002","0.0"],
    [1403142,"2026-03-13 19:50:00","40722","2.185","210.2","3.953","212.4","1011.78","13.51","87.9","-2.758","0.0"],
    [1403143,"2026-03-13 20:00:00","40723","2.66","210.2","4.475","228.4","1011.7260000000001","13.46","87.7","-2.761","0.0"],
    [1403144,"2026-03-13 20:10:00","40724","3.177","216.6","5.782","218.8","1011.686","13.53","87.8","-2.7539999999999996","0.0"],
    [1403145,"2026-03-13 20:20:00","40725","3.2110000000000003","223.5","4.867","233.7","1011.637","13.58","87.8","-2.6889999999999996","0.0"],
    [1403146,"2026-03-13 20:30:00","40726","4.124","224.1","6.272","227","1011.579","13.6","87.8","-2.5789999999999997","0.0"],
    [1403147,"2026-03-13 20:40:00","40727","3.909","223.3","6.076","218.7","1011.579","13.61","87.4","-2.041","0.0"],
    [1403148,"2026-03-13 20:50:00","40728","3.949","223.7","5.39","220.1","1011.5","13.58","87.3","-2.09","0.0"],
    [1403149,"2026-03-13 21:00:00","40729","2.95","222.1","5.161","198.7","1011.395","13.52","87.8","-2.1719999999999997","0.0"],
    [1403150,"2026-03-13 21:10:00","40730","3.0789999999999997","223.3","5.847","219.1","1011.2639999999999","13.45","88.4","-2.353","0.0"],
    [1403151,"2026-03-13 21:20:00","40731","3.55","226.2","6.109","236.5","1011.201","13.43","88.8","-2.266","0.0"],
    [1403152,"2026-03-13 21:30:00","40732","4.655","221.1","7.023","207.8","1011.0169999999999","13.48","88.9","-2.077","0.0"],
    [1403153,"2026-03-13 21:40:00","40733","4.735","223.5","9.54","212.7","1010.918","13.43","89.1","-2.07","0.0"],
    [1403154,"2026-03-13 21:50:00","40734","4.946000000000001","224.4","8.43","218.9","1010.788","13.38","88.9","-2.006","0.0"],
    [1403155,"2026-03-13 22:00:00","40735","4.602","225.2","8","228.4","1010.6669999999999","13.35","88.8","-1.936","0.0"],
    [1403156,"2026-03-13 22:10:00","40736","3.115","229.3","5.455","194.7","1010.584","13.32","88.6","-1.705","0.0"],
    [1403157,"2026-03-13 22:20:00","40737","2.783","230.4","5.521","266.4","1010.5980000000001","13.26","88.7","-1.9409999999999998","0.0"],
    [1403158,"2026-03-13 22:30:00","40738","2.827","231.4","6.403","252.6","1010.551","13.22","88.8","-1.959","0.0"],
    [1403159,"2026-03-13 22:40:00","40739","3.075","230.8","5.259","221","1010.461","13.29","88.4","-1.3030000000000002","0.0"],
    [1403160,"2026-03-13 22:50:00","40740","3.767","226.2","6.631","228.6","1010.3380000000001","13.4","87.4","-1.261","0.0"],
    [1403161,"2026-03-13 23:00:00","40741","4.998","220.0","7.285","230.4","1009.924","13.56","86.2","-1.321","0.0"],
    [1403162,"2026-03-13 23:10:00","40742","5.008","222.2","7.905","216.6","1009.671","13.58","85.9","-1.649","0.0"],
    [1403163,"2026-03-13 23:20:00","40743","4.863","225.2","7.677","233.2","1009.525","13.58","85.4","-1.841","0.0"],
    [1403164,"2026-03-13 23:30:00","40744","4.4910000000000005","223.4","6.566","228.7","1009.2760000000001","13.58","85.0","-1.2930000000000001","0.0"],
    [1403165,"2026-03-13 23:40:00","40745","3.7110000000000003","227.0","6.272","223.7","1009.069","13.58","85.0","-1.28","0.0"],
    [1403166,"2026-03-13 23:50:00","40746","3.42","224.0","5.619","227.3","1008.834","13.56","85.3","-1.275","0.0"],
    [1403167,"2026-03-14 00:00:00","40747","2.63","232.5","5.39","209.6","1008.5219999999999","13.64","84.6","-1.2790000000000001","0.0"],
    [1403168,"2026-03-14 00:10:00","40748","1.766","280.4","3.071","298.8","1008.433","13.47","84.1","-1.2670000000000001","0.0"],
    [1403169,"2026-03-14 00:20:00","40749","1.675","234.5","3.136","237.6","1008.1419999999999","13.41","83.3","-1.63","0.0"],
    [1403170,"2026-03-14 00:30:00","40750","1.3769999999999998","229.3","2.254","207.7","1007.8789999999999","13.49","81.6","-1.963","0.0"],
    [1403171,"2026-03-14 00:40:00","40751","1.3869999999999998","210.5","2.352","217.5","1007.762","13.44","81.2","-2.015","0.0"],
    [1403172,"2026-03-14 00:50:00","40752","1.268","198.2","2.417","175.7","1007.664","13.32","82.4","-2.082","0.0"],
    [1403173,"2026-03-14 01:00:00","40753","1.371","202.4","2.679","214.7","1007.368","13.31","84.0","-2.031","0.0"],
    [1403174,"2026-03-14 01:10:00","40754","2.062","217.4","3.953","223.6","1007.1310000000001","13.32","85.9","-2.017","0.0"],
    [1403175,"2026-03-14 01:20:00","40755","2.146","228.9","3.887","215.1","1006.967","13.34","87.7","-1.935","0.0"],
    [1403176,"2026-03-14 01:30:00","40756","2.7230000000000003","226.1","4.377","200.3","1006.681","13.32","88.9","-2.032","0.0"],
    [1403177,"2026-03-14 01:40:00","40757","1.7280000000000002","243.0","3.822","200.2","1006.551","13.22","89.7","-2.0140000000000002","0.0"],
    [1403178,"2026-03-14 01:50:00","40758","2.327","231.3","4.312","239.9","1006.345","13.15","90.5","-2.012","0.0"],
    [1403179,"2026-03-14 02:00:00","40759","2.9","216.2","4.508","230.1","1006.034","13.18","91.0","-1.781","0.0"],
    [1403180,"2026-03-14 02:10:00","40760","2.412","229.6","3.789","230.6","1005.7810000000001","13.19","91.3","-1.4769999999999999","0.0"],
    [1403181,"2026-03-14 02:20:00","40761","2.049","232.9","3.626","213.6","1005.584","13.19","91.3","-1.702","0.0"],
    [1403182,"2026-03-14 02:30:00","40762","2.613","231.3","4.312","248.3","1005.426","13.15","91.4","-1.944","0.0"],
    [1403183,"2026-03-14 02:40:00","40763","1.96","235.4","3.561","206.1","1005.416","13.11","91.4","-1.54","0.0"],
    [1403184,"2026-03-14 02:50:00","40764","3.148","226.4","5.031","225.2","1005.175","13.08","91.5","-1.5819999999999999","0.0"],
    [1403185,"2026-03-14 03:00:00","40765","3.41","219.4","4.998","212.8","1004.888","13.15","91.1","-1.341","0.0"],
    [1403186,"2026-03-14 03:10:00","40766","2.92","226.4","4.933","210.4","1004.758","13.11","90.9","-1.314","0.0"],
    [1403187,"2026-03-14 03:20:00","40767","2.036","229.4","3.463","225.2","1004.6080000000001","12.96","90.4","-1.273","0.0"],
    [1403188,"2026-03-14 03:30:00","40768","1.681","230.9","3.071","247.9","1004.5269999999999","12.83","89.9","-1.3030000000000002","0.0"],
    [1403189,"2026-03-14 03:40:00","40769","2.025","227.1","3.267","206.4","1004.44","12.69","89.1","-1.27","0.0"],
    [1403190,"2026-03-14 03:50:00","40770","1.8840000000000001","227.4","2.875","219.5","1004.2310000000001","12.55","88.1","-1.271","0.0"],
    [1403191,"2026-03-14 04:00:00","40771","1.671","283.2","2.973","275.3","1004.0369999999999","12.12","87.2","-1.17","0.0"],
    [1403192,"2026-03-14 04:10:00","40772","1.0659999999999998","270.9","1.927","292","1003.957","11.71","87.9","-1.272","0.0"],
    [1403193,"2026-03-14 04:20:00","40773","0.998","218.0","2.091","224.3","1003.922","11.74","87.6","-1.329","0.0"],
    [1403194,"2026-03-14 04:30:00","40774","1.58","227.2","2.385","197.5","1003.862","12.2","86.4","-1.489","0.0"],
    [1403195,"2026-03-14 04:40:00","40775","1.591","230.4","2.385","225.4","1003.798","12.67","85.6","-1.518","0.0"],
    [1403196,"2026-03-14 04:50:00","40776","1.6340000000000001","221.2","2.417","225.8","1003.788","12.73","84.8","-1.276","0.0"],
    [1403197,"2026-03-14 05:00:00","40777","1.016","244.3","2.809","232.7","1003.7410000000001","12.6","85.3","-1.357","0.0"],
    [1403198,"2026-03-14 05:10:00","40778","2.426","226.0","3.789","244.6","1003.6469999999999","12.64","86.5","-1.351","0.0"],
    [1403199,"2026-03-14 05:20:00","40779","2.5989999999999998","228.9","4.181","226.6","1003.605","12.81","88.2","-1.281","0.0"],
    [1403200,"2026-03-14 05:30:00","40780","2.658","227.7","4.083","233","1003.552","12.91","89.2","-1.264","0.0"],
    [1403201,"2026-03-14 05:40:00","40781","2.5639999999999996","226.9","4.312","216.3","1003.51","12.93","88.9","-1.261","0.0"],
    [1403202,"2026-03-14 05:50:00","40782","2.596","218.1","4.541","197.8","1003.459","12.92","88.5","-1.261","0.0"],
    [1403203,"2026-03-14 06:00:00","40783","2.471","227.4","3.953","238.1","1003.676","13.05","88.7","-1.24","0.0"],
    [1403204,"2026-03-14 06:10:00","40784","1.5590000000000002","249.8","3.463","224.2","1003.685","13.04","88.7","-0.46299999999999997","0.0"],
    [1403205,"2026-03-14 06:20:00","40785","1.217","254.7","2.156","299","1003.5830000000001","12.45","87.5","0.7440000000000001","0.0"],
    [1403206,"2026-03-14 06:30:00","40786","1.7619999999999998","241.5","3.43","202.5","1003.7510000000001","12.2","86.7","1.633","0.0"],
    [1403207,"2026-03-14 06:40:00","40787","1.175","256.9","3.136","222.6","1003.819","12.46","86.2","2.545","0.0"],
    [1403208,"2026-03-14 06:50:00","40788","1.179","276.9","2.45","288.2","1003.795","12.55","86.5","3.165","0.0"],
    [1403209,"2026-03-14 07:00:00","40789","1.052","326.7","2.287","326","1003.7080000000001","12.43","87.2","4.643","0.0"],
    [1403210,"2026-03-14 07:10:00","40790","0.19699999999999998","40.62","1.078","41.9","1003.689","12.46","87.9","8.74","0.0"],
    [1403211,"2026-03-14 07:20:00","40791","0.49200000000000005","161.1","1.241","172.5","1003.882","12.47","88.3","11.24","0.0"],
    [1403212,"2026-03-14 07:30:00","40792","0.307","34.8","1.372","33.88","1003.903","12.57","88.7","11.85","0.0"],
    [1403213,"2026-03-14 07:40:00","40793","1.004","38.15","1.535","34.85","1003.8760000000001","12.56","91.0","12.73","0.0"],
    [1403214,"2026-03-14 07:50:00","40794","0.687","26.41","1.503","24.59","1003.8969999999999","12.54","91.9","14.08","0.0"],
    [1403215,"2026-03-14 08:00:00","40795","1.193","42.27","1.829","30.12","1003.818","12.62","92.2","22.07","0.0"],
    [1403216,"2026-03-14 08:10:00","40796","2.169","50.13","3.234","52.2","1003.802","12.37","91.7","26.74","0.0"],
    [1403217,"2026-03-14 08:20:00","40797","1.785","59.47","2.679","61.19","1003.824","12.35","91.7","42.71","0.0"],
    [1403218,"2026-03-14 08:30:00","40798","2.103","62.29","3.495","82.5","1003.835","12.4","92.0","56.33","0.0"],
    [1403219,"2026-03-14 08:40:00","40799","2.137","66.12","3.136","56.38","1003.8660000000001","12.49","91.0","70.57","0.0"],
    [1403220,"2026-03-14 08:50:00","40800","2.248","72.61","3.757","86.8","1003.878","12.79","91.0","70.37","0.0"],
    [1403221,"2026-03-14 09:00:00","40801","1.945","73.7","3.169","76.39","1003.895","12.61","91.6","63.1","0.0"],
    [1403222,"2026-03-14 09:10:00","40802","2.293","83.1","3.463","85.3","1003.7289999999999","12.63","90.9","87.8","0.0"],
    [1403223,"2026-03-14 09:20:00","40803","1.426","93.7","2.777","84.8","1003.632","12.66","91.5","81.9","0.0"],
    [1403224,"2026-03-14 09:30:00","40804","0.585","103.3","1.437","99.8","1003.552","12.88","91.7","74.85","0.0"],
    [1403225,"2026-03-14 09:40:00","40805","0.414","109.5","1.209","98","1003.5310000000001","12.98","91.7","87.6","0.0"],
    [1403226,"2026-03-14 09:50:00","40806","0.7070000000000001","107.6","1.96","208.3","1003.451","12.93","92.0","104.0","0.0"],
    [1403227,"2026-03-14 10:00:00","40807","1.296","195.3","1.862","222","1003.4169999999999","12.92","90.8","113.6","0.0"],
    [1403228,"2026-03-14 10:10:00","40808","0.748","181.3","1.601","168.2","1003.329","13.04","89.8","110.9","0.0"],
    [1403229,"2026-03-14 10:20:00","40809","0.087","104.0","1.535","99.3","1003.2860000000001","13.07","89.4","100.5","0.0"],
    [1403230,"2026-03-14 10:30:00","40810","0.532","137.6","1.307","99.1","1003.242","13.16","89.3","91.2","0.0"],
    [1403231,"2026-03-14 10:40:00","40811","0.883","219.8","1.96","243.6","1003.285","13.11","89.1","82.0","0.0"],
    [1403232,"2026-03-14 10:50:00","40812","1.7730000000000001","247.1","4.867","274.5","1003.311","13.1","87.9","94.7","0.0"],
    [1403233,"2026-03-14 11:00:00","40813","3.302","301.8","6.991","357.2","1003.451","12.84","82.6","86.5","0.0"],
    [1403234,"2026-03-14 11:10:00","40814","4.8469999999999995","10.57","NAN","357.2","1003.62","11.41","86.4","26.3","0.0"],
    [1403235,"2026-03-14 11:20:00","40815","6.016","52.5","NAN","357.2","1003.903","10.38","91.1","47.11","0.0"],
    [1403236,"2026-03-14 11:30:00","40816","6.367999999999999","70.05","NAN","357.2","1003.873","10.11","92.4","80.1","0.0"],
    [1403237,"2026-03-14 11:40:00","40817","5.59","73.05","8.3","71.09","1003.778","10.32","92.1","104.9","0.0"],
    [1403238,"2026-03-14 11:50:00","40818","6.24","77.03","9.11","82.5","1003.73","10.29","91.6","95.6","0.0"],
    [1403239,"2026-03-14 12:00:00","40819","6.101","79.64","8.72","73.48","1003.757","10.21","90.9","87.2","0.0"],
    [1403240,"2026-03-14 12:10:00","40820","7.132999999999999","77.18","9.7","69.17","1003.633","10.13","90.2","119.5","0.0"],
    [1403241,"2026-03-14 12:20:00","40821","6.652","76.02","9.21","81.3","1003.798","10.13","90.8","187.1","0.0"],
    [1403242,"2026-03-14 12:30:00","40822","5.8229999999999995","74.17","8.26","81.3","1003.811","10.08","90.5","179.1","0.0"],
    [1403243,"2026-03-14 12:40:00","40823","6.313","76.48","8.59","71.93","1003.686","10.06","89.7","179.8","0.0"],
    [1403244,"2026-03-14 12:50:00","40824","6.297000000000001","80.5","8.72","87.6","1003.5889999999999","10.06","88.9","182.0","0.0"],
    [1403245,"2026-03-14 13:00:00","40825","6.042000000000001","81.6","8.92","83.5","1003.581","10.03","87.5","137.9","0.0"],
    [1403246,"2026-03-14 13:10:00","40826","5.745","80.0","8.62","76.72","1003.5889999999999","10.03","86.5","98.0","0.0"],
    [1403247,"2026-03-14 13:20:00","40827","5.77","83.2","8.2","80","1003.423","10.03","85.4","87.4","0.0"],
    [1403248,"2026-03-14 13:30:00","40828","5.766","82.3","7.579","76.47","1003.205","10.11","83.8","96.2","0.0"],
    [1403249,"2026-03-14 13:40:00","40829","4.683","94.1","7.089","83.6","1002.993","10.05","83.1","122.7","0.0"],
    [1403250,"2026-03-14 13:50:00","40830","3.905","97.3","6.631","93","1002.9","10.09","82.0","169.7","0.0"],
    [1403251,"2026-03-14 14:00:00","40831","4.711","92.1","7.285","90.3","1002.98","10.05","81.5","110.4","0.0"],
    [1403252,"2026-03-14 14:10:00","40832","4.547","86.3","6.631","80.3","1003.087","10.11","82.4","51.29","0.0"],
    [1403253,"2026-03-14 14:20:00","40833","4.477","77.34","6.403","79.06","1003.2330000000001","9.98","84.0","15.53","0.0"],
    [1403254,"2026-03-14 14:30:00","40834","4.126","66.17","6.109","69.18","1003.6080000000001","9.84","84.8","8.39","0.0"],
    [1403255,"2026-03-14 14:40:00","40835","3.3480000000000003","51.43","5.521","55.47","1004.047","9.54","88.0","9.72","0.0"],
    [1403256,"2026-03-14 14:50:00","40836","1.9880000000000002","116.8","4.051","90.8","1003.654","8.88","92.4","19.76","0.0"],
    [1403257,"2026-03-14 15:00:00","40837","2.128","112.8","5.292","93.4","1002.8910000000001","8.72","93.7","58.66","0.0"],
    [1403258,"2026-03-14 15:10:00","40838","2.6639999999999997","99.4","5.455","92","1002.9830000000001","9.17","91.9","205.4","0.0"],
    [1403259,"2026-03-14 15:20:00","40839","4.04","91.9","6.109","111.2","1003.166","9.85","88.2","335.3","0.0"],
    [1403260,"2026-03-14 15:30:00","40840","3.153","93.1","6.076","74.66","1003.311","10.14","84.7","210.3","0.0"],
    [1403261,"2026-03-14 15:40:00","40841","5.05","84.7","7.154","81.6","1003.1469999999999","10.12","83.0","148.5","0.0"],
    [1403262,"2026-03-14 15:50:00","40842","4.7410000000000005","85.7","6.827","83.6","1003.232","10.08","81.7","90.2","0.0"],
    [1403263,"2026-03-14 16:00:00","40843","3.946","89.1","6.435","92.7","1003.13","10.16","79.32","62.73","0.0"],
    [1403264,"2026-03-14 16:10:00","40844","5.169","79.79","8.56","73.53","1003.15","10.06","79.73","30.41","0.0"],
    [1403265,"2026-03-14 16:20:00","40845","5.317","74.38","7.644","74.74","1003.235","9.72","82.5","40.61","0.0"],
    [1403266,"2026-03-14 16:30:00","40846","4.423","72.89","6.305","80.9","1003.452","9.53","82.1","21.17","0.0"],
    [1403267,"2026-03-14 16:40:00","40847","4.171","66.09","5.586","62.61","1003.67","9.63","80.0","32.69","0.0"],
    [1403268,"2026-03-14 16:50:00","40848","4.301","62.5","6.305","61.27","1003.895","9.61","83.7","11.19","0.0"],
    [1403269,"2026-03-14 17:00:00","40849","4.874","59.64","7.023","60.41","1004.0939999999999","9.21","85.5","11.98","0.0"],
    [1403270,"2026-03-14 17:10:00","40850","4.768","57.37","8.1","60.39","1004.14","9.11","84.7","22.46","0.0"],
    [1403271,"2026-03-14 17:20:00","40851","5.086","66.55","6.925","69.28","1003.721","9.12","85.1","23.27","0.0"],
    [1403272,"2026-03-14 17:30:00","40852","4.555","57.03","6.827","66.04","1003.552","9.15","85.8","10.72","0.0"],
    [1403273,"2026-03-14 17:40:00","40853","3.833","24.7","7.056","6.357","1004.2289999999999","9.1","86.9","0.752","0.0"],
    [1403274,"2026-03-14 17:50:00","40854","3.905","64.47","5.521","66.35","1003.975","8.5","91.9","1.068","0.0"],
    [1403275,"2026-03-14 18:00:00","40855","2.862","57.03","5.096","69.56","1004.143","8.51","92.2","-0.217","0.0"],
    [1403276,"2026-03-14 18:10:00","40856","0.835","327.5","2.45","24.96","1004.445","8.31","90.5","-0.537","0.0"],
    [1403277,"2026-03-14 18:20:00","40857","0.22399999999999998","294.8","1.437","288.9","1004.2560000000001","8.32","89.3","-1.0490000000000002","0.0"],
    [1403278,"2026-03-14 18:30:00","40858","0.5670000000000001","256.5","1.405","222.6","1004.283","8.37","89.2","-1.26","0.0"],
    [1403279,"2026-03-14 18:40:00","40859","0.843","168.0","2.842","217.1","1004.26","8.46","88.4","-1.238","0.0"],
    [1403280,"2026-03-14 18:50:00","40860","1.5290000000000001","251.8","3.789","203.1","1004.148","8.65","88.5","-0.71","0.0"],
    [1403281,"2026-03-14 19:00:00","40861","2.0069999999999997","279.1","3.397","267.9","1004.3439999999999","8.54","89.6","-0.375","0.0"],
    [1403282,"2026-03-14 19:10:00","40862","2.197","311.0","3.953","303.8","1004.645","8.29","90.2","0.095","0.0"],
    [1403283,"2026-03-14 19:20:00","40863","1.4680000000000002","276.6","3.201","210","1004.4789999999999","8.11","89.7","-0.282","0.0"],
    [1403284,"2026-03-14 19:30:00","40864","2.6010000000000004","229.7","3.92","223.7","1004.207","8.26","89.1","-0.679","0.0"],
    [1403285,"2026-03-14 19:40:00","40865","2.532","229.7","3.92","209.2","1004.1289999999999","8.13","89.1","-1.42","0.0"],
    [1403286,"2026-03-14 19:50:00","40866","2.329","249.6","4.345","286.3","1004.238","7.973","88.8","-2.02","0.0"],
    [1403287,"2026-03-14 20:00:00","40867","1.291","254.4","2.907","222.5","1004.414","7.846","88.2","-2.231","0.0"],
    [1403288,"2026-03-14 20:10:00","40868","1.469","266.6","2.94","268.6","1004.575","7.772","88.0","-2.487","0.0"],
    [1403289,"2026-03-14 20:20:00","40869","1.01","263.6","2.221","263.2","1004.747","7.61","87.5","-2.21","0.0"],
    [1403290,"2026-03-14 20:30:00","40870","0.978","238.9","2.091","231.9","1004.8939999999999","7.617999999999999","87.3","-2.675","0.0"],
    [1403291,"2026-03-14 20:40:00","40871","0.36","252.1","1.241","292.3","1004.988","7.622000000000001","87.0","-2.7","0.0"],
    [1403292,"2026-03-14 20:50:00","40872","0.775","268.5","2.058","289.4","1005.065","7.61","87.2","-2.758","0.0"],
    [1403293,"2026-03-14 21:00:00","40873","1.284","301.1","2.254","310.1","1005.1489999999999","7.574","87.6","-2.69","0.0"],
    [1403294,"2026-03-14 21:10:00","40874","1.787","293.4","2.613","280.1","1005.199","7.3839999999999995","88.5","-2.7560000000000002","0.0"],
    [1403295,"2026-03-14 21:20:00","40875","1.624","285.6","2.581","278.1","1005.2689999999999","7.312","88.9","-2.736","0.0"],
    [1403296,"2026-03-14 21:30:00","40876","1.5390000000000001","279.9","2.679","275.1","1005.33","7.437","88.6","-2.77","0.0"],
    [1403297,"2026-03-14 21:40:00","40877","1.166","260.5","2.221","293.3","1005.422","7.446000000000001","87.7","-2.783","0.0"],
    [1403298,"2026-03-14 21:50:00","40878","1.591","260.1","2.907","233","1005.452","7.505","87.4","-2.767","0.0"],
    [1403299,"2026-03-14 22:00:00","40879","1.58","264.4","3.103","226.2","1005.557","7.489","87.2","-2.781","0.0"],
    [1403300,"2026-03-14 22:10:00","40880","1.8090000000000002","259.0","3.071","284.9","1005.6060000000001","7.686","87.1","-2.783","0.0"],
    [1403301,"2026-03-14 22:20:00","40881","1.765","248.3","3.169","265.8","1005.508","7.747999999999999","87.0","-2.784","0.0"],
    [1403302,"2026-03-14 22:30:00","40882","1.472","261.7","2.809","269.3","1005.5310000000001","7.518","87.7","-2.7710000000000004","0.0"],
    [1403303,"2026-03-14 22:40:00","40883","1.025","268.7","2.417","275.6","1005.477","7.263","88.9","-2.7769999999999997","0.0"],
    [1403304,"2026-03-14 22:50:00","40884","1.331","281.5","2.777","297.9","1005.3560000000001","7.017","89.5","-2.782","0.0"],
    [1403305,"2026-03-14 23:00:00","40885","1.859","294.4","3.593","308.4","1005.3919999999999","6.836","90.4","-2.785","0.0"],
    [1403306,"2026-03-14 23:10:00","40886","1.511","282.4","2.842","279","1005.419","6.932","90.7","-2.782","0.0"],
    [1403307,"2026-03-14 23:20:00","40887","1.27","281.4","2.417","297.9","1005.51","6.794","90.8","-2.784","0.0"],
    [1403308,"2026-03-14 23:30:00","40888","0.68","273.2","1.731","265.2","1005.5210000000001","6.829","91.0","-2.798","0.0"],
    [1403309,"2026-03-14 23:40:00","40889","0.373","302.1","3.267","314.7","1005.584","6.856","90.8","-2.96","0.0"],
    [1403310,"2026-03-14 23:50:00","40890","2.275","300.8","4.214","307.6","1005.6160000000001","7.114","89.3","-3.491","0.0"],
    [1403311,"2026-03-15 00:00:00","40891","2.887","298.8","4.639","324.6","1005.57","7.494","85.8","-3.4","0.0"],
    [1403312,"2026-03-15 00:10:00","40892","3.967","305.0","5.488","322.6","1005.6039999999999","7.81","83.1","-3.5460000000000003","0.0"],
    [1403313,"2026-03-15 00:20:00","40893","2.9010000000000002","303.2","5.063","313.2","1005.582","7.872999999999999","79.6","-3.352","0.0"],
    [1403314,"2026-03-15 00:30:00","40894","2.8080000000000003","309.9","5.161","305.9","1005.552","7.737","75.7","-3.59","0.0"],
    [1403315,"2026-03-15 00:40:00","40895","4.104","315.0","7.513","307.7","1005.582","7.906000000000001","68.8","-4.126","0.0"],
    [1403316,"2026-03-15 00:50:00","40896","3.957","310.7","6.337","304.8","1005.6569999999999","7.886","67.16","-3.6319999999999997","0.0"],
    [1403317,"2026-03-15 01:00:00","40897","3.8489999999999998","320.5","5.684","314.5","1005.7139999999999","7.983","63.87","-3.536","0.0"],
    [1403318,"2026-03-15 01:10:00","40898","3.611","331.2","5.39","330.1","1005.753","8.17","59.93","-3.386","0.0"],
    [1403319,"2026-03-15 01:20:00","40899","3.388","329.4","5.325","334.6","1005.8389999999999","8.25","56.93","-2.8930000000000002","0.0"],
    [1403320,"2026-03-15 01:30:00","40900","3.323","329.5","4.835","328.4","1005.703","8.43","53.47","-2.826","0.0"],
    [1403321,"2026-03-15 01:40:00","40901","1.871","348.5","3.397","349.8","1005.6139999999999","8.33","53.11","-2.7939999999999996","0.0"],
    [1403322,"2026-03-15 01:50:00","40902","1.7590000000000001","338.9","3.463","332.9","1005.57","8.02","53.61","-2.792","0.0"],
    [1403323,"2026-03-15 02:00:00","40903","2.147","338.3","3.593","338.9","1005.515","7.612","55.34","-2.853","0.0"],
    [1403324,"2026-03-15 02:10:00","40904","3.181","350.4","5.129","343.7","1005.56","7.6579999999999995","53.81","-2.859","0.0"],
    [1403325,"2026-03-15 02:20:00","40905","4.144","337.8","6.501","338.3","1005.552","7.912000000000001","51.85","-3.055","0.0"],
    [1403326,"2026-03-15 02:30:00","40906","4.686","336.7","6.599","329.4","1005.425","8.08","51.1","-2.906","0.0"],
    [1403327,"2026-03-15 02:40:00","40907","4.25","337.7","6.076","344.1","1005.346","8.17","51.1","-2.873","0.0"],
    [1403328,"2026-03-15 02:50:00","40908","4.466","329.3","6.795","328.4","1005.377","8.04","51.86","-2.803","0.0"],
    [1403329,"2026-03-15 03:00:00","40909","3.373","311.2","4.737","311.9","1005.388","7.605","53.86","-2.815","0.0"],
    [1403330,"2026-03-15 03:10:00","40910","2.957","309.9","4.41","299.1","1005.4680000000001","7.593","52.4","-3.1830000000000003","0.0"],
    [1403331,"2026-03-15 03:20:00","40911","2.199","304.9","3.593","308.1","1005.485","7.645","52.55","-3.089","0.0"],
    [1403332,"2026-03-15 03:30:00","40912","1.4169999999999998","342.5","2.744","334.7","1005.382","6.542000000000001","60.86","-3.472","0.0"],
    [1403333,"2026-03-15 03:40:00","40913","1.999","338.2","3.071","301.4","1005.46","6.486000000000001","60.65","-3.593","0.0"],
    [1403334,"2026-03-15 03:50:00","40914","2.316","307.2","3.822","321.3","1005.443","6.185","62.91","-2.93","0.0"],
    [1403335,"2026-03-15 04:00:00","40915","2.705","309.3","3.887","308","1005.422","6.24","61.91","-3.1319999999999997","0.0"],
    [1403336,"2026-03-15 04:10:00","40916","2.154","307.6","3.528","311.5","1005.4860000000001","5.939","64.05","-2.927","0.0"],
    [1403337,"2026-03-15 04:20:00","40917","1.69","292.9","2.548","300.8","1005.515","5.271","69.32","-2.822","0.0"],
    [1403338,"2026-03-15 04:30:00","40918","1.925","310.1","3.071","312.7","1005.6189999999999","4.869","73.1","-3.1210000000000004","0.0"],
    [1403339,"2026-03-15 04:40:00","40919","1.754","325.2","2.679","329","1005.732","4.948","72.91","-3.0869999999999997","0.0"],
    [1403340,"2026-03-15 04:50:00","40920","1.527","322.5","2.613","320.9","1005.763","5.245","70.65","-2.859","0.0"],
    [1403341,"2026-03-15 05:00:00","40921","2.412","318.4","3.528","310.7","1005.748","5.8020000000000005","64.86","-3.11","0.0"],
    [1403342,"2026-03-15 05:10:00","40922","2.46","296.0","3.463","308","1005.7539999999999","5.284","67.9","-2.8","0.0"],
    [1403343,"2026-03-15 05:20:00","40923","2.891","293.7","4.345","287.1","1005.675","5.3260000000000005","68.02","-2.91","0.0"],
    [1403344,"2026-03-15 05:30:00","40924","2.719","312.2","4.508","327.6","1005.763","5.3389999999999995","68.5","-2.799","0.0"],
    [1403345,"2026-03-15 05:40:00","40925","3.477","299.9","6.207","318.8","1005.8","5.84","64.11","-3.1319999999999997","0.0"],
    [1403346,"2026-03-15 05:50:00","40926","4.3660000000000005","302.3","6.468","295.4","1005.837","6.57","58.32","-3.071","0.0"],
    [1403347,"2026-03-15 06:00:00","40927","5.394","304.4","8.89","312.1","1005.75","6.879","56.29","-1.374","0.0"],
    [1403348,"2026-03-15 06:10:00","40928","5.555","302.3","8.66","280.8","1005.77","6.75","57.48","2.258","0.0"],
    [1403349,"2026-03-15 06:20:00","40929","5.266","299.5","8.72","295.2","1005.791","6.711","57.86","8.39","0.0"],
    [1403350,"2026-03-15 06:30:00","40930","4.968999999999999","295.2","7.873","304.6","1005.8430000000001","6.7410000000000005","58.14","31.82","0.0"],
    [1403351,"2026-03-15 06:40:00","40931","4.355","296.2","6.991","306.4","1005.872","6.737","59.05","60.07","0.0"],
    [1403352,"2026-03-15 06:50:00","40932","4.637","295.2","7.415","289.6","1005.8389999999999","6.925","58.4","88.5","0.0"],
    [1403353,"2026-03-15 07:00:00","40933","4.658","292.4","7.35","298.2","1005.954","7.212000000000001","57.38","119.3","0.0"],
    [1403354,"2026-03-15 07:10:00","40934","5.332999999999999","297.2","8.26","311.9","1005.966","7.693","54.49","151.8","0.0"],
    [1403355,"2026-03-15 07:20:00","40935","4.567","299.5","7.938","301.3","1005.87","7.938","54.1","185.1","0.0"],
    [1403356,"2026-03-15 07:30:00","40936","4.405","295.3","7.415","294.4","1005.747","8.2","53.93","209.4","0.0"],
    [1403357,"2026-03-15 07:40:00","40937","4.417","291.1","7.317","296.2","1005.632","8.51","52.82","242.7","0.0"],
    [1403358,"2026-03-15 07:50:00","40938","3.9189999999999996","293.5","6.631","320","1005.693","8.85","51.92","288.4","0.0"],
    [1403359,"2026-03-15 08:00:00","40939","3.818","297.7","6.403","279.8","1005.727","9.37","50.23","323.1","0.0"],
    [1403360,"2026-03-15 08:10:00","40940","4.287","302.3","7.089","310","1005.7","9.81","48.52","357.2","0.0"],
    [1403361,"2026-03-15 08:20:00","40941","4.933","300.3","8.46","298.9","1005.4830000000001","10.22","46.46","391.0","0.0"],
    [1403362,"2026-03-15 08:30:00","40942","4.421","296.0","8.13","300.4","1005.431","10.8","44.28","422.4","0.0"],
    [1403363,"2026-03-15 08:40:00","40943","3.821","287.2","6.337","296.8","1005.477","11.37","41.8","453.3","0.0"],
    [1403364,"2026-03-15 08:50:00","40944","4.426","294.6","8.07","279.4","1005.5189999999999","11.8","41.39","485.0","0.0"],
    [1403365,"2026-03-15 09:00:00","40945","5.64","293.2","9.02","306.2","1005.485","12.07","38.58","516.7","0.0"],
    [1403366,"2026-03-15 09:10:00","40946","5.472","293.8","8.72","302.9","1005.4789999999999","12.43","37.14","547.2","0.0"],
    [1403367,"2026-03-15 09:20:00","40947","5.444","293.7","9.31","300.4","1005.538","12.81","35.85","566.3","0.0"],
    [1403368,"2026-03-15 09:30:00","40948","5.24","293.7","8.59","305.3","1005.485","13.16","34.97","586.6","0.0"],
    [1403369,"2026-03-15 09:40:00","40949","5.796","293.7","9.18","295.5","1005.523","13.43","33.94","519.6","0.0"],
    [1403370,"2026-03-15 09:50:00","40950","5.069","285.5","8.2","286.3","1005.49","13.53","32.78","644.6","0.0"],
    [1403371,"2026-03-15 10:00:00","40951","6.292000000000001","295.0","9.77","300.4","1005.585","13.9","31.8","670.7","0.0"],
    [1403372,"2026-03-15 10:10:00","40952","5.395","297.5","9.08","297.1","1005.627","14.21","31.39","687.2","0.0"],
    [1403373,"2026-03-15 10:20:00","40953","5.33","290.2","9.05","297.2","1005.567","14.6","29.59","708.2","0.0"],
    [1403374,"2026-03-15 10:30:00","40954","4.454","279.5","9.67","286.4","1005.679","14.86","27.97","724.4","0.0"],
    [1403375,"2026-03-15 10:40:00","40955","4.659","279.9","8.4","288.1","1005.6310000000001","15.18","27.24","739.7","0.0"],
    [1403376,"2026-03-15 10:50:00","40956","4.242","280.1","6.925","277.7","1005.627","15.54","25.42","753.6","0.0"],
    [1403377,"2026-03-15 11:00:00","40957","4.232","277.2","8.3","293.8","1005.704","15.72","23.8","766.4","0.0"],
    [1403378,"2026-03-15 11:10:00","40958","3.924","273.8","7.971","294.1","1005.7510000000001","16.2","22.68","771.9","0.0"],
    [1403379,"2026-03-15 11:20:00","40959","2.983","278.1","5.978","266.3","1005.7280000000001","16.49","23.03","778.1","0.0"],
    [1403380,"2026-03-15 11:30:00","40960","3.912","287.0","7.023","285.2","1005.7860000000001","16.79","21.32","786.8","0.0"],
    [1403381,"2026-03-15 11:40:00","40961","4.633","281.5","7.873","289","1005.7280000000001","17.0","20.46","789.2","0.0"],
    [1403382,"2026-03-15 11:50:00","40962","3.8139999999999996","290.0","6.925","258.4","1005.6419999999999","17.16","21.18","801.0","0.0"],
    [1403383,"2026-03-15 12:00:00","40963","3.784","325.4","7.219","328.4","1005.794","17.57","17.84","811.0","0.0"],
    [1403384,"2026-03-15 12:10:00","40964","3.2489999999999997","329.2","6.468","308.2","1005.883","17.81","17.26","806.0","0.0"],
    [1403385,"2026-03-15 12:20:00","40965","3.1189999999999998","318.4","5.521","327.8","1005.925","17.84","16.67","803.0","0.0"],
    [1403386,"2026-03-15 12:30:00","40966","3.1719999999999997","334.3","6.239","339.6","1005.8889999999999","17.96","17.5","798.3","0.0"],
    [1403387,"2026-03-15 12:40:00","40967","3.58","304.9","6.141","296.8","1005.8710000000001","18.24","16.76","793.2","0.0"],
    [1403388,"2026-03-15 12:50:00","40968","2.274","3.365","6.109","311.3","1006.0260000000001","18.32","16.51","794.7","0.0"],
    [1403389,"2026-03-15 13:00:00","40969","1.946","14.14","4.345","328.5","1006.0930000000001","18.7","17.57","797.9","0.0"],
    [1403390,"2026-03-15 13:10:00","40970","2.7110000000000003","90.2","6.239","115.9","1006.198","18.02","17.21","593.0","0.0"],
    [1403391,"2026-03-15 13:20:00","40971","1.7619999999999998","108.9","4.998","133.2","1006.298","17.69","20.97","669.2","0.0"],
    [1403392,"2026-03-15 13:30:00","40972","3.7430000000000003","104.6","6.141","108.5","1006.437","17.26","24.69","745.7","0.0"],
    [1403393,"2026-03-15 13:40:00","40973","2.903","111.3","5.782","116.9","1006.434","16.95","25.21","735.1","0.0"],
    [1403394,"2026-03-15 13:50:00","40974","2.431","122.8","5.031","110.1","1006.505","17.32","23.48","713.1","0.0"],
    [1403395,"2026-03-15 14:00:00","40975","2.222","125.0","4.933","123.1","1006.5939999999999","17.14","25.68","692.2","0.0"],
    [1403396,"2026-03-15 14:10:00","40976","1.3519999999999999","129.2","3.985","106.4","1006.6460000000001","17.64","25.34","754.9","0.0"],
    [1403397,"2026-03-15 14:20:00","40977","2.073","126.4","5.325","118.5","1006.697","17.06","25.44","414.8","0.0"],
    [1403398,"2026-03-15 14:30:00","40978","1.2890000000000001","131.0","4.573","140.9","1006.809","16.37","28.74","362.4","0.0"],
    [1403399,"2026-03-15 14:40:00","40979","1.7269999999999999","135.6","5.194","137.9","1006.898","16.93","26.06","487.7","0.0"],
    [1403400,"2026-03-15 14:50:00","40980","1.436","117.5","5.194","137.9","1006.957","17.15","25.85","655.7","0.0"],
    [1403401,"2026-03-15 15:00:00","40981","2.747","161.2","6.893","169.1","1007.166","17.16","26.93","609.2","0.0"],
    [1403402,"2026-03-15 15:10:00","40982","2.878","163.8","6.86","187.7","1007.301","16.75","30.75","369.6","0.0"],
    [1403403,"2026-03-15 15:20:00","40983","3.32","167.1","6.337","156.4","1007.3889999999999","16.13","34.89","261.0","0.0"],
    [1403404,"2026-03-15 15:30:00","40984","2.551","164.5","5.259","164.2","1007.528","16.04","35.17","214.1","0.0"],
    [1403405,"2026-03-15 15:40:00","40985","3.2489999999999997","164.7","6.468","169.9","1007.773","15.89","36.69","176.0","0.0"],
    [1403406,"2026-03-15 15:50:00","40986","2.112","165.8","3.953","167.6","1007.925","15.78","38.22","175.3","0.0"],
    [1403407,"2026-03-15 16:00:00","40987","1.985","156.3","4.769","151","1008.1510000000001","15.82","36.99","168.1","0.0"],
    [1403408,"2026-03-15 16:10:00","40988","1.16","162.6","4.051","211.4","1008.248","15.95","37.21","169.8","0.0"],
    [1403409,"2026-03-15 16:20:00","40989","1.49","143.7","4.802","184","1008.4680000000001","15.92","38.08","160.5","0.0"],
    [1403410,"2026-03-15 16:30:00","40990","1.52","133.5","4.933","120.1","1008.6030000000001","15.8","39.42","171.4","0.0"],
    [1403411,"2026-03-15 16:40:00","40991","0.825","135.3","3.495","162.2","1008.811","15.9","41.3","136.5","0.0"],
    [1403412,"2026-03-15 16:50:00","40992","1.956","123.5","4.377","134.3","1008.952","15.82","40.26","181.4","0.0"],
    [1403413,"2026-03-15 17:00:00","40993","1.757","122.0","4.965","131.9","1009.2230000000001","15.86","42.08","158.9","0.0"],
    [1403414,"2026-03-15 17:10:00","40994","1.702","111.0","3.659","108.8","1009.4169999999999","15.78","42.32","148.5","0.0"],
    [1403415,"2026-03-15 17:20:00","40995","1.274","114.9","3.136","68.42","1009.689","15.79","39.03","75.17","0.0"],
    [1403416,"2026-03-15 17:30:00","40996","1.3330000000000002","116.3","3.495","99.5","1009.918","15.51","39.47","37.13","0.0"],
    [1403417,"2026-03-15 17:40:00","40997","0.728","146.1","2.515","127.3","1010.203","15.27","40.89","26.23","0.0"],
    [1403418,"2026-03-15 17:50:00","40998","0.741","127.1","3.038","131.8","1010.395","15.19","41.49","16.53","0.0"],
    [1403419,"2026-03-15 18:00:00","40999","0.971","169.3","2.744","126.7","1010.569","15.03","43.18","5.315","0.0"],
    [1403420,"2026-03-15 18:10:00","41000","1.2819999999999998","184.4","2.613","164.4","1010.834","14.95","47.0","-0.054000000000000006","0.0"],
    [1403421,"2026-03-15 18:20:00","41001","1.182","169.9","2.385","177.7","1011.051","14.93","47.59","-1.272","0.0"],
    [1403422,"2026-03-15 18:30:00","41002","0.8079999999999999","186.8","1.699","227","1011.212","14.96","46.78","-1.6640000000000001","0.0"],
    [1403423,"2026-03-15 18:40:00","41003","1.004","246.4","1.993","298.5","1011.57","14.79","49.48","-1.739","0.0"],
    [1403424,"2026-03-15 18:50:00","41004","1.1420000000000001","247.7","2.744","274.3","1011.8389999999999","14.58","49.69","-1.5419999999999998","0.0"],
    [1403425,"2026-03-15 19:00:00","41005","1.2329999999999999","244.9","2.483","256","1012.0360000000001","14.55","47.2","-1.9340000000000002","0.0"],
    [1403426,"2026-03-15 19:10:00","41006","1.148","227.5","1.927","228","1012.1510000000001","14.46","49.16","-1.3840000000000001","0.0"],
    [1403427,"2026-03-15 19:20:00","41007","0.934","235.7","1.633","254.8","1012.294","14.5","47.48","-1.56","0.0"],
    [1403428,"2026-03-15 19:30:00","41008","1.035","237.2","2.221","241.3","1012.518","14.51","47.1","-1.484","0.0"],
    [1403429,"2026-03-15 19:40:00","41009","0.7020000000000001","252.8","1.927","248","1012.672","14.4","47.87","-1.499","0.0"],
    [1403430,"2026-03-15 19:50:00","41010","1.033","237.1","1.927","234.8","1012.8560000000001","14.33","47.68","-1.453","0.0"],
    [1403431,"2026-03-15 20:00:00","41011","1.217","235.1","2.417","240","1013.072","14.22","46.68","-1.3419999999999999","0.0"],
    [1403432,"2026-03-15 20:10:00","41012","1.193","235.6","2.156","246","1013.225","14.17","45.61","-1.351","0.0"],
    [1403433,"2026-03-15 20:20:00","41013","0.858","246.1","1.862","257","1013.429","14.1","45.53","-1.421","0.0"],
    [1403434,"2026-03-15 20:30:00","41014","1.083","266.9","2.515","277.5","1013.6139999999999","14.05","44.83","-1.716","0.0"],
    [1403435,"2026-03-15 20:40:00","41015","0.847","248.9","1.47","251","1013.7660000000001","14.14","42.83","-1.334","0.0"],
    [1403436,"2026-03-15 20:50:00","41016","0.9440000000000001","246.2","2.025","258.4","1013.955","14.2","42.45","-1.4169999999999998","0.0"],
    [1403437,"2026-03-15 21:00:00","41017","1.16","240.4","2.385","260.4","1014.065","14.19","42.21","-1.518","0.0"],
    [1403438,"2026-03-15 21:10:00","41018","1.449","236.9","2.254","248.2","1014.174","14.23","41.67","-1.916","0.0"],
    [1403439,"2026-03-15 21:20:00","41019","1.459","251.1","2.679","244","1014.295","14.11","41.08","-2.017","0.0"],
    [1403440,"2026-03-15 21:30:00","41020","2.001","271.3","3.43","277.5","1014.525","13.73","41.39","-2.0069999999999997","0.0"],
    [1403441,"2026-03-15 21:40:00","41021","1.676","273.8","2.907","271.9","1014.7130000000001","13.17","45.27","-2.01","0.0"],
    [1403442,"2026-03-15 21:50:00","41022","1.8719999999999999","275.8","3.561","281.2","1014.8330000000001","12.67","47.05","-2.05","0.0"],
    [1403443,"2026-03-15 22:00:00","41023","1.876","265.6","3.463","287.2","1014.982","12.74","44.58","-2.0340000000000003","0.0"],
    [1403444,"2026-03-15 22:10:00","41024","1.814","295.7","3.365","304.8","1015.084","12.57","44.9","-2.0669999999999997","0.0"],
    [1403445,"2026-03-15 22:20:00","41025","1.469","291.2","2.646","309.8","1015.173","12.47","43.19","-2.792","0.0"],
    [1403446,"2026-03-15 22:30:00","41026","0.934","264.5","1.862","286","1015.1510000000001","12.56","43.29","-3.238","0.0"],
    [1403447,"2026-03-15 22:40:00","41027","1.044","275.2","2.025","269.3","1015.263","11.78","48.38","-3.545","0.0"],
    [1403448,"2026-03-15 22:50:00","41028","1.0270000000000001","274.0","2.025","270.2","1015.2919999999999","11.15","50.68","-3.833","0.0"],
    [1403449,"2026-03-15 23:00:00","41029","0.965","272.1","1.862","308.6","1015.314","10.94","50.08","-3.5639999999999996","0.0"],
    [1403450,"2026-03-15 23:10:00","41030","0.513","272.2","1.797","286.2","1015.322","10.57","49.74","-3.657","0.0"],
    [1403451,"2026-03-15 23:20:00","41031","0.599","289.2","1.274","307.8","1015.4739999999999","10.16","50.65","-3.636","0.0"],
    [1403452,"2026-03-15 23:30:00","41032","1.403","285.7","2.156","289.2","1015.4789999999999","10.24","44.52","-3.898","0.0"],
    [1403453,"2026-03-15 23:40:00","41033","0.968","281.6","1.797","268.5","1015.503","10.44","42.4","-3.495","0.0"],
    [1403454,"2026-03-15 23:50:00","41034","1.012","274.2","1.633","270.6","1015.444","9.75","47.97","-3.58","0.0"],
    [1403455,"2026-03-16 00:00:00","41035","1.24","277.1","2.417","267.9","1015.5160000000001","9.27","51.75","-3.529","0.0"],
    [1403456,"2026-03-16 00:10:00","41036","1.193","280.3","2.483","272.7","1015.585","8.84","53.89","-3.484","0.0"],
    [1403457,"2026-03-16 00:20:00","41037","1.12","284.6","1.993","286.6","1015.75","8.64","51.51","-3.6830000000000003","0.0"],
    [1403458,"2026-03-16 00:30:00","41038","1.236","290.5","1.862","297.3","1015.7860000000001","8.62","49.17","-3.525","0.0"],
    [1403459,"2026-03-16 00:40:00","41039","2.064","303.3","3.299","316.4","1015.9119999999999","8.17","49.87","-3.5439999999999996","0.0"],
    [1403460,"2026-03-16 00:50:00","41040","1.895","306.1","2.842","322.3","1016.018","8.32","47.29","-3.45","0.0"],
    [1403461,"2026-03-16 01:00:00","41041","2.524","324.7","3.659","329.1","1016.13","8.91","40.99","-3.622","0.0"],
    [1403462,"2026-03-16 01:10:00","41042","2.904","321.0","4.606","325.1","1016.284","9.88","33.49","-3.554","0.0"],
    [1403463,"2026-03-16 01:20:00","41043","2.9219999999999997","316.5","4.41","323.6","1016.436","10.34","28.69","-3.5610000000000004","0.0"],
    [1403464,"2026-03-16 01:30:00","41044","3.8739999999999997","317.6","7.023","319","1016.534","10.66","27.22","-3.6919999999999997","0.0"],
    [1403465,"2026-03-16 01:40:00","41045","3.565","318.2","6.403","314.7","1016.6030000000001","10.57","27.87","-3.258","0.0"],
    [1403466,"2026-03-16 01:50:00","41046","3.21","317.7","5.292","333.2","1016.3969999999999","10.51","28.42","-3.134","0.0"],
    [1403467,"2026-03-16 02:00:00","41047","3.222","317.8","5.259","331.6","1016.3889999999999","10.22","30.23","-3.139","0.0"],
    [1403468,"2026-03-16 02:10:00","41048","3.448","320.4","5.161","316.9","1016.513","10.07","31.48","-3.1319999999999997","0.0"],
    [1403469,"2026-03-16 02:20:00","41049","4.335","310.3","7.121","304.8","1016.591","10.1","33.35","-3.1289999999999996","0.0"],
    [1403470,"2026-03-16 02:30:00","41050","4.1610000000000005","316.8","6.893","314.7","1016.6669999999999","10.09","34.88","-2.8489999999999998","0.0"],
    [1403471,"2026-03-16 02:40:00","41051","3.32","315.4","4.867","327.5","1016.633","9.91","36.22","-2.886","0.0"],
    [1403472,"2026-03-16 02:50:00","41052","2.842","302.0","4.639","306.8","1016.7289999999999","9.62","37.08","-3.071","0.0"],
    [1403473,"2026-03-16 03:00:00","41053","3.4730000000000003","301.4","6.337","313","1016.845","9.52","37.29","-3.31","0.0"],
    [1403474,"2026-03-16 03:10:00","41054","4.566","310.2","7.187","316.3","1016.945","9.74","38.4","-2.96","0.0"],
    [1403475,"2026-03-16 03:20:00","41055","4.163","313.8","6.174","331.9","1016.8919999999999","9.64","40.08","-2.775","0.0"],
    [1403476,"2026-03-16 03:30:00","41056","4.155","317.7","7.187","310.3","1016.8760000000001","9.6","39.43","-2.9730000000000003","0.0"],
    [1403477,"2026-03-16 03:40:00","41057","4.436","312.9","7.644","320.4","1016.913","9.54","41.25","-2.8369999999999997","0.0"],
    [1403478,"2026-03-16 03:50:00","41058","5.038","311.7","7.219","322","1016.8380000000001","9.47","43.07","-2.9189999999999996","0.0"],
    [1403479,"2026-03-16 04:00:00","41059","4.675","315.9","7.742","322.1","1016.868","9.39","44.38","-2.858","0.0"],
    [1403480,"2026-03-16 04:10:00","41060","4.724","315.6","7.252","319.3","1016.806","9.38","44.88","-3.035","0.0"],
    [1403481,"2026-03-16 04:20:00","41061","5.043","313.4","7.089","325.1","1016.789","9.24","46.21","-2.7760000000000002","0.0"],
    [1403482,"2026-03-16 04:30:00","41062","4.667","314.7","6.827","309.4","1016.762","9.14","46.96","-2.819","0.0"],
    [1403483,"2026-03-16 04:40:00","41063","3.8139999999999996","307.7","5.815","317.3","1016.773","8.99","47.5","-3.032","0.0"],
    [1403484,"2026-03-16 04:50:00","41064","4.427","307.3","6.827","303.7","1017.1569999999999","9.01","47.66","-3.137","0.0"],
    [1403485,"2026-03-16 05:00:00","41065","5.901","310.6","9.51","317.7","1017.453","9.05","48.55","-3.0069999999999997","0.0"],
    [1403486,"2026-03-16 05:10:00","41066","5.832000000000001","310.4","10.06","315.4","1017.837","9.12","49.19","-2.779","0.0"],
    [1403487,"2026-03-16 05:20:00","41067","4.187","299.9","6.86","310.2","1017.812","8.72","51.53","-2.824","0.0"],
    [1403488,"2026-03-16 05:30:00","41068","3.8789999999999996","298.2","6.043","312","1017.837","8.5","52.72","-2.8280000000000003","0.0"],
    [1403489,"2026-03-16 05:40:00","41069","3.9","293.4","6.664","293.1","1017.835","8.42","51.02","-2.903","0.0"],
    [1403490,"2026-03-16 05:50:00","41070","3.5810000000000004","298.4","6.533","283.7","1017.8889999999999","8.27","49.74","-2.7460000000000004","0.0"],
    [1403491,"2026-03-16 06:00:00","41071","3.883","294.5","5.782","315.2","1017.8760000000001","8.2","49.62","-1.008","0.0"],
    [1403492,"2026-03-16 06:10:00","41072","3.96","291.5","6.631","307.8","1017.88","8.1","50.93","3.214","0.0"],
    [1403493,"2026-03-16 06:20:00","41073","5.358","297.4","8.72","290","1018.097","8.26","52.17","16.25","0.0"],
    [1403494,"2026-03-16 06:30:00","41074","5.67","298.8","8.75","299.4","1018.405","8.4","52.72","39.52","0.0"],
    [1403495,"2026-03-16 06:40:00","41075","4.178999999999999","303.6","5.978","307.2","1018.5189999999999","8.45","53.32","67.21","0.0"],
    [1403496,"2026-03-16 06:50:00","41076","5.434","302.3","8.26","309.1","1018.4910000000001","8.55","53.22","98.2","0.0"],
    [1403497,"2026-03-16 07:00:00","41077","5.118","302.3","8.26","306.4","1018.673","8.64","52.99","130.9","0.0"],
    [1403498,"2026-03-16 07:10:00","41078","5.295","295.6","9.05","297.3","1018.735","8.82","52.35","164.0","0.0"],
    [1403499,"2026-03-16 07:20:00","41079","5.849","292.0","10.16","299.3","1018.7819999999999","9.04","51.6","197.5","0.0"],
    [1403500,"2026-03-16 07:30:00","41080","5.773","302.9","9.21","319.1","1019.1110000000001","9.18","51.36","221.1","0.0"],
    [1403501,"2026-03-16 07:40:00","41081","4.262","294.3","8.53","286.9","1019.091","9.41","50.92","254.7","0.0"],
    [1403502,"2026-03-16 07:50:00","41082","4.717","295.2","7.285","291.2","1019.252","9.57","51.27","302.1","0.0"],
    [1403503,"2026-03-16 08:00:00","41083","5.5489999999999995","292.4","8.66","302.9","1019.341","9.81","50.41","338.1","0.0"],
    [1403504,"2026-03-16 08:10:00","41084","5.317","291.9","8.07","279.3","1019.268","10.19","49.55","372.6","0.0"],
    [1403505,"2026-03-16 08:20:00","41085","5.657","291.2","8.59","293.2","1019.294","10.41","48.78","405.6","0.0"],
    [1403506,"2026-03-16 08:30:00","41086","5.332999999999999","292.2","8.82","292","1019.297","10.53","49.05","437.2","0.0"],
    [1403507,"2026-03-16 08:40:00","41087","4.7330000000000005","292.0","7.677","282.6","1019.3530000000001","11.02","47.67","467.2","0.0"],
    [1403508,"2026-03-16 08:50:00","41088","4.8469999999999995","292.5","7.415","289.3","1019.33","11.41","46.25","497.2","0.0"],
    [1403509,"2026-03-16 09:00:00","41089","5.471","301.0","7.807","298.3","1019.535","11.87","44.23","533.7","0.0"],
    [1403510,"2026-03-16 09:10:00","41090","5.067","301.3","7.938","298.9","1019.748","12.13","43.66","556.7","0.0"],
    [1403511,"2026-03-16 09:20:00","41091","5.566","294.7","8.53","290.9","1019.721","12.51","41.95","584.9","0.0"],
    [1403512,"2026-03-16 09:30:00","41092","5.517","299.2","8.1","311.5","1019.716","12.76","41.63","613.1","0.0"],
    [1403513,"2026-03-16 09:40:00","41093","4.66","305.8","7.252","295.2","1019.693","13.2","40.7","610.8","0.0"],
    [1403514,"2026-03-16 09:50:00","41094","4.93","309.0","7.546","307.4","1019.7289999999999","13.39","39.92","657.3","0.0"],
    [1403515,"2026-03-16 10:00:00","41095","4.646","315.3","6.599","314.3","1019.818","13.87","39.54","677.5","0.0"],
    [1403516,"2026-03-16 10:10:00","41096","4.808","309.6","6.925","315.3","1019.8689999999999","14.4","37.57","691.9","0.0"],
    [1403517,"2026-03-16 10:20:00","41097","5.178","304.9","7.84","301.1","1019.8939999999999","14.71","37.25","716.7","0.0"],
    [1403518,"2026-03-16 10:30:00","41098","4.749","308.9","6.664","305.8","1019.9939999999999","15.17","36.89","734.1","0.0"],
    [1403519,"2026-03-16 10:40:00","41099","4.12","306.9","6.305","310","1020.035","15.34","37.94","747.1","0.0"],
    [1403520,"2026-03-16 10:50:00","41100","3.765","301.7","5.553","311","1020.0160000000001","15.99","35.84","759.9","0.0"],
    [1403521,"2026-03-16 11:00:00","41101","3.181","310.3","6.109","305.7","1019.988","16.31","36.66","770.4","0.0"],
    [1403522,"2026-03-16 11:10:00","41102","3.403","311.1","5.455","308.1","1019.8910000000001","16.56","36.54","782.0","0.0"],
    [1403523,"2026-03-16 11:20:00","41103","3.4010000000000002","302.0","5.063","295.7","1019.819","16.87","35.56","792.2","0.0"],
    [1403524,"2026-03-16 11:30:00","41104","3.3960000000000004","297.9","5.651","294.3","1019.7919999999999","17.18","34.15","804.0","0.0"],
    [1403525,"2026-03-16 11:40:00","41105","2.662","288.0","5.259","311.8","1019.743","17.4","33.35","818.0","0.0"],
    [1403526,"2026-03-16 11:50:00","41106","2.867","290.9","5.194","285.3","1019.679","17.75","32.79","756.4","0.0"],
    [1403527,"2026-03-16 12:00:00","41107","2.8280000000000003","302.5","5.455","281.4","1019.6089999999999","17.74","32.7","800.0","0.0"],
    [1403528,"2026-03-16 12:10:00","41108","2.081","289.6","3.855","301.3","1019.5169999999999","18.11","32.52","799.4","0.0"],
    [1403529,"2026-03-16 12:20:00","41109","2.2969999999999997","262.7","3.822","287.8","1019.425","18.95","31.18","770.9","0.0"],
    [1403530,"2026-03-16 12:30:00","41110","2.708","230.6","6.109","221.7","1019.3689999999999","18.28","36.49","737.3","0.0"],
    [1403531,"2026-03-16 12:40:00","41111","3.69","205.7","6.403","214.3","1019.308","16.32","42.27","631.7","0.0"],
    [1403532,"2026-03-16 12:50:00","41112","3.003","189.4","5.357","176.6","1019.2339999999999","16.02","46.1","687.0","0.0"],
    [1403533,"2026-03-16 13:00:00","41113","3.2119999999999997","195.3","5.815","224.8","1019.177","15.76","48.32","735.9","0.0"],
    [1403534,"2026-03-16 13:10:00","41114","2.668","195.2","5.063","218.5","1019.174","15.92","45.69","770.0","0.0"],
    [1403535,"2026-03-16 13:20:00","41115","3.363","202.1","5.815","206.4","1019.058","16.08","43.94","767.1","0.0"],
    [1403536,"2026-03-16 13:30:00","41116","3.1489999999999996","202.6","6.141","215.6","1018.8710000000001","16.28","45.42","739.9","0.0"],
    [1403537,"2026-03-16 13:40:00","41117","3.258","197.4","5.978","211.1","1018.696","16.36","42.77","708.8","0.0"],
    [1403538,"2026-03-16 13:50:00","41118","4.282","211.0","6.762","222.4","1018.706","16.17","41.93","706.6","0.0"],
    [1403539,"2026-03-16 14:00:00","41119","4.322","211.9","7.252","205.8","1018.6089999999999","16.43","40.57","663.0","0.0"],
    [1403540,"2026-03-16 14:10:00","41120","4.747","213.2","7.742","213.4","1018.5830000000001","16.25","39.67","681.4","0.0"],
    [1403541,"2026-03-16 14:20:00","41121","4.856","215.4","6.991","212.7","1018.5110000000001","16.33","42.93","651.8","0.0"],
    [1403542,"2026-03-16 14:30:00","41122","3.9189999999999996","211.7","6.37","227.6","1018.433","16.71","43.17","625.6","0.0"],
    [1403543,"2026-03-16 14:40:00","41123","4.242","213.4","6.958","223.6","1018.3789999999999","16.69","45.2","599.0","0.0"],
    [1403544,"2026-03-16 14:50:00","41124","4.665","213.3","6.86","217.6","1018.306","16.61","43.47","572.7","0.0"],
    [1403545,"2026-03-16 15:00:00","41125","4.845","217.7","7.709","220.5","1018.2230000000001","16.5","41.57","554.4","0.0"],
    [1403546,"2026-03-16 15:10:00","41126","4.377","212.4","6.435","203.9","1018.15","16.63","44.58","463.7","0.0"],
    [1403547,"2026-03-16 15:20:00","41127","3.11","209.7","5.651","217.5","1018.143","16.67","49.6","462.9","0.0"],
    [1403548,"2026-03-16 15:30:00","41128","3.516","217.1","7.121","234.5","1018.075","16.93","49.19","442.9","0.0"],
    [1403549,"2026-03-16 15:40:00","41129","4.412","215.5","7.023","213.6","1017.975","16.97","44.42","397.8","0.0"],
    [1403550,"2026-03-16 15:50:00","41130","4.916","217.0","7.481","217.6","1017.998","16.54","47.84","357.2","0.0"],
    [1403551,"2026-03-16 16:00:00","41131","3.6210000000000004","208.5","5.847","208.8","1018.047","16.33","56.09","330.1","0.0"],
    [1403552,"2026-03-16 16:10:00","41132","3.911","209.2","7.187","204.1","1018.1","15.87","64.28","298.2","0.0"],
    [1403553,"2026-03-16 16:20:00","41133","4.842","209.7","8.04","203.4","1018.005","15.49","66.07","276.6","0.0"],
    [1403554,"2026-03-16 16:30:00","41134","3.722","210.2","7.187","220","1017.885","15.46","67.38","203.7","0.0"],
    [1403555,"2026-03-16 16:40:00","41135","4.566","209.3","7.677","232.1","1017.817","15.26","68.6","170.4","0.0"],
    [1403556,"2026-03-16 16:50:00","41136","4.796","215.8","6.664","221.8","1017.796","15.03","68.02","147.7","0.0"],
    [1403557,"2026-03-16 17:00:00","41137","4.212","216.4","6.664","209.9","1017.883","15.01","68.98","118.1","0.0"],
    [1403558,"2026-03-16 17:10:00","41138","3.886","215.7","7.905","230.6","1017.98","14.84","71.3","96.2","0.0"],
    [1403559,"2026-03-16 17:20:00","41139","4.314","214.5","6.827","229.4","1018.074","14.62","71.45","59.34","0.0"],
    [1403560,"2026-03-16 17:30:00","41140","4.504","215.4","6.664","231.9","1018.06","14.45","71.9","38.12","0.0"],
    [1403561,"2026-03-16 17:40:00","41141","4.283","215.0","6.729","227.2","1018.169","14.36","72.86","28.02","0.0"],
    [1403562,"2026-03-16 17:50:00","41142","3.8480000000000003","215.2","7.938","218.2","1018.2560000000001","14.22","72.59","16.4","0.0"],
    [1403563,"2026-03-16 18:00:00","41143","3.987","214.4","7.546","202.7","1018.367","13.98","73.4","4.92","0.0"],
    [1403564,"2026-03-16 18:10:00","41144","4.031000000000001","219.9","6.664","201.3","1018.422","13.83","73.89","0.187","0.0"],
    [1403565,"2026-03-16 18:20:00","41145","3.929","226.6","6.337","215.5","1018.5160000000001","13.67","74.01","-1.656","0.0"],
    [1403566,"2026-03-16 18:30:00","41146","4.0280000000000005","225.3","6.076","227","1018.6160000000001","13.55","74.92","-2.616","0.0"],
    [1403567,"2026-03-16 18:40:00","41147","3.3680000000000003","227.9","5.423","230.4","1018.699","13.61","75.19","-2.7310000000000003","0.0"],
    [1403568,"2026-03-16 18:50:00","41148","2.9939999999999998","227.2","4.377","217","1018.722","13.51","75.94","-2.722","0.0"],
    [1403569,"2026-03-16 19:00:00","41149","2.352","231.2","4.116","227.3","1018.7139999999999","13.36","76.8","-2.735","0.0"],
    [1403570,"2026-03-16 19:10:00","41150","1.91","233.4","3.593","228.9","1018.77","13.39","76.08","-2.7560000000000002","0.0"],
    [1403571,"2026-03-16 19:20:00","41151","2.1519999999999997","222.4","3.332","226.7","1018.794","13.31","76.1","-2.766","0.0"],
    [1403572,"2026-03-16 19:30:00","41152","2.515","221.7","3.495","236.3","1018.8510000000001","13.27","75.74","-2.764","0.0"],
    [1403573,"2026-03-16 19:40:00","41153","2.079","227.0","3.463","260.3","1018.8789999999999","13.44","73.09","-2.764","0.0"],
    [1403574,"2026-03-16 19:50:00","41154","2.1109999999999998","219.4","3.299","219.4","1018.828","13.43","72.45","-2.767","0.0"],
    [1403575,"2026-03-16 20:00:00","41155","1.105","235.3","2.515","211.6","1018.825","13.16","73.13","-2.843","0.0"],
    [1403576,"2026-03-16 20:10:00","41156","0.764","239.1","1.731","216.3","1018.845","13.05","72.93","-2.888","0.0"],
    [1403577,"2026-03-16 20:20:00","41157","1.2930000000000001","258.0","2.352","268.9","1018.868","12.91","73.82","-3.193","0.0"],
    [1403578,"2026-03-16 20:30:00","41158","1.176","254.6","3.397","267.9","1018.943","12.95","73.48","-2.778","0.0"],
    [1403579,"2026-03-16 20:40:00","41159","0.77","255.1","1.535","261.5","1018.916","12.67","74.43","-2.761","0.0"],
    [1403580,"2026-03-16 20:50:00","41160","1.1059999999999999","248.9","2.319","211.1","1018.88","12.31","75.47","-2.847","0.0"],
    [1403581,"2026-03-16 21:00:00","41161","1.643","231.0","2.711","265.1","1018.8589999999999","12.4","75.14","-2.7689999999999997","0.0"],
    [1403582,"2026-03-16 21:10:00","41162","1.7080000000000002","231.6","2.94","239.9","1018.77","12.4","75.54","-2.762","0.0"],
    [1403583,"2026-03-16 21:20:00","41163","1.617","237.1","2.875","250.6","1018.659","12.51","74.59","-2.762","0.0"],
    [1403584,"2026-03-16 21:30:00","41164","1.121","270.8","2.123","287.5","1018.673","12.4","75.05","-2.764","0.0"],
    [1403585,"2026-03-16 21:40:00","41165","1.035","278.7","2.287","274.1","1018.737","11.9","77.01","-2.805","0.0"],
    [1403586,"2026-03-16 21:50:00","41166","0.703","248.8","1.699","270.2","1018.706","11.44","78.17","-2.8539999999999996","0.0"],
    [1403587,"2026-03-16 22:00:00","41167","0.831","222.8","1.339","243.7","1018.704","11.76","75.77","-2.826","0.0"],
    [1403588,"2026-03-16 22:10:00","41168","1.298","230.1","2.156","261.8","1018.748","12.09","73.3","-2.764","0.0"],
    [1403589,"2026-03-16 22:20:00","41169","1.585","242.2","2.515","253.8","1018.705","12.04","71.67","-2.761","0.0"],
    [1403590,"2026-03-16 22:30:00","41170","1.3940000000000001","244.6","2.94","281.4","1018.63","12.08","69.29","-2.761","0.0"],
    [1403591,"2026-03-16 22:40:00","41171","1.4609999999999999","233.8","2.515","258.4","1018.6189999999999","12.02","68.74","-2.762","0.0"],
    [1403592,"2026-03-16 22:50:00","41172","1.295","242.0","2.319","282.9","1018.61","12.05","68.84","-2.761","0.0"],
    [1403593,"2026-03-16 23:00:00","41173","1.402","234.0","2.515","249.4","1018.5419999999999","11.99","69.47","-2.761","0.0"],
    [1403594,"2026-03-16 23:10:00","41174","0.833","247.7","1.829","230.6","1018.49","11.8","70.72","-2.761","0.0"],
    [1403595,"2026-03-16 23:20:00","41175","0.779","281.4","1.241","293.3","1018.447","11.19","72.99","-2.761","0.0"],
    [1403596,"2026-03-16 23:30:00","41176","1.1909999999999998","272.8","2.123","273.3","1018.4019999999999","10.66","75.11","-2.9139999999999997","0.0"],
    [1403597,"2026-03-16 23:40:00","41177","1.1059999999999999","284.8","1.862","275.2","1018.387","10.94","74.52","-2.785","0.0"],
    [1403598,"2026-03-16 23:50:00","41178","1.139","296.7","1.372","310.7","1018.253","10.37","76.68","-2.761","0.0"],
    [1403599,"2026-03-17 00:00:00","41179","0.667","348.5","1.372","9.13","1018.2660000000001","9.97","79.34","-2.761","0.0"],
    [1403600,"2026-03-17 00:10:00","41180","0.342","208.1","0.784","210.3","1018.283","10.19","79.02","-2.7489999999999997","0.0"],
    [1403601,"2026-03-17 00:20:00","41181","0.0","0.0","0","0","1018.232","10.21","77.93","-2.6830000000000003","0.0"],
    [1403602,"2026-03-17 00:30:00","41182","0.0","0.0","0","0","1018.084","9.91","79.71","-2.761","0.0"],
    [1403603,"2026-03-17 00:40:00","41183","0.493","281.6","1.372","276.7","1018.125","9.6","81.0","-2.734","0.0"],
    [1403604,"2026-03-17 00:50:00","41184","1.5019999999999998","277.4","2.352","282.2","1018.1460000000001","9.87","80.7","-2.6710000000000003","0.0"],
    [1403605,"2026-03-17 01:00:00","41185","0.057999999999999996","258.1","0.817","269.3","1018.1160000000001","9.87","80.2","-2.678","0.0"],
    [1403606,"2026-03-17 01:10:00","41186","1.167","271.1","1.764","277.6","1018.028","9.93","80.4","-2.739","0.0"],
    [1403607,"2026-03-17 01:20:00","41187","0.34600000000000003","271.8","1.078","282.5","1017.8969999999999","9.84","80.9","-2.7539999999999996","0.0"],
    [1403608,"2026-03-17 01:30:00","41188","1.24","280.0","1.699","284.1","1017.8610000000001","9.41","82.0","-2.759","0.0"],
    [1403609,"2026-03-17 01:40:00","41189","1.056","285.2","1.699","291.9","1017.785","9.3","82.8","-2.767","0.0"],
    [1403610,"2026-03-17 01:50:00","41190","0.976","287.8","1.601","287.2","1017.666","9.23","82.2","-2.7510000000000003","0.0"],
    [1403611,"2026-03-17 02:00:00","41191","1.247","295.6","1.96","300.9","1017.65","8.92","82.3","-2.762","0.0"],
    [1403612,"2026-03-17 02:10:00","41192","1.112","300.1","1.895","306","1017.635","8.83","82.3","-2.763","0.0"],
    [1403613,"2026-03-17 02:20:00","41193","0.72","310.5","1.143","314.7","1017.564","8.67","82.6","-2.762","0.0"],
    [1403614,"2026-03-17 02:30:00","41194","1.069","307.1","1.633","319.4","1017.3939999999999","8.79","82.9","-2.647","0.0"],
    [1403615,"2026-03-17 02:40:00","41195","1.482","322.3","2.483","323.1","1017.329","8.97","82.9","-2.7560000000000002","0.0"],
    [1403616,"2026-03-17 02:50:00","41196","1.695","313.7","2.581","318.9","1017.178","9.38","80.9","-2.56","0.0"],
    [1403617,"2026-03-17 03:00:00","41197","1.136","292.2","1.731","300.7","1017.12","9.37","80.1","-2.758","0.0"],
    [1403618,"2026-03-17 03:10:00","41198","1.324","295.1","2.385","309.4","1017.0219999999999","9.11","80.2","-2.7710000000000004","0.0"],
    [1403619,"2026-03-17 03:20:00","41199","1.8659999999999999","294.2","3.136","299.6","1016.9810000000001","9.18","79.76","-2.773","0.0"],
    [1403620,"2026-03-17 03:30:00","41200","1.662","269.7","2.875","275.6","1016.987","9.45","78.03","-2.7569999999999997","0.0"],
    [1403621,"2026-03-17 03:40:00","41201","1.506","286.4","2.711","265.1","1017.072","9.29","77.86","-2.739","0.0"],
    [1403622,"2026-03-17 03:50:00","41202","0.629","294.9","1.829","272","1017.12","9.12","78.16","-2.7710000000000004","0.0"],
    [1403623,"2026-03-17 04:00:00","41203","0.8170000000000001","298.8","1.699","291.7","1017.0880000000001","9.14","77.56","-2.7769999999999997","0.0"],
    [1403624,"2026-03-17 04:10:00","41204","1.2670000000000001","280.8","2.254","275.1","1017.067","9.0","77.79","-2.815","0.0"],
    [1403625,"2026-03-17 04:20:00","41205","1.486","278.3","2.287","272.3","1017.0219999999999","9.17","76.89","-2.763","0.0"],
    [1403626,"2026-03-17 04:30:00","41206","1.3730000000000002","284.5","2.221","290.2","1017.0010000000001","9.09","76.82","-2.719","0.0"],
    [1403627,"2026-03-17 04:40:00","41207","0.866","261.5","1.633","256.4","1016.948","8.92","77.43","-2.77","0.0"],
    [1403628,"2026-03-17 04:50:00","41208","0.85","283.1","1.372","280.6","1016.9730000000001","8.99","76.69","-2.7680000000000002","0.0"],
    [1403629,"2026-03-17 05:00:00","41209","0.449","294.5","1.437","285.7","1017.0110000000001","8.71","77.4","-2.773","0.0"],
    [1403630,"2026-03-17 05:10:00","41210","0.632","303.3","1.927","318.7","1016.944","8.74","77.27","-2.773","0.0"],
    [1403631,"2026-03-17 05:20:00","41211","0.867","311.4","1.209","326.6","1016.863","8.77","76.91","-2.727","0.0"],
    [1403632,"2026-03-17 05:30:00","41212","0.843","295.1","1.47","302.3","1016.688","8.51","77.9","-2.773","0.0"],
    [1403633,"2026-03-17 05:40:00","41213","1.063","286.9","1.699","290.7","1016.65","8.71","77.19","-2.76","0.0"],
    [1403634,"2026-03-17 05:50:00","41214","1.3559999999999999","284.0","2.287","289.6","1016.69","8.84","76.25","-2.387","0.0"],
    [1403635,"2026-03-17 06:00:00","41215","0.752","287.4","2.058","283.8","1016.819","8.71","75.76","-0.483","0.0"],
    [1403636,"2026-03-17 06:10:00","41216","0.38","310.4","1.209","316.9","1016.877","8.52","76.7","3.3539999999999996","0.0"],
    [1403637,"2026-03-17 06:20:00","41217","1.2570000000000001","306.3","2.319","306.5","1016.8539999999999","8.56","77.04","12.34","0.0"],
    [1403638,"2026-03-17 06:30:00","41218","0.626","273.0","1.895","300","1016.8510000000001","8.86","76.03","32.94","0.0"],
    [1403639,"2026-03-17 06:40:00","41219","1.051","292.1","2.156","307.8","1016.895","9.24","74.19","60.62","0.0"],
    [1403640,"2026-03-17 06:50:00","41220","1.756","315.6","2.45","322.2","1016.9019999999999","9.64","73.03","89.7","0.0"],
    [1403641,"2026-03-17 07:00:00","41221","1.66","305.8","2.581","319.4","1016.88","10.12","71.25","121.8","0.0"],
    [1403642,"2026-03-17 07:10:00","41222","1.163","278.6","2.091","270.6","1016.836","10.58","69.89","152.7","0.0"],
    [1403643,"2026-03-17 07:20:00","41223","1.531","278.2","2.613","283.3","1016.919","10.99","68.85","184.9","0.0"],
    [1403644,"2026-03-17 07:30:00","41224","1.618","263.3","2.711","283","1016.9780000000001","11.17","68.67","208.8","0.0"],
    [1403645,"2026-03-17 07:40:00","41225","2.336","286.2","3.103","298.6","1016.97","11.36","67.89","243.0","0.0"],
    [1403646,"2026-03-17 07:50:00","41226","2.157","289.0","3.724","286.3","1016.987","11.82","66.5","287.2","0.0"],
    [1403647,"2026-03-17 08:00:00","41227","1.6969999999999998","294.6","2.613","290.8","1016.916","12.34","65.18","320.4","0.0"],
    [1403648,"2026-03-17 08:10:00","41228","1.7469999999999999","281.1","2.352","271.6","1016.993","12.84","63.18","351.6","0.0"],
    [1403649,"2026-03-17 08:20:00","41229","1.7069999999999999","287.7","2.483","280.9","1017.0210000000001","13.15","62.35","383.0","0.0"],
    [1403650,"2026-03-17 08:30:00","41230","1.517","297.6","2.189","291.6","1017.0010000000001","13.49","62.27","412.9","0.0"],
    [1403651,"2026-03-17 08:40:00","41231","0.86","297.0","1.47","308.1","1017.0210000000001","13.96","61.74","443.4","0.0"],
    [1403652,"2026-03-17 08:50:00","41232","0.327","285.7","0.98","277.2","1016.9839999999999","14.54","62.14","472.5","0.0"],
    [1403653,"2026-03-17 09:00:00","41233","0.442","313.6","1.209","0.314","1016.924","15.2","62.5","500.6","0.0"],
    [1403654,"2026-03-17 09:10:00","41234","1.6540000000000001","71.76","3.332","79.16","1016.883","15.41","67.31","530.9","0.0"],
    [1403655,"2026-03-17 09:20:00","41235","2.064","77.07","3.038","71.91","1016.888","15.08","73.23","561.9","0.0"],
    [1403656,"2026-03-17 09:30:00","41236","2.032","86.7","3.789","101.6","1016.939","15.24","73.24","587.7","0.0"],
    [1403657,"2026-03-17 09:40:00","41237","1.837","97.4","3.005","97.1","1016.947","15.21","73.12","609.3","0.0"],
    [1403658,"2026-03-17 09:50:00","41238","1.7590000000000001","103.2","2.973","123.9","1016.928","15.4","73.32","631.4","0.0"],
    [1403659,"2026-03-17 10:00:00","41239","1.895","95.7","3.234","89.8","1016.87","15.49","73.35","649.0","0.0"],
    [1403660,"2026-03-17 10:10:00","41240","1.935","97.7","2.94","69.47","1016.8610000000001","15.53","73.03","672.1","0.0"],
    [1403661,"2026-03-17 10:20:00","41241","1.6219999999999999","107.0","2.842","123.8","1016.826","15.8","70.01","690.2","0.0"],
    [1403662,"2026-03-17 10:30:00","41242","2.432","97.3","3.626","100.7","1016.814","15.77","71.55","709.9","0.0"],
    [1403663,"2026-03-17 10:40:00","41243","2.5180000000000002","94.8","4.018","71.6","1016.85","15.54","72.86","725.2","0.0"],
    [1403664,"2026-03-17 10:50:00","41244","2.6710000000000003","95.1","4.9","109.9","1016.827","15.3","74.45","738.5","0.0"],
    [1403665,"2026-03-17 11:00:00","41245","2.642","92.2","3.789","85.2","1016.77","15.57","74.26","749.7","0.0"],
    [1403666,"2026-03-17 11:10:00","41246","2.878","91.3","4.018","84.7","1016.738","15.63","74.12","760.6","0.0"],
    [1403667,"2026-03-17 11:20:00","41247","2.9560000000000004","90.9","4.377","85.7","1016.697","15.71","73.57","770.2","0.0"],
    [1403668,"2026-03-17 11:30:00","41248","2.9410000000000003","87.7","4.247","88.7","1016.596","15.77","74.38","777.2","0.0"],
    [1403669,"2026-03-17 11:40:00","41249","3.082","89.4","4.41","87.9","1016.539","15.72","75.22","782.4","0.0"],
    [1403670,"2026-03-17 11:50:00","41250","2.804","88.7","3.953","76.54","1016.433","15.82","74.62","786.1","0.0"],
    [1403671,"2026-03-17 12:00:00","41251","2.787","90.1","4.149","85.7","1016.337","15.86","75.12","789.0","0.0"],
    [1403672,"2026-03-17 12:10:00","41252","2.795","90.7","3.92","90.6","1016.2769999999999","15.83","76.29","790.0","0.0"],
    [1403673,"2026-03-17 12:20:00","41253","2.637","89.2","4.018","66.6","1016.153","15.78","76.57","788.3","0.0"],
    [1403674,"2026-03-17 12:30:00","41254","2.094","92.6","3.201","103.8","1016.015","15.97","74.14","784.0","0.0"],
    [1403675,"2026-03-17 12:40:00","41255","2.035","93.9","3.365","102.1","1015.872","16.08","70.56","778.5","0.0"],
    [1403676,"2026-03-17 12:50:00","41256","2.634","89.6","3.822","77.48","1015.755","16.26","69.59","770.6","0.0"],
    [1403677,"2026-03-17 13:00:00","41257","3.286","79.5","4.541","89.9","1015.57","16.17","74.3","763.2","0.0"],
    [1403678,"2026-03-17 13:10:00","41258","3.384","77.3","6.893","71.17","1015.4069999999999","15.78","77.3","752.3","0.0"],
    [1403679,"2026-03-17 13:20:00","41259","2.5989999999999998","89.3","3.953","89.5","1015.27","15.73","78.4","740.5","0.0"],
    [1403680,"2026-03-17 13:30:00","41260","2.525","89.7","4.345","62.87","1015.198","15.59","78.71","725.0","0.0"],
    [1403681,"2026-03-17 13:40:00","41261","2.762","80.2","4.279","89.2","1015.077","15.69","77.77","711.5","0.0"],
    [1403682,"2026-03-17 13:50:00","41262","2.4859999999999998","86.6","3.626","92.5","1014.918","15.84","76.8","696.1","0.0"],
    [1403683,"2026-03-17 14:00:00","41263","2.215","90.9","3.005","97.8","1014.7739999999999","15.97","73.08","678.9","0.0"],
    [1403684,"2026-03-17 14:10:00","41264","2.075","92.3","4.279","91.5","1014.637","16.27","71.2","659.4","0.0"],
    [1403685,"2026-03-17 14:20:00","41265","2.119","100.8","3.071","88.9","1014.5060000000001","16.08","72.67","640.1","0.0"],
    [1403686,"2026-03-17 14:30:00","41266","1.824","97.5","3.005","81.7","1014.424","16.14","70.45","618.5","0.0"],
    [1403687,"2026-03-17 14:40:00","41267","1.045","138.1","2.287","178","1014.253","16.3","70.93","594.8","0.0"],
    [1403688,"2026-03-17 14:50:00","41268","1.5619999999999998","176.2","2.809","218.9","1014.1160000000001","16.6","69.06","568.5","0.0"],
    [1403689,"2026-03-17 15:00:00","41269","1.787","187.5","3.659","171.5","1014.034","16.23","71.45","543.3","0.0"],
    [1403690,"2026-03-17 15:10:00","41270","1.7630000000000001","198.2","3.495","188.6","1013.944","16.29","70.61","513.7","0.0"],
    [1403691,"2026-03-17 15:20:00","41271","1.695","194.8","3.169","162.6","1013.89","16.31","70.08","484.0","0.0"],
    [1403692,"2026-03-17 15:30:00","41272","1.6230000000000002","193.9","2.842","161.4","1013.801","16.34","68.87","453.4","0.0"],
    [1403693,"2026-03-17 15:40:00","41273","1.6030000000000002","177.3","2.744","176.1","1013.699","16.05","69.1","421.8","0.0"],
    [1403694,"2026-03-17 15:50:00","41274","1.39","195.4","2.548","215.8","1013.596","16.06","70.28","390.1","0.0"],
    [1403695,"2026-03-17 16:00:00","41275","1.331","188.4","3.332","194.2","1013.5010000000001","16.03","69.72","354.9","0.0"],
    [1403696,"2026-03-17 16:10:00","41276","1.358","177.6","2.646","172.6","1013.435","15.97","70.59","321.6","0.0"],
    [1403697,"2026-03-17 16:20:00","41277","1.784","171.3","2.94","175.9","1013.436","15.76","73.67","288.9","0.0"],
    [1403698,"2026-03-17 16:30:00","41278","1.64","182.0","2.711","142.3","1013.3560000000001","15.66","73.65","254.1","0.0"],
    [1403699,"2026-03-17 16:40:00","41279","1.83","184.7","3.332","166.7","1013.34","15.54","75.09","221.6","0.0"],
    [1403700,"2026-03-17 16:50:00","41280","1.882","173.8","3.038","186.6","1013.48","15.1","77.94","186.4","0.0"],
    [1403701,"2026-03-17 17:00:00","41281","1.534","175.3","2.679","150.1","1013.447","14.96","79.81","144.4","0.0"],
    [1403702,"2026-03-17 17:10:00","41282","1.483","187.5","2.711","178.6","1013.46","14.85","81.7","113.9","0.0"],
    [1403703,"2026-03-17 17:20:00","41283","1.632","172.7","2.809","172.2","1013.4639999999999","14.72","82.9","86.5","0.0"],
    [1403704,"2026-03-17 17:30:00","41284","1.0","191.9","2.189","208.7","1013.443","14.43","84.5","30.19","0.0"],
    [1403705,"2026-03-17 17:40:00","41285","0.688","173.8","1.633","168","1013.518","14.35","85.3","21.48","0.0"],
    [1403706,"2026-03-17 17:50:00","41286","0.745","170.6","1.503","170.6","1013.5189999999999","14.22","86.1","13.79","0.0"],
    [1403707,"2026-03-17 18:00:00","41287","0.511","150.0","1.503","156.3","1013.518","14.09","86.8","4.669","0.0"],
    [1403708,"2026-03-17 18:10:00","41288","0.36700000000000005","149.5","1.405","135.2","1013.563","13.92","87.8","-0.125","0.0"],
    [1403709,"2026-03-17 18:20:00","41289","0.455","139.6","1.078","130.3","1013.643","13.84","88.7","-2.319","0.0"],
    [1403710,"2026-03-17 18:30:00","41290","0.48100000000000004","132.3","1.274","135.8","1013.6489999999999","13.72","89.3","-2.739","0.0"],
    [1403711,"2026-03-17 18:40:00","41291","0.19899999999999998","123.8","1.274","134.9","1013.722","13.71","89.7","-2.636","0.0"],
    [1403712,"2026-03-17 18:50:00","41292","0.986","72.35","1.535","71.81","1013.821","13.73","89.9","-2.739","0.0"],
    [1403713,"2026-03-17 19:00:00","41293","0.932","69.12","1.503","76.1","1013.815","13.63","90.2","-2.7510000000000003","0.0"],
    [1403714,"2026-03-17 19:10:00","41294","1.145","69.47","1.797","66.51","1013.81","13.54","90.5","-2.763","0.0"],
    [1403715,"2026-03-17 19:20:00","41295","1.268","66.5","1.829","64.77","1013.845","13.47","90.4","-2.76","0.0"],
    [1403716,"2026-03-17 19:30:00","41296","1.314","58.35","1.797","60.02","1013.919","13.3","90.6","-2.763","0.0"],
    [1403717,"2026-03-17 19:40:00","41297","0.868","60.98","1.405","55.46","1014.052","13.21","90.8","-2.806","0.0"],
    [1403718,"2026-03-17 19:50:00","41298","0.524","58.44","1.372","55.38","1014.018","13.17","91.0","-2.786","0.0"],
    [1403719,"2026-03-17 20:00:00","41299","1.169","60.19","1.633","54.99","1013.982","13.1","91.4","-2.786","0.0"],
    [1403720,"2026-03-17 20:10:00","41300","1.113","60.78","1.568","57.67","1013.9069999999999","12.99","91.4","-2.77","0.0"],
    [1403721,"2026-03-17 20:20:00","41301","0.44","65.72","1.568","64.35","1013.8480000000001","12.97","91.7","-2.762","0.0"],
    [1403722,"2026-03-17 20:30:00","41302","0.475","64.08","1.568","63.93","1013.74","12.81","91.6","-2.761","0.0"],
    [1403723,"2026-03-17 20:40:00","41303","1.024","55.86","1.405","55.47","1013.663","12.66","91.9","-2.917","0.0"],
    [1403724,"2026-03-17 20:50:00","41304","0.45299999999999996","60.77","0.947","55.67","1013.6460000000001","12.56","91.9","-2.761","0.0"],
    [1403725,"2026-03-17 21:00:00","41305","0.2","60.15","0.849","58.09","1013.6389999999999","12.17","92.1","-2.826","0.0"],
    [1403726,"2026-03-17 21:10:00","41306","0.91","56.3","1.633","53.21","1013.56","12.31","92.6","-2.8510000000000004","0.0"],
    [1403727,"2026-03-17 21:20:00","41307","1.631","47.54","1.895","46.66","1013.445","12.33","92.4","-2.764","0.0"],
    [1403728,"2026-03-17 21:30:00","41308","1.2790000000000001","43.1","1.731","47.33","1013.3839999999999","12.27","92.0","-2.762","0.0"],
    [1403729,"2026-03-17 21:40:00","41309","0.868","44.96","1.209","48.79","1013.3430000000001","12.15","91.6","-2.762","0.0"],
    [1403730,"2026-03-17 21:50:00","41310","0.929","54.35","1.503","62.96","1013.3589999999999","12.07","91.8","-2.7710000000000004","0.0"],
    [1403731,"2026-03-17 22:00:00","41311","1.151","53.7","1.633","49.83","1013.2860000000001","12.03","92.1","-2.77","0.0"],
    [1403732,"2026-03-17 22:10:00","41312","1.307","52.78","1.601","52.99","1013.145","12.2","92.1","-2.762","0.0"],
    [1403733,"2026-03-17 22:20:00","41313","1.14","58.15","1.699","55.22","1013.084","12.11","92.0","-2.758","0.0"],
    [1403734,"2026-03-17 22:30:00","41314","1.09","53.67","1.666","52.41","1013.034","11.95","92.2","-2.762","0.0"],
    [1403735,"2026-03-17 22:40:00","41315","1.057","46.37","1.699","46.02","1012.971","11.99","92.6","-2.759","0.0"],
    [1403736,"2026-03-17 22:50:00","41316","0.8370000000000001","314.6","1.568","299.7","1012.924","11.49","92.1","-2.6839999999999997","0.0"],
    [1403737,"2026-03-17 23:00:00","41317","0.78","280.9","1.437","283.3","1012.8939999999999","11.05","92.2","-2.76","0.0"],
    [1403738,"2026-03-17 23:10:00","41318","0.273","265.5","1.078","274.8","1012.831","10.96","92.3","-2.761","0.0"],
    [1403739,"2026-03-17 23:20:00","41319","0.301","254.5","1.209","264.7","1012.742","10.96","92.1","-2.786","0.0"],
    [1403740,"2026-03-17 23:30:00","41320","1.6280000000000001","267.9","2.352","266.5","1012.7130000000001","10.87","91.6","-2.767","0.0"],
    [1403741,"2026-03-17 23:40:00","41321","2.097","276.2","2.646","270.8","1012.709","10.7","91.3","-2.761","0.0"],
    [1403742,"2026-03-17 23:50:00","41322","1.949","277.2","2.385","273.9","1012.6489999999999","10.5","91.4","-2.761","0.0"],
    [1403743,"2026-03-18 00:00:00","41323","1.9280000000000002","278.2","2.287","272.5","1012.533","10.35","91.9","-2.76","0.0"],
    [1403744,"2026-03-18 00:10:00","41324","1.419","277.4","2.058","262.5","1012.451","10.19","92.2","-2.752","0.0"],
    [1403745,"2026-03-18 00:20:00","41325","1.155","282.3","1.666","275.8","1012.393","10.07","92.3","-2.761","0.0"],
    [1403746,"2026-03-18 00:30:00","41326","1.187","275.1","1.568","274.8","1012.365","10.01","92.5","-2.761","0.0"],
    [1403747,"2026-03-18 00:40:00","41327","1.035","275.2","1.47","281.1","1012.35","9.93","92.5","-2.761","0.0"],
    [1403748,"2026-03-18 00:50:00","41328","1.32","265.3","2.189","255.1","1012.2919999999999","9.91","92.4","-2.76","0.0"],
    [1403749,"2026-03-18 01:00:00","41329","1.7169999999999999","271.0","2.221","274.7","1012.19","9.87","91.9","-2.761","0.0"],
    [1403750,"2026-03-18 01:10:00","41330","1.642","274.4","2.221","275.3","1012.0939999999999","9.84","90.9","-2.761","0.0"],
    [1403751,"2026-03-18 01:20:00","41331","1.367","278.6","1.96","283.9","1011.9839999999999","9.71","90.3","-2.761","0.0"],
    [1403752,"2026-03-18 01:30:00","41332","0.866","278.6","1.535","276.4","1011.88","9.63","90.2","-2.7680000000000002","0.0"],
    [1403753,"2026-03-18 01:40:00","41333","0.414","275.1","1.274","275.6","1011.83","9.5","90.0","-2.806","0.0"],
    [1403754,"2026-03-18 01:50:00","41334","1.025","275.2","1.895","277.1","1011.71","9.4","90.3","-2.8289999999999997","0.0"],
    [1403755,"2026-03-18 02:00:00","41335","1.193","272.2","2.058","274.6","1011.595","9.54","90.2","-2.767","0.0"],
    [1403756,"2026-03-18 02:10:00","41336","1.208","280.8","1.895","275.8","1011.4730000000001","9.43","90.0","-2.764","0.0"],
    [1403757,"2026-03-18 02:20:00","41337","0.0","0.0","0","0","1011.3710000000001","9.08","90.0","-2.8080000000000003","0.0"],
    [1403758,"2026-03-18 02:30:00","41338","0.201","268.3","1.307","271.1","1011.35","9.01","90.6","-2.912","0.0"],
    [1403759,"2026-03-18 02:40:00","41339","0.0","257.7","0.033","257.6","1011.2710000000001","8.98","90.4","-2.7689999999999997","0.0"],
    [1403760,"2026-03-18 02:50:00","41340","0.0","0.0","0","0","1011.1669999999999","8.72","90.6","-2.763","0.0"],
    [1403761,"2026-03-18 03:00:00","41341","0.0","0.0","0","0","1011.052","8.53","90.9","-2.765","0.0"],
    [1403762,"2026-03-18 03:10:00","41342","0.0","0.0","0","0","1010.935","8.26","91.2","-2.764","0.0"],
    [1403763,"2026-03-18 03:20:00","41343","0.0","0.0","0","0","1010.852","8.18","91.8","-2.11","0.0"],
    [1403764,"2026-03-18 03:30:00","41344","0.0","0.0","0","0","1010.768","8.45","92.0","-0.58","0.0"],
    [1403765,"2026-03-18 03:40:00","41345","0.0","275.2","0.033","275.2","1010.7689999999999","8.72","91.9","-0.38","0.0"],
    [1403766,"2026-03-18 03:50:00","41346","0.41200000000000003","266.2","1.503","276.3","1010.7360000000001","9.16","90.7","-1.1","0.0"],
    [1403767,"2026-03-18 04:00:00","41347","0.6890000000000001","270.8","2.091","276.1","1010.717","9.38","89.2","-1.117","0.0"],
    [1403768,"2026-03-18 04:10:00","41348","1.8719999999999999","281.0","2.385","278.9","1010.638","9.25","89.0","-2.2880000000000003","0.0"],
    [1403769,"2026-03-18 04:20:00","41349","1.008","296.1","1.503","296.7","1010.635","8.95","88.9","-2.761","0.0"],
    [1403770,"2026-03-18 04:30:00","41350","0.34600000000000003","311.7","1.274","314.6","1010.6","8.59","89.5","-2.781","0.0"],
    [1403771,"2026-03-18 04:40:00","41351","0.1","325.7","1.339","325.1","1010.535","8.48","89.9","-2.78","0.0"],
    [1403772,"2026-03-18 04:50:00","41352","0.491","316.3","1.437","312.3","1010.495","8.49","90.5","-2.87","0.0"],
    [1403773,"2026-03-18 05:00:00","41353","0.0","0.0","0","0","1010.49","8.55","90.4","-2.773","0.0"],
    [1403774,"2026-03-18 05:10:00","41354","0.0","308.5","0.033","308.5","1010.4580000000001","8.37","90.2","-2.727","0.0"],
    [1403775,"2026-03-18 05:20:00","41355","0.391","311.1","1.111","309","1010.454","8.2","90.6","-2.6860000000000004","0.0"],
    [1403776,"2026-03-18 05:30:00","41356","0.6559999999999999","305.7","1.111","308.9","1010.445","8.16","90.6","-2.74","0.0"],
    [1403777,"2026-03-18 05:40:00","41357","1.077","287.7","1.699","283.6","1010.498","8.27","90.7","-2.7","0.0"],
    [1403778,"2026-03-18 05:50:00","41358","0.851","297.1","1.601","287.6","1010.539","8.09","90.9","-1.63","0.0"],
    [1403779,"2026-03-18 06:00:00","41359","0.7390000000000001","304.5","1.143","306.9","1010.492","7.973","91.7","0.64","0.0"],
    [1403780,"2026-03-18 06:10:00","41360","0.423","301.5","1.274","306.8","1010.5239999999999","8.32","92.1","8.01","0.0"],
    [1403781,"2026-03-18 06:20:00","41361","0.0","0.0","0","0","1010.579","8.18","91.8","28.49","0.0"],
    [1403782,"2026-03-18 06:30:00","41362","0.099","305.2","1.013","304.7","1010.607","8.17","91.4","45.88","0.0"],
    [1403783,"2026-03-18 06:40:00","41363","1.24","302.2","1.633","298.5","1010.66","8.42","90.8","69.67","0.0"],
    [1403784,"2026-03-18 06:50:00","41364","1.36","294.0","1.862","324.1","1010.692","8.58","89.8","95.3","0.0"],
    [1403785,"2026-03-18 07:00:00","41365","0.868","275.5","1.764","277.3","1010.8480000000001","9.07","88.5","123.7","0.0"],
    [1403786,"2026-03-18 07:10:00","41366","1.235","265.4","1.927","278.6","1010.9630000000001","9.34","87.0","134.9","0.0"],
    [1403787,"2026-03-18 07:20:00","41367","1.578","279.5","2.221","267.6","1010.954","9.64","86.7","193.2","0.0"],
    [1403788,"2026-03-18 07:30:00","41368","1.188","273.7","2.091","280.7","1010.949","9.79","85.9","119.0","0.0"],
    [1403789,"2026-03-18 07:40:00","41369","0.539","278.4","1.535","282.5","1011.003","10.08","85.6","179.0","0.0"],
    [1403790,"2026-03-18 07:50:00","41370","0.039","239.0","0.751","246","1011.065","10.93","84.5","238.1","0.0"],
    [1403791,"2026-03-18 08:00:00","41371","0.013999999999999999","223.8","0.751","220.5","1011.069","11.65","84.2","291.6","0.0"],
    [1403792,"2026-03-18 08:10:00","41372","0.012","297.8","0.425","305.3","1010.998","12.7","81.8","355.7","0.0"],
    [1403793,"2026-03-18 08:20:00","41373","0.389","56.84","2.352","79.68","1011.0010000000001","12.96","82.4","378.9","0.0"],
    [1403794,"2026-03-18 08:30:00","41374","2.479","87.1","3.561","89.8","1011.041","12.51","84.4","317.2","0.0"],
    [1403795,"2026-03-18 08:40:00","41375","1.544","77.97","3.103","94.2","1011.0260000000001","11.73","87.6","174.4","0.0"],
    [1403796,"2026-03-18 08:50:00","41376","1.693","78.82","3.593","101.7","1011.038","11.89","88.0","208.4","0.0"],
    [1403797,"2026-03-18 09:00:00","41377","1.8419999999999999","63.97","3.365","80.1","1011.054","11.92","88.1","225.9","0.0"],
    [1403798,"2026-03-18 09:10:00","41378","1.271","46.98","2.548","31.23","1011.065","12.05","87.8","275.6","0.0"],
    [1403799,"2026-03-18 09:20:00","41379","1.1159999999999999","63.81","2.025","66.46","1011.1080000000001","12.33","86.8","286.5","0.0"],
    [1403800,"2026-03-18 09:30:00","41380","1.5290000000000001","55.94","2.483","68.62","1011.062","12.88","84.9","426.5","0.0"],
    [1403801,"2026-03-18 09:40:00","41381","1.6230000000000002","55.71","3.136","56.19","1011.062","13.28","82.3","356.4","0.0"],
    [1403802,"2026-03-18 09:50:00","41382","1.103","66.34","2.45","89","1011.049","13.31","82.4","337.2","0.0"],
    [1403803,"2026-03-18 10:00:00","41383","2.286","72.19","4.377","76.83","1011.0010000000001","13.36","81.7","360.6","0.0"],
    [1403804,"2026-03-18 10:10:00","41384","2.254","71.89","3.593","59.71","1010.941","13.59","80.4","598.4","0.0"],
    [1403805,"2026-03-18 10:20:00","41385","2.735","69.4","4.247","68.62","1010.83","13.73","78.55","689.6","0.0"],
    [1403806,"2026-03-18 10:30:00","41386","2.49","60.12","4.606","79.61","1010.804","14.01","78.72","716.1","0.0"],
    [1403807,"2026-03-18 10:40:00","41387","3.33","69.91","4.965","81","1010.716","13.96","79.07","737.3","0.0"],
    [1403808,"2026-03-18 10:50:00","41388","2.9989999999999997","72.57","5.031","76.79","1010.7230000000001","14.07","79.73","733.2","0.0"],
    [1403809,"2026-03-18 11:00:00","41389","3.077","69.87","5.096","65.95","1010.682","14.06","80.0","771.9","0.0"],
    [1403810,"2026-03-18 11:10:00","41390","2.84","76.04","4.9","88.5","1010.6489999999999","14.34","79.51","784.1","0.0"],
    [1403811,"2026-03-18 11:20:00","41391","2.859","82.1","4.377","91.3","1010.575","14.2","77.99","789.5","0.0"],
    [1403812,"2026-03-18 11:30:00","41392","2.222","88.5","3.822","78.53","1010.5039999999999","14.38","76.76","791.3","0.0"],
    [1403813,"2026-03-18 11:40:00","41393","2.346","87.5","3.789","83.7","1010.4889999999999","14.48","76.57","795.2","0.0"],
    [1403814,"2026-03-18 11:50:00","41394","2.694","94.0","4.051","98.9","1010.3919999999999","14.31","76.78","799.6","0.0"],
    [1403815,"2026-03-18 12:00:00","41395","3.259","86.5","4.9","81.4","1010.2739999999999","14.41","76.13","805.0","0.0"],
    [1403816,"2026-03-18 12:10:00","41396","3.5380000000000003","82.6","5.063","67.1","1010.22","14.59","76.03","803.0","0.0"],
    [1403817,"2026-03-18 12:20:00","41397","3.8280000000000003","86.5","5.586","74.86","1010.067","14.59","75.48","803.0","0.0"],
    [1403818,"2026-03-18 12:30:00","41398","3.713","90.5","5.129","88.3","1009.945","14.51","76.53","800.0","0.0"],
    [1403819,"2026-03-18 12:40:00","41399","3.9419999999999997","81.3","5.488","91","1009.829","14.68","75.46","795.3","0.0"],
    [1403820,"2026-03-18 12:50:00","41400","3.8480000000000003","78.96","5.553","79.82","1009.6310000000001","14.67","75.86","789.0","0.0"],
    [1403821,"2026-03-18 13:00:00","41401","3.96","75.44","5.39","92.7","1009.4939999999999","14.75","75.25","780.3","0.0"],
    [1403822,"2026-03-18 13:10:00","41402","4.36","77.79","6.239","89.7","1009.3760000000001","14.8","74.59","769.7","0.0"],
    [1403823,"2026-03-18 13:20:00","41403","4.419","72.85","5.978","85.8","1009.3639999999999","14.72","75.72","757.4","0.0"],
    [1403824,"2026-03-18 13:30:00","41404","4.603","69.35","5.717","71.31","1009.258","14.87","76.2","744.4","0.0"],
    [1403825,"2026-03-18 13:40:00","41405","4.6530000000000005","73.67","6.272","73.91","1009.163","15.01","75.74","728.9","0.0"],
    [1403826,"2026-03-18 13:50:00","41406","5.0089999999999995","71.27","6.893","81.5","1009.18","15.02","72.8","711.1","0.0"],
    [1403827,"2026-03-18 14:00:00","41407","5.162000000000001","72.52","7.187","87.3","1009.285","14.9","73.78","692.3","0.0"],
    [1403828,"2026-03-18 14:10:00","41408","5.138999999999999","70.47","7.317","76.21","1009.328","15.19","73.98","672.9","0.0"],
    [1403829,"2026-03-18 14:20:00","41409","5.706","71.76","7.644","67.69","1009.466","15.03","73.6","646.5","0.0"],
    [1403830,"2026-03-18 14:30:00","41410","5.671","71.42","7.644","70.1","1009.551","15.12","72.4","634.0","0.0"],
    [1403831,"2026-03-18 14:40:00","41411","5.465","67.79","7.84","53.81","1009.6389999999999","15.19","73.04","589.1","0.0"],
    [1403832,"2026-03-18 14:50:00","41412","5.444","65.54","7.481","63.84","1009.7239999999999","14.98","73.85","469.6","0.0"],
    [1403833,"2026-03-18 15:00:00","41413","5.757999999999999","74.26","7.644","75.31","1009.8","15.17","72.79","588.4","0.0"],
    [1403834,"2026-03-18 15:10:00","41414","5.773","66.5","7.448","75.57","1009.8860000000001","15.16","73.31","531.2","0.0"],
    [1403835,"2026-03-18 15:20:00","41415","5.747000000000001","67.01","7.546","75.68","1010.0239999999999","15.1","73.44","415.6","0.0"],
    [1403836,"2026-03-18 15:30:00","41416","6.065","71.57","8.4","68.61","1010.087","14.97","74.94","390.5","0.0"],
    [1403837,"2026-03-18 15:40:00","41417","5.789","67.61","8.23","77.82","1010.258","14.95","75.53","331.2","0.0"],
    [1403838,"2026-03-18 15:50:00","41418","5.566","70.5","7.677","60.39","1010.294","14.9","76.14","269.0","0.0"],
    [1403839,"2026-03-18 16:00:00","41419","5.845","73.23","7.905","72.21","1010.3969999999999","14.92","74.72","363.2","0.0"],
    [1403840,"2026-03-18 16:10:00","41420","6.02","73.96","8.4","72.77","1010.446","15.07","73.7","337.4","0.0"],
    [1403841,"2026-03-18 16:20:00","41421","6.188","76.26","8.82","86.9","1010.534","15.12","74.73","292.7","0.0"],
    [1403842,"2026-03-18 16:30:00","41422","5.922000000000001","71.08","8.13","77.73","1010.6310000000001","14.99","76.29","268.3","0.0"],
    [1403843,"2026-03-18 16:40:00","41423","5.756","67.2","8.1","79.58","1010.808","14.98","76.51","221.3","0.0"],
    [1403844,"2026-03-18 16:50:00","41424","6.996","69.16","9.83","71.14","1011.044","14.73","75.86","132.2","0.0"],
    [1403845,"2026-03-18 17:00:00","41425","7.484","68.16","10.65","72.99","1011.138","14.58","76.32","102.9","0.0"],
    [1403846,"2026-03-18 17:10:00","41426","7.34","66.83","11.07","76.69","1011.171","14.32","76.74","53.38","0.0"],
    [1403847,"2026-03-18 17:20:00","41427","7.617999999999999","69.26","10.81","66.25","1011.307","14.31","76.92","64.55","0.0"],
    [1403848,"2026-03-18 17:30:00","41428","7.216","68.6","10.36","80.3","1011.512","14.21","77.6","33.04","0.0"],
    [1403849,"2026-03-18 17:40:00","41429","7.943","72.98","12.05","65.51","1011.602","14.12","78.56","23.41","0.0"],
    [1403850,"2026-03-18 17:50:00","41430","7.598","73.23","11.66","78.56","1011.7360000000001","14.01","79.22","10.6","0.0"],
    [1403851,"2026-03-18 18:00:00","41431","6.973","68.69","9.9","66.15","1011.8560000000001","13.94","79.87","4.234","0.0"],
    [1403852,"2026-03-18 18:10:00","41432","7.407","63.5","10","63.44","1011.852","13.91","80.6","0.34299999999999997","0.0"],
    [1403853,"2026-03-18 18:20:00","41433","7.683","63.38","10.88","65.32","1011.913","13.91","80.4","-1.382","0.0"],
    [1403854,"2026-03-18 18:30:00","41434","7.27","59.37","10.58","56.95","1011.961","13.92","81.5","-1.979","0.0"],
    [1403855,"2026-03-18 18:40:00","41435","7.055","60.76","10.16","42.8","1012.07","13.91","81.7","-1.994","0.0"],
    [1403856,"2026-03-18 18:50:00","41436","7.144","62.11","10.68","62.69","1012.255","13.89","82.1","-1.973","0.0"],
    [1403857,"2026-03-18 19:00:00","41437","6.551","63.63","9.41","68.76","1012.395","13.81","81.1","-2.0069999999999997","0.0"],
    [1403858,"2026-03-18 19:10:00","41438","6.534","65.75","9.83","73.02","1012.6469999999999","13.79","80.9","-2.035","0.0"],
    [1403859,"2026-03-18 19:20:00","41439","6.0489999999999995","64.99","8.62","73.84","1012.794","13.84","81.4","-1.722","0.0"],
    [1403860,"2026-03-18 19:30:00","41440","6.609","60.49","9.6","62.52","1012.852","13.82","80.8","-1.964","0.0"],
    [1403861,"2026-03-18 19:40:00","41441","6.059","64.67","8.85","57.8","1012.9830000000001","13.78","81.0","-1.953","0.0"],
    [1403862,"2026-03-18 19:50:00","41442","5.593999999999999","64.71","8.49","81.6","1013.188","13.92","81.3","-1.052","0.0"],
    [1403863,"2026-03-18 20:00:00","41443","7.892","79.79","11.6","85","1013.43","13.86","80.6","-0.522","0.0"],
    [1403864,"2026-03-18 20:10:00","41444","8.37","80.8","11.14","76.12","1013.602","13.88","79.33","-0.523","0.0"],
    [1403865,"2026-03-18 20:20:00","41445","7.962999999999999","78.13","11.96","72.29","1013.668","13.73","78.67","-0.48700000000000004","0.0"],
    [1403866,"2026-03-18 20:30:00","41446","7.787000000000001","77.33","11.86","90.9","1013.778","13.62","78.82","-0.526","0.0"],
    [1403867,"2026-03-18 20:40:00","41447","7.521","72.33","10.55","72.57","1013.9010000000001","13.55","78.95","-0.489","0.0"],
    [1403868,"2026-03-18 20:50:00","41448","7.46","70.25","10.32","56.35","1013.945","13.48","79.16","-0.493","0.0"],
    [1403869,"2026-03-18 21:00:00","41449","7.394","67.23","10.09","58.48","1013.9910000000001","13.47","79.05","-0.528","0.0"],
    [1403870,"2026-03-18 21:10:00","41450","7.391","65.86","10.36","61.02","1014.107","13.47","78.55","-0.509","0.0"],
    [1403871,"2026-03-18 21:20:00","41451","6.845","66.92","10.16","54.06","1014.2539999999999","13.44","79.05","-0.517","0.0"],
    [1403872,"2026-03-18 21:30:00","41452","7.138999999999999","64.19","11.24","58.95","1014.32","13.41","78.68","-0.767","0.0"],
    [1403873,"2026-03-18 21:40:00","41453","6.903","66.34","9.64","67.34","1014.4989999999999","13.38","78.22","-0.853","0.0"],
    [1403874,"2026-03-18 21:50:00","41454","7.381","63.97","9.64","63.02","1014.562","13.38","77.0","-0.562","0.0"],
    [1403875,"2026-03-18 22:00:00","41455","7.446000000000001","65.88","10.52","57.57","1014.635","13.39","75.18","-0.7170000000000001","0.0"],
    [1403876,"2026-03-18 22:10:00","41456","7.5360000000000005","67.38","10.06","66.3","1014.698","13.4","73.13","-0.579","0.0"],
    [1403877,"2026-03-18 22:20:00","41457","7.553999999999999","66.85","10.22","67.68","1014.7689999999999","13.39","72.45","-0.568","0.0"],
    [1403878,"2026-03-18 22:30:00","41458","7.59","67.11","10.55","65.39","1014.829","13.39","71.62","-0.564","0.0"],
    [1403879,"2026-03-18 22:40:00","41459","7.072","64.91","10.55","60.11","1014.921","13.38","71.64","-0.557","0.0"],
    [1403880,"2026-03-18 22:50:00","41460","7.22","68.25","10.26","68.79","1015.005","13.37","71.75","-0.605","0.0"],
    [1403881,"2026-03-18 23:00:00","41461","7.282","70.35","10.55","60.38","1015.1139999999999","13.32","73.14","-0.579","0.0"],
    [1403882,"2026-03-18 23:10:00","41462","7.723","72.44","11.79","66.44","1015.2660000000001","13.2","73.2","-0.515","0.0"],
    [1403883,"2026-03-18 23:20:00","41463","7.496","73.91","11.73","78.23","1015.324","13.08","72.25","-0.649","0.0"],
    [1403884,"2026-03-18 23:30:00","41464","8.05","73.9","11.34","85.5","1015.294","13.13","70.73","-0.7440000000000001","0.0"],
    [1403885,"2026-03-18 23:40:00","41465","7.807","76.0","11.63","73.83","1015.328","13.13","68.53","-1.004","0.0"],
    [1403886,"2026-03-18 23:50:00","41466","8.04","74.47","11.3","76.84","1015.398","13.11","67.83","-1.1440000000000001","0.0"],
    [1403887,"2026-03-19 00:00:00","41467","7.19","75.84","10.45","73.88","1015.403","13.15","67.05","-1.2570000000000001","0.0"],
    [1403888,"2026-03-19 00:10:00","41468","7.476","71.93","10.81","74.34","1015.456","13.17","66.45","-0.953","0.0"],
    [1403889,"2026-03-19 00:20:00","41469","7.5889999999999995","73.77","10.88","77.97","1015.5110000000001","13.19","67.04","-1.054","0.0"],
    [1403890,"2026-03-19 00:30:00","41470","6.827000000000001","74.22","10.26","80.5","1015.6489999999999","13.18","66.72","-0.98","0.0"],
    [1403891,"2026-03-19 00:40:00","41471","6.694","69.97","9.51","77.76","1015.812","13.19","67.42","-1.069","0.0"],
    [1403892,"2026-03-19 00:50:00","41472","6.831","65.9","10.16","76.42","1015.883","13.19","67.92","-1.02","0.0"],
    [1403893,"2026-03-19 01:00:00","41473","6.223","62.67","8.59","67.16","1015.8710000000001","13.19","69.56","-0.828","0.0"],
    [1403894,"2026-03-19 01:10:00","41474","6.397","65.56","9.38","58.47","1015.8789999999999","13.22","69.62","-1.047","0.0"],
    [1403895,"2026-03-19 01:20:00","41475","6.4510000000000005","64.83","9.77","62.1","1015.8810000000001","13.25","69.13","-0.966","0.0"],
    [1403896,"2026-03-19 01:30:00","41476","6.837999999999999","63.15","9.6","56.1","1015.8760000000001","13.25","69.02","-0.898","0.0"],
    [1403897,"2026-03-19 01:40:00","41477","6.334","67.2","8.62","63.74","1015.758","13.22","69.4","-0.73","0.0"],
    [1403898,"2026-03-19 01:50:00","41478","6.399","66.25","8.82","79.6","1015.78","13.2","69.39","-0.976","0.0"],
    [1403899,"2026-03-19 02:00:00","41479","6.657","65.28","9.11","68.71","1015.77","13.16","68.56","-1.022","0.0"],
    [1403900,"2026-03-19 02:10:00","41480","6.776","66.74","9.34","65.41","1015.702","13.19","68.77","-1.143","0.0"],
    [1403901,"2026-03-19 02:20:00","41481","6.291","69.99","8.89","58.73","1015.612","13.17","68.69","-1.148","0.0"],
    [1403902,"2026-03-19 02:30:00","41482","5.981","65.99","8.92","60.59","1015.5010000000001","13.15","69.85","-1.158","0.0"],
    [1403903,"2026-03-19 02:40:00","41483","6.191","70.58","8.82","72.69","1015.431","13.11","70.67","-1.239","0.0"],
    [1403904,"2026-03-19 02:50:00","41484","6.287000000000001","69.01","9.31","63.15","1015.425","13.09","69.89","-1.2","0.0"],
    [1403905,"2026-03-19 03:00:00","41485","5.83","66.29","8.23","69.09","1015.4639999999999","13.11","70.11","-1.207","0.0"],
    [1403906,"2026-03-19 03:10:00","41486","5.435","65.94","8.33","67.99","1015.441","13.06","70.26","-1.254","0.0"],
    [1403907,"2026-03-19 03:20:00","41487","5.428999999999999","68.61","8","49.6","1015.415","12.99","68.67","-1.297","0.0"],
    [1403908,"2026-03-19 03:30:00","41488","5.4239999999999995","66.35","8.2","77.42","1015.365","13.0","68.23","-1.2690000000000001","0.0"],
    [1403909,"2026-03-19 03:40:00","41489","5.154","59.01","7.579","70.36","1015.342","13.1","69.3","-1.249","0.0"],
    [1403910,"2026-03-19 03:50:00","41490","5.407","61.43","7.807","59.54","1015.317","13.12","68.72","-1.199","0.0"],
    [1403911,"2026-03-19 04:00:00","41491","6.194","61.16","9.05","65.57","1015.2289999999999","13.16","68.18","-1.236","0.0"],
    [1403912,"2026-03-19 04:10:00","41492","5.856","58.28","7.971","47.73","1015.211","13.13","69.28","-1.173","0.0"],
    [1403913,"2026-03-19 04:20:00","41493","6.5329999999999995","54.52","9.83","53.75","1015.128","13.11","69.2","-1.0490000000000002","0.0"],
    [1403914,"2026-03-19 04:30:00","41494","6.064","55.33","9.11","56.99","1015.081","13.07","69.12","-1.212","0.0"],
    [1403915,"2026-03-19 04:40:00","41495","6.345","56.45","9.24","50.73","1015.064","12.98","68.1","-1.305","0.0"],
    [1403916,"2026-03-19 04:50:00","41496","6.024","60.19","9.64","63.93","1015.1389999999999","12.88","68.11","-1.9880000000000002","0.0"],
    [1403917,"2026-03-19 05:00:00","41497","5.956","57.18","8.82","63.08","1015.191","12.88","68.73","-1.841","0.0"],
    [1403918,"2026-03-19 05:10:00","41498","4.928999999999999","43.28","8.4","26.69","1015.318","12.76","69.08","-1.548","0.0"],
    [1403919,"2026-03-19 05:20:00","41499","4.708","41.48","7.448","52.17","1015.422","12.63","69.24","-2.022","0.0"],
    [1403920,"2026-03-19 05:30:00","41500","4.802","40.01","8.04","30.74","1015.4630000000001","12.48","69.37","-2.026","0.0"],
    [1403921,"2026-03-19 05:40:00","41501","4.435","41.29","7.677","37.31","1015.477","12.4","69.01","-2.146","0.0"],
    [1403922,"2026-03-19 05:50:00","41502","4.112","41.14","6.631","40.39","1015.488","12.48","67.93","-0.823","0.0"],
    [1403923,"2026-03-19 06:00:00","41503","4.345","38.67","7.252","38.24","1015.541","12.54","67.17","1.3780000000000001","0.0"],
    [1403924,"2026-03-19 06:10:00","41504","4.437","41.59","6.925","48.57","1015.62","12.51","66.86","5.97","0.0"],
    [1403925,"2026-03-19 06:20:00","41505","3.9619999999999997","42.97","6.795","38.06","1015.7489999999999","12.44","67.46","13.77","0.0"],
    [1403926,"2026-03-19 06:30:00","41506","4.305","44.3","6.697","49.61","1015.862","12.49","67.38","22.06","0.0"],
    [1403927,"2026-03-19 06:40:00","41507","3.721","39.43","6.011","32.17","1015.931","12.48","67.54","24.46","0.0"],
    [1403928,"2026-03-19 06:50:00","41508","3.322","36.38","4.737","43.46","1015.965","12.59","66.48","47.97","0.0"],
    [1403929,"2026-03-19 07:00:00","41509","3.735","41.52","5.096","57.93","1015.965","12.81","66.82","108.7","0.0"],
    [1403930,"2026-03-19 07:10:00","41510","4.462","43.33","6.827","47.5","1016.0","13.03","66.49","110.7","0.0"],
    [1403931,"2026-03-19 07:20:00","41511","4.265","39.45","6.795","37.47","1016.1060000000001","12.93","67.09","134.2","0.0"],
    [1403932,"2026-03-19 07:30:00","41512","4.907","44.34","8.23","43.6","1016.1189999999999","13.07","67.15","169.0","0.0"],
    [1403933,"2026-03-19 07:40:00","41513","4.341","46.0","7.023","43.17","1016.247","13.31","66.25","225.4","0.0"],
    [1403934,"2026-03-19 07:50:00","41514","4.963","47.54","7.285","43.51","1016.4689999999999","13.47","65.2","261.2","0.0"],
    [1403935,"2026-03-19 08:00:00","41515","4.584","45.08","7.187","28.9","1016.692","13.63","64.69","300.0","0.0"],
    [1403936,"2026-03-19 08:10:00","41516","4.787","39.97","6.729","16.75","1016.8710000000001","13.82","63.21","335.6","0.0"],
    [1403937,"2026-03-19 08:20:00","41517","4.01","46.09","5.815","56.06","1016.99","13.77","62.99","231.2","0.0"],
    [1403938,"2026-03-19 08:30:00","41518","3.6460000000000004","41.21","6.435","48.88","1017.077","13.73","63.21","310.0","0.0"],
    [1403939,"2026-03-19 08:40:00","41519","4.394","41.58","6.795","47.58","1017.13","14.28","63.24","531.3","0.0"],
    [1403940,"2026-03-19 08:50:00","41520","5.557","40.19","7.481","47.67","1017.1560000000001","14.25","63.51","567.7","0.0"],
    [1403941,"2026-03-19 09:00:00","41521","4.931","44.12","8.17","60.74","1017.273","14.37","64.96","465.6","0.0"],
    [1403942,"2026-03-19 09:10:00","41522","5.327000000000001","44.33","7.742","51.24","1017.3439999999999","14.3","65.8","580.7","0.0"],
    [1403943,"2026-03-19 09:20:00","41523","5.606","46.07","8.17","58.79","1017.3789999999999","14.23","66.64","398.7","0.0"],
    [1403944,"2026-03-19 09:30:00","41524","5.081","46.45","7.873","44.87","1017.393","14.02","68.3","236.7","0.0"],
    [1403945,"2026-03-19 09:40:00","41525","5.127999999999999","47.19","8.1","46","1017.422","13.52","69.88","140.0","0.0"],
    [1403946,"2026-03-19 09:50:00","41526","3.9339999999999997","39.3","6.599","42.8","1017.4630000000001","13.23","71.87","95.4","0.0"],
    [1403947,"2026-03-19 10:00:00","41527","4.138","46.29","6.958","31.73","1017.436","13.19","72.54","44.74","0.0"],
    [1403948,"2026-03-19 10:10:00","41528","4.468999999999999","53.77","6.599","55","1017.405","13.39","71.6","52.5","0.0"],
    [1403949,"2026-03-19 10:20:00","41529","5.251","52.42","6.631","58.27","1017.3689999999999","13.42","71.35","75.94","0.0"],
    [1403950,"2026-03-19 10:30:00","41530","4.523","50.63","6.566","54.08","1017.3969999999999","13.55","72.09","100.3","0.0"],
    [1403951,"2026-03-19 10:40:00","41531","4.091","45.49","6.109","40.52","1017.3889999999999","13.67","71.73","128.6","0.0"],
    [1403952,"2026-03-19 10:50:00","41532","4.037","51.34","5.978","58.55","1017.3330000000001","13.87","70.59","176.8","0.0"],
    [1403953,"2026-03-19 11:00:00","41533","5.086","64.34","7.677","62.28","1017.2919999999999","14.31","66.16","275.0","0.0"],
    [1403954,"2026-03-19 11:10:00","41534","4.949","67.31","7.089","72.88","1017.2810000000001","14.64","64.3","359.2","0.0"],
    [1403955,"2026-03-19 11:20:00","41535","5.7589999999999995","65.5","7.807","73.4","1017.2539999999999","14.79","61.6","430.0","0.0"],
    [1403956,"2026-03-19 11:30:00","41536","5.709","55.77","8","54.8","1017.3439999999999","14.62","65.95","395.4","0.0"],
    [1403957,"2026-03-19 11:40:00","41537","5.75","54.4","8.4","54.24","1017.441","14.49","66.77","474.0","0.0"],
    [1403958,"2026-03-19 11:50:00","41538","5.295","54.86","7.056","41.83","1017.446","14.77","65.67","468.0","0.0"],
    [1403959,"2026-03-19 12:00:00","41539","5.6739999999999995","53.44","7.938","50.95","1017.413","14.56","65.42","381.6","0.0"],
    [1403960,"2026-03-19 12:10:00","41540","5.072","57.55","7.089","57.11","1017.3489999999999","14.61","65.18","358.3","0.0"],
    [1403961,"2026-03-19 12:20:00","41541","4.853","56.33","6.86","58.54","1017.3660000000001","14.53","64.91","268.2","0.0"],
    [1403962,"2026-03-19 12:30:00","41542","5.153","55.33","7.121","61.16","1017.3660000000001","14.33","65.69","235.6","0.0"],
    [1403963,"2026-03-19 12:40:00","41543","4.793","57.82","6.729","59.89","1017.295","14.38","66.16","247.9","0.0"],
    [1403964,"2026-03-19 12:50:00","41544","5.212000000000001","55.4","7.513","50.42","1017.155","14.49","65.69","321.2","0.0"],
    [1403965,"2026-03-19 13:00:00","41545","5.169","52.0","7.644","51.82","1017.069","14.5","66.07","334.8","0.0"],
    [1403966,"2026-03-19 13:10:00","41546","4.9239999999999995","58.3","6.664","62.7","1016.852","14.76","66.01","325.2","0.0"],
    [1403967,"2026-03-19 13:20:00","41547","5.035","57.27","7.056","62.41","1016.7769999999999","14.57","66.33","357.3","0.0"],
    [1403968,"2026-03-19 13:30:00","41548","5.042","56.96","7.448","62.34","1016.686","14.73","65.77","373.1","0.0"],
    [1403969,"2026-03-19 13:40:00","41549","5.0169999999999995","58.49","6.86","60.05","1016.6610000000001","14.55","66.7","170.7","0.0"],
    [1403970,"2026-03-19 13:50:00","41550","5.256","54.49","7.023","44.35","1016.612","14.13","67.34","98.3","0.0"],
    [1403971,"2026-03-19 14:00:00","41551","4.495","42.69","6.958","42.8","1016.548","14.09","67.0","89.9","0.0"],
    [1403972,"2026-03-19 14:10:00","41552","4.433","45.98","6.566","47.99","1016.512","14.12","66.3","100.9","0.0"],
    [1403973,"2026-03-19 14:20:00","41553","4.165","50.9","5.978","60.5","1016.488","14.1","66.19","101.2","0.0"],
    [1403974,"2026-03-19 14:30:00","41554","4.546","42.41","6.468","33.47","1016.37","14.1","65.71","99.7","0.0"],
    [1403975,"2026-03-19 14:40:00","41555","4.023","40.76","5.847","30.78","1016.291","14.14","65.28","126.2","0.0"],
    [1403976,"2026-03-19 14:50:00","41556","4.254","40.07","6.762","38.18","1016.191","14.18","65.3","140.9","0.0"],
    [1403977,"2026-03-19 15:00:00","41557","4.668","40.25","7.252","37.25","1016.0880000000001","14.19","65.49","164.4","0.0"],
    [1403978,"2026-03-19 15:10:00","41558","4.939","41.84","7.154","37.63","1016.025","14.16","65.57","156.6","0.0"],
    [1403979,"2026-03-19 15:20:00","41559","4.827","40.65","6.207","50.33","1016.058","14.21","65.77","191.7","0.0"],
    [1403980,"2026-03-19 15:30:00","41560","4.633","43.79","6.697","46.87","1015.961","14.31","65.04","216.6","0.0"],
    [1403981,"2026-03-19 15:40:00","41561","4.066","41.28","6.403","34.89","1015.898","14.42","64.87","204.6","0.0"],
    [1403982,"2026-03-19 15:50:00","41562","4.245","47.8","6.599","48.8","1015.8989999999999","14.38","65.14","168.8","0.0"],
    [1403983,"2026-03-19 16:00:00","41563","4.2589999999999995","51.49","6.533","56.34","1015.946","14.26","66.1","147.2","0.0"],
    [1403984,"2026-03-19 16:10:00","41564","3.8539999999999996","43.22","5.684","35.52","1015.961","14.18","66.73","138.3","0.0"],
    [1403985,"2026-03-19 16:20:00","41565","3.759","43.37","5.717","53.29","1015.8639999999999","14.16","67.01","130.8","0.0"],
    [1403986,"2026-03-19 16:30:00","41566","3.77","45.54","6.272","41.25","1015.825","14.06","67.42","90.8","0.0"],
    [1403987,"2026-03-19 16:40:00","41567","3.823","45.99","5.782","43.11","1015.882","13.88","68.08","66.89","0.0"],
    [1403988,"2026-03-19 16:50:00","41568","3.782","47.79","5.88","58.76","1015.868","13.8","68.37","86.9","0.0"],
    [1403989,"2026-03-19 17:00:00","41569","3.59","45.92","5.619","71.12","1015.962","13.98","67.88","132.4","0.0"],
    [1403990,"2026-03-19 17:10:00","41570","3.82","58.81","5.684","82.4","1016.071","14.06","67.91","103.8","0.0"],
    [1403991,"2026-03-19 17:20:00","41571","3.511","49.7","5.096","62","1016.153","13.93","67.77","46.12","0.0"],
    [1403992,"2026-03-19 17:30:00","41572","3.573","44.42","5.39","51.41","1016.204","13.83","68.9","26.96","0.0"],
    [1403993,"2026-03-19 17:40:00","41573","4.254","55.5","6.435","59.39","1016.2410000000001","13.83","69.29","17.83","0.0"],
    [1403994,"2026-03-19 17:50:00","41574","3.947","54.68","5.488","73.12","1016.205","13.72","69.02","13.46","0.0"],
    [1403995,"2026-03-19 18:00:00","41575","3.3","51.86","4.933","43.47","1016.23","13.54","69.58","7.25","0.0"],
    [1403996,"2026-03-19 18:10:00","41576","3.1239999999999997","52.56","4.769","54.61","1016.312","13.49","70.28","0.981","0.0"],
    [1403997,"2026-03-19 18:20:00","41577","3.6439999999999997","54.53","5.129","47.26","1016.4","13.4","70.25","-1.6369999999999998","0.0"],
    [1403998,"2026-03-19 18:30:00","41578","3.426","51.13","4.965","65.09","1016.432","13.42","69.52","-2.011","0.0"],
    [1403999,"2026-03-19 18:40:00","41579","2.967","49.64","4.639","41.45","1016.438","13.36","69.57","-2.332","0.0"],
    [1404000,"2026-03-19 18:50:00","41580","3.0469999999999997","53.04","4.247","51.52","1016.488","13.29","69.44","-2.7460000000000004","0.0"],
    [1404001,"2026-03-19 19:00:00","41581","2.6010000000000004","47.55","3.789","43.37","1016.558","13.23","69.65","-2.7439999999999998","0.0"],
    [1404002,"2026-03-19 19:10:00","41582","2.278","43.4","3.757","52.15","1016.5219999999999","13.15","70.02","-2.759","0.0"],
    [1404003,"2026-03-19 19:20:00","41583","2.176","34.61","3.691","46.97","1016.508","13.0","70.33","-2.762","0.0"],
    [1404004,"2026-03-19 19:30:00","41584","1.774","38.66","2.809","45.1","1016.6060000000001","12.87","70.67","-2.85","0.0"],
    [1404005,"2026-03-19 19:40:00","41585","1.7","36.66","2.417","30.29","1016.625","12.69","71.08","-2.859","0.0"],
    [1404006,"2026-03-19 19:50:00","41586","1.232","37.16","2.058","36.09","1016.678","12.54","71.37","-3.1210000000000004","0.0"],
    [1404007,"2026-03-19 20:00:00","41587","1.2009999999999998","35.71","1.895","30.16","1016.727","12.37","71.91","-3.0869999999999997","0.0"],
    [1404008,"2026-03-19 20:10:00","41588","0.748","32.39","1.633","31.88","1016.8530000000001","12.04","73.07","-3.408","0.0"],
    [1404009,"2026-03-19 20:20:00","41589","0.0","0.0","0","0","1016.915","11.71","73.62","-3.4589999999999996","0.0"],
    [1404010,"2026-03-19 20:30:00","41590","0.179","16.37","0.817","16.6","1016.9069999999999","11.41","74.73","-3.412","0.0"],
    [1404011,"2026-03-19 20:40:00","41591","0.31","2.1519999999999997","1.176","12.17","1016.945","11.19","75.5","-2.9339999999999997","0.0"],
    [1404012,"2026-03-19 20:50:00","41592","1.403","19.4","1.797","17.88","1016.949","11.05","76.27","-2.821","0.0"],
    [1404013,"2026-03-19 21:00:00","41593","1.5919999999999999","19.41","1.829","24.59","1016.929","11.08","75.54","-2.778","0.0"],
    [1404014,"2026-03-19 21:10:00","41594","1.3030000000000002","20.34","NAN","24.59","1016.941","11.2","74.46","-2.762","0.0"],
    [1404015,"2026-03-19 21:20:00","41595","1.113","18.97","NAN","24.59","1017.002","10.74","76.05","-2.8339999999999996","0.0"],
    [1404016,"2026-03-19 21:30:00","41596","1.01","10.3","NAN","24.59","1017.04","10.76","76.43","-2.783","0.0"],
    [1404017,"2026-03-19 21:40:00","41597","0.6890000000000001","358.1","1.209","2.808","1017.0369999999999","10.72","76.44","-2.761","0.0"],
    [1404018,"2026-03-19 21:50:00","41598","0.723","329.2","1.143","313.9","1017.051","10.25","77.73","-2.762","0.0"],
    [1404019,"2026-03-19 22:00:00","41599","1.122","310.3","1.503","316.9","1017.068","9.91","79.04","-2.798","0.0"],
    [1404020,"2026-03-19 22:10:00","41600","0.904","325.1","1.503","312","1016.962","9.78","79.9","-2.8089999999999997","0.0"],
    [1404021,"2026-03-19 22:20:00","41601","0.841","326.4","1.143","330.5","1016.918","9.57","80.8","-2.8510000000000004","0.0"],
    [1404022,"2026-03-19 22:30:00","41602","0.705","327.6","1.111","330.6","1016.875","9.64","80.3","-2.805","0.0"],
    [1404023,"2026-03-19 22:40:00","41603","0.7759999999999999","267.3","1.993","277.9","1016.872","9.52","80.8","-2.969","0.0"],
    [1404024,"2026-03-19 22:50:00","41604","1.646","269.4","2.483","271.2","1016.8839999999999","9.77","80.1","-2.952","0.0"],
    [1404025,"2026-03-19 23:00:00","41605","1.386","284.9","2.221","279.1","1016.846","9.37","80.4","-2.764","0.0"],
    [1404026,"2026-03-19 23:10:00","41606","1.189","291.4","1.666","293.5","1016.842","8.86","82.6","-2.995","0.0"],
    [1404027,"2026-03-19 23:20:00","41607","1.067","306.9","1.731","308.2","1016.7510000000001","8.99","82.5","-2.932","0.0"],
    [1404028,"2026-03-19 23:30:00","41608","0.88","310.4","1.405","304.3","1016.683","8.56","83.3","-3.0460000000000003","0.0"],
    [1404029,"2026-03-19 23:40:00","41609","1.146","306.8","1.568","299.4","1016.628","8.4","84.6","-3.0439999999999996","0.0"],
    [1404030,"2026-03-19 23:50:00","41610","0.535","287.0","1.535","299.3","1016.533","8.52","84.4","-3.0469999999999997","0.0"],
    [1404031,"2026-03-20 00:00:00","41611","1.097","294.2","1.699","296.8","1016.438","8.44","83.8","-2.804","0.0"],
    [1404032,"2026-03-20 00:10:00","41612","1.089","290.5","1.895","299.2","1016.37","8.27","85.0","-3.255","0.0"],
    [1404033,"2026-03-20 00:20:00","41613","1.725","285.4","2.319","284.2","1016.3530000000001","8.55","84.7","-3.241","0.0"],
    [1404034,"2026-03-20 00:30:00","41614","1.307","293.5","2.254","286.8","1016.2819999999999","8.37","84.2","-2.821","0.0"],
    [1404035,"2026-03-20 00:40:00","41615","1.3559999999999999","299.4","2.221","304.4","1016.235","7.9639999999999995","85.3","-3.09","0.0"],
    [1404036,"2026-03-20 00:50:00","41616","1.173","298.3","1.731","306.4","1016.148","7.803999999999999","85.7","-3.141","0.0"],
    [1404037,"2026-03-20 01:00:00","41617","1.171","298.4","1.895","304.5","1016.044","7.742999999999999","86.3","-3.205","0.0"],
    [1404038,"2026-03-20 01:10:00","41618","1.179","282.9","1.666","276.5","1016.07","8.1","85.8","-3.2769999999999997","0.0"],
    [1404039,"2026-03-20 01:20:00","41619","1.475","294.3","2.287","299.5","1016.071","7.971","85.1","-2.957","0.0"],
    [1404040,"2026-03-20 01:30:00","41620","1.354","284.2","2.189","273.6","1016.048","7.8629999999999995","85.5","-3.3760000000000003","0.0"],
    [1404041,"2026-03-20 01:40:00","41621","1.5759999999999998","273.2","2.581","280.9","1016.007","8.33","84.2","-3.3480000000000003","0.0"],
    [1404042,"2026-03-20 01:50:00","41622","1.3019999999999998","290.2","2.156","299.4","1015.919","8.19","83.4","-3.281","0.0"],
    [1404043,"2026-03-20 02:00:00","41623","1.251","291.8","2.581","305.8","1015.7869999999999","8.01","83.9","-3.5039999999999996","0.0"],
    [1404044,"2026-03-20 02:10:00","41624","0.955","290.4","1.568","280.9","1015.645","7.961","83.6","-3.4130000000000003","0.0"],
    [1404045,"2026-03-20 02:20:00","41625","0.9590000000000001","294.8","1.993","282.3","1015.5419999999999","7.797000000000001","83.8","-3.497","0.0"],
    [1404046,"2026-03-20 02:30:00","41626","1.2990000000000002","279.8","2.548","276.2","1015.461","7.837999999999999","83.6","-3.54","0.0"],
    [1404047,"2026-03-20 02:40:00","41627","1.805","277.6","2.352","278.8","1015.4169999999999","8.02","82.1","-3.4930000000000003","0.0"],
    [1404048,"2026-03-20 02:50:00","41628","1.6580000000000001","282.8","2.254","281.3","1015.372","7.8260000000000005","81.7","-3.437","0.0"],
    [1404049,"2026-03-20 03:00:00","41629","1.794","278.6","2.385","276.5","1015.346","7.81","80.8","-3.53","0.0"],
    [1404050,"2026-03-20 03:10:00","41630","1.682","280.1","2.581","272","1015.3789999999999","7.8","79.81","-3.5","0.0"],
    [1404051,"2026-03-20 03:20:00","41631","1.859","279.2","2.548","280.1","1015.3939999999999","7.593999999999999","80.1","-3.4939999999999998","0.0"],
    [1404052,"2026-03-20 03:30:00","41632","1.933","267.9","2.777","280.7","1015.447","7.547999999999999","79.93","-3.447","0.0"],
    [1404053,"2026-03-20 03:40:00","41633","1.8840000000000001","271.5","2.907","279.2","1015.422","7.417999999999999","79.64","-3.069","0.0"],
    [1404054,"2026-03-20 03:50:00","41634","1.7469999999999999","281.7","2.483","300.2","1015.422","7.045","80.1","-3.275","0.0"],
    [1404055,"2026-03-20 04:00:00","41635","1.33","288.1","2.385","293.3","1015.388","7.045","79.68","-3.47","0.0"],
    [1404056,"2026-03-20 04:10:00","41636","1.425","296.7","2.711","289.6","1015.377","6.937","79.21","-3.536","0.0"],
    [1404057,"2026-03-20 04:20:00","41637","1.4680000000000002","287.0","2.613","286.8","1015.375","7.211","77.63","-3.583","0.0"],
    [1404058,"2026-03-20 04:30:00","41638","1.405","292.4","2.483","304.4","1015.4019999999999","7.331","75.86","-3.4939999999999998","0.0"],
    [1404059,"2026-03-20 04:40:00","41639","1.722","286.3","2.809","282.6","1015.4810000000001","7.358","74.66","-3.516","0.0"],
    [1404060,"2026-03-20 04:50:00","41640","1.325","282.3","2.548","279","1015.535","7.377999999999999","73.12","-3.485","0.0"],
    [1404061,"2026-03-20 05:00:00","41641","1.68","292.6","2.744","310.4","1015.564","7.341","72.45","-3.427","0.0"],
    [1404062,"2026-03-20 05:10:00","41642","1.204","299.9","2.221","297.9","1015.592","7.237","72.2","-3.407","0.0"],
    [1404063,"2026-03-20 05:20:00","41643","1.379","308.0","2.417","316.2","1015.562","7.093999999999999","72.49","-3.2110000000000003","0.0"],
    [1404064,"2026-03-20 05:30:00","41644","0.8240000000000001","299.2","1.633","303.5","1015.582","7.08","72.38","-3.012","0.0"],
    [1404065,"2026-03-20 05:40:00","41645","0.579","283.8","1.764","300.6","1015.602","7.319","71.06","-2.793","0.0"],
    [1404066,"2026-03-20 05:50:00","41646","1.2409999999999999","295.3","2.221","299.8","1015.6510000000001","6.997999999999999","71.3","-1.7269999999999999","0.0"],
    [1404067,"2026-03-20 06:00:00","41647","0.98","296.3","1.862","298.4","1015.727","6.877000000000001","71.69","1.99","0.0"],
    [1404068,"2026-03-20 06:10:00","41648","1.4680000000000002","273.2","2.842","274.2","1015.73","7.166","70.24","12.1","0.0"],
    [1404069,"2026-03-20 06:20:00","41649","2.177","275.0","3.071","275.3","1015.793","7.28","69.46","32.17","0.0"],
    [1404070,"2026-03-20 06:30:00","41650","1.976","281.4","2.842","278.1","1015.846","7.127999999999999","70.73","53.04","0.0"],
    [1404071,"2026-03-20 06:40:00","41651","2.46","279.4","3.495","282.5","1015.847","7.409","70.05","70.22","0.0"],
    [1404072,"2026-03-20 06:50:00","41652","2.157","281.2","3.299","278.7","1015.89","7.502000000000001","70.3","85.4","0.0"],
    [1404073,"2026-03-20 07:00:00","41653","1.6540000000000001","281.0","2.973","285.9","1015.8810000000001","7.888","69.23","103.0","0.0"],
    [1404074,"2026-03-20 07:10:00","41654","1.9040000000000001","287.0","3.136","285.4","1015.919","8.42","67.45","129.1","0.0"],
    [1404075,"2026-03-20 07:20:00","41655","1.579","294.6","2.287","293.9","1015.88","9.04","65.21","161.9","0.0"],
    [1404076,"2026-03-20 07:30:00","41656","1.7409999999999999","291.0","2.483","310.9","1015.8389999999999","9.64","61.61","187.4","0.0"],
    [1404077,"2026-03-20 07:40:00","41657","1.976","297.8","2.777","305.3","1015.85","10.21","58.88","232.1","0.0"],
    [1404078,"2026-03-20 07:50:00","41658","2.193","292.6","3.005","295.9","1015.8689999999999","10.77","55.79","262.2","0.0"],
    [1404079,"2026-03-20 08:00:00","41659","2.084","302.3","2.711","312.1","1015.934","11.44","52.77","310.6","0.0"],
    [1404080,"2026-03-20 08:10:00","41660","1.756","289.2","2.483","293.9","1016.028","11.91","50.4","349.3","0.0"],
    [1404081,"2026-03-20 08:20:00","41661","1.183","291.6","1.797","282.2","1016.09","12.49","49.19","387.3","0.0"],
    [1404082,"2026-03-20 08:30:00","41662","0.925","304.4","1.731","310.1","1016.123","13.02","47.59","423.6","0.0"],
    [1404083,"2026-03-20 08:40:00","41663","0.9620000000000001","297.6","1.731","301.7","1016.193","13.61","47.34","457.5","0.0"],
    [1404084,"2026-03-20 08:50:00","41664","0.7240000000000001","355.0","1.731","78","1016.309","14.39","46.15","491.7","0.0"],
    [1404085,"2026-03-20 09:00:00","41665","2.146","65.68","4.083","70.16","1016.452","14.82","45.82","529.3","0.0"],
    [1404086,"2026-03-20 09:10:00","41666","2.191","76.68","3.234","79.12","1016.48","14.7","48.07","560.6","0.0"],
    [1404087,"2026-03-20 09:20:00","41667","2.34","77.61","3.691","93.7","1016.493","14.58","46.7","588.8","0.0"],
    [1404088,"2026-03-20 09:30:00","41668","2.26","75.75","3.985","89.9","1016.5360000000001","14.88","45.3","615.4","0.0"],
    [1404089,"2026-03-20 09:40:00","41669","2.353","68.95","4.116","87.4","1016.618","14.98","44.77","639.5","0.0"],
    [1404090,"2026-03-20 09:50:00","41670","2.64","77.68","4.345","81.1","1016.6260000000001","15.06","44.48","663.0","0.0"],
    [1404091,"2026-03-20 10:00:00","41671","2.6039999999999996","69.54","4.149","80.7","1016.6510000000001","15.05","46.37","684.3","0.0"],
    [1404092,"2026-03-20 10:10:00","41672","2.716","78.66","4.083","84.8","1016.668","15.21","47.19","704.4","0.0"],
    [1404093,"2026-03-20 10:20:00","41673","2.408","70.76","3.757","78.01","1016.635","15.06","48.82","721.0","0.0"],
    [1404094,"2026-03-20 10:30:00","41674","3.1239999999999997","69.67","4.541","76.14","1016.633","15.2","48.66","739.3","0.0"],
    [1404095,"2026-03-20 10:40:00","41675","3.2089999999999996","77.06","4.835","76.54","1016.6560000000001","15.15","50.01","753.8","0.0"],
    [1404096,"2026-03-20 10:50:00","41676","3.5069999999999997","69.48","4.965","75.39","1016.591","15.02","51.3","766.8","0.0"],
    [1404097,"2026-03-20 11:00:00","41677","3.575","66.76","4.769","58.28","1016.507","15.23","52.25","779.8","0.0"],
    [1404098,"2026-03-20 11:10:00","41678","3.602","75.58","5.063","88","1016.4689999999999","15.21","52.63","789.0","0.0"],
    [1404099,"2026-03-20 11:20:00","41679","3.5660000000000003","66.23","5.259","65.87","1016.475","15.37","51.29","796.7","0.0"],
    [1404100,"2026-03-20 11:30:00","41680","3.8789999999999996","66.34","5.978","65.74","1016.447","15.39","53.82","805.0","0.0"],
    [1404101,"2026-03-20 11:40:00","41681","4.49","75.33","6.207","78.88","1016.3789999999999","15.48","51.02","809.0","0.0"],
    [1404102,"2026-03-20 11:50:00","41682","4.2589999999999995","73.71","5.455","90.9","1016.33","15.43","50.3","811.0","0.0"],
    [1404103,"2026-03-20 12:00:00","41683","4.784","62.71","5.88","57.78","1016.262","15.47","47.33","813.0","0.0"],
    [1404104,"2026-03-20 12:10:00","41684","3.903","59.99","6.076","56.3","1016.1669999999999","16.0","45.79","810.0","0.0"],
    [1404105,"2026-03-20 12:20:00","41685","4.601","72.07","6.141","79.65","1016.08","16.18","45.01","808.0","0.0"],
    [1404106,"2026-03-20 12:30:00","41686","4.853","64.48","6.501","60.22","1015.9839999999999","15.88","45.58","805.0","0.0"],
    [1404107,"2026-03-20 12:40:00","41687","4.137","56.97","5.749","39.69","1015.94","16.07","47.45","797.7","0.0"],
    [1404108,"2026-03-20 12:50:00","41688","4.49","59.36","6.305","74.05","1015.8689999999999","15.96","49.55","790.3","0.0"],
    [1404109,"2026-03-20 13:00:00","41689","4.629","54.39","5.978","54.41","1015.694","15.89","50.92","780.7","0.0"],
    [1404110,"2026-03-20 13:10:00","41690","4.883","58.45","6.533","50.05","1015.4860000000001","15.77","52.14","770.8","0.0"],
    [1404111,"2026-03-20 13:20:00","41691","4.882","69.39","6.468","68.47","1015.36","15.82","53.4","758.3","0.0"],
    [1404112,"2026-03-20 13:30:00","41692","4.614","62.2","6.435","64.73","1015.221","15.79","54.78","743.7","0.0"],
    [1404113,"2026-03-20 13:40:00","41693","4.716","63.02","6.599","73.8","1015.135","15.71","56.67","727.5","0.0"],
    [1404114,"2026-03-20 13:50:00","41694","4.349","64.61","5.815","81.7","1015.044","15.75","57.98","711.8","0.0"],
    [1404115,"2026-03-20 14:00:00","41695","4.191","61.51","6.403","47.2","1015.063","15.9","59.02","693.5","0.0"],
    [1404116,"2026-03-20 14:10:00","41696","4.215","66.28","6.631","77.59","1015.034","15.82","60.04","674.5","0.0"],
    [1404117,"2026-03-20 14:20:00","41697","4.64","62.3","6.697","52.99","1014.933","15.41","61.79","655.6","0.0"],
    [1404118,"2026-03-20 14:30:00","41698","4.228","60.69","5.749","57.24","1014.8489999999999","15.47","63.23","632.2","0.0"],
    [1404119,"2026-03-20 14:40:00","41699","4.04","72.02","5.586","78.61","1014.813","15.45","62.48","606.4","0.0"],
    [1404120,"2026-03-20 14:50:00","41700","4.235","73.86","5.847","79.35","1014.753","15.26","63.11","584.1","0.0"],
    [1404121,"2026-03-20 15:00:00","41701","3.8930000000000002","72.63","5.455","60.9","1014.687","15.33","64.27","556.8","0.0"],
    [1404122,"2026-03-20 15:10:00","41702","3.763","70.86","5.161","65.1","1014.591","15.29","64.41","528.3","0.0"],
    [1404123,"2026-03-20 15:20:00","41703","3.612","72.8","5.194","79.7","1014.5089999999999","15.23","64.22","501.1","0.0"],
    [1404124,"2026-03-20 15:30:00","41704","3.824","70.57","4.867","72.89","1014.472","15.19","64.72","470.9","0.0"],
    [1404125,"2026-03-20 15:40:00","41705","3.577","71.17","4.671","65.21","1014.337","15.18","65.05","440.6","0.0"],
    [1404126,"2026-03-20 15:50:00","41706","3.627","73.75","5.031","71.84","1014.222","15.1","64.88","400.0","0.0"],
    [1404127,"2026-03-20 16:00:00","41707","3.5","73.17","4.606","70.32","1014.185","14.96","66.16","358.6","0.0"],
    [1404128,"2026-03-20 16:10:00","41708","3.5669999999999997","71.63","4.933","84.9","1014.128","14.88","66.24","296.6","0.0"],
    [1404129,"2026-03-20 16:20:00","41709","3.3789999999999996","77.89","4.573","69.02","1014.06","14.77","66.82","270.9","0.0"],
    [1404130,"2026-03-20 16:30:00","41710","3.573","80.6","4.508","73.24","1014.048","14.68","67.33","245.8","0.0"],
    [1404131,"2026-03-20 16:40:00","41711","3.483","76.79","4.475","86.1","1014.049","14.65","68.31","177.5","0.0"],
    [1404132,"2026-03-20 16:50:00","41712","3.2230000000000003","80.4","4.508","72.95","1014.097","14.48","69.25","169.4","0.0"],
    [1404133,"2026-03-20 17:00:00","41713","3.043","78.37","4.116","88.1","1014.082","14.41","69.83","141.0","0.0"],
    [1404134,"2026-03-20 17:10:00","41714","2.733","76.67","3.757","69.94","1014.092","14.28","70.81","119.3","0.0"],
    [1404135,"2026-03-20 17:20:00","41715","2.755","80.7","3.659","78.75","1014.0989999999999","14.11","71.52","59.64","0.0"],
    [1404136,"2026-03-20 17:30:00","41716","2.634","76.69","3.267","68.59","1014.1510000000001","13.95","72.49","25.97","0.0"],
    [1404137,"2026-03-20 17:40:00","41717","2.835","72.56","3.626","74.93","1014.175","13.83","73.2","18.26","0.0"],
    [1404138,"2026-03-20 17:50:00","41718","2.1390000000000002","73.31","3.136","69.18","1014.2819999999999","13.69","74.13","11.35","0.0"],
    [1404139,"2026-03-20 18:00:00","41719","2.383","68.93","3.397","65.75","1014.307","13.58","75.6","5.303999999999999","0.0"],
    [1404140,"2026-03-20 18:10:00","41720","2.057","73.47","2.907","71.15","1014.3839999999999","13.38","76.79","-0.387","0.0"],
    [1404141,"2026-03-20 18:20:00","41721","2.1319999999999997","74.93","2.842","72.43","1014.345","13.25","77.68","-2.59","0.0"],
    [1404142,"2026-03-20 18:30:00","41722","1.926","73.87","2.646","79.05","1014.3960000000001","13.09","78.18","-3.463","0.0"],
    [1404143,"2026-03-20 18:40:00","41723","2.1180000000000003","67.04","2.777","64.51","1014.377","12.95","78.76","-3.509","0.0"],
    [1404144,"2026-03-20 18:50:00","41724","2.117","68.09","3.103","70.32","1014.4110000000001","12.94","78.83","-3.512","0.0"],
    [1404145,"2026-03-20 19:00:00","41725","1.788","69.7","2.777","76.16","1014.444","12.87","79.27","-3.512","0.0"],
    [1404146,"2026-03-20 19:10:00","41726","1.9409999999999998","68.36","2.613","63.88","1014.497","12.72","80.4","-3.515","0.0"],
    [1404147,"2026-03-20 19:20:00","41727","1.976","60.49","2.581","57.28","1014.5310000000001","12.6","81.4","-3.514","0.0"],
    [1404148,"2026-03-20 19:30:00","41728","2.023","56.74","2.679","42.6","1014.544","12.66","81.6","-3.5269999999999997","0.0"],
    [1404149,"2026-03-20 19:40:00","41729","1.5659999999999998","53.68","2.058","42.57","1014.5939999999999","12.69","81.6","-3.508","0.0"],
    [1404150,"2026-03-20 19:50:00","41730","1.3730000000000002","50.99","2.058","53.41","1014.666","12.55","82.4","-3.517","0.0"],
    [1404151,"2026-03-20 20:00:00","41731","1.6019999999999999","50.59","2.319","56.38","1014.6189999999999","12.47","82.9","-3.5269999999999997","0.0"],
    [1404152,"2026-03-20 20:10:00","41732","1.348","50.97","1.895","48.24","1014.6489999999999","12.36","83.2","-3.5069999999999997","0.0"],
    [1404153,"2026-03-20 20:20:00","41733","1.0290000000000001","63.64","1.633","67.19","1014.633","12.12","83.8","-3.5189999999999997","0.0"],
    [1404154,"2026-03-20 20:30:00","41734","0.9790000000000001","37.8","1.503","47.95","1014.6669999999999","11.77","84.9","-3.5069999999999997","0.0"],
    [1404155,"2026-03-20 20:40:00","41735","0.736","1.892","1.143","1.226","1014.73","11.55","85.2","-3.307","0.0"],
    [1404156,"2026-03-20 20:50:00","41736","0.514","4.887","0.882","4.55","1014.73","11.11","85.6","-3.3369999999999997","0.0"],
    [1404157,"2026-03-20 21:00:00","41737","0.067","0.301","0.523","354.7","1014.803","10.96","86.9","-3.372","0.0"],
    [1404158,"2026-03-20 21:10:00","41738","0.524","354.7","1.078","354.9","1014.768","10.99","86.8","-2.7939999999999996","0.0"],
    [1404159,"2026-03-20 21:20:00","41739","0.784","351.8","1.111","352.2","1014.7289999999999","11.07","87.0","-2.924","0.0"],
    [1404160,"2026-03-20 21:30:00","41740","0.486","346.6","1.209","348.3","1014.7139999999999","11.03","86.4","-3.052","0.0"],
    [1404161,"2026-03-20 21:40:00","41741","0.035","331.3","0.392","313","1014.676","10.85","86.4","-3.0839999999999996","0.0"],
    [1404162,"2026-03-20 21:50:00","41742","1.47","276.3","2.156","274.4","1014.686","10.86","84.8","-3.576","0.0"],
    [1404163,"2026-03-20 22:00:00","41743","1.402","269.0","1.764","277.8","1014.665","10.81","82.2","-3.552","0.0"],
    [1404164,"2026-03-20 22:10:00","41744","0.879","276.4","1.862","271.4","1014.675","10.64","81.4","-3.57","0.0"],
    [1404165,"2026-03-20 22:20:00","41745","0.953","276.4","1.437","264.1","1014.6610000000001","10.37","82.0","-3.8819999999999997","0.0"],
    [1404166,"2026-03-20 22:30:00","41746","0.898","276.5","1.503","270","1014.618","10.27","81.8","-3.5610000000000004","0.0"],
    [1404167,"2026-03-20 22:40:00","41747","1.3319999999999999","274.2","1.895","266.7","1014.6139999999999","10.21","81.3","-3.5810000000000004","0.0"],
    [1404168,"2026-03-20 22:50:00","41748","1.355","262.9","2.254","286","1014.6260000000001","10.08","80.4","-3.534","0.0"],
    [1404169,"2026-03-20 23:00:00","41749","1.69","277.1","2.45","266.9","1014.6030000000001","9.76","80.7","-3.4960000000000004","0.0"],
    [1404170,"2026-03-20 23:10:00","41750","1.642","281.0","2.254","279.9","1014.487","9.42","82.0","-3.5","0.0"],
    [1404171,"2026-03-20 23:20:00","41751","1.3359999999999999","281.0","1.96","282.5","1014.3660000000001","9.34","81.4","-3.438","0.0"],
    [1404172,"2026-03-20 23:30:00","41752","1.311","279.2","1.927","272.7","1014.278","9.33","81.1","-3.529","0.0"],
    [1404173,"2026-03-20 23:40:00","41753","1.4809999999999999","276.8","1.927","288.4","1014.215","9.3","80.5","-3.48","0.0"],
    [1404174,"2026-03-20 23:50:00","41754","1.879","279.0","2.744","284.7","1014.1360000000001","9.14","81.0","-3.3360000000000003","0.0"],
    [1404175,"2026-03-21 00:00:00","41755","1.7719999999999998","280.6","2.45","278.7","1014.0310000000001","8.97","81.3","-3.322","0.0"],
    [1404176,"2026-03-21 00:10:00","41756","1.702","281.7","2.417","291.2","1014.0060000000001","8.79","80.8","-3.385","0.0"],
    [1404177,"2026-03-21 00:20:00","41757","1.946","280.3","2.483","279.2","1013.924","8.69","77.92","-3.511","0.0"],
    [1404178,"2026-03-21 00:30:00","41758","1.83","281.7","2.483","290","1013.784","8.57","76.26","-3.514","0.0"],
    [1404179,"2026-03-21 00:40:00","41759","1.795","281.3","2.45","299.8","1013.725","8.43","75.78","-3.261","0.0"],
    [1404180,"2026-03-21 00:50:00","41760","1.7369999999999999","283.0","2.613","291.1","1013.674","8.22","76.46","-3.431","0.0"],
    [1404181,"2026-03-21 01:00:00","41761","1.7590000000000001","284.5","2.973","280.7","1013.577","8.13","75.35","-3.1060000000000003","0.0"],
    [1404182,"2026-03-21 01:10:00","41762","1.724","285.4","2.581","283.5","1013.451","7.901","74.38","-2.9930000000000003","0.0"],
    [1404183,"2026-03-21 01:20:00","41763","1.456","287.6","2.45","280.3","1013.336","7.756","73.38","-3.049","0.0"],
    [1404184,"2026-03-21 01:30:00","41764","1.742","287.9","3.071","293","1013.2389999999999","7.757000000000001","71.87","-3.102","0.0"],
    [1404185,"2026-03-21 01:40:00","41765","1.926","282.4","2.875","290.3","1013.169","8.01","69.38","-3.069","0.0"],
    [1404186,"2026-03-21 01:50:00","41766","1.99","281.9","2.842","274.9","1013.11","7.928999999999999","68.64","-2.783","0.0"],
    [1404187,"2026-03-21 02:00:00","41767","2.057","285.1","2.907","291.4","1013.081","7.681","69.25","-2.7739999999999996","0.0"],
    [1404188,"2026-03-21 02:10:00","41768","1.9269999999999998","283.6","2.875","291","1013.013","7.371","70.22","-2.7760000000000002","0.0"],
    [1404189,"2026-03-21 02:20:00","41769","2.0540000000000003","282.6","2.777","277","1012.8919999999999","7.362","70.11","-2.7939999999999996","0.0"],
    [1404190,"2026-03-21 02:30:00","41770","1.999","282.5","3.038","278.8","1012.831","7.35","69.39","-2.781","0.0"],
    [1404191,"2026-03-21 02:40:00","41771","2.032","282.5","2.875","290.9","1012.831","7.218","69.06","-2.78","0.0"],
    [1404192,"2026-03-21 02:50:00","41772","1.71","282.8","2.777","283.2","1012.799","7.196000000000001","68.8","-2.7960000000000003","0.0"],
    [1404193,"2026-03-21 03:00:00","41773","1.9269999999999998","280.2","2.744","289.1","1012.7669999999999","7.388","67.84","-2.806","0.0"],
    [1404194,"2026-03-21 03:10:00","41774","2.016","278.1","3.071","279","1012.7139999999999","7.5760000000000005","66.76","-2.787","0.0"],
    [1404195,"2026-03-21 03:20:00","41775","1.5730000000000002","286.1","2.319","296.2","1012.672","7.267","67.59","-2.784","0.0"],
    [1404196,"2026-03-21 03:30:00","41776","1.824","284.2","2.483","299.1","1012.6610000000001","7.091","68.08","-2.801","0.0"],
    [1404197,"2026-03-21 03:40:00","41777","2.128","282.2","2.973","284.9","1012.685","7.119","67.32","-2.7889999999999997","0.0"],
    [1404198,"2026-03-21 03:50:00","41778","1.788","279.2","2.646","283.9","1012.6210000000001","7.001","67.56","-2.7910000000000004","0.0"],
    [1404199,"2026-03-21 04:00:00","41779","1.986","280.8","2.875","276.2","1012.5939999999999","6.811","68.14","-2.785","0.0"],
    [1404200,"2026-03-21 04:10:00","41780","1.544","284.8","2.581","288.7","1012.567","6.4910000000000005","69.6","-2.812","0.0"],
    [1404201,"2026-03-21 04:20:00","41781","1.45","286.8","2.254","307.8","1012.5980000000001","6.465","69.46","-2.8","0.0"],
    [1404202,"2026-03-21 04:30:00","41782","1.794","282.6","2.646","272.9","1012.54","6.447","69.18","-2.79","0.0"],
    [1404203,"2026-03-21 04:40:00","41783","2.068","281.8","2.907","287.3","1012.448","6.475","68.38","-2.785","0.0"],
    [1404204,"2026-03-21 04:50:00","41784","1.6869999999999998","284.9","2.744","265.1","1012.433","6.374","68.44","-2.8","0.0"],
    [1404205,"2026-03-21 05:00:00","41785","1.723","286.3","3.005","294.1","1012.4110000000001","6.359","68.0","-2.7969999999999997","0.0"],
    [1404206,"2026-03-21 05:10:00","41786","1.736","288.5","2.711","307.8","1012.36","6.3229999999999995","67.86","-2.793","0.0"],
    [1404207,"2026-03-21 05:20:00","41787","1.7890000000000001","293.6","3.43","309.9","1012.3330000000001","6.394","67.17","-2.833","0.0"],
    [1404208,"2026-03-21 05:30:00","41788","1.9709999999999999","292.6","3.789","295.8","1012.29","6.704","64.8","-2.947","0.0"],
    [1404209,"2026-03-21 05:40:00","41789","2.229","289.6","3.593","303.2","1012.253","6.77","64.25","-2.673","0.0"],
    [1404210,"2026-03-21 05:50:00","41790","2.403","291.5","3.887","290.1","1012.383","6.697","64.57","-0.07400000000000001","0.0"],
    [1404211,"2026-03-21 06:00:00","41791","2.263","291.7","3.724","296.6","1012.5","6.521","65.25","3.965","0.0"],
    [1404212,"2026-03-21 06:10:00","41792","2.142","291.1","3.528","292.9","1012.554","6.553","65.0","17.59","0.0"],
    [1404213,"2026-03-21 06:20:00","41793","2.773","290.6","4.606","292.4","1012.58","6.643","64.65","38.52","0.0"],
    [1404214,"2026-03-21 06:30:00","41794","2.511","288.9","4.475","290.3","1012.6439999999999","6.811","63.61","54.49","0.0"],
    [1404215,"2026-03-21 06:40:00","41795","2.63","293.3","4.279","303.5","1012.722","7.108","62.39","68.3","0.0"],
    [1404216,"2026-03-21 06:50:00","41796","2.92","294.2","4.704","309.4","1012.727","7.388","61.18","82.5","0.0"],
    [1404217,"2026-03-21 07:00:00","41797","3.0060000000000002","296.0","4.835","294.7","1012.7139999999999","7.772","59.31","104.6","0.0"],
    [1404218,"2026-03-21 07:10:00","41798","2.864","293.6","4.9","293.6","1012.7330000000001","8.12","57.8","133.1","0.0"],
    [1404219,"2026-03-21 07:20:00","41799","3.154","292.8","4.965","289.5","1012.75","8.5","56.56","168.0","0.0"],
    [1404220,"2026-03-21 07:30:00","41800","2.944","293.8","5.129","291.5","1012.77","8.92","55.12","194.3","0.0"],
    [1404221,"2026-03-21 07:40:00","41801","3.221","289.3","4.802","307.6","1012.836","9.34","53.32","240.0","0.0"],
    [1404222,"2026-03-21 07:50:00","41802","3.0989999999999998","287.9","5.161","295.3","1012.8710000000001","9.73","51.92","271.7","0.0"],
    [1404223,"2026-03-21 08:00:00","41803","2.8169999999999997","284.3","4.312","287.6","1012.8910000000001","10.1","50.69","322.9","0.0"],
    [1404224,"2026-03-21 08:10:00","41804","2.447","289.2","3.626","287.3","1012.9760000000001","10.8","49.14","362.5","0.0"],
    [1404225,"2026-03-21 08:20:00","41805","2.891","287.0","3.985","291.2","1013.049","11.18","47.33","402.8","0.0"],
    [1404226,"2026-03-21 08:30:00","41806","2.6460000000000004","285.2","3.92","285.8","1013.0930000000001","11.62","46.02","440.2","0.0"],
    [1404227,"2026-03-21 08:40:00","41807","2.659","284.9","3.43","285.2","1013.1410000000001","12.13","44.65","475.7","0.0"],
    [1404228,"2026-03-21 08:50:00","41808","2.476","284.0","3.593","275.9","1013.1489999999999","12.55","43.9","510.2","0.0"],
    [1404229,"2026-03-21 09:00:00","41809","2.33","280.4","4.116","270.8","1013.1410000000001","12.85","43.65","549.1","0.0"],
    [1404230,"2026-03-21 09:10:00","41810","1.869","278.9","2.875","255","1013.097","13.2","43.21","572.9","0.0"],
    [1404231,"2026-03-21 09:20:00","41811","2.287","282.0","3.593","285.6","1013.049","13.66","42.58","576.5","0.0"],
    [1404232,"2026-03-21 09:30:00","41812","1.935","291.9","2.744","318.8","1012.9860000000001","13.86","41.26","602.6","0.0"],
    [1404233,"2026-03-21 09:40:00","41813","1.669","296.3","2.907","305.9","1012.903","14.37","39.25","655.6","0.0"],
    [1404234,"2026-03-21 09:50:00","41814","1.2409999999999999","292.9","2.352","296.8","1012.7539999999999","15.04","37.96","673.2","0.0"],
    [1404235,"2026-03-21 10:00:00","41815","0.588","306.8","1.829","326.4","1012.6189999999999","15.99","35.69","703.2","0.0"],
    [1404236,"2026-03-21 10:10:00","41816","2.075","90.0","3.593","88.5","1012.6060000000001","15.33","45.13","696.7","0.0"],
    [1404237,"2026-03-21 10:20:00","41817","2.635","99.4","4.181","89.4","1012.681","14.22","51.83","731.0","0.0"],
    [1404238,"2026-03-21 10:30:00","41818","2.0669999999999997","105.7","3.201","96.3","1012.7389999999999","14.63","50.73","728.9","0.0"],
    [1404239,"2026-03-21 10:40:00","41819","1.4709999999999999","115.0","3.103","134.7","1012.747","15.09","48.13","751.1","0.0"],
    [1404240,"2026-03-21 10:50:00","41820","1.238","136.1","3.038","126.7","1012.716","15.49","44.97","778.6","0.0"],
    [1404241,"2026-03-21 11:00:00","41821","1.2930000000000001","120.6","3.169","116.2","1012.703","15.85","44.89","782.7","0.0"],
    [1404242,"2026-03-21 11:10:00","41822","1.805","169.6","3.822","181.8","1012.687","15.78","46.53","786.4","0.0"],
    [1404243,"2026-03-21 11:20:00","41823","2.9610000000000003","183.6","4.835","175.5","1012.686","15.45","47.9","801.0","0.0"],
    [1404244,"2026-03-21 11:30:00","41824","3.323","174.1","5.488","180.1","1012.687","15.27","48.88","811.0","0.0"],
    [1404245,"2026-03-21 11:40:00","41825","3.3089999999999997","186.4","5.553","155.2","1012.682","15.33","46.69","817.0","0.0"],
    [1404246,"2026-03-21 11:50:00","41826","2.83","193.8","5.553","179.2","1012.673","15.86","44.05","823.0","0.0"],
    [1404247,"2026-03-21 12:00:00","41827","2.989","182.6","6.599","167.8","1012.597","16.03","42.65","826.0","0.0"],
    [1404248,"2026-03-21 12:10:00","41828","3.2769999999999997","178.4","5.423","169.5","1012.539","15.59","43.35","823.0","0.0"],
    [1404249,"2026-03-21 12:20:00","41829","3.34","191.6","5.978","218.5","1012.433","15.77","41.74","814.0","0.0"],
    [1404250,"2026-03-21 12:30:00","41830","3.42","187.9","5.913","156.4","1012.2919999999999","15.84","43.88","807.0","0.0"],
    [1404251,"2026-03-21 12:40:00","41831","4.061","170.3","5.913","156.4","1012.173","15.22","45.59","799.9","0.0"],
    [1404252,"2026-03-21 12:50:00","41832","2.904","193.6","5.031","189.1","1012.071","15.74","42.56","785.3","0.0"],
    [1404253,"2026-03-21 13:00:00","41833","3.264","183.8","6.043","160.5","1011.966","15.77","45.57","772.6","0.0"],
    [1404254,"2026-03-21 13:10:00","41834","3.41","196.2","5.815","191","1011.913","15.82","44.9","765.3","0.0"],
    [1404255,"2026-03-21 13:20:00","41835","3.365","195.0","5.651","185","1011.8639999999999","15.9","45.19","763.7","0.0"],
    [1404256,"2026-03-21 13:30:00","41836","3.497","199.4","5.259","176.3","1011.784","15.57","45.8","748.3","0.0"],
    [1404257,"2026-03-21 13:40:00","41837","3.3089999999999997","188.5","5.782","209.3","1011.705","15.62","47.51","734.5","0.0"],
    [1404258,"2026-03-21 13:50:00","41838","3.48","182.5","5.161","192.6","1011.595","15.6","50.1","716.6","0.0"],
    [1404259,"2026-03-21 14:00:00","41839","3.4960000000000004","183.9","6.272","158","1011.53","15.4","51.32","699.0","0.0"],
    [1404260,"2026-03-21 14:10:00","41840","3.283","181.8","5.815","181.9","1011.447","15.49","52.68","678.4","0.0"],
    [1404261,"2026-03-21 14:20:00","41841","3.528","196.7","5.455","224.2","1011.357","15.49","52.87","657.4","0.0"],
    [1404262,"2026-03-21 14:30:00","41842","3.275","193.4","5.259","220.5","1011.3380000000001","15.35","55.14","635.4","0.0"],
    [1404263,"2026-03-21 14:40:00","41843","3.057","190.1","5.161","158.2","1011.322","15.53","56.24","610.6","0.0"],
    [1404264,"2026-03-21 14:50:00","41844","3.0610000000000004","195.0","4.9","182.5","1011.2719999999999","15.42","57.24","583.1","0.0"],
    [1404265,"2026-03-21 15:00:00","41845","2.6889999999999996","203.2","5.227","222","1011.174","15.58","57.01","556.4","0.0"],
    [1404266,"2026-03-21 15:10:00","41846","3.9410000000000003","191.4","6.076","176","1011.1419999999999","15.06","59.3","527.9","0.0"],
    [1404267,"2026-03-21 15:20:00","41847","3.49","206.8","5.913","218.2","1011.1110000000001","15.33","59.36","498.3","0.0"],
    [1404268,"2026-03-21 15:30:00","41848","3.592","200.4","5.815","234.3","1011.105","15.2","59.34","465.5","0.0"],
    [1404269,"2026-03-21 15:40:00","41849","3.3310000000000004","199.9","5.586","204.5","1011.046","15.05","60.59","433.2","0.0"],
    [1404270,"2026-03-21 15:50:00","41850","3.3710000000000004","204.7","6.762","212.5","1011.034","15.1","59.33","398.3","0.0"],
    [1404271,"2026-03-21 16:00:00","41851","3.113","191.9","5.488","187.7","1011.025","14.88","60.87","365.4","0.0"],
    [1404272,"2026-03-21 16:10:00","41852","2.975","198.3","5.423","217.5","1010.943","15.11","57.6","328.9","0.0"],
    [1404273,"2026-03-21 16:20:00","41853","2.7760000000000002","195.1","5.586","177.2","1010.903","14.93","60.5","293.2","0.0"],
    [1404274,"2026-03-21 16:30:00","41854","3.1010000000000004","209.5","5.586","199.6","1010.909","14.88","60.66","256.9","0.0"],
    [1404275,"2026-03-21 16:40:00","41855","2.7089999999999996","202.8","4.802","217.1","1010.915","14.68","60.77","222.8","0.0"],
    [1404276,"2026-03-21 16:50:00","41856","3.228","212.2","5.913","217.8","1010.937","14.55","63.14","185.7","0.0"],
    [1404277,"2026-03-21 17:00:00","41857","3.115","212.2","5.063","240.6","1011.0189999999999","14.36","63.51","154.6","0.0"],
    [1404278,"2026-03-21 17:10:00","41858","3.193","216.4","4.671","221.5","1011.08","14.27","64.07","119.7","0.0"],
    [1404279,"2026-03-21 17:20:00","41859","3.5380000000000003","216.6","5.553","227.6","1011.105","14.02","65.29","96.8","0.0"],
    [1404280,"2026-03-21 17:30:00","41860","3.378","220.9","5.619","231.6","1011.133","13.85","65.35","52.99","0.0"],
    [1404281,"2026-03-21 17:40:00","41861","3.136","215.5","4.933","228.2","1011.225","13.7","64.79","26.23","0.0"],
    [1404282,"2026-03-21 17:50:00","41862","2.7739999999999996","216.8","4.573","210.9","1011.298","13.56","66.51","17.16","0.0"],
    [1404283,"2026-03-21 18:00:00","41863","2.688","219.3","4.704","193.7","1011.32","13.44","65.92","8.54","0.0"],
    [1404284,"2026-03-21 18:10:00","41864","2.463","220.2","5.031","204.1","1011.3430000000001","13.29","66.8","1.798","0.0"],
    [1404285,"2026-03-21 18:20:00","41865","2.85","216.8","4.737","184.4","1011.3639999999999","13.18","67.96","-1.9669999999999999","0.0"],
    [1404286,"2026-03-21 18:30:00","41866","2.4619999999999997","220.5","3.757","216.8","1011.4119999999999","13.12","68.66","-2.78","0.0"],
    [1404287,"2026-03-21 18:40:00","41867","2.839","219.8","3.953","218.1","1011.4739999999999","13.11","67.99","-3.049","0.0"],
    [1404288,"2026-03-21 18:50:00","41868","2.028","215.3","3.43","209.8","1011.569","12.93","69.08","-3.202","0.0"],
    [1404289,"2026-03-21 19:00:00","41869","2.9589999999999996","219.2","4.345","198.5","1011.71","13.03","68.84","-3.142","0.0"],
    [1404290,"2026-03-21 19:10:00","41870","2.737","217.0","3.985","219.8","1011.819","13.01","68.39","-3.141","0.0"],
    [1404291,"2026-03-21 19:20:00","41871","2.2569999999999997","221.3","3.855","224.5","1011.9110000000001","12.98","68.21","-2.975","0.0"],
    [1404292,"2026-03-21 19:30:00","41872","2.549","216.4","3.757","222.1","1011.921","12.82","69.25","-3.034","0.0"],
    [1404293,"2026-03-21 19:40:00","41873","2.401","225.8","3.887","226.1","1011.8939999999999","12.86","69.33","-3.03","0.0"],
    [1404294,"2026-03-21 19:50:00","41874","2.18","226.6","3.201","210.1","1011.801","12.7","70.19","-3.0210000000000004","0.0"],
    [1404295,"2026-03-21 20:00:00","41875","1.192","241.2","2.679","223.8","1011.827","12.51","71.19","-3.162","0.0"],
    [1404296,"2026-03-21 20:10:00","41876","1.0959999999999999","256.2","2.156","265.5","1011.924","12.3","72.47","-3.469","0.0"],
    [1404297,"2026-03-21 20:20:00","41877","0.716","260.5","1.437","246.5","1012.0219999999999","11.93","73.23","-3.463","0.0"],
    [1404298,"2026-03-21 20:30:00","41878","0.518","254.2","1.274","260.8","1012.127","11.45","74.4","-3.532","0.0"],
    [1404299,"2026-03-21 20:40:00","41879","0.912","247.8","1.699","243.1","1012.1439999999999","11.26","74.93","-3.534","0.0"],
    [1404300,"2026-03-21 20:50:00","41880","0.88","250.6","1.764","249.5","1012.039","11.52","73.84","-3.15","0.0"],
    [1404301,"2026-03-21 21:00:00","41881","0.589","254.2","1.111","254.6","1012.056","11.22","74.27","-3.228","0.0"],
    [1404302,"2026-03-21 21:10:00","41882","0.45399999999999996","261.3","0.915","263.4","1012.044","10.71","75.69","-3.46","0.0"],
    [1404303,"2026-03-21 21:20:00","41883","0.486","266.0","0.947","270.1","1012.059","10.29","77.02","-3.5060000000000002","0.0"],
    [1404304,"2026-03-21 21:30:00","41884","0.247","271.9","0.686","271.9","1012.0239999999999","9.88","78.48","-3.48","0.0"],
    [1404305,"2026-03-21 21:40:00","41885","0.34700000000000003","273.6","0.719","278.3","1012.0210000000001","9.88","78.23","-2.929","0.0"],
    [1404306,"2026-03-21 21:50:00","41886","0.33299999999999996","281.9","0.784","282.5","1012.058","9.76","77.51","-2.767","0.0"],
    [1404307,"2026-03-21 22:00:00","41887","0.331","279.6","0.849","280.4","1012.015","9.95","76.0","-2.775","0.0"],
    [1404308,"2026-03-21 22:10:00","41888","0.551","269.8","1.078","260.6","1012.046","9.76","76.56","-2.911","0.0"],
    [1404309,"2026-03-21 22:20:00","41889","1.145","267.8","1.862","269.2","1012.061","10.03","76.06","-2.978","0.0"],
    [1404310,"2026-03-21 22:30:00","41890","0.634","267.4","1.209","241.7","1012.0189999999999","10.09","75.13","-2.7710000000000004","0.0"],
    [1404311,"2026-03-21 22:40:00","41891","0.778","287.7","1.535","281.9","1012.0239999999999","9.61","76.87","-2.852","0.0"],
    [1404312,"2026-03-21 22:50:00","41892","1.011","272.4","1.862","272.7","1011.8910000000001","9.34","77.78","-2.927","0.0"],
    [1404313,"2026-03-21 23:00:00","41893","1.162","274.4","2.123","264","1011.7689999999999","9.14","77.76","-2.958","0.0"],
    [1404314,"2026-03-21 23:10:00","41894","0.6990000000000001","261.3","1.405","267.7","1011.6339999999999","8.91","77.7","-2.7939999999999996","0.0"],
    [1404315,"2026-03-21 23:20:00","41895","0.976","273.2","1.764","265.7","1011.5360000000001","8.68","78.16","-2.9760000000000004","0.0"],
    [1404316,"2026-03-21 23:30:00","41896","1.449","279.0","2.156","273.7","1011.46","8.55","78.57","-2.8939999999999997","0.0"],
    [1404317,"2026-03-21 23:40:00","41897","1.328","277.7","2.123","272.2","1011.3939999999999","8.53","78.11","-2.7969999999999997","0.0"],
    [1404318,"2026-03-21 23:50:00","41898","1.232","272.0","2.156","275.4","1011.209","8.51","77.4","-2.7760000000000002","0.0"],
    [1404319,"2026-03-22 00:00:00","41899","1.18","265.6","2.189","270.6","1011.1060000000001","8.61","77.08","-2.784","0.0"],
    [1404320,"2026-03-22 00:10:00","41900","1.5","272.5","2.548","256.9","1011.076","8.7","76.81","-2.784","0.0"],
    [1404321,"2026-03-22 00:20:00","41901","1.24","270.4","2.025","280.4","1010.98","8.64","77.08","-2.7880000000000003","0.0"],
    [1404322,"2026-03-22 00:30:00","41902","1.207","260.7","2.091","250.7","1010.938","8.55","77.64","-2.77","0.0"],
    [1404323,"2026-03-22 00:40:00","41903","0.851","274.9","2.091","286.3","1010.957","8.21","78.5","-2.7680000000000002","0.0"],
    [1404324,"2026-03-22 00:50:00","41904","1.262","281.4","2.581","290.2","1010.8639999999999","8.05","79.63","-2.679","0.0"],
    [1404325,"2026-03-22 01:00:00","41905","1.7109999999999999","276.4","3.365","283.8","1010.795","8.49","79.17","-2.158","0.0"],
    [1404326,"2026-03-22 01:10:00","41906","1.6680000000000001","278.4","3.071","275.7","1010.727","8.83","77.81","-1.864","0.0"],
    [1404327,"2026-03-22 01:20:00","41907","1.288","265.2","2.94","290.7","1010.687","8.97","75.93","-1.9869999999999999","0.0"],
    [1404328,"2026-03-22 01:30:00","41908","1.192","273.3","2.646","298.6","1010.685","9.04","74.09","-1.788","0.0"],
    [1404329,"2026-03-22 01:40:00","41909","1.135","271.6","2.319","297.2","1010.625","8.97","73.23","-1.92","0.0"],
    [1404330,"2026-03-22 01:50:00","41910","0.905","273.6","2.025","285.3","1010.6030000000001","8.84","73.05","-2.04","0.0"],
    [1404331,"2026-03-22 02:00:00","41911","0.7440000000000001","281.8","1.307","290.6","1010.507","8.75","72.86","-2.013","0.0"],
    [1404332,"2026-03-22 02:10:00","41912","1.462","253.3","2.613","277.5","1010.3969999999999","8.7","72.49","-2.011","0.0"],
    [1404333,"2026-03-22 02:20:00","41913","1.286","258.4","2.548","237.3","1010.378","9.04","69.97","-1.99","0.0"],
    [1404334,"2026-03-22 02:30:00","41914","1.1440000000000001","263.5","2.254","253.5","1010.347","9.08","69.28","-2.009","0.0"],
    [1404335,"2026-03-22 02:40:00","41915","1.197","265.9","2.613","258.4","1010.2669999999999","8.95","69.52","-2.039","0.0"],
    [1404336,"2026-03-22 02:50:00","41916","1.107","252.9","2.156","286.4","1010.174","8.93","69.12","-2.449","0.0"],
    [1404337,"2026-03-22 03:00:00","41917","1.173","256.9","2.123","252.3","1010.137","8.88","69.08","-2.767","0.0"],
    [1404338,"2026-03-22 03:10:00","41918","1.619","281.7","2.679","291.1","1010.176","8.17","71.02","-2.775","0.0"],
    [1404339,"2026-03-22 03:20:00","41919","1.7830000000000001","270.6","2.777","275","1010.1560000000001","7.801","72.07","-2.775","0.0"],
    [1404340,"2026-03-22 03:30:00","41920","1.307","265.4","2.646","283.9","1010.169","7.746","71.87","-2.7739999999999996","0.0"],
    [1404341,"2026-03-22 03:40:00","41921","1.9140000000000001","271.8","2.842","267.7","1010.1410000000001","7.624","71.87","-2.7710000000000004","0.0"],
    [1404342,"2026-03-22 03:50:00","41922","1.8980000000000001","277.9","2.842","261.6","1010.138","7.274","72.96","-2.78","0.0"],
    [1404343,"2026-03-22 04:00:00","41923","1.8880000000000001","278.1","3.332","265.3","1010.118","7.199","73.05","-2.7710000000000004","0.0"],
    [1404344,"2026-03-22 04:10:00","41924","1.969","274.5","3.005","281.1","1010.1289999999999","7.0889999999999995","73.1","-2.7769999999999997","0.0"],
    [1404345,"2026-03-22 04:20:00","41925","1.7369999999999999","279.3","2.613","270.8","1010.222","7.0089999999999995","72.76","-2.779","0.0"],
    [1404346,"2026-03-22 04:30:00","41926","1.709","275.9","3.201","265.5","1010.289","6.888","72.99","-2.7760000000000002","0.0"],
    [1404347,"2026-03-22 04:40:00","41927","1.959","280.4","2.875","264.9","1010.355","6.941","72.37","-2.775","0.0"],
    [1404348,"2026-03-22 04:50:00","41928","1.7830000000000001","279.6","2.809","272.7","1010.427","6.795","72.7","-2.279","0.0"],
    [1404349,"2026-03-22 05:00:00","41929","1.639","278.0","3.234","273.4","1010.452","6.746","73.34","-1.3769999999999998","0.0"],
    [1404350,"2026-03-22 05:10:00","41930","1.5619999999999998","269.1","2.875","286.1","1010.428","7.096","71.42","-1.285","0.0"],
    [1404351,"2026-03-22 05:20:00","41931","1.679","257.2","3.463","272.9","1010.432","7.502999999999999","68.57","-1.382","0.0"],
    [1404352,"2026-03-22 05:30:00","41932","1.882","261.4","3.953","266.5","1010.4019999999999","7.897","65.78","-1.6880000000000002","0.0"],
    [1404353,"2026-03-22 05:40:00","41933","1.989","258.2","3.757","248.1","1010.3789999999999","7.87","65.3","-1.3","0.0"],
    [1404354,"2026-03-22 05:50:00","41934","1.8259999999999998","267.9","3.463","262.5","1010.409","7.7589999999999995","65.47","-0.268","0.0"],
    [1404355,"2026-03-22 06:00:00","41935","1.97","272.9","3.659","286.5","1010.456","7.742999999999999","65.63","2.437","0.0"],
    [1404356,"2026-03-22 06:10:00","41936","1.679","274.0","3.201","265.4","1010.513","7.707999999999999","65.39","13.59","0.0"],
    [1404357,"2026-03-22 06:20:00","41937","1.696","265.4","2.744","279.8","1010.566","7.785","64.86","33.96","0.0"],
    [1404358,"2026-03-22 06:30:00","41938","1.679","266.5","3.038","273.1","1010.6310000000001","7.915","64.49","56.45","0.0"],
    [1404359,"2026-03-22 06:40:00","41939","1.7690000000000001","274.5","3.103","267.5","1010.669","8.19","64.14","57.86","0.0"],
    [1404360,"2026-03-22 06:50:00","41940","2.021","273.6","3.528","269.6","1010.684","8.27","63.58","69.79","0.0"],
    [1404361,"2026-03-22 07:00:00","41941","1.7280000000000002","275.0","2.94","274.4","1010.7460000000001","8.3","63.91","98.1","0.0"],
    [1404362,"2026-03-22 07:10:00","41942","1.21","259.6","2.091","245.3","1010.7489999999999","8.44","64.31","97.9","0.0"],
    [1404363,"2026-03-22 07:20:00","41943","1.77","281.1","2.646","274.1","1010.716","8.42","64.83","118.7","0.0"],
    [1404364,"2026-03-22 07:30:00","41944","2.073","273.2","3.136","277.3","1010.6669999999999","8.4","64.95","136.9","0.0"],
    [1404365,"2026-03-22 07:40:00","41945","1.7209999999999999","275.2","2.875","267.7","1010.552","8.54","64.82","140.9","0.0"],
    [1404366,"2026-03-22 07:50:00","41946","1.22","270.2","2.123","295.3","1010.457","8.84","63.79","172.5","0.0"],
    [1404367,"2026-03-22 08:00:00","41947","1.288","254.3","2.842","264.9","1010.477","9.58","60.22","266.8","0.0"],
    [1404368,"2026-03-22 08:10:00","41948","1.689","272.5","2.94","270.6","1010.492","10.19","56.51","233.1","0.0"],
    [1404369,"2026-03-22 08:20:00","41949","1.8430000000000002","262.2","3.561","289.6","1010.5239999999999","10.66","54.14","256.5","0.0"],
    [1404370,"2026-03-22 08:30:00","41950","2.074","253.7","3.92","279.1","1010.596","11.15","52.29","260.6","0.0"],
    [1404371,"2026-03-22 08:40:00","41951","1.96","271.8","3.463","266.6","1010.6569999999999","11.12","52.73","324.8","0.0"],
    [1404372,"2026-03-22 08:50:00","41952","2.282","274.6","3.887","272.9","1010.712","11.76","51.86","478.1","0.0"],
    [1404373,"2026-03-22 09:00:00","41953","1.61","264.4","3.103","246.2","1010.716","12.32","54.79","265.8","0.0"],
    [1404374,"2026-03-22 09:10:00","41954","1.7369999999999999","228.4","3.724","228.6","1010.73","12.43","60.0","405.4","0.0"],
    [1404375,"2026-03-22 09:20:00","41955","2.362","225.9","3.659","218.8","1010.7310000000001","12.72","62.34","366.1","0.0"],
    [1404376,"2026-03-22 09:30:00","41956","4.364","222.3","8.04","212.9","1010.742","13.31","65.88","437.6","0.0"],
    [1404377,"2026-03-22 09:40:00","41957","5.396","220.4","7.742","210.3","1010.753","14.09","63.96","760.3","0.0"],
    [1404378,"2026-03-22 09:50:00","41958","5.446000000000001","217.9","8.17","212.7","1010.7489999999999","13.95","67.03","561.4","0.0"],
    [1404379,"2026-03-22 10:00:00","41959","5.787999999999999","215.8","8.33","216.3","1010.7330000000001","13.74","68.57","575.4","0.0"],
    [1404380,"2026-03-22 10:10:00","41960","4.995","215.6","7.873","208.2","1010.706","14.09","68.14","736.7","0.0"],
    [1404381,"2026-03-22 10:20:00","41961","5.0489999999999995","214.7","8.56","205.3","1010.686","14.28","67.31","726.7","0.0"],
    [1404382,"2026-03-22 10:30:00","41962","5.736000000000001","215.3","9.44","223.5","1010.6339999999999","14.11","68.46","688.7","0.0"],
    [1404383,"2026-03-22 10:40:00","41963","4.98","216.8","8.17","215.4","1010.5239999999999","14.28","68.87","600.5","0.0"],
    [1404384,"2026-03-22 10:50:00","41964","5.065","212.9","8.23","213.3","1010.403","14.22","69.31","547.2","0.0"],
    [1404385,"2026-03-22 11:00:00","41965","5.436","214.8","8.89","222","1010.313","14.38","68.79","671.4","0.0"],
    [1404386,"2026-03-22 11:10:00","41966","5.006","211.5","8.75","225.6","1010.196","14.83","67.54","794.5","0.0"],
    [1404387,"2026-03-22 11:20:00","41967","6.04","214.9","9.15","219.2","1010.085","14.76","66.72","787.5","0.0"],
    [1404388,"2026-03-22 11:30:00","41968","6.524","215.3","9.02","216.1","1010.061","14.66","65.99","768.3","0.0"],
    [1404389,"2026-03-22 11:40:00","41969","5.687","214.4","8.26","212.9","1009.9580000000001","15.12","64.81","798.1","0.0"],
    [1404390,"2026-03-22 11:50:00","41970","5.187","219.4","7.709","217.8","1009.927","15.07","66.21","679.7","0.0"],
    [1404391,"2026-03-22 12:00:00","41971","5.546","217.5","9.31","223.5","1009.898","15.34","63.9","790.7","0.0"],
    [1404392,"2026-03-22 12:10:00","41972","6.115","215.0","10.29","217.8","1009.8439999999999","15.02","64.98","731.1","0.0"],
    [1404393,"2026-03-22 12:20:00","41973","5.0760000000000005","218.0","7.677","223.5","1009.7230000000001","15.16","65.77","776.4","0.0"],
    [1404394,"2026-03-22 12:30:00","41974","5.388999999999999","217.4","8.59","228.3","1009.508","15.27","66.33","740.9","0.0"],
    [1404395,"2026-03-22 12:40:00","41975","6.42","216.6","10.29","208.1","1009.414","14.76","68.95","810.0","0.0"],
    [1404396,"2026-03-22 12:50:00","41976","5.202000000000001","215.0","10.03","219.2","1009.311","15.3","67.61","790.5","0.0"],
    [1404397,"2026-03-22 13:00:00","41977","6.281000000000001","219.3","9.67","204.2","1009.201","15.01","68.1","781.5","0.0"],
    [1404398,"2026-03-22 13:10:00","41978","5.422000000000001","212.4","9.11","204.8","1008.992","15.08","68.8","713.3","0.0"],
    [1404399,"2026-03-22 13:20:00","41979","5.546","209.1","8.79","204.2","1008.8539999999999","15.06","68.24","710.4","0.0"],
    [1404400,"2026-03-22 13:30:00","41980","5.207999999999999","215.1","8.3","206.5","1008.815","15.2","67.62","727.9","0.0"],
    [1404401,"2026-03-22 13:40:00","41981","5.567","219.2","8.75","203.3","1008.697","15.08","67.07","711.6","0.0"],
    [1404402,"2026-03-22 13:50:00","41982","4.8469999999999995","216.8","10.03","221","1008.549","15.49","65.63","695.6","0.0"],
    [1404403,"2026-03-22 14:00:00","41983","6.21","211.7","9.7","212","1008.4730000000001","15.35","63.04","678.1","0.0"],
    [1404404,"2026-03-22 14:10:00","41984","5.526","216.7","8.79","218.7","1008.4069999999999","15.39","61.39","658.9","0.0"],
    [1404405,"2026-03-22 14:20:00","41985","6.091","213.8","10.22","205.6","1008.341","15.26","62.03","637.5","0.0"],
    [1404406,"2026-03-22 14:30:00","41986","5.251","219.5","9.15","231.9","1008.314","15.37","63.51","616.9","0.0"],
    [1404407,"2026-03-22 14:40:00","41987","6.254","222.7","9.73","213.9","1008.306","15.23","63.98","598.7","0.0"],
    [1404408,"2026-03-22 14:50:00","41988","5.335","219.5","9.05","231.4","1008.296","15.18","65.66","563.9","0.0"],
    [1404409,"2026-03-22 15:00:00","41989","5.593999999999999","208.9","9.47","199.6","1008.2739999999999","15.21","64.3","535.8","0.0"],
    [1404410,"2026-03-22 15:10:00","41990","4.887","215.9","8.82","219.3","1008.3589999999999","15.29","66.01","507.1","0.0"],
    [1404411,"2026-03-22 15:20:00","41991","5.6370000000000005","220.6","8.75","224.3","1008.385","15.11","66.67","476.2","0.0"],
    [1404412,"2026-03-22 15:30:00","41992","5.585","212.4","8.53","225.7","1008.312","15.18","65.4","446.0","0.0"],
    [1404413,"2026-03-22 15:40:00","41993","6.32","217.5","9.34","218","1008.347","15.06","65.61","419.6","0.0"],
    [1404414,"2026-03-22 15:50:00","41994","6.14","216.5","9.44","225.5","1008.273","15.07","66.24","385.3","0.0"],
    [1404415,"2026-03-22 16:00:00","41995","6.805","220.5","9.8","207.9","1008.3389999999999","14.79","66.87","354.9","0.0"],
    [1404416,"2026-03-22 16:10:00","41996","6.212000000000001","221.3","9.38","217.2","1008.337","14.73","67.45","319.5","0.0"],
    [1404417,"2026-03-22 16:20:00","41997","5.325","216.3","8","226.3","1008.424","14.91","67.86","280.5","0.0"],
    [1404418,"2026-03-22 16:30:00","41998","4.883","213.8","8.17","211.1","1008.534","14.75","68.07","243.7","0.0"],
    [1404419,"2026-03-22 16:40:00","41999","4.195","208.9","6.991","204.1","1008.695","14.69","68.47","208.2","0.0"],
    [1404420,"2026-03-22 16:50:00","42000","4.9","212.7","7.546","222.5","1008.809","14.62","68.39","166.0","0.0"],
    [1404421,"2026-03-22 17:00:00","42001","5.416","218.3","9.96","223.8","1008.835","14.42","69.34","134.7","0.0"],
    [1404422,"2026-03-22 17:10:00","42002","5.233","223.6","7.807","204","1008.842","14.25","70.32","115.4","0.0"],
    [1404423,"2026-03-22 17:20:00","42003","5.267","223.0","7.971","246.2","1008.938","14.1","71.9","95.0","0.0"],
    [1404424,"2026-03-22 17:30:00","42004","4.273","223.6","7.448","200.8","1009.041","13.97","72.7","60.23","0.0"],
    [1404425,"2026-03-22 17:40:00","42005","5.099","224.4","9.21","214.5","1009.2260000000001","13.79","72.94","33.87","0.0"],
    [1404426,"2026-03-22 17:50:00","42006","4.813","222.8","7.089","227.3","1009.3889999999999","13.73","73.85","21.46","0.0"],
    [1404427,"2026-03-22 18:00:00","42007","5.155","219.2","7.807","207.7","1009.3960000000001","13.73","74.6","10.65","0.0"],
    [1404428,"2026-03-22 18:10:00","42008","4.485","225.3","6.795","222.7","1009.419","13.65","75.26","3.983","0.0"],
    [1404429,"2026-03-22 18:20:00","42009","3.8689999999999998","222.3","7.056","208.5","1009.424","13.58","76.51","-0.478","0.0"],
    [1404430,"2026-03-22 18:30:00","42010","3.1260000000000003","224.2","5.194","218.2","1009.4960000000001","13.58","76.79","-1.235","0.0"],
    [1404431,"2026-03-22 18:40:00","42011","2.555","230.1","4.279","223.7","1009.6360000000001","13.61","75.86","-1.237","0.0"],
    [1404432,"2026-03-22 18:50:00","42012","2.65","225.4","5.031","223.1","1009.7260000000001","13.58","75.43","-1.239","0.0"],
    [1404433,"2026-03-22 19:00:00","42013","2.7939999999999996","227.7","5.096","224.4","1009.794","13.58","75.25","-1.237","0.0"],
    [1404434,"2026-03-22 19:10:00","42014","2.49","229.0","4.737","210.3","1009.87","13.63","74.46","-1.25","0.0"],
    [1404435,"2026-03-22 19:20:00","42015","1.891","229.4","3.822","218.8","1010.04","13.65","73.51","-1.248","0.0"],
    [1404436,"2026-03-22 19:30:00","42016","1.624","236.3","3.038","218.1","1010.12","13.67","72.7","-1.262","0.0"],
    [1404437,"2026-03-22 19:40:00","42017","2.447","222.0","3.495","213.1","1010.1410000000001","13.72","71.65","-1.288","0.0"],
    [1404438,"2026-03-22 19:50:00","42018","1.9709999999999999","225.7","3.299","192","1010.23","13.83","69.86","-1.258","0.0"],
    [1404439,"2026-03-22 20:00:00","42019","1.198","235.2","2.058","250.9","1010.314","13.74","69.54","-1.251","0.0"],
    [1404440,"2026-03-22 20:10:00","42020","0.627","260.1","1.731","249.2","1010.495","13.68","70.47","-1.252","0.0"],
    [1404441,"2026-03-22 20:20:00","42021","0.11199999999999999","283.7","1.307","289.2","1010.566","13.63","70.94","-1.255","0.0"],
    [1404442,"2026-03-22 20:30:00","42022","0.743","228.3","1.601","229","1010.5930000000001","13.57","70.74","-1.258","0.0"],
    [1404443,"2026-03-22 20:40:00","42023","1.075","226.4","1.895","239.2","1010.6","13.63","69.33","-1.255","0.0"],
    [1404444,"2026-03-22 20:50:00","42024","0.828","236.5","1.437","242","1010.6439999999999","13.56","68.67","-1.263","0.0"],
    [1404445,"2026-03-22 21:00:00","42025","0.28300000000000003","230.7","1.241","238.5","1010.7139999999999","13.61","66.93","-1.26","0.0"],
    [1404446,"2026-03-22 21:10:00","42026","0.0","0.0","0","0","1010.8510000000001","13.65","67.59","-1.547","0.0"],
    [1404447,"2026-03-22 21:20:00","42027","0.14","249.6","0.915","249.5","1010.928","13.6","68.1","-2.32","0.0"],
    [1404448,"2026-03-22 21:30:00","42028","0.812","284.7","1.405","266.1","1011.048","13.6","68.77","-2.2969999999999997","0.0"],
    [1404449,"2026-03-22 21:40:00","42029","1.6230000000000002","6.801","3.103","3.856","1011.196","13.64","73.43","-1.9609999999999999","0.0"],
    [1404450,"2026-03-22 21:50:00","42030","2.78","39.6","4.443","37.05","1011.18","13.75","79.84","-2.54","0.0"],
    [1404451,"2026-03-22 22:00:00","42031","3.287","32.39","4.998","31.66","1011.242","13.45","83.2","-2.609","0.0"],
    [1404452,"2026-03-22 22:10:00","42032","3.484","40.51","5.031","43.32","1011.242","13.03","85.0","-2.013","0.0"],
    [1404453,"2026-03-22 22:20:00","42033","3.114","47.81","4.573","42.03","1011.2130000000001","12.86","86.6","-1.273","0.0"],
    [1404454,"2026-03-22 22:30:00","42034","2.839","51.92","4.312","57.94","1011.2339999999999","12.75","87.9","-1.262","0.0"],
    [1404455,"2026-03-22 22:40:00","42035","2.377","57.08","3.953","54.6","1011.3330000000001","12.75","87.7","-1.4169999999999998","0.0"],
    [1404456,"2026-03-22 22:50:00","42036","1.557","70.24","2.319","71.56","1011.388","12.73","87.0","-1.7480000000000002","0.0"],
    [1404457,"2026-03-22 23:00:00","42037","1.136","76.56","2.319","71.56","1011.375","12.67","86.8","-1.399","0.0"],
    [1404458,"2026-03-22 23:10:00","42038","0.614","81.6","1.372","73.96","1011.34","12.72","87.0","-1.261","0.0"],
    [1404459,"2026-03-22 23:20:00","42039","0.205","98.2","1.339","98.3","1011.202","12.73","87.3","-1.261","0.0"],
    [1404460,"2026-03-22 23:30:00","42040","0.35700000000000004","115.7","1.307","116.9","1011.2410000000001","12.64","86.2","-1.806","0.0"],
    [1404461,"2026-03-22 23:40:00","42041","0.028999999999999998","150.8","0.523","142.7","1011.3580000000001","12.63","84.9","-1.8459999999999999","0.0"],
    [1404462,"2026-03-22 23:50:00","42042","0.0","0.0","0","0","1011.435","12.61","84.6","-1.27","0.0"],
    [1404463,"2026-03-23 00:00:00","42043","0.935","17.1","1.307","12.39","1011.477","12.58","85.3","-1.262","0.0"],
    [1404464,"2026-03-23 00:10:00","42044","1.218","20.53","1.601","20.14","1011.4760000000001","12.53","85.9","-1.265","0.0"],
    [1404465,"2026-03-23 00:20:00","42045","1.6219999999999999","42.41","2.221","44.28","1011.492","12.57","85.8","-1.371","0.0"],
    [1404466,"2026-03-23 00:30:00","42046","2.05","43.17","2.679","34.98","1011.572","12.69","85.2","-1.261","0.0"],
    [1404467,"2026-03-23 00:40:00","42047","2.485","36.59","3.495","39.73","1011.57","12.88","85.0","-1.248","0.0"],
    [1404468,"2026-03-23 00:50:00","42048","2.27","44.8","3.528","27.87","1011.566","12.88","85.7","-1.2590000000000001","0.0"],
    [1404469,"2026-03-23 01:00:00","42049","2.295","40.41","3.332","40.26","1011.534","12.83","86.4","-1.22","0.0"],
    [1404470,"2026-03-23 01:10:00","42050","1.8019999999999998","56.48","2.646","64.62","1011.545","12.9","87.2","-0.8959999999999999","0.0"],
    [1404471,"2026-03-23 01:20:00","42051","2.83","76.11","4.214","82","1011.6460000000001","12.91","87.2","-0.792","0.0"],
    [1404472,"2026-03-23 01:30:00","42052","5.292999999999999","55.64","8.23","61.25","1011.742","12.74","86.4","0.049","0.0"],
    [1404473,"2026-03-23 01:40:00","42053","6.058","61.69","8.33","60.48","1011.747","12.51","84.5","0.078","0.0"],
    [1404474,"2026-03-23 01:50:00","42054","6.559","66.99","9.41","66.69","1011.7360000000001","12.52","81.9","-0.3","0.0"],
    [1404475,"2026-03-23 02:00:00","42055","6.145","63.47","8.98","61.03","1011.8439999999999","12.55","80.3","-0.34299999999999997","0.0"],
    [1404476,"2026-03-23 02:10:00","42056","7.489","57.43","10.19","65.24","1011.9830000000001","12.32","80.2","0.235","0.0"],
    [1404477,"2026-03-23 02:20:00","42057","7.757000000000001","54.47","10.62","45.29","1012.0369999999999","12.12","79.87","0.23399999999999999","0.0"],
    [1404478,"2026-03-23 02:40:00","42058","5.667999999999999","40.75","8.66","28.68","1012.1510000000001","11.73","78.82","-0.525","0.0"],
    [1404479,"2026-03-23 02:50:00","42059","4.813","41.11","7.905","30.42","1012.207","11.75","78.69","-0.578","0.0"],
    [1404480,"2026-03-23 03:00:00","42060","5.1739999999999995","55.2","7.383","73.08","1012.2130000000001","11.85","78.11","-0.6679999999999999","0.0"],
    [1404481,"2026-03-23 03:10:00","42061","5.09","56.96","7.513","65.75","1012.257","11.92","77.17","-0.618","0.0"],
    [1404482,"2026-03-23 03:20:00","42062","4.303999999999999","62.17","6.958","64.54","1012.283","11.94","76.43","-0.647","0.0"],
    [1404483,"2026-03-23 03:30:00","42063","4.591","58.19","6.403","60.53","1012.289","11.99","73.83","-0.675","0.0"],
    [1404484,"2026-03-23 03:40:00","42064","4.114","55.65","6.174","50.74","1012.275","12.09","72.51","-0.951","0.0"],
    [1404485,"2026-03-23 03:50:00","42065","3.0439999999999996","49.96","4.573","62.36","1012.311","12.16","72.54","-1.128","0.0"],
    [1404486,"2026-03-23 04:00:00","42066","3.7439999999999998","67.39","5.521","75.68","1012.4789999999999","12.31","73.12","-1.08","0.0"],
    [1404487,"2026-03-23 04:10:00","42067","4.902","73.92","6.958","78.16","1012.6189999999999","12.06","76.8","-0.518","0.0"],
    [1404488,"2026-03-23 04:20:00","42068","4.872","70.22","6.958","78.93","1012.685","11.86","76.51","-0.568","0.0"],
    [1404489,"2026-03-23 04:30:00","42069","5.8629999999999995","74.26","8.43","74.95","1012.682","11.71","76.75","-0.605","0.0"],
    [1404490,"2026-03-23 04:40:00","42070","5.5120000000000005","72.62","8.69","84.1","1012.7310000000001","11.72","73.99","-1.205","0.0"],
    [1404491,"2026-03-23 04:50:00","42071","6.093","66.91","8.98","62.72","1012.7819999999999","11.82","72.04","-1.179","0.0"],
    [1404492,"2026-03-23 05:00:00","42072","5.227","64.04","7.971","77.18","1012.888","11.76","72.05","-1.239","0.0"],
    [1404493,"2026-03-23 05:10:00","42073","5.755","60.02","8.66","53.16","1012.945","11.83","68.79","-1.261","0.0"],
    [1404494,"2026-03-23 05:20:00","42074","6.787000000000001","54.31","10.19","62.46","1012.99","11.87","65.87","-1.262","0.0"],
    [1404495,"2026-03-23 05:30:00","42075","6.122999999999999","59.75","8.62","54.04","1013.061","11.74","69.29","-1.274","0.0"],
    [1404496,"2026-03-23 05:40:00","42076","6.845","56.59","11.92","51.87","1013.1410000000001","11.5","72.51","-1.182","0.0"],
    [1404497,"2026-03-23 05:50:00","42077","7.7410000000000005","56.21","11.24","60.48","1013.294","11.37","71.03","0.52","0.0"],
    [1404498,"2026-03-23 06:00:00","42078","8.39","60.84","12.45","76.87","1013.44","11.27","67.75","4.922","0.0"],
    [1404499,"2026-03-23 06:10:00","42079","7.644","62.6","12.09","72.22","1013.575","11.29","67.14","9.95","0.0"],
    [1404500,"2026-03-23 06:20:00","42080","6.662999999999999","63.66","10.13","63.56","1013.845","11.11","69.72","20.14","0.0"],
    [1404501,"2026-03-23 06:30:00","42081","7.102","62.36","10","73.05","1014.074","10.9","72.91","32.16","0.0"],
    [1404502,"2026-03-23 06:40:00","42082","6.372000000000001","65.23","9.67","61.01","1014.301","10.8","73.28","56.81","0.0"],
    [1404503,"2026-03-23 06:50:00","42083","6.906000000000001","66.27","9.34","60.25","1014.382","10.86","74.03","109.6","0.0"],
    [1404504,"2026-03-23 07:00:00","42084","6.122000000000001","66.46","9.11","74.4","1014.36","10.89","74.43","82.2","0.0"],
    [1404505,"2026-03-23 07:10:00","42085","6.205","64.79","8.85","58.88","1014.326","10.81","75.51","94.4","0.0"],
    [1404506,"2026-03-23 07:20:00","42086","6.4479999999999995","69.61","9.31","69.88","1014.3480000000001","10.8","75.34","115.4","0.0"],
    [1404507,"2026-03-23 07:30:00","42087","6.206","67.65","8.89","76.35","1014.462","11.02","75.12","170.4","0.0"],
    [1404508,"2026-03-23 07:40:00","42088","5.582999999999999","62.43","8.2","69.92","1014.545","11.49","72.45","263.5","0.0"],
    [1404509,"2026-03-23 07:50:00","42089","6.08","63.63","8.23","62.38","1014.674","11.57","71.12","281.7","0.0"],
    [1404510,"2026-03-23 08:00:00","42090","5.516","63.26","7.709","64.86","1014.7689999999999","11.75","70.46","336.3","0.0"],
    [1404511,"2026-03-23 08:10:00","42091","4.912","64.37","6.272","62.48","1014.925","11.88","70.08","366.6","0.0"],
    [1404512,"2026-03-23 08:20:00","42092","5.082","69.28","6.762","78.5","1015.013","11.98","69.87","408.4","0.0"],
    [1404513,"2026-03-23 08:30:00","42093","4.749","63.22","6.468","62.24","1015.133","12.1","69.65","434.5","0.0"],
    [1404514,"2026-03-23 08:40:00","42094","4.565","72.15","6.435","73.41","1015.216","12.27","68.9","464.1","0.0"],
    [1404515,"2026-03-23 08:50:00","42095","4.647","74.62","6.501","54.68","1015.253","12.44","68.64","499.7","0.0"],
    [1404516,"2026-03-23 09:00:00","42096","4.738","71.53","6.664","69.07","1015.347","12.51","67.85","529.5","0.0"],
    [1404517,"2026-03-23 09:10:00","42097","4.593999999999999","66.93","6.501","90.6","1015.534","12.7","67.39","552.8","0.0"],
    [1404518,"2026-03-23 09:20:00","42098","4.942","67.2","6.501","71.76","1015.6260000000001","12.59","67.04","582.7","0.0"],
    [1404519,"2026-03-23 09:30:00","42099","4.574","73.14","6.37","77.52","1015.745","12.7","67.72","606.3","0.0"],
    [1404520,"2026-03-23 09:40:00","42100","4.999","76.81","7.089","86","1015.8530000000001","12.88","67.08","633.3","0.0"],
    [1404521,"2026-03-23 09:50:00","42101","4.535","73.68","6.697","77.3","1015.955","12.85","67.13","655.2","0.0"],
    [1404522,"2026-03-23 10:00:00","42102","5.032","76.06","6.729","94.7","1015.995","12.95","65.78","674.0","0.0"],
    [1404523,"2026-03-23 10:10:00","42103","5.178","75.06","6.795","82.2","1015.9780000000001","12.99","64.92","693.5","0.0"],
    [1404524,"2026-03-23 10:20:00","42104","4.734","71.81","6.37","63.39","1016.025","13.31","64.26","712.7","0.0"],
    [1404525,"2026-03-23 10:30:00","42105","4.629","68.93","6.697","54.89","1016.051","13.28","64.38","730.2","0.0"],
    [1404526,"2026-03-23 10:40:00","42106","5.046","79.16","7.121","93.4","1016.057","13.65","63.08","745.8","0.0"],
    [1404527,"2026-03-23 10:50:00","42107","4.71","78.94","6.599","93.9","1016.16","13.8","62.77","758.0","0.0"],
    [1404528,"2026-03-23 11:00:00","42108","4.9639999999999995","80.9","6.925","74.24","1016.2330000000001","14.09","61.67","768.8","0.0"],
    [1404529,"2026-03-23 11:10:00","42109","4.368","77.44","6.109","84","1016.357","14.06","61.94","778.3","0.0"],
    [1404530,"2026-03-23 11:20:00","42110","4.263","87.3","6.37","82.7","1016.428","14.16","60.82","784.4","0.0"],
    [1404531,"2026-03-23 11:30:00","42111","4.3389999999999995","83.2","7.023","77.94","1016.568","14.19","60.38","791.7","0.0"],
    [1404532,"2026-03-23 11:40:00","42112","3.747","86.6","5.945","86.9","1016.679","14.43","59.29","794.9","0.0"],
    [1404533,"2026-03-23 11:50:00","42113","3.8480000000000003","84.4","5.978","81.4","1016.71","14.53","58.87","799.8","0.0"],
    [1404534,"2026-03-23 12:00:00","42114","4.075","87.2","6.174","83.2","1016.7310000000001","14.62","58.14","800.0","0.0"],
    [1404535,"2026-03-23 12:10:00","42115","3.9939999999999998","82.2","5.88","70.38","1016.835","14.93","58.37","801.0","0.0"],
    [1404536,"2026-03-23 12:20:00","42116","4.811","80.1","8.04","85.6","1016.852","15.02","58.27","800.0","0.0"],
    [1404537,"2026-03-23 12:30:00","42117","4.277","80.9","6.533","89.8","1016.857","15.29","57.74","796.8","0.0"],
    [1404538,"2026-03-23 12:40:00","42118","3.9930000000000003","80.0","6.305","82.9","1016.8","15.52","57.73","791.2","0.0"],
    [1404539,"2026-03-23 12:50:00","42119","3.8310000000000004","71.21","6.664","83.6","1016.7439999999999","15.64","57.75","787.7","0.0"],
    [1404540,"2026-03-23 13:00:00","42120","3.767","91.0","6.403","88.5","1016.753","15.63","56.42","785.3","0.0"],
    [1404541,"2026-03-23 13:10:00","42121","4.4639999999999995","75.2","6.795","83.3","1016.798","15.87","55.82","814.0","0.0"],
    [1404542,"2026-03-23 13:20:00","42122","4.086","89.4","7.644","90.9","1016.773","15.95","56.26","758.3","0.0"],
    [1404543,"2026-03-23 13:30:00","42123","3.6910000000000003","90.3","6.566","79.56","1016.8430000000001","15.44","60.7","683.1","0.0"],
    [1404544,"2026-03-23 13:40:00","42124","2.8569999999999998","100.3","5.129","92.9","1016.826","15.29","61.6","586.3","0.0"],
    [1404545,"2026-03-23 13:50:00","42125","4.3919999999999995","88.9","7.219","82.8","1016.765","15.32","56.87","680.8","0.0"],
    [1404546,"2026-03-23 14:00:00","42126","2.5540000000000003","99.9","5.031","87.2","1016.845","15.33","59.08","593.9","0.0"],
    [1404547,"2026-03-23 14:10:00","42127","1.681","110.7","3.887","80.2","1016.868","15.67","58.88","588.8","0.0"],
    [1404548,"2026-03-23 14:20:00","42128","1.8119999999999998","105.3","3.757","106.3","1016.967","14.93","60.96","336.3","0.0"],
    [1404549,"2026-03-23 14:30:00","42129","2.6319999999999997","100.8","4.377","101.2","1017.0260000000001","14.53","64.42","251.7","0.0"],
    [1404550,"2026-03-23 14:40:00","42130","2.521","106.1","4.051","89","1017.1619999999999","14.5","65.89","311.4","0.0"],
    [1404551,"2026-03-23 14:50:00","42131","2.116","106.5","4.181","128","1017.182","14.62","65.48","296.7","0.0"],
    [1404552,"2026-03-23 15:00:00","42132","1.7380000000000002","106.9","3.267","117.5","1017.2660000000001","14.42","66.76","202.7","0.0"],
    [1404553,"2026-03-23 15:10:00","42133","1.195","114.2","3.593","142.9","1017.307","14.74","66.76","302.5","0.0"],
    [1404554,"2026-03-23 15:20:00","42134","2.676","93.6","4.312","102.3","1017.3919999999999","15.01","65.23","547.4","0.0"],
    [1404555,"2026-03-23 15:30:00","42135","3.075","90.3","4.867","74.34","1017.439","14.84","64.8","313.9","0.0"],
    [1404556,"2026-03-23 15:40:00","42136","2.9530000000000003","89.7","4.867","78.77","1017.455","14.66","64.8","235.0","0.0"],
    [1404557,"2026-03-23 15:50:00","42137","3.062","90.1","4.443","88.4","1017.53","14.82","62.49","387.2","0.0"],
    [1404558,"2026-03-23 16:00:00","42138","3.093","82.2","4.671","72.75","1017.5830000000001","15.03","62.31","400.8","0.0"],
    [1404559,"2026-03-23 16:10:00","42139","2.8960000000000004","72.1","4.377","71.05","1017.707","14.98","62.44","325.3","0.0"],
    [1404560,"2026-03-23 16:20:00","42140","3.077","69.81","4.671","79.41","1017.7760000000001","14.78","62.78","285.6","0.0"],
    [1404561,"2026-03-23 16:30:00","42141","3.5460000000000003","76.01","4.802","79.57","1017.903","14.73","62.28","239.6","0.0"],
    [1404562,"2026-03-23 16:40:00","42142","2.819","74.43","4.671","77.45","1017.995","14.46","60.94","124.5","0.0"],
    [1404563,"2026-03-23 16:50:00","42143","2.241","71.13","3.855","75.82","1018.0419999999999","14.52","60.42","178.9","0.0"],
    [1404564,"2026-03-23 17:00:00","42144","2.043","76.65","3.953","75.3","1018.164","14.53","60.25","148.4","0.0"],
    [1404565,"2026-03-23 17:10:00","42145","2.548","62.7","3.92","57.51","1018.2919999999999","14.53","61.02","118.7","0.0"],
    [1404566,"2026-03-23 17:20:00","42146","2.052","65.09","3.201","67.59","1018.4989999999999","14.37","61.38","94.6","0.0"],
    [1404567,"2026-03-23 17:30:00","42147","2.577","68.76","3.495","52.11","1018.6030000000001","14.3","61.49","60.91","0.0"],
    [1404568,"2026-03-23 17:40:00","42148","2.6710000000000003","73.75","3.528","65.97","1018.653","14.28","61.39","27.2","0.0"],
    [1404569,"2026-03-23 17:50:00","42149","2.515","63.89","3.757","59.82","1018.7539999999999","14.13","61.36","15.69","0.0"],
    [1404570,"2026-03-23 18:00:00","42150","1.5219999999999998","78.07","2.777","86.2","1018.863","13.93","63.71","8.04","0.0"],
    [1404571,"2026-03-23 18:10:00","42151","1.605","72.71","3.43","64.57","1018.938","13.79","64.15","1.757","0.0"],
    [1404572,"2026-03-23 18:20:00","42152","2.083","61.93","3.43","87.1","1018.9839999999999","13.75","62.87","-1.3519999999999999","0.0"],
    [1404573,"2026-03-23 18:30:00","42153","1.7890000000000001","66.49","3.169","76.17","1019.1389999999999","13.57","63.71","-2.7289999999999996","0.0"],
    [1404574,"2026-03-23 18:40:00","42154","1.639","68.55","2.842","83.5","1019.257","13.53","63.91","-2.7430000000000003","0.0"],
    [1404575,"2026-03-23 18:50:00","42155","1.375","68.47","2.515","52.99","1019.46","13.46","64.8","-2.763","0.0"],
    [1404576,"2026-03-23 19:00:00","42156","1.399","81.0","2.483","78.92","1019.627","13.47","65.31","-2.73","0.0"],
    [1404577,"2026-03-23 19:10:00","42157","1.0090000000000001","74.76","1.764","70.33","1019.7760000000001","13.31","66.43","-2.7569999999999997","0.0"],
    [1404578,"2026-03-23 19:20:00","42158","0.565","88.3","1.503","69.14","1019.8839999999999","13.24","65.13","-2.761","0.0"],
    [1404579,"2026-03-23 19:30:00","42159","0.774","80.3","1.339","86","1020.0060000000001","13.22","66.71","-2.734","0.0"],
    [1404580,"2026-03-23 19:40:00","42160","0.9109999999999999","83.3","1.437","95.1","1020.138","13.21","67.47","-2.0469999999999997","0.0"],
    [1404581,"2026-03-23 19:50:00","42161","0.625","84.8","1.47","78.05","1020.347","13.18","67.58","-2.006","0.0"],
    [1404582,"2026-03-23 20:00:00","42162","0.08800000000000001","105.1","0.555","108.8","1020.48","13.12","67.54","-1.992","0.0"],
    [1404583,"2026-03-23 20:10:00","42163","0.0","104.9","0.033","104.9","1020.61","12.98","68.77","-2.021","0.0"],
    [1404584,"2026-03-23 20:20:00","42164","0.0","0.0","0","0","1020.745","12.99","69.41","-1.5430000000000001","0.0"],
    [1404585,"2026-03-23 20:30:00","42165","0.0","0.0","0","0","1020.82","12.97","69.48","-1.2690000000000001","0.0"],
    [1404586,"2026-03-23 20:40:00","42166","0.0","0.0","0","0","1020.8839999999999","12.96","69.57","-1.953","0.0"],
    [1404587,"2026-03-23 20:50:00","42167","0.0","0.0","0","0","1020.997","12.69","70.02","-2.7489999999999997","0.0"],
    [1404588,"2026-03-23 21:00:00","42168","0.11900000000000001","254.1","1.176","276","1021.1089999999999","12.59","71.14","-2.758","0.0"],
    [1404589,"2026-03-23 21:10:00","42169","0.526","279.9","1.111","279.2","1021.1360000000001","12.62","69.97","-2.5069999999999997","0.0"],
    [1404590,"2026-03-23 21:20:00","42170","0.605","280.3","0.915","280.4","1021.158","12.56","69.26","-2.48","0.0"],
    [1404591,"2026-03-23 21:30:00","42171","0.534","278.1","0.751","279.4","1021.184","12.3","70.39","-2.705","0.0"],
    [1404592,"2026-03-23 21:40:00","42172","0.441","275.0","0.784","279.3","1021.188","12.34","70.43","-2.734","0.0"],
    [1404593,"2026-03-23 21:50:00","42173","0.382","271.2","1.339","274","1021.179","12.29","70.41","-2.763","0.0"],
    [1404594,"2026-03-23 22:00:00","42174","0.271","270.0","1.209","277","1021.193","12.25","70.68","-2.76","0.0"],
    [1404595,"2026-03-23 22:10:00","42175","0.589","275.1","1.078","273.2","1021.19","12.09","71.42","-2.761","0.0"],
    [1404596,"2026-03-23 22:20:00","42176","1.035","259.6","1.829","239.1","1021.178","12.27","71.05","-2.761","0.0"],
    [1404597,"2026-03-23 22:30:00","42177","0.802","270.1","1.535","251.3","1021.247","12.36","70.74","-2.761","0.0"],
    [1404598,"2026-03-23 22:40:00","42178","1.013","290.4","1.829","279.5","1021.2710000000001","11.86","72.67","-2.761","0.0"],
    [1404599,"2026-03-23 22:50:00","42179","0.6659999999999999","293.0","1.437","294.4","1021.304","11.64","73.63","-2.761","0.0"],
    [1404600,"2026-03-23 23:00:00","42180","0.642","282.6","1.241","280.3","1021.2510000000001","11.75","73.72","-2.7230000000000003","0.0"],
    [1404601,"2026-03-23 23:10:00","42181","0.601","289.2","1.437","296.4","1021.2460000000001","11.73","73.87","-2.653","0.0"],
    [1404602,"2026-03-23 23:20:00","42182","0.857","291.7","1.47","292.1","1021.153","11.79","73.83","-2.185","0.0"],
    [1404603,"2026-03-23 23:30:00","42183","1.043","292.5","1.829","297.8","1021.1310000000001","11.58","74.56","-2.309","0.0"],
    [1404604,"2026-03-23 23:40:00","42184","0.9420000000000001","285.3","2.287","268.3","1021.1","11.58","74.4","-2.6039999999999996","0.0"],
    [1404605,"2026-03-23 23:50:00","42185","0.773","289.5","1.797","279.9","1021.076","11.62","73.58","-2.761","0.0"],
    [1404606,"2026-03-24 00:00:00","42186","1.124","290.5","1.699","297.5","1021.115","11.21","74.95","-2.822","0.0"],
    [1404607,"2026-03-24 00:10:00","42187","1.216","274.7","2.091","273.1","1021.047","11.49","73.81","-2.9219999999999997","0.0"],
    [1404608,"2026-03-24 00:20:00","42188","0.871","280.8","1.764","265.2","1021.085","11.51","72.87","-2.7760000000000002","0.0"],
    [1404609,"2026-03-24 00:30:00","42189","1.281","298.7","2.254","305.4","1021.221","11.07","74.37","-2.772","0.0"],
    [1404610,"2026-03-24 00:40:00","42190","1.0270000000000001","293.9","1.699","300.8","1021.1260000000001","10.77","75.81","-2.8739999999999997","0.0"],
    [1404611,"2026-03-24 00:50:00","42191","0.826","287.4","1.372","292.3","1021.169","10.81","75.65","-2.806","0.0"],
    [1404612,"2026-03-24 01:00:00","42192","0.635","288.4","1.274","277","1021.217","10.65","76.13","-2.7739999999999996","0.0"],
    [1404613,"2026-03-24 01:10:00","42193","0.851","280.5","1.601","270.6","1021.164","10.54","76.67","-2.782","0.0"],
    [1404614,"2026-03-24 01:20:00","42194","0.821","280.2","1.503","277.9","1021.133","10.3","77.33","-2.764","0.0"],
    [1404615,"2026-03-24 01:30:00","42195","0.435","270.9","1.339","292.4","1021.12","9.99","78.73","-2.787","0.0"],
    [1404616,"2026-03-24 01:40:00","42196","0.504","266.5","1.176","261.3","1021.065","10.03","78.88","-2.8","0.0"],
    [1404617,"2026-03-24 01:50:00","42197","0.55","276.5","1.209","277.3","1021.122","9.92","79.01","-2.784","0.0"],
    [1404618,"2026-03-24 02:00:00","42198","0.745","281.1","1.339","282.8","1021.072","9.81","79.55","-2.772","0.0"],
    [1404619,"2026-03-24 02:10:00","42199","0.6970000000000001","283.7","1.274","275.1","1021.0089999999999","9.81","79.81","-2.77","0.0"],
    [1404620,"2026-03-24 02:20:00","42200","0.924","275.2","1.307","280.9","1020.985","9.54","80.7","-2.82","0.0"],
    [1404621,"2026-03-24 02:30:00","42201","0.7120000000000001","274.3","1.666","253","1020.915","9.65","81.1","-2.7680000000000002","0.0"],
    [1404622,"2026-03-24 02:40:00","42202","0.982","287.4","1.862","294.9","1020.8439999999999","9.72","80.7","-2.77","0.0"],
    [1404623,"2026-03-24 02:50:00","42203","1.2919999999999998","288.6","1.993","291.9","1020.757","9.48","81.1","-2.78","0.0"],
    [1404624,"2026-03-24 03:00:00","42204","1.5759999999999998","285.5","2.679","290.2","1020.7289999999999","9.66","80.7","-2.8089999999999997","0.0"],
    [1404625,"2026-03-24 03:10:00","42205","1.733","283.4","3.267","280.4","1020.7810000000001","9.84","79.73","-2.7710000000000004","0.0"],
    [1404626,"2026-03-24 03:20:00","42206","1.705","279.5","3.234","281.6","1020.7869999999999","9.96","79.05","-2.77","0.0"],
    [1404627,"2026-03-24 03:30:00","42207","1.8259999999999998","279.8","2.94","273.3","1020.7739999999999","9.82","79.25","-2.766","0.0"],
    [1404628,"2026-03-24 03:40:00","42208","1.829","278.6","3.299","296.1","1020.796","9.76","79.48","-2.765","0.0"],
    [1404629,"2026-03-24 03:50:00","42209","1.9269999999999998","275.9","3.92","282.5","1020.828","9.74","79.27","-2.765","0.0"],
    [1404630,"2026-03-24 04:00:00","42210","1.797","274.6","3.887","263.7","1020.8639999999999","9.71","79.14","-2.766","0.0"],
    [1404631,"2026-03-24 04:10:00","42211","1.473","277.2","2.809","277.9","1020.845","9.79","78.74","-2.766","0.0"],
    [1404632,"2026-03-24 04:20:00","42212","1.48","282.4","2.777","303.1","1020.916","9.84","78.23","-2.7769999999999997","0.0"],
    [1404633,"2026-03-24 04:30:00","42213","1.7069999999999999","284.8","2.875","294.6","1020.9939999999999","10.12","76.89","-2.787","0.0"],
    [1404634,"2026-03-24 04:40:00","42214","1.781","289.0","3.234","303","1021.08","10.03","76.64","-2.7689999999999997","0.0"],
    [1404635,"2026-03-24 04:50:00","42215","2.69","289.5","4.573","298.6","1021.0880000000001","10.02","76.81","-2.82","0.0"],
    [1404636,"2026-03-24 05:00:00","42216","2.444","285.8","4.345","295.1","1021.196","10.15","75.94","-2.7489999999999997","0.0"],
    [1404637,"2026-03-24 05:10:00","42217","2.445","289.7","4.345","284.4","1021.317","9.93","77.12","-2.767","0.0"],
    [1404638,"2026-03-24 05:20:00","42218","2.863","287.3","5.194","285.5","1021.306","10.14","76.42","-2.764","0.0"],
    [1404639,"2026-03-24 05:30:00","42219","2.136","273.2","3.659","277.4","1021.3710000000001","10.29","75.72","-2.6710000000000003","0.0"],
    [1404640,"2026-03-24 05:40:00","42220","2.241","283.1","3.789","273.6","1021.465","10.19","76.26","-1.8330000000000002","0.0"],
    [1404641,"2026-03-24 05:50:00","42221","2.574","299.4","4.573","311.6","1021.579","10.09","76.98","0.68","0.0"],
    [1404642,"2026-03-24 06:00:00","42222","2.498","298.6","4.867","310.4","1021.7139999999999","10.24","76.29","7.2410000000000005","0.0"],
    [1404643,"2026-03-24 06:10:00","42223","2.489","289.9","4.802","282.2","1021.8560000000001","10.25","76.21","20.72","0.0"],
    [1404644,"2026-03-24 06:20:00","42224","3.09","291.1","5.488","302.1","1021.92","10.33","75.53","39.91","0.0"],
    [1404645,"2026-03-24 06:30:00","42225","3.46","291.2","6.207","306.9","1021.946","10.24","75.08","58.83","0.0"],
    [1404646,"2026-03-24 06:40:00","42226","2.5860000000000003","299.2","4.639","295.7","1022.028","10.31","74.86","81.0","0.0"],
    [1404647,"2026-03-24 06:50:00","42227","2.556","309.6","4.083","325.3","1022.158","10.58","73.94","104.9","0.0"],
    [1404648,"2026-03-24 07:00:00","42228","2.516","311.9","3.528","305.2","1022.215","11.0","72.05","131.5","0.0"],
    [1404649,"2026-03-24 07:10:00","42229","1.751","304.3","2.711","310.2","1022.307","11.39","71.15","163.0","0.0"],
    [1404650,"2026-03-24 07:20:00","42230","1.25","284.9","2.515","303.2","1022.3389999999999","11.78","69.83","198.3","0.0"],
    [1404651,"2026-03-24 07:30:00","42231","1.204","274.4","2.156","280.5","1022.393","12.04","68.93","232.5","0.0"],
    [1404652,"2026-03-24 07:40:00","42232","1.608","296.5","2.254","294.9","1022.4739999999999","12.27","68.77","261.9","0.0"],
    [1404653,"2026-03-24 07:50:00","42233","1.9180000000000001","290.5","2.777","294.2","1022.48","12.62","67.64","292.2","0.0"],
    [1404654,"2026-03-24 08:00:00","42234","1.818","279.3","2.744","287.7","1022.5110000000001","12.72","67.36","334.7","0.0"],
    [1404655,"2026-03-24 08:10:00","42235","2.149","283.7","3.169","283.8","1022.615","13.05","66.11","367.3","0.0"],
    [1404656,"2026-03-24 08:20:00","42236","1.804","275.4","3.038","273.7","1022.738","13.37","64.81","404.1","0.0"],
    [1404657,"2026-03-24 08:30:00","42237","2.056","287.0","3.071","270.1","1022.8510000000001","13.66","63.61","455.1","0.0"],
    [1404658,"2026-03-24 08:40:00","42238","2.125","287.8","3.299","282.2","1022.918","13.89","62.33","451.5","0.0"],
    [1404659,"2026-03-24 08:50:00","42239","1.758","291.9","2.744","283.5","1022.9680000000001","14.03","62.16","403.3","0.0"],
    [1404660,"2026-03-24 09:00:00","42240","1.047","228.5","2.156","272.6","1023.0","14.5","61.72","414.4","0.0"],
    [1404661,"2026-03-24 09:10:00","42241","1.663","276.3","2.809","301.3","1023.0","14.88","59.16","558.2","0.0"],
    [1404662,"2026-03-24 09:20:00","42242","1.368","265.1","2.515","292.4","1022.9910000000001","15.29","57.97","584.1","0.0"],
    [1404663,"2026-03-24 09:30:00","42243","1.157","276.8","2.45","282.3","1023.045","15.98","55.55","608.5","0.0"],
    [1404664,"2026-03-24 09:40:00","42244","1.276","206.2","2.548","222.6","1023.1139999999999","16.58","53.19","637.5","0.0"],
    [1404665,"2026-03-24 09:50:00","42245","1.479","208.1","3.201","244.9","1023.169","17.07","52.29","661.0","0.0"],
    [1404666,"2026-03-24 10:00:00","42246","1.311","228.8","2.613","193.9","1023.123","17.36","51.97","684.1","0.0"],
    [1404667,"2026-03-24 10:10:00","42247","1.569","198.8","3.071","208.4","1023.059","17.58","49.99","701.6","0.0"],
    [1404668,"2026-03-24 10:20:00","42248","1.7919999999999998","202.3","4.018","207.1","1023.0189999999999","17.79","49.65","717.0","0.0"],
    [1404669,"2026-03-24 10:30:00","42249","2.839","190.9","5.129","201.6","1023.0160000000001","17.37","53.66","731.6","0.0"],
    [1404670,"2026-03-24 10:40:00","42250","2.6289999999999996","195.8","4.998","168.9","1022.949","17.02","55.6","739.2","0.0"],
    [1404671,"2026-03-24 10:50:00","42251","2.623","188.0","6.501","207.2","1022.919","16.97","56.57","753.7","0.0"],
    [1404672,"2026-03-24 11:00:00","42252","2.915","198.7","6.076","173.1","1022.927","16.77","57.05","763.6","0.0"],
    [1404673,"2026-03-24 11:10:00","42253","2.883","192.3","5.978","267.9","1022.852","16.51","59.1","772.6","0.0"],
    [1404674,"2026-03-24 11:20:00","42254","3.5460000000000003","207.6","6.141","207.9","1022.7389999999999","16.57","59.1","789.9","0.0"],
    [1404675,"2026-03-24 11:30:00","42255","2.6430000000000002","194.7","4.998","181.4","1022.698","16.68","60.08","796.0","0.0"],
    [1404676,"2026-03-24 11:40:00","42256","3.049","199.4","5.423","208.5","1022.5989999999999","16.84","60.3","794.2","0.0"],
    [1404677,"2026-03-24 11:50:00","42257","3.0660000000000003","193.4","5.292","211","1022.47","16.72","60.22","799.9","0.0"],
    [1404678,"2026-03-24 12:00:00","42258","3.2960000000000003","200.5","6.501","218","1022.368","16.56","61.03","801.0","0.0"],
    [1404679,"2026-03-24 12:10:00","42259","2.985","199.8","5.619","229.5","1022.279","16.77","61.51","799.6","0.0"],
    [1404680,"2026-03-24 12:20:00","42260","2.938","196.6","5.88","215.8","1022.1669999999999","17.07","59.86","794.0","0.0"],
    [1404681,"2026-03-24 12:30:00","42261","3.4730000000000003","208.7","6.533","215.9","1022.045","16.87","59.22","795.2","0.0"],
    [1404682,"2026-03-24 12:40:00","42262","3.76","206.2","6.141","214.5","1021.944","16.97","60.95","791.6","0.0"],
    [1404683,"2026-03-24 12:50:00","42263","3.1180000000000003","197.6","6.37","226.6","1021.8530000000001","16.81","63.49","784.4","0.0"],
    [1404684,"2026-03-24 13:00:00","42264","3.7060000000000004","206.6","6.239","205.4","1021.747","16.73","64.53","775.2","0.0"],
    [1404685,"2026-03-24 13:10:00","42265","3.675","205.1","6.762","214.2","1021.677","16.82","64.27","760.1","0.0"],
    [1404686,"2026-03-24 13:20:00","42266","3.977","192.6","6.566","192.4","1021.568","16.86","64.73","745.3","0.0"],
    [1404687,"2026-03-24 13:30:00","42267","2.63","195.4","4.835","186.3","1021.4730000000001","17.23","60.92","732.7","0.0"],
    [1404688,"2026-03-24 13:40:00","42268","3.428","201.8","6.043","203.7","1021.313","17.55","60.0","710.0","0.0"],
    [1404689,"2026-03-24 13:50:00","42269","3.5189999999999997","200.7","7.285","208.4","1021.177","17.67","56.18","704.9","0.0"],
    [1404690,"2026-03-24 14:00:00","42270","3.219","198.6","6.239","179.9","1021.095","17.79","56.35","686.7","0.0"],
    [1404691,"2026-03-24 14:10:00","42271","3.583","197.7","6.762","217.1","1021.113","17.24","60.97","667.6","0.0"],
    [1404692,"2026-03-24 14:20:00","42272","3.5789999999999997","198.1","7.481","228.8","1021.064","17.17","57.72","644.2","0.0"],
    [1404693,"2026-03-24 14:30:00","42273","3.782","201.4","7.579","175.4","1021.003","17.34","56.89","625.5","0.0"],
    [1404694,"2026-03-24 14:40:00","42274","3.285","200.0","5.684","170","1021.012","17.22","59.11","602.0","0.0"],
    [1404695,"2026-03-24 14:50:00","42275","3.673","200.5","6.729","212.3","1020.982","17.09","61.21","573.5","0.0"],
    [1404696,"2026-03-24 15:00:00","42276","3.3739999999999997","202.1","7.219","213.2","1020.809","16.76","63.37","544.5","0.0"],
    [1404697,"2026-03-24 15:10:00","42277","3.0010000000000003","203.6","5.651","215.6","1020.7869999999999","16.92","63.93","512.2","0.0"],
    [1404698,"2026-03-24 15:20:00","42278","4.553999999999999","209.9","8.26","219","1020.7769999999999","16.68","62.37","490.5","0.0"],
    [1404699,"2026-03-24 15:30:00","42279","5.141","211.9","8.79","214","1020.727","16.15","63.49","430.5","0.0"],
    [1404700,"2026-03-24 15:40:00","42280","5.751","212.0","8.62","226.1","1020.65","16.15","64.05","423.2","0.0"],
    [1404701,"2026-03-24 15:50:00","42281","4.454","211.0","8.56","231.4","1020.566","16.18","64.96","394.8","0.0"],
    [1404702,"2026-03-24 16:00:00","42282","6.446000000000001","217.0","9.34","225.2","1020.5419999999999","15.85","64.57","363.4","0.0"],
    [1404703,"2026-03-24 16:10:00","42283","6.212000000000001","215.5","8.79","214.3","1020.441","15.53","67.92","292.3","0.0"],
    [1404704,"2026-03-24 16:20:00","42284","5.082","215.3","9.08","219","1020.421","15.57","68.42","288.3","0.0"],
    [1404705,"2026-03-24 16:30:00","42285","4.803999999999999","214.8","8.33","204.3","1020.437","15.71","66.63","267.6","0.0"],
    [1404706,"2026-03-24 16:40:00","42286","5.297999999999999","220.0","7.611","213.6","1020.447","15.54","66.15","230.8","0.0"],
    [1404707,"2026-03-24 16:50:00","42287","5.0569999999999995","220.7","8.1","233.1","1020.475","15.4","64.92","182.9","0.0"],
    [1404708,"2026-03-24 17:00:00","42288","5.085","219.8","8.3","206.8","1020.52","15.36","65.82","164.3","0.0"],
    [1404709,"2026-03-24 17:10:00","42289","5.127999999999999","221.7","8.59","225.1","1020.552","15.08","68.85","139.6","0.0"],
    [1404710,"2026-03-24 17:20:00","42290","4.731","221.8","8.46","197","1020.545","15.0","69.49","109.2","0.0"],
    [1404711,"2026-03-24 17:30:00","42291","4.918","224.4","8.33","222","1020.61","14.73","70.45","79.67","0.0"],
    [1404712,"2026-03-24 17:40:00","42292","4.12","225.7","7.579","219.8","1020.695","14.62","71.89","38.37","0.0"],
    [1404713,"2026-03-24 17:50:00","42293","3.9610000000000003","224.8","7.383","226.4","1020.72","14.5","72.45","24.07","0.0"],
    [1404714,"2026-03-24 18:00:00","42294","3.545","223.5","5.782","233.3","1020.7439999999999","14.41","73.25","12.69","0.0"],
    [1404715,"2026-03-24 18:10:00","42295","3.949","224.6","6.664","218.9","1020.7589999999999","14.3","74.0","4.309","0.0"],
    [1404716,"2026-03-24 18:20:00","42296","4.232","224.1","6.239","223.7","1020.842","14.28","74.46","-0.294","0.0"],
    [1404717,"2026-03-24 18:30:00","42297","4.323","221.8","7.056","209.1","1020.909","14.22","74.57","-2.068","0.0"],
    [1404718,"2026-03-24 18:40:00","42298","4.832","220.4","9.02","221.3","1020.9680000000001","14.19","74.69","-2.716","0.0"],
    [1404719,"2026-03-24 18:50:00","42299","3.8939999999999997","224.5","7.154","222.7","1021.09","14.16","75.4","-2.7","0.0"],
    [1404720,"2026-03-24 19:00:00","42300","3.2039999999999997","225.9","5.325","224.4","1021.23","14.08","76.25","-2.7230000000000003","0.0"],
    [1404721,"2026-03-24 19:10:00","42301","3.305","225.3","5.161","222.5","1021.367","14.05","76.65","-2.73","0.0"],
    [1404722,"2026-03-24 19:20:00","42302","3.657","220.1","6.37","222.1","1021.4580000000001","14.03","76.46","-2.733","0.0"],
    [1404723,"2026-03-24 19:30:00","42303","3.6310000000000002","217.9","6.37","217.4","1021.5139999999999","14.0","76.14","-2.739","0.0"],
    [1404724,"2026-03-24 19:40:00","42304","4.0569999999999995","221.3","6.337","200.8","1021.556","14.02","75.11","-2.7439999999999998","0.0"],
    [1404725,"2026-03-24 19:50:00","42305","4.21","217.9","6.174","230.3","1021.5830000000001","14.01","74.54","-2.745","0.0"],
    [1404726,"2026-03-24 20:00:00","42306","4.361000000000001","218.5","7.023","213.1","1021.669","13.88","74.59","-2.737","0.0"],
    [1404727,"2026-03-24 20:10:00","42307","4.257","219.6","6.795","225.2","1021.702","13.89","74.13","-2.741","0.0"],
    [1404728,"2026-03-24 20:20:00","42308","3.937","221.0","6.141","220.4","1021.7410000000001","13.78","74.76","-2.7460000000000004","0.0"],
    [1404729,"2026-03-24 20:30:00","42309","3.799","223.9","6.272","226.9","1021.83","13.78","74.07","-2.7489999999999997","0.0"],
    [1404730,"2026-03-24 20:40:00","42310","3.7510000000000003","223.4","5.749","227.7","1021.94","13.79","73.39","-2.7539999999999996","0.0"],
    [1404731,"2026-03-24 20:50:00","42311","4.088","220.8","6.207","225.1","1021.923","13.77","72.6","-2.7510000000000003","0.0"],
    [1404732,"2026-03-24 21:00:00","42312","3.7230000000000003","223.8","5.586","220.2","1021.9789999999999","13.71","72.43","-2.752","0.0"],
    [1404733,"2026-03-24 21:10:00","42313","3.325","226.0","5.063","213.1","1022.0139999999999","13.62","72.73","-2.759","0.0"],
    [1404734,"2026-03-24 21:20:00","42314","3.145","225.5","4.769","221.5","1021.9730000000001","13.58","72.76","-2.758","0.0"],
    [1404735,"2026-03-24 21:30:00","42315","2.525","230.0","4.475","234.2","1021.916","13.52","73.0","-2.76","0.0"],
    [1404736,"2026-03-24 21:40:00","42316","2.517","224.5","4.475","226.5","1021.916","13.48","73.45","-2.775","0.0"],
    [1404737,"2026-03-24 21:50:00","42317","2.552","223.2","3.887","209.2","1021.9019999999999","13.47","73.68","-2.7739999999999996","0.0"],
    [1404738,"2026-03-24 22:10:00","42318","2.833","224.8","4.704","216.3","1021.676","13.5","73.78","-2.761","0.0"],
    [1404739,"2026-03-24 22:20:00","42319","2.713","227.1","4.214","215.5","1021.574","13.39","74.36","-2.763","0.0"],
    [1404740,"2026-03-24 22:30:00","42320","2.597","225.3","4.116","219","1021.546","13.33","74.71","-2.761","0.0"],
    [1404741,"2026-03-24 22:40:00","42321","2.903","223.7","4.181","225.7","1021.393","13.29","74.94","-2.761","0.0"],
    [1404742,"2026-03-24 22:50:00","42322","2.98","225.2","4.116","233.8","1021.398","13.22","75.28","-2.762","0.0"],
    [1404743,"2026-03-24 23:00:00","42323","3.05","222.9","4.704","229.4","1021.337","13.22","75.24","-2.761","0.0"],
    [1404744,"2026-03-24 23:10:00","42324","2.932","225.1","4.247","227.2","1021.308","13.22","75.38","-2.761","0.0"],
    [1404745,"2026-03-24 23:20:00","42325","3.2039999999999997","226.0","4.606","215.5","1021.296","13.19","75.68","-2.761","0.0"],
    [1404746,"2026-03-24 23:30:00","42326","3.7739999999999996","224.3","5.161","222","1021.238","13.26","74.96","-2.761","0.0"],
    [1404747,"2026-03-24 23:40:00","42327","3.6489999999999996","225.5","5.227","202.9","1021.159","13.33","73.64","-2.761","0.0"],
    [1404748,"2026-03-24 23:50:00","42328","3.738","226.1","5.194","228.5","1021.113","13.32","73.28","-2.761","0.0"],
    [1404749,"2026-03-25 00:00:00","42329","3.36","227.2","5.292","215.2","1021.077","13.33","72.92","-2.761","0.0"],
    [1404750,"2026-03-25 00:10:00","42330","2.7310000000000003","230.8","4.345","204.8","1021.069","13.27","72.87","-2.761","0.0"],
    [1404751,"2026-03-25 00:20:00","42331","2.793","227.2","4.475","210.7","1021.002","13.16","73.5","-2.761","0.0"],
    [1404752,"2026-03-25 00:30:00","42332","2.734","230.7","4.9","219.8","1020.959","13.15","73.94","-2.761","0.0"],
    [1404753,"2026-03-25 00:40:00","42333","1.3659999999999999","262.8","2.646","262.3","1020.945","12.89","74.69","-2.762","0.0"],
    [1404754,"2026-03-25 00:50:00","42334","1.27","260.6","2.744","244.3","1020.814","12.43","76.72","-2.815","0.0"],
    [1404755,"2026-03-25 01:00:00","42335","1.215","233.6","2.156","269.9","1020.7280000000001","12.27","77.14","-2.8480000000000003","0.0"],
    [1404756,"2026-03-25 01:10:00","42336","1.2109999999999999","233.3","1.764","239.4","1020.65","12.12","77.1","-3.022","0.0"],
    [1404757,"2026-03-25 01:20:00","42337","1.828","226.5","2.842","230.9","1020.4939999999999","12.27","75.68","-2.907","0.0"],
    [1404758,"2026-03-25 01:30:00","42338","1.797","233.4","2.809","230","1020.2510000000001","12.33","73.89","-2.792","0.0"],
    [1404759,"2026-03-25 01:40:00","42339","1.1320000000000001","244.9","2.254","255.9","1020.1439999999999","11.87","70.79","-2.7760000000000002","0.0"],
    [1404760,"2026-03-25 01:50:00","42340","1.444","234.9","2.842","252.8","1019.937","11.4","70.13","-2.9219999999999997","0.0"],
    [1404761,"2026-03-25 02:00:00","42341","1.314","244.0","2.515","248.2","1019.815","11.34","70.89","-2.7910000000000004","0.0"],
    [1404762,"2026-03-25 02:10:00","42342","0.972","256.1","1.862","283.9","1019.845","10.96","72.06","-2.766","0.0"],
    [1404763,"2026-03-25 02:20:00","42343","0.985","246.5","1.731","257.2","1019.745","10.57","73.87","-2.824","0.0"],
    [1404764,"2026-03-25 02:30:00","42344","1.1909999999999998","232.9","2.091","245","1019.5169999999999","10.59","73.94","-2.813","0.0"],
    [1404765,"2026-03-25 02:40:00","42345","1.159","238.6","2.319","239.9","1019.311","10.62","73.29","-2.767","0.0"],
    [1404766,"2026-03-25 02:50:00","42346","1.18","264.6","2.156","290.8","1019.217","10.38","73.81","-2.78","0.0"],
    [1404767,"2026-03-25 03:00:00","42347","1.6880000000000002","280.7","2.352","278.6","1019.2","9.53","78.21","-2.77","0.0"],
    [1404768,"2026-03-25 03:10:00","42348","0.99","265.1","2.319","271","1019.092","9.78","78.0","-2.762","0.0"],
    [1404769,"2026-03-25 03:20:00","42349","1.4069999999999998","279.5","2.254","266.9","1019.0169999999999","9.43","78.82","-2.763","0.0"],
    [1404770,"2026-03-25 03:30:00","42350","1.429","286.5","2.319","282","1018.916","9.18","79.24","-2.761","0.0"],
    [1404771,"2026-03-25 03:40:00","42351","1.229","261.0","2.581","276.9","1018.7180000000001","9.03","79.59","-2.762","0.0"],
    [1404772,"2026-03-25 03:50:00","42352","0.932","250.6","1.764","255","1018.587","9.19","77.9","-2.762","0.0"],
    [1404773,"2026-03-25 04:00:00","42353","0.9890000000000001","250.0","1.764","281.4","1018.461","9.4","75.58","-2.761","0.0"],
    [1404774,"2026-03-25 04:10:00","42354","1.3869999999999998","287.7","2.123","286.7","1018.51","8.95","77.55","-2.761","0.0"],
    [1404775,"2026-03-25 04:20:00","42355","1.636","279.1","2.842","277.1","1018.5","8.97","77.48","-2.778","0.0"],
    [1404776,"2026-03-25 04:30:00","42356","1.495","237.3","2.483","266.7","1018.322","9.6","73.67","-2.7969999999999997","0.0"],
    [1404777,"2026-03-25 04:40:00","42357","1.159","269.6","1.829","272","1018.29","9.94","70.81","-2.761","0.0"],
    [1404778,"2026-03-25 04:50:00","42358","1.69","277.1","2.581","272.7","1018.324","9.18","74.01","-2.759","0.0"],
    [1404779,"2026-03-25 05:00:00","42359","1.521","274.7","2.352","267.2","1018.199","8.98","75.43","-2.7569999999999997","0.0"],
    [1404780,"2026-03-25 05:10:00","42360","1.315","286.0","2.352","276.8","1018.097","8.73","76.36","-2.7680000000000002","0.0"],
    [1404781,"2026-03-25 05:20:00","42361","0.586","257.3","1.829","267.2","1018.02","8.72","76.36","-2.764","0.0"],
    [1404782,"2026-03-25 05:30:00","42362","1.425","286.0","2.417","273.7","1018.05","8.62","76.91","-2.641","0.0"],
    [1404783,"2026-03-25 05:40:00","42363","1.173","282.1","2.646","295.1","1018.132","8.52","77.13","-1.514","0.0"],
    [1404784,"2026-03-25 05:50:00","42364","2.064","284.8","2.875","278.2","1018.199","8.44","77.59","1.544","0.0"],
    [1404785,"2026-03-25 06:00:00","42365","1.791","276.8","2.646","281.9","1018.296","8.28","78.43","8.97","0.0"],
    [1404786,"2026-03-25 06:10:00","42366","1.597","260.4","2.973","274.5","1018.164","8.58","77.34","24.06","0.0"],
    [1404787,"2026-03-25 06:20:00","42367","1.358","263.6","2.907","275.2","1018.063","9.27","73.39","44.72","0.0"],
    [1404788,"2026-03-25 06:30:00","42368","1.082","252.1","2.45","255.4","1017.977","9.76","70.62","67.25","0.0"],
    [1404789,"2026-03-25 06:40:00","42369","1.875","273.7","3.005","266.2","1018.075","10.01","69.73","91.5","0.0"],
    [1404790,"2026-03-25 06:50:00","42370","1.926","274.0","3.136","270.5","1018.2080000000001","9.96","71.4","116.7","0.0"],
    [1404791,"2026-03-25 07:00:00","42371","1.965","274.3","3.495","285","1018.158","10.07","71.49","145.9","0.0"],
    [1404792,"2026-03-25 07:10:00","42372","1.659","261.4","2.973","263.3","1018.091","10.54","70.21","177.5","0.0"],
    [1404793,"2026-03-25 07:20:00","42373","1.771","258.0","2.94","280.8","1018.097","11.07","67.9","211.8","0.0"],
    [1404794,"2026-03-25 07:30:00","42374","0.9129999999999999","250.2","2.483","281.6","1017.9010000000001","11.63","66.47","247.7","0.0"],
    [1404795,"2026-03-25 07:40:00","42375","1.3730000000000002","266.9","2.744","297.1","1017.813","12.44","64.27","271.8","0.0"],
    [1404796,"2026-03-25 07:50:00","42376","1.956","276.3","3.365","286.4","1017.757","12.83","63.62","306.2","0.0"],
    [1404797,"2026-03-25 08:00:00","42377","1.925","280.6","3.789","294.3","1017.802","13.3","62.68","352.7","0.0"],
    [1404798,"2026-03-25 08:10:00","42378","2.142","274.9","3.757","298.5","1017.929","13.61","61.86","386.4","0.0"],
    [1404799,"2026-03-25 08:20:00","42379","2.335","281.7","3.855","289.2","1018.008","13.88","60.0","419.4","0.0"],
    [1404800,"2026-03-25 08:30:00","42380","3.156","286.0","4.214","290.5","1017.997","14.28","59.18","451.7","0.0"],
    [1404801,"2026-03-25 08:40:00","42381","2.472","276.9","3.953","295.1","1017.966","14.62","57.7","482.2","0.0"],
    [1404802,"2026-03-25 08:50:00","42382","1.345","238.6","2.613","246.1","1017.95","15.07","57.2","510.9","0.0"],
    [1404803,"2026-03-25 09:00:00","42383","2.336","215.5","4.149","208.2","1017.868","15.39","58.59","540.4","0.0"],
    [1404804,"2026-03-25 09:10:00","42384","2.865","210.9","4.769","210.6","1017.797","15.24","61.18","567.2","0.0"],
    [1404805,"2026-03-25 09:20:00","42385","2.903","212.8","4.867","206","1017.775","15.59","62.55","591.1","0.0"],
    [1404806,"2026-03-25 09:30:00","42386","3.3789999999999996","213.0","5.161","212.7","1017.757","16.12","62.52","619.9","0.0"],
    [1404807,"2026-03-25 09:40:00","42387","2.764","206.8","4.933","224.8","1017.6419999999999","16.44","61.64","645.4","0.0"],
    [1404808,"2026-03-25 09:50:00","42388","4.098","215.1","6.403","209.2","1017.485","16.22","59.27","671.1","0.0"],
    [1404809,"2026-03-25 10:00:00","42389","4.257","214.0","7.481","220.2","1017.445","16.39","57.84","692.9","0.0"],
    [1404810,"2026-03-25 10:10:00","42390","4.147","210.8","5.945","218.2","1017.3589999999999","16.09","57.18","714.3","0.0"],
    [1404811,"2026-03-25 10:20:00","42391","3.99","214.0","5.847","221.3","1017.2769999999999","16.4","58.88","734.2","0.0"],
    [1404812,"2026-03-25 10:30:00","42392","3.675","211.3","6.37","215","1017.127","16.55","59.0","748.5","0.0"],
    [1404813,"2026-03-25 10:40:00","42393","4.913","214.8","7.807","198.8","1016.952","16.43","59.44","762.9","0.0"],
    [1404814,"2026-03-25 10:50:00","42394","3.6660000000000004","208.7","7.905","215.7","1016.763","16.58","60.7","777.3","0.0"],
    [1404815,"2026-03-25 11:00:00","42395","5.612","211.4","8.49","209.3","1016.677","16.41","60.59","792.1","0.0"],
    [1404816,"2026-03-25 11:10:00","42396","6.151","212.3","8.92","201.2","1016.5980000000001","16.21","62.52","801.0","0.0"],
    [1404817,"2026-03-25 11:20:00","42397","4.637","212.5","8.13","204.1","1016.558","16.36","63.93","805.0","0.0"],
    [1404818,"2026-03-25 11:30:00","42398","3.872","214.1","7.317","222.8","1016.432","16.86","63.36","812.0","0.0"],
    [1404819,"2026-03-25 11:40:00","42399","5.537999999999999","212.7","9.47","225.1","1016.212","16.63","63.39","816.0","0.0"],
    [1404820,"2026-03-25 11:50:00","42400","5.449","213.8","9.57","217.8","1016.005","16.47","64.88","725.6","0.0"],
    [1404821,"2026-03-25 12:00:00","42401","5.763","211.6","8.98","214.2","1015.9010000000001","16.29","64.77","719.4","0.0"],
    [1404822,"2026-03-25 12:10:00","42402","5.675","217.7","9.15","235.9","1015.7860000000001","16.66","63.51","796.8","0.0"],
    [1404823,"2026-03-25 12:20:00","42403","5.982","222.6","9.34","235.5","1015.562","16.54","62.5","774.9","0.0"],
    [1404824,"2026-03-25 12:30:00","42404","5.7589999999999995","220.3","8.85","213.8","1015.3810000000001","16.57","64.18","718.9","0.0"],
    [1404825,"2026-03-25 12:40:00","42405","5.891","215.8","10.06","220.7","1015.169","16.67","64.66","710.8","0.0"],
    [1404826,"2026-03-25 12:50:00","42406","5.979","216.6","9.47","213.3","1015.077","16.68","64.35","733.6","0.0"],
    [1404827,"2026-03-25 13:00:00","42407","5.82","213.2","8.23","220.2","1015.1039999999999","16.94","61.99","775.2","0.0"],
    [1404828,"2026-03-25 13:10:00","42408","4.922","214.9","9.47","209.7","1014.962","17.23","60.26","780.7","0.0"],
    [1404829,"2026-03-25 13:20:00","42409","5.795","213.1","9.02","220","1014.823","17.33","56.67","774.4","0.0"],
    [1404830,"2026-03-25 13:30:00","42410","6.226","215.8","9.83","215.4","1014.699","17.08","57.97","734.1","0.0"],
    [1404831,"2026-03-25 13:40:00","42411","4.343","210.2","8.43","225.5","1014.6","17.68","60.03","736.0","0.0"],
    [1404832,"2026-03-25 13:50:00","42412","4.059","204.3","8.82","222","1014.363","17.56","63.67","723.0","0.0"],
    [1404833,"2026-03-25 14:00:00","42413","5.251","208.3","9.38","211","1014.081","17.38","63.15","700.4","0.0"],
    [1404834,"2026-03-25 14:10:00","42414","4.453","211.6","9.51","213.8","1013.953","17.43","62.85","681.0","0.0"],
    [1404835,"2026-03-25 14:20:00","42415","6.682","214.9","10.16","213.5","1013.992","16.86","65.75","651.0","0.0"],
    [1404836,"2026-03-25 14:30:00","42416","6.14","216.4","10.49","212.7","1013.826","16.98","66.18","569.6","0.0"],
    [1404837,"2026-03-25 14:40:00","42417","5.272","210.7","9.34","207.5","1013.711","16.97","68.86","574.5","0.0"],
    [1404838,"2026-03-25 14:50:00","42418","5.955","213.6","10.42","220.1","1013.57","16.51","71.66","567.8","0.0"],
    [1404839,"2026-03-25 15:00:00","42419","5.55","210.7","11.66","208.1","1013.502","16.82","70.6","537.1","0.0"],
    [1404840,"2026-03-25 15:10:00","42420","5.492999999999999","210.0","8.82","200","1013.395","16.53","72.74","512.3","0.0"],
    [1404841,"2026-03-25 15:20:00","42421","4.968","213.8","8.04","209.2","1013.1160000000001","16.96","70.4","482.8","0.0"],
    [1404842,"2026-03-25 15:30:00","42422","5.12","215.3","8.43","205.2","1012.7819999999999","17.21","66.38","456.8","0.0"],
    [1404843,"2026-03-25 15:40:00","42423","6.712000000000001","220.2","11.2","217.9","1012.576","16.81","67.49","429.7","0.0"],
    [1404844,"2026-03-25 15:50:00","42424","6.944","219.7","10.98","220.6","1012.471","16.65","67.95","394.2","0.0"],
    [1404845,"2026-03-25 16:00:00","42425","5.9510000000000005","221.3","10.06","231.3","1012.363","16.46","70.07","366.4","0.0"],
    [1404846,"2026-03-25 16:10:00","42426","6.07","217.9","9.83","226.9","1012.3610000000001","16.32","71.62","334.6","0.0"],
    [1404847,"2026-03-25 16:20:00","42427","5.487","218.1","10.03","222","1012.204","16.3","71.36","298.9","0.0"],
    [1404848,"2026-03-25 16:30:00","42428","5.603","218.3","10.03","227.3","1012.1310000000001","16.27","69.88","270.8","0.0"],
    [1404849,"2026-03-25 16:40:00","42429","5.252999999999999","215.6","8.36","230","1012.176","16.19","71.65","236.3","0.0"],
    [1404850,"2026-03-25 16:50:00","42430","5.084","212.2","8","223.1","1012.205","16.04","72.26","193.1","0.0"],
    [1404851,"2026-03-25 17:00:00","42431","5.221","213.1","8.23","204.3","1012.08","15.87","73.07","162.5","0.0"],
    [1404852,"2026-03-25 17:10:00","42432","5.465","215.0","9.73","208.1","1011.934","15.68","74.0","131.3","0.0"],
    [1404853,"2026-03-25 17:20:00","42433","5.851","216.4","8.56","213.1","1011.814","15.47","75.06","103.6","0.0"],
    [1404854,"2026-03-25 17:30:00","42434","5.348","217.2","8.36","229.7","1011.83","15.25","76.81","78.36","0.0"],
    [1404855,"2026-03-25 17:40:00","42435","4.579","221.3","7.121","215.7","1011.829","15.07","78.31","34.75","0.0"],
    [1404856,"2026-03-25 17:50:00","42436","4.38","216.0","8.1","224.1","1011.7239999999999","14.91","79.48","23.37","0.0"],
    [1404857,"2026-03-25 18:00:00","42437","3.554","211.6","5.945","218.7","1011.627","14.75","80.8","13.26","0.0"],
    [1404858,"2026-03-25 18:10:00","42438","2.5269999999999997","204.3","4.998","214.3","1011.571","14.5","82.5","4.724","0.0"],
    [1404859,"2026-03-25 18:20:00","42439","3.315","210.6","4.998","217.6","1011.443","14.36","83.7","-0.2","0.0"],
    [1404860,"2026-03-25 18:30:00","42440","2.783","210.4","5.39","240.7","1011.329","14.28","84.3","-2.112","0.0"],
    [1404861,"2026-03-25 18:40:00","42441","1.432","202.3","2.842","220.5","1011.328","14.15","85.0","-2.733","0.0"],
    [1404862,"2026-03-25 18:50:00","42442","2.5540000000000003","214.2","6.207","212.2","1011.424","14.09","85.6","-2.7910000000000004","0.0"],
    [1404863,"2026-03-25 19:00:00","42443","2.445","222.3","4.965","215.2","1011.6569999999999","14.24","84.6","-2.7310000000000003","0.0"],
    [1404864,"2026-03-25 19:10:00","42444","1.5190000000000001","233.6","3.593","210","1011.758","14.21","83.9","-2.728","0.0"],
    [1404865,"2026-03-25 19:20:00","42445","1.157","234.1","2.091","210.3","1011.711","14.02","84.2","-2.912","0.0"],
    [1404866,"2026-03-25 19:30:00","42446","1.194","249.8","2.744","231.3","1011.702","14.06","84.3","-2.806","0.0"],
    [1404867,"2026-03-25 19:40:00","42447","1.1909999999999998","272.5","1.666","291.8","1011.74","13.86","84.5","-2.7889999999999997","0.0"],
    [1404868,"2026-03-25 19:50:00","42448","1.48","304.1","3.822","16.43","1011.88","13.59","85.6","-2.826","0.0"],
    [1404869,"2026-03-25 20:00:00","42449","2.224","356.5","4.083","12.76","1012.0980000000001","13.74","85.7","-2.951","0.0"],
    [1404870,"2026-03-25 20:10:00","42450","2.6069999999999998","358.0","4.149","6.696","1012.2869999999999","14.17","82.7","-2.82","0.0"],
    [1404871,"2026-03-25 20:20:00","42451","3.4739999999999998","22.6","6.272","30.32","1012.418","14.7","79.08","-2.804","0.0"],
    [1404872,"2026-03-25 20:30:00","42452","3.735","35.64","5.815","25.09","1012.42","14.49","82.4","-2.5269999999999997","0.0"],
    [1404873,"2026-03-25 20:40:00","42453","4.0089999999999995","33.25","6.141","22.7","1012.419","14.2","85.0","-2.628","0.0"],
    [1404874,"2026-03-25 20:50:00","42454","4.263999999999999","33.55","6.566","33.14","1012.3589999999999","14.15","84.9","-2.738","0.0"],
    [1404875,"2026-03-25 21:00:00","42455","5.454","28.39","8.04","25.38","1012.398","14.21","84.6","-2.488","0.0"],
    [1404876,"2026-03-25 21:10:00","42456","5.055","27.29","7.644","37.81","1012.467","14.21","85.1","-2.177","0.0"],
    [1404877,"2026-03-25 21:20:00","42457","4.293","27.93","7.285","16.17","1012.668","14.14","86.5","-2.1919999999999997","0.0"],
    [1404878,"2026-03-25 21:30:00","42458","5.202000000000001","30.64","8.46","29.55","1012.699","14.05","86.9","-2.114","0.0"],
    [1404879,"2026-03-25 21:40:00","42459","5.492000000000001","37.22","9.02","34.35","1012.819","13.99","85.8","-2.057","0.0"],
    [1404880,"2026-03-25 21:50:00","42460","4.918","33.47","7.709","36.05","1013.0","14.02","85.0","-2.191","0.0"],
    [1404881,"2026-03-25 22:00:00","42461","4.935","33.96","7.121","33.27","1013.159","14.05","84.4","-2.217","0.0"],
    [1404882,"2026-03-25 22:10:00","42462","3.721","33.8","5.553","42.34","1013.205","14.05","84.5","-2.405","0.0"],
    [1404883,"2026-03-25 22:20:00","42463","4.229","33.95","7.481","33.45","1013.113","14.04","84.9","-2.455","0.0"],
    [1404884,"2026-03-25 22:30:00","42464","4.131","31.58","7.154","36.15","1013.0039999999999","14.06","85.3","-2.426","0.0"],
    [1404885,"2026-03-25 22:40:00","42465","3.905","30.06","6.893","33.14","1013.1189999999999","14.13","84.8","-1.8090000000000002","0.0"],
    [1404886,"2026-03-25 22:50:00","42466","4.357","30.19","6.37","31.95","1013.1360000000001","14.21","84.2","-1.298","0.0"],
    [1404887,"2026-03-25 23:00:00","42467","4.006","25.83","7.056","30.93","1013.297","14.25","83.8","-1.281","0.0"],
    [1404888,"2026-03-25 23:10:00","42468","2.516","14.87","4.051","26.88","1013.49","14.33","83.9","-0.737","0.0"],
    [1404889,"2026-03-25 23:20:00","42469","1.723","14.31","2.875","17.4","1013.54","14.35","85.2","-0.631","0.0"],
    [1404890,"2026-03-25 23:30:00","42470","2.748","331.2","6.762","332.5","1013.5319999999999","13.86","81.3","-1.1420000000000001","0.0"],
    [1404891,"2026-03-25 23:40:00","42471","3.46","337.2","6.174","333.8","1013.5010000000001","12.94","65.08","-4.46","0.0"],
    [1404892,"2026-03-25 23:50:00","42472","3.615","321.7","7.252","312.6","1013.383","12.87","59.33","-5.162000000000001","0.0"],
    [1404893,"2026-03-26 00:00:00","42473","4.567","324.5","8.07","312.3","1013.319","13.03","51.15","-2.73","0.0"],
    [1404894,"2026-03-26 00:10:00","42474","3.6189999999999998","322.8","6.337","330.2","1013.5089999999999","13.11","49.86","-0.97","0.0"],
    [1404895,"2026-03-26 00:20:00","42475","4.002","334.1","6.599","337.1","1013.7139999999999","13.06","48.53","-0.563","0.0"],
    [1404896,"2026-03-26 00:30:00","42476","3.6319999999999997","327.0","6.109","338.2","1013.762","12.99","48.19","-0.501","0.0"],
    [1404897,"2026-03-26 00:40:00","42477","3.9760000000000004","337.7","6.305","350.7","1013.753","12.9","46.99","-0.846","0.0"],
    [1404898,"2026-03-26 00:50:00","42478","4.627","328.6","6.991","341.4","1013.78","12.81","47.08","-0.6409999999999999","0.0"],
    [1404899,"2026-03-26 01:00:00","42479","3.714","329.0","6.272","340.2","1013.735","12.69","47.6","-0.63","0.0"],
    [1404900,"2026-03-26 01:10:00","42480","3.77","323.2","6.076","324.9","1013.578","12.53","48.01","-0.633","0.0"],
    [1404901,"2026-03-26 01:20:00","42481","2.991","318.6","5.357","339.7","1013.48","12.45","48.08","-0.727","0.0"],
    [1404902,"2026-03-26 01:30:00","42482","3.715","317.2","5.978","322","1013.336","12.42","47.52","-0.746","0.0"],
    [1404903,"2026-03-26 01:40:00","42483","4.293","311.4","7.121","318.4","1013.257","12.29","47.65","-0.578","0.0"],
    [1404904,"2026-03-26 01:50:00","42484","4.718999999999999","306.5","7.709","306.2","1013.2660000000001","12.11","47.51","-0.5539999999999999","0.0"],
    [1404905,"2026-03-26 02:00:00","42485","4.533","319.9","6.501","337.4","1013.2339999999999","12.04","47.22","-0.652","0.0"],
    [1404906,"2026-03-26 02:10:00","42486","4.112","320.0","5.913","319","1013.137","11.97","46.95","-0.9440000000000001","0.0"],
    [1404907,"2026-03-26 02:20:00","42487","3.89","318.1","5.488","326.7","1013.117","11.9","47.12","-1.138","0.0"],
    [1404908,"2026-03-26 02:30:00","42488","3.764","304.8","5.651","302.5","1013.1030000000001","11.82","47.23","-1.2570000000000001","0.0"],
    [1404909,"2026-03-26 02:40:00","42489","4.232","307.3","5.749","305.4","1013.17","11.75","46.89","-1.254","0.0"],
    [1404910,"2026-03-26 02:50:00","42490","4.43","311.8","7.546","311.9","1013.193","11.63","47.0","-1.2570000000000001","0.0"],
    [1404911,"2026-03-26 03:00:00","42491","5.012","311.4","6.991","321.1","1013.132","11.43","47.06","-1.252","0.0"],
    [1404912,"2026-03-26 03:10:00","42492","4.518","315.5","6.664","318.2","1012.9789999999999","11.27","47.4","-1.324","0.0"],
    [1404913,"2026-03-26 03:20:00","42493","4.2139999999999995","313.7","6.958","310.6","1013.0210000000001","11.09","47.65","-1.2990000000000002","0.0"],
    [1404914,"2026-03-26 03:30:00","42494","4.5089999999999995","307.7","6.991","313.6","1013.0989999999999","10.88","48.26","-1.262","0.0"],
    [1404915,"2026-03-26 03:40:00","42495","4.4","292.7","7.513","299.9","1013.1039999999999","10.75","48.25","-1.472","0.0"],
    [1404916,"2026-03-26 03:50:00","42496","4.25","291.5","7.35","314.8","1013.043","10.46","48.94","-2.011","0.0"],
    [1404917,"2026-03-26 04:00:00","42497","3.985","307.3","6.337","296.8","1013.086","10.48","48.77","-1.413","0.0"],
    [1404918,"2026-03-26 04:10:00","42498","2.9960000000000004","283.1","5.488","330.4","1013.0139999999999","10.43","48.42","-1.261","0.0"],
    [1404919,"2026-03-26 04:20:00","42499","3.5380000000000003","301.6","5.553","297.7","1013.1619999999999","10.36","48.9","-1.212","0.0"],
    [1404920,"2026-03-26 04:30:00","42500","2.713","301.2","5.782","319.7","1013.2760000000001","10.4","48.28","-1.247","0.0"],
    [1404921,"2026-03-26 04:40:00","42501","2.71","304.8","4.769","317","1013.2739999999999","10.3","48.43","-1.263","0.0"],
    [1404922,"2026-03-26 04:50:00","42502","3.747","306.7","6.207","314.4","1013.2280000000001","10.16","48.31","-1.7690000000000001","0.0"],
    [1404923,"2026-03-26 05:00:00","42503","2.365","300.4","5.292","302","1013.301","9.91","49.32","-2.372","0.0"],
    [1404924,"2026-03-26 05:10:00","42504","1.9280000000000002","301.4","3.757","281.5","1013.426","9.69","49.85","-2.781","0.0"],
    [1404925,"2026-03-26 05:20:00","42505","2.72","305.0","4.573","307.9","1013.388","9.55","50.35","-2.787","0.0"],
    [1404926,"2026-03-26 05:30:00","42506","3.2439999999999998","313.7","4.9","324.4","1013.55","9.62","49.98","-2.747","0.0"],
    [1404927,"2026-03-26 05:40:00","42507","2.804","314.3","5.129","315","1013.703","9.55","50.35","-0.608","0.0"],
    [1404928,"2026-03-26 05:50:00","42508","3.0069999999999997","302.9","4.835","316.5","1013.7689999999999","9.33","51.27","3.029","0.0"],
    [1404929,"2026-03-26 06:00:00","42509","2.238","293.6","3.887","293.6","1013.8860000000001","9.3","51.36","10.35","0.0"],
    [1404930,"2026-03-26 06:10:00","42510","2.678","299.3","4.508","320.7","1014.008","9.27","51.76","21.25","0.0"],
    [1404931,"2026-03-26 06:20:00","42511","3.409","315.7","5.292","313.7","1014.18","9.57","50.51","33.01","0.0"],
    [1404932,"2026-03-26 06:30:00","42512","2.688","306.8","4.606","319.1","1014.255","9.64","50.32","55.0","0.0"],
    [1404933,"2026-03-26 06:40:00","42513","1.9340000000000002","308.5","3.463","310.6","1014.319","9.96","49.6","117.9","0.0"],
    [1404934,"2026-03-26 06:50:00","42514","2.134","308.6","3.593","315.5","1014.4019999999999","10.48","47.2","145.8","0.0"],
    [1404935,"2026-03-26 07:00:00","42515","1.786","290.6","3.038","299.9","1014.683","11.04","45.69","187.6","0.0"],
    [1404936,"2026-03-26 07:10:00","42516","2.011","279.3","3.103","287","1014.814","11.11","45.68","232.5","0.0"],
    [1404937,"2026-03-26 07:20:00","42517","2.141","317.0","3.626","318.6","1014.908","11.37","45.51","252.4","0.0"],
    [1404938,"2026-03-26 07:30:00","42518","1.652","300.9","2.94","312.3","1015.1489999999999","11.69","43.17","278.7","0.0"],
    [1404939,"2026-03-26 07:40:00","42519","0.915","321.5","1.895","327","1015.181","12.1","42.07","284.5","0.0"],
    [1404940,"2026-03-26 07:50:00","42520","0.47100000000000003","29.01","2.123","90.6","1015.3480000000001","12.89","40.54","313.9","0.0"],
    [1404941,"2026-03-26 08:00:00","42521","1.335","99.2","2.581","91.1","1015.454","12.77","40.22","339.4","0.0"],
    [1404942,"2026-03-26 08:10:00","42522","0.865","117.4","2.221","96.6","1015.6310000000001","12.94","40.67","396.1","0.0"],
    [1404943,"2026-03-26 08:20:00","42523","1.3769999999999998","90.9","3.365","93.2","1015.7130000000001","13.01","45.17","428.9","0.0"],
    [1404944,"2026-03-26 08:30:00","42524","2.6210000000000004","92.0","4.769","92.6","1015.867","12.62","47.15","444.2","0.0"],
    [1404945,"2026-03-26 08:40:00","42525","2.46","99.2","3.985","101.2","1015.7760000000001","12.65","48.49","482.5","0.0"],
    [1404946,"2026-03-26 08:50:00","42526","2.392","97.5","3.985","95.2","1015.8639999999999","12.62","47.43","513.3","0.0"],
    [1404947,"2026-03-26 09:00:00","42527","2.115","96.7","3.953","80.1","1015.9639999999999","12.56","47.53","557.1","0.0"],
    [1404948,"2026-03-26 09:10:00","42528","2.075","94.8","4.116","104","1016.01","12.76","47.4","584.8","0.0"],
    [1404949,"2026-03-26 09:20:00","42529","1.374","107.2","3.169","114.7","1016.07","12.99","48.96","598.9","0.0"],
    [1404950,"2026-03-26 09:30:00","42530","0.8390000000000001","119.4","2.483","89.2","1016.0980000000001","13.18","49.21","628.9","0.0"],
    [1404951,"2026-03-26 09:40:00","42531","1.065","147.0","3.397","200.3","1016.0219999999999","13.11","49.67","650.4","0.0"],
    [1404952,"2026-03-26 09:50:00","42532","1.222","173.8","3.528","164.6","1016.0169999999999","13.3","49.06","652.5","0.0"],
    [1404953,"2026-03-26 10:00:00","42533","1.584","172.9","3.626","161.2","1015.95","13.18","49.54","667.3","0.0"],
    [1404954,"2026-03-26 10:10:00","42534","2.346","190.0","4.377","217.2","1015.8739999999999","13.34","47.41","710.0","0.0"],
    [1404955,"2026-03-26 10:20:00","42535","2.9189999999999996","171.4","4.541","163.1","1015.842","12.91","48.64","739.8","0.0"],
    [1404956,"2026-03-26 10:30:00","42536","2.78","180.0","4.835","167.3","1015.674","12.89","51.35","732.8","0.0"],
    [1404957,"2026-03-26 10:40:00","42537","2.516","177.9","5.259","195.4","1015.586","13.27","50.65","758.4","0.0"],
    [1404958,"2026-03-26 10:50:00","42538","2.725","167.8","5.259","196.1","1015.566","12.64","52.28","483.3","0.0"],
    [1404959,"2026-03-26 11:00:00","42539","2.306","163.7","5.586","169.3","1015.4860000000001","12.46","52.76","463.6","0.0"],
    [1404960,"2026-03-26 11:10:00","42540","2.563","164.8","5.455","178.8","1015.326","12.06","53.23","279.1","0.0"],
    [1404961,"2026-03-26 11:20:00","42541","2.573","181.1","4.312","169.3","1015.278","12.29","53.26","354.7","0.0"],
    [1404962,"2026-03-26 11:30:00","42542","2.88","205.1","4.965","207.6","1015.221","12.98","52.12","662.7","0.0"],
    [1404963,"2026-03-26 11:40:00","42543","3.141","191.2","5.488","180","1015.164","13.52","51.76","839.0","0.0"],
    [1404964,"2026-03-26 11:50:00","42544","3.3569999999999998","185.1","5.749","184","1015.1","13.59","51.23","848.0","0.0"],
    [1404965,"2026-03-26 12:00:00","42545","3.61","176.9","5.455","170.4","1015.046","13.53","52.13","851.0","0.0"],
    [1404966,"2026-03-26 12:10:00","42546","3.63","183.5","6.435","163.5","1014.909","14.04","51.93","842.0","0.0"],
    [1404967,"2026-03-26 12:20:00","42547","3.8810000000000002","185.4","6.305","170.3","1014.77","13.81","52.87","837.0","0.0"],
    [1404968,"2026-03-26 12:30:00","42548","3.897","183.5","7.285","184","1014.7130000000001","14.0","53.14","830.0","0.0"],
    [1404969,"2026-03-26 12:40:00","42549","3.5639999999999996","194.8","6.533","203.9","1014.707","14.19","52.64","824.0","0.0"],
    [1404970,"2026-03-26 12:50:00","42550","4.102","198.3","6.305","230.6","1014.64","13.98","53.91","817.0","0.0"],
    [1404971,"2026-03-26 13:00:00","42551","3.763","191.2","6.958","173","1014.446","14.11","54.28","803.0","0.0"],
    [1404972,"2026-03-26 13:10:00","42552","4.074","198.3","7.317","184.4","1014.383","14.42","53.86","792.4","0.0"],
    [1404973,"2026-03-26 13:20:00","42553","4.247","194.3","7.971","181.4","1014.24","14.27","55.05","781.7","0.0"],
    [1404974,"2026-03-26 13:30:00","42554","3.6289999999999996","191.7","6.925","166.5","1014.066","14.69","53.87","764.4","0.0"],
    [1404975,"2026-03-26 13:40:00","42555","4.702","180.8","7.971","165.5","1013.898","14.02","56.63","751.3","0.0"],
    [1404976,"2026-03-26 13:50:00","42556","4.512","186.8","8.3","190.2","1013.712","14.05","56.47","734.6","0.0"],
    [1404977,"2026-03-26 14:00:00","42557","4.06","186.8","7.513","184.8","1013.6110000000001","14.23","54.98","712.6","0.0"],
    [1404978,"2026-03-26 14:10:00","42558","3.62","186.0","6.827","178","1013.4689999999999","14.14","55.47","695.2","0.0"],
    [1404979,"2026-03-26 14:20:00","42559","3.4","187.0","5.88","183.4","1013.383","14.33","55.55","677.1","0.0"],
    [1404980,"2026-03-26 14:30:00","42560","3.452","185.0","6.174","188.2","1013.279","14.13","58.9","655.3","0.0"],
    [1404981,"2026-03-26 14:40:00","42561","4.257","180.2","6.958","179.8","1013.315","13.79","64.32","616.4","0.0"],
    [1404982,"2026-03-26 14:50:00","42562","3.575","177.8","7.056","179.5","1013.196","14.03","64.83","605.7","0.0"],
    [1404983,"2026-03-26 15:00:00","42563","3.241","168.4","6.566","191.3","1013.068","13.92","64.31","582.0","0.0"],
    [1404984,"2026-03-26 15:10:00","42564","2.5140000000000002","162.0","5.913","188.1","1012.947","13.83","64.83","545.2","0.0"],
    [1404985,"2026-03-26 15:20:00","42565","1.635","132.7","4.998","152.5","1012.895","14.09","64.28","523.0","0.0"],
    [1404986,"2026-03-26 15:30:00","42566","1.777","121.0","4.9","155.3","1012.7539999999999","13.86","64.32","474.6","0.0"],
    [1404987,"2026-03-26 15:40:00","42567","1.3359999999999999","122.4","5.129","87.2","1012.68","13.87","63.47","458.9","0.0"],
    [1404988,"2026-03-26 15:50:00","42568","1.411","110.2","4.835","157.2","1012.7560000000001","13.91","64.83","385.7","0.0"],
    [1404989,"2026-03-26 16:00:00","42569","2.5789999999999997","113.3","5.194","107.1","1012.7860000000001","13.64","67.66","383.7","0.0"],
    [1404990,"2026-03-26 16:10:00","42570","2.044","119.0","5.063","97.4","1012.816","13.47","67.31","350.3","0.0"],
    [1404991,"2026-03-26 16:20:00","42571","1.892","111.7","5.325","112.6","1012.7739999999999","13.43","67.3","297.1","0.0"],
    [1404992,"2026-03-26 16:30:00","42572","2.182","106.4","5.325","86.7","1012.7919999999999","13.3","66.75","265.8","0.0"],
    [1404993,"2026-03-26 16:40:00","42573","1.67","116.5","5.357","114.5","1012.73","13.27","67.65","240.9","0.0"],
    [1404994,"2026-03-26 16:50:00","42574","2.201","108.7","5.129","80.5","1012.7710000000001","13.13","67.96","207.6","0.0"],
    [1404995,"2026-03-26 17:00:00","42575","3.109","103.2","5.815","106.1","1012.895","13.0","68.75","185.9","0.0"],
    [1404996,"2026-03-26 17:10:00","42576","3.1069999999999998","103.2","5.619","122.2","1013.0160000000001","12.79","68.56","163.6","0.0"],
    [1404997,"2026-03-26 17:20:00","42577","3.363","103.9","5.651","94.7","1013.1080000000001","12.65","68.39","122.0","0.0"],
    [1404998,"2026-03-26 17:30:00","42578","2.93","103.8","5.815","85.3","1013.0980000000001","12.62","70.15","74.72","0.0"],
    [1404999,"2026-03-26 17:40:00","42579","2.801","103.6","5.847","94.3","1013.172","12.45","72.11","36.37","0.0"],
    [1405000,"2026-03-26 17:50:00","42580","2.4819999999999998","106.3","5.815","93.3","1013.22","12.34","72.33","23.14","0.0"],
    [1405001,"2026-03-26 18:00:00","42581","2.697","101.7","6.697","98.8","1013.4780000000001","12.24","71.75","11.14","0.0"],
    [1405002,"2026-03-26 18:10:00","42582","2.479","103.8","6.305","96.9","1013.694","12.24","72.33","4.198","0.0"],
    [1405003,"2026-03-26 18:20:00","42583","2.03","107.1","5.325","133.2","1013.7289999999999","12.19","72.2","-0.032","0.0"],
    [1405004,"2026-03-26 18:30:00","42584","1.9880000000000002","108.6","5.325","120.8","1013.705","12.15","72.86","-1.546","0.0"],
    [1405005,"2026-03-26 18:40:00","42585","2.137","110.0","4.769","97.4","1013.73","12.12","73.3","-2.485","0.0"],
    [1405006,"2026-03-26 18:50:00","42586","1.973","112.1","4.247","95.4","1013.922","12.14","73.96","-2.329","0.0"],
    [1405007,"2026-03-26 19:00:00","42587","1.5419999999999998","116.5","3.789","119.9","1014.132","12.12","74.47","-2.426","0.0"],
    [1405008,"2026-03-26 19:10:00","42588","2.0469999999999997","112.5","4.345","108","1014.198","12.11","73.66","-2.3","0.0"],
    [1405009,"2026-03-26 19:20:00","42589","1.86","117.1","4.41","85.5","1014.159","12.12","72.83","-2.174","0.0"],
    [1405010,"2026-03-26 19:30:00","42590","1.9409999999999998","113.6","4.933","99","1014.209","12.07","73.69","-2.7569999999999997","0.0"],
    [1405011,"2026-03-26 19:40:00","42591","1.9380000000000002","111.2","5.423","108.5","1014.441","12.04","74.09","-2.7560000000000002","0.0"],
    [1405012,"2026-03-26 19:50:00","42592","2.245","112.1","5.292","77.82","1014.4739999999999","12.08","74.02","-2.759","0.0"],
    [1405013,"2026-03-26 20:00:00","42593","2.214","109.0","4.214","122.7","1014.6360000000001","12.09","73.79","-2.759","0.0"],
    [1405014,"2026-03-26 20:10:00","42594","1.8","114.8","4.018","132.1","1014.8439999999999","12.1","73.82","-2.759","0.0"],
    [1405015,"2026-03-26 20:20:00","42595","1.6030000000000002","123.2","4.312","113.6","1014.828","12.1","73.97","-2.761","0.0"],
    [1405016,"2026-03-26 20:30:00","42596","1.3880000000000001","123.5","5.423","132.3","1014.939","12.1","73.79","-2.761","0.0"],
    [1405017,"2026-03-26 20:40:00","42597","1.053","116.3","3.299","128.1","1014.99","12.09","72.49","-2.7710000000000004","0.0"],
    [1405018,"2026-03-26 20:50:00","42598","1.345","117.5","3.855","134.5","1015.063","12.31","71.04","-2.7560000000000002","0.0"],
    [1405019,"2026-03-26 21:00:00","42599","1.649","114.8","3.691","126","1015.07","12.47","69.19","-2.293","0.0"],
    [1405020,"2026-03-26 21:10:00","42600","1.7619999999999998","110.5","3.822","96.3","1015.137","12.55","68.64","-1.825","0.0"],
    [1405021,"2026-03-26 21:20:00","42601","1.821","112.7","4.116","87.7","1015.199","12.6","67.49","-2.169","0.0"],
    [1405022,"2026-03-26 21:30:00","42602","2.272","114.3","4.933","116.9","1015.2180000000001","12.65","68.37","-2.0340000000000003","0.0"],
    [1405023,"2026-03-26 21:40:00","42603","2.16","115.4","5.749","141.6","1015.2760000000001","12.7","68.8","-2.449","0.0"],
    [1405024,"2026-03-26 21:50:00","42604","2.028","117.4","5.782","117.8","1015.305","12.72","68.53","-2.363","0.0"],
    [1405025,"2026-03-26 22:00:00","42605","2.256","113.6","5.063","94.9","1015.327","12.81","68.57","-1.913","0.0"],
    [1405026,"2026-03-26 22:10:00","42606","1.702","120.7","5.619","135.1","1015.342","12.87","70.86","-1.274","0.0"],
    [1405027,"2026-03-26 22:20:00","42607","1.58","136.1","6.599","111.2","1015.341","12.75","72.63","-1.879","0.0"],
    [1405028,"2026-03-26 22:30:00","42608","1.186","125.1","4.606","110.5","1015.422","12.74","72.78","-2.0069999999999997","0.0"],
    [1405029,"2026-03-26 22:40:00","42609","1.439","145.3","4.377","190.8","1015.445","12.72","73.03","-2.019","0.0"],
    [1405030,"2026-03-26 22:50:00","42610","1.9380000000000002","162.9","5.161","147.1","1015.3710000000001","12.77","72.72","-2.017","0.0"],
    [1405031,"2026-03-26 23:00:00","42611","1.857","154.8","5.619","179.9","1015.291","12.76","72.4","-2.06","0.0"],
    [1405032,"2026-03-26 23:10:00","42612","2.701","169.4","5.586","169.5","1015.245","12.88","71.87","-2.405","0.0"],
    [1405033,"2026-03-26 23:20:00","42613","2.719","167.2","6.566","176.7","1015.198","12.94","72.87","-2.477","0.0"],
    [1405034,"2026-03-26 23:30:00","42614","1.9080000000000001","153.9","4.998","167.9","1015.097","12.91","72.48","-2.428","0.0"],
    [1405035,"2026-03-26 23:40:00","42615","1.501","142.5","4.835","115.8","1015.012","12.92","72.44","-2.059","0.0"],
    [1405036,"2026-03-26 23:50:00","42616","1.921","142.9","5.357","135.7","1014.965","12.97","70.71","-2.2880000000000003","0.0"],
    [1405037,"2026-03-27 00:00:00","42617","3.258","165.5","7.285","172.1","1014.9069999999999","13.09","67.68","-1.72","0.0"],
    [1405038,"2026-03-27 00:10:00","42618","1.8559999999999999","137.7","6.174","190.7","1014.927","13.13","63.51","-1.262","0.0"],
    [1405039,"2026-03-27 00:20:00","42619","2.138","109.9","4.541","80.8","1015.028","13.11","61.19","-1.266","0.0"],
    [1405040,"2026-03-27 00:30:00","42620","1.013","127.9","3.985","130","1015.067","13.09","59.79","-1.261","0.0"],
    [1405041,"2026-03-27 00:40:00","42621","1.63","71.59","3.789","79.13","1015.1139999999999","12.96","57.26","-1.261","0.0"],
    [1405042,"2026-03-27 00:50:00","42622","1.077","24.67","2.123","104.1","1015.1289999999999","12.85","58.4","-1.261","0.0"],
    [1405043,"2026-03-27 01:00:00","42623","2.351","45.39","3.201","34.66","1015.0889999999999","12.83","55.25","-1.261","0.0"],
    [1405044,"2026-03-27 01:10:00","42624","1.9480000000000002","49.25","2.94","74.9","1015.003","12.73","54.14","-1.261","0.0"],
    [1405045,"2026-03-27 01:20:00","42625","2.095","51.33","2.875","49","1014.929","12.58","53.41","-1.286","0.0"],
    [1405046,"2026-03-27 01:30:00","42626","1.078","42.27","1.699","62.41","1014.816","12.37","53.31","-2.184","0.0"],
    [1405047,"2026-03-27 01:40:00","42627","1.248","347.5","2.515","281.2","1014.8","12.03","57.21","-2.727","0.0"],
    [1405048,"2026-03-27 01:50:00","42628","1.546","293.4","2.842","288.7","1014.7489999999999","11.14","69.48","-2.522","0.0"],
    [1405049,"2026-03-27 02:00:00","42629","2.391","296.8","4.214","305.9","1014.7610000000001","10.61","73.26","-2.764","0.0"],
    [1405050,"2026-03-27 02:10:00","42630","3.109","306.5","4.769","314.2","1014.745","10.83","73.06","-2.761","0.0"],
    [1405051,"2026-03-27 02:20:00","42631","4.249","317.2","6.076","316.8","1014.7410000000001","10.93","72.85","-2.739","0.0"],
    [1405052,"2026-03-27 02:30:00","42632","3.865","314.0","6.664","336.8","1014.71","10.76","73.04","-2.659","0.0"],
    [1405053,"2026-03-27 02:40:00","42633","3.517","306.3","6.86","320.6","1014.6619999999999","10.47","71.96","-2.5989999999999998","0.0"],
    [1405054,"2026-03-27 02:50:00","42634","3.61","303.5","5.423","303.4","1014.6310000000001","10.08","69.56","-2.7560000000000002","0.0"],
    [1405055,"2026-03-27 03:00:00","42635","3.5989999999999998","297.2","5.259","308.6","1014.582","9.84","65.62","-2.7260000000000004","0.0"],
    [1405056,"2026-03-27 03:10:00","42636","3.552","301.9","6.141","313.7","1014.685","9.72","62.2","-2.758","0.0"],
    [1405057,"2026-03-27 03:20:00","42637","3.8339999999999996","313.0","6.272","319.4","1014.752","9.72","56.65","-2.76","0.0"],
    [1405058,"2026-03-27 03:30:00","42638","4.151","317.8","5.978","298.2","1014.893","9.72","51.17","-2.759","0.0"],
    [1405059,"2026-03-27 03:40:00","42639","3.273","316.1","5.357","315.4","1014.865","9.56","49.58","-2.758","0.0"],
    [1405060,"2026-03-27 03:50:00","42640","3.5180000000000002","301.0","6.762","301.3","1014.863","9.29","49.67","-2.762","0.0"],
    [1405061,"2026-03-27 04:00:00","42641","3.8939999999999997","304.3","6.631","304.2","1014.8639999999999","9.2","50.02","-2.753","0.0"],
    [1405062,"2026-03-27 04:10:00","42642","3.307","304.9","5.325","311.1","1014.9069999999999","9.22","50.05","-2.707","0.0"],
    [1405063,"2026-03-27 04:20:00","42643","3.875","300.3","6.011","318.3","1014.9019999999999","9.07","49.94","-2.6510000000000002","0.0"],
    [1405064,"2026-03-27 04:30:00","42644","5.574","308.4","7.938","317.4","1014.9019999999999","9.08","49.1","-2.529","0.0"],
    [1405065,"2026-03-27 04:40:00","42645","4.537","313.5","7.023","317.7","1014.95","9.0","49.02","-2.504","0.0"],
    [1405066,"2026-03-27 04:50:00","42646","4.1530000000000005","310.5","7.252","306.2","1014.8960000000001","8.89","49.4","-2.7569999999999997","0.0"],
    [1405067,"2026-03-27 05:00:00","42647","3.424","310.9","4.639","303.2","1014.893","8.82","49.88","-2.762","0.0"],
    [1405068,"2026-03-27 05:10:00","42648","3.158","303.9","4.835","316.5","1014.8839999999999","8.63","50.54","-2.7680000000000002","0.0"],
    [1405069,"2026-03-27 05:20:00","42649","2.844","314.0","4.475","303.4","1014.955","8.62","50.23","-2.779","0.0"],
    [1405070,"2026-03-27 05:30:00","42650","2.319","319.8","3.92","315.8","1015.0189999999999","8.59","50.14","-2.727","0.0"],
    [1405071,"2026-03-27 05:40:00","42651","3.258","304.0","5.651","308.8","1015.0880000000001","8.45","50.93","-1.226","0.0"],
    [1405072,"2026-03-27 05:50:00","42652","4.465","311.8","6.533","319.5","1015.164","8.47","50.71","2.4330000000000003","0.0"],
    [1405073,"2026-03-27 06:00:00","42653","3.2289999999999996","324.3","5.521","319.1","1015.199","8.44","51.0","8.8","0.0"],
    [1405074,"2026-03-27 06:10:00","42654","3.04","320.6","4.965","321.5","1015.168","8.5","50.72","14.3","0.0"],
    [1405075,"2026-03-27 06:20:00","42655","3.15","315.8","5.325","302.8","1015.313","8.51","50.81","20.7","0.0"],
    [1405076,"2026-03-27 06:30:00","42656","3.0069999999999997","315.0","5.455","308","1015.513","8.47","51.14","30.06","0.0"],
    [1405077,"2026-03-27 06:40:00","42657","3.452","310.8","6.533","323.2","1015.568","8.77","50.33","105.3","0.0"],
    [1405078,"2026-03-27 06:50:00","42658","4.541","311.3","6.795","326.3","1015.6239999999999","9.01","49.63","135.1","0.0"],
    [1405079,"2026-03-27 07:00:00","42659","4.685","321.4","7.285","321.3","1015.633","9.2","49.27","167.8","0.0"],
    [1405080,"2026-03-27 07:10:00","42660","4.624","317.2","6.86","317.1","1015.6089999999999","9.26","49.01","204.4","0.0"],
    [1405081,"2026-03-27 07:20:00","42661","4.82","307.3","7.317","296.8","1015.4860000000001","9.39","48.77","240.2","0.0"],
    [1405082,"2026-03-27 07:30:00","42662","4.838","306.1","7.317","311.4","1015.497","9.5","48.29","272.6","0.0"],
    [1405083,"2026-03-27 07:40:00","42663","3.822","306.5","5.684","303.2","1015.4730000000001","9.83","47.91","295.6","0.0"],
    [1405084,"2026-03-27 07:50:00","42664","5.039","303.0","7.252","318.4","1015.6560000000001","10.01","47.33","332.5","0.0"],
    [1405085,"2026-03-27 08:00:00","42665","4.601","308.0","7.219","315.5","1015.704","10.15","47.33","388.4","0.0"],
    [1405086,"2026-03-27 08:10:00","42666","3.655","315.1","6.272","320","1015.697","10.66","46.59","422.1","0.0"],
    [1405087,"2026-03-27 08:20:00","42667","3.8760000000000003","309.8","6.37","321.7","1015.7810000000001","11.04","45.41","453.8","0.0"],
    [1405088,"2026-03-27 08:30:00","42668","4.052","316.6","6.599","323.3","1015.814","11.25","44.88","487.5","0.0"],
    [1405089,"2026-03-27 08:40:00","42669","4.511","304.2","6.305","297.7","1015.805","11.34","44.13","519.1","0.0"],
    [1405090,"2026-03-27 08:50:00","42670","4.231","311.2","6.272","323","1015.775","11.65","43.11","548.3","0.0"],
    [1405091,"2026-03-27 09:00:00","42671","3.7880000000000003","299.5","6.174","296.7","1015.653","12.11","41.86","576.0","0.0"],
    [1405092,"2026-03-27 09:10:00","42672","2.9560000000000004","320.8","5.161","309.2","1015.493","12.23","40.83","603.4","0.0"],
    [1405093,"2026-03-27 09:20:00","42673","2.193","342.6","3.495","342.1","1015.5360000000001","12.56","39.13","628.3","0.0"],
    [1405094,"2026-03-27 09:30:00","42674","1.213","325.6","2.907","269.9","1015.4860000000001","13.0","37.19","652.5","0.0"],
    [1405095,"2026-03-27 09:40:00","42675","1.093","315.6","3.136","328.6","1015.3439999999999","13.75","36.23","674.3","0.0"],
    [1405096,"2026-03-27 09:50:00","42676","0.97","293.4","3.724","283.8","1015.3480000000001","13.77","38.17","698.4","0.0"],
    [1405097,"2026-03-27 10:00:00","42677","0.914","315.4","3.071","335.8","1015.3839999999999","14.6","36.95","717.5","0.0"],
    [1405098,"2026-03-27 10:10:00","42678","1.584","230.4","3.267","225.7","1015.265","14.24","37.94","737.7","0.0"],
    [1405099,"2026-03-27 10:20:00","42679","2.201","192.9","4.965","182.9","1015.198","14.54","38.52","757.1","0.0"],
    [1405100,"2026-03-27 10:30:00","42680","3.3489999999999998","178.2","5.651","176.1","1015.278","13.78","39.99","776.4","0.0"],
    [1405101,"2026-03-27 10:40:00","42681","3.283","184.4","5.717","183.5","1015.301","13.5","42.56","788.8","0.0"],
    [1405102,"2026-03-27 10:50:00","42682","3.722","191.3","5.749","188.6","1015.27","13.7","44.17","799.3","0.0"],
    [1405103,"2026-03-27 11:00:00","42683","4.378","193.8","7.383","167.3","1015.13","13.73","44.4","813.0","0.0"],
    [1405104,"2026-03-27 11:10:00","42684","3.77","196.6","6.501","221.7","1015.074","13.94","45.82","823.0","0.0"],
    [1405105,"2026-03-27 11:20:00","42685","3.595","192.3","7.873","210.3","1015.013","14.1","45.36","831.0","0.0"],
    [1405106,"2026-03-27 11:30:00","42686","4.4","214.0","7.481","231.6","1014.933","13.91","45.01","837.0","0.0"],
    [1405107,"2026-03-27 11:40:00","42687","3.0469999999999997","183.8","6.207","202.3","1015.0089999999999","13.7","45.65","841.0","0.0"],
    [1405108,"2026-03-27 11:50:00","42688","3.3930000000000002","198.6","5.619","214.4","1014.929","13.85","44.91","844.0","0.0"],
    [1405109,"2026-03-27 12:00:00","42689","3.2510000000000003","191.5","5.88","180.6","1014.7919999999999","14.04","45.37","844.0","0.0"],
    [1405110,"2026-03-27 12:10:00","42690","3.1889999999999996","188.3","5.88","179.8","1014.762","14.02","46.84","843.0","0.0"],
    [1405111,"2026-03-27 12:20:00","42691","3.188","175.5","5.227","179.3","1014.709","13.74","48.65","841.0","0.0"],
    [1405112,"2026-03-27 12:30:00","42692","3.373","190.1","5.586","230.8","1014.6460000000001","14.19","45.64","837.0","0.0"],
    [1405113,"2026-03-27 12:40:00","42693","3.005","180.2","5.847","163.7","1014.7130000000001","14.02","43.92","831.0","0.0"],
    [1405114,"2026-03-27 12:50:00","42694","3.987","178.6","6.174","166.4","1014.572","13.91","45.87","824.0","0.0"],
    [1405115,"2026-03-27 13:00:00","42695","3.158","189.1","6.207","179.5","1014.5189999999999","14.39","46.48","812.0","0.0"],
    [1405116,"2026-03-27 13:10:00","42696","3.775","193.2","6.305","186","1014.4939999999999","14.47","46.33","803.0","0.0"],
    [1405117,"2026-03-27 13:20:00","42697","3.27","182.8","6.174","153.2","1014.4889999999999","14.15","47.63","791.6","0.0"],
    [1405118,"2026-03-27 13:30:00","42698","3.948","174.4","6.533","152.3","1014.4739999999999","13.63","50.05","777.7","0.0"],
    [1405119,"2026-03-27 13:40:00","42699","3.182","183.0","5.717","160.7","1014.447","14.36","47.09","763.6","0.0"],
    [1405120,"2026-03-27 13:50:00","42700","3.634","181.5","5.978","181.3","1014.3530000000001","14.1","48.01","748.3","0.0"],
    [1405121,"2026-03-27 14:00:00","42701","3.048","165.8","5.684","162.9","1014.299","13.83","47.79","732.7","0.0"],
    [1405122,"2026-03-27 14:10:00","42702","1.939","154.1","4.933","98","1014.32","14.42","45.54","712.5","0.0"],
    [1405123,"2026-03-27 14:20:00","42703","2.299","156.1","5.88","177.5","1014.312","14.34","44.89","695.2","0.0"],
    [1405124,"2026-03-27 14:30:00","42704","1.765","130.6","4.802","189.4","1014.296","14.65","42.53","656.3","0.0"],
    [1405125,"2026-03-27 14:40:00","42705","2.18","160.9","6.533","173.5","1014.375","14.54","45.55","611.4","0.0"],
    [1405126,"2026-03-27 14:50:00","42706","3.154","170.9","5.651","166.2","1014.334","14.19","50.28","580.1","0.0"],
    [1405127,"2026-03-27 15:00:00","42707","2.333","159.3","6.37","191.8","1014.317","13.84","53.79","417.9","0.0"],
    [1405128,"2026-03-27 15:10:00","42708","2.445","164.9","5.847","172.6","1014.44","13.71","56.58","382.8","0.0"],
    [1405129,"2026-03-27 15:20:00","42709","1.807","153.7","5.619","174","1014.466","14.01","58.34","444.7","0.0"],
    [1405130,"2026-03-27 15:30:00","42710","2.076","147.4","5.031","161.8","1014.4939999999999","14.21","58.61","430.4","0.0"],
    [1405131,"2026-03-27 15:40:00","42711","1.3330000000000002","163.8","4.475","205.6","1014.565","14.2","58.08","386.7","0.0"],
    [1405132,"2026-03-27 15:50:00","42712","1.624","139.8","4.377","205.4","1014.5880000000001","14.09","58.04","301.2","0.0"],
    [1405133,"2026-03-27 16:00:00","42713","1.2109999999999999","143.3","4.083","121.9","1014.665","14.05","59.05","300.2","0.0"],
    [1405134,"2026-03-27 16:10:00","42714","2.503","166.1","5.357","175.5","1014.69","14.14","58.15","412.8","0.0"],
    [1405135,"2026-03-27 16:20:00","42715","1.663","161.8","4.377","173.3","1014.77","14.06","58.05","383.5","0.0"],
    [1405136,"2026-03-27 16:30:00","42716","2.116","156.0","5.096","191.5","1014.822","13.99","57.72","335.1","0.0"],
    [1405137,"2026-03-27 16:40:00","42717","1.3940000000000001","139.3","4.279","184.1","1014.9060000000001","13.88","58.34","276.7","0.0"],
    [1405138,"2026-03-27 16:50:00","42718","1.546","114.5","4.508","92.7","1014.955","13.85","58.33","226.5","0.0"],
    [1405139,"2026-03-27 17:00:00","42719","1.386","117.2","3.789","147.2","1015.0219999999999","13.62","58.34","150.3","0.0"],
    [1405140,"2026-03-27 17:10:00","42720","1.5490000000000002","112.1","3.463","123","1015.1139999999999","13.35","59.27","88.0","0.0"],
    [1405141,"2026-03-27 17:20:00","42721","0.752","116.1","2.973","63.46","1015.255","13.18","59.48","48.7","0.0"],
    [1405142,"2026-03-27 17:30:00","42722","1.554","167.6","4.181","166.3","1015.311","12.96","60.18","35.78","0.0"],
    [1405143,"2026-03-27 17:40:00","42723","2.004","171.0","3.593","139.4","1015.416","12.94","60.56","29.32","0.0"],
    [1405144,"2026-03-27 17:50:00","42724","2.239","175.4","3.691","173.6","1015.545","12.94","60.23","22.84","0.0"],
    [1405145,"2026-03-27 18:00:00","42725","1.8319999999999999","183.7","3.953","186.8","1015.671","12.9","62.16","10.98","0.0"],
    [1405146,"2026-03-27 18:10:00","42726","1.7469999999999999","178.5","3.985","191.7","1015.7510000000001","12.8","61.16","3.891","0.0"],
    [1405147,"2026-03-27 18:20:00","42727","1.7469999999999999","190.0","3.103","181.9","1015.8580000000001","12.75","58.0","0.092","0.0"],
    [1405148,"2026-03-27 18:30:00","42728","1.61","197.7","3.038","192.6","1016.028","12.63","59.21","-2.0380000000000003","0.0"],
    [1405149,"2026-03-27 18:40:00","42729","1.501","193.7","3.136","175.1","1016.125","12.62","57.91","-3.283","0.0"],
    [1405150,"2026-03-27 18:50:00","42730","1.023","201.6","2.613","207.8","1016.173","12.49","60.29","-3.4139999999999997","0.0"],
    [1405151,"2026-03-27 19:00:00","42731","0.872","202.2","1.731","186.4","1016.32","12.32","62.27","-3.5039999999999996","0.0"],
    [1405152,"2026-03-27 19:10:00","42732","1.3730000000000002","203.4","2.613","217.6","1016.451","12.38","62.16","-3.446","0.0"],
    [1405153,"2026-03-27 19:20:00","42733","2.146","215.9","4.965","242.2","1016.515","12.52","62.26","-3.355","0.0"],
    [1405154,"2026-03-27 19:30:00","42734","2.056","220.6","3.626","233.9","1016.6439999999999","12.52","62.56","-2.908","0.0"],
    [1405155,"2026-03-27 19:40:00","42735","2.906","221.5","5.782","212.7","1016.747","12.44","64.11","-2.892","0.0"],
    [1405156,"2026-03-27 19:50:00","42736","3.003","218.0","6.174","227.5","1016.791","12.46","64.43","-2.807","0.0"],
    [1405157,"2026-03-27 20:00:00","42737","2.682","223.3","4.802","216.4","1016.8610000000001","12.42","64.03","-2.7760000000000002","0.0"],
    [1405158,"2026-03-27 20:10:00","42738","2.59","220.0","4.541","202.7","1016.9630000000001","12.35","64.46","-2.775","0.0"],
    [1405159,"2026-03-27 20:20:00","42739","3.0180000000000002","219.1","6.239","230.5","1017.034","12.39","64.97","-2.765","0.0"],
    [1405160,"2026-03-27 20:30:00","42740","2.693","215.6","4.149","204.2","1017.054","12.3","66.06","-2.764","0.0"],
    [1405161,"2026-03-27 20:40:00","42741","2.892","222.3","6.109","229.1","1017.133","12.33","65.82","-2.772","0.0"],
    [1405162,"2026-03-27 20:50:00","42742","3.179","222.7","5.945","239.8","1017.173","12.47","65.73","-2.804","0.0"],
    [1405163,"2026-03-27 21:00:00","42743","3.035","221.5","5.292","236.3","1017.248","12.42","65.96","-2.766","0.0"],
    [1405164,"2026-03-27 21:10:00","42744","2.334","217.9","4.541","221.6","1017.296","12.36","65.58","-2.761","0.0"],
    [1405165,"2026-03-27 21:20:00","42745","2.7760000000000002","225.9","5.847","225.9","1017.37","12.21","65.48","-2.7689999999999997","0.0"],
    [1405166,"2026-03-27 21:30:00","42746","3.7489999999999997","224.1","6.795","226.5","1017.5260000000001","12.37","63.5","-2.762","0.0"],
    [1405167,"2026-03-27 21:40:00","42747","3.628","221.7","6.272","231","1017.552","12.44","62.35","-2.755","0.0"],
    [1405168,"2026-03-27 21:50:00","42748","3.592","222.1","5.651","248.1","1017.597","12.43","60.87","-2.761","0.0"],
    [1405169,"2026-03-27 22:00:00","42749","3.486","222.9","5.782","221.2","1017.659","12.48","61.04","-2.739","0.0"],
    [1405170,"2026-03-27 22:10:00","42750","2.033","253.9","4.9","224.8","1017.755","12.18","63.33","-2.431","0.0"],
    [1405171,"2026-03-27 22:20:00","42751","1.188","268.9","2.091","277.2","1017.797","11.27","67.3","-2.76","0.0"],
    [1405172,"2026-03-27 22:30:00","42752","1.1159999999999999","266.4","2.352","264.5","1017.845","11.07","68.55","-2.764","0.0"],
    [1405173,"2026-03-27 22:40:00","42753","1.093","267.2","1.862","242.4","1017.86","10.89","69.87","-2.781","0.0"],
    [1405174,"2026-03-27 22:50:00","42754","1.284","235.3","2.777","264.3","1017.865","11.31","70.31","-2.6839999999999997","0.0"],
    [1405175,"2026-03-27 23:00:00","42755","1.5","274.8","2.581","264.2","1017.8530000000001","11.3","70.97","-1.5230000000000001","0.0"],
    [1405176,"2026-03-27 23:10:00","42756","1.514","282.3","2.385","295.7","1017.905","10.94","71.3","-2.116","0.0"],
    [1405177,"2026-03-27 23:20:00","42757","1.3159999999999998","280.4","2.091","281.2","1017.9810000000001","10.81","71.6","-2.654","0.0"],
    [1405178,"2026-03-27 23:30:00","42758","1.179","261.7","2.319","275.8","1017.913","10.89","71.35","-2.679","0.0"],
    [1405179,"2026-03-27 23:40:00","42759","0.875","265.9","1.862","257.5","1017.8489999999999","10.77","71.44","-2.761","0.0"],
    [1405180,"2026-03-27 23:50:00","42760","0.9690000000000001","270.6","1.829","249.3","1017.868","10.6","72.1","-2.762","0.0"],
    [1405181,"2026-03-28 00:00:00","42761","1.137","274.0","2.189","270","1017.8610000000001","10.49","72.69","-2.78","0.0"],
    [1405182,"2026-03-28 00:10:00","42762","1.22","277.6","2.123","276.9","1017.8560000000001","10.35","73.25","-2.7560000000000002","0.0"],
    [1405183,"2026-03-28 00:20:00","42763","1.18","283.0","2.254","288.5","1017.8389999999999","10.27","73.68","-2.373","0.0"],
    [1405184,"2026-03-28 00:30:00","42764","1.198","270.4","2.254","270.5","1017.7610000000001","10.39","73.64","-2.063","0.0"],
    [1405185,"2026-03-28 00:40:00","42765","1.45","281.8","2.646","279.6","1017.742","10.44","73.72","-2.662","0.0"],
    [1405186,"2026-03-28 00:50:00","42766","1.713","275.2","2.777","273.5","1017.711","10.47","73.98","-2.6639999999999997","0.0"],
    [1405187,"2026-03-28 01:00:00","42767","1.3840000000000001","274.6","2.385","268.9","1017.693","10.52","73.67","-2.452","0.0"],
    [1405188,"2026-03-28 01:10:00","42768","1.416","276.8","2.123","277.4","1017.678","10.58","73.49","-2.006","0.0"],
    [1405189,"2026-03-28 01:20:00","42769","1.252","280.6","2.123","287.3","1017.528","10.54","73.93","-2.241","0.0"],
    [1405190,"2026-03-28 01:30:00","42770","1.531","279.5","2.221","277.7","1017.3580000000001","10.59","74.01","-2.2159999999999997","0.0"],
    [1405191,"2026-03-28 01:40:00","42771","1.3230000000000002","274.5","2.025","274","1017.172","10.56","74.03","-2.6010000000000004","0.0"],
    [1405192,"2026-03-28 01:50:00","42772","1.27","280.9","2.123","281.6","1017.1139999999999","10.33","74.53","-2.786","0.0"],
    [1405193,"2026-03-28 02:00:00","42773","1.276","275.7","2.352","265.4","1017.155","10.32","74.62","-2.859","0.0"],
    [1405194,"2026-03-28 02:10:00","42774","1.355","283.8","2.581","305.2","1017.2689999999999","10.17","74.11","-2.7739999999999996","0.0"],
    [1405195,"2026-03-28 02:20:00","42775","1.4240000000000002","275.7","2.679","282.7","1017.346","9.66","75.4","-2.762","0.0"],
    [1405196,"2026-03-28 02:30:00","42776","1.181","284.8","2.058","291.2","1017.3639999999999","9.04","77.11","-2.7739999999999996","0.0"],
    [1405197,"2026-03-28 02:40:00","42777","1.151","278.4","1.96","279.5","1017.393","8.63","78.92","-2.782","0.0"],
    [1405198,"2026-03-28 02:50:00","42778","0.8240000000000001","281.1","1.797","269.3","1017.363","8.59","79.41","-2.802","0.0"],
    [1405199,"2026-03-28 03:00:00","42779","1.044","278.4","2.319","284.3","1017.28","8.7","79.23","-2.867","0.0"],
    [1405200,"2026-03-28 03:10:00","42780","1.499","281.8","2.319","294.2","1017.247","8.85","78.48","-2.767","0.0"],
    [1405201,"2026-03-28 03:20:00","42781","1.504","281.3","2.613","288.2","1017.2589999999999","8.76","78.96","-2.807","0.0"],
    [1405202,"2026-03-28 03:30:00","42782","0.884","283.1","2.254","297.8","1017.295","8.6","79.22","-2.7689999999999997","0.0"],
    [1405203,"2026-03-28 03:40:00","42783","0.196","271.3","0.915","264.3","1017.3689999999999","8.4","80.5","-3.2230000000000003","0.0"],
    [1405204,"2026-03-28 03:50:00","42784","0.449","267.4","1.045","266.3","1017.2810000000001","8.74","79.88","-2.775","0.0"],
    [1405205,"2026-03-28 04:00:00","42785","0.983","263.0","1.699","247.3","1017.25","8.85","79.12","-2.8","0.0"],
    [1405206,"2026-03-28 04:10:00","42786","1.143","274.2","2.025","277.5","1017.222","8.73","78.9","-2.767","0.0"],
    [1405207,"2026-03-28 04:20:00","42787","1.227","292.6","1.731","297.5","1017.2180000000001","8.24","79.98","-2.7689999999999997","0.0"],
    [1405208,"2026-03-28 04:30:00","42788","1.078","291.8","1.764","293.5","1017.21","7.922000000000001","81.0","-2.78","0.0"],
    [1405209,"2026-03-28 04:40:00","42789","1.401","286.6","2.287","290.9","1017.22","7.945","80.6","-2.89","0.0"],
    [1405210,"2026-03-28 04:50:00","42790","1.056","286.3","1.895","305.5","1017.2510000000001","7.855","80.3","-2.781","0.0"],
    [1405211,"2026-03-28 05:00:00","42791","1.425","288.2","2.45","277.2","1017.206","7.877999999999999","79.74","-2.7769999999999997","0.0"],
    [1405212,"2026-03-28 05:10:00","42792","1.2109999999999999","293.9","2.123","312.6","1017.2710000000001","7.848","79.77","-2.775","0.0"],
    [1405213,"2026-03-28 05:20:00","42793","1.983","306.4","3.887","324","1017.377","7.792000000000001","79.88","-2.96","0.0"],
    [1405214,"2026-03-28 05:30:00","42794","2.526","305.4","4.116","311.3","1017.5089999999999","8.38","78.53","-2.508","0.0"],
    [1405215,"2026-03-28 05:40:00","42795","2.9130000000000003","311.0","4.802","316.8","1017.683","8.58","77.17","-0.643","0.0"],
    [1405216,"2026-03-28 05:50:00","42796","3.662","317.8","5.227","319.7","1017.796","9.0","73.54","3.595","0.0"],
    [1405217,"2026-03-28 06:00:00","42797","3.3139999999999996","309.4","5.423","305.6","1017.944","9.09","72.05","9.54","0.0"],
    [1405218,"2026-03-28 06:10:00","42798","3.628","301.4","5.423","306","1018.049","8.93","72.36","24.41","0.0"],
    [1405219,"2026-03-28 06:20:00","42799","3.897","303.7","5.847","310.1","1018.1510000000001","8.8","72.67","54.26","0.0"],
    [1405220,"2026-03-28 06:30:00","42800","3.639","300.1","5.521","311.5","1018.265","8.9","71.87","84.3","0.0"],
    [1405221,"2026-03-28 06:40:00","42801","2.477","305.6","3.822","311.1","1018.398","9.11","70.87","108.5","0.0"],
    [1405222,"2026-03-28 06:50:00","42802","2.9810000000000003","305.1","4.671","294.8","1018.4839999999999","9.36","68.6","138.0","0.0"],
    [1405223,"2026-03-28 07:00:00","42803","5.204","309.4","7.709","303.2","1018.452","9.33","66.04","173.7","0.0"],
    [1405224,"2026-03-28 07:10:00","42804","4.868","299.7","7.611","298.8","1018.435","9.6","63.24","210.4","0.0"],
    [1405225,"2026-03-28 07:20:00","42805","5.041","297.7","7.546","300.7","1018.569","9.88","62.2","247.1","0.0"],
    [1405226,"2026-03-28 07:30:00","42806","5.511","307.1","7.905","318","1018.711","10.06","59.4","284.1","0.0"],
    [1405227,"2026-03-28 07:40:00","42807","5.287000000000001","307.4","8.69","320.7","1018.703","10.31","57.28","305.2","0.0"],
    [1405228,"2026-03-28 07:50:00","42808","5.417000000000001","298.1","8.23","316.3","1018.71","10.57","56.35","340.5","0.0"],
    [1405229,"2026-03-28 08:00:00","42809","5.702999999999999","299.7","8.56","308.2","1018.825","10.69","56.07","390.7","0.0"],
    [1405230,"2026-03-28 08:10:00","42810","5.306","303.7","7.611","291.6","1018.914","10.94","54.23","426.6","0.0"],
    [1405231,"2026-03-28 08:20:00","42811","5.76","296.5","8.95","311.6","1018.8430000000001","11.39","52.93","458.9","0.0"],
    [1405232,"2026-03-28 08:30:00","42812","4.571000000000001","292.8","7.317","307.7","1018.863","11.74","51.9","491.7","0.0"],
    [1405233,"2026-03-28 08:40:00","42813","3.65","289.3","6.893","311.9","1018.924","12.22","51.16","521.4","0.0"],
    [1405234,"2026-03-28 08:50:00","42814","4.861000000000001","298.7","7.187","309.2","1018.998","12.42","49.63","552.4","0.0"],
    [1405235,"2026-03-28 09:00:00","42815","4.65","291.5","6.925","284.2","1018.9839999999999","12.83","47.91","581.1","0.0"],
    [1405236,"2026-03-28 09:10:00","42816","3.905","291.4","6.272","293.2","1018.9810000000001","13.2","47.95","605.4","0.0"],
    [1405237,"2026-03-28 09:20:00","42817","4.195","293.9","6.435","297.7","1018.951","13.73","46.58","631.3","0.0"],
    [1405238,"2026-03-28 09:30:00","42818","4.288","300.2","5.913","299.1","1018.931","13.93","45.43","655.7","0.0"],
    [1405239,"2026-03-28 09:40:00","42819","4.346","287.4","6.729","295.8","1018.8639999999999","14.29","44.72","679.6","0.0"],
    [1405240,"2026-03-28 09:50:00","42820","4.4319999999999995","290.8","6.435","303.1","1018.8660000000001","14.55","43.76","701.2","0.0"],
    [1405241,"2026-03-28 10:00:00","42821","3.89","294.4","5.521","288.3","1018.872","15.15","42.8","720.3","0.0"],
    [1405242,"2026-03-28 10:10:00","42822","4.303","299.6","5.749","293.8","1018.915","15.29","40.32","741.2","0.0"],
    [1405243,"2026-03-28 10:20:00","42823","3.201","301.9","4.737","296.2","1018.9060000000001","15.61","39.78","757.5","0.0"],
    [1405244,"2026-03-28 10:30:00","42824","2.995","275.1","5.717","291.6","1018.852","16.01","39.38","772.8","0.0"],
    [1405245,"2026-03-28 10:40:00","42825","2.009","241.1","4.181","211.8","1018.7560000000001","16.07","40.28","786.0","0.0"],
    [1405246,"2026-03-28 10:50:00","42826","2.628","212.0","4.475","226.8","1018.727","15.76","46.18","799.6","0.0"],
    [1405247,"2026-03-28 11:00:00","42827","3.194","194.7","5.39","210.7","1018.622","15.95","46.33","810.0","0.0"],
    [1405248,"2026-03-28 11:10:00","42828","2.862","192.1","5.161","175.3","1018.492","16.04","47.32","820.0","0.0"],
    [1405249,"2026-03-28 11:20:00","42829","3.125","202.3","5.455","207.7","1018.3919999999999","16.23","50.07","828.0","0.0"],
    [1405250,"2026-03-28 11:30:00","42830","3.51","213.8","5.423","216.2","1018.263","15.87","50.84","836.0","0.0"],
    [1405251,"2026-03-28 11:40:00","42831","2.755","210.2","4.639","212.9","1018.066","16.46","48.99","839.0","0.0"],
    [1405252,"2026-03-28 11:50:00","42832","3.2539999999999996","204.2","4.867","231.9","1017.992","16.56","47.28","841.0","0.0"],
    [1405253,"2026-03-28 12:00:00","42833","3.7939999999999996","213.8","6.697","221.5","1017.932","16.62","46.26","843.0","0.0"],
    [1405254,"2026-03-28 12:10:00","42834","3.478","210.0","6.631","211.4","1017.8580000000001","16.38","49.64","840.0","0.0"],
    [1405255,"2026-03-28 12:20:00","42835","4.125","210.4","6.043","201.9","1017.7739999999999","16.64","47.82","833.0","0.0"],
    [1405256,"2026-03-28 12:30:00","42836","4.32","210.7","7.252","222","1017.69","16.83","46.8","830.0","0.0"],
    [1405257,"2026-03-28 12:40:00","42837","4.285","213.0","7.873","215.2","1017.6110000000001","17.11","46.72","823.0","0.0"],
    [1405258,"2026-03-28 12:50:00","42838","4.574","214.6","7.677","222.7","1017.515","16.73","47.48","815.0","0.0"],
    [1405259,"2026-03-28 13:00:00","42839","4.936","215.8","7.775","202.8","1017.403","16.6","48.29","827.0","0.0"],
    [1405260,"2026-03-28 13:10:00","42840","5.724","213.2","9.34","220","1017.2719999999999","16.54","48.08","850.0","0.0"],
    [1405261,"2026-03-28 13:20:00","42841","6.015","214.3","10","213.9","1017.0880000000001","16.52","45.84","887.0","0.0"],
    [1405262,"2026-03-28 13:30:00","42842","6.041","215.5","8.33","221.6","1016.937","16.84","43.84","797.3","0.0"],
    [1405263,"2026-03-28 13:40:00","42843","5.854","223.7","9.7","223.3","1016.834","16.81","42.02","764.0","0.0"],
    [1405264,"2026-03-28 13:50:00","42844","6.1770000000000005","224.8","9.28","228.8","1016.803","16.54","40.86","654.5","0.0"],
    [1405265,"2026-03-28 14:00:00","42845","6.167999999999999","223.0","10.42","213.6","1016.66","16.93","41.76","627.3","0.0"],
    [1405266,"2026-03-28 14:10:00","42846","5.234","223.7","8.33","237.9","1016.466","16.57","43.85","385.3","0.0"],
    [1405267,"2026-03-28 14:20:00","42847","4.217","225.7","7.285","224.3","1016.24","16.8","42.3","342.0","0.0"],
    [1405268,"2026-03-28 14:30:00","42848","4.564","224.9","7.252","221","1016.1469999999999","16.79","43.33","338.5","0.0"],
    [1405269,"2026-03-28 14:40:00","42849","5.204","219.6","8","204.2","1016.068","17.01","45.36","639.9","0.0"],
    [1405270,"2026-03-28 14:50:00","42850","5.992999999999999","218.6","10.22","219.1","1016.008","17.41","44.13","706.9","0.0"],
    [1405271,"2026-03-28 15:00:00","42851","5.354","220.9","7.644","227.1","1016.054","17.7","42.93","661.1","0.0"],
    [1405272,"2026-03-28 15:10:00","42852","5.46","219.4","8.2","202.2","1015.918","16.67","50.13","274.2","0.0"],
    [1405273,"2026-03-28 15:20:00","42853","5.432","224.7","9.47","232.9","1015.87","16.25","51.5","287.1","0.0"],
    [1405274,"2026-03-28 15:30:00","42854","4.819","222.1","7.579","210.1","1015.779","16.37","50.53","225.1","0.0"],
    [1405275,"2026-03-28 15:40:00","42855","4.837","223.6","7.873","215.6","1015.7080000000001","16.43","51.06","207.5","0.0"],
    [1405276,"2026-03-28 15:50:00","42856","4.351","223.3","7.611","218.6","1015.658","16.51","50.33","205.6","0.0"],
    [1405277,"2026-03-28 16:00:00","42857","4.151","225.6","7.089","222","1015.697","16.53","50.16","172.2","0.0"],
    [1405278,"2026-03-28 16:10:00","42858","4.428999999999999","224.5","7.252","231","1015.664","16.41","50.16","146.4","0.0"],
    [1405279,"2026-03-28 16:20:00","42859","4.038","224.2","6.174","211.7","1015.716","16.12","54.83","127.0","0.0"],
    [1405280,"2026-03-28 16:30:00","42860","3.54","227.7","5.847","216.6","1015.702","16.04","55.55","122.4","0.0"],
    [1405281,"2026-03-28 16:40:00","42861","3.293","229.3","5.553","222.9","1015.665","16.1","53.59","86.7","0.0"],
    [1405282,"2026-03-28 17:00:00","42862","2.0540000000000003","224.2","3.561","257.2","1015.6260000000001","16.3","53.97","83.3","0.0"],
    [1405283,"2026-03-28 17:10:00","42863","2.315","221.7","3.397","234.1","1015.566","16.5","53.06","78.31","0.0"],
    [1405284,"2026-03-28 17:20:00","42864","3.062","217.2","4.508","231.9","1015.6089999999999","16.8","52.58","72.25","0.0"],
    [1405285,"2026-03-28 17:30:00","42865","3.33","225.3","6.533","214.2","1015.692","16.51","54.07","101.8","0.0"],
    [1405286,"2026-03-28 17:40:00","42866","3.627","228.2","6.011","224.2","1015.808","16.19","57.33","58.23","0.0"],
    [1405287,"2026-03-28 17:50:00","42867","3.952","224.3","6.762","220.2","1015.959","15.43","65.41","25.65","0.0"],
    [1405288,"2026-03-28 18:00:00","42868","3.758","223.3","6.305","220.6","1016.0060000000001","15.12","66.64","6.747000000000001","0.0"],
    [1405289,"2026-03-28 18:10:00","42869","3.533","226.4","5.847","211.2","1016.0139999999999","14.89","67.79","1.8719999999999999","0.0"],
    [1405290,"2026-03-28 18:20:00","42870","3.467","228.0","5.357","201.8","1016.038","14.73","69.02","0.342","0.0"],
    [1405291,"2026-03-28 18:30:00","42871","3.6180000000000003","229.2","5.455","224","1016.1030000000001","14.61","70.08","-1.054","0.0"],
    [1405292,"2026-03-28 18:40:00","42872","3.909","225.1","5.684","221.4","1016.16","14.62","70.6","-1.225","0.0"],
    [1405293,"2026-03-28 18:50:00","42873","3.04","230.0","5.031","219.5","1016.242","14.62","71.93","-1.227","0.0"],
    [1405294,"2026-03-28 19:00:00","42874","3.16","226.8","5.619","218.4","1016.307","14.66","71.72","-1.227","0.0"],
    [1405295,"2026-03-28 19:10:00","42875","4.295","224.0","7.219","224.5","1016.38","14.61","71.46","-1.222","0.0"],
    [1405296,"2026-03-28 19:20:00","42876","4.211","222.1","7.023","231.5","1016.336","14.41","71.46","-1.209","0.0"],
    [1405297,"2026-03-28 19:30:00","42877","4.1419999999999995","220.1","5.945","228.9","1016.33","14.41","70.23","-1.227","0.0"],
    [1405298,"2026-03-28 19:40:00","42878","3.866","224.8","6.631","218.3","1016.3660000000001","14.4","70.49","-1.227","0.0"],
    [1405299,"2026-03-28 19:50:00","42879","3.427","220.3","6.239","215.4","1016.471","14.42","70.33","-1.227","0.0"],
    [1405300,"2026-03-28 20:00:00","42880","3.26","220.3","5.619","218.3","1016.418","14.38","71.31","-1.227","0.0"],
    [1405301,"2026-03-28 20:10:00","42881","3.9989999999999997","221.5","6.631","235.6","1016.37","14.35","71.82","-1.227","0.0"],
    [1405302,"2026-03-28 20:20:00","42882","2.696","218.3","5.259","197.5","1016.372","14.37","72.91","-1.227","0.0"],
    [1405303,"2026-03-28 20:30:00","42883","1.66","234.1","4.345","216.9","1016.414","14.31","73.86","-1.24","0.0"],
    [1405304,"2026-03-28 20:40:00","42884","1.2309999999999999","231.7","2.711","221.9","1016.273","14.25","74.84","-1.234","0.0"],
    [1405305,"2026-03-28 20:50:00","42885","0.18600000000000003","260.9","0.849","252.2","1016.367","14.16","75.83","-1.274","0.0"],
    [1405306,"2026-03-28 21:00:00","42886","0.32799999999999996","106.5","1.176","100.4","1016.3860000000001","14.09","76.85","-1.527","0.0"],
    [1405307,"2026-03-28 21:10:00","42887","1.173","81.9","2.221","105.6","1016.3530000000001","14.18","77.34","-1.2919999999999998","0.0"],
    [1405308,"2026-03-28 21:20:00","42888","1.742","86.6","3.463","82.9","1016.355","14.19","78.03","-1.375","0.0"],
    [1405309,"2026-03-28 21:30:00","42889","1.798","80.7","4.051","63.99","1016.297","14.2","78.77","-1.247","0.0"],
    [1405310,"2026-03-28 21:40:00","42890","2.0140000000000002","88.0","2.809","93.6","1016.238","14.26","80.6","-1.288","0.0"],
    [1405311,"2026-03-28 21:50:00","42891","1.587","99.5","2.711","92.4","1016.262","14.22","80.7","-1.263","0.0"],
    [1405312,"2026-03-28 22:00:00","42892","1.881","104.4","3.561","99.9","1016.245","14.11","80.9","-1.526","0.0"],
    [1405313,"2026-03-28 22:10:00","42893","1.475","97.7","2.581","101.7","1016.2339999999999","14.08","81.2","-1.901","0.0"],
    [1405314,"2026-03-28 22:20:00","42894","1.9140000000000001","64.07","3.071","97.1","1016.306","13.97","81.9","-2.0","0.0"],
    [1405315,"2026-03-28 22:30:00","42895","2.4819999999999998","56.77","3.724","64.28","1016.326","13.8","83.0","-2.484","0.0"],
    [1405316,"2026-03-28 22:40:00","42896","2.659","54.13","3.724","54.98","1016.457","13.72","83.9","-2.615","0.0"],
    [1405317,"2026-03-28 22:50:00","42897","3.0189999999999997","61.83","4.671","62.39","1016.648","13.66","84.1","-2.015","0.0"],
    [1405318,"2026-03-28 23:00:00","42898","4.939","62.35","7.448","68.37","1016.653","13.78","83.5","-1.746","0.0"],
    [1405319,"2026-03-28 23:10:00","42899","5.468","68.07","7.285","77.33","1016.6010000000001","13.79","83.6","-1.249","0.0"],
    [1405320,"2026-03-28 23:20:00","42900","4.993","74.4","7.252","71.05","1016.6089999999999","13.68","83.2","-1.25","0.0"],
    [1405321,"2026-03-28 23:30:00","42901","4.482","86.1","7.383","96.3","1016.555","13.71","83.1","-1.247","0.0"],
    [1405322,"2026-03-28 23:40:00","42902","4.061","72.54","6.925","80.5","1016.711","13.56","81.7","-1.246","0.0"],
    [1405323,"2026-03-28 23:50:00","42903","3.79","84.7","5.455","85","1016.677","13.45","75.48","-1.249","0.0"],
    [1405324,"2026-03-29 00:00:00","42904","3.073","88.8","5.651","85.6","1016.627","13.48","75.07","-1.5730000000000002","0.0"],
    [1405325,"2026-03-29 00:10:00","42905","2.008","99.1","3.724","102.6","1016.42","13.22","73.49","-2.6260000000000003","0.0"],
    [1405326,"2026-03-29 00:20:00","42906","2.492","97.5","4.508","96.6","1016.153","13.23","72.91","-2.748","0.0"],
    [1405327,"2026-03-29 00:30:00","42907","2.1719999999999997","73.09","3.528","84.1","1016.2310000000001","13.13","75.31","-2.753","0.0"],
    [1405328,"2026-03-29 00:40:00","42908","3.096","76.03","5.553","80.9","1016.3510000000001","12.93","79.41","-2.273","0.0"],
    [1405329,"2026-03-29 00:50:00","42909","2.945","87.7","4.671","92.2","1016.4939999999999","12.73","78.07","-1.875","0.0"],
    [1405330,"2026-03-29 01:00:00","42910","3.1060000000000003","100.5","5.488","80.4","1016.47","12.6","76.82","-1.109","0.0"],
    [1405331,"2026-03-29 01:10:00","42911","5.252000000000001","91.2","8.43","78.56","1016.466","12.11","75.71","-0.564","0.0"],
    [1405332,"2026-03-29 01:20:00","42912","4.87","78.68","6.566","68.75","1016.403","11.96","74.52","-1.252","0.0"],
    [1405333,"2026-03-29 01:30:00","42913","4.211","74.47","6.533","63.8","1016.346","11.86","70.97","-1.258","0.0"],
    [1405334,"2026-03-29 01:40:00","42914","3.358","89.2","6.174","87.5","1016.305","11.74","66.06","-2.114","0.0"],
    [1405335,"2026-03-29 01:50:00","42915","1.9909999999999999","78.78","3.789","80.2","1016.378","11.75","63.7","-1.33","0.0"],
    [1405336,"2026-03-29 02:00:00","42916","2.1590000000000003","96.2","3.169","106.1","1016.2560000000001","11.77","60.8","-2.315","0.0"],
    [1405337,"2026-03-29 02:10:00","42917","1.8880000000000001","89.7","3.299","87.7","1016.1510000000001","11.72","59.87","-2.397","0.0"],
    [1405338,"2026-03-29 02:20:00","42918","1.7480000000000002","98.0","2.777","80.7","1016.122","11.73","58.95","-2.2159999999999997","0.0"],
    [1405339,"2026-03-29 02:30:00","42919","0.6759999999999999","154.7","1.862","341.5","1015.995","11.7","59.0","-2.123","0.0"],
    [1405340,"2026-03-29 02:40:00","42920","0.525","350.2","1.993","337.2","1016.071","11.18","62.88","-2.428","0.0"],
    [1405341,"2026-03-29 02:50:00","42921","1.093","263.1","1.666","274.5","1016.0989999999999","11.19","62.21","-2.021","0.0"],
    [1405342,"2026-03-29 03:00:00","42922","1.36","263.8","2.548","270.3","1016.172","10.77","65.93","-1.599","0.0"],
    [1405343,"2026-03-29 03:10:00","42923","1.131","268.7","2.025","264.1","1016.169","10.97","66.11","-1.594","0.0"],
    [1405344,"2026-03-29 03:20:00","42924","1.496","274.5","2.875","287.6","1016.2360000000001","10.75","68.48","-1.715","0.0"],
    [1405345,"2026-03-29 03:30:00","42925","1.8130000000000002","270.9","2.907","285.5","1016.3889999999999","10.95","67.68","-1.7109999999999999","0.0"],
    [1405346,"2026-03-29 03:40:00","42926","1.5190000000000001","267.4","2.548","296.7","1016.39","10.91","68.23","-1.78","0.0"],
    [1405347,"2026-03-29 03:50:00","42927","1.464","272.8","2.679","284.9","1016.27","10.85","68.07","-2.146","0.0"],
    [1405348,"2026-03-29 04:00:00","42928","2.02","315.5","3.43","318.8","1016.168","10.83","58.76","-2.772","0.0"],
    [1405349,"2026-03-29 04:10:00","42929","3.06","323.6","5.978","334.1","1016.074","11.18","36.55","-3.3","0.0"],
    [1405350,"2026-03-29 04:20:00","42930","3.237","319.8","4.769","345.3","1016.071","11.22","30.19","-3.1630000000000003","0.0"],
    [1405351,"2026-03-29 04:30:00","42931","2.432","296.6","3.757","288.5","1016.1010000000001","10.58","34.1","-3.307","0.0"],
    [1405352,"2026-03-29 04:40:00","42932","2.5869999999999997","290.8","4.279","301.5","1016.07","10.23","36.65","-3.515","0.0"],
    [1405353,"2026-03-29 04:50:00","42933","3.9160000000000004","305.3","6.664","290.9","1015.98","9.98","36.37","-3.32","0.0"],
    [1405354,"2026-03-29 05:00:00","42934","5.88","310.8","10.32","315.8","1015.947","10.04","35.11","-3.0639999999999996","0.0"],
    [1405355,"2026-03-29 05:10:00","42935","5.662000000000001","315.7","10.36","312.2","1016.0260000000001","10.0","35.56","-2.761","0.0"],
    [1405356,"2026-03-29 05:20:00","42936","4.552","313.7","7.317","315.7","1016.034","9.71","36.81","-2.762","0.0"],
    [1405357,"2026-03-29 05:30:00","42937","5.484","308.6","8.26","315.1","1016.051","9.6","37.69","-2.314","0.0"],
    [1405358,"2026-03-29 05:40:00","42938","4.787","311.0","7.513","322.3","1016.1110000000001","9.43","38.97","-0.262","0.0"],
    [1405359,"2026-03-29 05:50:00","42939","4.1739999999999995","315.2","5.945","292.9","1016.175","9.28","39.8","5.182","0.0"],
    [1405360,"2026-03-29 06:00:00","42940","3.548","321.6","6.011","299.1","1016.268","9.12","40.64","21.58","0.0"],
    [1405361,"2026-03-29 06:10:00","42941","4.905","315.2","6.729","312.3","1016.368","9.13","40.8","43.3","0.0"],
    [1405362,"2026-03-29 06:20:00","42942","4.3069999999999995","311.8","6.468","319.3","1016.428","9.13","40.91","68.2","0.0"],
    [1405363,"2026-03-29 06:30:00","42943","3.471","304.5","5.292","314.3","1016.597","9.28","40.24","92.0","0.0"],
    [1405364,"2026-03-29 06:40:00","42944","3.622","312.6","5.423","309.5","1016.666","9.51","39.07","117.9","0.0"],
    [1405365,"2026-03-29 06:50:00","42945","3.1430000000000002","304.9","4.475","303.7","1016.696","9.79","38.4","148.1","0.0"],
    [1405366,"2026-03-29 07:00:00","42946","2.023","322.1","3.463","332.8","1016.7669999999999","10.15","37.12","183.0","0.0"],
    [1405367,"2026-03-29 07:10:00","42947","3.022","311.1","4.41","315.1","1016.7760000000001","10.45","36.02","220.2","0.0"],
    [1405368,"2026-03-29 07:20:00","42948","1.8530000000000002","319.0","3.299","295.7","1016.875","10.8","35.53","255.8","0.0"],
    [1405369,"2026-03-29 07:30:00","42949","2.555","285.2","3.92","285.5","1016.952","11.08","33.78","293.6","0.0"],
    [1405370,"2026-03-29 07:40:00","42950","2.1519999999999997","266.0","4.051","283.8","1017.055","11.23","32.8","314.8","0.0"],
    [1405371,"2026-03-29 07:50:00","42951","1.694","280.3","3.071","323.6","1017.158","11.68","30.1","355.7","0.0"],
    [1405372,"2026-03-29 08:00:00","42952","3.04","336.1","6.762","337.3","1017.2389999999999","12.14","27.41","400.1","0.0"],
    [1405373,"2026-03-29 08:10:00","42953","3.227","348.3","5.749","324.7","1017.28","12.8","23.8","442.1","0.0"],
    [1405374,"2026-03-29 08:20:00","42954","4.633","347.8","8.82","329.8","1017.373","12.93","23.04","477.0","0.0"],
    [1405375,"2026-03-29 08:30:00","42955","4.245","333.5","10.06","323.3","1017.452","13.14","22.37","510.2","0.0"],
    [1405376,"2026-03-29 08:40:00","42956","4.5889999999999995","324.0","7.905","326.9","1017.507","13.32","23.82","541.3","0.0"],
    [1405377,"2026-03-29 08:50:00","42957","4.207","326.6","8.17","331.3","1017.539","13.7","22.96","573.1","0.0"],
    [1405378,"2026-03-29 09:00:00","42958","4.747","346.1","9.24","339.1","1017.6310000000001","13.96","17.93","602.9","0.0"],
    [1405379,"2026-03-29 09:10:00","42959","5.356","345.6","9.24","340.1","1017.7310000000001","14.07","16.38","632.8","0.0"],
    [1405380,"2026-03-29 09:20:00","42960","3.65","355.8","7.187","326.4","1017.77","14.23","17.03","658.1","0.0"],
    [1405381,"2026-03-29 09:30:00","42961","5.024","327.9","8.66","325.9","1017.6410000000001","14.23","16.61","677.8","0.0"],
    [1405382,"2026-03-29 09:40:00","42962","5.51","338.7","8.43","341.2","1017.569","14.45","16.41","698.6","0.0"],
    [1405383,"2026-03-29 09:50:00","42963","3.9189999999999996","17.9","6.762","326.2","1017.4830000000001","14.51","17.43","722.7","0.0"],
    [1405384,"2026-03-29 10:00:00","42964","4.785","335.8","8.04","323.8","1017.4789999999999","14.42","16.05","744.7","0.0"],
    [1405385,"2026-03-29 10:10:00","42965","4.803999999999999","333.3","8.1","330","1017.4019999999999","14.78","15.94","765.1","0.0"],
    [1405386,"2026-03-29 10:20:00","42966","3.8280000000000003","325.3","6.468","333.8","1017.3889999999999","15.02","15.75","782.8","0.0"],
    [1405387,"2026-03-29 10:30:00","42967","3.673","339.9","6.337","347.5","1017.403","15.24","15.67","799.0","0.0"],
    [1405388,"2026-03-29 10:40:00","42968","3.323","339.1","6.141","355.4","1017.405","15.52","15.35","813.0","0.0"],
    [1405389,"2026-03-29 10:50:00","42969","3.1060000000000003","22.64","6.239","21.8","1017.443","15.63","15.98","827.0","0.0"],
    [1405390,"2026-03-29 11:00:00","42970","2.9989999999999997","345.4","5.945","331.3","1017.4789999999999","16.02","15.52","837.0","0.0"],
    [1405391,"2026-03-29 11:10:00","42971","3.951","33.13","6.893","40.88","1017.597","16.06","15.46","848.0","0.0"],
    [1405392,"2026-03-29 11:20:00","42972","3.861","21.23","6.991","64.83","1017.694","16.21","14.99","862.0","0.0"],
    [1405393,"2026-03-29 11:30:00","42973","2.923","91.5","6.076","49.14","1017.755","15.8","19.72","882.0","0.0"],
    [1405394,"2026-03-29 11:40:00","42974","3.108","101.0","5.455","108.3","1017.945","15.65","22.31","902.0","0.0"],
    [1405395,"2026-03-29 11:50:00","42975","2.927","93.0","4.737","86.9","1018.067","15.57","21.34","632.8","0.0"],
    [1405396,"2026-03-29 12:00:00","42976","2.68","107.0","4.933","84.7","1018.176","15.17","21.15","405.9","0.0"],
    [1405397,"2026-03-29 12:10:00","42977","3.1430000000000002","112.3","7.383","118.3","1018.2810000000001","14.92","22.74","389.9","0.0"],
    [1405398,"2026-03-29 12:20:00","42978","2.7739999999999996","110.0","5.717","150.6","1018.4019999999999","14.67","25.26","378.2","0.0"],
    [1405399,"2026-03-29 12:30:00","42979","3.5439999999999996","104.6","6.86","112.6","1018.49","14.53","23.87","368.8","0.0"],
    [1405400,"2026-03-29 12:40:00","42980","2.9210000000000003","102.4","5.945","81.3","1018.6439999999999","14.53","24.58","466.8","0.0"],
    [1405401,"2026-03-29 12:50:00","42981","2.58","106.9","5.194","137.9","1018.586","14.99","23.63","649.7","0.0"],
    [1405402,"2026-03-29 13:00:00","42982","2.8289999999999997","105.8","5.096","119.4","1018.752","15.23","24.81","770.9","0.0"],
    [1405403,"2026-03-29 13:10:00","42983","2.431","114.3","4.9","115.4","1018.8389999999999","15.38","26.25","699.9","0.0"],
    [1405404,"2026-03-29 13:20:00","42984","2.6919999999999997","107.1","4.867","138.8","1019.008","15.14","26.89","596.8","0.0"],
    [1405405,"2026-03-29 13:30:00","42985","2.679","95.7","3.985","102","1019.143","15.15","27.15","606.1","0.0"],
    [1405406,"2026-03-29 13:40:00","42986","2.248","91.2","3.887","91.8","1019.0880000000001","15.18","24.94","500.7","0.0"],
    [1405407,"2026-03-29 13:50:00","42987","1.4380000000000002","82.4","3.071","80.8","1019.096","15.37","22.79","502.0","0.0"],
    [1405408,"2026-03-29 14:00:00","42988","2.117","23.12","3.92","25.36","1019.0369999999999","15.58","23.1","246.1","0.0"],
    [1405409,"2026-03-29 14:10:00","42989","3.068","311.9","8.23","281.6","1018.949","15.9","22.92","382.2","0.0"],
    [1405410,"2026-03-29 14:20:00","42990","3.6710000000000003","235.5","8.26","264.9","1019.048","15.45","28.9","558.5","0.0"],
    [1405411,"2026-03-29 14:30:00","42991","4.295","225.9","6.468","218.4","1018.95","15.68","28.23","637.3","0.0"],
    [1405412,"2026-03-29 14:40:00","42992","4.19","224.5","7.252","223.9","1018.885","15.57","27.63","487.8","0.0"],
    [1405413,"2026-03-29 14:50:00","42993","3.6260000000000003","223.4","6.239","217.2","1018.919","15.72","28.02","408.1","0.0"],
    [1405414,"2026-03-29 15:00:00","42994","3.409","219.7","6.403","206.8","1018.8839999999999","15.79","27.86","382.8","0.0"],
    [1405415,"2026-03-29 15:10:00","42995","2.156","258.5","4.345","225","1019.117","15.79","28.14","302.5","0.0"],
    [1405416,"2026-03-29 15:20:00","42996","2.27","194.2","6.272","194.8","1019.199","15.46","29.82","291.3","0.0"],
    [1405417,"2026-03-29 15:30:00","42997","2.15","159.3","4.475","179.8","1019.128","15.37","31.86","348.2","0.0"],
    [1405418,"2026-03-29 15:40:00","42998","2.4419999999999997","167.7","5.357","190.5","1019.154","15.63","29.53","343.8","0.0"],
    [1405419,"2026-03-29 15:50:00","42999","3.181","168.5","6.337","168.5","1019.278","14.81","34.84","278.8","0.0"],
    [1405420,"2026-03-29 16:00:00","43000","3.6010000000000004","169.4","5.815","169","1019.3710000000001","14.55","36.24","313.7","0.0"],
    [1405421,"2026-03-29 16:10:00","43001","3.428","184.1","6.501","178.3","1019.425","14.94","35.76","330.4","0.0"],
    [1405422,"2026-03-29 16:20:00","43002","3.818","183.7","6.697","181.8","1019.441","15.01","34.38","326.6","0.0"],
    [1405423,"2026-03-29 16:30:00","43003","3.023","194.2","5.129","181.1","1019.383","15.38","33.19","282.3","0.0"],
    [1405424,"2026-03-29 16:40:00","43004","2.73","185.8","4.377","190.6","1019.503","15.73","33.06","254.5","0.0"],
    [1405425,"2026-03-29 16:50:00","43005","3.978","180.5","6.435","185.1","1019.717","15.04","36.73","231.1","0.0"],
    [1405426,"2026-03-29 17:00:00","43006","4.091","173.3","6.86","175.9","1019.847","14.44","38.69","192.3","0.0"],
    [1405427,"2026-03-29 17:10:00","43007","2.597","184.2","4.769","182.4","1020.0830000000001","14.53","39.12","165.2","0.0"],
    [1405428,"2026-03-29 17:20:00","43008","3.0439999999999996","178.9","4.867","194.5","1020.329","14.5","39.47","132.8","0.0"],
    [1405429,"2026-03-29 17:30:00","43009","2.775","185.5","4.9","188.1","1020.432","14.27","39.58","103.3","0.0"],
    [1405430,"2026-03-29 17:40:00","43010","3.603","186.1","5.749","188.9","1020.508","14.02","41.75","60.21","0.0"],
    [1405431,"2026-03-29 17:50:00","43011","3.299","187.8","5.553","182","1020.617","13.79","42.58","22.83","0.0"],
    [1405432,"2026-03-29 18:00:00","43012","2.419","183.2","4.279","169.9","1020.7310000000001","13.77","40.15","13.96","0.0"],
    [1405433,"2026-03-29 18:10:00","43013","2.338","189.9","4.704","190.3","1020.793","13.59","42.36","6.462000000000001","0.0"],
    [1405434,"2026-03-29 18:20:00","43014","2.532","185.9","4.181","179","1020.87","13.51","43.56","1.09","0.0"],
    [1405435,"2026-03-29 18:30:00","43015","1.565","202.3","3.136","166.6","1020.965","13.33","45.73","-2.191","0.0"],
    [1405436,"2026-03-29 18:40:00","43016","2.029","186.1","3.299","183","1021.172","13.22","47.62","-3.498","0.0"],
    [1405437,"2026-03-29 18:50:00","43017","1.7719999999999998","191.6","2.711","182.5","1021.375","13.16","47.28","-3.617","0.0"],
    [1405438,"2026-03-29 19:00:00","43018","1.3780000000000001","205.1","2.907","216.5","1021.68","13.05","48.1","-3.622","0.0"],
    [1405439,"2026-03-29 19:10:00","43019","0.879","197.0","NAN","216.5","1021.89","12.81","50.01","-3.883","0.0"],
    [1405440,"2026-03-29 19:20:00","43020","1.055","183.4","NAN","216.5","1022.047","12.76","50.83","-4.061","0.0"],
    [1405441,"2026-03-29 19:30:00","43021","0.8759999999999999","181.4","NAN","216.5","1022.17","12.79","50.88","-3.677","0.0"],
    [1405442,"2026-03-29 19:40:00","43022","0.741","176.3","1.764","189.8","1022.145","12.68","52.03","-3.826","0.0"],
    [1405443,"2026-03-29 19:50:00","43023","1.056","184.5","2.189","168.5","1022.174","12.61","51.45","-4.098","0.0"],
    [1405444,"2026-03-29 20:00:00","43024","0.958","232.1","2.189","266.4","1022.2710000000001","12.55","53.31","-3.6889999999999996","0.0"],
    [1405445,"2026-03-29 20:10:00","43025","1.413","240.6","2.385","232.6","1022.459","11.97","55.49","-3.591","0.0"],
    [1405446,"2026-03-29 20:20:00","43026","1.7169999999999999","223.3","3.92","221.9","1022.6189999999999","12.73","52.47","-3.819","0.0"],
    [1405447,"2026-03-29 20:30:00","43027","1.4669999999999999","205.9","4.018","281.9","1022.795","12.8","51.32","-3.5660000000000003","0.0"],
    [1405448,"2026-03-29 20:40:00","43028","1.4469999999999998","263.9","2.679","289.8","1022.993","12.17","54.0","-3.335","0.0"],
    [1405449,"2026-03-29 20:50:00","43029","1.2429999999999999","232.1","2.221","234.9","1023.082","11.87","54.67","-3.5189999999999997","0.0"],
    [1405450,"2026-03-29 21:00:00","43030","0.8109999999999999","250.5","1.731","272.5","1023.1","11.97","47.75","-3.509","0.0"],
    [1405451,"2026-03-29 21:10:00","43031","0.309","252.8","1.143","238.4","1023.221","11.77","40.45","-3.55","0.0"],
    [1405452,"2026-03-29 21:20:00","43032","0.166","274.4","0.947","294.4","1023.215","11.09","43.56","-3.885","0.0"],
    [1405453,"2026-03-29 21:30:00","43033","1.111","292.1","1.829","283.4","1023.288","10.68","42.53","-3.612","0.0"],
    [1405454,"2026-03-29 21:40:00","43034","0.882","289.7","1.633","285.4","1023.318","10.31","42.1","-3.685","0.0"],
    [1405455,"2026-03-29 21:50:00","43035","0.012","281.5","0.49","281.5","1023.258","9.97","42.5","-3.5069999999999997","0.0"],
    [1405456,"2026-03-29 22:00:00","43036","0.233","236.9","0.882","206.1","1023.2869999999999","10.39","40.82","-3.2739999999999996","0.0"],
    [1405457,"2026-03-29 22:10:00","43037","0.217","11.39","1.372","16.04","1023.34","10.07","43.39","-3.404","0.0"],
    [1405458,"2026-03-29 22:20:00","43038","0.655","5.9110000000000005","2.973","274.9","1023.4060000000001","9.86","46.15","-3.293","0.0"],
    [1405459,"2026-03-29 22:30:00","43039","1.82","280.0","2.842","275.9","1023.62","9.27","46.75","-3.219","0.0"],
    [1405460,"2026-03-29 22:40:00","43040","1.325","270.0","2.221","273","1023.69","9.39","40.95","-3.5389999999999997","0.0"],
    [1405461,"2026-03-29 22:50:00","43041","1.1909999999999998","286.7","2.123","287.6","1023.732","9.46","39.6","-3.2710000000000004","0.0"],
    [1405462,"2026-03-29 23:00:00","43042","0.867","295.3","1.666","298.8","1023.7410000000001","9.28","38.5","-3.495","0.0"],
    [1405463,"2026-03-29 23:10:00","43043","0.992","288.8","1.993","322.6","1023.785","8.98","39.65","-3.838","0.0"],
    [1405464,"2026-03-29 23:20:00","43044","1.083","282.6","1.797","279.4","1023.811","9.14","38.03","-3.4930000000000003","0.0"],
    [1405465,"2026-03-29 23:30:00","43045","1.271","292.9","2.319","295.8","1023.765","8.71","38.81","-3.7230000000000003","0.0"],
    [1405466,"2026-03-29 23:40:00","43046","2.115","301.6","2.973","306","1023.975","8.58","39.86","-3.6189999999999998","0.0"],
    [1405467,"2026-03-29 23:50:00","43047","2.08","297.8","3.43","302","1024.0539999999999","8.99","37.03","-3.665","0.0"],
    [1405468,"2026-03-30 00:00:00","43048","1.734","291.0","3.201","298.8","1024.046","9.42","34.85","-3.75","0.0"],
    [1405469,"2026-03-30 00:10:00","43049","1.45","284.2","2.94","299","1023.985","9.36","34.9","-3.647","0.0"],
    [1405470,"2026-03-30 00:20:00","43050","1.681","301.5","3.234","325.1","1023.934","8.99","36.1","-3.693","0.0"],
    [1405471,"2026-03-30 00:30:00","43051","2.187","316.4","3.397","323.2","1023.855","9.08","35.3","-3.659","0.0"],
    [1405472,"2026-03-30 00:40:00","43052","1.825","322.8","2.875","327.3","1023.932","9.36","33.8","-3.6889999999999996","0.0"],
    [1405473,"2026-03-30 00:50:00","43053","1.923","324.2","3.136","329","1023.998","9.42","33.48","-3.697","0.0"],
    [1405474,"2026-03-30 01:00:00","43054","1.909","323.3","3.103","324.1","1023.915","9.35","33.41","-3.667","0.0"],
    [1405475,"2026-03-30 01:10:00","43055","1.936","328.5","3.593","324.3","1023.9","9.39","33.01","-3.628","0.0"],
    [1405476,"2026-03-30 01:20:00","43056","2.6060000000000003","316.9","3.92","314.5","1023.919","9.39","33.12","-3.721","0.0"],
    [1405477,"2026-03-30 01:30:00","43057","1.601","316.8","3.038","318","1023.8330000000001","9.36","32.95","-3.4930000000000003","0.0"],
    [1405478,"2026-03-30 01:40:00","43058","1.6469999999999998","327.8","3.038","321.5","1023.875","9.0","33.57","-3.9989999999999997","0.0"],
    [1405479,"2026-03-30 01:50:00","43059","2.316","306.8","3.234","296","1023.765","9.23","32.86","-3.659","0.0"],
    [1405480,"2026-03-30 02:00:00","43060","1.824","298.2","3.593","313","1023.7130000000001","8.78","34.25","-3.563","0.0"],
    [1405481,"2026-03-30 02:10:00","43061","1.528","289.9","2.711","299.9","1023.7360000000001","8.41","35.07","-4.07","0.0"],
    [1405482,"2026-03-30 02:20:00","43062","1.421","272.7","2.973","293.4","1023.7710000000001","8.59","34.26","-3.687","0.0"],
    [1405483,"2026-03-30 02:30:00","43063","0.894","281.6","1.895","276.5","1023.8330000000001","8.46","35.6","-3.68","0.0"],
    [1405484,"2026-03-30 02:40:00","43064","0.997","262.3","1.633","282","1023.873","8.16","36.82","-3.7110000000000003","0.0"],
    [1405485,"2026-03-30 02:50:00","43065","1.4409999999999998","308.6","3.103","317","1023.717","7.572","40.32","-3.6860000000000004","0.0"],
    [1405486,"2026-03-30 03:00:00","43066","1.9340000000000002","325.1","3.169","318.8","1023.702","7.611000000000001","39.36","-3.8139999999999996","0.0"],
    [1405487,"2026-03-30 03:10:00","43067","2.679","326.7","3.724","316.1","1023.7560000000001","8.1","37.41","-3.576","0.0"],
    [1405488,"2026-03-30 03:20:00","43068","2.739","327.3","4.802","329.9","1023.711","8.45","34.75","-3.668","0.0"],
    [1405489,"2026-03-30 03:30:00","43069","2.19","329.2","3.724","333.6","1023.645","8.67","33.29","-3.483","0.0"],
    [1405490,"2026-03-30 03:40:00","43070","2.428","330.1","3.887","336.4","1023.587","8.54","33.42","-3.721","0.0"],
    [1405491,"2026-03-30 03:50:00","43071","2.411","317.6","4.116","320.2","1023.377","8.68","33.03","-3.5669999999999997","0.0"],
    [1405492,"2026-03-30 04:00:00","43072","2.838","314.9","4.41","307.3","1023.5169999999999","8.51","33.7","-3.6239999999999997","0.0"],
    [1405493,"2026-03-30 04:10:00","43073","2.787","321.6","4.541","315.3","1023.691","8.46","33.88","-3.509","0.0"],
    [1405494,"2026-03-30 04:20:00","43074","3.295","321.1","5.39","326.1","1023.78","8.67","33.01","-3.576","0.0"],
    [1405495,"2026-03-30 04:30:00","43075","3.162","328.9","4.508","320.9","1023.855","8.75","32.56","-3.5039999999999996","0.0"],
    [1405496,"2026-03-30 04:40:00","43076","2.823","325.8","4.443","328.1","1023.837","8.76","32.47","-3.536","0.0"],
    [1405497,"2026-03-30 04:50:00","43077","2.682","323.1","3.855","330.3","1023.826","8.61","33.11","-3.4930000000000003","0.0"],
    [1405498,"2026-03-30 05:00:00","43078","2.9560000000000004","325.4","4.214","334.6","1023.828","8.51","33.59","-3.495","0.0"],
    [1405499,"2026-03-30 05:10:00","43079","3.5980000000000003","333.0","5.161","334.2","1023.9730000000001","8.56","33.47","-3.4810000000000003","0.0"],
    [1405500,"2026-03-30 05:20:00","43080","3.574","331.1","5.259","334.6","1024.157","8.48","33.9","-3.0660000000000003","0.0"],
    [1405501,"2026-03-30 05:30:00","43081","3.617","331.4","5.129","334.7","1024.263","8.56","33.64","-2.4330000000000003","0.0"],
    [1405502,"2026-03-30 05:40:00","43082","2.87","318.8","5.063","310.1","1024.303","8.5","34.2","-0.091","0.0"],
    [1405503,"2026-03-30 05:50:00","43083","2.6839999999999997","307.9","4.443","323.1","1024.2839999999999","8.24","35.62","6.157","0.0"],
    [1405504,"2026-03-30 06:00:00","43084","2.7310000000000003","310.1","5.031","316.7","1024.401","8.39","35.51","24.46","0.0"],
    [1405505,"2026-03-30 06:10:00","43085","3.017","301.7","4.965","318.9","1024.329","8.51","35.42","49.38","0.0"],
    [1405506,"2026-03-30 06:20:00","43086","3.463","314.2","5.063","319.7","1024.407","8.68","35.42","70.98","0.0"],
    [1405507,"2026-03-30 06:30:00","43087","2.949","303.4","4.867","322.7","1024.379","8.85","35.74","97.4","0.0"],
    [1405508,"2026-03-30 06:40:00","43088","2.153","272.1","3.985","279.1","1024.423","8.64","37.74","123.8","0.0"],
    [1405509,"2026-03-30 06:50:00","43089","2.194","277.4","3.757","280.7","1024.258","8.53","39.88","154.1","0.0"],
    [1405510,"2026-03-30 07:00:00","43090","1.995","273.3","3.691","276","1024.011","8.77","39.85","188.2","0.0"],
    [1405511,"2026-03-30 07:10:00","43091","2.833","286.7","5.227","291.5","1023.977","9.03","39.7","224.5","0.0"],
    [1405512,"2026-03-30 07:20:00","43092","3.4010000000000002","295.2","5.488","318.7","1023.9830000000001","9.51","38.89","261.0","0.0"],
    [1405513,"2026-03-30 07:30:00","43093","3.497","303.2","5.259","308","1024.106","10.07","37.52","297.7","0.0"],
    [1405514,"2026-03-30 07:40:00","43094","4.155","303.6","6.207","309.5","1024.129","10.62","35.33","318.4","0.0"],
    [1405515,"2026-03-30 07:50:00","43095","4.476","302.2","6.729","297.7","1024.232","11.08","33.6","366.7","0.0"],
    [1405516,"2026-03-30 08:00:00","43096","4.878","311.2","7.546","312.2","1024.319","11.54","32.9","394.8","0.0"],
    [1405517,"2026-03-30 08:10:00","43097","4.684","304.7","6.762","312.5","1024.2089999999998","11.7","33.18","441.5","0.0"],
    [1405518,"2026-03-30 08:20:00","43098","5.4910000000000005","298.0","8.26","296.7","1024.138","11.91","33.0","474.8","0.0"],
    [1405519,"2026-03-30 08:30:00","43099","5.274","300.6","7.219","291.4","1023.933","11.96","33.28","507.8","0.0"],
    [1405520,"2026-03-30 08:40:00","43100","4.462","300.0","6.272","298.5","1023.691","12.3","33.24","538.8","0.0"],
    [1405521,"2026-03-30 08:50:00","43101","3.945","294.4","5.292","300.2","1023.675","12.61","32.97","565.3","0.0"],
    [1405522,"2026-03-30 09:00:00","43102","3.762","308.2","5.88","311.8","1023.783","13.18","32.43","586.1","0.0"],
    [1405523,"2026-03-30 09:10:00","43103","3.557","301.8","5.521","313.3","1023.883","13.6","31.5","616.9","0.0"],
    [1405524,"2026-03-30 09:20:00","43104","3.485","305.9","5.423","289.9","1023.9019999999999","14.02","30.84","637.0","0.0"],
    [1405525,"2026-03-30 09:30:00","43105","2.807","301.1","5.031","309.7","1024.038","14.6","30.81","619.0","0.0"],
    [1405526,"2026-03-30 09:40:00","43106","2.952","298.0","4.377","288.8","1024.128","14.96","29.96","618.0","0.0"],
    [1405527,"2026-03-30 09:50:00","43107","2.2359999999999998","273.6","6.566","286.7","1024.139","15.23","29.75","626.3","0.0"],
    [1405528,"2026-03-30 10:00:00","43108","1.9240000000000002","232.8","4.508","294.5","1024.0","15.96","30.19","671.6","0.0"],
    [1405529,"2026-03-30 10:10:00","43109","2.505","243.3","4.214","291.8","1023.975","16.3","29.09","765.4","0.0"],
    [1405530,"2026-03-30 10:20:00","43110","2.6510000000000002","224.2","4.443","219.3","1023.8","15.57","32.33","613.8","0.0"],
    [1405531,"2026-03-30 10:30:00","43111","2.701","190.9","4.965","187.2","1023.6","15.38","36.1","607.7","0.0"],
    [1405532,"2026-03-30 10:40:00","43112","3.2710000000000004","203.9","5.129","219","1023.385","15.0","41.84","596.5","0.0"],
    [1405533,"2026-03-30 10:50:00","43113","3.155","190.2","5.619","183","1023.2589999999999","14.57","44.37","564.8","0.0"],
    [1405534,"2026-03-30 11:00:00","43114","3.455","191.2","5.913","174.5","1023.173","14.61","45.01","590.2","0.0"],
    [1405535,"2026-03-30 11:10:00","43115","3.122","206.5","5.651","197.8","1023.12","14.75","45.53","634.1","0.0"],
    [1405536,"2026-03-30 11:20:00","43116","3.449","209.0","5.259","219.9","1023.125","15.02","44.55","775.1","0.0"],
    [1405537,"2026-03-30 11:30:00","43117","3.228","194.2","5.423","168","1022.953","15.38","44.89","820.0","0.0"],
    [1405538,"2026-03-30 11:40:00","43118","2.508","204.9","5.063","207.4","1022.8810000000001","15.91","40.52","767.3","0.0"],
    [1405539,"2026-03-30 11:50:00","43119","3.21","203.0","5.39","197.1","1022.6239999999999","16.38","35.81","824.0","0.0"],
    [1405540,"2026-03-30 12:00:00","43120","3.253","200.1","5.521","208.4","1022.32","16.75","37.68","805.0","0.0"],
    [1405541,"2026-03-30 12:10:00","43121","2.9560000000000004","201.5","5.684","221.8","1022.071","16.95","42.4","748.3","0.0"],
    [1405542,"2026-03-30 12:20:00","43122","3.117","203.5","5.227","211.8","1021.8430000000001","17.26","42.29","741.4","0.0"],
    [1405543,"2026-03-30 12:30:00","43123","3.525","205.1","6.272","234.9","1021.694","17.76","38.0","854.0","0.0"],
    [1405544,"2026-03-30 12:40:00","43124","3.7689999999999997","213.6","6.207","224.2","1021.628","17.97","35.32","854.0","0.0"],
    [1405545,"2026-03-30 12:50:00","43125","2.84","203.8","5.129","226.7","1021.432","18.46","37.21","844.0","0.0"],
    [1405546,"2026-03-30 13:00:00","43126","3.555","192.0","6.043","188.3","1021.209","18.24","37.98","834.0","0.0"],
    [1405547,"2026-03-30 13:10:00","43127","2.9130000000000003","197.1","5.325","207.5","1020.99","18.54","33.91","677.3","0.0"],
    [1405548,"2026-03-30 13:20:00","43128","3.335","191.8","5.847","165","1020.863","18.16","38.34","768.4","0.0"],
    [1405549,"2026-03-30 13:30:00","43129","3.405","191.0","5.259","168.7","1020.554","18.56","39.64","742.0","0.0"],
    [1405550,"2026-03-30 13:40:00","43130","4.7219999999999995","214.9","6.991","198.8","1020.185","19.39","32.16","789.9","0.0"],
    [1405551,"2026-03-30 13:50:00","43131","4.396","210.3","7.448","218","1019.882","19.39","30.9","674.7","0.0"],
    [1405552,"2026-03-30 14:00:00","43132","3.748","204.2","7.513","209.7","1019.799","18.96","42.89","724.0","0.0"],
    [1405553,"2026-03-30 14:10:00","43133","3.597","203.6","6.925","212.7","1019.571","18.51","46.54","587.7","0.0"],
    [1405554,"2026-03-30 14:20:00","43134","3.978","211.8","6.795","214.3","1019.36","18.62","45.97","725.7","0.0"],
    [1405555,"2026-03-30 14:30:00","43135","4.743","214.6","7.481","216.4","1019.335","18.74","44.01","631.4","0.0"],
    [1405556,"2026-03-30 14:40:00","43136","4.458","218.0","7.971","225.2","1019.049","19.02","43.33","664.4","0.0"],
    [1405557,"2026-03-30 14:50:00","43137","4.717","222.0","8.26","218","1018.8889999999999","18.86","42.03","621.9","0.0"],
    [1405558,"2026-03-30 15:00:00","43138","4.796","213.5","7.415","210.9","1018.704","19.07","43.69","591.2","0.0"],
    [1405559,"2026-03-30 15:10:00","43139","4.439","218.6","6.991","206.2","1018.439","19.24","41.67","561.8","0.0"],
    [1405560,"2026-03-30 15:20:00","43140","3.717","210.0","6.403","204.6","1018.1460000000001","19.91","39.57","529.3","0.0"],
    [1405561,"2026-03-30 15:30:00","43141","5.211","214.5","8.75","222.1","1018.007","19.6","40.7","499.5","0.0"],
    [1405562,"2026-03-30 15:40:00","43142","4.516","217.1","7.481","214.3","1017.8989999999999","19.22","44.58","468.0","0.0"],
    [1405563,"2026-03-30 15:50:00","43143","5.567","215.5","8","221.2","1017.753","18.83","45.97","435.2","0.0"],
    [1405564,"2026-03-30 16:00:00","43144","4.224","217.0","7.187","219.2","1017.596","18.67","47.36","400.2","0.0"],
    [1405565,"2026-03-30 16:10:00","43145","3.865","208.3","7.905","202.6","1017.414","18.44","50.48","365.9","0.0"],
    [1405566,"2026-03-30 16:20:00","43146","4.02","210.9","7.742","226.1","1017.3910000000001","18.14","52.39","332.2","0.0"],
    [1405567,"2026-03-30 16:30:00","43147","4.585","210.3","7.513","203.1","1017.3510000000001","17.84","54.47","298.7","0.0"],
    [1405568,"2026-03-30 16:40:00","43148","3.855","214.4","5.978","231.1","1017.2489999999999","17.64","56.81","252.5","0.0"],
    [1405569,"2026-03-30 16:50:00","43149","4.293","217.5","6.729","224.1","1017.164","17.52","57.74","219.8","0.0"],
    [1405570,"2026-03-30 17:00:00","43150","3.989","220.5","6.631","227.3","1017.096","17.5","58.77","193.5","0.0"],
    [1405571,"2026-03-30 17:10:00","43151","3.484","219.6","6.174","228.7","1017.015","17.5","59.32","162.5","0.0"],
    [1405572,"2026-03-30 17:20:00","43152","3.523","218.4","5.194","236.7","1016.95","17.44","59.93","130.8","0.0"],
    [1405573,"2026-03-30 17:30:00","43153","3.287","218.7","5.129","229.7","1016.8639999999999","17.28","59.74","102.0","0.0"],
    [1405574,"2026-03-30 17:40:00","43154","1.4809999999999999","210.5","3.887","222.8","1016.811","17.23","60.41","64.06","0.0"],
    [1405575,"2026-03-30 17:50:00","43155","0.972","177.6","1.829","166.7","1016.7260000000001","16.9","62.86","22.62","0.0"],
    [1405576,"2026-03-30 18:00:00","43156","1.5519999999999998","174.7","2.254","180.4","1016.587","16.74","62.8","14.74","0.0"],
    [1405577,"2026-03-30 18:10:00","43157","0.862","182.3","1.568","159.9","1016.602","16.66","62.6","7.322","0.0"],
    [1405578,"2026-03-30 18:20:00","43158","1.176","185.6","1.731","198.4","1016.6080000000001","16.58","63.62","1.3630000000000002","0.0"],
    [1405579,"2026-03-30 18:30:00","43159","0.888","196.3","2.025","182.5","1016.5169999999999","16.43","64.99","-1.864","0.0"],
    [1405580,"2026-03-30 18:40:00","43160","0.536","242.7","1.209","254.3","1016.4839999999999","16.51","59.58","-3.0269999999999997","0.0"],
    [1405581,"2026-03-30 18:50:00","43161","1.143","284.0","4.051","278.9","1016.404","17.06","52.2","-3.208","0.0"],
    [1405582,"2026-03-30 19:00:00","43162","1.905","275.3","3.822","275.1","1016.315","17.96","42.1","-3.529","0.0"],
    [1405583,"2026-03-30 19:10:00","43163","1.501","254.2","3.626","250.6","1016.3439999999999","18.24","41.34","-3.1710000000000003","0.0"],
    [1405584,"2026-03-30 19:20:00","43164","1.111","190.9","2.058","168.7","1016.49","17.84","45.53","-3.375","0.0"],
    [1405585,"2026-03-30 19:30:00","43165","1.2819999999999998","171.1","2.189","201.8","1016.6030000000001","17.54","47.87","-3.335","0.0"],
    [1405586,"2026-03-30 19:40:00","43166","1.521","179.7","2.548","169.8","1016.7230000000001","17.41","46.24","-3.498","0.0"],
    [1405587,"2026-03-30 19:50:00","43167","0.8170000000000001","179.9","1.993","171.1","1016.7919999999999","17.38","45.31","-3.3939999999999997","0.0"],
    [1405588,"2026-03-30 20:00:00","43168","0.991","203.2","1.927","196.7","1016.814","17.12","46.06","-3.491","0.0"],
    [1405589,"2026-03-30 20:10:00","43169","1.005","230.9","2.777","292.6","1016.957","17.16","46.24","-3.4139999999999997","0.0"],
    [1405590,"2026-03-30 20:20:00","43170","1.325","282.1","3.038","292.7","1016.995","17.3","46.16","-3.303","0.0"],
    [1405591,"2026-03-30 20:30:00","43171","1.7919999999999998","321.8","2.744","345.8","1016.929","16.87","47.75","-3.412","0.0"],
    [1405592,"2026-03-30 20:40:00","43172","2.762","325.1","4.41","325","1016.971","16.65","48.83","-3.405","0.0"],
    [1405593,"2026-03-30 20:50:00","43173","2.928","315.8","5.129","319.4","1016.962","16.95","47.97","-3.2260000000000004","0.0"],
    [1405594,"2026-03-30 21:00:00","43174","3.002","301.0","4.998","302.4","1017.043","16.92","48.06","-3.255","0.0"],
    [1405595,"2026-03-30 21:10:00","43175","2.2769999999999997","314.6","4.639","288.8","1017.125","16.86","48.22","-2.8960000000000004","0.0"],
    [1405596,"2026-03-30 21:20:00","43176","2.379","324.4","5.553","304.8","1017.0880000000001","16.6","48.94","-3.342","0.0"],
    [1405597,"2026-03-30 21:30:00","43177","3.27","332.4","5.325","336.3","1017.1389999999999","16.66","48.57","-3.0389999999999997","0.0"],
    [1405598,"2026-03-30 21:40:00","43178","3.298","338.6","5.423","330.1","1017.283","16.62","48.69","-2.833","0.0"],
    [1405599,"2026-03-30 21:50:00","43179","2.585","27.16","4.377","345.3","1017.4860000000001","16.01","58.35","-2.369","0.0"],
    [1405600,"2026-03-30 22:00:00","43180","1.5659999999999998","31.69","3.201","7.458","1017.628","14.61","72.97","-2.904","0.0"],
    [1405601,"2026-03-30 22:10:00","43181","2.803","53.34","5.063","56.56","1017.578","14.36","75.74","-2.735","0.0"],
    [1405602,"2026-03-30 22:20:00","43182","3.2260000000000004","50.03","5.259","31.14","1017.456","14.22","77.61","-2.728","0.0"],
    [1405603,"2026-03-30 22:30:00","43183","2.952","39.13","4.508","27.55","1017.495","14.21","76.71","-2.728","0.0"],
    [1405604,"2026-03-30 22:40:00","43184","1.8259999999999998","23.99","3.495","33.66","1017.4780000000001","14.14","76.14","-2.74","0.0"],
    [1405605,"2026-03-30 22:50:00","43185","2.146","24.04","3.332","14.37","1017.414","13.98","75.65","-3.06","0.0"],
    [1405606,"2026-03-30 23:00:00","43186","2.025","35.98","2.842","23.66","1017.3530000000001","14.08","74.79","-3.009","0.0"],
    [1405607,"2026-03-30 23:10:00","43187","2.386","28.88","3.397","24.93","1017.454","14.07","71.89","-2.8710000000000004","0.0"],
    [1405608,"2026-03-30 23:20:00","43188","3.253","19.45","4.41","21.56","1017.562","14.18","70.09","-2.758","0.0"],
    [1405609,"2026-03-30 23:30:00","43189","2.068","20.61","3.822","16.03","1017.582","14.14","69.95","-2.755","0.0"],
    [1405610,"2026-03-30 23:40:00","43190","1.99","10.33","3.397","11.65","1017.638","13.86","69.54","-2.843","0.0"],
    [1405611,"2026-03-30 23:50:00","43191","2.083","18.36","3.365","15.07","1017.688","13.83","67.3","-2.766","0.0"],
    [1405612,"2026-03-31 00:00:00","43192","1.588","22.58","2.679","9.94","1017.658","13.74","67.58","-2.86","0.0"],
    [1405613,"2026-03-31 00:10:00","43193","1.5830000000000002","26.84","2.385","32.17","1017.6339999999999","13.61","68.35","-2.9789999999999996","0.0"],
    [1405614,"2026-03-31 00:20:00","43194","2.0540000000000003","17.67","3.299","4.26","1017.685","13.6","68.89","-3.0660000000000003","0.0"],
    [1405615,"2026-03-31 00:30:00","43195","2.832","37.57","5.325","54.63","1017.682","14.13","69.32","-3.3739999999999997","0.0"],
    [1405616,"2026-03-31 00:40:00","43196","2.841","34.8","4.639","11.58","1017.7289999999999","14.24","69.82","-2.787","0.0"],
    [1405617,"2026-03-31 00:50:00","43197","2.9589999999999996","41.01","4.443","44.81","1017.7130000000001","14.2","70.65","-2.7769999999999997","0.0"],
    [1405618,"2026-03-31 01:00:00","43198","3.01","45.46","5.063","43.21","1017.732","14.2","71.83","-2.7889999999999997","0.0"],
    [1405619,"2026-03-31 01:10:00","43199","2.66","48.47","4.083","38.76","1017.654","14.13","71.69","-2.818","0.0"],
    [1405620,"2026-03-31 01:20:00","43200","1.966","61.2","3.365","67.43","1017.62","14.16","71.01","-2.9010000000000002","0.0"],
    [1405621,"2026-03-31 01:30:00","43201","1.574","47.84","3.071","39.98","1017.575","13.9","73.02","-2.8160000000000003","0.0"],
    [1405622,"2026-03-31 01:40:00","43202","1.599","27.06","2.973","16.96","1017.5219999999999","13.81","73.46","-3.122","0.0"],
    [1405623,"2026-03-31 01:50:00","43203","1.088","40.14","2.646","20.1","1017.492","13.76","73.94","-3.202","0.0"],
    [1405624,"2026-03-31 02:00:00","43204","1.101","94.6","2.646","20.1","1017.421","14.04","73.83","-3.073","0.0"],
    [1405625,"2026-03-31 02:10:00","43205","0.759","33.95","2.417","61.36","1017.34","13.82","74.31","-2.798","0.0"],
    [1405626,"2026-03-31 02:20:00","43206","0.439","278.3","1.601","294.2","1017.2130000000001","12.97","75.9","-2.9","0.0"],
    [1405627,"2026-03-31 02:30:00","43207","0.045","259.6","0.425","259.8","1017.0239999999999","12.75","77.22","-3.156","0.0"],
    [1405628,"2026-03-31 02:40:00","43208","0.1","236.3","1.111","103.2","1017.0189999999999","12.81","77.3","-2.927","0.0"],
    [1405629,"2026-03-31 02:50:00","43209","0.301","122.0","1.601","136.6","1017.0210000000001","13.0","78.77","-2.932","0.0"],
    [1405630,"2026-03-31 03:00:00","43210","0.637","105.1","1.731","124.6","1016.916","13.18","78.61","-2.9539999999999997","0.0"],
    [1405631,"2026-03-31 03:10:00","43211","0.87","105.9","1.764","131.2","1016.789","13.46","78.15","-2.8160000000000003","0.0"],
    [1405632,"2026-03-31 03:20:00","43212","0.6","74.4","1.601","102","1016.797","13.44","76.74","-2.781","0.0"],
    [1405633,"2026-03-31 03:30:00","43213","0.43799999999999994","311.1","1.601","308.6","1016.704","12.4","77.57","-2.7739999999999996","0.0"],
    [1405634,"2026-03-31 03:40:00","43214","0.6579999999999999","345.2","1.862","347.6","1016.545","11.97","77.6","-2.7689999999999997","0.0"],
    [1405635,"2026-03-31 03:50:00","43215","0.225","30.29","1.241","14.55","1016.365","12.02","78.38","-2.781","0.0"],
    [1405636,"2026-03-31 04:00:00","43216","0.426","326.2","1.339","284.4","1016.403","11.78","78.96","-2.8710000000000004","0.0"],
    [1405637,"2026-03-31 04:10:00","43217","1.3030000000000002","297.5","2.287","287.5","1016.357","11.3","78.68","-2.762","0.0"],
    [1405638,"2026-03-31 04:20:00","43218","1.9780000000000002","289.7","2.581","284.4","1016.535","10.66","76.91","-2.447","0.0"],
    [1405639,"2026-03-31 04:30:00","43219","0.48","296.1","1.111","301.6","1016.582","10.22","77.71","-2.759","0.0"],
    [1405640,"2026-03-31 04:40:00","43220","0.5539999999999999","284.6","1.339","304.8","1016.6260000000001","10.3","77.91","-2.767","0.0"],
    [1405641,"2026-03-31 04:50:00","43221","1.344","278.3","2.385","265.3","1016.842","10.39","77.56","-2.781","0.0"],
    [1405642,"2026-03-31 05:00:00","43222","1.868","278.5","2.842","272.9","1016.8739999999999","10.47","77.12","-2.761","0.0"],
    [1405643,"2026-03-31 05:10:00","43223","2.017","269.1","2.777","277.4","1016.9630000000001","10.6","75.76","-2.738","0.0"],
    [1405644,"2026-03-31 05:20:00","43224","1.229","281.0","2.679","268.4","1016.926","10.32","75.85","-2.376","0.0"],
    [1405645,"2026-03-31 05:30:00","43225","1.642","301.5","2.613","303","1017.033","10.37","77.63","-1.2690000000000001","0.0"],
    [1405646,"2026-03-31 05:40:00","43226","1.7519999999999998","321.1","2.515","320.9","1017.092","11.13","78.45","2.191","0.0"],
    [1405647,"2026-03-31 05:50:00","43227","2.013","325.8","3.267","330.7","1016.965","12.0","76.77","5.726","0.0"],
    [1405648,"2026-03-31 06:00:00","43228","2.23","315.2","3.887","312.8","1017.035","12.31","71.07","11.44","0.0"],
    [1405649,"2026-03-31 06:10:00","43229","2.972","320.2","4.606","336.4","1017.2280000000001","12.67","63.51","22.46","0.0"],
    [1405650,"2026-03-31 06:20:00","43230","2.272","322.2","4.214","304.9","1017.346","12.84","60.96","29.46","0.0"],
    [1405651,"2026-03-31 06:30:00","43231","2.024","318.3","2.907","334","1017.4","12.83","61.22","75.7","0.0"],
    [1405652,"2026-03-31 06:40:00","43232","1.5390000000000001","287.3","2.581","308.1","1017.515","13.2","60.23","115.6","0.0"],
    [1405653,"2026-03-31 06:50:00","43233","1.4509999999999998","252.8","2.777","275.2","1017.6039999999999","13.19","59.84","145.8","0.0"],
    [1405654,"2026-03-31 07:00:00","43234","1.9","271.2","3.691","272.5","1017.6189999999999","12.89","61.35","182.4","0.0"],
    [1405655,"2026-03-31 07:10:00","43235","2.541","277.4","4.443","290.8","1017.625","12.64","62.98","219.3","0.0"],
    [1405656,"2026-03-31 07:20:00","43236","2.8289999999999997","280.7","4.541","277.7","1017.658","12.71","63.59","253.3","0.0"],
    [1405657,"2026-03-31 07:30:00","43237","2.11","278.3","4.214","285.7","1017.706","13.3","61.95","288.1","0.0"],
    [1405658,"2026-03-31 07:40:00","43238","2.6189999999999998","282.3","3.593","276.9","1017.8860000000001","13.74","60.7","308.2","0.0"],
    [1405659,"2026-03-31 07:50:00","43239","1.374","294.2","2.744","285.8","1017.826","14.25","60.72","355.7","0.0"],
    [1405660,"2026-03-31 08:00:00","43240","1.215","345.4","3.169","35.75","1018.047","15.44","62.87","363.0","0.0"],
    [1405661,"2026-03-31 08:10:00","43241","2.735","47.97","4.345","48.57","1018.145","15.56","69.82","423.1","0.0"],
    [1405662,"2026-03-31 08:20:00","43242","2.762","41.89","3.985","32.78","1018.22","15.57","71.63","461.9","0.0"],
    [1405663,"2026-03-31 08:30:00","43243","3.207","43.79","5.259","42.08","1018.438","15.45","71.85","317.8","0.0"],
    [1405664,"2026-03-31 08:40:00","43244","3.5869999999999997","36.58","5.227","27.39","1018.5939999999999","15.17","72.04","347.6","0.0"],
    [1405665,"2026-03-31 08:50:00","43245","4.681","45.17","8.56","52.41","1018.674","15.26","72.32","284.9","0.0"],
    [1405666,"2026-03-31 09:00:00","43246","5.09","56.1","7.742","45.61","1018.8960000000001","14.94","69.92","361.9","0.0"],
    [1405667,"2026-03-31 09:10:00","43247","4.854","40.25","6.925","40.01","1018.977","15.07","71.02","264.9","0.0"],
    [1405668,"2026-03-31 09:20:00","43248","5.403","38.12","8.23","28.54","1019.076","14.83","70.41","364.7","0.0"],
    [1405669,"2026-03-31 09:30:00","43249","4.213","46.79","6.141","50.63","1019.095","15.59","71.68","650.4","0.0"],
    [1405670,"2026-03-31 09:40:00","43250","3.418","90.3","4.835","87.8","1019.153","15.9","76.17","599.5","0.0"],
    [1405671,"2026-03-31 09:50:00","43251","3.082","102.1","5.88","99.9","1019.258","15.04","76.72","735.0","0.0"],
    [1405672,"2026-03-31 10:00:00","43252","1.422","116.0","3.691","101.2","1019.243","15.74","70.14","665.2","0.0"],
    [1405673,"2026-03-31 10:10:00","43253","1.535","117.1","4.671","118.9","1019.2669999999999","15.73","59.78","681.4","0.0"],
    [1405674,"2026-03-31 10:20:00","43254","1.683","116.3","4.639","123.2","1019.3989999999999","16.35","60.09","790.9","0.0"],
    [1405675,"2026-03-31 10:30:00","43255","3.0989999999999998","94.6","5.978","80.3","1019.503","16.32","60.3","826.0","0.0"],
    [1405676,"2026-03-31 10:40:00","43256","3.696","88.0","5.684","93.4","1019.425","15.6","61.08","807.0","0.0"],
    [1405677,"2026-03-31 10:50:00","43257","3.7739999999999996","90.9","5.553","85.7","1019.395","15.69","60.25","803.0","0.0"],
    [1405678,"2026-03-31 11:00:00","43258","3.986","87.2","5.357","87.5","1019.332","15.72","58.75","814.0","0.0"],
    [1405679,"2026-03-31 11:10:00","43259","3.957","82.0","5.455","69.32","1019.25","15.62","58.68","825.0","0.0"],
    [1405680,"2026-03-31 11:20:00","43260","3.395","92.9","5.096","73.63","1019.181","15.68","56.91","832.0","0.0"],
    [1405681,"2026-03-31 11:30:00","43261","3.386","85.9","4.802","81.1","1019.112","16.01","55.1","838.0","0.0"],
    [1405682,"2026-03-31 11:40:00","43262","2.447","95.9","4.247","87.7","1019.0169999999999","16.11","55.23","840.0","0.0"],
    [1405683,"2026-03-31 11:50:00","43263","1.423","117.3","3.463","189.1","1018.92","16.8","52.31","841.0","0.0"],
    [1405684,"2026-03-31 12:00:00","43264","1.24","129.0","3.561","75.58","1018.875","16.9","51.57","841.0","0.0"],
    [1405685,"2026-03-31 12:10:00","43265","1.3330000000000002","134.7","3.855","182.9","1018.933","16.8","52.19","838.0","0.0"],
    [1405686,"2026-03-31 12:20:00","43266","1.7369999999999999","115.0","4.965","93.9","1018.913","16.73","52.28","836.0","0.0"],
    [1405687,"2026-03-31 12:30:00","43267","2.457","165.6","5.161","179.3","1018.857","16.84","51.91","832.0","0.0"],
    [1405688,"2026-03-31 12:40:00","43268","1.722","137.5","4.443","176.3","1018.753","16.55","51.97","825.0","0.0"],
    [1405689,"2026-03-31 12:50:00","43269","1.6019999999999999","156.2","4.541","173.5","1018.677","16.97","51.12","816.0","0.0"],
    [1405690,"2026-03-31 13:00:00","43270","2.234","174.8","5.521","181.9","1018.6","16.73","50.92","808.0","0.0"],
    [1405691,"2026-03-31 13:10:00","43271","2.3080000000000003","195.5","4.639","208.3","1018.512","16.69","52.47","794.2","0.0"],
    [1405692,"2026-03-31 13:20:00","43272","2.3169999999999997","195.3","4.9","179.7","1018.3960000000001","16.6","53.34","779.5","0.0"],
    [1405693,"2026-03-31 13:30:00","43273","2.977","189.9","5.259","218.7","1018.336","16.56","54.56","771.7","0.0"],
    [1405694,"2026-03-31 13:40:00","43274","3.023","180.3","5.161","184.6","1018.2739999999999","15.98","58.54","768.3","0.0"],
    [1405695,"2026-03-31 13:50:00","43275","3.29","175.3","6.109","168.6","1018.1110000000001","16.1","58.3","761.0","0.0"],
    [1405696,"2026-03-31 14:00:00","43276","3.173","183.6","5.423","179.7","1017.877","16.27","58.11","745.5","0.0"],
    [1405697,"2026-03-31 14:10:00","43277","2.8089999999999997","191.8","4.9","187.3","1017.793","16.86","55.82","774.6","0.0"],
    [1405698,"2026-03-31 14:20:00","43278","3.972","179.9","6.141","161.4","1017.77","16.52","55.79","807.0","0.0"],
    [1405699,"2026-03-31 14:30:00","43279","3.343","175.8","6.043","149.8","1017.6030000000001","16.09","57.08","782.5","0.0"],
    [1405700,"2026-03-31 14:40:00","43280","3.13","179.3","5.488","163.7","1017.535","16.54","55.97","735.7","0.0"],
    [1405701,"2026-03-31 14:50:00","43281","2.97","193.9","5.717","183","1017.34","16.64","55.32","643.3","0.0"],
    [1405702,"2026-03-31 15:00:00","43282","3.083","180.2","5.357","177.1","1017.215","16.35","55.76","588.3","0.0"],
    [1405703,"2026-03-31 15:10:00","43283","3.262","178.7","5.847","165.8","1017.2739999999999","16.12","57.49","576.6","0.0"],
    [1405704,"2026-03-31 15:20:00","43284","3.017","188.6","5.357","162.1","1017.2560000000001","16.06","58.37","505.4","0.0"],
    [1405705,"2026-03-31 15:30:00","43285","2.4419999999999997","178.2","5.423","186.3","1017.209","15.91","60.15","421.6","0.0"],
    [1405706,"2026-03-31 15:40:00","43286","2.727","191.4","4.737","183.7","1017.168","15.74","61.14","248.5","0.0"],
    [1405707,"2026-03-31 15:50:00","43287","2.725","182.6","5.651","179","1017.117","15.8","61.29","480.6","0.0"],
    [1405708,"2026-03-31 16:00:00","43288","2.7230000000000003","184.9","4.573","172.6","1017.14","15.96","61.05","415.7","0.0"],
    [1405709,"2026-03-31 16:10:00","43289","2.903","180.4","5.619","162.1","1017.023","15.73","61.84","377.5","0.0"],
    [1405710,"2026-03-31 16:20:00","43290","3.0780000000000003","187.8","5.488","178.7","1017.048","15.7","62.36","346.4","0.0"],
    [1405711,"2026-03-31 16:30:00","43291","2.556","187.8","4.573","176.6","1016.9960000000001","16.0","61.57","300.8","0.0"],
    [1405712,"2026-03-31 16:40:00","43292","3.6910000000000003","183.0","6.207","180.8","1016.975","15.42","63.01","251.1","0.0"],
    [1405713,"2026-03-31 16:50:00","43293","3.097","193.9","5.031","184.2","1017.1189999999999","15.44","63.26","217.6","0.0"],
    [1405714,"2026-03-31 17:00:00","43294","3.045","183.5","4.704","190.7","1017.188","15.31","63.77","193.1","0.0"],
    [1405715,"2026-03-31 17:10:00","43295","2.798","193.3","4.9","191.2","1017.1469999999999","15.19","64.36","158.2","0.0"],
    [1405716,"2026-03-31 17:20:00","43296","2.615","197.7","4.573","180.6","1017.202","15.0","65.23","97.8","0.0"],
    [1405717,"2026-03-31 17:30:00","43297","2.242","197.0","4.475","239.6","1017.36","14.82","66.03","83.7","0.0"],
    [1405718,"2026-03-31 17:40:00","43298","2.1069999999999998","207.3","4.737","249.9","1017.454","14.72","67.15","54.61","0.0"],
    [1405719,"2026-03-31 17:50:00","43299","2.302","213.1","5.161","228.4","1017.534","14.45","67.85","14.56","0.0"],
    [1405720,"2026-03-31 18:00:00","43300","1.972","207.7","5.782","255.4","1017.697","14.32","68.84","7.579","0.0"],
    [1405721,"2026-03-31 18:10:00","43301","1.694","223.8","5.423","211.4","1017.862","14.18","69.45","4.113","0.0"],
    [1405722,"2026-03-31 18:20:00","43302","2.24","209.6","5.717","156.9","1017.877","14.09","69.76","1.061","0.0"],
    [1405723,"2026-03-31 18:30:00","43303","2.13","217.1","4.443","227.7","1017.926","14.09","70.03","-1.521","0.0"],
    [1405724,"2026-03-31 18:40:00","43304","2.826","223.6","5.978","235.9","1017.921","14.06","69.77","-2.718","0.0"],
    [1405725,"2026-03-31 18:50:00","43305","2.7239999999999998","217.4","4.639","213","1017.946","14.01","70.01","-2.7310000000000003","0.0"],
    [1405726,"2026-03-31 19:00:00","43306","2.053","225.6","3.659","220.8","1018.002","13.96","70.43","-2.733","0.0"],
    [1405727,"2026-03-31 19:10:00","43307","1.268","237.2","2.613","235.4","1018.19","13.73","71.09","-3.042","0.0"],
    [1405728,"2026-03-31 19:20:00","43308","0.977","257.9","1.895","264.7","1018.255","13.59","71.81","-3.193","0.0"],
    [1405729,"2026-03-31 19:30:00","43309","1.31","245.7","2.679","267.8","1018.2739999999999","13.58","72.39","-3.24","0.0"],
    [1405730,"2026-03-31 19:40:00","43310","1.0190000000000001","235.5","2.058","269.4","1018.3810000000001","13.55","72.47","-2.9760000000000004","0.0"],
    [1405731,"2026-03-31 19:50:00","43311","1.06","239.1","1.731","238.5","1018.422","13.48","72.83","-3.26","0.0"],
    [1405732,"2026-03-31 20:00:00","43312","1.351","240.8","2.352","223.8","1018.4630000000001","13.48","73.14","-3.0260000000000002","0.0"],
    [1405733,"2026-03-31 20:10:00","43313","1.206","244.6","2.189","170.6","1018.329","13.43","73.52","-3.15","0.0"],
    [1405734,"2026-03-31 20:20:00","43314","1.341","310.4","2.417","281.3","1018.585","13.07","74.62","-3.2560000000000002","0.0"],
    [1405735,"2026-03-31 20:30:00","43315","0.71","325.6","1.568","283.7","1018.705","12.8","76.2","-3.0210000000000004","0.0"],
    [1405736,"2026-03-31 20:40:00","43316","0.769","243.3","1.699","265.3","1018.5319999999999","12.7","77.31","-3.392","0.0"],
    [1405737,"2026-03-31 20:50:00","43317","1.42","236.1","2.483","231.8","1018.426","13.0","76.05","-3.207","0.0"],
    [1405738,"2026-03-31 21:00:00","43318","0.39","261.2","1.372","272.1","1018.443","13.02","75.39","-3.156","0.0"],
    [1405739,"2026-03-31 21:10:00","43319","1.03","256.5","1.895","266.7","1018.47","12.85","75.91","-3.0639999999999996","0.0"],
    [1405740,"2026-03-31 21:20:00","43320","1.16","250.4","2.025","259.7","1018.5089999999999","12.78","75.81","-3.0180000000000002","0.0"],
    [1405741,"2026-03-31 21:30:00","43321","1.469","269.4","2.417","286.7","1018.472","12.53","76.38","-2.8760000000000003","0.0"],
    [1405742,"2026-03-31 21:40:00","43322","0.986","274.3","2.025","269.7","1018.4760000000001","12.34","77.17","-2.843","0.0"],
    [1405743,"2026-03-31 21:50:00","43323","0.841","272.8","2.221","267.7","1018.5160000000001","11.61","79.19","-3.2489999999999997","0.0"],
    [1405744,"2026-03-31 22:00:00","43324","0.9890000000000001","257.2","2.123","265.8","1018.5210000000001","11.79","80.2","-3.221","0.0"],
    [1405745,"2026-03-31 22:10:00","43325","0.602","263.9","1.601","258.7","1018.438","11.71","79.56","-2.9530000000000003","0.0"],
    [1405746,"2026-03-31 22:20:00","43326","0.619","261.4","1.633","266","1018.429","11.52","80.8","-3.29","0.0"],
    [1405747,"2026-03-31 22:30:00","43327","0.067","278.3","0.588","278.3","1018.5160000000001","11.46","80.6","-3.069","0.0"],
    [1405748,"2026-03-31 22:40:00","43328","0.662","276.6","1.47","286.8","1018.4069999999999","11.42","80.8","-3.262","0.0"],
    [1405749,"2026-03-31 22:50:00","43329","1.2","267.7","1.797","273.4","1018.2589999999999","11.78","79.62","-3.2460000000000004","0.0"],
    [1405750,"2026-03-31 23:00:00","43330","0.146","204.1","1.143","253.7","1018.138","11.91","78.56","-2.853","0.0"],
    [1405751,"2026-03-31 23:10:00","43331","0.413","269.0","1.209","266.2","1018.055","11.66","78.64","-3.228","0.0"],
    [1405752,"2026-03-31 23:20:00","43332","0.087","269.6","0.653","271.4","1018.075","11.15","79.78","-3.1039999999999996","0.0"],
    [1405753,"2026-03-31 23:30:00","43333","1.3219999999999998","271.4","2.254","265.7","1017.924","11.02","81.3","-3.375","0.0"],
    [1405754,"2026-03-31 23:40:00","43334","1.0290000000000001","270.0","2.319","271.8","1017.915","10.92","81.5","-2.9960000000000004","0.0"],
    [1405755,"2026-03-31 23:50:00","43335","1.1740000000000002","284.9","2.123","296.4","1017.808","10.46","82.1","-3.2289999999999996","0.0"],
    [1405756,"2026-04-01 00:00:00","43336","0.40299999999999997","282.7","1.339","281.9","1017.696","10.62","82.2","-3.145","0.0"],
    [1405757,"2026-04-01 00:10:00","43337","0.395","249.2","1.666","264.1","1017.7589999999999","10.42","82.7","-3.3360000000000003","0.0"],
    [1405758,"2026-04-01 00:20:00","43338","1.2329999999999999","263.4","1.993","237.9","1017.807","10.82","81.7","-2.9810000000000003","0.0"],
    [1405759,"2026-04-01 00:30:00","43339","0.165","257.3","0.817","243.8","1017.6389999999999","10.61","81.5","-2.895","0.0"],
    [1405760,"2026-04-01 00:40:00","43340","0.44799999999999995","238.5","1.241","253.5","1017.575","10.58","81.8","-3.043","0.0"],
    [1405761,"2026-04-01 00:50:00","43341","0.569","240.4","1.633","279.7","1017.513","10.48","82.0","-3.049","0.0"],
    [1405762,"2026-04-01 01:00:00","43342","0.235","300.0","1.176","283.8","1017.393","10.02","82.2","-2.9360000000000004","0.0"],
    [1405763,"2026-04-01 01:10:00","43343","0.9390000000000001","265.9","3.365","291.5","1017.284","10.01","83.2","-3.2110000000000003","0.0"],
    [1405764,"2026-04-01 01:20:00","43344","1.669","267.2","2.679","284.1","1017.2130000000001","9.76","84.0","-2.804","0.0"],
    [1405765,"2026-04-01 01:30:00","43345","1.218","280.2","1.764","263.6","1017.205","9.89","83.9","-2.365","0.0"],
    [1405766,"2026-04-01 01:40:00","43346","0.446","298.6","1.633","289","1017.12","9.97","84.4","-1.254","0.0"],
    [1405767,"2026-04-01 01:50:00","43347","1.295","17.09","2.94","168.9","1016.959","10.17","84.1","-1.9409999999999998","0.0"],
    [1405768,"2026-04-01 02:00:00","43348","1.8780000000000001","333.8","4.083","347.5","1017.055","10.89","82.2","-2.155","0.0"],
    [1405769,"2026-04-01 02:10:00","43349","1.923","287.1","3.463","326.5","1016.9119999999999","10.98","80.9","-1.7409999999999999","0.0"],
    [1405770,"2026-04-01 02:20:00","43350","0.997","189.8","2.515","213.1","1016.875","10.42","81.9","-1.6030000000000002","0.0"],
    [1405771,"2026-04-01 02:30:00","43351","2.694","287.0","4.247","348.1","1016.789","10.66","80.7","-2.251","0.0"],
    [1405772,"2026-04-01 02:40:00","43352","2.4819999999999998","223.0","4.377","221","1016.643","10.27","81.5","-2.306","0.0"],
    [1405773,"2026-04-01 02:50:00","43353","1.989","337.2","3.92","332.6","1016.7869999999999","10.47","81.6","-2.958","0.0"],
    [1405774,"2026-04-01 03:00:00","43354","1.624","193.6","3.071","249.7","1016.6080000000001","11.27","77.76","-3.1889999999999996","0.0"],
    [1405775,"2026-04-01 03:10:00","43355","0.9520000000000001","260.8","2.483","282.8","1016.697","11.32","75.91","-3.1839999999999997","0.0"],
    [1405776,"2026-04-01 03:20:00","43356","2.023","280.2","3.169","293.1","1016.6469999999999","10.73","78.94","-2.7460000000000004","0.0"],
    [1405777,"2026-04-01 03:30:00","43357","1.581","288.8","3.365","267.8","1016.5319999999999","9.71","82.8","-2.667","0.0"],
    [1405778,"2026-04-01 03:40:00","43358","0.9590000000000001","271.7","2.417","267.1","1016.543","9.48","83.7","-2.955","0.0"],
    [1405779,"2026-04-01 03:50:00","43359","0.983","268.3","1.993","253.9","1016.515","9.56","83.7","-3.002","0.0"],
    [1405780,"2026-04-01 04:00:00","43360","1.412","271.1","2.581","291.5","1016.56","9.5","83.9","-2.867","0.0"],
    [1405781,"2026-04-01 04:10:00","43361","0.374","261.6","1.731","254.8","1016.418","9.41","83.7","-2.812","0.0"],
    [1405782,"2026-04-01 04:20:00","43362","0.268","279.9","0.817","276.8","1016.293","9.1","84.2","-2.911","0.0"],
    [1405783,"2026-04-01 04:30:00","43363","0.927","251.1","2.515","230.7","1016.363","9.05","84.9","-3.112","0.0"],
    [1405784,"2026-04-01 04:40:00","43364","0.344","269.0","1.405","286.8","1016.375","9.31","84.4","-2.89","0.0"],
    [1405785,"2026-04-01 04:50:00","43365","1.6469999999999998","279.0","2.515","276.4","1016.3760000000001","9.26","84.6","-3.188","0.0"],
    [1405786,"2026-04-01 05:00:00","43366","1.26","268.3","2.548","269.5","1016.2510000000001","9.21","84.5","-2.83","0.0"],
    [1405787,"2026-04-01 05:10:00","43367","1.7169999999999999","280.6","4.116","282.5","1016.355","8.88","84.2","-2.795","0.0"],
    [1405788,"2026-04-01 05:20:00","43368","1.821","270.6","2.711","285.5","1016.337","8.67","85.3","-2.748","0.0"],
    [1405789,"2026-04-01 05:30:00","43369","1.975","272.7","3.855","273.3","1016.419","8.47","85.6","-1.47","0.0"],
    [1405790,"2026-04-01 05:40:00","43370","1.31","309.7","3.267","265.1","1016.5010000000001","8.17","85.7","1.8530000000000002","0.0"],
    [1405791,"2026-04-01 05:50:00","43371","1.449","275.1","2.907","222.4","1016.5060000000001","8.46","85.0","11.12","0.0"],
    [1405792,"2026-04-01 06:00:00","43372","1.125","271.9","2.679","263.4","1016.602","8.46","85.0","27.38","0.0"],
    [1405793,"2026-04-01 06:10:00","43373","1.413","274.8","2.483","278.7","1016.681","8.78","83.3","53.15","0.0"],
    [1405794,"2026-04-01 06:20:00","43374","1.089","258.1","1.797","275.1","1016.6410000000001","8.58","81.6","73.59","0.0"],
    [1405795,"2026-04-01 06:30:00","43375","0.7120000000000001","265.3","1.307","233.6","1016.743","8.69","80.3","92.5","0.0"],
    [1405796,"2026-04-01 06:40:00","43376","0.05","273.8","0.555","273.6","1016.8430000000001","9.01","78.8","102.1","0.0"],
    [1405797,"2026-04-01 06:50:00","43377","0.09699999999999999","345.1","0.588","295.3","1016.8889999999999","9.86","76.04","148.2","0.0"],
    [1405798,"2026-04-01 07:00:00","43378","0.47","126.5","1.307","149.9","1016.805","10.68","71.8","167.1","0.0"],
    [1405799,"2026-04-01 07:10:00","43379","0.457","158.3","0.915","159.4","1016.7589999999999","11.57","67.93","182.5","0.0"],
    [1405800,"2026-04-01 07:20:00","43380","0.315","307.7","1.209","312.7","1016.7539999999999","12.45","64.99","256.8","0.0"],
    [1405801,"2026-04-01 07:30:00","43381","0.618","197.6","1.666","193.8","1016.688","13.13","60.51","188.7","0.0"],
    [1405802,"2026-04-01 07:40:00","43382","1.236","195.4","2.94","181.6","1016.65","13.07","61.38","316.5","0.0"],
    [1405803,"2026-04-01 07:50:00","43383","1.199","202.4","3.757","171.9","1016.687","13.45","59.65","360.9","0.0"],
    [1405804,"2026-04-01 08:00:00","43384","0.58","223.6","1.633","207.7","1016.6619999999999","13.16","58.78","129.8","0.0"],
    [1405805,"2026-04-01 08:10:00","43385","0.151","294.3","0.784","297.7","1016.712","13.01","62.91","209.7","0.0"],
    [1405806,"2026-04-01 08:20:00","43386","0.21899999999999997","226.4","1.013","187.5","1016.673","13.81","61.98","439.6","0.0"],
    [1405807,"2026-04-01 08:30:00","43387","1.138","204.0","2.907","203.2","1016.596","14.35","62.17","505.6","0.0"],
    [1405808,"2026-04-01 08:40:00","43388","1.571","199.1","2.907","164.2","1016.6139999999999","14.37","64.26","533.3","0.0"],
    [1405809,"2026-04-01 08:50:00","43389","1.713","188.7","3.234","215.3","1016.563","14.47","64.02","571.2","0.0"],
    [1405810,"2026-04-01 09:00:00","43390","1.854","194.4","3.757","174.6","1016.466","14.78","62.89","606.1","0.0"],
    [1405811,"2026-04-01 09:10:00","43391","2.521","172.7","4.737","158.5","1016.432","14.82","61.49","628.0","0.0"],
    [1405812,"2026-04-01 09:20:00","43392","2.682","171.3","4.475","156.6","1016.4060000000001","14.42","62.73","652.1","0.0"],
    [1405813,"2026-04-01 09:30:00","43393","1.867","164.8","4.149","184.5","1016.27","14.57","61.03","676.0","0.0"],
    [1405814,"2026-04-01 09:40:00","43394","1.974","178.3","6.141","199.2","1016.325","14.87","57.11","699.9","0.0"],
    [1405815,"2026-04-01 09:50:00","43395","3.0660000000000003","175.6","5.455","177.2","1016.3389999999999","14.69","56.24","730.1","0.0"],
    [1405816,"2026-04-01 10:00:00","43396","2.673","184.8","5.259","176","1016.2689999999999","14.97","54.56","751.1","0.0"],
    [1405817,"2026-04-01 10:10:00","43397","3.5589999999999997","180.2","6.076","198.5","1015.9989999999999","14.85","53.05","765.0","0.0"],
    [1405818,"2026-04-01 10:20:00","43398","3.2430000000000003","192.1","6.076","185.5","1015.8689999999999","15.36","52.31","789.2","0.0"],
    [1405819,"2026-04-01 10:30:00","43399","3.761","202.5","6.239","179.9","1015.928","15.53","51.66","817.0","0.0"],
    [1405820,"2026-04-01 10:40:00","43400","3.54","198.1","6.664","174.2","1015.9760000000001","15.53","51.08","820.0","0.0"],
    [1405821,"2026-04-01 10:50:00","43401","4.303","195.3","6.925","169","1015.857","15.71","49.85","987.0","0.0"],
    [1405822,"2026-04-01 11:00:00","43402","4.133","202.9","7.154","219.5","1015.783","15.46","50.16","488.2","0.0"],
    [1405823,"2026-04-01 11:10:00","43403","3.694","198.4","6.076","215.5","1015.7280000000001","15.34","50.85","843.0","0.0"],
    [1405824,"2026-04-01 11:20:00","43404","4.1","197.6","7.056","204.5","1015.6","15.74","49.84","843.0","0.0"],
    [1405825,"2026-04-01 11:30:00","43405","4.934","200.2","7.579","178.8","1015.44","15.55","52.47","643.1","0.0"],
    [1405826,"2026-04-01 11:40:00","43406","4.492","202.0","7.905","224.2","1015.3910000000001","15.51","57.12","641.2","0.0"],
    [1405827,"2026-04-01 11:50:00","43407","4.4510000000000005","192.5","8.72","184.4","1015.2869999999999","15.68","55.77","645.9","0.0"],
    [1405828,"2026-04-01 12:00:00","43408","4.457","187.9","8.13","182.1","1015.2310000000001","15.34","56.32","519.4","0.0"],
    [1405829,"2026-04-01 12:10:00","43409","4.195","192.1","7.775","188.9","1015.225","14.85","57.33","345.5","0.0"],
    [1405830,"2026-04-01 12:20:00","43410","3.614","182.4","7.023","163.9","1015.1","14.66","58.39","267.7","0.0"],
    [1405831,"2026-04-01 12:30:00","43411","3.5180000000000002","192.1","6.795","185.9","1015.0880000000001","14.53","58.49","275.1","0.0"],
    [1405832,"2026-04-01 12:40:00","43412","3.5039999999999996","180.8","5.553","182.6","1015.1189999999999","14.55","58.56","265.8","0.0"],
    [1405833,"2026-04-01 12:50:00","43413","3.3110000000000004","191.7","5.325","173.9","1015.0269999999999","14.66","58.28","258.0","0.0"],
    [1405834,"2026-04-01 13:00:00","43414","3.533","179.5","6.435","183.2","1014.971","14.57","60.35","282.4","0.0"],
    [1405835,"2026-04-01 13:10:00","43415","3.992","198.4","6.207","182","1014.872","14.81","61.48","294.2","0.0"],
    [1405836,"2026-04-01 13:20:00","43416","3.445","194.0","6.729","171.7","1014.716","14.82","62.58","289.5","0.0"],
    [1405837,"2026-04-01 13:30:00","43417","2.92","184.9","6.207","185.3","1014.645","14.82","63.15","295.8","0.0"],
    [1405838,"2026-04-01 13:40:00","43418","2.9389999999999996","200.6","5.619","195","1014.556","14.91","62.19","316.1","0.0"],
    [1405839,"2026-04-01 13:50:00","43419","3.367","203.8","5.586","223.2","1014.372","15.06","61.65","355.5","0.0"],
    [1405840,"2026-04-01 14:00:00","43420","3.2710000000000004","199.7","5.357","183.2","1014.122","15.22","61.06","486.0","0.0"],
    [1405841,"2026-04-01 14:10:00","43421","4.074","183.6","7.121","182.1","1013.943","15.23","60.54","551.1","0.0"],
    [1405842,"2026-04-01 14:20:00","43422","4.192","191.4","8.98","180.1","1013.789","15.29","61.13","583.1","0.0"],
    [1405843,"2026-04-01 14:30:00","43423","3.372","191.9","6.599","189.4","1013.673","15.82","60.74","595.6","0.0"],
    [1405844,"2026-04-01 14:40:00","43424","3.387","192.3","6.37","186.2","1013.566","15.64","60.55","633.7","0.0"],
    [1405845,"2026-04-01 14:50:00","43425","4.045","188.0","6.991","177.2","1013.4689999999999","15.91","59.19","663.0","0.0"],
    [1405846,"2026-04-01 15:00:00","43426","3.992","200.4","6.762","188.6","1013.377","15.86","58.8","622.4","0.0"],
    [1405847,"2026-04-01 15:10:00","43427","4.172","200.1","7.317","190.4","1013.237","15.92","57.9","604.5","0.0"],
    [1405848,"2026-04-01 15:20:00","43428","4.082","203.0","8.26","182","1013.178","15.93","59.24","519.3","0.0"],
    [1405849,"2026-04-01 15:30:00","43429","3.7569999999999997","198.4","6.893","174.3","1013.102","15.67","60.22","409.4","0.0"],
    [1405850,"2026-04-01 15:40:00","43430","3.891","206.8","6.958","218.6","1012.8889999999999","15.44","61.05","336.1","0.0"],
    [1405851,"2026-04-01 15:50:00","43431","3.69","211.9","6.435","212.1","1012.793","15.32","61.35","226.2","0.0"],
    [1405852,"2026-04-01 16:00:00","43432","3.167","208.5","6.239","209.2","1012.7610000000001","15.15","62.95","282.7","0.0"],
    [1405853,"2026-04-01 16:10:00","43433","3.717","213.5","5.684","222.2","1012.7769999999999","15.21","64.09","162.1","0.0"],
    [1405854,"2026-04-01 16:20:00","43434","5.032","218.0","7.611","231.6","1012.689","14.91","64.23","142.9","0.0"],
    [1405855,"2026-04-01 16:30:00","43435","3.3539999999999996","214.8","6.272","200.1","1012.632","14.92","64.41","99.1","0.0"],
    [1405856,"2026-04-01 16:40:00","43436","3.08","221.0","7.154","206.7","1012.6260000000001","14.93","64.8","85.7","0.0"],
    [1405857,"2026-04-01 16:50:00","43437","3.7260000000000004","219.8","6.141","223.3","1012.7289999999999","14.88","65.89","78.84","0.0"],
    [1405858,"2026-04-01 17:00:00","43438","4.173","220.8","6.109","213.6","1012.7330000000001","14.72","67.98","69.69","0.0"],
    [1405859,"2026-04-01 17:10:00","43439","3.9189999999999996","226.3","6.762","220.4","1012.789","14.59","68.98","41.77","0.0"],
    [1405860,"2026-04-01 17:20:00","43440","4.493","222.5","6.893","221.2","1012.755","14.43","69.69","38.0","0.0"],
    [1405861,"2026-04-01 17:30:00","43441","4.753","220.5","8.2","230.6","1012.784","14.3","70.7","34.06","0.0"],
    [1405862,"2026-04-01 17:40:00","43442","4.878","220.1","7.677","227.7","1012.775","14.31","70.95","52.31","0.0"],
    [1405863,"2026-04-01 17:50:00","43443","5.685","216.8","10.62","197.1","1012.7","14.4","73.71","33.49","0.0"],
    [1405864,"2026-04-01 18:00:00","43444","5.053999999999999","218.4","8.13","212.1","1012.8330000000001","14.26","76.0","30.21","0.0"],
    [1405865,"2026-04-01 18:10:00","43445","5.6370000000000005","219.8","8.4","216.1","1012.8560000000001","14.22","76.18","20.4","0.0"],
    [1405866,"2026-04-01 18:20:00","43446","4.459","222.4","7.677","222.9","1012.9","14.17","76.85","6.914","0.0"],
    [1405867,"2026-04-01 18:30:00","43447","3.795","223.8","6.86","224.7","1012.9839999999999","14.05","78.31","-0.22699999999999998","0.0"],
    [1405868,"2026-04-01 18:40:00","43448","4.082","222.7","7.317","199.3","1013.034","14.0","79.83","-1.801","0.0"],
    [1405869,"2026-04-01 18:50:00","43449","4.559","219.9","7.415","228.8","1013.211","13.99","80.9","-1.617","0.0"],
    [1405870,"2026-04-01 19:00:00","43450","4.708","219.7","7.742","228.2","1013.2669999999999","14.03","81.0","-1.261","0.0"],
    [1405871,"2026-04-01 19:10:00","43451","4.9510000000000005","217.0","8.36","199.3","1013.315","14.02","81.0","-1.253","0.0"],
    [1405872,"2026-04-01 19:20:00","43452","4.4","224.5","7.187","222.5","1013.321","14.0","80.6","-1.234","0.0"],
    [1405873,"2026-04-01 19:30:00","43453","4.791","226.1","8.04","218.2","1013.31","13.97","80.5","-1.235","0.0"],
    [1405874,"2026-04-01 19:40:00","43454","4.325","215.4","7.154","230.1","1013.546","13.94","79.91","-1.256","0.0"],
    [1405875,"2026-04-01 19:50:00","43455","4.2219999999999995","212.9","6.697","223.8","1013.559","13.9","79.67","-1.431","0.0"],
    [1405876,"2026-04-01 20:00:00","43456","3.5210000000000004","210.6","7.056","227.6","1013.5369999999999","13.69","78.93","-2.468","0.0"],
    [1405877,"2026-04-01 20:10:00","43457","3.694","221.5","6.533","220.1","1013.6060000000001","13.58","78.02","-2.6689999999999996","0.0"],
    [1405878,"2026-04-01 20:20:00","43458","2.985","220.1","5.619","193.3","1013.6210000000001","13.52","77.52","-2.314","0.0"],
    [1405879,"2026-04-01 20:30:00","43459","3.363","222.0","6.043","230.1","1013.635","13.49","77.17","-2.263","0.0"],
    [1405880,"2026-04-01 20:40:00","43460","1.9769999999999999","208.3","3.855","240.4","1013.653","13.46","77.03","-1.9969999999999999","0.0"],
    [1405881,"2026-04-01 20:50:00","43461","2.9589999999999996","217.2","6.076","245.8","1013.7739999999999","13.48","76.61","-1.7790000000000001","0.0"],
    [1405882,"2026-04-01 21:00:00","43462","3.2460000000000004","221.4","5.129","213.2","1013.796","13.55","76.25","-1.577","0.0"],
    [1405883,"2026-04-01 21:10:00","43463","2.6460000000000004","214.8","4.933","228.6","1013.784","13.55","76.3","-1.86","0.0"],
    [1405884,"2026-04-01 21:20:00","43464","2.012","190.2","3.659","225.9","1013.826","13.51","76.57","-1.6030000000000002","0.0"],
    [1405885,"2026-04-01 21:30:00","43465","2.115","205.5","4.018","197.9","1013.898","13.52","77.09","-1.405","0.0"],
    [1405886,"2026-04-01 21:40:00","43466","1.446","201.5","3.495","208.1","1013.7719999999999","13.58","77.07","-1.324","0.0"],
    [1405887,"2026-04-01 21:50:00","43467","1.6869999999999998","197.5","3.267","181.1","1013.6560000000001","13.59","77.91","-1.3019999999999998","0.0"],
    [1405888,"2026-04-01 22:00:00","43468","2.5839999999999996","215.9","3.985","222.4","1013.497","13.63","78.04","-1.2570000000000001","0.0"],
    [1405889,"2026-04-01 22:10:00","43469","2.265","203.5","4.41","204.1","1013.315","13.67","77.77","-1.251","0.0"],
    [1405890,"2026-04-01 22:20:00","43470","2.187","192.8","4.933","180.4","1013.164","13.62","78.05","-1.268","0.0"],
    [1405891,"2026-04-01 22:30:00","43471","2.021","192.7","4.214","160","1013.143","13.61","77.59","-1.3619999999999999","0.0"],
    [1405892,"2026-04-01 22:40:00","43472","1.854","208.9","3.365","224.7","1013.1460000000001","13.59","77.77","-2.0069999999999997","0.0"],
    [1405893,"2026-04-01 22:50:00","43473","2.181","214.8","4.279","205","1013.145","13.55","78.28","-1.744","0.0"],
    [1405894,"2026-04-01 23:00:00","43474","1.615","214.7","3.495","202.6","1013.0189999999999","13.59","77.94","-1.284","0.0"],
    [1405895,"2026-04-01 23:10:00","43475","1.838","205.6","3.234","226.3","1012.9060000000001","13.5","78.4","-1.713","0.0"],
    [1405896,"2026-04-01 23:20:00","43476","1.567","209.7","3.201","213.8","1012.8860000000001","13.5","78.1","-1.287","0.0"],
    [1405897,"2026-04-01 23:30:00","43477","1.416","212.8","2.483","229.2","1012.743","13.46","77.93","-1.435","0.0"],
    [1405898,"2026-04-01 23:40:00","43478","1.113","211.2","2.091","194.7","1012.675","13.43","78.39","-1.6119999999999999","0.0"],
    [1405899,"2026-04-01 23:50:00","43479","1.8519999999999999","210.2","2.875","205.1","1012.576","13.39","78.96","-1.919","0.0"],
    [1405900,"2026-04-02 00:00:00","43480","1.815","208.8","3.855","210.1","1012.6210000000001","13.41","79.2","-1.9869999999999999","0.0"],
    [1405901,"2026-04-02 00:10:00","43481","1.906","219.8","3.299","225","1012.6389999999999","13.38","80.0","-1.617","0.0"],
    [1405902,"2026-04-02 00:20:00","43482","2.218","218.4","3.593","229","1012.673","13.4","79.93","-1.598","0.0"],
    [1405903,"2026-04-02 00:30:00","43483","2.155","218.1","3.495","208.8","1012.523","13.4","79.98","-1.746","0.0"],
    [1405904,"2026-04-02 00:40:00","43484","1.579","198.0","3.071","215.9","1012.395","13.33","80.4","-2.0069999999999997","0.0"],
    [1405905,"2026-04-02 00:50:00","43485","1.6440000000000001","197.5","3.136","202.3","1012.2389999999999","13.33","80.6","-2.0069999999999997","0.0"],
    [1405906,"2026-04-02 01:00:00","43486","2.142","188.6","6.337","174.7","1012.2360000000001","13.32","79.83","-1.409","0.0"],
    [1405907,"2026-04-02 01:10:00","43487","3.492","97.9","6.076","95.1","1012.206","12.5","72.43","-0.275","0.0"],
    [1405908,"2026-04-02 01:20:00","43488","4.227","86.8","7.513","79","1012.1339999999999","12.33","72.34","-0.424","0.0"],
    [1405909,"2026-04-02 01:30:00","43489","5.567","76.17","8.66","72.43","1012.1619999999999","11.96","73.06","-0.49","0.0"],
    [1405910,"2026-04-02 01:40:00","43490","5.166","76.73","7.448","75.81","1012.191","11.75","73.01","-0.733","0.0"],
    [1405911,"2026-04-02 01:50:00","43491","3.625","79.49","6.37","81.3","1012.085","11.85","70.95","-1.254","0.0"],
    [1405912,"2026-04-02 02:00:00","43492","2.762","72.56","4.247","88.7","1011.939","12.04","71.54","-1.261","0.0"],
    [1405913,"2026-04-02 02:10:00","43493","3.215","73.15","4.704","70.43","1011.7919999999999","12.01","71.39","-1.689","0.0"],
    [1405914,"2026-04-02 02:20:00","43494","2.9219999999999997","70.92","4.083","77.92","1011.669","11.81","72.51","-2.367","0.0"],
    [1405915,"2026-04-02 02:30:00","43495","2.7560000000000002","64.37","4.214","59.96","1011.672","11.84","73.13","-2.116","0.0"],
    [1405916,"2026-04-02 02:40:00","43496","2.705","61.18","4.279","73.88","1011.5880000000001","12.04","73.13","-1.399","0.0"],
    [1405917,"2026-04-02 02:50:00","43497","2.012","76.47","3.593","74.42","1011.507","11.95","73.49","-2.062","0.0"],
    [1405918,"2026-04-02 03:00:00","43498","1.651","75.98","2.254","69.75","1011.52","11.78","72.79","-2.761","0.0"],
    [1405919,"2026-04-02 03:10:00","43499","1.389","66.81","2.254","56.3","1011.427","11.7","73.99","-2.7739999999999996","0.0"],
    [1405920,"2026-04-02 03:20:00","43500","0.9670000000000001","60.84","1.666","60.9","1011.556","11.64","75.24","-2.821","0.0"],
    [1405921,"2026-04-02 03:30:00","43501","1.6030000000000002","322.3","2.875","302.6","1011.76","11.38","75.46","-2.115","0.0"],
    [1405922,"2026-04-02 03:40:00","43502","1.939","288.2","3.038","286.6","1011.7330000000001","10.85","76.97","-2.1590000000000003","0.0"],
    [1405923,"2026-04-02 03:50:00","43503","1.369","268.3","2.679","285.7","1011.695","10.46","79.19","-2.762","0.0"],
    [1405924,"2026-04-02 04:00:00","43504","1.599","265.9","3.201","245.9","1011.3530000000001","10.33","79.79","-2.765","0.0"],
    [1405925,"2026-04-02 04:10:00","43505","1.3219999999999998","273.3","3.659","289.5","1011.5169999999999","10.22","80.0","-2.764","0.0"],
    [1405926,"2026-04-02 04:20:00","43506","1.237","262.8","2.777","251.4","1011.488","10.16","79.84","-2.64","0.0"],
    [1405927,"2026-04-02 04:30:00","43507","1.38","283.3","2.123","277.4","1011.591","10.0","79.62","-2.004","0.0"],
    [1405928,"2026-04-02 04:40:00","43508","1.4769999999999999","282.8","2.45","278","1011.587","9.99","79.81","-1.554","0.0"],
    [1405929,"2026-04-02 04:50:00","43509","0.7290000000000001","257.5","1.633","251.5","1011.778","10.08","79.2","-1.944","0.0"],
    [1405930,"2026-04-02 05:00:00","43510","1.067","242.5","1.699","251.5","1011.669","10.12","78.25","-2.526","0.0"],
    [1405931,"2026-04-02 05:10:00","43511","0.73","255.5","1.339","275.9","1011.6569999999999","10.01","77.87","-2.759","0.0"],
    [1405932,"2026-04-02 05:20:00","43512","1.054","249.3","1.731","238.9","1011.712","9.88","77.53","-2.5180000000000002","0.0"],
    [1405933,"2026-04-02 05:30:00","43513","1.17","259.0","2.189","270.9","1011.78","9.95","77.26","-0.45","0.0"],
    [1405934,"2026-04-02 05:40:00","43514","0.33799999999999997","276.0","1.176","276.3","1011.827","9.82","77.27","2.092","0.0"],
    [1405935,"2026-04-02 05:50:00","43515","0.526","269.6","1.176","263.7","1011.934","9.78","77.96","6.343999999999999","0.0"],
    [1405936,"2026-04-02 06:00:00","43516","0.8590000000000001","285.7","1.699","287.3","1012.023","9.75","77.95","10.9","0.0"],
    [1405937,"2026-04-02 06:10:00","43517","0.802","294.5","1.829","286.4","1012.204","9.66","79.21","23.67","0.0"],
    [1405938,"2026-04-02 06:20:00","43518","0.382","290.4","0.947","289.4","1012.2539999999999","9.78","79.6","37.23","0.0"],
    [1405939,"2026-04-02 06:30:00","43519","0.894","286.3","3.103","228","1012.215","9.87","79.44","29.75","0.0"],
    [1405940,"2026-04-02 06:40:00","43520","1.3130000000000002","281.5","2.646","281.1","1012.253","10.36","77.49","50.93","0.0"],
    [1405941,"2026-04-02 06:50:00","43521","0.759","273.3","2.221","295.8","1012.225","10.57","77.55","148.0","0.0"],
    [1405942,"2026-04-02 07:00:00","43522","1.669","264.3","3.626","270.8","1012.2769999999999","11.35","75.09","163.6","0.0"],
    [1405943,"2026-04-02 07:10:00","43523","1.7480000000000002","216.0","3.071","206.1","1012.2439999999999","12.26","71.98","233.4","0.0"],
    [1405944,"2026-04-02 07:20:00","43524","2.405","204.3","4.769","201","1012.247","13.18","69.05","272.6","0.0"],
    [1405945,"2026-04-02 07:30:00","43525","2.9610000000000003","209.3","5.684","211.1","1012.265","13.41","67.49","315.0","0.0"],
    [1405946,"2026-04-02 07:40:00","43526","3.3810000000000002","210.1","5.096","205.6","1012.216","13.53","67.42","345.6","0.0"],
    [1405947,"2026-04-02 07:50:00","43527","3.342","207.0","5.325","210.9","1012.205","13.68","64.7","383.2","0.0"],
    [1405948,"2026-04-02 08:00:00","43528","3.7239999999999998","211.7","6.991","226.5","1012.3689999999999","13.77","62.51","401.7","0.0"],
    [1405949,"2026-04-02 08:10:00","43529","2.522","198.0","4.933","193.8","1012.3810000000001","14.28","61.28","453.3","0.0"],
    [1405950,"2026-04-02 08:20:00","43530","3.076","201.8","5.88","209.7","1012.413","14.26","60.46","489.0","0.0"],
    [1405951,"2026-04-02 08:30:00","43531","2.9010000000000002","191.6","5.096","181.8","1012.42","14.53","60.53","521.6","0.0"],
    [1405952,"2026-04-02 08:40:00","43532","3.089","192.1","4.9","179","1012.52","14.67","60.55","554.1","0.0"],
    [1405953,"2026-04-02 08:50:00","43533","3.508","183.3","5.913","176.9","1012.546","14.6","60.47","584.7","0.0"],
    [1405954,"2026-04-02 09:00:00","43534","3.7539999999999996","183.8","6.043","167.9","1012.5110000000001","14.74","60.44","615.6","0.0"],
    [1405955,"2026-04-02 09:10:00","43535","3.27","206.3","5.357","227.4","1012.558","14.88","58.44","664.0","0.0"],
    [1405956,"2026-04-02 09:20:00","43536","4.272","212.4","6.664","199.3","1012.5989999999999","15.06","56.37","767.8","0.0"],
    [1405957,"2026-04-02 09:30:00","43537","3.55","207.9","7.709","198.1","1012.6389999999999","15.32","52.65","758.9","0.0"],
    [1405958,"2026-04-02 09:40:00","43538","4.302","210.3","6.566","221.5","1012.573","15.16","51.01","538.3","0.0"],
    [1405959,"2026-04-02 09:50:00","43539","2.6919999999999997","199.4","4.835","197","1012.418","14.76","53.61","526.1","0.0"],
    [1405960,"2026-04-02 10:00:00","43540","3.602","205.1","6.795","194.8","1012.4889999999999","14.84","52.51","539.8","0.0"],
    [1405961,"2026-04-02 10:10:00","43541","3.87","205.3","7.383","212.3","1012.553","14.91","55.89","442.3","0.0"],
    [1405962,"2026-04-02 10:20:00","43542","4.712","211.2","7.84","203.7","1012.49","14.8","59.2","462.1","0.0"],
    [1405963,"2026-04-02 10:30:00","43543","4.724","217.4","7.121","225.6","1012.4689999999999","14.74","58.13","521.6","0.0"],
    [1405964,"2026-04-02 10:40:00","43544","5.135","214.4","8.2","220.3","1012.388","15.23","56.55","659.5","0.0"],
    [1405965,"2026-04-02 10:50:00","43545","5.0089999999999995","208.3","8.53","229.3","1012.365","15.24","58.96","724.3","0.0"],
    [1405966,"2026-04-02 11:00:00","43546","5.002","209.1","8.13","230.2","1012.232","15.12","57.58","655.0","0.0"],
    [1405967,"2026-04-02 11:10:00","43547","4.023","206.8","7.056","218.6","1012.081","15.81","56.12","655.6","0.0"],
    [1405968,"2026-04-02 11:20:00","43548","5.235","211.1","8.56","227.5","1011.985","15.51","55.79","641.5","0.0"],
    [1405969,"2026-04-02 11:30:00","43549","4.155","204.5","8","210.5","1011.8860000000001","15.72","55.92","628.3","0.0"],
    [1405970,"2026-04-02 11:40:00","43550","4.397","203.0","7.579","205.2","1011.673","15.9","53.86","713.2","0.0"],
    [1405971,"2026-04-02 11:50:00","43551","5.593","212.4","8.46","206.9","1011.52","15.61","54.82","598.3","0.0"],
    [1405972,"2026-04-02 12:00:00","43552","4.63","210.3","7.938","207.2","1011.388","15.67","57.34","545.1","0.0"],
    [1405973,"2026-04-02 12:10:00","43553","5.239","209.0","8.95","217.9","1011.318","15.49","58.77","638.6","0.0"],
    [1405974,"2026-04-02 12:20:00","43554","4.88","210.0","8.49","216.2","1011.3689999999999","15.6","56.78","617.7","0.0"],
    [1405975,"2026-04-02 12:30:00","43555","4.463","207.5","8.82","210.1","1011.4019999999999","15.96","55.77","596.5","0.0"],
    [1405976,"2026-04-02 12:40:00","43556","3.0580000000000003","201.7","5.913","216.4","1011.3889999999999","16.19","54.68","558.9","0.0"],
    [1405977,"2026-04-02 12:50:00","43557","4.2860000000000005","204.8","7.775","213","1011.205","15.87","56.7","465.8","0.0"],
    [1405978,"2026-04-02 13:00:00","43558","4.218","211.1","6.893","197.7","1010.953","15.92","55.63","451.3","0.0"],
    [1405979,"2026-04-02 13:10:00","43559","4.376","214.7","7.905","232.6","1010.791","16.21","50.17","412.9","0.0"],
    [1405980,"2026-04-02 13:20:00","43560","4.1819999999999995","216.1","6.631","212.5","1010.6","16.31","49.15","434.0","0.0"],
    [1405981,"2026-04-02 13:30:00","43561","4.418","216.7","6.991","218.6","1010.5360000000001","16.41","52.81","423.6","0.0"],
    [1405982,"2026-04-02 13:40:00","43562","3.806","205.2","6.337","221.1","1010.345","16.32","58.04","407.5","0.0"],
    [1405983,"2026-04-02 13:50:00","43563","4.2139999999999995","210.5","7.023","210.5","1010.215","16.51","59.88","420.3","0.0"],
    [1405984,"2026-04-02 14:00:00","43564","3.937","211.9","6.501","215","1010.069","16.85","58.69","471.9","0.0"],
    [1405985,"2026-04-02 14:10:00","43565","3.073","211.9","5.684","211.9","1009.924","17.5","53.51","438.0","0.0"],
    [1405986,"2026-04-02 14:20:00","43566","2.042","204.6","4.345","153.1","1009.7760000000001","17.86","54.65","397.8","0.0"],
    [1405987,"2026-04-02 14:30:00","43567","3.887","304.4","6.239","303.6","1009.705","18.98","32.86","383.6","0.0"],
    [1405988,"2026-04-02 14:40:00","43568","3.822","307.7","5.815","318.6","1009.595","19.72","27.78","419.1","0.0"],
    [1405989,"2026-04-02 14:50:00","43569","3.3369999999999997","296.0","6.174","290.6","1009.4760000000001","20.04","27.54","399.3","0.0"],
    [1405990,"2026-04-02 15:00:00","43570","3.156","279.8","5.39","273.6","1009.3710000000001","20.02","27.11","422.1","0.0"],
    [1405991,"2026-04-02 15:10:00","43571","3.6910000000000003","289.8","5.782","283.7","1009.308","20.32","25.12","432.9","0.0"],
    [1405992,"2026-04-02 15:20:00","43572","3.372","304.0","6.272","303.1","1009.273","20.68","22.46","394.9","0.0"],
    [1405993,"2026-04-02 15:30:00","43573","4.2669999999999995","294.6","6.762","286.4","1009.258","21.02","21.26","482.5","0.0"],
    [1405994,"2026-04-02 15:40:00","43574","4.482","297.4","7.513","303.5","1009.268","21.02","21.3","480.3","0.0"],
    [1405995,"2026-04-02 15:50:00","43575","3.9960000000000004","281.4","8","306.3","1009.263","21.34","21.74","590.3","0.0"],
    [1405996,"2026-04-02 16:00:00","43576","4.772","292.2","7.775","290.2","1009.334","21.53","21.24","471.8","0.0"],
    [1405997,"2026-04-02 16:10:00","43577","5.954","294.1","9.57","279.3","1009.398","20.67","21.9","278.7","0.0"],
    [1405998,"2026-04-02 16:20:00","43578","4.647","325.2","7.742","347.8","1009.6160000000001","20.44","25.79","270.9","0.0"],
    [1405999,"2026-04-02 16:30:00","43579","4.031000000000001","27.01","7.971","47.96","1009.803","17.28","57.17","238.6","0.0"],
    [1406000,"2026-04-02 16:40:00","43580","4.681","50.14","7.513","51.4","1009.8580000000001","16.41","66.98","196.9","0.0"],
    [1406001,"2026-04-02 16:50:00","43581","5.141","53.2","7.219","56.41","1009.985","15.85","69.78","169.5","0.0"],
    [1406002,"2026-04-02 17:00:00","43582","4.835","51.29","6.991","43.7","1010.165","15.6","70.99","159.2","0.0"],
    [1406003,"2026-04-02 17:10:00","43583","4.04","42.33","6.174","34.98","1010.335","15.42","72.89","149.9","0.0"],
    [1406004,"2026-04-02 17:20:00","43584","4.493","43.49","7.513","45.76","1010.554","15.27","72.38","108.0","0.0"],
    [1406005,"2026-04-02 17:30:00","43585","3.998","40.7","6.958","43.18","1010.7819999999999","14.98","74.25","77.56","0.0"],
    [1406006,"2026-04-02 17:40:00","43586","3.61","41.64","6.337","39.67","1010.9760000000001","14.82","75.61","55.92","0.0"],
    [1406007,"2026-04-02 17:50:00","43587","3.502","40.0","5.586","35.93","1011.1460000000001","14.66","75.66","40.28","0.0"],
    [1406008,"2026-04-02 18:00:00","43588","3.7689999999999997","39.98","6.109","37.58","1011.3389999999999","14.56","74.55","25.26","0.0"],
    [1406009,"2026-04-02 18:10:00","43589","3.68","44.63","5.096","33.47","1011.455","14.45","75.06","13.37","0.0"],
    [1406010,"2026-04-02 18:20:00","43590","3.48","48.27","5.782","46.99","1011.592","14.29","76.4","3.89","0.0"],
    [1406011,"2026-04-02 18:30:00","43591","3.43","48.44","4.965","39.56","1011.883","14.21","78.38","-0.8440000000000001","0.0"],
    [1406012,"2026-04-02 18:40:00","43592","3.5180000000000002","53.44","4.965","55.01","1012.02","14.11","79.16","-2.451","0.0"],
    [1406013,"2026-04-02 18:50:00","43593","3.4760000000000004","59.68","4.933","56.34","1012.201","13.99","78.8","-2.7260000000000004","0.0"],
    [1406014,"2026-04-02 19:00:00","43594","3.1630000000000003","63.67","4.573","63.28","1012.427","13.95","79.16","-2.728","0.0"],
    [1406015,"2026-04-02 19:10:00","43595","2.39","58.38","3.724","61.76","1012.658","13.82","78.71","-2.728","0.0"],
    [1406016,"2026-04-02 19:20:00","43596","2.0580000000000003","50.89","3.071","66.92","1012.8919999999999","13.75","78.55","-2.734","0.0"],
    [1406017,"2026-04-02 19:30:00","43597","2.008","50.4","3.103","66.39","1013.1389999999999","13.73","78.67","-2.795","0.0"],
    [1406018,"2026-04-02 19:40:00","43598","1.473","35.56","2.581","41.18","1013.319","13.57","79.0","-3.0010000000000003","0.0"],
    [1406019,"2026-04-02 19:50:00","43599","1.5759999999999998","30.77","2.352","43.07","1013.55","13.49","79.66","-3.176","0.0"],
    [1406020,"2026-04-02 20:00:00","43600","1.7890000000000001","48.03","2.548","49.14","1013.679","13.55","79.6","-3.2260000000000004","0.0"],
    [1406021,"2026-04-02 20:10:00","43601","1.157","38.89","1.731","56.09","1013.84","13.3","80.3","-3.111","0.0"],
    [1406022,"2026-04-02 20:20:00","43602","1.814","52.55","2.809","59.54","1013.94","13.24","80.8","-3.4619999999999997","0.0"],
    [1406023,"2026-04-02 20:30:00","43603","1.945","45.64","2.679","56.18","1014.06","13.11","81.1","-2.928","0.0"],
    [1406024,"2026-04-02 20:40:00","43604","1.248","28.83","1.927","24.3","1014.201","12.95","81.9","-3.406","0.0"],
    [1406025,"2026-04-02 20:50:00","43605","1.229","34.47","1.927","28.64","1014.21","13.08","81.6","-3.491","0.0"],
    [1406026,"2026-04-02 21:00:00","43606","1.02","7.744","1.339","354.8","1014.334","12.86","81.4","-3.428","0.0"],
    [1406027,"2026-04-02 21:10:00","43607","1.1159999999999999","22.08","1.568","4.147","1014.357","12.66","82.4","-3.495","0.0"],
    [1406028,"2026-04-02 21:20:00","43608","0.865","30.96","1.405","33.5","1014.3539999999999","12.37","82.2","-3.38","0.0"],
    [1406029,"2026-04-02 21:30:00","43609","0.0","0.0","0","0","1014.43","12.13","83.6","-3.512","0.0"],
    [1406030,"2026-04-02 21:40:00","43610","0.556","5.059","1.176","6.39","1014.539","11.79","83.6","-3.505","0.0"],
    [1406031,"2026-04-02 21:50:00","43611","0.665","348.8","1.437","343.9","1014.6039999999999","11.66","84.4","-3.3739999999999997","0.0"],
    [1406032,"2026-04-02 22:00:00","43612","0.575","337.3","1.078","341.3","1014.679","11.42","84.2","-3.343","0.0"],
    [1406033,"2026-04-02 22:10:00","43613","0.777","324.7","1.339","290.7","1014.7460000000001","11.23","84.4","-3.198","0.0"],
    [1406034,"2026-04-02 22:20:00","43614","0.9540000000000001","278.3","1.764","273.5","1014.816","11.29","83.9","-3.568","0.0"],
    [1406035,"2026-04-02 22:30:00","43615","0.9420000000000001","278.4","2.025","297.9","1014.9680000000001","11.61","81.8","-3.5639999999999996","0.0"],
    [1406036,"2026-04-02 22:40:00","43616","1.176","276.3","2.058","284","1015.039","11.28","80.7","-3.6069999999999998","0.0"],
    [1406037,"2026-04-02 22:50:00","43617","0.813","278.5","1.274","282.6","1015.0939999999999","11.17","79.84","-3.839","0.0"],
    [1406038,"2026-04-02 23:00:00","43618","1.195","272.2","2.385","267.4","1015.17","11.19","77.87","-3.802","0.0"],
    [1406039,"2026-04-02 23:10:00","43619","1.3659999999999999","265.6","2.058","272.6","1015.212","11.41","75.35","-3.67","0.0"],
    [1406040,"2026-04-02 23:20:00","43620","1.0270000000000001","272.6","1.862","270.4","1015.21","10.97","75.38","-3.525","0.0"],
    [1406041,"2026-04-02 23:30:00","43621","1.256","269.7","2.254","283.3","1015.2","10.55","76.72","-3.592","0.0"],
    [1406042,"2026-04-02 23:40:00","43622","1.2229999999999999","266.2","2.483","272.4","1015.153","10.86","75.06","-3.695","0.0"],
    [1406043,"2026-04-02 23:50:00","43623","1.578","274.4","2.679","286.7","1015.1310000000001","10.78","72.1","-3.1689999999999996","0.0"],
    [1406044,"2026-04-03 00:00:00","43624","1.589","287.5","2.287","279.4","1015.1060000000001","10.02","74.27","-3.475","0.0"],
    [1406045,"2026-04-03 00:10:00","43625","1.433","302.0","2.123","311.1","1015.123","10.21","72.43","-3.3789999999999996","0.0"],
    [1406046,"2026-04-03 00:20:00","43626","1.4040000000000001","301.4","2.254","306.1","1015.182","10.28","68.8","-3.3369999999999997","0.0"],
    [1406047,"2026-04-03 00:30:00","43627","1.3659999999999999","291.9","2.483","296.9","1015.163","10.57","64.01","-2.9419999999999997","0.0"],
    [1406048,"2026-04-03 00:40:00","43628","1.564","283.7","3.169","278.8","1015.061","10.59","60.23","-3.3539999999999996","0.0"],
    [1406049,"2026-04-03 00:50:00","43629","1.475","274.5","2.287","290.1","1014.9730000000001","10.89","56.07","-3.4589999999999996","0.0"],
    [1406050,"2026-04-03 01:00:00","43630","1.224","297.2","1.764","302.5","1014.98","10.76","56.72","-2.965","0.0"],
    [1406051,"2026-04-03 01:10:00","43631","1.534","295.9","2.319","299.2","1014.977","10.48","55.99","-3.51","0.0"],
    [1406052,"2026-04-03 01:20:00","43632","1.77","275.0","2.875","271.5","1015.063","11.49","49.24","-3.713","0.0"],
    [1406053,"2026-04-03 01:30:00","43633","1.439","267.6","2.744","252.3","1015.2330000000001","11.63","49.4","-3.238","0.0"],
    [1406054,"2026-04-03 01:40:00","43634","1.5219999999999998","292.3","2.45","295.2","1015.296","10.97","51.34","-3.438","0.0"],
    [1406055,"2026-04-03 01:50:00","43635","0.85","274.4","1.568","299.7","1015.23","10.82","49.02","-3.659","0.0"],
    [1406056,"2026-04-03 02:00:00","43636","1.736","237.4","2.287","231.3","1015.192","11.39","47.68","-3.345","0.0"],
    [1406057,"2026-04-03 02:10:00","43637","0.946","249.0","1.829","252.2","1015.217","11.05","49.94","-3.147","0.0"],
    [1406058,"2026-04-03 02:20:00","43638","1.127","235.4","1.96","220.3","1015.242","10.64","51.01","-3.513","0.0"],
    [1406059,"2026-04-03 02:30:00","43639","1.165","215.2","2.254","226.9","1015.221","10.57","50.62","-3.202","0.0"],
    [1406060,"2026-04-03 02:40:00","43640","0.139","263.5","1.013","264.3","1015.2","10.01","53.05","-3.5460000000000003","0.0"],
    [1406061,"2026-04-03 02:50:00","43641","1.1159999999999999","282.5","2.973","306.5","1015.091","9.21","58.75","-3.5269999999999997","0.0"],
    [1406062,"2026-04-03 03:00:00","43642","1.4180000000000001","284.5","2.777","301.9","1015.143","9.06","58.47","-3.286","0.0"],
    [1406063,"2026-04-03 03:10:00","43643","0.24100000000000002","271.4","1.176","279.2","1015.2139999999999","9.74","52.64","-3.178","0.0"],
    [1406064,"2026-04-03 03:20:00","43644","1.136","291.2","2.613","269.4","1015.2669999999999","10.3","49.58","-3.0660000000000003","0.0"],
    [1406065,"2026-04-03 03:30:00","43645","1.54","267.2","2.483","266.3","1015.253","9.92","52.63","-3.208","0.0"],
    [1406066,"2026-04-03 03:40:00","43646","1.306","234.6","1.699","240.3","1015.3380000000001","10.07","51.54","-3.155","0.0"],
    [1406067,"2026-04-03 03:50:00","43647","0.9309999999999999","246.3","1.405","251.1","1015.426","9.77","52.65","-3.05","0.0"],
    [1406068,"2026-04-03 04:00:00","43648","1.215","278.4","1.993","286","1015.573","8.82","57.85","-3.275","0.0"],
    [1406069,"2026-04-03 04:10:00","43649","1.047","274.4","1.797","277.4","1015.7260000000001","8.77","57.81","-3.432","0.0"],
    [1406070,"2026-04-03 04:20:00","43650","1.5530000000000002","287.6","2.581","268.6","1015.885","9.27","55.17","-3.218","0.0"],
    [1406071,"2026-04-03 04:30:00","43651","1.9080000000000001","298.4","2.907","315.5","1015.9780000000001","8.9","56.96","-2.9","0.0"],
    [1406072,"2026-04-03 04:40:00","43652","1.9609999999999999","296.3","2.515","305.6","1016.067","8.75","57.42","-3.0639999999999996","0.0"],
    [1406073,"2026-04-03 04:50:00","43653","1.764","298.6","2.581","315.6","1016.073","8.47","58.83","-3.138","0.0"],
    [1406074,"2026-04-03 05:00:00","43654","1.7530000000000001","300.2","2.842","289.1","1016.135","8.63","57.59","-3.052","0.0"],
    [1406075,"2026-04-03 05:10:00","43655","2.9","308.8","4.737","305.8","1016.174","9.61","54.58","-3.7510000000000003","0.0"],
    [1406076,"2026-04-03 05:20:00","43656","2.875","310.9","4.541","308.2","1016.255","10.42","52.38","-2.9139999999999997","0.0"],
    [1406077,"2026-04-03 05:30:00","43657","3.1289999999999996","312.6","4.475","317.6","1016.378","10.75","51.86","-1.137","0.0"],
    [1406078,"2026-04-03 05:40:00","43658","3.612","310.6","5.357","313.2","1016.4839999999999","10.95","51.74","4.05","0.0"],
    [1406079,"2026-04-03 05:50:00","43659","3.701","309.5","5.978","321.3","1016.689","10.78","52.9","19.94","0.0"],
    [1406080,"2026-04-03 06:00:00","43660","3.928","314.6","6.109","323.8","1016.825","11.05","52.03","40.13","0.0"],
    [1406081,"2026-04-03 06:10:00","43661","4.011","320.3","6.403","307.2","1016.915","11.4","50.96","66.08","0.0"],
    [1406082,"2026-04-03 06:20:00","43662","3.716","320.4","5.847","300.6","1017.07","11.54","50.92","89.1","0.0"],
    [1406083,"2026-04-03 06:30:00","43663","3.645","324.1","5.521","315.7","1017.217","11.68","50.39","110.7","0.0"],
    [1406084,"2026-04-03 06:40:00","43664","2.8960000000000004","327.8","4.867","336.5","1017.3580000000001","11.97","49.29","135.7","0.0"],
    [1406085,"2026-04-03 06:50:00","43665","2.968","320.8","4.737","314","1017.538","12.28","48.26","167.2","0.0"],
    [1406086,"2026-04-03 07:00:00","43666","3.8560000000000003","315.1","5.521","304.5","1017.6669999999999","12.53","46.95","202.6","0.0"],
    [1406087,"2026-04-03 07:10:00","43667","3.34","314.2","5.259","316.5","1017.79","12.84","46.06","240.7","0.0"],
    [1406088,"2026-04-03 07:20:00","43668","3.6060000000000003","313.9","5.129","316.6","1017.8380000000001","13.01","45.53","279.8","0.0"],
    [1406089,"2026-04-03 07:30:00","43669","3.89","311.0","5.749","309.9","1017.895","13.17","45.18","319.5","0.0"],
    [1406090,"2026-04-03 07:40:00","43670","4.195","305.8","6.37","305.6","1018.035","13.47","44.15","339.6","0.0"],
    [1406091,"2026-04-03 07:50:00","43671","3.7319999999999998","302.2","5.521","302.2","1018.1610000000001","13.83","42.6","394.0","0.0"],
    [1406092,"2026-04-03 08:00:00","43672","3.8","308.1","5.619","326.8","1018.268","14.22","40.96","412.0","0.0"],
    [1406093,"2026-04-03 08:10:00","43673","3.9210000000000003","305.1","5.749","300.5","1018.431","14.44","41.02","466.6","0.0"],
    [1406094,"2026-04-03 08:20:00","43674","4.132","308.4","5.815","311.1","1018.5219999999999","14.68","40.72","500.0","0.0"],
    [1406095,"2026-04-03 08:30:00","43675","3.194","319.2","5.325","316.6","1018.6410000000001","14.87","40.57","530.9","0.0"],
    [1406096,"2026-04-03 08:40:00","43676","2.6189999999999998","323.1","4.116","329.6","1018.7339999999999","15.43","39.03","561.8","0.0"],
    [1406097,"2026-04-03 08:50:00","43677","2.46","309.9","4.9","304.9","1018.846","16.08","37.78","590.6","0.0"],
    [1406098,"2026-04-03 09:00:00","43678","3.245","302.8","4.704","308.5","1019.02","16.17","37.71","620.9","0.0"],
    [1406099,"2026-04-03 09:10:00","43679","3.3169999999999997","306.4","4.573","306.1","1019.1010000000001","16.27","37.87","647.8","0.0"],
    [1406100,"2026-04-03 09:20:00","43680","3.168","298.9","5.031","310.9","1019.148","16.68","35.59","673.8","0.0"],
    [1406101,"2026-04-03 09:30:00","43681","2.133","286.4","3.985","295.5","1019.1510000000001","17.01","35.99","696.2","0.0"],
    [1406102,"2026-04-03 09:40:00","43682","2.115","239.2","4.377","212.1","1019.1569999999999","17.13","36.93","718.3","0.0"],
    [1406103,"2026-04-03 09:50:00","43683","2.7430000000000003","209.6","4.214","227.7","1019.1439999999999","16.95","40.88","740.0","0.0"],
    [1406104,"2026-04-03 10:00:00","43684","2.9410000000000003","194.9","5.423","221.4","1019.204","17.12","44.07","759.6","0.0"],
    [1406105,"2026-04-03 10:10:00","43685","3.2560000000000002","190.2","5.488","178.8","1019.335","16.56","45.7","779.7","0.0"],
    [1406106,"2026-04-03 10:20:00","43686","2.702","200.6","4.377","215.8","1019.383","16.81","44.59","797.4","0.0"],
    [1406107,"2026-04-03 10:30:00","43687","2.8139999999999996","187.9","5.423","172.5","1019.426","17.08","43.12","812.0","0.0"],
    [1406108,"2026-04-03 10:40:00","43688","3.12","177.2","4.508","188.2","1019.4060000000001","16.56","42.17","828.0","0.0"],
    [1406109,"2026-04-03 10:50:00","43689","2.997","187.2","4.965","189.2","1019.332","16.67","43.55","838.0","0.0"],
    [1406110,"2026-04-03 11:00:00","43690","2.806","190.5","5.129","190.6","1019.258","17.18","42.85","848.0","0.0"],
    [1406111,"2026-04-03 11:10:00","43691","3.387","192.3","5.586","185.5","1019.206","17.32","42.4","859.0","0.0"],
    [1406112,"2026-04-03 11:20:00","43692","3.8489999999999998","208.4","6.533","208.6","1019.2489999999999","17.09","46.02","866.0","0.0"],
    [1406113,"2026-04-03 11:30:00","43693","3.5010000000000003","197.2","5.651","185.5","1019.28","16.95","43.68","873.0","0.0"],
    [1406114,"2026-04-03 11:40:00","43694","3.995","210.1","6.533","228.3","1019.2689999999999","16.6","46.61","875.0","0.0"],
    [1406115,"2026-04-03 11:50:00","43695","3.7560000000000002","203.8","6.599","227.5","1019.301","16.57","46.11","878.0","0.0"],
    [1406116,"2026-04-03 12:00:00","43696","3.339","199.5","5.945","227.8","1019.178","17.13","45.6","879.0","0.0"],
    [1406117,"2026-04-03 12:10:00","43697","4.112","190.2","6.795","174","1019.1060000000001","17.02","41.4","879.0","0.0"],
    [1406118,"2026-04-03 12:20:00","43698","3.845","204.4","6.37","212","1019.046","17.11","43.55","875.0","0.0"],
    [1406119,"2026-04-03 12:30:00","43699","3.773","204.8","6.305","223.7","1018.957","17.11","42.3","871.0","0.0"],
    [1406120,"2026-04-03 12:40:00","43700","3.285","202.6","6.011","212.1","1018.87","17.47","39.8","865.0","0.0"],
    [1406121,"2026-04-03 12:50:00","43701","3.565","201.8","6.468","222.4","1018.7719999999999","17.69","37.35","858.0","0.0"],
    [1406122,"2026-04-03 13:00:00","43702","3.918","193.2","5.717","189.5","1018.691","17.57","38.5","850.0","0.0"],
    [1406123,"2026-04-03 13:10:00","43703","3.892","198.6","6.86","180.2","1018.6210000000001","17.1","42.53","839.0","0.0"],
    [1406124,"2026-04-03 13:20:00","43704","3.719","194.5","7.35","174.6","1018.5089999999999","17.09","46.48","825.0","0.0"],
    [1406125,"2026-04-03 13:30:00","43705","3.551","192.6","5.847","176","1018.4119999999999","17.13","49.24","810.0","0.0"],
    [1406126,"2026-04-03 13:40:00","43706","3.748","193.0","6.403","179.1","1018.3530000000001","16.95","54.01","794.0","0.0"],
    [1406127,"2026-04-03 13:50:00","43707","4.505","210.3","6.795","220.6","1018.35","16.84","54.35","775.9","0.0"],
    [1406128,"2026-04-03 14:00:00","43708","4.011","205.6","7.546","219.3","1018.355","16.95","52.45","757.8","0.0"],
    [1406129,"2026-04-03 14:10:00","43709","3.515","190.8","6.174","217.2","1018.2710000000001","17.39","47.07","735.4","0.0"],
    [1406130,"2026-04-03 14:20:00","43710","3.3569999999999998","183.1","6.435","180.5","1018.2410000000001","17.32","46.23","710.9","0.0"],
    [1406131,"2026-04-03 14:30:00","43711","2.937","179.5","4.835","165.3","1018.174","17.88","44.07","686.1","0.0"],
    [1406132,"2026-04-03 14:40:00","43712","2.835","180.4","5.749","165.2","1018.076","17.67","45.8","659.0","0.0"],
    [1406133,"2026-04-03 14:50:00","43713","3.713","175.0","5.913","163.1","1018.018","17.23","50.75","631.9","0.0"],
    [1406134,"2026-04-03 15:00:00","43714","3.775","173.4","5.782","161.3","1018.0039999999999","17.0","52.47","602.6","0.0"],
    [1406135,"2026-04-03 15:10:00","43715","3.968","174.7","6.827","164.2","1017.937","17.03","56.81","572.3","0.0"],
    [1406136,"2026-04-03 15:20:00","43716","4.518","167.2","7.383","163.5","1017.9639999999999","16.61","60.68","540.5","0.0"],
    [1406137,"2026-04-03 15:30:00","43717","5.211","168.6","6.729","168.7","1017.9680000000001","16.29","63.03","508.8","0.0"],
    [1406138,"2026-04-03 15:40:00","43718","3.486","172.0","6.893","187.1","1017.937","16.58","62.58","474.0","0.0"],
    [1406139,"2026-04-03 15:50:00","43719","3.114","168.0","5.782","182.1","1017.9760000000001","16.78","63.13","440.1","0.0"],
    [1406140,"2026-04-03 16:00:00","43720","1.476","153.7","4.475","172.7","1018.069","17.27","62.36","404.9","0.0"],
    [1406141,"2026-04-03 16:10:00","43721","1.137","139.4","3.724","105","1018.176","17.23","62.9","371.4","0.0"],
    [1406142,"2026-04-03 16:20:00","43722","1.202","120.5","4.051","131.3","1018.297","17.31","61.79","337.6","0.0"],
    [1406143,"2026-04-03 16:30:00","43723","1.4609999999999999","131.0","3.724","127.1","1018.449","16.49","65.87","290.0","0.0"],
    [1406144,"2026-04-03 16:40:00","43724","1.178","141.2","3.365","111.3","1018.579","16.55","66.64","269.1","0.0"],
    [1406145,"2026-04-03 16:50:00","43725","0.899","128.1","3.071","120.5","1018.702","16.59","65.94","222.7","0.0"],
    [1406146,"2026-04-03 17:00:00","43726","1.6540000000000001","125.6","3.822","101.1","1018.7769999999999","16.24","64.97","203.3","0.0"],
    [1406147,"2026-04-03 17:10:00","43727","0.8809999999999999","132.9","3.691","160.8","1018.99","16.18","65.7","169.7","0.0"],
    [1406148,"2026-04-03 17:20:00","43728","1.348","145.4","3.724","105.4","1019.232","16.03","65.54","137.9","0.0"],
    [1406149,"2026-04-03 17:30:00","43729","1.1440000000000001","120.8","3.463","103.6","1019.382","15.81","68.13","109.1","0.0"],
    [1406150,"2026-04-03 17:40:00","43730","1.217","155.9","3.561","163.7","1019.568","15.73","68.6","81.2","0.0"],
    [1406151,"2026-04-03 17:50:00","43731","2.147","166.3","4.443","174.6","1019.705","15.36","70.35","39.83","0.0"],
    [1406152,"2026-04-03 18:00:00","43732","2.086","166.0","3.822","179.8","1019.868","15.22","72.38","20.43","0.0"],
    [1406153,"2026-04-03 18:10:00","43733","2.28","166.1","3.953","164.6","1019.9789999999999","15.01","74.26","11.44","0.0"],
    [1406154,"2026-04-03 18:20:00","43734","2.316","197.7","4.214","223.6","1020.06","14.9","75.66","3.727","0.0"],
    [1406155,"2026-04-03 18:30:00","43735","2.052","197.0","4.573","216.3","1020.1669999999999","14.69","75.36","-0.6579999999999999","0.0"],
    [1406156,"2026-04-03 18:40:00","43736","2.092","190.6","4.051","177.2","1020.217","14.47","76.16","-2.48","0.0"],
    [1406157,"2026-04-03 18:50:00","43737","2.535","184.4","3.92","169.8","1020.278","14.42","75.54","-2.727","0.0"],
    [1406158,"2026-04-03 19:00:00","43738","2.171","189.7","3.789","182.4","1020.425","14.37","75.15","-2.728","0.0"],
    [1406159,"2026-04-03 19:10:00","43739","2.428","189.2","4.312","186.9","1020.51","14.35","75.16","-2.728","0.0"],
    [1406160,"2026-04-03 19:20:00","43740","2.089","193.8","4.541","175.5","1020.6089999999999","14.33","75.35","-2.728","0.0"],
    [1406161,"2026-04-03 19:30:00","43741","1.585","201.5","2.777","214.9","1020.7189999999999","14.21","76.38","-2.737","0.0"],
    [1406162,"2026-04-03 19:40:00","43742","1.506","194.1","3.299","177.6","1020.824","14.13","77.73","-2.793","0.0"],
    [1406163,"2026-04-03 19:50:00","43743","1.3319999999999999","197.3","2.973","194.2","1020.988","14.06","78.19","-2.8480000000000003","0.0"],
    [1406164,"2026-04-03 20:00:00","43744","1.401","201.2","2.907","206.3","1021.033","13.99","79.06","-2.7510000000000003","0.0"],
    [1406165,"2026-04-03 20:10:00","43745","2.272","207.6","3.822","223.6","1021.13","14.01","79.47","-2.765","0.0"],
    [1406166,"2026-04-03 20:20:00","43746","1.936","206.9","3.561","214.3","1021.2639999999999","14.01","79.24","-2.7439999999999998","0.0"],
    [1406167,"2026-04-03 20:30:00","43747","1.719","206.6","3.528","210.8","1021.3439999999999","13.95","79.48","-2.745","0.0"],
    [1406168,"2026-04-03 20:40:00","43748","2.171","214.5","5.031","233","1021.488","13.96","80.2","-2.801","0.0"],
    [1406169,"2026-04-03 20:50:00","43749","2.44","213.7","5.847","213.7","1021.571","13.99","80.7","-2.752","0.0"],
    [1406170,"2026-04-03 21:00:00","43750","2.3280000000000003","213.7","5.227","207","1021.6030000000001","13.93","81.3","-2.752","0.0"],
    [1406171,"2026-04-03 21:10:00","43751","1.9280000000000002","213.4","3.234","233.6","1021.6260000000001","13.82","82.0","-2.753","0.0"],
    [1406172,"2026-04-03 21:20:00","43752","1.61","207.4","3.136","179.4","1021.663","13.71","81.7","-2.8810000000000002","0.0"],
    [1406173,"2026-04-03 21:30:00","43753","1.61","204.9","3.201","195.1","1021.725","13.75","81.6","-2.833","0.0"],
    [1406174,"2026-04-03 21:40:00","43754","2.246","211.1","3.397","212.5","1021.6310000000001","13.77","81.8","-2.986","0.0"],
    [1406175,"2026-04-03 21:50:00","43755","1.5290000000000001","206.5","3.332","195.8","1021.6619999999999","13.76","82.2","-2.772","0.0"],
    [1406176,"2026-04-03 22:00:00","43756","1.3019999999999998","210.9","3.038","208.2","1021.909","13.64","82.7","-2.8289999999999997","0.0"],
    [1406177,"2026-04-03 22:10:00","43757","1.284","210.7","2.581","226.8","1022.005","13.57","83.1","-2.8689999999999998","0.0"],
    [1406178,"2026-04-03 22:20:00","43758","1.5619999999999998","217.5","2.581","205.1","1022.0039999999999","13.59","83.5","-2.7769999999999997","0.0"],
    [1406179,"2026-04-03 22:30:00","43759","1.2209999999999999","237.9","2.417","218.9","1021.9910000000001","13.34","83.4","-2.76","0.0"],
    [1406180,"2026-04-03 22:40:00","43760","0.932","257.0","1.862","286.5","1022.0269999999999","13.03","83.0","-2.7880000000000003","0.0"],
    [1406181,"2026-04-03 22:50:00","43761","1.295","269.3","2.646","275.4","1022.075","12.8","82.3","-2.806","0.0"],
    [1406182,"2026-04-03 23:00:00","43762","0.657","280.8","1.699","282.4","1022.176","12.4","82.2","-2.8560000000000003","0.0"],
    [1406183,"2026-04-03 23:10:00","43763","0.91","265.8","1.601","253.6","1022.242","12.1","83.0","-2.79","0.0"],
    [1406184,"2026-04-03 23:20:00","43764","0.9329999999999999","257.2","1.666","258.7","1022.198","12.07","82.5","-2.7680000000000002","0.0"],
    [1406185,"2026-04-03 23:30:00","43765","0.588","249.7","1.535","283.2","1022.237","12.05","82.1","-2.763","0.0"],
    [1406186,"2026-04-03 23:40:00","43766","0.841","270.5","NAN","283.2","1022.2769999999999","11.91","82.2","-2.7689999999999997","0.0"],
    [1406187,"2026-04-03 23:50:00","43767","1.361","277.8","NAN","283.2","1022.308","11.62","83.1","-2.762","0.0"],
    [1406188,"2026-04-04 00:00:00","43768","0.8270000000000001","275.9","NAN","283.2","1022.3580000000001","11.17","83.6","-2.766","0.0"],
    [1406189,"2026-04-04 00:10:00","43769","1.306","271.0","2.221","256.7","1022.3489999999999","11.17","84.4","-2.779","0.0"],
    [1406190,"2026-04-04 00:20:00","43770","0.93","272.5","1.797","249.3","1022.304","11.17","84.0","-2.761","0.0"],
    [1406191,"2026-04-04 00:30:00","43771","1.419","295.2","2.483","287.4","1022.293","11.04","84.4","-2.7910000000000004","0.0"],
    [1406192,"2026-04-04 00:40:00","43772","1.305","288.2","2.45","295.2","1022.245","11.28","84.2","-2.761","0.0"],
    [1406193,"2026-04-04 00:50:00","43773","1.1340000000000001","274.6","2.319","280.3","1022.096","11.44","83.5","-2.762","0.0"],
    [1406194,"2026-04-04 01:00:00","43774","0.77","290.5","1.437","290.9","1022.074","11.36","82.8","-2.762","0.0"],
    [1406195,"2026-04-04 01:10:00","43775","0.9440000000000001","291.9","1.797","291.2","1022.107","10.97","83.7","-2.764","0.0"],
    [1406196,"2026-04-04 01:20:00","43776","1.218","285.5","2.744","295.6","1022.102","10.97","84.1","-2.763","0.0"],
    [1406197,"2026-04-04 01:30:00","43777","1.393","272.8","2.679","272.7","1022.0369999999999","11.12","83.7","-2.775","0.0"],
    [1406198,"2026-04-04 01:40:00","43778","1.464","281.5","2.842","285.6","1022.06","11.1","83.4","-2.762","0.0"],
    [1406199,"2026-04-04 01:50:00","43779","1.396","269.6","2.515","258.1","1022.045","11.09","83.4","-2.762","0.0"],
    [1406200,"2026-04-04 02:00:00","43780","1.7069999999999999","283.9","3.071","289.6","1022.039","10.91","83.2","-2.752","0.0"],
    [1406201,"2026-04-04 02:10:00","43781","1.828","283.8","2.94","293.8","1021.9789999999999","10.6","84.0","-2.761","0.0"],
    [1406202,"2026-04-04 02:20:00","43782","1.881","283.4","2.875","283.9","1021.914","10.37","84.6","-2.759","0.0"],
    [1406203,"2026-04-04 02:30:00","43783","1.526","282.2","2.483","281.1","1021.916","10.19","85.0","-2.7569999999999997","0.0"],
    [1406204,"2026-04-04 02:40:00","43784","1.16","292.6","2.025","293.4","1021.993","10.16","85.1","-2.761","0.0"],
    [1406205,"2026-04-04 02:50:00","43785","0.991","266.1","2.091","275.4","1021.97","10.26","85.0","-2.767","0.0"],
    [1406206,"2026-04-04 03:00:00","43786","1.068","265.3","2.156","278.3","1021.875","10.31","84.5","-2.761","0.0"],
    [1406207,"2026-04-04 03:10:00","43787","0.9570000000000001","269.0","1.862","285.7","1021.784","10.3","84.1","-2.761","0.0"],
    [1406208,"2026-04-04 03:20:00","43788","1.147","268.8","2.385","280","1021.648","10.31","83.2","-2.761","0.0"],
    [1406209,"2026-04-04 03:30:00","43789","1.351","277.8","2.287","297.4","1021.61","10.43","81.9","-2.76","0.0"],
    [1406210,"2026-04-04 03:40:00","43790","1.3719999999999999","268.0","2.646","268.2","1021.54","10.58","80.7","-2.734","0.0"],
    [1406211,"2026-04-04 03:50:00","43791","1.4809999999999999","272.3","2.875","267.6","1021.5189999999999","10.51","79.8","-2.753","0.0"],
    [1406212,"2026-04-04 04:00:00","43792","0.97","280.1","1.829","267.9","1021.5089999999999","10.49","78.95","-2.745","0.0"],
    [1406213,"2026-04-04 04:10:00","43793","0.64","293.1","1.503","292.4","1021.5219999999999","10.26","78.93","-2.761","0.0"],
    [1406214,"2026-04-04 04:20:00","43794","0.147","295.9","0.719","293.3","1021.449","9.97","80.4","-2.765","0.0"],
    [1406215,"2026-04-04 04:30:00","43795","0.43799999999999994","274.7","1.241","275.3","1021.54","10.29","79.08","-2.637","0.0"],
    [1406216,"2026-04-04 04:40:00","43796","0.7","288.1","1.405","271.8","1021.8","10.06","79.34","-2.76","0.0"],
    [1406217,"2026-04-04 04:50:00","43797","0.26899999999999996","271.1","1.176","271.7","1021.885","10.24","77.44","-2.696","0.0"],
    [1406218,"2026-04-04 05:00:00","43798","0.077","264.7","0.588","258.5","1021.946","10.49","74.63","-2.5989999999999998","0.0"],
    [1406219,"2026-04-04 05:10:00","43799","1.063","260.8","2.091","272.1","1022.0060000000001","10.78","71.36","-2.6289999999999996","0.0"],
    [1406220,"2026-04-04 05:20:00","43800","0.47100000000000003","262.9","1.274","231.8","1022.046","10.97","68.68","-1.6119999999999999","0.0"],
    [1406221,"2026-04-04 05:30:00","43801","0.9","248.4","1.731","231.9","1022.085","10.72","69.86","0.446","0.0"],
    [1406222,"2026-04-04 05:40:00","43802","0.306","234.9","0.849","222","1022.232","10.72","70.13","6.189","0.0"],
    [1406223,"2026-04-04 05:50:00","43803","0.662","259.4","1.666","267.6","1022.3510000000001","10.72","70.39","21.04","0.0"],
    [1406224,"2026-04-04 06:00:00","43804","0.509","259.0","1.666","267.6","1022.3910000000001","10.98","69.33","41.4","0.0"],
    [1406225,"2026-04-04 06:10:00","43805","0.021","252.0","0.555","252","1022.549","11.09","69.12","61.83","0.0"],
    [1406226,"2026-04-04 06:20:00","43806","0.0","0.0","0","0","1022.65","11.45","69.45","81.2","0.0"],
    [1406227,"2026-04-04 06:30:00","43807","0.115","271.3","0.849","271.4","1022.712","11.66","68.4","85.6","0.0"],
    [1406228,"2026-04-04 06:40:00","43808","0.027999999999999997","271.5","0.261","271.5","1022.75","12.55","66.81","128.8","0.0"],
    [1406229,"2026-04-04 06:50:00","43809","0.0","0.0","0","0","1022.935","12.92","67.0","159.4","0.0"],
    [1406230,"2026-04-04 07:00:00","43810","0.17","270.9","0.588","271.1","1023.046","13.83","65.65","192.8","0.0"],
    [1406231,"2026-04-04 07:10:00","43811","0.051","272.5","0.686","271.8","1023.118","14.45","68.04","228.4","0.0"],
    [1406232,"2026-04-04 07:20:00","43812","0.7879999999999999","274.5","1.731","262.5","1023.176","14.7","65.89","268.3","0.0"],
    [1406233,"2026-04-04 07:30:00","43813","1.1340000000000001","293.4","1.764","299.1","1023.187","14.73","61.22","306.2","0.0"],
    [1406234,"2026-04-04 07:40:00","43814","1.591","314.3","2.515","319","1023.203","15.39","53.43","329.1","0.0"],
    [1406235,"2026-04-04 07:50:00","43815","1.643","349.2","2.744","331.3","1023.24","16.0","50.08","373.8","0.0"],
    [1406236,"2026-04-04 08:00:00","43816","1.266","10.02","3.103","306.7","1023.308","16.48","50.23","395.0","0.0"],
    [1406237,"2026-04-04 08:10:00","43817","1.5519999999999998","80.8","2.515","70.68","1023.3710000000001","16.32","60.23","447.3","0.0"],
    [1406238,"2026-04-04 08:20:00","43818","1.787","85.7","2.417","80","1023.455","16.17","62.32","479.8","0.0"],
    [1406239,"2026-04-04 08:30:00","43819","1.3869999999999998","96.1","2.189","66.71","1023.4760000000001","16.5","60.26","506.8","0.0"],
    [1406240,"2026-04-04 08:40:00","43820","2.051","335.6","3.953","275.3","1023.3860000000001","16.6","56.81","537.8","0.0"],
    [1406241,"2026-04-04 08:50:00","43821","1.874","305.5","3.593","305.1","1023.5039999999999","16.89","52.92","568.2","0.0"],
    [1406242,"2026-04-04 09:00:00","43822","1.396","268.8","3.43","302.2","1023.549","17.3","54.75","595.4","0.0"],
    [1406243,"2026-04-04 09:10:00","43823","1.3780000000000001","98.7","2.581","90.2","1023.622","17.19","58.89","618.2","0.0"],
    [1406244,"2026-04-04 09:20:00","43824","1.2770000000000001","169.8","2.842","169.4","1023.5889999999999","17.06","58.09","645.2","0.0"],
    [1406245,"2026-04-04 09:30:00","43825","1.6669999999999998","122.4","3.169","117.6","1023.5419999999999","17.19","59.28","668.7","0.0"],
    [1406246,"2026-04-04 09:40:00","43826","1.433","117.2","3.169","130.2","1023.477","17.26","62.2","692.7","0.0"],
    [1406247,"2026-04-04 09:50:00","43827","1.577","140.2","3.495","117.5","1023.446","17.37","62.93","713.5","0.0"],
    [1406248,"2026-04-04 10:00:00","43828","2.9210000000000003","210.1","4.541","212.2","1023.415","18.19","58.19","733.6","0.0"],
    [1406249,"2026-04-04 10:10:00","43829","3.491","211.4","5.913","206.3","1023.4110000000001","18.61","57.26","753.8","0.0"],
    [1406250,"2026-04-04 10:20:00","43830","3.37","212.6","5.619","195.9","1023.385","18.42","59.62","770.5","0.0"],
    [1406251,"2026-04-04 10:30:00","43831","3.487","205.4","6.174","207","1023.321","18.44","59.14","786.1","0.0"],
    [1406252,"2026-04-04 10:40:00","43832","3.7969999999999997","206.9","7.611","187.7","1023.298","18.14","60.39","801.0","0.0"],
    [1406253,"2026-04-04 10:50:00","43833","2.694","193.0","4.704","185.8","1023.342","18.53","58.01","811.0","0.0"],
    [1406254,"2026-04-04 11:00:00","43834","3.205","200.2","6.762","173.7","1023.325","18.59","58.68","823.0","0.0"],
    [1406255,"2026-04-04 11:10:00","43835","3.637","214.1","5.717","218.7","1023.318","18.17","63.89","834.0","0.0"],
    [1406256,"2026-04-04 11:20:00","43836","3.057","194.7","5.227","212.2","1023.291","18.18","65.83","842.0","0.0"],
    [1406257,"2026-04-04 11:30:00","43837","3.168","201.3","5.978","205.4","1023.2610000000001","18.56","62.7","847.0","0.0"],
    [1406258,"2026-04-04 11:40:00","43838","3.94","204.6","6.501","229.9","1023.22","18.51","63.2","852.0","0.0"],
    [1406259,"2026-04-04 11:50:00","43839","3.31","204.7","6.109","217.2","1023.17","18.21","62.43","854.0","0.0"],
    [1406260,"2026-04-04 12:00:00","43840","3.5439999999999996","192.4","5.651","169.3","1023.194","18.28","61.47","855.0","0.0"],
    [1406261,"2026-04-04 12:10:00","43841","3.325","208.3","5.39","227.6","1023.137","18.47","60.17","853.0","0.0"],
    [1406262,"2026-04-04 12:20:00","43842","3.5589999999999997","202.8","6.239","217","1023.0169999999999","18.6","55.79","853.0","0.0"],
    [1406263,"2026-04-04 12:30:00","43843","3.5269999999999997","199.7","5.749","209.2","1023.0210000000001","18.21","57.53","847.0","0.0"],
    [1406264,"2026-04-04 12:40:00","43844","3.6910000000000003","207.1","6.011","229.4","1022.9689999999999","18.63","53.8","840.0","0.0"],
    [1406265,"2026-04-04 12:50:00","43845","3.785","208.1","5.782","204.9","1022.8589999999999","18.43","51.22","833.0","0.0"],
    [1406266,"2026-04-04 13:00:00","43846","3.5589999999999997","198.4","6.566","174.3","1022.795","18.59","52.32","824.0","0.0"],
    [1406267,"2026-04-04 13:10:00","43847","3.4819999999999998","204.4","5.717","215.5","1022.679","18.58","52.25","813.0","0.0"],
    [1406268,"2026-04-04 13:20:00","43848","3.5189999999999997","196.2","5.782","177.2","1022.592","18.5","52.97","802.0","0.0"],
    [1406269,"2026-04-04 13:30:00","43849","3.589","208.7","6.174","216.9","1022.497","18.53","56.34","789.1","0.0"],
    [1406270,"2026-04-04 13:40:00","43850","3.302","207.8","5.815","198.3","1022.375","18.77","55.69","768.7","0.0"],
    [1406271,"2026-04-04 13:50:00","43851","3.177","204.8","5.749","221.9","1022.294","18.99","54.85","756.6","0.0"],
    [1406272,"2026-04-04 14:00:00","43852","3.938","212.8","6.991","200.7","1022.2230000000001","18.47","56.87","739.1","0.0"],
    [1406273,"2026-04-04 14:10:00","43853","4.247","211.1","6.925","213","1022.182","18.08","57.83","717.8","0.0"],
    [1406274,"2026-04-04 14:20:00","43854","3.653","208.7","6.305","212.8","1022.077","18.39","58.37","693.9","0.0"],
    [1406275,"2026-04-04 14:30:00","43855","3.8930000000000002","211.2","6.762","210","1022.013","18.35","55.17","671.5","0.0"],
    [1406276,"2026-04-04 14:40:00","43856","3.7510000000000003","208.1","5.88","218.2","1021.941","18.74","52.66","645.6","0.0"],
    [1406277,"2026-04-04 14:50:00","43857","3.4810000000000003","204.2","6.207","220.8","1021.862","18.38","54.13","620.5","0.0"],
    [1406278,"2026-04-04 15:00:00","43858","2.832","198.3","5.619","171.4","1021.841","18.55","53.6","591.4","0.0"],
    [1406279,"2026-04-04 15:10:00","43859","3.655","211.9","6.631","217.7","1021.819","18.25","56.58","561.5","0.0"],
    [1406280,"2026-04-04 15:20:00","43860","3.342","208.6","5.161","220.7","1021.814","18.38","59.09","529.8","0.0"],
    [1406281,"2026-04-04 15:30:00","43861","3.233","206.9","5.521","213.1","1021.831","18.32","57.42","499.1","0.0"],
    [1406282,"2026-04-04 15:40:00","43862","3.5980000000000003","210.0","5.684","222.4","1021.7719999999999","18.44","53.25","467.5","0.0"],
    [1406283,"2026-04-04 15:50:00","43863","4.2","212.7","6.958","217.1","1021.747","18.26","52.43","435.5","0.0"],
    [1406284,"2026-04-04 16:00:00","43864","3.883","210.8","6.566","211.1","1021.7360000000001","18.21","54.95","402.5","0.0"],
    [1406285,"2026-04-04 16:10:00","43865","3.6039999999999996","210.3","6.141","210.1","1021.7130000000001","18.01","56.35","369.4","0.0"],
    [1406286,"2026-04-04 16:20:00","43866","3.997","213.9","7.513","222.9","1021.695","17.94","56.27","335.9","0.0"],
    [1406287,"2026-04-04 16:30:00","43867","4.106","215.1","7.121","228.5","1021.695","17.98","55.62","289.7","0.0"],
    [1406288,"2026-04-04 16:40:00","43868","4.465","212.5","7.154","217.1","1021.693","17.76","55.52","270.0","0.0"],
    [1406289,"2026-04-04 16:50:00","43869","3.9139999999999997","217.9","6.958","222.4","1021.7260000000001","17.7","56.71","224.5","0.0"],
    [1406290,"2026-04-04 17:00:00","43870","4.337","218.0","7.905","217","1021.75","17.71","55.45","203.7","0.0"],
    [1406291,"2026-04-04 17:10:00","43871","4.164","217.8","7.546","221.4","1021.758","17.42","55.47","171.0","0.0"],
    [1406292,"2026-04-04 17:20:00","43872","3.935","219.3","6.305","237.3","1021.7689999999999","17.35","56.0","140.1","0.0"],
    [1406293,"2026-04-04 17:30:00","43873","3.838","222.0","7.154","223","1021.7589999999999","17.1","58.23","111.1","0.0"],
    [1406294,"2026-04-04 17:40:00","43874","4.189","220.8","6.827","217.6","1021.799","16.82","60.7","84.4","0.0"],
    [1406295,"2026-04-04 17:50:00","43875","3.985","220.0","7.089","231.1","1021.79","16.61","61.2","44.18","0.0"],
    [1406296,"2026-04-04 18:00:00","43876","4.4639999999999995","220.2","7.644","206.6","1021.807","16.34","62.46","20.06","0.0"],
    [1406297,"2026-04-04 18:10:00","43877","4.687","222.3","7.807","230.3","1021.84","16.25","60.36","11.82","0.0"],
    [1406298,"2026-04-04 18:20:00","43878","4.118","222.1","6.86","230.7","1021.846","16.12","59.95","5.0569999999999995","0.0"],
    [1406299,"2026-04-04 18:30:00","43879","4.21","221.6","6.076","235","1021.9060000000001","16.06","58.34","0.124","0.0"],
    [1406300,"2026-04-04 18:40:00","43880","4.052","218.6","6.664","222.2","1021.951","15.99","57.56","-1.859","0.0"],
    [1406301,"2026-04-04 18:50:00","43881","4.019","219.5","5.586","228.8","1021.97","15.95","56.31","-2.7030000000000003","0.0"],
    [1406302,"2026-04-04 19:00:00","43882","3.6239999999999997","219.1","5.619","222.1","1022.02","15.95","55.5","-2.714","0.0"],
    [1406303,"2026-04-04 19:10:00","43883","3.339","215.5","6.076","212.4","1022.15","15.96","55.11","-2.718","0.0"],
    [1406304,"2026-04-04 19:20:00","43884","3.236","218.3","5.423","200.6","1022.299","15.94","54.49","-2.728","0.0"],
    [1406305,"2026-04-04 19:30:00","43885","2.57","228.7","4.737","219.9","1022.424","15.7","57.02","-2.7230000000000003","0.0"],
    [1406306,"2026-04-04 19:40:00","43886","2.41","230.6","3.887","223.1","1022.541","15.53","58.9","-2.7289999999999996","0.0"],
    [1406307,"2026-04-04 19:50:00","43887","1.475","227.7","2.875","223.6","1022.5989999999999","15.2","63.15","-2.81","0.0"],
    [1406308,"2026-04-04 20:00:00","43888","1.722","229.5","2.875","213.2","1022.757","15.0","65.6","-2.7739999999999996","0.0"],
    [1406309,"2026-04-04 20:10:00","43889","2.57","210.5","4.606","200.6","1022.8639999999999","15.23","66.68","-3.022","0.0"],
    [1406310,"2026-04-04 20:20:00","43890","2.395","216.7","4.051","211.3","1022.961","15.11","69.94","-2.7510000000000003","0.0"],
    [1406311,"2026-04-04 20:30:00","43891","2.792","227.3","4.639","225.3","1023.074","15.19","69.81","-2.773","0.0"],
    [1406312,"2026-04-04 20:40:00","43892","2.178","228.1","3.92","208","1023.1610000000001","15.12","71.39","-2.728","0.0"],
    [1406313,"2026-04-04 20:50:00","43893","1.095","237.1","2.156","246.9","1023.187","14.93","72.8","-2.938","0.0"],
    [1406314,"2026-04-04 21:00:00","43894","1.716","228.8","3.103","208","1023.21","14.78","74.02","-2.838","0.0"],
    [1406315,"2026-04-04 21:10:00","43895","1.115","229.1","2.156","226.4","1023.183","14.66","74.58","-2.8110000000000004","0.0"],
    [1406316,"2026-04-04 21:20:00","43896","0.59","247.3","1.47","249.9","1023.1410000000001","14.38","75.42","-3.0860000000000003","0.0"],
    [1406317,"2026-04-04 21:30:00","43897","0.9009999999999999","237.3","1.96","232.3","1023.1669999999999","14.13","76.35","-3.049","0.0"],
    [1406318,"2026-04-04 21:40:00","43898","1.07","215.1","1.797","217.2","1023.15","13.99","76.92","-3.0210000000000004","0.0"],
    [1406319,"2026-04-04 21:50:00","43899","1.236","225.8","2.025","244.5","1023.145","13.97","77.71","-2.917","0.0"],
    [1406320,"2026-04-04 22:00:00","43900","1.445","226.7","2.417","227.9","1023.14","14.03","78.8","-2.9539999999999997","0.0"],
    [1406321,"2026-04-04 22:10:00","43901","1.601","224.1","2.319","215.1","1023.11","14.1","79.9","-2.801","0.0"],
    [1406322,"2026-04-04 22:20:00","43902","1.4140000000000001","236.9","2.123","223.7","1023.12","14.02","80.8","-2.7569999999999997","0.0"],
    [1406323,"2026-04-04 22:30:00","43903","1.037","239.9","1.96","259.4","1023.132","13.76","81.4","-2.7960000000000003","0.0"],
    [1406324,"2026-04-04 22:40:00","43904","1.2009999999999998","235.6","2.025","230.6","1023.158","13.62","78.36","-2.781","0.0"],
    [1406325,"2026-04-04 22:50:00","43905","1.445","234.3","2.417","239.5","1023.1160000000001","13.72","74.98","-2.7760000000000002","0.0"],
    [1406326,"2026-04-04 23:00:00","43906","1.371","236.0","2.319","240.3","1023.061","13.77","68.97","-2.763","0.0"],
    [1406327,"2026-04-04 23:10:00","43907","1.1840000000000002","245.1","2.156","243.4","1023.074","13.51","64.93","-2.762","0.0"],
    [1406328,"2026-04-04 23:20:00","43908","1.376","259.1","2.352","270","1023.095","13.37","62.73","-2.764","0.0"],
    [1406329,"2026-04-04 23:30:00","43909","1.0270000000000001","261.4","1.927","279.4","1023.077","13.08","62.83","-2.761","0.0"],
    [1406330,"2026-04-04 23:40:00","43910","0.996","257.5","1.895","268.2","1023.073","12.8","64.06","-2.815","0.0"],
    [1406331,"2026-04-04 23:50:00","43911","1.455","245.5","2.319","261.9","1023.078","13.01","63.94","-2.7760000000000002","0.0"],
    [1406332,"2026-04-05 00:00:00","43912","1.294","244.1","2.809","268.9","1023.05","13.09","64.5","-2.767","0.0"],
    [1406333,"2026-04-05 00:10:00","43913","1.412","241.5","2.548","224.5","1023.007","13.15","62.42","-2.766","0.0"],
    [1406334,"2026-04-05 00:20:00","43914","1.5119999999999998","246.8","2.777","251.1","1023.015","13.26","60.38","-2.761","0.0"],
    [1406335,"2026-04-05 00:30:00","43915","1.614","245.2","2.548","227.4","1023.047","13.2","60.52","-2.761","0.0"],
    [1406336,"2026-04-05 00:40:00","43916","1.765","258.3","3.299","254.4","1022.992","13.03","61.68","-2.761","0.0"],
    [1406337,"2026-04-05 00:50:00","43917","1.442","258.5","2.679","276.3","1022.971","12.71","63.14","-2.761","0.0"],
    [1406338,"2026-04-05 01:00:00","43918","1.6540000000000001","262.0","3.43","269","1022.8969999999999","12.46","64.36","-2.761","0.0"],
    [1406339,"2026-04-05 01:10:00","43919","1.835","255.7","3.495","279.9","1022.885","12.38","64.85","-2.761","0.0"],
    [1406340,"2026-04-05 01:20:00","43920","1.551","241.5","2.842","236.1","1022.86","12.41","64.61","-2.761","0.0"],
    [1406341,"2026-04-05 01:30:00","43921","1.6880000000000002","243.3","2.973","308.7","1022.814","12.62","63.93","-2.761","0.0"],
    [1406342,"2026-04-05 01:40:00","43922","1.466","251.0","2.94","283.8","1022.77","12.46","64.71","-2.761","0.0"],
    [1406343,"2026-04-05 01:50:00","43923","1.545","257.4","2.842","263.6","1022.697","12.19","66.23","-2.761","0.0"],
    [1406344,"2026-04-05 02:00:00","43924","1.4969999999999999","269.4","2.613","266.8","1022.702","12.09","66.85","-2.761","0.0"],
    [1406345,"2026-04-05 02:10:00","43925","1.469","263.3","3.103","284.4","1022.6469999999999","11.96","67.72","-2.758","0.0"],
    [1406346,"2026-04-05 02:20:00","43926","1.632","265.6","3.626","281","1022.592","11.94","67.73","-2.761","0.0"],
    [1406347,"2026-04-05 02:30:00","43927","1.745","272.1","3.267","282.6","1022.55","11.91","67.82","-2.752","0.0"],
    [1406348,"2026-04-05 02:40:00","43928","1.3559999999999999","262.1","2.809","286.5","1022.5139999999999","11.92","67.79","-2.761","0.0"],
    [1406349,"2026-04-05 02:50:00","43929","1.561","255.6","2.907","240.7","1022.505","12.13","66.76","-2.766","0.0"],
    [1406350,"2026-04-05 03:00:00","43930","1.808","234.5","3.953","250.2","1022.497","12.39","65.18","-2.761","0.0"],
    [1406351,"2026-04-05 03:10:00","43931","1.827","232.5","2.809","237","1022.5089999999999","12.22","65.73","-2.761","0.0"],
    [1406352,"2026-04-05 03:20:00","43932","1.689","233.9","2.613","256.4","1022.5169999999999","12.2","65.69","-2.761","0.0"],
    [1406353,"2026-04-05 03:30:00","43933","1.642","232.3","2.385","200.4","1022.488","12.23","65.51","-2.761","0.0"],
    [1406354,"2026-04-05 03:40:00","43934","1.591","236.7","2.744","220.8","1022.466","12.17","65.64","-2.761","0.0"],
    [1406355,"2026-04-05 03:50:00","43935","1.652","234.0","2.581","274.1","1022.443","12.2","65.3","-2.761","0.0"],
    [1406356,"2026-04-05 04:00:00","43936","1.585","241.7","2.875","250.6","1022.4630000000001","11.97","66.22","-2.761","0.0"],
    [1406357,"2026-04-05 04:10:00","43937","1.442","242.4","2.875","233.7","1022.4639999999999","11.87","66.63","-2.761","0.0"],
    [1406358,"2026-04-05 04:20:00","43938","1.55","242.1","2.875","235.1","1022.482","11.84","66.73","-2.761","0.0"],
    [1406359,"2026-04-05 04:30:00","43939","1.329","252.7","2.973","244.3","1022.4830000000001","11.81","66.94","-2.762","0.0"],
    [1406360,"2026-04-05 04:40:00","43940","1.723","231.9","3.299","249.6","1022.503","11.9","66.23","-2.761","0.0"],
    [1406361,"2026-04-05 04:50:00","43941","1.811","230.3","3.169","227.7","1022.586","11.86","66.42","-2.76","0.0"],
    [1406362,"2026-04-05 05:00:00","43942","1.909","231.9","2.973","220.6","1022.587","11.76","66.85","-2.761","0.0"],
    [1406363,"2026-04-05 05:10:00","43943","2.0069999999999997","236.0","3.691","266","1022.64","11.79","66.71","-2.755","0.0"],
    [1406364,"2026-04-05 05:20:00","43944","2.248","244.0","4.116","267.2","1022.6310000000001","12.11","65.16","-1.778","0.0"],
    [1406365,"2026-04-05 05:30:00","43945","2.244","237.5","4.933","275.5","1022.712","12.4","63.74","1.1640000000000001","0.0"],
    [1406366,"2026-04-05 05:40:00","43946","2.013","245.4","3.953","260.6","1022.822","12.35","63.88","8.35","0.0"],
    [1406367,"2026-04-05 05:50:00","43947","2.1519999999999997","241.8","3.789","246.5","1022.8889999999999","12.44","63.35","24.26","0.0"],
    [1406368,"2026-04-05 06:00:00","43948","2.1959999999999997","238.5","3.397","246","1022.926","12.66","62.22","44.86","0.0"],
    [1406369,"2026-04-05 06:10:00","43949","2.103","237.4","3.887","234.4","1022.95","12.7","62.23","64.68","0.0"],
    [1406370,"2026-04-05 06:20:00","43950","2.117","227.8","3.103","251","1023.0060000000001","12.71","62.43","89.1","0.0"],
    [1406371,"2026-04-05 06:30:00","43951","1.876","233.3","2.94","238.3","1023.1410000000001","12.76","62.61","112.6","0.0"],
    [1406372,"2026-04-05 06:40:00","43952","1.7209999999999999","234.1","3.071","244.1","1023.252","13.14","61.85","139.1","0.0"],
    [1406373,"2026-04-05 06:50:00","43953","1.617","243.2","2.973","243.1","1023.329","13.4","63.06","171.8","0.0"],
    [1406374,"2026-04-05 07:00:00","43954","1.5230000000000001","243.8","2.842","258","1023.43","13.67","64.89","206.8","0.0"],
    [1406375,"2026-04-05 07:10:00","43955","1.452","246.0","2.581","222.1","1023.4939999999999","14.17","68.18","248.5","0.0"],
    [1406376,"2026-04-05 07:20:00","43956","1.396","236.2","3.103","246.7","1023.539","14.53","70.11","285.0","0.0"],
    [1406377,"2026-04-05 07:30:00","43957","1.383","230.6","2.581","290.7","1023.554","14.76","69.62","300.1","0.0"],
    [1406378,"2026-04-05 07:40:00","43958","1.275","237.4","2.548","244.1","1023.585","14.91","69.61","347.2","0.0"],
    [1406379,"2026-04-05 07:50:00","43959","1.798","233.4","3.299","221.4","1023.6619999999999","15.39","71.47","379.4","0.0"],
    [1406380,"2026-04-05 08:00:00","43960","2.023","232.9","3.887","275.5","1023.7289999999999","15.68","73.04","406.8","0.0"],
    [1406381,"2026-04-05 08:10:00","43961","2.678","217.4","4.606","214.5","1023.845","15.96","73.36","458.7","0.0"],
    [1406382,"2026-04-05 08:20:00","43962","3.008","213.2","4.606","202.2","1023.929","15.91","75.42","489.4","0.0"],
    [1406383,"2026-04-05 08:30:00","43963","2.336","219.8","4.541","197.6","1023.95","16.47","76.36","520.2","0.0"],
    [1406384,"2026-04-05 08:40:00","43964","3.515","215.8","5.325","214","1024.046","16.62","75.98","550.4","0.0"],
    [1406385,"2026-04-05 08:50:00","43965","3.6069999999999998","212.6","5.717","217.5","1024.1","16.53","76.24","580.7","0.0"],
    [1406386,"2026-04-05 09:00:00","43966","3.252","213.6","5.782","205.7","1024.187","16.83","75.42","608.8","0.0"],
    [1406387,"2026-04-05 09:10:00","43967","3.407","212.2","5.749","189.2","1024.306","16.84","75.14","635.8","0.0"],
    [1406388,"2026-04-05 09:20:00","43968","3.556","215.5","6.141","213.3","1024.385","16.86","74.0","661.9","0.0"],
    [1406389,"2026-04-05 09:30:00","43969","3.502","210.5","6.697","218.1","1024.422","16.94","74.03","685.1","0.0"],
    [1406390,"2026-04-05 09:40:00","43970","2.7910000000000004","196.5","5.325","193.2","1024.525","17.18","74.16","707.5","0.0"],
    [1406391,"2026-04-05 09:50:00","43971","3.2960000000000003","204.5","6.272","223.7","1024.646","17.16","74.51","728.7","0.0"],
    [1406392,"2026-04-05 10:00:00","43972","3.141","200.9","5.978","212.4","1024.684","17.53","73.91","747.6","0.0"],
    [1406393,"2026-04-05 10:10:00","43973","3.4530000000000003","203.0","6.664","220.4","1024.71","17.26","74.7","766.8","0.0"],
    [1406394,"2026-04-05 10:20:00","43974","2.943","194.9","5.39","218.3","1024.761","17.35","74.66","783.2","0.0"],
    [1406395,"2026-04-05 10:30:00","43975","3.95","187.5","6.729","176.6","1024.741","17.09","75.35","799.7","0.0"],
    [1406396,"2026-04-05 10:40:00","43976","3.71","204.0","6.501","223.5","1024.728","17.24","74.92","812.0","0.0"],
    [1406397,"2026-04-05 10:50:00","43977","3.74","204.7","6.076","226.7","1024.761","17.6","73.42","824.0","0.0"],
    [1406398,"2026-04-05 11:00:00","43978","3.7310000000000003","204.7","6.501","223","1024.792","17.61","73.5","834.0","0.0"],
    [1406399,"2026-04-05 11:10:00","43979","4.052","191.1","6.599","219.4","1024.763","17.45","73.97","845.0","0.0"],
    [1406400,"2026-04-05 11:20:00","43980","3.853","191.8","6.893","173.9","1024.656","17.7","73.82","852.0","0.0"],
    [1406401,"2026-04-05 11:30:00","43981","4.205","202.9","6.533","179","1024.598","17.7","73.94","858.0","0.0"],
    [1406402,"2026-04-05 11:40:00","43982","4.68","209.8","8.23","228.3","1024.64","17.78","72.93","862.0","0.0"],
    [1406403,"2026-04-05 11:50:00","43983","4.211","201.7","7.807","213.7","1024.604","18.05","71.73","865.0","0.0"],
    [1406404,"2026-04-05 12:00:00","43984","4.813","208.1","7.481","226.7","1024.583","18.0","70.83","866.0","0.0"],
    [1406405,"2026-04-05 12:10:00","43985","4.841","212.0","7.709","212","1024.52","18.07","70.41","861.0","0.0"],
    [1406406,"2026-04-05 12:20:00","43986","4.947","210.2","7.905","211.6","1024.549","18.23","69.67","859.0","0.0"],
    [1406407,"2026-04-05 12:30:00","43987","4.656000000000001","207.0","7.905","211.6","1024.542","18.15","69.38","857.0","0.0"],
    [1406408,"2026-04-05 12:40:00","43988","5.197","208.9","7.938","212.1","1024.54","18.19","68.23","855.0","0.0"],
    [1406409,"2026-04-05 12:50:00","43989","5.392","212.1","7.971","213.7","1024.512","18.07","67.86","848.0","0.0"],
    [1406410,"2026-04-05 13:00:00","43990","5.595","215.3","8.75","223.9","1024.505","18.09","67.62","832.0","0.0"],
    [1406411,"2026-04-05 13:10:00","43991","5.886","216.1","8.36","206.7","1024.496","17.97","68.32","826.0","0.0"],
    [1406412,"2026-04-05 13:20:00","43992","5.372999999999999","215.8","8.2","215.7","1024.454","18.26","67.7","809.0","0.0"],
    [1406413,"2026-04-05 13:30:00","43993","4.942","208.4","7.873","214","1024.393","18.15","69.11","805.0","0.0"],
    [1406414,"2026-04-05 13:40:00","43994","4.628","209.1","7.546","215.2","1024.38","18.14","69.69","781.2","0.0"],
    [1406415,"2026-04-05 13:50:00","43995","3.9730000000000003","209.7","7.089","204.7","1024.3519999999999","18.53","67.96","764.6","0.0"],
    [1406416,"2026-04-05 14:00:00","43996","4.596","211.8","7.742","211.8","1024.322","18.44","67.57","749.6","0.0"],
    [1406417,"2026-04-05 14:10:00","43997","4.7669999999999995","212.5","9.02","230.9","1024.261","18.19","68.23","725.7","0.0"],
    [1406418,"2026-04-05 14:20:00","43998","5.976","217.2","8.85","215.7","1024.182","17.82","68.91","711.3","0.0"],
    [1406419,"2026-04-05 14:30:00","43999","6.595","217.5","9.11","221.8","1024.136","17.62","69.98","685.2","0.0"],
    [1406420,"2026-04-05 14:40:00","44000","6.242999999999999","217.1","8.95","228","1024.072","17.6","70.43","652.5","0.0"],
    [1406421,"2026-04-05 14:50:00","44001","6.707000000000001","218.2","9.54","227","1024.0430000000001","17.4","71.17","633.1","0.0"],
    [1406422,"2026-04-05 15:00:00","44002","5.319","210.3","7.546","204.4","1024.036","17.44","71.43","606.8","0.0"],
    [1406423,"2026-04-05 15:10:00","44003","4.755","210.3","8.07","205","1023.914","17.6","71.18","568.8","0.0"],
    [1406424,"2026-04-05 15:20:00","44004","5.746","213.4","8.53","231.2","1023.8510000000001","17.4","71.66","545.8","0.0"],
    [1406425,"2026-04-05 15:30:00","44005","5.856","215.2","8.79","222.8","1023.829","17.26","72.76","511.5","0.0"],
    [1406426,"2026-04-05 15:40:00","44006","4.141","211.4","7.219","208.6","1023.82","17.47","72.85","479.7","0.0"],
    [1406427,"2026-04-05 15:50:00","44007","4.622","217.1","8.23","208.3","1023.823","17.63","72.66","445.6","0.0"],
    [1406428,"2026-04-05 16:00:00","44008","5.534","220.9","9.18","217","1023.827","17.32","73.18","409.7","0.0"],
    [1406429,"2026-04-05 16:10:00","44009","6.093999999999999","217.2","8.3","224.9","1023.818","17.14","73.73","379.2","0.0"],
    [1406430,"2026-04-05 16:20:00","44010","5.771","217.4","8.26","219.3","1023.807","17.11","74.14","347.9","0.0"],
    [1406431,"2026-04-05 16:30:00","44011","5.074","213.7","8.95","212","1023.77","17.26","73.81","299.6","0.0"],
    [1406432,"2026-04-05 16:40:00","44012","5.265","214.9","8.2","220.6","1023.7239999999999","17.02","74.76","270.0","0.0"],
    [1406433,"2026-04-05 16:50:00","44013","5.39","216.7","8.07","228.5","1023.685","17.06","74.22","243.2","0.0"],
    [1406434,"2026-04-05 17:00:00","44014","5.8260000000000005","217.2","8.95","214.7","1023.7280000000001","16.83","74.13","210.8","0.0"],
    [1406435,"2026-04-05 17:10:00","44015","4.938","219.0","7.905","210.8","1023.807","16.66","74.11","173.8","0.0"],
    [1406436,"2026-04-05 17:20:00","44016","4.623","222.0","8.07","223.3","1023.763","16.62","71.7","150.9","0.0"],
    [1406437,"2026-04-05 17:30:00","44017","4.753","218.1","7.252","216.9","1023.7189999999999","16.54","70.9","117.3","0.0"],
    [1406438,"2026-04-05 17:40:00","44018","4.551","220.2","8.49","215.7","1023.702","16.36","68.62","91.5","0.0"],
    [1406439,"2026-04-05 17:50:00","44019","5.2589999999999995","221.9","8.26","222","1023.735","16.37","63.26","55.59","0.0"],
    [1406440,"2026-04-05 18:00:00","44020","4.739","221.5","7.317","222.2","1023.7410000000001","16.42","61.0","20.91","0.0"],
    [1406441,"2026-04-05 18:10:00","44021","4.59","217.6","8","200.8","1023.7410000000001","16.26","64.8","11.89","0.0"],
    [1406442,"2026-04-05 18:20:00","44022","4.32","214.6","7.579","229.7","1023.7389999999999","15.93","68.75","4.652","0.0"],
    [1406443,"2026-04-05 18:30:00","44023","4.43","217.4","6.893","225.3","1023.75","15.78","67.64","0.387","0.0"],
    [1406444,"2026-04-05 18:40:00","44024","4.336","214.8","7.121","224.5","1023.824","15.85","65.49","-1.9240000000000002","0.0"],
    [1406445,"2026-04-05 18:50:00","44025","4.225","214.5","6.991","236.9","1023.8989999999999","15.71","66.16","-2.713","0.0"],
    [1406446,"2026-04-05 19:00:00","44026","4.066","216.7","6.272","220.3","1024.024","15.65","65.93","-2.715","0.0"],
    [1406447,"2026-04-05 19:10:00","44027","4.282","216.4","7.481","209.9","1024.117","15.62","66.28","-2.784","0.0"],
    [1406448,"2026-04-05 19:20:00","44028","3.79","216.2","6.533","227","1024.323","15.62","66.45","-2.735","0.0"],
    [1406449,"2026-04-05 19:30:00","44029","3.2889999999999997","213.1","5.978","225","1024.39","15.4","69.95","-2.7880000000000003","0.0"],
    [1406450,"2026-04-05 19:40:00","44030","3.2319999999999998","217.0","5.292","219.6","1024.428","15.33","70.58","-2.763","0.0"],
    [1406451,"2026-04-05 19:50:00","44031","3.0789999999999997","223.0","4.606","218.8","1024.483","15.27","69.59","-2.8","0.0"],
    [1406452,"2026-04-05 20:00:00","44032","2.944","222.6","4.312","225.6","1024.59","15.26","69.61","-2.779","0.0"],
    [1406453,"2026-04-05 20:10:00","44033","2.971","220.0","5.194","230.8","1024.683","15.27","72.23","-2.827","0.0"],
    [1406454,"2026-04-05 20:20:00","44034","3.528","216.0","6.762","211.8","1024.7730000000001","15.2","74.07","-2.813","0.0"],
    [1406455,"2026-04-05 20:30:00","44035","3.4610000000000003","214.8","5.684","204.6","1024.8339999999998","15.06","76.48","-2.735","0.0"],
    [1406456,"2026-04-05 20:40:00","44036","3.412","217.4","5.259","225.7","1024.879","14.93","78.46","-2.741","0.0"],
    [1406457,"2026-04-05 20:50:00","44037","4.152","218.2","6.435","214.1","1024.872","14.91","79.86","-2.753","0.0"],
    [1406458,"2026-04-05 21:00:00","44038","4.129","216.3","6.566","209.5","1024.879","14.84","80.5","-2.728","0.0"],
    [1406459,"2026-04-05 21:10:00","44039","3.318","216.3","5.063","228.7","1024.978","14.79","81.6","-2.728","0.0"],
    [1406460,"2026-04-05 21:20:00","44040","3.2680000000000002","220.3","4.639","226.4","1025.01","14.68","81.6","-2.739","0.0"],
    [1406461,"2026-04-05 21:30:00","44041","2.775","224.5","4.149","220.4","1025.048","14.65","81.5","-2.7289999999999996","0.0"],
    [1406462,"2026-04-05 21:40:00","44042","2.642","226.0","3.659","224.1","1025.049","14.55","81.2","-2.75","0.0"],
    [1406463,"2026-04-05 21:50:00","44043","2.603","223.8","3.887","230.2","1025.053","14.6","81.0","-2.7430000000000003","0.0"],
    [1406464,"2026-04-05 22:00:00","44044","2.73","222.2","3.887","199.8","1025.109","14.55","81.8","-2.7710000000000004","0.0"],
    [1406465,"2026-04-05 22:10:00","44045","2.307","227.5","4.018","225.9","1025.174","14.39","82.7","-2.74","0.0"],
    [1406466,"2026-04-05 22:20:00","44046","2.699","228.7","4.116","237.7","1025.17","14.31","82.7","-2.739","0.0"],
    [1406467,"2026-04-05 22:30:00","44047","2.496","229.9","3.724","209.6","1025.21","14.32","82.0","-2.738","0.0"],
    [1406468,"2026-04-05 22:40:00","44048","2.6460000000000004","227.4","4.116","217.2","1025.26","14.3","81.2","-2.739","0.0"],
    [1406469,"2026-04-05 22:50:00","44049","2.733","227.1","3.887","213.2","1025.222","14.32","80.4","-2.736","0.0"],
    [1406470,"2026-04-05 23:00:00","44050","2.396","228.9","4.345","214.5","1025.244","14.28","79.88","-2.7319999999999998","0.0"],
    [1406471,"2026-04-05 23:10:00","44051","1.442","233.1","2.907","218.3","1025.32","14.09","80.5","-2.803","0.0"],
    [1406472,"2026-04-05 23:20:00","44052","1.287","231.0","2.189","230.3","1025.347","13.91","81.8","-3.247","0.0"],
    [1406473,"2026-04-05 23:30:00","44053","1.099","238.6","2.613","246.3","1025.339","13.68","82.1","-3.18","0.0"],
    [1406474,"2026-04-05 23:40:00","44054","1.162","232.5","2.483","247.5","1025.318","13.56","81.5","-3.17","0.0"],
    [1406475,"2026-04-05 23:50:00","44055","0.9309999999999999","239.3","1.601","248.2","1025.3319999999999","13.59","79.73","-3.057","0.0"],
    [1406476,"2026-04-06 00:00:00","44056","0.605","251.7","1.568","248.9","1025.422","13.51","77.83","-2.9760000000000004","0.0"],
    [1406477,"2026-04-06 00:10:00","44057","0.7759999999999999","234.2","1.307","220.5","1025.4589999999998","13.33","78.22","-3.3960000000000004","0.0"],
    [1406478,"2026-04-06 00:20:00","44058","1.256","223.7","1.96","235","1025.441","13.34","77.66","-3.133","0.0"],
    [1406479,"2026-04-06 00:30:00","44059","0.972","240.7","1.96","239.5","1025.407","13.29","76.54","-2.8339999999999996","0.0"],
    [1406480,"2026-04-06 00:40:00","44060","0.977","262.5","1.47","248.6","1025.368","12.37","75.28","-2.907","0.0"],
    [1406481,"2026-04-06 00:50:00","44061","1.1340000000000001","241.9","1.699","225.6","1025.364","12.52","70.49","-2.807","0.0"],
    [1406482,"2026-04-06 01:00:00","44062","1.155","234.2","1.731","225","1025.307","12.33","66.31","-2.7889999999999997","0.0"],
    [1406483,"2026-04-06 01:10:00","44063","1.38","231.1","1.993","229.9","1025.234","12.08","65.45","-2.764","0.0"],
    [1406484,"2026-04-06 01:20:00","44064","1.091","240.4","1.895","242.3","1025.184","11.89","65.05","-2.775","0.0"],
    [1406485,"2026-04-06 01:30:00","44065","1.119","236.1","1.568","244.5","1025.16","11.95","64.91","-2.767","0.0"],
    [1406486,"2026-04-06 01:40:00","44066","1.8","229.2","2.515","228.1","1025.162","11.79","66.55","-2.773","0.0"],
    [1406487,"2026-04-06 01:50:00","44067","2.158","226.7","2.907","219.8","1025.15","11.65","69.1","-2.761","0.0"],
    [1406488,"2026-04-06 02:00:00","44068","1.7209999999999999","226.3","2.809","239.2","1025.0819999999999","11.6","69.67","-2.76","0.0"],
    [1406489,"2026-04-06 02:10:00","44069","1.692","233.1","2.842","234.7","1024.984","11.67","69.46","-2.762","0.0"],
    [1406490,"2026-04-06 02:20:00","44070","1.41","248.8","2.483","289.4","1024.907","11.88","68.83","-2.767","0.0"],
    [1406491,"2026-04-06 02:30:00","44071","1.195","251.6","2.156","269.7","1024.8139999999999","11.87","68.83","-2.762","0.0"],
    [1406492,"2026-04-06 02:40:00","44072","1.206","248.8","1.96","275.8","1024.741","11.88","69.0","-2.762","0.0"],
    [1406493,"2026-04-06 02:50:00","44073","1.094","252.9","2.091","220.4","1024.745","11.9","69.13","-2.766","0.0"],
    [1406494,"2026-04-06 03:00:00","44074","1.133","245.8","2.025","285.3","1024.728","11.81","69.48","-2.764","0.0"],
    [1406495,"2026-04-06 03:10:00","44075","0.987","242.8","1.699","237.1","1024.702","11.88","69.25","-2.762","0.0"],
    [1406496,"2026-04-06 03:20:00","44076","1.275","239.9","2.058","252.4","1024.674","11.8","69.47","-2.761","0.0"],
    [1406497,"2026-04-06 03:30:00","44077","1.245","238.3","2.091","239.4","1024.632","11.66","70.23","-2.762","0.0"],
    [1406498,"2026-04-06 03:40:00","44078","1.4809999999999999","241.8","2.287","247.3","1024.589","11.63","70.63","-2.762","0.0"],
    [1406499,"2026-04-06 03:50:00","44079","1.3769999999999998","243.6","2.417","226.5","1024.566","11.52","71.11","-2.761","0.0"],
    [1406500,"2026-04-06 04:00:00","44080","1.486","239.3","3.038","239.1","1024.58","11.37","72.04","-2.762","0.0"],
    [1406501,"2026-04-06 04:10:00","44081","1.4140000000000001","251.6","2.385","244.7","1024.5339999999999","11.37","72.3","-2.761","0.0"],
    [1406502,"2026-04-06 04:20:00","44082","1.5759999999999998","244.9","2.809","257.9","1024.509","11.39","72.45","-2.762","0.0"],
    [1406503,"2026-04-06 04:30:00","44083","1.05","259.8","2.287","257.7","1024.505","11.52","72.15","-2.761","0.0"],
    [1406504,"2026-04-06 04:40:00","44084","1.1059999999999999","246.9","2.091","250.7","1024.505","11.39","72.35","-2.763","0.0"],
    [1406505,"2026-04-06 04:50:00","44085","1.172","257.2","1.829","253.4","1024.483","11.46","72.09","-2.762","0.0"],
    [1406506,"2026-04-06 05:00:00","44086","1.1320000000000001","266.8","2.319","278.4","1024.505","11.23","72.67","-2.761","0.0"],
    [1406507,"2026-04-06 05:10:00","44087","1.082","263.3","2.058","278.4","1024.518","11.17","73.02","-2.693","0.0"],
    [1406508,"2026-04-06 05:20:00","44088","1.234","269.3","2.091","282.5","1024.548","10.94","73.58","-1.5759999999999998","0.0"],
    [1406509,"2026-04-06 05:30:00","44089","1.015","258.6","1.927","251.6","1024.63","10.86","74.4","1.4340000000000002","0.0"],
    [1406510,"2026-04-06 05:40:00","44090","1.157","247.7","1.895","263.7","1024.67","11.04","73.84","9.56","0.0"],
    [1406511,"2026-04-06 05:50:00","44091","1.2830000000000001","260.1","2.646","272.6","1024.73","11.1","73.24","27.78","0.0"],
    [1406512,"2026-04-06 06:00:00","44092","0.996","250.5","2.254","251.8","1024.766","11.07","73.26","51.74","0.0"],
    [1406513,"2026-04-06 06:10:00","44093","1.2309999999999999","242.1","2.385","260.8","1024.818","11.38","71.65","73.49","0.0"],
    [1406514,"2026-04-06 06:20:00","44094","1.103","243.7","2.515","228.3","1024.872","11.67","70.28","94.0","0.0"],
    [1406515,"2026-04-06 06:30:00","44095","1.3030000000000002","241.7","2.352","247.5","1024.9289999999999","11.93","69.27","116.8","0.0"],
    [1406516,"2026-04-06 06:40:00","44096","1.156","245.8","1.993","270","1024.9669999999999","12.35","68.28","145.0","0.0"],
    [1406517,"2026-04-06 06:50:00","44097","1.166","242.5","2.156","241.7","1024.986","12.81","67.1","179.1","0.0"],
    [1406518,"2026-04-06 07:00:00","44098","1.158","264.4","2.156","257.9","1025.031","13.38","65.78","215.3","0.0"],
    [1406519,"2026-04-06 07:10:00","44099","0.966","261.3","1.797","266.1","1025.104","13.99","64.5","252.3","0.0"],
    [1406520,"2026-04-06 07:20:00","44100","1.475","220.6","2.385","204.1","1025.128","14.45","64.83","289.6","0.0"],
    [1406521,"2026-04-06 07:30:00","44101","1.433","222.2","2.189","213.5","1025.121","14.86","66.63","327.2","0.0"],
    [1406522,"2026-04-06 07:40:00","44102","1.355","228.6","2.548","219.1","1025.128","15.26","68.17","361.2","0.0"],
    [1406523,"2026-04-06 07:50:00","44103","1.974","222.4","4.377","219.9","1025.101","15.76","69.57","382.2","0.0"],
    [1406524,"2026-04-06 08:00:00","44104","2.049","223.4","3.724","215.4","1025.0839999999998","16.2","68.89","415.9","0.0"],
    [1406525,"2026-04-06 08:10:00","44105","1.4469999999999998","221.7","3.136","207","1025.077","16.77","66.8","468.1","0.0"],
    [1406526,"2026-04-06 08:20:00","44106","2.411","215.9","4.737","210.5","1025.096","17.09","66.95","500.6","0.0"],
    [1406527,"2026-04-06 08:30:00","44107","3.8819999999999997","216.5","6.174","213.6","1025.12","17.1","66.78","532.7","0.0"],
    [1406528,"2026-04-06 08:40:00","44108","3.7560000000000002","216.4","4.9","208.4","1025.077","17.21","66.78","563.5","0.0"],
    [1406529,"2026-04-06 08:50:00","44109","4.215","214.6","6.729","213.2","1025.0810000000001","17.52","63.98","592.9","0.0"],
    [1406530,"2026-04-06 09:00:00","44110","3.491","219.8","5.227","202.7","1025.086","17.72","63.29","620.0","0.0"],
    [1406531,"2026-04-06 09:10:00","44111","4.127","214.7","6.599","208.3","1025.067","17.81","62.75","646.2","0.0"],
    [1406532,"2026-04-06 09:20:00","44112","4.104","213.2","5.782","200","1025.103","17.79","62.69","672.7","0.0"],
    [1406533,"2026-04-06 09:30:00","44113","4.05","210.4","7.252","209.1","1025.101","17.9","61.5","696.9","0.0"],
    [1406534,"2026-04-06 09:40:00","44114","4.602","209.6","6.305","208.8","1025.128","17.95","60.76","720.9","0.0"],
    [1406535,"2026-04-06 09:50:00","44115","4.045","208.5","6.664","214.5","1025.132","18.32","60.7","741.1","0.0"],
    [1406536,"2026-04-06 10:00:00","44116","2.842","198.7","5.619","208.9","1025.125","18.67","63.1","760.9","0.0"],
    [1406537,"2026-04-06 10:10:00","44117","2.85","199.9","4.737","208.7","1025.04","18.72","63.42","779.1","0.0"],
    [1406538,"2026-04-06 10:20:00","44118","2.862","197.3","4.965","189.2","1025.05","18.7","63.89","796.5","0.0"],
    [1406539,"2026-04-06 10:30:00","44119","3.156","204.6","5.031","196.8","1025.031","18.55","63.84","811.0","0.0"],
    [1406540,"2026-04-06 10:40:00","44120","3.0460000000000003","203.5","5.651","207.2","1024.985","18.92","62.72","825.0","0.0"],
    [1406541,"2026-04-06 10:50:00","44121","3.135","198.8","5.455","176.4","1024.9180000000001","18.92","62.42","837.0","0.0"],
    [1406542,"2026-04-06 11:00:00","44122","3.5189999999999997","209.0","6.991","237","1024.883","19.35","58.68","848.0","0.0"],
    [1406543,"2026-04-06 11:10:00","44123","3.738","207.3","7.644","222.4","1024.88","19.55","58.17","858.0","0.0"],
    [1406544,"2026-04-06 11:20:00","44124","3.594","204.1","6.958","215.9","1024.839","19.54","57.68","866.0","0.0"],
    [1406545,"2026-04-06 11:30:00","44125","4.446000000000001","211.3","7.481","219.1","1024.77","19.56","54.97","874.0","0.0"],
    [1406546,"2026-04-06 11:40:00","44126","5.704","213.3","8.79","204.1","1024.701","19.42","52.07","878.0","0.0"],
    [1406547,"2026-04-06 11:50:00","44127","5.78","210.7","8","205.6","1024.653","19.47","50.99","882.0","0.0"],
    [1406548,"2026-04-06 12:00:00","44128","5.483","209.5","8.85","197.7","1024.597","19.49","50.68","883.0","0.0"],
    [1406549,"2026-04-06 12:10:00","44129","4.658","207.4","7.219","212.7","1024.538","19.81","49.48","878.0","0.0"],
    [1406550,"2026-04-06 12:20:00","44130","5.595","209.5","7.84","212","1024.4460000000001","19.91","48.54","881.0","0.0"],
    [1406551,"2026-04-06 12:30:00","44131","5.541","210.1","7.938","209.4","1024.367","19.68","50.18","878.0","0.0"],
    [1406552,"2026-04-06 12:40:00","44132","4.996","207.1","8.33","211.6","1024.3339999999998","19.67","49.43","873.0","0.0"],
    [1406553,"2026-04-06 12:50:00","44133","4.141","206.9","8","240.9","1024.279","20.15","47.89","865.0","0.0"],
    [1406554,"2026-04-06 13:00:00","44134","4.349","205.5","7.383","208.8","1024.136","20.4","47.17","857.0","0.0"],
    [1406555,"2026-04-06 13:10:00","44135","5.525","210.6","8.46","207.1","1024.0330000000001","19.84","48.96","847.0","0.0"],
    [1406556,"2026-04-06 13:20:00","44136","4.247","201.2","7.415","220.3","1023.9630000000001","19.85","51.2","833.0","0.0"],
    [1406557,"2026-04-06 13:30:00","44137","3.327","202.2","6.239","227.5","1023.8789999999999","20.25","51.83","819.0","0.0"],
    [1406558,"2026-04-06 13:40:00","44138","4.11","213.0","7.187","225.1","1023.8330000000001","20.15","49.05","805.0","0.0"],
    [1406559,"2026-04-06 13:50:00","44139","4.833","215.7","7.938","228.7","1023.789","19.63","48.54","786.0","0.0"],
    [1406560,"2026-04-06 14:00:00","44140","3.82","203.5","6.86","220.5","1023.705","19.89","49.61","768.9","0.0"],
    [1406561,"2026-04-06 14:10:00","44141","2.964","194.4","5.096","217.7","1023.6060000000001","19.7","52.53","747.7","0.0"],
    [1406562,"2026-04-06 14:20:00","44142","3.115","200.5","5.357","210.3","1023.565","19.47","55.14","725.6","0.0"],
    [1406563,"2026-04-06 14:30:00","44143","3.3680000000000003","204.8","6.37","209.2","1023.508","19.28","56.1","702.0","0.0"],
    [1406564,"2026-04-06 14:40:00","44144","3.61","206.5","6.076","206.2","1023.449","19.15","56.19","676.0","0.0"],
    [1406565,"2026-04-06 14:50:00","44145","3.36","204.3","5.455","202.6","1023.372","19.05","55.4","648.3","0.0"],
    [1406566,"2026-04-06 15:00:00","44146","3.529","206.5","6.207","204.1","1023.308","19.16","54.06","620.2","0.0"],
    [1406567,"2026-04-06 15:10:00","44147","3.2430000000000003","201.0","5.847","202.4","1023.245","19.0","53.88","590.0","0.0"],
    [1406568,"2026-04-06 15:20:00","44148","3.6039999999999996","206.0","6.305","201.4","1023.166","18.84","55.08","559.4","0.0"],
    [1406569,"2026-04-06 15:30:00","44149","3.235","208.0","5.488","199.3","1023.018","18.84","54.6","526.7","0.0"],
    [1406570,"2026-04-06 15:40:00","44150","3.234","203.8","5.423","212.8","1023.023","18.79","55.99","493.8","0.0"],
    [1406571,"2026-04-06 15:50:00","44151","2.609","203.7","4.769","225.5","1022.965","18.9","56.84","460.4","0.0"],
    [1406572,"2026-04-06 16:00:00","44152","3.248","198.3","5.815","222.4","1022.8889999999999","18.36","58.05","429.0","0.0"],
    [1406573,"2026-04-06 16:10:00","44153","2.738","199.7","5.194","216","1022.845","18.2","58.79","396.1","0.0"],
    [1406574,"2026-04-06 16:20:00","44154","2.8680000000000003","187.2","6.011","171.2","1022.7710000000001","17.93","61.07","363.7","0.0"],
    [1406575,"2026-04-06 16:30:00","44155","3.217","190.9","5.815","177.9","1022.7710000000001","17.67","61.76","313.2","0.0"],
    [1406576,"2026-04-06 16:40:00","44156","2.6460000000000004","190.2","5.357","176.7","1022.822","17.58","63.82","280.6","0.0"],
    [1406577,"2026-04-06 16:50:00","44157","2.3040000000000003","196.6","4.181","188.1","1022.832","17.7","63.16","260.0","0.0"],
    [1406578,"2026-04-06 17:00:00","44158","2.274","198.0","4.279","223.6","1022.798","17.69","61.3","225.7","0.0"],
    [1406579,"2026-04-06 17:10:00","44159","2.271","198.6","4.508","177.6","1022.763","17.46","63.19","191.6","0.0"],
    [1406580,"2026-04-06 17:20:00","44160","2.483","190.6","4.541","221.5","1022.7339999999999","17.12","65.64","159.3","0.0"],
    [1406581,"2026-04-06 17:30:00","44161","2.231","191.5","4.149","203.8","1022.742","16.72","67.86","129.0","0.0"],
    [1406582,"2026-04-06 17:40:00","44162","2.655","207.4","4.41","217.4","1022.778","16.61","67.59","101.5","0.0"],
    [1406583,"2026-04-06 17:50:00","44163","2.256","202.1","5.913","218","1022.7280000000001","16.25","68.45","61.47","0.0"],
    [1406584,"2026-04-06 18:00:00","44164","2.202","187.4","3.626","183.5","1022.686","15.97","71.87","18.94","0.0"],
    [1406585,"2026-04-06 18:10:00","44165","2.085","185.4","3.822","180.6","1022.655","15.78","73.13","11.73","0.0"],
    [1406586,"2026-04-06 18:20:00","44166","2.102","187.7","3.953","164.8","1022.645","15.59","73.55","5.055","0.0"],
    [1406587,"2026-04-06 18:30:00","44167","1.4340000000000002","198.7","3.495","209.6","1022.688","15.49","75.39","0.114","0.0"],
    [1406588,"2026-04-06 18:40:00","44168","1.817","206.7","3.234","196.5","1022.811","15.32","76.89","-2.903","0.0"],
    [1406589,"2026-04-06 18:50:00","44169","1.95","210.3","4.279","208.5","1022.832","15.2","77.53","-3.477","0.0"],
    [1406590,"2026-04-06 19:00:00","44170","1.213","197.9","2.189","184.9","1022.852","15.01","77.67","-3.6889999999999996","0.0"],
    [1406591,"2026-04-06 19:10:00","44171","1.5130000000000001","196.2","3.659","215.8","1022.8889999999999","14.92","78.56","-3.8139999999999996","0.0"],
    [1406592,"2026-04-06 19:20:00","44172","1.739","209.3","3.985","203.1","1022.931","14.99","78.21","-3.7680000000000002","0.0"],
    [1406593,"2026-04-06 19:30:00","44173","2.07","215.9","3.626","222.3","1022.971","15.03","72.96","-3.698","0.0"],
    [1406594,"2026-04-06 19:40:00","44174","1.483","224.5","3.103","210.6","1023.008","15.04","69.79","-3.535","0.0"],
    [1406595,"2026-04-06 19:50:00","44175","0.903","225.0","2.352","248.6","1023.1289999999999","14.87","69.72","-3.819","0.0"],
    [1406596,"2026-04-06 20:00:00","44176","0.7809999999999999","231.9","1.437","213.6","1023.245","14.61","71.98","-4.046","0.0"],
    [1406597,"2026-04-06 20:10:00","44177","0.86","238.8","1.339","238.7","1023.255","14.55","71.67","-3.708","0.0"],
    [1406598,"2026-04-06 20:20:00","44178","0.795","253.9","1.209","249.9","1023.253","14.26","70.17","-3.542","0.0"],
    [1406599,"2026-04-06 20:30:00","44179","0.451","239.5","0.98","243.1","1023.2189999999999","13.89","70.85","-3.9339999999999997","0.0"],
    [1406600,"2026-04-06 20:40:00","44180","0.008","214.3","0.327","214.3","1023.191","13.77","71.1","-3.801","0.0"],
    [1406601,"2026-04-06 20:50:00","44181","0.057","220.9","0.653","222","1023.22","13.42","72.11","-3.5210000000000004","0.0"],
    [1406602,"2026-04-06 21:00:00","44182","0.0","0.0","0","0","1023.183","13.02","73.2","-3.511","0.0"],
    [1406603,"2026-04-06 21:10:00","44183","0.005","222.3","0.261","222.3","1023.13","13.08","73.43","-3.512","0.0"],
    [1406604,"2026-04-06 21:20:00","44184","0.0","0.0","0","0","1023.117","12.92","73.68","-3.228","0.0"],
    [1406605,"2026-04-06 21:30:00","44185","0.0","0.0","0","0","1023.13","12.75","74.84","-3.2439999999999998","0.0"],
    [1406606,"2026-04-06 21:40:00","44186","0.017","246.7","0.229","246.7","1023.2510000000001","12.8","78.02","-3.0669999999999997","0.0"],
    [1406607,"2026-04-06 21:50:00","44187","0.0","0.0","0","0","1023.288","12.56","79.72","-2.7760000000000002","0.0"],
    [1406608,"2026-04-06 22:00:00","44188","0.0","0.0","0","0","1023.2760000000001","12.14","81.2","-2.762","0.0"],
    [1406609,"2026-04-06 22:10:00","44189","0.0","246.7","0.033","246.7","1023.302","12.33","82.8","-2.8169999999999997","0.0"],
    [1406610,"2026-04-06 22:20:00","44190","0.0","0.0","0","0","1023.22","12.35","82.1","-2.7760000000000002","0.0"],
    [1406611,"2026-04-06 22:30:00","44191","0.02","261.9","0.882","266.7","1023.235","12.23","81.1","-3.307","0.0"],
    [1406612,"2026-04-06 22:40:00","44192","0.951","269.1","1.503","273.8","1023.2260000000001","12.15","81.7","-3.4330000000000003","0.0"],
    [1406613,"2026-04-06 22:50:00","44193","1.224","272.5","2.025","274.2","1023.2710000000001","12.13","83.0","-3.491","0.0"],
    [1406614,"2026-04-06 23:00:00","44194","1.676","282.1","2.189","289.9","1023.313","11.77","80.1","-3.7680000000000002","0.0"],
    [1406615,"2026-04-06 23:10:00","44195","0.927","290.7","1.535","290","1023.291","11.67","72.61","-4.249","0.0"],
    [1406616,"2026-04-06 23:20:00","44196","0.889","288.0","1.241","293.3","1023.279","11.33","72.68","-3.9939999999999998","0.0"],
    [1406617,"2026-04-06 23:30:00","44197","0.494","285.6","1.111","287.9","1023.298","11.29","71.73","-3.5669999999999997","0.0"],
    [1406618,"2026-04-06 23:40:00","44198","0.7559999999999999","269.2","1.111","275.9","1023.306","10.98","71.8","-3.4739999999999998","0.0"],
    [1406619,"2026-04-06 23:50:00","44199","1.556","271.8","2.287","274","1023.273","11.59","67.63","-3.5669999999999997","0.0"],
    [1406620,"2026-04-07 00:00:00","44200","1.0270000000000001","284.8","1.993","275.6","1023.182","11.55","67.31","-2.806","0.0"],
    [1406621,"2026-04-07 00:10:00","44201","0.737","288.3","1.372","290.9","1023.1","11.02","69.25","-3.4339999999999997","0.0"],
    [1406622,"2026-04-07 00:20:00","44202","0.45399999999999996","279.8","1.176","275.9","1023.058","10.87","69.97","-3.196","0.0"],
    [1406623,"2026-04-07 00:30:00","44203","0.8959999999999999","276.9","1.633","277","1023.013","11.01","69.15","-3.319","0.0"],
    [1406624,"2026-04-07 00:40:00","44204","1.274","273.2","2.091","280.8","1023.013","11.17","67.24","-3.248","0.0"],
    [1406625,"2026-04-07 00:50:00","44205","1.083","280.4","1.731","279.2","1022.941","11.19","66.71","-2.986","0.0"],
    [1406626,"2026-04-07 01:00:00","44206","0.408","287.2","0.947","287.1","1022.775","10.77","67.96","-3.273","0.0"],
    [1406627,"2026-04-07 01:10:00","44207","0.5770000000000001","284.1","1.176","292.2","1022.67","10.27","69.64","-3.3680000000000003","0.0"],
    [1406628,"2026-04-07 01:20:00","44208","0.313","283.7","0.947","284.7","1022.5269999999999","10.15","70.74","-2.9219999999999997","0.0"],
    [1406629,"2026-04-07 01:30:00","44209","0.7340000000000001","280.2","1.209","283.8","1022.3389999999999","10.26","70.61","-2.8510000000000004","0.0"],
    [1406630,"2026-04-07 01:40:00","44210","0.5429999999999999","284.7","1.405","291.7","1022.1510000000001","10.19","70.3","-2.847","0.0"],
    [1406631,"2026-04-07 01:50:00","44211","0.9740000000000001","284.7","1.797","289.7","1021.988","10.01","70.75","-2.964","0.0"],
    [1406632,"2026-04-07 02:00:00","44212","1.051","290.1","1.699","289.5","1021.918","9.79","71.06","-2.8489999999999998","0.0"],
    [1406633,"2026-04-07 02:10:00","44213","1.5490000000000002","280.5","2.45","278.8","1021.942","9.86","71.02","-3.315","0.0"],
    [1406634,"2026-04-07 02:20:00","44214","1.6219999999999999","282.0","2.352","284.5","1021.92","10.29","68.85","-2.935","0.0"],
    [1406635,"2026-04-07 02:30:00","44215","1.077","289.8","2.156","280.6","1021.813","10.13","68.88","-2.852","0.0"],
    [1406636,"2026-04-07 02:40:00","44216","0.945","300.8","1.993","307","1021.664","9.83","69.89","-3.2119999999999997","0.0"],
    [1406637,"2026-04-07 02:50:00","44217","0.4","301.1","1.078","304.6","1021.4910000000001","9.69","70.11","-2.927","0.0"],
    [1406638,"2026-04-07 03:00:00","44218","1.012","283.0","1.633","287.7","1021.388","9.83","69.69","-3.26","0.0"],
    [1406639,"2026-04-07 03:10:00","44219","1.006","285.4","1.731","287.6","1021.2439999999999","10.02","68.11","-2.9160000000000004","0.0"],
    [1406640,"2026-04-07 03:20:00","44220","1.8459999999999999","280.4","3.038","285.2","1021.164","10.31","66.29","-3.3939999999999997","0.0"],
    [1406641,"2026-04-07 03:30:00","44221","1.548","284.7","2.711","283.3","1021.1339999999999","10.33","64.91","-2.7969999999999997","0.0"],
    [1406642,"2026-04-07 03:40:00","44222","1.641","280.0","2.875","282.5","1021.0830000000001","10.36","64.17","-3.032","0.0"],
    [1406643,"2026-04-07 03:50:00","44223","1.516","290.6","2.45","302.8","1021.0260000000001","10.41","63.46","-3.1069999999999998","0.0"],
    [1406644,"2026-04-07 04:00:00","44224","1.672","285.2","2.842","288","1020.9860000000001","10.7","61.27","-3.272","0.0"],
    [1406645,"2026-04-07 04:10:00","44225","1.6269999999999998","280.9","2.548","287.3","1020.985","10.85","60.06","-3.0269999999999997","0.0"],
    [1406646,"2026-04-07 04:20:00","44226","1.393","291.5","2.254","294.8","1020.9060000000001","10.75","60.14","-3.193","0.0"],
    [1406647,"2026-04-07 04:30:00","44227","1.4509999999999998","279.5","2.548","265.8","1020.972","10.83","59.02","-3.41","0.0"],
    [1406648,"2026-04-07 04:40:00","44228","1.4069999999999998","284.7","2.287","280.6","1020.9730000000001","10.77","58.79","-3.069","0.0"],
    [1406649,"2026-04-07 04:50:00","44229","1.6269999999999998","287.4","2.907","310.6","1021.0419999999999","10.53","59.74","-3.3139999999999996","0.0"],
    [1406650,"2026-04-07 05:00:00","44230","1.244","289.4","2.287","285.8","1021.055","10.43","59.85","-2.8689999999999998","0.0"],
    [1406651,"2026-04-07 05:10:00","44231","1.776","286.1","3.005","289.8","1021.081","10.32","59.98","-3.015","0.0"],
    [1406652,"2026-04-07 05:20:00","44232","1.45","288.4","2.221","303.8","1021.1469999999999","10.43","59.21","-1.581","0.0"],
    [1406653,"2026-04-07 05:30:00","44233","1.321","292.8","2.221","278.7","1021.248","10.59","58.35","1.839","0.0"],
    [1406654,"2026-04-07 05:40:00","44234","1.112","287.4","2.483","288.7","1021.3910000000001","10.58","58.25","12.88","0.0"],
    [1406655,"2026-04-07 05:50:00","44235","0.9359999999999999","298.0","1.895","297.2","1021.4860000000001","10.96","56.79","33.27","0.0"],
    [1406656,"2026-04-07 06:00:00","44236","1.129","297.4","1.993","306.3","1021.6139999999999","11.16","56.21","56.57","0.0"],
    [1406657,"2026-04-07 06:10:00","44237","1.229","293.6","2.189","302.9","1021.701","11.56","54.83","79.01","0.0"],
    [1406658,"2026-04-07 06:20:00","44238","1.442","295.7","2.515","301.8","1021.81","11.92","54.05","99.6","0.0"],
    [1406659,"2026-04-07 06:30:00","44239","1.263","304.9","2.613","308.2","1021.7489999999999","12.34","52.59","123.3","0.0"],
    [1406660,"2026-04-07 06:40:00","44240","0.973","318.8","1.764","341.9","1021.715","12.85","51.2","152.1","0.0"],
    [1406661,"2026-04-07 06:50:00","44241","1.217","322.3","1.895","323.4","1021.742","13.42","50.44","185.4","0.0"],
    [1406662,"2026-04-07 07:00:00","44242","0.9890000000000001","320.3","1.47","336","1021.8","14.1","49.76","221.5","0.0"],
    [1406663,"2026-04-07 07:10:00","44243","0.898","315.9","1.503","315.4","1021.773","14.6","48.02","258.7","0.0"],
    [1406664,"2026-04-07 07:20:00","44244","0.865","320.3","1.372","330.5","1021.7669999999999","14.95","47.78","295.6","0.0"],
    [1406665,"2026-04-07 07:30:00","44245","0.813","350.0","1.47","2.001","1021.775","15.34","47.51","333.6","0.0"],
    [1406666,"2026-04-07 07:40:00","44246","0.985","11.9","1.895","30.07","1021.8660000000001","15.84","47.33","370.4","0.0"],
    [1406667,"2026-04-07 07:50:00","44247","1.538","29.26","2.679","47.35","1021.8910000000001","16.28","46.22","386.4","0.0"],
    [1406668,"2026-04-07 08:00:00","44248","2.24","51.68","3.136","45.72","1021.922","16.31","45.84","425.0","0.0"],
    [1406669,"2026-04-07 08:10:00","44249","2.353","50.6","3.593","75.03","1022.025","16.55","46.65","482.1","0.0"],
    [1406670,"2026-04-07 08:20:00","44250","3.057","62.4","4.181","60.2","1022.028","16.74","50.07","515.7","0.0"],
    [1406671,"2026-04-07 08:30:00","44251","3.227","53.3","4.149","53.95","1022.081","16.5","55.13","546.4","0.0"],
    [1406672,"2026-04-07 08:40:00","44252","3.534","52.61","4.345","54.07","1022.074","16.47","54.59","576.2","0.0"],
    [1406673,"2026-04-07 08:50:00","44253","3.6689999999999996","55.14","4.867","51.72","1022.077","16.55","57.98","605.6","0.0"],
    [1406674,"2026-04-07 09:00:00","44254","4.016","55.79","5.227","62.59","1022.059","16.51","60.21","633.6","0.0"],
    [1406675,"2026-04-07 09:10:00","44255","3.8489999999999998","60.28","4.965","80.3","1022.1060000000001","16.49","60.47","658.8","0.0"],
    [1406676,"2026-04-07 09:20:00","44256","3.877","64.63","5.063","53.67","1022.1469999999999","16.53","60.86","683.7","0.0"],
    [1406677,"2026-04-07 09:30:00","44257","3.9019999999999997","66.65","5.553","76.05","1022.148","16.47","62.65","707.3","0.0"],
    [1406678,"2026-04-07 09:40:00","44258","4.025","66.96","5.259","67.58","1022.198","16.33","64.08","729.4","0.0"],
    [1406679,"2026-04-07 09:50:00","44259","4.023","63.33","5.782","67.75","1022.1360000000001","16.4","66.79","750.0","0.0"],
    [1406680,"2026-04-07 10:00:00","44260","4.138999999999999","67.68","5.749","69.29","1022.082","16.65","69.05","769.3","0.0"],
    [1406681,"2026-04-07 10:10:00","44261","3.73","67.53","5.259","68.26","1021.992","16.71","71.89","787.0","0.0"],
    [1406682,"2026-04-07 10:20:00","44262","4.09","66.31","5.684","77.89","1021.934","16.82","73.51","803.0","0.0"],
    [1406683,"2026-04-07 10:30:00","44263","4.397","72.5","6.403","85.3","1021.929","16.62","75.54","819.0","0.0"],
    [1406684,"2026-04-07 10:40:00","44264","4.747","68.75","6.011","83.9","1021.8639999999999","16.53","76.18","833.0","0.0"],
    [1406685,"2026-04-07 10:50:00","44265","4.207","64.51","5.586","74.96","1021.7260000000001","16.88","75.64","845.0","0.0"],
    [1406686,"2026-04-07 11:00:00","44266","4.541","64.64","6.043","60.68","1021.569","16.83","75.62","857.0","0.0"],
    [1406687,"2026-04-07 11:10:00","44267","4.316","64.32","6.141","52.26","1021.461","17.06","75.94","865.0","0.0"],
    [1406688,"2026-04-07 11:20:00","44268","4.383","68.3","5.782","79.99","1021.418","17.2","75.35","875.0","0.0"],
    [1406689,"2026-04-07 11:30:00","44269","4.324","72.49","5.488","80.2","1021.355","16.89","76.4","880.0","0.0"],
    [1406690,"2026-04-07 11:40:00","44270","4.23","73.34","5.521","87.5","1021.253","16.74","77.09","884.0","0.0"],
    [1406691,"2026-04-07 11:50:00","44271","4.42","78.29","5.684","78.05","1021.168","16.73","77.69","886.0","0.0"],
    [1406692,"2026-04-07 12:00:00","44272","4.348","77.86","5.619","88.3","1021.09","16.89","77.54","887.0","0.0"],
    [1406693,"2026-04-07 12:10:00","44273","3.943","79.96","5.521","81.1","1021.082","16.88","77.09","886.0","0.0"],
    [1406694,"2026-04-07 12:20:00","44274","3.9819999999999998","86.9","5.161","84.9","1021.0160000000001","17.32","75.02","883.0","0.0"],
    [1406695,"2026-04-07 12:30:00","44275","3.8310000000000004","84.0","5.325","87.2","1021.0","17.2","75.78","879.0","0.0"],
    [1406696,"2026-04-07 12:40:00","44276","3.659","85.6","5.684","88.7","1020.932","17.24","76.16","873.0","0.0"],
    [1406697,"2026-04-07 13:00:00","44277","4.0360000000000005","80.1","5.749","77.12","1020.835","17.15","76.47","857.0","0.0"],
    [1406698,"2026-04-07 13:10:00","44278","4.247","72.27","5.455","61.17","1020.716","17.16","73.89","847.0","0.0"],
    [1406699,"2026-04-07 13:20:00","44279","4.287","71.69","5.553","74.16","1020.597","17.09","73.35","836.0","0.0"],
    [1406700,"2026-04-07 13:30:00","44280","4.436","75.27","5.521","76.73","1020.5210000000001","16.94","73.75","822.0","0.0"],
    [1406701,"2026-04-07 13:40:00","44281","4.434","71.24","5.945","86.9","1020.4119999999999","17.19","72.47","807.0","0.0"],
    [1406702,"2026-04-07 13:50:00","44282","4.546","75.22","5.978","85.3","1020.302","17.25","72.93","790.6","0.0"],
    [1406703,"2026-04-07 14:00:00","44283","4.375","78.6","5.782","80.8","1020.2339999999999","17.26","74.13","771.6","0.0"],
    [1406704,"2026-04-07 14:10:00","44284","3.9360000000000004","74.54","5.39","82.7","1020.117","17.4","75.33","750.6","0.0"],
    [1406705,"2026-04-07 14:20:00","44285","4.44","76.1","5.586","84.4","1020.075","17.19","76.26","729.3","0.0"],
    [1406706,"2026-04-07 14:30:00","44286","4.302","70.36","5.847","74.18","1020.023","17.13","76.61","707.2","0.0"],
    [1406707,"2026-04-07 14:40:00","44287","4.165","77.05","5.651","82.5","1019.943","17.09","76.3","681.1","0.0"],
    [1406708,"2026-04-07 14:50:00","44288","4.373","75.25","5.651","70","1019.875","16.97","76.82","637.6","0.0"],
    [1406709,"2026-04-07 15:00:00","44289","3.9610000000000003","75.92","5.455","79.21","1019.801","16.89","77.33","601.8","0.0"],
    [1406710,"2026-04-07 15:10:00","44290","3.988","75.21","5.227","78.89","1019.705","17.0","76.84","563.2","0.0"],
    [1406711,"2026-04-07 15:20:00","44291","3.66","75.15","4.867","68.93","1019.602","17.3","75.6","560.4","0.0"],
    [1406712,"2026-04-07 15:30:00","44292","3.8480000000000003","75.56","5.194","69.81","1019.5260000000001","17.18","75.78","532.5","0.0"],
    [1406713,"2026-04-07 15:40:00","44293","3.887","68.35","4.965","75.4","1019.453","17.03","74.31","500.2","0.0"],
    [1406714,"2026-04-07 15:50:00","44294","4.1339999999999995","70.2","5.227","66.57","1019.321","17.14","72.67","465.8","0.0"],
    [1406715,"2026-04-07 16:00:00","44295","4.294","74.96","5.194","74","1019.255","16.96","75.22","431.0","0.0"],
    [1406716,"2026-04-07 16:10:00","44296","3.825","73.74","5.259","80.4","1019.22","16.83","76.42","396.3","0.0"],
    [1406717,"2026-04-07 16:20:00","44297","3.7230000000000003","74.58","5.455","70.51","1019.165","16.83","75.91","359.8","0.0"],
    [1406718,"2026-04-07 16:30:00","44298","3.8789999999999996","74.06","4.835","83.9","1019.15","16.81","77.95","310.8","0.0"],
    [1406719,"2026-04-07 16:40:00","44299","3.562","64.14","4.933","65.33","1019.1060000000001","16.81","79.32","278.3","0.0"],
    [1406720,"2026-04-07 16:50:00","44300","3.266","62.86","4.541","54.83","1019.1469999999999","16.73","80.2","252.1","0.0"],
    [1406721,"2026-04-07 17:00:00","44301","3.2260000000000004","64.2","4.149","54.7","1019.181","16.6","80.5","198.1","0.0"],
    [1406722,"2026-04-07 17:10:00","44302","3.1010000000000004","67.71","4.312","89.8","1019.252","16.29","82.0","134.8","0.0"],
    [1406723,"2026-04-07 17:20:00","44303","3.1239999999999997","71.9","4.214","51.52","1019.289","16.04","83.5","85.2","0.0"],
    [1406724,"2026-04-07 17:30:00","44304","3.39","66.08","4.639","69.23","1019.198","15.93","84.5","42.78","0.0"],
    [1406725,"2026-04-07 17:40:00","44305","3.8810000000000002","66.0","5.161","65.63","1019.054","15.79","85.2","31.69","0.0"],
    [1406726,"2026-04-07 17:50:00","44306","3.4339999999999997","65.66","4.835","56.91","1019.035","15.71","86.0","27.81","0.0"],
    [1406727,"2026-04-07 18:00:00","44307","3.285","66.11","4.606","72.83","1019.067","15.58","86.7","23.95","0.0"],
    [1406728,"2026-04-07 18:10:00","44308","2.753","60.86","4.116","59.35","1019.169","15.48","86.9","12.92","0.0"],
    [1406729,"2026-04-07 18:20:00","44309","2.3569999999999998","60.64","3.528","69.82","1019.2139999999999","15.38","87.3","5.402","0.0"],
    [1406730,"2026-04-07 18:30:00","44310","2.369","53.67","3.822","53.5","1019.257","15.25","87.9","-0.012","0.0"],
    [1406731,"2026-04-07 18:40:00","44311","3.359","55.62","4.051","57.78","1019.185","15.18","88.5","-2.323","0.0"],
    [1406732,"2026-04-07 18:50:00","44312","3.156","58.87","4.083","57.95","1019.17","15.18","88.8","-2.7289999999999996","0.0"],
    [1406733,"2026-04-07 19:00:00","44313","2.707","53.33","3.985","44.54","1019.198","15.1","88.9","-2.755","0.0"],
    [1406734,"2026-04-07 19:10:00","44314","2.784","51.91","4.475","47.91","1019.293","15.05","89.0","-2.78","0.0"],
    [1406735,"2026-04-07 19:20:00","44315","2.134","47.05","3.855","49.69","1019.441","15.05","88.8","-2.863","0.0"],
    [1406736,"2026-04-07 19:30:00","44316","2.112","55.01","3.005","59.37","1019.52","15.07","89.0","-3.0410000000000004","0.0"],
    [1406737,"2026-04-07 19:40:00","44317","1.986","55.2","3.038","55.63","1019.6110000000001","15.03","89.4","-2.82","0.0"],
    [1406738,"2026-04-07 19:50:00","44318","2.123","54.9","3.234","55.81","1019.727","15.03","89.7","-2.7939999999999996","0.0"],
    [1406739,"2026-04-07 20:00:00","44319","2.266","52.07","3.593","67.25","1019.7489999999999","14.98","90.0","-2.736","0.0"],
    [1406740,"2026-04-07 20:10:00","44320","2.654","56.67","4.051","51.53","1019.8639999999999","14.97","90.5","-2.7430000000000003","0.0"],
    [1406741,"2026-04-07 20:20:00","44321","2.557","51.69","4.247","57.13","1019.9110000000001","14.97","90.8","-2.728","0.0"],
    [1406742,"2026-04-07 20:30:00","44322","2.065","45.06","3.103","34.28","1019.8939999999999","14.88","91.0","-2.728","0.0"],
    [1406743,"2026-04-07 20:40:00","44323","2.6180000000000003","44.7","3.92","47.38","1019.929","14.84","91.3","-2.738","0.0"],
    [1406744,"2026-04-07 20:50:00","44324","2.7939999999999996","38.96","3.822","36.59","1019.8960000000001","14.84","91.3","-2.728","0.0"],
    [1406745,"2026-04-07 21:00:00","44325","2.767","41.11","4.279","50.89","1019.9110000000001","14.82","91.2","-2.7319999999999998","0.0"],
    [1406746,"2026-04-07 21:10:00","44326","2.405","40.71","3.691","42.94","1019.9119999999999","14.79","91.2","-2.7289999999999996","0.0"],
    [1406747,"2026-04-07 21:20:00","44327","2.2769999999999997","41.22","3.789","42.83","1019.832","14.8","91.3","-2.73","0.0"],
    [1406748,"2026-04-07 21:30:00","44328","2.805","45.09","4.508","30.24","1019.817","14.75","91.5","-2.728","0.0"],
    [1406749,"2026-04-07 21:40:00","44329","2.707","43.93","4.377","45.77","1019.758","14.68","91.7","-2.728","0.0"],
    [1406750,"2026-04-07 21:50:00","44330","2.847","40.84","4.018","39.02","1019.7360000000001","14.66","92.0","-2.728","0.0"],
    [1406751,"2026-04-07 22:00:00","44331","2.665","45.23","4.116","34.44","1019.757","14.62","92.1","-2.728","0.0"],
    [1406752,"2026-04-07 22:10:00","44332","2.895","48.36","4.541","51.02","1019.7360000000001","14.6","92.3","-2.7230000000000003","0.0"],
    [1406753,"2026-04-07 22:20:00","44333","2.7889999999999997","43.78","3.822","50.06","1019.743","14.5","92.2","-2.727","0.0"],
    [1406754,"2026-04-07 22:30:00","44334","3.437","38.47","5.161","33.75","1019.622","14.44","92.2","-2.728","0.0"],
    [1406755,"2026-04-07 22:40:00","44335","3.5180000000000002","40.22","5.455","31.55","1019.4689999999999","14.4","92.0","-2.7289999999999996","0.0"],
    [1406756,"2026-04-07 22:50:00","44336","3.4139999999999997","37.35","5.227","37.39","1019.51","14.37","91.7","-2.7289999999999996","0.0"],
    [1406757,"2026-04-07 23:00:00","44337","3.8710000000000004","41.68","5.684","37.89","1019.487","14.32","91.2","-2.73","0.0"],
    [1406758,"2026-04-07 23:10:00","44338","3.437","39.79","5.553","38.81","1019.5169999999999","14.3","90.8","-2.7310000000000003","0.0"],
    [1406759,"2026-04-07 23:20:00","44339","2.072","32.94","3.561","31.31","1019.547","14.27","90.4","-2.772","0.0"],
    [1406760,"2026-04-07 23:30:00","44340","1.6580000000000001","33.48","2.809","31.37","1019.5319999999999","14.16","90.0","-2.9619999999999997","0.0"],
    [1406761,"2026-04-07 23:40:00","44341","1.4409999999999998","25.39","2.45","46.02","1019.549","14.04","89.8","-3.321","0.0"],
    [1406762,"2026-04-07 23:50:00","44342","1.598","16.14","2.254","11.18","1019.6139999999999","14.0","89.4","-3.2430000000000003","0.0"],
    [1406763,"2026-04-08 00:00:00","44343","1.8159999999999998","16.22","2.417","26.43","1019.5930000000001","13.93","88.7","-3.33","0.0"],
    [1406764,"2026-04-08 00:10:00","44344","1.59","16.67","2.548","40.31","1019.6030000000001","13.88","87.6","-3.4789999999999996","0.0"],
    [1406765,"2026-04-08 00:20:00","44345","1.673","23.67","2.777","23.88","1019.5310000000001","14.01","87.0","-3.486","0.0"],
    [1406766,"2026-04-08 00:30:00","44346","1.452","26.72","2.483","20.88","1019.513","14.06","86.4","-3.411","0.0"],
    [1406767,"2026-04-08 00:40:00","44347","1.749","35.56","3.071","52.15","1019.512","14.02","86.6","-3.517","0.0"],
    [1406768,"2026-04-08 00:50:00","44348","1.351","29.96","2.711","23.49","1019.53","14.08","85.9","-3.465","0.0"],
    [1406769,"2026-04-08 01:00:00","44349","0.943","28.11","1.797","32.27","1019.472","13.88","85.6","-3.492","0.0"],
    [1406770,"2026-04-08 01:10:00","44350","0.565","8.89","1.699","13.6","1019.419","13.45","86.0","-3.5180000000000002","0.0"],
    [1406771,"2026-04-08 01:20:00","44351","1.044","300.8","1.633","287.9","1019.313","12.59","83.9","-3.6010000000000004","0.0"],
    [1406772,"2026-04-08 01:30:00","44352","0.698","295.3","1.405","299.6","1019.253","12.09","82.3","-4.261","0.0"],
    [1406773,"2026-04-08 01:40:00","44353","0.615","304.9","0.947","306.5","1019.154","11.94","82.3","-4.041","0.0"],
    [1406774,"2026-04-08 01:50:00","44354","0.628","319.9","1.013","327.4","1019.0219999999999","11.74","82.7","-3.53","0.0"],
    [1406775,"2026-04-08 02:00:00","44355","0.726","292.9","1.143","299.7","1019.01","11.72","82.7","-3.5460000000000003","0.0"],
    [1406776,"2026-04-08 02:10:00","44356","0.858","287.1","1.503","280.4","1019.041","11.75","81.4","-3.633","0.0"],
    [1406777,"2026-04-08 02:20:00","44357","0.8079999999999999","274.8","1.503","278.5","1019.075","11.89","80.1","-3.5380000000000003","0.0"],
    [1406778,"2026-04-08 02:30:00","44358","0.848","295.2","1.503","296.6","1018.9580000000001","11.66","79.97","-3.488","0.0"],
    [1406779,"2026-04-08 02:40:00","44359","0.299","307.0","1.013","281.8","1018.882","11.31","80.9","-3.478","0.0"],
    [1406780,"2026-04-08 02:50:00","44360","0.365","298.4","1.307","290","1018.7819999999999","11.45","80.7","-3.0260000000000002","0.0"],
    [1406781,"2026-04-08 03:00:00","44361","0.62","331.7","1.209","336.5","1018.6669999999999","11.13","81.5","-3.093","0.0"],
    [1406782,"2026-04-08 03:10:00","44362","0.273","321.0","1.013","320.6","1018.6460000000001","11.22","81.8","-2.83","0.0"],
    [1406783,"2026-04-08 03:20:00","44363","1.125","278.0","1.993","279.7","1018.76","11.56","79.98","-3.2739999999999996","0.0"],
    [1406784,"2026-04-08 03:30:00","44364","1.147","277.1","1.764","279.1","1018.789","11.94","75.13","-3.2880000000000003","0.0"],
    [1406785,"2026-04-08 03:40:00","44365","0.898","297.0","1.503","296.6","1018.773","11.78","73.86","-3.238","0.0"],
    [1406786,"2026-04-08 03:50:00","44366","0.757","316.4","1.437","324.1","1018.676","11.3","75.32","-3.428","0.0"],
    [1406787,"2026-04-08 04:00:00","44367","0.433","323.3","1.143","323.4","1018.671","11.27","75.53","-2.838","0.0"],
    [1406788,"2026-04-08 04:10:00","44368","0.273","321.4","0.882","324.2","1018.668","11.3","74.73","-2.827","0.0"],
    [1406789,"2026-04-08 04:20:00","44369","0.48700000000000004","323.9","1.078","322.9","1018.664","11.33","73.96","-2.786","0.0"],
    [1406790,"2026-04-08 04:30:00","44370","0.183","305.5","1.176","299.6","1018.7560000000001","11.43","72.81","-2.833","0.0"],
    [1406791,"2026-04-08 04:40:00","44371","0.424","284.8","1.209","302.8","1018.7869999999999","11.39","72.04","-2.7710000000000004","0.0"],
    [1406792,"2026-04-08 04:50:00","44372","0.467","276.6","1.176","272.9","1018.9110000000001","11.09","72.16","-2.7710000000000004","0.0"],
    [1406793,"2026-04-08 05:00:00","44373","0.369","273.0","1.241","269.1","1019.045","11.04","72.26","-2.762","0.0"],
    [1406794,"2026-04-08 05:10:00","44374","0.4","267.0","1.274","269.6","1019.0930000000001","11.0","72.22","-2.4619999999999997","0.0"],
    [1406795,"2026-04-08 05:20:00","44375","0.42700000000000005","270.6","0.882","276.8","1019.171","10.91","72.2","-0.758","0.0"],
    [1406796,"2026-04-08 05:30:00","44376","0.47200000000000003","264.6","1.307","261.6","1019.278","11.25","70.19","3.4389999999999996","0.0"],
    [1406797,"2026-04-08 05:40:00","44377","0.721","272.6","1.927","286.2","1019.44","11.28","69.76","12.25","0.0"],
    [1406798,"2026-04-08 05:50:00","44378","1.278","277.4","2.254","298.9","1019.515","11.26","69.09","28.55","0.0"],
    [1406799,"2026-04-08 06:00:00","44379","1.587","288.0","2.385","281.8","1019.6160000000001","11.42","68.55","49.82","0.0"],
    [1406800,"2026-04-08 06:10:00","44380","0.721","276.2","1.209","292","1019.706","11.43","68.81","70.8","0.0"],
    [1406801,"2026-04-08 06:20:00","44381","1.22","275.0","1.829","272.1","1019.811","12.0","67.2","91.1","0.0"],
    [1406802,"2026-04-08 06:30:00","44382","1.423","273.6","2.319","279.7","1019.8989999999999","12.29","65.94","114.3","0.0"],
    [1406803,"2026-04-08 06:40:00","44383","0.9259999999999999","311.3","1.535","301.8","1019.8839999999999","12.42","67.06","109.1","0.0"],
    [1406804,"2026-04-08 06:50:00","44384","1.415","34.28","3.201","54.01","1019.87","13.27","72.73","163.3","0.0"],
    [1406805,"2026-04-08 07:00:00","44385","3.056","65.29","4.704","63.82","1019.867","14.19","85.1","214.9","0.0"],
    [1406806,"2026-04-08 07:10:00","44386","3.549","71.2","4.671","82.7","1019.938","13.86","88.0","161.9","0.0"],
    [1406807,"2026-04-08 07:20:00","44387","3.142","73.2","4.247","83","1019.971","13.69","89.6","175.2","0.0"],
    [1406808,"2026-04-08 07:30:00","44388","3.582","71.83","4.965","74.96","1019.949","13.61","89.3","192.4","0.0"],
    [1406809,"2026-04-08 07:40:00","44389","3.468","66.59","4.671","56.23","1019.945","13.71","88.6","317.8","0.0"],
    [1406810,"2026-04-08 07:50:00","44390","3.648","67.87","4.769","80.9","1019.9730000000001","13.82","87.3","275.3","0.0"],
    [1406811,"2026-04-08 08:00:00","44391","3.716","72.34","5.096","86.5","1019.944","13.78","87.4","331.4","0.0"],
    [1406812,"2026-04-08 08:10:00","44392","3.611","64.2","5.129","65.6","1019.988","13.93","86.1","371.3","0.0"],
    [1406813,"2026-04-08 08:20:00","44393","3.6060000000000003","62.84","5.292","77.77","1020.03","13.89","85.6","427.6","0.0"],
    [1406814,"2026-04-08 08:30:00","44394","3.508","61.82","5.194","58.08","1020.132","14.2","84.7","473.9","0.0"],
    [1406815,"2026-04-08 08:40:00","44395","3.758","73.98","5.553","83.2","1020.197","14.52","83.3","470.2","0.0"],
    [1406816,"2026-04-08 08:50:00","44396","3.761","74.67","4.933","76.76","1020.2560000000001","14.46","82.9","478.9","0.0"],
    [1406817,"2026-04-08 09:00:00","44397","4.004","64.52","5.259","60.95","1020.247","14.54","82.8","541.9","0.0"],
    [1406818,"2026-04-08 09:10:00","44398","4.329","71.39","5.488","60.74","1020.32","14.73","82.5","624.5","0.0"],
    [1406819,"2026-04-08 09:20:00","44399","4.039","63.98","5.684","83.7","1020.46","14.91","81.1","656.1","0.0"],
    [1406820,"2026-04-08 09:30:00","44400","4.593","71.88","6.566","61.29","1020.433","14.96","81.0","698.4","0.0"],
    [1406821,"2026-04-08 09:40:00","44401","4.3580000000000005","62.41","5.782","76.27","1020.296","15.28","80.5","699.6","0.0"],
    [1406822,"2026-04-08 09:50:00","44402","4.564","60.39","5.88","61.56","1020.262","15.4","80.2","730.9","0.0"],
    [1406823,"2026-04-08 10:00:00","44403","4.6080000000000005","61.87","5.847","69.94","1020.352","15.44","80.2","701.7","0.0"],
    [1406824,"2026-04-08 10:10:00","44404","4.919","54.99","6.729","75.07","1020.293","15.35","80.9","685.0","0.0"],
    [1406825,"2026-04-08 10:20:00","44405","4.821000000000001","64.52","6.533","61.21","1020.225","15.68","79.46","760.1","0.0"],
    [1406826,"2026-04-08 10:30:00","44406","5.172000000000001","65.11","7.089","70.04","1020.1089999999999","15.78","78.55","802.0","0.0"],
    [1406827,"2026-04-08 10:40:00","44407","5.17","65.13","6.893","68.06","1020.077","15.76","78.3","821.0","0.0"],
    [1406828,"2026-04-08 10:50:00","44408","4.851","62.94","6.631","79.4","1020.082","16.12","77.41","836.0","0.0"],
    [1406829,"2026-04-08 11:00:00","44409","5.38","69.55","7.154","74.4","1020.065","16.2","77.67","851.0","0.0"],
    [1406830,"2026-04-08 11:10:00","44410","5.185","72.58","6.86","74.57","1020.0369999999999","16.01","77.94","855.0","0.0"],
    [1406831,"2026-04-08 11:20:00","44411","5.591","71.83","6.958","64.93","1019.988","16.15","77.46","863.0","0.0"],
    [1406832,"2026-04-08 11:30:00","44412","5.792000000000001","66.82","7.709","54.48","1019.89","16.2","77.75","868.0","0.0"],
    [1406833,"2026-04-08 11:40:00","44413","5.224","68.69","7.546","75.62","1019.883","16.45","77.65","871.0","0.0"],
    [1406834,"2026-04-08 11:50:00","44414","5.678999999999999","69.56","7.187","73.91","1019.8839999999999","16.37","77.91","874.0","0.0"],
    [1406835,"2026-04-08 12:00:00","44415","5.4239999999999995","73.27","7.415","82.7","1019.855","16.52","77.53","874.0","0.0"],
    [1406836,"2026-04-08 12:10:00","44416","5.551","65.14","7.154","73.05","1019.695","16.65","76.65","875.0","0.0"],
    [1406837,"2026-04-08 12:20:00","44417","5.497999999999999","71.92","7.187","62.69","1019.7239999999999","16.49","77.15","871.0","0.0"],
    [1406838,"2026-04-08 12:30:00","44418","5.711","67.23","7.35","70.51","1019.68","16.47","78.08","865.0","0.0"],
    [1406839,"2026-04-08 12:40:00","44419","5.457999999999999","70.64","7.154","70.97","1019.586","16.6","78.11","860.0","0.0"],
    [1406840,"2026-04-08 12:50:00","44420","5.671","72.31","6.762","76.92","1019.576","16.53","78.3","853.0","0.0"],
    [1406841,"2026-04-08 13:00:00","44421","5.417999999999999","70.44","7.219","75.45","1019.5210000000001","16.69","78.2","846.0","0.0"],
    [1406842,"2026-04-08 13:10:00","44422","6.039","73.18","7.579","78.9","1019.5310000000001","16.66","77.38","837.0","0.0"],
    [1406843,"2026-04-08 13:20:00","44423","5.485","71.38","6.958","73.33","1019.55","16.5","78.43","824.0","0.0"],
    [1406844,"2026-04-08 13:30:00","44424","5.37","61.18","7.187","75.93","1019.435","16.74","77.83","814.0","0.0"],
    [1406845,"2026-04-08 13:40:00","44425","5.622000000000001","62.96","7.611","53.66","1019.4110000000001","16.74","77.58","802.0","0.0"],
    [1406846,"2026-04-08 13:50:00","44426","5.627999999999999","59.54","7.219","67.25","1019.36","16.69","77.76","766.6","0.0"],
    [1406847,"2026-04-08 14:00:00","44427","5.018","56.85","6.991","55.97","1019.31","16.87","77.71","768.6","0.0"],
    [1406848,"2026-04-08 14:10:00","44428","6.013999999999999","65.53","7.677","66.49","1019.217","16.59","78.76","749.6","0.0"],
    [1406849,"2026-04-08 14:20:00","44429","5.601","54.17","7.089","53.86","1019.169","16.75","78.64","723.8","0.0"],
    [1406850,"2026-04-08 14:30:00","44430","5.624","58.81","7.35","67.07","1019.0830000000001","16.66","79.27","703.3","0.0"],
    [1406851,"2026-04-08 14:40:00","44431","6.104","55.17","7.579","46.58","1018.953","16.49","80.1","687.3","0.0"],
    [1406852,"2026-04-08 14:50:00","44432","6.105","60.71","7.775","54.61","1018.8969999999999","16.41","80.5","662.3","0.0"],
    [1406853,"2026-04-08 15:00:00","44433","5.99","59.67","7.546","63.21","1018.778","16.54","80.2","631.2","0.0"],
    [1406854,"2026-04-08 15:10:00","44434","5.912999999999999","53.41","7.546","55.61","1018.817","16.49","80.4","564.7","0.0"],
    [1406855,"2026-04-08 15:20:00","44435","5.551","55.87","7.807","46.15","1018.83","16.34","81.1","516.9","0.0"],
    [1406856,"2026-04-08 15:30:00","44436","4.883","64.62","6.925","71.65","1019.0089999999999","16.25","81.8","452.6","0.0"],
    [1406857,"2026-04-08 15:40:00","44437","4.638999999999999","70.6","5.978","69.39","1019.0010000000001","16.41","81.4","493.2","0.0"],
    [1406858,"2026-04-08 15:50:00","44438","4.779","67.07","6.207","63.79","1019.051","16.35","81.7","452.8","0.0"],
    [1406859,"2026-04-08 16:00:00","44439","4.3180000000000005","72.32","5.717","82.4","1019.066","16.49","81.4","422.4","0.0"],
    [1406860,"2026-04-08 16:10:00","44440","4.3389999999999995","64.13","5.619","50.89","1019.133","16.33","82.2","383.6","0.0"],
    [1406861,"2026-04-08 16:20:00","44441","4.3660000000000005","74.03","5.913","70.91","1019.2669999999999","16.2","82.8","334.4","0.0"],
    [1406862,"2026-04-08 16:30:00","44442","3.681","80.6","4.671","81.6","1019.319","16.06","83.4","247.6","0.0"],
    [1406863,"2026-04-08 16:40:00","44443","3.7939999999999996","72.78","4.867","57.4","1019.315","15.99","83.9","259.5","0.0"],
    [1406864,"2026-04-08 16:50:00","44444","3.702","66.57","4.9","47.28","1019.329","15.95","84.0","214.9","0.0"],
    [1406865,"2026-04-08 17:00:00","44445","3.7119999999999997","55.34","5.194","43.82","1019.24","15.98","84.0","232.5","0.0"],
    [1406866,"2026-04-08 17:10:00","44446","4.131","62.3","5.423","47.65","1019.2539999999999","15.71","84.7","161.8","0.0"],
    [1406867,"2026-04-08 17:20:00","44447","3.446","66.89","5.488","71.81","1019.3330000000001","15.65","85.5","159.5","0.0"],
    [1406868,"2026-04-08 17:30:00","44448","2.766","67.47","3.789","57.8","1019.5089999999999","15.57","85.8","128.6","0.0"],
    [1406869,"2026-04-08 17:40:00","44449","3.094","60.97","4.998","50.89","1019.3919999999999","15.58","86.2","128.3","0.0"],
    [1406870,"2026-04-08 17:50:00","44450","3.197","78.9","4.345","80.6","1019.3589999999999","15.46","86.2","73.3","0.0"],
    [1406871,"2026-04-08 18:00:00","44451","2.853","76.87","4.214","87","1019.467","15.26","86.9","33.97","0.0"],
    [1406872,"2026-04-08 18:10:00","44452","2.937","64.34","4.9","82.5","1019.35","15.12","87.2","15.79","0.0"],
    [1406873,"2026-04-08 18:20:00","44453","2.6860000000000004","74.09","4.214","69.87","1019.325","15.03","87.5","6.345","0.0"],
    [1406874,"2026-04-08 18:30:00","44454","2.852","61.47","4.933","39.25","1019.3380000000001","14.84","88.1","2.146","0.0"],
    [1406875,"2026-04-08 18:40:00","44455","2.924","55.31","4.018","42.04","1019.405","14.76","88.3","-0.36","0.0"],
    [1406876,"2026-04-08 18:50:00","44456","3.109","54.39","4.279","70.03","1019.373","14.63","88.6","-1.209","0.0"],
    [1406877,"2026-04-08 19:00:00","44457","3.448","55.61","5.455","39.83","1019.365","14.67","88.5","-1.224","0.0"],
    [1406878,"2026-04-08 19:10:00","44458","3.385","60.6","4.769","56.45","1019.551","14.6","88.7","-1.235","0.0"],
    [1406879,"2026-04-08 19:20:00","44459","3.23","60.85","4.41","58.18","1019.6410000000001","14.55","88.6","-2.161","0.0"],
    [1406880,"2026-04-08 19:30:00","44460","3.235","60.68","4.9","51.8","1019.773","14.48","88.6","-2.715","0.0"],
    [1406881,"2026-04-08 19:40:00","44461","3.14","48.47","4.181","41.01","1019.805","14.38","89.0","-2.727","0.0"],
    [1406882,"2026-04-08 19:50:00","44462","2.807","45.55","4.279","50.71","1019.841","14.33","89.1","-2.728","0.0"],
    [1406883,"2026-04-08 20:00:00","44463","2.339","49.38","3.463","51.69","1019.873","14.3","89.1","-2.741","0.0"],
    [1406884,"2026-04-08 20:10:00","44464","2.426","49.31","3.463","46.37","1019.877","14.27","89.1","-2.741","0.0"],
    [1406885,"2026-04-08 20:20:00","44465","2.877","65.83","3.985","62.63","1019.8439999999999","14.23","89.3","-2.733","0.0"],
    [1406886,"2026-04-08 20:30:00","44466","2.728","67.09","4.541","47.53","1019.817","14.18","89.8","-2.728","0.0"],
    [1406887,"2026-04-08 20:40:00","44467","2.821","60.33","4.214","64.75","1019.857","14.15","90.5","-2.7289999999999996","0.0"],
    [1406888,"2026-04-08 20:50:00","44468","2.227","57.82","3.528","46.56","1019.9060000000001","14.08","91.0","-2.728","0.0"],
    [1406889,"2026-04-08 21:00:00","44469","2.496","62.19","3.528","58.9","1019.84","14.05","91.1","-2.7289999999999996","0.0"],
    [1406890,"2026-04-08 21:10:00","44470","2.246","61.71","3.103","54.14","1019.8","13.97","91.2","-2.734","0.0"],
    [1406891,"2026-04-08 21:20:00","44471","2.345","69.31","3.43","63.95","1019.716","13.98","91.3","-2.734","0.0"],
    [1406892,"2026-04-08 21:30:00","44472","2.138","64.87","2.777","61.21","1019.576","13.92","91.5","-2.735","0.0"],
    [1406893,"2026-04-08 21:40:00","44473","1.994","60.79","3.103","57.16","1019.587","13.93","91.8","-2.739","0.0"],
    [1406894,"2026-04-08 21:50:00","44474","1.024","64.73","2.221","63.4","1019.693","13.9","91.8","-2.741","0.0"],
    [1406895,"2026-04-08 22:00:00","44475","1.104","68.32","1.862","64.37","1019.796","13.8","92.1","-2.779","0.0"],
    [1406896,"2026-04-08 22:10:00","44476","0.633","78.9","1.143","65.09","1019.82","13.72","92.3","-2.7489999999999997","0.0"],
    [1406897,"2026-04-08 22:20:00","44477","0.46299999999999997","105.6","1.045","96.7","1019.8","13.65","92.8","-2.8810000000000002","0.0"],
    [1406898,"2026-04-08 22:30:00","44478","0.001","96.5","0.229","96.2","1019.883","13.44","92.5","-2.7560000000000002","0.0"],
    [1406899,"2026-04-08 22:40:00","44479","0.0","96.9","0.033","96.9","1019.814","13.14","92.9","-2.884","0.0"],
    [1406900,"2026-04-08 22:50:00","44480","0.48700000000000004","79.97","1.209","74.42","1019.7489999999999","13.17","93.3","-2.8810000000000002","0.0"],
    [1406901,"2026-04-08 23:00:00","44481","0.019","70.55","0.555","70.66","1019.679","12.97","93.1","-2.762","0.0"],
    [1406902,"2026-04-08 23:10:00","44482","0.0","70.58","0.033","70.58","1019.597","12.78","93.5","-2.76","0.0"],
    [1406903,"2026-04-08 23:30:00","44483","0.0","0.0","0","0","1019.462","12.53","93.5","-2.761","0.0"],
    [1406904,"2026-04-08 23:40:00","44484","0.0","70.67","0.033","70.67","1019.436","12.51","93.7","-2.762","0.0"],
    [1406905,"2026-04-08 23:50:00","44485","0.0","0.0","0","0","1019.3389999999999","12.33","93.7","-2.725","0.0"],
    [1406906,"2026-04-09 00:00:00","44486","0.128","88.9","0.751","93.2","1019.275","12.2","93.9","-2.875","0.0"],
    [1406907,"2026-04-09 00:10:00","44487","1.0","90.8","1.274","87","1019.32","12.68","94.6","-2.592","0.0"],
    [1406908,"2026-04-09 00:20:00","44488","0.19899999999999998","98.7","0.849","89.1","1019.342","12.41","94.7","-1.321","0.0"],
    [1406909,"2026-04-09 00:30:00","44489","0.33799999999999997","155.4","1.111","165.5","1019.36","12.34","95.1","-1.704","0.0"],
    [1406910,"2026-04-09 00:40:00","44490","0.311","150.6","1.372","156.4","1019.2510000000001","12.39","95.3","-2.097","0.0"],
    [1406911,"2026-04-09 00:50:00","44491","0.035","134.0","0.686","138.7","1019.199","12.3","95.4","-2.074","0.0"],
    [1406912,"2026-04-09 01:00:00","44492","0.009000000000000001","131.7","0.261","128.7","1019.041","12.19","95.5","-1.982","0.0"],
    [1406913,"2026-04-09 01:10:00","44493","0.0","0.0","0","0","1018.967","12.08","95.6","-2.032","0.0"],
    [1406914,"2026-04-09 01:20:00","44494","0.0","0.0","0","0","1018.87","11.89","95.6","-2.043","0.0"],
    [1406915,"2026-04-09 01:30:00","44495","0.0","0.0","0","0","1018.76","11.84","95.8","-2.161","0.0"],
    [1406916,"2026-04-09 01:40:00","44496","0.002","150.6","0.131","171.7","1018.6669999999999","11.68","95.9","-2.6289999999999996","0.0"],
    [1406917,"2026-04-09 01:50:00","44497","0.254","216.6","1.339","242.9","1018.6439999999999","11.44","95.7","-2.398","0.0"],
    [1406918,"2026-04-09 02:00:00","44498","0.092","230.5","0.686","234.3","1018.562","11.37","95.8","-2.549","0.0"],
    [1406919,"2026-04-09 02:10:00","44499","0.0","126.9","0.033","126.9","1018.575","11.35","95.8","-2.461","0.0"],
    [1406920,"2026-04-09 02:20:00","44500","0.0","0.0","0","0","1018.512","11.37","95.9","-2.6189999999999998","0.0"],
    [1406921,"2026-04-09 02:30:00","44501","0.0","0.0","0","0","1018.4119999999999","11.42","96.0","-2.611","0.0"],
    [1406922,"2026-04-09 02:40:00","44502","0.0","0.0","0","0","1018.3380000000001","11.34","96.0","-2.63","0.0"],
    [1406923,"2026-04-09 02:50:00","44503","0.504","122.5","0.882","126.4","1018.245","11.33","96.2","-2.2680000000000002","0.0"],
    [1406924,"2026-04-09 03:00:00","44504","0.038","124.1","0.294","124.7","1018.2130000000001","11.31","96.3","-2.1590000000000003","0.0"],
    [1406925,"2026-04-09 03:10:00","44505","0.026000000000000002","126.5","0.686","127.3","1018.2","11.27","96.3","-2.443","0.0"],
    [1406926,"2026-04-09 03:20:00","44506","0.021","120.9","0.359","120.9","1018.054","11.26","96.4","-2.506","0.0"],
    [1406927,"2026-04-09 03:30:00","44507","0.09699999999999999","119.7","0.621","119.9","1018.0","11.18","96.3","-2.024","0.0"],
    [1406928,"2026-04-09 03:40:00","44508","0.222","110.6","0.915","106.2","1018.0210000000001","11.2","96.5","-2.024","0.0"],
    [1406929,"2026-04-09 03:50:00","44509","0.161","232.6","1.143","238.9","1018.015","10.85","96.1","-1.901","0.0"],
    [1406930,"2026-04-09 04:00:00","44510","1.247","239.5","2.091","228.3","1017.939","10.12","94.9","-1.2570000000000001","0.0"],
    [1406931,"2026-04-09 04:10:00","44511","1.24","238.6","1.829","244.3","1017.8739999999999","10.01","92.7","-0.755","0.0"],
    [1406932,"2026-04-09 04:20:00","44512","1.4169999999999998","251.8","3.528","254.6","1017.923","10.54","88.6","-0.878","0.0"],
    [1406933,"2026-04-09 04:30:00","44513","1.8769999999999998","257.1","4.247","263.2","1017.946","11.78","77.78","-1.187","0.0"],
    [1406934,"2026-04-09 04:40:00","44514","1.786","250.3","3.43","271.6","1017.8910000000001","12.62","68.59","-1.252","0.0"],
    [1406935,"2026-04-09 04:50:00","44515","1.8769999999999998","256.2","3.691","262.4","1017.842","12.95","65.14","-1.2670000000000001","0.0"],
    [1406936,"2026-04-09 05:00:00","44516","1.795","262.4","3.267","270.5","1017.852","12.71","65.97","-1.261","0.0"],
    [1406937,"2026-04-09 05:10:00","44517","1.95","259.8","4.116","276.6","1017.935","12.45","67.17","-0.826","0.0"],
    [1406938,"2026-04-09 05:20:00","44518","1.544","254.6","3.005","264.1","1018.056","12.69","65.5","2.8139999999999996","0.0"],
    [1406939,"2026-04-09 05:30:00","44519","1.5819999999999999","264.4","3.267","283.4","1018.19","12.69","65.05","7.1129999999999995","0.0"],
    [1406940,"2026-04-09 05:40:00","44520","1.3130000000000002","276.1","3.005","280","1018.278","12.61","65.44","19.4","0.0"],
    [1406941,"2026-04-09 05:50:00","44521","1.087","309.0","2.548","290.8","1018.3739999999999","12.02","68.96","38.03","0.0"],
    [1406942,"2026-04-09 06:00:00","44522","0.0","0.0","0","0","1018.5980000000001","11.99","70.0","58.97","0.0"],
    [1406943,"2026-04-09 06:10:00","44523","0.0","327.1","0.033","327.1","1018.701","12.29","69.44","86.4","0.0"],
    [1406944,"2026-04-09 06:20:00","44524","0.0","0.0","0","0","1018.7919999999999","12.85","69.16","127.4","0.0"],
    [1406945,"2026-04-09 06:30:00","44525","0.0","0.0","0","0","1018.812","13.18","68.16","114.2","0.0"],
    [1406946,"2026-04-09 06:40:00","44526","0.23","55.06","1.209","64.12","1018.883","13.59","73.35","109.8","0.0"],
    [1406947,"2026-04-09 06:50:00","44527","1.716","80.7","2.679","89.2","1018.972","13.58","80.2","123.6","0.0"],
    [1406948,"2026-04-09 07:00:00","44528","1.77","88.3","2.973","86.6","1019.0880000000001","13.23","82.0","150.6","0.0"],
    [1406949,"2026-04-09 07:10:00","44529","1.794","70.22","2.711","55.96","1018.9939999999999","13.29","81.1","168.1","0.0"],
    [1406950,"2026-04-09 07:20:00","44530","2.219","50.22","3.038","62.13","1018.931","13.57","79.8","185.2","0.0"],
    [1406951,"2026-04-09 07:30:00","44531","2.276","71.97","2.973","75.67","1019.005","13.59","83.6","189.9","0.0"],
    [1406952,"2026-04-09 07:40:00","44532","2.401","80.3","2.973","101.2","1019.1260000000001","13.45","86.2","211.1","0.0"],
    [1406953,"2026-04-09 07:50:00","44533","2.694","74.88","3.234","73.04","1019.03","13.27","88.2","250.5","0.0"],
    [1406954,"2026-04-09 08:00:00","44534","2.079","80.5","2.679","86.8","1019.073","13.49","87.4","349.3","0.0"],
    [1406955,"2026-04-09 08:10:00","44535","1.6219999999999999","88.2","2.809","87.4","1019.178","13.85","85.9","355.0","0.0"],
    [1406956,"2026-04-09 08:20:00","44536","1.524","88.6","2.319","86","1019.265","14.13","84.7","459.6","0.0"],
    [1406957,"2026-04-09 08:30:00","44537","1.3","82.8","1.927","81","1019.3539999999999","14.74","81.7","497.5","0.0"],
    [1406958,"2026-04-09 08:40:00","44538","1.778","79.49","2.385","67.4","1019.428","15.14","80.6","564.9","0.0"],
    [1406959,"2026-04-09 08:50:00","44539","1.7","90.2","2.417","87.4","1019.465","15.25","79.71","609.1","0.0"],
    [1406960,"2026-04-09 09:00:00","44540","1.662","91.9","2.417","81.4","1019.5010000000001","15.74","78.0","561.1","0.0"],
    [1406961,"2026-04-09 09:10:00","44541","2.261","90.0","3.201","81.2","1019.445","15.53","78.44","561.7","0.0"],
    [1406962,"2026-04-09 09:20:00","44542","1.944","91.1","2.744","89.7","1019.529","15.69","78.01","592.6","0.0"],
    [1406963,"2026-04-09 09:30:00","44543","2.569","86.3","3.561","85","1019.605","15.71","77.75","596.1","0.0"],
    [1406964,"2026-04-09 09:40:00","44544","2.654","87.0","3.691","85.4","1019.5210000000001","15.56","79.1","662.2","0.0"],
    [1406965,"2026-04-09 09:50:00","44545","2.262","91.6","3.463","89.2","1019.424","15.72","77.99","722.7","0.0"],
    [1406966,"2026-04-09 10:00:00","44546","2.095","91.0","2.973","81.5","1019.426","15.76","77.86","752.2","0.0"],
    [1406967,"2026-04-09 10:10:00","44547","1.764","92.1","3.136","82.3","1019.4680000000001","16.08","76.11","781.6","0.0"],
    [1406968,"2026-04-09 10:20:00","44548","1.962","85.9","2.842","78.1","1019.444","16.66","73.42","777.7","0.0"],
    [1406969,"2026-04-09 10:30:00","44549","1.419","103.6","2.613","149","1019.322","17.29","70.89","784.1","0.0"],
    [1406970,"2026-04-09 10:40:00","44550","2.115","172.9","4.083","153.9","1019.3510000000001","17.74","67.65","752.9","0.0"],
    [1406971,"2026-04-09 10:50:00","44551","2.531","200.4","4.247","217.9","1019.316","17.74","65.97","792.8","0.0"],
    [1406972,"2026-04-09 11:00:00","44552","2.68","213.8","4.214","220.5","1019.2760000000001","17.44","68.76","811.0","0.0"],
    [1406973,"2026-04-09 11:10:00","44553","2.1069999999999998","200.4","4.247","220.4","1019.1460000000001","17.91","68.94","775.9","0.0"],
    [1406974,"2026-04-09 11:20:00","44554","2.375","207.5","3.593","221.4","1018.985","18.04","70.15","871.0","0.0"],
    [1406975,"2026-04-09 11:30:00","44555","2.1","202.9","3.365","174.9","1018.87","18.33","70.04","865.0","0.0"],
    [1406976,"2026-04-09 11:40:00","44556","2.256","197.7","3.43","208","1018.7689999999999","19.2","68.64","848.0","0.0"],
    [1406977,"2026-04-09 11:50:00","44557","2.997","197.0","4.606","211.4","1018.702","19.06","66.12","895.0","0.0"],
    [1406978,"2026-04-09 12:00:00","44558","2.8310000000000004","201.8","4.606","181.2","1018.6310000000001","19.22","63.37","898.0","0.0"],
    [1406979,"2026-04-09 12:10:00","44559","2.522","193.0","4.279","210.4","1018.56","19.77","60.99","902.0","0.0"],
    [1406980,"2026-04-09 12:20:00","44560","2.197","189.1","4.312","173.5","1018.415","20.08","56.0","891.0","0.0"],
    [1406981,"2026-04-09 12:30:00","44561","2.344","193.9","3.659","175.8","1018.2869999999999","20.16","57.11","914.0","0.0"],
    [1406982,"2026-04-09 12:40:00","44562","2.609","193.8","4.181","182.1","1018.2639999999999","20.51","56.9","852.0","0.0"],
    [1406983,"2026-04-09 12:50:00","44563","2.1630000000000003","187.7","3.561","178.9","1018.298","20.61","55.51","776.5","0.0"],
    [1406984,"2026-04-09 13:00:00","44564","2.336","191.3","3.887","188.2","1018.295","20.39","56.74","750.2","0.0"],
    [1406985,"2026-04-09 13:10:00","44565","2.8360000000000003","188.6","4.181","203.1","1018.2289999999999","19.49","61.36","744.3","0.0"],
    [1406986,"2026-04-09 13:20:00","44566","3.033","185.4","4.671","171.5","1018.174","18.86","66.3","732.2","0.0"],
    [1406987,"2026-04-09 13:30:00","44567","2.593","191.9","4.247","174.6","1018.046","19.11","66.9","761.1","0.0"],
    [1406988,"2026-04-09 13:40:00","44568","2.793","205.4","4.606","218","1017.982","18.95","67.08","727.1","0.0"],
    [1406989,"2026-04-09 13:50:00","44569","2.72","206.4","4.737","215.6","1017.882","18.52","70.53","720.8","0.0"],
    [1406990,"2026-04-09 14:00:00","44570","2.468","190.7","4.41","177.8","1017.7689999999999","18.49","70.5","721.1","0.0"],
    [1406991,"2026-04-09 14:10:00","44571","2.85","188.7","4.704","183.2","1017.654","17.99","71.36","708.5","0.0"],
    [1406992,"2026-04-09 14:20:00","44572","2.79","207.4","5.063","218","1017.546","17.93","71.11","715.5","0.0"],
    [1406993,"2026-04-09 14:30:00","44573","2.911","206.6","4.867","198.5","1017.495","18.68","67.72","726.9","0.0"],
    [1406994,"2026-04-09 14:40:00","44574","2.716","202.0","5.194","219","1017.3389999999999","19.29","64.68","669.6","0.0"],
    [1406995,"2026-04-09 14:50:00","44575","2.813","196.3","4.933","217","1017.2389999999999","19.17","63.42","571.3","0.0"],
    [1406996,"2026-04-09 15:00:00","44576","3.596","209.2","5.586","219.5","1017.175","18.5","66.3","540.3","0.0"],
    [1406997,"2026-04-09 15:10:00","44577","2.675","200.6","4.671","195.4","1017.059","18.34","68.73","523.2","0.0"],
    [1406998,"2026-04-09 15:20:00","44578","2.151","200.1","4.867","219.6","1016.9810000000001","18.45","69.22","510.7","0.0"],
    [1406999,"2026-04-09 15:30:00","44579","3.1210000000000004","203.9","5.749","212","1016.829","18.35","68.26","482.4","0.0"],
    [1407000,"2026-04-09 15:40:00","44580","2.25","196.3","4.704","211.3","1016.7410000000001","18.26","69.01","485.4","0.0"],
    [1407001,"2026-04-09 15:50:00","44581","3.19","203.9","5.553","214.5","1016.6060000000001","18.89","64.44","465.7","0.0"],
    [1407002,"2026-04-09 16:00:00","44582","3.3289999999999997","204.7","6.043","204.4","1016.492","18.71","63.94","379.6","0.0"],
    [1407003,"2026-04-09 16:10:00","44583","2.342","194.4","4.867","212.1","1016.44","18.69","62.89","341.1","0.0"],
    [1407004,"2026-04-09 16:20:00","44584","2.588","210.3","5.096","220.6","1016.3810000000001","18.84","59.76","290.8","0.0"],
    [1407005,"2026-04-09 16:30:00","44585","2.36","212.6","4.181","197.3","1016.39","18.88","59.89","268.2","0.0"],
    [1407006,"2026-04-09 16:40:00","44586","2.073","215.4","4.377","212.8","1016.452","18.63","61.58","246.6","0.0"],
    [1407007,"2026-04-09 16:50:00","44587","2.395","208.1","4.769","226.6","1016.3810000000001","18.46","61.79","213.6","0.0"],
    [1407008,"2026-04-09 17:00:00","44588","2.3680000000000003","200.2","4.802","221.1","1016.3639999999999","18.45","63.03","233.1","0.0"],
    [1407009,"2026-04-09 17:10:00","44589","2.472","205.9","4.867","205","1016.395","18.22","65.0","188.3","0.0"],
    [1407010,"2026-04-09 17:20:00","44590","2.6039999999999996","212.3","4.737","225.7","1016.3739999999999","17.83","67.82","144.2","0.0"],
    [1407011,"2026-04-09 17:30:00","44591","2.7239999999999998","208.5","4.508","204","1016.34","17.57","69.04","126.1","0.0"],
    [1407012,"2026-04-09 17:40:00","44592","3.162","210.2","5.325","215.2","1016.321","17.39","69.71","101.1","0.0"],
    [1407013,"2026-04-09 17:50:00","44593","2.031","195.0","4.083","209.3","1016.3389999999999","17.22","71.26","73.46","0.0"],
    [1407014,"2026-04-09 18:00:00","44594","2.472","204.6","4.508","219.3","1016.347","16.94","73.36","44.67","0.0"],
    [1407015,"2026-04-09 18:10:00","44595","1.962","207.9","3.855","208","1016.365","16.76","75.15","29.54","0.0"],
    [1407016,"2026-04-09 18:20:00","44596","2.4819999999999998","208.2","3.92","211.9","1016.414","16.59","76.49","12.67","0.0"],
    [1407017,"2026-04-09 18:30:00","44597","2.7310000000000003","213.9","4.247","219.7","1016.4780000000001","16.43","77.2","3.228","0.0"],
    [1407018,"2026-04-09 18:40:00","44598","2.582","209.6","4.802","215.6","1016.553","16.31","78.72","0.36700000000000005","0.0"],
    [1407019,"2026-04-09 18:50:00","44599","2.33","211.8","3.561","203.8","1016.628","16.17","80.4","-2.693","0.0"],
    [1407020,"2026-04-09 19:00:00","44600","2.329","218.4","3.299","223.2","1016.725","16.09","81.4","-2.716","0.0"],
    [1407021,"2026-04-09 19:10:00","44601","2.464","215.8","3.593","224.9","1016.793","16.06","80.9","-2.77","0.0"],
    [1407022,"2026-04-09 19:20:00","44602","1.6740000000000002","232.3","3.005","222.5","1016.8919999999999","16.09","79.04","-2.7310000000000003","0.0"],
    [1407023,"2026-04-09 19:30:00","44603","1.631","221.8","2.45","220.8","1016.961","16.15","77.59","-2.806","0.0"],
    [1407024,"2026-04-09 19:40:00","44604","1.315","225.0","2.189","226.7","1016.9780000000001","16.1","77.29","-2.772","0.0"],
    [1407025,"2026-04-09 19:50:00","44605","1.025","245.3","1.927","235","1017.1039999999999","15.9","77.2","-3.2110000000000003","0.0"],
    [1407026,"2026-04-09 20:00:00","44606","1.213","234.9","2.156","232.7","1017.1139999999999","16.02","75.73","-3.062","0.0"],
    [1407027,"2026-04-09 20:10:00","44607","0.779","231.2","1.699","240.6","1017.2639999999999","16.0","74.86","-3.034","0.0"],
    [1407028,"2026-04-09 20:20:00","44608","0.62","205.4","1.437","218.6","1017.306","15.95","75.92","-2.935","0.0"],
    [1407029,"2026-04-09 20:30:00","44609","1.119","207.2","2.319","202.6","1017.335","15.77","77.12","-3.323","0.0"],
    [1407030,"2026-04-09 20:40:00","44610","2.206","219.6","NAN","202.6","1017.3989999999999","15.89","78.73","-3.002","0.0"],
    [1407031,"2026-04-09 20:50:00","44611","1.351","232.4","NAN","202.6","1017.437","15.74","79.63","-2.763","0.0"],
    [1407032,"2026-04-09 21:00:00","44612","1.58","233.8","NAN","202.6","1017.4","15.8","79.73","-2.8510000000000004","0.0"],
    [1407033,"2026-04-09 21:10:00","44613","1.001","242.3","1.764","251.6","1017.3689999999999","15.8","80.7","-2.7689999999999997","0.0"],
    [1407034,"2026-04-09 21:20:00","44614","1.3969999999999998","232.4","2.385","232.8","1017.4069999999999","15.77","81.4","-2.908","0.0"],
    [1407035,"2026-04-09 21:30:00","44615","1.52","225.2","2.254","227.7","1017.41","15.74","81.6","-2.8080000000000003","0.0"],
    [1407036,"2026-04-09 21:40:00","44616","1.297","225.5","2.254","226","1017.4060000000001","15.75","81.3","-2.753","0.0"],
    [1407037,"2026-04-09 21:50:00","44617","1.212","228.3","2.156","235.6","1017.3960000000001","15.65","82.5","-3.273","0.0"],
    [1407038,"2026-04-09 22:00:00","44618","1.535","224.5","2.091","212.2","1017.398","15.64","83.0","-2.815","0.0"],
    [1407039,"2026-04-09 22:10:00","44619","1.7630000000000001","228.6","2.744","217.9","1017.432","15.6","83.6","-2.802","0.0"],
    [1407040,"2026-04-09 22:20:00","44620","2.181","219.9","2.875","222","1017.431","15.57","84.0","-2.738","0.0"],
    [1407041,"2026-04-09 22:30:00","44621","2.02","229.3","3.038","225.6","1017.438","15.5","83.1","-2.7289999999999996","0.0"],
    [1407042,"2026-04-09 22:40:00","44622","1.34","236.0","2.123","247.8","1017.548","15.39","79.48","-2.734","0.0"],
    [1407043,"2026-04-09 22:50:00","44623","1.062","240.2","1.829","230.5","1017.545","15.46","79.27","-2.9189999999999996","0.0"],
    [1407044,"2026-04-09 23:00:00","44624","1.392","236.0","2.189","246.5","1017.488","15.45","81.6","-3.0239999999999996","0.0"],
    [1407045,"2026-04-09 23:10:00","44625","0.94","269.5","1.797","254.8","1017.572","14.92","81.1","-2.728","0.0"],
    [1407046,"2026-04-09 23:20:00","44626","0.8690000000000001","265.2","1.437","255.4","1017.654","14.14","79.22","-2.763","0.0"],
    [1407047,"2026-04-09 23:30:00","44627","0.785","239.6","1.666","206.7","1017.67","14.21","78.96","-2.773","0.0"],
    [1407048,"2026-04-09 23:40:00","44628","1.17","227.5","2.581","220.6","1017.625","14.74","77.71","-2.909","0.0"],
    [1407049,"2026-04-09 23:50:00","44629","1.401","233.6","2.548","234.3","1017.578","15.26","71.96","-2.784","0.0"],
    [1407050,"2026-04-10 00:00:00","44630","1.3769999999999998","239.7","2.385","273.9","1017.492","15.06","66.27","-2.7319999999999998","0.0"],
    [1407051,"2026-04-10 00:10:00","44631","1.239","246.4","2.581","236.9","1017.472","14.95","63.59","-2.736","0.0"],
    [1407052,"2026-04-10 00:20:00","44632","1.3159999999999998","269.0","2.613","268.8","1017.4169999999999","14.9","61.94","-2.741","0.0"],
    [1407053,"2026-04-10 00:30:00","44633","1.053","247.4","1.895","240.2","1017.3530000000001","14.56","62.19","-2.802","0.0"],
    [1407054,"2026-04-10 00:40:00","44634","1.462","266.1","2.352","275.6","1017.3480000000001","14.5","62.5","-2.7680000000000002","0.0"],
    [1407055,"2026-04-10 00:50:00","44635","1.5590000000000002","279.7","2.875","278.2","1017.346","14.34","62.61","-2.79","0.0"],
    [1407056,"2026-04-10 01:00:00","44636","1.751","253.9","3.528","271.9","1017.2","14.56","61.08","-2.824","0.0"],
    [1407057,"2026-04-10 01:10:00","44637","0.945","251.7","2.287","264.1","1017.096","14.71","60.13","-2.752","0.0"],
    [1407058,"2026-04-10 01:20:00","44638","1.723","263.9","3.136","273.5","1017.0880000000001","14.79","59.91","-2.7560000000000002","0.0"],
    [1407059,"2026-04-10 01:30:00","44639","1.266","256.8","3.169","269.1","1017.08","14.86","59.21","-2.7560000000000002","0.0"],
    [1407060,"2026-04-10 01:40:00","44640","1.425","263.8","3.071","272.5","1017.0169999999999","14.71","59.73","-2.9219999999999997","0.0"],
    [1407061,"2026-04-10 01:50:00","44641","2.022","273.8","3.234","271.8","1016.8810000000001","14.87","58.67","-2.76","0.0"],
    [1407062,"2026-04-10 02:00:00","44642","1.084","269.0","1.829","278.3","1016.76","14.53","59.86","-2.748","0.0"],
    [1407063,"2026-04-10 02:10:00","44643","1.272","259.6","2.483","269.6","1016.6519999999999","14.15","61.13","-2.8139999999999996","0.0"],
    [1407064,"2026-04-10 02:20:00","44644","1.035","258.2","2.515","283","1016.622","14.33","60.12","-2.801","0.0"],
    [1407065,"2026-04-10 02:30:00","44645","1.56","275.6","2.875","264.1","1016.551","14.05","61.36","-2.7889999999999997","0.0"],
    [1407066,"2026-04-10 02:40:00","44646","1.315","266.1","2.842","270.3","1016.5260000000001","14.09","60.89","-2.755","0.0"],
    [1407067,"2026-04-10 02:50:00","44647","1.6440000000000001","278.6","3.299","266","1016.5319999999999","13.77","61.94","-2.767","0.0"],
    [1407068,"2026-04-10 03:00:00","44648","1.68","262.9","2.809","270.5","1016.507","13.91","60.29","-2.784","0.0"],
    [1407069,"2026-04-10 03:10:00","44649","1.673","276.4","2.744","259.3","1016.553","14.07","59.31","-2.764","0.0"],
    [1407070,"2026-04-10 03:20:00","44650","1.225","280.3","2.744","259.3","1016.5219999999999","13.81","60.69","-2.765","0.0"],
    [1407071,"2026-04-10 03:30:00","44651","0.996","271.0","1.993","282","1016.449","13.56","61.79","-2.804","0.0"],
    [1407072,"2026-04-10 03:40:00","44652","1.016","284.3","1.993","272.4","1016.408","13.48","62.19","-2.792","0.0"],
    [1407073,"2026-04-10 03:50:00","44653","1.025","289.1","1.339","300.7","1016.36","13.47","62.25","-2.7769999999999997","0.0"],
    [1407074,"2026-04-10 04:00:00","44654","0.711","291.2","1.241","301","1016.257","13.03","64.0","-2.772","0.0"],
    [1407075,"2026-04-10 04:10:00","44655","0.21600000000000003","292.6","0.98","290","1016.2189999999999","13.12","63.21","-2.764","0.0"],
    [1407076,"2026-04-10 04:20:00","44656","0.092","303.6","0.719","303.6","1016.207","12.93","64.02","-2.761","0.0"],
    [1407077,"2026-04-10 04:30:00","44657","0.037000000000000005","311.9","0.392","311.9","1016.2589999999999","12.8","64.7","-2.717","0.0"],
    [1407078,"2026-04-10 04:40:00","44658","0.434","256.4","1.372","246.1","1016.315","13.09","63.14","-2.76","0.0"],
    [1407079,"2026-04-10 04:50:00","44659","1.187","269.3","1.96","266","1016.3910000000001","13.44","61.81","-2.802","0.0"],
    [1407080,"2026-04-10 05:00:00","44660","0.6809999999999999","257.1","1.241","247","1016.305","13.78","59.56","-2.612","0.0"],
    [1407081,"2026-04-10 05:10:00","44661","0.672","255.5","1.535","258.8","1016.2869999999999","14.03","58.3","-2.066","0.0"],
    [1407082,"2026-04-10 05:20:00","44662","0.42100000000000004","309.2","1.666","314.4","1016.252","13.86","58.64","-0.113","0.0"],
    [1407083,"2026-04-10 05:30:00","44663","0.581","292.7","1.601","312.6","1016.283","13.98","58.66","4.809","0.0"],
    [1407084,"2026-04-10 05:40:00","44664","0.307","339.0","1.013","307.4","1016.382","14.11","58.78","14.36","0.0"],
    [1407085,"2026-04-10 05:50:00","44665","0.017","2.793","0.523","0.742","1016.326","13.72","61.92","29.51","0.0"],
    [1407086,"2026-04-10 06:00:00","44666","0.0","0.0","0","0","1016.331","13.97","61.53","49.06","0.0"],
    [1407087,"2026-04-10 06:10:00","44667","0.0","4.163","0.033","4.163","1016.449","14.53","59.48","69.91","0.0"],
    [1407088,"2026-04-10 06:20:00","44668","0.151","133.9","1.209","182.6","1016.607","15.2","57.83","95.2","0.0"],
    [1407089,"2026-04-10 06:30:00","44669","1.0979999999999999","191.3","1.699","189.6","1016.73","15.96","52.89","124.0","0.0"],
    [1407090,"2026-04-10 06:40:00","44670","1.544","246.2","2.973","274.3","1016.921","16.48","51.62","152.0","0.0"],
    [1407091,"2026-04-10 06:50:00","44671","2.405","276.8","5.325","305.1","1016.96","16.56","51.93","183.0","0.0"],
    [1407092,"2026-04-10 07:00:00","44672","3.6689999999999996","289.5","6.043","297.4","1016.971","16.16","53.89","216.4","0.0"],
    [1407093,"2026-04-10 07:10:00","44673","2.785","287.5","5.619","292.4","1017.075","16.35","53.95","249.1","0.0"],
    [1407094,"2026-04-10 07:20:00","44674","2.937","284.3","5.096","287.7","1017.2130000000001","16.9","54.57","283.3","0.0"],
    [1407095,"2026-04-10 07:30:00","44675","2.381","274.1","4.508","296.3","1017.322","17.6","56.64","317.3","0.0"],
    [1407096,"2026-04-10 07:40:00","44676","1.472","241.1","4.116","274.3","1017.342","18.06","61.48","351.8","0.0"],
    [1407097,"2026-04-10 07:50:00","44677","1.535","271.1","3.397","287.9","1017.332","18.37","63.35","369.2","0.0"],
    [1407098,"2026-04-10 08:00:00","44678","1.0290000000000001","242.1","2.777","207.1","1017.2869999999999","18.95","62.41","416.3","0.0"],
    [1407099,"2026-04-10 08:10:00","44679","1.548","228.2","2.45","228.2","1017.322","19.58","59.74","443.3","0.0"],
    [1407100,"2026-04-10 08:20:00","44680","1.745","222.0","2.744","190.7","1017.352","19.94","56.2","489.5","0.0"],
    [1407101,"2026-04-10 08:30:00","44681","1.8940000000000001","224.1","3.201","207.7","1017.4060000000001","20.29","54.04","521.1","0.0"],
    [1407102,"2026-04-10 08:40:00","44682","2.46","213.8","4.443","210.1","1017.457","20.67","54.83","551.6","0.0"],
    [1407103,"2026-04-10 08:50:00","44683","2.2640000000000002","209.0","4.018","175.3","1017.459","20.74","57.11","580.7","0.0"],
    [1407104,"2026-04-10 09:00:00","44684","2.025","209.4","3.691","218.4","1017.5419999999999","21.15","54.17","610.4","0.0"],
    [1407105,"2026-04-10 09:10:00","44685","2.209","210.4","4.181","216.1","1017.543","21.03","53.84","638.2","0.0"],
    [1407106,"2026-04-10 09:20:00","44686","2.148","213.6","3.365","234.6","1017.515","21.1","55.98","664.9","0.0"],
    [1407107,"2026-04-10 09:30:00","44687","2.187","193.6","3.659","183.9","1017.4910000000001","21.18","56.68","689.3","0.0"],
    [1407108,"2026-04-10 09:40:00","44688","2.1919999999999997","206.2","3.593","211.3","1017.54","20.62","61.5","711.8","0.0"],
    [1407109,"2026-04-10 09:50:00","44689","1.9709999999999999","208.8","3.071","178.6","1017.482","20.09","65.06","730.7","0.0"],
    [1407110,"2026-04-10 10:00:00","44690","1.9140000000000001","189.8","3.43","181.9","1017.428","20.26","65.2","750.1","0.0"],
    [1407111,"2026-04-10 10:10:00","44691","2.251","167.6","3.691","165.4","1017.3430000000001","20.03","67.94","767.9","0.0"],
    [1407112,"2026-04-10 10:20:00","44692","2.198","175.1","3.103","193.2","1017.2639999999999","19.85","69.12","784.1","0.0"],
    [1407113,"2026-04-10 10:30:00","44693","1.828","186.0","3.887","163","1017.21","20.58","64.73","797.8","0.0"],
    [1407114,"2026-04-10 10:40:00","44694","2.319","174.8","4.149","171.2","1017.1310000000001","20.47","62.05","814.0","0.0"],
    [1407115,"2026-04-10 10:50:00","44695","2.366","167.3","3.495","166.7","1017.065","20.15","61.0","824.0","0.0"],
    [1407116,"2026-04-10 11:00:00","44696","1.954","189.1","3.43","229.3","1017.0360000000001","20.69","62.05","833.0","0.0"],
    [1407117,"2026-04-10 11:10:00","44697","2.3209999999999997","181.3","3.789","176.2","1016.9789999999999","20.45","62.14","842.0","0.0"],
    [1407118,"2026-04-10 11:20:00","44698","2.733","181.7","4.279","185.6","1016.921","20.42","64.98","848.0","0.0"],
    [1407119,"2026-04-10 11:30:00","44699","2.912","196.1","4.639","211.3","1016.8439999999999","20.35","64.54","855.0","0.0"],
    [1407120,"2026-04-10 11:40:00","44700","2.585","187.5","4.933","181.6","1016.789","20.6","62.64","857.0","0.0"],
    [1407121,"2026-04-10 11:50:00","44701","3.0460000000000003","197.2","4.671","176.4","1016.7280000000001","20.59","62.76","859.0","0.0"],
    [1407122,"2026-04-10 12:00:00","44702","2.839","201.1","5.031","196.5","1016.569","21.25","58.88","857.0","0.0"],
    [1407123,"2026-04-10 12:10:00","44703","3.3739999999999997","209.0","5.553","202.8","1016.431","21.51","53.5","857.0","0.0"],
    [1407124,"2026-04-10 12:20:00","44704","3.53","213.3","5.259","216.2","1016.284","22.07","48.53","858.0","0.0"],
    [1407125,"2026-04-10 12:30:00","44705","2.753","211.9","4.9","205.5","1016.165","22.36","48.68","853.0","0.0"],
    [1407126,"2026-04-10 12:40:00","44706","2.6289999999999996","204.8","5.553","203.9","1016.08","22.92","46.22","847.0","0.0"],
    [1407127,"2026-04-10 12:50:00","44707","3.326","206.4","5.749","227.6","1016.0219999999999","22.78","44.05","845.0","0.0"],
    [1407128,"2026-04-10 13:00:00","44708","2.968","204.1","5.717","222.2","1015.956","22.93","45.23","841.0","0.0"],
    [1407129,"2026-04-10 13:10:00","44709","2.908","205.2","4.965","223.7","1015.966","22.86","41.4","832.0","0.0"],
    [1407130,"2026-04-10 13:20:00","44710","3.1010000000000004","202.4","5.586","174","1015.927","23.41","38.48","819.0","0.0"],
    [1407131,"2026-04-10 13:30:00","44711","4.455","214.2","7.415","218.3","1015.8539999999999","23.42","37.15","807.0","0.0"],
    [1407132,"2026-04-10 13:40:00","44712","3.6510000000000002","211.2","6.109","235.1","1015.7460000000001","23.29","37.8","791.7","0.0"],
    [1407133,"2026-04-10 13:50:00","44713","3.733","213.4","6.631","218.9","1015.7230000000001","23.46","36.97","774.1","0.0"],
    [1407134,"2026-04-10 14:00:00","44714","4.36","217.7","7.383","219.9","1015.5880000000001","23.27","36.68","757.4","0.0"],
    [1407135,"2026-04-10 14:10:00","44715","3.1239999999999997","207.2","6.729","214.6","1015.482","23.64","36.66","735.9","0.0"],
    [1407136,"2026-04-10 14:20:00","44716","4.218","210.5","6.566","215","1015.387","23.12","38.28","710.6","0.0"],
    [1407137,"2026-04-10 14:30:00","44717","3.4939999999999998","206.7","6.403","197.1","1015.199","22.88","40.29","685.6","0.0"],
    [1407138,"2026-04-10 14:40:00","44718","4.81","215.3","9.54","220","1015.065","22.6","44.48","663.0","0.0"],
    [1407139,"2026-04-10 14:50:00","44719","5.439","221.1","7.84","218.4","1014.91","21.8","48.82","640.5","0.0"],
    [1407140,"2026-04-10 15:00:00","44720","5.185","220.8","8.66","217.4","1014.8","21.71","49.09","610.6","0.0"],
    [1407141,"2026-04-10 15:10:00","44721","4.166","214.1","7.056","216.7","1014.6569999999999","22.24","48.08","576.5","0.0"],
    [1407142,"2026-04-10 15:20:00","44722","3.995","218.9","7.35","228.4","1014.596","22.46","42.95","547.1","0.0"],
    [1407143,"2026-04-10 15:30:00","44723","3.41","215.6","6.109","232.9","1014.535","22.87","37.54","518.3","0.0"],
    [1407144,"2026-04-10 15:40:00","44724","4.487","214.4","6.664","199.7","1014.4580000000001","22.83","36.66","487.9","0.0"],
    [1407145,"2026-04-10 15:50:00","44725","3.638","213.2","6.305","213.1","1014.3639999999999","22.52","39.5","454.3","0.0"],
    [1407146,"2026-04-10 16:00:00","44726","3.639","210.9","6.011","193.8","1014.312","22.29","41.79","421.7","0.0"],
    [1407147,"2026-04-10 16:10:00","44727","3.262","210.1","6.207","202.2","1014.265","21.81","43.52","384.1","0.0"],
    [1407148,"2026-04-10 16:20:00","44728","3.6519999999999997","211.4","6.631","220.2","1014.177","22.05","39.59","335.9","0.0"],
    [1407149,"2026-04-10 16:30:00","44729","2.872","204.9","5.325","235.9","1014.08","22.16","37.41","318.0","0.0"],
    [1407150,"2026-04-10 16:40:00","44730","2.71","202.4","5.847","195.4","1014.062","22.04","35.05","271.7","0.0"],
    [1407151,"2026-04-10 16:50:00","44731","3.681","211.2","6.109","223.3","1013.993","21.9","33.36","247.3","0.0"],
    [1407152,"2026-04-10 17:00:00","44732","3.699","218.9","5.847","229.6","1013.925","21.9","31.19","211.9","0.0"],
    [1407153,"2026-04-10 17:10:00","44733","3.676","223.4","5.586","229.5","1013.8860000000001","21.92","28.25","176.9","0.0"],
    [1407154,"2026-04-10 17:20:00","44734","3.946","225.3","5.945","219.5","1013.842","22.03","25.73","147.6","0.0"],
    [1407155,"2026-04-10 17:30:00","44735","3.7310000000000003","226.2","5.749","225.1","1013.829","21.96","25.34","116.6","0.0"],
    [1407156,"2026-04-10 17:40:00","44736","3.612","227.4","5.488","224","1013.8480000000001","21.98","24.94","77.65","0.0"],
    [1407157,"2026-04-10 17:50:00","44737","4.246","227.4","6.599","211.1","1013.807","21.9","25.33","46.43","0.0"],
    [1407158,"2026-04-10 18:00:00","44738","4.248","225.5","6.337","219.4","1013.7710000000001","21.86","26.28","28.35","0.0"],
    [1407159,"2026-04-10 18:10:00","44739","3.29","229.7","5.357","222.3","1013.8","21.57","27.82","17.12","0.0"],
    [1407160,"2026-04-10 18:20:00","44740","2.8480000000000003","232.7","4.867","225.1","1013.83","21.37","28.72","7.19","0.0"],
    [1407161,"2026-04-10 18:30:00","44741","2.8089999999999997","230.3","4.377","213","1013.8580000000001","21.35","28.83","1.237","0.0"],
    [1407162,"2026-04-10 18:40:00","44742","2.436","230.7","4.051","237.1","1013.887","21.08","29.79","-1.72","0.0"],
    [1407163,"2026-04-10 18:50:00","44743","2.081","232.9","3.495","219.1","1013.955","20.95","30.16","-3.162","0.0"],
    [1407164,"2026-04-10 19:00:00","44744","2.61","216.2","3.691","224","1014.0889999999999","20.77","32.66","-2.9530000000000003","0.0"],
    [1407165,"2026-04-10 19:10:00","44745","2.992","214.0","4.541","224.1","1014.172","19.66","41.02","-2.705","0.0"],
    [1407166,"2026-04-10 19:20:00","44746","2.844","216.7","4.116","218.7","1014.235","18.96","48.73","-2.702","0.0"],
    [1407167,"2026-04-10 19:30:00","44747","2.344","213.2","3.855","218.7","1014.311","18.65","49.51","-2.928","0.0"],
    [1407168,"2026-04-10 19:40:00","44748","1.45","214.2","2.94","230.2","1014.378","18.54","48.75","-3.299","0.0"],
    [1407169,"2026-04-10 19:50:00","44749","0.609","198.2","1.829","231.3","1014.421","18.52","46.14","-3.5439999999999996","0.0"],
    [1407170,"2026-04-10 20:00:00","44750","0.88","193.3","1.829","189.2","1014.4739999999999","18.64","46.03","-3.522","0.0"],
    [1407171,"2026-04-10 20:10:00","44751","1.64","188.5","2.777","169.6","1014.518","18.27","53.7","-2.938","0.0"],
    [1407172,"2026-04-10 20:20:00","44752","1.155","208.2","2.352","199","1014.552","17.9","57.38","-3.0180000000000002","0.0"],
    [1407173,"2026-04-10 20:30:00","44753","1.359","205.1","2.417","200","1014.581","17.67","61.51","-2.9160000000000004","0.0"],
    [1407174,"2026-04-10 20:40:00","44754","1.202","203.0","2.025","205.1","1014.627","17.42","63.7","-3.287","0.0"],
    [1407175,"2026-04-10 20:50:00","44755","1.495","204.1","2.777","202.6","1014.554","17.29","65.34","-3.1489999999999996","0.0"],
    [1407176,"2026-04-10 21:00:00","44756","1.6880000000000002","205.7","2.842","215.5","1014.5319999999999","17.34","64.96","-2.9610000000000003","0.0"],
    [1407177,"2026-04-10 21:10:00","44757","1.31","205.1","2.417","213.2","1014.465","17.32","64.49","-2.975","0.0"],
    [1407178,"2026-04-10 21:20:00","44758","1.456","216.4","2.548","213.4","1014.41","17.53","61.88","-2.946","0.0"],
    [1407179,"2026-04-10 21:30:00","44759","1.321","206.1","2.483","205.3","1014.403","17.48","61.64","-3.0580000000000003","0.0"],
    [1407180,"2026-04-10 21:40:00","44760","1.204","198.4","2.254","208.8","1014.39","17.4","60.28","-3.228","0.0"],
    [1407181,"2026-04-10 21:50:00","44761","1.531","212.3","2.646","204.4","1014.3439999999999","17.49","58.62","-3.014","0.0"],
    [1407182,"2026-04-10 22:00:00","44762","1.8130000000000002","215.9","3.071","208.7","1014.29","17.67","56.4","-3.0839999999999996","0.0"],
    [1407183,"2026-04-10 22:10:00","44763","1.5530000000000002","206.9","3.463","209.9","1014.21","17.55","59.74","-2.78","0.0"],
    [1407184,"2026-04-10 22:20:00","44764","1.535","213.1","2.515","205.9","1014.181","17.2","63.72","-2.8110000000000004","0.0"],
    [1407185,"2026-04-10 22:30:00","44765","1.3259999999999998","233.5","2.058","241.9","1014.1160000000001","17.02","64.03","-3.073","0.0"],
    [1407186,"2026-04-10 22:40:00","44766","1.7409999999999999","215.0","2.45","210.4","1014.1160000000001","17.03","64.61","-2.818","0.0"],
    [1407187,"2026-04-10 22:50:00","44767","1.965","214.3","2.679","206.9","1014.1060000000001","16.83","66.17","-2.721","0.0"],
    [1407188,"2026-04-10 23:00:00","44768","2.081","217.8","2.711","217.1","1014.091","16.61","67.59","-2.718","0.0"],
    [1407189,"2026-04-10 23:10:00","44769","1.2930000000000001","224.7","2.058","215.3","1013.987","16.51","69.13","-2.739","0.0"],
    [1407190,"2026-04-10 23:20:00","44770","1.131","228.8","1.895","233.9","1013.8839999999999","16.33","70.09","-3.116","0.0"],
    [1407191,"2026-04-10 23:30:00","44771","1.4480000000000002","212.8","2.091","219.1","1013.811","16.38","70.34","-3.1719999999999997","0.0"],
    [1407192,"2026-04-10 23:40:00","44772","1.5759999999999998","221.1","2.385","224.2","1013.709","16.13","68.06","-2.76","0.0"],
    [1407193,"2026-04-10 23:50:00","44773","1.493","223.5","2.319","227","1013.592","16.29","55.27","-2.773","0.0"],
    [1407194,"2026-04-11 00:00:00","44774","1.589","214.7","2.646","210.6","1013.4889999999999","16.25","56.1","-2.908","0.0"],
    [1407195,"2026-04-11 00:10:00","44775","0.978","211.4","1.993","210.2","1013.38","16.32","61.63","-2.912","0.0"],
    [1407196,"2026-04-11 00:20:00","44776","1.139","231.7","1.927","200","1013.307","16.26","72.61","-3.0639999999999996","0.0"],
    [1407197,"2026-04-11 00:30:00","44777","0.872","232.2","1.405","223.5","1013.205","15.61","73.32","-2.8989999999999996","0.0"],
    [1407198,"2026-04-11 00:40:00","44778","1.324","229.1","2.058","236.4","1013.15","15.14","63.88","-2.8480000000000003","0.0"],
    [1407199,"2026-04-11 00:50:00","44779","0.5710000000000001","244.3","1.241","236.2","1013.063","15.04","55.27","-2.728","0.0"],
    [1407200,"2026-04-11 01:00:00","44780","0.511","233.7","1.078","246.3","1012.926","14.68","54.09","-2.78","0.0"],
    [1407201,"2026-04-11 01:10:00","44781","0.8190000000000001","256.6","1.666","243.8","1012.794","14.52","54.72","-2.761","0.0"],
    [1407202,"2026-04-11 01:20:00","44782","0.97","254.2","2.058","274.2","1012.757","14.53","54.06","-2.8310000000000004","0.0"],
    [1407203,"2026-04-11 01:30:00","44783","1.347","229.4","1.927","232.5","1012.678","14.83","51.84","-2.738","0.0"],
    [1407204,"2026-04-11 01:40:00","44784","1.401","231.3","2.352","236","1012.581","14.87","52.44","-2.728","0.0"],
    [1407205,"2026-04-11 01:50:00","44785","1.107","256.6","1.96","275.3","1012.539","14.55","53.41","-2.728","0.0"],
    [1407206,"2026-04-11 02:00:00","44786","1.795","264.4","2.744","265","1012.541","14.66","52.98","-2.75","0.0"],
    [1407207,"2026-04-11 02:10:00","44787","1.482","243.5","2.417","256.9","1012.572","14.93","51.36","-2.765","0.0"],
    [1407208,"2026-04-11 02:20:00","44788","1.722","249.1","3.234","247.8","1012.5010000000001","15.4","48.93","-2.745","0.0"],
    [1407209,"2026-04-11 02:30:00","44789","1.476","263.7","3.365","258.5","1012.445","15.42","48.54","-2.7289999999999996","0.0"],
    [1407210,"2026-04-11 02:40:00","44790","1.4469999999999998","249.3","3.169","280.2","1012.443","15.24","48.61","-2.728","0.0"],
    [1407211,"2026-04-11 02:50:00","44791","1.403","239.5","2.875","255","1012.3969999999999","15.28","48.09","-2.73","0.0"],
    [1407212,"2026-04-11 03:00:00","44792","1.0979999999999999","256.2","2.091","289.1","1012.347","15.3","48.17","-2.733","0.0"],
    [1407213,"2026-04-11 03:10:00","44793","0.968","254.6","1.862","266.9","1012.332","15.06","48.92","-2.7289999999999996","0.0"],
    [1407214,"2026-04-11 03:20:00","44794","0.9329999999999999","246.1","1.666","249.4","1012.2389999999999","14.97","49.19","-2.73","0.0"],
    [1407215,"2026-04-11 03:30:00","44795","0.78","255.9","1.699","273.7","1012.21","14.65","50.88","-2.741","0.0"],
    [1407216,"2026-04-11 03:40:00","44796","1.0590000000000002","265.0","2.287","270.4","1012.09","14.83","50.67","-2.7460000000000004","0.0"],
    [1407217,"2026-04-11 03:50:00","44797","1.226","278.4","2.417","300.6","1011.9860000000001","14.58","52.09","-2.7289999999999996","0.0"],
    [1407218,"2026-04-11 04:00:00","44798","1.3459999999999999","277.8","2.058","283.4","1011.904","14.19","53.78","-2.7310000000000003","0.0"],
    [1407219,"2026-04-11 04:10:00","44799","1.651","280.4","2.809","270.2","1011.829","14.09","54.33","-2.7260000000000004","0.0"],
    [1407220,"2026-04-11 04:20:00","44800","1.892","277.6","2.809","272.7","1011.738","14.05","54.41","-2.415","0.0"],
    [1407221,"2026-04-11 04:30:00","44801","1.775","273.2","2.483","274.2","1011.6339999999999","14.16","53.73","-2.12","0.0"],
    [1407222,"2026-04-11 04:40:00","44802","2.053","271.4","2.907","268.4","1011.562","14.11","53.97","-2.1069999999999998","0.0"],
    [1407223,"2026-04-11 04:50:00","44803","1.337","274.3","2.94","279.9","1011.575","14.03","54.54","-2.049","0.0"],
    [1407224,"2026-04-11 05:00:00","44804","1.226","274.0","2.711","288.8","1011.5369999999999","13.54","56.9","-1.9969999999999999","0.0"],
    [1407225,"2026-04-11 05:10:00","44805","2.051","280.4","2.94","286.6","1011.404","13.37","57.13","-1.278","0.0"],
    [1407226,"2026-04-11 05:20:00","44806","1.5230000000000001","270.0","2.581","259.3","1011.4060000000001","13.64","55.26","1.162","0.0"],
    [1407227,"2026-04-11 05:30:00","44807","1.395","280.4","2.385","295.8","1011.262","13.62","55.28","5.922999999999999","0.0"],
    [1407228,"2026-04-11 05:40:00","44808","1.588","275.9","2.646","275.4","1011.2339999999999","14.0","53.7","12.42","0.0"],
    [1407229,"2026-04-11 05:50:00","44809","1.338","266.4","2.287","261.9","1011.31","14.2","53.26","25.65","0.0"],
    [1407230,"2026-04-11 06:00:00","44810","1.6480000000000001","251.8","2.875","253.4","1011.573","14.47","52.46","40.35","0.0"],
    [1407231,"2026-04-11 06:10:00","44811","1.575","276.0","2.907","274.2","1011.5060000000001","14.6","52.21","50.14","0.0"],
    [1407232,"2026-04-11 06:20:00","44812","1.9969999999999999","285.5","3.463","285.5","1011.245","14.58","52.27","63.0","0.0"],
    [1407233,"2026-04-11 06:30:00","44813","1.7109999999999999","281.6","3.234","303.9","1011.209","14.99","50.88","86.3","0.0"],
    [1407234,"2026-04-11 06:40:00","44814","2.252","283.8","3.789","287.2","1011.153","15.41","49.83","124.7","0.0"],
    [1407235,"2026-04-11 06:50:00","44815","2.011","276.6","3.659","293.2","1011.164","15.76","49.11","149.1","0.0"],
    [1407236,"2026-04-11 07:00:00","44816","2.086","282.6","3.397","284.2","1011.135","16.08","49.04","209.8","0.0"],
    [1407237,"2026-04-11 07:10:00","44817","2.2640000000000002","281.7","3.92","294.9","1011.064","16.62","47.94","247.3","0.0"],
    [1407238,"2026-04-11 07:20:00","44818","2.472","284.7","3.593","278.4","1011.057","17.21","46.43","261.0","0.0"],
    [1407239,"2026-04-11 07:30:00","44819","2.109","278.7","3.201","280.5","1011.077","17.66","44.93","229.9","0.0"],
    [1407240,"2026-04-11 07:40:00","44820","1.507","263.3","2.679","276.7","1011.205","18.05","44.14","254.3","0.0"],
    [1407241,"2026-04-11 07:50:00","44821","1.808","267.0","3.332","285.3","1011.135","18.33","43.16","245.4","0.0"],
    [1407242,"2026-04-11 08:00:00","44822","1.9269999999999998","270.6","4.279","283.4","1011.112","18.77","41.97","305.3","0.0"],
    [1407243,"2026-04-11 08:10:00","44823","1.808","262.5","3.691","267.7","1011.2130000000001","19.27","41.21","396.0","0.0"],
    [1407244,"2026-04-11 08:20:00","44824","2.475","277.7","4.443","280","1011.243","19.71","39.89","409.6","0.0"],
    [1407245,"2026-04-11 08:30:00","44825","2.392","267.9","4.345","283.6","1011.29","19.96","39.73","355.1","0.0"],
    [1407246,"2026-04-11 08:40:00","44826","1.848","251.5","3.528","278.7","1011.3919999999999","19.96","39.67","357.0","0.0"],
    [1407247,"2026-04-11 08:50:00","44827","1.8","234.5","3.234","232.8","1011.4019999999999","20.83","38.36","531.9","0.0"],
    [1407248,"2026-04-11 09:00:00","44828","2.136","257.1","3.528","278.8","1011.3919999999999","21.0","37.34","577.2","0.0"],
    [1407249,"2026-04-11 09:10:00","44829","1.8869999999999998","253.8","3.299","262.9","1011.459","21.14","38.39","576.6","0.0"],
    [1407250,"2026-04-11 09:20:00","44830","2.214","220.9","4.508","199.9","1011.546","21.71","38.02","482.5","0.0"],
    [1407251,"2026-04-11 09:30:00","44831","2.7119999999999997","213.7","4.083","207.6","1011.5110000000001","21.61","37.97","390.4","0.0"],
    [1407252,"2026-04-11 09:40:00","44832","2.698","212.1","4.051","207.2","1011.4639999999999","21.13","40.33","471.1","0.0"],
    [1407253,"2026-04-11 09:50:00","44833","2.7560000000000002","216.3","3.92","212.5","1011.5039999999999","20.77","43.89","442.8","0.0"],
    [1407254,"2026-04-11 10:00:00","44834","2.2359999999999998","222.0","3.691","200.4","1011.5269999999999","20.83","46.93","504.9","0.0"],
    [1407255,"2026-04-11 10:10:00","44835","1.8459999999999999","220.0","3.005","217","1011.455","21.31","49.62","452.7","0.0"],
    [1407256,"2026-04-11 10:20:00","44836","1.5190000000000001","204.4","2.777","216.6","1011.3919999999999","21.22","48.97","476.8","0.0"],
    [1407257,"2026-04-11 10:30:00","44837","1.0959999999999999","202.9","2.156","196","1011.279","21.57","49.07","488.1","0.0"],
    [1407258,"2026-04-11 10:40:00","44838","1.8719999999999999","208.8","3.299","221","1011.19","20.96","51.52","417.5","0.0"],
    [1407259,"2026-04-11 10:50:00","44839","1.6740000000000002","191.7","2.744","166.1","1011.097","20.03","55.87","452.8","0.0"],
    [1407260,"2026-04-11 11:00:00","44840","1.51","223.4","2.45","221.5","1010.923","21.0","50.63","739.9","0.0"],
    [1407261,"2026-04-11 11:10:00","44841","1.76","195.1","2.973","159.5","1010.785","21.93","45.7","713.7","0.0"],
    [1407262,"2026-04-11 11:20:00","44842","2.188","172.0","3.267","159.6","1010.685","21.5","42.6","673.8","0.0"],
    [1407263,"2026-04-11 11:30:00","44843","1.916","192.8","3.463","219","1010.61","21.57","40.51","513.3","0.0"],
    [1407264,"2026-04-11 11:40:00","44844","1.85","204.6","3.463","221","1010.427","21.46","44.38","531.6","0.0"],
    [1407265,"2026-04-11 11:50:00","44845","1.515","208.4","2.711","215","1010.32","21.84","45.05","457.4","0.0"],
    [1407266,"2026-04-11 12:00:00","44846","1.9809999999999999","184.7","3.528","175.5","1010.335","21.74","43.87","410.4","0.0"],
    [1407267,"2026-04-11 12:10:00","44847","2.148","195.0","3.626","174.5","1010.28","22.17","40.68","438.4","0.0"],
    [1407268,"2026-04-11 12:20:00","44848","2.595","178.5","3.724","175.3","1010.196","22.22","35.78","517.9","0.0"],
    [1407269,"2026-04-11 12:30:00","44849","2.123","176.0","3.169","190.1","1010.078","21.45","37.88","434.5","0.0"],
    [1407270,"2026-04-11 12:40:00","44850","1.51","202.3","2.515","182.9","1009.985","21.92","37.21","425.7","0.0"],
    [1407271,"2026-04-11 12:50:00","44851","1.236","197.5","2.679","230.7","1009.947","22.64","32.95","577.8","0.0"],
    [1407272,"2026-04-11 13:00:00","44852","1.4869999999999999","145.8","3.103","113.7","1009.878","23.22","36.12","721.9","0.0"],
    [1407273,"2026-04-11 13:10:00","44853","1.8319999999999999","123.5","3.659","131.4","1009.926","22.23","39.46","576.5","0.0"],
    [1407274,"2026-04-11 13:20:00","44854","1.686","115.8","3.169","131.9","1009.942","21.5","43.83","473.4","0.0"],
    [1407275,"2026-04-11 13:30:00","44855","1.715","126.1","3.234","136.6","1009.944","21.27","47.11","689.1","0.0"],
    [1407276,"2026-04-11 13:40:00","44856","1.435","108.5","2.809","90.7","1009.826","21.77","43.58","599.8","0.0"],
    [1407277,"2026-04-11 13:50:00","44857","1.5030000000000001","114.8","2.842","100.8","1009.752","21.86","39.02","449.5","0.0"],
    [1407278,"2026-04-11 14:00:00","44858","1.062","123.0","3.005","125.9","1009.6619999999999","21.66","39.34","307.4","0.0"],
    [1407279,"2026-04-11 14:10:00","44859","0.59","137.2","2.156","87","1009.7610000000001","21.98","39.0","394.8","0.0"],
    [1407280,"2026-04-11 14:20:00","44860","0.733","119.9","2.679","163.2","1009.783","22.33","39.16","559.2","0.0"],
    [1407281,"2026-04-11 14:30:00","44861","1.564","125.3","3.267","126.2","1009.742","22.12","36.79","527.5","0.0"],
    [1407282,"2026-04-11 14:40:00","44862","0.9520000000000001","122.5","2.352","119.4","1009.6389999999999","22.32","36.06","353.2","0.0"],
    [1407283,"2026-04-11 14:50:00","44863","0.997","102.9","2.156","108","1009.4739999999999","22.65","31.19","301.2","0.0"],
    [1407284,"2026-04-11 15:00:00","44864","2.414","84.1","3.332","81.6","1009.34","22.82","34.48","259.6","0.0"],
    [1407285,"2026-04-11 15:10:00","44865","3.1310000000000002","80.5","3.953","76.75","1009.185","21.28","41.86","240.0","0.0"],
    [1407286,"2026-04-11 15:20:00","44866","3.525","69.67","4.508","70.66","1009.053","20.65","43.59","202.3","0.0"],
    [1407287,"2026-04-11 15:30:00","44867","3.153","69.64","4.247","70.24","1009.097","20.78","41.97","156.6","0.0"],
    [1407288,"2026-04-11 15:40:00","44868","3.307","67.64","4.345","65.59","1009.211","20.61","42.9","106.7","0.0"],
    [1407289,"2026-04-11 15:50:00","44869","3.392","65.01","4.377","63.28","1009.2719999999999","20.43","44.29","87.8","0.0"],
    [1407290,"2026-04-11 16:00:00","44870","3.5010000000000003","68.25","5.194","54.6","1009.298","20.2","45.33","73.39","0.0"],
    [1407291,"2026-04-11 16:10:00","44871","3.846","60.69","5.88","52.24","1009.196","20.02","46.55","80.7","0.0"],
    [1407292,"2026-04-11 16:20:00","44872","3.093","75.66","4.606","72.61","1009.637","19.78","50.49","126.7","0.0"],
    [1407293,"2026-04-11 16:30:00","44873","3.48","65.99","4.671","68.01","1009.695","19.53","54.95","142.2","0.0"],
    [1407294,"2026-04-11 16:40:00","44874","4.44","55.0","6.109","55.89","1009.459","19.45","54.7","118.0","0.0"],
    [1407295,"2026-04-11 16:50:00","44875","4.877","49.02","7.971","35.94","1009.242","19.48","53.67","111.6","0.0"],
    [1407296,"2026-04-11 17:00:00","44876","5.837000000000001","46.64","8.33","59.18","1008.945","19.28","57.4","128.5","0.0"],
    [1407297,"2026-04-11 17:10:00","44877","6.76","54.42","9.87","61.27","1009.112","18.98","58.49","127.5","0.0"],
    [1407298,"2026-04-11 17:20:00","44878","5.832999999999999","57.14","9.41","59.97","1009.6389999999999","18.63","62.71","105.5","0.0"],
    [1407299,"2026-04-11 17:30:00","44879","6.063","57.58","8.59","50.73","1010.1030000000001","18.12","66.32","79.47","0.0"],
    [1407300,"2026-04-11 17:40:00","44880","6.251","53.81","9.64","39.31","1010.2189999999999","17.83","68.17","51.07","0.0"],
    [1407301,"2026-04-11 17:50:00","44881","6.252999999999999","53.72","9.08","57.19","1010.319","17.64","68.75","34.24","0.0"],
    [1407302,"2026-04-11 18:00:00","44882","5.428","56.53","8.75","61.11","1010.3639999999999","17.6","68.9","21.28","0.0"],
    [1407303,"2026-04-11 18:10:00","44883","5.391","54.97","7.971","43.08","1010.4","17.55","68.74","10.99","0.0"],
    [1407304,"2026-04-11 18:20:00","44884","5.653","52.69","8.17","56.73","1010.4839999999999","17.51","68.63","4.388","0.0"],
    [1407305,"2026-04-11 18:30:00","44885","5.484","49.55","8.3","42.85","1010.554","17.42","70.32","0.667","0.0"],
    [1407306,"2026-04-11 18:40:00","44886","4.931","43.05","8.13","24.89","1010.487","17.4","70.74","-0.9540000000000001","0.0"],
    [1407307,"2026-04-11 18:50:00","44887","5.642","40.13","8.92","35.16","1010.3910000000001","17.38","72.04","-1.6219999999999999","0.0"],
    [1407308,"2026-04-11 19:00:00","44888","5.542000000000001","41.65","8.72","55.25","1010.365","17.32","74.26","-1.942","0.0"],
    [1407309,"2026-04-11 19:10:00","44889","6.175","37.79","9.8","39.29","1010.2719999999999","17.27","75.86","-1.944","0.0"],
    [1407310,"2026-04-11 19:20:00","44890","6.987","41.57","11.2","47.41","1010.294","17.21","76.8","-1.692","0.0"],
    [1407311,"2026-04-11 19:30:00","44891","6.544","41.51","9.9","36.37","1010.398","17.12","77.93","-1.52","0.0"],
    [1407312,"2026-04-11 19:40:00","44892","6.095","47.94","9.51","44.68","1010.551","17.08","78.34","-1.492","0.0"],
    [1407313,"2026-04-11 19:50:00","44893","6.433","53.05","10","51.33","1010.867","16.97","79.05","-1.526","0.0"],
    [1407314,"2026-04-11 20:00:00","44894","6.109","52.82","8.36","44.79","1010.982","16.85","79.83","-1.232","0.0"],
    [1407315,"2026-04-11 20:10:00","44895","6.404","50.99","9.83","47.42","1011.205","16.77","80.7","-1.194","0.0"],
    [1407316,"2026-04-11 20:20:00","44896","5.702000000000001","54.37","8.79","52.22","1011.1389999999999","16.74","81.1","-1.194","0.0"],
    [1407317,"2026-04-11 20:30:00","44897","6.132000000000001","53.9","8.98","51.25","1011.186","16.69","81.5","-1.194","0.0"],
    [1407318,"2026-04-11 20:40:00","44898","5.391","53.76","8.04","53.78","1011.2560000000001","16.64","81.9","-1.194","0.0"],
    [1407319,"2026-04-11 20:50:00","44899","5.921","48.38","8.59","49.1","1011.2080000000001","16.58","82.1","-1.194","0.0"],
    [1407320,"2026-04-11 21:00:00","44900","4.459","47.06","8.13","52.48","1011.196","16.55","82.2","-1.194","0.0"],
    [1407321,"2026-04-11 21:10:00","44901","4.277","43.92","6.86","43.68","1011.21","16.52","82.8","-1.194","0.0"],
    [1407322,"2026-04-11 21:20:00","44902","5.267","44.14","7.579","37.33","1011.08","16.42","83.7","-1.194","0.0"],
    [1407323,"2026-04-11 21:30:00","44903","4.164","46.09","6.37","44.6","1010.993","16.37","84.4","-1.194","0.0"],
    [1407324,"2026-04-11 21:40:00","44904","4.156000000000001","45.29","6.533","35.51","1010.927","16.31","84.6","-1.196","0.0"],
    [1407325,"2026-04-11 21:50:00","44905","3.9939999999999998","39.81","6.239","47.58","1010.895","16.29","84.2","-1.198","0.0"],
    [1407326,"2026-04-11 22:00:00","44906","3.702","44.78","5.455","60.66","1010.716","16.26","84.6","-1.2209999999999999","0.0"],
    [1407327,"2026-04-11 22:10:00","44907","3.6839999999999997","38.14","5.455","33.8","1010.538","16.24","85.0","-1.195","0.0"],
    [1407328,"2026-04-11 22:20:00","44908","3.438","41.14","5.096","40.9","1010.42","16.21","85.2","-1.194","0.0"],
    [1407329,"2026-04-11 22:30:00","44909","3.306","37.26","5.227","39.25","1010.3589999999999","16.19","85.4","-1.195","0.0"],
    [1407330,"2026-04-11 22:40:00","44910","3.714","46.65","5.325","60.82","1010.319","16.15","85.4","-1.197","0.0"],
    [1407331,"2026-04-11 22:50:00","44911","3.855","47.61","5.39","31.84","1010.221","16.13","85.4","-1.197","0.0"],
    [1407332,"2026-04-11 23:00:00","44912","3.543","47.59","5.521","48.37","1010.1110000000001","16.13","85.1","-1.195","0.0"],
    [1407333,"2026-04-11 23:10:00","44913","2.542","31.26","4.051","25.95","1010.0189999999999","16.18","84.6","-1.197","0.0"],
    [1407334,"2026-04-11 23:20:00","44914","2.373","38.64","3.332","30.39","1009.992","16.25","84.2","-1.202","0.0"],
    [1407335,"2026-04-11 23:30:00","44915","2.35","37.44","3.528","28.62","1009.966","16.34","83.3","-1.23","0.0"],
    [1407336,"2026-04-11 23:40:00","44916","1.744","32.86","3.136","21.61","1009.9110000000001","16.46","82.2","-1.224","0.0"],
    [1407337,"2026-04-11 23:50:00","44917","1.8","43.78","3.495","52.33","1009.908","16.54","81.5","-1.246","0.0"],
    [1407338,"2026-04-12 00:00:00","44918","1.651","57.23","2.679","67.47","1009.9830000000001","16.59","80.9","-1.2229999999999999","0.0"],
    [1407339,"2026-04-12 00:10:00","44919","1.496","49.69","2.515","50.71","1010.012","16.59","80.9","-1.212","0.0"],
    [1407340,"2026-04-12 00:20:00","44920","1.264","41.76","1.927","43.16","1009.8839999999999","16.51","81.3","-1.273","0.0"],
    [1407341,"2026-04-12 00:30:00","44921","1.374","56.89","2.058","45.29","1009.77","16.46","81.5","-1.222","0.0"],
    [1407342,"2026-04-12 00:40:00","44922","1.2819999999999998","83.1","1.829","78.49","1009.802","16.48","81.6","-1.2109999999999999","0.0"],
    [1407343,"2026-04-12 00:50:00","44923","1.6569999999999998","79.43","2.319","77.47","1009.654","16.39","82.3","-1.204","0.0"],
    [1407344,"2026-04-12 01:00:00","44924","1.281","70.28","2.254","70.21","1009.434","16.19","83.3","-1.235","0.0"],
    [1407345,"2026-04-12 01:10:00","44925","0.335","40.77","1.111","32.28","1009.405","16.04","83.5","-1.642","0.0"],
    [1407346,"2026-04-12 01:20:00","44926","1.127","65.87","2.352","55.49","1009.419","16.01","83.1","-1.8769999999999998","0.0"],
    [1407347,"2026-04-12 01:30:00","44927","1.17","52.68","2.123","57.49","1009.388","16.1","82.0","-1.565","0.0"],
    [1407348,"2026-04-12 01:40:00","44928","1.805","22.93","3.299","16.82","1009.2239999999999","16.05","81.1","-1.6880000000000002","0.0"],
    [1407349,"2026-04-12 01:50:00","44929","2.095","40.76","3.528","39.03","1009.033","16.25","78.68","-1.645","0.0"],
    [1407350,"2026-04-12 02:00:00","44930","1.492","39.74","2.907","77.04","1009.1189999999999","16.3","77.66","-1.682","0.0"],
    [1407351,"2026-04-12 02:10:00","44931","1.548","59.39","2.385","68.46","1009.143","16.32","77.23","-1.8359999999999999","0.0"],
    [1407352,"2026-04-12 02:20:00","44932","2.077","76.13","2.842","79.26","1009.18","16.29","77.28","-1.496","0.0"],
    [1407353,"2026-04-12 02:30:00","44933","1.315","73.84","2.417","77.83","1009.196","16.06","78.87","-1.3559999999999999","0.0"],
    [1407354,"2026-04-12 02:40:00","44934","1.4869999999999999","64.8","2.319","74.65","1009.159","15.98","79.46","-1.33","0.0"],
    [1407355,"2026-04-12 02:50:00","44935","1.6219999999999999","62.78","2.548","82.7","1009.154","15.91","79.7","-1.304","0.0"],
    [1407356,"2026-04-12 03:00:00","44936","1.358","56.64","2.123","55.28","1009.0260000000001","15.89","79.18","-1.411","0.0"],
    [1407357,"2026-04-12 03:10:00","44937","0.907","101.4","1.927","93.2","1009.2489999999999","16.01","77.54","-1.2930000000000001","0.0"],
    [1407358,"2026-04-12 03:20:00","44938","1.686","70.32","2.319","63.86","1009.203","16.12","77.2","-1.264","0.0"],
    [1407359,"2026-04-12 03:30:00","44939","1.882","39.85","2.613","46.87","1008.935","15.9","78.26","-1.2229999999999999","0.0"],
    [1407360,"2026-04-12 03:40:00","44940","1.775","67.9","3.005","52.26","1008.96","16.12","76.06","-1.23","0.0"],
    [1407361,"2026-04-12 03:50:00","44941","0.816","169.7","1.927","177.1","1009.204","16.29","74.81","-1.212","0.0"],
    [1407362,"2026-04-12 04:00:00","44942","1.9269999999999998","66.01","2.385","68.57","1008.9119999999999","16.21","75.94","-1.261","0.0"],
    [1407363,"2026-04-12 04:10:00","44943","1.886","56.39","2.711","57.91","1008.6560000000001","16.01","77.15","-1.228","0.0"],
    [1407364,"2026-04-12 04:20:00","44944","1.99","81.0","2.646","79.05","1008.6210000000001","16.05","77.66","-1.219","0.0"],
    [1407365,"2026-04-12 04:30:00","44945","0.8390000000000001","54.93","1.895","73.03","1008.52","15.81","79.35","-1.4969999999999999","0.0"],
    [1407366,"2026-04-12 04:40:00","44946","0.0","49.87","0.033","49.87","1008.534","15.69","79.36","-1.891","0.0"],
    [1407367,"2026-04-12 04:50:00","44947","0.025","110.7","0.425","54.82","1008.549","15.81","78.42","-1.5119999999999998","0.0"],
    [1407368,"2026-04-12 05:00:00","44948","0.141","187.4","0.653","187.4","1008.709","15.79","77.93","-1.2790000000000001","0.0"],
    [1407369,"2026-04-12 05:10:00","44949","0.08900000000000001","116.6","1.078","110.9","1008.7189999999999","15.78","78.17","-1.286","0.0"],
    [1407370,"2026-04-12 05:20:00","44950","1.127","102.0","2.221","119.2","1008.783","15.87","77.71","-1.095","0.0"],
    [1407371,"2026-04-12 05:30:00","44951","0.205","132.0","1.666","181.1","1009.0139999999999","15.89","76.87","0.45299999999999996","0.0"],
    [1407372,"2026-04-12 05:40:00","44952","0.62","110.3","1.797","84.7","1009.1419999999999","15.87","76.73","3.1639999999999997","0.0"],
    [1407373,"2026-04-12 05:50:00","44953","0.41700000000000004","133.6","1.535","110.7","1009.105","15.9","76.28","7.332999999999999","0.0"],
    [1407374,"2026-04-12 06:00:00","44954","0.396","127.8","1.666","86.3","1009.153","15.83","76.08","12.96","0.0"],
    [1407375,"2026-04-12 06:10:00","44955","0.943","112.5","3.397","142.2","1009.35","15.93","73.41","21.14","0.0"],
    [1407376,"2026-04-12 06:20:00","44956","0.7879999999999999","89.8","1.503","67.88","1009.297","16.04","72.06","28.93","0.0"],
    [1407377,"2026-04-12 06:30:00","44957","1.429","74.79","2.025","80.9","1009.37","15.96","74.62","33.95","0.0"],
    [1407378,"2026-04-12 06:40:00","44958","1.482","53.91","2.221","42.38","1009.3989999999999","15.88","76.55","40.19","0.0"],
    [1407379,"2026-04-12 06:50:00","44959","1.109","40.29","2.189","45.12","1009.3789999999999","16.03","74.99","47.35","0.0"],
    [1407380,"2026-04-12 07:00:00","44960","0.456","271.6","1.568","254.9","1009.43","16.17","72.5","51.04","0.0"],
    [1407381,"2026-04-12 07:10:00","44961","1.266","228.3","1.993","215.5","1009.498","16.29","66.42","49.81","0.0"],
    [1407382,"2026-04-12 07:20:00","44962","1.5530000000000002","260.7","2.809","274.6","1009.5010000000001","16.16","60.76","50.29","0.0"],
    [1407383,"2026-04-12 07:30:00","44963","0.96","266.5","2.025","231.1","1009.3589999999999","16.25","59.07","58.67","0.0"],
    [1407384,"2026-04-12 07:40:00","44964","0.753","208.1","1.699","145.4","1009.341","16.31","58.84","67.43","0.0"],
    [1407385,"2026-04-12 07:50:00","44965","0.9059999999999999","271.1","1.47","277.1","1009.28","16.47","58.57","58.81","0.0"],
    [1407386,"2026-04-12 08:00:00","44966","0.623","284.5","2.091","296.8","1009.2760000000001","16.43","59.39","44.63","0.0"],
    [1407387,"2026-04-12 08:10:00","44967","1.729","296.6","3.561","309.4","1009.2389999999999","16.2","60.36","37.73","0.0"],
    [1407388,"2026-04-12 08:20:00","44968","2.605","308.9","4.214","315.9","1009.216","16.14","59.07","43.16","0.0"],
    [1407389,"2026-04-12 08:30:00","44969","2.747","319.8","4.149","319.1","1009.2539999999999","16.15","58.34","63.04","0.0"],
    [1407390,"2026-04-12 08:40:00","44970","3.36","331.5","5.39","331.1","1009.073","16.21","58.14","84.3","0.0"],
    [1407391,"2026-04-12 08:50:00","44971","3.115","332.4","5.488","331.7","1008.797","16.31","58.27","88.4","0.0"],
    [1407392,"2026-04-12 09:00:00","44972","2.9989999999999997","336.4","5.194","342.1","1008.3919999999999","16.66","58.07","92.4","0.0"],
    [1407393,"2026-04-12 09:10:00","44973","3.3480000000000003","337.2","6.011","335.4","1008.408","17.07","56.3","106.5","0.0"],
    [1407394,"2026-04-12 09:20:00","44974","0.8190000000000001","67.01","2.679","9.77","1009.26","17.27","55.31","121.7","0.0"],
    [1407395,"2026-04-12 09:30:00","44975","1.421","143.5","4.149","169.5","1009.712","17.31","64.26","172.2","0.0"],
    [1407396,"2026-04-12 09:40:00","44976","2.872","177.7","4.737","183.5","1009.653","16.65","68.77","205.2","0.0"],
    [1407397,"2026-04-12 09:50:00","44977","2.184","186.2","3.528","164.9","1009.523","16.74","61.24","214.8","0.0"],
    [1407398,"2026-04-12 10:00:00","44978","2.0380000000000003","195.9","3.789","189.9","1009.3889999999999","16.9","58.87","219.8","0.0"],
    [1407399,"2026-04-12 10:10:00","44979","1.045","243.4","2.221","179.5","1009.357","17.17","57.23","225.0","0.0"],
    [1407400,"2026-04-12 10:20:00","44980","1.036","299.5","2.385","284.1","1009.291","17.24","56.52","214.3","0.0"],
    [1407401,"2026-04-12 10:30:00","44981","1.6840000000000002","305.0","3.561","309.7","1009.13","17.37","56.99","209.0","0.0"],
    [1407402,"2026-04-12 10:40:00","44982","1.7919999999999998","299.2","3.789","302.9","1008.935","17.45","56.61","208.6","0.0"],
    [1407403,"2026-04-12 10:50:00","44983","1.59","261.4","3.201","298.1","1008.8710000000001","17.64","54.68","237.4","0.0"],
    [1407404,"2026-04-12 11:00:00","44984","1.6569999999999998","286.0","2.875","298.6","1008.7360000000001","17.88","54.6","296.7","0.0"],
    [1407405,"2026-04-12 11:10:00","44985","1.3840000000000001","322.5","2.548","328.4","1008.5110000000001","18.06","55.39","359.2","0.0"],
    [1407406,"2026-04-12 11:20:00","44986","1.331","324.6","2.907","309.4","1008.36","18.22","54.76","444.0","0.0"],
    [1407407,"2026-04-12 11:30:00","44987","2.969","307.4","5.913","302.8","1008.2389999999999","18.59","52.89","422.1","0.0"],
    [1407408,"2026-04-12 11:40:00","44988","4.195","285.6","6.599","285.3","1008.155","18.29","52.48","353.6","0.0"],
    [1407409,"2026-04-12 11:50:00","44989","4.21","303.8","5.847","309.2","1008.122","17.97","53.09","273.7","0.0"],
    [1407410,"2026-04-12 12:00:00","44990","4.607","299.7","7.154","294.7","1008.051","17.73","53.42","226.3","0.0"],
    [1407411,"2026-04-12 12:10:00","44991","4.671","312.9","7.056","316.7","1007.972","17.42","53.87","216.4","0.0"],
    [1407412,"2026-04-12 12:20:00","44992","4.868","305.3","6.599","310.3","1007.988","17.27","54.23","238.1","0.0"],
    [1407413,"2026-04-12 12:30:00","44993","4.585","307.9","7.154","306.4","1007.8760000000001","17.25","54.16","235.9","0.0"],
    [1407414,"2026-04-12 12:40:00","44994","4.954","307.9","7.285","322.7","1007.784","17.17","54.48","203.8","0.0"],
    [1407415,"2026-04-12 12:50:00","44995","5.452000000000001","303.0","7.644","312.2","1007.6489999999999","16.87","55.17","188.3","0.0"],
    [1407416,"2026-04-12 13:00:00","44996","5.414","306.6","7.742","301.1","1007.45","16.8","55.41","182.0","0.0"],
    [1407417,"2026-04-12 13:10:00","44997","5.096","301.9","7.873","299.3","1007.404","16.65","55.71","148.3","0.0"],
    [1407418,"2026-04-12 13:20:00","44998","4.729","302.4","6.631","291.9","1007.341","16.46","56.41","124.6","0.0"],
    [1407419,"2026-04-12 13:30:00","44999","4.908","317.7","7.742","326.2","1007.217","16.46","56.56","116.1","0.0"],
    [1407420,"2026-04-12 13:40:00","45000","4.277","322.8","7.546","323.3","1007.2560000000001","16.32","57.14","105.9","0.0"],
    [1407421,"2026-04-12 13:50:00","45001","4.428999999999999","323.8","6.697","331.6","1007.385","16.14","57.87","130.5","0.0"],
    [1407422,"2026-04-12 14:00:00","45002","5.292000000000001","321.8","9.34","319.7","1007.445","15.91","58.77","128.3","0.0"],
    [1407423,"2026-04-12 14:10:00","45003","5.621","319.2","8.26","321.3","1007.466","15.71","59.74","118.6","0.0"],
    [1407424,"2026-04-12 14:20:00","45004","5.2170000000000005","312.4","8.07","318.3","1007.5060000000001","15.53","60.77","118.5","0.0"],
    [1407425,"2026-04-12 14:30:00","45005","5.038","313.7","7.775","321.1","1007.467","15.43","61.92","132.2","0.0"],
    [1407426,"2026-04-12 14:40:00","45006","5.146","315.1","7.644","315.7","1007.405","15.33","63.34","139.9","0.0"],
    [1407427,"2026-04-12 14:50:00","45007","5.5120000000000005","312.6","8.33","310.9","1007.316","15.15","64.7","118.5","0.0"],
    [1407428,"2026-04-12 15:00:00","45008","5.452999999999999","316.6","7.579","312.7","1007.278","14.96","66.17","100.0","0.0"],
    [1407429,"2026-04-12 15:10:00","45009","4.898","317.2","8","335.3","1007.2230000000001","14.84","67.44","89.8","0.0"],
    [1407430,"2026-04-12 15:20:00","45010","5.276","319.3","8.07","315.5","1007.186","14.68","68.61","87.1","0.0"],
    [1407431,"2026-04-12 15:30:00","45011","5.745","315.7","9.05","299.7","1007.174","14.49","69.77","71.21","0.0"],
    [1407432,"2026-04-12 15:40:00","45012","5.104","315.7","8.49","332.1","1007.2410000000001","14.45","70.72","96.0","0.0"],
    [1407433,"2026-04-12 15:50:00","45013","4.823","317.2","7.905","316.3","1007.273","14.45","71.44","75.58","0.0"],
    [1407434,"2026-04-12 16:00:00","45014","4.732","310.0","8.4","314.2","1007.258","14.33","71.53","33.36","0.0"],
    [1407435,"2026-04-12 16:10:00","45015","5.483","317.4","7.938","309.8","1007.454","14.21","71.42","12.76","0.0"],
    [1407436,"2026-04-12 16:20:00","45016","5.564","315.3","7.219","314.5","1007.5369999999999","12.9","82.8","19.29","0.0"],
    [1407437,"2026-04-12 16:30:00","45017","4.78","310.2","7.089","306.4","1007.569","12.71","85.0","18.86","0.0"],
    [1407438,"2026-04-12 16:40:00","45018","4.087","299.9","5.913","300","1007.57","13.07","83.3","27.65","0.0"],
    [1407439,"2026-04-12 16:50:00","45019","3.25","294.5","5.096","298.8","1007.5980000000001","13.05","83.4","19.65","0.0"],
    [1407440,"2026-04-12 17:00:00","45020","4.1339999999999995","292.9","6.337","293.6","1007.5930000000001","13.01","83.9","22.8","0.0"],
    [1407441,"2026-04-12 17:10:00","45021","4.19","297.7","6.435","280.2","1007.5239999999999","13.0","84.1","18.51","0.0"],
    [1407442,"2026-04-12 17:20:00","45022","4.431","307.0","6.697","310.5","1007.549","12.96","84.5","10.62","0.0"],
    [1407443,"2026-04-12 17:30:00","45023","4.6339999999999995","308.0","6.925","303.6","1007.543","13.0","84.5","9.21","0.0"],
    [1407444,"2026-04-12 17:40:00","45024","4.345","302.5","6.566","312.9","1007.5260000000001","12.86","85.5","8.76","0.0"],
    [1407445,"2026-04-12 17:50:00","45025","4.247","303.3","6.795","296.9","1007.5269999999999","12.75","86.7","6.124","0.0"],
    [1407446,"2026-04-12 18:00:00","45026","4.23","306.4","6.011","301.1","1007.529","12.67","87.6","2.7739999999999996","0.0"],
    [1407447,"2026-04-12 18:10:00","45027","4.166","315.4","5.88","310.7","1007.548","12.62","88.3","1.11","0.0"],
    [1407448,"2026-04-12 18:20:00","45028","4.11","316.3","6.272","311.3","1007.574","12.58","88.6","0.434","0.0"],
    [1407449,"2026-04-12 18:30:00","45029","3.86","315.2","6.076","335.3","1007.627","12.55","89.2","-0.47600000000000003","0.0"],
    [1407450,"2026-04-12 18:40:00","45030","3.295","313.4","5.096","324.4","1007.7080000000001","12.43","90.1","-1.136","0.0"],
    [1407451,"2026-04-12 18:50:00","45031","2.8480000000000003","320.3","5.423","325.4","1007.789","12.32","91.6","-1.2109999999999999","0.0"],
    [1407452,"2026-04-12 19:00:00","45032","3.554","312.5","5.586","309.8","1007.815","12.27","91.5","-1.2309999999999999","0.0"],
    [1407453,"2026-04-12 19:10:00","45033","2.806","314.6","4.704","313.9","1007.865","12.28","91.4","-1.235","0.0"],
    [1407454,"2026-04-12 19:20:00","45034","2.807","317.2","4.279","314.6","1007.883","12.31","91.5","-1.247","0.0"],
    [1407455,"2026-04-12 19:30:00","45035","2.494","321.6","4.737","303.5","1007.929","12.34","91.4","-1.238","0.0"],
    [1407456,"2026-04-12 19:40:00","45036","2.339","320.4","3.789","326.4","1007.9789999999999","12.28","91.1","-1.224","0.0"],
    [1407457,"2026-04-12 19:50:00","45037","2.526","316.3","4.018","305.7","1008.0239999999999","12.27","91.0","-1.247","0.0"],
    [1407458,"2026-04-12 20:00:00","45038","2.441","314.8","3.463","310.4","1008.05","12.26","91.1","-1.193","0.0"],
    [1407459,"2026-04-12 20:10:00","45039","2.7289999999999996","313.6","3.92","297.6","1008.082","12.21","91.2","-1.188","0.0"],
    [1407460,"2026-04-12 20:20:00","45040","2.6639999999999997","310.5","3.659","326.9","1008.071","12.22","91.2","-1.206","0.0"],
    [1407461,"2026-04-12 20:30:00","45041","2.6289999999999996","298.5","3.757","296.1","1007.926","12.23","91.6","-1.041","0.0"],
    [1407462,"2026-04-12 20:40:00","45042","3.39","304.9","4.671","300","1007.821","12.09","91.8","-0.914","0.0"],
    [1407463,"2026-04-12 20:50:00","45043","3.56","302.0","5.651","310.1","1007.7189999999999","11.97","92.1","-1.092","0.0"],
    [1407464,"2026-04-12 21:00:00","45044","3.45","300.4","5.194","285.6","1007.544","11.91","92.4","-1.242","0.0"],
    [1407465,"2026-04-12 21:10:00","45045","3.884","303.5","5.815","317.4","1007.439","11.98","91.5","-1.26","0.0"],
    [1407466,"2026-04-12 21:20:00","45046","3.438","301.9","6.958","305.1","1007.3380000000001","12.1","90.8","-1.2590000000000001","0.0"],
    [1407467,"2026-04-12 21:30:00","45047","4.037","306.8","5.88","302.9","1007.31","12.06","90.2","-1.2590000000000001","0.0"],
    [1407468,"2026-04-12 21:40:00","45048","3.929","309.8","6.272","316.1","1007.2389999999999","12.01","90.1","-1.0590000000000002","0.0"],
    [1407469,"2026-04-12 21:50:00","45049","3.97","310.9","6.762","313.8","1007.1060000000001","11.92","90.2","-1.197","0.0"],
    [1407470,"2026-04-12 22:00:00","45050","4.494","312.1","7.023","321.6","1006.985","11.9","90.1","-1.197","0.0"],
    [1407471,"2026-04-12 22:10:00","45051","4.9030000000000005","307.7","7.023","304.2","1006.888","11.7","91.3","-1.068","0.0"],
    [1407472,"2026-04-12 22:20:00","45052","4.063","305.5","7.383","297.2","1006.784","11.73","90.7","-1.232","0.0"],
    [1407473,"2026-04-12 22:30:00","45053","4.207","302.2","6.337","308.5","1006.688","11.69","90.5","-1.2109999999999999","0.0"],
    [1407474,"2026-04-12 22:40:00","45054","4.178999999999999","302.2","6.501","291.4","1006.6519999999999","11.73","90.2","-1.237","0.0"],
    [1407475,"2026-04-12 22:50:00","45055","3.985","308.2","6.697","330.5","1006.6089999999999","11.76","89.5","-1.212","0.0"],
    [1407476,"2026-04-12 23:00:00","45056","3.786","310.4","6.207","303.4","1006.565","11.8","88.2","-1.249","0.0"],
    [1407477,"2026-04-12 23:10:00","45057","4.245","318.2","8.17","315.3","1006.561","11.8","87.1","-1.165","0.0"],
    [1407478,"2026-04-12 23:20:00","45058","4.074","321.7","6.305","317.7","1006.574","11.8","86.0","-1.011","0.0"],
    [1407479,"2026-04-12 23:30:00","45059","4.208","317.4","6.174","327.2","1006.5369999999999","11.66","86.1","-1.261","0.0"],
    [1407480,"2026-04-12 23:40:00","45060","4.685","315.1","7.252","304.2","1006.475","11.62","85.3","-1.261","0.0"],
    [1407481,"2026-04-12 23:50:00","45061","4.372","309.1","7.35","310.7","1006.3910000000001","11.65","84.9","-1.2570000000000001","0.0"],
    [1407482,"2026-04-13 00:00:00","45062","4.4110000000000005","309.0","6.403","317.4","1006.3530000000001","11.58","84.5","-0.866","0.0"],
    [1407483,"2026-04-13 00:10:00","45063","3.466","312.3","6.076","304.1","1006.2719999999999","11.53","85.3","-0.898","0.0"],
    [1407484,"2026-04-13 00:20:00","45064","3.838","308.4","7.644","338.9","1006.193","11.38","86.0","-1.261","0.0"],
    [1407485,"2026-04-13 00:30:00","45065","3.884","311.9","5.945","313.2","1006.154","11.35","85.8","-1.261","0.0"],
    [1407486,"2026-04-13 00:40:00","45066","4.635","314.2","6.697","315.4","1006.08","11.22","86.5","-1.261","0.0"],
    [1407487,"2026-04-13 00:50:00","45067","4.4030000000000005","317.1","7.383","322","1006.054","11.09","87.2","-1.261","0.0"],
    [1407488,"2026-04-13 01:00:00","45068","3.35","325.7","5.521","347.2","1006.033","10.97","87.8","-1.261","0.0"],
    [1407489,"2026-04-13 01:10:00","45069","3.78","330.0","6.174","336.8","1005.967","10.93","88.1","-1.107","0.0"],
    [1407490,"2026-04-13 01:20:00","45070","3.657","324.8","6.664","331.8","1005.86","10.73","88.8","-1.056","0.0"],
    [1407491,"2026-04-13 01:30:00","45071","4.0569999999999995","321.6","6.958","332.1","1005.742","10.64","88.8","-1.239","0.0"],
    [1407492,"2026-04-13 01:40:00","45072","4.838","312.7","7.415","308.5","1005.676","10.65","87.9","-1.261","0.0"],
    [1407493,"2026-04-13 01:50:00","45073","3.5989999999999998","321.1","6.501","313.7","1005.637","10.73","86.8","-1.261","0.0"],
    [1407494,"2026-04-13 02:00:00","45074","3.5389999999999997","331.2","5.521","317","1005.627","10.76","86.3","-1.261","0.0"],
    [1407495,"2026-04-13 02:10:00","45075","4.013999999999999","316.8","5.749","297.7","1005.57","10.75","85.8","-1.261","0.0"],
    [1407496,"2026-04-13 02:20:00","45076","4.07","324.1","6.011","315.8","1005.56","10.76","85.3","-1.263","0.0"],
    [1407497,"2026-04-13 02:30:00","45077","3.1639999999999997","327.7","6.141","308.2","1005.559","10.74","85.5","-1.261","0.0"],
    [1407498,"2026-04-13 02:40:00","45078","3.6069999999999998","324.8","6.141","320.5","1005.558","10.69","85.5","-1.261","0.0"],
    [1407499,"2026-04-13 02:50:00","45079","4.726","314.6","7.154","312.2","1005.538","10.62","84.9","-1.261","0.0"],
    [1407500,"2026-04-13 03:00:00","45080","3.853","307.1","5.945","304.4","1005.4580000000001","10.56","85.4","-1.264","0.0"],
    [1407501,"2026-04-13 03:10:00","45081","3.6210000000000004","308.6","5.521","290.3","1005.436","10.47","86.5","-1.261","0.0"],
    [1407502,"2026-04-13 03:20:00","45082","4.197","311.8","6.762","310.8","1005.413","10.45","86.5","-1.262","0.0"],
    [1407503,"2026-04-13 03:30:00","45083","3.522","319.1","6.239","311.7","1005.422","10.47","86.5","-1.261","0.0"],
    [1407504,"2026-04-13 03:40:00","45084","3.91","324.1","6.893","325.2","1005.493","10.43","86.2","-1.261","0.0"],
    [1407505,"2026-04-13 03:50:00","45085","3.3989999999999996","327.2","6.762","319.7","1005.585","10.4","85.8","-1.264","0.0"],
    [1407506,"2026-04-13 04:00:00","45086","4.074","319.7","6.762","315.2","1005.5889999999999","10.41","85.1","-1.265","0.0"],
    [1407507,"2026-04-13 04:10:00","45087","4.498","316.1","7.187","313.8","1005.586","10.42","84.1","-1.263","0.0"],
    [1407508,"2026-04-13 04:20:00","45088","3.786","308.4","6.664","314","1005.591","10.44","83.6","-0.7120000000000001","0.0"],
    [1407509,"2026-04-13 04:30:00","45089","3.695","299.0","5.096","310.8","1005.576","10.38","84.0","-0.804","0.0"],
    [1407510,"2026-04-13 04:40:00","45090","3.54","296.7","6.337","306.1","1005.559","10.25","85.1","-1.2590000000000001","0.0"],
    [1407511,"2026-04-13 04:50:00","45091","2.8680000000000003","304.5","5.227","328.8","1005.683","10.07","86.1","-1.263","0.0"],
    [1407512,"2026-04-13 05:00:00","45092","2.8160000000000003","315.4","4.704","308.8","1005.811","9.94","86.1","-1.261","0.0"],
    [1407513,"2026-04-13 05:10:00","45093","3.35","323.1","4.965","327.2","1005.92","9.91","84.8","-1.261","0.0"],
    [1407514,"2026-04-13 05:20:00","45094","2.677","317.6","4.933","339.1","1006.04","9.92","83.9","-0.371","0.0"],
    [1407515,"2026-04-13 05:30:00","45095","2.798","312.7","5.619","308.7","1006.0889999999999","9.95","82.8","1.435","0.0"],
    [1407516,"2026-04-13 05:40:00","45096","3.948","310.8","6.697","304","1006.1239999999999","9.99","81.4","4.035","0.0"],
    [1407517,"2026-04-13 05:50:00","45097","4.316","309.8","7.187","312.2","1006.138","10.02","80.5","6.359","0.0"],
    [1407518,"2026-04-13 06:00:00","45098","4.065","309.4","7.089","321","1006.2460000000001","10.05","80.3","10.33","0.0"],
    [1407519,"2026-04-13 06:10:00","45099","4.4430000000000005","306.9","6.403","308.2","1006.38","9.99","80.8","17.82","0.0"],
    [1407520,"2026-04-13 06:20:00","45100","4.205","304.5","6.566","317.4","1006.497","9.93","81.1","25.73","0.0"],
    [1407521,"2026-04-13 06:30:00","45101","4.982","306.9","7.807","308.4","1006.615","9.93","80.3","31.34","0.0"],
    [1407522,"2026-04-13 06:40:00","45102","4.157","305.3","7.317","320.7","1006.702","9.99","79.48","36.95","0.0"],
    [1407523,"2026-04-13 06:50:00","45103","4.018","301.9","6.011","298.7","1006.79","9.96","79.35","39.65","0.0"],
    [1407524,"2026-04-13 07:00:00","45104","3.947","304.4","6.435","296.4","1006.855","10.01","78.79","49.41","0.0"],
    [1407525,"2026-04-13 07:10:00","45105","3.378","315.0","5.521","291.2","1006.939","10.13","78.36","59.54","0.0"],
    [1407526,"2026-04-13 07:20:00","45106","3.715","311.9","6.337","307.7","1007.057","10.27","77.26","58.8","0.0"],
    [1407527,"2026-04-13 07:30:00","45107","5.274","315.8","7.285","311.9","1007.117","10.34","75.45","60.55","0.0"],
    [1407528,"2026-04-13 07:40:00","45108","3.931","314.8","6.762","323.3","1007.177","10.39","75.81","64.6","0.0"],
    [1407529,"2026-04-13 07:50:00","45109","2.93","305.8","5.096","306.2","1007.2769999999999","10.4","77.93","58.38","0.0"],
    [1407530,"2026-04-13 08:00:00","45110","3.44","302.6","5.455","308.3","1007.43","10.29","78.12","39.29","0.0"],
    [1407531,"2026-04-13 08:10:00","45111","3.47","302.3","5.423","314.9","1007.554","10.29","77.98","37.05","0.0"],
    [1407532,"2026-04-13 08:20:00","45112","3.21","297.6","5.129","305.4","1007.697","10.27","77.55","40.39","0.0"],
    [1407533,"2026-04-13 08:30:00","45113","3.362","296.9","5.586","285.2","1007.818","10.29","77.63","62.28","0.0"],
    [1407534,"2026-04-13 08:40:00","45114","3.215","294.7","4.835","294.6","1007.9680000000001","10.25","78.18","80.9","0.0"],
    [1407535,"2026-04-13 08:50:00","45115","3.361","291.7","5.292","300.2","1008.0319999999999","10.33","76.93","108.6","0.0"],
    [1407536,"2026-04-13 09:00:00","45116","3.361","284.8","4.802","292.8","1008.0830000000001","10.53","75.9","115.5","0.0"],
    [1407537,"2026-04-13 09:10:00","45117","2.931","298.9","5.096","309.2","1008.1410000000001","10.75","75.16","109.0","0.0"],
    [1407538,"2026-04-13 09:20:00","45118","3.384","293.6","4.769","292.6","1008.253","10.91","74.46","119.4","0.0"],
    [1407539,"2026-04-13 09:30:00","45119","3.353","299.5","5.227","301.2","1008.3389999999999","11.06","74.36","136.7","0.0"],
    [1407540,"2026-04-13 09:40:00","45120","3.2460000000000004","297.4","4.933","302.8","1008.298","11.26","73.7","178.6","0.0"],
    [1407541,"2026-04-13 09:50:00","45121","3.2230000000000003","290.4","4.835","281.2","1008.3380000000001","11.46","72.86","209.7","0.0"],
    [1407542,"2026-04-13 10:00:00","45122","3.1719999999999997","288.3","4.639","290.6","1008.372","11.58","71.74","230.4","0.0"],
    [1407543,"2026-04-13 10:10:00","45123","3.5860000000000003","293.7","5.227","295.9","1008.363","11.87","70.88","245.5","0.0"],
    [1407544,"2026-04-13 10:20:00","45124","3.26","290.9","5.259","288.5","1008.301","12.31","69.19","290.4","0.0"],
    [1407545,"2026-04-13 10:30:00","45125","3.18","296.5","4.704","315.5","1008.3430000000001","12.68","68.38","366.5","0.0"],
    [1407546,"2026-04-13 10:40:00","45126","3.339","295.9","4.541","286.7","1008.3989999999999","12.95","66.81","367.4","0.0"],
    [1407547,"2026-04-13 10:50:00","45127","2.549","287.4","4.149","289.3","1008.448","13.25","66.31","402.4","0.0"],
    [1407548,"2026-04-13 11:00:00","45128","2.161","282.0","3.985","284","1008.41","13.74","64.38","530.3","0.0"],
    [1407549,"2026-04-13 11:10:00","45129","2.145","238.8","3.659","205.5","1008.446","14.39","63.35","682.3","0.0"],
    [1407550,"2026-04-13 11:20:00","45130","2.542","218.3","4.312","213.2","1008.432","14.96","62.52","793.6","0.0"],
    [1407551,"2026-04-13 11:30:00","45131","2.434","215.6","3.626","221.3","1008.415","15.17","65.13","892.0","0.0"],
    [1407552,"2026-04-13 11:40:00","45132","3.56","216.0","6.468","184.9","1008.3480000000001","14.93","70.46","808.0","0.0"],
    [1407553,"2026-04-13 11:50:00","45133","3.365","212.2","5.978","218.8","1008.3710000000001","14.86","71.34","765.1","0.0"],
    [1407554,"2026-04-13 12:00:00","45134","3.59","190.6","5.619","182.4","1008.345","14.58","72.51","855.0","0.0"],
    [1407555,"2026-04-13 12:10:00","45135","3.675","199.7","6.272","229.6","1008.248","14.92","71.82","908.0","0.0"],
    [1407556,"2026-04-13 12:20:00","45136","3.658","201.7","6.076","217.5","1008.284","14.77","71.5","918.0","0.0"],
    [1407557,"2026-04-13 12:30:00","45137","3.571","194.9","5.749","169.4","1008.278","15.22","71.36","941.0","0.0"],
    [1407558,"2026-04-13 12:40:00","45138","4.449","211.9","6.566","212.6","1008.2689999999999","15.23","69.49","873.0","0.0"],
    [1407559,"2026-04-13 12:50:00","45139","3.875","204.5","6.043","228.3","1008.326","15.44","69.3","858.0","0.0"],
    [1407560,"2026-04-13 13:00:00","45140","3.931","193.0","6.501","213.2","1008.284","15.52","67.79","896.0","0.0"],
    [1407561,"2026-04-13 13:10:00","45141","3.8939999999999997","207.8","7.285","227.2","1008.3510000000001","15.34","68.29","881.0","0.0"],
    [1407562,"2026-04-13 13:20:00","45142","4.0169999999999995","197.8","6.958","209.5","1008.4169999999999","15.55","67.11","848.0","0.0"],
    [1407563,"2026-04-13 13:30:00","45143","4.7669999999999995","194.6","7.644","171.1","1008.46","15.23","67.17","837.0","0.0"],
    [1407564,"2026-04-13 13:40:00","45144","3.718","189.7","7.154","177.9","1008.434","15.3","67.62","829.0","0.0"],
    [1407565,"2026-04-13 13:50:00","45145","4.128","190.2","6.729","187.2","1008.385","15.46","66.15","833.0","0.0"],
    [1407566,"2026-04-13 14:00:00","45146","3.8","198.8","6.403","186.2","1008.35","15.51","66.3","812.0","0.0"],
    [1407567,"2026-04-13 14:10:00","45147","3.5269999999999997","191.9","7.775","170.3","1008.382","15.53","65.04","780.7","0.0"],
    [1407568,"2026-04-13 14:20:00","45148","3.449","201.6","6.239","219.3","1008.405","15.63","62.06","765.3","0.0"],
    [1407569,"2026-04-13 14:30:00","45149","3.2","197.1","5.913","191.1","1008.342","16.15","59.69","737.9","0.0"],
    [1407570,"2026-04-13 14:40:00","45150","3.372","196.8","7.187","176.8","1008.398","16.16","59.03","712.1","0.0"],
    [1407571,"2026-04-13 14:50:00","45151","2.912","192.1","5.782","179","1008.453","16.03","58.06","679.2","0.0"],
    [1407572,"2026-04-13 15:00:00","45152","3.3360000000000003","187.0","5.847","176.5","1008.4639999999999","15.75","59.6","652.1","0.0"],
    [1407573,"2026-04-13 15:10:00","45153","3.313","185.3","5.39","185.4","1008.456","15.95","58.72","559.2","0.0"],
    [1407574,"2026-04-13 15:20:00","45154","3.1060000000000003","179.2","5.684","168.3","1008.4780000000001","15.64","60.47","427.3","0.0"],
    [1407575,"2026-04-13 15:30:00","45155","3.46","172.8","5.194","163.4","1008.5419999999999","15.0","62.24","188.4","0.0"],
    [1407576,"2026-04-13 15:40:00","45156","2.057","186.7","3.953","175.8","1008.678","15.14","64.19","226.9","0.0"],
    [1407577,"2026-04-13 15:50:00","45157","2.122","175.9","4.998","150.5","1008.7589999999999","15.29","64.19","271.8","0.0"],
    [1407578,"2026-04-13 16:00:00","45158","2.622","170.5","4.247","180","1008.888","15.07","63.13","148.4","0.0"],
    [1407579,"2026-04-13 16:10:00","45159","1.631","157.2","3.985","178.6","1008.918","15.06","63.09","167.8","0.0"],
    [1407580,"2026-04-13 16:20:00","45160","0.94","136.8","2.319","103.6","1009.0189999999999","15.21","63.99","140.8","0.0"],
    [1407581,"2026-04-13 16:30:00","45161","1.883","100.7","3.626","85","1009.097","15.04","64.97","130.5","0.0"],
    [1407582,"2026-04-13 16:40:00","45162","2.022","108.5","3.267","101.7","1009.17","14.69","65.67","64.41","0.0"],
    [1407583,"2026-04-13 16:50:00","45163","1.5659999999999998","102.9","3.365","74.94","1009.2769999999999","14.66","65.39","76.14","0.0"],
    [1407584,"2026-04-13 17:00:00","45164","2.08","98.6","3.43","106.1","1009.42","14.7","65.43","81.8","0.0"],
    [1407585,"2026-04-13 17:10:00","45165","2.667","93.6","4.149","85.5","1009.528","14.63","66.31","69.69","0.0"],
    [1407586,"2026-04-13 17:20:00","45166","3.13","94.2","4.247","97.6","1009.612","14.56","68.37","58.58","0.0"],
    [1407587,"2026-04-13 17:30:00","45167","3.0669999999999997","91.0","4.312","91.3","1009.7689999999999","14.45","69.33","41.07","0.0"],
    [1407588,"2026-04-13 17:40:00","45168","2.887","92.6","4.279","85.4","1009.8969999999999","14.42","69.68","28.18","0.0"],
    [1407589,"2026-04-13 17:50:00","45169","2.985","91.0","4.247","93.1","1009.99","14.44","69.51","18.58","0.0"],
    [1407590,"2026-04-13 18:00:00","45170","2.9","92.1","4.051","98.6","1010.169","14.41","70.39","15.29","0.0"],
    [1407591,"2026-04-13 18:10:00","45171","2.552","94.0","4.018","93.1","1010.2080000000001","14.36","71.25","13.25","0.0"],
    [1407592,"2026-04-13 18:20:00","45172","2.246","89.3","4.41","97.4","1010.347","14.34","73.05","7.565","0.0"],
    [1407593,"2026-04-13 18:30:00","45173","2.582","89.1","3.887","85.7","1010.45","14.31","73.63","2.8160000000000003","0.0"],
    [1407594,"2026-04-13 18:40:00","45174","2.036","90.8","3.103","104.2","1010.633","14.25","73.72","0.24","0.0"],
    [1407595,"2026-04-13 18:50:00","45175","2.146","84.7","3.234","83.5","1010.8960000000001","14.26","74.08","-1.334","0.0"],
    [1407596,"2026-04-13 19:00:00","45176","1.776","87.7","2.744","85.1","1011.102","14.23","73.86","-1.8019999999999998","0.0"],
    [1407597,"2026-04-13 19:10:00","45177","2.08","92.2","3.332","92.1","1011.2289999999999","14.32","73.77","-1.518","0.0"],
    [1407598,"2026-04-13 19:20:00","45178","1.89","95.8","3.071","87.5","1011.368","14.39","74.03","-1.484","0.0"],
    [1407599,"2026-04-13 19:30:00","45179","1.11","107.5","2.646","103.2","1011.546","14.39","74.28","-1.954","0.0"],
    [1407600,"2026-04-13 19:40:00","45180","1.217","113.2","2.581","106.8","1011.678","14.35","74.66","-1.993","0.0"],
    [1407601,"2026-04-13 19:50:00","45181","1.415","112.7","2.875","121.4","1011.7539999999999","14.31","76.2","-2.031","0.0"],
    [1407602,"2026-04-13 20:00:00","45182","1.396","117.6","3.201","111.4","1011.8610000000001","14.21","76.27","-2.419","0.0"],
    [1407603,"2026-04-13 20:10:00","45183","1.3430000000000002","107.8","4.606","107.8","1012.023","14.23","76.05","-2.563","0.0"],
    [1407604,"2026-04-13 20:20:00","45184","1.5919999999999999","109.3","3.691","109.2","1012.2","14.22","76.11","-2.59","0.0"],
    [1407605,"2026-04-13 20:30:00","45185","0.9990000000000001","117.7","3.43","137.4","1012.323","14.2","75.32","-2.2569999999999997","0.0"],
    [1407606,"2026-04-13 20:40:00","45186","1.072","120.1","3.071","113.3","1012.3989999999999","14.16","75.16","-2.682","0.0"],
    [1407607,"2026-04-13 20:50:00","45187","1.415","108.9","3.724","114.9","1012.518","14.22","72.91","-2.702","0.0"],
    [1407608,"2026-04-13 21:00:00","45188","1.159","117.8","3.201","152.7","1012.663","14.25","70.27","-2.6039999999999996","0.0"],
    [1407609,"2026-04-13 21:10:00","45189","1.327","118.2","3.43","110.1","1012.738","14.33","68.92","-2.052","0.0"],
    [1407610,"2026-04-13 21:20:00","45190","1.06","111.2","2.548","109.2","1012.797","14.4","68.89","-1.994","0.0"],
    [1407611,"2026-04-13 21:30:00","45191","1.136","109.2","3.234","126.1","1012.828","14.36","68.01","-2.002","0.0"],
    [1407612,"2026-04-13 21:40:00","45192","1.227","111.8","3.463","118.7","1012.887","14.33","68.19","-2.222","0.0"],
    [1407613,"2026-04-13 21:50:00","45193","0.953","141.4","3.136","126.1","1012.97","14.26","68.69","-2.673","0.0"],
    [1407614,"2026-04-13 22:00:00","45194","0.5720000000000001","171.8","2.123","161.6","1013.1039999999999","14.15","69.85","-2.738","0.0"],
    [1407615,"2026-04-13 22:10:00","45195","0.845","174.2","1.96","129.7","1013.2189999999999","14.1","69.23","-2.737","0.0"],
    [1407616,"2026-04-13 22:20:00","45196","0.36200000000000004","152.6","1.633","204.6","1013.203","14.08","69.32","-2.407","0.0"],
    [1407617,"2026-04-13 22:30:00","45197","0.45799999999999996","108.1","2.221","102.7","1013.198","14.03","68.52","-2.13","0.0"],
    [1407618,"2026-04-13 22:40:00","45198","0.28600000000000003","159.3","1.666","147.7","1013.23","14.07","69.12","-2.577","0.0"],
    [1407619,"2026-04-13 22:50:00","45199","0.608","182.7","1.895","178.2","1013.32","14.03","70.21","-2.7569999999999997","0.0"],
    [1407620,"2026-04-13 23:00:00","45200","0.773","172.0","1.633","149.5","1013.393","14.07","71.23","-2.761","0.0"],
    [1407621,"2026-04-13 23:10:00","45201","1.1520000000000001","170.0","2.45","178.3","1013.426","14.04","70.41","-2.8089999999999997","0.0"],
    [1407622,"2026-04-13 23:20:00","45202","0.8490000000000001","162.1","2.025","192.8","1013.432","14.05","69.77","-2.79","0.0"],
    [1407623,"2026-04-13 23:30:00","45203","0.775","156.8","2.319","155.2","1013.4060000000001","14.01","69.98","-2.813","0.0"],
    [1407624,"2026-04-13 23:40:00","45204","0.457","139.2","2.189","155.4","1013.3660000000001","13.76","70.6","-3.02","0.0"],
    [1407625,"2026-04-13 23:50:00","45205","0.95","166.6","2.319","86.3","1013.455","13.96","69.17","-2.917","0.0"],
    [1407626,"2026-04-14 00:00:00","45206","0.6809999999999999","195.1","2.809","164.3","1013.5039999999999","13.89","68.8","-2.8089999999999997","0.0"],
    [1407627,"2026-04-14 00:10:00","45207","1.195","290.6","1.731","293.1","1013.5269999999999","12.74","74.47","-2.84","0.0"],
    [1407628,"2026-04-14 00:20:00","45208","0.934","284.9","1.307","296.2","1013.5260000000001","12.09","78.32","-3.207","0.0"],
    [1407629,"2026-04-14 00:30:00","45209","1.271","287.8","1.699","294.8","1013.5060000000001","11.48","82.3","-2.833","0.0"],
    [1407630,"2026-04-14 00:40:00","45210","1.527","285.6","2.091","285.2","1013.5","11.33","84.2","-2.823","0.0"],
    [1407631,"2026-04-14 00:50:00","45211","1.9680000000000002","279.3","2.417","282.7","1013.574","11.27","84.8","-2.7880000000000003","0.0"],
    [1407632,"2026-04-14 01:00:00","45212","1.5","270.9","2.221","271.7","1013.6","11.28","84.6","-2.762","0.0"],
    [1407633,"2026-04-14 01:10:00","45213","1.621","278.2","2.319","276.8","1013.615","11.11","85.3","-2.761","0.0"],
    [1407634,"2026-04-14 01:20:00","45214","1.3330000000000002","281.0","2.319","281.1","1013.632","10.87","86.0","-2.775","0.0"],
    [1407635,"2026-04-14 01:30:00","45215","1.272","285.4","2.417","284","1013.6110000000001","10.81","86.4","-2.762","0.0"],
    [1407636,"2026-04-14 01:40:00","45216","0.833","281.4","1.666","264.3","1013.615","10.66","86.9","-2.7680000000000002","0.0"],
    [1407637,"2026-04-14 01:50:00","45217","1.012","284.5","1.699","281.3","1013.6260000000001","10.61","87.6","-2.781","0.0"],
    [1407638,"2026-04-14 02:00:00","45218","0.768","292.7","1.535","315.1","1013.6289999999999","10.66","87.5","-2.762","0.0"],
    [1407639,"2026-04-14 02:10:00","45219","1.0090000000000001","279.5","1.47","273.8","1013.597","10.64","87.7","-2.766","0.0"],
    [1407640,"2026-04-14 02:20:00","45220","0.843","279.3","1.372","279.4","1013.612","10.56","87.5","-2.761","0.0"],
    [1407641,"2026-04-14 02:30:00","45221","0.75","286.2","1.307","301.9","1013.59","10.48","87.7","-2.772","0.0"],
    [1407642,"2026-04-14 02:40:00","45222","0.9890000000000001","286.4","1.633","273.6","1013.615","10.49","87.6","-2.8110000000000004","0.0"],
    [1407643,"2026-04-14 02:50:00","45223","1.1079999999999999","276.5","1.797","278.6","1013.663","10.74","86.7","-2.761","0.0"],
    [1407644,"2026-04-14 03:00:00","45224","1.078","284.5","1.699","276.9","1013.7130000000001","10.66","86.4","-2.761","0.0"],
    [1407645,"2026-04-14 03:10:00","45225","1.222","283.7","1.731","279.7","1013.755","10.47","86.9","-2.7680000000000002","0.0"],
    [1407646,"2026-04-14 03:20:00","45226","1.2","290.0","2.189","287.5","1013.809","10.32","87.4","-2.7680000000000002","0.0"],
    [1407647,"2026-04-14 03:30:00","45227","1.2670000000000001","292.7","2.809","302.6","1013.8960000000001","10.33","87.4","-2.764","0.0"],
    [1407648,"2026-04-14 03:40:00","45228","1.956","302.1","3.365","312.3","1013.88","10.39","86.7","-2.8810000000000002","0.0"],
    [1407649,"2026-04-14 03:50:00","45229","2.545","314.5","4.345","314.8","1013.905","10.73","81.8","-3.435","0.0"],
    [1407650,"2026-04-14 04:00:00","45230","3.103","319.3","4.998","310.9","1013.935","11.26","72.7","-3.717","0.0"],
    [1407651,"2026-04-14 04:10:00","45231","3.333","317.0","4.9","320.3","1013.93","11.33","68.61","-3.403","0.0"],
    [1407652,"2026-04-14 04:20:00","45232","3.315","307.9","5.488","309.6","1013.934","11.17","68.7","-2.7310000000000003","0.0"],
    [1407653,"2026-04-14 04:30:00","45233","3.424","306.9","5.455","304.2","1013.962","11.03","69.77","-2.698","0.0"],
    [1407654,"2026-04-14 04:40:00","45234","3.718","306.5","5.325","313.6","1014.035","11.01","69.93","-2.56","0.0"],
    [1407655,"2026-04-14 04:50:00","45235","3.4389999999999996","306.4","4.639","307.5","1014.1460000000001","10.98","70.54","-1.659","0.0"],
    [1407656,"2026-04-14 05:00:00","45236","2.998","305.4","5.227","325.3","1014.198","10.95","71.2","-1.2670000000000001","0.0"],
    [1407657,"2026-04-14 05:10:00","45237","3.383","300.8","5.194","299","1014.263","10.77","71.76","-0.7070000000000001","0.0"],
    [1407658,"2026-04-14 05:20:00","45238","4.105","304.9","6.403","306","1014.3439999999999","10.65","70.11","2.267","0.0"],
    [1407659,"2026-04-14 05:30:00","45239","4.246","310.9","6.305","311.3","1014.422","10.72","65.16","9.93","0.0"],
    [1407660,"2026-04-14 05:40:00","45240","3.14","296.9","5.063","301.5","1014.488","10.46","65.09","26.56","0.0"],
    [1407661,"2026-04-14 05:50:00","45241","2.957","299.0","4.933","295.5","1014.6030000000001","10.45","66.26","50.21","0.0"],
    [1407662,"2026-04-14 06:00:00","45242","3.345","305.1","5.063","313.6","1014.748","10.83","64.39","76.12","0.0"],
    [1407663,"2026-04-14 06:10:00","45243","2.7760000000000002","302.2","4.606","304.4","1014.773","10.92","63.3","103.3","0.0"],
    [1407664,"2026-04-14 06:20:00","45244","3.4019999999999997","301.7","4.541","300.4","1014.845","11.04","63.01","135.5","0.0"],
    [1407665,"2026-04-14 06:30:00","45245","3.6060000000000003","298.2","5.913","297.2","1014.941","11.26","62.5","167.3","0.0"],
    [1407666,"2026-04-14 06:40:00","45246","3.483","300.6","5.194","302.3","1015.034","11.44","61.22","202.2","0.0"],
    [1407667,"2026-04-14 06:50:00","45247","4.055","303.5","5.945","308.4","1015.0889999999999","11.58","59.4","237.7","0.0"],
    [1407668,"2026-04-14 07:00:00","45248","3.715","307.0","5.325","306.1","1015.1389999999999","11.88","58.39","272.6","0.0"],
    [1407669,"2026-04-14 07:10:00","45249","3.344","304.5","5.455","325.8","1015.178","12.35","57.33","307.2","0.0"],
    [1407670,"2026-04-14 07:20:00","45250","3.327","300.1","4.965","300.8","1015.2360000000001","12.61","56.02","341.9","0.0"],
    [1407671,"2026-04-14 07:30:00","45251","3.762","298.6","5.161","298.9","1015.247","12.87","55.3","377.8","0.0"],
    [1407672,"2026-04-14 07:40:00","45252","3.5039999999999996","303.3","5.063","300.9","1015.296","13.53","54.16","413.5","0.0"],
    [1407673,"2026-04-14 07:50:00","45253","3.911","302.2","6.305","298.8","1015.303","13.83","52.32","424.4","0.0"],
    [1407674,"2026-04-14 08:00:00","45254","3.582","297.1","5.619","314.9","1015.3489999999999","14.02","51.56","479.4","0.0"],
    [1407675,"2026-04-14 08:10:00","45255","3.925","306.1","5.161","314.4","1015.448","14.17","51.82","491.1","0.0"],
    [1407676,"2026-04-14 08:20:00","45256","3.37","294.9","4.9","298.8","1015.4939999999999","14.6","50.88","544.4","0.0"],
    [1407677,"2026-04-14 08:30:00","45257","2.812","303.3","4.377","307.1","1015.551","14.94","50.74","575.5","0.0"],
    [1407678,"2026-04-14 08:40:00","45258","2.7260000000000004","289.2","3.822","301.7","1015.5189999999999","15.47","49.12","606.7","0.0"],
    [1407679,"2026-04-14 08:50:00","45259","2.114","288.1","3.267","298.5","1015.523","15.88","48.93","635.5","0.0"],
    [1407680,"2026-04-14 09:00:00","45260","2.339","290.2","3.985","281.4","1015.6610000000001","16.36","48.61","662.1","0.0"],
    [1407681,"2026-04-14 09:10:00","45261","2.2359999999999998","282.5","3.985","278","1015.789","16.39","48.38","690.0","0.0"],
    [1407682,"2026-04-14 09:20:00","45262","2.043","257.6","3.92","285.3","1015.834","16.8","48.56","715.0","0.0"],
    [1407683,"2026-04-14 09:30:00","45263","1.131","222.4","3.299","257.7","1015.816","17.13","49.25","738.7","0.0"],
    [1407684,"2026-04-14 09:40:00","45264","1.21","242.5","3.365","241.2","1015.846","17.37","48.23","761.4","0.0"],
    [1407685,"2026-04-14 09:50:00","45265","0.7929999999999999","128.5","2.319","188.4","1015.823","17.39","48.03","780.8","0.0"],
    [1407686,"2026-04-14 10:00:00","45266","2.406","213.3","4.083","228.1","1015.826","17.63","48.12","798.8","0.0"],
    [1407687,"2026-04-14 10:10:00","45267","1.345","217.3","2.581","207.6","1015.8610000000001","17.53","47.17","818.0","0.0"],
    [1407688,"2026-04-14 10:20:00","45268","2.804","206.8","4.802","166.3","1015.85","17.93","47.99","838.0","0.0"],
    [1407689,"2026-04-14 10:30:00","45269","3.5210000000000004","177.3","5.39","164.1","1015.955","17.01","52.76","862.0","0.0"],
    [1407690,"2026-04-14 10:40:00","45270","2.6319999999999997","177.8","4.965","147.3","1015.985","16.94","53.71","869.0","0.0"],
    [1407691,"2026-04-14 10:50:00","45271","3.0460000000000003","189.8","5.488","181.3","1016.064","17.38","53.57","879.0","0.0"],
    [1407692,"2026-04-14 11:00:00","45272","3.1239999999999997","199.0","6.697","220.4","1016.043","17.4","53.87","889.0","0.0"],
    [1407693,"2026-04-14 11:10:00","45273","2.992","185.8","4.802","214.4","1015.971","17.36","53.5","899.0","0.0"],
    [1407694,"2026-04-14 11:20:00","45274","3.042","186.0","6.272","173.9","1015.928","17.2","54.49","909.0","0.0"],
    [1407695,"2026-04-14 11:30:00","45275","3.5389999999999997","175.6","5.521","162.1","1015.93","16.74","55.23","917.0","0.0"],
    [1407696,"2026-04-14 11:40:00","45276","3.4939999999999998","183.9","5.553","153.7","1015.913","17.17","55.1","921.0","0.0"],
    [1407697,"2026-04-14 11:50:00","45277","3.681","189.9","5.782","159.1","1015.915","17.08","55.43","923.0","0.0"],
    [1407698,"2026-04-14 12:00:00","45278","4.029","188.4","6.109","173.2","1015.8910000000001","16.96","55.9","925.0","0.0"],
    [1407699,"2026-04-14 12:10:00","45279","3.8810000000000002","188.9","6.435","167.2","1015.798","17.35","55.8","923.0","0.0"],
    [1407700,"2026-04-14 12:20:00","45280","3.819","178.3","6.631","179.9","1015.705","16.92","57.06","922.0","0.0"],
    [1407701,"2026-04-14 12:30:00","45281","3.27","192.7","7.023","168.1","1015.704","17.51","56.25","916.0","0.0"],
    [1407702,"2026-04-14 12:40:00","45282","3.647","188.2","6.435","189.5","1015.707","17.24","56.75","906.0","0.0"],
    [1407703,"2026-04-14 12:50:00","45283","3.952","185.3","6.991","183","1015.711","17.37","56.83","895.0","0.0"],
    [1407704,"2026-04-14 13:00:00","45284","4.378","193.9","7.677","185","1015.7230000000001","17.16","57.54","887.0","0.0"],
    [1407705,"2026-04-14 13:10:00","45285","4.032","186.0","7.415","177.9","1015.758","17.3","57.5","875.0","0.0"],
    [1407706,"2026-04-14 13:20:00","45286","4.82","209.5","7.285","213.5","1015.727","17.18","57.85","863.0","0.0"],
    [1407707,"2026-04-14 13:30:00","45287","3.91","203.4","6.501","204.1","1015.7589999999999","17.48","57.31","846.0","0.0"],
    [1407708,"2026-04-14 13:40:00","45288","4.141","204.1","8","217.5","1015.7719999999999","17.47","57.73","830.0","0.0"],
    [1407709,"2026-04-14 13:50:00","45289","4.056","190.0","7.023","177.8","1015.74","17.44","57.87","813.0","0.0"],
    [1407710,"2026-04-14 14:00:00","45290","4.268","195.6","6.925","177.6","1015.7330000000001","17.29","58.41","792.5","0.0"],
    [1407711,"2026-04-14 14:10:00","45291","3.783","199.2","6.958","211.8","1015.715","17.39","59.04","772.8","0.0"],
    [1407712,"2026-04-14 14:20:00","45292","4.013999999999999","199.6","6.958","225.6","1015.685","17.32","58.96","751.7","0.0"],
    [1407713,"2026-04-14 14:30:00","45293","4.018","200.7","6.533","216.3","1015.635","17.33","59.13","727.2","0.0"],
    [1407714,"2026-04-14 14:40:00","45294","4.0489999999999995","192.8","7.252","210.9","1015.596","16.99","60.04","702.2","0.0"],
    [1407715,"2026-04-14 14:50:00","45295","3.9930000000000003","194.8","6.664","219.3","1015.545","17.14","60.05","674.9","0.0"],
    [1407716,"2026-04-14 15:00:00","45296","3.7710000000000004","196.4","6.762","184.7","1015.475","17.11","60.62","648.3","0.0"],
    [1407717,"2026-04-14 15:10:00","45297","4.035","201.4","7.219","179.1","1015.4810000000001","17.01","61.45","621.5","0.0"],
    [1407718,"2026-04-14 15:20:00","45298","3.8930000000000002","195.5","7.121","184.9","1015.557","16.99","61.78","591.5","0.0"],
    [1407719,"2026-04-14 15:30:00","45299","3.4810000000000003","194.5","7.448","181.9","1015.534","16.87","63.05","560.7","0.0"],
    [1407720,"2026-04-14 15:40:00","45300","3.178","198.0","6.762","176.8","1015.575","16.93","63.41","529.1","0.0"],
    [1407721,"2026-04-14 15:50:00","45301","3.505","199.6","6.109","219.9","1015.665","16.76","64.41","497.1","0.0"],
    [1407722,"2026-04-14 16:00:00","45302","3.2880000000000003","202.1","5.749","176.8","1015.812","16.75","65.24","463.0","0.0"],
    [1407723,"2026-04-14 16:10:00","45303","3.1910000000000003","196.8","5.815","200.1","1015.908","16.61","65.75","425.7","0.0"],
    [1407724,"2026-04-14 16:20:00","45304","2.7460000000000004","193.3","4.998","171.6","1015.945","16.59","66.52","376.4","0.0"],
    [1407725,"2026-04-14 16:30:00","45305","3.859","213.8","6.566","208.6","1016.025","16.47","66.52","339.7","0.0"],
    [1407726,"2026-04-14 16:40:00","45306","2.7539999999999996","201.3","5.063","226.7","1016.073","16.34","67.28","325.2","0.0"],
    [1407727,"2026-04-14 16:50:00","45307","3.035","204.2","5.423","231.4","1016.178","16.26","68.29","290.9","0.0"],
    [1407728,"2026-04-14 17:00:00","45308","2.7769999999999997","194.4","5.096","179.8","1016.247","16.36","68.0","255.2","0.0"],
    [1407729,"2026-04-14 17:10:00","45309","3.265","191.7","5.651","177.1","1016.2710000000001","15.98","68.64","221.7","0.0"],
    [1407730,"2026-04-14 17:20:00","45310","2.8369999999999997","193.6","5.096","184.3","1016.319","15.98","69.1","188.2","0.0"],
    [1407731,"2026-04-14 17:30:00","45311","3.147","202.4","5.749","218.5","1016.383","15.78","69.09","154.1","0.0"],
    [1407732,"2026-04-14 17:40:00","45312","2.63","208.4","4.802","230.6","1016.502","15.74","68.93","122.3","0.0"],
    [1407733,"2026-04-14 17:50:00","45313","2.943","213.3","6.272","228.2","1016.568","15.52","68.91","91.3","0.0"],
    [1407734,"2026-04-14 18:00:00","45314","2.765","222.4","3.985","231.7","1016.7080000000001","15.34","70.27","52.75","0.0"],
    [1407735,"2026-04-14 18:10:00","45315","2.092","210.1","5.129","207.7","1016.716","15.16","70.82","18.52","0.0"],
    [1407736,"2026-04-14 18:20:00","45316","1.714","212.9","3.757","226.8","1016.7639999999999","15.05","71.44","11.63","0.0"],
    [1407737,"2026-04-14 18:30:00","45317","2.1719999999999997","212.7","3.985","195.9","1016.939","14.94","72.28","4.707","0.0"],
    [1407738,"2026-04-14 18:40:00","45318","1.9709999999999999","217.2","3.169","195.9","1017.063","14.85","72.19","0.068","0.0"],
    [1407739,"2026-04-14 18:50:00","45319","1.78","213.0","2.875","218.2","1017.238","14.82","72.4","-2.423","0.0"],
    [1407740,"2026-04-14 19:00:00","45320","2.1830000000000003","214.9","3.267","209.9","1017.424","14.82","72.75","-3.162","0.0"],
    [1407741,"2026-04-14 19:10:00","45321","2.3209999999999997","208.9","3.92","171.3","1017.62","14.79","73.31","-3.0780000000000003","0.0"],
    [1407742,"2026-04-14 19:20:00","45322","1.999","225.7","3.234","214","1017.7460000000001","14.71","73.86","-3.023","0.0"],
    [1407743,"2026-04-14 19:30:00","45323","1.247","233.1","2.417","228.5","1017.793","14.46","75.03","-3.2910000000000004","0.0"],
    [1407744,"2026-04-14 19:40:00","45324","1.124","243.1","2.45","232.9","1017.935","14.21","76.27","-3.409","0.0"],
    [1407745,"2026-04-14 19:50:00","45325","0.691","245.0","1.372","246.3","1018.092","14.12","76.51","-3.467","0.0"],
    [1407746,"2026-04-14 20:00:00","45326","0.8540000000000001","238.6","1.535","243.5","1018.186","14.08","76.47","-3.4530000000000003","0.0"],
    [1407747,"2026-04-14 20:10:00","45327","1.168","247.0","2.287","271.5","1018.2739999999999","14.0","76.99","-3.44","0.0"],
    [1407748,"2026-04-14 20:20:00","45328","1.3090000000000002","255.8","2.45","254.6","1018.352","14.05","77.54","-3.341","0.0"],
    [1407749,"2026-04-14 20:30:00","45329","1.128","241.3","2.548","255.4","1018.5169999999999","14.07","77.5","-3.242","0.0"],
    [1407750,"2026-04-14 20:40:00","45330","0.779","246.0","1.405","237","1018.6110000000001","14.02","77.54","-3.467","0.0"],
    [1407751,"2026-04-14 20:50:00","45331","0.61","257.1","1.176","262.2","1018.74","13.85","78.24","-3.457","0.0"],
    [1407752,"2026-04-14 21:00:00","45332","1.02","243.6","1.927","231.7","1018.814","13.76","78.65","-3.325","0.0"],
    [1407753,"2026-04-14 21:10:00","45333","1.335","237.3","1.993","234.7","1018.82","13.65","78.05","-3.1010000000000004","0.0"],
    [1407754,"2026-04-14 21:20:00","45334","1.406","231.3","1.993","240.1","1018.852","13.46","76.84","-3.1060000000000003","0.0"],
    [1407755,"2026-04-14 21:30:00","45335","1.364","239.0","1.96","234.4","1018.846","13.42","75.58","-2.9130000000000003","0.0"],
    [1407756,"2026-04-14 21:40:00","45336","1.192","235.4","2.025","241.1","1018.855","13.37","75.46","-3.127","0.0"],
    [1407757,"2026-04-14 21:50:00","45337","1.018","258.8","1.797","244.9","1018.8480000000001","13.16","76.5","-3.074","0.0"],
    [1407758,"2026-04-14 22:00:00","45338","1.137","276.3","1.764","277.4","1018.88","12.64","77.37","-3.468","0.0"],
    [1407759,"2026-04-14 22:10:00","45339","0.94","269.4","1.601","267.7","1018.846","12.25","75.98","-3.367","0.0"],
    [1407760,"2026-04-14 22:20:00","45340","0.9129999999999999","264.2","1.666","263.2","1018.8430000000001","12.41","73.51","-3.435","0.0"],
    [1407761,"2026-04-14 22:30:00","45341","1.044","270.1","1.699","255.7","1018.8439999999999","12.47","74.38","-3.275","0.0"],
    [1407762,"2026-04-14 22:40:00","45342","0.87","265.7","1.731","262.1","1018.904","12.36","76.44","-3.267","0.0"],
    [1407763,"2026-04-14 22:50:00","45343","0.955","282.8","1.633","281.9","1018.954","12.23","75.74","-3.2039999999999997","0.0"],
    [1407764,"2026-04-14 23:00:00","45344","0.968","278.5","1.535","276.8","1018.971","11.8","76.23","-3.455","0.0"],
    [1407765,"2026-04-14 23:10:00","45345","0.89","283.9","1.568","275.1","1018.927","11.79","74.62","-3.074","0.0"],
    [1407766,"2026-04-14 23:20:00","45346","1.141","280.8","1.96","273.5","1018.87","11.39","75.61","-3.389","0.0"],
    [1407767,"2026-04-14 23:30:00","45347","1.208","273.4","1.797","281.6","1018.822","11.11","76.78","-3.219","0.0"],
    [1407768,"2026-04-14 23:40:00","45348","1.165","266.9","1.731","274.9","1018.801","11.47","74.72","-2.969","0.0"],
    [1407769,"2026-04-14 23:50:00","45349","1.031","275.8","1.96","268.4","1018.69","11.33","74.7","-2.906","0.0"],
    [1407770,"2026-04-15 00:00:00","45350","1.083","281.1","2.417","272.1","1018.623","11.0","76.47","-2.8939999999999997","0.0"],
    [1407771,"2026-04-15 00:10:00","45351","1.125","276.4","1.666","272.4","1018.625","10.76","77.72","-3.3169999999999997","0.0"],
    [1407772,"2026-04-15 00:20:00","45352","0.802","270.7","1.339","259.9","1018.6189999999999","10.84","77.31","-2.911","0.0"],
    [1407773,"2026-04-15 00:30:00","45353","0.7759999999999999","260.6","1.241","261.3","1018.686","10.84","77.24","-2.862","0.0"],
    [1407774,"2026-04-15 00:40:00","45354","1.159","267.2","1.731","264","1018.703","10.86","77.22","-3.0839999999999996","0.0"],
    [1407775,"2026-04-15 00:50:00","45355","1.585","264.5","2.254","266.9","1018.663","10.85","77.39","-2.841","0.0"],
    [1407776,"2026-04-15 01:00:00","45356","1.5430000000000001","270.6","2.221","269.7","1018.6189999999999","10.68","78.22","-2.781","0.0"],
    [1407777,"2026-04-15 01:10:00","45357","1.442","276.2","2.025","269.3","1018.569","10.47","79.98","-2.786","0.0"],
    [1407778,"2026-04-15 01:20:00","45358","0.858","253.2","1.666","260.7","1018.5139999999999","10.43","80.5","-2.7939999999999996","0.0"],
    [1407779,"2026-04-15 01:30:00","45359","0.86","266.6","1.209","268.3","1018.4580000000001","10.4","79.93","-2.886","0.0"],
    [1407780,"2026-04-15 01:40:00","45360","0.757","264.6","1.241","266","1018.3860000000001","10.31","80.6","-2.873","0.0"],
    [1407781,"2026-04-15 01:50:00","45361","0.9570000000000001","268.3","1.503","275.6","1018.4110000000001","10.24","81.2","-3.048","0.0"],
    [1407782,"2026-04-15 02:00:00","45362","1.464","269.2","2.091","271.8","1018.477","10.26","81.6","-3.112","0.0"],
    [1407783,"2026-04-15 02:10:00","45363","1.631","272.2","2.548","270.9","1018.461","10.3","81.4","-2.783","0.0"],
    [1407784,"2026-04-15 02:20:00","45364","1.9069999999999998","272.5","3.038","273.2","1018.431","10.19","81.9","-2.7910000000000004","0.0"],
    [1407785,"2026-04-15 02:30:00","45365","1.57","271.7","2.613","271.5","1018.3530000000001","10.05","81.7","-2.77","0.0"],
    [1407786,"2026-04-15 02:40:00","45366","1.7590000000000001","269.1","2.221","267.4","1018.35","9.73","83.0","-2.801","0.0"],
    [1407787,"2026-04-15 02:50:00","45367","1.6769999999999998","265.7","2.581","270.3","1018.4019999999999","9.74","83.3","-2.77","0.0"],
    [1407788,"2026-04-15 03:00:00","45368","1.7169999999999999","268.6","2.646","274","1018.3910000000001","9.66","83.5","-2.77","0.0"],
    [1407789,"2026-04-15 03:10:00","45369","1.3030000000000002","271.9","2.483","282.8","1018.35","9.49","84.1","-2.767","0.0"],
    [1407790,"2026-04-15 03:20:00","45370","1.626","273.7","2.777","289","1018.275","9.45","84.5","-2.95","0.0"],
    [1407791,"2026-04-15 03:30:00","45371","1.558","274.5","2.613","269.2","1018.315","9.57","83.7","-2.762","0.0"],
    [1407792,"2026-04-15 03:40:00","45372","1.375","277.6","2.319","283.5","1018.268","9.39","83.9","-2.764","0.0"],
    [1407793,"2026-04-15 03:50:00","45373","1.3730000000000002","275.2","2.091","278.7","1018.3380000000001","9.38","83.6","-2.764","0.0"],
    [1407794,"2026-04-15 04:00:00","45374","1.294","278.3","2.777","290.6","1018.375","9.29","83.6","-2.763","0.0"],
    [1407795,"2026-04-15 04:10:00","45375","1.6440000000000001","283.2","3.071","279.9","1018.3760000000001","9.28","83.4","-2.7760000000000002","0.0"],
    [1407796,"2026-04-15 04:20:00","45376","1.166","284.5","2.973","287.4","1018.334","9.28","83.2","-2.762","0.0"],
    [1407797,"2026-04-15 04:30:00","45377","1.577","286.9","2.483","296.9","1018.347","9.33","82.9","-2.9539999999999997","0.0"],
    [1407798,"2026-04-15 04:40:00","45378","1.903","287.2","3.071","302.6","1018.3380000000001","9.37","82.3","-2.763","0.0"],
    [1407799,"2026-04-15 04:50:00","45379","1.64","288.6","2.907","305.2","1018.35","9.33","82.4","-2.762","0.0"],
    [1407800,"2026-04-15 05:00:00","45380","1.298","286.0","2.385","298.7","1018.418","9.36","81.5","-2.5780000000000003","0.0"],
    [1407801,"2026-04-15 05:10:00","45381","1.291","289.5","2.091","265.8","1018.467","9.27","80.7","-0.9079999999999999","0.0"],
    [1407802,"2026-04-15 05:20:00","45382","1.579","281.2","2.581","274.9","1018.548","9.3","80.2","2.6489999999999996","0.0"],
    [1407803,"2026-04-15 05:30:00","45383","1.305","276.8","2.189","264.6","1018.548","9.43","79.19","13.9","0.0"],
    [1407804,"2026-04-15 05:40:00","45384","1.6059999999999999","281.5","2.548","300.4","1018.607","9.51","78.74","35.32","0.0"],
    [1407805,"2026-04-15 05:50:00","45385","1.386","278.1","2.613","289.6","1018.757","10.05","75.75","60.26","0.0"],
    [1407806,"2026-04-15 06:00:00","45386","1.91","283.8","3.005","291.7","1018.865","10.38","73.83","88.3","0.0"],
    [1407807,"2026-04-15 06:10:00","45387","2.082","290.0","3.234","303.5","1018.9630000000001","10.64","73.05","117.3","0.0"],
    [1407808,"2026-04-15 06:20:00","45388","2.761","285.5","3.724","293.4","1019.105","11.0","71.32","148.3","0.0"],
    [1407809,"2026-04-15 06:30:00","45389","2.12","293.1","4.475","301.9","1019.2239999999999","11.25","69.9","181.1","0.0"],
    [1407810,"2026-04-15 06:40:00","45390","3.033","289.5","4.933","302.6","1019.2139999999999","11.6","67.26","216.4","0.0"],
    [1407811,"2026-04-15 06:50:00","45391","3.1","290.3","4.704","286.1","1019.2639999999999","11.99","65.2","251.2","0.0"],
    [1407812,"2026-04-15 07:00:00","45392","3.2030000000000003","291.0","4.9","294.9","1019.297","12.46","63.12","285.9","0.0"],
    [1407813,"2026-04-15 07:10:00","45393","3.096","294.2","4.606","295.5","1019.39","12.76","62.77","320.5","0.0"],
    [1407814,"2026-04-15 07:20:00","45394","3.162","286.5","4.965","293.7","1019.549","12.79","62.64","354.8","0.0"],
    [1407815,"2026-04-15 07:30:00","45395","2.553","285.6","4.083","274.7","1019.712","13.14","61.11","387.1","0.0"],
    [1407816,"2026-04-15 07:40:00","45396","2.303","284.4","4.018","293.9","1019.841","13.7","59.07","420.5","0.0"],
    [1407817,"2026-04-15 07:50:00","45397","1.985","286.6","3.005","285.6","1019.92","13.99","57.45","428.6","0.0"],
    [1407818,"2026-04-15 08:00:00","45398","2.0140000000000002","308.2","3.038","310.1","1019.937","14.77","55.72","486.4","0.0"],
    [1407819,"2026-04-15 08:10:00","45399","0.757","326.2","1.699","332","1019.898","15.52","54.07","494.4","0.0"],
    [1407820,"2026-04-15 08:20:00","45400","0.5820000000000001","31.81","1.927","68.82","1019.934","16.36","51.43","550.4","0.0"],
    [1407821,"2026-04-15 08:30:00","45401","2.616","76.92","4.116","93.3","1019.98","16.26","51.57","582.3","0.0"],
    [1407822,"2026-04-15 08:40:00","45402","2.785","81.6","3.757","86.5","1020.039","15.71","54.45","609.1","0.0"],
    [1407823,"2026-04-15 08:50:00","45403","2.872","75.48","3.659","69.85","1020.077","15.88","53.47","639.3","0.0"],
    [1407824,"2026-04-15 09:00:00","45404","2.799","81.3","3.953","90","1020.1189999999999","15.94","52.2","663.0","0.0"],
    [1407825,"2026-04-15 09:10:00","45405","2.7430000000000003","87.8","3.691","84.8","1020.148","15.96","52.43","689.8","0.0"],
    [1407826,"2026-04-15 09:20:00","45406","3.063","86.4","4.018","90.1","1020.1619999999999","16.19","50.95","716.1","0.0"],
    [1407827,"2026-04-15 09:30:00","45407","3.4","80.3","5.096","88.9","1020.186","16.35","51.58","740.6","0.0"],
    [1407828,"2026-04-15 09:40:00","45408","3.533","77.66","4.475","74.07","1020.221","16.19","51.24","762.1","0.0"],
    [1407829,"2026-04-15 09:50:00","45409","3.2739999999999996","84.4","4.312","78.28","1020.278","16.36","51.96","779.9","0.0"],
    [1407830,"2026-04-15 10:00:00","45410","2.884","95.3","4.279","83.5","1020.283","16.19","54.46","799.6","0.0"],
    [1407831,"2026-04-15 10:10:00","45411","3.1180000000000003","96.4","4.312","106","1020.2139999999999","16.33","54.15","822.0","0.0"],
    [1407832,"2026-04-15 10:20:00","45412","2.8560000000000003","99.2","3.985","105.8","1020.227","16.31","53.02","840.0","0.0"],
    [1407833,"2026-04-15 10:30:00","45413","3.033","99.0","4.279","84.8","1020.169","16.47","51.0","855.0","0.0"],
    [1407834,"2026-04-15 10:40:00","45414","2.659","101.5","4.116","106.9","1020.15","16.45","51.0","868.0","0.0"],
    [1407835,"2026-04-15 10:50:00","45415","3.252","97.6","4.377","96.5","1020.077","16.49","47.59","882.0","0.0"],
    [1407836,"2026-04-15 11:00:00","45416","2.363","100.1","4.051","103.2","1020.06","16.55","50.25","887.0","0.0"],
    [1407837,"2026-04-15 11:10:00","45417","2.293","101.7","3.724","87.1","1020.03","16.97","50.67","894.0","0.0"],
    [1407838,"2026-04-15 11:20:00","45418","1.6119999999999999","104.6","2.973","87.7","1019.93","17.15","50.76","902.0","0.0"],
    [1407839,"2026-04-15 11:30:00","45419","1.3719999999999999","116.9","2.94","74.36","1019.8489999999999","17.36","50.09","905.0","0.0"],
    [1407840,"2026-04-15 11:40:00","45420","1.568","141.3","3.561","187.2","1019.805","17.38","47.53","911.0","0.0"],
    [1407841,"2026-04-15 11:50:00","45421","1.03","165.6","3.005","158.8","1019.665","18.22","47.45","908.0","0.0"],
    [1407842,"2026-04-15 12:00:00","45422","2.44","188.3","4.508","180.4","1019.6","18.06","46.35","910.0","0.0"],
    [1407843,"2026-04-15 12:10:00","45423","2.299","173.4","4.312","185.9","1019.569","17.53","42.22","912.0","0.0"],
    [1407844,"2026-04-15 12:20:00","45424","2.799","203.5","4.345","209.9","1019.495","18.05","40.56","908.0","0.0"],
    [1407845,"2026-04-15 12:30:00","45425","3.048","185.6","4.933","188.9","1019.475","18.12","43.87","899.0","0.0"],
    [1407846,"2026-04-15 12:40:00","45426","3.015","199.5","4.867","204","1019.5219999999999","18.24","45.34","891.0","0.0"],
    [1407847,"2026-04-15 12:50:00","45427","3.545","192.8","5.357","227.9","1019.544","18.05","57.56","885.0","0.0"],
    [1407848,"2026-04-15 13:00:00","45428","3.238","186.8","5.488","173.2","1019.562","17.46","62.23","870.0","0.0"],
    [1407849,"2026-04-15 13:10:00","45429","2.952","201.6","5.423","223.8","1019.573","17.7","60.81","861.0","0.0"],
    [1407850,"2026-04-15 13:20:00","45430","3.233","188.5","5.521","187.4","1019.4730000000001","17.47","63.3","849.0","0.0"],
    [1407851,"2026-04-15 13:30:00","45431","3.3289999999999997","190.6","6.043","181.2","1019.3910000000001","17.44","63.16","836.0","0.0"],
    [1407852,"2026-04-15 13:40:00","45432","3.375","182.9","5.39","182.1","1019.2489999999999","17.48","61.65","823.0","0.0"],
    [1407853,"2026-04-15 13:50:00","45433","3.4960000000000004","179.8","5.651","186.7","1019.204","17.42","63.15","807.0","0.0"],
    [1407854,"2026-04-15 14:00:00","45434","3.466","195.8","5.913","188","1019.1260000000001","17.55","62.75","788.5","0.0"],
    [1407855,"2026-04-15 14:10:00","45435","3.783","197.3","6.011","226.5","1019.013","17.4","62.79","769.6","0.0"],
    [1407856,"2026-04-15 14:20:00","45436","2.8960000000000004","204.8","5.521","203.8","1018.937","17.91","62.45","749.0","0.0"],
    [1407857,"2026-04-15 14:30:00","45437","3.347","207.9","5.031","219.3","1018.846","17.86","61.18","727.4","0.0"],
    [1407858,"2026-04-15 14:40:00","45438","3.177","188.9","4.769","184.9","1018.783","17.83","62.18","701.4","0.0"],
    [1407859,"2026-04-15 14:50:00","45439","3.355","189.0","5.259","180.9","1018.703","17.76","64.37","675.4","0.0"],
    [1407860,"2026-04-15 15:00:00","45440","2.7439999999999998","192.2","5.292","224.3","1018.6060000000001","18.05","63.32","647.0","0.0"],
    [1407861,"2026-04-15 15:10:00","45441","3.4739999999999998","205.6","5.488","176.4","1018.592","17.75","63.58","621.0","0.0"],
    [1407862,"2026-04-15 15:20:00","45442","2.414","186.6","4.671","184.6","1018.558","18.02","63.02","590.0","0.0"],
    [1407863,"2026-04-15 15:30:00","45443","2.695","196.8","4.345","220.9","1018.529","17.96","60.54","560.3","0.0"],
    [1407864,"2026-04-15 15:40:00","45444","2.699","191.2","4.541","234.4","1018.444","17.88","64.82","526.1","0.0"],
    [1407865,"2026-04-15 15:50:00","45445","2.49","178.1","4.116","181.9","1018.3910000000001","17.64","65.58","493.4","0.0"],
    [1407866,"2026-04-15 16:00:00","45446","2.428","188.3","3.822","178","1018.441","17.78","64.54","458.9","0.0"],
    [1407867,"2026-04-15 16:10:00","45447","2.302","193.0","4.051","225.8","1018.4010000000001","17.98","64.45","408.6","0.0"],
    [1407868,"2026-04-15 16:20:00","45448","2.6860000000000004","191.8","4.639","178","1018.3839999999999","17.79","66.05","384.8","0.0"],
    [1407869,"2026-04-15 16:30:00","45449","2.593","192.5","4.998","177.6","1018.4810000000001","17.91","65.09","335.4","0.0"],
    [1407870,"2026-04-15 16:40:00","45450","2.7489999999999997","199.5","4.541","217","1018.5139999999999","17.76","67.42","322.4","0.0"],
    [1407871,"2026-04-15 16:50:00","45451","3.036","210.6","4.9","188.2","1018.548","17.79","67.89","287.8","0.0"],
    [1407872,"2026-04-15 17:00:00","45452","2.34","195.2","5.194","161.4","1018.579","17.79","68.63","252.7","0.0"],
    [1407873,"2026-04-15 17:10:00","45453","3.3569999999999998","205.1","5.847","222.4","1018.602","17.58","71.86","217.5","0.0"],
    [1407874,"2026-04-15 17:20:00","45454","3.252","208.4","6.239","202.5","1018.663","17.43","72.13","183.8","0.0"],
    [1407875,"2026-04-15 17:30:00","45455","2.386","195.3","5.488","171.9","1018.6310000000001","17.25","74.42","150.6","0.0"],
    [1407876,"2026-04-15 17:40:00","45456","4.2330000000000005","213.9","6.729","232.7","1018.675","16.97","76.59","120.1","0.0"],
    [1407877,"2026-04-15 17:50:00","45457","2.543","202.6","6.043","201.9","1018.77","16.77","77.04","91.9","0.0"],
    [1407878,"2026-04-15 18:00:00","45458","2.314","204.9","5.227","217","1018.765","16.65","77.1","63.24","0.0"],
    [1407879,"2026-04-15 18:10:00","45459","2.4819999999999998","206.5","4.835","212.4","1018.783","16.41","78.65","20.56","0.0"],
    [1407880,"2026-04-15 18:20:00","45460","2.239","201.8","5.488","214.6","1018.841","16.24","79.61","12.39","0.0"],
    [1407881,"2026-04-15 18:30:00","45461","2.88","203.2","5.063","218.8","1018.965","16.06","80.8","5.546","0.0"],
    [1407882,"2026-04-15 18:40:00","45462","2.013","195.1","3.626","177.7","1019.1010000000001","15.97","81.9","0.841","0.0"],
    [1407883,"2026-04-15 18:50:00","45463","2.213","197.0","4.312","198.2","1019.202","15.79","83.1","-1.59","0.0"],
    [1407884,"2026-04-15 19:00:00","45464","1.954","192.9","3.561","173","1019.304","15.72","83.4","-2.6510000000000002","0.0"],
    [1407885,"2026-04-15 19:10:00","45465","1.618","196.8","3.169","200","1019.424","15.69","83.4","-2.702","0.0"],
    [1407886,"2026-04-15 19:20:00","45466","1.7169999999999999","195.4","4.083","209.3","1019.581","15.64","84.2","-2.705","0.0"],
    [1407887,"2026-04-15 19:30:00","45467","1.6480000000000001","192.4","3.365","171.7","1019.673","15.62","83.9","-2.713","0.0"],
    [1407888,"2026-04-15 19:40:00","45468","1.82","191.3","4.704","171.4","1019.795","15.61","83.6","-2.716","0.0"],
    [1407889,"2026-04-15 19:50:00","45469","1.6480000000000001","206.0","4.769","215.3","1019.893","15.57","82.7","-2.72","0.0"],
    [1407890,"2026-04-15 20:00:00","45470","2.1959999999999997","202.5","4.867","218.7","1019.94","15.59","81.0","-2.722","0.0"],
    [1407891,"2026-04-15 20:10:00","45471","1.712","191.1","4.181","178.4","1020.0160000000001","15.65","81.4","-2.722","0.0"],
    [1407892,"2026-04-15 20:20:00","45472","1.4569999999999999","200.4","2.842","222.1","1020.1260000000001","15.55","82.9","-2.7239999999999998","0.0"],
    [1407893,"2026-04-15 20:30:00","45473","2.079","208.0","4.671","224.7","1020.158","15.52","82.7","-2.742","0.0"],
    [1407894,"2026-04-15 20:40:00","45474","1.7930000000000001","201.6","6.533","189.9","1020.1610000000001","15.55","82.7","-2.73","0.0"],
    [1407895,"2026-04-15 20:50:00","45475","2.375","213.5","6.86","228.7","1020.203","15.55","82.2","-2.727","0.0"],
    [1407896,"2026-04-15 21:00:00","45476","2.948","211.6","5.357","226.5","1020.2139999999999","15.53","81.8","-2.707","0.0"],
    [1407897,"2026-04-15 21:10:00","45477","2.8310000000000004","213.8","5.227","224.2","1020.301","15.49","81.6","-2.725","0.0"],
    [1407898,"2026-04-15 21:20:00","45478","2.6","220.4","4.541","227.6","1020.472","15.41","82.0","-2.725","0.0"],
    [1407899,"2026-04-15 21:30:00","45479","2.262","229.1","3.953","227.6","1020.552","15.43","80.0","-2.722","0.0"],
    [1407900,"2026-04-15 21:40:00","45480","1.535","237.8","2.646","249.3","1020.602","15.37","80.2","-2.705","0.0"],
    [1407901,"2026-04-15 21:50:00","45481","1.148","247.0","2.352","215.9","1020.584","15.32","82.2","-2.728","0.0"],
    [1407902,"2026-04-15 22:00:00","45482","1.145","244.6","2.189","225.1","1020.6080000000001","15.1","78.95","-2.728","0.0"],
    [1407903,"2026-04-15 22:10:00","45483","1.514","269.8","2.548","266.5","1020.632","15.08","76.47","-2.727","0.0"],
    [1407904,"2026-04-15 22:20:00","45484","1.338","273.0","2.385","241.6","1020.632","15.02","77.11","-2.728","0.0"],
    [1407905,"2026-04-15 22:30:00","45485","1.4509999999999998","270.7","2.548","249.8","1020.6410000000001","14.82","77.49","-2.728","0.0"],
    [1407906,"2026-04-15 22:40:00","45486","1.405","258.7","2.417","269","1020.6080000000001","14.87","76.37","-2.727","0.0"],
    [1407907,"2026-04-15 22:50:00","45487","1.36","260.8","2.287","254.6","1020.6139999999999","15.08","75.54","-2.7260000000000004","0.0"],
    [1407908,"2026-04-15 23:00:00","45488","1.5959999999999999","278.8","2.94","273.1","1020.64","14.87","76.21","-2.7089999999999996","0.0"],
    [1407909,"2026-04-15 23:10:00","45489","1.3130000000000002","252.4","2.679","277.7","1020.666","14.6","77.22","-2.7239999999999998","0.0"],
    [1407910,"2026-04-15 23:20:00","45490","1.45","218.2","2.254","218.6","1020.627","14.64","76.64","-2.728","0.0"],
    [1407911,"2026-04-15 23:30:00","45491","1.83","224.7","2.679","223.3","1020.674","14.43","77.1","-2.714","0.0"],
    [1407912,"2026-04-15 23:40:00","45492","1.327","242.4","2.581","225.2","1020.7389999999999","14.19","77.45","-2.717","0.0"],
    [1407913,"2026-04-15 23:50:00","45493","1.4280000000000002","269.1","2.973","262.9","1020.795","14.11","77.33","-2.728","0.0"],
    [1407914,"2026-04-16 00:00:00","45494","1.547","259.1","3.365","271.9","1020.804","13.96","77.62","-2.72","0.0"],
    [1407915,"2026-04-16 00:10:00","45495","1.713","272.1","3.201","264.5","1020.86","13.85","77.52","-2.7","0.0"],
    [1407916,"2026-04-16 00:20:00","45496","1.589","266.9","3.169","274.4","1020.831","13.51","78.85","-2.667","0.0"],
    [1407917,"2026-04-16 00:30:00","45497","0.846","270.7","1.829","269.7","1020.79","13.27","79.51","-2.734","0.0"],
    [1407918,"2026-04-16 00:40:00","45498","1.24","268.1","2.091","258.9","1020.6569999999999","13.27","79.8","-2.741","0.0"],
    [1407919,"2026-04-16 00:50:00","45499","0.7659999999999999","278.8","1.209","272.3","1020.528","13.16","79.9","-2.752","0.0"],
    [1407920,"2026-04-16 01:00:00","45500","1.8090000000000002","269.6","2.711","271.7","1020.462","13.16","80.1","-2.753","0.0"],
    [1407921,"2026-04-16 01:10:00","45501","1.568","274.4","2.907","270.3","1020.5369999999999","13.13","79.92","-2.741","0.0"],
    [1407922,"2026-04-16 01:20:00","45502","1.492","261.1","2.744","265.5","1020.5160000000001","12.87","80.6","-2.661","0.0"],
    [1407923,"2026-04-16 01:30:00","45503","1.145","261.4","2.058","274.5","1020.3839999999999","12.76","80.4","-2.759","0.0"],
    [1407924,"2026-04-16 01:40:00","45504","1.2409999999999999","277.3","2.189","270.9","1020.318","12.67","80.6","-2.753","0.0"],
    [1407925,"2026-04-16 01:50:00","45505","0.767","286.5","1.601","285.2","1020.312","12.51","80.8","-2.7569999999999997","0.0"],
    [1407926,"2026-04-16 02:00:00","45506","0.61","293.2","1.568","304.9","1020.2689999999999","12.35","81.6","-2.7710000000000004","0.0"],
    [1407927,"2026-04-16 02:10:00","45507","0.22399999999999998","265.9","0.947","269.5","1020.207","12.44","81.1","-2.761","0.0"],
    [1407928,"2026-04-16 02:20:00","45508","1.626","280.0","2.319","277.8","1020.2539999999999","12.5","80.9","-2.764","0.0"],
    [1407929,"2026-04-16 02:30:00","45509","1.8119999999999998","280.2","2.711","274.2","1020.243","12.54","80.6","-2.582","0.0"],
    [1407930,"2026-04-16 02:40:00","45510","0.45399999999999996","284.7","1.143","284.7","1020.1310000000001","12.22","81.4","-2.688","0.0"],
    [1407931,"2026-04-16 02:50:00","45511","0.7509999999999999","274.5","1.535","276.1","1020.122","12.23","81.8","-2.764","0.0"],
    [1407932,"2026-04-16 03:00:00","45512","1.882","273.1","2.842","283.4","1020.1410000000001","12.54","80.7","-2.63","0.0"],
    [1407933,"2026-04-16 03:10:00","45513","1.511","272.8","2.548","276.5","1020.046","12.23","81.8","-2.556","0.0"],
    [1407934,"2026-04-16 03:20:00","45514","1.4169999999999998","271.8","2.319","275.5","1019.993","12.26","81.9","-2.755","0.0"],
    [1407935,"2026-04-16 03:30:00","45515","1.702","272.4","2.385","273","1020.0010000000001","12.24","81.9","-2.474","0.0"],
    [1407936,"2026-04-16 03:40:00","45516","2.126","273.4","3.299","272.9","1019.946","12.08","82.5","-2.301","0.0"],
    [1407937,"2026-04-16 03:50:00","45517","1.611","274.4","2.842","269.9","1019.935","11.93","83.1","-2.5869999999999997","0.0"],
    [1407938,"2026-04-16 04:00:00","45518","1.98","278.6","3.136","266.1","1019.94","12.04","82.8","-2.565","0.0"],
    [1407939,"2026-04-16 04:10:00","45519","2.4930000000000003","287.8","3.659","288.6","1019.95","12.05","82.9","-2.705","0.0"],
    [1407940,"2026-04-16 04:20:00","45520","2.517","290.9","4.279","293.3","1019.8939999999999","12.22","82.2","-2.595","0.0"],
    [1407941,"2026-04-16 04:30:00","45521","2.261","285.8","3.724","289.5","1019.939","12.22","82.1","-2.6060000000000003","0.0"],
    [1407942,"2026-04-16 04:40:00","45522","2.057","285.5","3.201","286.3","1019.9639999999999","12.21","82.1","-2.58","0.0"],
    [1407943,"2026-04-16 04:50:00","45523","1.8219999999999998","283.8","2.875","272.9","1019.9760000000001","12.21","81.9","-2.4619999999999997","0.0"],
    [1407944,"2026-04-16 05:00:00","45524","1.8719999999999999","278.3","3.332","290.6","1020.005","12.32","81.4","-1.962","0.0"],
    [1407945,"2026-04-16 05:10:00","45525","1.966","283.9","3.169","298.6","1020.097","12.3","81.2","-0.162","0.0"],
    [1407946,"2026-04-16 05:20:00","45526","1.722","285.5","2.875","283.9","1020.1339999999999","12.38","80.9","4.831","0.0"],
    [1407947,"2026-04-16 05:30:00","45527","1.8459999999999999","286.4","3.201","283.5","1020.1610000000001","12.38","80.9","17.38","0.0"],
    [1407948,"2026-04-16 05:40:00","45528","1.9869999999999999","287.5","2.973","286.1","1020.2360000000001","12.61","80.2","35.74","0.0"],
    [1407949,"2026-04-16 05:50:00","45529","2.1830000000000003","284.8","3.267","302.3","1020.2769999999999","12.8","79.09","45.44","0.0"],
    [1407950,"2026-04-16 06:00:00","45530","1.854","273.8","3.234","274.6","1020.3510000000001","12.75","78.88","29.75","0.0"],
    [1407951,"2026-04-16 06:10:00","45531","1.867","270.3","3.005","273.9","1020.4110000000001","12.68","79.15","34.76","0.0"],
    [1407952,"2026-04-16 06:20:00","45532","2.046","277.2","3.332","290","1020.48","12.71","79.42","105.4","0.0"],
    [1407953,"2026-04-16 06:30:00","45533","1.891","282.7","3.267","273.8","1020.6210000000001","13.29","78.09","185.9","0.0"],
    [1407954,"2026-04-16 06:40:00","45534","2.289","291.6","3.463","287.3","1020.618","13.85","75.82","146.2","0.0"],
    [1407955,"2026-04-16 06:50:00","45535","2.293","286.8","3.528","288.1","1020.648","13.84","75.41","121.6","0.0"],
    [1407956,"2026-04-16 07:00:00","45536","1.571","271.5","2.711","285.3","1020.6419999999999","13.95","75.07","140.2","0.0"],
    [1407957,"2026-04-16 07:10:00","45537","1.494","274.7","2.287","274.7","1020.6669999999999","14.02","75.09","182.3","0.0"],
    [1407958,"2026-04-16 07:20:00","45538","1.42","278.8","2.483","310.1","1020.758","14.52","73.9","320.8","0.0"],
    [1407959,"2026-04-16 07:30:00","45539","1.5630000000000002","299.3","2.548","333.3","1020.826","15.61","70.26","379.4","0.0"],
    [1407960,"2026-04-16 07:40:00","45540","1.045","309.1","1.96","308.5","1020.82","16.49","67.68","410.8","0.0"],
    [1407961,"2026-04-16 07:50:00","45541","1.406","312.7","2.123","312.9","1020.7810000000001","17.16","64.73","421.4","0.0"],
    [1407962,"2026-04-16 08:00:00","45542","0.38799999999999996","318.5","1.437","313.2","1020.7719999999999","17.96","61.93","472.1","0.0"],
    [1407963,"2026-04-16 08:10:00","45543","0.40399999999999997","298.7","1.405","353.3","1020.796","18.87","57.78","483.0","0.0"],
    [1407964,"2026-04-16 08:20:00","45544","0.983","294.2","1.96","297.9","1020.793","19.18","54.04","538.8","0.0"],
    [1407965,"2026-04-16 08:30:00","45545","0.9279999999999999","317.3","1.633","327.1","1020.832","19.45","51.43","568.8","0.0"],
    [1407966,"2026-04-16 08:40:00","45546","1.59","3.446","2.973","81.8","1020.865","19.65","54.15","606.1","0.0"],
    [1407967,"2026-04-16 08:50:00","45547","1.5919999999999999","89.2","2.417","68.93","1020.9060000000001","18.98","61.17","648.2","0.0"],
    [1407968,"2026-04-16 09:00:00","45548","0.701","128.8","1.895","143.7","1020.949","19.8","56.14","681.1","0.0"],
    [1407969,"2026-04-16 09:10:00","45549","1.633","101.4","2.809","103.2","1020.9810000000001","19.42","59.81","691.2","0.0"],
    [1407970,"2026-04-16 09:20:00","45550","1.419","103.4","3.267","92.1","1021.0880000000001","19.63","58.2","714.6","0.0"],
    [1407971,"2026-04-16 09:30:00","45551","1.614","109.9","3.005","102.6","1021.1560000000001","18.98","60.94","730.4","0.0"],
    [1407972,"2026-04-16 09:40:00","45552","1.153","114.0","2.711","109.5","1021.087","19.06","62.26","747.2","0.0"],
    [1407973,"2026-04-16 09:50:00","45553","1.119","123.8","2.875","114.2","1021.118","19.33","61.89","764.7","0.0"],
    [1407974,"2026-04-16 10:00:00","45554","1.075","115.1","2.515","124.3","1021.105","19.5","62.87","783.4","0.0"],
    [1407975,"2026-04-16 10:10:00","45555","1.3869999999999998","148.5","2.744","152.2","1021.0989999999999","19.67","58.23","805.0","0.0"],
    [1407976,"2026-04-16 10:20:00","45556","1.8219999999999998","178.9","4.965","198.1","1021.0980000000001","19.72","56.31","831.0","0.0"],
    [1407977,"2026-04-16 10:30:00","45557","2.2030000000000003","177.7","5.129","191.3","1021.1110000000001","19.44","54.87","869.0","0.0"],
    [1407978,"2026-04-16 10:40:00","45558","1.936","183.5","3.593","190.2","1021.1389999999999","19.57","56.0","880.0","0.0"],
    [1407979,"2026-04-16 10:50:00","45559","2.738","175.4","4.116","178.7","1021.085","18.87","59.37","873.0","0.0"],
    [1407980,"2026-04-16 11:00:00","45560","2.8110000000000004","178.6","4.737","166.7","1021.062","19.18","62.34","878.0","0.0"],
    [1407981,"2026-04-16 11:10:00","45561","2.681","183.5","4.639","168","1021.04","19.2","61.96","888.0","0.0"],
    [1407982,"2026-04-16 11:20:00","45562","3.2939999999999996","188.3","5.945","178.5","1020.9780000000001","18.98","62.01","897.0","0.0"],
    [1407983,"2026-04-16 11:30:00","45563","3.3280000000000003","191.8","6.141","207.3","1020.8810000000001","19.09","63.34","902.0","0.0"],
    [1407984,"2026-04-16 11:40:00","45564","3.6319999999999997","211.7","5.259","214","1020.807","19.39","59.91","905.0","0.0"],
    [1407985,"2026-04-16 11:50:00","45565","3.155","197.7","5.88","220.1","1020.735","19.55","60.24","907.0","0.0"],
    [1407986,"2026-04-16 12:00:00","45566","3.178","198.6","5.619","226.1","1020.6030000000001","19.82","55.99","908.0","0.0"],
    [1407987,"2026-04-16 12:10:00","45567","3.576","198.2","6.207","177.5","1020.513","20.15","57.05","907.0","0.0"],
    [1407988,"2026-04-16 12:20:00","45568","3.792","187.3","6.533","167.9","1020.4730000000001","19.51","59.29","907.0","0.0"],
    [1407989,"2026-04-16 12:30:00","45569","3.3280000000000003","190.0","6.468","176.5","1020.482","19.81","59.74","900.0","0.0"],
    [1407990,"2026-04-16 12:40:00","45570","4.128","199.1","7.611","176.2","1020.449","19.46","63.32","894.0","0.0"],
    [1407991,"2026-04-16 12:50:00","45571","3.708","207.0","6.272","213.2","1020.3939999999999","19.94","62.82","885.0","0.0"],
    [1407992,"2026-04-16 13:00:00","45572","3.576","204.8","6.076","217.8","1020.3539999999999","19.96","62.26","876.0","0.0"],
    [1407993,"2026-04-16 13:10:00","45573","3.801","208.1","6.664","223.2","1020.216","20.09","61.96","865.0","0.0"],
    [1407994,"2026-04-16 13:20:00","45574","5.269","216.5","7.611","209.2","1020.064","19.86","61.04","855.0","0.0"],
    [1407995,"2026-04-16 13:30:00","45575","5.672000000000001","220.3","7.807","222.4","1019.9119999999999","19.78","61.83","843.0","0.0"],
    [1407996,"2026-04-16 13:40:00","45576","5.593","220.8","8.26","209.4","1019.7560000000001","19.46","62.83","828.0","0.0"],
    [1407997,"2026-04-16 13:50:00","45577","5.284","213.5","7.481","222.2","1019.6360000000001","19.7","61.57","802.0","0.0"],
    [1407998,"2026-04-16 14:00:00","45578","5.28","216.1","7.579","219.9","1019.507","19.8","57.93","789.4","0.0"],
    [1407999,"2026-04-16 14:10:00","45579","4.915","212.1","8.36","226.4","1019.363","19.84","57.4","764.4","0.0"],
    [1408000,"2026-04-16 14:20:00","45580","5.189","216.9","8.53","220.2","1019.2869999999999","19.73","58.44","743.0","0.0"],
    [1408001,"2026-04-16 14:30:00","45581","4.342","212.1","6.893","223.3","1019.168","20.11","57.32","718.9","0.0"],
    [1408002,"2026-04-16 14:40:00","45582","4.397","214.9","7.35","226.3","1019.097","19.94","57.15","693.2","0.0"],
    [1408003,"2026-04-16 14:50:00","45583","4.43","208.0","7.383","216.6","1018.9960000000001","19.82","57.64","669.6","0.0"],
    [1408004,"2026-04-16 15:00:00","45584","4.855","213.8","7.219","202.3","1018.904","19.57","56.23","641.8","0.0"],
    [1408005,"2026-04-16 15:10:00","45585","3.2460000000000004","201.0","6.501","218.7","1018.825","19.64","62.88","614.4","0.0"],
    [1408006,"2026-04-16 15:20:00","45586","4.292","208.9","7.546","236.5","1018.7710000000001","19.58","61.72","584.1","0.0"],
    [1408007,"2026-04-16 15:30:00","45587","4.425","214.6","6.435","215.4","1018.659","20.01","56.12","554.1","0.0"],
    [1408008,"2026-04-16 15:40:00","45588","4.798","215.4","7.317","206.8","1018.5880000000001","20.3","52.69","520.5","0.0"],
    [1408009,"2026-04-16 15:50:00","45589","3.727","208.7","6.893","241.1","1018.565","20.49","53.07","489.2","0.0"],
    [1408010,"2026-04-16 16:00:00","45590","3.923","210.7","6.664","235.7","1018.51","20.11","58.27","458.6","0.0"],
    [1408011,"2026-04-16 16:10:00","45591","4.148","215.2","6.893","226.8","1018.461","20.01","58.9","403.4","0.0"],
    [1408012,"2026-04-16 16:20:00","45592","3.6689999999999996","210.9","5.88","228.3","1018.451","19.86","62.06","390.0","0.0"],
    [1408013,"2026-04-16 16:30:00","45593","3.7310000000000003","210.6","6.795","201.8","1018.433","19.26","68.96","336.7","0.0"],
    [1408014,"2026-04-16 16:40:00","45594","4.444","218.2","7.709","224.5","1018.422","19.39","61.9","324.5","0.0"],
    [1408015,"2026-04-16 16:50:00","45595","4.199","225.5","7.285","228.2","1018.449","20.02","52.65","288.9","0.0"],
    [1408016,"2026-04-16 17:00:00","45596","4.567","226.3","7.35","222.8","1018.38","20.21","46.5","254.9","0.0"],
    [1408017,"2026-04-16 17:10:00","45597","5.215","226.1","8.07","206.5","1018.327","19.9","47.93","219.6","0.0"],
    [1408018,"2026-04-16 17:20:00","45598","5.247000000000001","221.6","7.219","223.6","1018.318","19.75","50.18","185.5","0.0"],
    [1408019,"2026-04-16 17:30:00","45599","4.717","218.4","7.775","209.7","1018.278","19.37","54.76","156.2","0.0"],
    [1408020,"2026-04-16 17:40:00","45600","4.3069999999999995","219.0","6.86","213.9","1018.268","19.31","54.31","128.7","0.0"],
    [1408021,"2026-04-16 17:50:00","45601","3.8169999999999997","217.4","6.37","216.8","1018.3639999999999","18.8","58.86","99.1","0.0"],
    [1408022,"2026-04-16 18:00:00","45602","4.3919999999999995","215.3","7.317","217","1018.432","18.21","63.85","69.74","0.0"],
    [1408023,"2026-04-16 18:10:00","45603","2.3480000000000003","199.6","6.631","218.8","1018.581","17.61","69.66","24.89","0.0"],
    [1408024,"2026-04-16 18:20:00","45604","2.99","212.2","5.945","219.7","1018.628","17.22","72.91","14.46","0.0"],
    [1408025,"2026-04-16 18:30:00","45605","2.574","207.4","4.345","225.3","1018.702","17.06","73.51","6.185","0.0"],
    [1408026,"2026-04-16 18:40:00","45606","3.278","213.8","4.802","209.4","1018.732","16.85","74.53","0.312","0.0"],
    [1408027,"2026-04-16 18:50:00","45607","3.305","214.6","6.468","213.6","1018.79","16.91","71.13","-2.178","0.0"],
    [1408028,"2026-04-16 19:00:00","45608","3.286","219.8","5.488","231.2","1018.867","16.98","69.87","-2.695","0.0"],
    [1408029,"2026-04-16 19:10:00","45609","2.9760000000000004","224.3","4.769","224.6","1018.956","16.93","68.74","-2.708","0.0"],
    [1408030,"2026-04-16 19:20:00","45610","2.445","219.2","4.214","211.5","1019.045","17.21","63.55","-2.701","0.0"],
    [1408031,"2026-04-16 19:30:00","45611","1.874","202.8","3.887","235.2","1019.2610000000001","17.12","64.69","-2.705","0.0"],
    [1408032,"2026-04-16 19:40:00","45612","3.0039999999999996","222.6","4.312","215.4","1019.316","17.18","62.66","-2.8939999999999997","0.0"],
    [1408033,"2026-04-16 19:50:00","45613","2.417","216.8","3.887","222.9","1019.4010000000001","17.56","57.15","-2.759","0.0"],
    [1408034,"2026-04-16 20:00:00","45614","2.6189999999999998","210.2","5.161","204.8","1019.556","17.28","60.66","-2.708","0.0"],
    [1408035,"2026-04-16 20:10:00","45615","3.1860000000000004","215.6","4.508","214.9","1019.6339999999999","17.09","63.96","-2.698","0.0"],
    [1408036,"2026-04-16 20:20:00","45616","3.4","222.2","5.194","217.3","1019.653","17.07","64.61","-2.72","0.0"],
    [1408037,"2026-04-16 20:30:00","45617","3.036","220.1","4.737","218.3","1019.7080000000001","17.08","63.95","-2.694","0.0"],
    [1408038,"2026-04-16 20:40:00","45618","2.166","217.4","3.234","227.3","1019.7639999999999","17.0","63.79","-2.695","0.0"],
    [1408039,"2026-04-16 20:50:00","45619","1.577","214.4","2.548","220.5","1019.846","16.65","65.11","-2.892","0.0"],
    [1408040,"2026-04-16 21:00:00","45620","1.656","219.3","2.45","218.7","1019.895","16.76","63.68","-2.7319999999999998","0.0"],
    [1408041,"2026-04-16 21:10:00","45621","1.285","227.0","2.058","237.4","1019.909","16.75","62.48","-2.7239999999999998","0.0"],
    [1408042,"2026-04-16 21:20:00","45622","1.2770000000000001","194.1","2.091","186.5","1019.9010000000001","16.55","69.38","-2.792","0.0"],
    [1408043,"2026-04-16 21:30:00","45623","1.03","199.5","2.385","202.9","1019.909","16.3","74.16","-2.73","0.0"],
    [1408044,"2026-04-16 21:40:00","45624","1.2990000000000002","235.0","2.548","229.2","1019.937","16.08","76.9","-2.787","0.0"],
    [1408045,"2026-04-16 21:50:00","45625","1.084","226.1","1.666","203.3","1019.953","15.89","77.08","-2.73","0.0"],
    [1408046,"2026-04-16 22:00:00","45626","1.5859999999999999","214.3","2.515","218.3","1019.949","15.85","76.65","-2.818","0.0"],
    [1408047,"2026-04-16 22:10:00","45627","1.929","219.1","2.842","205.6","1019.956","15.92","76.83","-2.721","0.0"],
    [1408048,"2026-04-16 22:20:00","45628","1.719","225.8","2.679","223.7","1019.945","15.89","77.95","-2.721","0.0"],
    [1408049,"2026-04-16 22:30:00","45629","1.7830000000000001","227.1","2.744","221.5","1019.947","15.83","78.83","-2.7230000000000003","0.0"],
    [1408050,"2026-04-16 22:40:00","45630","1.949","227.1","2.94","229.4","1019.93","15.86","79.22","-2.722","0.0"],
    [1408051,"2026-04-16 22:50:00","45631","1.251","241.1","2.352","225","1019.916","15.78","79.47","-2.725","0.0"],
    [1408052,"2026-04-16 23:00:00","45632","1.375","231.0","2.385","243.1","1019.87","15.58","80.3","-2.73","0.0"],
    [1408053,"2026-04-16 23:10:00","45633","1.329","231.1","2.319","247","1019.818","15.51","81.1","-2.727","0.0"],
    [1408054,"2026-04-16 23:20:00","45634","1.23","231.0","2.091","227.6","1019.801","15.41","82.4","-2.7289999999999996","0.0"],
    [1408055,"2026-04-16 23:30:00","45635","1.208","234.7","2.156","243.7","1019.706","15.25","83.7","-2.728","0.0"],
    [1408056,"2026-04-16 23:40:00","45636","1.4069999999999998","231.7","2.287","235.6","1019.688","15.25","84.6","-2.733","0.0"],
    [1408057,"2026-04-16 23:50:00","45637","1.2819999999999998","237.7","2.189","246.8","1019.6569999999999","15.23","85.6","-2.728","0.0"],
    [1408058,"2026-04-17 00:00:00","45638","1.4140000000000001","233.8","2.091","221.8","1019.725","15.22","86.3","-2.728","0.0"],
    [1408059,"2026-04-17 00:10:00","45639","1.105","232.1","1.699","243.1","1019.7410000000001","15.1","86.8","-2.728","0.0"],
    [1408060,"2026-04-17 00:20:00","45640","1.3219999999999998","228.0","2.025","223.2","1019.689","15.08","87.1","-2.733","0.0"],
    [1408061,"2026-04-17 00:30:00","45641","1.012","237.1","1.993","229.4","1019.628","14.9","86.8","-2.7289999999999996","0.0"],
    [1408062,"2026-04-17 00:40:00","45642","0.914","243.3","1.535","224","1019.541","14.56","85.3","-2.7289999999999996","0.0"],
    [1408063,"2026-04-17 00:50:00","45643","0.9520000000000001","233.6","1.927","236.4","1019.459","14.22","80.4","-2.74","0.0"],
    [1408064,"2026-04-17 01:00:00","45644","0.882","236.5","1.437","239.4","1019.375","14.27","71.71","-2.728","0.0"],
    [1408065,"2026-04-17 01:10:00","45645","1.137","227.4","1.731","220.8","1019.313","13.78","67.77","-2.728","0.0"],
    [1408066,"2026-04-17 01:20:00","45646","1.301","226.0","1.927","232.7","1019.2869999999999","13.46","66.05","-2.728","0.0"],
    [1408067,"2026-04-17 01:30:00","45647","1.626","234.5","2.613","228.2","1019.2669999999999","13.49","64.71","-2.7030000000000003","0.0"],
    [1408068,"2026-04-17 01:40:00","45648","1.176","237.5","1.895","237.4","1019.255","13.4","64.59","-2.696","0.0"],
    [1408069,"2026-04-17 01:50:00","45649","1.347","233.8","1.797","229.6","1019.193","13.3","65.06","-2.7310000000000003","0.0"],
    [1408070,"2026-04-17 02:00:00","45650","1.3259999999999998","232.0","1.797","230.1","1019.1410000000001","13.26","65.41","-2.718","0.0"],
    [1408071,"2026-04-17 02:10:00","45651","0.98","249.9","1.633","240","1019.1189999999999","13.15","65.48","-2.7260000000000004","0.0"],
    [1408072,"2026-04-17 02:20:00","45652","1.21","262.6","2.254","276.3","1019.063","13.24","65.66","-2.7460000000000004","0.0"],
    [1408073,"2026-04-17 02:30:00","45653","1.203","274.1","1.895","275.3","1019.041","13.08","66.33","-2.735","0.0"],
    [1408074,"2026-04-17 02:40:00","45654","1.026","276.3","1.372","276.9","1019.0210000000001","12.85","67.62","-2.75","0.0"],
    [1408075,"2026-04-17 02:50:00","45655","0.77","266.0","1.437","274","1018.959","12.87","67.64","-2.7560000000000002","0.0"],
    [1408076,"2026-04-17 03:00:00","45656","0.495","262.8","1.111","269.4","1018.932","12.98","66.5","-2.753","0.0"],
    [1408077,"2026-04-17 03:10:00","45657","0.96","250.6","1.862","245.6","1018.893","13.02","66.27","-2.76","0.0"],
    [1408078,"2026-04-17 03:20:00","45658","0.5529999999999999","228.2","1.209","235.8","1018.88","13.12","65.83","-2.747","0.0"],
    [1408079,"2026-04-17 03:30:00","45659","1.099","230.8","1.764","237.1","1018.8589999999999","12.95","67.46","-2.7569999999999997","0.0"],
    [1408080,"2026-04-17 03:40:00","45660","1.052","249.1","2.025","254","1018.8969999999999","12.8","67.96","-2.75","0.0"],
    [1408081,"2026-04-17 03:50:00","45661","1.025","262.3","2.058","260.7","1018.9","12.82","67.66","-2.76","0.0"],
    [1408082,"2026-04-17 04:00:00","45662","1.4569999999999999","271.5","2.548","272.8","1018.908","12.82","67.44","-2.76","0.0"],
    [1408083,"2026-04-17 04:10:00","45663","1.358","271.5","2.809","278.9","1018.982","12.42","69.53","-2.7489999999999997","0.0"],
    [1408084,"2026-04-17 04:20:00","45664","1.9669999999999999","273.8","3.234","292.5","1018.985","12.53","69.07","-2.759","0.0"],
    [1408085,"2026-04-17 04:30:00","45665","1.993","285.0","3.201","281","1018.918","12.67","68.63","-2.7539999999999996","0.0"],
    [1408086,"2026-04-17 04:40:00","45666","1.601","273.7","2.711","279.2","1018.937","12.87","68.14","-2.758","0.0"],
    [1408087,"2026-04-17 04:50:00","45667","1.854","274.7","2.94","276.9","1018.9830000000001","12.84","68.12","-2.653","0.0"],
    [1408088,"2026-04-17 05:00:00","45668","1.568","262.6","2.809","272.9","1018.9910000000001","12.88","68.03","-1.082","0.0"],
    [1408089,"2026-04-17 05:10:00","45669","1.734","273.2","3.365","260.7","1019.0169999999999","12.83","68.15","1.811","0.0"],
    [1408090,"2026-04-17 05:20:00","45670","1.3769999999999998","252.8","2.679","266","1019.034","12.73","69.03","5.957000000000001","0.0"],
    [1408091,"2026-04-17 05:30:00","45671","1.46","260.1","2.809","273.1","1019.086","12.8","68.7","11.49","0.0"],
    [1408092,"2026-04-17 05:40:00","45672","1.46","268.4","2.515","271.5","1019.118","12.77","68.63","18.47","0.0"],
    [1408093,"2026-04-17 05:50:00","45673","1.8459999999999999","264.9","3.397","249.7","1019.191","12.78","68.91","54.41","0.0"],
    [1408094,"2026-04-17 06:00:00","45674","1.8430000000000002","274.1","3.365","272.2","1019.242","13.0","68.01","82.1","0.0"],
    [1408095,"2026-04-17 06:10:00","45675","1.865","270.6","3.071","262.7","1019.2710000000001","13.18","67.63","115.3","0.0"],
    [1408096,"2026-04-17 06:20:00","45676","2.009","268.7","3.463","283.1","1019.299","13.73","65.68","147.2","0.0"],
    [1408097,"2026-04-17 06:30:00","45677","2.394","269.3","4.345","287.7","1019.31","13.99","65.05","180.6","0.0"],
    [1408098,"2026-04-17 06:40:00","45678","1.886","258.9","4.149","265.1","1019.2819999999999","14.52","63.46","213.1","0.0"],
    [1408099,"2026-04-17 06:50:00","45679","1.7369999999999999","245.0","3.201","278.7","1019.298","15.0","61.53","247.2","0.0"],
    [1408100,"2026-04-17 07:00:00","45680","1.8769999999999998","234.7","3.299","239.7","1019.293","15.35","60.71","282.1","0.0"],
    [1408101,"2026-04-17 07:10:00","45681","1.78","245.6","3.136","219.6","1019.273","15.67","59.35","316.8","0.0"],
    [1408102,"2026-04-17 07:20:00","45682","1.588","270.1","3.397","296.2","1019.314","16.19","57.92","351.9","0.0"],
    [1408103,"2026-04-17 07:30:00","45683","1.6269999999999998","258.6","3.724","289.2","1019.3760000000001","16.83","57.44","384.0","0.0"],
    [1408104,"2026-04-17 07:40:00","45684","1.4469999999999998","244.6","2.973","258.8","1019.3810000000001","17.06","59.06","418.9","0.0"],
    [1408105,"2026-04-17 07:50:00","45685","1.642","236.9","3.267","265.9","1019.431","17.41","60.39","438.6","0.0"],
    [1408106,"2026-04-17 08:00:00","45686","2.037","240.3","3.561","222.2","1019.438","17.58","62.3","464.3","0.0"],
    [1408107,"2026-04-17 08:10:00","45687","2.204","226.7","3.855","227.7","1019.416","17.76","63.38","489.1","0.0"],
    [1408108,"2026-04-17 08:20:00","45688","2.299","224.2","4.051","233.7","1019.446","17.99","63.6","547.0","0.0"],
    [1408109,"2026-04-17 08:30:00","45689","1.933","221.9","3.855","210.9","1019.497","18.66","62.99","577.5","0.0"],
    [1408110,"2026-04-17 08:40:00","45690","1.63","236.4","3.103","224.7","1019.518","19.32","62.28","609.6","0.0"],
    [1408111,"2026-04-17 08:50:00","45691","1.469","223.4","2.973","216.1","1019.538","19.64","61.63","628.3","0.0"],
    [1408112,"2026-04-17 09:00:00","45692","2.345","209.3","3.691","218.6","1019.5880000000001","19.72","60.61","646.9","0.0"],
    [1408113,"2026-04-17 09:10:00","45693","2.7689999999999997","210.1","4.345","214.6","1019.605","19.42","59.76","627.8","0.0"],
    [1408114,"2026-04-17 09:20:00","45694","2.2430000000000003","205.5","4.018","174","1019.617","20.0","57.86","683.4","0.0"],
    [1408115,"2026-04-17 09:30:00","45695","2.603","207.3","5.357","206.9","1019.678","19.91","64.14","736.6","0.0"],
    [1408116,"2026-04-17 09:40:00","45696","2.614","192.9","4.279","180.2","1019.72","19.79","65.47","760.4","0.0"],
    [1408117,"2026-04-17 09:50:00","45697","2.803","184.5","5.325","190.1","1019.7360000000001","19.58","64.14","780.9","0.0"],
    [1408118,"2026-04-17 10:00:00","45698","2.842","195.1","5.292","172.2","1019.7510000000001","19.32","65.47","800.0","0.0"],
    [1408119,"2026-04-17 10:10:00","45699","2.718","202.1","5.031","179.8","1019.72","19.36","64.66","819.0","0.0"],
    [1408120,"2026-04-17 10:20:00","45700","2.383","197.7","3.887","208.6","1019.702","19.61","63.05","833.0","0.0"],
    [1408121,"2026-04-17 10:30:00","45701","2.39","186.2","4.149","174.9","1019.73","19.98","60.48","847.0","0.0"],
    [1408122,"2026-04-17 10:40:00","45702","2.1319999999999997","184.6","3.593","179.4","1019.7139999999999","20.4","58.64","861.0","0.0"],
    [1408123,"2026-04-17 10:50:00","45703","2.417","185.4","3.92","169.7","1019.691","20.02","59.22","872.0","0.0"],
    [1408124,"2026-04-17 11:00:00","45704","3.284","208.6","5.586","215.9","1019.6439999999999","20.14","55.54","884.0","0.0"],
    [1408125,"2026-04-17 11:10:00","45705","3.6639999999999997","216.1","5.488","236.4","1019.61","19.71","56.28","895.0","0.0"],
    [1408126,"2026-04-17 11:20:00","45706","2.6639999999999997","199.6","5.88","200.9","1019.571","20.07","59.81","899.0","0.0"],
    [1408127,"2026-04-17 11:30:00","45707","3.303","200.5","9.44","221.5","1019.485","20.05","55.39","904.0","0.0"],
    [1408128,"2026-04-17 11:40:00","45708","2.716","186.2","5.194","211","1019.425","20.38","55.65","909.0","0.0"],
    [1408129,"2026-04-17 11:50:00","45709","3.088","205.8","5.325","216.4","1019.365","20.56","50.43","910.0","0.0"],
    [1408130,"2026-04-17 12:00:00","45710","4.213","216.5","5.553","192.8","1019.27","20.1","49.71","915.0","0.0"],
    [1408131,"2026-04-17 12:10:00","45711","2.775","197.0","4.802","216.7","1019.1610000000001","20.38","57.25","914.0","0.0"],
    [1408132,"2026-04-17 12:20:00","45712","2.451","197.6","4.671","236.9","1019.1160000000001","20.71","53.36","912.0","0.0"],
    [1408133,"2026-04-17 12:30:00","45713","2.967","196.8","4.41","225.4","1019.082","20.89","51.49","907.0","0.0"],
    [1408134,"2026-04-17 12:40:00","45714","2.395","196.8","4.018","218.7","1019.062","21.26","48.63","901.0","0.0"],
    [1408135,"2026-04-17 12:50:00","45715","2.6189999999999998","173.3","4.083","160.7","1019.008","20.74","46.67","894.0","0.0"],
    [1408136,"2026-04-17 13:00:00","45716","2.782","168.3","4.149","160.5","1018.933","20.36","44.78","886.0","0.0"],
    [1408137,"2026-04-17 13:10:00","45717","2.457","169.3","4.083","165.1","1018.922","20.49","43.3","876.0","0.0"],
    [1408138,"2026-04-17 13:20:00","45718","2.767","170.8","4.083","161.6","1018.904","20.23","52.52","869.0","0.0"],
    [1408139,"2026-04-17 13:30:00","45719","2.38","180.7","3.953","184.7","1018.822","20.29","54.73","818.0","0.0"],
    [1408140,"2026-04-17 13:40:00","45720","2.698","179.8","4.149","173.6","1018.7610000000001","19.9","57.38","821.0","0.0"],
    [1408141,"2026-04-17 13:50:00","45721","2.1390000000000002","184.8","4.9","185.7","1018.7360000000001","20.03","56.86","798.5","0.0"],
    [1408142,"2026-04-17 14:00:00","45722","2.58","184.5","4.508","218.5","1018.6469999999999","19.89","55.52","799.9","0.0"],
    [1408143,"2026-04-17 14:10:00","45723","2.576","182.5","4.345","186.9","1018.529","20.27","52.77","772.8","0.0"],
    [1408144,"2026-04-17 14:20:00","45724","2.432","180.8","4.247","184.3","1018.46","20.21","56.11","755.6","0.0"],
    [1408145,"2026-04-17 14:30:00","45725","2.8110000000000004","172.4","4.377","169.3","1018.4010000000001","19.45","60.9","733.1","0.0"],
    [1408146,"2026-04-17 14:40:00","45726","2.6710000000000003","175.7","4.704","181.3","1018.2560000000001","19.63","57.51","707.0","0.0"],
    [1408147,"2026-04-17 14:50:00","45727","2.516","199.1","5.063","209.1","1018.179","20.29","54.52","674.3","0.0"],
    [1408148,"2026-04-17 15:00:00","45728","3.617","214.9","5.161","214.8","1018.16","20.07","52.98","648.9","0.0"],
    [1408149,"2026-04-17 15:10:00","45729","3.6439999999999997","214.8","5.063","221.2","1018.118","19.94","53.37","626.9","0.0"],
    [1408150,"2026-04-17 15:20:00","45730","2.991","198.6","5.227","174.3","1018.0889999999999","19.97","55.06","593.0","0.0"],
    [1408151,"2026-04-17 15:30:00","45731","2.927","193.7","5.227","183","1018.118","19.63","60.6","529.8","0.0"],
    [1408152,"2026-04-17 15:40:00","45732","2.892","194.1","5.031","199.5","1018.132","19.6","63.28","527.5","0.0"],
    [1408153,"2026-04-17 15:50:00","45733","2.7889999999999997","188.3","5.161","162.5","1018.191","19.31","67.53","490.2","0.0"],
    [1408154,"2026-04-17 16:00:00","45734","3.275","207.5","5.619","214.2","1018.1569999999999","19.17","67.33","452.8","0.0"],
    [1408155,"2026-04-17 16:10:00","45735","3.2230000000000003","196.5","5.815","165.6","1018.2230000000001","18.81","70.23","374.0","0.0"],
    [1408156,"2026-04-17 16:20:00","45736","3.182","182.6","4.671","183.1","1018.314","18.55","71.93","401.3","0.0"],
    [1408157,"2026-04-17 16:30:00","45737","3.162","197.8","5.521","205.7","1018.3430000000001","18.6","70.89","339.0","0.0"],
    [1408158,"2026-04-17 16:40:00","45738","2.938","198.3","5.292","238.2","1018.312","18.5","68.86","324.1","0.0"],
    [1408159,"2026-04-17 16:50:00","45739","2.9410000000000003","191.7","5.063","183.7","1018.322","18.68","68.76","284.0","0.0"],
    [1408160,"2026-04-17 17:00:00","45740","2.6639999999999997","202.5","4.835","205","1018.303","18.58","71.58","252.2","0.0"],
    [1408161,"2026-04-17 17:10:00","45741","3.097","217.6","4.933","219.7","1018.326","18.59","73.28","217.3","0.0"],
    [1408162,"2026-04-17 17:20:00","45742","2.6489999999999996","203.3","4.704","224.6","1018.3610000000001","18.41","74.28","183.8","0.0"],
    [1408163,"2026-04-17 17:30:00","45743","2.773","208.1","5.521","213.4","1018.3660000000001","18.17","74.88","153.5","0.0"],
    [1408164,"2026-04-17 17:40:00","45744","2.957","207.4","5.227","184.9","1018.35","18.02","75.31","115.4","0.0"],
    [1408165,"2026-04-17 17:50:00","45745","2.26","199.6","4.377","226.9","1018.404","17.77","76.31","69.8","0.0"],
    [1408166,"2026-04-17 18:00:00","45746","3.4789999999999996","215.7","4.9","182.2","1018.436","17.49","76.55","31.03","0.0"],
    [1408167,"2026-04-17 18:10:00","45747","3.3110000000000004","215.5","5.684","208.7","1018.459","17.38","75.3","17.21","0.0"],
    [1408168,"2026-04-17 18:20:00","45748","3.157","216.4","4.802","211.9","1018.581","17.25","76.46","10.35","0.0"],
    [1408169,"2026-04-17 18:30:00","45749","3.1039999999999996","217.0","4.639","210.7","1018.669","17.16","77.02","5.21","0.0"],
    [1408170,"2026-04-17 18:40:00","45750","3.014","215.9","4.573","224","1018.77","17.09","77.84","0.648","0.0"],
    [1408171,"2026-04-17 18:50:00","45751","3.054","219.4","4.769","210.1","1018.827","17.01","78.83","-1.665","0.0"],
    [1408172,"2026-04-17 19:00:00","45752","2.862","220.3","4.083","217","1018.88","16.93","79.71","-2.58","0.0"],
    [1408173,"2026-04-17 19:10:00","45753","2.739","217.6","4.051","226.5","1018.96","16.87","80.4","-2.694","0.0"],
    [1408174,"2026-04-17 19:20:00","45754","2.7680000000000002","212.9","4.671","219.3","1018.9989999999999","16.75","81.9","-2.6830000000000003","0.0"],
    [1408175,"2026-04-17 19:30:00","45755","2.904","218.0","5.129","207.1","1019.0089999999999","16.7","82.4","-2.6919999999999997","0.0"],
    [1408176,"2026-04-17 19:40:00","45756","2.609","216.9","4.214","226","1019.076","16.6","83.5","-2.688","0.0"],
    [1408177,"2026-04-17 19:50:00","45757","2.694","214.0","5.161","193.4","1019.1289999999999","16.59","83.8","-2.693","0.0"],
    [1408178,"2026-04-17 20:00:00","45758","2.555","217.0","4.214","204.4","1019.17","16.59","84.5","-2.693","0.0"],
    [1408179,"2026-04-17 20:10:00","45759","2.62","218.6","3.757","204","1019.2439999999999","16.56","85.0","-2.693","0.0"],
    [1408180,"2026-04-17 20:20:00","45760","2.8810000000000002","218.3","4.312","220.3","1019.326","16.55","85.0","-2.696","0.0"],
    [1408181,"2026-04-17 20:30:00","45761","2.068","217.0","3.169","220","1019.429","16.46","85.4","-2.6919999999999997","0.0"],
    [1408182,"2026-04-17 20:40:00","45762","2.6510000000000002","219.0","3.887","215.2","1019.4739999999999","16.47","85.2","-2.7","0.0"],
    [1408183,"2026-04-17 20:50:00","45763","2.677","216.7","4.214","213.8","1019.498","16.54","84.6","-2.696","0.0"],
    [1408184,"2026-04-17 21:00:00","45764","2.191","220.8","3.626","203.4","1019.497","16.55","84.2","-2.696","0.0"],
    [1408185,"2026-04-17 21:10:00","45765","1.876","226.7","3.463","217.4","1019.4789999999999","16.47","84.9","-2.7030000000000003","0.0"],
    [1408186,"2026-04-17 21:20:00","45766","1.589","218.7","2.581","216.6","1019.4830000000001","16.34","86.0","-2.7039999999999997","0.0"],
    [1408187,"2026-04-17 21:30:00","45767","1.775","217.0","2.711","222.4","1019.5089999999999","16.26","86.8","-2.702","0.0"],
    [1408188,"2026-04-17 21:40:00","45768","1.76","218.0","2.581","212.7","1019.4860000000001","16.19","87.5","-2.7060000000000004","0.0"],
    [1408189,"2026-04-17 21:50:00","45769","1.713","221.5","2.581","235","1019.475","16.14","87.8","-2.7060000000000004","0.0"],
    [1408190,"2026-04-17 22:00:00","45770","1.841","228.4","2.842","221.9","1019.5010000000001","16.12","87.9","-2.708","0.0"],
    [1408191,"2026-04-17 22:10:00","45771","1.8519999999999999","232.1","3.201","212.6","1019.454","16.08","88.0","-2.7060000000000004","0.0"],
    [1408192,"2026-04-17 22:20:00","45772","1.511","227.6","2.907","234.8","1019.419","16.0","88.2","-2.707","0.0"],
    [1408193,"2026-04-17 22:30:00","45773","1.4080000000000001","231.0","2.221","222.4","1019.429","15.84","88.6","-2.713","0.0"],
    [1408194,"2026-04-17 22:40:00","45774","1.217","232.3","2.123","242.6","1019.41","15.8","88.5","-2.715","0.0"],
    [1408195,"2026-04-17 22:50:00","45775","1.347","237.7","2.221","223","1019.345","15.7","88.4","-2.713","0.0"],
    [1408196,"2026-04-17 23:00:00","45776","1.5490000000000002","232.2","2.646","239.1","1019.325","15.62","88.0","-2.717","0.0"],
    [1408197,"2026-04-17 23:10:00","45777","1.546","230.7","2.94","238.9","1019.37","15.54","87.2","-2.717","0.0"],
    [1408198,"2026-04-17 23:20:00","45778","1.296","231.9","2.875","250.1","1019.365","15.49","85.9","-2.721","0.0"],
    [1408199,"2026-04-17 23:30:00","45779","1.2","231.0","2.417","223.3","1019.318","15.45","85.1","-2.725","0.0"],
    [1408200,"2026-04-17 23:40:00","45780","1.632","228.5","2.679","253.8","1019.279","15.46","84.5","-2.7239999999999998","0.0"],
    [1408201,"2026-04-17 23:50:00","45781","1.875","231.4","3.071","228.1","1019.203","15.66","85.1","-2.725","0.0"],
    [1408202,"2026-04-18 00:00:00","45782","1.6380000000000001","229.4","2.646","222.5","1019.1030000000001","15.65","85.8","-2.725","0.0"],
    [1408203,"2026-04-18 00:10:00","45783","1.213","233.1","2.254","256","1019.086","15.43","85.9","-2.727","0.0"],
    [1408204,"2026-04-18 00:20:00","45784","0.9309999999999999","242.8","1.405","239.8","1018.9839999999999","15.25","85.3","-2.725","0.0"],
    [1408205,"2026-04-18 00:30:00","45785","1.295","240.3","2.777","246","1018.872","14.97","83.2","-2.727","0.0"],
    [1408206,"2026-04-18 00:40:00","45786","1.339","231.7","2.515","233.4","1018.804","14.99","78.53","-2.7260000000000004","0.0"],
    [1408207,"2026-04-18 00:50:00","45787","1.385","248.6","2.809","277.9","1018.7289999999999","14.77","76.5","-2.7260000000000004","0.0"],
    [1408208,"2026-04-18 01:00:00","45788","1.444","260.5","2.875","288.9","1018.587","14.64","76.42","-2.722","0.0"],
    [1408209,"2026-04-18 01:10:00","45789","1.295","244.1","2.646","263.1","1018.467","14.43","76.94","-2.718","0.0"],
    [1408210,"2026-04-18 01:20:00","45790","1.261","253.9","2.189","277","1018.3969999999999","14.36","77.12","-2.727","0.0"],
    [1408211,"2026-04-18 01:30:00","45791","1.063","246.3","2.058","245.2","1018.262","14.39","76.87","-2.721","0.0"],
    [1408212,"2026-04-18 01:40:00","45792","0.815","253.9","1.797","257.4","1018.2339999999999","14.44","76.68","-2.725","0.0"],
    [1408213,"2026-04-18 01:50:00","45793","1.137","266.5","2.352","278.9","1018.209","14.17","78.18","-2.728","0.0"],
    [1408214,"2026-04-18 02:00:00","45794","1.179","270.5","2.189","301.3","1018.178","14.2","78.49","-2.707","0.0"],
    [1408215,"2026-04-18 02:10:00","45795","1.2229999999999999","271.9","2.613","281.7","1018.172","14.11","78.7","-2.728","0.0"],
    [1408216,"2026-04-18 02:20:00","45796","1.61","266.7","2.907","259.9","1018.168","14.11","78.37","-2.717","0.0"],
    [1408217,"2026-04-18 02:30:00","45797","1.253","256.6","2.221","244.6","1018.1560000000001","14.16","77.74","-2.7230000000000003","0.0"],
    [1408218,"2026-04-18 02:40:00","45798","1.6130000000000002","271.1","2.744","266.8","1018.0980000000001","14.19","76.92","-2.7119999999999997","0.0"],
    [1408219,"2026-04-18 02:50:00","45799","0.83","286.5","1.764","283","1018.071","13.94","77.32","-2.7039999999999997","0.0"],
    [1408220,"2026-04-18 03:00:00","45800","0.938","289.7","2.091","301.4","1018.018","13.65","78.1","-2.7319999999999998","0.0"],
    [1408221,"2026-04-18 03:10:00","45801","0.935","279.8","2.025","279.1","1018.0039999999999","13.76","77.12","-2.7310000000000003","0.0"],
    [1408222,"2026-04-18 03:20:00","45802","0.428","283.2","1.307","285.7","1017.946","13.94","75.08","-2.595","0.0"],
    [1408223,"2026-04-18 03:30:00","45803","0.541","289.8","1.307","280.3","1017.905","13.86","74.85","-2.738","0.0"],
    [1408224,"2026-04-18 03:40:00","45804","0.016","287.3","0.621","287.3","1017.8330000000001","13.64","75.43","-2.734","0.0"],
    [1408225,"2026-04-18 03:50:00","45805","0.095","267.3","1.176","267.7","1017.84","13.41","76.18","-2.748","0.0"],
    [1408226,"2026-04-18 04:00:00","45806","0.7290000000000001","269.6","1.274","272.6","1017.8610000000001","13.65","74.68","-2.715","0.0"],
    [1408227,"2026-04-18 04:10:00","45807","0.57","275.1","1.274","258.7","1017.8530000000001","13.83","73.31","-2.708","0.0"],
    [1408228,"2026-04-18 04:20:00","45808","1.198","279.3","1.699","264","1017.827","13.78","73.42","-2.73","0.0"],
    [1408229,"2026-04-18 04:30:00","45809","1.0959999999999999","279.8","2.058","287.4","1017.862","13.77","73.38","-2.735","0.0"],
    [1408230,"2026-04-18 04:40:00","45810","0.93","277.9","1.699","272.8","1017.8839999999999","13.92","72.39","-2.745","0.0"],
    [1408231,"2026-04-18 04:50:00","45811","0.7859999999999999","273.4","1.339","290.7","1017.951","14.04","71.56","-2.544","0.0"],
    [1408232,"2026-04-18 05:00:00","45812","0.557","263.6","1.405","254.6","1018.0889999999999","13.9","71.81","-0.583","0.0"],
    [1408233,"2026-04-18 05:10:00","45813","1.329","274.2","2.156","270.3","1018.17","14.06","71.39","3.1719999999999997","0.0"],
    [1408234,"2026-04-18 05:20:00","45814","1.4380000000000002","278.0","2.581","280","1018.2660000000001","14.29","69.97","12.91","0.0"],
    [1408235,"2026-04-18 05:30:00","45815","1.273","274.6","2.156","256.3","1018.3330000000001","14.37","69.56","29.82","0.0"],
    [1408236,"2026-04-18 05:40:00","45816","1.139","278.3","2.189","274.6","1018.38","14.44","69.4","53.53","0.0"],
    [1408237,"2026-04-18 05:50:00","45817","1.34","277.7","2.091","275.2","1018.4580000000001","14.75","68.5","82.4","0.0"],
    [1408238,"2026-04-18 06:00:00","45818","1.4680000000000002","263.7","2.679","250.3","1018.5","14.93","68.15","96.6","0.0"],
    [1408239,"2026-04-18 06:10:00","45819","1.58","263.6","3.071","277.3","1018.5189999999999","15.09","67.76","129.8","0.0"],
    [1408240,"2026-04-18 06:20:00","45820","2.031","272.6","4.083","291.5","1018.503","15.27","67.51","165.8","0.0"],
    [1408241,"2026-04-18 06:30:00","45821","2.134","290.8","4.443","300.4","1018.535","15.69","66.81","219.4","0.0"],
    [1408242,"2026-04-18 06:40:00","45822","2.6910000000000003","296.5","4.214","298.5","1018.617","16.18","64.05","236.8","0.0"],
    [1408243,"2026-04-18 06:50:00","45823","3.333","289.5","4.835","302","1018.679","16.41","62.98","235.8","0.0"],
    [1408244,"2026-04-18 07:00:00","45824","2.066","260.3","3.528","281.9","1018.747","16.55","62.91","255.1","0.0"],
    [1408245,"2026-04-18 07:10:00","45825","2.285","269.6","3.887","276.1","1018.825","16.74","62.37","307.3","0.0"],
    [1408246,"2026-04-18 07:20:00","45826","2.045","262.8","4.116","260.6","1018.88","17.15","60.96","338.2","0.0"],
    [1408247,"2026-04-18 07:30:00","45827","1.8230000000000002","263.7","3.528","271.5","1018.931","17.78","58.48","399.9","0.0"],
    [1408248,"2026-04-18 07:40:00","45828","2.3369999999999997","280.5","3.724","269.7","1019.0210000000001","18.21","57.48","429.1","0.0"],
    [1408249,"2026-04-18 07:50:00","45829","2.552","282.9","4.051","299.9","1019.0880000000001","18.44","56.81","433.9","0.0"],
    [1408250,"2026-04-18 08:00:00","45830","1.504","252.1","3.071","269.5","1019.1569999999999","18.99","55.25","453.6","0.0"],
    [1408251,"2026-04-18 08:10:00","45831","1.5419999999999998","235.4","2.646","280.7","1019.2489999999999","19.57","54.35","504.2","0.0"],
    [1408252,"2026-04-18 08:20:00","45832","1.168","224.4","2.254","190.8","1019.293","20.38","53.38","558.8","0.0"],
    [1408253,"2026-04-18 08:30:00","45833","1.143","246.5","2.385","206.3","1019.345","20.46","51.59","558.3","0.0"],
    [1408254,"2026-04-18 08:40:00","45834","1.055","242.5","2.744","259","1019.335","20.71","51.64","615.0","0.0"],
    [1408255,"2026-04-18 08:50:00","45835","1.456","212.9","2.189","194.1","1019.3489999999999","20.68","59.19","634.3","0.0"],
    [1408256,"2026-04-18 09:00:00","45836","1.2830000000000001","203.1","2.842","173.4","1019.3969999999999","20.96","59.39","603.1","0.0"],
    [1408257,"2026-04-18 09:10:00","45837","1.97","169.5","3.267","161.9","1019.422","20.01","64.77","588.1","0.0"],
    [1408258,"2026-04-18 09:20:00","45838","1.86","184.7","3.626","184.2","1019.4019999999999","20.16","64.46","618.3","0.0"],
    [1408259,"2026-04-18 09:30:00","45839","2.2569999999999997","185.5","3.561","174.8","1019.3839999999999","20.02","65.5","570.2","0.0"],
    [1408260,"2026-04-18 09:40:00","45840","1.847","204.6","3.463","225.6","1019.3939999999999","20.51","64.75","638.8","0.0"],
    [1408261,"2026-04-18 09:50:00","45841","1.9340000000000002","197.4","3.365","233.8","1019.41","20.72","63.24","638.2","0.0"],
    [1408262,"2026-04-18 10:00:00","45842","2.0709999999999997","202.1","3.561","188.3","1019.445","20.76","62.29","666.4","0.0"],
    [1408263,"2026-04-18 10:10:00","45843","2.5069999999999997","191.4","3.528","174.7","1019.4860000000001","20.73","60.59","734.5","0.0"],
    [1408264,"2026-04-18 10:20:00","45844","2.352","203.8","3.593","221.8","1019.508","20.95","58.52","836.0","0.0"],
    [1408265,"2026-04-18 10:30:00","45845","2.435","199.4","3.855","175","1019.497","21.1","58.05","787.5","0.0"],
    [1408266,"2026-04-18 10:40:00","45846","2.7239999999999998","208.9","3.887","219.4","1019.49","20.9","55.61","750.3","0.0"],
    [1408267,"2026-04-18 10:50:00","45847","2.114","206.2","3.855","193.9","1019.44","21.24","53.16","819.0","0.0"],
    [1408268,"2026-04-18 11:00:00","45848","2.102","214.5","3.397","210.3","1019.428","21.91","51.69","840.0","0.0"],
    [1408269,"2026-04-18 11:10:00","45849","2.299","208.5","3.757","203.6","1019.416","21.9","51.51","827.0","0.0"],
    [1408270,"2026-04-18 11:20:00","45850","2.44","211.7","3.593","218.3","1019.373","22.27","49.2","865.0","0.0"],
    [1408271,"2026-04-18 11:30:00","45851","2.352","205.0","3.397","210.2","1019.301","22.43","47.94","927.0","0.0"],
    [1408272,"2026-04-18 11:40:00","45852","2.256","178.9","3.626","185.8","1019.273","22.23","46.33","921.0","0.0"],
    [1408273,"2026-04-18 11:50:00","45853","2.315","198.5","4.475","216","1019.2869999999999","22.37","48.71","958.0","0.0"],
    [1408274,"2026-04-18 12:00:00","45854","2.735","198.2","4.41","213.7","1019.2510000000001","22.42","50.71","931.0","0.0"],
    [1408275,"2026-04-18 12:10:00","45855","2.855","199.0","4.345","224.6","1019.182","21.83","54.03","938.0","0.0"],
    [1408276,"2026-04-18 12:20:00","45856","2.296","180.1","4.475","165.8","1019.179","21.61","55.41","849.0","0.0"],
    [1408277,"2026-04-18 12:30:00","45857","2.7680000000000002","203.2","4.051","216.8","1019.16","21.65","55.71","919.0","0.0"],
    [1408278,"2026-04-18 12:40:00","45858","2.6069999999999998","194.7","4.214","175.7","1019.091","21.87","54.93","915.0","0.0"],
    [1408279,"2026-04-18 12:50:00","45859","2.884","182.6","3.887","175.3","1019.0980000000001","21.23","58.92","831.0","0.0"],
    [1408280,"2026-04-18 13:00:00","45860","2.597","184.0","4.083","181.7","1019.095","21.16","57.55","846.0","0.0"],
    [1408281,"2026-04-18 13:10:00","45861","2.575","199.6","4.443","218.9","1019.072","21.53","57.21","853.0","0.0"],
    [1408282,"2026-04-18 13:20:00","45862","2.8289999999999997","193.9","3.985","222","1019.003","21.47","58.36","875.0","0.0"],
    [1408283,"2026-04-18 13:30:00","45863","2.5","187.5","4.116","186.3","1018.921","21.51","61.74","847.0","0.0"],
    [1408284,"2026-04-18 13:40:00","45864","2.481","192.4","4.214","178.6","1018.846","21.71","61.97","852.0","0.0"],
    [1408285,"2026-04-18 13:50:00","45865","2.775","206.9","4.181","223.2","1018.799","21.24","64.46","824.0","0.0"],
    [1408286,"2026-04-18 14:00:00","45866","2.549","190.4","4.051","177.3","1018.678","21.18","64.59","745.4","0.0"],
    [1408287,"2026-04-18 14:10:00","45867","2.548","193.9","4.018","211.1","1018.587","21.44","63.74","821.0","0.0"],
    [1408288,"2026-04-18 14:20:00","45868","2.603","196.6","4.769","175.3","1018.5160000000001","21.33","62.68","795.2","0.0"],
    [1408289,"2026-04-18 14:30:00","45869","2.9","199.2","4.998","170.5","1018.428","21.08","63.89","788.8","0.0"],
    [1408290,"2026-04-18 14:40:00","45870","3.138","208.2","5.717","208.2","1018.38","21.27","64.85","748.8","0.0"],
    [1408291,"2026-04-18 14:50:00","45871","3.241","205.9","5.978","217.4","1018.3539999999999","20.96","65.16","700.9","0.0"],
    [1408292,"2026-04-18 15:00:00","45872","2.909","204.4","5.096","219.9","1018.2760000000001","21.14","64.3","711.1","0.0"],
    [1408293,"2026-04-18 15:10:00","45873","2.491","202.9","4.704","191.6","1018.22","20.95","60.74","343.8","0.0"],
    [1408294,"2026-04-18 15:20:00","45874","3.322","215.1","6.011","230.5","1018.253","20.07","63.21","214.0","0.0"],
    [1408295,"2026-04-18 15:30:00","45875","4.005","217.7","6.468","204.1","1018.242","19.37","62.36","218.9","0.0"],
    [1408296,"2026-04-18 15:40:00","45876","3.3369999999999997","210.7","4.769","229","1018.217","19.68","62.4","284.3","0.0"],
    [1408297,"2026-04-18 15:50:00","45877","3.397","209.4","5.913","208.9","1018.165","19.87","61.0","386.9","0.0"],
    [1408298,"2026-04-18 16:00:00","45878","3.532","213.5","5.88","211.4","1018.1289999999999","20.61","55.77","456.9","0.0"],
    [1408299,"2026-04-18 16:10:00","45879","3.3760000000000003","221.3","5.521","213","1018.123","20.44","53.57","279.7","0.0"],
    [1408300,"2026-04-18 16:20:00","45880","3.487","216.2","6.011","220.2","1018.11","20.32","54.88","212.0","0.0"],
    [1408301,"2026-04-18 16:30:00","45881","3.136","210.4","6.174","223.6","1018.0980000000001","20.2","55.64","388.2","0.0"],
    [1408302,"2026-04-18 16:40:00","45882","3.839","217.2","5.88","226.7","1018.1080000000001","20.68","52.79","430.7","0.0"],
    [1408303,"2026-04-18 16:50:00","45883","3.705","218.5","6.109","202.7","1018.11","20.74","50.55","372.7","0.0"],
    [1408304,"2026-04-18 17:00:00","45884","3.7089999999999996","212.9","6.239","191.1","1018.055","20.75","50.86","317.9","0.0"],
    [1408305,"2026-04-18 17:10:00","45885","3.822","220.6","6.501","218.8","1018.005","20.67","48.33","264.6","0.0"],
    [1408306,"2026-04-18 17:20:00","45886","3.668","213.1","6.337","204","1017.97","20.5","48.67","220.6","0.0"],
    [1408307,"2026-04-18 17:30:00","45887","3.6510000000000002","216.8","6.599","208.2","1017.946","20.17","50.87","178.7","0.0"],
    [1408308,"2026-04-18 17:40:00","45888","3.4810000000000003","217.8","5.325","227","1017.8860000000001","19.96","50.98","140.5","0.0"],
    [1408309,"2026-04-18 17:50:00","45889","3.38","214.6","5.39","236.9","1017.847","19.7","51.25","108.0","0.0"],
    [1408310,"2026-04-18 18:00:00","45890","3.903","216.2","6.37","222.5","1017.829","19.32","53.23","78.34","0.0"],
    [1408311,"2026-04-18 18:10:00","45891","3.284","214.3","5.978","195","1017.812","18.95","56.53","35.44","0.0"],
    [1408312,"2026-04-18 18:20:00","45892","3.077","212.7","6.109","202.7","1017.8739999999999","18.51","60.62","17.95","0.0"],
    [1408313,"2026-04-18 18:30:00","45893","3.397","214.3","5.488","225.7","1017.9789999999999","18.25","62.12","5.337999999999999","0.0"],
    [1408314,"2026-04-18 18:40:00","45894","2.884","217.1","4.933","224.7","1018.003","17.96","65.07","0.42","0.0"],
    [1408315,"2026-04-18 18:50:00","45895","2.426","218.1","4.149","225.7","1018.065","17.77","66.42","-2.037","0.0"],
    [1408316,"2026-04-18 19:00:00","45896","2.6430000000000002","215.5","3.953","206.4","1018.178","17.74","67.19","-2.6860000000000004","0.0"],
    [1408317,"2026-04-18 19:10:00","45897","2.168","214.1","3.528","217.5","1018.383","17.57","68.67","-2.739","0.0"],
    [1408318,"2026-04-18 19:20:00","45898","2.322","214.4","3.169","218","1018.503","17.4","69.65","-2.968","0.0"],
    [1408319,"2026-04-18 19:30:00","45899","2.187","206.1","3.299","189.4","1018.59","17.4","69.82","-2.786","0.0"],
    [1408320,"2026-04-18 19:40:00","45900","1.804","205.0","3.593","210.3","1018.5889999999999","17.32","70.32","-2.7910000000000004","0.0"],
    [1408321,"2026-04-18 19:50:00","45901","1.953","204.1","3.757","226.9","1018.5269999999999","17.16","70.62","-2.818","0.0"],
    [1408322,"2026-04-18 20:00:00","45902","2.0909999999999997","208.0","3.495","214","1018.5980000000001","17.11","71.78","-2.734","0.0"],
    [1408323,"2026-04-18 20:10:00","45903","2.7030000000000003","219.6","3.985","228.7","1018.674","17.18","71.04","-2.85","0.0"],
    [1408324,"2026-04-18 20:20:00","45904","2.467","222.6","3.626","233.8","1018.679","17.19","71.22","-2.696","0.0"],
    [1408325,"2026-04-18 20:30:00","45905","1.5930000000000002","235.4","3.332","220","1018.8330000000001","17.06","72.7","-2.695","0.0"],
    [1408326,"2026-04-18 20:40:00","45906","1.361","231.3","2.189","220.4","1018.8489999999999","16.77","74.33","-2.7960000000000003","0.0"],
    [1408327,"2026-04-18 20:50:00","45907","1.557","231.9","2.646","222.4","1018.852","16.92","73.4","-2.8710000000000004","0.0"],
    [1408328,"2026-04-18 21:00:00","45908","1.148","231.6","2.221","227","1018.9169999999999","16.85","72.08","-2.873","0.0"],
    [1408329,"2026-04-18 21:10:00","45909","0.6759999999999999","206.6","2.156","206.8","1018.8860000000001","16.76","74.04","-3.091","0.0"],
    [1408330,"2026-04-18 21:20:00","45910","1.2590000000000001","229.5","2.091","229.6","1018.924","16.57","75.72","-2.8289999999999997","0.0"],
    [1408331,"2026-04-18 21:30:00","45911","1.4669999999999999","227.0","2.287","210","1018.944","16.48","72.97","-2.767","0.0"],
    [1408332,"2026-04-18 21:40:00","45912","1.8659999999999999","225.6","2.875","208.9","1018.841","16.6","67.34","-2.7","0.0"],
    [1408333,"2026-04-18 21:50:00","45913","1.536","226.5","2.679","217.4","1018.829","16.47","64.1","-2.7030000000000003","0.0"],
    [1408334,"2026-04-18 22:00:00","45914","1.265","244.3","2.973","260.4","1018.821","16.45","60.89","-2.699","0.0"],
    [1408335,"2026-04-18 22:10:00","45915","1.436","234.6","2.548","238.6","1018.785","16.62","58.38","-2.713","0.0"],
    [1408336,"2026-04-18 22:20:00","45916","1.76","230.1","2.679","257.1","1018.747","16.85","59.71","-2.714","0.0"],
    [1408337,"2026-04-18 22:30:00","45917","1.72","229.3","2.548","254.7","1018.6610000000001","16.82","59.79","-2.702","0.0"],
    [1408338,"2026-04-18 22:40:00","45918","1.4269999999999998","232.5","2.352","240","1018.493","16.84","64.99","-2.7110000000000003","0.0"],
    [1408339,"2026-04-18 22:50:00","45919","1.6030000000000002","227.2","2.254","233.2","1018.423","16.6","71.03","-2.7060000000000004","0.0"],
    [1408340,"2026-04-18 23:00:00","45920","1.547","229.2","2.45","217.2","1018.446","16.35","73.97","-2.735","0.0"],
    [1408341,"2026-04-18 23:10:00","45921","1.6119999999999999","224.9","2.189","216.8","1018.413","16.22","75.29","-2.705","0.0"],
    [1408342,"2026-04-18 23:20:00","45922","1.124","238.5","1.862","274.9","1018.393","16.1","72.29","-2.7110000000000003","0.0"],
    [1408343,"2026-04-18 23:30:00","45923","1.392","231.7","2.352","241.9","1018.3739999999999","15.99","66.52","-2.713","0.0"],
    [1408344,"2026-04-18 23:40:00","45924","1.599","239.0","3.103","248.3","1018.3810000000001","16.06","64.1","-2.715","0.0"],
    [1408345,"2026-04-18 23:50:00","45925","1.577","238.8","2.94","235.4","1018.37","15.88","60.01","-2.72","0.0"],
    [1408346,"2026-04-19 00:00:00","45926","1.6159999999999999","232.5","2.94","247.2","1018.27","15.68","58.76","-2.718","0.0"],
    [1408347,"2026-04-19 00:10:00","45927","1.569","232.4","2.809","250.5","1018.143","15.41","59.67","-2.718","0.0"],
    [1408348,"2026-04-19 00:20:00","45928","1.4880000000000002","233.1","2.385","249.5","1018.055","15.22","60.55","-2.72","0.0"],
    [1408349,"2026-04-19 00:30:00","45929","1.03","245.0","2.287","245","1017.9960000000001","15.25","60.31","-2.725","0.0"],
    [1408350,"2026-04-19 00:40:00","45930","1.112","246.4","2.319","291","1017.918","15.34","59.28","-2.7260000000000004","0.0"],
    [1408351,"2026-04-19 00:50:00","45931","1.7369999999999999","226.9","2.45","227.2","1017.821","15.33","59.34","-2.725","0.0"],
    [1408352,"2026-04-19 01:00:00","45932","1.704","230.1","2.483","232.6","1017.633","15.13","59.99","-2.7239999999999998","0.0"],
    [1408353,"2026-04-19 01:10:00","45933","1.7469999999999999","231.2","2.581","230.2","1017.4730000000001","15.34","58.91","-2.7260000000000004","0.0"],
    [1408354,"2026-04-19 01:20:00","45934","1.5730000000000002","236.1","3.005","246.6","1017.35","15.27","59.22","-2.722","0.0"],
    [1408355,"2026-04-19 01:30:00","45935","1.474","240.0","2.777","255.5","1017.23","15.5","57.78","-2.725","0.0"],
    [1408356,"2026-04-19 01:40:00","45936","1.432","247.5","2.679","289.2","1017.178","15.5","57.64","-2.722","0.0"],
    [1408357,"2026-04-19 01:50:00","45937","1.935","269.3","3.561","262.1","1017.091","15.3","58.19","-2.5340000000000003","0.0"],
    [1408358,"2026-04-19 02:00:00","45938","2.046","272.1","3.887","279.7","1016.9810000000001","15.05","59.2","-2.261","0.0"],
    [1408359,"2026-04-19 02:10:00","45939","2.267","275.4","3.985","280.2","1016.909","15.07","58.79","-2.681","0.0"],
    [1408360,"2026-04-19 02:20:00","45940","2.134","278.6","3.528","297.1","1016.8330000000001","15.44","56.82","-2.7289999999999996","0.0"],
    [1408361,"2026-04-19 02:30:00","45941","2.199","272.6","4.018","285.4","1016.742","15.91","54.81","-2.7289999999999996","0.0"],
    [1408362,"2026-04-19 02:40:00","45942","2.491","280.0","4.769","275.2","1016.664","15.91","55.88","-2.725","0.0"],
    [1408363,"2026-04-19 02:50:00","45943","3.1239999999999997","291.8","5.129","299.6","1016.568","15.66","57.97","-2.7230000000000003","0.0"],
    [1408364,"2026-04-19 03:00:00","45944","2.464","297.7","4.508","296.1","1016.454","15.82","57.97","-2.728","0.0"],
    [1408365,"2026-04-19 03:10:00","45945","1.902","297.1","3.463","280","1016.436","15.74","58.48","-2.761","0.0"],
    [1408366,"2026-04-19 03:20:00","45946","2.184","297.0","3.365","310.5","1016.456","15.7","58.64","-2.7289999999999996","0.0"],
    [1408367,"2026-04-19 03:30:00","45947","2.226","287.1","3.234","293.2","1016.3510000000001","15.55","59.18","-2.735","0.0"],
    [1408368,"2026-04-19 03:40:00","45948","1.7180000000000002","276.2","3.397","291.3","1016.2410000000001","15.52","58.97","-2.713","0.0"],
    [1408369,"2026-04-19 03:50:00","45949","2.252","287.5","3.822","293.6","1016.238","15.38","59.2","-2.7260000000000004","0.0"],
    [1408370,"2026-04-19 04:00:00","45950","2.155","292.5","3.397","301.7","1016.185","15.43","58.39","-2.733","0.0"],
    [1408371,"2026-04-19 04:10:00","45951","1.499","276.7","2.973","283.2","1016.1189999999999","15.46","57.9","-2.7260000000000004","0.0"],
    [1408372,"2026-04-19 04:20:00","45952","1.591","281.7","2.515","282.4","1016.086","15.38","58.66","-2.727","0.0"],
    [1408373,"2026-04-19 04:30:00","45953","1.426","286.4","2.352","301.7","1016.105","15.31","59.16","-2.728","0.0"],
    [1408374,"2026-04-19 04:40:00","45954","1.38","284.7","2.156","273.1","1016.16","15.14","59.89","-2.727","0.0"],
    [1408375,"2026-04-19 04:50:00","45955","2.227","286.0","3.299","291.2","1016.198","14.98","60.46","-2.5860000000000003","0.0"],
    [1408376,"2026-04-19 05:00:00","45956","2.175","277.2","3.169","271.8","1016.326","14.97","60.34","-1.042","0.0"],
    [1408377,"2026-04-19 05:10:00","45957","1.93","301.9","3.005","316.4","1016.4860000000001","14.77","61.1","2.987","0.0"],
    [1408378,"2026-04-19 05:20:00","45958","1.255","318.8","2.548","312","1016.622","14.62","61.69","13.93","0.0"],
    [1408379,"2026-04-19 05:30:00","45959","0.992","306.0","2.156","317.1","1016.688","14.94","60.74","30.92","0.0"],
    [1408380,"2026-04-19 05:40:00","45960","0.332","294.8","0.915","284.5","1016.712","15.28","60.34","61.55","0.0"],
    [1408381,"2026-04-19 05:50:00","45961","0.364","215.5","1.209","230.9","1016.7539999999999","15.58","58.97","63.74","0.0"],
    [1408382,"2026-04-19 06:00:00","45962","0.998","245.4","2.091","245.6","1016.8760000000001","15.53","59.58","102.6","0.0"],
    [1408383,"2026-04-19 06:10:00","45963","2.146","270.9","3.201","290.1","1017.058","15.52","60.02","67.88","0.0"],
    [1408384,"2026-04-19 06:20:00","45964","1.885","263.7","3.103","270.6","1017.1310000000001","15.25","61.24","77.45","0.0"],
    [1408385,"2026-04-19 06:30:00","45965","1.706","273.0","2.842","266.4","1017.207","15.17","61.39","63.73","0.0"],
    [1408386,"2026-04-19 06:40:00","45966","1.8019999999999998","265.8","3.659","264.9","1017.296","15.19","61.15","67.6","0.0"],
    [1408387,"2026-04-19 06:50:00","45967","2.115","280.9","3.593","291.3","1017.3960000000001","15.25","61.08","74.91","0.0"],
    [1408388,"2026-04-19 07:00:00","45968","1.67","259.0","2.679","255.8","1017.423","15.7","59.77","246.3","0.0"],
    [1408389,"2026-04-19 07:10:00","45969","1.609","274.1","2.744","282.7","1017.3939999999999","16.78","57.27","324.6","0.0"],
    [1408390,"2026-04-19 07:20:00","45970","1.524","256.7","3.169","277","1017.448","17.73","55.24","360.8","0.0"],
    [1408391,"2026-04-19 07:30:00","45971","1.464","246.6","2.581","218.4","1017.4760000000001","18.27","54.79","395.9","0.0"],
    [1408392,"2026-04-19 07:40:00","45972","1.905","254.9","3.234","271.8","1017.426","18.31","56.0","432.2","0.0"],
    [1408393,"2026-04-19 07:50:00","45973","1.383","236.3","2.875","219.8","1017.449","18.88","54.61","464.3","0.0"],
    [1408394,"2026-04-19 08:00:00","45974","1.692","224.8","2.777","198.1","1017.457","19.1","55.83","483.1","0.0"],
    [1408395,"2026-04-19 08:10:00","45975","2.157","212.4","3.365","224.7","1017.466","19.34","55.65","523.8","0.0"],
    [1408396,"2026-04-19 08:20:00","45976","1.791","207.3","2.907","225.9","1017.454","19.59","56.76","571.9","0.0"],
    [1408397,"2026-04-19 08:30:00","45977","2.09","209.3","3.855","196.9","1017.5310000000001","20.31","58.36","620.0","0.0"],
    [1408398,"2026-04-19 08:40:00","45978","3.428","211.5","5.129","209.3","1017.638","20.12","61.11","539.8","0.0"],
    [1408399,"2026-04-19 08:50:00","45979","3.2969999999999997","206.9","5.782","169.3","1017.674","19.0","67.22","339.9","0.0"],
    [1408400,"2026-04-19 09:00:00","45980","2.319","196.2","4.639","211.7","1017.722","19.01","68.36","610.0","0.0"],
    [1408401,"2026-04-19 09:10:00","45981","2.585","206.9","4.867","219.6","1017.813","19.46","65.74","758.3","0.0"],
    [1408402,"2026-04-19 09:20:00","45982","2.156","183.8","3.626","161.1","1017.898","19.79","67.67","596.3","0.0"],
    [1408403,"2026-04-19 09:30:00","45983","2.812","183.7","5.455","198.5","1018.056","19.64","67.02","711.9","0.0"],
    [1408404,"2026-04-19 09:40:00","45984","2.73","202.6","5.684","186.7","1018.1039999999999","20.4","65.08","858.0","0.0"],
    [1408405,"2026-04-19 09:50:00","45985","3.0980000000000003","193.1","5.684","213.8","1018.138","20.5","68.46","922.0","0.0"],
    [1408406,"2026-04-19 10:00:00","45986","3.4810000000000003","186.5","5.651","195.9","1018.188","20.2","70.94","918.0","0.0"],
    [1408407,"2026-04-19 10:10:00","45987","2.6639999999999997","205.9","4.769","221.2","1018.164","20.15","71.6","587.1","0.0"],
    [1408408,"2026-04-19 10:20:00","45988","2.3609999999999998","194.9","4.41","175.2","1018.176","19.52","73.92","369.0","0.0"],
    [1408409,"2026-04-19 10:30:00","45989","2.487","201.6","4.541","198.9","1018.1010000000001","18.94","75.9","390.2","0.0"],
    [1408410,"2026-04-19 10:40:00","45990","2.6889999999999996","186.6","4.965","186.4","1017.98","19.24","72.78","749.9","0.0"],
    [1408411,"2026-04-19 10:50:00","45991","2.963","205.1","5.945","222.9","1017.903","20.58","65.27","914.0","0.0"],
    [1408412,"2026-04-19 11:00:00","45992","4.093999999999999","211.8","7.873","219.8","1017.784","20.93","57.56","902.0","0.0"],
    [1408413,"2026-04-19 11:10:00","45993","3.452","206.1","6.468","220.8","1017.67","20.93","58.37","892.0","0.0"],
    [1408414,"2026-04-19 11:20:00","45994","3.67","206.1","6.762","194.3","1017.59","21.02","57.39","895.0","0.0"],
    [1408415,"2026-04-19 11:30:00","45995","2.888","197.0","5.227","198.7","1017.55","21.11","57.54","899.0","0.0"],
    [1408416,"2026-04-19 11:40:00","45996","2.969","197.6","5.651","179.6","1017.482","20.92","58.19","903.0","0.0"],
    [1408417,"2026-04-19 11:50:00","45997","4.055","208.7","7.187","221.7","1017.3660000000001","20.73","59.01","905.0","0.0"],
    [1408418,"2026-04-19 12:00:00","45998","4.605","213.2","7.089","223.5","1017.257","20.43","59.43","905.0","0.0"],
    [1408419,"2026-04-19 12:10:00","45999","4.503","212.2","6.925","224.5","1017.1089999999999","20.42","60.29","903.0","0.0"],
    [1408420,"2026-04-19 12:20:00","46000","3.202","197.6","5.88","170.3","1017.0","21.06","59.96","895.0","0.0"],
    [1408421,"2026-04-19 12:30:00","46001","4.325","184.3","6.925","186.6","1016.9680000000001","20.3","61.85","892.0","0.0"],
    [1408422,"2026-04-19 12:40:00","46002","3.197","194.1","6.403","222.7","1016.8989999999999","20.91","60.92","885.0","0.0"],
    [1408423,"2026-04-19 12:50:00","46003","3.333","201.4","5.945","221.9","1016.852","20.99","60.7","878.0","0.0"],
    [1408424,"2026-04-19 13:00:00","46004","3.148","190.1","5.782","185.3","1016.793","20.63","62.91","870.0","0.0"],
    [1408425,"2026-04-19 13:10:00","46005","3.112","194.8","6.043","188.9","1016.704","20.56","63.29","859.0","0.0"],
    [1408426,"2026-04-19 13:20:00","46006","3.7539999999999996","188.7","6.337","181.5","1016.671","20.22","65.97","849.0","0.0"],
    [1408427,"2026-04-19 13:30:00","46007","3.303","189.2","6.011","183.9","1016.625","20.26","68.26","834.0","0.0"],
    [1408428,"2026-04-19 13:40:00","46008","3.261","185.0","6.272","172","1016.525","19.89","70.75","815.0","0.0"],
    [1408429,"2026-04-19 13:50:00","46009","3.2889999999999997","187.1","6.207","176.9","1016.408","20.01","69.87","756.2","0.0"],
    [1408430,"2026-04-19 14:00:00","46010","3.221","186.9","6.109","175.5","1016.387","20.1","68.41","737.5","0.0"],
    [1408431,"2026-04-19 14:10:00","46011","3.153","189.0","5.651","170.3","1016.4060000000001","19.98","68.49","716.1","0.0"],
    [1408432,"2026-04-19 14:20:00","46012","3.0980000000000003","200.1","5.945","220.4","1016.3430000000001","20.02","67.14","596.5","0.0"],
    [1408433,"2026-04-19 14:30:00","46013","3.27","203.3","6.076","215.6","1016.306","19.62","66.7","556.1","0.0"],
    [1408434,"2026-04-19 14:40:00","46014","2.67","194.8","5.815","178.8","1016.2610000000001","20.03","65.49","689.7","0.0"],
    [1408435,"2026-04-19 14:50:00","46015","3.679","185.2","5.815","178.8","1016.17","19.73","65.76","677.4","0.0"],
    [1408436,"2026-04-19 15:00:00","46016","3.06","199.0","5.945","185.1","1016.1110000000001","20.19","64.73","644.8","0.0"],
    [1408437,"2026-04-19 15:10:00","46017","3.594","204.4","6.109","219.2","1016.035","20.25","63.94","614.8","0.0"],
    [1408438,"2026-04-19 15:20:00","46018","3.155","201.8","5.325","217.1","1016.0110000000001","20.11","64.08","583.4","0.0"],
    [1408439,"2026-04-19 15:30:00","46019","3.7039999999999997","208.4","5.913","208.3","1016.1139999999999","19.91","65.62","557.2","0.0"],
    [1408440,"2026-04-19 15:40:00","46020","3.844","208.0","7.481","222.8","1016.1339999999999","20.01","65.89","527.7","0.0"],
    [1408441,"2026-04-19 15:50:00","46021","3.3169999999999997","195.0","5.749","176.1","1016.1010000000001","19.93","66.8","497.7","0.0"],
    [1408442,"2026-04-19 16:00:00","46022","3.326","185.3","6.141","175","1016.008","19.46","69.04","456.5","0.0"],
    [1408443,"2026-04-19 16:10:00","46023","2.5810000000000004","201.5","5.553","234.8","1015.9010000000001","19.49","70.12","394.8","0.0"],
    [1408444,"2026-04-19 16:20:00","46024","2.6430000000000002","197.5","5.88","232.9","1015.7860000000001","19.39","70.98","362.2","0.0"],
    [1408445,"2026-04-19 16:30:00","46025","2.8760000000000003","212.6","4.475","218.9","1015.855","19.28","72.07","351.7","0.0"],
    [1408446,"2026-04-19 16:40:00","46026","3.407","220.3","5.815","223.4","1016.002","19.14","73.25","334.0","0.0"],
    [1408447,"2026-04-19 16:50:00","46027","3.53","219.7","5.292","221.3","1016.21","18.93","75.46","296.1","0.0"],
    [1408448,"2026-04-19 17:00:00","46028","3.133","209.8","5.553","219.1","1016.377","18.77","77.3","256.3","0.0"],
    [1408449,"2026-04-19 17:10:00","46029","2.522","200.1","4.769","172.9","1016.216","18.72","78.01","197.0","0.0"],
    [1408450,"2026-04-19 17:20:00","46030","2.184","202.5","5.978","163.8","1016.154","18.41","80.5","78.56","0.0"],
    [1408451,"2026-04-19 17:30:00","46031","2.036","200.1","3.528","178.2","1016.203","18.04","83.1","54.12","0.0"],
    [1408452,"2026-04-19 17:40:00","46032","1.599","195.1","3.038","164.6","1016.184","17.76","84.5","43.85","0.0"],
    [1408453,"2026-04-19 17:50:00","46033","2.165","191.6","4.867","206.3","1016.1239999999999","17.53","85.1","44.93","0.0"],
    [1408454,"2026-04-19 18:00:00","46034","2.044","199.7","4.573","207.6","1016.169","17.42","85.4","42.63","0.0"],
    [1408455,"2026-04-19 18:10:00","46035","2.476","199.4","4.835","180.1","1016.198","17.23","86.1","31.75","0.0"],
    [1408456,"2026-04-19 18:20:00","46036","1.495","201.7","3.724","178.8","1016.273","17.05","86.5","19.01","0.0"],
    [1408457,"2026-04-19 18:30:00","46037","1.7819999999999998","200.8","4.018","203.2","1016.252","16.88","87.1","8.09","0.0"],
    [1408458,"2026-04-19 18:40:00","46038","1.026","202.1","2.646","191.6","1016.303","16.78","87.5","0.556","0.0"],
    [1408459,"2026-04-19 18:50:00","46039","1.304","193.4","2.581","205","1016.2180000000001","16.7","87.6","-1.84","0.0"],
    [1408460,"2026-04-19 19:00:00","46040","1.3230000000000002","200.7","2.907","200.4","1016.207","16.73","86.9","-2.634","0.0"],
    [1408461,"2026-04-19 19:10:00","46041","1.5219999999999998","219.1","2.809","219.2","1016.294","16.69","86.9","-2.694","0.0"],
    [1408462,"2026-04-19 19:20:00","46042","1.859","220.4","3.626","208.8","1016.317","16.73","86.6","-2.685","0.0"],
    [1408463,"2026-04-19 19:30:00","46043","2.004","216.5","3.528","210.8","1016.332","16.75","86.2","-2.667","0.0"],
    [1408464,"2026-04-19 19:40:00","46044","1.7269999999999999","224.3","2.613","228","1016.475","16.74","86.1","-2.6460000000000004","0.0"],
    [1408465,"2026-04-19 19:50:00","46045","0.5379999999999999","236.8","1.47","277","1016.5980000000001","16.53","86.4","-2.614","0.0"],
    [1408466,"2026-04-19 20:00:00","46046","1.405","226.5","2.417","232.3","1016.6619999999999","16.52","86.3","-2.697","0.0"],
    [1408467,"2026-04-19 20:10:00","46047","1.248","234.6","2.123","236.5","1016.573","16.66","84.4","-2.68","0.0"],
    [1408468,"2026-04-19 20:20:00","46048","1.13","236.9","1.797","254.3","1016.518","16.61","84.3","-2.695","0.0"],
    [1408469,"2026-04-19 20:30:00","46049","0.932","230.6","2.287","259.4","1016.416","16.56","84.9","-2.681","0.0"],
    [1408470,"2026-04-19 20:40:00","46050","0.915","277.2","1.666","265.8","1016.367","16.56","84.4","-2.6830000000000003","0.0"],
    [1408471,"2026-04-19 20:50:00","46051","1.204","234.3","1.797","224","1016.415","16.61","84.3","-2.69","0.0"],
    [1408472,"2026-04-19 21:00:00","46052","1.317","238.2","1.895","226.2","1016.4910000000001","16.75","84.3","-2.524","0.0"],
    [1408473,"2026-04-19 21:10:00","46053","1.087","269.4","2.319","232.4","1016.3889999999999","16.88","84.9","-2.49","0.0"],
    [1408474,"2026-04-19 21:20:00","46054","1.069","268.1","2.123","261.4","1016.2810000000001","16.93","85.2","-2.655","0.0"],
    [1408475,"2026-04-19 21:30:00","46055","1.413","269.3","2.613","268.2","1016.2669999999999","16.83","85.6","-2.539","0.0"],
    [1408476,"2026-04-19 21:40:00","46056","1.251","252.6","2.777","252.3","1016.215","17.09","84.8","-2.295","0.0"],
    [1408477,"2026-04-19 21:50:00","46057","1.058","245.7","2.254","250.3","1015.9910000000001","17.27","83.1","-2.633","0.0"],
    [1408478,"2026-04-19 22:00:00","46058","1.097","241.7","2.058","241.9","1015.873","17.51","80.7","-2.638","0.0"],
    [1408479,"2026-04-19 22:10:00","46059","1.986","220.6","2.842","214.6","1015.822","17.53","80.5","-2.3609999999999998","0.0"],
    [1408480,"2026-04-19 22:20:00","46060","2.674","215.0","3.757","217.9","1015.712","16.96","83.8","-1.9480000000000002","0.0"],
    [1408481,"2026-04-19 22:30:00","46061","3.0269999999999997","213.5","4.312","217.4","1015.5039999999999","16.8","83.0","-1.942","0.0"],
    [1408482,"2026-04-19 22:40:00","46062","2.174","236.3","4.018","223.9","1015.545","16.79","79.51","-1.891","0.0"],
    [1408483,"2026-04-19 22:50:00","46063","1.985","266.7","3.463","255.9","1015.547","16.83","78.5","-1.847","0.0"],
    [1408484,"2026-04-19 23:00:00","46064","1.643","240.6","2.94","224.8","1015.268","16.78","77.74","-1.923","0.0"],
    [1408485,"2026-04-19 23:10:00","46065","1.808","235.4","3.463","224.4","1014.9789999999999","16.83","78.34","-1.474","0.0"],
    [1408486,"2026-04-19 23:20:00","46066","1.496","250.6","3.267","226.2","1014.868","16.72","79.43","-1.435","0.0"],
    [1408487,"2026-04-19 23:30:00","46067","2.755","231.3","5.031","224.9","1014.732","16.63","79.14","-1.288","0.0"],
    [1408488,"2026-04-19 23:40:00","46068","4.524","225.8","7.383","219.1","1014.632","16.89","77.92","-1.61","0.0"],
    [1408489,"2026-04-19 23:50:00","46069","3.553","232.9","6.109","220","1014.678","17.0","82.3","-1.27","0.0"],
    [1408490,"2026-04-20 00:00:00","46070","1.7919999999999998","258.1","3.201","263.8","1014.66","16.8","82.4","-1.926","0.0"],
    [1408491,"2026-04-20 00:10:00","46071","1.663","276.2","3.136","303.8","1014.561","16.52","79.73","-1.8130000000000002","0.0"],
    [1408492,"2026-04-20 00:20:00","46072","1.892","287.2","3.038","274.8","1014.581","16.17","80.1","-2.2319999999999998","0.0"],
    [1408493,"2026-04-20 00:30:00","46073","2.565","228.9","4.41","208.6","1014.515","16.56","79.57","-2.661","0.0"],
    [1408494,"2026-04-20 00:40:00","46074","2.084","229.2","3.071","214","1014.5210000000001","16.78","78.14","-2.418","0.0"],
    [1408495,"2026-04-20 00:50:00","46075","1.4809999999999999","231.6","2.417","226.1","1014.393","16.79","76.32","-2.557","0.0"],
    [1408496,"2026-04-20 01:00:00","46076","1.35","229.7","2.319","220.9","1014.245","16.86","74.84","-2.577","0.0"],
    [1408497,"2026-04-20 01:10:00","46077","1.406","229.4","2.058","224.3","1014.079","16.91","74.26","-2.658","0.0"],
    [1408498,"2026-04-20 01:20:00","46078","1.65","218.6","2.319","220","1014.041","17.11","73.39","-2.654","0.0"],
    [1408499,"2026-04-20 01:30:00","46079","1.9180000000000001","220.1","2.613","217.3","1014.023","17.07","74.05","-2.7","0.0"],
    [1408500,"2026-04-20 01:40:00","46080","1.8019999999999998","223.3","2.679","224.9","1013.9580000000001","17.08","73.96","-2.6919999999999997","0.0"],
    [1408501,"2026-04-20 01:50:00","46081","1.166","210.6","2.254","233.5","1013.887","16.96","74.76","-2.695","0.0"],
    [1408502,"2026-04-20 02:00:00","46082","2.094","206.1","3.299","208.3","1013.8710000000001","16.81","75.76","-2.701","0.0"],
    [1408503,"2026-04-20 02:10:00","46083","2.22","205.4","3.822","223.7","1013.804","16.53","78.21","-2.6489999999999996","0.0"],
    [1408504,"2026-04-20 02:20:00","46084","1.791","206.0","3.234","208.7","1013.704","16.38","79.59","-2.699","0.0"],
    [1408505,"2026-04-20 02:30:00","46085","1.669","212.1","2.613","214.9","1013.676","16.34","81.0","-2.705","0.0"],
    [1408506,"2026-04-20 02:40:00","46086","2.186","212.8","3.593","210.3","1013.569","16.17","82.2","-2.708","0.0"],
    [1408507,"2026-04-20 02:50:00","46087","2.536","217.5","3.822","237.9","1013.404","16.13","80.7","-2.708","0.0"],
    [1408508,"2026-04-20 03:00:00","46088","2.051","233.9","3.528","217.1","1013.362","16.19","78.54","-2.679","0.0"],
    [1408509,"2026-04-20 03:10:00","46089","0.9490000000000001","230.6","1.731","226.2","1013.313","16.04","77.76","-2.705","0.0"],
    [1408510,"2026-04-20 03:20:00","46090","1.0090000000000001","237.2","3.103","253.2","1013.2360000000001","15.98","76.77","-2.7110000000000003","0.0"],
    [1408511,"2026-04-20 03:30:00","46091","2.135","226.2","3.299","228.6","1013.197","16.37","72.32","-2.7510000000000003","0.0"],
    [1408512,"2026-04-20 03:40:00","46092","2.6839999999999997","222.0","3.626","231.1","1013.1189999999999","16.69","69.64","-2.71","0.0"],
    [1408513,"2026-04-20 03:50:00","46093","2.373","218.6","3.201","220.8","1013.038","16.64","70.15","-2.7110000000000003","0.0"],
    [1408514,"2026-04-20 04:00:00","46094","2.399","222.0","3.234","213.2","1013.003","16.27","72.85","-2.696","0.0"],
    [1408515,"2026-04-20 04:10:00","46095","1.662","226.3","2.679","228.1","1013.0360000000001","15.88","75.2","-2.6460000000000004","0.0"],
    [1408516,"2026-04-20 04:20:00","46096","1.47","227.9","2.287","252.1","1012.961","15.73","75.36","-2.714","0.0"],
    [1408517,"2026-04-20 04:30:00","46097","1.5290000000000001","228.3","2.189","225.6","1012.92","15.69","74.46","-2.72","0.0"],
    [1408518,"2026-04-20 04:40:00","46098","1.805","229.6","3.005","213.3","1012.9010000000001","15.96","72.83","-2.725","0.0"],
    [1408519,"2026-04-20 04:50:00","46099","2.0869999999999997","230.6","3.332","229.2","1012.8860000000001","16.17","71.66","-2.6010000000000004","0.0"],
    [1408520,"2026-04-20 05:00:00","46100","2.177","215.2","3.397","221","1012.794","16.39","71.33","-1.051","0.0"],
    [1408521,"2026-04-20 05:10:00","46101","2.178","218.6","3.495","198.1","1012.7869999999999","16.2","73.98","2.99","0.0"],
    [1408522,"2026-04-20 05:20:00","46102","3.431","222.2","4.835","224.8","1012.807","16.49","72.62","10.02","0.0"],
    [1408523,"2026-04-20 05:30:00","46103","3.159","222.2","4.639","223.4","1012.818","16.73","72.88","20.72","0.0"],
    [1408524,"2026-04-20 05:40:00","46104","3.73","221.2","5.161","212.5","1012.846","16.57","75.83","44.59","0.0"],
    [1408525,"2026-04-20 05:50:00","46105","2.929","226.8","4.149","212.4","1012.9680000000001","16.59","77.66","80.2","0.0"],
    [1408526,"2026-04-20 06:00:00","46106","2.531","229.2","3.985","206.9","1012.98","16.63","78.66","107.8","0.0"],
    [1408527,"2026-04-20 06:10:00","46107","1.403","232.9","2.777","238.5","1013.076","16.71","77.38","127.5","0.0"],
    [1408528,"2026-04-20 06:20:00","46108","1.534","224.1","2.646","206.5","1013.102","16.87","75.21","140.2","0.0"],
    [1408529,"2026-04-20 06:30:00","46109","2.181","220.0","3.201","211.6","1013.04","16.88","72.45","165.6","0.0"],
    [1408530,"2026-04-20 06:40:00","46110","2.167","229.9","3.528","199.4","1013.071","17.27","70.62","186.3","0.0"],
    [1408531,"2026-04-20 06:50:00","46111","2.0540000000000003","230.4","3.201","229.2","1013.069","17.53","70.87","229.2","0.0"],
    [1408532,"2026-04-20 07:00:00","46112","2.1109999999999998","229.7","3.953","204","1013.05","17.7","70.43","252.8","0.0"],
    [1408533,"2026-04-20 07:10:00","46113","2.509","224.7","4.149","224.5","1013.064","18.01","68.2","310.8","0.0"],
    [1408534,"2026-04-20 07:20:00","46114","2.806","226.3","4.9","212.8","1013.051","18.46","65.37","340.9","0.0"],
    [1408535,"2026-04-20 07:30:00","46115","2.556","226.8","4.345","231.6","1013.1360000000001","19.1","63.6","395.8","0.0"],
    [1408536,"2026-04-20 07:40:00","46116","2.8","222.8","4.769","212.1","1013.164","19.21","67.72","421.5","0.0"],
    [1408537,"2026-04-20 07:50:00","46117","3.089","221.0","5.651","208.1","1013.1669999999999","19.24","69.5","429.8","0.0"],
    [1408538,"2026-04-20 08:00:00","46118","3.8739999999999997","220.9","5.619","218.6","1013.145","19.05","68.97","471.7","0.0"],
    [1408539,"2026-04-20 08:10:00","46119","2.7260000000000004","223.9","4.737","226.6","1013.181","19.13","69.96","464.9","0.0"],
    [1408540,"2026-04-20 08:20:00","46120","2.605","221.7","4.671","202.2","1013.182","19.65","68.52","495.1","0.0"],
    [1408541,"2026-04-20 08:30:00","46121","2.675","225.2","6.011","199.2","1013.205","19.65","66.95","548.4","0.0"],
    [1408542,"2026-04-20 08:40:00","46122","3.261","223.2","6.86","219.8","1013.227","19.97","64.83","606.9","0.0"],
    [1408543,"2026-04-20 08:50:00","46123","3.157","218.8","5.455","223.2","1013.204","20.15","65.46","644.8","0.0"],
    [1408544,"2026-04-20 09:00:00","46124","4.016","215.5","6.827","237.6","1013.232","20.46","65.25","665.8","0.0"],
    [1408545,"2026-04-20 09:10:00","46125","4.902","216.7","6.827","211.1","1013.273","20.16","66.16","689.5","0.0"],
    [1408546,"2026-04-20 09:20:00","46126","3.2760000000000002","203.2","6.337","222.5","1013.303","20.25","69.03","715.0","0.0"],
    [1408547,"2026-04-20 09:30:00","46127","3.88","206.4","7.023","222.3","1013.3560000000001","19.87","72.22","728.9","0.0"],
    [1408548,"2026-04-20 09:40:00","46128","3.7260000000000004","204.7","6.239","204.4","1013.34","19.9","73.53","769.1","0.0"],
    [1408549,"2026-04-20 09:50:00","46129","3.7460000000000004","205.9","6.893","216","1013.2289999999999","19.78","73.43","806.0","0.0"],
    [1408550,"2026-04-20 10:00:00","46130","3.2969999999999997","199.3","6.468","216.7","1013.2610000000001","20.23","71.29","862.0","0.0"],
    [1408551,"2026-04-20 10:10:00","46131","2.9419999999999997","202.8","6.141","187.9","1013.2489999999999","20.31","71.68","725.0","0.0"],
    [1408552,"2026-04-20 10:20:00","46132","3.543","203.1","7.611","221.4","1013.181","20.37","71.65","766.1","0.0"],
    [1408553,"2026-04-20 10:30:00","46133","3.2119999999999997","197.6","5.815","209.7","1013.1210000000001","20.62","71.72","902.0","0.0"],
    [1408554,"2026-04-20 10:40:00","46134","3.346","197.3","5.717","179.7","1013.0260000000001","20.7","68.95","847.0","0.0"],
    [1408555,"2026-04-20 10:50:00","46135","4.329","207.3","6.729","216.6","1013.0089999999999","20.68","67.54","868.0","0.0"],
    [1408556,"2026-04-20 11:00:00","46136","4.183","208.1","7.317","212.2","1013.0169999999999","20.64","67.32","871.0","0.0"],
    [1408557,"2026-04-20 11:10:00","46137","3.8080000000000003","201.9","6.566","186.1","1012.937","20.93","66.53","888.0","0.0"],
    [1408558,"2026-04-20 11:20:00","46138","3.403","192.2","7.089","180.5","1012.832","20.55","68.74","890.0","0.0"],
    [1408559,"2026-04-20 11:30:00","46139","3.985","207.9","6.925","223.1","1012.725","20.91","66.93","900.0","0.0"],
    [1408560,"2026-04-20 11:40:00","46140","3.656","198.9","6.403","225.7","1012.6339999999999","20.89","67.37","902.0","0.0"],
    [1408561,"2026-04-20 11:50:00","46141","3.8169999999999997","203.0","7.644","214.9","1012.568","20.88","66.24","902.0","0.0"],
    [1408562,"2026-04-20 12:00:00","46142","4.204","206.4","7.383","214.6","1012.534","20.75","64.88","899.0","0.0"],
    [1408563,"2026-04-20 12:10:00","46143","4.692","208.7","7.873","200.8","1012.4910000000001","20.65","66.21","893.0","0.0"],
    [1408564,"2026-04-20 12:20:00","46144","3.259","194.8","5.749","215","1012.414","20.64","66.42","894.0","0.0"],
    [1408565,"2026-04-20 12:30:00","46145","3.9930000000000003","205.7","7.089","228.4","1012.377","20.99","65.56","888.0","0.0"],
    [1408566,"2026-04-20 12:40:00","46146","3.948","202.9","7.089","220.8","1012.3430000000001","21.07","65.4","883.0","0.0"],
    [1408567,"2026-04-20 12:50:00","46147","3.2239999999999998","196.1","5.945","209.6","1012.318","21.25","64.53","877.0","0.0"],
    [1408568,"2026-04-20 13:00:00","46148","4.303","204.7","7.448","207.6","1012.2239999999999","20.85","64.91","868.0","0.0"],
    [1408569,"2026-04-20 13:10:00","46149","4.04","208.2","8","213.7","1012.063","21.09","64.64","857.0","0.0"],
    [1408570,"2026-04-20 13:20:00","46150","4.934","214.8","8.26","217.3","1011.955","21.06","61.97","846.0","0.0"],
    [1408571,"2026-04-20 13:30:00","46151","4.92","215.6","8.26","223.5","1011.9010000000001","21.13","61.33","832.0","0.0"],
    [1408572,"2026-04-20 13:40:00","46152","4.405","210.5","8.13","201.4","1011.867","20.82","63.98","815.0","0.0"],
    [1408573,"2026-04-20 13:50:00","46153","4.9319999999999995","216.5","8.59","216.1","1011.8589999999999","21.05","61.97","800.0","0.0"],
    [1408574,"2026-04-20 14:00:00","46154","5.601","217.6","8.62","223.1","1011.805","20.61","61.94","782.5","0.0"],
    [1408575,"2026-04-20 14:10:00","46155","5.149","210.6","8.46","211.2","1011.768","20.74","61.94","761.7","0.0"],
    [1408576,"2026-04-20 14:20:00","46156","3.801","211.3","6.501","222.8","1011.699","21.07","61.21","737.6","0.0"],
    [1408577,"2026-04-20 14:30:00","46157","5.056","211.8","7.873","203.1","1011.6160000000001","21.05","60.54","716.3","0.0"],
    [1408578,"2026-04-20 14:40:00","46158","5.428","215.2","9.73","218.2","1011.544","21.09","59.35","694.0","0.0"],
    [1408579,"2026-04-20 14:50:00","46159","5.559","215.9","8.1","209.9","1011.409","20.97","57.65","674.1","0.0"],
    [1408580,"2026-04-20 15:00:00","46160","6.024","216.4","8.72","231.3","1011.335","20.81","57.57","657.5","0.0"],
    [1408581,"2026-04-20 15:10:00","46161","4.169","214.0","6.631","218.3","1011.263","20.81","58.12","300.7","0.0"],
    [1408582,"2026-04-20 15:20:00","46162","4.32","224.3","7.807","237","1011.237","19.83","61.02","168.2","0.0"],
    [1408583,"2026-04-20 15:30:00","46163","4.055","216.7","7.481","199.5","1011.138","19.34","63.74","150.6","0.0"],
    [1408584,"2026-04-20 15:40:00","46164","4.671","218.9","7.089","231.6","1011.071","19.05","65.79","154.0","0.0"],
    [1408585,"2026-04-20 15:50:00","46165","3.96","216.4","6.305","204.9","1011.087","19.19","66.26","280.4","0.0"],
    [1408586,"2026-04-20 16:00:00","46166","3.8760000000000003","214.0","7.448","210.2","1011.128","19.09","66.57","156.9","0.0"],
    [1408587,"2026-04-20 16:10:00","46167","2.667","206.3","5.815","162.5","1011.2769999999999","18.9","67.03","108.1","0.0"],
    [1408588,"2026-04-20 16:20:00","46168","1.749","205.7","3.43","220.5","1011.439","18.78","68.16","137.8","0.0"],
    [1408589,"2026-04-20 16:30:00","46169","1.7519999999999998","214.4","3.789","211.7","1011.61","19.41","66.91","395.1","0.0"],
    [1408590,"2026-04-20 16:40:00","46170","1.527","211.2","2.646","207.9","1011.747","19.91","63.83","368.4","0.0"],
    [1408591,"2026-04-20 16:50:00","46171","2.156","182.1","3.659","158.9","1011.758","19.55","64.04","323.0","0.0"],
    [1408592,"2026-04-20 17:00:00","46172","2.545","178.3","4.247","209","1011.543","19.41","65.42","279.1","0.0"],
    [1408593,"2026-04-20 17:10:00","46173","1.317","149.0","3.005","201.6","1011.696","19.1","68.37","199.8","0.0"],
    [1408594,"2026-04-20 17:20:00","46174","2.924","74.66","5.521","52.26","1012.296","18.81","71.31","132.1","0.0"],
    [1408595,"2026-04-20 17:30:00","46175","3.9939999999999998","64.96","5.651","63.65","1012.419","18.38","75.42","68.82","0.0"],
    [1408596,"2026-04-20 17:40:00","46176","2.8930000000000002","84.8","4.443","86.9","1012.166","18.01","79.17","83.7","0.0"],
    [1408597,"2026-04-20 17:50:00","46177","2.885","66.11","3.789","52.82","1012.2","18.14","76.63","107.6","0.0"],
    [1408598,"2026-04-20 18:00:00","46178","2.946","73.52","4.149","74.26","1012.056","17.94","79.65","57.87","0.0"],
    [1408599,"2026-04-20 18:10:00","46179","2.239","89.7","3.855","84","1012.069","17.47","83.9","43.14","0.0"],
    [1408600,"2026-04-20 18:20:00","46180","2.194","81.8","3.169","96.9","1012.2769999999999","17.47","85.1","25.45","0.0"],
    [1408601,"2026-04-20 18:30:00","46181","1.6219999999999999","89.0","2.809","108","1012.217","17.35","85.3","11.77","0.0"],
    [1408602,"2026-04-20 18:40:00","46182","1.479","95.1","2.385","107.8","1012.079","17.22","85.8","2.419","0.0"],
    [1408603,"2026-04-20 18:50:00","46183","1.043","97.3","2.744","73.38","1012.039","17.25","83.6","-1.405","0.0"],
    [1408604,"2026-04-20 19:00:00","46184","0.922","117.3","1.862","133.1","1012.069","17.29","82.5","-2.6319999999999997","0.0"],
    [1408605,"2026-04-20 19:10:00","46185","1.47","166.5","3.136","160.7","1012.018","17.3","82.5","-2.694","0.0"],
    [1408606,"2026-04-20 19:20:00","46186","1.9969999999999999","176.6","3.397","180.5","1011.862","17.19","82.9","-2.694","0.0"],
    [1408607,"2026-04-20 19:30:00","46187","1.514","198.7","2.94","169.3","1011.9739999999999","17.2","81.5","-2.694","0.0"],
    [1408608,"2026-04-20 19:40:00","46188","1.504","231.9","2.711","230.6","1012.1339999999999","17.26","82.5","-2.694","0.0"],
    [1408609,"2026-04-20 19:50:00","46189","1.859","222.7","2.94","227.5","1012.1489999999999","17.18","82.9","-2.695","0.0"],
    [1408610,"2026-04-20 20:00:00","46190","1.81","224.1","3.038","224.4","1012.105","17.16","81.8","-2.668","0.0"],
    [1408611,"2026-04-20 20:10:00","46191","1.386","229.1","3.332","203.2","1012.206","17.15","80.6","-2.694","0.0"],
    [1408612,"2026-04-20 20:20:00","46192","1.197","266.3","2.581","287.7","1012.337","17.17","80.0","-2.694","0.0"],
    [1408613,"2026-04-20 20:30:00","46193","1.074","291.4","1.895","316.9","1012.429","16.88","81.8","-2.705","0.0"],
    [1408614,"2026-04-20 20:40:00","46194","0.703","289.7","1.633","310.2","1012.563","16.75","82.5","-2.714","0.0"],
    [1408615,"2026-04-20 20:50:00","46195","0.866","251.8","1.568","251.4","1012.5369999999999","16.81","81.9","-2.737","0.0"],
    [1408616,"2026-04-20 21:00:00","46196","1.455","268.3","2.613","269.7","1012.5310000000001","16.89","80.9","-2.698","0.0"],
    [1408617,"2026-04-20 21:10:00","46197","1.153","255.7","1.96","262.3","1012.529","16.77","81.8","-2.696","0.0"],
    [1408618,"2026-04-20 21:20:00","46198","1.392","270.6","2.287","267.8","1012.4739999999999","16.68","82.3","-2.702","0.0"],
    [1408619,"2026-04-20 21:30:00","46199","0.995","255.1","2.025","261.2","1012.375","16.68","81.9","-2.7110000000000003","0.0"],
    [1408620,"2026-04-20 21:40:00","46200","1.4709999999999999","231.2","2.809","226.4","1012.321","16.87","79.9","-2.707","0.0"],
    [1408621,"2026-04-20 21:50:00","46201","1.864","247.0","3.103","229.7","1012.199","17.0","78.31","-2.701","0.0"],
    [1408622,"2026-04-20 22:00:00","46202","1.344","245.8","3.005","273.7","1012.293","16.92","78.22","-2.698","0.0"],
    [1408623,"2026-04-20 22:10:00","46203","1.528","271.5","2.679","277.2","1012.316","16.75","79.02","-2.697","0.0"],
    [1408624,"2026-04-20 22:20:00","46204","1.401","262.9","2.515","257.9","1012.2389999999999","16.43","80.8","-2.697","0.0"],
    [1408625,"2026-04-20 22:30:00","46205","1.264","249.4","2.287","271.8","1012.169","16.43","80.4","-2.701","0.0"],
    [1408626,"2026-04-20 22:40:00","46206","1.6480000000000001","235.7","2.679","229.4","1012.056","16.51","79.98","-2.705","0.0"],
    [1408627,"2026-04-20 22:50:00","46207","1.486","235.4","2.646","247.7","1011.946","16.59","79.49","-2.702","0.0"],
    [1408628,"2026-04-20 23:00:00","46208","1.413","230.2","2.156","242.7","1011.8560000000001","16.77","78.18","-2.7060000000000004","0.0"],
    [1408629,"2026-04-20 23:10:00","46209","1.205","232.6","2.025","244.7","1011.862","16.55","78.29","-2.702","0.0"],
    [1408630,"2026-04-20 23:20:00","46210","0.929","241.8","1.927","244.2","1011.934","16.46","77.75","-2.705","0.0"],
    [1408631,"2026-04-20 23:30:00","46211","0.809","263.8","1.633","260.5","1011.898","16.3","78.64","-2.71","0.0"],
    [1408632,"2026-04-20 23:40:00","46212","1.297","265.2","1.993","269.3","1011.867","15.92","80.5","-2.818","0.0"],
    [1408633,"2026-04-20 23:50:00","46213","1.146","279.5","2.058","260","1011.8380000000001","15.95","79.97","-2.714","0.0"],
    [1408634,"2026-04-21 00:00:00","46214","1.206","294.1","1.731","303","1011.908","15.36","81.4","-2.7489999999999997","0.0"],
    [1408635,"2026-04-21 00:10:00","46215","0.987","267.2","1.666","274.4","1011.813","15.4","81.8","-2.8480000000000003","0.0"],
    [1408636,"2026-04-21 00:20:00","46216","1.105","260.1","2.189","271.7","1011.75","15.76","79.1","-2.7239999999999998","0.0"],
    [1408637,"2026-04-21 00:30:00","46217","1.197","246.8","2.483","270.1","1011.658","15.88","78.06","-2.719","0.0"],
    [1408638,"2026-04-21 00:40:00","46218","0.99","240.0","2.091","258.8","1011.563","15.84","77.68","-2.7230000000000003","0.0"],
    [1408639,"2026-04-21 00:50:00","46219","1.06","261.8","2.221","276","1011.495","15.6","78.26","-2.7260000000000004","0.0"],
    [1408640,"2026-04-21 01:00:00","46220","1.161","259.8","2.483","247.3","1011.433","15.48","79.05","-2.739","0.0"],
    [1408641,"2026-04-21 01:10:00","46221","1.429","258.7","2.744","247.3","1011.331","15.53","79.56","-2.739","0.0"],
    [1408642,"2026-04-21 01:20:00","46222","1.264","244.1","2.385","266.1","1011.299","15.66","78.93","-2.725","0.0"],
    [1408643,"2026-04-21 01:30:00","46223","1.2429999999999999","274.0","2.646","271.5","1011.1469999999999","15.68","78.7","-2.728","0.0"],
    [1408644,"2026-04-21 01:40:00","46224","1.516","269.9","2.777","292.5","1011.049","15.39","80.2","-2.733","0.0"],
    [1408645,"2026-04-21 01:50:00","46225","1.659","263.3","3.038","264.7","1010.985","15.5","80.1","-2.73","0.0"],
    [1408646,"2026-04-21 02:00:00","46226","1.5130000000000001","266.7","3.038","254.5","1010.956","15.61","79.29","-2.727","0.0"],
    [1408647,"2026-04-21 02:10:00","46227","1.287","269.0","2.287","252.1","1010.868","15.51","79.34","-2.728","0.0"],
    [1408648,"2026-04-21 02:20:00","46228","1.449","256.0","2.842","282.7","1010.663","15.57","78.55","-2.727","0.0"],
    [1408649,"2026-04-21 02:30:00","46229","1.266","258.5","2.646","265.1","1010.613","15.59","77.74","-2.7260000000000004","0.0"],
    [1408650,"2026-04-21 02:40:00","46230","1.55","254.8","2.907","276.7","1010.5889999999999","15.6","77.6","-2.7289999999999996","0.0"],
    [1408651,"2026-04-21 02:50:00","46231","1.538","264.1","2.809","261.8","1010.534","15.32","78.14","-2.7260000000000004","0.0"],
    [1408652,"2026-04-21 03:00:00","46232","1.351","257.3","2.711","265.5","1010.461","15.14","79.22","-2.7260000000000004","0.0"],
    [1408653,"2026-04-21 03:10:00","46233","1.189","271.9","2.777","272.1","1010.4060000000001","15.01","79.49","-2.727","0.0"],
    [1408654,"2026-04-21 03:20:00","46234","1.127","263.7","2.352","285.8","1010.416","14.84","80.0","-2.7319999999999998","0.0"],
    [1408655,"2026-04-21 03:30:00","46235","1.295","258.0","2.613","278.7","1010.3939999999999","14.96","79.29","-2.728","0.0"],
    [1408656,"2026-04-21 03:40:00","46236","1.466","273.1","2.875","277.1","1010.383","15.0","79.16","-2.728","0.0"],
    [1408657,"2026-04-21 03:50:00","46237","1.672","265.7","3.43","259.8","1010.336","15.05","78.8","-2.728","0.0"],
    [1408658,"2026-04-21 04:00:00","46238","1.7180000000000002","264.9","3.332","271.2","1010.3330000000001","14.86","79.22","-2.727","0.0"],
    [1408659,"2026-04-21 04:10:00","46239","1.715","250.5","3.136","258.3","1010.3710000000001","14.89","79.17","-2.727","0.0"],
    [1408660,"2026-04-21 04:20:00","46240","1.568","243.7","3.397","243.2","1010.398","14.96","78.42","-2.728","0.0"],
    [1408661,"2026-04-21 04:30:00","46241","1.7009999999999998","230.1","2.842","245","1010.425","14.87","78.64","-2.727","0.0"],
    [1408662,"2026-04-21 04:40:00","46242","1.609","246.1","3.43","259.3","1010.435","14.96","78.24","-2.7289999999999996","0.0"],
    [1408663,"2026-04-21 04:50:00","46243","1.5530000000000002","248.8","3.267","255.5","1010.4839999999999","15.15","76.96","-2.5269999999999997","0.0"],
    [1408664,"2026-04-21 05:00:00","46244","1.534","238.6","2.646","275","1010.51","15.12","76.45","-0.915","0.0"],
    [1408665,"2026-04-21 05:10:00","46245","1.587","249.9","2.777","271.5","1010.5319999999999","15.26","75.31","2.785","0.0"],
    [1408666,"2026-04-21 05:20:00","46246","1.41","241.9","2.646","246.2","1010.6060000000001","15.29","74.82","9.13","0.0"],
    [1408667,"2026-04-21 05:30:00","46247","1.382","232.1","2.45","243.6","1010.6469999999999","15.36","74.43","24.24","0.0"],
    [1408668,"2026-04-21 05:40:00","46248","1.5530000000000002","231.3","3.234","235.7","1010.691","15.24","75.01","46.86","0.0"],
    [1408669,"2026-04-21 05:50:00","46249","1.534","243.5","3.136","275.6","1010.788","15.25","75.37","74.23","0.0"],
    [1408670,"2026-04-21 06:00:00","46250","1.466","234.2","2.417","219.6","1010.827","15.42","74.58","99.9","0.0"],
    [1408671,"2026-04-21 06:10:00","46251","1.261","252.2","2.679","242.4","1010.85","15.61","73.67","115.6","0.0"],
    [1408672,"2026-04-21 06:20:00","46252","1.7","277.4","3.071","281.7","1010.883","15.68","73.59","160.7","0.0"],
    [1408673,"2026-04-21 06:30:00","46253","2.155","277.5","3.201","270.8","1010.953","15.61","74.31","193.5","0.0"],
    [1408674,"2026-04-21 06:40:00","46254","1.9369999999999998","283.8","3.005","271.9","1011.053","15.88","73.84","213.7","0.0"],
    [1408675,"2026-04-21 06:50:00","46255","1.7469999999999999","306.4","2.548","307.2","1011.1360000000001","16.08","73.05","261.4","0.0"],
    [1408676,"2026-04-21 07:00:00","46256","0.721","290.6","1.274","288.8","1011.195","16.49","72.21","285.2","0.0"],
    [1408677,"2026-04-21 07:10:00","46257","0.332","16.99","1.535","69.24","1011.258","17.28","69.52","319.7","0.0"],
    [1408678,"2026-04-21 07:20:00","46258","1.168","62.08","1.96","60.81","1011.342","17.82","67.52","344.2","0.0"],
    [1408679,"2026-04-21 07:30:00","46259","1.276","67.34","2.123","73.39","1011.342","18.15","66.42","379.8","0.0"],
    [1408680,"2026-04-21 07:40:00","46260","1.3359999999999999","65.36","2.221","57.31","1011.316","18.35","66.87","425.2","0.0"],
    [1408681,"2026-04-21 07:50:00","46261","0.917","52.44","1.47","76.94","1011.367","18.82","65.11","445.8","0.0"],
    [1408682,"2026-04-21 08:00:00","46262","0.5579999999999999","55.36","1.405","59.76","1011.387","19.19","63.49","456.2","0.0"],
    [1408683,"2026-04-21 08:10:00","46263","1.226","83.8","2.613","83.4","1011.429","19.76","60.77","512.9","0.0"],
    [1408684,"2026-04-21 08:20:00","46264","2.089","73.36","2.973","59.51","1011.422","19.66","63.25","536.5","0.0"],
    [1408685,"2026-04-21 08:30:00","46265","2.662","78.89","3.789","73.87","1011.445","19.41","62.3","562.5","0.0"],
    [1408686,"2026-04-21 08:40:00","46266","2.622","80.2","3.724","87.9","1011.47","19.7","60.48","615.1","0.0"],
    [1408687,"2026-04-21 08:50:00","46267","2.7569999999999997","75.58","3.985","74.42","1011.5089999999999","19.69","60.26","638.2","0.0"],
    [1408688,"2026-04-21 09:00:00","46268","3.264","70.21","4.377","84.1","1011.5369999999999","19.3","62.53","670.7","0.0"],
    [1408689,"2026-04-21 09:10:00","46269","3.266","77.85","4.704","74.73","1011.555","19.37","63.75","701.2","0.0"],
    [1408690,"2026-04-21 09:20:00","46270","3.032","78.62","4.051","83.6","1011.625","19.41","64.53","720.7","0.0"],
    [1408691,"2026-04-21 09:30:00","46271","2.214","96.5","3.528","87.6","1011.672","19.34","65.19","752.6","0.0"],
    [1408692,"2026-04-21 09:40:00","46272","2.4290000000000003","91.4","3.332","80.3","1011.61","19.04","67.34","760.4","0.0"],
    [1408693,"2026-04-21 09:50:00","46273","2.447","83.2","3.92","99.9","1011.561","19.23","67.79","771.6","0.0"],
    [1408694,"2026-04-21 10:00:00","46274","2.444","81.8","3.495","79.72","1011.5269999999999","19.49","67.39","772.5","0.0"],
    [1408695,"2026-04-21 10:10:00","46275","1.41","103.6","3.267","99.1","1011.502","20.02","65.43","810.0","0.0"],
    [1408696,"2026-04-21 10:20:00","46276","1.974","213.3","3.463","229.4","1011.433","20.76","62.53","834.0","0.0"],
    [1408697,"2026-04-21 10:30:00","46277","1.881","199.0","4.083","216.5","1011.337","20.64","62.11","851.0","0.0"],
    [1408698,"2026-04-21 10:40:00","46278","1.8630000000000002","202.0","3.561","232","1011.248","21.06","59.63","860.0","0.0"],
    [1408699,"2026-04-21 10:50:00","46279","2.318","212.5","4.345","206.8","1011.187","21.11","58.02","881.0","0.0"],
    [1408700,"2026-04-21 11:00:00","46280","2.05","208.0","4.051","202.9","1011.125","20.99","58.59","889.0","0.0"],
    [1408701,"2026-04-21 11:10:00","46281","2.355","204.6","3.691","213.8","1011.092","20.96","58.68","895.0","0.0"],
    [1408702,"2026-04-21 11:20:00","46282","2.412","190.7","4.345","229.1","1011.043","21.0","59.49","894.0","0.0"],
    [1408703,"2026-04-21 11:30:00","46283","2.395","166.3","4.181","162.3","1011.02","20.89","58.66","911.0","0.0"],
    [1408704,"2026-04-21 11:40:00","46284","2.987","173.2","4.247","162","1010.923","20.33","57.62","915.0","0.0"],
    [1408705,"2026-04-21 11:50:00","46285","2.2680000000000002","185.3","3.92","230.8","1010.8389999999999","21.19","58.7","920.0","0.0"],
    [1408706,"2026-04-21 12:00:00","46286","1.4140000000000001","115.0","2.973","121.8","1010.732","21.27","62.78","856.0","0.0"],
    [1408707,"2026-04-21 12:10:00","46287","1.756","108.0","3.332","82.1","1010.679","20.55","65.79","834.0","0.0"],
    [1408708,"2026-04-21 12:20:00","46288","1.95","108.1","3.528","121.7","1010.5880000000001","20.36","68.26","754.5","0.0"],
    [1408709,"2026-04-21 12:30:00","46289","2.03","100.3","3.92","99.7","1010.554","20.13","69.44","771.7","0.0"],
    [1408710,"2026-04-21 12:40:00","46290","2.041","113.6","4.181","108.7","1010.5319999999999","19.93","70.89","863.0","0.0"],
    [1408711,"2026-04-21 12:50:00","46291","1.365","163.5","4.443","165.9","1010.508","20.28","67.24","888.0","0.0"],
    [1408712,"2026-04-21 13:00:00","46292","1.4","158.4","3.561","183.3","1010.4910000000001","20.53","67.6","868.0","0.0"],
    [1408713,"2026-04-21 13:10:00","46293","1.54","101.5","3.071","72.1","1010.435","20.58","69.79","862.0","0.0"],
    [1408714,"2026-04-21 13:20:00","46294","1.913","105.5","3.887","94.5","1010.313","20.38","70.94","855.0","0.0"],
    [1408715,"2026-04-21 13:30:00","46295","1.954","112.9","4.214","108.5","1010.2760000000001","20.24","72.91","843.0","0.0"],
    [1408716,"2026-04-21 13:40:00","46296","1.484","118.4","3.332","111.2","1010.2660000000001","20.54","70.71","824.0","0.0"],
    [1408717,"2026-04-21 13:50:00","46297","1.655","117.4","3.43","79.55","1010.2139999999999","20.59","70.79","804.0","0.0"],
    [1408718,"2026-04-21 14:00:00","46298","1.453","148.2","4.149","229.1","1010.182","21.12","65.4","790.0","0.0"],
    [1408719,"2026-04-21 14:10:00","46299","2.144","194.0","3.985","191.2","1010.178","21.6","60.68","754.1","0.0"],
    [1408720,"2026-04-21 14:20:00","46300","2.563","173.8","3.887","162.8","1010.145","20.95","62.52","731.0","0.0"],
    [1408721,"2026-04-21 14:30:00","46301","3.245","177.5","4.639","164.2","1010.073","20.44","60.2","695.1","0.0"],
    [1408722,"2026-04-21 14:40:00","46302","3.014","185.3","4.965","178","1009.992","20.98","60.12","690.8","0.0"],
    [1408723,"2026-04-21 14:50:00","46303","2.6310000000000002","182.2","4.541","190.5","1009.9119999999999","20.65","65.72","681.3","0.0"],
    [1408724,"2026-04-21 15:00:00","46304","2.978","182.9","5.063","186.7","1009.78","20.68","64.84","646.1","0.0"],
    [1408725,"2026-04-21 15:10:00","46305","2.7569999999999997","174.5","4.377","162.7","1009.6239999999999","20.63","64.62","618.9","0.0"],
    [1408726,"2026-04-21 15:20:00","46306","2.6069999999999998","177.4","4.769","159.4","1009.546","20.57","63.99","596.2","0.0"],
    [1408727,"2026-04-21 15:30:00","46307","2.7680000000000002","171.6","4.835","174.9","1009.455","20.41","60.56","572.3","0.0"],
    [1408728,"2026-04-21 15:40:00","46308","2.897","206.7","4.704","217.7","1009.518","20.89","60.07","521.7","0.0"],
    [1408729,"2026-04-21 15:50:00","46309","2.792","201.2","4.671","200.7","1009.552","20.96","60.5","470.7","0.0"],
    [1408730,"2026-04-21 16:00:00","46310","2.6919999999999997","203.2","4.41","217.6","1009.595","20.64","57.72","378.2","0.0"],
    [1408731,"2026-04-21 16:10:00","46311","2.984","202.6","4.802","218.5","1009.607","20.5","64.85","360.3","0.0"],
    [1408732,"2026-04-21 16:20:00","46312","3.033","201.8","4.998","210.3","1009.607","20.1","70.49","329.2","0.0"],
    [1408733,"2026-04-21 16:30:00","46313","2.859","202.4","4.541","219.2","1009.627","19.96","73.16","336.0","0.0"],
    [1408734,"2026-04-21 16:40:00","46314","2.6489999999999996","204.6","5.031","214.8","1009.6310000000001","20.18","73.24","338.1","0.0"],
    [1408735,"2026-04-21 16:50:00","46315","2.866","201.7","5.129","218.1","1009.502","20.12","72.94","345.7","0.0"],
    [1408736,"2026-04-21 17:00:00","46316","3.0069999999999997","210.6","5.88","220.2","1009.48","20.05","71.7","293.4","0.0"],
    [1408737,"2026-04-21 17:10:00","46317","2.8680000000000003","208.8","5.357","212.5","1009.4680000000001","20.03","71.61","253.8","0.0"],
    [1408738,"2026-04-21 17:20:00","46318","3.3310000000000004","208.7","5.423","199.3","1009.453","19.55","71.58","199.4","0.0"],
    [1408739,"2026-04-21 17:30:00","46319","2.989","208.6","4.867","211.1","1009.6410000000001","19.39","73.07","156.9","0.0"],
    [1408740,"2026-04-21 17:40:00","46320","2.747","214.7","4.41","223.8","1009.802","19.23","73.1","112.4","0.0"],
    [1408741,"2026-04-21 17:50:00","46321","2.5180000000000002","213.5","5.423","222","1009.878","19.0","72.89","52.39","0.0"],
    [1408742,"2026-04-21 18:00:00","46322","3.181","218.6","5.259","229.2","1009.915","18.83","75.12","45.82","0.0"],
    [1408743,"2026-04-21 18:10:00","46323","2.7680000000000002","207.6","4.802","223.1","1009.872","18.56","78.03","22.08","0.0"],
    [1408744,"2026-04-21 18:20:00","46324","1.035","215.6","3.561","183","1010.0160000000001","18.32","79.49","13.14","0.0"],
    [1408745,"2026-04-21 18:30:00","46325","1.425","217.7","2.842","220.2","1010.159","18.04","80.3","6.347","0.0"],
    [1408746,"2026-04-21 18:40:00","46326","1.766","215.1","3.267","207.5","1010.2589999999999","18.05","80.9","0.845","0.0"],
    [1408747,"2026-04-21 18:50:00","46327","1.594","198.2","3.169","216.3","1010.2189999999999","17.88","81.9","-1.871","0.0"],
    [1408748,"2026-04-21 19:00:00","46328","1.685","210.5","3.626","196","1010.252","17.82","82.7","-2.6860000000000004","0.0"],
    [1408749,"2026-04-21 19:10:00","46329","2.401","211.8","4.965","200.9","1010.304","17.78","83.2","-2.701","0.0"],
    [1408750,"2026-04-21 19:20:00","46330","2.702","211.2","4.639","236.6","1010.3530000000001","17.7","83.9","-2.694","0.0"],
    [1408751,"2026-04-21 19:30:00","46331","1.577","221.1","4.214","223.5","1010.385","17.62","84.7","-2.697","0.0"],
    [1408752,"2026-04-21 19:40:00","46332","1.956","215.9","3.43","215.3","1010.415","17.5","85.5","-2.7","0.0"],
    [1408753,"2026-04-21 19:50:00","46333","1.859","209.1","3.626","217.6","1010.488","17.56","85.9","-2.695","0.0"],
    [1408754,"2026-04-21 20:00:00","46334","2.323","209.3","3.855","207.3","1010.4889999999999","17.55","86.2","-2.7030000000000003","0.0"],
    [1408755,"2026-04-21 20:10:00","46335","1.6780000000000002","215.4","3.103","210.3","1010.505","17.53","86.3","-2.694","0.0"],
    [1408756,"2026-04-21 20:20:00","46336","2.7039999999999997","218.2","4.671","202.5","1010.5830000000001","17.47","86.6","-2.693","0.0"],
    [1408757,"2026-04-21 20:30:00","46337","2.3409999999999997","215.2","4.41","230.9","1010.6110000000001","17.46","86.9","-2.6830000000000003","0.0"],
    [1408758,"2026-04-21 20:40:00","46338","2.29","211.1","5.227","217.8","1010.567","17.37","87.4","-2.6889999999999996","0.0"],
    [1408759,"2026-04-21 20:50:00","46339","2.832","213.1","6.631","235.4","1010.569","17.44","86.8","-2.6910000000000003","0.0"],
    [1408760,"2026-04-21 21:00:00","46340","3.3539999999999996","216.0","6.795","225.1","1010.554","17.51","86.0","-2.6719999999999997","0.0"],
    [1408761,"2026-04-21 21:10:00","46341","2.603","214.6","4.377","224","1010.627","17.48","87.1","-2.511","0.0"],
    [1408762,"2026-04-21 21:20:00","46342","2.334","215.9","3.43","205.4","1010.645","17.35","88.6","-2.653","0.0"],
    [1408763,"2026-04-21 21:30:00","46343","2.7260000000000004","216.3","4.149","210.8","1010.581","17.29","89.1","-2.6830000000000003","0.0"],
    [1408764,"2026-04-21 21:40:00","46344","2.23","218.3","3.43","221","1010.563","17.33","88.9","-2.6860000000000004","0.0"],
    [1408765,"2026-04-21 21:50:00","46345","2.59","211.3","3.724","207.9","1010.59","17.31","88.8","-2.677","0.0"],
    [1408766,"2026-04-21 22:00:00","46346","2.6630000000000003","217.7","4.181","223.9","1010.6160000000001","17.25","89.0","-2.6910000000000003","0.0"],
    [1408767,"2026-04-21 22:10:00","46347","2.784","220.4","4.083","229.8","1010.638","17.2","88.9","-2.693","0.0"],
    [1408768,"2026-04-21 22:20:00","46348","2.7489999999999997","215.7","3.92","223","1010.675","17.16","88.4","-2.695","0.0"],
    [1408769,"2026-04-21 22:30:00","46349","3.284","217.3","4.639","225.4","1010.795","17.2","88.7","-2.694","0.0"],
    [1408770,"2026-04-21 22:40:00","46350","3.0269999999999997","213.0","4.443","208.6","1010.8530000000001","17.14","88.5","-2.694","0.0"],
    [1408771,"2026-04-21 22:50:00","46351","2.351","215.5","3.365","229","1010.903","17.04","87.9","-2.696","0.0"],
    [1408772,"2026-04-21 23:00:00","46352","2.18","218.4","3.169","215.1","1010.8530000000001","17.01","87.3","-2.7089999999999996","0.0"],
    [1408773,"2026-04-21 23:10:00","46353","1.9880000000000002","224.1","2.744","227.7","1010.834","16.96","87.4","-2.707","0.0"],
    [1408774,"2026-04-21 23:20:00","46354","1.3119999999999998","223.4","2.156","244.5","1010.7339999999999","16.8","87.5","-2.783","0.0"],
    [1408775,"2026-04-21 23:30:00","46355","0.784","251.4","1.568","259.5","1010.709","16.37","86.4","-2.903","0.0"],
    [1408776,"2026-04-21 23:40:00","46356","0.941","269.7","1.437","247.3","1010.745","15.92","84.9","-3.306","0.0"],
    [1408777,"2026-04-21 23:50:00","46357","1.232","236.0","2.123","257.6","1010.835","15.96","83.0","-3.389","0.0"],
    [1408778,"2026-04-22 00:00:00","46358","1.61","229.3","2.548","212","1010.943","16.12","80.5","-3.324","0.0"],
    [1408779,"2026-04-22 00:10:00","46359","1.844","228.0","2.842","223","1011.013","16.31","81.7","-2.853","0.0"],
    [1408780,"2026-04-22 00:20:00","46360","1.976","230.1","2.777","234.5","1011.1160000000001","16.32","82.6","-2.7239999999999998","0.0"],
    [1408781,"2026-04-22 00:30:00","46361","1.47","231.0","2.875","242.2","1010.9830000000001","16.37","83.4","-2.717","0.0"],
    [1408782,"2026-04-22 00:40:00","46362","0.759","249.1","1.895","245","1010.939","16.15","82.0","-2.7230000000000003","0.0"],
    [1408783,"2026-04-22 00:50:00","46363","1.123","282.7","2.156","294.9","1010.953","15.33","76.78","-2.718","0.0"],
    [1408784,"2026-04-22 01:00:00","46364","0.728","257.6","1.274","271.1","1010.7289999999999","14.83","74.2","-2.862","0.0"],
    [1408785,"2026-04-22 01:10:00","46365","0.212","245.2","1.111","273.8","1010.375","15.24","69.08","-2.21","0.0"],
    [1408786,"2026-04-22 01:20:00","46366","0.392","231.0","1.241","229","1010.2560000000001","15.45","67.88","-2.1519999999999997","0.0"],
    [1408787,"2026-04-22 01:30:00","46367","0.718","220.7","1.764","237.2","1010.166","15.71","66.73","-2.282","0.0"],
    [1408788,"2026-04-22 01:40:00","46368","0.084","293.5","0.947","288.9","1009.9860000000001","15.47","67.77","-2.799","0.0"],
    [1408789,"2026-04-22 01:50:00","46369","0.39399999999999996","189.8","1.111","182.7","1009.921","15.45","68.2","-2.9560000000000004","0.0"],
    [1408790,"2026-04-22 02:00:00","46370","0.8390000000000001","245.2","1.503","202.3","1010.029","15.09","69.49","-2.742","0.0"],
    [1408791,"2026-04-22 02:10:00","46371","1.3130000000000002","220.5","1.862","232.3","1009.914","14.92","68.96","-2.7289999999999996","0.0"],
    [1408792,"2026-04-22 02:20:00","46372","1.411","240.3","1.993","226.5","1009.883","14.9","67.88","-2.688","0.0"],
    [1408793,"2026-04-22 02:30:00","46373","1.19","243.5","2.025","250.3","1009.822","14.85","68.48","-2.69","0.0"],
    [1408794,"2026-04-22 02:40:00","46374","1.216","242.6","2.319","249.9","1009.816","14.85","69.1","-2.7260000000000004","0.0"],
    [1408795,"2026-04-22 02:50:00","46375","1.2690000000000001","245.4","2.417","244.3","1009.832","14.83","70.03","-2.728","0.0"],
    [1408796,"2026-04-22 03:00:00","46376","1.183","256.6","1.993","266.6","1009.7810000000001","14.68","71.02","-2.728","0.0"],
    [1408797,"2026-04-22 03:10:00","46377","1.3840000000000001","261.8","2.94","267.3","1009.7689999999999","14.54","71.33","-2.727","0.0"],
    [1408798,"2026-04-22 03:20:00","46378","1.96","263.0","3.593","254.8","1009.78","14.41","71.3","-2.7230000000000003","0.0"],
    [1408799,"2026-04-22 03:30:00","46379","1.232","265.2","2.156","275.3","1009.7280000000001","14.38","71.79","-2.728","0.0"],
    [1408800,"2026-04-22 03:40:00","46380","2.281","274.7","3.365","274.2","1009.6410000000001","14.16","72.25","-2.6689999999999996","0.0"],
    [1408801,"2026-04-22 03:50:00","46381","1.449","246.2","2.287","251.7","1009.6139999999999","14.24","72.24","-2.693","0.0"],
    [1408802,"2026-04-22 04:00:00","46382","1.7480000000000002","276.7","2.646","277.1","1009.706","14.32","72.08","-2.5980000000000003","0.0"],
    [1408803,"2026-04-22 04:10:00","46383","1.504","273.4","2.45","263.8","1009.8610000000001","13.97","73.67","-2.655","0.0"],
    [1408804,"2026-04-22 04:20:00","46384","1.0590000000000002","259.5","2.287","257.1","1010.0","13.81","75.18","-2.717","0.0"],
    [1408805,"2026-04-22 04:30:00","46385","1.146","258.4","2.189","238.2","1010.013","14.21","75.8","-2.6689999999999996","0.0"],
    [1408806,"2026-04-22 04:40:00","46386","1.148","267.9","1.895","288.2","1010.002","14.03","76.33","-2.088","0.0"],
    [1408807,"2026-04-22 04:50:00","46387","1.29","263.3","2.091","279.9","1010.102","13.93","75.75","-1.403","0.0"],
    [1408808,"2026-04-22 05:00:00","46388","1.611","228.2","3.234","258.1","1010.188","14.88","78.66","-0.89","0.0"],
    [1408809,"2026-04-22 05:10:00","46389","1.7109999999999999","231.7","2.711","253","1010.19","15.12","81.8","2.18","0.0"],
    [1408810,"2026-04-22 05:20:00","46390","1.121","240.6","2.679","241.2","1010.321","15.17","82.7","10.32","0.0"],
    [1408811,"2026-04-22 05:30:00","46391","1.022","251.2","2.091","279.7","1010.425","14.95","81.1","23.6","0.0"],
    [1408812,"2026-04-22 05:40:00","46392","1.291","278.0","2.679","276.1","1010.688","14.29","79.93","46.38","0.0"],
    [1408813,"2026-04-22 05:50:00","46393","1.517","283.3","2.319","294","1010.9169999999999","14.23","77.23","73.11","0.0"],
    [1408814,"2026-04-22 06:00:00","46394","1.383","296.2","2.483","302.6","1010.995","14.39","74.7","113.6","0.0"],
    [1408815,"2026-04-22 06:10:00","46395","0.813","275.2","1.993","266","1011.013","14.74","72.62","132.0","0.0"],
    [1408816,"2026-04-22 06:20:00","46396","0.763","263.8","1.699","265.9","1010.9910000000001","15.09","71.68","130.1","0.0"],
    [1408817,"2026-04-22 06:30:00","46397","1.2930000000000001","259.8","2.613","280.1","1011.184","15.18","71.68","121.0","0.0"],
    [1408818,"2026-04-22 06:40:00","46398","1.354","265.9","2.613","286.7","1011.28","15.75","70.34","192.7","0.0"],
    [1408819,"2026-04-22 06:50:00","46399","1.906","282.6","2.711","286.5","1011.482","15.73","67.24","206.7","0.0"],
    [1408820,"2026-04-22 07:00:00","46400","1.169","290.7","1.993","288.8","1011.51","15.78","67.08","186.2","0.0"],
    [1408821,"2026-04-22 07:10:00","46401","0.843","242.8","1.862","216.2","1011.68","16.37","66.37","220.6","0.0"],
    [1408822,"2026-04-22 07:20:00","46402","1.374","282.7","2.123","284","1011.81","16.56","65.2","255.1","0.0"],
    [1408823,"2026-04-22 07:30:00","46403","0.68","229.0","1.601","263.7","1011.799","17.41","63.55","340.2","0.0"],
    [1408824,"2026-04-22 07:40:00","46404","1.18","217.9","2.319","233.4","1012.007","17.9","61.29","301.3","0.0"],
    [1408825,"2026-04-22 07:50:00","46405","1.2930000000000001","212.6","1.927","206.1","1012.068","17.7","61.5","256.9","0.0"],
    [1408826,"2026-04-22 08:00:00","46406","1.111","209.1","1.666","204.4","1012.1010000000001","18.28","59.32","409.4","0.0"],
    [1408827,"2026-04-22 08:10:00","46407","0.875","211.8","1.797","192.9","1012.115","19.11","57.43","492.7","0.0"],
    [1408828,"2026-04-22 08:20:00","46408","1.462","216.2","2.875","221.9","1012.14","19.76","54.75","507.4","0.0"],
    [1408829,"2026-04-22 08:30:00","46409","2.215","206.5","4.443","170.1","1012.245","19.7","58.74","555.3","0.0"],
    [1408830,"2026-04-22 08:40:00","46410","1.9580000000000002","208.0","3.789","175.1","1012.3610000000001","20.0","58.34","584.6","0.0"],
    [1408831,"2026-04-22 08:50:00","46411","1.9240000000000002","206.4","3.463","219","1012.345","20.6","54.26","631.5","0.0"],
    [1408832,"2026-04-22 09:00:00","46412","1.084","218.5","2.679","195.3","1012.3389999999999","20.78","54.94","658.4","0.0"],
    [1408833,"2026-04-22 10:10:00","46418","2.8110000000000004","177.1","3.626","175.6","1012.77","19.87","71.82","729.4","0.0"],
    [1408834,"2026-04-22 10:20:00","46419","2.327","187.4","3.822","214.2","1012.735","20.16","71.99","831.0","0.0"],
    [1408835,"2026-04-22 10:30:00","46420","2.437","174.7","4.345","165.5","1012.694","20.44","70.37","838.0","0.0"],
    [1408836,"2026-04-22 10:40:00","46421","2.009","170.6","4.377","159.5","1012.681","20.11","70.4","804.0","0.0"],
    [1408837,"2026-04-22 10:50:00","46422","1.3619999999999999","149.5","3.299","137.8","1012.633","20.75","69.28","847.0","0.0"],
    [1408838,"2026-04-22 11:00:00","46423","1.655","108.3","4.083","86.6","1012.628","20.8","68.85","874.0","0.0"],
    [1408839,"2026-04-22 11:10:00","46424","1.288","159.1","3.136","168.5","1012.732","20.23","70.92","892.0","0.0"],
    [1408840,"2026-04-22 11:20:00","46425","1.406","108.3","2.907","128.9","1012.817","20.19","71.19","838.0","0.0"],
    [1408841,"2026-04-22 11:30:00","46426","3.865","89.7","6.207","90.3","1012.77","19.97","74.03","893.0","0.0"],
    [1408842,"2026-04-22 11:40:00","46427","4.148","83.5","5.815","62.8","1012.825","19.26","79.31","908.0","0.0"],
    [1408843,"2026-04-22 11:50:00","46428","4.21","81.2","5.815","74.28","1012.967","19.25","80.7","967.0","0.0"],
    [1408844,"2026-04-22 12:00:00","46429","4.543","81.6","6.207","71.76","1012.977","19.19","80.2","909.0","0.0"],
    [1408845,"2026-04-22 12:10:00","46430","4.671","87.6","6.207","95.6","1012.98","19.1","80.9","905.0","0.0"],
    [1408846,"2026-04-22 12:20:00","46431","4.684","81.9","6.893","89.9","1013.049","19.29","80.6","896.0","0.0"],
    [1408847,"2026-04-22 12:30:00","46432","4.707","83.5","6.566","88","1013.057","19.23","80.8","900.0","0.0"],
    [1408848,"2026-04-22 12:40:00","46433","4.373","85.8","6.272","85.6","1013.128","19.2","81.2","866.0","0.0"],
    [1408849,"2026-04-22 12:50:00","46434","3.991","88.7","5.88","73.29","1013.2539999999999","19.46","80.6","854.0","0.0"],
    [1408850,"2026-04-22 13:00:00","46435","4.666","83.8","6.533","86.8","1013.2860000000001","19.46","80.2","845.0","0.0"],
    [1408851,"2026-04-22 13:10:00","46436","4.144","88.8","5.717","83.7","1013.297","19.64","79.4","832.0","0.0"],
    [1408852,"2026-04-22 13:20:00","46437","4.657","84.2","6.795","82.7","1013.2769999999999","19.63","79.63","756.5","0.0"],
    [1408853,"2026-04-22 13:30:00","46438","5.343","84.7","6.86","86.4","1013.2289999999999","19.48","79.0","746.0","0.0"],
    [1408854,"2026-04-22 13:40:00","46439","5.8839999999999995","82.7","7.677","93.2","1013.2489999999999","18.93","77.16","557.0","0.0"],
    [1408855,"2026-04-22 13:50:00","46440","5.162999999999999","80.5","6.925","91.5","1013.2669999999999","18.89","75.25","603.4","0.0"],
    [1408856,"2026-04-22 14:00:00","46441","5.5729999999999995","74.98","7.154","80.6","1013.196","19.22","72.06","727.0","0.0"],
    [1408857,"2026-04-22 14:10:00","46442","5.072","72.88","6.729","56.33","1013.2639999999999","19.29","72.86","765.3","0.0"],
    [1408858,"2026-04-22 14:20:00","46443","5.277","74.16","6.893","67.66","1013.3589999999999","18.99","74.16","657.7","0.0"],
    [1408859,"2026-04-22 14:30:00","46444","4.849","82.5","6.305","76.15","1013.5169999999999","18.78","74.92","612.1","0.0"],
    [1408860,"2026-04-22 14:40:00","46445","4.863","81.8","6.141","78.01","1013.554","18.83","75.3","626.1","0.0"],
    [1408861,"2026-04-22 14:50:00","46446","4.489","82.8","5.945","84.9","1013.436","18.82","75.02","585.0","0.0"],
    [1408862,"2026-04-22 15:00:00","46447","4.086","82.1","6.011","77.01","1013.439","18.88","75.73","542.5","0.0"],
    [1408863,"2026-04-22 15:10:00","46448","4.082","78.32","5.553","78.43","1013.567","18.71","76.76","358.0","0.0"],
    [1408864,"2026-04-22 15:20:00","46449","3.728","73.71","5.031","61.61","1013.693","18.5","78.53","416.0","0.0"],
    [1408865,"2026-04-22 15:30:00","46450","4.011","75.38","5.717","86.5","1013.865","18.7","78.54","594.6","0.0"],
    [1408866,"2026-04-22 15:40:00","46451","4.457","72.19","5.553","74.66","1013.847","18.72","78.66","577.9","0.0"],
    [1408867,"2026-04-22 15:50:00","46452","4.7780000000000005","71.05","6.762","72.4","1013.8910000000001","18.8","78.7","526.4","0.0"],
    [1408868,"2026-04-22 16:00:00","46453","5.197","61.8","7.219","66.88","1014.033","18.76","78.74","329.3","0.0"],
    [1408869,"2026-04-22 16:10:00","46454","6.119","55.76","9.08","58.62","1014.007","18.56","79.79","379.7","0.0"],
    [1408870,"2026-04-22 16:20:00","46455","6.784","54.75","8.92","44.88","1014.0210000000001","18.03","81.4","376.1","0.0"],
    [1408871,"2026-04-22 16:30:00","46456","6.443","53.49","9.47","51.27","1014.084","18.11","80.4","376.6","0.0"],
    [1408872,"2026-04-22 16:40:00","46457","6.246","53.48","8.69","55.36","1013.936","17.96","80.6","323.6","0.0"],
    [1408873,"2026-04-22 16:50:00","46458","6.176","55.95","8.49","56.21","1013.961","17.85","80.3","290.2","0.0"],
    [1408874,"2026-04-22 17:00:00","46459","6.172999999999999","55.99","9.21","59.47","1013.862","17.78","80.3","255.9","0.0"],
    [1408875,"2026-04-22 17:10:00","46460","5.9110000000000005","55.58","8.4","47.98","1013.875","17.63","80.9","222.2","0.0"],
    [1408876,"2026-04-22 17:20:00","46461","5.202999999999999","57.3","7.415","55.38","1014.086","17.5","81.3","189.0","0.0"],
    [1408877,"2026-04-22 17:30:00","46462","4.712","52.16","7.187","47.22","1014.3919999999999","17.41","80.6","144.5","0.0"],
    [1408878,"2026-04-22 17:40:00","46463","3.688","56.01","5.782","44.72","1014.909","17.26","81.1","88.8","0.0"],
    [1408879,"2026-04-22 17:50:00","46464","3.1839999999999997","53.8","4.181","58.96","1015.27","17.2","82.0","76.28","0.0"],
    [1408880,"2026-04-22 18:00:00","46465","3.168","58.42","4.606","72.61","1015.327","17.1","83.2","60.73","0.0"],
    [1408881,"2026-04-22 18:10:00","46466","3.339","53.07","5.488","57.47","1015.368","17.22","83.4","63.49","0.0"],
    [1408882,"2026-04-22 18:20:00","46467","3.417","62.06","5.227","52.51","1015.211","17.14","84.4","36.68","0.0"],
    [1408883,"2026-04-22 18:30:00","46468","3.641","60.69","5.259","64.13","1015.303","17.04","85.3","12.22","0.0"],
    [1408884,"2026-04-22 18:40:00","46469","3.472","58.39","4.802","70.76","1015.572","16.99","86.0","3.267","0.0"],
    [1408885,"2026-04-22 18:50:00","46470","3.713","61.25","5.978","72.68","1015.742","16.95","86.3","-0.17800000000000002","0.0"],
    [1408886,"2026-04-22 19:00:00","46471","5.15","62.16","7.644","71.02","1015.64","17.04","85.8","-1.1","0.0"],
    [1408887,"2026-04-22 19:10:00","46472","6.555","66.33","9.57","69.02","1015.495","17.02","86.4","-1.557","0.0"],
    [1408888,"2026-04-22 19:20:00","46473","6.192","71.57","9.57","74.05","1015.6239999999999","16.9","86.4","-1.619","0.0"],
    [1408889,"2026-04-22 19:30:00","46474","6.374","69.81","9.57","66.97","1015.7260000000001","16.86","85.5","-1.561","0.0"],
    [1408890,"2026-04-22 19:40:00","46475","7.042000000000001","69.17","10.65","76.04","1015.802","16.79","85.9","-1.227","0.0"],
    [1408891,"2026-04-22 19:50:00","46476","6.775","64.97","9.96","68.63","1016.061","16.75","85.7","-1.197","0.0"],
    [1408892,"2026-04-22 20:00:00","46477","7.561","63.17","11.73","55.27","1016.1410000000001","16.82","84.2","-1.193","0.0"],
    [1408893,"2026-04-22 20:10:00","46478","8.5","62.65","11.89","65.99","1016.262","16.89","82.3","-1.193","0.0"],
    [1408894,"2026-04-22 20:20:00","46479","8.05","60.62","13.46","58.2","1016.3989999999999","16.89","82.7","-1.345","0.0"],
    [1408895,"2026-04-22 20:30:00","46480","8.25","62.42","13.16","64.47","1016.63","16.85","82.8","-1.7990000000000002","0.0"],
    [1408896,"2026-04-22 20:40:00","46481","7.768","61.71","11.92","67.03","1016.8969999999999","16.89","81.9","-1.2309999999999999","0.0"],
    [1408897,"2026-04-22 20:50:00","46482","7.042999999999999","62.11","10.42","68.33","1016.885","16.87","82.7","-1.193","0.0"],
    [1408898,"2026-04-22 21:00:00","46483","6.018","60.52","8.53","67.45","1016.9989999999999","16.83","82.6","-1.194","0.0"],
    [1408899,"2026-04-22 21:10:00","46484","6.167000000000001","59.68","9.83","53.78","1017.096","16.84","81.3","-1.195","0.0"],
    [1408900,"2026-04-22 21:20:00","46485","6.2","55.9","9.73","55.2","1017.252","16.83","81.6","-1.195","0.0"],
    [1408901,"2026-04-22 21:30:00","46486","6.117999999999999","55.93","8.66","61.46","1017.335","16.8","81.7","-1.227","0.0"],
    [1408902,"2026-04-22 21:40:00","46487","4.898","57.84","7.448","53.27","1017.8639999999999","16.77","81.9","-1.5719999999999998","0.0"],
    [1408903,"2026-04-22 21:50:00","46488","4.99","58.87","7.317","60.25","1017.972","16.87","82.2","-0.85","0.0"],
    [1408904,"2026-04-22 22:00:00","46489","6.591","59.33","9.67","64.19","1017.9910000000001","16.88","83.8","-0.473","0.0"],
    [1408905,"2026-04-22 22:10:00","46490","6.795","57.32","9.08","46.27","1018.078","16.72","85.8","-0.44799999999999995","0.0"],
    [1408906,"2026-04-22 22:20:00","46491","6.466","62.26","9.64","75.63","1018.191","16.68","86.6","-0.455","0.0"],
    [1408907,"2026-04-22 22:30:00","46492","6.912000000000001","61.66","9.51","59.64","1018.112","16.63","87.2","-0.455","0.0"],
    [1408908,"2026-04-22 22:40:00","46493","6.325","57.6","9.67","59.33","1017.811","16.6","87.4","-0.513","0.0"],
    [1408909,"2026-04-22 22:50:00","46494","7.021","56.53","11.27","57.7","1017.6030000000001","16.5","87.4","-1.084","0.0"],
    [1408910,"2026-04-22 23:00:00","46495","7.881","53.54","11.92","51.23","1017.633","16.38","87.4","-1.193","0.0"],
    [1408911,"2026-04-22 23:10:00","46496","7.981","57.72","11.96","66.32","1017.539","16.31","87.0","-1.193","0.0"],
    [1408912,"2026-04-22 23:20:00","46497","7.421","57.9","11.24","53.8","1017.6460000000001","16.3","87.6","-1.193","0.0"],
    [1408913,"2026-04-22 23:30:00","46498","8.19","52.92","11.73","50.51","1017.704","16.19","87.5","-1.196","0.0"],
    [1408914,"2026-04-22 23:40:00","46499","7.06","52.66","11.2","50.86","1017.8","16.14","87.3","-1.2","0.0"],
    [1408915,"2026-04-22 23:50:00","46500","6.981","53.37","10.62","57.77","1017.9889999999999","16.09","87.0","-1.2830000000000001","0.0"],
    [1408916,"2026-04-23 00:00:00","46501","6.505","54.96","10.22","48.92","1018.069","16.04","86.3","-1.626","0.0"],
    [1408917,"2026-04-23 00:10:00","46502","6.485","56.43","10.26","60.01","1018.0989999999999","16.03","86.0","-1.834","0.0"],
    [1408918,"2026-04-23 00:20:00","46503","6.892","59.03","10.26","60.01","1017.9739999999999","16.01","85.7","-1.726","0.0"],
    [1408919,"2026-04-23 00:30:00","46504","7.277","59.4","10.65","70.04","1017.987","15.98","85.0","-1.6","0.0"],
    [1408920,"2026-04-23 00:40:00","46505","6.801","57.84","10.62","65.6","1018.023","15.93","84.4","-1.767","0.0"],
    [1408921,"2026-04-23 00:50:00","46506","6.225","57.89","9.54","51.67","1018.102","15.93","84.1","-1.9240000000000002","0.0"],
    [1408922,"2026-04-23 01:00:00","46507","6.814","55.89","9.51","56.43","1018.155","15.96","82.9","-1.925","0.0"],
    [1408923,"2026-04-23 01:10:00","46508","6.614","55.76","10.29","43.63","1018.029","16.0","82.1","-1.9280000000000002","0.0"],
    [1408924,"2026-04-23 01:20:00","46509","6.002000000000001","57.61","8.56","70.22","1018.195","16.0","82.0","-1.943","0.0"],
    [1408925,"2026-04-23 01:30:00","46510","6.222","58.84","9.6","62.12","1018.288","15.98","82.3","-1.922","0.0"],
    [1408926,"2026-04-23 01:40:00","46511","6.025","61.45","8.33","71.39","1018.294","15.97","82.1","-1.9169999999999998","0.0"],
    [1408927,"2026-04-23 01:50:00","46512","5.7620000000000005","61.85","8.79","63.18","1018.294","15.89","82.4","-1.9480000000000002","0.0"],
    [1408928,"2026-04-23 02:00:00","46513","6.468999999999999","60.31","9.54","67.4","1018.312","15.85","82.2","-1.944","0.0"],
    [1408929,"2026-04-23 02:10:00","46514","6.022","55.82","8.49","60.84","1018.3610000000001","15.83","82.1","-1.9469999999999998","0.0"],
    [1408930,"2026-04-23 02:20:00","46515","6.22","55.07","8.56","49.65","1018.35","15.8","81.4","-1.949","0.0"],
    [1408931,"2026-04-23 02:30:00","46516","6.641","55.55","10.06","50","1018.36","15.84","79.77","-1.9569999999999999","0.0"],
    [1408932,"2026-04-23 02:40:00","46517","6.042000000000001","59.07","9.41","57.41","1018.375","15.86","80.3","-1.9509999999999998","0.0"],
    [1408933,"2026-04-23 02:50:00","46518","5.854","58.65","8.3","47.98","1018.3710000000001","15.78","81.5","-1.95","0.0"],
    [1408934,"2026-04-23 03:00:00","46519","5.199","56.93","8.26","59.41","1018.434","15.73","81.8","-1.955","0.0"],
    [1408935,"2026-04-23 03:10:00","46520","4.895","58.09","7.775","63.64","1018.3560000000001","15.69","82.9","-1.9580000000000002","0.0"],
    [1408936,"2026-04-23 03:20:00","46521","5.247000000000001","59.06","7.611","64.34","1018.4169999999999","15.64","83.2","-1.9709999999999999","0.0"],
    [1408937,"2026-04-23 03:30:00","46522","5.242999999999999","60.91","7.807","67.63","1018.436","15.62","83.1","-1.986","0.0"],
    [1408938,"2026-04-23 03:40:00","46523","5.317","57.73","7.513","75.92","1018.409","15.61","82.5","-1.969","0.0"],
    [1408939,"2026-04-23 03:50:00","46524","5.69","57.15","8.2","66.43","1018.398","15.63","82.5","-1.9709999999999999","0.0"],
    [1408940,"2026-04-23 04:00:00","46525","6.305","51.21","8.89","42.64","1018.419","15.67","81.5","-1.545","0.0"],
    [1408941,"2026-04-23 04:10:00","46526","6.067","51.53","9.54","48.32","1018.423","15.78","79.82","-1.209","0.0"],
    [1408942,"2026-04-23 04:20:00","46527","5.5729999999999995","49.78","8.4","48.08","1018.3689999999999","15.85","79.44","-1.209","0.0"],
    [1408943,"2026-04-23 04:30:00","46528","4.618","48.2","7.546","51.86","1018.502","15.9","79.29","-1.162","0.0"],
    [1408944,"2026-04-23 04:40:00","46529","5.16","55.3","8.26","50.44","1018.5930000000001","15.95","79.8","-1.037","0.0"],
    [1408945,"2026-04-23 04:50:00","46530","5.395","51.91","8.49","56.59","1018.6360000000001","15.93","79.9","-0.456","0.0"],
    [1408946,"2026-04-23 05:00:00","46531","6.7989999999999995","51.05","9.41","62.77","1018.63","15.96","78.64","0.925","0.0"],
    [1408947,"2026-04-23 05:10:00","46532","5.944","48.79","8.79","49.74","1018.6560000000001","15.93","78.48","4.056","0.0"],
    [1408948,"2026-04-23 05:20:00","46533","5.478","45.81","8.26","45.47","1018.704","15.84","77.79","10.38","0.0"],
    [1408949,"2026-04-23 05:30:00","46534","5.003","45.33","7.905","39.38","1018.763","15.87","77.55","22.05","0.0"],
    [1408950,"2026-04-23 05:40:00","46535","5.297999999999999","47.04","8.43","36.19","1018.883","15.93","77.09","38.9","0.0"],
    [1408951,"2026-04-23 05:50:00","46536","5.13","46.69","7.938","52.6","1019.04","16.01","77.15","55.56","0.0"],
    [1408952,"2026-04-23 06:00:00","46537","5.205","47.5","8.4","37.11","1019.122","16.12","76.91","70.04","0.0"],
    [1408953,"2026-04-23 06:10:00","46538","4.138999999999999","48.99","6.435","56.4","1019.2330000000001","16.1","78.14","85.5","0.0"],
    [1408954,"2026-04-23 06:20:00","46539","5.229","47.98","7.775","36.67","1019.3589999999999","16.29","76.16","166.1","0.0"],
    [1408955,"2026-04-23 06:30:00","46540","4.275","46.97","6.141","40.35","1019.472","16.6","74.5","160.4","0.0"],
    [1408956,"2026-04-23 06:40:00","46541","5.234","52.4","8.04","58.34","1019.4739999999999","16.5","75.49","112.3","0.0"],
    [1408957,"2026-04-23 06:50:00","46542","5.881","52.77","8.79","56.86","1019.572","16.28","76.06","81.1","0.0"],
    [1408958,"2026-04-23 07:00:00","46543","6.269","54.07","8.85","52.24","1019.692","16.42","74.44","226.0","0.0"],
    [1408959,"2026-04-23 07:10:00","46544","6.789","52.5","9.77","56.99","1019.8380000000001","16.87","72.47","316.2","0.0"],
    [1408960,"2026-04-23 07:20:00","46545","7.4","53.01","12.09","48.29","1019.86","17.0","72.19","359.5","0.0"],
    [1408961,"2026-04-23 07:30:00","46546","7.722","52.86","10.88","47.03","1019.89","17.04","71.82","353.6","0.0"],
    [1408962,"2026-04-23 07:40:00","46547","7.301","52.37","11.11","46.71","1020.035","17.18","71.42","411.8","0.0"],
    [1408963,"2026-04-23 07:50:00","46548","7.097","51.52","10.88","55.9","1020.155","17.35","70.81","448.1","0.0"],
    [1408964,"2026-04-23 08:00:00","46549","7.417000000000001","53.23","11.04","45.02","1020.227","17.54","69.87","469.7","0.0"],
    [1408965,"2026-04-23 08:10:00","46550","7.603","55.04","10.16","58.02","1020.327","17.39","70.25","401.1","0.0"],
    [1408966,"2026-04-23 08:20:00","46551","8.13","53.25","11.34","55.87","1020.332","17.45","70.46","529.1","0.0"],
    [1408967,"2026-04-23 08:30:00","46552","7.867000000000001","54.75","10.94","51.72","1020.3589999999999","17.69","69.8","579.2","0.0"],
    [1408968,"2026-04-23 08:40:00","46553","7.694","53.1","11.76","60.64","1020.427","17.77","69.73","608.1","0.0"],
    [1408969,"2026-04-23 08:50:00","46554","7.7139999999999995","52.93","10.19","59.26","1020.507","17.93","69.16","635.8","0.0"],
    [1408970,"2026-04-23 09:00:00","46555","7.5089999999999995","53.8","11.17","62.91","1020.6339999999999","18.09","68.83","666.6","0.0"],
    [1408971,"2026-04-23 09:10:00","46556","7.319","51.53","11.07","49.74","1020.7610000000001","18.25","68.8","706.5","0.0"],
    [1408972,"2026-04-23 09:20:00","46557","7.386","53.5","9.8","39.15","1020.822","17.83","70.48","685.4","0.0"],
    [1408973,"2026-04-23 09:30:00","46558","6.7139999999999995","57.79","8.92","45.75","1020.8489999999999","18.3","68.64","705.6","0.0"],
    [1408974,"2026-04-23 09:40:00","46559","7.069","54.67","10.29","47.27","1020.8739999999999","18.45","67.9","764.7","0.0"],
    [1408975,"2026-04-23 09:50:00","46560","6.723","56.2","9.73","58.23","1020.914","18.8","66.67","780.0","0.0"],
    [1408976,"2026-04-23 10:00:00","46561","7.12","56.29","10.32","49.7","1020.8969999999999","18.86","64.57","799.5","0.0"],
    [1408977,"2026-04-23 10:10:00","46562","7.648","57.31","10.32","65.13","1020.8810000000001","18.94","61.88","816.0","0.0"],
    [1408978,"2026-04-23 10:20:00","46563","7.242999999999999","55.12","10.03","62.33","1020.8639999999999","19.1","61.26","834.0","0.0"],
    [1408979,"2026-04-23 10:30:00","46564","7.079","55.37","10.81","46.8","1020.827","19.13","59.83","848.0","0.0"],
    [1408980,"2026-04-23 10:40:00","46565","7.506","54.07","11.96","48.38","1020.847","19.02","60.03","863.0","0.0"],
    [1408981,"2026-04-23 10:50:00","46566","7.976","56.15","10.94","46.98","1020.794","18.97","60.21","876.0","0.0"],
    [1408982,"2026-04-23 11:00:00","46567","7.527","55.39","10.09","53.18","1020.788","19.05","60.49","885.0","0.0"],
    [1408983,"2026-04-23 11:10:00","46568","5.7989999999999995","57.61","8.89","50.66","1020.73","19.52","59.52","895.0","0.0"],
    [1408984,"2026-04-23 11:20:00","46569","6.829","63.83","9.77","67.45","1020.663","19.22","60.78","896.0","0.0"],
    [1408985,"2026-04-23 11:30:00","46570","6.7010000000000005","65.68","9.21","71.1","1020.607","19.13","60.7","908.0","0.0"],
    [1408986,"2026-04-23 11:40:00","46571","7.28","66.24","10.45","65.48","1020.6060000000001","19.27","59.89","906.0","0.0"],
    [1408987,"2026-04-23 11:50:00","46572","7.787000000000001","71.24","10.71","70.53","1020.556","19.16","57.08","907.0","0.0"],
    [1408988,"2026-04-23 12:00:00","46573","7.507000000000001","73.79","10.26","78.43","1020.451","19.47","53.15","908.0","0.0"],
    [1408989,"2026-04-23 12:10:00","46574","7.244","73.78","10.65","74.84","1020.3760000000001","19.41","52.32","905.0","0.0"],
    [1408990,"2026-04-23 12:20:00","46575","7.176","69.32","9.73","69.88","1020.326","19.53","52.71","902.0","0.0"],
    [1408991,"2026-04-23 12:30:00","46576","7.2139999999999995","68.66","10.49","95.6","1020.372","19.58","53.5","899.0","0.0"],
    [1408992,"2026-04-23 12:40:00","46577","7.685","70.95","11.2","73.91","1020.433","19.4","53.3","892.0","0.0"],
    [1408993,"2026-04-23 12:50:00","46578","7.872999999999999","70.5","10.81","75.39","1020.443","19.53","53.57","883.0","0.0"],
    [1408994,"2026-04-23 13:00:00","46579","6.994","66.72","10.49","82.4","1020.416","19.22","56.08","875.0","0.0"],
    [1408995,"2026-04-23 13:10:00","46580","6.982","68.46","9.54","70.94","1020.395","19.16","56.99","864.0","0.0"],
    [1408996,"2026-04-23 13:20:00","46581","7.395","66.13","10","65.7","1020.365","19.08","57.69","851.0","0.0"],
    [1408997,"2026-04-23 13:30:00","46582","8.15","69.34","11.11","68.09","1020.2410000000001","18.91","57.14","837.0","0.0"],
    [1408998,"2026-04-23 13:40:00","46583","7.94","66.87","10.88","76.18","1020.0989999999999","18.94","58.85","821.0","0.0"],
    [1408999,"2026-04-23 13:50:00","46584","8.15","72.38","11.01","72.44","1019.9639999999999","19.03","55.77","805.0","0.0"],
    [1409000,"2026-04-23 14:00:00","46585","7.821000000000001","71.07","10.78","63.42","1019.942","18.83","56.95","787.0","0.0"],
    [1409001,"2026-04-23 14:10:00","46586","7.09","67.2","9.77","67.98","1019.985","18.94","56.8","767.2","0.0"],
    [1409002,"2026-04-23 14:20:00","46587","6.791","65.13","10.32","71","1019.936","18.77","58.49","744.5","0.0"],
    [1409003,"2026-04-23 14:30:00","46588","6.64","59.87","10.13","47.32","1019.852","18.66","59.45","727.9","0.0"],
    [1409004,"2026-04-23 14:40:00","46589","6.757000000000001","53.57","9.7","66.72","1019.7439999999999","18.71","61.06","681.5","0.0"],
    [1409005,"2026-04-23 14:50:00","46590","6.854","57.42","9.8","60.46","1019.68","18.46","62.89","675.5","0.0"],
    [1409006,"2026-04-23 15:00:00","46591","7.091","60.72","10.13","67.34","1019.605","18.44","62.55","615.4","0.0"],
    [1409007,"2026-04-23 15:10:00","46592","6.497999999999999","56.9","10.98","52.02","1019.58","18.46","63.3","609.4","0.0"],
    [1409008,"2026-04-23 15:20:00","46593","6.635","55.86","9.9","41.13","1019.5419999999999","18.36","64.61","555.4","0.0"],
    [1409009,"2026-04-23 15:30:00","46594","6.912999999999999","54.5","9.67","42.14","1019.449","18.23","66.16","564.3","0.0"],
    [1409010,"2026-04-23 15:40:00","46595","7.277","55.81","10.03","47.61","1019.3789999999999","18.06","68.05","531.8","0.0"],
    [1409011,"2026-04-23 15:50:00","46596","6.947","55.72","9.77","56.75","1019.405","17.97","69.38","495.8","0.0"],
    [1409012,"2026-04-23 16:00:00","46597","6.317","56.23","8.82","52.4","1019.3710000000001","18.08","70.38","437.5","0.0"],
    [1409013,"2026-04-23 16:10:00","46598","6.447","58.45","9.38","50.84","1019.2689999999999","18.07","70.19","413.8","0.0"],
    [1409014,"2026-04-23 16:20:00","46599","6.457999999999999","58.78","10.06","68.71","1019.155","17.98","71.16","369.1","0.0"],
    [1409015,"2026-04-23 16:30:00","46600","6.56","61.13","10.32","72.44","1019.128","17.77","72.2","354.9","0.0"],
    [1409016,"2026-04-23 16:40:00","46601","6.871","62.53","9.34","71.42","1019.107","17.72","72.37","322.5","0.0"],
    [1409017,"2026-04-23 16:50:00","46602","6.997000000000001","64.85","9.96","50.9","1019.067","17.58","72.87","290.3","0.0"],
    [1409018,"2026-04-23 17:00:00","46603","7.182","62.61","10.52","64.29","1019.0830000000001","17.4","73.89","256.4","0.0"],
    [1409019,"2026-04-23 17:10:00","46604","6.917999999999999","62.35","9.87","60.94","1019.013","17.31","74.24","222.8","0.0"],
    [1409020,"2026-04-23 17:20:00","46605","7.347","63.37","11.14","63.19","1018.951","17.19","73.11","191.6","0.0"],
    [1409021,"2026-04-23 17:30:00","46606","7.1160000000000005","65.68","10.06","70.84","1018.919","17.12","71.94","155.9","0.0"],
    [1409022,"2026-04-23 17:40:00","46607","7.191","63.67","9.93","69.67","1018.84","17.01","69.96","114.3","0.0"],
    [1409023,"2026-04-23 17:50:00","46608","6.959","60.95","10.42","57.65","1018.865","16.87","69.82","92.1","0.0"],
    [1409024,"2026-04-23 18:00:00","46609","6.351","59.6","9.34","72.93","1018.966","16.81","70.0","74.5","0.0"],
    [1409025,"2026-04-23 18:10:00","46610","6.885","57.82","9.83","44.07","1018.985","16.68","70.53","53.09","0.0"],
    [1409026,"2026-04-23 18:20:00","46611","6.331","57.69","10.16","52.36","1019.023","16.58","72.32","29.39","0.0"],
    [1409027,"2026-04-23 18:30:00","46612","6.771","58.78","9.24","54.41","1019.0039999999999","16.46","71.93","14.0","0.0"],
    [1409028,"2026-04-23 18:40:00","46613","6.962000000000001","55.75","9.54","45.65","1018.993","16.37","71.97","4.288","0.0"],
    [1409029,"2026-04-23 18:50:00","46614","6.4270000000000005","56.39","9.21","63.37","1019.059","16.33","71.71","-0.094","0.0"],
    [1409030,"2026-04-23 19:00:00","46615","6.6579999999999995","57.06","9.44","57.03","1019.09","16.28","71.27","-1.61","0.0"],
    [1409031,"2026-04-23 19:10:00","46616","5.952000000000001","57.76","9.08","53.05","1019.061","16.26","71.75","-1.9769999999999999","0.0"],
    [1409032,"2026-04-23 19:20:00","46617","5.961","54.45","8.82","69.87","1019.1410000000001","16.24","71.5","-1.992","0.0"],
    [1409033,"2026-04-23 19:30:00","46618","5.871","52.1","8.75","49.54","1019.2410000000001","16.18","71.78","-1.99","0.0"],
    [1409034,"2026-04-23 19:40:00","46619","5.517","50.77","8.36","45.27","1019.314","16.16","71.34","-2.04","0.0"],
    [1409035,"2026-04-23 19:50:00","46620","5.757000000000001","54.56","7.775","54.56","1019.461","16.13","71.59","-2.072","0.0"],
    [1409036,"2026-04-23 20:00:00","46621","5.301","52.78","7.579","49.47","1019.534","16.08","72.01","-2.043","0.0"],
    [1409037,"2026-04-23 20:10:00","46622","4.775","52.26","7.252","44.02","1019.672","16.05","72.17","-2.481","0.0"],
    [1409038,"2026-04-23 20:20:00","46623","4.644","52.79","6.86","56.75","1019.7310000000001","16.03","71.77","-2.313","0.0"],
    [1409039,"2026-04-23 20:30:00","46624","4.354","51.15","6.762","61.85","1019.765","15.98","72.08","-2.562","0.0"],
    [1409040,"2026-04-23 20:50:00","46625","4.425","53.07","6.991","58.14","1019.6669999999999","15.92","72.4","-2.647","0.0"],
    [1409041,"2026-04-23 21:00:00","46626","4.09","51.41","6.664","57.02","1019.6510000000001","15.93","72.49","-2.56","0.0"],
    [1409042,"2026-04-23 21:10:00","46627","3.96","49.7","7.252","37.42","1019.643","15.89","72.58","-2.59","0.0"],
    [1409043,"2026-04-23 21:20:00","46628","3.802","47.8","6.109","54.26","1019.6669999999999","15.88","72.15","-2.366","0.0"],
    [1409044,"2026-04-23 21:30:00","46629","3.573","49.96","5.945","36.43","1019.73","15.86","72.75","-2.568","0.0"],
    [1409045,"2026-04-23 21:40:00","46630","3.003","49.82","4.41","61.92","1019.722","15.87","72.74","-2.164","0.0"],
    [1409046,"2026-04-23 21:50:00","46631","3.7060000000000004","48.29","6.37","43.16","1019.7189999999999","15.91","71.33","-1.949","0.0"],
    [1409047,"2026-04-23 22:00:00","46632","3.011","48.73","4.933","49.45","1019.721","15.95","73.34","-1.8969999999999998","0.0"],
    [1409048,"2026-04-23 22:10:00","46633","2.5989999999999998","46.68","4.018","62.19","1019.745","15.95","74.78","-1.406","0.0"],
    [1409049,"2026-04-23 22:20:00","46634","3.034","45.88","5.39","42.27","1019.666","15.92","74.87","-1.673","0.0"],
    [1409050,"2026-04-23 22:30:00","46635","3.327","50.71","5.031","65.29","1019.6","15.81","74.58","-1.9609999999999999","0.0"],
    [1409051,"2026-04-23 22:40:00","46636","2.905","52.6","4.671","58.04","1019.5880000000001","15.73","74.9","-1.996","0.0"],
    [1409052,"2026-04-23 22:50:00","46637","3.2910000000000004","55.55","5.553","85.6","1019.6139999999999","15.7","75.42","-1.834","0.0"],
    [1409053,"2026-04-23 23:00:00","46638","2.872","50.81","5.455","51.5","1019.5369999999999","15.71","75.38","-1.273","0.0"],
    [1409054,"2026-04-23 23:10:00","46639","2.9939999999999998","48.18","4.312","46.18","1019.465","15.7","71.43","-1.349","0.0"],
    [1409055,"2026-04-23 23:20:00","46640","2.708","48.94","4.018","37.49","1019.4010000000001","15.76","69.3","-1.275","0.0"],
    [1409056,"2026-04-23 23:30:00","46641","2.8310000000000004","50.53","4.606","57.58","1019.387","15.79","68.95","-1.205","0.0"],
    [1409057,"2026-04-23 23:40:00","46642","3.045","45.48","4.312","38.69","1019.3589999999999","15.86","69.55","-1.107","0.0"],
    [1409058,"2026-04-23 23:50:00","46643","2.952","47.55","4.083","52.2","1019.3889999999999","15.88","69.86","-0.8340000000000001","0.0"],
    [1409059,"2026-04-24 00:00:00","46644","3.233","41.21","5.161","48.95","1019.33","15.9","69.71","-0.7340000000000001","0.0"],
    [1409060,"2026-04-24 00:10:00","46645","2.668","45.92","4.769","31.54","1019.193","15.94","69.62","-1.01","0.0"],
    [1409061,"2026-04-24 00:20:00","46646","3.125","56.41","4.606","56.59","1019.096","15.9","69.44","-1.133","0.0"],
    [1409062,"2026-04-24 00:30:00","46647","2.9360000000000004","55.62","4.508","45.23","1018.987","15.8","70.32","-1.198","0.0"],
    [1409063,"2026-04-24 00:40:00","46648","2.372","58.37","3.953","47.95","1018.985","15.71","70.39","-1.204","0.0"],
    [1409064,"2026-04-24 00:50:00","46649","2.571","57.75","3.887","46.42","1018.928","15.71","69.53","-1.203","0.0"],
    [1409065,"2026-04-24 01:00:00","46650","2.781","63.68","3.789","69.78","1018.89","15.77","69.83","-1.192","0.0"],
    [1409066,"2026-04-24 01:10:00","46651","2.977","57.31","4.345","46.97","1018.77","15.75","69.74","-1.196","0.0"],
    [1409067,"2026-04-24 01:20:00","46652","2.5789999999999997","56.05","3.626","62.72","1018.7","15.69","68.94","-1.202","0.0"],
    [1409068,"2026-04-24 01:30:00","46653","2.588","56.1","4.116","51.7","1018.665","15.64","68.3","-1.203","0.0"],
    [1409069,"2026-04-24 01:40:00","46654","1.85","53.93","2.613","64.84","1018.6310000000001","15.65","67.09","-1.198","0.0"],
    [1409070,"2026-04-24 01:50:00","46655","1.554","48.19","2.809","46.05","1018.549","15.63","65.53","-1.23","0.0"],
    [1409071,"2026-04-24 02:00:00","46656","1.46","49.9","2.189","37.85","1018.49","15.54","64.89","-1.9280000000000002","0.0"],
    [1409072,"2026-04-24 02:10:00","46657","1.66","56.24","2.123","46.13","1018.426","15.52","64.8","-1.952","0.0"],
    [1409073,"2026-04-24 02:20:00","46658","1.472","44.71","2.613","48.03","1018.4119999999999","15.48","63.77","-1.527","0.0"],
    [1409074,"2026-04-24 02:30:00","46659","1.8219999999999998","47.72","2.907","49.68","1018.3989999999999","15.61","61.57","-1.3230000000000002","0.0"],
    [1409075,"2026-04-24 02:40:00","46660","1.709","38.96","2.842","34.72","1018.422","15.66","60.41","-1.568","0.0"],
    [1409076,"2026-04-24 02:50:00","46661","1.287","41.06","2.091","23.61","1018.428","15.69","59.79","-2.108","0.0"],
    [1409077,"2026-04-24 03:00:00","46662","0.85","37.0","1.862","48.98","1018.408","15.42","60.8","-2.662","0.0"],
    [1409078,"2026-04-24 03:10:00","46663","0.7290000000000001","45.35","1.143","51.81","1018.438","15.4","61.15","-1.81","0.0"],
    [1409079,"2026-04-24 03:20:00","46664","1.1520000000000001","276.5","2.189","269.5","1018.42","15.1","63.33","-1.276","0.0"],
    [1409080,"2026-04-24 03:30:00","46665","1.6","278.4","2.091","275.4","1018.3539999999999","14.24","67.04","-1.594","0.0"],
    [1409081,"2026-04-24 03:40:00","46666","1.6869999999999998","270.9","2.287","276","1018.3489999999999","13.75","69.03","-2.103","0.0"],
    [1409082,"2026-04-24 03:50:00","46667","2.113","276.3","2.777","268.9","1018.372","13.58","69.41","-1.4780000000000002","0.0"],
    [1409083,"2026-04-24 04:00:00","46668","1.896","276.6","2.515","274.6","1018.403","13.42","69.7","-1.219","0.0"],
    [1409084,"2026-04-24 04:10:00","46669","1.585","263.8","2.417","270.3","1018.487","13.41","69.59","-0.795","0.0"],
    [1409085,"2026-04-24 04:20:00","46670","1.085","275.6","1.829","261.3","1018.466","13.43","69.0","-1.036","0.0"],
    [1409086,"2026-04-24 04:30:00","46671","0.894","284.3","1.699","278.5","1018.413","13.51","68.56","-1.2229999999999999","0.0"],
    [1409087,"2026-04-24 04:40:00","46672","1.11","282.3","1.633","279.1","1018.428","13.6","67.98","-1.227","0.0"],
    [1409088,"2026-04-24 04:50:00","46673","0.971","261.6","1.372","269.9","1018.482","13.75","66.99","-0.166","0.0"],
    [1409089,"2026-04-24 05:00:00","46674","1.261","264.6","1.96","271.3","1018.507","13.92","65.6","2.883","0.0"],
    [1409090,"2026-04-24 05:10:00","46675","1.19","288.3","1.829","278.7","1018.5010000000001","13.96","65.51","7.627000000000001","0.0"],
    [1409091,"2026-04-24 05:20:00","46676","0.9009999999999999","283.9","1.601","291.1","1018.587","14.08","64.75","18.81","0.0"],
    [1409092,"2026-04-24 05:30:00","46677","0.441","263.2","1.372","286.3","1018.709","14.29","63.92","28.7","0.0"],
    [1409093,"2026-04-24 05:40:00","46678","0.738","281.2","1.731","258.1","1018.822","14.55","62.79","47.16","0.0"],
    [1409094,"2026-04-24 05:50:00","46679","1.115","275.6","1.927","294.2","1018.96","14.68","62.12","69.49","0.0"],
    [1409095,"2026-04-24 06:00:00","46680","1.396","276.2","1.96","280.9","1019.068","14.7","62.25","80.5","0.0"],
    [1409096,"2026-04-24 06:10:00","46681","1.507","282.8","2.189","283.7","1019.13","14.76","62.04","90.7","0.0"],
    [1409097,"2026-04-24 06:20:00","46682","1.7380000000000002","287.3","2.45","308.1","1019.125","14.97","61.06","130.6","0.0"],
    [1409098,"2026-04-24 06:30:00","46683","1.469","296.5","2.45","308.1","1019.084","15.51","58.84","217.9","0.0"],
    [1409099,"2026-04-24 06:40:00","46684","1.411","299.2","2.156","297.5","1019.052","16.26","56.49","239.6","0.0"],
    [1409100,"2026-04-24 06:50:00","46685","1.32","298.4","1.96","299.6","1018.9860000000001","16.53","55.44","248.7","0.0"],
    [1409101,"2026-04-24 07:00:00","46686","1.4769999999999999","295.6","2.254","273.8","1018.9630000000001","16.77","54.22","276.4","0.0"],
    [1409102,"2026-04-24 07:10:00","46687","1.21","295.6","1.96","290","1018.895","17.16","53.72","304.8","0.0"],
    [1409103,"2026-04-24 07:20:00","46688","0.35100000000000003","294.2","1.764","300.3","1018.802","17.63","53.27","341.1","0.0"],
    [1409104,"2026-04-24 07:30:00","46689","0.38299999999999995","324.4","1.437","285.5","1018.7769999999999","18.21","51.76","374.7","0.0"],
    [1409105,"2026-04-24 07:40:00","46690","1.725","78.56","3.071","92.6","1018.799","18.03","53.62","408.8","0.0"],
    [1409106,"2026-04-24 07:50:00","46691","2.059","92.7","2.777","92.4","1018.791","17.64","52.55","444.7","0.0"],
    [1409107,"2026-04-24 08:00:00","46692","1.599","89.2","2.744","86.1","1018.76","17.79","54.45","447.8","0.0"],
    [1409108,"2026-04-24 08:10:00","46693","2.315","95.2","3.92","91.5","1018.674","17.82","55.33","514.6","0.0"],
    [1409109,"2026-04-24 08:20:00","46694","3.315","84.0","4.312","84.2","1018.671","17.75","57.02","532.5","0.0"],
    [1409110,"2026-04-24 08:30:00","46695","3.693","76.23","5.096","88","1018.717","17.6","54.79","589.0","0.0"],
    [1409111,"2026-04-24 08:40:00","46696","3.508","84.1","5.325","94.7","1018.794","17.65","54.3","616.3","0.0"],
    [1409112,"2026-04-24 08:50:00","46697","3.386","88.7","4.802","82.4","1018.738","17.38","58.24","638.9","0.0"],
    [1409113,"2026-04-24 09:00:00","46698","2.984","92.5","4.475","88.2","1018.664","17.58","60.35","662.5","0.0"],
    [1409114,"2026-04-24 09:10:00","46699","3.343","90.9","4.606","81.7","1018.703","17.24","64.15","644.7","0.0"],
    [1409115,"2026-04-24 09:20:00","46700","3.642","87.2","5.586","78.36","1018.7660000000001","17.34","67.79","660.7","0.0"],
    [1409116,"2026-04-24 09:30:00","46701","3.3569999999999998","93.1","5.292","83.8","1018.796","17.26","69.82","699.1","0.0"],
    [1409117,"2026-04-24 09:40:00","46702","3.133","93.2","5.129","83.2","1018.8839999999999","17.44","70.3","785.7","0.0"],
    [1409118,"2026-04-24 09:50:00","46703","3.83","93.9","5.259","93.1","1018.9580000000001","17.19","70.19","796.0","0.0"],
    [1409119,"2026-04-24 10:00:00","46704","3.595","97.1","5.292","96.9","1019.047","17.24","70.31","795.6","0.0"],
    [1409120,"2026-04-24 10:10:00","46705","3.424","97.7","5.063","93.9","1019.107","17.36","70.05","805.0","0.0"],
    [1409121,"2026-04-24 10:20:00","46706","4.393","95.7","6.043","101.2","1019.253","17.16","72.1","841.0","0.0"],
    [1409122,"2026-04-24 10:30:00","46707","4.789","92.3","6.337","95.1","1019.2860000000001","17.23","73.14","857.0","0.0"],
    [1409123,"2026-04-24 10:40:00","46708","3.931","96.2","6.533","105","1019.211","17.35","74.91","870.0","0.0"],
    [1409124,"2026-04-24 10:50:00","46709","3.912","95.8","5.423","84.9","1019.138","17.34","75.61","830.0","0.0"],
    [1409125,"2026-04-24 11:00:00","46710","3.8569999999999998","97.6","5.651","81","1019.063","17.43","75.94","891.0","0.0"],
    [1409126,"2026-04-24 11:10:00","46711","3.678","94.0","5.978","78.57","1019.08","17.8","75.02","878.0","0.0"],
    [1409127,"2026-04-24 11:20:00","46712","3.7110000000000003","97.8","5.945","78.63","1019.057","17.48","74.49","925.0","0.0"],
    [1409128,"2026-04-24 11:30:00","46713","3.475","98.4","5.782","107","1018.985","17.91","72.5","922.0","0.0"],
    [1409129,"2026-04-24 11:40:00","46714","3.142","98.4","5.063","84","1018.936","18.11","73.09","884.0","0.0"],
    [1409130,"2026-04-24 11:50:00","46715","3.759","97.4","5.684","106.3","1018.972","17.66","72.88","833.0","0.0"],
    [1409131,"2026-04-24 12:00:00","46716","3.802","98.3","5.913","91.3","1018.943","17.69","72.69","878.0","0.0"],
    [1409132,"2026-04-24 12:10:00","46717","3.5980000000000003","94.3","5.325","87.9","1018.933","17.83","71.25","812.0","0.0"],
    [1409133,"2026-04-24 12:20:00","46718","3.057","96.3","6.305","82.6","1019.018","17.84","71.71","836.0","0.0"],
    [1409134,"2026-04-24 12:30:00","46719","2.5469999999999997","107.1","5.423","100.8","1019.117","18.2","70.28","859.0","0.0"],
    [1409135,"2026-04-24 12:40:00","46720","3.27","99.5","5.455","98.3","1019.198","17.85","70.69","868.0","0.0"],
    [1409136,"2026-04-24 12:50:00","46721","2.231","106.7","4.181","114.7","1019.2439999999999","18.27","68.55","874.0","0.0"],
    [1409137,"2026-04-24 13:00:00","46722","2.086","105.0","4.083","123.6","1019.237","18.4","68.43","863.0","0.0"],
    [1409138,"2026-04-24 13:10:00","46723","1.6769999999999998","126.4","3.789","121.4","1019.132","18.52","67.96","812.0","0.0"],
    [1409139,"2026-04-24 13:20:00","46724","1.589","118.3","3.822","138.4","1019.013","18.54","66.55","858.0","0.0"],
    [1409140,"2026-04-24 13:30:00","46725","2.073","106.8","4.116","78.01","1018.916","18.25","65.54","850.0","0.0"],
    [1409141,"2026-04-24 13:40:00","46726","1.757","111.3","4.475","85.7","1018.865","18.36","65.63","699.9","0.0"],
    [1409142,"2026-04-24 13:50:00","46727","1.5419999999999998","104.2","3.953","100.4","1018.7660000000001","18.33","65.35","773.7","0.0"],
    [1409143,"2026-04-24 14:00:00","46728","2.435","102.1","5.586","85.7","1018.684","17.92","66.33","757.8","0.0"],
    [1409144,"2026-04-24 14:10:00","46729","2.25","104.5","4.867","77.09","1018.716","18.0","65.13","688.5","0.0"],
    [1409145,"2026-04-24 14:20:00","46730","1.8259999999999998","104.6","3.953","93.4","1018.613","18.15","64.76","675.2","0.0"],
    [1409146,"2026-04-24 14:30:00","46731","1.1640000000000001","124.2","3.659","87.2","1018.445","18.38","63.85","642.7","0.0"],
    [1409147,"2026-04-24 14:40:00","46732","1.306","122.3","3.397","105.4","1018.387","18.49","62.01","683.0","0.0"],
    [1409148,"2026-04-24 14:50:00","46733","1.7109999999999999","119.8","3.365","67.45","1018.2869999999999","18.16","63.47","670.8","0.0"],
    [1409149,"2026-04-24 15:00:00","46734","2.2769999999999997","101.9","4.933","82.5","1018.263","17.79","63.95","585.0","0.0"],
    [1409150,"2026-04-24 15:10:00","46735","1.133","121.3","3.169","189.8","1018.165","18.32","61.34","571.9","0.0"],
    [1409151,"2026-04-24 15:20:00","46736","2.249","95.2","3.887","93.9","1018.056","17.99","55.97","557.5","0.0"],
    [1409152,"2026-04-24 15:30:00","46737","1.825","102.3","4.769","104.6","1018.003","17.62","57.04","491.2","0.0"],
    [1409153,"2026-04-24 15:40:00","46738","0.809","150.8","3.299","148.8","1017.91","18.36","52.75","444.4","0.0"],
    [1409154,"2026-04-24 15:50:00","46739","0.938","157.4","3.005","203.7","1017.805","18.52","50.06","429.8","0.0"],
    [1409155,"2026-04-24 16:00:00","46740","1.6540000000000001","113.7","3.397","103","1017.815","18.12","51.4","420.8","0.0"],
    [1409156,"2026-04-24 16:10:00","46741","1.9240000000000002","96.1","3.789","77.15","1017.722","17.64","55.85","421.9","0.0"],
    [1409157,"2026-04-24 16:20:00","46742","1.693","102.5","3.234","111.5","1017.698","18.05","51.83","393.3","0.0"],
    [1409158,"2026-04-24 16:30:00","46743","2.511","91.6","4.279","68.54","1017.7080000000001","17.87","54.94","380.3","0.0"],
    [1409159,"2026-04-24 16:40:00","46744","2.77","85.6","5.161","78.18","1017.635","17.4","61.66","346.0","0.0"],
    [1409160,"2026-04-24 16:50:00","46745","2.523","83.6","4.279","93","1017.55","17.24","62.75","305.3","0.0"],
    [1409161,"2026-04-24 17:00:00","46746","2.099","83.5","4.181","109.3","1017.5039999999999","17.19","63.46","270.8","0.0"],
    [1409162,"2026-04-24 17:10:00","46747","2.28","83.4","3.691","69.71","1017.465","17.29","63.63","242.5","0.0"],
    [1409163,"2026-04-24 17:20:00","46748","2.6","82.2","5.031","86","1017.485","17.01","64.8","208.5","0.0"],
    [1409164,"2026-04-24 17:30:00","46749","2.17","85.2","3.495","74.84","1017.4639999999999","16.81","66.59","170.8","0.0"],
    [1409165,"2026-04-24 17:40:00","46750","1.95","79.88","3.005","81.8","1017.41","16.79","67.05","127.0","0.0"],
    [1409166,"2026-04-24 17:50:00","46751","1.795","93.6","4.247","93.6","1017.341","16.64","67.69","92.5","0.0"],
    [1409167,"2026-04-24 18:00:00","46752","1.704","99.9","3.593","76.59","1017.317","16.54","67.99","57.93","0.0"],
    [1409168,"2026-04-24 18:10:00","46753","1.8219999999999998","91.6","3.005","87.5","1017.335","16.41","69.37","33.47","0.0"],
    [1409169,"2026-04-24 18:20:00","46754","1.5390000000000001","91.2","3.005","98.8","1017.3969999999999","16.19","70.64","19.49","0.0"],
    [1409170,"2026-04-24 18:30:00","46755","1.507","86.1","2.777","80.2","1017.37","16.1","70.9","10.56","0.0"],
    [1409171,"2026-04-24 18:40:00","46756","1.52","89.3","2.875","76.24","1017.4019999999999","16.03","71.35","3.552","0.0"],
    [1409172,"2026-04-24 18:50:00","46757","1.12","77.75","1.829","80.4","1017.459","15.96","71.83","-0.883","0.0"],
    [1409173,"2026-04-24 19:00:00","46758","1.294","92.6","2.319","102.2","1017.5110000000001","15.89","72.35","-2.545","0.0"],
    [1409174,"2026-04-24 19:10:00","46759","1.389","73.17","2.483","88.4","1017.551","15.9","72.24","-2.8819999999999997","0.0"],
    [1409175,"2026-04-24 19:20:00","46760","1.318","79.83","1.895","82.4","1017.628","15.84","73.04","-3.154","0.0"],
    [1409176,"2026-04-24 19:30:00","46761","0.8190000000000001","95.8","3.267","118.9","1017.689","15.76","73.31","-3.055","0.0"],
    [1409177,"2026-04-24 19:40:00","46762","0.857","107.2","5.227","128.5","1017.834","15.72","73.37","-3.035","0.0"],
    [1409178,"2026-04-24 19:50:00","46763","1.1320000000000001","89.5","1.927","78.73","1017.921","15.69","73.73","-3.2680000000000002","0.0"],
    [1409179,"2026-04-24 20:00:00","46764","1.2670000000000001","103.4","2.385","85","1017.9989999999999","15.69","74.04","-2.95","0.0"],
    [1409180,"2026-04-24 20:10:00","46765","0.826","131.8","2.483","219.8","1018.047","15.7","73.63","-2.844","0.0"],
    [1409181,"2026-04-24 20:20:00","46766","0.809","131.5","2.744","110.5","1018.072","15.7","73.81","-2.866","0.0"],
    [1409182,"2026-04-24 20:30:00","46767","0.9009999999999999","170.9","2.711","166.8","1018.077","15.67","74.05","-2.9739999999999998","0.0"],
    [1409183,"2026-04-24 20:40:00","46768","0.5820000000000001","131.4","3.169","132.2","1018.04","15.67","74.05","-2.8689999999999998","0.0"],
    [1409184,"2026-04-24 20:50:00","46769","0.622","130.6","1.927","123.3","1018.0310000000001","15.6","74.25","-2.8939999999999997","0.0"],
    [1409185,"2026-04-24 21:00:00","46770","0.7190000000000001","109.7","1.731","86","1018.185","15.55","75.12","-3.01","0.0"],
    [1409186,"2026-04-24 21:10:00","46771","0.23600000000000002","115.5","1.339","133.6","1018.3","15.43","75.81","-2.8569999999999998","0.0"],
    [1409187,"2026-04-24 21:20:00","46772","0.41","125.0","1.241","106.9","1018.2739999999999","15.4","76.56","-2.8789999999999996","0.0"],
    [1409188,"2026-04-24 21:30:00","46773","0.662","109.8","1.241","108.8","1018.323","15.36","76.9","-2.8760000000000003","0.0"],
    [1409189,"2026-04-24 21:40:00","46774","0.41600000000000004","122.1","1.209","142.5","1018.442","15.33","77.4","-2.763","0.0"],
    [1409190,"2026-04-24 21:50:00","46775","0.087","108.1","0.686","102.4","1018.422","15.14","78.61","-2.986","0.0"],
    [1409191,"2026-04-24 22:00:00","46776","0.11800000000000001","119.1","0.751","138.1","1018.436","15.15","79.33","-2.8680000000000003","0.0"],
    [1409192,"2026-04-24 22:10:00","46777","0.025","138.4","0.359","138.5","1018.477","15.15","79.64","-2.783","0.0"],
    [1409193,"2026-04-24 22:20:00","46778","0.628","187.3","1.013","190.1","1018.446","15.13","79.75","-2.77","0.0"],
    [1409194,"2026-04-24 22:30:00","46779","0.512","193.8","0.947","195.7","1018.457","15.13","79.78","-2.793","0.0"],
    [1409195,"2026-04-24 22:40:00","46780","0.382","194.0","0.817","193.6","1018.43","15.06","80.4","-2.7460000000000004","0.0"],
    [1409196,"2026-04-24 22:50:00","46781","0.237","196.9","0.882","198","1018.435","14.92","80.9","-2.866","0.0"],
    [1409197,"2026-04-24 23:00:00","46782","0.18600000000000003","218.2","1.111","227.5","1018.427","14.88","81.4","-2.86","0.0"],
    [1409198,"2026-04-24 23:10:00","46783","0.26","229.1","0.621","229.3","1018.3810000000001","14.53","82.3","-2.758","0.0"],
    [1409199,"2026-04-24 23:20:00","46784","0.22899999999999998","238.4","1.045","273.4","1018.3510000000001","14.22","83.4","-2.738","0.0"],
    [1409200,"2026-04-24 23:30:00","46785","0.8140000000000001","278.7","1.339","276.8","1018.2860000000001","13.98","84.2","-2.745","0.0"],
    [1409201,"2026-04-24 23:40:00","46786","0.617","276.7","1.143","273.7","1018.283","13.82","82.2","-2.795","0.0"],
    [1409202,"2026-04-24 23:50:00","46787","0.987","282.1","1.437","281.8","1018.232","13.81","79.64","-2.7439999999999998","0.0"],
    [1409203,"2026-04-25 00:00:00","46788","0.851","277.4","1.372","279.3","1018.076","13.6","78.81","-2.734","0.0"],
    [1409204,"2026-04-25 00:10:00","46789","0.574","292.2","1.405","294.2","1017.8960000000001","13.35","78.79","-2.735","0.0"],
    [1409205,"2026-04-25 00:20:00","46790","0.0","0.0","0","0","1017.827","13.3","78.88","-2.7439999999999998","0.0"],
    [1409206,"2026-04-25 00:30:00","46791","0.131","293.3","0.621","293.4","1017.7489999999999","13.45","78.23","-2.7430000000000003","0.0"],
    [1409207,"2026-04-25 00:40:00","46792","0.396","292.7","0.915","290.5","1017.528","13.15","77.54","-2.747","0.0"],
    [1409208,"2026-04-25 00:50:00","46793","0.0","0.0","0","0","1017.436","12.98","77.53","-2.752","0.0"],
    [1409209,"2026-04-25 01:00:00","46794","0.0","0.0","0","0","1017.3589999999999","13.14","77.52","-2.7539999999999996","0.0"],
    [1409210,"2026-04-25 01:10:00","46795","0.142","292.4","0.588","290.5","1017.193","12.95","77.27","-2.761","0.0"],
    [1409211,"2026-04-25 01:20:00","46796","0.23600000000000002","295.4","0.653","297","1017.1110000000001","12.66","78.0","-2.765","0.0"],
    [1409212,"2026-04-25 01:30:00","46797","0.19399999999999998","282.1","0.784","275.5","1017.097","13.07","77.24","-2.761","0.0"],
    [1409213,"2026-04-25 01:40:00","46798","1.1079999999999999","276.1","1.862","273.1","1017.061","13.11","76.27","-2.761","0.0"],
    [1409214,"2026-04-25 01:50:00","46799","1.261","276.8","2.123","274.7","1016.982","12.48","77.2","-2.758","0.0"],
    [1409215,"2026-04-25 02:00:00","46800","1.703","264.8","2.319","266.7","1017.03","12.42","77.84","-2.7680000000000002","0.0"],
    [1409216,"2026-04-25 02:10:00","46801","0.9670000000000001","247.1","2.156","277.3","1017.11","12.6","76.65","-2.759","0.0"],
    [1409217,"2026-04-25 02:20:00","46802","0.43","250.0","0.915","255.5","1017.145","12.55","76.55","-2.761","0.0"],
    [1409218,"2026-04-25 02:30:00","46803","0.484","251.1","0.947","221.7","1017.205","12.4","77.01","-2.766","0.0"],
    [1409219,"2026-04-25 02:40:00","46804","0.6629999999999999","241.8","1.241","246.6","1017.2669999999999","12.45","75.88","-2.761","0.0"],
    [1409220,"2026-04-25 02:50:00","46805","0.7390000000000001","258.4","1.568","283.1","1017.296","12.37","74.97","-2.761","0.0"],
    [1409221,"2026-04-25 03:00:00","46806","0.784","251.6","1.601","276.4","1017.323","12.42","73.39","-2.761","0.0"],
    [1409222,"2026-04-25 03:10:00","46807","1.425","279.3","1.96","273.9","1017.227","12.14","74.17","-2.761","0.0"],
    [1409223,"2026-04-25 03:20:00","46808","1.5819999999999999","278.8","2.221","283.4","1017.202","11.93","74.94","-2.761","0.0"],
    [1409224,"2026-04-25 03:30:00","46809","1.56","278.7","2.189","273.9","1017.177","11.96","74.66","-2.761","0.0"],
    [1409225,"2026-04-25 03:40:00","46810","1.073","276.4","1.601","266.8","1017.196","12.04","74.05","-2.761","0.0"],
    [1409226,"2026-04-25 03:50:00","46811","0.9940000000000001","275.4","1.372","273.1","1017.1410000000001","11.98","73.48","-2.761","0.0"],
    [1409227,"2026-04-25 04:00:00","46812","1.053","287.2","1.927","293.1","1017.195","12.04","72.44","-2.761","0.0"],
    [1409228,"2026-04-25 04:10:00","46813","1.186","292.1","1.699","293.1","1017.253","11.86","73.2","-2.761","0.0"],
    [1409229,"2026-04-25 04:20:00","46814","0.784","296.2","1.764","306.2","1017.243","11.64","74.11","-2.761","0.0"],
    [1409230,"2026-04-25 04:30:00","46815","0.168","301.4","0.947","304","1017.209","11.48","74.55","-2.761","0.0"],
    [1409231,"2026-04-25 04:40:00","46816","0.585","294.8","1.535","296.4","1017.183","11.26","75.65","-2.661","0.0"],
    [1409232,"2026-04-25 04:50:00","46817","0.987","288.8","1.601","292.2","1017.203","11.45","75.61","-0.44299999999999995","0.0"],
    [1409233,"2026-04-25 05:00:00","46818","0.57","291.6","1.405","289.9","1017.2389999999999","11.49","75.4","2.945","0.0"],
    [1409234,"2026-04-25 05:10:00","46819","0.884","287.4","1.339","291.4","1017.294","11.48","76.11","9.86","0.0"],
    [1409235,"2026-04-25 05:20:00","46820","0.42200000000000004","275.9","1.209","276.4","1017.375","11.44","76.38","25.66","0.0"],
    [1409236,"2026-04-25 05:30:00","46821","0.9179999999999999","276.1","1.895","275.3","1017.5","11.55","76.58","43.35","0.0"],
    [1409237,"2026-04-25 05:40:00","46822","1.744","280.6","2.417","290","1017.595","11.87","75.92","60.41","0.0"],
    [1409238,"2026-04-25 05:50:00","46823","1.621","272.7","2.287","272.4","1017.6","11.98","75.78","75.33","0.0"],
    [1409239,"2026-04-25 06:00:00","46824","0.97","243.0","1.862","283.2","1017.676","12.34","74.38","87.6","0.0"],
    [1409240,"2026-04-25 06:10:00","46825","0.625","255.6","1.47","276.4","1017.711","12.79","73.0","102.5","0.0"],
    [1409241,"2026-04-25 06:20:00","46826","0.998","267.8","1.862","263","1017.7589999999999","13.22","71.2","127.3","0.0"],
    [1409242,"2026-04-25 06:30:00","46827","1.44","263.7","2.385","271.8","1017.8580000000001","13.6","70.4","156.7","0.0"],
    [1409243,"2026-04-25 06:40:00","46828","0.815","265.4","2.091","260.5","1017.888","14.23","69.15","197.7","0.0"],
    [1409244,"2026-04-25 06:50:00","46829","1.141","266.3","2.417","260.9","1017.929","14.64","68.01","229.7","0.0"],
    [1409245,"2026-04-25 07:00:00","46830","0.983","257.0","1.699","234.5","1017.9960000000001","15.16","67.11","253.4","0.0"],
    [1409246,"2026-04-25 07:10:00","46831","0.812","222.1","1.47","203.8","1018.077","15.67","66.95","292.4","0.0"],
    [1409247,"2026-04-25 07:20:00","46832","0.659","270.3","1.96","260.2","1018.1669999999999","16.26","64.87","340.1","0.0"],
    [1409248,"2026-04-25 07:30:00","46833","0.381","239.3","1.829","290.4","1018.25","16.54","65.23","385.1","0.0"],
    [1409249,"2026-04-25 07:40:00","46834","0.6779999999999999","168.6","2.679","166.5","1018.26","17.19","64.88","426.8","0.0"],
    [1409250,"2026-04-25 07:50:00","46835","0.8240000000000001","170.2","1.895","171.6","1018.2769999999999","17.4","63.48","469.2","0.0"],
    [1409251,"2026-04-25 08:00:00","46836","0.938","192.0","2.613","188","1018.295","17.26","62.31","482.1","0.0"],
    [1409252,"2026-04-25 08:10:00","46837","1.107","150.6","3.365","152.6","1018.2639999999999","17.54","65.34","545.8","0.0"],
    [1409253,"2026-04-25 08:20:00","46838","0.867","122.0","2.254","133.1","1018.22","18.28","65.96","539.6","0.0"],
    [1409254,"2026-04-25 08:30:00","46839","0.7440000000000001","149.0","2.744","186.5","1018.285","17.92","65.34","577.0","0.0"],
    [1409255,"2026-04-25 08:40:00","46840","2.011","173.9","3.985","169.4","1018.362","17.61","62.88","617.7","0.0"],
    [1409256,"2026-04-25 08:50:00","46841","1.114","146.5","2.94","124","1018.422","17.82","64.25","621.1","0.0"],
    [1409257,"2026-04-25 09:00:00","46842","1.742","123.5","3.365","163.6","1018.437","18.37","64.0","638.8","0.0"],
    [1409258,"2026-04-25 09:10:00","46843","1.692","114.3","3.234","110.3","1018.393","18.03","63.7","661.4","0.0"],
    [1409259,"2026-04-25 09:20:00","46844","1.639","119.2","2.842","118.4","1018.3960000000001","18.2","63.34","689.9","0.0"],
    [1409260,"2026-04-25 09:30:00","46845","1.486","121.2","3.038","113.3","1018.3380000000001","18.67","63.54","721.9","0.0"],
    [1409261,"2026-04-25 09:40:00","46846","1.682","108.9","2.907","98.1","1018.2860000000001","18.5","66.24","755.4","0.0"],
    [1409262,"2026-04-25 09:50:00","46847","1.729","111.1","3.822","96","1018.2339999999999","18.56","65.59","777.7","0.0"],
    [1409263,"2026-04-25 10:00:00","46848","1.8459999999999999","103.0","3.495","81.9","1018.192","18.42","66.33","797.9","0.0"],
    [1409264,"2026-04-25 10:10:00","46849","2.381","95.8","4.083","88.2","1018.1469999999999","18.32","64.82","801.0","0.0"],
    [1409265,"2026-04-25 10:20:00","46850","2.065","114.9","3.789","116.7","1018.15","18.38","64.75","818.0","0.0"],
    [1409266,"2026-04-25 10:30:00","46851","1.661","118.2","3.234","119.8","1018.1519999999999","19.01","61.0","842.0","0.0"],
    [1409267,"2026-04-25 10:40:00","46852","1.61","109.8","2.809","117","1018.056","18.99","52.54","866.0","0.0"],
    [1409268,"2026-04-25 10:50:00","46853","2.0540000000000003","102.6","3.659","103.8","1018.05","19.18","52.67","877.0","0.0"],
    [1409269,"2026-04-25 11:00:00","46854","1.804","115.0","3.136","100.6","1018.0260000000001","19.0","53.47","881.0","0.0"],
    [1409270,"2026-04-25 11:10:00","46855","1.273","151.2","2.744","175.6","1017.948","19.46","53.73","885.0","0.0"],
    [1409271,"2026-04-25 11:20:00","46856","1.136","142.9","3.071","162","1017.8589999999999","19.69","51.43","887.0","0.0"],
    [1409272,"2026-04-25 11:30:00","46857","1.719","174.4","3.593","189.9","1017.7810000000001","19.97","50.36","886.0","0.0"],
    [1409273,"2026-04-25 11:40:00","46858","2.217","190.4","4.737","226.3","1017.702","19.93","48.89","893.0","0.0"],
    [1409274,"2026-04-25 11:50:00","46859","2.189","194.2","4.279","185.1","1017.6439999999999","20.08","46.87","911.0","0.0"],
    [1409275,"2026-04-25 12:00:00","46860","2.5839999999999996","180.1","4.769","146.1","1017.6","19.83","49.08","915.0","0.0"],
    [1409276,"2026-04-25 12:10:00","46861","2.181","199.0","3.789","172.8","1017.441","19.72","54.63","897.0","0.0"],
    [1409277,"2026-04-25 12:20:00","46862","2.154","175.1","4.181","210.6","1017.337","19.91","57.32","896.0","0.0"],
    [1409278,"2026-04-25 12:30:00","46863","1.6680000000000001","120.4","3.365","111.1","1017.252","19.72","56.94","899.0","0.0"],
    [1409279,"2026-04-25 12:40:00","46864","1.325","127.1","3.593","85.1","1017.225","19.87","57.08","895.0","0.0"],
    [1409280,"2026-04-25 12:50:00","46865","1.094","161.4","3.267","182.5","1017.2639999999999","20.57","55.31","887.0","0.0"],
    [1409281,"2026-04-25 13:00:00","46866","2.252","197.2","3.789","191","1017.216","20.41","55.81","878.0","0.0"],
    [1409282,"2026-04-25 13:10:00","46867","2.266","189.3","4.083","187.5","1017.192","20.31","51.44","855.0","0.0"],
    [1409283,"2026-04-25 13:20:00","46868","2.0069999999999997","176.7","4.018","233.7","1017.153","20.12","50.8","833.0","0.0"],
    [1409284,"2026-04-25 13:30:00","46869","1.014","121.4","3.43","98.3","1017.12","20.28","57.23","812.0","0.0"],
    [1409285,"2026-04-25 13:40:00","46870","1.78","118.2","4.508","128.9","1017.117","19.63","61.45","796.0","0.0"],
    [1409286,"2026-04-25 13:50:00","46871","1.78","128.6","4.345","154.5","1017.065","19.09","67.92","771.3","0.0"],
    [1409287,"2026-04-25 14:00:00","46872","2.208","194.4","4.606","204.5","1017.008","19.77","67.11","763.6","0.0"],
    [1409288,"2026-04-25 14:10:00","46873","3.077","188.8","5.423","180.2","1016.956","18.94","70.21","754.5","0.0"],
    [1409289,"2026-04-25 14:20:00","46874","2.62","192.6","4.508","180.4","1016.89","19.04","69.17","720.0","0.0"],
    [1409290,"2026-04-25 14:30:00","46875","2.3819999999999997","182.2","4.639","165.1","1016.8539999999999","19.12","69.75","708.9","0.0"],
    [1409291,"2026-04-25 14:40:00","46876","2.383","187.0","4.279","174.2","1016.799","19.13","69.94","689.5","0.0"],
    [1409292,"2026-04-25 14:50:00","46877","2.262","203.0","4.214","199.7","1016.807","19.18","70.38","644.3","0.0"],
    [1409293,"2026-04-25 15:00:00","46878","2.634","178.3","4.41","157","1016.793","18.84","70.25","644.0","0.0"],
    [1409294,"2026-04-25 15:10:00","46879","2.378","174.1","4.769","186.4","1016.74","18.79","71.12","614.0","0.0"],
    [1409295,"2026-04-25 15:20:00","46880","2.461","188.9","4.867","181.7","1016.677","18.98","70.44","595.4","0.0"],
    [1409296,"2026-04-25 15:30:00","46881","2.6069999999999998","181.7","7.448","166.1","1016.7410000000001","18.72","69.43","558.3","0.0"],
    [1409297,"2026-04-25 15:40:00","46882","2.634","178.0","4.181","189.1","1016.7589999999999","18.66","72.88","525.4","0.0"],
    [1409298,"2026-04-25 15:50:00","46883","2.303","187.2","3.92","185.2","1016.784","18.9","72.72","492.3","0.0"],
    [1409299,"2026-04-25 16:00:00","46884","2.296","184.0","4.116","230.1","1016.778","18.73","73.43","437.6","0.0"],
    [1409300,"2026-04-25 16:10:00","46885","2.61","197.2","4.573","208.8","1016.783","18.72","71.76","434.0","0.0"],
    [1409301,"2026-04-25 16:20:00","46886","2.546","181.7","4.279","175.3","1016.803","18.58","73.25","393.4","0.0"],
    [1409302,"2026-04-25 16:30:00","46887","2.48","188.7","4.573","183.9","1016.811","18.63","73.71","345.0","0.0"],
    [1409303,"2026-04-25 16:40:00","46888","2.427","205.4","3.561","229.6","1016.86","18.54","72.75","241.6","0.0"],
    [1409304,"2026-04-25 16:50:00","46889","2.56","188.2","7.056","173.6","1016.914","17.99","72.97","167.2","0.0"],
    [1409305,"2026-04-25 17:00:00","46890","2.309","208.3","5.88","196.9","1016.895","18.09","72.89","156.9","0.0"],
    [1409306,"2026-04-25 17:10:00","46891","2.395","189.4","5.39","174.9","1016.793","18.05","74.36","205.9","0.0"],
    [1409307,"2026-04-25 17:20:00","46892","2.124","196.3","4.279","167.8","1016.694","18.27","73.13","170.0","0.0"],
    [1409308,"2026-04-25 17:30:00","46893","2.5380000000000003","216.0","5.031","169.5","1016.648","17.93","70.56","118.4","0.0"],
    [1409309,"2026-04-25 17:40:00","46894","2.053","193.8","6.305","200.6","1016.7","17.95","72.2","130.8","0.0"],
    [1409310,"2026-04-25 17:50:00","46895","2.431","206.5","4.998","172","1016.6619999999999","17.74","71.01","101.7","0.0"],
    [1409311,"2026-04-25 18:00:00","46896","2.088","204.6","3.397","222.5","1016.6110000000001","17.77","72.64","81.5","0.0"],
    [1409312,"2026-04-25 18:10:00","46897","2.417","192.8","4.149","199.8","1016.59","17.58","73.6","60.72","0.0"],
    [1409313,"2026-04-25 18:20:00","46898","2.2880000000000003","205.4","3.332","217","1016.6030000000001","17.47","75.27","37.01","0.0"],
    [1409314,"2026-04-25 18:30:00","46899","2.484","198.9","4.443","180.1","1016.669","17.32","77.65","16.56","0.0"],
    [1409315,"2026-04-25 18:40:00","46900","2.201","207.5","4.867","159","1016.735","17.11","78.68","4.35","0.0"],
    [1409316,"2026-04-25 18:50:00","46901","2.08","207.1","3.757","228.5","1016.7710000000001","17.06","79.17","-0.23199999999999998","0.0"],
    [1409317,"2026-04-25 19:00:00","46902","2.5780000000000003","214.4","4.835","174.9","1016.9069999999999","17.01","79.94","-1.308","0.0"],
    [1409318,"2026-04-25 19:10:00","46903","2.5839999999999996","215.9","3.985","235.1","1017.1039999999999","17.0","80.9","-2.003","0.0"],
    [1409319,"2026-04-25 19:20:00","46904","2.242","214.9","3.332","216.4","1017.198","16.96","80.1","-2.638","0.0"],
    [1409320,"2026-04-25 19:30:00","46905","2.176","211.0","4.671","214.6","1017.289","16.87","78.69","-2.693","0.0"],
    [1409321,"2026-04-25 19:40:00","46906","1.713","206.9","4.965","217.7","1017.398","16.93","78.24","-2.69","0.0"],
    [1409322,"2026-04-25 19:50:00","46907","1.815","209.2","4.737","219.7","1017.5039999999999","16.88","78.51","-2.694","0.0"],
    [1409323,"2026-04-25 20:00:00","46908","2.13","216.3","3.593","204","1017.5210000000001","16.89","79.0","-2.693","0.0"],
    [1409324,"2026-04-25 20:10:00","46909","1.3159999999999998","226.9","3.691","217.3","1017.575","16.77","80.9","-2.695","0.0"],
    [1409325,"2026-04-25 20:20:00","46910","1.3519999999999999","204.3","3.397","203","1017.6080000000001","16.63","82.7","-2.7239999999999998","0.0"],
    [1409326,"2026-04-25 20:30:00","46911","1.92","209.5","3.267","206.5","1017.58","16.69","81.6","-2.697","0.0"],
    [1409327,"2026-04-25 20:40:00","46912","1.659","205.0","4.083","214.4","1017.6039999999999","16.64","82.3","-2.7","0.0"],
    [1409328,"2026-04-25 20:50:00","46913","2.32","206.9","3.887","210.2","1017.595","16.64","82.0","-2.694","0.0"],
    [1409329,"2026-04-25 21:00:00","46914","2.589","217.6","4.018","183","1017.566","16.65","81.9","-2.694","0.0"],
    [1409330,"2026-04-25 21:10:00","46915","1.889","219.5","2.842","228.1","1017.553","16.54","83.0","-2.694","0.0"],
    [1409331,"2026-04-25 21:20:00","46916","1.864","220.8","2.352","218.8","1017.5419999999999","16.43","83.9","-2.697","0.0"],
    [1409332,"2026-04-25 21:30:00","46917","1.546","224.6","2.679","230","1017.51","16.32","83.9","-2.698","0.0"],
    [1409333,"2026-04-25 21:40:00","46918","1.91","221.3","2.973","228.4","1017.5060000000001","16.3","82.8","-2.698","0.0"],
    [1409334,"2026-04-25 21:50:00","46919","1.6680000000000001","214.8","2.711","229.4","1017.488","16.34","81.8","-2.699","0.0"],
    [1409335,"2026-04-25 22:00:00","46920","1.8219999999999998","217.2","2.581","219.8","1017.502","16.32","81.7","-2.699","0.0"],
    [1409336,"2026-04-25 22:10:00","46921","1.936","216.5","2.744","210.9","1017.443","16.39","81.5","-2.602","0.0"],
    [1409337,"2026-04-25 22:20:00","46922","1.963","216.2","2.842","208.8","1017.4","16.44","81.7","-2.125","0.0"],
    [1409338,"2026-04-25 22:30:00","46923","1.535","219.8","2.319","205.4","1017.3560000000001","16.41","82.2","-2.3890000000000002","0.0"],
    [1409339,"2026-04-25 22:40:00","46924","1.735","212.5","2.581","222.8","1017.331","16.29","82.9","-2.705","0.0"],
    [1409340,"2026-04-25 22:50:00","46925","1.8940000000000001","214.3","2.613","218.2","1017.368","16.29","83.2","-2.7","0.0"],
    [1409341,"2026-04-25 23:00:00","46926","2.03","216.0","2.907","225.4","1017.388","16.28","83.5","-2.6719999999999997","0.0"],
    [1409342,"2026-04-25 23:10:00","46927","1.7819999999999998","223.0","2.809","242","1017.3789999999999","16.31","83.3","-2.2969999999999997","0.0"],
    [1409343,"2026-04-25 23:20:00","46928","1.37","232.1","2.45","227.1","1017.3480000000001","16.19","82.9","-2.069","0.0"],
    [1409344,"2026-04-25 23:30:00","46929","1.263","231.2","2.679","216.7","1017.347","16.14","83.1","-2.023","0.0"],
    [1409345,"2026-04-25 23:40:00","46930","1.226","225.2","2.385","215","1017.2260000000001","15.92","83.8","-2.6639999999999997","0.0"],
    [1409346,"2026-04-25 23:50:00","46931","1.344","231.6","2.45","221.7","1017.13","15.76","84.0","-2.707","0.0"],
    [1409347,"2026-04-26 00:00:00","46932","1.042","232.7","2.156","221.7","1017.045","15.73","82.9","-2.708","0.0"],
    [1409348,"2026-04-26 00:10:00","46933","0.853","239.9","1.699","237.3","1016.948","15.64","80.9","-2.7110000000000003","0.0"],
    [1409349,"2026-04-26 00:20:00","46934","0.713","264.3","1.274","268.9","1016.877","15.61","79.01","-2.713","0.0"],
    [1409350,"2026-04-26 00:30:00","46935","0.435","266.0","0.849","274.7","1016.8430000000001","15.43","79.26","-2.718","0.0"],
    [1409351,"2026-04-26 00:40:00","46936","0.677","250.6","1.111","244.9","1016.835","15.39","77.77","-2.7230000000000003","0.0"],
    [1409352,"2026-04-26 00:50:00","46937","1.063","247.2","1.503","253.5","1016.829","15.46","75.94","-2.72","0.0"],
    [1409353,"2026-04-26 01:00:00","46938","0.846","269.5","1.47","267","1016.7810000000001","15.46","75.17","-2.7260000000000004","0.0"],
    [1409354,"2026-04-26 01:10:00","46939","0.708","246.2","1.111","243.4","1016.743","15.22","75.29","-2.725","0.0"],
    [1409355,"2026-04-26 01:20:00","46940","0.322","242.8","1.045","218.6","1016.695","15.29","73.32","-2.7230000000000003","0.0"],
    [1409356,"2026-04-26 01:30:00","46941","0.16","250.2","0.751","250","1016.698","15.24","72.72","-2.727","0.0"],
    [1409357,"2026-04-26 01:40:00","46942","0.28800000000000003","254.2","0.751","250.6","1016.7739999999999","14.97","74.14","-2.7230000000000003","0.0"],
    [1409358,"2026-04-26 01:50:00","46943","0.33399999999999996","254.9","0.719","253.9","1016.791","14.66","75.43","-2.728","0.0"],
    [1409359,"2026-04-26 02:00:00","46944","0.46799999999999997","273.2","1.405","290.9","1016.829","14.55","75.1","-2.727","0.0"],
    [1409360,"2026-04-26 02:10:00","46945","1.167","296.5","1.405","289.3","1016.795","14.1","76.76","-2.7039999999999997","0.0"],
    [1409361,"2026-04-26 02:20:00","46946","0.248","306.6","0.719","306.6","1016.809","13.87","78.18","-2.7260000000000004","0.0"],
    [1409362,"2026-04-26 02:30:00","46947","0.0","0.0","0","0","1016.8530000000001","13.87","78.84","-2.696","0.0"],
    [1409363,"2026-04-26 02:40:00","46948","0.684","58.47","2.515","62.57","1016.9739999999999","13.94","79.53","-2.585","0.0"],
    [1409364,"2026-04-26 02:50:00","46949","2.26","51.6","3.561","37.54","1016.953","14.94","77.52","-3.036","0.0"],
    [1409365,"2026-04-26 03:00:00","46950","2.8569999999999998","51.06","4.345","48.3","1016.955","15.65","71.8","-2.7430000000000003","0.0"],
    [1409366,"2026-04-26 03:10:00","46951","2.145","46.77","3.789","60.47","1016.997","15.78","70.74","-2.6889999999999996","0.0"],
    [1409367,"2026-04-26 03:20:00","46952","1.514","31.66","2.287","24.29","1016.9789999999999","15.68","73.25","-2.673","0.0"],
    [1409368,"2026-04-26 03:30:00","46953","1.3980000000000001","19.04","2.417","24.06","1016.9910000000001","15.5","75.98","-2.728","0.0"],
    [1409369,"2026-04-26 03:40:00","46954","1.694","11.53","2.548","12.33","1017.073","15.63","81.1","-2.7230000000000003","0.0"],
    [1409370,"2026-04-26 03:50:00","46955","1.38","15.85","2.45","19.43","1017.159","15.5","82.3","-2.678","0.0"],
    [1409371,"2026-04-26 04:00:00","46956","0.662","353.2","1.274","353.9","1017.255","15.21","81.8","-2.7239999999999998","0.0"],
    [1409372,"2026-04-26 04:10:00","46957","0.785","7.505","1.209","13.56","1017.305","14.83","81.9","-2.728","0.0"],
    [1409373,"2026-04-26 04:20:00","46958","1.146","26.36","2.025","54.22","1017.355","14.71","82.7","-2.728","0.0"],
    [1409374,"2026-04-26 04:30:00","46959","1.618","48.39","2.483","39.7","1017.416","15.27","85.2","-2.728","0.0"],
    [1409375,"2026-04-26 04:40:00","46960","1.358","52.12","2.123","61.62","1017.4939999999999","15.62","87.1","-2.384","0.0"],
    [1409376,"2026-04-26 04:50:00","46961","1.661","33.63","2.613","34.1","1017.502","15.59","88.5","-1.021","0.0"],
    [1409377,"2026-04-26 05:00:00","46962","1.587","20.32","2.287","14.72","1017.548","15.47","89.1","1.945","0.0"],
    [1409378,"2026-04-26 05:10:00","46963","1.3619999999999999","356.7","2.319","12.43","1017.605","15.36","89.1","8.71","0.0"],
    [1409379,"2026-04-26 05:20:00","46964","1.179","10.52","1.862","8.1","1017.672","15.28","88.8","21.39","0.0"],
    [1409380,"2026-04-26 05:30:00","46965","0.988","5.401","1.797","5.1","1017.789","15.4","88.8","41.08","0.0"],
    [1409381,"2026-04-26 05:40:00","46966","0.273","10.28","1.045","6.923","1017.837","15.83","88.6","72.26","0.0"],
    [1409382,"2026-04-26 05:50:00","46967","1.102","42.6","2.091","66.25","1017.928","16.46","87.2","114.2","0.0"],
    [1409383,"2026-04-26 06:00:00","46968","1.597","56.01","2.385","40.91","1018.018","16.8","85.8","133.9","0.0"],
    [1409384,"2026-04-26 06:10:00","46969","1.3130000000000002","64.75","1.731","75.05","1018.163","17.04","84.3","131.3","0.0"],
    [1409385,"2026-04-26 06:20:00","46970","1.15","65.21","1.764","71.47","1018.2669999999999","17.24","82.6","152.1","0.0"],
    [1409386,"2026-04-26 06:30:00","46971","1.04","62.81","2.189","75.51","1018.39","17.61","81.3","174.2","0.0"],
    [1409387,"2026-04-26 06:40:00","46972","0.907","38.28","1.405","357.2","1018.409","17.63","80.4","192.1","0.0"],
    [1409388,"2026-04-26 06:50:00","46973","1.392","357.4","2.287","354.5","1018.3330000000001","17.69","80.4","224.2","0.0"],
    [1409389,"2026-04-26 07:00:00","46974","1.528","47.56","2.123","59.99","1018.332","17.86","80.1","267.0","0.0"],
    [1409390,"2026-04-26 07:10:00","46975","1.159","49.09","2.091","33.4","1018.3919999999999","18.08","78.9","301.4","0.0"],
    [1409391,"2026-04-26 07:20:00","46976","1.455","65.64","2.483","93.8","1018.405","18.51","77.67","333.7","0.0"],
    [1409392,"2026-04-26 07:30:00","46977","1.682","78.04","2.581","73.18","1018.4010000000001","18.5","77.3","373.7","0.0"],
    [1409393,"2026-04-26 07:40:00","46978","1.972","72.57","2.744","55.89","1018.434","18.69","76.46","419.8","0.0"],
    [1409394,"2026-04-26 07:50:00","46979","1.8090000000000002","84.9","2.744","88.2","1018.457","18.71","76.21","455.1","0.0"],
    [1409395,"2026-04-26 08:00:00","46980","1.614","83.4","2.646","89","1018.551","19.01","75.3","474.2","0.0"],
    [1409396,"2026-04-26 08:10:00","46981","1.9169999999999998","92.8","2.744","84.4","1018.6060000000001","19.04","74.96","534.9","0.0"],
    [1409397,"2026-04-26 08:20:00","46982","1.7719999999999998","92.8","2.744","83.6","1018.648","19.15","75.3","548.1","0.0"],
    [1409398,"2026-04-26 08:30:00","46983","1.696","90.6","2.744","82.9","1018.738","19.41","74.1","601.1","0.0"],
    [1409399,"2026-04-26 08:40:00","46984","1.7269999999999999","86.3","2.417","92.8","1018.7510000000001","19.53","73.22","627.9","0.0"],
    [1409400,"2026-04-26 08:50:00","46985","1.8330000000000002","69.14","2.777","63.95","1018.7710000000001","19.91","70.34","652.6","0.0"],
    [1409401,"2026-04-26 09:00:00","46986","1.712","95.2","2.842","54.25","1018.7689999999999","20.2","69.47","674.8","0.0"],
    [1409402,"2026-04-26 09:10:00","46987","0.915","112.3","2.581","84.4","1018.7860000000001","20.45","69.18","701.7","0.0"],
    [1409403,"2026-04-26 09:20:00","46988","0.7340000000000001","135.8","2.058","151.8","1018.84","20.66","68.1","724.0","0.0"],
    [1409404,"2026-04-26 09:30:00","46989","0.8220000000000001","134.5","2.287","163.5","1018.8380000000001","20.71","68.06","744.5","0.0"],
    [1409405,"2026-04-26 09:40:00","46990","1.109","146.0","3.005","148.2","1018.823","19.93","70.06","766.7","0.0"],
    [1409406,"2026-04-26 09:50:00","46991","0.929","137.5","2.287","156","1018.84","20.37","67.4","769.2","0.0"],
    [1409407,"2026-04-26 10:00:00","46992","0.897","157.7","2.613","172.1","1018.8589999999999","20.73","64.32","791.7","0.0"],
    [1409408,"2026-04-26 10:10:00","46993","1.11","108.0","2.123","112.3","1018.834","21.47","63.38","774.8","0.0"],
    [1409409,"2026-04-26 10:20:00","46994","1.215","123.0","2.548","186.9","1018.8860000000001","21.17","63.6","804.0","0.0"],
    [1409410,"2026-04-26 10:30:00","46995","1.351","99.6","2.319","107.8","1018.926","20.82","64.16","833.0","0.0"],
    [1409411,"2026-04-26 10:40:00","46996","1.635","100.0","2.94","98.3","1018.929","20.99","63.18","862.0","0.0"],
    [1409412,"2026-04-26 10:50:00","46997","2.275","93.1","3.332","88","1018.956","21.01","60.32","867.0","0.0"],
    [1409413,"2026-04-26 11:00:00","46998","1.82","106.1","3.299","87.8","1018.9960000000001","20.97","61.83","876.0","0.0"],
    [1409414,"2026-04-26 11:10:00","46999","1.595","111.0","2.94","89.3","1018.9830000000001","21.04","64.26","885.0","0.0"],
    [1409415,"2026-04-26 11:20:00","47000","1.63","101.2","3.234","99.4","1018.8919999999999","20.85","62.57","890.0","0.0"],
    [1409416,"2026-04-26 11:30:00","47001","1.382","103.5","2.777","91.5","1018.803","21.44","57.94","894.0","0.0"],
    [1409417,"2026-04-26 11:40:00","47002","1.093","106.4","2.385","98.9","1018.763","22.36","53.3","896.0","0.0"],
    [1409418,"2026-04-26 11:50:00","47003","1.483","113.4","3.103","99.3","1018.6569999999999","22.15","51.25","898.0","0.0"],
    [1409419,"2026-04-26 12:00:00","47004","1.8319999999999999","116.0","3.365","105.5","1018.582","21.65","54.63","898.0","0.0"],
    [1409420,"2026-04-26 12:10:00","47005","2.373","171.5","4.214","193.4","1018.563","21.96","49.82","897.0","0.0"],
    [1409421,"2026-04-26 12:20:00","47006","1.996","143.0","4.018","184.5","1018.528","21.55","49.15","890.0","0.0"],
    [1409422,"2026-04-26 12:30:00","47007","1.3119999999999998","149.7","3.528","155.1","1018.508","22.04","49.08","884.0","0.0"],
    [1409423,"2026-04-26 12:40:00","47008","2.072","192.6","3.561","232.4","1018.493","22.17","49.11","880.0","0.0"],
    [1409424,"2026-04-26 12:50:00","47009","2.3280000000000003","203.0","4.541","229","1018.5189999999999","21.9","48.91","876.0","0.0"],
    [1409425,"2026-04-26 13:00:00","47010","3.3569999999999998","168.5","5.129","164.9","1018.546","21.13","54.94","865.0","0.0"],
    [1409426,"2026-04-26 13:10:00","47011","2.77","182.4","4.769","184.5","1018.459","20.94","56.18","853.0","0.0"],
    [1409427,"2026-04-26 13:20:00","47012","3.013","205.9","5.325","209.5","1018.3480000000001","21.12","54.71","841.0","0.0"],
    [1409428,"2026-04-26 13:30:00","47013","3.056","205.9","5.031","204.2","1018.352","21.54","56.38","826.0","0.0"],
    [1409429,"2026-04-26 13:40:00","47014","3.159","200.6","5.325","218.1","1018.257","21.61","58.89","811.0","0.0"],
    [1409430,"2026-04-26 13:50:00","47015","3.0589999999999997","207.2","4.639","177.3","1018.172","21.74","58.11","796.3","0.0"],
    [1409431,"2026-04-26 14:00:00","47016","3.284","208.9","5.259","228.8","1018.0369999999999","21.44","55.87","777.7","0.0"],
    [1409432,"2026-04-26 14:10:00","47017","3.3310000000000004","193.6","5.227","232.2","1018.008","21.55","60.28","755.9","0.0"],
    [1409433,"2026-04-26 14:20:00","47018","2.9589999999999996","196.5","5.031","191","1017.966","20.91","61.94","733.3","0.0"],
    [1409434,"2026-04-26 14:30:00","47019","3.1660000000000004","211.1","4.508","226.8","1017.952","21.21","60.48","710.5","0.0"],
    [1409435,"2026-04-26 14:40:00","47020","2.8760000000000003","204.5","5.553","176.3","1017.955","21.07","61.45","686.0","0.0"],
    [1409436,"2026-04-26 14:50:00","47021","3.15","199.3","5.292","198.5","1017.921","21.33","61.89","661.1","0.0"],
    [1409437,"2026-04-26 15:00:00","47022","3.1510000000000002","187.9","6.337","186.6","1017.945","20.66","63.24","634.8","0.0"],
    [1409438,"2026-04-26 15:10:00","47023","2.2359999999999998","197.0","6.207","202.3","1017.925","21.03","63.72","606.4","0.0"],
    [1409439,"2026-04-26 15:20:00","47024","2.948","195.5","4.933","216","1017.931","21.02","65.67","580.2","0.0"],
    [1409440,"2026-04-26 15:30:00","47025","2.3890000000000002","204.6","4.9","217.6","1017.954","21.17","62.7","549.8","0.0"],
    [1409441,"2026-04-26 15:40:00","47026","2.5469999999999997","208.6","4.41","216.1","1017.9119999999999","21.27","57.59","517.3","0.0"],
    [1409442,"2026-04-26 15:50:00","47027","2.331","216.2","4.116","212.1","1017.855","21.57","48.65","486.5","0.0"],
    [1409443,"2026-04-26 16:00:00","47028","2.076","201.5","4.051","136.5","1017.7360000000001","21.86","44.82","433.3","0.0"],
    [1409444,"2026-04-26 16:10:00","47029","1.848","199.6","3.43","232.4","1017.643","21.9","46.8","419.3","0.0"],
    [1409445,"2026-04-26 16:20:00","47030","1.527","208.0","3.201","220.9","1017.659","21.85","46.54","371.9","0.0"],
    [1409446,"2026-04-26 16:30:00","47031","1.516","194.9","2.613","242.9","1017.681","22.25","41.94","357.1","0.0"],
    [1409447,"2026-04-26 16:40:00","47032","1.031","183.5","2.777","220.1","1017.682","22.2","42.53","323.5","0.0"],
    [1409448,"2026-04-26 16:50:00","47033","0.8540000000000001","128.1","2.352","166.8","1017.605","21.81","49.12","291.7","0.0"],
    [1409449,"2026-04-26 17:00:00","47034","0.652","176.9","2.123","92","1017.53","22.13","46.63","260.6","0.0"],
    [1409450,"2026-04-26 17:10:00","47035","0.996","92.9","2.221","89.5","1017.485","22.41","45.3","230.3","0.0"],
    [1409451,"2026-04-26 17:20:00","47036","0.848","120.0","1.895","70.45","1017.492","22.11","43.24","200.6","0.0"],
    [1409452,"2026-04-26 17:30:00","47037","1.486","180.3","3.332","232.7","1017.482","21.79","42.59","172.2","0.0"],
    [1409453,"2026-04-26 17:40:00","47038","1.9669999999999999","171.6","5.586","184.9","1017.48","21.35","43.49","144.2","0.0"],
    [1409454,"2026-04-26 17:50:00","47039","1.642","173.6","3.136","216.7","1017.5269999999999","21.12","40.59","114.9","0.0"],
    [1409455,"2026-04-26 18:00:00","47040","0.972","188.6","2.156","164.7","1017.654","21.07","36.06","86.9","0.0"],
    [1409456,"2026-04-26 18:10:00","47041","1.426","196.8","3.071","263.9","1017.6489999999999","20.75","33.9","63.18","0.0"],
    [1409457,"2026-04-26 18:20:00","47042","1.013","184.4","2.417","295.2","1017.6560000000001","20.55","33.93","40.34","0.0"],
    [1409458,"2026-04-26 18:30:00","47043","1.3659999999999999","191.7","5.096","60.35","1017.706","20.31","33.01","20.35","0.0"],
    [1409459,"2026-04-26 18:40:00","47044","1.653","177.3","2.613","182.6","1017.8389999999999","20.08","34.83","8.24","0.0"],
    [1409460,"2026-04-26 18:50:00","47045","1.609","188.2","3.691","107.5","1017.953","19.8","35.58","1.3659999999999999","0.0"],
    [1409461,"2026-04-26 19:00:00","47046","2.075","185.1","3.038","186.9","1018.059","19.35","50.27","-1.56","0.0"],
    [1409462,"2026-04-26 19:10:00","47047","2.1830000000000003","189.8","3.789","194.6","1018.2130000000001","18.83","70.2","-2.459","0.0"],
    [1409463,"2026-04-26 19:20:00","47048","2.046","187.4","3.92","178.2","1018.227","18.59","77.92","-2.6519999999999997","0.0"],
    [1409464,"2026-04-26 19:30:00","47049","2.099","202.2","3.724","199.9","1018.222","18.17","82.9","-2.633","0.0"],
    [1409465,"2026-04-26 19:40:00","47050","2.311","215.3","5.455","222.8","1018.28","18.01","84.7","-2.653","0.0"],
    [1409466,"2026-04-26 19:50:00","47051","2.394","220.6","5.259","196.4","1018.3810000000001","17.95","84.7","-2.661","0.0"],
    [1409467,"2026-04-26 20:00:00","47052","1.203","232.8","2.45","243.7","1018.5160000000001","17.78","86.1","-2.687","0.0"],
    [1409468,"2026-04-26 20:10:00","47053","0.946","239.9","2.156","235.2","1018.6419999999999","17.65","85.6","-2.6919999999999997","0.0"],
    [1409469,"2026-04-26 20:20:00","47054","1.841","220.2","3.43","215.5","1018.66","17.77","83.6","-2.7","0.0"],
    [1409470,"2026-04-26 20:30:00","47055","2.545","205.1","4.475","179.4","1018.6360000000001","17.98","81.2","-2.6830000000000003","0.0"],
    [1409471,"2026-04-26 20:40:00","47056","1.7819999999999998","212.1","3.397","208","1018.699","17.95","83.4","-2.6710000000000003","0.0"],
    [1409472,"2026-04-26 20:50:00","47057","2.793","216.7","4.279","230.9","1018.704","17.8","81.5","-2.6719999999999997","0.0"],
    [1409473,"2026-04-26 21:00:00","47058","1.916","208.3","4.345","212.5","1018.738","17.96","82.4","-2.614","0.0"],
    [1409474,"2026-04-26 21:10:00","47059","2.0909999999999997","215.8","3.071","221","1018.7739999999999","17.71","85.6","-2.6889999999999996","0.0"],
    [1409475,"2026-04-26 21:20:00","47060","2.303","217.4","3.267","234.8","1018.822","17.65","86.4","-2.591","0.0"],
    [1409476,"2026-04-26 21:30:00","47061","2.45","218.0","3.365","204.4","1018.89","17.61","86.4","-2.411","0.0"],
    [1409477,"2026-04-26 21:40:00","47062","2.325","213.2","3.561","202.8","1018.8580000000001","17.63","86.1","-2.464","0.0"],
    [1409478,"2026-04-26 21:50:00","47063","1.915","221.6","3.234","221.2","1018.8530000000001","17.63","85.8","-2.655","0.0"],
    [1409479,"2026-04-26 22:00:00","47064","2.292","222.4","3.299","225.3","1018.834","17.6","85.7","-2.63","0.0"],
    [1409480,"2026-04-26 22:10:00","47065","2.069","218.4","3.103","212.1","1018.7760000000001","17.61","85.6","-2.6439999999999997","0.0"],
    [1409481,"2026-04-26 22:20:00","47066","1.8940000000000001","224.2","3.267","234.1","1018.6610000000001","17.56","86.0","-2.6660000000000004","0.0"],
    [1409482,"2026-04-26 22:30:00","47067","2.064","226.1","3.234","211.1","1018.6089999999999","17.5","85.6","-2.6630000000000003","0.0"],
    [1409483,"2026-04-26 22:40:00","47068","2.092","226.0","3.103","220.8","1018.566","17.47","84.5","-2.617","0.0"],
    [1409484,"2026-04-26 22:50:00","47069","2.22","220.5","3.038","202.2","1018.513","17.49","84.0","-2.6830000000000003","0.0"],
    [1409485,"2026-04-26 23:00:00","47070","1.85","228.3","2.907","226.3","1018.5210000000001","17.45","83.7","-2.678","0.0"],
    [1409486,"2026-04-26 23:10:00","47071","1.3090000000000002","234.6","2.875","238.7","1018.466","17.3","83.5","-2.5980000000000003","0.0"],
    [1409487,"2026-04-26 23:20:00","47072","1.761","227.7","2.907","218.3","1018.444","17.23","83.5","-2.3169999999999997","0.0"],
    [1409488,"2026-04-26 23:30:00","47073","1.2670000000000001","228.0","1.927","219.7","1018.461","17.11","83.2","-2.049","0.0"],
    [1409489,"2026-04-26 23:40:00","47074","1.635","223.0","2.091","225.7","1018.442","17.11","82.0","-2.523","0.0"],
    [1409490,"2026-04-26 23:50:00","47075","1.3219999999999998","229.3","1.862","228.4","1018.408","17.11","81.4","-2.628","0.0"],
    [1409491,"2026-04-27 00:00:00","47076","1.214","235.1","2.058","242.5","1018.306","16.87","77.79","-2.69","0.0"],
    [1409492,"2026-04-27 00:10:00","47077","0.875","241.6","1.797","272.7","1018.184","16.7","69.84","-2.694","0.0"],
    [1409493,"2026-04-27 00:20:00","47078","1.28","252.8","2.581","279.3","1018.1310000000001","16.61","64.72","-2.694","0.0"],
    [1409494,"2026-04-27 00:30:00","47079","1.162","248.2","2.548","273.4","1018.06","16.64","60.7","-2.687","0.0"],
    [1409495,"2026-04-27 00:40:00","47080","1.051","248.6","1.764","249.4","1017.959","16.56","58.16","-2.695","0.0"],
    [1409496,"2026-04-27 00:50:00","47081","1.0","257.1","1.96","278.5","1017.834","16.35","57.01","-2.694","0.0"],
    [1409497,"2026-04-27 01:00:00","47082","0.997","240.0","1.862","222.8","1017.7260000000001","16.13","57.22","-2.694","0.0"],
    [1409498,"2026-04-27 01:10:00","47083","1.774","223.3","2.417","234.9","1017.648","16.0","57.23","-2.687","0.0"],
    [1409499,"2026-04-27 01:20:00","47084","1.395","235.7","2.319","227","1017.587","15.81","58.26","-2.443","0.0"],
    [1409500,"2026-04-27 01:30:00","47085","1.3359999999999999","236.8","2.254","243.2","1017.53","15.79","56.72","-2.6289999999999996","0.0"],
    [1409501,"2026-04-27 01:40:00","47086","1.534","235.4","2.744","246.1","1017.493","15.85","57.62","-2.269","0.0"],
    [1409502,"2026-04-27 01:50:00","47087","1.629","232.6","2.548","232.7","1017.477","15.87","59.37","-1.88","0.0"],
    [1409503,"2026-04-27 02:00:00","47088","1.9169999999999998","229.6","3.071","251.5","1017.43","16.11","58.72","-1.3459999999999999","0.0"],
    [1409504,"2026-04-27 02:10:00","47089","2.2430000000000003","226.3","3.234","230.3","1017.445","16.37","56.4","-1.198","0.0"],
    [1409505,"2026-04-27 02:20:00","47090","1.882","226.0","2.94","226.4","1017.432","16.54","54.4","-1.198","0.0"],
    [1409506,"2026-04-27 02:30:00","47091","1.505","233.4","2.515","240.1","1017.4110000000001","16.85","51.77","-1.197","0.0"],
    [1409507,"2026-04-27 02:40:00","47092","1.1","237.9","1.895","245.7","1017.4","17.08","52.34","-1.196","0.0"],
    [1409508,"2026-04-27 02:50:00","47093","1.186","228.8","1.895","249.6","1017.3530000000001","17.25","51.79","-1.197","0.0"],
    [1409509,"2026-04-27 03:00:00","47094","1.168","227.0","2.091","219.2","1017.346","17.33","50.22","-1.197","0.0"],
    [1409510,"2026-04-27 03:10:00","47095","1.092","213.9","2.189","223","1017.29","17.41","50.06","-1.195","0.0"],
    [1409511,"2026-04-27 03:20:00","47096","0.833","201.3","1.666","210.3","1017.2510000000001","17.25","52.58","-1.2","0.0"],
    [1409512,"2026-04-27 03:30:00","47097","1.32","222.6","2.189","210.5","1017.255","17.22","59.9","-1.197","0.0"],
    [1409513,"2026-04-27 03:40:00","47098","1.4880000000000002","225.7","2.319","225.6","1017.315","17.16","58.85","-1.209","0.0"],
    [1409514,"2026-04-27 03:50:00","47099","1.609","219.4","2.156","215.6","1017.352","17.24","57.47","-1.194","0.0"],
    [1409515,"2026-04-27 04:00:00","47100","2.237","215.2","2.94","215.1","1017.303","17.14","61.89","-1.194","0.0"],
    [1409516,"2026-04-27 04:10:00","47101","2.436","217.5","3.299","212.3","1017.326","17.02","63.59","-1.194","0.0"],
    [1409517,"2026-04-27 04:20:00","47102","2.031","225.4","3.071","221.1","1017.3710000000001","17.0","63.78","-1.194","0.0"],
    [1409518,"2026-04-27 04:30:00","47103","1.091","237.8","2.025","249.7","1017.3660000000001","17.0","66.16","-1.194","0.0"],
    [1409519,"2026-04-27 04:40:00","47104","1.072","233.4","1.895","204.1","1017.4839999999999","16.89","68.08","-1.194","0.0"],
    [1409520,"2026-04-27 04:50:00","47105","0.857","241.5","1.699","200.7","1017.495","16.82","66.49","-0.7879999999999999","0.0"],
    [1409521,"2026-04-27 05:00:00","47106","0.6409999999999999","237.4","1.405","257.6","1017.4910000000001","16.9","62.24","2.303","0.0"],
    [1409522,"2026-04-27 05:20:00","47107","0.865","287.3","1.339","276.5","1017.5830000000001","16.73","60.96","16.1","0.0"],
    [1409523,"2026-04-27 05:30:00","47108","0.925","268.9","2.025","271.9","1017.704","16.96","60.03","17.25","0.0"],
    [1409524,"2026-04-27 05:40:00","47109","0.603","274.8","1.013","287.1","1017.7689999999999","17.04","61.54","26.5","0.0"],
    [1409525,"2026-04-27 05:50:00","47110","0.513","239.2","0.98","232.5","1017.8430000000001","17.23","61.95","58.44","0.0"],
    [1409526,"2026-04-27 06:00:00","47111","0.562","301.6","1.372","329.9","1017.923","17.73","61.33","77.71","0.0"],
    [1409527,"2026-04-27 06:10:00","47112","0.7829999999999999","278.7","1.209","291.8","1017.9989999999999","17.72","62.75","98.6","0.0"],
    [1409528,"2026-04-27 06:20:00","47113","0.159","272.8","0.719","271.8","1018.0830000000001","17.9","62.18","114.2","0.0"],
    [1409529,"2026-04-27 06:30:00","47114","0.0","0.0","0","0","1018.1460000000001","18.18","60.66","109.0","0.0"],
    [1409530,"2026-04-27 06:40:00","47115","0.0","214.8","0.033","214.8","1018.235","18.49","60.19","125.8","0.0"],
    [1409531,"2026-04-27 06:50:00","47116","0.242","168.4","1.143","184.5","1018.242","18.88","60.84","190.1","0.0"],
    [1409532,"2026-04-27 07:00:00","47117","0.21899999999999997","53.77","0.947","89.6","1018.243","19.76","57.98","285.8","0.0"],
    [1409533,"2026-04-27 07:10:00","47118","0.975","90.1","2.058","76.41","1018.21","19.95","56.81","212.2","0.0"],
    [1409534,"2026-04-27 07:20:00","47119","1.5590000000000002","85.0","3.038","86.4","1018.2539999999999","19.63","58.75","252.2","0.0"],
    [1409535,"2026-04-27 07:30:00","47120","2.119","73.88","3.201","62.22","1018.2819999999999","19.71","62.38","445.7","0.0"],
    [1409536,"2026-04-27 07:40:00","47121","2.75","63.27","3.626","67.5","1018.2810000000001","19.71","64.6","543.8","0.0"],
    [1409537,"2026-04-27 07:50:00","47122","2.5660000000000003","85.3","3.724","92.7","1018.28","20.0","65.64","598.6","0.0"],
    [1409538,"2026-04-27 08:00:00","47123","2.254","92.5","3.299","80.8","1018.331","19.84","68.34","619.0","0.0"],
    [1409539,"2026-04-27 08:10:00","47124","1.839","94.8","4.671","90","1018.388","20.29","67.02","693.7","0.0"],
    [1409540,"2026-04-27 08:20:00","47125","1.992","99.5","3.724","80.4","1018.426","20.02","66.49","473.6","0.0"],
    [1409541,"2026-04-27 08:30:00","47126","1.88","92.0","3.005","99.1","1018.436","19.37","67.64","361.2","0.0"],
    [1409542,"2026-04-27 08:40:00","47127","2.061","90.1","3.299","88.1","1018.456","19.48","69.33","563.0","0.0"],
    [1409543,"2026-04-27 08:50:00","47128","2.2640000000000002","79.32","3.822","83.3","1018.419","19.91","68.79","665.6","0.0"],
    [1409544,"2026-04-27 09:00:00","47129","2.978","69.95","4.639","70.04","1018.3589999999999","19.92","67.94","697.4","0.0"],
    [1409545,"2026-04-27 09:10:00","47130","3.1839999999999997","60.5","4.214","67.05","1018.336","19.95","67.02","713.2","0.0"],
    [1409546,"2026-04-27 09:20:00","47131","3.4560000000000004","67.47","4.737","76.18","1018.336","20.16","64.46","731.6","0.0"],
    [1409547,"2026-04-27 09:30:00","47132","4.34","63.73","5.651","63.96","1018.329","20.29","62.09","761.5","0.0"],
    [1409548,"2026-04-27 09:40:00","47133","4.3919999999999995","65.71","5.586","68.39","1018.288","20.51","59.76","786.8","0.0"],
    [1409549,"2026-04-27 09:50:00","47134","3.971","61.37","5.455","60.28","1018.34","20.72","58.08","811.0","0.0"],
    [1409550,"2026-04-27 10:00:00","47135","4.0889999999999995","61.4","5.325","76.42","1018.331","21.03","56.17","825.0","0.0"],
    [1409551,"2026-04-27 10:10:00","47136","3.8080000000000003","58.08","5.357","48.73","1018.3","21.11","53.23","840.0","0.0"],
    [1409552,"2026-04-27 10:20:00","47137","3.8160000000000003","78.05","5.39","89.7","1018.319","21.16","52.26","855.0","0.0"],
    [1409553,"2026-04-27 10:30:00","47138","3.7680000000000002","76.25","5.423","95.5","1018.3689999999999","20.74","59.25","882.0","0.0"],
    [1409554,"2026-04-27 10:40:00","47139","3.557","69.06","5.096","54.27","1018.4010000000001","20.82","61.33","917.0","0.0"],
    [1409555,"2026-04-27 10:50:00","47140","3.636","73.58","5.423","77.46","1018.431","20.59","66.63","1013.0","0.0"],
    [1409556,"2026-04-27 11:00:00","47141","3.014","81.8","4.704","76.6","1018.3939999999999","20.81","69.23","922.0","0.0"],
    [1409557,"2026-04-27 11:10:00","47142","2.327","92.1","3.463","88.6","1018.336","20.51","68.0","602.2","0.0"],
    [1409558,"2026-04-27 11:20:00","47143","2.439","68.46","3.593","61.87","1018.2539999999999","20.34","68.11","732.1","0.0"],
    [1409559,"2026-04-27 11:30:00","47144","2.331","76.49","4.116","68.33","1018.1189999999999","21.1","62.74","1107.0","0.0"],
    [1409560,"2026-04-27 11:40:00","47145","2.406","80.6","3.561","69.87","1018.034","21.39","59.24","1020.0","0.0"],
    [1409561,"2026-04-27 11:50:00","47146","2.79","72.14","5.031","82.9","1017.946","21.12","61.23","992.0","0.0"],
    [1409562,"2026-04-27 12:00:00","47147","2.708","83.0","4.508","87.6","1017.8530000000001","21.06","60.27","972.0","0.0"],
    [1409563,"2026-04-27 12:10:00","47148","2.765","84.2","3.789","88.4","1017.807","21.08","61.07","958.0","0.0"],
    [1409564,"2026-04-27 12:20:00","47149","2.781","79.94","3.822","81.5","1017.7639999999999","21.13","62.84","932.0","0.0"],
    [1409565,"2026-04-27 12:30:00","47150","1.985","101.1","3.43","87.7","1017.7139999999999","21.28","60.25","860.0","0.0"],
    [1409566,"2026-04-27 12:40:00","47151","1.535","114.5","3.953","107.5","1017.592","21.49","57.43","915.0","0.0"],
    [1409567,"2026-04-27 12:50:00","47152","1.173","112.2","3.005","74.91","1017.547","21.58","57.18","921.0","0.0"],
    [1409568,"2026-04-27 13:00:00","47153","1.2590000000000001","147.4","3.397","48.28","1017.574","21.66","58.43","849.0","0.0"],
    [1409569,"2026-04-27 13:10:00","47154","1.679","174.6","4.083","194","1017.6189999999999","21.34","62.47","498.1","0.0"],
    [1409570,"2026-04-27 13:20:00","47155","2.5140000000000002","192.2","4.345","186.4","1017.6139999999999","20.19","68.39","543.8","0.0"],
    [1409571,"2026-04-27 13:30:00","47156","1.992","203.9","4.018","222.9","1017.4810000000001","20.6","66.35","773.4","0.0"],
    [1409572,"2026-04-27 13:40:00","47157","2.086","183.0","3.626","197.2","1017.393","20.74","65.29","825.0","0.0"],
    [1409573,"2026-04-27 13:50:00","47158","2.4619999999999997","177.9","4.247","163.7","1017.317","20.62","65.84","731.6","0.0"],
    [1409574,"2026-04-27 14:00:00","47159","2.272","191.4","4.116","171.1","1017.135","20.19","66.19","721.3","0.0"],
    [1409575,"2026-04-27 14:10:00","47160","1.784","202.4","3.528","217.9","1016.972","21.02","58.31","766.9","0.0"],
    [1409576,"2026-04-27 14:20:00","47161","2.151","186.1","4.508","224.7","1016.813","21.31","55.33","743.2","0.0"],
    [1409577,"2026-04-27 14:30:00","47162","2.151","184.9","4.149","197.1","1016.668","21.02","54.17","722.9","0.0"],
    [1409578,"2026-04-27 14:40:00","47163","2.015","182.5","3.43","186.3","1016.6360000000001","21.15","53.32","699.1","0.0"],
    [1409579,"2026-04-27 14:50:00","47164","2.32","195.9","4.149","211","1016.7080000000001","21.07","55.61","673.9","0.0"],
    [1409580,"2026-04-27 15:00:00","47165","2.543","171.7","3.887","152.4","1016.7669999999999","20.9","54.71","648.4","0.0"],
    [1409581,"2026-04-27 15:10:00","47166","2.4","179.2","4.214","187.3","1016.819","20.68","52.8","619.9","0.0"],
    [1409582,"2026-04-27 15:20:00","47167","2.4619999999999997","178.1","4.083","188","1016.7869999999999","20.84","50.97","590.6","0.0"],
    [1409583,"2026-04-27 15:30:00","47168","2.217","200.6","6.925","198.2","1016.717","21.02","52.16","560.4","0.0"],
    [1409584,"2026-04-27 15:40:00","47169","2.217","199.6","4.149","234.8","1016.633","21.14","53.4","531.3","0.0"],
    [1409585,"2026-04-27 15:50:00","47170","2.3280000000000003","187.6","4.149","182.6","1016.6439999999999","20.93","53.4","501.4","0.0"],
    [1409586,"2026-04-27 16:00:00","47171","2.7430000000000003","194.2","4.247","211.9","1016.579","20.61","55.75","447.1","0.0"],
    [1409587,"2026-04-27 16:10:00","47172","2.39","195.3","4.508","223.7","1016.659","20.25","58.76","425.6","0.0"],
    [1409588,"2026-04-27 16:20:00","47173","1.636","181.5","3.691","160.5","1016.654","20.27","60.15","394.0","0.0"],
    [1409589,"2026-04-27 16:30:00","47174","1.19","147.3","3.593","153.6","1016.6160000000001","20.55","56.43","371.5","0.0"],
    [1409590,"2026-04-27 16:40:00","47175","1.7480000000000002","190.1","3.071","189.1","1016.5","20.42","56.64","337.9","0.0"],
    [1409591,"2026-04-27 16:50:00","47176","1.79","190.0","3.528","203.7","1016.4789999999999","20.74","56.78","304.7","0.0"],
    [1409592,"2026-04-27 17:00:00","47177","1.5119999999999998","189.5","3.136","164.8","1016.383","20.4","61.76","271.4","0.0"],
    [1409593,"2026-04-27 17:10:00","47178","1.051","162.3","4.475","219.2","1016.301","20.22","58.55","237.6","0.0"],
    [1409594,"2026-04-27 17:20:00","47179","0.762","151.7","2.417","135.3","1016.305","19.97","62.38","204.7","0.0"],
    [1409595,"2026-04-27 17:30:00","47180","0.922","195.7","3.822","188.5","1016.341","19.9","63.53","172.8","0.0"],
    [1409596,"2026-04-27 17:40:00","47181","1.814","190.8","3.593","185.6","1016.383","19.54","64.87","144.0","0.0"],
    [1409597,"2026-04-27 17:50:00","47182","2.026","213.7","3.43","199.5","1016.436","19.26","67.04","116.8","0.0"],
    [1409598,"2026-04-27 18:00:00","47183","1.8030000000000002","213.2","3.953","224.7","1016.437","19.01","69.36","89.3","0.0"],
    [1409599,"2026-04-27 18:10:00","47184","2.205","208.7","3.463","201.1","1016.443","18.88","71.16","63.63","0.0"],
    [1409600,"2026-04-27 18:20:00","47185","2.147","205.5","4.41","222.6","1016.5889999999999","18.62","72.63","40.06","0.0"],
    [1409601,"2026-04-27 18:30:00","47186","2.215","214.6","4.737","231.6","1016.653","18.44","75.04","19.61","0.0"],
    [1409602,"2026-04-27 18:40:00","47187","2.474","212.6","4.181","205.2","1016.612","18.16","76.77","7.747999999999999","0.0"],
    [1409603,"2026-04-27 18:50:00","47188","2.522","214.3","5.357","196.9","1016.5989999999999","18.05","77.96","0.966","0.0"],
    [1409604,"2026-04-27 19:00:00","47189","2.438","210.5","3.659","201.5","1016.613","17.96","77.77","-1.819","0.0"],
    [1409605,"2026-04-27 19:10:00","47190","2.023","203.0","3.43","221.6","1016.6260000000001","17.92","75.06","-2.7060000000000004","0.0"],
    [1409606,"2026-04-27 19:20:00","47191","1.6569999999999998","204.2","3.169","215.5","1016.622","17.94","75.12","-2.839","0.0"],
    [1409607,"2026-04-27 19:30:00","47192","1.739","198.8","3.071","175.8","1016.6460000000001","17.89","75.99","-2.853","0.0"],
    [1409608,"2026-04-27 19:40:00","47193","1.5519999999999998","188.7","3.299","185.8","1016.7639999999999","17.87","76.57","-2.955","0.0"],
    [1409609,"2026-04-27 19:50:00","47194","1.54","184.8","3.365","177.5","1016.824","17.8","76.74","-3.137","0.0"],
    [1409610,"2026-04-27 20:00:00","47195","1.591","177.0","4.083","141.6","1016.9060000000001","17.83","76.64","-2.887","0.0"],
    [1409611,"2026-04-27 20:10:00","47196","1.35","183.4","2.809","151.2","1016.8889999999999","17.76","76.93","-3.13","0.0"],
    [1409612,"2026-04-27 20:20:00","47197","1.311","194.3","2.777","210.5","1016.86","17.7","75.66","-3.112","0.0"],
    [1409613,"2026-04-27 20:30:00","47198","0.919","212.6","2.254","175.5","1016.865","17.6","76.22","-3.17","0.0"],
    [1409614,"2026-04-27 20:40:00","47199","0.46399999999999997","268.4","1.176","243.4","1016.8510000000001","17.53","76.79","-3.372","0.0"],
    [1409615,"2026-04-27 20:50:00","47200","0.9259999999999999","252.4","1.895","231.4","1016.7860000000001","17.46","77.27","-3.3160000000000003","0.0"],
    [1409616,"2026-04-27 21:00:00","47201","0.5429999999999999","205.6","1.47","224.7","1016.779","17.18","75.84","-2.92","0.0"],
    [1409617,"2026-04-27 21:10:00","47202","0.846","193.9","1.372","185.3","1016.687","17.34","77.23","-3.013","0.0"],
    [1409618,"2026-04-27 21:20:00","47203","0.43200000000000005","203.1","1.078","216.1","1016.602","17.31","78.64","-2.695","0.0"],
    [1409619,"2026-04-27 21:30:00","47204","1.272","224.4","2.091","204.2","1016.62","17.29","77.64","-2.688","0.0"],
    [1409620,"2026-04-27 21:40:00","47205","1.399","208.4","2.058","210.2","1016.6","17.46","78.83","-2.293","0.0"],
    [1409621,"2026-04-27 21:50:00","47206","1.5490000000000002","215.6","2.352","194.8","1016.5419999999999","17.38","79.36","-2.549","0.0"],
    [1409622,"2026-04-27 22:00:00","47207","1.337","213.7","2.156","220.1","1016.462","17.31","79.98","-2.687","0.0"],
    [1409623,"2026-04-27 22:10:00","47208","1.4509999999999998","225.2","2.319","212.9","1016.388","17.28","80.2","-2.654","0.0"],
    [1409624,"2026-04-27 22:20:00","47209","1.2429999999999999","233.3","1.927","239.4","1016.398","17.14","80.4","-2.6889999999999996","0.0"],
    [1409625,"2026-04-27 22:30:00","47210","0.706","252.9","1.241","251","1016.314","16.98","80.2","-2.694","0.0"],
    [1409626,"2026-04-27 22:40:00","47211","1.062","277.2","1.699","280.5","1016.216","16.65","77.59","-2.694","0.0"],
    [1409627,"2026-04-27 22:50:00","47212","0.97","260.7","1.601","273.5","1016.198","16.48","70.69","-2.694","0.0"],
    [1409628,"2026-04-27 23:00:00","47213","0.948","252.1","1.633","277.7","1016.216","16.71","67.67","-2.7060000000000004","0.0"],
    [1409629,"2026-04-27 23:10:00","47214","1.012","245.3","1.699","242","1016.195","16.67","65.4","-2.7489999999999997","0.0"],
    [1409630,"2026-04-27 23:20:00","47215","0.8590000000000001","242.3","1.633","231.4","1016.07","16.54","62.94","-2.705","0.0"],
    [1409631,"2026-04-27 23:30:00","47216","1.215","267.2","2.711","260.6","1015.954","16.49","61.1","-2.7260000000000004","0.0"],
    [1409632,"2026-04-27 23:40:00","47217","1.521","269.9","2.417","275","1015.9069999999999","16.0","58.36","-2.696","0.0"],
    [1409633,"2026-04-27 23:50:00","47218","0.996","266.2","2.058","278.1","1015.8389999999999","15.65","58.97","-2.699","0.0"],
    [1409634,"2026-04-28 00:00:00","47219","1.32","260.3","2.483","261.8","1015.7689999999999","15.49","59.13","-2.7","0.0"],
    [1409635,"2026-04-28 00:10:00","47220","1.169","256.4","2.809","262.2","1015.684","15.54","58.98","-2.7110000000000003","0.0"],
    [1409636,"2026-04-28 00:20:00","47221","1.21","251.9","2.254","293.8","1015.6110000000001","15.61","58.25","-2.827","0.0"],
    [1409637,"2026-04-28 00:30:00","47222","1.4609999999999999","254.0","2.94","240.9","1015.6110000000001","15.86","56.95","-2.862","0.0"],
    [1409638,"2026-04-28 00:40:00","47223","1.102","263.3","2.417","276.9","1015.55","15.61","58.31","-2.713","0.0"],
    [1409639,"2026-04-28 00:50:00","47224","1.516","278.0","2.417","281.8","1015.413","15.33","58.93","-2.7310000000000003","0.0"],
    [1409640,"2026-04-28 01:00:00","47225","1.208","270.9","1.96","267.5","1015.2769999999999","15.0","59.83","-2.722","0.0"],
    [1409641,"2026-04-28 01:10:00","47226","1.0270000000000001","276.3","2.221","271.7","1015.107","15.0","60.37","-2.719","0.0"],
    [1409642,"2026-04-28 01:20:00","47227","0.606","265.5","1.241","250.3","1014.921","14.72","61.73","-2.779","0.0"],
    [1409643,"2026-04-28 01:30:00","47228","0.907","265.9","1.699","274.9","1014.83","14.72","62.47","-2.735","0.0"],
    [1409644,"2026-04-28 01:40:00","47229","0.995","278.2","1.862","306.6","1014.763","14.64","62.74","-2.727","0.0"],
    [1409645,"2026-04-28 01:50:00","47230","1.379","273.8","2.156","274.6","1014.637","14.6","63.09","-2.785","0.0"],
    [1409646,"2026-04-28 02:00:00","47231","1.371","264.3","2.319","257.6","1014.5930000000001","14.82","61.77","-2.7289999999999996","0.0"],
    [1409647,"2026-04-28 02:10:00","47232","1.021","248.9","1.927","278.3","1014.559","14.89","60.96","-2.728","0.0"],
    [1409648,"2026-04-28 02:20:00","47233","1.3780000000000001","233.9","2.058","236.8","1014.4780000000001","14.85","60.62","-2.728","0.0"],
    [1409649,"2026-04-28 02:30:00","47234","1.4469999999999998","232.8","2.581","239.5","1014.475","14.64","61.97","-2.727","0.0"],
    [1409650,"2026-04-28 02:40:00","47235","1.6480000000000001","231.4","2.777","239.6","1014.426","14.45","62.96","-2.728","0.0"],
    [1409651,"2026-04-28 02:50:00","47236","1.739","232.0","2.907","240.1","1014.33","14.66","61.32","-2.7319999999999998","0.0"],
    [1409652,"2026-04-28 03:00:00","47237","1.422","257.6","2.45","258.7","1014.216","14.65","61.83","-2.728","0.0"],
    [1409653,"2026-04-28 03:10:00","47238","1.141","256.8","2.417","280.4","1014.15","14.3","63.46","-2.728","0.0"],
    [1409654,"2026-04-28 03:20:00","47239","1.3559999999999999","269.4","2.875","272.7","1014.122","14.27","64.05","-2.7460000000000004","0.0"],
    [1409655,"2026-04-28 03:30:00","47240","1.33","278.2","2.385","304.4","1014.064","14.24","65.05","-2.728","0.0"],
    [1409656,"2026-04-28 03:40:00","47241","1.383","263.6","2.287","267.2","1013.9639999999999","14.16","66.36","-2.7319999999999998","0.0"],
    [1409657,"2026-04-28 03:50:00","47242","1.683","267.7","2.744","267.4","1013.8610000000001","14.13","67.22","-2.728","0.0"],
    [1409658,"2026-04-28 04:00:00","47243","1.247","273.0","2.123","271.7","1013.7410000000001","14.15","67.84","-2.728","0.0"],
    [1409659,"2026-04-28 04:10:00","47244","0.953","283.0","1.633","297.1","1013.605","13.84","68.97","-2.728","0.0"],
    [1409660,"2026-04-28 04:20:00","47245","0.706","288.9","1.437","275.2","1013.512","13.68","69.94","-2.7439999999999998","0.0"],
    [1409661,"2026-04-28 04:30:00","47246","0.47600000000000003","285.2","1.111","289.2","1013.539","13.66","70.4","-2.728","0.0"],
    [1409662,"2026-04-28 04:40:00","47247","0.639","279.3","1.143","287.1","1013.5369999999999","13.49","71.38","-2.513","0.0"],
    [1409663,"2026-04-28 04:50:00","47248","0.8740000000000001","282.7","1.47","284.9","1013.513","13.41","72.18","-0.8959999999999999","0.0"],
    [1409664,"2026-04-28 05:00:00","47249","1.24","277.7","1.731","277.3","1013.525","13.65","72.63","2.778","0.0"],
    [1409665,"2026-04-28 05:10:00","47250","1.287","265.5","1.993","271.1","1013.561","14.05","71.95","12.74","0.0"],
    [1409666,"2026-04-28 05:20:00","47251","1.4609999999999999","258.8","2.777","274","1013.591","14.19","72.16","30.15","0.0"],
    [1409667,"2026-04-28 05:30:00","47252","2.023","276.0","2.711","294.1","1013.678","14.32","72.26","48.33","0.0"],
    [1409668,"2026-04-28 05:40:00","47253","1.71","271.2","2.319","282.3","1013.7180000000001","14.46","71.89","63.75","0.0"],
    [1409669,"2026-04-28 05:50:00","47254","1.49","272.3","2.058","285.9","1013.791","14.76","71.14","75.71","0.0"],
    [1409670,"2026-04-28 06:00:00","47255","1.368","267.1","2.45","275","1013.867","15.1","70.62","93.7","0.0"],
    [1409671,"2026-04-28 06:10:00","47256","1.199","279.9","1.862","284.7","1013.8489999999999","15.54","70.02","115.5","0.0"],
    [1409672,"2026-04-28 06:20:00","47257","1.386","285.3","2.189","288.6","1013.868","15.81","69.31","142.7","0.0"],
    [1409673,"2026-04-28 06:30:00","47258","1.015","286.5","1.731","279.9","1013.95","16.2","68.83","176.0","0.0"],
    [1409674,"2026-04-28 06:40:00","47259","1.042","277.0","1.731","273.2","1013.9680000000001","16.78","67.05","211.0","0.0"],
    [1409675,"2026-04-28 06:50:00","47260","0.7879999999999999","308.8","1.372","314.9","1013.8960000000001","17.08","66.51","242.7","0.0"],
    [1409676,"2026-04-28 07:00:00","47261","0.581","296.4","1.078","299.5","1013.846","17.53","65.25","274.0","0.0"],
    [1409677,"2026-04-28 07:10:00","47262","0.179","293.5","1.045","294.6","1013.8810000000001","18.49","62.79","312.6","0.0"],
    [1409678,"2026-04-28 07:20:00","47263","0.579","194.8","1.829","210.8","1013.8919999999999","19.19","60.04","350.1","0.0"],
    [1409679,"2026-04-28 07:30:00","47264","0.272","90.7","1.013","101.1","1013.885","19.56","58.21","379.7","0.0"],
    [1409680,"2026-04-28 07:40:00","47265","2.13","79.76","3.495","81.7","1013.949","19.44","59.67","412.4","0.0"],
    [1409681,"2026-04-28 07:50:00","47266","2.782","69.5","4.018","79.85","1013.993","19.07","62.09","462.2","0.0"],
    [1409682,"2026-04-28 08:00:00","47267","2.9330000000000003","64.65","3.789","80.8","1014.023","19.07","64.42","479.1","0.0"],
    [1409683,"2026-04-28 08:10:00","47268","2.759","74.57","3.887","87.3","1014.078","19.24","66.23","543.3","0.0"],
    [1409684,"2026-04-28 08:20:00","47269","3.178","71.74","4.116","68.21","1014.153","19.39","65.04","553.8","0.0"],
    [1409685,"2026-04-28 08:30:00","47270","3.2060000000000004","81.6","4.181","87.1","1014.203","19.31","66.15","612.0","0.0"],
    [1409686,"2026-04-28 08:40:00","47271","2.701","82.5","3.855","83.3","1014.33","19.26","68.54","639.2","0.0"],
    [1409687,"2026-04-28 08:50:00","47272","1.724","103.9","3.005","78.3","1014.452","19.81","66.19","667.0","0.0"],
    [1409688,"2026-04-28 09:00:00","47273","2.0380000000000003","97.7","3.43","88","1014.4069999999999","19.73","65.28","693.6","0.0"],
    [1409689,"2026-04-28 09:10:00","47274","1.85","92.5","3.365","77.38","1014.4110000000001","19.95","63.47","719.7","0.0"],
    [1409690,"2026-04-28 09:20:00","47275","1.6340000000000001","115.7","3.724","127.8","1014.446","20.19","58.82","746.2","0.0"],
    [1409691,"2026-04-28 09:30:00","47276","1.355","147.0","2.744","196.4","1014.528","20.42","55.19","765.2","0.0"],
    [1409692,"2026-04-28 09:40:00","47277","1.005","149.3","3.267","167.7","1014.545","20.58","54.06","793.6","0.0"],
    [1409693,"2026-04-28 09:50:00","47278","2.015","175.6","4.149","180.7","1014.592","21.04","53.88","809.0","0.0"],
    [1409694,"2026-04-28 10:00:00","47279","2.9","178.2","4.802","174.3","1014.555","20.39","55.93","834.0","0.0"],
    [1409695,"2026-04-28 10:10:00","47280","3.218","180.3","5.096","180","1014.5010000000001","20.14","60.67","846.0","0.0"],
    [1409696,"2026-04-28 10:20:00","47281","2.838","180.5","4.606","164.5","1014.4689999999999","20.32","61.59","862.0","0.0"],
    [1409697,"2026-04-28 10:30:00","47282","3.4560000000000004","181.2","5.259","183.1","1014.523","19.96","66.43","881.0","0.0"],
    [1409698,"2026-04-28 10:40:00","47283","2.437","185.2","4.835","175","1014.414","20.43","65.72","891.0","0.0"],
    [1409699,"2026-04-28 10:50:00","47284","2.147","187.2","4.671","197.3","1014.29","20.68","63.1","902.0","0.0"],
    [1409700,"2026-04-28 11:00:00","47285","2.661","180.4","5.39","158.5","1014.22","20.45","62.17","911.0","0.0"],
    [1409701,"2026-04-28 11:10:00","47286","2.42","193.9","4.247","215.6","1014.14","20.93","61.94","917.0","0.0"],
    [1409702,"2026-04-28 11:20:00","47287","2.303","185.9","5.325","191.7","1014.048","20.94","61.91","919.0","0.0"],
    [1409703,"2026-04-28 11:30:00","47288","2.49","183.1","4.508","180.8","1013.9639999999999","20.87","61.13","926.0","0.0"],
    [1409704,"2026-04-28 11:40:00","47289","2.938","189.1","6.86","177","1013.84","20.88","58.74","931.0","0.0"],
    [1409705,"2026-04-28 11:50:00","47290","2.625","185.5","4.639","181.7","1013.753","20.68","60.21","930.0","0.0"],
    [1409706,"2026-04-28 12:00:00","47291","2.6889999999999996","184.5","4.247","183.7","1013.6460000000001","20.63","59.38","930.0","0.0"],
    [1409707,"2026-04-28 12:10:00","47292","2.133","191.8","3.561","193.4","1013.533","21.1","56.35","926.0","0.0"],
    [1409708,"2026-04-28 12:20:00","47293","2.189","172.0","4.377","152.6","1013.405","21.04","48.77","926.0","0.0"],
    [1409709,"2026-04-28 12:30:00","47294","2.41","190.0","4.377","159.5","1013.294","21.24","47.78","921.0","0.0"],
    [1409710,"2026-04-28 12:40:00","47295","2.135","187.6","4.083","186.5","1013.148","21.28","48.94","901.0","0.0"],
    [1409711,"2026-04-28 12:50:00","47296","1.8319999999999999","148.4","3.724","181.6","1013.058","21.04","57.8","884.0","0.0"],
    [1409712,"2026-04-28 13:00:00","47297","1.71","109.7","3.593","97.9","1013.007","21.25","61.46","893.0","0.0"],
    [1409713,"2026-04-28 13:10:00","47298","1.655","101.4","3.985","94.3","1012.9739999999999","21.2","64.51","880.0","0.0"],
    [1409714,"2026-04-28 13:20:00","47299","0.622","124.7","2.287","77.55","1012.954","21.86","58.17","867.0","0.0"],
    [1409715,"2026-04-28 13:30:00","47300","1.167","112.2","3.43","64.72","1012.9069999999999","21.83","57.89","855.0","0.0"],
    [1409716,"2026-04-28 13:40:00","47301","1.1520000000000001","116.0","3.561","95.5","1012.755","21.5","59.51","839.0","0.0"],
    [1409717,"2026-04-28 13:50:00","47302","1.04","139.3","3.103","208.4","1012.632","21.45","56.26","824.0","0.0"],
    [1409718,"2026-04-28 14:00:00","47303","1.568","108.9","3.234","95.8","1012.56","21.58","58.13","819.0","0.0"],
    [1409719,"2026-04-28 14:10:00","47304","1.057","104.1","4.018","108.2","1012.67","21.68","58.22","747.3","0.0"],
    [1409720,"2026-04-28 14:20:00","47305","1.331","171.2","4.018","142.5","1012.552","21.27","58.78","813.0","0.0"],
    [1409721,"2026-04-28 14:30:00","47306","1.158","122.3","3.397","112.5","1012.45","21.66","60.92","711.2","0.0"],
    [1409722,"2026-04-28 14:40:00","47307","1.97","110.5","3.92","108.6","1012.314","20.69","64.54","426.2","0.0"],
    [1409723,"2026-04-28 14:50:00","47308","1.304","117.4","3.626","111.4","1012.2489999999999","20.33","64.63","417.7","0.0"],
    [1409724,"2026-04-28 15:00:00","47309","1.43","109.8","4.247","132.1","1012.2260000000001","20.16","63.89","462.7","0.0"],
    [1409725,"2026-04-28 15:10:00","47310","1.399","147.7","3.201","187.4","1012.164","20.92","61.49","721.9","0.0"],
    [1409726,"2026-04-28 15:20:00","47311","1.252","122.8","3.43","115","1012.068","21.53","60.12","723.9","0.0"],
    [1409727,"2026-04-28 15:30:00","47312","2.001","163.6","4.312","182.3","1012.018","20.59","62.21","455.8","0.0"],
    [1409728,"2026-04-28 15:40:00","47313","2.063","159.8","4.671","158.4","1011.909","20.44","63.72","598.6","0.0"],
    [1409729,"2026-04-28 15:50:00","47314","1.391","150.6","3.136","155.5","1011.808","20.74","63.78","409.6","0.0"],
    [1409730,"2026-04-28 16:00:00","47315","1.131","152.1","2.777","193.8","1011.7189999999999","20.61","65.54","412.3","0.0"],
    [1409731,"2026-04-28 16:10:00","47316","1.1440000000000001","138.4","3.528","106.8","1011.677","21.1","64.39","469.5","0.0"],
    [1409732,"2026-04-28 16:20:00","47317","1.245","139.6","3.561","167.7","1011.7","20.67","66.6","421.0","0.0"],
    [1409733,"2026-04-28 16:30:00","47318","1.188","117.8","3.397","179.1","1011.682","20.61","65.75","384.9","0.0"],
    [1409734,"2026-04-28 16:40:00","47319","1.05","151.1","3.855","136.9","1011.677","20.2","65.97","302.6","0.0"],
    [1409735,"2026-04-28 16:50:00","47320","1.499","120.3","4.312","109","1011.623","20.02","66.39","231.1","0.0"],
    [1409736,"2026-04-28 17:00:00","47321","1.5090000000000001","116.7","3.267","106.3","1011.57","19.75","67.12","189.9","0.0"],
    [1409737,"2026-04-28 17:10:00","47322","1.3769999999999998","116.5","3.071","103.1","1011.55","19.57","67.73","212.7","0.0"],
    [1409738,"2026-04-28 17:20:00","47323","1.5419999999999998","107.5","2.777","124.1","1011.5260000000001","19.64","68.4","204.9","0.0"],
    [1409739,"2026-04-28 17:30:00","47324","1.584","92.0","3.332","90.3","1011.4689999999999","19.56","68.96","170.4","0.0"],
    [1409740,"2026-04-28 17:40:00","47325","1.67","98.5","2.973","92.4","1011.428","19.4","69.3","130.3","0.0"],
    [1409741,"2026-04-28 17:50:00","47326","2.275","83.9","3.724","100.9","1011.33","19.2","68.74","86.7","0.0"],
    [1409742,"2026-04-28 18:00:00","47327","2.0540000000000003","83.9","4.018","77.59","1011.24","19.02","69.73","52.69","0.0"],
    [1409743,"2026-04-28 18:10:00","47328","2.18","77.58","4.051","84.1","1011.107","18.83","70.49","32.4","0.0"],
    [1409744,"2026-04-28 18:20:00","47329","2.9930000000000003","71.68","5.096","92.2","1010.936","18.72","70.62","26.52","0.0"],
    [1409745,"2026-04-28 18:30:00","47330","3.3989999999999996","73.29","5.227","89.6","1010.795","18.7","70.42","18.51","0.0"],
    [1409746,"2026-04-28 18:40:00","47331","3.5589999999999997","71.84","5.325","91.3","1010.6569999999999","18.59","70.13","7.78","0.0"],
    [1409747,"2026-04-28 18:50:00","47332","3.573","69.58","4.737","60.17","1010.66","18.52","70.92","1.443","0.0"],
    [1409748,"2026-04-28 19:00:00","47333","3.477","70.35","4.802","58.46","1010.5939999999999","18.48","71.05","-1.382","0.0"],
    [1409749,"2026-04-28 19:10:00","47334","3.4560000000000004","65.96","5.357","78.2","1010.6139999999999","18.43","71.84","-2.592","0.0"],
    [1409750,"2026-04-28 19:20:00","47335","3.62","57.81","5.357","49.46","1010.6469999999999","18.32","73.0","-2.677","0.0"],
    [1409751,"2026-04-28 19:30:00","47336","3.517","57.55","5.259","50.01","1010.7819999999999","18.26","73.93","-2.682","0.0"],
    [1409752,"2026-04-28 19:40:00","47337","3.287","60.55","5.031","66.57","1010.898","18.19","75.08","-2.693","0.0"],
    [1409753,"2026-04-28 19:50:00","47338","3.3169999999999997","58.51","4.867","65.94","1011.0010000000001","18.14","76.41","-2.693","0.0"],
    [1409754,"2026-04-28 20:00:00","47339","3.46","65.19","4.639","70.08","1011.21","18.08","75.7","-2.694","0.0"],
    [1409755,"2026-04-28 20:10:00","47340","2.991","64.46","4.443","63.73","1011.462","18.02","74.7","-2.693","0.0"],
    [1409756,"2026-04-28 20:20:00","47341","3.2239999999999998","64.94","4.671","59.5","1011.605","18.03","75.03","-2.694","0.0"],
    [1409757,"2026-04-28 20:30:00","47342","3.2089999999999996","65.55","4.443","64.71","1011.6419999999999","18.04","76.14","-2.693","0.0"],
    [1409758,"2026-04-28 20:40:00","47343","2.8960000000000004","66.25","4.573","67.41","1011.7360000000001","17.96","78.19","-2.694","0.0"],
    [1409759,"2026-04-28 20:50:00","47344","3.0239999999999996","68.97","4.312","74.85","1011.7130000000001","17.88","78.91","-2.694","0.0"],
    [1409760,"2026-04-28 21:00:00","47345","3.315","71.54","4.508","73.57","1011.676","17.81","79.24","-2.694","0.0"],
    [1409761,"2026-04-28 21:10:00","47346","2.609","71.35","3.92","71.79","1011.807","17.76","80.4","-2.694","0.0"],
    [1409762,"2026-04-28 21:20:00","47347","2.685","70.55","4.083","75.41","1012.0060000000001","17.8","81.7","-2.042","0.0"],
    [1409763,"2026-04-28 21:30:00","47348","2.9960000000000004","71.74","4.541","71.68","1012.173","17.96","82.2","-1.262","0.0"],
    [1409764,"2026-04-28 21:40:00","47349","3.222","79.77","4.573","73.91","1012.3330000000001","18.02","82.0","-1.193","0.0"],
    [1409765,"2026-04-28 21:50:00","47350","3.127","76.98","4.443","68","1012.5189999999999","18.08","81.8","-1.17","0.0"],
    [1409766,"2026-04-28 22:00:00","47351","3.157","70.14","4.475","62.85","1012.582","18.09","81.6","-1.101","0.0"],
    [1409767,"2026-04-28 22:10:00","47352","3.262","73.77","5.031","83.6","1012.709","18.12","81.6","-1.063","0.0"],
    [1409768,"2026-04-28 22:20:00","47353","3.3560000000000003","71.97","4.965","76.02","1012.748","18.18","81.9","-1.102","0.0"],
    [1409769,"2026-04-28 22:30:00","47354","3.194","73.24","5.259","63.48","1012.7139999999999","18.13","82.0","-1.07","0.0"],
    [1409770,"2026-04-28 22:40:00","47355","3.261","81.3","4.443","76.28","1012.8919999999999","18.14","79.98","-1.193","0.0"],
    [1409771,"2026-04-28 22:50:00","47356","3.486","79.64","4.867","82.9","1012.9680000000001","18.22","80.2","-1.192","0.0"],
    [1409772,"2026-04-28 23:00:00","47357","3.4530000000000003","77.75","4.867","78.35","1012.9169999999999","18.24","80.6","-0.9740000000000001","0.0"],
    [1409773,"2026-04-28 23:10:00","47358","2.823","72.27","4.508","85","1013.029","18.18","80.8","-1.155","0.0"],
    [1409774,"2026-04-28 23:20:00","47359","3.017","68.01","4.41","67.02","1012.971","18.07","82.1","-1.465","0.0"],
    [1409775,"2026-04-28 23:30:00","47360","3.0","61.43","4.639","65.19","1012.8789999999999","17.93","83.1","-1.7619999999999998","0.0"],
    [1409776,"2026-04-28 23:40:00","47361","2.8739999999999997","62.31","4.051","67.68","1012.865","17.87","84.6","-2.603","0.0"],
    [1409777,"2026-04-28 23:50:00","47362","3.108","61.34","4.835","55.77","1012.791","17.76","84.5","-1.915","0.0"],
    [1409778,"2026-04-29 00:00:00","47363","3.1310000000000002","66.64","4.443","67.39","1012.7","17.83","83.6","-1.3880000000000001","0.0"],
    [1409779,"2026-04-29 00:10:00","47364","3.065","68.23","4.508","64.12","1012.671","17.9","83.6","-1.192","0.0"],
    [1409780,"2026-04-29 00:20:00","47365","3.641","66.24","4.965","68.73","1012.4989999999999","17.88","83.3","-1.165","0.0"],
    [1409781,"2026-04-29 00:30:00","47366","3.841","73.3","5.684","70.3","1012.4680000000001","17.88","83.9","-1.182","0.0"],
    [1409782,"2026-04-29 00:40:00","47367","3.8539999999999996","71.88","5.325","73.18","1012.39","17.83","83.8","-1.187","0.0"],
    [1409783,"2026-04-29 00:50:00","47368","3.935","67.9","5.619","69.53","1012.307","17.8","83.8","-1.193","0.0"],
    [1409784,"2026-04-29 01:00:00","47369","3.912","65.99","5.553","74.64","1012.283","17.81","83.8","-1.189","0.0"],
    [1409785,"2026-04-29 01:10:00","47370","3.7310000000000003","64.52","5.292","61.52","1012.242","17.84","84.1","-1.147","0.0"],
    [1409786,"2026-04-29 01:20:00","47371","3.699","58.6","5.259","63.37","1012.064","17.82","84.5","-1.177","0.0"],
    [1409787,"2026-04-29 01:30:00","47372","3.6310000000000002","63.16","5.161","71.49","1011.967","17.77","84.6","-1.193","0.0"],
    [1409788,"2026-04-29 01:40:00","47373","3.9589999999999996","66.55","5.455","69.92","1011.8910000000001","17.73","84.5","-1.193","0.0"],
    [1409789,"2026-04-29 01:50:00","47374","3.4789999999999996","71.62","5.031","87","1011.9630000000001","17.75","84.7","-1.1420000000000001","0.0"],
    [1409790,"2026-04-29 02:00:00","47375","3.168","67.19","4.541","62.95","1011.918","17.75","84.8","-1.182","0.0"],
    [1409791,"2026-04-29 02:10:00","47376","3.425","69.77","4.965","71.64","1011.757","17.69","84.5","-1.193","0.0"],
    [1409792,"2026-04-29 02:20:00","47377","3.037","69.71","4.443","70.96","1011.674","17.66","84.8","-1.193","0.0"],
    [1409793,"2026-04-29 02:30:00","47378","3.5460000000000003","65.98","5.39","63.48","1011.559","17.63","85.0","-1.193","0.0"],
    [1409794,"2026-04-29 02:40:00","47379","3.1710000000000003","61.14","4.541","61.38","1011.543","17.6","84.9","-1.193","0.0"],
    [1409795,"2026-04-29 02:50:00","47380","3.304","57.8","4.965","64.02","1011.471","17.6","85.3","-1.193","0.0"],
    [1409796,"2026-04-29 03:00:00","47381","3.5010000000000003","59.79","5.194","56.32","1011.3889999999999","17.6","85.4","-1.36","0.0"],
    [1409797,"2026-04-29 03:10:00","47382","3.667","60.51","5.063","48.25","1011.448","17.53","84.9","-1.229","0.0"],
    [1409798,"2026-04-29 03:20:00","47383","3.784","54.43","5.292","45.73","1011.257","17.54","85.2","-1.354","0.0"],
    [1409799,"2026-04-29 03:30:00","47384","4.0680000000000005","56.93","5.88","51.88","1011.0980000000001","17.5","86.8","-2.645","0.0"],
    [1409800,"2026-04-29 03:40:00","47385","4.394","50.53","6.207","52.94","1011.0889999999999","17.34","86.7","-2.207","0.0"],
    [1409801,"2026-04-29 03:50:00","47386","4.254","44.86","6.305","51.8","1010.97","17.36","86.3","-1.412","0.0"],
    [1409802,"2026-04-29 04:10:00","47387","4.461","47.07","7.219","41.93","1010.922","17.27","85.8","-1.193","0.0"],
    [1409803,"2026-04-29 04:20:00","47388","4.42","52.59","6.991","54.41","1010.946","17.27","85.2","-1.193","0.0"],
    [1409804,"2026-04-29 04:30:00","47389","3.937","47.93","6.305","46.29","1010.826","17.25","84.8","-1.1909999999999998","0.0"],
    [1409805,"2026-04-29 04:40:00","47390","5.001","47.87","8.07","37.84","1010.798","17.23","84.5","-1.052","0.0"],
    [1409806,"2026-04-29 04:50:00","47391","4.606","44.91","6.893","31.91","1010.7460000000001","17.22","84.2","-0.67","0.0"],
    [1409807,"2026-04-29 05:00:00","47392","4.553","48.53","8.46","46.28","1010.71","17.2","84.2","0.452","0.0"],
    [1409808,"2026-04-29 05:10:00","47393","4.6610000000000005","47.66","7.252","50.75","1010.793","17.17","84.3","3.818","0.0"],
    [1409809,"2026-04-29 05:20:00","47394","4.795","49.4","7.546","32.01","1010.763","17.13","83.9","10.5","0.0"],
    [1409810,"2026-04-29 05:30:00","47395","4.723","48.66","7.742","43.15","1010.778","17.13","83.2","18.48","0.0"],
    [1409811,"2026-04-29 05:40:00","47396","4.845","41.61","7.546","45.46","1010.7460000000001","17.18","82.3","31.42","0.0"],
    [1409812,"2026-04-29 05:50:00","47397","4.6930000000000005","43.83","7.709","35.15","1010.795","17.19","82.4","50.84","0.0"],
    [1409813,"2026-04-29 06:00:00","47398","4.837","44.57","7.807","33.9","1010.78","17.28","81.9","81.3","0.0"],
    [1409814,"2026-04-29 06:10:00","47399","5.273","53.66","8.46","44.58","1010.82","17.35","81.3","98.8","0.0"],
    [1409815,"2026-04-29 06:20:00","47400","5.185","56.33","7.677","63.64","1010.934","17.29","82.0","86.0","0.0"],
    [1409816,"2026-04-29 06:30:00","47401","5.652","53.01","8.23","43.06","1010.909","17.32","81.8","162.1","0.0"],
    [1409817,"2026-04-29 06:40:00","47402","6.16","54.32","8.89","49.04","1011.067","17.45","81.4","181.2","0.0"],
    [1409818,"2026-04-29 06:50:00","47403","5.167000000000001","54.39","7.187","63","1011.2460000000001","17.49","81.6","188.9","0.0"],
    [1409819,"2026-04-29 07:00:00","47404","4.523","56.54","7.383","62.87","1011.422","17.64","81.2","219.6","0.0"],
    [1409820,"2026-04-29 07:10:00","47405","5.212999999999999","59.85","8.46","63.33","1011.443","17.81","80.2","263.8","0.0"],
    [1409821,"2026-04-29 07:20:00","47406","5.318","61.88","6.827","63.57","1011.525","17.83","79.9","280.7","0.0"],
    [1409822,"2026-04-29 07:30:00","47407","5.322","65.42","7.35","67.41","1011.575","18.09","78.93","374.9","0.0"],
    [1409823,"2026-04-29 07:40:00","47408","6.148","69.18","8.26","63.77","1011.69","18.28","77.79","434.5","0.0"],
    [1409824,"2026-04-29 07:50:00","47409","5.614","66.2","7.775","77.84","1011.819","18.56","77.08","467.5","0.0"],
    [1409825,"2026-04-29 08:00:00","47410","6.595","63.54","9.41","60.75","1011.808","18.47","77.17","483.5","0.0"],
    [1409826,"2026-04-29 08:10:00","47411","6.087999999999999","70.17","8.2","71.47","1011.9110000000001","18.53","77.66","517.2","0.0"],
    [1409827,"2026-04-29 08:20:00","47412","5.81","67.18","8.79","69.39","1012.059","18.71","77.37","545.6","0.0"],
    [1409828,"2026-04-29 08:30:00","47413","6.327000000000001","70.38","9.11","68.45","1012.1060000000001","18.78","75.89","590.8","0.0"],
    [1409829,"2026-04-29 08:40:00","47414","6.6129999999999995","69.16","9.15","57.94","1012.178","18.96","74.01","560.5","0.0"],
    [1409830,"2026-04-29 08:50:00","47415","5.91","67.17","8.3","74.18","1012.197","18.9","74.73","529.6","0.0"],
    [1409831,"2026-04-29 09:00:00","47416","6.077000000000001","70.74","8","70.95","1012.278","18.9","75.02","440.6","0.0"],
    [1409832,"2026-04-29 09:10:00","47417","6.4","75.71","8.89","68.37","1012.446","19.09","74.4","551.9","0.0"],
    [1409833,"2026-04-29 09:20:00","47418","6.694","78.84","9.21","76.15","1012.5189999999999","19.55","72.51","818.0","0.0"],
    [1409834,"2026-04-29 09:30:00","47419","7.1770000000000005","78.55","9.47","73.95","1012.553","19.48","72.69","665.7","0.0"],
    [1409835,"2026-04-29 09:40:00","47420","6.278","76.6","8.85","81.1","1012.6360000000001","19.37","73.56","603.5","0.0"],
    [1409836,"2026-04-29 09:50:00","47421","6.303","82.8","8.56","86.1","1012.735","19.5","73.24","734.0","0.0"],
    [1409837,"2026-04-29 10:00:00","47422","6.184","82.4","9.41","75.29","1012.748","19.66","73.1","830.0","0.0"],
    [1409838,"2026-04-29 10:10:00","47423","6.239","83.8","9.34","75.99","1012.852","19.77","73.15","812.0","0.0"],
    [1409839,"2026-04-29 10:20:00","47424","6.247000000000001","87.9","8.89","88.8","1012.836","19.65","73.95","772.1","0.0"],
    [1409840,"2026-04-29 10:30:00","47425","6.307","85.5","8.92","83.5","1012.8810000000001","19.48","73.11","600.0","0.0"],
    [1409841,"2026-04-29 10:40:00","47426","5.902","87.0","7.971","89.3","1012.992","19.78","72.05","882.0","0.0"],
    [1409842,"2026-04-29 10:50:00","47427","6.218999999999999","84.9","8.62","86.3","1012.961","19.73","72.66","842.0","0.0"],
    [1409843,"2026-04-29 11:00:00","47428","6.4270000000000005","82.0","8.75","81.4","1012.88","19.78","72.62","891.0","0.0"],
    [1409844,"2026-04-29 11:10:00","47429","6.178","84.7","8.43","80.6","1012.89","19.94","71.02","910.0","0.0"],
    [1409845,"2026-04-29 11:20:00","47430","6.444","83.2","8.72","89.5","1012.932","19.83","71.56","911.0","0.0"],
    [1409846,"2026-04-29 11:30:00","47431","6.254","81.0","8.07","83.8","1012.928","20.0","70.62","918.0","0.0"],
    [1409847,"2026-04-29 11:40:00","47432","6.103","70.67","8.17","69.77","1012.81","20.02","70.37","918.0","0.0"],
    [1409848,"2026-04-29 11:50:00","47433","6.154","67.37","8.2","82.2","1012.6210000000001","19.92","71.78","915.0","0.0"],
    [1409849,"2026-04-29 12:00:00","47434","5.72","59.49","8.1","50.82","1012.5189999999999","20.16","71.31","910.0","0.0"],
    [1409850,"2026-04-29 12:10:00","47435","6.032","57.24","8.69","60.68","1012.461","20.29","70.4","917.0","0.0"],
    [1409851,"2026-04-29 12:20:00","47436","6.7010000000000005","61.22","8.92","75.49","1012.6110000000001","19.76","72.6","900.0","0.0"],
    [1409852,"2026-04-29 12:30:00","47437","5.852","61.01","8.59","62.49","1012.5","20.02","72.14","929.0","0.0"],
    [1409853,"2026-04-29 12:40:00","47438","6.281000000000001","58.04","8.72","54.89","1012.462","20.12","71.73","890.0","0.0"],
    [1409854,"2026-04-29 12:50:00","47439","6.275","56.22","8.56","52.5","1012.448","19.97","72.4","880.0","0.0"],
    [1409855,"2026-04-29 13:00:00","47440","6.3389999999999995","59.08","9.21","68.35","1012.4889999999999","20.04","71.28","867.0","0.0"],
    [1409856,"2026-04-29 13:10:00","47441","5.956","58.97","8.53","50.19","1012.5310000000001","19.91","71.9","865.0","0.0"],
    [1409857,"2026-04-29 13:20:00","47442","5.926","58.94","8.04","56.94","1012.717","19.72","73.26","843.0","0.0"],
    [1409858,"2026-04-29 13:30:00","47443","5.72","67.68","8.36","73.84","1012.6260000000001","19.84","73.37","830.0","0.0"],
    [1409859,"2026-04-29 13:40:00","47444","5.716","70.35","7.579","82.9","1012.563","19.95","73.54","817.0","0.0"],
    [1409860,"2026-04-29 13:50:00","47445","5.255","68.75","7.709","71.21","1012.459","20.13","73.04","787.5","0.0"],
    [1409861,"2026-04-29 14:00:00","47446","5.527","64.4","7.742","83.3","1012.325","19.8","74.17","750.8","0.0"],
    [1409862,"2026-04-29 14:10:00","47447","5.871","52.82","7.513","47.93","1012.221","19.7","74.3","779.9","0.0"],
    [1409863,"2026-04-29 14:20:00","47448","5.417999999999999","53.13","7.709","44.22","1012.058","20.0","73.56","761.6","0.0"],
    [1409864,"2026-04-29 14:30:00","47449","5.5760000000000005","59.16","7.677","71.58","1011.9860000000001","19.81","74.23","734.6","0.0"],
    [1409865,"2026-04-29 14:40:00","47450","5.465","58.17","7.709","51.92","1012.0189999999999","19.72","75.03","599.4","0.0"],
    [1409866,"2026-04-29 14:50:00","47451","5.74","62.3","7.448","53.77","1011.946","19.14","77.03","234.7","0.0"],
    [1409867,"2026-04-29 15:00:00","47452","5.227","53.23","7.448","46.91","1011.805","18.82","79.4","348.1","0.0"],
    [1409868,"2026-04-29 15:10:00","47453","5.461","60.22","7.644","48.98","1011.8739999999999","19.51","75.72","659.7","0.0"],
    [1409869,"2026-04-29 15:20:00","47454","5.501","59.78","7.546","57.2","1011.7610000000001","19.61","74.65","545.8","0.0"],
    [1409870,"2026-04-29 15:30:00","47455","5.546","55.68","7.709","53.84","1011.682","19.31","75.75","394.9","0.0"],
    [1409871,"2026-04-29 15:40:00","47456","5.417000000000001","56.64","7.938","68.56","1011.732","19.19","76.4","449.3","0.0"],
    [1409872,"2026-04-29 15:50:00","47457","5.187","60.78","7.35","65.82","1011.757","19.39","75.67","431.7","0.0"],
    [1409873,"2026-04-29 16:00:00","47458","5.665","57.92","7.677","61.77","1011.602","19.25","76.39","476.3","0.0"],
    [1409874,"2026-04-29 16:10:00","47459","5.096","54.67","6.795","45.35","1011.703","19.17","76.61","430.2","0.0"],
    [1409875,"2026-04-29 16:20:00","47460","4.99","54.23","7.154","59.59","1011.77","19.05","77.32","412.8","0.0"],
    [1409876,"2026-04-29 16:30:00","47461","5.102","58.38","6.958","51.43","1011.7439999999999","19.07","77.36","380.9","0.0"],
    [1409877,"2026-04-29 16:40:00","47462","5.153","59.68","6.631","65.3","1011.753","19.05","77.25","342.8","0.0"],
    [1409878,"2026-04-29 16:50:00","47463","4.956","54.36","7.121","64.62","1011.705","18.8","78.69","299.9","0.0"],
    [1409879,"2026-04-29 17:00:00","47464","4.835","48.42","6.468","60.55","1011.7289999999999","18.72","79.24","262.9","0.0"],
    [1409880,"2026-04-29 17:10:00","47465","4.669","58.32","6.599","67.03","1011.69","18.72","78.89","223.4","0.0"],
    [1409881,"2026-04-29 17:20:00","47466","4.617","50.82","6.533","50.87","1011.66","18.66","79.53","192.5","0.0"],
    [1409882,"2026-04-29 17:30:00","47467","5.242999999999999","56.65","6.86","62.22","1011.622","18.4","80.8","157.6","0.0"],
    [1409883,"2026-04-29 17:40:00","47468","4.87","56.93","6.631","59.59","1011.7080000000001","18.29","81.0","120.5","0.0"],
    [1409884,"2026-04-29 17:50:00","47469","4.645","58.52","7.056","53.71","1011.7669999999999","18.23","81.9","103.9","0.0"],
    [1409885,"2026-04-29 18:00:00","47470","4.292","58.77","6.076","60.8","1011.8939999999999","18.13","82.5","80.2","0.0"],
    [1409886,"2026-04-29 18:10:00","47471","4.111000000000001","58.9","5.913","63.35","1011.883","17.99","83.3","37.86","0.0"],
    [1409887,"2026-04-29 18:20:00","47472","4.4430000000000005","58.08","6.827","57.73","1011.949","17.81","84.3","16.0","0.0"],
    [1409888,"2026-04-29 18:30:00","47473","3.195","55.72","4.933","53.84","1012.227","17.76","85.1","8.23","0.0"],
    [1409889,"2026-04-29 18:40:00","47474","3.405","61.11","4.639","51.95","1012.46","17.73","85.5","3.633","0.0"],
    [1409890,"2026-04-29 18:50:00","47475","3.41","62.47","4.769","57.12","1012.585","17.72","86.0","0.847","0.0"],
    [1409891,"2026-04-29 19:00:00","47476","3.198","55.49","4.704","77.33","1012.6460000000001","17.74","86.4","-0.963","0.0"],
    [1409892,"2026-04-29 19:10:00","47477","3.181","59.3","5.194","74.64","1012.7539999999999","17.75","86.6","-1.492","0.0"],
    [1409893,"2026-04-29 19:20:00","47478","3.446","56.23","5.259","58.13","1012.7919999999999","17.81","86.4","-1.6","0.0"],
    [1409894,"2026-04-29 19:30:00","47479","3.932","60.11","5.357","57.95","1013.044","17.78","86.5","-1.41","0.0"],
    [1409895,"2026-04-29 19:40:00","47480","3.7489999999999997","63.47","5.423","70.36","1013.171","17.8","86.3","-1.218","0.0"],
    [1409896,"2026-04-29 19:50:00","47481","3.785","64.29","5.684","70.29","1013.3660000000001","17.81","86.1","-1.54","0.0"],
    [1409897,"2026-04-29 20:00:00","47482","4.136","57.69","6.076","59.32","1013.342","17.7","86.4","-1.932","0.0"],
    [1409898,"2026-04-29 20:10:00","47483","4.355","54.1","6.37","48.84","1013.419","17.67","86.9","-1.6219999999999999","0.0"],
    [1409899,"2026-04-29 20:20:00","47484","4.213","49.95","6.958","45.99","1013.6460000000001","17.68","86.9","-1.198","0.0"],
    [1409900,"2026-04-29 20:30:00","47485","4.553999999999999","51.63","7.383","52.98","1013.648","17.68","86.7","-1.193","0.0"],
    [1409901,"2026-04-29 20:40:00","47486","4.8919999999999995","55.63","6.827","49.42","1013.763","17.67","86.7","-1.193","0.0"],
    [1409902,"2026-04-29 20:50:00","47487","4.93","54.24","6.827","46.37","1013.8919999999999","17.66","86.6","-1.193","0.0"],
    [1409903,"2026-04-29 21:00:00","47488","4.056","56.95","6.272","66.02","1013.953","17.66","86.7","-1.209","0.0"],
    [1409904,"2026-04-29 21:10:00","47489","4.035","57.93","6.599","66.91","1014.077","17.65","86.8","-1.225","0.0"],
    [1409905,"2026-04-29 21:20:00","47490","3.4930000000000003","52.8","5.88","58.31","1014.186","17.6","87.1","-1.242","0.0"],
    [1409906,"2026-04-29 21:30:00","47491","4.236000000000001","54.06","6.043","49.39","1014.1239999999999","17.6","87.0","-1.2","0.0"],
    [1409907,"2026-04-29 21:40:00","47492","4.503","53.71","6.435","42.19","1014.105","17.57","87.1","-1.193","0.0"],
    [1409908,"2026-04-29 21:50:00","47493","4.048","53.93","6.403","40.45","1014.064","17.57","87.1","-1.193","0.0"],
    [1409909,"2026-04-29 22:00:00","47494","3.208","49.68","5.945","66.95","1014.0980000000001","17.54","87.1","-1.2","0.0"],
    [1409910,"2026-04-29 22:10:00","47495","3.911","48.99","5.913","40.84","1014.158","17.53","87.2","-1.197","0.0"],
    [1409911,"2026-04-29 22:20:00","47496","4.077","50.76","6.239","57.67","1014.258","17.53","87.5","-1.193","0.0"],
    [1409912,"2026-04-29 22:30:00","47497","3.853","53.59","5.88","50.38","1014.2610000000001","17.54","87.4","-0.9490000000000001","0.0"],
    [1409913,"2026-04-29 22:40:00","47498","4.066","53.46","5.88","59.31","1014.145","17.53","87.5","-0.655","0.0"],
    [1409914,"2026-04-29 22:50:00","47499","4.242","54.03","6.141","59.29","1014.123","17.51","87.4","-1.093","0.0"],
    [1409915,"2026-04-29 23:00:00","47500","3.964","55.57","6.207","44.37","1014.174","17.46","87.5","-1.195","0.0"],
    [1409916,"2026-04-29 23:10:00","47501","3.806","51.05","5.553","57.8","1014.3","17.43","87.5","-1.193","0.0"],
    [1409917,"2026-04-29 23:20:00","47502","3.6830000000000003","51.6","5.847","37.08","1014.298","17.46","87.4","-1.181","0.0"],
    [1409918,"2026-04-29 23:30:00","47503","2.9939999999999998","53.64","5.031","49.25","1014.3380000000001","17.46","87.3","-1.5590000000000002","0.0"],
    [1409919,"2026-04-29 23:40:00","47504","2.8480000000000003","45.07","4.508","53.56","1014.35","17.37","87.9","-1.963","0.0"],
    [1409920,"2026-04-29 23:50:00","47505","3.342","44.16","4.998","43.79","1014.217","17.33","88.5","-2.1","0.0"],
    [1409921,"2026-04-30 00:00:00","47506","3.303","40.91","5.063","61.32","1014.182","17.26","88.8","-2.0340000000000003","0.0"],
    [1409922,"2026-04-30 00:10:00","47507","2.804","43.08","4.443","43.06","1014.367","17.2","88.9","-2.394","0.0"],
    [1409923,"2026-04-30 00:20:00","47508","2.917","37.91","4.573","27.75","1014.289","17.15","88.7","-2.4819999999999998","0.0"],
    [1409924,"2026-04-30 00:30:00","47509","2.717","40.75","4.345","38.48","1014.2639999999999","17.13","88.5","-2.542","0.0"],
    [1409925,"2026-04-30 00:40:00","47510","2.329","39.68","3.985","57.91","1014.187","17.12","88.2","-2.39","0.0"],
    [1409926,"2026-04-30 00:50:00","47511","3.134","47.38","4.998","41.43","1014.04","17.07","87.6","-2.611","0.0"],
    [1409927,"2026-04-30 01:00:00","47512","2.842","49.93","4.443","66.77","1014.045","17.06","87.3","-2.491","0.0"],
    [1409928,"2026-04-30 01:10:00","47513","3.2030000000000003","42.02","5.259","33.46","1013.944","17.04","87.4","-2.622","0.0"],
    [1409929,"2026-04-30 01:20:00","47514","2.6439999999999997","37.95","4.345","30.25","1013.885","17.01","87.6","-2.613","0.0"],
    [1409930,"2026-04-30 01:30:00","47515","2.5180000000000002","29.68","4.475","10.22","1013.8760000000001","16.98","87.4","-2.6310000000000002","0.0"],
    [1409931,"2026-04-30 01:40:00","47516","2.469","32.57","3.789","29.1","1013.8560000000001","16.98","86.9","-2.69","0.0"],
    [1409932,"2026-04-30 01:50:00","47517","1.74","25.55","3.299","27.94","1013.837","16.95","86.4","-2.693","0.0"],
    [1409933,"2026-04-30 02:00:00","47518","1.7930000000000001","23.02","2.875","21.23","1013.805","16.88","85.5","-2.694","0.0"],
    [1409934,"2026-04-30 02:10:00","47519","1.4780000000000002","33.96","2.711","32","1013.814","16.91","84.4","-2.694","0.0"],
    [1409935,"2026-04-30 02:20:00","47520","1.75","30.03","3.234","26.41","1013.812","16.95","82.6","-2.693","0.0"],
    [1409936,"2026-04-30 02:30:00","47521","0.925","24.62","1.666","18.68","1013.835","16.94","81.3","-2.69","0.0"],
    [1409937,"2026-04-30 02:40:00","47522","1.138","16.85","2.352","15.24","1013.868","16.77","81.0","-2.694","0.0"],
    [1409938,"2026-04-30 02:50:00","47523","1.5919999999999999","15.65","2.254","19.51","1013.831","16.75","78.14","-2.694","0.0"],
    [1409939,"2026-04-30 03:00:00","47524","1.8159999999999998","12.26","2.679","12.4","1013.7339999999999","16.86","77.29","-2.696","0.0"],
    [1409940,"2026-04-30 03:10:00","47525","1.2309999999999999","2.0180000000000002","2.091","8.7","1013.706","16.89","77.09","-2.695","0.0"],
    [1409941,"2026-04-30 03:20:00","47526","0.985","1.409","2.287","9.39","1013.685","16.85","76.92","-2.696","0.0"],
    [1409942,"2026-04-30 03:30:00","47527","0.856","343.0","1.47","12.11","1013.7510000000001","16.72","77.65","-2.697","0.0"],
    [1409943,"2026-04-30 03:40:00","47528","1.24","294.5","1.829","302","1013.813","16.26","78.91","-2.6919999999999997","0.0"],
    [1409944,"2026-04-30 03:50:00","47529","0.9059999999999999","280.5","1.666","277.1","1013.819","16.0","80.2","-2.698","0.0"],
    [1409945,"2026-04-30 04:00:00","47530","1.025","281.6","1.503","280.1","1013.834","15.86","80.9","-2.698","0.0"],
    [1409946,"2026-04-30 04:10:00","47531","0.7979999999999999","272.2","1.731","275","1013.862","15.9","81.1","-2.702","0.0"],
    [1409947,"2026-04-30 04:20:00","47532","1.275","258.1","2.156","274.4","1013.9010000000001","15.82","81.4","-2.699","0.0"],
    [1409948,"2026-04-30 04:30:00","47533","1.61","264.8","2.646","269.1","1014.0360000000001","15.72","82.2","-2.6310000000000002","0.0"],
    [1409949,"2026-04-30 04:40:00","47534","1.465","270.0","2.189","269.8","1014.081","15.62","82.5","-1.851","0.0"],
    [1409950,"2026-04-30 04:50:00","47535","0.7120000000000001","274.5","1.143","276.2","1014.189","15.54","82.8","0.27899999999999997","0.0"],
    [1409951,"2026-04-30 05:00:00","47536","0.109","278.5","0.915","290.6","1014.2339999999999","15.58","82.7","5.143","0.0"],
    [1409952,"2026-04-30 05:10:00","47537","0.469","289.3","0.98","294.3","1014.3860000000001","15.75","82.4","15.05","0.0"],
    [1409953,"2026-04-30 05:20:00","47538","0.13","295.1","0.555","292","1014.4580000000001","15.84","82.2","28.57","0.0"],
    [1409954,"2026-04-30 05:30:00","47539","0.488","321.8","1.176","323.4","1014.561","16.15","81.0","34.29","0.0"],
    [1409955,"2026-04-30 05:40:00","47540","0.892","299.0","1.209","280.6","1014.685","16.32","80.1","35.27","0.0"],
    [1409956,"2026-04-30 05:50:00","47541","1.16","274.3","1.568","275.6","1014.8910000000001","16.38","79.46","39.76","0.0"],
    [1409957,"2026-04-30 06:00:00","47542","1.047","273.0","1.503","274.9","1015.0219999999999","16.46","78.82","62.05","0.0"],
    [1409958,"2026-04-30 06:10:00","47543","0.309","275.1","0.915","273.9","1015.1510000000001","16.75","78.23","110.8","0.0"],
    [1409959,"2026-04-30 06:20:00","47544","0.691","52.24","3.822","61","1015.1419999999999","17.49","75.42","79.38","0.0"],
    [1409960,"2026-04-30 06:30:00","47545","2.637","77.07","3.691","62.05","1015.159","17.59","79.79","116.5","0.0"],
    [1409961,"2026-04-30 06:40:00","47546","2.891","71.27","4.214","66.91","1015.145","17.75","79.98","179.4","0.0"],
    [1409962,"2026-04-30 06:50:00","47547","3.339","65.65","4.737","54.38","1015.076","17.81","80.9","181.6","0.0"],
    [1409963,"2026-04-30 07:00:00","47548","3.838","63.85","5.488","65.08","1015.02","17.8","82.3","217.4","0.0"],
    [1409964,"2026-04-30 07:10:00","47549","3.458","62.88","5.227","77.01","1015.074","17.89","82.6","200.1","0.0"],
    [1409965,"2026-04-30 07:20:00","47550","4.0489999999999995","52.57","5.651","50.29","1015.064","17.91","82.6","296.8","0.0"],
    [1409966,"2026-04-30 07:30:00","47551","3.9739999999999998","47.39","5.619","46.06","1015.084","17.94","82.6","245.2","0.0"],
    [1409967,"2026-04-30 07:40:00","47552","3.3680000000000003","59.15","4.867","59.42","1015.248","17.8","83.1","192.2","0.0"],
    [1409968,"2026-04-30 07:50:00","47553","3.2239999999999998","55.85","5.978","71.86","1015.326","17.86","83.3","217.8","0.0"],
    [1409969,"2026-04-30 08:00:00","47554","2.7960000000000003","48.13","4.116","67.84","1015.342","17.98","82.5","283.2","0.0"],
    [1409970,"2026-04-30 08:10:00","47555","3.259","62.56","5.096","76.83","1015.4680000000001","18.55","79.82","495.8","0.0"],
    [1409971,"2026-04-30 08:20:00","47556","3.384","60.47","5.259","65.43","1015.6360000000001","18.66","77.55","535.6","0.0"],
    [1409972,"2026-04-30 08:30:00","47557","3.696","67.53","5.553","68.34","1015.709","18.97","75.43","601.6","0.0"],
    [1409973,"2026-04-30 08:40:00","47558","3.489","61.71","4.867","71.74","1015.8939999999999","18.89","72.79","371.9","0.0"],
    [1409974,"2026-04-30 08:50:00","47559","2.9930000000000003","61.16","4.737","46.56","1015.9960000000001","18.61","73.15","297.6","0.0"],
    [1409975,"2026-04-30 09:00:00","47560","2.6830000000000003","72.85","4.41","73.39","1016.171","18.61","73.54","407.6","0.0"],
    [1409976,"2026-04-30 09:10:00","47561","2.94","78.69","4.41","80.9","1016.39","18.63","73.29","320.1","0.0"],
    [1409977,"2026-04-30 09:20:00","47562","3.339","74.87","4.606","82.8","1016.449","18.75","72.01","398.3","0.0"],
    [1409978,"2026-04-30 09:30:00","47563","3.7960000000000003","88.2","5.815","81.8","1016.347","19.23","68.71","536.4","0.0"],
    [1409979,"2026-04-30 09:40:00","47564","5.1770000000000005","82.2","6.697","77.88","1016.332","19.22","68.73","439.0","0.0"],
    [1409980,"2026-04-30 09:50:00","47565","4.423","82.0","5.847","81.8","1016.4780000000001","19.38","70.01","404.4","0.0"],
    [1409981,"2026-04-30 10:00:00","47566","4.32","78.67","5.945","86.1","1016.638","19.21","72.77","381.5","0.0"],
    [1409982,"2026-04-30 10:10:00","47567","3.9019999999999997","74.01","5.553","75.76","1016.717","19.15","75.38","468.1","0.0"],
    [1409983,"2026-04-30 10:20:00","47568","4.587","66.34","6.076","45.23","1016.799","19.63","73.96","694.9","0.0"],
    [1409984,"2026-04-30 10:30:00","47569","4.477","60.11","6.207","57.73","1016.775","19.56","75.34","815.0","0.0"],
    [1409985,"2026-04-30 10:40:00","47570","4.508","52.21","6.272","60.78","1016.7719999999999","19.94","75.31","864.0","0.0"],
    [1409986,"2026-04-30 10:50:00","47571","5.0280000000000005","57.98","7.187","66.88","1016.7769999999999","20.06","75.35","872.0","0.0"],
    [1409987,"2026-04-30 11:00:00","47572","5.252000000000001","62.24","7.219","68.82","1016.703","20.14","75.15","882.0","0.0"],
    [1409988,"2026-04-30 11:10:00","47573","5.033","62.31","7.644","68.18","1016.635","20.32","74.66","877.0","0.0"],
    [1409989,"2026-04-30 11:20:00","47574","5.765","56.29","7.611","69.8","1016.567","20.24","74.46","898.0","0.0"],
    [1409990,"2026-04-30 11:30:00","47575","5.89","56.43","7.84","61.85","1016.5360000000001","20.19","74.66","908.0","0.0"],
    [1409991,"2026-04-30 11:40:00","47576","5.433","54.84","7.481","45.83","1016.539","20.24","74.62","906.0","0.0"],
    [1409992,"2026-04-30 11:50:00","47577","5.722","53.84","7.742","49.37","1016.462","20.28","75.1","898.0","0.0"],
    [1409993,"2026-04-30 12:00:00","47578","5.7010000000000005","50.76","7.938","51.27","1016.3860000000001","20.46","74.52","899.0","0.0"],
    [1409994,"2026-04-30 12:10:00","47579","5.86","55.31","8.2","54.66","1016.35","20.44","74.18","906.0","0.0"],
    [1409995,"2026-04-30 12:20:00","47580","5.394","57.01","7.807","49.93","1016.2410000000001","20.76","72.83","899.0","0.0"],
    [1409996,"2026-04-30 12:30:00","47581","5.845","66.97","8.17","69.61","1016.2","20.8","72.33","907.0","0.0"],
    [1409997,"2026-04-30 12:40:00","47582","5.941","74.45","7.873","82.1","1016.206","20.56","73.77","835.0","0.0"],
    [1409998,"2026-04-30 12:50:00","47583","5.591","76.72","7.448","78.51","1016.278","20.77","73.98","849.0","0.0"],
    [1409999,"2026-04-30 13:00:00","47584","5.666","71.68","8.49","81.1","1016.268","20.81","74.57","856.0","0.0"],
    [1410000,"2026-04-30 13:10:00","47585","6.227","77.37","8.4","81.4","1016.29","20.8","74.6","859.0","0.0"],
    [1410001,"2026-04-30 13:20:00","47586","6.129","75.83","8","78.67","1016.235","20.73","75.01","839.0","0.0"],
    [1410002,"2026-04-30 13:30:00","47587","5.925","74.56","8.07","79.22","1016.235","20.9","74.5","830.0","0.0"],
    [1410003,"2026-04-30 13:40:00","47588","6.91","76.85","9.31","78.02","1016.171","20.6","75.65","821.0","0.0"],
    [1410004,"2026-04-30 13:50:00","47589","6.33","77.28","8.43","80.6","1016.225","20.57","76.27","803.0","0.0"],
    [1410005,"2026-04-30 14:00:00","47590","6.282","74.89","7.84","61.04","1016.265","20.23","77.53","769.1","0.0"],
    [1410006,"2026-04-30 14:10:00","47591","6.164","69.21","8.26","68.17","1016.2330000000001","20.31","77.42","760.1","0.0"],
    [1410007,"2026-04-30 14:20:00","47592","6.435","67.17","8.79","82.5","1016.1619999999999","20.2","77.27","740.7","0.0"],
    [1410008,"2026-04-30 14:30:00","47593","5.553999999999999","60.65","8.17","53.47","1016.058","20.48","76.22","718.5","0.0"],
    [1410009,"2026-04-30 14:40:00","47594","5.489","59.93","7.611","55.68","1016.046","20.51","76.17","696.0","0.0"],
    [1410010,"2026-04-30 14:50:00","47595","5.727","60.19","8.13","76.59","1016.015","20.46","76.18","669.7","0.0"],
    [1410011,"2026-04-30 15:00:00","47596","6.477","54.04","8.82","50.4","1015.9960000000001","20.09","77.09","644.6","0.0"],
    [1410012,"2026-04-30 15:10:00","47597","5.317","60.59","8.23","71.76","1016.025","20.52","75.11","614.5","0.0"],
    [1410013,"2026-04-30 15:20:00","47598","6.069","65.11","8.62","64.33","1015.9739999999999","20.12","75.95","584.3","0.0"],
    [1410014,"2026-04-30 15:30:00","47599","5.471","62.57","7.579","48.9","1016.03","20.33","75.28","552.0","0.0"],
    [1410015,"2026-04-30 15:40:00","47600","5.854","64.84","7.84","66.42","1016.043","20.0","75.57","521.0","0.0"],
    [1410016,"2026-04-30 15:50:00","47601","6.026","68.37","8.26","61.3","1016.018","19.93","74.97","470.5","0.0"],
    [1410017,"2026-04-30 16:00:00","47602","5.962999999999999","72.07","7.971","61.78","1016.0310000000001","19.8","74.96","458.4","0.0"],
    [1410018,"2026-04-30 16:10:00","47603","5.316","70.18","7.154","73.5","1016.148","19.99","73.78","409.7","0.0"],
    [1410019,"2026-04-30 16:20:00","47604","5.138999999999999","72.0","6.435","79.6","1016.166","19.82","74.15","393.1","0.0"],
    [1410020,"2026-04-30 16:30:00","47605","4.6610000000000005","65.58","6.533","63.07","1016.194","19.8","74.35","365.3","0.0"],
    [1410021,"2026-04-30 16:40:00","47606","4.843","57.05","6.468","54.99","1016.227","19.72","74.44","332.4","0.0"],
    [1410022,"2026-04-30 16:50:00","47607","4.319","55.06","6.043","67.52","1016.15","19.58","75.17","290.1","0.0"],
    [1410023,"2026-04-30 17:00:00","47608","4.907","61.85","6.991","68.76","1016.0889999999999","19.33","76.31","244.4","0.0"],
    [1410024,"2026-04-30 17:10:00","47609","4.754","55.42","7.056","59.48","1016.1460000000001","19.17","77.54","171.9","0.0"],
    [1410025,"2026-04-30 17:20:00","47610","4.21","62.17","6.207","64.43","1016.1619999999999","19.13","78.74","197.5","0.0"],
    [1410026,"2026-04-30 17:30:00","47611","4.229","65.14","5.782","60.01","1016.159","19.04","79.12","184.6","0.0"],
    [1410027,"2026-04-30 17:40:00","47612","4.132","68.69","6.337","71.41","1016.2239999999999","18.99","79.38","130.3","0.0"],
    [1410028,"2026-04-30 17:50:00","47613","4.2","71.67","5.847","67.14","1016.28","18.74","80.1","94.9","0.0"],
    [1410029,"2026-04-30 18:00:00","47614","4.215","70.58","5.619","76.42","1016.3489999999999","18.68","79.98","63.81","0.0"],
    [1410030,"2026-04-30 18:10:00","47615","4.272","71.37","6.076","56.71","1016.328","18.54","80.6","54.24","0.0"],
    [1410031,"2026-04-30 18:20:00","47616","4.31","70.46","6.958","69.54","1016.398","18.45","80.4","37.17","0.0"],
    [1410032,"2026-04-30 18:30:00","47617","4.026","67.97","5.227","72.76","1016.574","18.39","80.8","25.78","0.0"],
    [1410033,"2026-04-30 18:40:00","47618","3.863","58.33","5.619","61.96","1016.669","18.26","81.4","12.9","0.0"],
    [1410034,"2026-04-30 18:50:00","47619","4.695","57.45","7.219","58.75","1016.607","18.16","81.7","3.64","0.0"],
    [1410035,"2026-04-30 19:00:00","47620","4.572","56.18","6.305","55.32","1016.7339999999999","18.08","82.0","0.7759999999999999","0.0"],
    [1410036,"2026-04-30 19:10:00","47621","5.02","53.46","7.448","51.04","1016.8580000000001","18.01","82.6","-1.631","0.0"],
    [1410037,"2026-04-30 19:20:00","47622","5.222","51.68","7.611","46.76","1016.995","17.96","83.1","-1.943","0.0"],
    [1410038,"2026-04-30 19:30:00","47623","5.527","52.84","8.04","51.83","1017.173","17.9","83.7","-1.946","0.0"],
    [1410039,"2026-04-30 19:40:00","47624","4.863","57.24","6.991","42.19","1017.322","17.87","84.9","-1.9480000000000002","0.0"],
    [1410040,"2026-04-30 19:50:00","47625","5.034","63.05","6.729","69.81","1017.426","17.84","85.9","-1.949","0.0"],
    [1410041,"2026-04-30 20:00:00","47626","5.1370000000000005","64.21","7.448","70.36","1017.592","17.85","86.3","-1.9369999999999998","0.0"],
    [1410042,"2026-04-30 20:10:00","47627","5.8870000000000005","65.48","8.04","55.93","1017.595","17.86","86.1","-1.745","0.0"],
    [1410043,"2026-04-30 20:20:00","47628","5.891","71.29","8.66","71.54","1017.706","17.86","86.2","-1.9480000000000002","0.0"],
    [1410044,"2026-04-30 20:30:00","47629","5.895","72.24","8.59","86.3","1017.778","17.84","86.2","-1.956","0.0"],
    [1410045,"2026-04-30 20:40:00","47630","6.309","72.03","9.96","75.96","1017.921","17.8","86.1","-1.969","0.0"],
    [1410046,"2026-04-30 20:50:00","47631","6.444","69.88","9.6","82.5","1018.102","17.81","85.6","-1.989","0.0"],
    [1410047,"2026-04-30 21:00:00","47632","6.716","68.7","9.54","60.87","1018.1439999999999","17.81","85.5","-1.949","0.0"],
    [1410048,"2026-04-30 21:10:00","47633","6.809","68.32","10.45","70.47","1018.23","17.76","85.7","-1.9480000000000002","0.0"],
    [1410049,"2026-04-30 21:20:00","47634","7.393","69.6","10.49","72.41","1018.299","17.71","85.6","-1.944","0.0"],
    [1410050,"2026-04-30 21:30:00","47635","6.357","66.75","8.95","74.38","1018.346","17.68","85.6","-1.949","0.0"],
    [1410051,"2026-04-30 21:40:00","47636","6.824","65.64","9.57","74.36","1018.3839999999999","17.67","84.8","-1.954","0.0"],
    [1410052,"2026-04-30 21:50:00","47637","7.138999999999999","65.47","10.52","74.74","1018.44","17.7","84.6","-1.945","0.0"],
    [1410053,"2026-04-30 22:00:00","47638","6.57","64.32","9.64","64.3","1018.404","17.7","85.9","-1.944","0.0"],
    [1410054,"2026-04-30 22:10:00","47639","6.9","66.48","9.8","47.57","1018.367","17.62","86.1","-1.944","0.0"],
    [1410055,"2026-04-30 22:20:00","47640","5.899","65.72","9.41","70.49","1018.447","17.59","85.8","-1.95","0.0"],
    [1410056,"2026-04-30 22:30:00","47641","6.6739999999999995","67.0","10.29","67.39","1018.5219999999999","17.6","85.1","-1.9580000000000002","0.0"],
    [1410057,"2026-04-30 22:40:00","47642","6.807","68.32","10","66.68","1018.6080000000001","17.61","83.0","-1.9669999999999999","0.0"],
    [1410058,"2026-04-30 22:50:00","47643","6.1339999999999995","69.12","9.57","70.04","1018.623","17.66","81.7","-1.972","0.0"],
    [1410059,"2026-04-30 23:00:00","47644","6.361000000000001","67.63","9.51","62.4","1018.703","17.68","80.6","-2.0580000000000003","0.0"],
    [1410060,"2026-04-30 23:10:00","47645","5.757000000000001","67.93","8.53","68.57","1018.836","17.72","79.88","-2.013","0.0"],
    [1410061,"2026-04-30 23:20:00","47646","5.716","66.67","8.04","72.14","1018.99","17.72","79.88","-1.974","0.0"],
    [1410062,"2026-04-30 23:30:00","47647","5.0","66.05","7.415","67.2","1019.1410000000001","17.72","79.8","-1.962","0.0"],
    [1410063,"2026-04-30 23:40:00","47648","5.308","65.85","7.905","59.06","1019.273","17.69","80.1","-1.9709999999999999","0.0"],
    [1410064,"2026-04-30 23:50:00","47649","4.38","63.99","6.86","47.79","1019.3430000000001","17.65","80.8","-2.134","0.0"],
    [1410065,"2026-05-01 00:00:00","47650","5.026","66.96","7.644","65.95","1019.433","17.63","81.6","-2.294","0.0"],
    [1410066,"2026-05-01 00:10:00","47651","4.782","61.66","6.762","57.77","1019.4839999999999","17.63","81.6","-2.002","0.0"],
    [1410067,"2026-05-01 00:20:00","47652","4.992","60.55","7.448","62.76","1019.4989999999999","17.68","81.3","-1.605","0.0"],
    [1410068,"2026-05-01 00:30:00","47653","4.967","56.32","8.26","53.15","1019.421","17.79","80.1","-1.195","0.0"],
    [1410069,"2026-05-01 00:40:00","47654","4.781000000000001","57.42","7.252","62.16","1019.434","17.86","79.98","-1.193","0.0"],
    [1410070,"2026-05-01 00:50:00","47655","4.465","62.1","7.742","62.01","1019.465","17.95","79.88","-1.138","0.0"],
    [1410071,"2026-05-01 01:00:00","47656","5.029","61.83","7.383","74.64","1019.393","17.9","80.9","-0.612","0.0"],
    [1410072,"2026-05-01 01:10:00","47657","5.382999999999999","62.34","7.905","61.14","1019.2260000000001","17.79","81.5","-0.938","0.0"],
    [1410073,"2026-05-01 01:20:00","47658","5.45","63.19","8.07","64.82","1019.1510000000001","17.68","82.3","-1.193","0.0"],
    [1410074,"2026-05-01 01:30:00","47659","4.945","59.6","7.513","55.93","1019.075","17.57","83.5","-1.2590000000000001","0.0"],
    [1410075,"2026-05-01 01:40:00","47660","4.602","57.17","7.023","51.92","1019.0989999999999","17.35","84.2","-1.912","0.0"],
    [1410076,"2026-05-01 01:50:00","47661","4.879","56.43","7.807","55.36","1019.163","17.23","84.8","-1.959","0.0"],
    [1410077,"2026-05-01 02:00:00","47662","4.739","52.47","7.285","64.31","1019.128","17.15","85.4","-1.974","0.0"],
    [1410078,"2026-05-01 02:10:00","47663","4.915","52.02","7.775","47.73","1019.17","17.09","85.4","-2.105","0.0"],
    [1410079,"2026-05-01 02:20:00","47664","4.485","53.21","6.86","49.39","1019.202","17.09","85.0","-2.056","0.0"],
    [1410080,"2026-05-01 02:30:00","47665","5.172000000000001","53.65","8.07","45.71","1019.169","17.05","84.8","-2.029","0.0"],
    [1410081,"2026-05-01 02:40:00","47666","4.878","54.72","8.17","48.97","1019.1469999999999","17.02","83.8","-2.026","0.0"],
    [1410082,"2026-05-01 02:50:00","47667","4.865","52.9","7.513","66.84","1019.2130000000001","17.04","83.0","-1.989","0.0"],
    [1410083,"2026-05-01 03:00:00","47668","5.5","53.02","8.13","57.68","1019.2389999999999","16.99","82.8","-1.966","0.0"],
    [1410084,"2026-05-01 03:10:00","47669","5.099","52.81","8.53","48.52","1019.2819999999999","17.03","81.7","-1.9909999999999999","0.0"],
    [1410085,"2026-05-01 03:20:00","47670","4.82","53.08","7.448","43.18","1019.2860000000001","17.04","81.2","-2.0469999999999997","0.0"],
    [1410086,"2026-05-01 03:30:00","47671","4.277","52.43","6.991","55.14","1019.3380000000001","17.01","81.7","-2.0180000000000002","0.0"],
    [1410087,"2026-05-01 03:40:00","47672","4.421","47.87","7.742","49.61","1019.404","16.98","81.9","-2.049","0.0"],
    [1410088,"2026-05-01 03:50:00","47673","4.493","48.11","6.86","43.72","1019.3660000000001","16.93","81.2","-2.096","0.0"],
    [1410089,"2026-05-01 04:00:00","47674","5.033","48.24","8.07","48.41","1019.2919999999999","16.94","80.9","-2.085","0.0"],
    [1410090,"2026-05-01 04:10:00","47675","4.933","48.66","7.448","48.73","1019.268","16.96","80.8","-2.044","0.0"],
    [1410091,"2026-05-01 04:20:00","47676","4.387","49.49","6.468","49.06","1019.329","16.93","81.1","-1.969","0.0"],
    [1410092,"2026-05-01 04:30:00","47677","4.125","47.27","7.513","46.58","1019.341","16.86","81.2","-2.022","0.0"],
    [1410093,"2026-05-01 04:40:00","47678","3.591","45.69","6.37","42.34","1019.38","16.92","80.4","-1.61","0.0"],
    [1410094,"2026-05-01 04:50:00","47679","2.92","40.87","4.573","40.21","1019.471","16.88","81.2","-0.39799999999999996","0.0"],
    [1410095,"2026-05-01 05:00:00","47680","2.6660000000000004","26.35","4.639","18.4","1019.586","16.73","80.9","3.3","0.0"],
    [1410096,"2026-05-01 05:10:00","47681","2.662","13.57","4.051","16.35","1019.628","16.68","79.72","11.94","0.0"],
    [1410097,"2026-05-01 05:20:00","47682","2.376","10.5","3.528","6.651","1019.682","16.71","78.57","20.21","0.0"],
    [1410098,"2026-05-01 05:30:00","47683","2.134","11.67","3.593","16.14","1019.828","16.74","76.9","26.61","0.0"],
    [1410099,"2026-05-01 05:40:00","47684","1.99","6.135","3.332","11.95","1019.8860000000001","16.78","76.14","40.26","0.0"],
    [1410100,"2026-05-01 05:50:00","47685","1.8659999999999999","6.273","3.724","18.14","1019.8839999999999","16.94","75.32","57.31","0.0"],
    [1410101,"2026-05-01 06:00:00","47686","2.2769999999999997","12.34","3.561","1.549","1019.987","17.29","72.93","75.81","0.0"],
    [1410102,"2026-05-01 06:10:00","47687","2.461","21.33","4.9","27.08","1020.095","17.65","71.13","90.1","0.0"],
    [1410103,"2026-05-01 06:20:00","47688","3.205","25.69","5.521","21.31","1020.133","17.74","70.33","96.2","0.0"],
    [1410104,"2026-05-01 06:30:00","47689","2.614","28.83","4.214","36.72","1020.155","17.91","70.06","117.2","0.0"],
    [1410105,"2026-05-01 06:40:00","47690","3.009","28.39","4.345","24.55","1020.1439999999999","18.23","69.09","163.9","0.0"],
    [1410106,"2026-05-01 06:50:00","47691","3.437","50.18","5.553","60.32","1020.185","18.57","68.53","178.4","0.0"],
    [1410107,"2026-05-01 07:00:00","47692","4.586","49.31","7.383","53.16","1020.291","18.41","69.25","201.4","0.0"],
    [1410108,"2026-05-01 07:10:00","47693","4.362","42.61","7.448","21.84","1020.342","18.55","69.64","230.9","0.0"],
    [1410109,"2026-05-01 07:20:00","47694","4.942","40.14","7.644","30.17","1020.2869999999999","18.79","69.23","299.2","0.0"],
    [1410110,"2026-05-01 07:30:00","47695","5.584","41.25","7.84","23.38","1020.367","18.97","69.02","356.9","0.0"],
    [1410111,"2026-05-01 07:40:00","47696","5.471","41.5","8.36","34.43","1020.48","19.2","67.48","399.6","0.0"],
    [1410112,"2026-05-01 07:50:00","47697","4.771","56.33","6.893","63.27","1020.6260000000001","19.53","67.96","339.3","0.0"],
    [1410113,"2026-05-01 08:00:00","47698","4.508","55.33","6.991","48.71","1020.804","19.18","70.98","292.9","0.0"],
    [1410114,"2026-05-01 08:10:00","47699","5.146","62.88","8.2","69.95","1020.878","19.2","72.06","384.6","0.0"],
    [1410115,"2026-05-01 08:20:00","47700","5.436","66.51","7.677","57.8","1020.988","19.31","71.84","464.4","0.0"],
    [1410116,"2026-05-01 08:30:00","47701","5.702000000000001","63.02","8.66","57.07","1021.061","19.33","71.87","431.0","0.0"],
    [1410117,"2026-05-01 08:40:00","47702","5.229","59.67","7.35","75.04","1021.059","19.47","71.05","490.7","0.0"],
    [1410118,"2026-05-01 08:50:00","47703","5.87","59.38","8.62","66.22","1021.0939999999999","19.59","70.02","481.6","0.0"],
    [1410119,"2026-05-01 09:00:00","47704","7.398","62.71","9.44","56.52","1021.187","19.41","70.28","490.2","0.0"],
    [1410120,"2026-05-01 09:10:00","47705","6.966","64.29","10.03","71.21","1021.278","19.45","70.28","545.1","0.0"],
    [1410121,"2026-05-01 09:20:00","47706","6.926","63.89","9.96","60.41","1021.321","19.81","69.29","528.1","0.0"],
    [1410122,"2026-05-01 09:30:00","47707","7.242999999999999","68.02","10.13","72.03","1021.312","19.36","71.63","427.0","0.0"],
    [1410123,"2026-05-01 09:40:00","47708","7.039","67.68","11.43","69.24","1021.4169999999999","19.52","70.89","623.3","0.0"],
    [1410124,"2026-05-01 09:50:00","47709","7.632000000000001","68.62","10.19","74.73","1021.582","19.67","70.47","688.8","0.0"],
    [1410125,"2026-05-01 10:00:00","47710","7.2829999999999995","66.91","9.73","65.11","1021.548","20.0","69.16","749.2","0.0"],
    [1410126,"2026-05-01 10:10:00","47711","8.05","67.56","11.56","61.03","1021.466","20.08","67.06","776.5","0.0"],
    [1410127,"2026-05-01 10:20:00","47712","7.83","67.99","11.5","74.2","1021.467","20.32","65.91","791.1","0.0"],
    [1410128,"2026-05-01 10:30:00","47713","7.651","69.19","9.96","67.15","1021.551","20.39","64.26","804.0","0.0"],
    [1410129,"2026-05-01 10:40:00","47714","7.55","69.76","11.07","68.19","1021.6039999999999","20.63","62.95","862.0","0.0"],
    [1410130,"2026-05-01 10:50:00","47715","7.692","69.23","11.43","83.6","1021.555","20.93","62.41","850.0","0.0"],
    [1410131,"2026-05-01 11:00:00","47716","8.01","68.6","10.58","68.76","1021.525","20.5","64.88","783.4","0.0"],
    [1410132,"2026-05-01 11:10:00","47717","7.296","67.5","12.05","81","1021.5189999999999","20.32","66.25","760.4","0.0"],
    [1410133,"2026-05-01 11:20:00","47718","7.7139999999999995","63.7","11.07","62.02","1021.467","20.4","66.38","740.5","0.0"],
    [1410134,"2026-05-01 11:30:00","47719","8.08","63.82","11.01","60.02","1021.4789999999999","20.05","68.2","739.2","0.0"],
    [1410135,"2026-05-01 11:40:00","47720","7.49","64.11","10.91","77.9","1021.457","20.22","67.88","757.9","0.0"],
    [1410136,"2026-05-01 11:50:00","47721","7.975","68.47","11.04","62.22","1021.5110000000001","20.05","68.69","771.7","0.0"],
    [1410137,"2026-05-01 12:00:00","47722","7.505","69.02","10.55","81.2","1021.5319999999999","20.13","68.52","753.1","0.0"],
    [1410138,"2026-05-01 12:10:00","47723","7.746","67.5","11.53","77.51","1021.4810000000001","20.39","67.38","841.0","0.0"],
    [1410139,"2026-05-01 12:20:00","47724","7.822","71.31","11.17","77.31","1021.36","20.5","66.34","839.0","0.0"],
    [1410140,"2026-05-01 12:30:00","47725","8.28","73.58","12.02","72.71","1021.347","20.26","66.27","807.0","0.0"],
    [1410141,"2026-05-01 12:40:00","47726","7.912000000000001","73.42","11.69","73.62","1021.403","20.36","65.95","794.8","0.0"],
    [1410142,"2026-05-01 12:50:00","47727","8.28","76.16","11.37","81.5","1021.523","20.3","64.88","696.2","0.0"],
    [1410143,"2026-05-01 13:00:00","47728","7.684","75.35","10.88","72.76","1021.58","20.34","63.97","759.6","0.0"],
    [1410144,"2026-05-01 13:10:00","47729","7.553999999999999","77.86","11.01","68.68","1021.675","20.01","63.73","505.2","0.0"],
    [1410145,"2026-05-01 13:20:00","47730","7.664","78.22","11.47","78.23","1021.654","19.88","62.64","712.0","0.0"],
    [1410146,"2026-05-01 13:30:00","47731","7.619","79.47","11.04","93","1021.6","20.35","61.65","737.4","0.0"],
    [1410147,"2026-05-01 13:40:00","47732","7.321000000000001","78.04","9.93","82.6","1021.613","20.14","61.75","564.6","0.0"],
    [1410148,"2026-05-01 13:50:00","47733","7.242999999999999","77.78","11.6","76.86","1021.584","19.97","63.09","553.3","0.0"],
    [1410149,"2026-05-01 14:00:00","47734","7.169","77.08","10.06","75.17","1021.502","20.03","62.22","567.3","0.0"],
    [1410150,"2026-05-01 14:10:00","47735","7.796","76.28","11.17","80.3","1021.475","19.74","63.13","540.1","0.0"],
    [1410151,"2026-05-01 14:20:00","47736","7.376","76.67","10.36","77.39","1021.488","19.61","64.55","563.1","0.0"],
    [1410152,"2026-05-01 14:30:00","47737","6.6339999999999995","78.59","9.67","68.66","1021.457","19.72","64.52","533.1","0.0"],
    [1410153,"2026-05-01 14:40:00","47738","7.169","73.43","10.19","65.74","1021.451","19.67","65.04","515.0","0.0"],
    [1410154,"2026-05-01 14:50:00","47739","5.996","72.44","8.33","72.92","1021.5","19.64","66.88","487.3","0.0"],
    [1410155,"2026-05-01 15:00:00","47740","6.261","67.17","9.6","61.48","1021.4860000000001","19.26","67.36","389.4","0.0"],
    [1410156,"2026-05-01 15:10:00","47741","5.892","57.31","8.3","71.61","1021.525","19.14","67.82","403.4","0.0"],
    [1410157,"2026-05-01 15:20:00","47742","5.775","55.56","8.23","61.67","1021.525","19.08","68.44","359.1","0.0"],
    [1410158,"2026-05-01 15:30:00","47743","5.892","63.24","8.33","64.61","1021.5060000000001","19.01","68.52","318.4","0.0"],
    [1410159,"2026-05-01 15:40:00","47744","6.239","62.33","9.15","58.88","1021.534","18.81","69.24","264.2","0.0"],
    [1410160,"2026-05-01 15:50:00","47745","5.982","63.18","8.36","73.13","1021.55","18.68","70.63","233.0","0.0"],
    [1410161,"2026-05-01 16:00:00","47746","5.9670000000000005","56.29","7.905","48.77","1021.533","18.64","71.38","225.8","0.0"],
    [1410162,"2026-05-01 16:10:00","47747","6.1370000000000005","55.97","8.66","62.85","1021.505","18.6","71.88","213.1","0.0"],
    [1410163,"2026-05-01 16:20:00","47748","5.376","58.28","7.905","59.02","1021.5039999999999","18.48","73.47","175.6","0.0"],
    [1410164,"2026-05-01 16:30:00","47749","5.574","56.26","8.23","57.26","1021.5210000000001","18.4","74.17","153.0","0.0"],
    [1410165,"2026-05-01 16:40:00","47750","5.332000000000001","57.92","7.742","54.61","1021.574","18.37","74.72","139.8","0.0"],
    [1410166,"2026-05-01 16:50:00","47751","5.84","57.27","8.04","56.92","1021.57","18.25","75.71","128.7","0.0"],
    [1410167,"2026-05-01 17:00:00","47752","5.422000000000001","58.15","7.611","65.48","1021.591","18.22","76.68","118.8","0.0"],
    [1410168,"2026-05-01 17:10:00","47753","5.641","59.66","7.971","50.3","1021.674","18.17","77.62","108.8","0.0"],
    [1410169,"2026-05-01 17:20:00","47754","5.167000000000001","54.18","7.481","53.27","1021.752","18.1","78.63","94.6","0.0"],
    [1410170,"2026-05-01 17:30:00","47755","4.981","53.54","7.154","55.78","1021.801","17.99","79.23","78.05","0.0"],
    [1410171,"2026-05-01 17:40:00","47756","4.164","55.59","6.043","39.58","1021.908","18.03","79.71","67.07","0.0"],
    [1410172,"2026-05-01 17:50:00","47757","3.9939999999999998","64.37","6.239","64.85","1021.9839999999999","17.96","80.3","58.57","0.0"],
    [1410173,"2026-05-01 18:00:00","47758","4.238","70.03","6.174","71.38","1021.997","17.97","80.8","56.32","0.0"],
    [1410174,"2026-05-01 18:10:00","47759","4.441","71.95","7.513","82.8","1022.086","17.98","81.0","57.76","0.0"],
    [1410175,"2026-05-01 18:20:00","47760","4.792","76.49","7.742","74.33","1022.181","17.94","81.3","48.24","0.0"],
    [1410176,"2026-05-01 18:30:00","47761","4.775","79.21","6.729","84.2","1022.3580000000001","17.91","81.9","30.02","0.0"],
    [1410177,"2026-05-01 18:40:00","47762","4.5","81.8","6.468","82.3","1022.4639999999999","17.87","82.6","17.46","0.0"],
    [1410178,"2026-05-01 18:50:00","47763","4.593999999999999","82.4","6.827","78.9","1022.569","17.81","82.8","7.377000000000001","0.0"],
    [1410179,"2026-05-01 19:00:00","47764","4.663","85.3","6.272","92.5","1022.623","17.75","83.1","0.15","0.0"],
    [1410180,"2026-05-01 19:10:00","47765","3.855","85.3","6.011","90.9","1022.666","17.74","83.5","-1.182","0.0"],
    [1410181,"2026-05-01 19:20:00","47766","4.123","86.0","5.619","81.3","1022.7260000000001","17.66","84.0","-1.531","0.0"],
    [1410182,"2026-05-01 19:30:00","47767","4.671","79.41","6.337","82.1","1022.803","17.59","84.5","-1.692","0.0"],
    [1410183,"2026-05-01 19:40:00","47768","4.244","78.45","6.109","84.4","1022.88","17.54","84.6","-1.334","0.0"],
    [1410184,"2026-05-01 19:50:00","47769","3.805","74.63","5.423","80.7","1022.95","17.67","84.5","-1.195","0.0"],
    [1410185,"2026-05-01 20:00:00","47770","4.146","74.76","5.913","82.1","1023.0980000000001","17.7","83.9","-1.151","0.0"],
    [1410186,"2026-05-01 20:10:00","47771","4.239","72.79","5.815","85.3","1023.2230000000001","17.78","83.4","-1.0959999999999999","0.0"],
    [1410187,"2026-05-01 20:20:00","47772","3.951","69.15","6.337","69.94","1023.325","17.75","84.0","-1.123","0.0"],
    [1410188,"2026-05-01 20:30:00","47773","3.636","68.47","5.194","58.55","1023.398","17.72","84.1","-1.192","0.0"],
    [1410189,"2026-05-01 20:40:00","47774","3.833","62.99","5.913","55.01","1023.393","17.72","82.8","-1.194","0.0"],
    [1410190,"2026-05-01 20:50:00","47775","3.6289999999999996","64.79","6.37","69.2","1023.3969999999999","17.77","81.8","-1.217","0.0"],
    [1410191,"2026-05-01 21:00:00","47776","4.404","69.93","6.305","78.61","1023.416","17.79","82.1","-1.194","0.0"],
    [1410192,"2026-05-01 21:10:00","47777","4.09","68.03","5.717","69.42","1023.425","17.79","82.1","-1.192","0.0"],
    [1410193,"2026-05-01 21:20:00","47778","3.6919999999999997","72.34","5.227","68.37","1023.4760000000001","17.82","82.1","-1.177","0.0"],
    [1410194,"2026-05-01 21:30:00","47779","3.885","69.96","5.227","70.75","1023.482","17.84","82.1","-1.058","0.0"],
    [1410195,"2026-05-01 21:40:00","47780","3.7689999999999997","73.84","5.651","75.73","1023.4989999999999","17.85","82.2","-1.165","0.0"],
    [1410196,"2026-05-01 21:50:00","47781","3.785","70.54","5.782","87.3","1023.443","17.83","82.7","-1.048","0.0"],
    [1410197,"2026-05-01 22:00:00","47782","3.614","65.84","5.096","65.77","1023.3960000000001","17.81","82.8","-1.192","0.0"],
    [1410198,"2026-05-01 22:10:00","47783","3.264","62.67","4.606","78.03","1023.437","17.79","83.2","-1.193","0.0"],
    [1410199,"2026-05-01 22:20:00","47784","3.13","62.34","4.802","58.54","1023.4910000000001","17.76","83.8","-1.193","0.0"],
    [1410200,"2026-05-01 22:30:00","47785","3.02","61.12","4.247","69.33","1023.3969999999999","17.75","84.2","-1.194","0.0"],
    [1410201,"2026-05-01 22:40:00","47786","3.159","58.86","4.933","61.8","1023.423","17.72","85.2","-1.197","0.0"],
    [1410202,"2026-05-01 22:50:00","47787","3.1069999999999998","63.51","4.41","58.56","1023.4630000000001","17.69","85.6","-1.203","0.0"],
    [1410203,"2026-05-01 23:00:00","47788","3.0060000000000002","63.78","4.149","62.41","1023.546","17.72","85.5","-1.193","0.0"],
    [1410204,"2026-05-01 23:10:00","47789","2.907","56.9","4.051","58.98","1023.568","17.77","85.8","-1.188","0.0"],
    [1410205,"2026-05-01 23:20:00","47790","2.957","59.58","4.181","53.23","1023.561","17.73","86.0","-1.168","0.0"],
    [1410206,"2026-05-01 23:30:00","47791","3.0069999999999997","60.49","4.247","63.45","1023.572","17.78","85.6","-0.943","0.0"],
    [1410207,"2026-05-01 23:40:00","47792","3.26","60.36","4.965","69.26","1023.5060000000001","17.73","85.2","-0.516","0.0"],
    [1410208,"2026-05-01 23:50:00","47793","3.11","57.52","4.41","50.98","1023.472","17.73","85.3","-0.503","0.0"],
    [1410209,"2026-05-02 00:00:00","47794","3.4539999999999997","58.59","4.998","59.71","1023.3589999999999","17.71","85.7","-0.48","0.0"],
    [1410210,"2026-05-02 00:10:00","47795","3.278","60.27","5.194","69.49","1023.2560000000001","17.71","86.6","-0.812","0.0"],
    [1410211,"2026-05-02 00:20:00","47796","3.2","58.59","4.835","53.56","1023.1560000000001","17.66","87.6","-1.193","0.0"],
    [1410212,"2026-05-02 00:30:00","47797","3.353","55.65","5.096","55.82","1023.018","17.57","88.2","-1.193","0.0"],
    [1410213,"2026-05-02 00:40:00","47798","3.5980000000000003","54.88","4.9","57.24","1022.8839999999999","17.54","88.4","-1.192","0.0"],
    [1410214,"2026-05-02 00:50:00","47799","3.514","55.84","5.455","64.95","1022.702","17.48","87.5","-1.173","0.0"],
    [1410215,"2026-05-02 01:00:00","47800","3.835","53.45","5.717","50.12","1022.5980000000001","17.46","85.4","-0.9990000000000001","0.0"],
    [1410216,"2026-05-02 01:10:00","47801","3.7310000000000003","49.77","6.239","52.31","1022.57","17.54","84.2","-0.511","0.0"],
    [1410217,"2026-05-02 01:20:00","47802","3.4730000000000003","51.8","6.076","54.36","1022.513","17.61","83.8","-0.5720000000000001","0.0"],
    [1410218,"2026-05-02 01:30:00","47803","3.662","50.62","5.423","69.54","1022.42","17.54","84.2","-1.131","0.0"],
    [1410219,"2026-05-02 01:40:00","47804","3.522","52.76","5.292","58.5","1022.43","17.51","84.7","-1.193","0.0"],
    [1410220,"2026-05-02 01:50:00","47805","2.793","51.51","5.096","60.38","1022.5010000000001","17.5","84.9","-1.193","0.0"],
    [1410221,"2026-05-02 02:00:00","47806","2.997","53.9","4.933","59.95","1022.424","17.51","84.5","-1.192","0.0"],
    [1410222,"2026-05-02 02:10:00","47807","3.341","53.53","5.521","46.89","1022.327","17.53","84.4","-1.185","0.0"],
    [1410223,"2026-05-02 02:20:00","47808","3.2769999999999997","52.75","5.129","43.35","1022.331","17.53","84.1","-1.175","0.0"],
    [1410224,"2026-05-02 02:30:00","47809","3.282","52.57","5.063","48.47","1022.335","17.52","84.4","-1.168","0.0"],
    [1410225,"2026-05-02 02:40:00","47810","3.75","53.56","5.292","57.42","1022.3739999999999","17.52","84.2","-1.163","0.0"],
    [1410226,"2026-05-02 02:50:00","47811","3.575","50.99","5.455","46.37","1022.313","17.5","83.8","-1.178","0.0"],
    [1410227,"2026-05-02 03:00:00","47812","3.6260000000000003","53.53","5.259","49.75","1022.2360000000001","17.51","83.8","-1.187","0.0"],
    [1410228,"2026-05-02 03:10:00","47813","4.103","56.63","6.729","55.9","1022.154","17.53","84.2","-1.181","0.0"],
    [1410229,"2026-05-02 03:20:00","47814","4.17","53.17","5.913","56.19","1022.0939999999999","17.49","84.6","-1.173","0.0"],
    [1410230,"2026-05-02 03:30:00","47815","4.365","56.07","6.37","55.09","1022.0010000000001","17.46","85.0","-1.153","0.0"],
    [1410231,"2026-05-02 03:40:00","47816","4.039","53.35","5.586","45.32","1022.0889999999999","17.43","85.6","-1.171","0.0"],
    [1410232,"2026-05-02 03:50:00","47817","3.463","55.06","5.39","58.6","1022.091","17.42","86.3","-1.182","0.0"],
    [1410233,"2026-05-02 04:00:00","47818","3.608","51.92","5.259","57.49","1022.028","17.4","86.2","-1.188","0.0"],
    [1410234,"2026-05-02 04:10:00","47819","3.161","55.01","4.671","55.14","1022.0889999999999","17.4","86.5","-1.1840000000000002","0.0"],
    [1410235,"2026-05-02 04:20:00","47820","3.102","53.45","4.508","55.2","1022.0989999999999","17.4","86.7","-1.145","0.0"],
    [1410236,"2026-05-02 04:30:00","47821","3.069","51.98","4.541","58.51","1022.1310000000001","17.39","86.9","-0.9670000000000001","0.0"],
    [1410237,"2026-05-02 04:40:00","47822","3.3939999999999997","51.38","4.769","43.35","1022.1139999999999","17.32","86.5","-0.575","0.0"],
    [1410238,"2026-05-02 04:50:00","47823","3.109","56.46","4.802","75.3","1022.1","17.36","86.5","-0.034","0.0"],
    [1410239,"2026-05-02 05:00:00","47824","3.6189999999999998","52.33","5.063","43.63","1022.112","17.33","86.8","0.6890000000000001","0.0"],
    [1410240,"2026-05-02 05:10:00","47825","3.8789999999999996","53.01","5.39","54.77","1022.069","17.25","86.6","2.094","0.0"],
    [1410241,"2026-05-02 05:20:00","47826","3.063","51.13","5.096","57.82","1022.225","17.23","86.4","3.3169999999999997","0.0"],
    [1410242,"2026-05-02 05:30:00","47827","3.938","52.14","5.586","71.92","1022.22","17.25","86.1","8.15","0.0"],
    [1410243,"2026-05-02 05:40:00","47828","4.1819999999999995","54.54","5.684","60.51","1022.2739999999999","17.23","85.5","12.84","0.0"],
    [1410244,"2026-05-02 05:50:00","47829","3.846","49.41","5.684","37.45","1022.301","17.26","84.8","18.14","0.0"],
    [1410245,"2026-05-02 06:00:00","47830","3.2510000000000003","46.7","4.998","46.81","1022.4960000000001","17.29","84.4","23.43","0.0"],
    [1410246,"2026-05-02 06:10:00","47831","3.417","51.85","5.096","47.52","1022.549","17.35","83.8","32.57","0.0"],
    [1410247,"2026-05-02 06:20:00","47832","3.7569999999999997","57.06","5.227","46.84","1022.492","17.39","83.5","41.71","0.0"],
    [1410248,"2026-05-02 06:30:00","47833","3.327","56.08","4.671","49.71","1022.528","17.44","83.5","61.39","0.0"],
    [1410249,"2026-05-02 06:40:00","47834","3.283","57.49","4.998","70.63","1022.654","17.55","83.2","68.54","0.0"],
    [1410250,"2026-05-02 06:50:00","47835","3.2910000000000004","51.46","4.606","48.86","1022.707","17.58","83.3","79.01","0.0"],
    [1410251,"2026-05-02 07:00:00","47836","3.1430000000000002","56.25","5.129","60.98","1022.71","17.62","82.9","90.1","0.0"],
    [1410252,"2026-05-02 07:10:00","47837","3.062","53.72","4.541","29.84","1022.653","17.67","82.5","86.2","0.0"],
    [1410253,"2026-05-02 07:20:00","47838","3.452","51.55","4.769","49.46","1022.602","17.64","82.5","78.3","0.0"],
    [1410254,"2026-05-02 07:30:00","47839","3.303","51.65","4.867","46.42","1022.5089999999999","17.59","82.5","93.0","0.0"],
    [1410255,"2026-05-02 07:40:00","47840","3.6039999999999996","51.28","5.357","45.73","1022.5319999999999","17.66","82.1","89.1","0.0"],
    [1410256,"2026-05-02 07:50:00","47841","3.072","46.32","4.671","51.02","1022.5830000000001","17.69","81.7","151.2","0.0"],
    [1410257,"2026-05-02 08:00:00","47842","3.5189999999999997","39.63","4.933","55.62","1022.585","17.87","80.6","181.3","0.0"],
    [1410258,"2026-05-02 08:10:00","47843","3.319","38.41","4.802","41.5","1022.587","17.81","80.6","129.6","0.0"],
    [1410259,"2026-05-02 08:20:00","47844","3.216","50.99","5.325","64.98","1022.5160000000001","17.9","80.3","133.6","0.0"],
    [1410260,"2026-05-02 08:30:00","47845","3.048","33.81","5.031","30.7","1022.51","18.07","79.72","134.3","0.0"],
    [1410261,"2026-05-02 08:40:00","47846","3.9","35.33","5.357","37.78","1022.5160000000001","17.88","80.1","171.3","0.0"],
    [1410262,"2026-05-02 08:50:00","47847","3.2739999999999996","37.91","4.802","39.11","1022.507","17.92","79.51","186.4","0.0"],
    [1410263,"2026-05-02 09:00:00","47848","3.136","37.41","4.998","39.62","1022.545","18.1","79.13","272.2","0.0"],
    [1410264,"2026-05-02 09:10:00","47849","2.99","33.62","4.606","24.17","1022.4739999999999","18.69","77.5","343.3","0.0"],
    [1410265,"2026-05-02 09:20:00","47850","4.06","45.32","5.782","50.75","1022.3739999999999","18.74","76.55","400.0","0.0"],
    [1410266,"2026-05-02 09:30:00","47851","4.388999999999999","43.64","6.435","48.3","1022.435","18.73","76.62","425.1","0.0"],
    [1410267,"2026-05-02 09:40:00","47852","3.9","53.85","5.782","53.74","1022.447","18.68","76.55","379.8","0.0"],
    [1410268,"2026-05-02 09:50:00","47853","4.34","62.79","6.076","81.2","1022.2860000000001","19.35","74.82","732.8","0.0"],
    [1410269,"2026-05-02 10:00:00","47854","4.573","68.81","6.403","72.37","1022.23","19.37","74.11","511.8","0.0"],
    [1410270,"2026-05-02 10:10:00","47855","4.312","69.72","6.109","71.89","1022.2310000000001","19.03","76.09","427.7","0.0"],
    [1410271,"2026-05-02 10:20:00","47856","4.147","73.81","5.553","91.2","1022.308","18.96","77.08","361.5","0.0"],
    [1410272,"2026-05-02 10:30:00","47857","4.115","73.35","5.259","58.59","1022.357","18.86","78.2","393.6","0.0"],
    [1410273,"2026-05-02 10:40:00","47858","4.487","77.78","6.011","72.26","1022.2669999999999","18.85","78.3","348.1","0.0"],
    [1410274,"2026-05-02 10:50:00","47859","4.762","81.4","6.337","83.3","1022.082","18.75","78.3","331.8","0.0"],
    [1410275,"2026-05-02 11:00:00","47860","5.07","84.1","6.729","76.08","1021.943","18.61","78.98","327.2","0.0"],
    [1410276,"2026-05-02 11:10:00","47861","5.066","81.8","6.958","85.7","1021.88","18.64","79.25","359.4","0.0"],
    [1410277,"2026-05-02 11:20:00","47862","5.486000000000001","83.4","7.317","89.5","1021.811","18.66","79.75","389.8","0.0"],
    [1410278,"2026-05-02 11:30:00","47863","4.986000000000001","77.55","6.795","66.01","1021.91","18.79","79.42","419.7","0.0"],
    [1410279,"2026-05-02 11:40:00","47864","4.994","79.04","6.37","77.73","1021.8","18.75","79.27","412.7","0.0"],
    [1410280,"2026-05-02 11:50:00","47865","4.962","77.55","6.664","78.64","1021.7239999999999","18.75","80.1","422.0","0.0"],
    [1410281,"2026-05-02 12:00:00","47866","4.657","79.12","6.435","77.15","1021.672","18.98","78.55","573.5","0.0"],
    [1410282,"2026-05-02 12:10:00","47867","4.262","84.4","5.521","84.8","1021.7389999999999","19.13","76.26","497.3","0.0"],
    [1410283,"2026-05-02 12:20:00","47868","3.305","89.7","5.357","87.5","1021.79","18.77","76.26","264.3","0.0"],
    [1410284,"2026-05-02 12:30:00","47869","4.311","86.4","5.684","89.3","1021.687","18.42","78.16","223.8","0.0"],
    [1410285,"2026-05-02 12:40:00","47870","4.22","86.4","5.651","83.1","1021.6519999999999","18.63","78.39","385.0","0.0"],
    [1410286,"2026-05-02 12:50:00","47871","4.355","85.0","6.011","80.9","1021.5930000000001","18.91","77.47","465.1","0.0"],
    [1410287,"2026-05-02 13:00:00","47872","4.812","88.6","6.697","77.64","1021.3939999999999","19.07","77.09","715.1","0.0"],
    [1410288,"2026-05-02 13:10:00","47873","4.12","92.5","5.978","87.5","1021.442","19.36","74.45","777.8","0.0"],
    [1410289,"2026-05-02 13:20:00","47874","4.063","89.2","5.88","90.4","1021.438","19.17","74.87","444.7","0.0"],
    [1410290,"2026-05-02 13:30:00","47875","3.9739999999999998","86.9","5.521","94.1","1021.3660000000001","18.83","76.1","455.2","0.0"],
    [1410291,"2026-05-02 13:40:00","47876","3.392","86.5","4.769","96.3","1021.265","18.91","76.12","346.7","0.0"],
    [1410292,"2026-05-02 13:50:00","47877","3.833","78.59","5.031","63.91","1021.1419999999999","18.81","76.98","383.8","0.0"],
    [1410293,"2026-05-02 14:00:00","47878","4.265","76.34","5.357","76.38","1021.0110000000001","18.83","76.78","384.0","0.0"],
    [1410294,"2026-05-02 14:10:00","47879","3.925","79.68","5.847","89","1020.83","18.93","76.4","440.8","0.0"],
    [1410295,"2026-05-02 14:20:00","47880","3.884","81.5","5.847","82.8","1020.702","18.96","76.44","415.1","0.0"],
    [1410296,"2026-05-02 14:30:00","47881","4.131","80.3","5.586","73.34","1020.575","18.96","76.35","480.8","0.0"],
    [1410297,"2026-05-02 14:40:00","47882","3.807","86.1","5.913","74.29","1020.432","19.17","75.24","507.3","0.0"],
    [1410298,"2026-05-02 14:50:00","47883","3.8089999999999997","79.87","5.194","90","1020.297","19.12","74.49","372.0","0.0"],
    [1410299,"2026-05-02 15:00:00","47884","3.7460000000000004","90.2","4.867","91.3","1020.102","18.77","75.46","345.7","0.0"],
    [1410300,"2026-05-02 15:10:00","47885","3.657","92.4","5.063","85.8","1020.1289999999999","18.68","74.79","348.7","0.0"],
    [1410301,"2026-05-02 15:20:00","47886","3.7","84.7","5.259","74.39","1020.0980000000001","18.71","75.4","319.7","0.0"],
    [1410302,"2026-05-02 15:30:00","47887","3.8989999999999996","80.6","5.194","85.7","1020.0210000000001","18.73","75.54","321.1","0.0"],
    [1410303,"2026-05-02 15:40:00","47888","3.022","85.2","4.41","86.7","1019.9069999999999","18.71","75.91","297.3","0.0"],
    [1410304,"2026-05-02 15:50:00","47889","3.142","82.9","4.639","92.2","1019.8530000000001","18.5","76.43","199.9","0.0"],
    [1410305,"2026-05-02 16:00:00","47890","3.057","80.1","4.475","87.3","1019.813","18.46","76.47","168.8","0.0"],
    [1410306,"2026-05-02 16:10:00","47891","3.745","75.16","5.259","63.86","1019.691","18.42","76.93","186.3","0.0"],
    [1410307,"2026-05-02 16:20:00","47892","3.694","72.71","4.867","70.27","1019.4989999999999","18.42","76.98","166.6","0.0"],
    [1410308,"2026-05-02 16:30:00","47893","3.8760000000000003","71.06","4.998","71.61","1019.403","18.35","77.56","178.2","0.0"],
    [1410309,"2026-05-02 16:40:00","47894","3.042","75.89","4.247","59.15","1019.4939999999999","18.34","78.35","139.9","0.0"],
    [1410310,"2026-05-02 16:50:00","47895","3.265","76.39","4.214","89.1","1019.404","18.23","78.06","102.5","0.0"],
    [1410311,"2026-05-02 17:00:00","47896","3.53","72.65","4.573","74.21","1019.1510000000001","18.16","78.26","103.7","0.0"],
    [1410312,"2026-05-02 17:10:00","47897","3.928","67.16","5.325","75.14","1018.93","18.16","78.32","115.8","0.0"],
    [1410313,"2026-05-02 17:20:00","47898","3.755","65.85","5.521","65.75","1018.923","18.11","78.94","101.4","0.0"],
    [1410314,"2026-05-02 17:30:00","47899","3.258","62.27","5.651","77.72","1018.7919999999999","18.06","79.48","80.4","0.0"],
    [1410315,"2026-05-02 17:40:00","47900","3.734","65.56","5.488","62.33","1018.632","17.99","79.47","69.92","0.0"],
    [1410316,"2026-05-02 17:50:00","47901","3.4589999999999996","66.14","5.455","67.43","1018.5980000000001","17.93","80.0","51.28","0.0"],
    [1410317,"2026-05-02 18:00:00","47902","3.0869999999999997","63.01","4.149","66.25","1018.677","17.79","80.7","29.93","0.0"],
    [1410318,"2026-05-02 18:10:00","47903","2.73","58.6","3.953","47.91","1018.688","17.76","80.8","25.44","0.0"],
    [1410319,"2026-05-02 18:20:00","47904","2.695","57.17","3.691","59.22","1018.82","17.7","81.1","14.99","0.0"],
    [1410320,"2026-05-02 18:30:00","47905","2.99","58.78","4.377","66.86","1018.615","17.68","81.3","12.16","0.0"],
    [1410321,"2026-05-02 18:40:00","47906","3.1910000000000003","56.75","4.573","51.3","1018.6489999999999","17.62","81.7","6.349","0.0"],
    [1410322,"2026-05-02 18:50:00","47907","2.807","59.5","4.018","63.63","1018.75","17.58","82.1","1.244","0.0"],
    [1410323,"2026-05-02 19:00:00","47908","3.035","61.1","4.9","74.28","1018.682","17.59","82.3","-0.318","0.0"],
    [1410324,"2026-05-02 19:10:00","47909","3.3710000000000004","57.83","5.063","57.4","1018.51","17.51","82.9","-1.389","0.0"],
    [1410325,"2026-05-02 19:20:00","47910","3.522","50.0","5.161","52.33","1018.422","17.4","83.6","-1.944","0.0"],
    [1410326,"2026-05-02 19:30:00","47911","3.237","41.45","5.423","54.28","1018.4069999999999","17.36","83.9","-1.9609999999999999","0.0"],
    [1410327,"2026-05-02 19:40:00","47912","2.71","48.54","5.325","45.54","1018.6080000000001","17.31","84.0","-2.1519999999999997","0.0"],
    [1410328,"2026-05-02 19:50:00","47913","3.015","53.04","4.606","47.34","1018.75","17.3","83.8","-1.9880000000000002","0.0"],
    [1410329,"2026-05-02 20:00:00","47914","2.927","58.13","4.247","56.09","1018.823","17.45","83.4","-1.204","0.0"],
    [1410330,"2026-05-02 20:10:00","47915","3.292","55.51","4.541","57.28","1018.7139999999999","17.5","83.3","-1.193","0.0"],
    [1410331,"2026-05-02 20:20:00","47916","3.111","55.09","4.345","56.86","1018.8510000000001","17.54","83.5","-1.192","0.0"],
    [1410332,"2026-05-02 20:30:00","47917","2.717","50.65","3.985","39.59","1019.01","17.55","83.6","-1.193","0.0"],
    [1410333,"2026-05-02 20:40:00","47918","2.637","52.6","3.626","46.45","1019.15","17.58","83.4","-1.161","0.0"],
    [1410334,"2026-05-02 20:50:00","47919","3.179","54.17","4.41","55.28","1019.02","17.59","83.4","-0.981","0.0"],
    [1410335,"2026-05-02 21:00:00","47920","2.926","57.2","4.149","53.46","1019.051","17.61","83.3","-0.99","0.0"],
    [1410336,"2026-05-02 21:10:00","47921","3.8310000000000004","56.58","5.227","52.97","1018.966","17.6","83.3","-0.9470000000000001","0.0"],
    [1410337,"2026-05-02 21:20:00","47922","3.634","56.47","5.423","45.07","1018.9680000000001","17.59","83.6","-1.15","0.0"],
    [1410338,"2026-05-02 21:30:00","47923","3.681","56.98","5.161","42.82","1018.915","17.58","84.0","-1.1540000000000001","0.0"],
    [1410339,"2026-05-02 21:40:00","47924","3.943","55.08","5.39","53.01","1018.74","17.56","84.4","-1.167","0.0"],
    [1410340,"2026-05-02 21:50:00","47925","3.529","54.85","5.586","49.08","1018.717","17.59","84.6","-1.065","0.0"],
    [1410341,"2026-05-02 22:00:00","47926","2.969","54.24","4.345","48.96","1018.803","17.59","85.1","-1.162","0.0"],
    [1410342,"2026-05-02 22:10:00","47927","3.469","51.8","5.096","62.38","1018.711","17.59","85.3","-1.147","0.0"],
    [1410343,"2026-05-02 22:20:00","47928","3.862","55.04","5.227","64.45","1018.558","17.59","85.8","-1.182","0.0"],
    [1410344,"2026-05-02 22:30:00","47929","3.154","61.81","4.769","60.49","1018.426","17.58","86.6","-1.193","0.0"],
    [1410345,"2026-05-02 22:40:00","47930","2.847","76.46","3.822","83.9","1018.4639999999999","17.55","86.9","-1.192","0.0"],
    [1410346,"2026-05-02 22:50:00","47931","2.394","98.9","3.855","97.7","1018.4060000000001","17.45","84.5","-1.3130000000000002","0.0"],
    [1410347,"2026-05-02 23:00:00","47932","2.219","99.2","3.267","73.28","1018.398","17.43","82.4","-1.9469999999999998","0.0"],
    [1410348,"2026-05-02 23:10:00","47933","1.6769999999999998","100.9","2.777","103.5","1018.4789999999999","17.48","81.9","-1.8119999999999998","0.0"],
    [1410349,"2026-05-02 23:20:00","47934","1.4909999999999999","104.1","2.907","87.8","1018.447","17.51","82.0","-1.197","0.0"],
    [1410350,"2026-05-02 23:30:00","47935","2.084","88.3","3.005","100.4","1018.257","17.55","81.9","-1.193","0.0"],
    [1410351,"2026-05-02 23:40:00","47936","2.261","90.8","3.201","98.1","1018.2280000000001","17.52","81.3","-1.193","0.0"],
    [1410352,"2026-05-02 23:50:00","47937","1.889","86.4","3.005","96.7","1018.2130000000001","17.55","81.2","-1.193","0.0"],
    [1410353,"2026-05-03 00:00:00","47938","1.871","88.4","2.515","88.6","1018.174","17.51","80.7","-1.193","0.0"],
    [1410354,"2026-05-03 00:10:00","47939","2.129","90.1","3.267","88.4","1018.0260000000001","17.53","80.4","-1.193","0.0"],
    [1410355,"2026-05-03 00:20:00","47940","1.791","88.9","2.679","83","1017.8739999999999","17.56","80.5","-1.193","0.0"],
    [1410356,"2026-05-03 00:30:00","47941","2.103","94.0","3.528","103.1","1017.716","17.5","80.8","-1.193","0.0"],
    [1410357,"2026-05-03 00:40:00","47942","1.6340000000000001","97.5","3.071","96.8","1017.7139999999999","17.45","80.6","-1.193","0.0"],
    [1410358,"2026-05-03 00:50:00","47943","1.54","87.9","2.581","84.1","1017.573","17.46","80.7","-1.193","0.0"],
    [1410359,"2026-05-03 01:00:00","47944","1.669","91.1","2.581","82.4","1017.6","17.44","79.87","-1.193","0.0"],
    [1410360,"2026-05-03 01:10:00","47945","1.892","91.8","2.581","91.6","1017.3430000000001","17.47","79.78","-1.208","0.0"],
    [1410361,"2026-05-03 01:20:00","47946","1.994","99.8","3.201","103.9","1017.1410000000001","17.37","79.19","-1.7369999999999999","0.0"],
    [1410362,"2026-05-03 01:30:00","47947","2.039","97.9","3.561","96.3","1017.1139999999999","17.39","77.49","-1.6680000000000001","0.0"],
    [1410363,"2026-05-03 01:40:00","47948","2.386","97.6","3.724","91.6","1016.923","17.4","75.43","-1.2","0.0"],
    [1410364,"2026-05-03 01:50:00","47949","1.3090000000000002","104.8","2.581","87.5","1016.92","17.46","75.17","-1.193","0.0"],
    [1410365,"2026-05-03 02:00:00","47950","1.794","101.5","3.005","89.6","1016.829","17.46","75.2","-1.193","0.0"],
    [1410366,"2026-05-03 02:10:00","47951","1.712","104.0","2.907","94.3","1016.823","17.49","75.29","-1.193","0.0"],
    [1410367,"2026-05-03 02:20:00","47952","1.577","101.2","2.711","92.9","1016.753","17.5","75.87","-1.193","0.0"],
    [1410368,"2026-05-03 02:30:00","47953","1.145","105.9","2.319","86.7","1016.68","17.48","76.63","-1.193","0.0"],
    [1410369,"2026-05-03 02:40:00","47954","1.082","106.0","2.254","100.5","1016.707","17.46","76.97","-1.193","0.0"],
    [1410370,"2026-05-03 02:50:00","47955","2.234","93.3","3.985","88","1016.617","17.53","78.89","-1.193","0.0"],
    [1410371,"2026-05-03 03:00:00","47956","2.7510000000000003","86.9","3.789","85.7","1016.548","17.46","80.8","-1.193","0.0"],
    [1410372,"2026-05-03 03:10:00","47957","2.0909999999999997","81.2","2.907","87.5","1016.525","17.37","81.2","-1.193","0.0"],
    [1410373,"2026-05-03 03:20:00","47958","2.206","73.36","3.071","73.62","1016.4019999999999","17.31","81.3","-1.193","0.0"],
    [1410374,"2026-05-03 03:30:00","47959","2.1319999999999997","76.38","2.842","73.27","1016.363","17.26","80.9","-1.193","0.0"],
    [1410375,"2026-05-03 03:40:00","47960","2.187","83.1","3.234","87.4","1016.2189999999999","17.3","80.1","-1.1909999999999998","0.0"],
    [1410376,"2026-05-03 03:50:00","47961","2.0180000000000002","89.8","2.842","100.6","1016.1489999999999","17.3","78.78","-1.193","0.0"],
    [1410377,"2026-05-03 04:00:00","47962","2.272","77.74","3.332","80.9","1016.045","17.25","78.78","-1.375","0.0"],
    [1410378,"2026-05-03 04:10:00","47963","1.9380000000000002","75.95","3.659","83.2","1016.071","17.12","79.54","-1.2429999999999999","0.0"],
    [1410379,"2026-05-03 04:20:00","47964","2.476","73.58","3.397","79.29","1015.998","17.1","78.99","-1.193","0.0"],
    [1410380,"2026-05-03 04:30:00","47965","2.693","75.87","3.691","76.91","1015.9860000000001","17.12","78.4","-1.193","0.0"],
    [1410381,"2026-05-03 04:40:00","47966","2.487","74.07","3.789","70.7","1016.018","17.16","78.12","-0.83","0.0"],
    [1410382,"2026-05-03 04:50:00","47967","2.716","68.5","3.626","74.75","1015.982","17.11","78.21","0.775","0.0"],
    [1410383,"2026-05-03 05:00:00","47968","2.517","70.09","3.463","61.38","1016.0189999999999","16.98","78.69","5.999","0.0"],
    [1410384,"2026-05-03 05:10:00","47969","2.3890000000000002","70.48","3.397","70.23","1016.034","16.87","79.38","13.6","0.0"],
    [1410385,"2026-05-03 05:20:00","47970","2.352","79.68","3.626","65.34","1016.1569999999999","16.89","79.75","24.89","0.0"],
    [1410386,"2026-05-03 05:30:00","47971","2.5869999999999997","72.11","3.659","66","1016.14","17.0","79.4","35.53","0.0"],
    [1410387,"2026-05-03 05:40:00","47972","2.97","72.58","3.953","73.15","1016.1039999999999","17.07","78.98","41.1","0.0"],
    [1410388,"2026-05-03 05:50:00","47973","3.057","74.65","4.541","77.12","1015.936","17.12","78.01","51.06","0.0"],
    [1410389,"2026-05-03 06:00:00","47974","3.236","71.92","4.769","72.31","1015.918","17.21","76.53","64.1","0.0"],
    [1410390,"2026-05-03 06:10:00","47975","3.2319999999999998","70.39","4.573","79.3","1016.069","17.34","75.28","87.5","0.0"],
    [1410391,"2026-05-03 06:20:00","47976","3.0389999999999997","64.38","4.475","64.34","1016.097","17.52","74.53","112.3","0.0"],
    [1410392,"2026-05-03 06:30:00","47977","3.2689999999999997","69.23","5.129","65.34","1015.987","17.61","74.5","114.5","0.0"],
    [1410393,"2026-05-03 06:40:00","47978","3.805","66.97","5.357","77.4","1015.954","17.65","75.14","145.9","0.0"],
    [1410394,"2026-05-03 06:50:00","47979","3.693","68.68","4.867","62.68","1016.0310000000001","17.71","75.52","151.0","0.0"],
    [1410395,"2026-05-03 07:00:00","47980","3.613","69.68","5.194","67.53","1016.1139999999999","17.82","75.21","166.2","0.0"],
    [1410396,"2026-05-03 07:10:00","47981","3.339","60.28","5.651","74.41","1016.005","17.89","74.22","155.3","0.0"],
    [1410397,"2026-05-03 07:20:00","47982","3.37","62.12","5.39","80.9","1015.8910000000001","17.93","73.03","170.7","0.0"],
    [1410398,"2026-05-03 07:30:00","47983","3.6639999999999997","66.78","5.129","74.62","1015.942","18.01","72.9","198.9","0.0"],
    [1410399,"2026-05-03 07:40:00","47984","3.648","73.99","5.129","59.45","1016.0310000000001","18.16","72.54","222.9","0.0"],
    [1410400,"2026-05-03 07:50:00","47985","4.186","82.7","5.553","86.2","1016.069","18.21","72.12","253.4","0.0"],
    [1410401,"2026-05-03 08:00:00","47986","4.075","84.7","5.749","89.4","1016.0369999999999","18.2","71.96","278.5","0.0"],
    [1410402,"2026-05-03 08:10:00","47987","4.093999999999999","89.6","5.553","91.4","1016.069","18.33","71.47","323.4","0.0"],
    [1410403,"2026-05-03 08:20:00","47988","3.8689999999999998","85.7","5.031","82.9","1016.065","18.36","71.54","321.0","0.0"],
    [1410404,"2026-05-03 08:30:00","47989","3.55","80.8","4.867","69.9","1016.034","18.42","71.45","328.1","0.0"],
    [1410405,"2026-05-03 08:40:00","47990","3.346","84.5","4.835","96.1","1016.1080000000001","18.48","71.21","361.4","0.0"],
    [1410406,"2026-05-03 08:50:00","47991","3.3789999999999996","86.9","4.475","76.42","1016.253","18.52","70.8","350.8","0.0"],
    [1410407,"2026-05-03 09:00:00","47992","3.505","81.0","4.769","71.67","1016.2539999999999","18.66","70.48","355.2","0.0"],
    [1410408,"2026-05-03 09:10:00","47993","3.2910000000000004","86.3","4.443","85","1016.3560000000001","18.63","70.69","333.8","0.0"],
    [1410409,"2026-05-03 09:20:00","47994","3.221","81.1","4.443","69.28","1016.41","18.62","71.03","358.6","0.0"],
    [1410410,"2026-05-03 09:30:00","47995","3.1639999999999997","87.2","4.41","82.2","1016.424","18.76","71.02","419.8","0.0"],
    [1410411,"2026-05-03 09:40:00","47996","3.608","83.6","5.096","75","1016.3480000000001","18.87","71.35","491.1","0.0"],
    [1410412,"2026-05-03 09:50:00","47997","4.3660000000000005","84.6","6.501","79.9","1016.105","19.04","71.59","510.4","0.0"],
    [1410413,"2026-05-03 10:00:00","47998","3.2769999999999997","86.7","5.945","68.29","1016.2760000000001","18.86","72.36","372.2","0.0"],
    [1410414,"2026-05-03 10:10:00","47999","3.14","86.5","4.377","99.4","1016.403","18.94","72.63","388.6","0.0"],
    [1410415,"2026-05-03 10:20:00","48000","3.84","73.12","5.259","81.2","1016.253","18.73","73.61","377.6","0.0"],
    [1410416,"2026-05-03 10:30:00","48001","3.511","81.0","5.292","71.53","1016.2669999999999","19.06","72.91","526.9","0.0"],
    [1410417,"2026-05-03 10:40:00","48002","3.9930000000000003","75.2","5.749","87.6","1016.211","19.05","73.1","488.1","0.0"],
    [1410418,"2026-05-03 10:50:00","48003","3.983","70.02","5.227","76.32","1016.1010000000001","19.01","73.05","496.0","0.0"],
    [1410419,"2026-05-03 11:00:00","48004","3.9219999999999997","74.37","5.031","75.36","1016.1239999999999","19.18","72.44","602.4","0.0"],
    [1410420,"2026-05-03 11:10:00","48005","3.741","83.7","5.227","67.97","1016.051","19.21","71.73","527.0","0.0"],
    [1410421,"2026-05-03 11:20:00","48006","3.7260000000000004","84.8","5.194","77.93","1016.062","19.18","71.74","572.3","0.0"],
    [1410422,"2026-05-03 11:30:00","48007","4.07","79.89","5.88","66.27","1015.943","19.52","71.06","721.3","0.0"],
    [1410423,"2026-05-03 11:40:00","48008","4.753","82.9","6.468","88.3","1015.702","19.31","71.62","635.1","0.0"],
    [1410424,"2026-05-03 11:50:00","48009","4.606","77.42","6.076","74.28","1015.456","19.23","72.0","531.8","0.0"],
    [1410425,"2026-05-03 12:00:00","48010","4.104","65.41","6.37","57.5","1015.427","19.21","72.36","400.3","0.0"],
    [1410426,"2026-05-03 12:10:00","48011","4.229","72.75","5.488","84.1","1015.426","18.99","73.63","250.8","0.0"],
    [1410427,"2026-05-03 12:20:00","48012","4.657","80.2","6.468","84.5","1015.308","18.72","75.0","188.4","0.0"],
    [1410428,"2026-05-03 12:30:00","48013","3.7760000000000002","87.6","5.292","80.3","1015.492","18.45","75.11","141.6","0.0"],
    [1410429,"2026-05-03 12:40:00","48014","3.228","88.8","4.279","83.6","1015.627","18.37","75.71","158.4","0.0"],
    [1410430,"2026-05-03 12:50:00","48015","3.2539999999999996","88.5","4.573","95.8","1015.466","18.52","74.7","211.8","0.0"],
    [1410431,"2026-05-03 13:00:00","48016","2.912","93.4","4.573","89.4","1015.355","18.62","74.03","244.3","0.0"],
    [1410432,"2026-05-03 13:10:00","48017","3.3289999999999997","83.9","4.802","74","1015.173","18.7","73.67","210.0","0.0"],
    [1410433,"2026-05-03 13:20:00","48018","3.8280000000000003","80.6","5.227","75.97","1015.033","18.57","73.47","173.3","0.0"],
    [1410434,"2026-05-03 13:30:00","48019","3.2680000000000002","80.5","4.769","74.13","1014.8910000000001","18.62","73.31","207.1","0.0"],
    [1410435,"2026-05-03 13:40:00","48020","3.552","76.29","4.508","54.59","1014.75","18.51","73.68","265.3","0.0"],
    [1410436,"2026-05-03 13:50:00","48021","3.7","72.61","5.357","79.77","1014.5260000000001","18.72","72.36","263.0","0.0"],
    [1410437,"2026-05-03 14:00:00","48022","4.063","70.13","5.259","73.92","1014.263","18.6","72.29","176.8","0.0"],
    [1410438,"2026-05-03 14:10:00","48023","4.2330000000000005","64.64","6.435","69.6","1013.934","18.43","73.15","114.6","0.0"],
    [1410439,"2026-05-03 14:20:00","48024","3.9819999999999998","84.0","5.423","93.8","1013.78","18.27","78.15","144.0","0.0"],
    [1410440,"2026-05-03 14:30:00","48025","4.091","87.8","6.272","82.3","1013.748","17.96","78.12","171.3","0.0"],
    [1410441,"2026-05-03 14:40:00","48026","4.197","89.3","6.795","80.5","1013.554","17.84","68.68","183.1","0.0"],
    [1410442,"2026-05-03 14:50:00","48027","3.637","96.5","5.88","97.7","1013.58","18.04","69.96","253.8","0.0"],
    [1410443,"2026-05-03 15:00:00","48028","3.495","99.1","5.39","94.2","1013.677","17.93","70.81","300.7","0.0"],
    [1410444,"2026-05-03 15:10:00","48029","3.089","101.4","5.39","93","1013.794","17.96","72.51","266.4","0.0"],
    [1410445,"2026-05-03 15:20:00","48030","3.2430000000000003","97.6","5.488","105.6","1013.7510000000001","17.88","72.63","209.9","0.0"],
    [1410446,"2026-05-03 15:30:00","48031","3.597","93.0","5.161","97.5","1013.6189999999999","17.83","71.56","179.1","0.0"],
    [1410447,"2026-05-03 15:40:00","48032","2.765","95.8","4.508","87.5","1013.69","17.68","69.67","128.3","0.0"],
    [1410448,"2026-05-03 15:50:00","48033","2.917","93.0","3.953","86","1013.7610000000001","17.65","70.16","116.9","0.0"],
    [1410449,"2026-05-03 16:00:00","48034","3.3510000000000004","87.5","4.769","85","1013.705","17.7","69.06","105.4","0.0"],
    [1410450,"2026-05-03 16:10:00","48035","3.7","81.2","5.194","68.74","1013.635","17.68","69.81","77.31","0.0"],
    [1410451,"2026-05-03 16:20:00","48036","3.96","78.09","5.586","84.3","1013.4169999999999","17.59","73.86","70.2","0.0"],
    [1410452,"2026-05-03 16:30:00","48037","4.0969999999999995","78.68","5.978","76.5","1013.5010000000001","17.52","74.4","97.4","0.0"],
    [1410453,"2026-05-03 16:40:00","48038","4.494","72.67","6.337","80","1013.409","17.46","75.01","111.9","0.0"],
    [1410454,"2026-05-03 16:50:00","48039","4.6160000000000005","70.46","6.435","83.6","1013.293","17.5","76.55","100.9","0.0"],
    [1410455,"2026-05-03 17:00:00","48040","4.329","68.08","5.978","65.36","1013.154","17.48","78.27","55.55","0.0"],
    [1410456,"2026-05-03 17:10:00","48041","3.958","60.9","5.978","85","1013.005","17.29","80.3","39.18","0.0"],
    [1410457,"2026-05-03 17:20:00","48042","3.5","56.07","5.553","52.15","1013.0939999999999","17.2","81.2","31.32","0.0"],
    [1410458,"2026-05-03 17:30:00","48043","3.661","51.0","5.161","57.12","1013.2310000000001","17.14","81.9","25.96","0.0"],
    [1410459,"2026-05-03 17:40:00","48044","2.425","47.58","3.92","28.31","1013.4730000000001","17.16","82.1","15.64","0.0"],
    [1410460,"2026-05-03 17:50:00","48045","2.41","43.42","3.92","32.96","1013.6030000000001","17.15","82.7","19.1","0.0"],
    [1410461,"2026-05-03 18:00:00","48046","2.4419999999999997","51.86","3.985","60.43","1013.6260000000001","17.16","82.9","24.52","0.0"],
    [1410462,"2026-05-03 18:10:00","48047","2.3280000000000003","55.93","3.397","30.88","1013.674","17.18","83.2","20.25","0.0"],
    [1410463,"2026-05-03 18:20:00","48048","2.633","56.31","3.822","43.45","1013.752","17.14","83.5","11.15","0.0"],
    [1410464,"2026-05-03 18:30:00","48049","2.515","43.18","4.051","39.46","1013.745","17.11","83.6","4.668","0.0"],
    [1410465,"2026-05-03 18:40:00","48050","3.043","51.13","4.312","43.97","1013.6419999999999","17.12","84.4","0.778","0.0"],
    [1410466,"2026-05-03 18:50:00","48051","2.7560000000000002","41.06","4.247","47.23","1013.448","16.76","88.3","0.836","0.0"],
    [1410467,"2026-05-03 19:00:00","48052","2.3609999999999998","48.13","3.691","51.22","1013.523","16.69","89.7","-0.359","0.0"],
    [1410468,"2026-05-03 19:10:00","48053","2.525","54.1","4.541","61.55","1013.591","16.69","90.4","-1.182","0.0"],
    [1410469,"2026-05-03 19:20:00","48054","2.423","54.02","3.561","58.4","1013.693","16.69","90.8","-1.1909999999999998","0.0"],
    [1410470,"2026-05-03 19:30:00","48055","2.298","39.54","3.659","27.91","1013.763","16.64","90.9","-0.9440000000000001","0.0"],
    [1410471,"2026-05-03 19:40:00","48056","2.176","56.68","3.201","49.25","1013.799","16.65","91.1","-1.166","0.0"],
    [1410472,"2026-05-03 19:50:00","48057","1.953","48.75","3.822","59.27","1013.887","16.55","91.5","-1.192","0.0"],
    [1410473,"2026-05-03 20:00:00","48058","0.8909999999999999","344.5","2.189","1.614","1014.0089999999999","16.45","91.4","-1.193","0.0"],
    [1410474,"2026-05-03 20:10:00","48059","0.674","5.912000000000001","1.568","13.08","1014.063","16.49","91.6","-1.193","0.0"],
    [1410475,"2026-05-03 20:20:00","48060","1.39","28.35","2.483","22.16","1014.045","16.56","91.6","-1.158","0.0"],
    [1410476,"2026-05-03 20:30:00","48061","1.149","29.16","2.254","34.93","1014.051","16.59","91.2","-0.523","0.0"],
    [1410477,"2026-05-03 20:40:00","48062","1.686","22.65","2.483","8.88","1014.0","16.66","91.0","-0.128","0.0"],
    [1410478,"2026-05-03 20:50:00","48063","1.186","25.2","1.993","18","1014.0","16.7","90.6","-0.324","0.0"],
    [1410479,"2026-05-03 21:00:00","48064","2.0380000000000003","11.91","2.875","31.25","1013.9839999999999","16.73","90.5","-0.43799999999999994","0.0"],
    [1410480,"2026-05-03 21:10:00","48065","2.472","37.61","3.691","36.16","1013.768","16.73","90.6","-0.902","0.0"],
    [1410481,"2026-05-03 21:20:00","48066","2.0269999999999997","45.83","3.855","35.96","1013.67","16.71","90.8","-1.171","0.0"],
    [1410482,"2026-05-03 21:30:00","48067","1.785","38.54","2.907","37.4","1013.765","16.69","90.9","-1.193","0.0"],
    [1410483,"2026-05-03 21:40:00","48068","2.2569999999999997","37.02","3.332","50.26","1013.7539999999999","16.75","90.9","-0.935","0.0"],
    [1410484,"2026-05-03 21:50:00","48069","2.6260000000000003","33.12","4.443","23.86","1013.6560000000001","16.74","90.8","-0.326","0.0"],
    [1410485,"2026-05-03 22:00:00","48070","2.491","39.95","3.855","35.93","1013.712","16.61","90.4","-0.604","0.0"],
    [1410486,"2026-05-03 22:10:00","48071","1.508","42.33","2.94","42.22","1013.788","16.52","90.3","-1.006","0.0"],
    [1410487,"2026-05-03 22:20:00","48072","1.456","41.66","2.483","18.17","1013.811","16.48","90.1","-0.433","0.0"],
    [1410488,"2026-05-03 22:30:00","48073","1.5330000000000001","18.15","2.581","24.47","1013.7819999999999","16.47","89.7","-0.27","0.0"],
    [1410489,"2026-05-03 22:40:00","48074","1.693","13.8","2.711","7.327","1013.7360000000001","16.4","89.6","-0.07200000000000001","0.0"],
    [1410490,"2026-05-03 22:50:00","48075","1.722","8.25","2.548","9.57","1013.709","16.3","89.2","0.044000000000000004","0.0"],
    [1410491,"2026-05-03 23:00:00","48076","1.528","22.2","2.679","3.486","1013.602","16.32","89.3","-0.35100000000000003","0.0"],
    [1410492,"2026-05-03 23:10:00","48077","1.672","39.4","2.613","30.93","1013.5310000000001","16.42","89.4","-1.0859999999999999","0.0"],
    [1410493,"2026-05-03 23:20:00","48078","1.868","39.87","2.842","41.21","1013.6030000000001","16.56","89.2","-0.542","0.0"],
    [1410494,"2026-05-03 23:30:00","48079","1.689","38.44","2.711","34.14","1013.549","16.63","89.1","-0.445","0.0"],
    [1410495,"2026-05-03 23:40:00","48080","1.868","32.52","2.875","30.81","1013.4019999999999","16.57","89.2","-0.741","0.0"],
    [1410496,"2026-05-03 23:50:00","48081","1.473","31.82","2.352","31.8","1013.307","16.4","89.3","-1.194","0.0"],
    [1410497,"2026-05-04 00:00:00","48082","1.376","22.9","2.287","6.666","1013.316","16.4","89.3","-1.077","0.0"],
    [1410498,"2026-05-04 00:10:00","48083","1.3459999999999999","3.32","2.091","354.3","1013.3610000000001","16.4","89.2","-0.47","0.0"],
    [1410499,"2026-05-04 00:20:00","48084","1.4680000000000002","336.5","2.091","335.5","1013.3610000000001","16.44","89.1","-0.41600000000000004","0.0"],
    [1410500,"2026-05-04 00:30:00","48085","1.143","6.343","2.287","21.05","1013.2410000000001","16.41","88.6","-0.395","0.0"],
    [1410501,"2026-05-04 00:40:00","48086","1.04","324.6","2.581","8.31","1013.194","16.39","88.3","-0.26","0.0"],
    [1410502,"2026-05-04 00:50:00","48087","1.212","284.0","1.829","276.9","1013.092","16.11","88.7","-0.387","0.0"],
    [1410503,"2026-05-04 01:00:00","48088","0.47200000000000003","291.9","1.405","304.7","1013.015","16.07","89.1","-0.445","0.0"],
    [1410504,"2026-05-04 01:10:00","48089","0.057","328.8","0.751","60.96","1013.013","16.19","89.1","-0.45399999999999996","0.0"],
    [1410505,"2026-05-04 01:20:00","48090","0.804","337.9","1.993","353","1012.949","16.21","89.0","-0.446","0.0"],
    [1410506,"2026-05-04 01:30:00","48091","1.141","340.2","2.123","346.5","1012.824","16.34","88.2","-0.44","0.0"],
    [1410507,"2026-05-04 01:40:00","48092","0.8959999999999999","329.8","1.47","343.3","1012.7610000000001","16.45","87.4","-0.445","0.0"],
    [1410508,"2026-05-04 01:50:00","48093","0.579","245.8","1.111","216.2","1012.758","16.35","87.4","-0.442","0.0"],
    [1410509,"2026-05-04 02:00:00","48094","0.68","249.4","1.405","255.1","1012.7330000000001","16.11","87.7","-0.445","0.0"],
    [1410510,"2026-05-04 02:10:00","48095","1.5730000000000002","277.3","2.058","272.9","1012.711","15.98","87.8","-0.442","0.0"],
    [1410511,"2026-05-04 02:20:00","48096","0.995","285.7","1.797","285.9","1012.564","15.89","88.2","-0.47200000000000003","0.0"],
    [1410512,"2026-05-04 02:30:00","48097","0.701","280.1","1.307","278.4","1012.4960000000001","15.87","88.2","-0.479","0.0"],
    [1410513,"2026-05-04 02:40:00","48098","0.653","274.3","1.176","279","1012.548","15.94","87.6","-0.47","0.0"],
    [1410514,"2026-05-04 02:50:00","48099","0.871","261.0","1.535","266.1","1012.6489999999999","15.99","87.2","-0.657","0.0"],
    [1410515,"2026-05-04 03:00:00","48100","1.5230000000000001","270.5","2.189","271.1","1012.783","15.97","87.1","-0.479","0.0"],
    [1410516,"2026-05-04 03:10:00","48101","1.0590000000000002","276.0","1.764","291.4","1012.829","15.92","87.2","-0.47","0.0"],
    [1410517,"2026-05-04 03:20:00","48102","0.9329999999999999","293.7","1.47","277.4","1012.812","15.92","87.3","-0.55","0.0"],
    [1410518,"2026-05-04 03:30:00","48103","0.204","302.6","0.751","300.3","1012.595","16.01","87.0","-0.672","0.0"],
    [1410519,"2026-05-04 03:40:00","48104","0.064","16.95","0.457","17.04","1012.4019999999999","16.12","86.6","-1.195","0.0"],
    [1410520,"2026-05-04 03:50:00","48105","0.0","0.0","0","0","1012.525","16.1","86.1","-0.963","0.0"],
    [1410521,"2026-05-04 04:00:00","48106","0.099","329.8","0.784","329.8","1012.4630000000001","16.25","86.1","-1.01","0.0"],
    [1410522,"2026-05-04 04:10:00","48107","0.9490000000000001","306.0","1.699","283.5","1012.337","16.28","86.0","-1.035","0.0"],
    [1410523,"2026-05-04 04:20:00","48108","0.782","298.7","1.339","297.7","1012.308","16.21","86.6","-0.792","0.0"],
    [1410524,"2026-05-04 04:30:00","48109","0.37","301.0","0.947","301.5","1012.21","16.08","86.8","-0.602","0.0"],
    [1410525,"2026-05-04 04:40:00","48110","1.052","283.0","1.503","280.7","1012.2589999999999","16.17","86.5","-0.302","0.0"],
    [1410526,"2026-05-04 04:50:00","48111","0.9279999999999999","272.4","1.568","266.9","1012.227","16.19","86.2","0.9129999999999999","0.0"],
    [1410527,"2026-05-04 05:00:00","48112","0.8009999999999999","268.8","1.437","252.4","1012.2660000000001","16.15","85.9","2.775","0.0"],
    [1410528,"2026-05-04 05:10:00","48113","0.865","276.8","1.633","286.6","1012.355","16.14","86.1","7.76","0.0"],
    [1410529,"2026-05-04 05:20:00","48114","0.627","283.7","1.339","278.1","1012.325","16.17","86.2","16.09","0.0"],
    [1410530,"2026-05-04 05:30:00","48115","0.873","295.6","1.633","285.3","1012.3510000000001","16.28","86.2","21.88","0.0"],
    [1410531,"2026-05-04 05:40:00","48116","1.0959999999999999","302.6","1.699","319.3","1012.34","16.46","85.7","23.15","0.0"],
    [1410532,"2026-05-04 05:50:00","48117","1.015","318.3","1.633","320.6","1012.2189999999999","16.59","84.6","47.38","0.0"],
    [1410533,"2026-05-04 06:00:00","48118","0.25","312.4","0.98","313.2","1012.221","16.76","83.3","55.36","0.0"],
    [1410534,"2026-05-04 06:10:00","48119","0.8270000000000001","289.6","1.274","287.4","1012.2610000000001","16.86","82.6","62.28","0.0"],
    [1410535,"2026-05-04 06:20:00","48120","0.687","288.9","1.241","285.6","1012.186","16.94","83.7","108.6","0.0"],
    [1410536,"2026-05-04 06:30:00","48121","0.7929999999999999","257.5","1.437","277.6","1012.17","17.25","82.4","222.3","0.0"],
    [1410537,"2026-05-04 06:40:00","48122","1.4569999999999999","292.6","2.254","282.3","1012.1260000000001","17.64","79.48","252.2","0.0"],
    [1410538,"2026-05-04 06:50:00","48123","1.431","274.6","2.613","275.2","1012.1010000000001","17.94","77.32","296.9","0.0"],
    [1410539,"2026-05-04 07:00:00","48124","0.8809999999999999","276.1","2.189","252.4","1012.1139999999999","18.23","75.87","318.0","0.0"],
    [1410540,"2026-05-04 07:10:00","48125","0.937","286.4","2.156","280.3","1012.163","18.46","74.42","314.5","0.0"],
    [1410541,"2026-05-04 07:20:00","48126","1.341","289.6","2.744","304.2","1012.185","18.9","73.22","390.4","0.0"],
    [1410542,"2026-05-04 07:30:00","48127","1.1320000000000001","280.1","2.94","279.3","1012.0880000000001","18.99","71.81","424.9","0.0"],
    [1410543,"2026-05-04 07:40:00","48128","1.501","295.3","2.581","298.9","1012.012","19.25","70.61","446.3","0.0"],
    [1410544,"2026-05-04 07:50:00","48129","0.978","240.9","2.777","218.3","1011.9910000000001","19.88","68.67","489.7","0.0"],
    [1410545,"2026-05-04 08:00:00","48130","1.065","296.7","2.352","284.3","1011.898","19.48","68.62","366.2","0.0"],
    [1410546,"2026-05-04 08:10:00","48131","0.713","291.0","1.993","295","1011.855","19.63","67.81","365.2","0.0"],
    [1410547,"2026-05-04 08:20:00","48132","0.7559999999999999","306.5","2.189","285.6","1011.699","19.67","68.09","263.2","0.0"],
    [1410548,"2026-05-04 08:30:00","48133","0.87","261.5","2.319","235.4","1011.74","19.69","67.23","276.6","0.0"],
    [1410549,"2026-05-04 08:40:00","48134","1.156","217.3","2.123","205","1011.738","19.84","68.11","317.6","0.0"],
    [1410550,"2026-05-04 08:50:00","48135","1.474","185.3","2.842","175.5","1011.674","19.58","69.55","298.5","0.0"],
    [1410551,"2026-05-04 09:00:00","48136","2.5780000000000003","174.5","4.181","193.3","1011.6239999999999","19.17","72.03","395.8","0.0"],
    [1410552,"2026-05-04 09:10:00","48137","1.4680000000000002","152.7","3.463","177.2","1011.572","19.47","73.05","717.1","0.0"],
    [1410553,"2026-05-04 09:20:00","48138","2.6010000000000004","191.4","4.704","160.3","1011.675","19.95","70.65","755.5","0.0"],
    [1410554,"2026-05-04 09:30:00","48139","3.332","172.1","4.835","174.6","1011.715","19.71","70.42","763.9","0.0"],
    [1410555,"2026-05-04 09:40:00","48140","3.3160000000000003","179.3","5.292","184.5","1011.7589999999999","19.47","73.62","338.7","0.0"],
    [1410556,"2026-05-04 09:50:00","48141","3.522","183.7","6.109","200.7","1011.826","19.02","77.05","310.2","0.0"],
    [1410557,"2026-05-04 10:00:00","48142","3.583","184.1","6.729","183.2","1011.867","19.02","78.04","408.5","0.0"],
    [1410558,"2026-05-04 10:10:00","48143","3.517","185.5","6.109","178.2","1011.872","19.02","77.99","333.6","0.0"],
    [1410559,"2026-05-04 10:20:00","48144","2.495","193.1","4.247","180.2","1011.7310000000001","19.0","76.9","307.7","0.0"],
    [1410560,"2026-05-04 10:30:00","48145","2.7110000000000003","200.2","4.443","187.2","1011.773","18.85","77.78","171.6","0.0"],
    [1410561,"2026-05-04 10:40:00","48146","2.8369999999999997","184.8","5.227","184.6","1011.738","18.37","81.0","113.4","0.0"],
    [1410562,"2026-05-04 10:50:00","48147","2.5469999999999997","184.9","4.573","165.8","1011.688","17.99","85.8","136.0","0.0"],
    [1410563,"2026-05-04 11:00:00","48148","2.87","172.4","4.704","163.4","1011.591","17.61","87.7","157.4","0.0"],
    [1410564,"2026-05-04 11:10:00","48149","3.0669999999999997","175.0","4.867","155.9","1011.587","17.55","89.1","186.4","0.0"],
    [1410565,"2026-05-04 11:20:00","48150","2.331","167.2","6.174","150.2","1011.475","17.47","89.0","292.8","0.0"],
    [1410566,"2026-05-04 11:30:00","48151","2.7430000000000003","184.3","4.933","188.4","1011.5210000000001","18.03","87.5","706.5","0.0"],
    [1410567,"2026-05-04 11:40:00","48152","3.21","180.5","5.619","189.6","1011.535","18.67","83.2","674.0","0.0"],
    [1410568,"2026-05-04 11:50:00","48153","2.838","189.8","5.227","179.6","1011.528","18.57","83.7","331.4","0.0"],
    [1410569,"2026-05-04 12:00:00","48154","2.5610000000000004","201.1","4.149","176.9","1011.4889999999999","18.33","84.5","271.2","0.0"],
    [1410570,"2026-05-04 12:10:00","48155","2.866","207.6","6.729","211.5","1011.38","18.32","84.8","290.2","0.0"],
    [1410571,"2026-05-04 12:20:00","48156","2.778","203.4","5.619","217.8","1011.336","18.4","86.1","353.0","0.0"],
    [1410572,"2026-05-04 12:30:00","48157","2.6489999999999996","204.2","4.965","217.8","1011.275","18.55","87.3","327.8","0.0"],
    [1410573,"2026-05-04 12:40:00","48158","1.9980000000000002","195.9","4.149","183.1","1011.173","18.51","87.7","244.0","0.0"],
    [1410574,"2026-05-04 12:50:00","48159","2.635","203.4","6.991","251.6","1011.06","18.36","86.7","190.6","0.0"],
    [1410575,"2026-05-04 13:00:00","48160","2.697","209.2","5.423","211.5","1011.063","18.38","86.0","238.5","0.0"],
    [1410576,"2026-05-04 13:10:00","48161","3.025","211.3","5.227","221.2","1011.19","18.66","84.4","283.3","0.0"],
    [1410577,"2026-05-04 13:20:00","48162","3.12","212.9","5.717","218.7","1011.159","18.66","83.1","269.3","0.0"],
    [1410578,"2026-05-04 13:30:00","48163","3.133","212.7","6.795","199.9","1011.1060000000001","18.63","80.9","185.8","0.0"],
    [1410579,"2026-05-04 13:40:00","48164","2.4219999999999997","206.1","4.181","208.4","1011.1260000000001","18.44","82.5","128.1","0.0"],
    [1410580,"2026-05-04 13:50:00","48165","1.931","199.1","3.299","227.5","1011.153","18.12","84.6","125.3","0.0"],
    [1410581,"2026-05-04 14:00:00","48166","2.3609999999999998","216.1","3.855","217.1","1011.092","17.91","85.3","138.2","0.0"],
    [1410582,"2026-05-04 14:10:00","48167","2.122","204.1","3.92","216.4","1011.005","17.79","86.4","104.0","0.0"],
    [1410583,"2026-05-04 14:20:00","48168","2.4419999999999997","186.9","4.769","212.4","1010.938","17.64","87.0","103.3","0.0"],
    [1410584,"2026-05-04 14:30:00","48169","1.9280000000000002","198.2","4.247","207","1010.93","17.78","87.3","167.8","0.0"],
    [1410585,"2026-05-04 14:40:00","48170","2.156","195.9","3.887","199.9","1010.8430000000001","17.79","87.5","152.6","0.0"],
    [1410586,"2026-05-04 14:50:00","48171","2.863","213.1","4.9","208.2","1010.711","17.46","86.5","106.3","0.0"],
    [1410587,"2026-05-04 15:00:00","48172","1.4769999999999999","231.0","2.777","209.6","1010.5980000000001","17.35","86.8","54.44","0.0"],
    [1410588,"2026-05-04 15:10:00","48173","1.5719999999999998","241.1","2.94","275.3","1010.576","17.12","86.4","44.26","0.0"],
    [1410589,"2026-05-04 15:20:00","48174","1.3359999999999999","247.3","3.038","231","1010.534","16.96","85.8","46.85","0.0"],
    [1410590,"2026-05-04 15:30:00","48175","1.242","242.6","2.744","269.5","1010.4069999999999","16.87","86.7","101.1","0.0"],
    [1410591,"2026-05-04 15:40:00","48176","1.713","198.1","3.005","165.7","1010.427","16.66","87.4","136.3","0.0"],
    [1410592,"2026-05-04 15:50:00","48177","1.979","210.3","3.365","226.3","1010.512","16.75","86.6","111.5","0.0"],
    [1410593,"2026-05-04 16:00:00","48178","1.499","232.9","2.613","208.6","1010.6289999999999","16.92","86.7","59.11","0.0"],
    [1410594,"2026-05-04 16:10:00","48179","1.271","186.1","4.051","178.6","1010.573","16.9","86.6","53.92","0.0"],
    [1410595,"2026-05-04 16:20:00","48180","0.956","191.6","2.777","124.4","1010.435","16.81","86.4","99.4","0.0"],
    [1410596,"2026-05-04 16:30:00","48181","1.109","161.8","2.45","130.5","1010.28","16.78","86.4","153.0","0.0"],
    [1410597,"2026-05-04 16:40:00","48182","0.354","153.0","1.764","171.2","1010.163","16.94","86.3","225.8","0.0"],
    [1410598,"2026-05-04 16:50:00","48183","0.41700000000000004","81.5","1.862","78.12","1010.068","17.12","86.1","187.9","0.0"],
    [1410599,"2026-05-04 17:00:00","48184","0.516","201.5","1.47","186.8","1010.13","17.21","85.9","142.9","0.0"],
    [1410600,"2026-05-04 17:10:00","48185","0.185","188.0","2.385","199.5","1010.0360000000001","17.67","86.2","231.4","0.0"],
    [1410601,"2026-05-04 17:20:00","48186","1.5619999999999998","202.5","3.169","215.2","1010.044","17.67","84.8","250.6","0.0"],
    [1410602,"2026-05-04 17:30:00","48187","1.3519999999999999","211.9","2.319","210.3","1009.988","17.57","84.9","188.1","0.0"],
    [1410603,"2026-05-04 17:40:00","48188","1.187","231.3","2.385","251.9","1010.008","17.4","85.4","86.7","0.0"],
    [1410604,"2026-05-04 17:50:00","48189","1.212","227.6","1.993","243.2","1010.028","17.43","86.0","115.2","0.0"],
    [1410605,"2026-05-04 18:00:00","48190","1.148","190.9","2.744","127.5","1009.928","17.47","85.7","112.3","0.0"],
    [1410606,"2026-05-04 18:10:00","48191","1.473","208.3","3.332","188.8","1009.818","17.2","85.8","32.0","0.0"],
    [1410607,"2026-05-04 18:20:00","48192","2.1069999999999998","211.1","3.397","214.2","1010.1610000000001","16.99","86.1","18.19","0.0"],
    [1410608,"2026-05-04 18:30:00","48193","2.96","218.6","4.443","185","1010.325","16.74","85.9","10.46","0.0"],
    [1410609,"2026-05-04 18:40:00","48194","2.8680000000000003","214.1","4.835","181.2","1010.315","16.59","86.2","6.559","0.0"],
    [1410610,"2026-05-04 18:50:00","48195","2.753","217.2","4.279","226","1010.421","16.48","86.1","3.068","0.0"],
    [1410611,"2026-05-04 19:00:00","48196","2.274","226.9","3.626","202.3","1010.543","16.49","86.4","0.7","0.0"],
    [1410612,"2026-05-04 19:10:00","48197","3.075","223.5","4.377","216.5","1010.6110000000001","16.39","85.2","-0.9620000000000001","0.0"],
    [1410613,"2026-05-04 19:20:00","48198","2.3280000000000003","228.8","3.92","232.1","1010.7669999999999","16.41","84.7","-1.078","0.0"],
    [1410614,"2026-05-04 19:30:00","48199","1.9040000000000001","232.1","3.299","225.3","1010.828","16.42","85.7","-1.193","0.0"],
    [1410615,"2026-05-04 19:40:00","48200","3.68","223.4","5.913","231","1010.971","16.64","87.1","-0.81","0.0"],
    [1410616,"2026-05-04 19:50:00","48201","4.071000000000001","223.2","6.011","219.6","1011.127","16.71","87.3","-0.45","0.0"],
    [1410617,"2026-05-04 20:00:00","48202","2.895","228.5","5.096","214.2","1011.331","16.85","86.1","-0.7809999999999999","0.0"],
    [1410618,"2026-05-04 20:10:00","48203","2.063","225.0","3.103","217.1","1011.454","16.76","86.1","-1.102","0.0"],
    [1410619,"2026-05-04 20:20:00","48204","2.269","289.4","3.887","313.8","1011.423","16.72","84.4","-0.505","0.0"],
    [1410620,"2026-05-04 20:30:00","48205","3.969","319.0","6.305","317.4","1011.294","16.64","77.26","-0.9520000000000001","0.0"],
    [1410621,"2026-05-04 20:40:00","48206","3.197","327.0","5.619","313","1011.3389999999999","16.3","76.09","-1.1740000000000002","0.0"],
    [1410622,"2026-05-04 20:50:00","48207","3.0869999999999997","316.6","4.475","339.3","1011.2330000000001","16.07","76.4","-1.1909999999999998","0.0"],
    [1410623,"2026-05-04 21:00:00","48208","2.252","277.5","4.214","279.6","1011.426","15.96","76.87","-1.193","0.0"],
    [1410624,"2026-05-04 21:10:00","48209","1.5919999999999999","267.6","3.659","288.9","1011.4069999999999","15.59","77.93","-1.485","0.0"],
    [1410625,"2026-05-04 21:20:00","48210","0.595","214.5","1.437","238.1","1011.297","15.31","78.83","-2.59","0.0"],
    [1410626,"2026-05-04 21:30:00","48211","1.55","271.4","2.809","283.7","1011.323","15.19","79.61","-2.8480000000000003","0.0"],
    [1410627,"2026-05-04 21:40:00","48212","1.286","260.5","2.875","284","1011.2739999999999","14.98","80.6","-2.695","0.0"],
    [1410628,"2026-05-04 21:50:00","48213","0.945","277.2","1.797","269.6","1011.153","14.66","82.4","-2.793","0.0"],
    [1410629,"2026-05-04 22:00:00","48214","1.075","235.9","1.895","265.8","1011.028","14.64","82.6","-2.77","0.0"],
    [1410630,"2026-05-04 22:10:00","48215","0.807","250.0","1.797","223.5","1011.061","14.64","81.9","-2.844","0.0"],
    [1410631,"2026-05-04 22:20:00","48216","1.3230000000000002","246.2","1.895","272.1","1011.053","14.58","83.0","-2.8489999999999998","0.0"],
    [1410632,"2026-05-04 22:30:00","48217","1.14","274.8","2.156","295.2","1010.997","14.37","84.1","-2.7239999999999998","0.0"],
    [1410633,"2026-05-04 22:40:00","48218","0.987","277.8","1.96","291.5","1011.1160000000001","14.03","86.0","-2.937","0.0"],
    [1410634,"2026-05-04 22:50:00","48219","1.1420000000000001","260.6","2.515","272.8","1011.212","14.13","85.7","-2.8510000000000004","0.0"],
    [1410635,"2026-05-04 23:00:00","48220","1.4069999999999998","286.0","2.679","277.2","1011.2410000000001","14.03","85.5","-2.787","0.0"],
    [1410636,"2026-05-04 23:10:00","48221","1.7309999999999999","263.7","2.711","239.7","1011.337","14.13","85.6","-2.897","0.0"],
    [1410637,"2026-05-04 23:20:00","48222","1.449","285.7","2.744","260.5","1011.377","14.02","85.6","-2.728","0.0"],
    [1410638,"2026-05-04 23:30:00","48223","1.484","288.7","2.417","280.4","1011.3910000000001","13.73","86.9","-2.99","0.0"],
    [1410639,"2026-05-04 23:40:00","48224","1.444","290.0","2.417","287.1","1011.309","13.66","87.4","-2.738","0.0"],
    [1410640,"2026-05-04 23:50:00","48225","1.3230000000000002","298.7","2.156","305.7","1011.29","13.54","87.4","-2.78","0.0"],
    [1410641,"2026-05-05 00:00:00","48226","1.405","300.0","2.189","300.7","1011.335","13.43","87.8","-2.8369999999999997","0.0"],
    [1410642,"2026-05-05 00:10:00","48227","1.138","312.8","1.797","307.1","1011.253","13.36","87.7","-2.733","0.0"],
    [1410643,"2026-05-05 00:20:00","48228","0.537","297.3","1.764","320","1011.165","13.35","87.7","-3.068","0.0"],
    [1410644,"2026-05-05 00:30:00","48229","0.535","320.2","1.993","323.6","1011.1439999999999","13.6","85.9","-2.804","0.0"],
    [1410645,"2026-05-05 00:40:00","48230","1.171","321.9","1.862","310.2","1011.138","13.46","85.5","-2.7539999999999996","0.0"],
    [1410646,"2026-05-05 00:50:00","48231","1.5430000000000001","309.8","2.777","307.5","1011.1310000000001","13.35","85.2","-2.7489999999999997","0.0"],
    [1410647,"2026-05-05 01:00:00","48232","2.3040000000000003","303.3","3.757","312.9","1011.166","13.44","82.8","-3.076","0.0"],
    [1410648,"2026-05-05 01:10:00","48233","2.155","303.9","3.561","313.2","1011.133","13.58","81.4","-2.944","0.0"],
    [1410649,"2026-05-05 01:20:00","48234","1.929","306.9","3.299","305","1011.113","13.52","81.4","-2.929","0.0"],
    [1410650,"2026-05-05 01:30:00","48235","2.8139999999999996","313.7","4.737","309.4","1011.048","13.63","80.2","-3.06","0.0"],
    [1410651,"2026-05-05 01:40:00","48236","3.444","307.3","5.651","307.5","1011.051","14.01","77.43","-2.95","0.0"],
    [1410652,"2026-05-05 01:50:00","48237","3.2030000000000003","305.8","5.259","309.2","1011.081","13.95","77.52","-2.747","0.0"],
    [1410653,"2026-05-05 02:00:00","48238","2.821","305.4","4.443","308.6","1011.087","13.95","77.27","-2.7460000000000004","0.0"],
    [1410654,"2026-05-05 02:10:00","48239","2.701","304.2","4.573","311.6","1011.107","13.94","76.98","-2.739","0.0"],
    [1410655,"2026-05-05 02:20:00","48240","2.6660000000000004","302.4","5.325","308.8","1011.125","13.88","77.25","-2.737","0.0"],
    [1410656,"2026-05-05 02:30:00","48241","2.535","295.5","3.953","299.4","1011.165","13.84","77.37","-2.7430000000000003","0.0"],
    [1410657,"2026-05-05 02:40:00","48242","1.893","288.4","3.691","299.7","1011.194","13.72","77.8","-2.74","0.0"],
    [1410658,"2026-05-05 02:50:00","48243","1.579","284.3","3.495","287.5","1011.201","13.5","78.82","-2.737","0.0"],
    [1410659,"2026-05-05 03:00:00","48244","1.4580000000000002","267.3","2.842","301.5","1011.206","13.46","78.98","-2.739","0.0"],
    [1410660,"2026-05-05 03:10:00","48245","1.537","268.1","3.005","269","1011.242","13.47","78.87","-2.74","0.0"],
    [1410661,"2026-05-05 03:20:00","48246","1.489","285.2","2.842","293.1","1011.18","13.28","79.63","-2.748","0.0"],
    [1410662,"2026-05-05 03:30:00","48247","1.53","285.4","2.613","299.5","1011.132","13.03","80.9","-2.7439999999999998","0.0"],
    [1410663,"2026-05-05 03:40:00","48248","1.801","295.6","3.691","303.6","1011.086","12.93","81.6","-2.758","0.0"],
    [1410664,"2026-05-05 03:50:00","48249","2.255","299.6","4.214","303.6","1011.1419999999999","12.95","81.8","-2.759","0.0"],
    [1410665,"2026-05-05 04:00:00","48250","3.085","308.7","4.606","311.4","1011.1160000000001","13.27","80.2","-2.7539999999999996","0.0"],
    [1410666,"2026-05-05 04:10:00","48251","3.457","319.4","4.965","315","1011.0930000000001","13.59","77.94","-2.752","0.0"],
    [1410667,"2026-05-05 04:20:00","48252","3.7","316.6","5.357","321.2","1011.113","13.65","77.21","-2.747","0.0"],
    [1410668,"2026-05-05 04:30:00","48253","3.779","303.0","5.978","317.7","1011.0160000000001","13.54","77.14","-2.231","0.0"],
    [1410669,"2026-05-05 04:40:00","48254","3.031","283.9","5.684","283.3","1011.023","13.38","77.51","-0.503","0.0"],
    [1410670,"2026-05-05 04:50:00","48255","2.85","291.6","5.063","278.8","1011.003","13.11","78.66","3.157","0.0"],
    [1410671,"2026-05-05 05:00:00","48256","2.6319999999999997","308.3","3.789","303","1010.8839999999999","13.11","78.75","11.38","0.0"],
    [1410672,"2026-05-05 05:10:00","48257","3.1319999999999997","315.8","4.965","312.2","1010.822","13.5","76.69","26.27","0.0"],
    [1410673,"2026-05-05 05:20:00","48258","2.84","303.3","4.508","303.6","1010.846","13.76","74.77","48.55","0.0"],
    [1410674,"2026-05-05 05:30:00","48259","2.795","297.4","4.933","293.6","1010.9939999999999","13.83","74.68","72.56","0.0"],
    [1410675,"2026-05-05 05:40:00","48260","3.525","302.9","5.488","304.7","1011.062","13.79","75.43","99.1","0.0"],
    [1410676,"2026-05-05 05:50:00","48261","3.833","307.7","6.37","309.3","1011.065","13.84","75.5","127.9","0.0"],
    [1410677,"2026-05-05 06:00:00","48262","4.521","307.9","7.35","304.2","1011.081","14.11","74.34","159.0","0.0"],
    [1410678,"2026-05-05 06:10:00","48263","4.48","308.5","6.533","316","1011.107","14.26","73.71","191.4","0.0"],
    [1410679,"2026-05-05 06:20:00","48264","4.422","316.5","6.991","305.8","1011.051","14.55","72.5","223.0","0.0"],
    [1410680,"2026-05-05 06:30:00","48265","4.365","313.4","6.337","316.8","1011.076","14.81","71.42","229.2","0.0"],
    [1410681,"2026-05-05 06:40:00","48266","3.533","303.7","5.325","309.2","1011.081","14.73","71.72","147.5","0.0"],
    [1410682,"2026-05-05 06:50:00","48267","4.002","302.6","6.011","295.4","1011.047","15.23","70.22","335.0","0.0"],
    [1410683,"2026-05-05 07:00:00","48268","4.8919999999999995","306.5","7.513","301.5","1010.921","15.63","68.55","364.1","0.0"],
    [1410684,"2026-05-05 07:10:00","48269","4.715","297.8","7.252","291.5","1010.9830000000001","15.76","68.06","371.5","0.0"],
    [1410685,"2026-05-05 07:20:00","48270","4.265","307.0","6.174","325.9","1011.052","15.82","67.75","436.7","0.0"],
    [1410686,"2026-05-05 07:30:00","48271","3.4730000000000003","302.8","5.161","316.2","1011.002","16.51","65.67","466.6","0.0"],
    [1410687,"2026-05-05 07:40:00","48272","3.148","301.9","4.606","309.2","1011.034","16.87","64.21","507.5","0.0"],
    [1410688,"2026-05-05 07:50:00","48273","2.092","311.9","3.136","300.8","1010.905","16.67","64.34","214.6","0.0"],
    [1410689,"2026-05-05 08:00:00","48274","1.287","291.3","2.319","303","1010.9830000000001","16.78","63.98","314.4","0.0"],
    [1410690,"2026-05-05 08:10:00","48275","1.4269999999999998","266.7","3.887","287","1011.1010000000001","17.78","61.65","381.9","0.0"],
    [1410691,"2026-05-05 08:20:00","48276","3.5069999999999997","281.7","5.553","278.2","1011.248","16.86","64.73","327.8","0.0"],
    [1410692,"2026-05-05 08:30:00","48277","3.596","308.6","5.651","314.9","1011.307","16.74","65.8","238.4","0.0"],
    [1410693,"2026-05-05 08:40:00","48278","3.205","327.8","5.129","324.4","1011.2130000000001","17.11","65.81","687.0","0.0"],
    [1410694,"2026-05-05 08:50:00","48279","2.483","8.87","4.377","8.07","1010.7819999999999","18.25","61.71","758.4","0.0"],
    [1410695,"2026-05-05 09:00:00","48280","2.08","352.1","4.018","353.4","1010.77","18.63","59.45","787.8","0.0"],
    [1410696,"2026-05-05 09:10:00","48281","1.337","334.3","2.973","338.6","1010.868","19.72","56.72","843.0","0.0"],
    [1410697,"2026-05-05 09:20:00","48282","1.368","20.42","2.94","349.9","1010.868","19.85","56.29","755.2","0.0"],
    [1410698,"2026-05-05 09:30:00","48283","0.5","271.8","2.156","39.63","1011.0269999999999","19.91","53.7","500.2","0.0"],
    [1410699,"2026-05-05 09:40:00","48284","1.325","244.0","3.332","268.9","1011.33","19.33","53.84","255.6","0.0"],
    [1410700,"2026-05-05 09:50:00","48285","1.649","295.5","3.071","289.4","1011.3480000000001","18.21","60.52","223.8","0.0"],
    [1410701,"2026-05-05 10:00:00","48286","1.321","287.2","2.091","264.1","1011.203","18.1","61.31","219.9","0.0"],
    [1410702,"2026-05-05 10:10:00","48287","0.86","277.7","1.601","296.4","1011.063","18.1","61.5","228.8","0.0"],
    [1410703,"2026-05-05 10:20:00","48288","1.489","77.19","3.038","79.75","1010.9689999999999","18.47","59.56","235.0","0.0"],
    [1410704,"2026-05-05 10:30:00","48289","2.06","79.37","3.005","88.8","1010.9830000000001","18.29","59.17","281.2","0.0"],
    [1410705,"2026-05-05 10:40:00","48290","2.19","103.5","5.194","115.2","1011.086","19.0","60.25","901.0","0.0"],
    [1410706,"2026-05-05 10:50:00","48291","2.169","97.7","3.985","77.51","1011.054","19.35","59.12","960.0","0.0"],
    [1410707,"2026-05-05 11:00:00","48292","2.387","87.4","3.855","81.1","1010.932","19.59","58.51","958.0","0.0"],
    [1410708,"2026-05-05 11:10:00","48293","2.185","94.4","3.626","89","1010.927","19.88","57.38","942.0","0.0"],
    [1410709,"2026-05-05 11:20:00","48294","2.5639999999999996","95.6","3.953","90","1010.8","19.36","58.93","662.9","0.0"],
    [1410710,"2026-05-05 11:30:00","48295","2.025","92.5","3.136","81.1","1010.779","18.96","62.02","433.2","0.0"],
    [1410711,"2026-05-05 11:40:00","48296","3.0260000000000002","94.9","4.41","88.1","1010.819","18.31","63.02","448.7","0.0"],
    [1410712,"2026-05-05 11:50:00","48297","3.213","93.3","4.704","88.2","1010.7310000000001","18.78","61.74","697.3","0.0"],
    [1410713,"2026-05-05 12:00:00","48298","2.177","106.3","4.279","93.3","1010.7280000000001","19.39","60.26","895.0","0.0"],
    [1410714,"2026-05-05 12:10:00","48299","1.955","108.4","3.92","96.3","1010.56","19.01","61.32","880.0","0.0"],
    [1410715,"2026-05-05 12:20:00","48300","1.814","92.4","4.247","73.21","1010.4780000000001","19.92","60.12","827.0","0.0"],
    [1410716,"2026-05-05 12:30:00","48301","2.073","105.5","3.92","110.7","1010.445","19.46","60.29","756.9","0.0"],
    [1410717,"2026-05-05 12:40:00","48302","0.7959999999999999","133.3","2.581","116.5","1010.375","19.2","57.08","579.0","0.0"],
    [1410718,"2026-05-05 12:50:00","48303","2.037","106.5","4.279","105.2","1010.2719999999999","19.71","54.32","874.0","0.0"],
    [1410719,"2026-05-05 13:00:00","48304","1.348","135.6","3.593","138.8","1010.2710000000001","19.35","63.54","934.0","0.0"],
    [1410720,"2026-05-05 13:10:00","48305","2.011","120.5","5.325","103.8","1010.2610000000001","19.36","65.48","781.5","0.0"],
    [1410721,"2026-05-05 13:20:00","48306","2.081","133.0","4.508","169.2","1010.2589999999999","18.92","64.6","980.0","0.0"],
    [1410722,"2026-05-05 13:30:00","48307","2.112","124.2","4.41","138","1010.0989999999999","18.98","62.84","894.0","0.0"],
    [1410723,"2026-05-05 13:40:00","48308","1.901","116.9","3.855","124.9","1010.1030000000001","18.91","64.71","873.0","0.0"],
    [1410724,"2026-05-05 13:50:00","48309","1.528","107.4","3.985","113.8","1010.03","19.06","64.69","845.0","0.0"],
    [1410725,"2026-05-05 14:00:00","48310","1.6969999999999998","105.4","3.953","79.8","1009.9889999999999","19.73","62.95","847.0","0.0"],
    [1410726,"2026-05-05 14:10:00","48311","2.12","99.7","4.541","105.2","1009.919","18.94","65.23","860.0","0.0"],
    [1410727,"2026-05-05 14:20:00","48312","1.508","107.4","3.92","79.25","1009.7460000000001","19.62","64.44","812.0","0.0"],
    [1410728,"2026-05-05 14:30:00","48313","1.868","109.4","3.92","104.1","1009.6489999999999","19.37","64.78","765.7","0.0"],
    [1410729,"2026-05-05 14:40:00","48314","2.086","108.4","4.149","115.5","1009.5039999999999","19.12","64.94","742.1","0.0"],
    [1410730,"2026-05-05 14:50:00","48315","1.35","110.8","3.332","103.2","1009.3380000000001","19.61","62.7","718.3","0.0"],
    [1410731,"2026-05-05 15:00:00","48316","1.71","125.6","4.247","82.7","1009.445","19.23","63.79","703.2","0.0"],
    [1410732,"2026-05-05 15:10:00","48317","1.1909999999999998","131.4","3.593","149.3","1009.42","19.42","61.88","737.4","0.0"],
    [1410733,"2026-05-05 15:20:00","48318","1.189","115.0","4.214","112.8","1009.457","19.88","62.88","630.8","0.0"],
    [1410734,"2026-05-05 15:30:00","48319","1.261","130.6","4.181","117.6","1009.4639999999999","19.41","63.59","468.2","0.0"],
    [1410735,"2026-05-05 15:40:00","48320","1.608","103.1","3.103","81.8","1009.538","18.99","66.41","488.2","0.0"],
    [1410736,"2026-05-05 15:50:00","48321","0.905","142.4","3.005","136.9","1009.584","19.18","67.13","488.2","0.0"],
    [1410737,"2026-05-05 16:00:00","48322","1.172","160.0","2.875","168.4","1009.56","19.3","65.93","498.2","0.0"],
    [1410738,"2026-05-05 16:10:00","48323","1.187","177.4","3.071","168.5","1009.462","19.3","65.11","206.2","0.0"],
    [1410739,"2026-05-05 16:20:00","48324","1.537","171.6","3.397","185.1","1009.433","18.73","68.56","277.5","0.0"],
    [1410740,"2026-05-05 16:30:00","48325","1.213","199.8","2.515","190.6","1009.559","18.77","69.18","330.3","0.0"],
    [1410741,"2026-05-05 16:40:00","48326","1.621","214.4","3.136","205.8","1009.6619999999999","19.11","67.31","292.2","0.0"],
    [1410742,"2026-05-05 16:50:00","48327","1.73","187.6","3.234","160.5","1009.681","18.69","66.38","148.4","0.0"],
    [1410743,"2026-05-05 17:00:00","48328","1.308","220.0","3.201","217.5","1009.7","18.83","64.61","138.3","0.0"],
    [1410744,"2026-05-05 17:10:00","48329","1.024","234.1","2.907","220.2","1009.712","18.81","64.59","118.0","0.0"],
    [1410745,"2026-05-05 17:20:00","48330","0.948","235.9","2.221","223.9","1009.692","18.77","63.54","85.0","0.0"],
    [1410746,"2026-05-05 17:30:00","48331","1.857","210.3","3.397","211.2","1009.768","18.63","66.96","58.09","0.0"],
    [1410747,"2026-05-05 17:40:00","48332","1.5919999999999999","228.3","3.659","214.8","1009.817","18.44","66.2","39.46","0.0"],
    [1410748,"2026-05-05 17:50:00","48333","1.8840000000000001","117.3","3.789","52.79","1009.747","18.35","68.82","43.19","0.0"],
    [1410749,"2026-05-05 18:00:00","48334","2.331","88.3","3.365","80.2","1009.7810000000001","18.11","72.15","30.0","0.0"],
    [1410750,"2026-05-05 18:10:00","48335","1.093","107.2","2.45","151.7","1009.722","17.92","71.59","18.08","0.0"],
    [1410751,"2026-05-05 18:20:00","48336","1.463","166.7","3.397","185.4","1009.5219999999999","17.96","68.76","12.38","0.0"],
    [1410752,"2026-05-05 18:30:00","48337","1.258","186.7","2.973","171.9","1009.273","17.87","68.46","9.11","0.0"],
    [1410753,"2026-05-05 18:40:00","48338","1.6569999999999998","201.5","2.679","211.2","1009.1519999999999","17.97","69.19","4.5569999999999995","0.0"],
    [1410754,"2026-05-05 18:50:00","48339","1.964","176.9","3.985","169.9","1008.9760000000001","17.94","68.77","1.636","0.0"],
    [1410755,"2026-05-05 19:00:00","48340","1.574","177.1","3.038","163","1009.067","17.98","69.08","0.293","0.0"],
    [1410756,"2026-05-05 19:10:00","48341","0.58","164.6","1.895","184.8","1009.074","17.89","69.4","-1.147","0.0"],
    [1410757,"2026-05-05 19:20:00","48342","1.494","209.1","3.201","192.1","1009.243","17.91","67.45","-2.553","0.0"],
    [1410758,"2026-05-05 19:30:00","48343","1.891","195.3","3.724","236.4","1009.227","17.87","68.39","-2.532","0.0"],
    [1410759,"2026-05-05 19:40:00","48344","1.6769999999999998","262.7","3.332","268.9","1009.502","17.58","65.18","-1.7469999999999999","0.0"],
    [1410760,"2026-05-05 19:50:00","48345","2.218","278.9","3.169","283.9","1009.825","16.98","62.65","-1.724","0.0"],
    [1410761,"2026-05-05 20:00:00","48346","2.101","273.7","3.953","291.9","1010.133","16.75","64.42","-1.692","0.0"],
    [1410762,"2026-05-05 20:10:00","48347","1.702","301.4","2.483","293.6","1010.298","16.3","67.07","-1.761","0.0"],
    [1410763,"2026-05-05 20:20:00","48348","1.2819999999999998","324.6","2.254","303.8","1010.378","16.36","66.62","-1.942","0.0"],
    [1410764,"2026-05-05 20:30:00","48349","1.5219999999999998","260.7","2.483","295.6","1010.498","16.47","66.46","-1.52","0.0"],
    [1410765,"2026-05-05 20:40:00","48350","0.9279999999999999","251.9","1.927","225.8","1010.562","16.36","67.02","-1.464","0.0"],
    [1410766,"2026-05-05 20:50:00","48351","0.977","277.2","2.058","274.3","1010.466","16.34","66.85","-1.9369999999999998","0.0"],
    [1410767,"2026-05-05 21:00:00","48352","1.538","275.9","2.385","279.2","1010.561","16.14","68.62","-1.76","0.0"],
    [1410768,"2026-05-05 21:10:00","48353","1.308","247.2","2.548","277.4","1010.732","16.23","67.96","-1.9409999999999998","0.0"],
    [1410769,"2026-05-05 21:20:00","48354","0.517","276.9","1.47","293.8","1010.773","16.04","68.62","-2.401","0.0"],
    [1410770,"2026-05-05 21:30:00","48355","1.12","256.4","1.797","269.4","1010.808","15.89","68.24","-2.653","0.0"],
    [1410771,"2026-05-05 21:40:00","48356","1.469","285.3","2.548","284.7","1010.809","16.0","68.63","-1.973","0.0"],
    [1410772,"2026-05-05 21:50:00","48357","1.604","291.3","3.463","298.8","1010.84","15.81","70.04","-1.9280000000000002","0.0"],
    [1410773,"2026-05-05 22:00:00","48358","1.367","298.0","2.613","302.2","1010.752","16.06","67.62","-1.933","0.0"],
    [1410774,"2026-05-05 22:10:00","48359","1.4369999999999998","284.9","2.319","266.1","1010.79","16.24","66.14","-2.115","0.0"],
    [1410775,"2026-05-05 22:20:00","48360","1.248","291.7","2.287","299.1","1010.701","16.05","67.66","-2.269","0.0"],
    [1410776,"2026-05-05 22:30:00","48361","1.143","299.7","2.287","302.7","1010.576","15.54","70.11","-2.6039999999999996","0.0"],
    [1410777,"2026-05-05 22:40:00","48362","1.325","296.6","2.515","324.3","1010.421","15.59","69.07","-2.696","0.0"],
    [1410778,"2026-05-05 22:50:00","48363","1.005","297.6","2.025","289.7","1010.33","15.46","70.02","-2.7039999999999997","0.0"],
    [1410779,"2026-05-05 23:00:00","48364","0.603","333.3","1.503","325.4","1010.178","15.19","71.43","-2.7110000000000003","0.0"],
    [1410780,"2026-05-05 23:10:00","48365","0.159","2.9339999999999997","0.915","345","1010.041","15.39","70.74","-2.713","0.0"],
    [1410781,"2026-05-05 23:20:00","48366","0.0","0.0","0","0","1010.052","15.57","69.68","-2.7289999999999996","0.0"],
    [1410782,"2026-05-05 23:30:00","48367","0.68","352.1","1.405","344.2","1010.2189999999999","15.36","71.93","-2.9560000000000004","0.0"],
    [1410783,"2026-05-05 23:40:00","48368","0.626","353.6","1.241","343.7","1010.3660000000001","15.06","72.65","-2.903","0.0"],
    [1410784,"2026-05-05 23:50:00","48369","0.821","281.7","2.613","288","1010.465","15.03","72.78","-3.242","0.0"],
    [1410785,"2026-05-06 00:00:00","48370","1.4480000000000002","264.2","2.548","274.2","1010.454","14.4","76.66","-2.8289999999999997","0.0"],
    [1410786,"2026-05-06 00:10:00","48371","0.8320000000000001","251.6","1.895","235.7","1010.413","14.39","77.4","-2.737","0.0"],
    [1410787,"2026-05-06 00:20:00","48372","0.914","284.2","1.764","298","1010.3480000000001","14.08","78.53","-2.955","0.0"],
    [1410788,"2026-05-06 00:30:00","48373","0.675","326.3","1.405","316.7","1010.285","13.66","81.1","-3.161","0.0"],
    [1410789,"2026-05-06 00:40:00","48374","0.887","268.0","1.601","255.3","1010.377","13.66","81.4","-2.977","0.0"],
    [1410790,"2026-05-06 00:50:00","48375","0.552","280.5","1.993","281.1","1010.305","13.56","80.9","-2.8760000000000003","0.0"],
    [1410791,"2026-05-06 01:00:00","48376","0.331","276.3","1.013","264.7","1010.232","13.64","80.1","-2.9810000000000003","0.0"],
    [1410792,"2026-05-06 01:10:00","48377","0.785","296.6","1.601","305.3","1010.145","13.39","80.5","-2.912","0.0"],
    [1410793,"2026-05-06 01:20:00","48378","0.894","279.0","1.503","270.8","1010.172","13.19","81.3","-3.0980000000000003","0.0"],
    [1410794,"2026-05-06 01:30:00","48379","0.961","263.5","2.058","270.1","1010.164","13.29","80.8","-2.88","0.0"],
    [1410795,"2026-05-06 01:40:00","48380","1.412","272.7","2.319","276","1010.221","13.02","81.4","-2.795","0.0"],
    [1410796,"2026-05-06 01:50:00","48381","2.187","283.9","3.005","276.8","1010.321","12.89","81.7","-2.7689999999999997","0.0"],
    [1410797,"2026-05-06 02:00:00","48382","1.9880000000000002","283.6","2.711","267.4","1010.2710000000001","12.59","82.6","-2.772","0.0"],
    [1410798,"2026-05-06 02:10:00","48383","1.6","277.5","2.744","271.3","1010.375","12.36","83.5","-2.7560000000000002","0.0"],
    [1410799,"2026-05-06 02:20:00","48384","0.96","291.8","2.091","287.2","1010.4069999999999","12.14","83.8","-2.795","0.0"],
    [1410800,"2026-05-06 02:30:00","48385","2.171","322.9","3.724","324.9","1010.398","12.08","84.6","-3.286","0.0"],
    [1410801,"2026-05-06 02:40:00","48386","2.291","335.3","3.299","325.6","1010.382","12.66","82.2","-2.792","0.0"],
    [1410802,"2026-05-06 02:50:00","48387","2.784","351.9","3.92","349.2","1010.37","13.19","77.64","-2.775","0.0"],
    [1410803,"2026-05-06 03:00:00","48388","2.945","357.6","3.953","352.4","1010.32","13.65","73.24","-2.767","0.0"],
    [1410804,"2026-05-06 03:10:00","48389","2.87","340.3","4.867","331.7","1010.328","14.09","66.65","-3.174","0.0"],
    [1410805,"2026-05-06 03:20:00","48390","3.39","331.3","5.586","322.4","1010.3860000000001","14.57","61.13","-2.9760000000000004","0.0"],
    [1410806,"2026-05-06 03:30:00","48391","2.092","297.6","3.561","319.6","1010.409","14.15","63.59","-2.967","0.0"],
    [1410807,"2026-05-06 03:40:00","48392","2.272","295.8","3.332","306.1","1010.482","13.81","64.78","-3.0010000000000003","0.0"],
    [1410808,"2026-05-06 03:50:00","48393","1.85","290.9","3.267","293.3","1010.498","13.28","67.21","-3.108","0.0"],
    [1410809,"2026-05-06 04:00:00","48394","2.181","294.3","3.071","302","1010.568","13.06","68.85","-2.9360000000000004","0.0"],
    [1410810,"2026-05-06 04:10:00","48395","2.354","299.5","3.332","297.4","1010.6439999999999","12.87","70.79","-2.859","0.0"],
    [1410811,"2026-05-06 04:20:00","48396","2.259","303.6","3.234","302","1010.628","12.57","73.73","-2.762","0.0"],
    [1410812,"2026-05-06 04:30:00","48397","3.017","316.8","3.953","313.5","1010.6","12.32","74.46","-2.588","0.0"],
    [1410813,"2026-05-06 04:40:00","48398","3.158","325.3","4.312","320.4","1010.6110000000001","12.94","69.79","-0.951","0.0"],
    [1410814,"2026-05-06 04:50:00","48399","3.096","325.6","4.9","326.8","1010.7180000000001","13.25","67.38","2.563","0.0"],
    [1410815,"2026-05-06 05:00:00","48400","2.117","316.2","3.691","325.7","1010.8610000000001","13.36","66.34","7.483","0.0"],
    [1410816,"2026-05-06 05:10:00","48401","1.9180000000000001","303.3","3.169","309.2","1011.0010000000001","13.06","68.41","24.9","0.0"],
    [1410817,"2026-05-06 05:20:00","48402","1.686","295.2","2.515","296.7","1011.1039999999999","12.63","71.42","51.31","0.0"],
    [1410818,"2026-05-06 05:30:00","48403","1.879","301.4","2.842","308","1011.133","12.46","73.28","76.62","0.0"],
    [1410819,"2026-05-06 05:40:00","48404","2.309","304.7","3.201","314.3","1011.192","12.7","72.88","104.0","0.0"],
    [1410820,"2026-05-06 05:50:00","48405","2.9330000000000003","308.0","3.789","313.7","1011.2230000000001","12.9","72.42","132.6","0.0"],
    [1410821,"2026-05-06 06:00:00","48406","2.423","303.2","3.659","310.4","1011.202","13.26","71.59","164.4","0.0"],
    [1410822,"2026-05-06 06:10:00","48407","1.9380000000000002","282.6","2.875","288.5","1011.232","13.77","68.47","196.3","0.0"],
    [1410823,"2026-05-06 06:20:00","48408","1.682","305.8","3.267","354.8","1011.315","14.3","64.17","228.7","0.0"],
    [1410824,"2026-05-06 06:30:00","48409","2.036","276.0","3.757","298.2","1011.38","14.95","59.4","262.6","0.0"],
    [1410825,"2026-05-06 06:40:00","48410","2.8489999999999998","291.4","5.553","288.4","1011.3639999999999","15.3","56.52","297.5","0.0"],
    [1410826,"2026-05-06 06:50:00","48411","2.824","306.9","4.867","305","1011.432","15.77","52.95","332.9","0.0"],
    [1410827,"2026-05-06 07:00:00","48412","3.998","302.8","6.011","312.1","1011.4939999999999","15.78","52.76","367.7","0.0"],
    [1410828,"2026-05-06 07:10:00","48413","4.292","311.8","7.089","320.6","1011.648","15.99","51.87","401.4","0.0"],
    [1410829,"2026-05-06 07:20:00","48414","3.7110000000000003","306.9","5.619","302.9","1011.725","16.14","51.34","436.1","0.0"],
    [1410830,"2026-05-06 07:30:00","48415","3.4419999999999997","295.1","5.455","302.4","1011.9119999999999","16.24","51.44","470.1","0.0"],
    [1410831,"2026-05-06 07:40:00","48416","3.426","287.1","5.423","279.4","1012.0419999999999","16.29","51.38","505.1","0.0"],
    [1410832,"2026-05-06 07:50:00","48417","3.562","286.2","7.154","300.2","1012.1560000000001","16.26","51.62","538.8","0.0"],
    [1410833,"2026-05-06 08:00:00","48418","3.3689999999999998","278.4","5.292","273.3","1012.1189999999999","16.26","52.0","571.3","0.0"],
    [1410834,"2026-05-06 08:10:00","48419","2.628","261.0","5.39","293","1012.1360000000001","16.69","51.31","566.8","0.0"],
    [1410835,"2026-05-06 08:20:00","48420","3.466","292.4","5.945","295.1","1012.1510000000001","16.88","50.05","632.7","0.0"],
    [1410836,"2026-05-06 08:30:00","48421","3.562","296.1","5.194","285.5","1012.2510000000001","17.44","47.84","630.5","0.0"],
    [1410837,"2026-05-06 08:40:00","48422","3.7089999999999996","314.6","5.553","320.5","1012.2439999999999","17.58","47.11","689.7","0.0"],
    [1410838,"2026-05-06 08:50:00","48423","4.155","312.7","6.925","309.9","1012.25","17.78","45.55","718.0","0.0"],
    [1410839,"2026-05-06 09:00:00","48424","2.963","307.4","5.978","306.1","1012.2669999999999","18.4","44.15","777.4","0.0"],
    [1410840,"2026-05-06 09:10:00","48425","2.003","318.9","3.593","342.4","1012.263","18.74","43.85","794.7","0.0"],
    [1410841,"2026-05-06 09:20:00","48426","1.768","319.3","3.299","324.4","1012.27","19.15","43.36","816.0","0.0"],
    [1410842,"2026-05-06 09:30:00","48427","1.9580000000000002","341.6","3.724","297.2","1012.2560000000001","18.85","43.84","835.0","0.0"],
    [1410843,"2026-05-06 09:40:00","48428","2.093","303.9","3.528","291","1012.2139999999999","19.13","44.06","853.0","0.0"],
    [1410844,"2026-05-06 09:50:00","48429","0.925","211.3","2.319","281","1012.069","19.59","43.58","867.0","0.0"],
    [1410845,"2026-05-06 10:00:00","48430","1.3869999999999998","154.1","4.345","182.9","1012.015","19.8","41.94","882.0","0.0"],
    [1410846,"2026-05-06 10:10:00","48431","1.66","153.9","4.279","163","1011.9889999999999","19.74","40.28","901.0","0.0"],
    [1410847,"2026-05-06 10:20:00","48432","1.969","129.9","4.508","104.5","1011.915","19.61","39.69","918.0","0.0"],
    [1410848,"2026-05-06 10:30:00","48433","1.973","153.3","4.051","193.4","1011.76","19.23","37.9","930.0","0.0"],
    [1410849,"2026-05-06 10:40:00","48434","1.931","154.5","4.835","194.4","1011.7460000000001","20.0","37.46","939.0","0.0"],
    [1410850,"2026-05-06 10:50:00","48435","2.765","166.6","5.325","171","1011.755","19.52","36.86","949.0","0.0"],
    [1410851,"2026-05-06 11:00:00","48436","3.182","203.1","5.488","227","1011.653","20.31","39.0","958.0","0.0"],
    [1410852,"2026-05-06 11:10:00","48437","3.342","182.4","5.913","184.9","1011.575","19.44","41.59","965.0","0.0"],
    [1410853,"2026-05-06 11:20:00","48438","2.7510000000000003","189.8","5.325","167.9","1011.515","19.7","42.25","967.0","0.0"],
    [1410854,"2026-05-06 11:30:00","48439","3.3689999999999998","183.2","5.684","166.4","1011.482","19.66","42.72","971.0","0.0"],
    [1410855,"2026-05-06 11:40:00","48440","3.6180000000000003","182.6","6.174","166.9","1011.5360000000001","19.38","45.37","970.0","0.0"],
    [1410856,"2026-05-06 11:50:00","48441","3.86","185.9","5.978","182.1","1011.5239999999999","19.05","47.55","971.0","0.0"],
    [1410857,"2026-05-06 12:00:00","48442","3.782","188.8","6.403","195.2","1011.5419999999999","19.22","47.86","967.0","0.0"],
    [1410858,"2026-05-06 12:10:00","48443","3.802","177.7","5.717","191.2","1011.46","18.88","48.34","962.0","0.0"],
    [1410859,"2026-05-06 12:20:00","48444","3.217","187.6","6.076","178.6","1011.416","19.64","47.31","957.0","0.0"],
    [1410860,"2026-05-06 12:30:00","48445","3.8","192.5","6.533","163.6","1011.3789999999999","19.8","45.02","948.0","0.0"],
    [1410861,"2026-05-06 12:40:00","48446","3.62","194.6","6.141","201.4","1011.311","19.64","46.06","939.0","0.0"],
    [1410862,"2026-05-06 12:50:00","48447","3.283","192.3","5.259","164.7","1011.2389999999999","19.87","43.59","932.0","0.0"],
    [1410863,"2026-05-06 13:00:00","48448","3.2030000000000003","197.9","5.194","179.1","1011.22","20.36","43.54","919.0","0.0"],
    [1410864,"2026-05-06 13:10:00","48449","3.655","192.4","6.991","188.5","1011.2080000000001","19.97","45.85","904.0","0.0"],
    [1410865,"2026-05-06 13:20:00","48450","3.375","186.0","5.553","182","1011.193","19.6","49.02","887.0","0.0"],
    [1410866,"2026-05-06 13:30:00","48451","3.3080000000000003","190.2","5.325","188.4","1011.02","19.86","49.66","871.0","0.0"],
    [1410867,"2026-05-06 13:40:00","48452","4.2669999999999995","211.0","6.468","206.3","1010.935","19.82","50.0","852.0","0.0"],
    [1410868,"2026-05-06 13:50:00","48453","3.91","184.0","6.501","184.1","1010.89","19.75","50.33","832.0","0.0"],
    [1410869,"2026-05-06 14:00:00","48454","4.385","178.0","6.827","167.8","1010.796","19.45","51.0","814.0","0.0"],
    [1410870,"2026-05-06 14:10:00","48455","3.5639999999999996","201.8","7.023","216.5","1010.7410000000001","19.85","48.97","790.1","0.0"],
    [1410871,"2026-05-06 14:20:00","48456","3.767","201.4","7.579","183.1","1010.683","19.94","47.88","767.6","0.0"],
    [1410872,"2026-05-06 14:30:00","48457","4.012","196.5","7.611","171.4","1010.59","19.74","48.9","743.0","0.0"],
    [1410873,"2026-05-06 14:40:00","48458","3.475","197.3","6.272","217.8","1010.581","19.88","48.06","717.3","0.0"],
    [1410874,"2026-05-06 14:50:00","48459","4.343999999999999","192.2","6.337","207.2","1010.551","19.5","49.29","687.6","0.0"],
    [1410875,"2026-05-06 15:00:00","48460","3.508","183.0","6.403","176.4","1010.47","19.41","48.58","658.9","0.0"],
    [1410876,"2026-05-06 15:10:00","48461","4.013","178.9","6.501","185.7","1010.403","19.26","49.48","632.9","0.0"],
    [1410877,"2026-05-06 15:20:00","48462","3.199","185.7","5.847","168.5","1010.294","19.29","50.72","602.0","0.0"],
    [1410878,"2026-05-06 15:30:00","48463","3.904","187.4","6.533","173.2","1010.2719999999999","19.32","51.17","540.3","0.0"],
    [1410879,"2026-05-06 15:40:00","48464","2.904","192.1","5.423","176.6","1010.255","19.6","51.71","539.1","0.0"],
    [1410880,"2026-05-06 15:50:00","48465","3.0839999999999996","181.2","5.357","159.7","1010.222","19.52","52.25","474.7","0.0"],
    [1410881,"2026-05-06 16:00:00","48466","2.411","191.3","4.116","161.4","1010.2389999999999","19.3","53.42","475.6","0.0"],
    [1410882,"2026-05-06 16:10:00","48467","2.6439999999999997","187.1","5.455","176","1010.2180000000001","19.38","53.36","443.0","0.0"],
    [1410883,"2026-05-06 16:20:00","48468","2.932","176.9","4.508","184.1","1010.206","18.94","54.18","410.3","0.0"],
    [1410884,"2026-05-06 16:30:00","48469","2.609","180.6","4.671","212.5","1010.2239999999999","18.79","54.94","375.7","0.0"],
    [1410885,"2026-05-06 16:40:00","48470","2.795","181.7","4.933","183.4","1010.211","18.78","54.41","340.9","0.0"],
    [1410886,"2026-05-06 16:50:00","48471","2.1790000000000003","188.6","4.475","201","1010.263","18.88","53.43","305.1","0.0"],
    [1410887,"2026-05-06 17:00:00","48472","1.932","199.2","4.345","218.6","1010.375","19.06","53.84","269.0","0.0"],
    [1410888,"2026-05-06 17:10:00","48473","2.412","197.0","4.149","174.4","1010.422","18.67","56.36","234.2","0.0"],
    [1410889,"2026-05-06 17:20:00","48474","2.104","192.2","5.717","187.1","1010.535","18.59","57.26","202.2","0.0"],
    [1410890,"2026-05-06 17:30:00","48475","2.221","183.1","4.214","298.9","1010.6410000000001","18.4","57.89","169.9","0.0"],
    [1410891,"2026-05-06 17:40:00","48476","2.069","182.4","4.345","184.5","1010.6510000000001","18.43","57.77","138.8","0.0"],
    [1410892,"2026-05-06 17:50:00","48477","2.44","181.1","4.051","172.3","1010.682","18.23","58.79","104.9","0.0"],
    [1410893,"2026-05-06 18:00:00","48478","2.095","183.8","3.659","178.6","1010.794","18.08","59.81","76.04","0.0"],
    [1410894,"2026-05-06 18:10:00","48479","1.386","174.9","2.417","157.9","1010.8889999999999","17.93","60.62","37.31","0.0"],
    [1410895,"2026-05-06 18:20:00","48480","0.955","146.0","3.92","123","1010.953","17.76","59.94","29.88","0.0"],
    [1410896,"2026-05-06 18:30:00","48481","1.024","175.1","3.365","211.8","1011.0880000000001","17.45","61.13","11.69","0.0"],
    [1410897,"2026-05-06 18:40:00","48482","1.077","172.5","2.156","169.5","1011.2230000000001","17.36","61.69","3.765","0.0"],
    [1410898,"2026-05-06 18:50:00","48483","1.102","146.2","2.646","141.8","1011.372","17.26","63.04","-0.162","0.0"],
    [1410899,"2026-05-06 19:00:00","48484","1.2109999999999999","166.5","3.267","108.5","1011.43","17.28","62.43","-2.394","0.0"],
    [1410900,"2026-05-06 19:10:00","48485","1.122","170.7","2.973","225.6","1011.5319999999999","17.25","62.84","-3.21","0.0"],
    [1410901,"2026-05-06 19:20:00","48486","1.1840000000000002","158.6","3.169","182.9","1011.6139999999999","17.25","63.27","-3.321","0.0"],
    [1410902,"2026-05-06 19:30:00","48487","0.96","191.7","3.561","181","1011.7589999999999","17.15","64.41","-3.318","0.0"],
    [1410903,"2026-05-06 19:40:00","48488","1.331","176.3","3.92","161.6","1011.9739999999999","17.23","66.34","-3.264","0.0"],
    [1410904,"2026-05-06 19:50:00","48489","0.309","130.6","1.731","122.5","1012.071","17.17","66.32","-3.0989999999999998","0.0"],
    [1410905,"2026-05-06 20:00:00","48490","0.174","62.26","0.849","61.46","1012.212","17.03","66.99","-3.438","0.0"],
    [1410906,"2026-05-06 20:10:00","48491","0.22","179.6","1.111","182.3","1012.409","16.74","68.07","-3.447","0.0"],
    [1410907,"2026-05-06 20:20:00","48492","0.095","146.5","0.784","139.6","1012.6080000000001","16.83","68.73","-3.117","0.0"],
    [1410908,"2026-05-06 20:30:00","48493","0.0","0.0","0","0","1012.7189999999999","16.71","68.94","-2.912","0.0"],
    [1410909,"2026-05-06 20:40:00","48494","0.0","0.0","0","0","1012.817","16.46","69.39","-2.7939999999999996","0.0"],
    [1410910,"2026-05-06 20:50:00","48495","0.065","223.2","0.719","236.8","1012.914","16.27","70.12","-3.2739999999999996","0.0"],
    [1410911,"2026-05-06 21:00:00","48496","0.7","242.8","0.915","244","1012.944","16.29","70.49","-3.055","0.0"],
    [1410912,"2026-05-06 21:10:00","48497","0.449","288.1","1.045","285.6","1012.957","16.05","70.54","-2.795","0.0"],
    [1410913,"2026-05-06 21:20:00","48498","0.478","289.2","1.307","286.1","1012.923","15.75","71.71","-3.4389999999999996","0.0"],
    [1410914,"2026-05-06 21:30:00","48499","0.718","274.5","1.307","279.3","1012.887","16.0","71.68","-2.988","0.0"],
    [1410915,"2026-05-06 21:40:00","48500","0.077","284.3","0.784","274.9","1012.945","15.91","71.83","-2.8939999999999997","0.0"],
    [1410916,"2026-05-06 21:50:00","48501","0.593","271.2","1.045","280.8","1012.943","15.91","72.74","-3.161","0.0"],
    [1410917,"2026-05-06 22:00:00","48502","0.551","274.6","1.503","283.5","1012.96","15.96","72.65","-2.765","0.0"],
    [1410918,"2026-05-06 22:10:00","48503","0.935","276.7","1.503","286.8","1012.928","15.38","73.24","-2.7539999999999996","0.0"],
    [1410919,"2026-05-06 22:20:00","48504","1.01","286.0","1.405","290.9","1012.8580000000001","15.36","72.74","-2.873","0.0"],
    [1410920,"2026-05-06 22:30:00","48505","0.624","284.5","1.307","283","1012.914","15.19","72.94","-2.855","0.0"],
    [1410921,"2026-05-06 22:40:00","48506","0.3","288.9","0.686","288.2","1012.928","15.02","72.95","-2.8110000000000004","0.0"],
    [1410922,"2026-05-06 22:50:00","48507","0.051","298.8","0.392","290.5","1013.013","14.69","74.21","-2.76","0.0"],
    [1410923,"2026-05-06 23:00:00","48508","0.10800000000000001","306.5","0.653","306.8","1013.0089999999999","15.02","73.76","-2.458","0.0"],
    [1410924,"2026-05-06 23:10:00","48509","1.1440000000000001","301.0","1.568","299.9","1012.9860000000001","14.93","73.42","-1.939","0.0"],
    [1410925,"2026-05-06 23:40:00","48510","1.016","277.7","1.503","279.6","1013.056","14.92","73.28","-1.992","0.0"],
    [1410926,"2026-05-06 23:50:00","48511","0.376","292.9","1.111","294.5","1013.057","14.92","72.88","-2.6239999999999997","0.0"],
    [1410927,"2026-05-07 00:00:00","48512","1.247","348.6","4.41","32.69","1013.087","14.97","75.5","-2.64","0.0"],
    [1410928,"2026-05-07 00:10:00","48513","3.071","43.08","5.88","30.66","1013.107","16.17","80.1","-2.435","0.0"],
    [1410929,"2026-05-07 00:20:00","48514","3.553","39.08","6.239","38.17","1012.962","16.14","79.92","-1.546","0.0"],
    [1410930,"2026-05-07 00:30:00","48515","4.191","46.03","6.827","50.72","1012.933","16.18","77.76","-1.226","0.0"],
    [1410931,"2026-05-07 00:40:00","48516","3.8989999999999996","45.13","6.011","46.85","1012.925","16.18","75.28","-1.232","0.0"],
    [1410932,"2026-05-07 00:50:00","48517","4.23","56.05","5.684","55.52","1012.921","16.24","75.17","-1.6569999999999998","0.0"],
    [1410933,"2026-05-07 01:00:00","48518","4.603","57.25","6.501","47.64","1012.825","16.17","78.93","-1.976","0.0"],
    [1410934,"2026-05-07 01:10:00","48519","4.388999999999999","56.66","6.207","55.12","1012.7539999999999","15.99","81.2","-2.218","0.0"],
    [1410935,"2026-05-07 01:20:00","48520","3.556","50.46","5.651","50.55","1012.7460000000001","15.85","81.9","-2.4219999999999997","0.0"],
    [1410936,"2026-05-07 01:30:00","48521","3.19","48.15","4.737","47.5","1012.725","15.72","81.7","-2.667","0.0"],
    [1410937,"2026-05-07 01:40:00","48522","3.063","42.87","4.639","33.01","1012.695","15.68","80.5","-2.7110000000000003","0.0"],
    [1410938,"2026-05-07 01:50:00","48523","3.137","47.02","4.737","55.96","1012.66","15.73","80.1","-2.713","0.0"],
    [1410939,"2026-05-07 02:00:00","48524","3.142","48.52","4.835","34.24","1012.592","15.78","79.17","-2.6910000000000003","0.0"],
    [1410940,"2026-05-07 02:10:00","48525","3.195","48.07","4.867","58.59","1012.528","15.8","78.96","-2.708","0.0"],
    [1410941,"2026-05-07 02:20:00","48526","2.984","46.22","4.573","47.31","1012.556","15.79","78.59","-2.714","0.0"],
    [1410942,"2026-05-07 02:30:00","48527","2.049","44.13","3.887","61.85","1012.56","15.76","79.77","-2.708","0.0"],
    [1410943,"2026-05-07 02:40:00","48528","1.804","52.05","3.887","60.05","1012.6","15.56","79.95","-2.715","0.0"],
    [1410944,"2026-05-07 02:50:00","48529","2.123","41.15","3.757","61.17","1012.677","15.59","78.99","-2.721","0.0"],
    [1410945,"2026-05-07 03:00:00","48530","2.048","33.34","3.495","20.7","1012.6569999999999","15.53","78.75","-2.7560000000000002","0.0"],
    [1410946,"2026-05-07 03:10:00","48531","2.318","26.77","3.528","38.04","1012.6619999999999","15.5","78.69","-2.7239999999999998","0.0"],
    [1410947,"2026-05-07 03:20:00","48532","2.211","31.61","3.985","27.98","1012.704","15.51","78.52","-2.719","0.0"],
    [1410948,"2026-05-07 03:30:00","48533","1.171","296.9","1.96","327.4","1012.633","14.33","78.33","-2.399","0.0"],
    [1410949,"2026-05-07 03:40:00","48534","1.28","299.8","2.123","303.2","1012.53","13.66","80.6","-2.734","0.0"],
    [1410950,"2026-05-07 03:50:00","48535","1.011","311.4","1.372","312.5","1012.513","13.55","81.3","-2.983","0.0"],
    [1410951,"2026-05-07 04:00:00","48536","1.026","318.4","1.503","324.6","1012.4839999999999","13.64","81.1","-2.735","0.0"],
    [1410952,"2026-05-07 04:10:00","48537","0.956","290.5","1.437","290.5","1012.552","13.53","81.4","-2.8810000000000002","0.0"],
    [1410953,"2026-05-07 04:20:00","48538","1.525","291.8","2.091","293.1","1012.53","13.35","81.8","-2.6260000000000003","0.0"],
    [1410954,"2026-05-07 04:30:00","48539","0.92","298.7","1.731","301.7","1012.587","13.12","82.8","-2.182","0.0"],
    [1410955,"2026-05-07 04:40:00","48540","0.185","295.6","0.653","297.8","1012.577","13.1","83.2","-0.22699999999999998","0.0"],
    [1410956,"2026-05-07 04:50:00","48541","0.523","297.9","0.98","293.8","1012.4839999999999","13.0","83.4","3.687","0.0"],
    [1410957,"2026-05-07 05:00:00","48542","1.516","280.5","2.123","269.4","1012.518","13.03","83.7","12.5","0.0"],
    [1410958,"2026-05-07 05:10:00","48543","0.66","274.8","1.47","285.2","1012.696","13.15","83.0","17.12","0.0"],
    [1410959,"2026-05-07 05:20:00","48544","0.972","266.9","2.483","278.7","1012.852","13.24","82.7","45.52","0.0"],
    [1410960,"2026-05-07 05:30:00","48545","1.8659999999999999","281.8","2.352","284.9","1012.914","13.31","81.9","57.85","0.0"],
    [1410961,"2026-05-07 05:40:00","48546","0.596","293.4","1.764","306.2","1012.913","13.39","82.2","80.4","0.0"],
    [1410962,"2026-05-07 05:50:00","48547","0.792","266.0","1.764","281.7","1013.053","13.9","80.3","95.7","0.0"],
    [1410963,"2026-05-07 06:00:00","48548","1.105","279.1","1.699","270.1","1013.1060000000001","14.27","79.37","84.9","0.0"],
    [1410964,"2026-05-07 06:10:00","48549","1.537","280.9","1.993","281","1013.183","14.46","78.41","77.29","0.0"],
    [1410965,"2026-05-07 06:20:00","48550","1.642","281.8","2.189","285.6","1013.204","14.82","76.9","196.4","0.0"],
    [1410966,"2026-05-07 06:30:00","48551","0.8640000000000001","274.8","1.96","288.1","1013.2819999999999","15.24","74.84","111.5","0.0"],
    [1410967,"2026-05-07 06:40:00","48552","0.655","288.5","1.437","298.6","1013.405","15.43","74.66","158.7","0.0"],
    [1410968,"2026-05-07 06:50:00","48553","0.595","337.2","3.267","33.75","1013.477","15.9","74.47","149.3","0.0"],
    [1410969,"2026-05-07 07:00:00","48554","2.336","40.07","3.365","40.21","1013.546","16.95","75.95","307.1","0.0"],
    [1410970,"2026-05-07 07:10:00","48555","1.839","56.21","3.267","69.55","1013.617","17.01","75.95","178.3","0.0"],
    [1410971,"2026-05-07 07:20:00","48556","2.255","42.13","3.495","41.18","1013.695","16.91","76.3","240.0","0.0"],
    [1410972,"2026-05-07 07:30:00","48557","2.7969999999999997","50.67","4.345","37.95","1013.7180000000001","16.95","76.28","149.7","0.0"],
    [1410973,"2026-05-07 07:40:00","48558","2.92","42.25","4.867","32.18","1013.707","16.75","77.39","173.3","0.0"],
    [1410974,"2026-05-07 07:50:00","48559","3.965","55.18","5.553","51.17","1013.748","17.11","76.34","280.8","0.0"],
    [1410975,"2026-05-07 08:00:00","48560","4.332","64.96","6.174","75.17","1013.679","17.1","74.84","437.5","0.0"],
    [1410976,"2026-05-07 08:10:00","48561","4.754","75.66","6.599","87.3","1013.677","18.23","66.23","512.8","0.0"],
    [1410977,"2026-05-07 08:20:00","48562","4.668","76.11","6.795","74.87","1013.686","18.09","67.34","493.1","0.0"],
    [1410978,"2026-05-07 08:30:00","48563","4.941","80.8","6.795","66.61","1013.703","18.02","67.29","415.7","0.0"],
    [1410979,"2026-05-07 08:40:00","48564","4.864","77.85","7.84","84.8","1013.6460000000001","17.75","68.49","426.8","0.0"],
    [1410980,"2026-05-07 08:50:00","48565","5.66","80.5","7.579","72.73","1013.6189999999999","18.4","64.55","743.8","0.0"],
    [1410981,"2026-05-07 09:00:00","48566","4.9830000000000005","80.9","6.925","69.42","1013.698","18.73","63.99","707.2","0.0"],
    [1410982,"2026-05-07 09:10:00","48567","4.745","83.0","6.664","73.08","1013.826","18.59","63.96","668.2","0.0"],
    [1410983,"2026-05-07 09:20:00","48568","4.882","81.3","7.154","77.05","1013.904","18.57","63.36","778.1","0.0"],
    [1410984,"2026-05-07 09:30:00","48569","4.934","82.8","7.219","78.05","1013.947","18.72","62.94","735.5","0.0"],
    [1410985,"2026-05-07 09:40:00","48570","3.96","88.1","6.533","74.42","1014.034","18.86","62.47","771.7","0.0"],
    [1410986,"2026-05-07 09:50:00","48571","4.277","87.6","6.109","79.56","1014.113","18.75","62.32","865.0","0.0"],
    [1410987,"2026-05-07 10:00:00","48572","4.013999999999999","91.5","6.37","86.8","1014.1139999999999","18.77","62.04","806.0","0.0"],
    [1410988,"2026-05-07 10:10:00","48573","4.138999999999999","91.7","6.337","94.1","1014.0160000000001","18.8","62.89","915.0","0.0"],
    [1410989,"2026-05-07 10:20:00","48574","4.1530000000000005","85.4","5.978","84.6","1013.949","18.96","62.95","918.0","0.0"],
    [1410990,"2026-05-07 10:30:00","48575","4.713","83.0","6.795","83.1","1013.78","18.77","64.02","855.0","0.0"],
    [1410991,"2026-05-07 10:40:00","48576","4.828","77.46","6.468","76.2","1013.705","18.57","64.65","769.5","0.0"],
    [1410992,"2026-05-07 10:50:00","48577","4.986000000000001","73.54","6.501","88.8","1013.6669999999999","18.52","65.3","666.4","0.0"],
    [1410993,"2026-05-07 11:00:00","48578","4.645","84.6","6.566","88.2","1013.6569999999999","18.66","64.87","790.5","0.0"],
    [1410994,"2026-05-07 11:10:00","48579","4.618","81.8","6.468","92.3","1013.4889999999999","18.8","64.41","870.0","0.0"],
    [1410995,"2026-05-07 11:20:00","48580","4.354","84.6","6.011","77.47","1013.5139999999999","18.84","64.02","787.8","0.0"],
    [1410996,"2026-05-07 11:30:00","48581","4.172","89.9","5.913","85","1013.512","18.79","64.07","808.0","0.0"],
    [1410997,"2026-05-07 11:40:00","48582","4.266","89.9","6.37","103.7","1013.471","19.12","62.65","996.0","0.0"],
    [1410998,"2026-05-07 11:50:00","48583","4.476","93.8","6.958","99.6","1013.4830000000001","19.11","60.2","1001.0","0.0"],
    [1410999,"2026-05-07 12:00:00","48584","4.427","95.8","6.305","100","1013.415","18.98","60.18","954.0","0.0"],
    [1411000,"2026-05-07 12:10:00","48585","3.925","97.7","5.815","85.4","1013.324","18.87","60.66","793.0","0.0"],
    [1411001,"2026-05-07 12:20:00","48586","3.7239999999999998","98.8","6.043","85","1013.2539999999999","19.06","59.68","984.0","0.0"],
    [1411002,"2026-05-07 12:30:00","48587","4.362","95.1","6.729","74.97","1013.205","19.0","60.08","963.0","0.0"],
    [1411003,"2026-05-07 12:40:00","48588","4.342","96.3","6.729","93.5","1013.158","18.77","59.98","859.0","0.0"],
    [1411004,"2026-05-07 12:50:00","48589","4.462","93.8","6.468","90.8","1013.047","18.61","60.32","808.0","0.0"],
    [1411005,"2026-05-07 13:00:00","48590","3.872","94.2","6.141","88.3","1012.937","18.66","60.46","697.9","0.0"],
    [1411006,"2026-05-07 13:10:00","48591","3.9130000000000003","91.7","6.37","87.4","1012.8330000000001","18.72","60.58","758.6","0.0"],
    [1411007,"2026-05-07 13:20:00","48592","3.7889999999999997","89.1","6.207","79.36","1012.7239999999999","18.97","60.05","809.0","0.0"],
    [1411008,"2026-05-07 13:30:00","48593","4.064","92.9","6.011","85.4","1012.6569999999999","18.97","59.18","702.6","0.0"],
    [1411009,"2026-05-07 13:40:00","48594","3.7760000000000002","90.5","5.945","79.93","1012.58","18.83","60.61","673.5","0.0"],
    [1411010,"2026-05-07 13:50:00","48595","4.35","88.0","6.37","90.5","1012.355","18.78","61.05","744.7","0.0"],
    [1411011,"2026-05-07 14:00:00","48596","4.0089999999999995","84.7","5.978","89.2","1012.2280000000001","18.81","61.94","701.2","0.0"],
    [1411012,"2026-05-07 14:10:00","48597","3.785","86.6","5.945","100.6","1012.1389999999999","19.08","61.46","724.5","0.0"],
    [1411013,"2026-05-07 14:20:00","48598","3.5410000000000004","91.9","6.011","81.4","1011.9910000000001","18.77","62.31","607.3","0.0"],
    [1411014,"2026-05-07 14:30:00","48599","3.418","91.8","5.357","89.1","1011.982","18.49","63.89","462.9","0.0"],
    [1411015,"2026-05-07 14:40:00","48600","3.926","88.7","5.847","84.6","1011.947","18.5","64.21","546.9","0.0"],
    [1411016,"2026-05-07 14:50:00","48601","4.013","87.8","5.455","89.9","1012.0260000000001","18.52","64.32","575.8","0.0"],
    [1411017,"2026-05-07 15:00:00","48602","3.925","89.7","5.88","81.7","1011.915","18.54","64.78","489.0","0.0"],
    [1411018,"2026-05-07 15:10:00","48603","3.247","96.4","5.717","105.3","1011.972","18.5","65.57","352.2","0.0"],
    [1411019,"2026-05-07 15:20:00","48604","3.637","92.0","5.815","72.19","1011.883","18.39","66.51","369.4","0.0"],
    [1411020,"2026-05-07 15:30:00","48605","3.7910000000000004","86.1","5.782","84.4","1011.704","18.54","65.83","420.7","0.0"],
    [1411021,"2026-05-07 15:40:00","48606","4.228","82.4","5.847","84.7","1011.571","18.59","65.68","456.0","0.0"],
    [1411022,"2026-05-07 15:50:00","48607","3.759","81.6","5.161","89.2","1011.4989999999999","18.34","66.95","389.5","0.0"],
    [1411023,"2026-05-07 16:00:00","48608","3.9139999999999997","85.8","5.488","87.9","1011.3510000000001","18.29","66.49","336.6","0.0"],
    [1411024,"2026-05-07 16:10:00","48609","3.7710000000000004","89.6","6.011","80.4","1011.2869999999999","18.04","67.1","289.3","0.0"],
    [1411025,"2026-05-07 16:20:00","48610","4.215","82.1","5.586","71.11","1011.2610000000001","18.05","67.41","292.4","0.0"],
    [1411026,"2026-05-07 16:30:00","48611","3.918","77.62","5.782","74.15","1011.329","18.17","68.35","280.6","0.0"],
    [1411027,"2026-05-07 16:40:00","48612","3.5610000000000004","76.3","5.357","63.01","1011.4830000000001","18.11","68.23","263.5","0.0"],
    [1411028,"2026-05-07 16:50:00","48613","3.4130000000000003","78.55","5.031","70.32","1011.5210000000001","18.16","68.34","258.5","0.0"],
    [1411029,"2026-05-07 17:00:00","48614","3.7","85.4","5.129","82.1","1011.591","18.04","68.97","217.5","0.0"],
    [1411030,"2026-05-07 17:10:00","48615","3.502","83.6","5.161","86.6","1011.698","17.88","70.53","158.2","0.0"],
    [1411031,"2026-05-07 17:20:00","48616","3.3339999999999996","75.9","4.998","80.7","1011.7460000000001","17.87","70.63","190.0","0.0"],
    [1411032,"2026-05-07 17:30:00","48617","3.514","69.92","4.769","57.08","1011.679","17.87","71.21","158.3","0.0"],
    [1411033,"2026-05-07 17:40:00","48618","3.582","58.37","5.161","49.66","1011.587","17.67","72.37","118.2","0.0"],
    [1411034,"2026-05-07 17:50:00","48619","3.373","63.48","5.259","68.51","1011.7339999999999","17.58","72.48","92.0","0.0"],
    [1411035,"2026-05-07 18:00:00","48620","3.168","61.75","4.508","58.52","1011.816","17.42","72.96","78.8","0.0"],
    [1411036,"2026-05-07 18:10:00","48621","3.138","72.91","4.475","81","1011.88","17.45","73.12","67.79","0.0"],
    [1411037,"2026-05-07 18:20:00","48622","3.1460000000000004","65.99","4.41","74.35","1011.927","17.36","73.61","55.73","0.0"],
    [1411038,"2026-05-07 18:30:00","48623","2.931","69.2","4.279","54.12","1012.039","17.28","73.77","45.57","0.0"],
    [1411039,"2026-05-07 18:40:00","48624","2.753","74.68","4.181","72.49","1012.102","17.24","73.95","29.12","0.0"],
    [1411040,"2026-05-07 18:50:00","48625","2.77","65.65","3.855","69.63","1012.1289999999999","17.16","73.96","10.9","0.0"],
    [1411041,"2026-05-07 19:00:00","48626","2.4859999999999998","63.8","3.691","60.23","1012.204","17.06","74.66","1.597","0.0"],
    [1411042,"2026-05-07 19:10:00","48627","2.7310000000000003","69.84","3.659","70.49","1012.3489999999999","17.04","74.7","-1.17","0.0"],
    [1411043,"2026-05-07 19:20:00","48628","2.315","66.47","3.267","68.31","1012.5210000000001","17.0","74.49","-1.925","0.0"],
    [1411044,"2026-05-07 19:30:00","48629","2.454","63.66","3.561","62.77","1012.637","17.0","74.71","-1.9609999999999999","0.0"],
    [1411045,"2026-05-07 19:40:00","48630","2.412","55.88","3.593","51.22","1012.7","16.94","75.45","-2.3","0.0"],
    [1411046,"2026-05-07 19:50:00","48631","2.292","54.64","3.495","63.31","1012.785","16.87","75.36","-2.655","0.0"],
    [1411047,"2026-05-07 20:00:00","48632","2.4290000000000003","53.93","3.855","69.99","1012.877","16.83","74.6","-2.603","0.0"],
    [1411048,"2026-05-07 20:10:00","48633","2.339","57.64","3.495","51.09","1013.096","16.84","75.09","-2.523","0.0"],
    [1411049,"2026-05-07 20:20:00","48634","2.231","59.87","3.561","57.4","1013.265","16.86","75.8","-2.1","0.0"],
    [1411050,"2026-05-07 20:30:00","48635","2.013","62.3","3.136","82","1013.447","16.86","75.66","-2.105","0.0"],
    [1411051,"2026-05-07 20:40:00","48636","2.474","62.56","3.463","58.46","1013.498","16.81","75.76","-2.066","0.0"],
    [1411052,"2026-05-07 20:50:00","48637","2.22","63.64","3.071","71.11","1013.562","16.87","75.88","-1.974","0.0"],
    [1411053,"2026-05-07 21:00:00","48638","2.189","63.55","3.038","66.94","1013.555","16.8","76.06","-1.974","0.0"],
    [1411054,"2026-05-07 21:10:00","48639","1.909","67.35","2.973","70.55","1013.57","16.75","76.36","-1.96","0.0"],
    [1411055,"2026-05-07 21:20:00","48640","1.9969999999999999","72.49","3.038","80.9","1013.544","16.74","76.74","-2.045","0.0"],
    [1411056,"2026-05-07 21:30:00","48641","1.801","77.24","2.45","77.69","1013.552","16.71","76.58","-2.0","0.0"],
    [1411057,"2026-05-07 21:40:00","48642","1.575","66.86","2.417","66.6","1013.487","16.68","77.05","-2.016","0.0"],
    [1411058,"2026-05-07 21:50:00","48643","1.55","58.78","2.352","45.61","1013.4810000000001","16.54","77.67","-2.039","0.0"],
    [1411059,"2026-05-07 22:00:00","48644","1.83","56.27","2.417","47.74","1013.433","16.56","77.25","-2.099","0.0"],
    [1411060,"2026-05-07 22:10:00","48645","1.101","45.51","2.189","68.89","1013.433","16.54","77.42","-2.154","0.0"],
    [1411061,"2026-05-07 22:20:00","48646","1.2570000000000001","40.04","2.352","14.85","1013.398","16.46","77.99","-2.36","0.0"],
    [1411062,"2026-05-07 22:30:00","48647","1.044","28.8","1.927","18.4","1013.385","16.52","77.96","-2.001","0.0"],
    [1411063,"2026-05-07 22:40:00","48648","1.245","55.79","1.862","62.78","1013.3589999999999","16.52","77.82","-1.9680000000000002","0.0"],
    [1411064,"2026-05-07 22:50:00","48649","1.629","57.79","2.319","59.98","1013.262","16.47","78.15","-1.9469999999999998","0.0"],
    [1411065,"2026-05-07 23:00:00","48650","1.5819999999999999","49.97","2.417","49.46","1013.207","16.51","78.4","-1.944","0.0"],
    [1411066,"2026-05-07 23:10:00","48651","1.306","69.55","2.417","70.33","1013.186","16.58","78.01","-1.943","0.0"],
    [1411067,"2026-05-07 23:20:00","48652","0.6659999999999999","68.89","1.307","57.75","1013.1489999999999","16.56","78.16","-1.956","0.0"],
    [1411068,"2026-05-07 23:30:00","48653","1.047","77.48","1.829","83.3","1013.05","16.41","78.85","-1.9980000000000002","0.0"],
    [1411069,"2026-05-07 23:40:00","48654","0.902","76.34","1.829","74.15","1012.948","16.42","78.58","-1.942","0.0"],
    [1411070,"2026-05-07 23:50:00","48655","1.3719999999999999","284.5","2.254","273.9","1012.953","15.92","77.83","-1.8419999999999999","0.0"],
    [1411071,"2026-05-08 00:00:00","48656","0.892","281.8","1.601","287","1012.8710000000001","15.56","77.78","-1.926","0.0"],
    [1411072,"2026-05-08 00:10:00","48657","0.586","281.0","1.143","277.9","1012.76","15.5","77.94","-1.9240000000000002","0.0"],
    [1411073,"2026-05-08 00:20:00","48658","1.016","285.3","1.568","291.4","1012.688","15.47","78.18","-1.732","0.0"],
    [1411074,"2026-05-08 00:30:00","48659","1.089","299.9","1.764","300.3","1012.613","15.34","78.92","-1.8430000000000002","0.0"],
    [1411075,"2026-05-08 00:40:00","48660","0.789","295.6","1.535","296.2","1012.578","15.34","78.79","-1.919","0.0"],
    [1411076,"2026-05-08 00:50:00","48661","0.738","282.2","1.503","290.6","1012.5239999999999","15.41","77.96","-2.0340000000000003","0.0"],
    [1411077,"2026-05-08 01:00:00","48662","0.585","281.9","1.666","274.1","1012.4789999999999","15.37","77.45","-2.6719999999999997","0.0"],
    [1411078,"2026-05-08 01:10:00","48663","0.971","273.0","1.535","273.9","1012.332","15.17","77.99","-2.717","0.0"],
    [1411079,"2026-05-08 01:20:00","48664","0.8","272.9","1.307","265.2","1012.283","14.89","79.02","-2.728","0.0"],
    [1411080,"2026-05-08 01:30:00","48665","0.213","280.8","0.817","279.2","1012.169","14.66","79.75","-2.719","0.0"],
    [1411081,"2026-05-08 01:40:00","48666","0.38799999999999996","279.5","1.372","282.1","1012.1189999999999","14.63","80.4","-2.647","0.0"],
    [1411082,"2026-05-08 01:50:00","48667","1.036","282.7","1.731","272.6","1012.1389999999999","14.83","80.2","-2.008","0.0"],
    [1411083,"2026-05-08 02:00:00","48668","0.938","291.8","1.503","304.4","1012.071","14.7","80.7","-1.919","0.0"],
    [1411084,"2026-05-08 02:10:00","48669","0.919","290.0","1.829","307.8","1011.9580000000001","14.74","80.8","-1.963","0.0"],
    [1411085,"2026-05-08 02:20:00","48670","0.75","290.4","1.503","306.2","1011.88","14.82","80.0","-2.029","0.0"],
    [1411086,"2026-05-08 02:30:00","48671","0.7559999999999999","286.5","1.96","296.7","1011.842","14.69","79.84","-2.593","0.0"],
    [1411087,"2026-05-08 02:40:00","48672","1.056","282.3","1.731","281.5","1011.8","14.64","79.11","-2.752","0.0"],
    [1411088,"2026-05-08 02:50:00","48673","1.4169999999999998","284.4","2.221","295.3","1011.7239999999999","14.4","79.1","-2.728","0.0"],
    [1411089,"2026-05-08 03:00:00","48674","1.4480000000000002","282.8","2.123","286.1","1011.702","14.3","79.01","-2.728","0.0"],
    [1411090,"2026-05-08 03:10:00","48675","1.195","287.4","1.895","288.8","1011.671","14.01","79.47","-2.742","0.0"],
    [1411091,"2026-05-08 03:20:00","48676","1.216","292.0","2.123","302.6","1011.615","13.76","80.3","-2.799","0.0"],
    [1411092,"2026-05-08 03:30:00","48677","0.986","284.5","1.927","298.6","1011.627","13.86","79.65","-2.855","0.0"],
    [1411093,"2026-05-08 03:40:00","48678","1.088","287.8","2.123","303.5","1011.545","13.86","78.44","-2.745","0.0"],
    [1411094,"2026-05-08 03:50:00","48679","0.866","287.0","2.123","288.8","1011.57","13.66","78.15","-2.969","0.0"],
    [1411095,"2026-05-08 04:00:00","48680","1.274","285.5","2.091","280.5","1011.628","13.7","77.13","-2.7539999999999996","0.0"],
    [1411096,"2026-05-08 04:10:00","48681","1.646","296.2","2.94","292.1","1011.635","13.61","76.79","-2.783","0.0"],
    [1411097,"2026-05-08 04:20:00","48682","1.83","298.0","3.169","318.5","1011.676","13.7","75.6","-2.785","0.0"],
    [1411098,"2026-05-08 04:30:00","48683","1.5319999999999998","292.9","2.744","312.1","1011.763","13.82","74.58","-2.552","0.0"],
    [1411099,"2026-05-08 04:40:00","48684","1.306","280.4","2.287","294.4","1011.9169999999999","13.84","74.08","-0.5539999999999999","0.0"],
    [1411100,"2026-05-08 04:50:00","48685","1.669","273.4","2.907","290","1011.921","13.87","73.84","2.657","0.0"],
    [1411101,"2026-05-08 05:00:00","48686","0.7859999999999999","197.2","1.862","215.6","1011.98","13.97","73.41","7.999","0.0"],
    [1411102,"2026-05-08 05:10:00","48687","1.6740000000000002","272.8","2.744","281.4","1012.077","14.12","72.67","14.0","0.0"],
    [1411103,"2026-05-08 05:20:00","48688","1.504","277.7","2.548","288.5","1012.1469999999999","14.18","72.87","20.07","0.0"],
    [1411104,"2026-05-08 05:30:00","48689","1.176","283.8","1.96","286.2","1012.2769999999999","14.31","72.46","27.81","0.0"],
    [1411105,"2026-05-08 05:40:00","48690","1.25","282.8","1.993","284.1","1012.2919999999999","14.51","71.9","47.13","0.0"],
    [1411106,"2026-05-08 05:50:00","48691","0.888","289.2","1.927","296","1012.2639999999999","14.72","71.28","75.53","0.0"],
    [1411107,"2026-05-08 06:00:00","48692","1.506","286.1","2.385","296.2","1012.28","14.99","69.56","94.3","0.0"],
    [1411108,"2026-05-08 06:10:00","48693","1.476","285.9","2.221","290.6","1012.334","15.14","69.11","100.3","0.0"],
    [1411109,"2026-05-08 06:20:00","48694","0.977","265.9","2.091","290.8","1012.368","15.26","70.07","115.8","0.0"],
    [1411110,"2026-05-08 06:30:00","48695","1.5590000000000002","288.1","2.417","309.3","1012.3660000000001","15.36","70.16","123.0","0.0"],
    [1411111,"2026-05-08 06:40:00","48696","1.1909999999999998","268.8","1.927","283.8","1012.429","15.6","69.21","183.3","0.0"],
    [1411112,"2026-05-08 06:50:00","48697","1.5290000000000001","281.0","2.515","279.7","1012.4960000000001","16.06","67.92","294.5","0.0"],
    [1411113,"2026-05-08 07:00:00","48698","1.7990000000000002","287.9","2.352","299.7","1012.5980000000001","16.25","66.47","309.8","0.0"],
    [1411114,"2026-05-08 07:10:00","48699","1.4380000000000002","290.5","2.221","294.3","1012.668","16.62","65.46","380.6","0.0"],
    [1411115,"2026-05-08 07:20:00","48700","0.565","278.1","1.339","302.4","1012.825","17.36","64.43","415.9","0.0"],
    [1411116,"2026-05-08 07:30:00","48701","0.489","312.3","1.307","253.3","1012.91","18.19","61.77","412.5","0.0"],
    [1411117,"2026-05-08 07:40:00","48702","1.055","63.5","2.417","58.47","1012.908","18.43","64.71","398.3","0.0"],
    [1411118,"2026-05-08 07:50:00","48703","1.9969999999999999","70.78","3.528","87.7","1013.0110000000001","18.23","69.63","412.0","0.0"],
    [1411119,"2026-05-08 08:00:00","48704","2.093","65.27","2.973","94.3","1013.138","18.19","68.77","387.1","0.0"],
    [1411120,"2026-05-08 08:10:00","48705","2.386","80.9","3.332","74.15","1013.26","18.16","67.39","410.5","0.0"],
    [1411121,"2026-05-08 08:20:00","48706","2.3890000000000002","74.3","3.724","80.8","1013.393","18.36","66.93","439.2","0.0"],
    [1411122,"2026-05-08 08:30:00","48707","2.1630000000000003","68.08","3.267","58.17","1013.503","18.27","68.36","368.0","0.0"],
    [1411123,"2026-05-08 08:40:00","48708","1.954","76.63","3.887","111.6","1013.679","18.26","69.13","484.7","0.0"],
    [1411124,"2026-05-08 08:50:00","48709","1.527","88.6","3.953","92.9","1013.755","18.81","67.6","570.5","0.0"],
    [1411125,"2026-05-08 09:00:00","48710","1.804","77.31","3.234","67.9","1013.883","18.77","68.43","536.7","0.0"],
    [1411126,"2026-05-08 09:10:00","48711","1.761","88.4","3.397","79.78","1014.01","18.74","69.51","486.7","0.0"],
    [1411127,"2026-05-08 09:20:00","48712","2.2640000000000002","85.2","3.887","77.26","1014.0369999999999","18.8","69.6","621.3","0.0"],
    [1411128,"2026-05-08 09:30:00","48713","1.715","83.5","3.789","81.8","1014.0319999999999","19.22","69.94","815.0","0.0"],
    [1411129,"2026-05-08 09:40:00","48714","1.89","88.3","3.528","86.3","1014.066","19.84","67.04","849.0","0.0"],
    [1411130,"2026-05-08 09:50:00","48715","2.135","89.7","4.149","81.9","1014.202","19.33","68.85","623.6","0.0"],
    [1411131,"2026-05-08 10:00:00","48716","2.2319999999999998","85.2","4.345","110.3","1014.2639999999999","18.98","70.63","652.9","0.0"],
    [1411132,"2026-05-08 10:10:00","48717","2.7939999999999996","77.7","5.194","74.52","1014.105","18.97","71.24","634.2","0.0"],
    [1411133,"2026-05-08 10:20:00","48718","2.835","67.13","5.227","90.4","1013.99","19.01","70.34","581.0","0.0"],
    [1411134,"2026-05-08 10:30:00","48719","2.67","76.07","4.247","92.5","1013.916","18.92","70.99","434.5","0.0"],
    [1411135,"2026-05-08 10:40:00","48720","3.074","93.4","5.227","85.4","1013.8439999999999","18.63","67.62","449.9","0.0"],
    [1411136,"2026-05-08 10:50:00","48721","2.73","93.6","5.096","72.2","1013.845","18.72","64.64","427.9","0.0"],
    [1411137,"2026-05-08 11:00:00","48722","2.096","92.6","3.953","103","1013.952","19.01","64.15","465.8","0.0"],
    [1411138,"2026-05-08 11:10:00","48723","2.017","102.1","3.43","96.3","1013.8480000000001","18.99","63.39","455.1","0.0"],
    [1411139,"2026-05-08 11:20:00","48724","1.081","111.9","2.744","102.3","1013.975","19.16","62.4","399.4","0.0"],
    [1411140,"2026-05-08 11:30:00","48725","2.041","94.2","3.561","87.3","1013.94","19.35","62.95","467.3","0.0"],
    [1411141,"2026-05-08 11:40:00","48726","2.503","97.2","3.985","85.3","1014.0060000000001","18.99","65.77","400.9","0.0"],
    [1411142,"2026-05-08 11:50:00","48727","1.8230000000000002","99.7","3.43","85","1014.076","19.26","66.82","694.7","0.0"],
    [1411143,"2026-05-08 12:00:00","48728","1.725","116.0","3.593","100.3","1014.035","20.33","63.79","1051.0","0.0"],
    [1411144,"2026-05-08 12:10:00","48729","1.473","121.7","3.234","81.2","1013.9580000000001","20.39","63.07","1048.0","0.0"],
    [1411145,"2026-05-08 12:20:00","48730","1.876","124.5","3.953","105.7","1013.831","20.22","63.37","965.0","0.0"],
    [1411146,"2026-05-08 12:30:00","48731","2.439","91.2","4.312","102.3","1013.89","20.19","64.26","792.1","0.0"],
    [1411147,"2026-05-08 12:40:00","48732","3.045","79.39","4.802","79.51","1013.89","19.0","68.14","264.7","0.0"],
    [1411148,"2026-05-08 12:50:00","48733","2.316","100.7","4.9","76","1013.91","18.48","73.6","243.9","0.0"],
    [1411149,"2026-05-08 13:00:00","48734","1.402","98.9","3.005","110.2","1014.0269999999999","17.59","80.3","143.3","0.0"],
    [1411150,"2026-05-08 13:10:00","48735","1.899","83.7","2.973","99.4","1013.955","17.02","84.6","316.9","0.0"],
    [1411151,"2026-05-08 13:20:00","48736","2.048","50.82","5.357","92.8","1013.7710000000001","17.93","83.4","882.0","0.0"],
    [1411152,"2026-05-08 13:30:00","48737","2.423","82.3","4.573","96.7","1013.692","18.47","79.82","787.8","0.0"],
    [1411153,"2026-05-08 13:40:00","48738","2.511","92.2","3.92","82.3","1013.7760000000001","18.8","77.95","787.7","0.0"],
    [1411154,"2026-05-08 13:50:00","48739","2.9339999999999997","96.1","5.129","71.29","1013.673","18.81","76.11","886.0","0.0"],
    [1411155,"2026-05-08 14:00:00","48740","3.511","92.3","4.802","76.92","1013.561","18.8","74.21","650.6","0.0"],
    [1411156,"2026-05-08 14:10:00","48741","3.252","96.7","5.096","97.6","1013.44","18.58","72.98","326.5","0.0"],
    [1411157,"2026-05-08 14:20:00","48742","3.2089999999999996","95.8","4.965","84.9","1013.395","18.48","72.85","462.9","0.0"],
    [1411158,"2026-05-08 14:30:00","48743","2.986","99.0","4.704","88.4","1013.3","18.8","71.05","553.3","0.0"],
    [1411159,"2026-05-08 14:40:00","48744","2.867","97.9","4.606","87.7","1013.2289999999999","19.08","70.36","527.5","0.0"],
    [1411160,"2026-05-08 14:50:00","48745","2.5980000000000003","100.0","4.312","99.8","1013.308","18.77","69.54","566.2","0.0"],
    [1411161,"2026-05-08 15:00:00","48746","2.228","100.9","3.887","94.4","1013.437","19.25","67.42","669.6","0.0"],
    [1411162,"2026-05-08 15:10:00","48747","2.4459999999999997","101.1","4.573","99.2","1013.435","19.4","67.86","696.0","0.0"],
    [1411163,"2026-05-08 15:20:00","48748","1.694","117.3","4.704","110.7","1013.377","19.59","66.87","637.1","0.0"],
    [1411164,"2026-05-08 15:30:00","48749","1.8419999999999999","111.5","3.953","77.49","1013.312","19.59","65.66","612.8","0.0"],
    [1411165,"2026-05-08 15:40:00","48750","1.694","109.8","3.626","110.9","1013.25","19.71","65.21","569.7","0.0"],
    [1411166,"2026-05-08 15:50:00","48751","1.6740000000000002","111.2","3.593","137.2","1013.137","19.6","66.02","568.7","0.0"],
    [1411167,"2026-05-08 16:00:00","48752","1.5719999999999998","118.9","4.116","109.3","1013.115","19.91","64.84","549.6","0.0"],
    [1411168,"2026-05-08 16:10:00","48753","1.906","104.6","4.083","105.9","1012.9910000000001","19.56","64.56","501.8","0.0"],
    [1411169,"2026-05-08 16:20:00","48754","2.1719999999999997","114.7","4.214","124.3","1012.98","19.36","66.54","506.8","0.0"],
    [1411170,"2026-05-08 16:30:00","48755","1.6219999999999999","107.9","3.071","161.7","1013.048","19.46","66.81","372.7","0.0"],
    [1411171,"2026-05-08 16:40:00","48756","1.474","117.4","3.463","91.8","1013.066","18.86","68.47","242.1","0.0"],
    [1411172,"2026-05-08 16:50:00","48757","1.047","112.7","2.875","111.7","1013.166","18.82","67.24","195.1","0.0"],
    [1411173,"2026-05-08 17:00:00","48758","2.016","101.4","3.593","85.3","1013.189","18.95","68.46","272.7","0.0"],
    [1411174,"2026-05-08 17:10:00","48759","1.5419999999999998","109.1","3.659","169.5","1013.189","18.84","69.16","289.0","0.0"],
    [1411175,"2026-05-08 17:20:00","48760","1.6480000000000001","96.8","3.365","109.3","1013.247","19.04","68.16","256.2","0.0"],
    [1411176,"2026-05-08 17:30:00","48761","1.568","103.8","3.822","122","1013.26","18.65","69.27","125.2","0.0"],
    [1411177,"2026-05-08 17:40:00","48762","1.149","127.9","2.417","97.1","1013.255","18.25","70.85","93.0","0.0"],
    [1411178,"2026-05-08 17:50:00","48763","1.785","91.3","5.815","76.52","1013.232","18.23","70.26","138.4","0.0"],
    [1411179,"2026-05-08 18:00:00","48764","1.028","111.3","2.287","88.5","1013.198","18.35","69.36","120.2","0.0"],
    [1411180,"2026-05-08 18:10:00","48765","1.281","86.7","2.581","89.9","1013.203","18.44","69.69","91.8","0.0"],
    [1411181,"2026-05-08 18:20:00","48766","1.4580000000000002","76.36","3.071","83.5","1013.318","18.17","70.99","62.88","0.0"],
    [1411182,"2026-05-08 18:30:00","48767","1.176","74.81","1.764","72.86","1013.51","17.96","71.24","19.4","0.0"],
    [1411183,"2026-05-08 18:40:00","48768","0.9740000000000001","67.92","1.699","74.94","1013.6410000000001","17.78","70.88","12.33","0.0"],
    [1411184,"2026-05-08 18:50:00","48769","1.416","82.2","2.352","60.67","1013.679","17.77","70.56","8.78","0.0"],
    [1411185,"2026-05-08 19:00:00","48770","1.9380000000000002","93.2","3.561","84.2","1013.778","17.72","72.74","1.993","0.0"],
    [1411186,"2026-05-08 19:10:00","48771","1.956","84.8","5.39","97.5","1013.847","17.65","74.04","-1.2","0.0"],
    [1411187,"2026-05-08 19:20:00","48772","1.912","90.3","4.345","85.1","1013.934","17.56","75.09","-2.5869999999999997","0.0"],
    [1411188,"2026-05-08 19:30:00","48773","1.854","87.6","3.201","92.3","1014.065","17.43","76.08","-2.696","0.0"],
    [1411189,"2026-05-08 19:40:00","48774","2.048","81.8","3.626","80.7","1014.0930000000001","17.34","76.96","-2.708","0.0"],
    [1411190,"2026-05-08 19:50:00","48775","2.439","83.4","5.521","41.73","1014.118","17.31","77.84","-2.7","0.0"],
    [1411191,"2026-05-08 20:00:00","48776","2.4219999999999997","79.85","3.593","85.4","1014.2139999999999","17.37","78.48","-2.694","0.0"],
    [1411192,"2026-05-08 20:10:00","48777","2.483","81.3","4.149","79.66","1014.342","17.37","79.2","-2.698","0.0"],
    [1411193,"2026-05-08 20:20:00","48778","1.895","91.2","2.907","78.95","1014.485","17.38","79.45","-2.694","0.0"],
    [1411194,"2026-05-08 20:30:00","48779","1.869","92.7","3.267","88.8","1014.585","17.37","79.62","-2.698","0.0"],
    [1411195,"2026-05-08 20:40:00","48780","1.899","97.7","3.201","94.3","1014.648","17.37","79.4","-2.694","0.0"],
    [1411196,"2026-05-08 20:50:00","48781","2.066","89.5","3.495","111.9","1014.701","17.38","79.68","-2.694","0.0"],
    [1411197,"2026-05-08 21:00:00","48782","1.494","90.2","2.581","90.2","1014.785","17.27","80.0","-2.695","0.0"],
    [1411198,"2026-05-08 21:10:00","48783","1.7269999999999999","84.4","2.875","81.1","1014.775","17.14","81.1","-2.694","0.0"],
    [1411199,"2026-05-08 21:20:00","48784","1.976","85.1","3.038","90","1014.8530000000001","17.16","81.0","-2.6839999999999997","0.0"],
    [1411200,"2026-05-08 21:30:00","48785","2.099","87.8","3.43","83.2","1014.793","17.35","80.9","-1.5490000000000002","0.0"],
    [1411201,"2026-05-08 21:40:00","48786","2.381","88.4","3.43","96.3","1014.669","17.58","79.3","-1.115","0.0"],
    [1411202,"2026-05-08 21:50:00","48787","2.228","82.7","3.43","77.34","1014.645","17.73","79.7","-1.022","0.0"],
    [1411203,"2026-05-08 22:00:00","48788","2.229","88.4","3.495","94.4","1014.675","17.72","79.77","-0.95","0.0"],
    [1411204,"2026-05-08 22:10:00","48789","2.843","84.0","4.149","89","1014.683","17.73","79.88","-1.011","0.0"],
    [1411205,"2026-05-08 22:20:00","48790","2.5140000000000002","85.7","3.985","85.5","1014.697","17.73","79.43","-1.19","0.0"],
    [1411206,"2026-05-08 22:30:00","48791","2.1","91.4","3.561","96","1014.688","17.7","78.72","-1.199","0.0"],
    [1411207,"2026-05-08 22:40:00","48792","2.123","96.8","3.593","94.7","1014.637","17.7","78.12","-1.194","0.0"],
    [1411208,"2026-05-08 22:50:00","48793","2.185","94.4","3.43","101.1","1014.551","17.75","76.9","-1.167","0.0"],
    [1411209,"2026-05-08 23:00:00","48794","2.0580000000000003","93.3","3.005","106","1014.513","17.82","76.23","-1.16","0.0"],
    [1411210,"2026-05-08 23:10:00","48795","2.261","91.3","3.299","86.8","1014.436","17.82","76.46","-1.1540000000000001","0.0"],
    [1411211,"2026-05-08 23:20:00","48796","2.521","82.5","3.528","76.06","1014.448","17.77","76.7","-1.176","0.0"],
    [1411212,"2026-05-08 23:30:00","48797","2.3040000000000003","77.43","3.365","77.43","1014.451","17.78","77.56","-1.169","0.0"],
    [1411213,"2026-05-08 23:40:00","48798","2.148","74.65","3.038","72.05","1014.45","17.72","77.76","-1.192","0.0"],
    [1411214,"2026-05-08 23:50:00","48799","1.7590000000000001","71.14","2.417","76.6","1014.367","17.68","78.68","-1.375","0.0"],
    [1411215,"2026-05-09 00:00:00","48800","1.75","81.0","2.483","87","1014.299","17.68","80.1","-1.795","0.0"],
    [1411216,"2026-05-09 00:10:00","48801","1.8940000000000001","80.3","3.332","59.45","1014.221","17.61","84.3","-1.175","0.0"],
    [1411217,"2026-05-09 00:20:00","48802","2.347","82.8","4.083","77.86","1014.221","17.5","85.3","-0.622","0.0"],
    [1411218,"2026-05-09 00:30:00","48803","2.385","71.17","3.234","74.09","1014.2439999999999","17.41","85.6","-1.117","0.0"],
    [1411219,"2026-05-09 00:40:00","48804","2.12","83.2","3.201","76.2","1014.211","17.38","85.5","-0.767","0.0"],
    [1411220,"2026-05-09 00:50:00","48805","2.197","95.7","4.116","97.9","1014.184","17.5","83.8","-0.435","0.0"],
    [1411221,"2026-05-09 01:00:00","48806","2.14","104.5","3.43","105.2","1014.0369999999999","17.51","82.8","-0.361","0.0"],
    [1411222,"2026-05-09 01:10:00","48807","1.889","101.3","3.397","83.7","1013.908","17.49","82.0","-0.45399999999999996","0.0"],
    [1411223,"2026-05-09 01:20:00","48808","1.973","102.6","3.985","90.2","1013.946","17.56","81.2","-0.449","0.0"],
    [1411224,"2026-05-09 01:30:00","48809","1.8969999999999998","101.2","3.397","106.8","1013.812","17.61","80.9","-0.46","0.0"],
    [1411225,"2026-05-09 01:40:00","48810","2.207","87.6","3.201","84.5","1013.5880000000001","17.57","81.4","-1.187","0.0"],
    [1411226,"2026-05-09 01:50:00","48811","1.7480000000000002","87.8","3.103","66.26","1013.505","17.4","82.2","-1.8","0.0"],
    [1411227,"2026-05-09 02:00:00","48812","2.1590000000000003","79.52","3.201","89.9","1013.459","17.33","83.0","-1.696","0.0"],
    [1411228,"2026-05-09 02:10:00","48813","2.319","74.13","3.169","78.07","1013.305","17.26","83.5","-1.205","0.0"],
    [1411229,"2026-05-09 02:20:00","48814","2.311","73.08","3.659","77.02","1013.273","17.35","83.6","-1.189","0.0"],
    [1411230,"2026-05-09 02:30:00","48815","2.426","59.28","3.234","61.64","1013.1139999999999","17.42","83.6","-1.024","0.0"],
    [1411231,"2026-05-09 02:40:00","48816","2.464","66.52","3.953","53.06","1013.11","17.47","83.6","-1.1640000000000001","0.0"],
    [1411232,"2026-05-09 02:50:00","48817","2.251","66.42","3.397","62.43","1013.1210000000001","17.47","83.9","-1.188","0.0"],
    [1411233,"2026-05-09 03:00:00","48818","2.14","61.48","3.299","75.26","1013.1510000000001","17.38","83.7","-1.171","0.0"],
    [1411234,"2026-05-09 03:10:00","48819","2.004","73.74","4.051","82.4","1013.194","17.42","83.7","-0.948","0.0"],
    [1411235,"2026-05-09 03:20:00","48820","2.7769999999999997","80.3","4.149","91.1","1013.0830000000001","17.44","83.3","-1.199","0.0"],
    [1411236,"2026-05-09 03:30:00","48821","2.733","84.6","4.116","91.7","1013.0830000000001","17.43","84.1","-1.195","0.0"],
    [1411237,"2026-05-09 03:40:00","48822","2.221","90.9","3.626","84.1","1012.982","17.34","83.4","-1.195","0.0"],
    [1411238,"2026-05-09 03:50:00","48823","2.228","88.0","3.789","94.7","1012.921","17.43","83.9","-1.2","0.0"],
    [1411239,"2026-05-09 04:00:00","48824","2.6","94.3","4.116","81.4","1012.9639999999999","17.44","82.7","-1.1640000000000001","0.0"],
    [1411240,"2026-05-09 04:10:00","48825","2.532","98.0","3.953","96.4","1012.993","17.49","82.1","-1.148","0.0"],
    [1411241,"2026-05-09 04:20:00","48826","2.384","88.6","3.561","79.77","1012.8910000000001","17.5","82.5","-1.19","0.0"],
    [1411242,"2026-05-09 04:30:00","48827","2.315","85.3","3.887","78.06","1012.941","17.38","83.3","-0.763","0.0"],
    [1411243,"2026-05-09 04:40:00","48828","2.687","86.2","3.92","85.1","1012.8330000000001","17.43","83.4","0.431","0.0"],
    [1411244,"2026-05-09 04:50:00","48829","2.403","93.7","4.051","101.5","1012.882","17.43","83.2","2.4730000000000003","0.0"],
    [1411245,"2026-05-09 05:00:00","48830","2.698","77.69","4.214","65.74","1012.672","17.39","83.8","9.41","0.0"],
    [1411246,"2026-05-09 05:10:00","48831","2.531","73.41","3.953","71.67","1012.699","17.22","83.9","16.99","0.0"],
    [1411247,"2026-05-09 05:20:00","48832","3.214","67.09","6.305","73.67","1012.557","17.27","83.8","29.04","0.0"],
    [1411248,"2026-05-09 05:30:00","48833","2.9210000000000003","60.65","4.181","60.11","1012.546","17.38","83.7","34.9","0.0"],
    [1411249,"2026-05-09 05:40:00","48834","2.54","55.85","3.822","45.91","1012.635","17.49","83.9","32.22","0.0"],
    [1411250,"2026-05-09 05:50:00","48835","2.883","70.73","3.92","68.65","1012.717","17.53","85.0","34.02","0.0"],
    [1411251,"2026-05-09 06:00:00","48836","2.787","70.21","4.214","72.67","1012.7539999999999","17.52","84.9","46.33","0.0"],
    [1411252,"2026-05-09 06:10:00","48837","3.051","69.19","4.769","80.5","1012.7289999999999","17.56","82.9","80.9","0.0"],
    [1411253,"2026-05-09 06:20:00","48838","3.1719999999999997","71.64","4.769","61.03","1012.71","17.68","81.4","96.5","0.0"],
    [1411254,"2026-05-09 06:30:00","48839","3.642","78.33","5.227","65.6","1012.75","17.85","80.3","118.2","0.0"],
    [1411255,"2026-05-09 06:40:00","48840","3.383","79.06","5.194","68.74","1012.7810000000001","18.09","79.93","169.0","0.0"],
    [1411256,"2026-05-09 06:50:00","48841","4.044","78.71","5.357","80","1012.701","18.21","78.56","206.7","0.0"],
    [1411257,"2026-05-09 07:00:00","48842","4.217","73.63","5.521","66.9","1012.63","18.19","78.34","240.1","0.0"],
    [1411258,"2026-05-09 07:10:00","48843","3.841","72.69","5.684","76.09","1012.582","18.5","77.44","295.8","0.0"],
    [1411259,"2026-05-09 07:20:00","48844","4.143","68.3","6.174","81.6","1012.383","18.57","75.71","323.6","0.0"],
    [1411260,"2026-05-09 07:30:00","48845","4.555","72.29","5.945","73.8","1012.2610000000001","18.57","75.64","261.1","0.0"],
    [1411261,"2026-05-09 07:40:00","48846","4.605","76.96","6.305","81.1","1012.2080000000001","18.56","76.29","259.6","0.0"],
    [1411262,"2026-05-09 07:50:00","48847","4.493","69.35","6.272","62.51","1012.1560000000001","18.74","76.4","343.1","0.0"],
    [1411263,"2026-05-09 08:00:00","48848","5.336","72.74","7.121","69.92","1012.041","18.7","76.13","295.4","0.0"],
    [1411264,"2026-05-09 08:10:00","48849","5.242000000000001","71.32","7.84","76.68","1011.919","18.65","77.35","285.2","0.0"],
    [1411265,"2026-05-09 08:20:00","48850","6.093999999999999","73.37","8.23","75.55","1011.9680000000001","18.69","77.35","340.9","0.0"],
    [1411266,"2026-05-09 08:30:00","48851","5.532","67.33","7.775","74.81","1011.883","18.67","77.27","360.6","0.0"],
    [1411267,"2026-05-09 08:40:00","48852","5.199","65.46","8.23","76.2","1011.9830000000001","18.83","76.49","404.6","0.0"],
    [1411268,"2026-05-09 08:50:00","48853","5.2860000000000005","58.68","7.383","49.13","1012.132","19.0","76.49","438.1","0.0"],
    [1411269,"2026-05-09 09:00:00","48854","5.689","53.11","8.33","48.88","1012.18","18.9","78.45","542.4","0.0"],
    [1411270,"2026-05-09 09:10:00","48855","5.723","54.46","7.709","48.27","1012.36","19.01","78.12","478.2","0.0"],
    [1411271,"2026-05-09 09:20:00","48856","5.206","49.22","7.677","41.31","1012.446","18.92","77.84","426.4","0.0"],
    [1411272,"2026-05-09 09:30:00","48857","5.352","52.76","7.579","46.75","1012.477","18.77","77.8","380.2","0.0"],
    [1411273,"2026-05-09 09:40:00","48858","4.971","56.04","7.35","54.92","1012.6160000000001","18.79","77.55","346.1","0.0"],
    [1411274,"2026-05-09 09:50:00","48859","5.352","54.95","7.611","62.3","1012.925","18.78","76.69","326.4","0.0"],
    [1411275,"2026-05-09 10:00:00","48860","4.856","61.63","7.187","58.08","1012.9889999999999","18.77","77.75","311.6","0.0"],
    [1411276,"2026-05-09 10:10:00","48861","4.9239999999999995","72.08","6.697","74.79","1013.173","18.83","77.65","363.1","0.0"],
    [1411277,"2026-05-09 10:20:00","48862","4.692","75.01","6.403","74.84","1013.306","19.02","77.09","333.3","0.0"],
    [1411278,"2026-05-09 10:30:00","48863","5.026","75.19","7.677","74.5","1013.1510000000001","19.18","74.64","485.3","0.0"],
    [1411279,"2026-05-09 10:40:00","48864","5.3020000000000005","69.21","7.187","74.86","1012.951","19.24","73.68","336.5","0.0"],
    [1411280,"2026-05-09 10:50:00","48865","4.754","61.07","6.827","64.78","1012.798","18.94","75.36","218.5","0.0"],
    [1411281,"2026-05-09 11:00:00","48866","4.325","57.32","7.415","54.94","1012.8560000000001","18.69","77.07","126.2","0.0"],
    [1411282,"2026-05-09 11:10:00","48867","4.7589999999999995","65.72","7.742","71.61","1013.092","18.58","76.95","170.1","0.0"],
    [1411283,"2026-05-09 11:20:00","48868","5.5089999999999995","63.33","8.17","61.28","1013.102","18.46","78.23","168.6","0.0"],
    [1411284,"2026-05-09 11:30:00","48869","4.574","51.04","7.383","45.36","1012.952","18.05","78.34","165.7","0.0"],
    [1411285,"2026-05-09 11:40:00","48870","3.7760000000000002","49.83","6.533","47.12","1012.793","18.06","77.6","171.5","0.0"],
    [1411286,"2026-05-09 11:50:00","48871","4.129","46.71","6.272","49.22","1012.455","18.26","78.43","148.8","0.0"],
    [1411287,"2026-05-09 12:00:00","48872","5.067","48.17","7.938","56.41","1011.847","18.33","77.71","126.5","0.0"],
    [1411288,"2026-05-09 12:10:00","48873","5.251","52.1","8.2","54.86","1011.564","18.2","77.59","103.9","0.0"],
    [1411289,"2026-05-09 12:20:00","48874","5.511","53.26","8.46","37.79","1011.1610000000001","18.16","78.07","106.0","0.0"],
    [1411290,"2026-05-09 12:30:00","48875","6.5760000000000005","53.1","9.9","49.51","1010.727","18.11","77.96","110.3","0.0"],
    [1411291,"2026-05-09 12:40:00","48876","5.981","48.69","9.28","58.51","1010.29","18.04","77.11","92.9","0.0"],
    [1411292,"2026-05-09 12:50:00","48877","5.91","45.25","8.82","39.11","1010.209","18.02","78.29","68.52","0.0"],
    [1411293,"2026-05-09 13:00:00","48878","4.723","51.95","8.43","45.94","1011.11","17.73","80.6","38.49","0.0"],
    [1411294,"2026-05-09 13:10:00","48879","3.135","53.31","5.586","53.91","1011.961","17.58","83.0","30.66","0.0"],
    [1411295,"2026-05-09 13:20:00","48880","2.965","57.05","4.737","69.84","1012.253","17.4","84.4","30.02","0.0"],
    [1411296,"2026-05-09 13:30:00","48881","3.603","68.0","5.488","69.74","1012.535","17.12","87.6","31.42","0.0"],
    [1411297,"2026-05-09 13:40:00","48882","3.763","71.32","5.194","74.47","1012.5210000000001","16.16","90.7","25.29","0.0"],
    [1411298,"2026-05-09 13:50:00","48883","4.362","69.7","6.729","67.57","1012.132","16.2","93.1","14.46","0.0"],
    [1411299,"2026-05-09 14:00:00","48884","6.149","75.57","9.83","66.91","1011.675","16.03","92.8","11.66","0.0"],
    [1411300,"2026-05-09 14:10:00","48885","7.486000000000001","71.5","10.42","75.2","1010.9939999999999","16.11","91.3","11.44","0.0"],
    [1411301,"2026-05-09 14:20:00","48886","8.11","61.84","11.11","67.97","1009.9010000000001","16.36","90.5","18.35","0.0"],
    [1411302,"2026-05-09 14:30:00","48887","7.972","48.64","12.09","37.55","1009.06","16.26","90.3","40.9","0.0"],
    [1411303,"2026-05-09 14:40:00","48888","7.882000000000001","50.55","11.92","59.46","1008.868","16.2","88.2","41.36","0.0"],
    [1411304,"2026-05-09 14:50:00","48889","6.8389999999999995","37.61","10.39","42.34","1008.702","16.1","86.2","50.66","0.0"],
    [1411305,"2026-05-09 15:00:00","48890","5.284","57.22","9.51","42.37","1009.8860000000001","16.38","86.7","38.4","0.0"],
    [1411306,"2026-05-09 15:10:00","48891","4.052","78.46","6.795","79.24","1011.692","16.48","87.8","36.38","0.0"],
    [1411307,"2026-05-09 15:20:00","48892","3.42","83.5","6.141","87.3","1012.183","16.47","86.6","42.57","0.0"],
    [1411308,"2026-05-09 15:30:00","48893","2.9330000000000003","77.5","4.573","79.05","1012.4780000000001","15.94","84.4","28.27","0.0"],
    [1411309,"2026-05-09 15:40:00","48894","2.755","75.08","4.508","78.43","1012.4830000000001","15.8","87.2","12.0","0.0"],
    [1411310,"2026-05-09 15:50:00","48895","3.7680000000000002","68.79","5.227","72.38","1012.4689999999999","15.67","88.5","8.78","0.0"],
    [1411311,"2026-05-09 16:00:00","48896","2.9419999999999997","65.8","4.475","71.7","1012.2489999999999","14.97","90.3","7.497000000000001","0.0"],
    [1411312,"2026-05-09 16:10:00","48897","3.408","59.99","4.933","53.97","1011.831","14.46","94.3","6.928","0.0"],
    [1411313,"2026-05-09 16:20:00","48898","3.0460000000000003","48.26","5.096","42.08","1011.5239999999999","14.31","95.3","7.919","0.0"],
    [1411314,"2026-05-09 16:30:00","48899","3.102","34.01","5.129","32.12","1011.043","14.16","95.2","10.36","0.0"],
    [1411315,"2026-05-09 16:40:00","48900","3.8510000000000004","34.48","7.677","31.15","1010.3889999999999","14.22","95.2","11.66","0.0"],
    [1411316,"2026-05-09 16:50:00","48901","5.0","33.0","7.971","14.59","1009.809","14.21","94.7","10.33","0.0"],
    [1411317,"2026-05-09 17:00:00","48902","4.1610000000000005","33.97","6.795","35.2","1009.9780000000001","14.42","93.2","12.87","0.0"],
    [1411318,"2026-05-09 17:10:00","48903","3.2739999999999996","41.65","5.227","29.97","1009.696","14.71","92.0","14.48","0.0"],
    [1411319,"2026-05-09 17:20:00","48904","3.978","41.29","6.566","45.98","1009.8960000000001","14.81","91.3","15.65","0.0"],
    [1411320,"2026-05-09 17:30:00","48905","3.9819999999999998","41.1","6.566","42.48","1009.8989999999999","14.95","90.5","15.65","0.0"],
    [1411321,"2026-05-09 17:40:00","48906","3.373","48.52","5.096","56.8","1009.92","15.07","90.2","18.79","0.0"],
    [1411322,"2026-05-09 17:50:00","48907","3.522","46.76","5.717","52.74","1009.8330000000001","15.06","89.5","22.24","0.0"],
    [1411323,"2026-05-09 18:00:00","48908","2.8080000000000003","43.33","4.279","30.97","1009.91","15.11","89.0","22.04","0.0"],
    [1411324,"2026-05-09 18:10:00","48909","2.7689999999999997","44.14","4.606","48.19","1010.059","15.18","88.4","23.36","0.0"],
    [1411325,"2026-05-09 18:20:00","48910","2.213","43.77","4.345","52","1010.23","15.27","87.6","21.47","0.0"],
    [1411326,"2026-05-09 18:30:00","48911","1.315","35.62","2.254","52.29","1010.33","15.36","86.9","17.69","0.0"],
    [1411327,"2026-05-09 18:40:00","48912","1.069","46.57","1.535","36.91","1010.426","15.41","86.8","9.88","0.0"],
    [1411328,"2026-05-09 18:50:00","48913","0.08199999999999999","66.97","0.947","64.44","1010.6489999999999","15.37","86.9","4.626","0.0"],
    [1411329,"2026-05-09 19:00:00","48914","0.0","0.0","0","0","1010.934","15.43","87.8","2.5669999999999997","0.0"],
    [1411330,"2026-05-09 19:10:00","48915","0.001","49.29","0.033","49.29","1011.012","15.39","87.5","0.402","0.0"],
    [1411331,"2026-05-09 19:20:00","48916","0.0","0.0","0","0","1011.1260000000001","15.42","86.7","-0.293","0.0"],
    [1411332,"2026-05-09 19:30:00","48917","0.753","299.8","1.405","311.4","1011.23","15.53","88.0","-0.8140000000000001","0.0"],
    [1411333,"2026-05-09 19:40:00","48918","0.33","288.8","1.241","285.4","1011.325","15.31","89.7","-1.213","0.0"],
    [1411334,"2026-05-09 19:50:00","48919","0.653","264.8","1.143","260.7","1011.493","15.21","90.0","-1.156","0.0"],
    [1411335,"2026-05-09 20:00:00","48920","0.498","266.3","1.045","264.9","1011.5939999999999","15.24","89.7","-1.158","0.0"],
    [1411336,"2026-05-09 20:10:00","48921","0.46799999999999997","273.1","1.209","278.3","1011.8","15.25","89.5","-1.216","0.0"],
    [1411337,"2026-05-09 20:20:00","48922","0.629","271.8","1.666","274.8","1011.9689999999999","15.18","90.1","-1.214","0.0"],
    [1411338,"2026-05-09 20:30:00","48923","1.318","283.8","2.319","257.5","1012.177","15.14","89.8","-0.701","0.0"],
    [1411339,"2026-05-09 20:40:00","48924","1.002","285.0","2.221","290","1012.328","15.15","89.6","-0.669","0.0"],
    [1411340,"2026-05-09 20:50:00","48925","1.364","289.7","2.352","279.3","1012.4910000000001","15.06","90.2","-1.219","0.0"],
    [1411341,"2026-05-09 21:00:00","48926","1.264","282.9","2.025","283.9","1012.643","15.12","90.4","-1.2209999999999999","0.0"],
    [1411342,"2026-05-09 21:10:00","48927","1.1740000000000002","283.0","1.764","271.6","1012.596","15.13","90.8","-1.2209999999999999","0.0"],
    [1411343,"2026-05-09 21:20:00","48928","0.812","264.0","1.829","247","1012.551","15.05","91.1","-1.425","0.0"],
    [1411344,"2026-05-09 21:30:00","48929","0.49","255.1","1.601","261.1","1012.597","15.02","91.0","-1.953","0.0"],
    [1411345,"2026-05-09 21:40:00","48930","0.9209999999999999","260.1","2.058","277.7","1012.7180000000001","14.97","91.2","-1.984","0.0"],
    [1411346,"2026-05-09 21:50:00","48931","1.262","273.4","2.123","281.8","1012.76","14.95","91.3","-1.972","0.0"],
    [1411347,"2026-05-09 22:00:00","48932","1.111","272.3","2.156","253.8","1012.808","14.9","91.5","-1.945","0.0"],
    [1411348,"2026-05-09 22:10:00","48933","0.966","262.8","2.123","265.4","1012.783","14.9","91.6","-1.903","0.0"],
    [1411349,"2026-05-09 22:20:00","48934","1.0590000000000002","263.7","2.319","276.4","1012.7239999999999","14.85","91.7","-1.99","0.0"],
    [1411350,"2026-05-09 22:30:00","48935","1.217","270.4","2.189","276.6","1012.643","14.76","91.6","-1.9780000000000002","0.0"],
    [1411351,"2026-05-09 22:40:00","48936","1.179","271.4","2.254","276.9","1012.679","14.51","92.0","-2.127","0.0"],
    [1411352,"2026-05-09 22:50:00","48937","0.951","270.6","1.829","270.6","1012.7139999999999","14.45","92.2","-2.013","0.0"],
    [1411353,"2026-05-09 23:00:00","48938","1.051","244.2","1.764","241.9","1012.84","14.35","92.7","-2.359","0.0"],
    [1411354,"2026-05-09 23:10:00","48939","1.422","260.2","3.495","261.2","1012.8969999999999","14.45","92.5","-2.0469999999999997","0.0"],
    [1411355,"2026-05-09 23:20:00","48940","1.77","284.9","2.875","288","1012.863","14.26","92.6","-1.966","0.0"],
    [1411356,"2026-05-09 23:30:00","48941","1.528","271.7","2.744","288.7","1012.7760000000001","14.08","93.1","-1.995","0.0"],
    [1411357,"2026-05-09 23:40:00","48942","1.3159999999999998","276.5","2.287","268.8","1012.697","14.03","93.0","-1.984","0.0"],
    [1411358,"2026-05-09 23:50:00","48943","1.026","265.4","2.058","274.1","1012.628","13.95","93.0","-2.029","0.0"],
    [1411359,"2026-05-10 00:00:00","48944","0.564","272.6","1.568","287.9","1012.5089999999999","13.88","92.9","-2.177","0.0"],
    [1411360,"2026-05-10 00:10:00","48945","0.581","300.4","1.013","304.4","1012.2769999999999","13.73","92.9","-2.204","0.0"],
    [1411361,"2026-05-10 00:20:00","48946","0.648","303.5","1.111","306.3","1012.097","13.63","93.2","-2.208","0.0"],
    [1411362,"2026-05-10 00:30:00","48947","0.747","311.3","1.209","321.9","1012.043","13.52","93.3","-2.169","0.0"],
    [1411363,"2026-05-10 00:40:00","48948","0.6659999999999999","318.8","0.98","323.5","1011.919","13.39","93.6","-2.188","0.0"],
    [1411364,"2026-05-10 00:50:00","48949","0.875","307.0","1.372","300","1011.78","13.41","93.9","-2.222","0.0"],
    [1411365,"2026-05-10 01:00:00","48950","0.866","280.1","1.437","292.1","1011.7410000000001","13.48","93.9","-2.108","0.0"],
    [1411366,"2026-05-10 01:10:00","48951","1.0490000000000002","268.0","2.123","264.5","1011.737","13.42","93.6","-2.032","0.0"],
    [1411367,"2026-05-10 01:20:00","48952","1.067","267.9","2.025","279.2","1011.74","13.41","93.5","-2.013","0.0"],
    [1411368,"2026-05-10 01:30:00","48953","1.055","270.4","1.927","275.3","1011.72","13.37","93.1","-2.064","0.0"],
    [1411369,"2026-05-10 01:40:00","48954","1.222","242.4","2.581","301.1","1011.7739999999999","13.37","92.9","-2.073","0.0"],
    [1411370,"2026-05-10 01:50:00","48955","1.169","239.9","2.613","280.9","1011.8539999999999","13.44","92.0","-2.193","0.0"],
    [1411371,"2026-05-10 02:00:00","48956","1.735","231.9","3.365","236.6","1011.945","13.27","91.9","-2.033","0.0"],
    [1411372,"2026-05-10 02:10:00","48957","1.625","263.9","3.267","294.7","1012.01","13.14","92.2","-2.061","0.0"],
    [1411373,"2026-05-10 02:20:00","48958","1.504","268.5","3.267","295.8","1012.06","12.96","92.5","-2.0269999999999997","0.0"],
    [1411374,"2026-05-10 02:30:00","48959","1.54","279.7","2.809","273.9","1011.9939999999999","12.9","92.6","-2.032","0.0"],
    [1411375,"2026-05-10 02:40:00","48960","1.23","271.8","2.45","269.7","1011.926","12.79","92.7","-2.0909999999999997","0.0"],
    [1411376,"2026-05-10 02:50:00","48961","1.166","277.5","2.156","286.6","1011.808","12.64","92.8","-2.316","0.0"],
    [1411377,"2026-05-10 03:00:00","48962","0.934","270.9","2.189","278.5","1011.709","12.62","92.9","-2.128","0.0"],
    [1411378,"2026-05-10 03:10:00","48963","0.8140000000000001","288.6","1.601","293.6","1011.6469999999999","12.54","92.8","-2.073","0.0"],
    [1411379,"2026-05-10 03:20:00","48964","1.078","264.1","2.483","275.7","1011.618","12.45","92.9","-2.392","0.0"],
    [1411380,"2026-05-10 03:30:00","48965","1.319","280.0","2.287","268.8","1011.564","12.55","92.7","-2.1959999999999997","0.0"],
    [1411381,"2026-05-10 03:40:00","48966","1.2770000000000001","276.6","2.548","271.4","1011.6410000000001","12.33","92.7","-2.074","0.0"],
    [1411382,"2026-05-10 03:50:00","48967","1.445","279.3","2.646","288.1","1011.628","12.3","92.7","-2.249","0.0"],
    [1411383,"2026-05-10 04:00:00","48968","1.229","274.2","2.679","282.9","1011.605","12.42","92.3","-2.396","0.0"],
    [1411384,"2026-05-10 04:10:00","48969","1.3769999999999998","275.1","2.548","263.4","1011.648","12.35","92.0","-2.096","0.0"],
    [1411385,"2026-05-10 04:20:00","48970","1.431","268.9","2.548","273.3","1011.7180000000001","12.21","92.2","-2.029","0.0"],
    [1411386,"2026-05-10 04:30:00","48971","1.554","295.8","2.385","306.2","1011.673","12.08","91.8","-1.3090000000000002","0.0"],
    [1411387,"2026-05-10 04:40:00","48972","1.392","297.4","2.613","296","1011.677","11.9","92.4","1.28","0.0"],
    [1411388,"2026-05-10 04:50:00","48973","0.466","292.2","1.307","276.8","1011.613","11.94","92.5","6.745","0.0"],
    [1411389,"2026-05-10 05:00:00","48974","0.9590000000000001","296.1","1.633","296.2","1011.548","12.01","92.7","19.75","0.0"],
    [1411390,"2026-05-10 05:10:00","48975","0.757","303.2","1.535","316.2","1011.51","12.16","92.6","33.03","0.0"],
    [1411391,"2026-05-10 05:20:00","48976","0.618","272.4","1.666","271.6","1011.475","12.42","92.3","60.04","0.0"],
    [1411392,"2026-05-10 05:30:00","48977","0.535","248.8","1.568","241.8","1011.512","12.81","91.3","83.8","0.0"],
    [1411393,"2026-05-10 05:40:00","48978","0.484","278.0","1.372","290.2","1011.55","13.24","90.3","108.1","0.0"],
    [1411394,"2026-05-10 05:50:00","48979","0.529","281.7","1.601","290.9","1011.5219999999999","13.51","89.4","130.9","0.0"],
    [1411395,"2026-05-10 06:00:00","48980","1.224","280.1","2.483","298.6","1011.512","13.96","88.4","160.4","0.0"],
    [1411396,"2026-05-10 06:10:00","48981","1.42","265.8","2.581","281.2","1011.561","14.39","86.7","200.3","0.0"],
    [1411397,"2026-05-10 06:20:00","48982","1.55","266.6","2.809","290.9","1011.5880000000001","14.66","85.3","249.3","0.0"],
    [1411398,"2026-05-10 06:30:00","48983","1.355","258.0","2.679","260.6","1011.6419999999999","15.0","84.3","286.0","0.0"],
    [1411399,"2026-05-10 06:40:00","48984","1.6469999999999998","253.0","3.43","279.6","1011.6410000000001","15.62","83.5","308.9","0.0"],
    [1411400,"2026-05-10 06:50:00","48985","1.7169999999999999","260.4","3.201","262","1011.675","15.84","83.3","339.0","0.0"],
    [1411401,"2026-05-10 07:00:00","48986","1.676","246.3","3.136","286.1","1011.709","16.4","82.7","370.6","0.0"],
    [1411402,"2026-05-10 07:10:00","48987","2.07","269.0","3.626","266.2","1011.71","16.73","81.0","416.9","0.0"],
    [1411403,"2026-05-10 07:20:00","48988","2.029","264.5","3.855","286.9","1011.737","16.91","79.99","412.7","0.0"],
    [1411404,"2026-05-10 07:30:00","48989","2.786","276.5","4.247","294.3","1011.7610000000001","16.97","79.27","372.3","0.0"],
    [1411405,"2026-05-10 07:40:00","48990","2.68","239.0","5.684","261.7","1011.7860000000001","17.5","78.71","480.3","0.0"],
    [1411406,"2026-05-10 07:50:00","48991","5.01","224.9","7.579","232","1011.85","18.26","75.6","561.7","0.0"],
    [1411407,"2026-05-10 08:00:00","48992","5.266","224.5","8.36","215.4","1011.9780000000001","18.32","75.45","564.8","0.0"],
    [1411408,"2026-05-10 08:10:00","48993","5.287999999999999","222.1","9.28","215.9","1012.048","18.64","74.98","603.5","0.0"],
    [1411409,"2026-05-10 08:20:00","48994","5.149","224.6","9.41","222.8","1012.076","18.59","73.89","621.0","0.0"],
    [1411410,"2026-05-10 08:30:00","48995","4.952","225.1","8.62","223.3","1012.0310000000001","18.76","74.01","542.6","0.0"],
    [1411411,"2026-05-10 08:40:00","48996","6.156000000000001","224.7","10.58","215.7","1012.002","18.8","72.69","700.2","0.0"],
    [1411412,"2026-05-10 08:50:00","48997","5.445","225.8","8.89","218.4","1012.049","19.09","71.83","726.5","0.0"],
    [1411413,"2026-05-10 09:00:00","48998","5.109","224.6","7.677","220.2","1012.105","19.28","71.44","753.8","0.0"],
    [1411414,"2026-05-10 09:10:00","48999","4.9910000000000005","219.0","8.2","212.7","1012.092","19.87","70.95","768.5","0.0"],
    [1411415,"2026-05-10 09:20:00","49000","5.46","216.1","8.04","204.1","1012.057","19.79","72.18","796.3","0.0"],
    [1411416,"2026-05-10 09:30:00","49001","6.3389999999999995","219.5","9.67","215.9","1012.0239999999999","19.85","71.07","817.0","0.0"],
    [1411417,"2026-05-10 09:40:00","49002","5.859","225.3","9.93","209.7","1012.0169999999999","19.92","69.44","840.0","0.0"],
    [1411418,"2026-05-10 09:50:00","49003","6.447","216.2","9.8","211.3","1011.99","20.14","70.07","864.0","0.0"],
    [1411419,"2026-05-10 10:00:00","49004","6.98","216.4","10.45","205.4","1012.0210000000001","20.18","69.74","891.0","0.0"],
    [1411420,"2026-05-10 10:10:00","49005","6.1979999999999995","217.4","10.75","219.6","1012.05","20.41","70.07","893.0","0.0"],
    [1411421,"2026-05-10 10:20:00","49006","6.422000000000001","221.9","10.32","199.9","1012.013","20.21","70.65","896.0","0.0"],
    [1411422,"2026-05-10 10:30:00","49007","5.979","217.2","8.46","216.8","1011.9060000000001","20.39","70.1","823.0","0.0"],
    [1411423,"2026-05-10 10:40:00","49008","5.584","216.3","10.19","224.4","1011.8760000000001","20.49","70.33","850.0","0.0"],
    [1411424,"2026-05-10 10:50:00","49009","5.822","215.6","9.54","206.1","1011.793","20.78","69.11","957.0","0.0"],
    [1411425,"2026-05-10 11:00:00","49010","6.756","216.1","10.58","225.2","1011.7760000000001","20.48","68.58","790.3","0.0"],
    [1411426,"2026-05-10 11:10:00","49011","6.74","215.9","10.78","222.7","1011.716","20.44","70.73","1019.0","0.0"],
    [1411427,"2026-05-10 11:20:00","49012","7.159","219.2","10.71","229.6","1011.648","20.49","71.16","936.0","0.0"],
    [1411428,"2026-05-10 11:30:00","49013","5.587999999999999","220.9","9.6","221.8","1011.576","20.74","69.86","880.0","0.0"],
    [1411429,"2026-05-10 11:40:00","49014","6.704","212.9","11.92","219.6","1011.5169999999999","20.58","70.94","906.0","0.0"],
    [1411430,"2026-05-10 11:50:00","49015","6.486000000000001","215.3","9.57","220.8","1011.39","20.74","70.99","938.0","0.0"],
    [1411431,"2026-05-10 12:00:00","49016","6.186","214.0","10.22","204.9","1011.2460000000001","20.77","70.77","938.0","0.0"],
    [1411432,"2026-05-10 12:10:00","49017","6.291","214.2","10.49","219.6","1011.148","21.02","69.97","1007.0","0.0"],
    [1411433,"2026-05-10 12:20:00","49018","6.097","214.9","9.28","203.1","1011.073","21.28","68.82","994.0","0.0"],
    [1411434,"2026-05-10 12:30:00","49019","5.165","215.3","8.98","212.4","1010.9630000000001","21.6","66.96","944.0","0.0"],
    [1411435,"2026-05-10 12:40:00","49020","6.369","213.8","9.51","202.8","1010.9019999999999","21.43","64.12","963.0","0.0"],
    [1411436,"2026-05-10 12:50:00","49021","6.727","214.9","9.57","189.3","1010.828","21.33","64.61","954.0","0.0"],
    [1411437,"2026-05-10 13:00:00","49022","5.8420000000000005","213.7","9.08","221.9","1010.794","21.35","64.02","940.0","0.0"],
    [1411438,"2026-05-10 13:10:00","49023","5.3389999999999995","218.6","8.3","200.6","1010.732","21.71","62.56","928.0","0.0"],
    [1411439,"2026-05-10 13:20:00","49024","4.012","210.9","7.219","193.8","1010.607","22.0","64.12","913.0","0.0"],
    [1411440,"2026-05-10 13:30:00","49025","5.587000000000001","216.5","8.46","228.9","1010.632","21.76","62.01","904.0","0.0"],
    [1411441,"2026-05-10 13:40:00","49026","5.364","215.8","8.59","216","1010.525","21.96","57.95","888.0","0.0"],
    [1411442,"2026-05-10 13:50:00","49027","4.388","216.0","7.546","229.3","1010.325","22.22","59.97","870.0","0.0"],
    [1411443,"2026-05-10 14:00:00","49028","3.556","212.2","6.925","204.1","1010.24","22.59","58.6","852.0","0.0"],
    [1411444,"2026-05-10 14:10:00","49029","5.169","212.5","8.59","214.9","1010.212","21.91","60.75","833.0","0.0"],
    [1411445,"2026-05-10 14:20:00","49030","4.5360000000000005","212.7","8.36","207.8","1010.107","22.29","58.32","810.0","0.0"],
    [1411446,"2026-05-10 14:30:00","49031","5.455","214.3","8.23","215.6","1009.93","21.74","61.63","787.0","0.0"],
    [1411447,"2026-05-10 14:40:00","49032","5.896","217.7","9.54","221.4","1009.8389999999999","21.67","61.03","763.5","0.0"],
    [1411448,"2026-05-10 14:50:00","49033","6.3389999999999995","216.7","10.03","210.3","1009.811","21.41","63.06","735.4","0.0"],
    [1411449,"2026-05-10 15:00:00","49034","6.75","217.9","10.91","212.5","1009.66","21.23","62.48","708.9","0.0"],
    [1411450,"2026-05-10 15:10:00","49035","4.638","216.1","8.33","235","1009.51","21.38","65.14","679.2","0.0"],
    [1411451,"2026-05-10 15:20:00","49036","6.157","215.3","9.73","223.8","1009.436","21.44","62.84","648.8","0.0"],
    [1411452,"2026-05-10 15:30:00","49037","6.507000000000001","216.3","9.54","209.1","1009.451","21.06","64.89","621.9","0.0"],
    [1411453,"2026-05-10 15:40:00","49038","5.71","217.2","8.79","221","1009.3710000000001","21.07","65.86","558.5","0.0"],
    [1411454,"2026-05-10 15:50:00","49039","6.2170000000000005","218.8","10.36","212.3","1009.337","20.88","67.31","562.1","0.0"],
    [1411455,"2026-05-10 16:00:00","49040","5.56","215.5","8.82","213.7","1009.377","20.9","68.61","496.0","0.0"],
    [1411456,"2026-05-10 16:10:00","49041","6.0","216.5","10","225.1","1009.337","20.72","66.66","499.0","0.0"],
    [1411457,"2026-05-10 16:20:00","49042","4.433","217.5","8.66","212","1009.2239999999999","21.11","64.15","464.9","0.0"],
    [1411458,"2026-05-10 16:30:00","49043","4.06","218.6","8.1","222.3","1009.097","20.87","64.65","432.2","0.0"],
    [1411459,"2026-05-10 16:40:00","49044","5.239","217.8","8.36","226.9","1009.0169999999999","20.68","64.99","399.9","0.0"],
    [1411460,"2026-05-10 16:50:00","49045","5.879","222.3","10.09","229.4","1009.1139999999999","20.45","66.26","364.4","0.0"],
    [1411461,"2026-05-10 17:00:00","49046","5.843","222.4","10.42","223.2","1009.243","20.3","65.7","328.2","0.0"],
    [1411462,"2026-05-10 17:10:00","49047","6.1739999999999995","221.4","10.58","209.3","1009.27","20.15","65.37","294.4","0.0"],
    [1411463,"2026-05-10 17:20:00","49048","5.3420000000000005","224.7","9.18","222.6","1009.278","20.08","66.55","260.3","0.0"],
    [1411464,"2026-05-10 17:30:00","49049","5.324","219.1","8.23","224.6","1009.39","20.14","66.81","225.1","0.0"],
    [1411465,"2026-05-10 17:40:00","49050","4.867","226.0","8.82","209","1009.4789999999999","19.91","67.38","193.4","0.0"],
    [1411466,"2026-05-10 17:50:00","49051","5.303","223.5","8.62","209.9","1009.635","19.76","66.21","161.9","0.0"],
    [1411467,"2026-05-10 18:00:00","49052","5.337999999999999","225.3","9.38","214.1","1009.745","19.65","66.53","132.3","0.0"],
    [1411468,"2026-05-10 18:10:00","49053","4.143","227.2","7.481","222.5","1009.816","19.5","68.46","77.03","0.0"],
    [1411469,"2026-05-10 18:20:00","49054","3.918","226.7","7.285","214.4","1009.949","19.12","70.37","22.84","0.0"],
    [1411470,"2026-05-10 18:30:00","49055","4.376","228.1","7.513","221.5","1010.057","19.0","70.94","15.88","0.0"],
    [1411471,"2026-05-10 18:40:00","49056","4.47","226.5","6.925","206.2","1010.179","19.04","69.28","11.28","0.0"],
    [1411472,"2026-05-10 18:50:00","49057","4.644","224.3","7.35","224.8","1010.2460000000001","19.08","68.11","7.489","0.0"],
    [1411473,"2026-05-10 19:00:00","49058","5.077","225.9","8.56","221.1","1010.326","19.12","67.7","2.5340000000000003","0.0"],
    [1411474,"2026-05-10 19:10:00","49059","4.852","225.0","7.317","219.5","1010.323","19.12","68.33","-0.222","0.0"],
    [1411475,"2026-05-10 19:20:00","49060","4.916","226.1","8.36","207.9","1010.34","19.13","69.48","-1.166","0.0"],
    [1411476,"2026-05-10 19:30:00","49061","4.662","225.6","7.938","212.4","1010.388","19.13","70.22","-1.163","0.0"],
    [1411477,"2026-05-10 19:40:00","49062","3.793","225.5","6.272","209.3","1010.3969999999999","19.12","70.97","-1.166","0.0"],
    [1411478,"2026-05-10 19:50:00","49063","2.9530000000000003","229.1","5.586","258.9","1010.443","19.13","70.88","-1.173","0.0"],
    [1411479,"2026-05-10 20:10:00","49064","2.45","228.9","4.018","239","1010.545","19.01","69.05","-2.017","0.0"],
    [1411480,"2026-05-10 20:20:00","49065","2.346","231.8","4.116","216.1","1010.505","19.06","63.43","-1.9709999999999999","0.0"],
    [1411481,"2026-05-10 20:30:00","49066","2.1719999999999997","235.1","4.867","270.2","1010.51","19.22","60.37","-1.806","0.0"],
    [1411482,"2026-05-10 20:40:00","49067","1.6380000000000001","243.2","3.659","276.9","1010.638","19.26","59.53","-1.495","0.0"],
    [1411483,"2026-05-10 20:50:00","49068","1.521","243.0","3.528","242.1","1010.8330000000001","19.26","59.45","-1.2890000000000001","0.0"],
    [1411484,"2026-05-10 21:00:00","49069","1.722","269.8","3.267","280.3","1010.967","19.27","59.8","-1.188","0.0"],
    [1411485,"2026-05-10 21:10:00","49070","2.76","284.6","5.292","291.8","1010.972","19.11","62.4","-1.2830000000000001","0.0"],
    [1411486,"2026-05-10 21:20:00","49071","3.139","280.9","5.423","291.4","1010.784","18.98","63.77","-1.284","0.0"],
    [1411487,"2026-05-10 21:30:00","49072","3.717","297.0","6.697","319.2","1010.6080000000001","18.81","63.39","-1.6869999999999998","0.0"],
    [1411488,"2026-05-10 21:40:00","49073","3.965","301.0","6.729","298.8","1010.427","18.69","61.72","-2.3209999999999997","0.0"],
    [1411489,"2026-05-10 21:50:00","49074","5.026","302.9","8.49","282.6","1010.3639999999999","18.48","62.02","-2.274","0.0"],
    [1411490,"2026-05-10 22:00:00","49075","4.337","305.7","7.513","315.5","1010.177","18.31","63.07","-2.052","0.0"],
    [1411491,"2026-05-10 22:10:00","49076","4.107","301.0","6.86","327.1","1010.1310000000001","18.2","63.64","-2.0","0.0"],
    [1411492,"2026-05-10 22:20:00","49077","2.861","308.9","5.096","321","1010.1469999999999","18.04","64.29","-2.638","0.0"],
    [1411493,"2026-05-10 22:30:00","49078","2.7439999999999998","311.4","4.867","313.4","1010.216","17.83","65.14","-2.7030000000000003","0.0"],
    [1411494,"2026-05-10 22:40:00","49079","2.654","306.8","4.573","314.7","1010.28","17.75","65.22","-2.7260000000000004","0.0"],
    [1411495,"2026-05-10 22:50:00","49080","2.7310000000000003","296.6","4.573","302.8","1010.3580000000001","17.59","65.41","-2.799","0.0"],
    [1411496,"2026-05-10 23:00:00","49081","1.7309999999999999","282.1","3.103","279.2","1010.357","17.5","65.61","-2.698","0.0"],
    [1411497,"2026-05-10 23:10:00","49082","1.371","267.3","2.45","284.6","1010.3430000000001","17.38","66.24","-2.7060000000000004","0.0"],
    [1411498,"2026-05-10 23:20:00","49083","1.331","252.3","2.711","281.7","1010.409","17.23","66.52","-2.833","0.0"],
    [1411499,"2026-05-10 23:30:00","49084","1.732","229.0","3.005","256.8","1010.393","17.18","66.14","-2.7039999999999997","0.0"],
    [1411500,"2026-05-10 23:40:00","49085","1.44","235.0","2.809","211.8","1010.307","16.97","65.59","-2.9730000000000003","0.0"],
    [1411501,"2026-05-10 23:50:00","49086","1.6769999999999998","239.3","2.907","226.9","1010.357","17.06","63.18","-2.7960000000000003","0.0"],
    [1411502,"2026-05-11 00:00:00","49087","1.777","250.4","4.247","246.8","1010.413","17.3","61.35","-2.873","0.0"],
    [1411503,"2026-05-11 00:10:00","49088","1.712","241.0","2.973","254.1","1010.543","17.69","59.57","-2.445","0.0"],
    [1411504,"2026-05-11 00:20:00","49089","1.347","244.9","2.189","209","1010.429","17.54","60.24","-2.338","0.0"],
    [1411505,"2026-05-11 00:30:00","49090","1.443","248.6","2.581","259.8","1010.3480000000001","17.45","60.97","-2.6889999999999996","0.0"],
    [1411506,"2026-05-11 00:40:00","49091","1.75","260.3","3.822","303.8","1010.46","17.57","60.05","-2.27","0.0"],
    [1411507,"2026-05-11 00:50:00","49092","2.14","247.5","4.508","267.9","1010.44","17.7","60.23","-1.936","0.0"],
    [1411508,"2026-05-11 01:00:00","49093","1.9169999999999998","233.5","3.43","282.6","1010.495","17.27","62.54","-2.544","0.0"],
    [1411509,"2026-05-11 01:10:00","49094","1.854","229.2","2.907","223.8","1010.408","17.14","63.7","-2.6919999999999997","0.0"],
    [1411510,"2026-05-11 01:20:00","49095","1.587","231.9","2.548","250.9","1010.4010000000001","16.89","64.71","-2.698","0.0"],
    [1411511,"2026-05-11 01:30:00","49096","0.981","244.3","1.797","263.6","1010.263","16.76","65.44","-2.806","0.0"],
    [1411512,"2026-05-11 01:40:00","49097","1.575","221.7","2.417","236","1010.297","16.55","66.61","-2.844","0.0"],
    [1411513,"2026-05-11 01:50:00","49098","0.998","204.1","1.993","175.2","1010.319","16.26","67.9","-2.7310000000000003","0.0"],
    [1411514,"2026-05-11 02:00:00","49099","0.955","220.7","2.189","229","1010.345","15.98","68.53","-3.36","0.0"],
    [1411515,"2026-05-11 02:10:00","49100","0.7170000000000001","223.2","2.221","225","1010.2869999999999","15.88","68.12","-2.812","0.0"],
    [1411516,"2026-05-11 02:20:00","49101","0.14800000000000002","188.7","0.817","206.9","1010.317","15.58","69.22","-3.2260000000000004","0.0"],
    [1411517,"2026-05-11 02:30:00","49102","0.162","224.0","0.719","215.5","1010.304","15.4","69.65","-3.0789999999999997","0.0"],
    [1411518,"2026-05-11 02:40:00","49103","0.08","232.3","1.078","234.6","1010.242","15.26","71.76","-2.842","0.0"],
    [1411519,"2026-05-11 02:50:00","49104","0.028999999999999998","222.3","0.457","222.2","1010.2439999999999","14.91","73.22","-2.7889999999999997","0.0"],
    [1411520,"2026-05-11 03:00:00","49105","0.037000000000000005","246.0","0.555","236.3","1010.168","14.68","73.18","-2.7569999999999997","0.0"],
    [1411521,"2026-05-11 03:10:00","49106","0.479","262.2","1.829","246.5","1010.078","14.85","71.19","-2.784","0.0"],
    [1411522,"2026-05-11 03:20:00","49107","1.04","241.7","2.058","260.7","1010.217","15.53","66.92","-2.734","0.0"],
    [1411523,"2026-05-11 03:30:00","49108","0.46799999999999997","254.3","1.209","245.2","1010.2589999999999","15.62","66.04","-2.728","0.0"],
    [1411524,"2026-05-11 03:40:00","49109","0.41100000000000003","284.8","1.633","283.1","1010.268","15.26","67.86","-3.036","0.0"],
    [1411525,"2026-05-11 03:50:00","49110","0.985","280.6","1.503","294.3","1010.302","15.14","69.0","-2.807","0.0"],
    [1411526,"2026-05-11 04:00:00","49111","0.897","279.0","1.601","305.9","1010.279","14.94","69.98","-2.779","0.0"],
    [1411527,"2026-05-11 04:10:00","49112","0.846","281.1","1.699","299.3","1010.368","14.72","71.06","-2.733","0.0"],
    [1411528,"2026-05-11 04:20:00","49113","0.486","283.1","1.045","282.1","1010.36","14.56","71.8","-2.728","0.0"],
    [1411529,"2026-05-11 04:30:00","49114","0.42","295.6","1.209","287.3","1010.3589999999999","14.34","72.69","-1.757","0.0"],
    [1411530,"2026-05-11 04:40:00","49115","0.385","324.3","1.437","329.2","1010.3539999999999","14.23","72.87","0.914","0.0"],
    [1411531,"2026-05-11 04:50:00","49116","0.695","307.4","1.405","310.5","1010.428","14.29","72.65","5.397","0.0"],
    [1411532,"2026-05-11 05:00:00","49117","0.467","273.0","1.111","282","1010.53","14.57","70.87","11.36","0.0"],
    [1411533,"2026-05-11 05:10:00","49118","0.124","275.2","0.849","275.8","1010.681","14.63","70.37","17.94","0.0"],
    [1411534,"2026-05-11 05:20:00","49119","0.032","225.1","0.849","221.3","1010.868","14.89","69.46","60.28","0.0"],
    [1411535,"2026-05-11 05:30:00","49120","0.627","245.8","1.176","225.7","1011.008","15.54","66.92","93.8","0.0"],
    [1411536,"2026-05-11 05:40:00","49121","0.409","267.7","0.849","260.8","1011.138","16.11","65.11","120.5","0.0"],
    [1411537,"2026-05-11 05:50:00","49122","0.9670000000000001","273.7","2.058","289","1011.168","16.28","67.19","168.2","0.0"],
    [1411538,"2026-05-11 06:00:00","49123","0.629","236.1","1.699","221.8","1011.237","17.07","64.49","205.7","0.0"],
    [1411539,"2026-05-11 06:10:00","49124","1.13","276.1","2.189","289.6","1011.3530000000001","17.93","60.17","233.9","0.0"],
    [1411540,"2026-05-11 06:20:00","49125","1.27","243.5","2.777","235.9","1011.445","18.35","57.78","273.4","0.0"],
    [1411541,"2026-05-11 06:30:00","49126","1.337","223.4","2.156","195.8","1011.5369999999999","18.93","55.15","304.8","0.0"],
    [1411542,"2026-05-11 06:40:00","49127","1.453","222.9","2.777","206.5","1011.627","19.18","53.11","336.3","0.0"],
    [1411543,"2026-05-11 06:50:00","49128","1.7590000000000001","251.1","2.875","208.2","1011.653","19.26","52.09","378.4","0.0"],
    [1411544,"2026-05-11 07:00:00","49129","1.412","273.0","2.646","316.2","1011.716","19.53","51.21","430.8","0.0"],
    [1411545,"2026-05-11 07:10:00","49130","1.189","282.3","2.907","289.7","1011.7460000000001","19.66","51.12","387.1","0.0"],
    [1411546,"2026-05-11 07:20:00","49131","1.535","280.1","3.299","287.9","1011.742","19.65","50.67","314.8","0.0"],
    [1411547,"2026-05-11 07:30:00","49132","1.65","289.8","2.94","269.1","1011.7660000000001","19.25","51.04","281.0","0.0"],
    [1411548,"2026-05-11 07:40:00","49133","1.212","299.2","2.646","299.4","1011.841","19.34","51.57","271.5","0.0"],
    [1411549,"2026-05-11 07:50:00","49134","1.075","291.7","2.221","282.8","1011.862","19.37","51.46","242.0","0.0"],
    [1411550,"2026-05-11 08:00:00","49135","1.0270000000000001","290.0","1.862","305.4","1011.846","19.43","52.04","264.3","0.0"],
    [1411551,"2026-05-11 08:10:00","49136","0.747","279.0","2.156","296.3","1011.852","19.72","50.37","349.3","0.0"],
    [1411552,"2026-05-11 08:20:00","49137","1.9040000000000001","199.7","5.978","212.6","1011.86","19.98","54.8","343.7","0.0"],
    [1411553,"2026-05-11 08:30:00","49138","2.258","201.1","4.41","227.3","1011.8660000000001","19.53","56.88","277.3","0.0"],
    [1411554,"2026-05-11 08:40:00","49139","2.66","203.9","4.083","213.2","1011.9119999999999","19.63","56.69","313.7","0.0"],
    [1411555,"2026-05-11 08:50:00","49140","2.407","202.5","4.181","210.8","1011.885","19.85","55.28","394.5","0.0"],
    [1411556,"2026-05-11 09:00:00","49141","3.0239999999999996","211.3","4.671","214.2","1011.9680000000001","20.1","53.43","394.4","0.0"],
    [1411557,"2026-05-11 09:10:00","49142","2.885","214.5","4.573","213","1011.9739999999999","20.18","52.82","414.9","0.0"],
    [1411558,"2026-05-11 09:20:00","49143","3.049","213.1","4.802","215.2","1011.931","20.51","52.14","510.5","0.0"],
    [1411559,"2026-05-11 09:30:00","49144","3.3810000000000002","216.0","4.769","231.8","1012.01","20.57","52.32","461.3","0.0"],
    [1411560,"2026-05-11 09:40:00","49145","2.366","195.9","4.377","203.8","1012.051","20.7","52.58","438.0","0.0"],
    [1411561,"2026-05-11 09:50:00","49146","2.434","194.5","4.9","179.6","1012.0310000000001","20.98","53.03","476.4","0.0"],
    [1411562,"2026-05-11 10:00:00","49147","2.875","176.0","4.933","179.4","1012.073","20.83","54.29","728.8","0.0"],
    [1411563,"2026-05-11 10:10:00","49148","1.4780000000000002","150.8","3.201","155.9","1012.0039999999999","21.59","53.01","962.0","0.0"],
    [1411564,"2026-05-11 10:20:00","49149","1.795","97.3","6.37","82.6","1011.924","22.38","45.43","893.0","0.0"],
    [1411565,"2026-05-11 10:30:00","49150","2.286","264.4","6.337","286.4","1011.9119999999999","23.31","37.84","974.0","0.0"],
    [1411566,"2026-05-11 10:40:00","49151","3.6060000000000003","262.7","7.317","295.5","1011.831","23.58","39.94","873.0","0.0"],
    [1411567,"2026-05-11 10:50:00","49152","2.536","262.5","4.9","267.8","1011.81","23.77","40.73","962.0","0.0"],
    [1411568,"2026-05-11 11:00:00","49153","3.178","223.4","6.109","193.9","1011.826","23.69","42.99","955.0","0.0"],
    [1411569,"2026-05-11 11:10:00","49154","4.99","216.1","8.13","230","1011.664","23.25","45.16","972.0","0.0"],
    [1411570,"2026-05-11 11:20:00","49155","3.945","207.5","7.579","208.4","1011.65","23.4","45.58","982.0","0.0"],
    [1411571,"2026-05-11 11:30:00","49156","4.985","209.1","8.3","222.5","1011.675","22.56","51.42","974.0","0.0"],
    [1411572,"2026-05-11 11:40:00","49157","4.048","209.7","6.958","208.8","1011.671","22.49","50.35","979.0","0.0"],
    [1411573,"2026-05-11 11:50:00","49158","5.1080000000000005","211.7","8.26","236.1","1011.63","22.47","51.16","979.0","0.0"],
    [1411574,"2026-05-11 12:00:00","49159","4.848","208.2","8.85","204.3","1011.6089999999999","22.32","52.77","992.0","0.0"],
    [1411575,"2026-05-11 12:10:00","49160","4.408","207.9","8.17","222.4","1011.5930000000001","22.4","53.72","907.0","0.0"],
    [1411576,"2026-05-11 12:20:00","49161","3.883","189.5","8","176","1011.555","22.01","56.35","945.0","0.0"],
    [1411577,"2026-05-11 12:30:00","49162","4.169","198.5","8.53","220.7","1011.5039999999999","22.3","54.61","991.0","0.0"],
    [1411578,"2026-05-11 12:40:00","49163","4.237","198.8","7.317","174.7","1011.4119999999999","22.37","53.43","959.0","0.0"],
    [1411579,"2026-05-11 12:50:00","49164","5.4879999999999995","213.4","8.33","212.8","1011.279","22.7","50.46","958.0","0.0"],
    [1411580,"2026-05-11 13:00:00","49165","6.67","215.7","9.05","211.3","1011.158","22.69","48.18","948.0","0.0"],
    [1411581,"2026-05-11 13:10:00","49166","5.688","218.1","10.09","216.3","1011.107","23.0","47.82","930.0","0.0"],
    [1411582,"2026-05-11 13:20:00","49167","6.367000000000001","218.4","9.18","213.7","1011.186","22.6","50.71","918.0","0.0"],
    [1411583,"2026-05-11 13:30:00","49168","6.206","214.2","10.65","229","1011.1419999999999","22.52","53.58","903.0","0.0"],
    [1411584,"2026-05-11 13:40:00","49169","6.178999999999999","215.2","10.03","217","1011.171","22.42","52.64","890.0","0.0"],
    [1411585,"2026-05-11 13:50:00","49170","5.117","216.4","9.18","229.2","1011.0219999999999","22.97","49.31","877.0","0.0"],
    [1411586,"2026-05-11 14:00:00","49171","5.711","213.3","9.77","219.4","1010.993","22.94","51.33","865.0","0.0"],
    [1411587,"2026-05-11 14:10:00","49172","5.585","218.2","8.92","231.4","1010.865","23.17","48.98","830.0","0.0"],
    [1411588,"2026-05-11 14:20:00","49173","7.062","219.0","9.83","210","1010.742","23.11","46.15","812.0","0.0"],
    [1411589,"2026-05-11 14:30:00","49174","5.901","220.1","10.49","221.8","1010.633","23.27","45.7","791.3","0.0"],
    [1411590,"2026-05-11 14:40:00","49175","6.606","219.9","10.06","228.8","1010.666","22.87","50.91","765.3","0.0"],
    [1411591,"2026-05-11 14:50:00","49176","6.159","215.4","10.62","214","1010.581","22.16","58.97","742.9","0.0"],
    [1411592,"2026-05-11 15:00:00","49177","7.659","215.5","11.2","216","1010.423","21.89","58.66","714.8","0.0"],
    [1411593,"2026-05-11 15:10:00","49178","6.377999999999999","218.5","11.27","237","1010.317","21.93","57.34","683.9","0.0"],
    [1411594,"2026-05-11 15:20:00","49179","6.954","223.6","11.3","232.5","1010.3580000000001","21.9","54.24","653.9","0.0"],
    [1411595,"2026-05-11 15:30:00","49180","7.121","222.6","11.17","242.1","1010.455","21.64","53.52","625.1","0.0"],
    [1411596,"2026-05-11 15:40:00","49181","8.64","221.2","12.58","212.9","1010.576","21.16","59.24","563.7","0.0"],
    [1411597,"2026-05-11 15:50:00","49182","7.537999999999999","220.4","11.86","224.4","1010.7389999999999","20.99","63.93","563.2","0.0"],
    [1411598,"2026-05-11 16:00:00","49183","7.028","221.2","11.4","212.1","1010.773","20.99","64.78","497.6","0.0"],
    [1411599,"2026-05-11 16:10:00","49184","7.39","219.6","12.15","221.3","1010.7660000000001","20.98","65.78","502.4","0.0"],
    [1411600,"2026-05-11 16:20:00","49185","7.513","218.0","10.62","221.7","1010.757","20.87","67.23","467.6","0.0"],
    [1411601,"2026-05-11 16:30:00","49186","6.599","220.2","11.69","211.2","1010.7769999999999","20.82","67.27","434.8","0.0"],
    [1411602,"2026-05-11 16:40:00","49187","7.017","225.8","11.53","232.4","1010.826","20.71","65.75","400.4","0.0"],
    [1411603,"2026-05-11 16:50:00","49188","7.683","220.1","12.25","221","1010.827","20.58","65.84","365.9","0.0"],
    [1411604,"2026-05-11 17:00:00","49189","8.18","222.2","11.53","227","1010.945","20.56","65.49","331.4","0.0"],
    [1411605,"2026-05-11 17:10:00","49190","7.392","222.8","12.05","222.9","1010.972","20.49","65.2","297.1","0.0"],
    [1411606,"2026-05-11 17:20:00","49191","7.21","222.9","11.66","225.3","1011.045","20.46","65.88","263.1","0.0"],
    [1411607,"2026-05-11 17:30:00","49192","6.292999999999999","224.6","11.53","217.7","1011.1110000000001","20.38","66.21","230.3","0.0"],
    [1411608,"2026-05-11 17:40:00","49193","6.372999999999999","225.3","10.29","219.6","1011.1139999999999","20.3","65.97","198.9","0.0"],
    [1411609,"2026-05-11 17:50:00","49194","5.886","223.7","10.65","228.4","1011.1039999999999","20.16","67.3","167.4","0.0"],
    [1411610,"2026-05-11 18:00:00","49195","5.705","226.1","9.87","227.3","1011.107","19.98","68.53","137.6","0.0"],
    [1411611,"2026-05-11 18:10:00","49196","6.2","224.1","9.96","216.4","1011.164","19.92","67.6","109.7","0.0"],
    [1411612,"2026-05-11 18:20:00","49197","5.827999999999999","224.0","9.6","224.1","1011.2860000000001","19.7","70.18","81.4","0.0"],
    [1411613,"2026-05-11 18:30:00","49198","5.5","222.8","8.92","229.9","1011.334","19.53","72.14","55.29","0.0"],
    [1411614,"2026-05-11 18:40:00","49199","5.4910000000000005","219.9","7.905","226.3","1011.37","19.37","71.83","32.73","0.0"],
    [1411615,"2026-05-11 18:50:00","49200","5.892","218.1","9.44","209","1011.395","19.31","70.5","14.77","0.0"],
    [1411616,"2026-05-11 19:00:00","49201","5.2139999999999995","221.3","7.677","231.7","1011.466","19.25","66.63","4.15","0.0"],
    [1411617,"2026-05-11 19:10:00","49202","4.824","224.3","7.873","223.5","1011.573","19.36","61.43","-0.139","0.0"],
    [1411618,"2026-05-11 19:20:00","49203","4.115","225.0","6.925","221","1011.811","19.4","59.63","-1.932","0.0"],
    [1411619,"2026-05-11 19:30:00","49204","3.696","228.4","7.023","208.2","1011.84","19.29","59.73","-2.748","0.0"],
    [1411620,"2026-05-11 19:40:00","49205","3.8689999999999998","229.4","6.272","231.5","1011.941","19.34","58.15","-2.661","0.0"],
    [1411621,"2026-05-11 19:50:00","49206","4.463","228.0","7.611","215.5","1012.122","19.46","54.47","-2.675","0.0"],
    [1411622,"2026-05-11 20:00:00","49207","3.714","228.2","5.847","222.6","1012.252","19.44","51.36","-2.713","0.0"],
    [1411623,"2026-05-11 20:10:00","49208","3.2560000000000002","228.3","6.207","220.6","1012.3739999999999","19.43","51.95","-2.6710000000000003","0.0"],
    [1411624,"2026-05-11 20:20:00","49209","3.38","227.6","5.847","198.3","1012.445","19.27","53.9","-2.842","0.0"],
    [1411625,"2026-05-11 20:30:00","49210","3.3569999999999998","229.3","5.815","227.1","1012.5880000000001","19.45","53.73","-2.735","0.0"],
    [1411626,"2026-05-11 20:40:00","49211","2.1590000000000003","234.6","4.377","237.6","1012.806","19.2","55.89","-2.698","0.0"],
    [1411627,"2026-05-11 20:50:00","49212","1.03","249.0","2.091","282.5","1012.916","18.94","58.13","-3.0060000000000002","0.0"],
    [1411628,"2026-05-11 21:00:00","49213","1.079","247.2","2.907","274.8","1013.007","18.7","59.62","-3.4160000000000004","0.0"],
    [1411629,"2026-05-11 21:10:00","49214","1.6440000000000001","233.0","3.136","238.1","1013.057","18.65","60.33","-3.409","0.0"],
    [1411630,"2026-05-11 21:20:00","49215","2.544","219.7","3.855","205.1","1013.092","18.63","63.45","-2.826","0.0"],
    [1411631,"2026-05-11 21:30:00","49216","3.1039999999999996","220.4","4.475","236.3","1013.15","18.51","65.27","-2.7539999999999996","0.0"],
    [1411632,"2026-05-11 21:40:00","49217","3.273","217.2","4.639","199.8","1013.248","18.59","63.43","-2.719","0.0"],
    [1411633,"2026-05-11 21:50:00","49218","2.884","213.9","3.855","212.3","1013.2289999999999","18.58","64.04","-2.7030000000000003","0.0"],
    [1411634,"2026-05-11 22:00:00","49219","2.86","211.6","4.018","205.1","1013.262","18.53","61.76","-2.7260000000000004","0.0"],
    [1411635,"2026-05-11 22:10:00","49220","2.498","223.2","3.626","216.3","1013.3539999999999","18.52","60.56","-2.713","0.0"],
    [1411636,"2026-05-11 22:20:00","49221","1.037","238.4","2.483","208.9","1013.447","18.34","59.47","-2.8110000000000004","0.0"],
    [1411637,"2026-05-11 22:30:00","49222","0.919","285.1","1.993","250.4","1013.6030000000001","18.2","59.19","-2.947","0.0"],
    [1411638,"2026-05-11 22:40:00","49223","1.213","350.7","2.156","4.424","1013.7189999999999","17.86","60.31","-3.073","0.0"],
    [1411639,"2026-05-11 22:50:00","49224","0.049","8.3","0.784","9.46","1013.703","17.76","60.15","-3.153","0.0"],
    [1411640,"2026-05-11 23:00:00","49225","1.401","30.62","2.319","31.93","1013.666","17.89","61.08","-3.025","0.0"],
    [1411641,"2026-05-11 23:10:00","49226","1.5490000000000002","53.18","2.025","52.3","1013.663","17.81","64.66","-2.7230000000000003","0.0"],
    [1411642,"2026-05-11 23:20:00","49227","0.972","47.72","1.699","52.1","1013.6410000000001","17.17","69.19","-2.7460000000000004","0.0"],
    [1411643,"2026-05-11 23:30:00","49228","0.214","9.02","1.176","0.097","1013.5939999999999","17.05","72.1","-3.321","0.0"],
    [1411644,"2026-05-11 23:40:00","49229","0.055","123.2","0.849","129.4","1013.6619999999999","17.13","72.8","-2.8289999999999997","0.0"],
    [1411645,"2026-05-11 23:50:00","49230","0.865","96.5","1.862","75.86","1013.689","17.04","73.3","-2.7960000000000003","0.0"],
    [1411646,"2026-05-12 00:00:00","49231","1.626","60.69","2.319","54.33","1013.6080000000001","16.51","75.86","-2.861","0.0"],
    [1411647,"2026-05-12 00:10:00","49232","0.985","86.7","1.699","55.17","1013.6080000000001","16.75","74.18","-2.7960000000000003","0.0"],
    [1411648,"2026-05-12 00:20:00","49233","1.156","87.0","2.483","65.24","1013.607","17.11","71.91","-2.7089999999999996","0.0"],
    [1411649,"2026-05-12 00:30:00","49234","1.827","59.61","2.744","50.68","1013.543","16.75","73.24","-2.767","0.0"],
    [1411650,"2026-05-12 00:40:00","49235","1.114","55.74","1.666","69.2","1013.568","16.58","73.26","-2.884","0.0"],
    [1411651,"2026-05-12 00:50:00","49236","0.977","48.11","2.058","38.96","1013.545","16.55","72.87","-2.807","0.0"],
    [1411652,"2026-05-12 01:00:00","49237","1.1179999999999999","33.62","2.156","28.99","1013.4119999999999","16.4","72.11","-2.915","0.0"],
    [1411653,"2026-05-12 01:10:00","49238","0.003","26.72","0.229","26.71","1013.377","16.72","69.84","-2.715","0.0"],
    [1411654,"2026-05-12 01:20:00","49239","0.51","24.14","1.731","18.04","1013.2589999999999","16.41","71.7","-2.733","0.0"],
    [1411655,"2026-05-12 01:30:00","49240","0.935","327.1","1.47","13.62","1013.2239999999999","16.15","72.28","-2.9","0.0"],
    [1411656,"2026-05-12 01:40:00","49241","0.917","271.1","1.699","262.1","1013.2610000000001","16.3","70.22","-2.728","0.0"],
    [1411657,"2026-05-12 01:50:00","49242","0.588","257.7","1.862","268.6","1013.188","16.16","68.16","-2.9130000000000003","0.0"],
    [1411658,"2026-05-12 02:00:00","49243","0.307","214.2","1.143","193.5","1013.1060000000001","16.33","66.55","-2.758","0.0"],
    [1411659,"2026-05-12 02:10:00","49244","0.94","260.5","1.633","275","1013.1060000000001","15.73","68.68","-2.7239999999999998","0.0"],
    [1411660,"2026-05-12 02:20:00","49245","0.9109999999999999","261.5","1.601","262.8","1013.087","15.25","69.55","-3.0439999999999996","0.0"],
    [1411661,"2026-05-12 02:30:00","49246","1.589","269.3","2.711","272.3","1013.039","15.62","67.01","-2.863","0.0"],
    [1411662,"2026-05-12 02:40:00","49247","2.012","277.7","2.973","270.2","1013.0269999999999","15.07","69.5","-2.714","0.0"],
    [1411663,"2026-05-12 02:50:00","49248","1.7690000000000001","279.5","2.352","277.3","1013.0239999999999","14.56","71.98","-2.7260000000000004","0.0"],
    [1411664,"2026-05-12 03:00:00","49249","2.121","274.3","2.744","275.7","1013.048","14.7","72.15","-2.7239999999999998","0.0"],
    [1411665,"2026-05-12 03:10:00","49250","1.0759999999999998","287.5","1.993","284.1","1013.067","14.6","72.47","-2.7230000000000003","0.0"],
    [1411666,"2026-05-12 03:20:00","49251","0.187","306.1","1.307","289.5","1013.007","14.36","72.98","-2.8560000000000003","0.0"],
    [1411667,"2026-05-12 03:30:00","49252","0.363","303.6","0.849","294.8","1012.9739999999999","14.24","73.79","-3.04","0.0"],
    [1411668,"2026-05-12 03:40:00","49253","0.462","276.0","1.339","264.3","1012.977","14.26","73.71","-2.736","0.0"],
    [1411669,"2026-05-12 03:50:00","49254","0.405","275.5","0.882","278.7","1013.012","14.13","74.86","-2.728","0.0"],
    [1411670,"2026-05-12 04:00:00","49255","0.885","262.9","1.764","268","1013.0219999999999","14.06","76.09","-2.7560000000000002","0.0"],
    [1411671,"2026-05-12 04:10:00","49256","1.3619999999999999","264.4","2.711","279.8","1013.0989999999999","14.45","74.18","-2.7289999999999996","0.0"],
    [1411672,"2026-05-12 04:20:00","49257","2.141","269.7","3.267","268.5","1013.245","14.58","73.54","-2.45","0.0"],
    [1411673,"2026-05-12 04:30:00","49258","1.4580000000000002","286.0","2.189","277.6","1013.316","14.22","74.78","-1.217","0.0"],
    [1411674,"2026-05-12 04:40:00","49259","1.104","288.6","1.764","293","1013.325","13.76","77.04","1.6219999999999999","0.0"],
    [1411675,"2026-05-12 04:50:00","49260","0.971","291.4","1.797","299.9","1013.29","13.68","77.54","7.704","0.0"],
    [1411676,"2026-05-12 05:00:00","49261","1.133","283.5","1.699","284.9","1013.304","13.78","77.39","23.73","0.0"],
    [1411677,"2026-05-12 05:10:00","49262","0.733","271.9","1.797","273","1013.362","13.89","77.17","41.09","0.0"],
    [1411678,"2026-05-12 05:20:00","49263","1.4169999999999998","271.7","2.417","281.5","1013.4119999999999","14.26","75.29","63.67","0.0"],
    [1411679,"2026-05-12 05:30:00","49264","1.845","280.0","2.352","284.8","1013.442","14.51","74.27","93.8","0.0"],
    [1411680,"2026-05-12 05:40:00","49265","1.564","279.7","1.895","280","1013.4789999999999","14.85","73.3","121.2","0.0"],
    [1411681,"2026-05-12 05:50:00","49266","0.9109999999999999","260.4","1.666","275","1013.577","15.32","71.67","150.8","0.0"],
    [1411682,"2026-05-12 06:00:00","49267","1.068","263.9","1.764","267.1","1013.645","15.99","69.43","182.0","0.0"],
    [1411683,"2026-05-12 06:10:00","49268","1.6569999999999998","292.7","2.45","301.7","1013.725","16.44","68.0","215.2","0.0"],
    [1411684,"2026-05-12 06:20:00","49269","2.218","306.1","3.103","312.7","1013.743","16.84","65.79","249.4","0.0"],
    [1411685,"2026-05-12 06:30:00","49270","2.046","319.0","3.103","318.4","1013.7810000000001","17.63","62.71","283.0","0.0"],
    [1411686,"2026-05-12 06:40:00","49271","2.3609999999999998","336.4","3.659","342.9","1013.807","18.31","59.82","316.7","0.0"],
    [1411687,"2026-05-12 06:50:00","49272","2.3890000000000002","333.6","3.103","323.6","1013.811","18.99","57.48","350.8","0.0"],
    [1411688,"2026-05-12 07:00:00","49273","1.983","332.0","2.777","335.6","1013.836","19.64","54.77","384.4","0.0"],
    [1411689,"2026-05-12 07:10:00","49274","1.94","334.5","3.528","332.6","1013.8710000000001","20.42","51.68","418.7","0.0"],
    [1411690,"2026-05-12 07:20:00","49275","2.385","340.8","3.887","340","1013.952","20.77","48.83","452.5","0.0"],
    [1411691,"2026-05-12 07:30:00","49276","1.84","346.2","3.593","345.1","1013.966","20.9","47.48","484.8","0.0"],
    [1411692,"2026-05-12 07:40:00","49277","2.052","28.06","3.332","42.39","1013.944","21.22","49.37","514.8","0.0"],
    [1411693,"2026-05-12 07:50:00","49278","1.703","42.85","2.875","53.88","1013.868","21.21","49.94","547.1","0.0"],
    [1411694,"2026-05-12 08:00:00","49279","2.18","25.26","3.169","30.18","1013.812","21.46","48.76","577.6","0.0"],
    [1411695,"2026-05-12 08:10:00","49280","2.032","46.02","4.116","63.19","1013.747","21.49","48.49","588.4","0.0"],
    [1411696,"2026-05-12 08:20:00","49281","4.056","73.34","5.325","82.7","1013.681","20.96","58.59","621.8","0.0"],
    [1411697,"2026-05-12 08:30:00","49282","4.1819999999999995","66.63","5.292","76.29","1013.645","20.45","60.61","645.3","0.0"],
    [1411698,"2026-05-12 08:40:00","49283","4.582","66.84","6.141","59.69","1013.698","20.03","65.24","687.4","0.0"],
    [1411699,"2026-05-12 08:50:00","49284","4.678999999999999","63.07","6.697","58.49","1013.81","19.72","70.6","721.0","0.0"],
    [1411700,"2026-05-12 09:00:00","49285","4.794","68.12","6.631","66.02","1013.8860000000001","19.63","74.03","745.3","0.0"],
    [1411701,"2026-05-12 09:10:00","49286","5.043","76.33","6.697","75.16","1013.966","19.68","75.14","770.3","0.0"],
    [1411702,"2026-05-12 09:20:00","49287","4.609","74.64","6.043","69.57","1014.045","19.55","76.21","792.1","0.0"],
    [1411703,"2026-05-12 09:30:00","49288","4.372","81.4","6.141","86.9","1014.0930000000001","19.85","75.9","811.0","0.0"],
    [1411704,"2026-05-12 09:40:00","49289","4.109","77.34","5.455","73.36","1014.066","19.91","74.94","833.0","0.0"],
    [1411705,"2026-05-12 09:50:00","49290","4.455","75.72","5.847","82.5","1014.1139999999999","19.72","78.41","850.0","0.0"],
    [1411706,"2026-05-12 10:00:00","49291","4.612","74.2","6.207","93.6","1014.05","19.81","79.83","869.0","0.0"],
    [1411707,"2026-05-12 10:10:00","49292","4.6160000000000005","77.41","6.174","90.8","1014.0319999999999","19.99","79.13","869.0","0.0"],
    [1411708,"2026-05-12 10:20:00","49293","4.75","70.41","6.272","78.68","1014.0319999999999","19.76","80.4","895.0","0.0"],
    [1411709,"2026-05-12 10:30:00","49294","4.289","71.47","6.141","69.73","1014.005","19.97","79.97","913.0","0.0"],
    [1411710,"2026-05-12 10:40:00","49295","4.208","68.02","6.207","77.46","1013.971","19.83","80.4","926.0","0.0"],
    [1411711,"2026-05-12 10:50:00","49296","4.207","65.47","5.423","82.8","1013.867","20.47","78.03","937.0","0.0"],
    [1411712,"2026-05-12 11:00:00","49297","4.197","77.77","5.423","90.8","1013.778","20.43","78.01","947.0","0.0"],
    [1411713,"2026-05-12 11:10:00","49298","3.488","91.0","5.39","86.7","1013.722","20.54","77.3","956.0","0.0"],
    [1411714,"2026-05-12 11:20:00","49299","3.648","94.5","5.88","93.9","1013.6060000000001","20.55","76.18","964.0","0.0"],
    [1411715,"2026-05-12 11:30:00","49300","4.152","92.3","5.815","85.2","1013.435","20.37","76.74","975.0","0.0"],
    [1411716,"2026-05-12 11:40:00","49301","4.011","84.9","5.815","73.31","1013.2689999999999","20.71","77.74","994.0","0.0"],
    [1411717,"2026-05-12 11:50:00","49302","4.002","97.2","5.88","104.8","1013.1419999999999","20.93","76.36","969.0","0.0"],
    [1411718,"2026-05-12 12:00:00","49303","4.559","94.2","6.631","87.2","1013.0939999999999","20.82","75.42","980.0","0.0"],
    [1411719,"2026-05-12 12:10:00","49304","4.602","95.9","6.566","98.4","1013.0010000000001","20.94","75.52","805.0","0.0"],
    [1411720,"2026-05-12 12:20:00","49305","5.04","97.8","7.285","100.8","1012.929","20.69","75.27","760.1","0.0"],
    [1411721,"2026-05-12 12:30:00","49306","5.456","92.0","8.3","84.7","1012.872","20.25","75.46","484.8","0.0"],
    [1411722,"2026-05-12 12:40:00","49307","5.537000000000001","91.1","8.4","86.3","1012.773","20.14","75.37","522.7","0.0"],
    [1411723,"2026-05-12 12:50:00","49308","5.854","86.3","7.971","87","1012.704","20.03","76.36","480.7","0.0"],
    [1411724,"2026-05-12 13:00:00","49309","5.627999999999999","85.3","7.415","92.3","1012.752","20.06","76.23","456.4","0.0"],
    [1411725,"2026-05-12 13:10:00","49310","5.184","88.1","6.795","79.75","1012.7639999999999","19.61","77.95","227.1","0.0"],
    [1411726,"2026-05-12 13:20:00","49311","4.952","82.9","6.697","87.9","1012.7310000000001","19.42","79.55","175.9","0.0"],
    [1411727,"2026-05-12 13:30:00","49312","4.14","89.9","6.762","81.8","1012.566","19.69","79.36","270.2","0.0"],
    [1411728,"2026-05-12 13:40:00","49313","3.234","103.0","6.109","108.9","1012.335","19.75","78.21","315.5","0.0"],
    [1411729,"2026-05-12 13:50:00","49314","2.147","109.9","4.475","89.7","1012.32","19.99","77.45","382.1","0.0"],
    [1411730,"2026-05-12 14:00:00","49315","2.8289999999999997","101.6","4.769","88.3","1012.107","19.96","77.94","298.2","0.0"],
    [1411731,"2026-05-12 14:10:00","49316","3.71","97.4","5.847","92","1011.9630000000001","19.79","79.27","272.7","0.0"],
    [1411732,"2026-05-12 14:20:00","49317","3.1180000000000003","96.1","5.063","85.9","1011.9960000000001","19.72","80.3","283.0","0.0"],
    [1411733,"2026-05-12 14:30:00","49318","3.1460000000000004","103.2","4.802","97.2","1011.82","19.78","79.89","466.2","0.0"],
    [1411734,"2026-05-12 14:40:00","49319","3.258","93.1","5.031","96.4","1011.712","19.95","79.84","270.0","0.0"],
    [1411735,"2026-05-12 14:50:00","49320","4.194","76.33","5.521","78.04","1011.666","19.64","81.0","229.8","0.0"],
    [1411736,"2026-05-12 15:00:00","49321","3.898","91.6","5.749","79.02","1011.7919999999999","19.37","80.7","106.2","0.0"],
    [1411737,"2026-05-12 15:10:00","49322","3.52","97.5","5.749","116.8","1011.887","19.28","79.62","216.9","0.0"],
    [1411738,"2026-05-12 15:20:00","49323","3.59","99.2","5.782","95.6","1011.668","19.24","79.86","206.9","0.0"],
    [1411739,"2026-05-12 15:30:00","49324","3.029","100.9","5.978","80.6","1011.7410000000001","19.03","80.3","91.4","0.0"],
    [1411740,"2026-05-12 15:40:00","49325","1.815","105.6","3.822","113.4","1012.203","18.83","81.1","35.05","0.0"],
    [1411741,"2026-05-12 15:50:00","49326","2.6039999999999996","77.67","7.677","358.4","1012.071","18.71","81.0","41.59","0.0"],
    [1411742,"2026-05-12 16:00:00","49327","5.542000000000001","347.7","11.17","341.4","1012.495","16.33","73.82","12.0","0.0"],
    [1411743,"2026-05-12 16:10:00","49328","3.9019999999999997","3.237","6.925","10.35","1012.128","14.55","81.4","40.7","0.0"],
    [1411744,"2026-05-12 16:20:00","49329","2.733","1.788","5.063","1.307","1011.845","14.47","81.2","90.7","0.0"],
    [1411745,"2026-05-12 16:30:00","49330","1.121","43.77","3.169","104.3","1011.93","14.59","79.82","79.59","0.0"],
    [1411746,"2026-05-12 16:40:00","49331","3.49","94.6","6.925","74.44","1011.9830000000001","15.2","80.0","47.51","0.0"],
    [1411747,"2026-05-12 16:50:00","49332","3.657","56.96","5.325","56.57","1011.73","15.25","83.9","95.6","0.0"],
    [1411748,"2026-05-12 17:00:00","49333","2.9989999999999997","52.57","5.847","55.75","1011.5930000000001","15.41","81.5","142.1","0.0"],
    [1411749,"2026-05-12 17:10:00","49334","2.26","20.61","3.332","4.907","1011.54","15.74","78.63","137.2","0.0"],
    [1411750,"2026-05-12 17:20:00","49335","2.14","352.3","3.103","14.59","1011.457","15.93","77.07","126.7","0.0"],
    [1411751,"2026-05-12 17:30:00","49336","1.646","16.32","3.103","358.5","1011.326","16.05","77.31","105.7","0.0"],
    [1411752,"2026-05-12 17:40:00","49337","0.32","110.0","1.535","20.31","1011.2139999999999","16.07","77.61","77.6","0.0"],
    [1411753,"2026-05-12 17:50:00","49338","0.9209999999999999","98.0","1.993","80.7","1010.811","16.13","76.79","51.53","0.0"],
    [1411754,"2026-05-12 18:00:00","49339","2.877","86.0","4.475","87.4","1010.572","16.5","75.48","29.53","0.0"],
    [1411755,"2026-05-12 18:10:00","49340","3.77","72.5","5.161","65.69","1010.773","16.49","75.23","13.92","0.0"],
    [1411756,"2026-05-12 18:20:00","49341","3.217","61.9","4.573","60.72","1010.693","16.62","74.74","9.88","0.0"],
    [1411757,"2026-05-12 18:30:00","49342","3.1","55.89","4.573","59.48","1010.806","16.67","77.15","6.172999999999999","0.0"],
    [1411758,"2026-05-12 18:40:00","49343","2.875","51.68","4.867","50.8","1011.164","16.37","81.4","2.171","0.0"],
    [1411759,"2026-05-12 18:50:00","49344","3.072","44.92","4.606","65.29","1011.405","16.21","81.7","0.14800000000000002","0.0"],
    [1411760,"2026-05-12 19:00:00","49345","3.0469999999999997","8.22","4.573","353.1","1011.9169999999999","16.23","80.9","-0.748","0.0"],
    [1411761,"2026-05-12 19:10:00","49346","2.535","39.31","3.789","34.12","1011.74","16.3","81.4","-1.015","0.0"],
    [1411762,"2026-05-12 19:20:00","49347","0.5589999999999999","45.05","2.058","32.07","1011.7239999999999","16.32","80.7","-1.193","0.0"],
    [1411763,"2026-05-12 19:30:00","49348","0.318","115.4","1.339","123.8","1011.6210000000001","16.45","79.85","-1.2570000000000001","0.0"],
    [1411764,"2026-05-12 19:40:00","49349","1.4869999999999999","89.2","2.287","85","1011.549","16.43","80.6","-1.7069999999999999","0.0"],
    [1411765,"2026-05-12 19:50:00","49350","0.5529999999999999","98.0","1.829","90.8","1011.578","16.29","79.98","-1.224","0.0"],
    [1411766,"2026-05-12 20:00:00","49351","0.115","131.5","0.849","118.7","1011.757","16.22","79.42","-1.3230000000000002","0.0"],
    [1411767,"2026-05-12 20:10:00","49352","0.537","170.3","1.339","179.3","1011.822","16.41","78.5","-1.25","0.0"],
    [1411768,"2026-05-12 20:20:00","49353","0.742","176.6","1.307","194.6","1011.8789999999999","16.56","77.66","-1.703","0.0"],
    [1411769,"2026-05-12 20:30:00","49354","1.455","205.8","2.646","215.9","1011.9069999999999","16.66","78.59","-2.685","0.0"],
    [1411770,"2026-05-12 20:40:00","49355","1.518","212.1","2.058","221.8","1011.934","16.68","78.33","-2.693","0.0"],
    [1411771,"2026-05-12 20:50:00","49356","1.9769999999999999","214.8","2.907","225.2","1011.988","16.63","79.31","-2.63","0.0"],
    [1411772,"2026-05-12 21:00:00","49357","0.9690000000000001","249.8","2.744","217","1012.028","16.59","79.47","-2.388","0.0"],
    [1411773,"2026-05-12 21:10:00","49358","0.413","288.7","1.241","302.8","1012.0239999999999","16.39","79.89","-2.678","0.0"],
    [1411774,"2026-05-12 21:20:00","49359","0.505","353.8","1.437","4.487","1012.0169999999999","16.14","81.1","-2.695","0.0"],
    [1411775,"2026-05-12 21:30:00","49360","0.835","22.85","1.307","31.57","1011.988","16.17","80.9","-2.093","0.0"],
    [1411776,"2026-05-12 21:40:00","49361","0.895","23.91","1.47","29.44","1011.95","16.16","79.6","-1.979","0.0"],
    [1411777,"2026-05-12 21:50:00","49362","0.242","36.97","0.817","35.54","1012.0319999999999","16.19","77.79","-1.995","0.0"],
    [1411778,"2026-05-12 22:00:00","49363","0.015","42.95","0.359","43","1012.18","16.18","77.4","-2.209","0.0"],
    [1411779,"2026-05-12 22:10:00","49364","0.001","42.32","0.033","42.32","1012.2339999999999","16.19","77.64","-2.2119999999999997","0.0"],
    [1411780,"2026-05-12 22:20:00","49365","0.0","0.0","0","0","1012.2810000000001","16.06","78.17","-2.253","0.0"],
    [1411781,"2026-05-12 22:30:00","49366","0.364","43.9","0.882","43.87","1012.299","16.19","78.84","-2.1719999999999997","0.0"],
    [1411782,"2026-05-12 22:40:00","49367","0.912","43.02","1.274","41.61","1012.34","16.02","79.15","-1.959","0.0"],
    [1411783,"2026-05-12 22:50:00","49368","0.23800000000000002","40.97","0.849","43","1012.45","15.77","80.4","-2.03","0.0"],
    [1411784,"2026-05-12 23:00:00","49369","0.0","0.0","0","0","1012.552","15.76","79.67","-2.28","0.0"],
    [1411785,"2026-05-12 23:10:00","49370","0.41100000000000003","18.62","2.058","3.809","1012.671","15.94","79.64","-1.607","0.0"],
    [1411786,"2026-05-12 23:20:00","49371","0.7020000000000001","36.71","1.993","37.38","1012.6039999999999","16.04","80.1","-1.746","0.0"],
    [1411787,"2026-05-12 23:30:00","49372","0.13699999999999998","45.51","0.947","45.51","1012.5260000000001","15.94","80.4","-2.267","0.0"],
    [1411788,"2026-05-12 23:40:00","49373","0.21899999999999997","45.43","0.915","45.51","1012.523","15.85","82.0","-2.108","0.0"],
    [1411789,"2026-05-12 23:50:00","49374","0.787","325.1","1.47","316.9","1012.577","15.48","83.8","-1.4240000000000002","0.0"],
    [1411790,"2026-05-13 00:00:00","49375","0.204","318.8","1.241","312.7","1012.57","15.41","84.6","-1.214","0.0"],
    [1411791,"2026-05-13 00:10:00","49376","0.748","76.2","2.875","75.58","1012.448","15.43","84.6","-2.024","0.0"],
    [1411792,"2026-05-13 00:20:00","49377","2.29","70.92","3.005","67.51","1012.346","15.9","81.7","-2.45","0.0"],
    [1411793,"2026-05-13 00:30:00","49378","2.417","68.51","3.201","72.58","1012.2719999999999","16.02","81.2","-2.6210000000000004","0.0"],
    [1411794,"2026-05-13 00:40:00","49379","2.154","61.78","3.038","67.87","1012.2919999999999","16.08","81.0","-1.7269999999999999","0.0"],
    [1411795,"2026-05-13 00:50:00","49380","1.725","59.27","2.842","72.55","1012.248","16.29","80.5","-1.3359999999999999","0.0"],
    [1411796,"2026-05-13 01:00:00","49381","1.432","66.57","2.352","76.34","1012.2360000000001","16.2","80.7","-1.983","0.0"],
    [1411797,"2026-05-13 01:10:00","49382","1.604","77.23","2.417","63.48","1012.0930000000001","15.96","82.0","-2.548","0.0"],
    [1411798,"2026-05-13 01:20:00","49383","0.7090000000000001","92.1","2.058","102.4","1012.0889999999999","15.98","80.6","-2.347","0.0"],
    [1411799,"2026-05-13 01:30:00","49384","1.744","286.6","2.189","286.2","1012.018","15.18","82.0","-1.218","0.0"],
    [1411800,"2026-05-13 01:40:00","49385","1.297","290.4","1.699","290.3","1011.9739999999999","14.68","84.1","-1.205","0.0"],
    [1411801,"2026-05-13 01:50:00","49386","1.673","278.1","2.254","284.2","1011.903","14.67","83.9","-1.671","0.0"],
    [1411802,"2026-05-13 02:00:00","49387","1.3430000000000002","267.8","2.058","289.7","1011.846","14.6","83.8","-1.45","0.0"],
    [1411803,"2026-05-13 02:10:00","49388","1.712","270.5","2.973","276.8","1011.83","14.67","83.1","-1.48","0.0"],
    [1411804,"2026-05-13 02:20:00","49389","1.791","286.1","2.777","279.9","1011.811","14.48","83.6","-1.204","0.0"],
    [1411805,"2026-05-13 02:30:00","49390","2.055","293.1","3.626","300.9","1011.8330000000001","14.65","83.2","-1.2","0.0"],
    [1411806,"2026-05-13 02:40:00","49391","2.5469999999999997","301.9","3.495","305.4","1011.799","14.89","81.0","-1.207","0.0"],
    [1411807,"2026-05-13 02:50:00","49392","1.9409999999999998","305.6","3.136","319.2","1011.721","15.12","79.49","-1.204","0.0"],
    [1411808,"2026-05-13 03:00:00","49393","2.01","294.0","3.136","300.8","1011.698","15.23","78.85","-1.104","0.0"],
    [1411809,"2026-05-13 03:10:00","49394","1.19","289.6","2.45","306.5","1011.675","15.18","79.4","-0.88","0.0"],
    [1411810,"2026-05-13 03:20:00","49395","1.357","295.3","2.287","309","1011.664","15.21","80.3","-1.123","0.0"],
    [1411811,"2026-05-13 03:30:00","49396","1.994","306.9","3.201","317.5","1011.681","15.29","80.5","-1.7269999999999999","0.0"],
    [1411812,"2026-05-13 03:40:00","49397","1.953","293.7","3.038","296.1","1011.698","15.39","78.46","-1.649","0.0"],
    [1411813,"2026-05-13 03:50:00","49398","1.3430000000000002","289.6","2.058","276.3","1011.716","15.29","78.0","-1.208","0.0"],
    [1411814,"2026-05-13 04:00:00","49399","1.73","289.6","2.483","305.6","1011.77","15.02","78.96","-1.5730000000000002","0.0"],
    [1411815,"2026-05-13 04:10:00","49400","2.005","300.2","3.103","309","1011.795","14.87","79.68","-1.5619999999999998","0.0"],
    [1411816,"2026-05-13 04:20:00","49401","2.044","299.7","3.201","308.5","1011.863","15.05","77.67","-1.175","0.0"],
    [1411817,"2026-05-13 04:30:00","49402","3.612","313.8","6.435","315.8","1011.8910000000001","15.15","74.18","-0.278","0.0"],
    [1411818,"2026-05-13 04:40:00","49403","4.167","311.1","6.566","314.2","1011.947","15.09","70.55","1.646","0.0"],
    [1411819,"2026-05-13 04:50:00","49404","4.734","313.3","7.383","316.6","1011.972","14.9","69.85","5.026","0.0"],
    [1411820,"2026-05-13 05:00:00","49405","5.034","313.2","7.481","302.5","1012.025","14.85","68.27","11.91","0.0"],
    [1411821,"2026-05-13 05:10:00","49406","4.297","304.6","7.611","310.1","1012.1310000000001","14.71","67.62","22.29","0.0"],
    [1411822,"2026-05-13 05:20:00","49407","3.832","303.5","6.043","321.8","1012.2539999999999","14.57","67.81","25.67","0.0"],
    [1411823,"2026-05-13 05:30:00","49408","4.038","308.1","7.317","317.6","1012.48","14.54","67.5","30.18","0.0"],
    [1411824,"2026-05-13 05:40:00","49409","5.021","310.8","7.775","316.2","1012.627","14.48","66.83","35.2","0.0"],
    [1411825,"2026-05-13 05:50:00","49410","4.487","307.5","7.873","318.3","1012.74","14.48","65.92","39.93","0.0"],
    [1411826,"2026-05-13 06:00:00","49411","5.364","307.7","7.938","312.1","1012.694","14.46","64.96","46.91","0.0"],
    [1411827,"2026-05-13 06:10:00","49412","5.311","310.1","7.905","300.8","1012.8","14.6","64.78","68.36","0.0"],
    [1411828,"2026-05-13 06:20:00","49413","4.388","306.2","7.35","304.9","1012.8910000000001","15.13","63.42","220.6","0.0"],
    [1411829,"2026-05-13 06:30:00","49414","4.9510000000000005","302.1","7.513","305.2","1012.927","15.35","61.5","257.5","0.0"],
    [1411830,"2026-05-13 06:40:00","49415","4.265","304.5","6.795","300.8","1013.008","15.5","61.05","261.0","0.0"],
    [1411831,"2026-05-13 06:50:00","49416","4.513","302.1","7.513","297.2","1013.05","15.74","60.13","335.0","0.0"],
    [1411832,"2026-05-13 07:00:00","49417","5.723","308.7","8.72","306.6","1013.172","15.72","59.37","389.0","0.0"],
    [1411833,"2026-05-13 07:10:00","49418","5.318","306.6","7.775","305.7","1013.2330000000001","15.86","58.65","422.1","0.0"],
    [1411834,"2026-05-13 07:20:00","49419","5.101","307.5","8.2","296.9","1013.279","16.11","58.22","452.4","0.0"],
    [1411835,"2026-05-13 07:30:00","49420","4.876","307.4","7.481","300.4","1013.3380000000001","16.22","58.62","483.8","0.0"],
    [1411836,"2026-05-13 07:40:00","49421","4.422","316.6","6.239","319.5","1013.327","16.43","59.21","515.2","0.0"],
    [1411837,"2026-05-13 07:50:00","49422","4.09","297.9","7.023","277.9","1013.2080000000001","17.02","57.61","546.6","0.0"],
    [1411838,"2026-05-13 08:00:00","49423","4.269","305.3","6.664","294.4","1013.215","17.19","57.7","579.3","0.0"],
    [1411839,"2026-05-13 08:10:00","49424","4.173","294.6","6.043","293","1013.2669999999999","17.29","57.63","602.5","0.0"],
    [1411840,"2026-05-13 08:20:00","49425","4.143","294.8","5.815","288.5","1013.2610000000001","17.64","56.49","610.0","0.0"],
    [1411841,"2026-05-13 08:30:00","49426","4.0489999999999995","294.2","5.913","296.5","1013.253","17.9","55.59","654.4","0.0"],
    [1411842,"2026-05-13 08:40:00","49427","3.306","318.2","5.161","307.2","1013.206","18.19","55.71","675.3","0.0"],
    [1411843,"2026-05-13 08:50:00","49428","3.0580000000000003","321.0","6.305","298.8","1013.1569999999999","18.43","54.54","722.6","0.0"],
    [1411844,"2026-05-13 09:00:00","49429","2.818","309.9","4.965","328.4","1013.1339999999999","18.42","54.61","748.9","0.0"],
    [1411845,"2026-05-13 09:10:00","49430","2.371","288.5","4.41","298.1","1013.1110000000001","18.74","53.02","773.0","0.0"],
    [1411846,"2026-05-13 09:20:00","49431","2.282","291.2","5.619","295.6","1013.198","19.11","52.49","793.8","0.0"],
    [1411847,"2026-05-13 09:30:00","49432","2.622","275.0","4.377","267.5","1013.341","19.57","50.83","823.0","0.0"],
    [1411848,"2026-05-13 09:40:00","49433","2.675","294.6","4.933","318","1013.3530000000001","19.67","50.63","773.0","0.0"],
    [1411849,"2026-05-13 09:50:00","49434","2.496","274.9","4.933","285.3","1013.3639999999999","19.45","51.88","807.0","0.0"],
    [1411850,"2026-05-13 10:00:00","49435","2.502","325.8","4.671","308.6","1013.42","19.58","51.0","586.3","0.0"],
    [1411851,"2026-05-13 10:10:00","49436","1.643","265.4","4.802","200.5","1013.4069999999999","19.58","52.99","905.0","0.0"],
    [1411852,"2026-05-13 10:20:00","49437","1.749","223.8","4.9","227.8","1013.459","19.59","53.76","756.8","0.0"],
    [1411853,"2026-05-13 10:30:00","49438","3.548","189.6","6.697","182.3","1013.388","19.92","51.79","912.0","0.0"],
    [1411854,"2026-05-13 10:40:00","49439","3.563","194.4","6.043","215.9","1013.368","20.15","50.23","1086.0","0.0"],
    [1411855,"2026-05-13 10:50:00","49440","2.838","191.9","5.521","181.9","1013.352","20.32","49.61","1030.0","0.0"],
    [1411856,"2026-05-13 11:00:00","49441","2.9560000000000004","189.3","5.749","207.5","1013.336","20.09","50.11","976.0","0.0"],
    [1411857,"2026-05-13 11:10:00","49442","2.685","208.4","5.455","222.4","1013.29","20.37","50.31","993.0","0.0"],
    [1411858,"2026-05-13 11:20:00","49443","3.197","210.8","5.194","176.2","1013.2330000000001","20.61","49.51","1004.0","0.0"],
    [1411859,"2026-05-13 11:30:00","49444","3.73","191.9","5.129","227","1013.199","20.68","48.9","1027.0","0.0"],
    [1411860,"2026-05-13 11:40:00","49445","3.617","180.0","5.749","163.4","1013.1030000000001","20.28","49.74","1026.0","0.0"],
    [1411861,"2026-05-13 11:50:00","49446","4.2010000000000005","176.1","5.88","178.9","1013.1","19.84","51.79","1026.0","0.0"],
    [1411862,"2026-05-13 12:00:00","49447","4.131","172.9","5.586","179.3","1013.087","19.81","50.67","806.0","0.0"],
    [1411863,"2026-05-13 12:10:00","49448","3.9589999999999996","177.8","6.272","151.6","1013.057","19.77","52.7","979.0","0.0"],
    [1411864,"2026-05-13 12:20:00","49449","3.9019999999999997","190.4","6.631","173.6","1013.087","19.97","52.25","938.0","0.0"],
    [1411865,"2026-05-13 12:30:00","49450","4.2010000000000005","181.9","6.631","161.7","1013.0419999999999","19.86","53.2","1044.0","0.0"],
    [1411866,"2026-05-13 12:40:00","49451","3.617","191.4","6.076","170.5","1013.0369999999999","20.01","53.54","974.0","0.0"],
    [1411867,"2026-05-13 12:50:00","49452","3.92","193.9","6.043","224.5","1012.992","20.28","51.83","986.0","0.0"],
    [1411868,"2026-05-13 13:00:00","49453","3.1010000000000004","190.2","5.815","187.5","1012.8810000000001","20.41","50.83","965.0","0.0"],
    [1411869,"2026-05-13 13:10:00","49454","3.326","207.2","5.455","201","1012.84","20.76","50.36","934.0","0.0"],
    [1411870,"2026-05-13 13:20:00","49455","3.483","209.8","6.533","203.1","1012.7769999999999","20.43","51.05","907.0","0.0"],
    [1411871,"2026-05-13 13:30:00","49456","3.273","191.0","5.521","166.7","1012.694","20.32","50.44","892.0","0.0"],
    [1411872,"2026-05-13 13:40:00","49457","3.302","188.8","5.978","179.3","1012.691","20.37","50.01","880.0","0.0"],
    [1411873,"2026-05-13 13:50:00","49458","3.091","191.3","5.815","177.7","1012.6469999999999","20.58","49.04","863.0","0.0"],
    [1411874,"2026-05-13 14:00:00","49459","3.261","192.0","5.521","219.1","1012.586","20.37","50.9","842.0","0.0"],
    [1411875,"2026-05-13 14:10:00","49460","2.827","200.2","5.161","217.4","1012.466","20.83","50.77","828.0","0.0"],
    [1411876,"2026-05-13 14:20:00","49461","3.326","190.1","5.194","188.2","1012.3560000000001","20.56","50.58","799.5","0.0"],
    [1411877,"2026-05-13 14:30:00","49462","3.929","194.4","5.749","159.8","1012.3489999999999","20.52","50.5","772.2","0.0"],
    [1411878,"2026-05-13 14:40:00","49463","3.935","194.2","NAN","159.8","1012.2560000000001","20.08","51.15","750.1","0.0"],
    [1411879,"2026-05-13 14:50:00","49464","3.287","180.5","NAN","159.8","1012.196","20.04","50.74","725.4","0.0"],
    [1411880,"2026-05-13 15:00:00","49465","2.898","192.3","NAN","159.8","1012.191","20.7","49.72","703.4","0.0"],
    [1411881,"2026-05-13 15:10:00","49466","3.1830000000000003","192.4","5.684","165","1012.1610000000001","20.32","50.31","680.3","0.0"],
    [1411882,"2026-05-13 15:20:00","49467","3.4810000000000003","172.6","6.109","159.4","1012.169","20.15","50.71","657.3","0.0"],
    [1411883,"2026-05-13 15:30:00","49468","3.2289999999999996","174.1","5.096","178.7","1012.117","19.79","51.17","518.9","0.0"],
    [1411884,"2026-05-13 15:40:00","49469","3.0789999999999997","177.5","5.717","174.6","1012.112","19.92","51.86","411.0","0.0"],
    [1411885,"2026-05-13 15:50:00","49470","3.236","164.8","6.043","154.2","1012.049","19.51","53.11","522.5","0.0"],
    [1411886,"2026-05-13 16:00:00","49471","1.0090000000000001","157.7","3.332","207.1","1011.9889999999999","20.45","51.49","499.0","0.0"],
    [1411887,"2026-05-13 16:10:00","49472","1.857","106.4","4.769","104.7","1011.9730000000001","20.68","49.59","509.0","0.0"],
    [1411888,"2026-05-13 16:20:00","49473","1.238","148.9","3.691","125.8","1011.8910000000001","20.14","51.9","442.9","0.0"],
    [1411889,"2026-05-13 16:30:00","49474","1.473","134.7","3.691","113.3","1011.8330000000001","19.32","54.98","110.5","0.0"],
    [1411890,"2026-05-13 16:40:00","49475","1.694","109.4","3.626","74.57","1011.828","19.01","56.87","104.4","0.0"],
    [1411891,"2026-05-13 16:50:00","49476","1.679","104.5","3.299","136.3","1011.7489999999999","19.0","57.77","124.6","0.0"],
    [1411892,"2026-05-13 17:00:00","49477","2.6710000000000003","94.1","4.508","78.2","1011.745","18.81","58.98","120.6","0.0"],
    [1411893,"2026-05-13 17:10:00","49478","3.346","84.3","4.541","86.8","1011.755","18.81","60.92","105.2","0.0"],
    [1411894,"2026-05-13 17:20:00","49479","3.5389999999999997","79.85","4.769","79.35","1011.752","18.59","62.51","87.1","0.0"],
    [1411895,"2026-05-13 17:30:00","49480","3.508","80.0","4.965","75.34","1011.757","18.57","63.16","151.9","0.0"],
    [1411896,"2026-05-13 17:40:00","49481","4.301","76.11","5.684","90.5","1011.793","18.7","62.69","193.2","0.0"],
    [1411897,"2026-05-13 17:50:00","49482","4.071000000000001","73.01","5.717","61.24","1011.8439999999999","18.75","62.18","167.0","0.0"],
    [1411898,"2026-05-13 18:00:00","49483","4.539","70.04","5.913","68.46","1011.867","18.48","62.66","132.7","0.0"],
    [1411899,"2026-05-13 18:10:00","49484","4.71","71.5","5.88","74.79","1011.8839999999999","18.36","63.91","106.4","0.0"],
    [1411900,"2026-05-13 18:20:00","49485","4.563","73.54","6.468","78.04","1011.888","18.16","64.63","81.7","0.0"],
    [1411901,"2026-05-13 18:30:00","49486","4.503","67.68","6.435","65.14","1011.8989999999999","17.97","65.2","39.22","0.0"],
    [1411902,"2026-05-13 18:40:00","49487","4.311","67.44","6.109","70.74","1011.9019999999999","17.77","65.49","22.64","0.0"],
    [1411903,"2026-05-13 18:50:00","49488","4.518","60.88","7.121","63.01","1011.883","17.7","65.92","13.89","0.0"],
    [1411904,"2026-05-13 19:00:00","49489","4.413","60.06","6.403","73.01","1011.8530000000001","17.62","65.86","4.123","0.0"],
    [1411905,"2026-05-13 19:10:00","49490","4.388999999999999","55.45","7.317","73.05","1011.904","17.56","66.88","0.619","0.0"],
    [1411906,"2026-05-13 19:20:00","49491","4.5489999999999995","50.16","6.403","45.55","1011.939","17.51","67.56","-0.88","0.0"],
    [1411907,"2026-05-13 19:30:00","49492","5.431","54.21","7.219","56.53","1011.89","17.47","67.73","-1.944","0.0"],
    [1411908,"2026-05-13 19:40:00","49493","4.263","49.45","6.991","57.51","1011.953","17.46","66.71","-1.954","0.0"],
    [1411909,"2026-05-13 19:50:00","49494","4.58","36.56","6.827","35.56","1012.0369999999999","17.46","65.91","-1.986","0.0"],
    [1411910,"2026-05-13 20:00:00","49495","4.172","41.73","6.697","37.55","1012.15","17.46","65.97","-1.979","0.0"],
    [1411911,"2026-05-13 20:10:00","49496","4.236000000000001","43.72","6.566","45.01","1012.2810000000001","17.43","66.26","-2.026","0.0"],
    [1411912,"2026-05-13 20:20:00","49497","3.965","45.37","5.88","33.3","1012.375","17.42","66.18","-2.122","0.0"],
    [1411913,"2026-05-13 20:30:00","49498","2.6660000000000004","33.99","4.704","38.33","1012.439","17.39","66.72","-2.244","0.0"],
    [1411914,"2026-05-13 20:40:00","49499","2.7039999999999997","26.72","4.149","13.96","1012.5360000000001","17.37","67.14","-2.5269999999999997","0.0"],
    [1411915,"2026-05-13 20:50:00","49500","3.195","19.03","4.802","21.79","1012.672","17.31","67.17","-2.4819999999999998","0.0"],
    [1411916,"2026-05-13 21:00:00","49501","2.889","13.56","4.279","11.59","1012.704","17.24","68.08","-2.603","0.0"],
    [1411917,"2026-05-13 21:10:00","49502","2.887","20.4","4.41","9.73","1012.688","17.2","68.89","-2.673","0.0"],
    [1411918,"2026-05-13 21:20:00","49503","2.678","33.28","3.855","25.7","1012.745","17.21","69.06","-2.6919999999999997","0.0"],
    [1411919,"2026-05-13 21:30:00","49504","2.019","19.83","3.495","39.3","1012.762","17.16","69.89","-2.688","0.0"],
    [1411920,"2026-05-13 21:40:00","49505","1.749","34.55","2.973","54.64","1012.687","17.07","70.29","-2.694","0.0"],
    [1411921,"2026-05-13 21:50:00","49506","1.682","32.78","2.613","35.06","1012.6419999999999","17.07","70.91","-2.695","0.0"],
    [1411922,"2026-05-13 22:00:00","49507","1.345","11.57","2.287","7.554","1012.6160000000001","16.89","72.04","-2.694","0.0"],
    [1411923,"2026-05-13 22:10:00","49508","1.6640000000000001","16.72","2.45","10.02","1012.4739999999999","16.78","72.42","-2.694","0.0"],
    [1411924,"2026-05-13 22:20:00","49509","1.445","26.31","2.254","24.7","1012.3969999999999","16.85","71.82","-2.695","0.0"],
    [1411925,"2026-05-13 22:30:00","49510","1.102","30.44","1.731","33.57","1012.3530000000001","16.84","71.88","-2.6919999999999997","0.0"],
    [1411926,"2026-05-13 22:40:00","49511","0.547","43.01","1.535","35.15","1012.26","16.69","72.41","-2.7039999999999997","0.0"],
    [1411927,"2026-05-13 22:50:00","49512","0.467","83.7","1.176","77.67","1012.168","16.7","72.34","-2.701","0.0"],
    [1411928,"2026-05-13 23:00:00","49513","0.18","92.3","1.078","81.3","1012.069","16.44","73.22","-2.733","0.0"],
    [1411929,"2026-05-13 23:10:00","49514","1.15","62.36","1.437","59.32","1011.953","16.22","75.13","-2.714","0.0"],
    [1411930,"2026-05-13 23:20:00","49515","1.205","49.22","1.568","51.07","1011.798","16.13","75.23","-2.6919999999999997","0.0"],
    [1411931,"2026-05-13 23:30:00","49516","0.5379999999999999","14.5","1.274","35.35","1011.762","16.15","74.68","-2.5660000000000003","0.0"],
    [1411932,"2026-05-13 23:40:00","49517","0.972","286.3","1.666","279.9","1011.7460000000001","15.83","76.59","-2.571","0.0"],
    [1411933,"2026-05-13 23:50:00","49518","0.9440000000000001","254.5","1.797","245","1011.627","15.71","77.0","-2.345","0.0"],
    [1411934,"2026-05-14 00:00:00","49519","1.119","267.4","2.613","286.6","1011.55","15.69","77.08","-2.36","0.0"],
    [1411935,"2026-05-14 00:10:00","49520","1.463","269.0","2.809","271.3","1011.485","15.57","77.03","-2.044","0.0"],
    [1411936,"2026-05-14 00:20:00","49521","1.291","280.7","2.744","281.1","1011.3539999999999","15.36","77.7","-2.104","0.0"],
    [1411937,"2026-05-14 00:30:00","49522","0.764","266.0","2.221","273.4","1011.2339999999999","15.22","78.29","-2.1","0.0"],
    [1411938,"2026-05-14 00:40:00","49523","0.7240000000000001","278.9","1.503","282","1011.051","15.21","77.95","-2.17","0.0"],
    [1411939,"2026-05-14 00:50:00","49524","0.621","253.5","1.601","250.6","1010.8660000000001","15.12","78.18","-2.4090000000000003","0.0"],
    [1411940,"2026-05-14 01:00:00","49525","0.048","248.8","0.621","252.4","1010.699","15.0","78.43","-2.511","0.0"],
    [1411941,"2026-05-14 01:10:00","49526","0.079","270.3","0.915","285","1010.666","14.93","79.18","-2.659","0.0"],
    [1411942,"2026-05-14 01:20:00","49527","0.8059999999999999","279.6","2.221","275.9","1010.548","14.94","79.54","-2.5869999999999997","0.0"],
    [1411943,"2026-05-14 01:30:00","49528","1.149","271.5","2.058","272","1010.38","15.08","78.81","-2.19","0.0"],
    [1411944,"2026-05-14 01:40:00","49529","0.79","272.0","1.47","281.3","1010.2739999999999","14.95","79.09","-2.009","0.0"],
    [1411945,"2026-05-14 01:50:00","49530","0.7859999999999999","274.8","1.307","273.8","1010.18","14.85","79.03","-2.381","0.0"],
    [1411946,"2026-05-14 02:00:00","49531","0.772","265.7","1.307","269.1","1010.12","14.97","78.03","-2.105","0.0"],
    [1411947,"2026-05-14 02:10:00","49532","0.7070000000000001","247.1","1.339","236","1009.995","14.94","77.67","-2.345","0.0"],
    [1411948,"2026-05-14 02:20:00","49533","0.98","234.0","1.666","248.7","1009.947","14.98","77.45","-2.286","0.0"],
    [1411949,"2026-05-14 02:30:00","49534","0.9009999999999999","255.2","1.633","280.6","1009.895","15.05","76.25","-2.3890000000000002","0.0"],
    [1411950,"2026-05-14 02:40:00","49535","1.416","284.7","2.287","288.8","1009.875","14.86","76.65","-2.592","0.0"],
    [1411951,"2026-05-14 02:50:00","49536","1.7280000000000002","268.5","2.45","279.4","1009.804","14.64","77.76","-2.5639999999999996","0.0"],
    [1411952,"2026-05-14 03:00:00","49537","2.178","274.2","3.626","266.8","1009.815","14.47","76.72","-2.073","0.0"],
    [1411953,"2026-05-14 03:10:00","49538","2.678","287.8","3.953","278.2","1009.7919999999999","14.09","76.36","-2.002","0.0"],
    [1411954,"2026-05-14 03:20:00","49539","2.456","293.1","4.083","297.9","1009.71","14.03","75.43","-2.617","0.0"],
    [1411955,"2026-05-14 03:30:00","49540","2.0709999999999997","293.1","3.495","295.1","1009.596","14.11","73.95","-2.7260000000000004","0.0"],
    [1411956,"2026-05-14 03:40:00","49541","1.3130000000000002","294.2","2.319","307.2","1009.5060000000001","14.12","71.34","-2.728","0.0"],
    [1411957,"2026-05-14 03:50:00","49542","1.558","311.2","2.45","312.9","1009.38","14.12","69.05","-2.758","0.0"],
    [1411958,"2026-05-14 04:00:00","49543","1.659","323.9","2.581","329.3","1009.291","14.31","65.24","-2.7319999999999998","0.0"],
    [1411959,"2026-05-14 04:10:00","49544","1.8840000000000001","327.9","3.201","339.5","1009.2669999999999","14.51","63.3","-2.721","0.0"],
    [1411960,"2026-05-14 04:20:00","49545","1.8559999999999999","322.1","3.071","315.9","1009.2760000000001","14.54","63.88","-2.347","0.0"],
    [1411961,"2026-05-14 04:30:00","49546","1.86","319.0","3.463","327.5","1009.332","14.44","63.89","-1.285","0.0"],
    [1411962,"2026-05-14 04:40:00","49547","1.7080000000000002","309.9","3.495","326.3","1009.294","14.49","61.78","1.3869999999999998","0.0"],
    [1411963,"2026-05-14 04:50:00","49548","1.36","293.3","2.679","282.8","1009.329","14.21","62.63","5.872999999999999","0.0"],
    [1411964,"2026-05-14 05:00:00","49549","1.1420000000000001","276.5","2.875","251.2","1009.403","14.05","63.65","19.68","0.0"],
    [1411965,"2026-05-14 05:10:00","49550","1.2409999999999999","281.1","3.038","279.7","1009.451","13.98","64.96","31.83","0.0"],
    [1411966,"2026-05-14 05:20:00","49551","1.76","281.0","3.201","288","1009.5210000000001","14.05","63.98","63.18","0.0"],
    [1411967,"2026-05-14 05:30:00","49552","1.6280000000000001","292.7","3.103","303.3","1009.561","14.27","61.87","92.2","0.0"],
    [1411968,"2026-05-14 05:40:00","49553","1.2209999999999999","292.8","2.548","276.3","1009.65","14.53","60.36","122.9","0.0"],
    [1411969,"2026-05-14 05:50:00","49554","1.729","313.5","3.561","299.1","1009.654","14.87","59.01","152.9","0.0"],
    [1411970,"2026-05-14 06:00:00","49555","2.687","306.5","4.149","294.8","1009.628","15.06","56.75","185.9","0.0"],
    [1411971,"2026-05-14 06:10:00","49556","3.392","297.3","5.031","288.9","1009.6469999999999","15.16","55.43","219.9","0.0"],
    [1411972,"2026-05-14 06:20:00","49557","3.4139999999999997","296.0","5.357","292.4","1009.6060000000001","15.38","53.78","253.5","0.0"],
    [1411973,"2026-05-14 06:30:00","49558","3.681","292.0","5.717","292.9","1009.577","15.57","53.08","287.8","0.0"],
    [1411974,"2026-05-14 06:40:00","49559","3.5069999999999997","284.0","5.161","281.8","1009.497","15.68","51.69","322.0","0.0"],
    [1411975,"2026-05-14 06:50:00","49560","3.522","303.4","5.488","294.4","1009.5419999999999","15.96","51.32","355.5","0.0"],
    [1411976,"2026-05-14 07:00:00","49561","3.88","294.3","6.076","296.2","1009.525","16.22","50.2","392.3","0.0"],
    [1411977,"2026-05-14 07:10:00","49562","3.173","298.8","5.063","282.5","1009.422","16.53","49.48","430.3","0.0"],
    [1411978,"2026-05-14 07:20:00","49563","4.034","300.9","6.729","313.6","1009.409","16.69","48.92","466.6","0.0"],
    [1411979,"2026-05-14 07:30:00","49564","2.897","281.5","6.991","293.9","1009.3380000000001","16.9","48.37","498.8","0.0"],
    [1411980,"2026-05-14 07:40:00","49565","3.9210000000000003","273.6","6.893","291.5","1009.312","17.1","47.1","534.3","0.0"],
    [1411981,"2026-05-14 07:50:00","49566","4.998","284.7","7.252","280.2","1009.285","17.24","46.78","570.4","0.0"],
    [1411982,"2026-05-14 08:00:00","49567","5.223","299.4","7.415","278.5","1009.2669999999999","17.56","45.83","603.1","0.0"],
    [1411983,"2026-05-14 08:10:00","49568","4.474","319.2","7.089","353","1009.185","17.79","45.0","632.6","0.0"],
    [1411984,"2026-05-14 08:20:00","49569","3.8289999999999997","313.7","6.207","315.7","1009.057","18.43","42.74","632.5","0.0"],
    [1411985,"2026-05-14 08:30:00","49570","3.195","324.0","5.488","281.3","1008.8760000000001","18.65","42.25","689.8","0.0"],
    [1411986,"2026-05-14 08:40:00","49571","2.365","317.2","4.671","304.9","1008.7389999999999","19.08","41.14","680.6","0.0"],
    [1411987,"2026-05-14 08:50:00","49572","1.212","278.7","3.855","246.3","1008.605","19.51","40.69","736.9","0.0"],
    [1411988,"2026-05-14 09:00:00","49573","2.705","226.2","6.141","194","1008.562","19.87","40.44","762.3","0.0"],
    [1411989,"2026-05-14 09:10:00","49574","3.438","217.2","5.815","219.7","1008.582","18.97","43.79","798.0","0.0"],
    [1411990,"2026-05-14 09:20:00","49575","2.802","215.2","6.174","237.1","1008.5110000000001","19.42","43.32","843.0","0.0"],
    [1411991,"2026-05-14 09:30:00","49576","3.4989999999999997","210.1","6.599","221.3","1008.418","19.4","42.33","926.0","0.0"],
    [1411992,"2026-05-14 09:40:00","49577","2.6639999999999997","187.8","6.305","182.7","1008.242","19.87","42.45","923.0","0.0"],
    [1411993,"2026-05-14 09:50:00","49578","2.705","199.0","4.835","224.1","1008.0269999999999","20.13","44.09","885.0","0.0"],
    [1411994,"2026-05-14 10:00:00","49579","1.729","219.8","4.214","162.2","1007.818","20.41","45.36","845.0","0.0"],
    [1411995,"2026-05-14 10:10:00","49580","2.073","181.0","4.933","169.2","1007.559","20.48","44.73","853.0","0.0"],
    [1411996,"2026-05-14 10:20:00","49581","2.978","340.1","5.684","272.1","1007.404","20.38","39.41","856.0","0.0"],
    [1411997,"2026-05-14 10:30:00","49582","2.045","238.8","3.593","212.1","1007.302","20.98","38.66","597.2","0.0"],
    [1411998,"2026-05-14 10:40:00","49583","4.21","218.1","7.285","221.4","1007.28","20.16","44.61","490.1","0.0"],
    [1411999,"2026-05-14 10:50:00","49584","3.346","205.0","5.619","206.7","1007.28","19.57","50.99","456.2","0.0"],
    [1412000,"2026-05-14 11:00:00","49585","1.6840000000000002","137.8","3.985","156.1","1007.137","19.4","53.43","519.9","0.0"],
    [1412001,"2026-05-14 11:10:00","49586","2.492","90.1","4.279","80.9","1006.935","19.39","52.24","572.3","0.0"],
    [1412002,"2026-05-14 11:20:00","49587","1.869","350.7","8.2","309.4","1006.778","20.26","45.93","612.6","0.0"],
    [1412003,"2026-05-14 11:30:00","49588","5.307","288.6","9.15","298.9","1006.6489999999999","21.74","26.43","717.2","0.0"],
    [1412004,"2026-05-14 11:40:00","49589","4.4110000000000005","292.0","7.317","313.2","1006.456","22.33","26.12","661.3","0.0"],
    [1412005,"2026-05-14 11:50:00","49590","4.417","256.3","8.46","290.3","1006.253","22.4","24.11","733.5","0.0"],
    [1412006,"2026-05-14 12:00:00","49591","4.361000000000001","243.1","8.26","290.8","1006.046","22.77","23.32","842.0","0.0"],
    [1412007,"2026-05-14 12:10:00","49592","3.5639999999999996","250.8","NAN","290.8","1005.83","23.43","23.53","938.0","0.0"],
    [1412008,"2026-05-14 12:20:00","49593","4.317","262.4","NAN","290.8","1005.617","22.95","24.36","692.6","0.0"],
    [1412009,"2026-05-14 12:30:00","49594","5.456","285.3","NAN","290.8","1005.393","23.08","25.89","930.0","0.0"],
    [1412010,"2026-05-14 12:40:00","49595","6.016","286.3","10.39","274.7","1005.2510000000001","23.55","25.85","966.0","0.0"],
    [1412011,"2026-05-14 12:50:00","49596","5.644","289.6","10.52","290.1","1005.045","23.5","26.32","965.0","0.0"],
    [1412012,"2026-05-14 13:00:00","49597","3.391","256.1","7.513","248.5","1004.7669999999999","24.11","25.38","952.0","0.0"],
    [1412013,"2026-05-14 13:10:00","49598","4.989","253.9","9.6","263.2","1004.553","23.99","24.41","946.0","0.0"],
    [1412014,"2026-05-14 13:20:00","49599","5.49","257.8","10.09","269.4","1004.3689999999999","24.09","24.41","937.0","0.0"],
    [1412015,"2026-05-14 13:30:00","49600","5.09","267.1","11.37","266.3","1004.158","24.12","24.49","924.0","0.0"],
    [1412016,"2026-05-14 13:40:00","49601","5.273","264.3","11.11","285.4","1003.9689999999999","24.4","24.79","911.0","0.0"],
    [1412017,"2026-05-14 13:50:00","49602","4.379","265.9","8.85","290.9","1003.8530000000001","24.38","27.92","904.0","0.0"],
    [1412018,"2026-05-14 14:00:00","49603","4.959","269.3","9.34","297.1","1003.845","24.71","26.94","889.0","0.0"],
    [1412019,"2026-05-14 14:10:00","49604","4.4","249.6","9.15","211","1003.7810000000001","24.33","29.88","774.5","0.0"],
    [1412020,"2026-05-14 14:20:00","49605","3.7569999999999997","272.7","8.66","224.2","1003.7189999999999","23.56","33.88","606.9","0.0"],
    [1412021,"2026-05-14 14:30:00","49606","3.661","270.4","7.644","287.8","1003.632","24.25","30.85","643.1","0.0"],
    [1412022,"2026-05-14 14:40:00","49607","5.247000000000001","286.4","9.05","295.6","1003.5089999999999","24.19","28.03","729.6","0.0"],
    [1412023,"2026-05-14 14:50:00","49608","4.496","270.4","10.13","314.1","1003.365","24.61","26.85","815.0","0.0"],
    [1412024,"2026-05-14 15:00:00","49609","4.716","255.5","8.33","272.4","1003.235","24.67","25.54","773.4","0.0"],
    [1412025,"2026-05-14 15:10:00","49610","5.002","238.3","9.73","261","1003.216","24.68","25.26","712.6","0.0"],
    [1412026,"2026-05-14 15:20:00","49611","5.487","264.1","10.45","273.2","1003.206","24.13","26.23","679.2","0.0"],
    [1412027,"2026-05-14 15:30:00","49612","5.167000000000001","263.4","9.44","274.2","1003.148","24.22","26.92","640.8","0.0"],
    [1412028,"2026-05-14 15:40:00","49613","4.567","250.3","9.93","278.8","1003.007","24.29","26.2","586.7","0.0"],
    [1412029,"2026-05-14 15:50:00","49614","5.442","268.2","10.13","299.2","1002.9989999999999","24.1","25.74","591.3","0.0"],
    [1412030,"2026-05-14 16:00:00","49615","5.452999999999999","272.7","10.58","287.7","1003.0169999999999","24.05","26.62","513.5","0.0"],
    [1412031,"2026-05-14 16:10:00","49616","4.593999999999999","257.0","9.51","247.5","1003.002","23.89","26.33","513.2","0.0"],
    [1412032,"2026-05-14 16:20:00","49617","4.5969999999999995","260.4","8.17","238.9","1002.934","23.8","26.81","481.0","0.0"],
    [1412033,"2026-05-14 16:30:00","49618","4.721","265.3","8.4","263","1002.944","23.47","27.19","451.2","0.0"],
    [1412034,"2026-05-14 16:40:00","49619","6.071000000000001","280.1","10.29","269.5","1002.926","23.19","27.22","415.3","0.0"],
    [1412035,"2026-05-14 16:50:00","49620","5.231","269.0","10.32","279.6","1002.815","23.04","27.27","383.8","0.0"],
    [1412036,"2026-05-14 17:00:00","49621","4.438","279.4","8.04","246.8","1002.691","23.07","27.21","343.4","0.0"],
    [1412037,"2026-05-14 17:10:00","49622","5.757999999999999","304.2","9.96","308.8","1002.6310000000001","23.2","27.84","312.3","0.0"],
    [1412038,"2026-05-14 17:20:00","49623","5.49","301.7","10.29","298.5","1002.533","23.02","27.36","280.4","0.0"],
    [1412039,"2026-05-14 17:30:00","49624","5.734","293.8","9.24","298.5","1002.602","22.81","25.78","247.9","0.0"],
    [1412040,"2026-05-14 17:40:00","49625","5.837999999999999","284.0","10.29","299.7","1002.596","22.44","23.71","216.8","0.0"],
    [1412041,"2026-05-14 17:50:00","49626","5.447","278.7","9.87","261.2","1002.573","22.11","24.3","184.9","0.0"],
    [1412042,"2026-05-14 18:00:00","49627","4.824","285.0","8.4","284","1002.632","21.9","25.41","152.3","0.0"],
    [1412043,"2026-05-14 18:10:00","49628","3.035","274.9","6.043","261","1002.66","21.43","27.09","45.85","0.0"],
    [1412044,"2026-05-14 18:20:00","49629","2.92","288.9","6.305","282.6","1002.944","20.85","28.97","32.18","0.0"],
    [1412045,"2026-05-14 18:30:00","49630","3.09","318.0","5.259","290.1","1003.2","20.86","31.3","33.03","0.0"],
    [1412046,"2026-05-14 18:40:00","49631","3.861","62.4","6.468","42.43","1003.32","18.39","65.6","16.26","0.0"],
    [1412047,"2026-05-14 18:50:00","49632","5.052","60.7","7.84","61.81","1003.3510000000001","17.15","76.16","6.934","0.0"],
    [1412048,"2026-05-14 19:00:00","49633","5.807","68.38","8.69","63.64","1003.472","16.79","77.99","2.537","0.0"],
    [1412049,"2026-05-14 19:10:00","49634","5.375","69.97","8.2","73","1003.565","16.56","78.34","0.19399999999999998","0.0"],
    [1412050,"2026-05-14 19:20:00","49635","3.92","59.49","6.043","39.07","1003.679","16.4","79.18","-1.598","0.0"],
    [1412051,"2026-05-14 19:30:00","49636","4.41","61.54","7.023","63.68","1003.748","16.32","78.73","-1.993","0.0"],
    [1412052,"2026-05-14 19:40:00","49637","4.427","62.18","7.089","47.63","1003.6339999999999","16.31","78.39","-2.055","0.0"],
    [1412053,"2026-05-14 19:50:00","49638","5.142","64.37","7.84","52.31","1003.587","16.32","78.21","-1.9240000000000002","0.0"],
    [1412054,"2026-05-14 20:00:00","49639","4.927","68.06","8.1","68.29","1003.7180000000001","16.2","78.11","-1.58","0.0"],
    [1412055,"2026-05-14 20:10:00","49640","5.439","62.93","8.13","71.53","1003.905","16.12","77.19","-1.245","0.0"],
    [1412056,"2026-05-14 20:20:00","49641","5.671","66.06","8.23","69.89","1003.918","16.17","76.78","-1.315","0.0"],
    [1412057,"2026-05-14 20:30:00","49642","5.617000000000001","69.29","8","71.13","1004.0360000000001","16.2","77.16","-1.2409999999999999","0.0"],
    [1412058,"2026-05-14 20:40:00","49643","5.605","64.11","8.46","63.05","1004.057","16.18","77.54","-1.271","0.0"],
    [1412059,"2026-05-14 20:50:00","49644","5.06","67.31","7.546","72.96","1004.092","16.2","77.87","-1.37","0.0"],
    [1412060,"2026-05-14 21:00:00","49645","5.303","67.9","7.807","64","1004.0989999999999","16.18","77.19","-1.222","0.0"],
    [1412061,"2026-05-14 21:10:00","49646","4.956","69.41","7.219","78.2","1004.056","16.18","77.04","-1.209","0.0"],
    [1412062,"2026-05-14 21:20:00","49647","4.912","70.93","7.219","78.2","1004.023","16.15","76.86","-1.197","0.0"],
    [1412063,"2026-05-14 21:30:00","49648","4.295","74.07","6.337","70.16","1004.05","16.17","77.57","-1.197","0.0"],
    [1412064,"2026-05-14 21:40:00","49649","4.1160000000000005","71.78","5.619","68.2","1003.9889999999999","16.17","77.3","-1.193","0.0"],
    [1412065,"2026-05-14 21:50:00","49650","4.103","74.35","5.749","66.99","1003.9730000000001","16.19","77.15","-1.193","0.0"],
    [1412066,"2026-05-14 22:00:00","49651","4.105","72.16","5.847","74.75","1003.935","16.18","76.91","-1.196","0.0"],
    [1412067,"2026-05-14 22:10:00","49652","4.5969999999999995","72.27","6.697","73.64","1003.9019999999999","16.2","76.21","-1.195","0.0"],
    [1412068,"2026-05-14 22:20:00","49653","3.9939999999999998","73.59","5.815","68.15","1003.8539999999999","16.2","76.18","-1.198","0.0"],
    [1412069,"2026-05-14 22:30:00","49654","3.321","62.2","5.357","79.2","1003.828","16.18","76.83","-1.194","0.0"],
    [1412070,"2026-05-14 22:40:00","49655","3.8689999999999998","65.27","5.749","68.86","1003.745","16.1","77.15","-1.188","0.0"],
    [1412071,"2026-05-14 22:50:00","49656","2.635","51.8","5.88","48.96","1003.8","16.12","76.44","-1.18","0.0"],
    [1412072,"2026-05-14 23:00:00","49657","3.938","62.66","5.521","65.4","1003.727","16.14","75.46","-1.193","0.0"],
    [1412073,"2026-05-14 23:10:00","49658","2.237","55.88","4.377","64.14","1003.7080000000001","16.17","76.01","-1.193","0.0"],
    [1412074,"2026-05-14 23:20:00","49659","3.2910000000000004","67.82","5.194","75.86","1003.816","16.16","75.2","-1.193","0.0"],
    [1412075,"2026-05-14 23:30:00","49660","3.2439999999999998","51.52","5.096","44.9","1003.796","16.13","73.66","-1.193","0.0"],
    [1412076,"2026-05-14 23:40:00","49661","1.89","52.96","3.757","36.46","1003.7280000000001","16.07","74.53","-1.235","0.0"],
    [1412077,"2026-05-14 23:50:00","49662","1.7480000000000002","65.63","2.94","63.05","1003.654","16.07","75.71","-1.3319999999999999","0.0"],
    [1412078,"2026-05-15 00:00:00","49663","2.294","47.33","3.234","55.61","1003.5980000000001","16.03","73.84","-1.194","0.0"],
    [1412079,"2026-05-15 00:10:00","49664","1.624","42.3","2.711","57.54","1003.4780000000001","16.03","72.71","-1.193","0.0"],
    [1412080,"2026-05-15 00:20:00","49665","1.023","43.14","1.96","48","1003.365","16.0","72.71","-1.194","0.0"],
    [1412081,"2026-05-15 00:30:00","49666","0.42","39.73","1.797","24.68","1003.2189999999999","15.99","72.26","-1.2109999999999999","0.0"],
    [1412082,"2026-05-15 00:40:00","49667","0.863","19.76","1.405","1.469","1003.125","16.02","72.91","-1.23","0.0"],
    [1412083,"2026-05-15 00:50:00","49668","1.0190000000000001","67.64","1.862","87.5","1002.8389999999999","15.99","72.33","-1.214","0.0"],
    [1412084,"2026-05-15 01:00:00","49669","1.34","90.5","2.091","83.3","1002.578","16.04","73.26","-1.202","0.0"],
    [1412085,"2026-05-15 01:10:00","49670","0.551","92.0","1.666","79.83","1002.32","15.93","74.58","-1.265","0.0"],
    [1412086,"2026-05-15 01:20:00","49671","0.7290000000000001","175.0","1.666","178","1002.135","15.88","73.29","-1.6580000000000001","0.0"],
    [1412087,"2026-05-15 01:30:00","49672","0.615","196.9","1.927","209.6","1002.043","16.02","71.7","-1.367","0.0"],
    [1412088,"2026-05-15 01:40:00","49673","0.9390000000000001","202.6","2.221","224.9","1001.8330000000001","15.96","70.08","-2.261","0.0"],
    [1412089,"2026-05-15 01:50:00","49674","0.381","180.4","1.176","153.7","1001.505","15.74","62.53","-2.867","0.0"],
    [1412090,"2026-05-15 02:00:00","49675","1.149","212.2","2.581","263.4","1001.342","15.91","54.88","-2.238","0.0"],
    [1412091,"2026-05-15 02:10:00","49676","1.629","265.3","4.41","277.3","1001.4910000000001","16.12","52.06","-2.407","0.0"],
    [1412092,"2026-05-15 02:20:00","49677","2.417","256.4","4.867","263.6","1001.4760000000001","16.36","48.07","-1.9669999999999999","0.0"],
    [1412093,"2026-05-15 02:30:00","49678","2.529","247.3","6.272","280.5","1001.3439999999999","16.36","46.28","-1.402","0.0"],
    [1412094,"2026-05-15 02:40:00","49679","2.6430000000000002","258.7","5.096","258.4","1001.192","16.21","45.65","-1.24","0.0"],
    [1412095,"2026-05-15 02:50:00","49680","4.298","318.5","6.664","330","1001.247","15.9","50.48","-1.196","0.0"],
    [1412096,"2026-05-15 03:00:00","49681","4.62","331.8","7.317","344.2","1001.3639999999999","15.49","49.38","-1.195","0.0"],
    [1412097,"2026-05-15 03:10:00","49682","4.965","325.7","7.971","310.6","1001.487","15.19","49.77","-1.195","0.0"],
    [1412098,"2026-05-15 03:20:00","49683","3.536","324.7","5.815","317.1","1001.482","14.98","50.49","-1.212","0.0"],
    [1412099,"2026-05-15 03:30:00","49684","3.824","320.5","6.468","311.9","1001.445","14.8","51.1","-1.228","0.0"],
    [1412100,"2026-05-15 03:40:00","49685","4.217","314.6","6.305","305.1","1001.424","14.66","51.42","-1.3519999999999999","0.0"],
    [1412101,"2026-05-15 03:50:00","49686","3.398","321.9","6.501","322.1","1001.413","14.57","51.88","-1.916","0.0"],
    [1412102,"2026-05-15 04:00:00","49687","4.8839999999999995","315.5","7.611","317","1001.314","14.53","51.75","-1.9380000000000002","0.0"],
    [1412103,"2026-05-15 04:10:00","49688","5.93","316.6","9.57","311.5","1001.45","14.48","51.57","-1.7790000000000001","0.0"],
    [1412104,"2026-05-15 04:20:00","49689","5.132999999999999","322.8","8.85","314.7","1001.556","14.36","52.05","-1.284","0.0"],
    [1412105,"2026-05-15 04:30:00","49690","4.282","330.1","6.664","330.2","1001.54","14.23","52.92","-1.014","0.0"],
    [1412106,"2026-05-15 04:40:00","49691","4.099","329.0","6.109","313.8","1001.612","14.16","53.37","1.1079999999999999","0.0"],
    [1412107,"2026-05-15 04:50:00","49692","4.605","333.0","6.795","333","1001.742","14.07","53.83","5.685","0.0"],
    [1412108,"2026-05-15 05:00:00","49693","3.572","332.6","5.39","323.8","1001.8580000000001","13.99","54.62","11.45","0.0"],
    [1412109,"2026-05-15 05:10:00","49694","3.7510000000000003","328.2","5.782","334.3","1001.904","13.97","54.7","12.93","0.0"],
    [1412110,"2026-05-15 05:20:00","49695","3.835","313.8","5.39","321.2","1001.8639999999999","14.04","54.46","21.37","0.0"],
    [1412111,"2026-05-15 05:30:00","49696","3.509","308.1","5.292","326.4","1001.923","14.11","54.31","27.39","0.0"],
    [1412112,"2026-05-15 05:40:00","49697","3.696","331.5","6.174","329.3","1001.904","14.09","54.44","31.66","0.0"],
    [1412113,"2026-05-15 05:50:00","49698","3.016","326.9","5.031","332.7","1001.988","14.07","54.62","36.06","0.0"],
    [1412114,"2026-05-15 06:00:00","49699","3.071","327.5","4.965","333.1","1002.12","14.04","54.89","37.6","0.0"],
    [1412115,"2026-05-15 06:10:00","49700","3.2889999999999997","324.8","4.802","327.2","1002.2230000000001","14.04","55.12","35.18","0.0"],
    [1412116,"2026-05-15 06:20:00","49701","3.6010000000000004","317.0","5.586","309.9","1002.27","14.07","55.19","41.9","0.0"],
    [1412117,"2026-05-15 06:30:00","49702","3.662","324.3","5.423","329.6","1002.329","14.1","55.13","42.59","0.0"],
    [1412118,"2026-05-15 06:40:00","49703","4.474","321.7","6.664","321.6","1002.35","14.08","54.97","41.93","0.0"],
    [1412119,"2026-05-15 06:50:00","49704","4.28","321.8","6.893","312.8","1002.3760000000001","14.13","54.98","44.55","0.0"],
    [1412120,"2026-05-15 07:00:00","49705","4.82","323.0","8.43","309.3","1002.413","14.12","55.06","50.97","0.0"],
    [1412121,"2026-05-15 07:10:00","49706","4.428999999999999","309.5","7.089","302","1002.446","14.11","55.35","54.26","0.0"],
    [1412122,"2026-05-15 07:20:00","49707","3.833","319.9","5.815","322.8","1002.595","14.09","55.56","55.02","0.0"],
    [1412123,"2026-05-15 07:30:00","49708","3.054","315.6","4.867","307.7","1002.695","14.08","55.98","56.54","0.0"],
    [1412124,"2026-05-15 07:40:00","49709","3.127","316.8","4.802","312.9","1002.768","14.08","55.96","54.63","0.0"],
    [1412125,"2026-05-15 07:50:00","49710","2.464","321.4","4.312","312.8","1002.783","14.08","56.54","53.66","0.0"],
    [1412126,"2026-05-15 08:00:00","49711","2.7710000000000004","315.5","4.116","308.7","1002.809","14.11","55.95","55.59","0.0"],
    [1412127,"2026-05-15 08:10:00","49712","2.299","315.1","3.528","320.2","1002.919","14.16","55.83","58.45","0.0"],
    [1412128,"2026-05-15 08:20:00","49713","2.207","312.9","3.659","327.7","1003.057","14.2","55.92","62.72","0.0"],
    [1412129,"2026-05-15 08:30:00","49714","2.127","314.6","3.365","332.5","1003.2660000000001","14.25","55.63","61.85","0.0"],
    [1412130,"2026-05-15 08:40:00","49715","1.949","320.1","3.169","329.4","1003.434","14.26","56.03","67.6","0.0"],
    [1412131,"2026-05-15 08:50:00","49716","2.015","307.5","3.365","307.5","1003.6189999999999","14.28","55.92","79.74","0.0"],
    [1412132,"2026-05-15 09:00:00","49717","1.8869999999999998","312.2","3.136","327.5","1003.711","14.42","55.56","99.6","0.0"],
    [1412133,"2026-05-15 09:10:00","49718","1.5219999999999998","307.5","2.352","322","1003.722","14.63","55.22","136.5","0.0"],
    [1412134,"2026-05-15 09:20:00","49719","1.051","308.9","1.829","315.8","1003.635","14.78","54.75","152.9","0.0"],
    [1412135,"2026-05-15 09:30:00","49720","1.129","287.1","2.254","302.2","1003.697","14.94","54.26","163.3","0.0"],
    [1412136,"2026-05-15 09:40:00","49721","1.031","256.5","2.287","285.7","1003.74","15.07","54.32","178.3","0.0"],
    [1412137,"2026-05-15 09:50:00","49722","1.531","285.2","2.907","278.3","1003.8539999999999","15.17","53.45","181.7","0.0"],
    [1412138,"2026-05-15 10:00:00","49723","1.7380000000000002","272.3","3.038","274.3","1004.0089999999999","15.26","53.24","205.4","0.0"],
    [1412139,"2026-05-15 10:10:00","49724","1.598","264.6","3.201","239","1004.0939999999999","15.32","52.87","211.4","0.0"],
    [1412140,"2026-05-15 10:20:00","49725","2.099","239.7","3.92","232.1","1004.092","15.42","52.34","232.3","0.0"],
    [1412141,"2026-05-15 10:30:00","49726","2.656","280.1","4.051","285.3","1004.237","15.3","51.97","248.9","0.0"],
    [1412142,"2026-05-15 10:40:00","49727","2.467","225.5","4.247","220.3","1004.21","15.48","51.35","279.7","0.0"],
    [1412143,"2026-05-15 10:50:00","49728","1.653","224.9","2.94","207.8","1004.222","15.9","51.1","368.3","0.0"],
    [1412144,"2026-05-15 11:00:00","49729","2.64","266.7","5.161","286.5","1004.257","15.96","50.22","419.1","0.0"],
    [1412145,"2026-05-15 11:10:00","49730","3.33","289.2","5.227","265.7","1004.217","15.96","50.43","449.0","0.0"],
    [1412146,"2026-05-15 11:20:00","49731","2.577","278.9","4.312","277.7","1004.171","16.24","49.61","533.6","0.0"],
    [1412147,"2026-05-15 11:30:00","49732","3.011","285.0","4.769","273.5","1004.225","16.52","48.76","597.5","0.0"],
    [1412148,"2026-05-15 11:40:00","49733","2.168","292.5","4.377","285.9","1004.1519999999999","16.88","48.12","631.3","0.0"],
    [1412149,"2026-05-15 11:50:00","49734","1.9040000000000001","288.3","3.789","295.3","1004.0880000000001","17.34","47.34","700.6","0.0"],
    [1412150,"2026-05-15 12:00:00","49735","2.47","245.7","5.063","233.8","1004.056","17.62","46.62","613.6","0.0"],
    [1412151,"2026-05-15 12:10:00","49736","2.58","209.9","4.541","229","1004.0189999999999","17.48","47.31","703.7","0.0"],
    [1412152,"2026-05-15 12:20:00","49737","2.427","210.3","4.541","192.5","1004.067","18.09","45.85","701.9","0.0"],
    [1412153,"2026-05-15 12:30:00","49738","3.6519999999999997","198.8","6.207","226","1004.1510000000001","17.21","47.22","576.0","0.0"],
    [1412154,"2026-05-15 12:40:00","49739","3.4530000000000003","195.4","5.945","207","1004.215","17.59","46.18","727.2","0.0"],
    [1412155,"2026-05-15 12:50:00","49740","3.6630000000000003","193.0","6.435","184","1004.325","17.7","45.47","727.3","0.0"],
    [1412156,"2026-05-15 13:00:00","49741","3.5060000000000002","197.6","6.795","222.8","1004.3689999999999","17.58","46.15","773.5","0.0"],
    [1412157,"2026-05-15 13:10:00","49742","3.237","198.3","6.141","176.5","1004.505","17.63","46.11","619.1","0.0"],
    [1412158,"2026-05-15 13:20:00","49743","3.3489999999999998","205.0","5.815","224.3","1004.5310000000001","17.72","45.51","687.3","0.0"],
    [1412159,"2026-05-15 13:30:00","49744","4.202","183.8","6.37","184.9","1004.5260000000001","17.53","46.69","631.2","0.0"],
    [1412160,"2026-05-15 13:40:00","49745","4.058","202.0","6.762","211.5","1004.47","17.45","47.66","666.2","0.0"],
    [1412161,"2026-05-15 13:50:00","49746","3.5980000000000003","197.1","5.782","207.9","1004.4739999999999","17.96","46.47","706.0","0.0"],
    [1412162,"2026-05-15 14:00:00","49747","3.7510000000000003","193.1","6.599","182.8","1004.525","17.93","46.6","770.4","0.0"],
    [1412163,"2026-05-15 14:10:00","49748","4.06","184.4","7.611","178.2","1004.49","17.77","46.96","683.3","0.0"],
    [1412164,"2026-05-15 14:20:00","49749","4.0089999999999995","190.3","8.13","177.9","1004.581","17.8","48.06","734.6","0.0"],
    [1412165,"2026-05-15 14:30:00","49750","3.714","185.8","5.913","176.1","1004.581","17.86","47.61","620.7","0.0"],
    [1412166,"2026-05-15 14:40:00","49751","3.392","208.6","5.782","171.2","1004.796","17.24","49.44","255.7","0.0"],
    [1412167,"2026-05-15 14:50:00","49752","2.565","230.2","6.403","204.8","1005.2489999999999","16.59","51.46","58.78","0.0"],
    [1412168,"2026-05-15 15:00:00","49753","2.8760000000000003","252.3","6.109","302.1","1005.5269999999999","16.11","57.39","22.16","0.0"],
    [1412169,"2026-05-15 15:10:00","49754","2.77","197.3","7.252","299.7","1005.0989999999999","15.07","53.53","62.16","0.0"],
    [1412170,"2026-05-15 15:20:00","49755","3.377","167.2","6.468","171.5","1004.6210000000001","14.85","56.19","182.0","0.0"],
    [1412171,"2026-05-15 15:30:00","49756","3.4339999999999997","177.3","5.749","177.9","1004.813","15.18","58.05","477.0","0.0"],
    [1412172,"2026-05-15 15:40:00","49757","2.258","167.5","4.377","176.6","1004.898","16.25","51.82","466.3","0.0"],
    [1412173,"2026-05-15 15:50:00","49758","2.136","154.2","4.475","172.9","1005.102","17.08","45.37","558.2","0.0"],
    [1412174,"2026-05-15 16:00:00","49759","1.4580000000000002","97.5","2.973","43.37","1005.304","17.2","45.14","198.1","0.0"],
    [1412175,"2026-05-15 16:10:00","49760","5.352","69.84","9.64","69.11","1005.5189999999999","16.43","51.51","132.8","0.0"],
    [1412176,"2026-05-15 16:20:00","49761","6.297000000000001","72.27","8.85","72.05","1005.706","14.91","64.08","176.0","0.0"],
    [1412177,"2026-05-15 16:30:00","49762","6.261","67.85","8.92","68.03","1005.875","15.03","61.54","262.1","0.0"],
    [1412178,"2026-05-15 16:40:00","49763","6.004","75.88","8.75","87.5","1006.177","14.97","61.71","226.2","0.0"],
    [1412179,"2026-05-15 16:50:00","49764","5.539","77.83","8","71.18","1006.258","15.13","59.51","328.6","0.0"],
    [1412180,"2026-05-15 17:00:00","49765","5.135","80.1","7.056","94.9","1006.263","15.33","57.21","341.0","0.0"],
    [1412181,"2026-05-15 17:10:00","49766","4.32","83.4","7.121","86.5","1006.432","15.15","58.49","121.0","0.0"],
    [1412182,"2026-05-15 17:20:00","49767","3.945","82.0","5.749","77.04","1006.587","14.94","59.22","77.32","0.0"],
    [1412183,"2026-05-15 17:30:00","49768","4.029","84.1","5.913","77.03","1006.559","14.92","58.85","73.27","0.0"],
    [1412184,"2026-05-15 17:40:00","49769","3.4760000000000004","91.3","5.227","76.64","1006.648","15.01","58.39","71.3","0.0"],
    [1412185,"2026-05-15 17:50:00","49770","2.99","97.0","4.639","95.2","1006.7710000000001","14.92","58.18","71.9","0.0"],
    [1412186,"2026-05-15 18:00:00","49771","2.517","97.9","4.965","87.2","1006.873","14.91","59.62","54.22","0.0"],
    [1412187,"2026-05-15 18:10:00","49772","3.0389999999999997","91.3","4.279","83.8","1007.1410000000001","14.92","59.14","95.2","0.0"],
    [1412188,"2026-05-15 18:20:00","49773","2.246","100.9","4.639","93.2","1007.232","15.24","60.04","115.0","0.0"],
    [1412189,"2026-05-15 18:30:00","49774","2.824","96.8","4.312","90.1","1007.2689999999999","15.16","60.95","61.57","0.0"],
    [1412190,"2026-05-15 18:40:00","49775","2.397","100.1","4.606","104.5","1007.565","14.98","61.97","27.17","0.0"],
    [1412191,"2026-05-15 18:50:00","49776","2.033","98.9","3.757","107","1007.705","14.86","61.9","11.09","0.0"],
    [1412192,"2026-05-15 19:00:00","49777","2.353","95.3","3.757","92","1007.816","14.84","63.03","4.588","0.0"],
    [1412193,"2026-05-15 19:10:00","49778","1.45","97.9","2.613","121.2","1007.935","14.8","63.69","0.836","0.0"],
    [1412194,"2026-05-15 19:20:00","49779","1.4069999999999998","106.6","2.548","118","1008.015","14.82","63.61","-1.129","0.0"],
    [1412195,"2026-05-15 19:30:00","49780","1.392","107.8","2.907","113.8","1008.13","14.85","64.04","-2.2640000000000002","0.0"],
    [1412196,"2026-05-15 19:40:00","49781","1.815","104.9","3.038","103.7","1008.307","14.88","64.02","-2.702","0.0"],
    [1412197,"2026-05-15 19:50:00","49782","0.882","119.6","2.385","104.8","1008.59","14.76","64.63","-2.6919999999999997","0.0"],
    [1412198,"2026-05-15 20:00:00","49783","0.43200000000000005","114.9","1.633","97.7","1008.79","14.73","64.81","-1.9180000000000001","0.0"],
    [1412199,"2026-05-15 20:10:00","49784","0.741","122.7","2.319","102.4","1008.9119999999999","14.7","65.53","-1.8430000000000002","0.0"],
    [1412200,"2026-05-15 20:20:00","49785","0.825","124.1","2.646","141.4","1009.079","14.62","67.52","-2.7260000000000004","0.0"],
    [1412201,"2026-05-15 20:30:00","49786","0.9570000000000001","121.3","2.711","124.4","1009.21","14.49","70.43","-2.841","0.0"],
    [1412202,"2026-05-15 20:40:00","49787","0.69","121.8","2.417","189.9","1009.3689999999999","14.32","71.52","-2.727","0.0"],
    [1412203,"2026-05-15 20:50:00","49788","1.273","162.7","3.659","155.6","1009.5189999999999","14.14","72.23","-2.7430000000000003","0.0"],
    [1412204,"2026-05-15 21:00:00","49789","1.393","170.1","3.92","167.2","1009.597","14.08","72.99","-2.7289999999999996","0.0"],
    [1412205,"2026-05-15 21:10:00","49790","0.752","146.5","2.548","136.5","1009.673","13.9","73.53","-2.7289999999999996","0.0"],
    [1412206,"2026-05-15 21:20:00","49791","0.7929999999999999","163.7","2.254","174","1009.86","13.76","73.39","-2.792","0.0"],
    [1412207,"2026-05-15 21:30:00","49792","0.2","159.9","1.045","143.2","1010.023","13.75","72.83","-2.739","0.0"],
    [1412208,"2026-05-15 21:40:00","49793","0.287","143.0","1.078","115.6","1010.056","13.64","73.82","-2.772","0.0"],
    [1412209,"2026-05-15 21:50:00","49794","0.33799999999999997","161.4","1.045","115.5","1010.1239999999999","13.73","73.95","-2.734","0.0"],
    [1412210,"2026-05-15 22:00:00","49795","0.843","188.3","1.405","190.9","1010.159","13.76","74.3","-2.73","0.0"],
    [1412211,"2026-05-15 22:10:00","49796","0.381","185.9","0.947","176.6","1010.304","13.68","74.75","-2.685","0.0"],
    [1412212,"2026-05-15 22:20:00","49797","0.039","170.8","0.588","168.3","1010.3910000000001","13.51","75.65","-1.834","0.0"],
    [1412213,"2026-05-15 22:30:00","49798","0.004","171.4","0.327","171.4","1010.427","13.66","75.57","-1.8419999999999999","0.0"],
    [1412214,"2026-05-15 22:40:00","49799","0.355","283.8","1.47","295.5","1010.5260000000001","13.71","76.3","-1.261","0.0"],
    [1412215,"2026-05-15 22:50:00","49800","1.036","300.9","1.503","279.2","1010.6260000000001","13.62","77.78","-0.9540000000000001","0.0"],
    [1412216,"2026-05-15 23:00:00","49801","0.899","275.8","1.797","254.1","1010.534","13.68","77.1","-1.516","0.0"],
    [1412217,"2026-05-15 23:10:00","49802","0.972","268.4","1.829","286.9","1010.567","13.56","77.33","-2.739","0.0"],
    [1412218,"2026-05-15 23:20:00","49803","1.068","281.8","1.862","290.5","1010.6080000000001","13.24","78.67","-2.7489999999999997","0.0"],
    [1412219,"2026-05-15 23:30:00","49804","0.78","304.6","1.797","304.9","1010.628","12.57","81.3","-2.7769999999999997","0.0"],
    [1412220,"2026-05-15 23:40:00","49805","0.742","315.4","1.339","319.6","1010.595","12.4","81.8","-2.7710000000000004","0.0"],
    [1412221,"2026-05-15 23:50:00","49806","0.728","282.4","2.091","330","1010.6010000000001","12.68","80.1","-2.551","0.0"],
    [1412222,"2026-05-16 00:00:00","49807","0.8220000000000001","330.0","1.339","327.8","1010.597","13.02","78.49","-1.51","0.0"],
    [1412223,"2026-05-16 00:10:00","49808","0.594","328.4","1.731","321.1","1010.625","12.97","78.99","-1.426","0.0"],
    [1412224,"2026-05-16 00:20:00","49809","0.976","282.2","1.927","278.4","1010.6419999999999","12.94","78.82","-1.746","0.0"],
    [1412225,"2026-05-16 00:30:00","49810","1.484","269.1","2.515","264.6","1010.687","12.53","79.09","-1.699","0.0"],
    [1412226,"2026-05-16 00:40:00","49811","1.171","286.5","2.483","272.4","1010.612","12.17","80.2","-2.251","0.0"],
    [1412227,"2026-05-16 00:50:00","49812","0.75","286.2","1.437","296.8","1010.617","11.97","81.4","-2.7539999999999996","0.0"],
    [1412228,"2026-05-16 01:00:00","49813","0.612","282.1","1.437","279.8","1010.535","12.06","81.3","-2.7569999999999997","0.0"],
    [1412229,"2026-05-16 01:10:00","49814","1.3159999999999998","289.0","2.123","294.3","1010.54","11.94","81.5","-2.779","0.0"],
    [1412230,"2026-05-16 01:20:00","49815","1.768","280.5","2.646","274.4","1010.587","11.52","83.0","-2.7460000000000004","0.0"],
    [1412231,"2026-05-16 01:30:00","49816","1.2830000000000001","285.7","2.483","277.7","1010.6460000000001","11.63","82.6","-1.5919999999999999","0.0"],
    [1412232,"2026-05-16 01:40:00","49817","1.405","300.9","2.94","303.2","1010.697","11.76","82.6","-1.466","0.0"],
    [1412233,"2026-05-16 01:50:00","49818","1.712","305.3","2.417","322.2","1010.72","11.94","81.6","-2.563","0.0"],
    [1412234,"2026-05-16 02:00:00","49819","2.0469999999999997","323.2","3.365","304.1","1010.785","12.21","79.12","-2.761","0.0"],
    [1412235,"2026-05-16 02:10:00","49820","3.1660000000000004","322.6","4.933","315.2","1010.96","12.52","67.53","-2.747","0.0"],
    [1412236,"2026-05-16 02:20:00","49821","3.502","317.5","5.521","317","1010.9780000000001","12.59","61.18","-2.654","0.0"],
    [1412237,"2026-05-16 02:30:00","49822","3.775","315.9","6.435","330.4","1011.0830000000001","12.49","59.78","-2.182","0.0"],
    [1412238,"2026-05-16 02:40:00","49823","4.211","309.6","6.533","327","1011.194","12.29","61.17","-2.35","0.0"],
    [1412239,"2026-05-16 02:50:00","49824","4.54","312.3","7.709","319.2","1011.24","12.2","59.1","-2.519","0.0"],
    [1412240,"2026-05-16 03:00:00","49825","4.271","312.7","6.958","309.8","1011.1460000000001","11.99","58.32","-2.7089999999999996","0.0"],
    [1412241,"2026-05-16 03:10:00","49826","4.728","310.2","8.1","309.8","1011.205","11.8","57.38","-2.6439999999999997","0.0"],
    [1412242,"2026-05-16 03:30:00","49827","4.456","310.4","7.219","288.4","1011.1619999999999","11.49","57.32","-2.759","0.0"],
    [1412243,"2026-05-16 03:40:00","49828","4.48","312.7","8.07","323.2","1011.23","11.41","57.86","-2.76","0.0"],
    [1412244,"2026-05-16 03:50:00","49829","5.3229999999999995","310.0","9.11","307.2","1011.2589999999999","11.32","58.11","-2.616","0.0"],
    [1412245,"2026-05-16 04:00:00","49830","5.317","308.2","8.33","314.4","1011.2689999999999","11.11","59.58","-2.526","0.0"],
    [1412246,"2026-05-16 04:10:00","49831","6.05","313.8","8.85","320.4","1011.197","11.08","59.66","-2.613","0.0"],
    [1412247,"2026-05-16 04:20:00","49832","3.7239999999999998","304.0","7.807","315.2","1011.2860000000001","10.91","60.91","-1.626","0.0"],
    [1412248,"2026-05-16 04:30:00","49833","2.9760000000000004","297.4","5.063","309.9","1011.367","10.62","62.68","-0.384","0.0"],
    [1412249,"2026-05-16 04:40:00","49834","2.612","285.6","4.279","293.3","1011.543","10.31","64.31","2.98","0.0"],
    [1412250,"2026-05-16 04:50:00","49835","3.1060000000000003","285.4","4.704","290.4","1011.638","10.32","64.36","12.21","0.0"],
    [1412251,"2026-05-16 05:00:00","49836","3.036","279.7","5.227","277.7","1011.7339999999999","10.39","63.74","31.34","0.0"],
    [1412252,"2026-05-16 05:10:00","49837","3.502","287.0","5.488","285.1","1011.8439999999999","10.4","63.0","53.93","0.0"],
    [1412253,"2026-05-16 05:20:00","49838","3.7910000000000004","293.4","6.174","293.8","1011.903","10.6","61.79","70.11","0.0"],
    [1412254,"2026-05-16 05:30:00","49839","4.006","289.7","6.631","289","1012.0160000000001","10.69","61.64","107.6","0.0"],
    [1412255,"2026-05-16 05:40:00","49840","4.727","289.6","8.33","295.1","1012.206","10.96","59.86","136.9","0.0"],
    [1412256,"2026-05-16 05:50:00","49841","4.211","280.5","7.056","286","1012.447","11.21","58.06","167.9","0.0"],
    [1412257,"2026-05-16 06:00:00","49842","3.108","295.6","5.423","281","1012.625","11.46","57.14","199.7","0.0"],
    [1412258,"2026-05-16 06:10:00","49843","3.022","300.7","5.096","321.3","1012.643","11.78","55.93","232.9","0.0"],
    [1412259,"2026-05-16 06:20:00","49844","3.156","305.8","6.697","314.5","1012.685","12.03","54.95","267.6","0.0"],
    [1412260,"2026-05-16 06:30:00","49845","3.8289999999999997","318.9","5.521","322.5","1012.586","12.08","54.72","303.2","0.0"],
    [1412261,"2026-05-16 06:40:00","49846","3.5789999999999997","314.8","6.337","329.7","1012.6210000000001","12.37","54.18","337.4","0.0"],
    [1412262,"2026-05-16 06:50:00","49847","4.235","323.2","6.239","324","1012.6469999999999","12.36","54.17","372.7","0.0"],
    [1412263,"2026-05-16 07:00:00","49848","3.7769999999999997","310.4","5.913","307.6","1012.7310000000001","12.69","53.5","406.0","0.0"],
    [1412264,"2026-05-16 07:10:00","49849","4.613","303.2","6.631","302","1012.566","12.75","52.69","442.3","0.0"],
    [1412265,"2026-05-16 07:20:00","49850","5.03","304.1","7.089","311.1","1012.653","13.14","51.24","476.1","0.0"],
    [1412266,"2026-05-16 07:30:00","49851","5.271","313.3","7.383","312.5","1012.748","13.56","49.56","509.5","0.0"],
    [1412267,"2026-05-16 07:40:00","49852","5.185","316.5","7.285","314.9","1012.755","13.76","48.54","541.3","0.0"],
    [1412268,"2026-05-16 07:50:00","49853","4.85","328.9","6.305","334.7","1012.704","14.26","46.63","573.8","0.0"],
    [1412269,"2026-05-16 08:00:00","49854","4.263999999999999","328.7","6.305","327.9","1012.6030000000001","14.81","45.77","606.4","0.0"],
    [1412270,"2026-05-16 08:10:00","49855","3.8960000000000004","325.1","6.109","313.9","1012.5989999999999","15.37","45.03","637.4","0.0"],
    [1412271,"2026-05-16 08:20:00","49856","4.001","310.4","5.488","308.5","1012.613","15.59","44.65","627.4","0.0"],
    [1412272,"2026-05-16 08:30:00","49857","3.173","302.8","4.998","313.1","1012.809","16.01","43.71","693.6","0.0"],
    [1412273,"2026-05-16 08:40:00","49858","3.388","316.8","5.325","280.8","1012.862","16.5","42.05","687.5","0.0"],
    [1412274,"2026-05-16 08:50:00","49859","3.838","319.2","5.815","314.5","1012.837","16.97","41.54","751.4","0.0"],
    [1412275,"2026-05-16 09:00:00","49860","4.118","312.8","5.847","309.7","1012.88","17.55","38.79","777.0","0.0"],
    [1412276,"2026-05-16 09:10:00","49861","2.9939999999999998","300.9","4.475","307.9","1012.828","17.85","36.94","799.7","0.0"],
    [1412277,"2026-05-16 09:20:00","49862","1.9240000000000002","311.0","3.985","328.9","1012.8","18.61","33.48","820.0","0.0"],
    [1412278,"2026-05-16 09:30:00","49863","1.103","55.14","2.711","51.45","1012.803","19.03","31.23","842.0","0.0"],
    [1412279,"2026-05-16 09:40:00","49864","2.2640000000000002","110.7","4.769","130","1012.914","18.56","36.42","861.0","0.0"],
    [1412280,"2026-05-16 09:50:00","49865","2.299","110.6","5.521","123.7","1013.085","17.85","41.4","879.0","0.0"],
    [1412281,"2026-05-16 10:00:00","49866","1.526","114.8","3.528","159.6","1013.07","18.39","38.95","897.0","0.0"],
    [1412282,"2026-05-16 10:10:00","49867","2.023","113.8","3.985","111.4","1013.117","17.98","39.43","917.0","0.0"],
    [1412283,"2026-05-16 10:20:00","49868","2.17","115.4","4.247","129.1","1013.216","18.02","41.18","930.0","0.0"],
    [1412284,"2026-05-16 10:30:00","49869","1.6030000000000002","134.2","4.051","176.5","1013.2139999999999","18.0","42.61","941.0","0.0"],
    [1412285,"2026-05-16 10:40:00","49870","1.709","120.2","5.619","165.1","1013.332","18.16","41.82","951.0","0.0"],
    [1412286,"2026-05-16 10:50:00","49871","1.5730000000000002","138.2","3.659","112.7","1013.385","18.62","40.64","962.0","0.0"],
    [1412287,"2026-05-16 11:00:00","49872","2.231","180.0","5.194","186.7","1013.332","18.22","38.39","975.0","0.0"],
    [1412288,"2026-05-16 11:10:00","49873","2.2230000000000003","182.0","4.606","217","1013.3380000000001","18.34","39.78","983.0","0.0"],
    [1412289,"2026-05-16 11:20:00","49874","2.7510000000000003","187.1","4.933","172.4","1013.309","17.78","37.39","992.0","0.0"],
    [1412290,"2026-05-16 11:30:00","49875","2.336","182.3","5.161","221.6","1013.294","17.63","43.25","994.0","0.0"],
    [1412291,"2026-05-16 11:40:00","49876","2.735","189.6","4.933","162.7","1013.2819999999999","17.74","46.34","995.0","0.0"],
    [1412292,"2026-05-16 11:50:00","49877","2.35","200.0","4.639","185.3","1013.2239999999999","18.33","46.53","994.0","0.0"],
    [1412293,"2026-05-16 12:00:00","49878","2.778","199.5","5.684","182","1013.263","17.94","46.87","995.0","0.0"],
    [1412294,"2026-05-16 12:10:00","49879","2.759","178.3","4.802","166.2","1013.347","17.85","47.33","991.0","0.0"],
    [1412295,"2026-05-16 12:20:00","49880","2.9360000000000004","193.0","5.455","226.4","1013.43","17.75","46.94","986.0","0.0"],
    [1412296,"2026-05-16 12:30:00","49881","3.201","181.5","5.325","168.4","1013.4019999999999","17.64","45.51","981.0","0.0"],
    [1412297,"2026-05-16 12:40:00","49882","2.9810000000000003","190.5","5.096","179.5","1013.437","18.24","44.65","972.0","0.0"],
    [1412298,"2026-05-16 12:50:00","49883","3.466","184.3","6.403","183.5","1013.4110000000001","17.91","46.16","964.0","0.0"],
    [1412299,"2026-05-16 13:00:00","49884","3.988","180.0","5.978","187.4","1013.3910000000001","17.36","47.0","959.0","0.0"],
    [1412300,"2026-05-16 13:10:00","49885","3.281","181.3","6.076","185.2","1013.4689999999999","17.86","46.03","959.0","0.0"],
    [1412301,"2026-05-16 13:20:00","49886","2.966","191.2","5.39","169.1","1013.52","18.27","44.4","990.0","0.0"],
    [1412302,"2026-05-16 13:30:00","49887","3.2030000000000003","177.7","5.586","172.3","1013.565","18.16","44.69","966.0","0.0"],
    [1412303,"2026-05-16 13:40:00","49888","2.863","187.5","5.194","209.8","1013.572","18.14","42.78","613.0","0.0"],
    [1412304,"2026-05-16 13:50:00","49889","3.158","194.0","5.684","168.3","1013.612","18.14","44.02","912.0","0.0"],
    [1412305,"2026-05-16 14:00:00","49890","3.339","181.6","6.109","160.2","1013.654","17.76","47.83","865.0","0.0"],
    [1412306,"2026-05-16 14:10:00","49891","2.734","188.8","5.521","187","1013.665","18.46","48.2","848.0","0.0"],
    [1412307,"2026-05-16 14:20:00","49892","2.26","178.1","4.998","170.9","1013.6030000000001","18.1","49.23","830.0","0.0"],
    [1412308,"2026-05-16 14:30:00","49893","1.22","136.8","3.659","96.5","1013.566","18.82","47.87","813.0","0.0"],
    [1412309,"2026-05-16 14:40:00","49894","1.7","124.9","3.724","85.8","1013.515","19.24","47.49","776.2","0.0"],
    [1412310,"2026-05-16 14:50:00","49895","1.786","122.2","4.41","127.3","1013.4680000000001","17.9","50.89","462.7","0.0"],
    [1412311,"2026-05-16 15:00:00","49896","1.65","121.7","4.9","191.6","1013.3839999999999","18.78","48.06","826.0","0.0"],
    [1412312,"2026-05-16 15:10:00","49897","2.338","151.5","4.443","123.2","1013.4110000000001","18.59","47.13","774.3","0.0"],
    [1412313,"2026-05-16 15:20:00","49898","1.932","163.3","5.39","179.2","1013.438","18.65","46.15","708.0","0.0"],
    [1412314,"2026-05-16 15:30:00","49899","2.1719999999999997","145.4","4.9","187.8","1013.4689999999999","18.53","46.55","648.0","0.0"],
    [1412315,"2026-05-16 15:40:00","49900","1.7180000000000002","124.6","4.671","111","1013.3889999999999","18.32","47.43","584.1","0.0"],
    [1412316,"2026-05-16 15:50:00","49901","1.743","134.1","4.475","174.2","1013.4010000000001","18.32","48.02","568.7","0.0"],
    [1412317,"2026-05-16 16:00:00","49902","1.345","134.7","4.018","158.6","1013.4010000000001","18.39","47.45","521.8","0.0"],
    [1412318,"2026-05-16 16:10:00","49903","1.5290000000000001","129.0","3.659","116.9","1013.3760000000001","18.3","46.88","516.2","0.0"],
    [1412319,"2026-05-16 16:20:00","49904","1.249","117.6","3.463","63.54","1013.3560000000001","18.26","46.82","483.1","0.0"],
    [1412320,"2026-05-16 16:30:00","49905","1.598","121.7","3.953","97.4","1013.306","18.25","46.43","450.3","0.0"],
    [1412321,"2026-05-16 16:40:00","49906","1.7519999999999998","124.8","3.299","125.4","1013.215","18.04","46.21","417.8","0.0"],
    [1412322,"2026-05-16 16:50:00","49907","1.379","140.9","3.332","107.1","1013.1569999999999","18.09","44.79","383.9","0.0"],
    [1412323,"2026-05-16 17:00:00","49908","1.162","123.5","3.626","140.8","1013.012","18.14","43.21","350.5","0.0"],
    [1412324,"2026-05-16 17:10:00","49909","2.242","104.1","5.782","120.1","1012.9639999999999","17.92","42.9","317.4","0.0"],
    [1412325,"2026-05-16 17:20:00","49910","1.683","112.3","3.561","107.7","1012.955","17.88","43.37","283.1","0.0"],
    [1412326,"2026-05-16 17:30:00","49911","1.9680000000000002","102.5","4.279","109.8","1012.926","17.75","44.4","249.8","0.0"],
    [1412327,"2026-05-16 17:40:00","49912","2.8080000000000003","92.1","5.553","64.97","1012.9110000000001","17.52","44.58","216.5","0.0"],
    [1412328,"2026-05-16 17:50:00","49913","3.551","88.3","4.933","72","1013.0010000000001","17.35","46.08","183.5","0.0"],
    [1412329,"2026-05-16 18:00:00","49914","2.833","97.2","4.181","103.2","1013.1469999999999","17.38","43.94","151.6","0.0"],
    [1412330,"2026-05-16 18:10:00","49915","3.634","88.0","5.063","82","1013.18","17.31","43.64","122.3","0.0"],
    [1412331,"2026-05-16 18:20:00","49916","3.3560000000000003","83.2","5.455","81","1013.265","17.28","43.94","93.7","0.0"],
    [1412332,"2026-05-16 18:30:00","49917","3.5180000000000002","81.3","5.847","63.25","1013.362","17.22","46.11","66.48","0.0"],
    [1412333,"2026-05-16 18:40:00","49918","3.668","83.1","5.619","77.28","1013.5980000000001","16.99","49.7","41.66","0.0"],
    [1412334,"2026-05-16 18:50:00","49919","3.2510000000000003","83.3","5.521","87.8","1013.822","16.84","51.36","21.2","0.0"],
    [1412335,"2026-05-16 19:00:00","49920","2.827","91.6","4.443","68.35","1014.0269999999999","16.73","51.46","7.365","0.0"],
    [1412336,"2026-05-16 19:10:00","49921","2.786","93.7","4.508","99.6","1014.284","16.63","52.64","0.6679999999999999","0.0"],
    [1412337,"2026-05-16 19:20:00","49922","2.9160000000000004","84.1","4.443","89.9","1014.4169999999999","16.58","53.91","-1.8969999999999998","0.0"],
    [1412338,"2026-05-16 19:30:00","49923","2.767","85.5","4.051","95.1","1014.6039999999999","16.56","54.72","-1.99","0.0"],
    [1412339,"2026-05-16 19:40:00","49924","2.804","79.36","4.345","61.25","1014.748","16.68","54.22","-1.864","0.0"],
    [1412340,"2026-05-16 19:50:00","49925","2.536","91.3","3.789","105.3","1014.953","16.74","55.34","-1.483","0.0"],
    [1412341,"2026-05-16 20:00:00","49926","1.92","101.6","3.136","83","1015.159","16.68","56.19","-1.258","0.0"],
    [1412342,"2026-05-16 20:10:00","49927","2.392","97.9","3.561","94.3","1015.405","16.68","57.29","-1.28","0.0"],
    [1412343,"2026-05-16 20:20:00","49928","1.5519999999999998","97.5","3.136","96.5","1015.596","16.68","58.42","-1.25","0.0"],
    [1412344,"2026-05-16 20:30:00","49929","1.217","117.2","2.515","136.6","1015.79","16.65","60.09","-1.227","0.0"],
    [1412345,"2026-05-16 20:40:00","49930","1.4280000000000002","109.9","3.495","106.8","1015.959","16.66","61.66","-1.255","0.0"],
    [1412346,"2026-05-16 20:50:00","49931","1.2919999999999998","108.8","2.646","114.1","1016.133","16.68","63.06","-1.207","0.0"],
    [1412347,"2026-05-16 21:00:00","49932","1.182","111.1","2.548","125.6","1016.309","16.71","63.6","-1.21","0.0"],
    [1412348,"2026-05-16 21:10:00","49933","0.445","141.6","1.797","202.5","1016.4069999999999","16.66","64.5","-1.2109999999999999","0.0"],
    [1412349,"2026-05-16 21:20:00","49934","1.077","122.2","2.385","177.9","1016.393","16.62","63.64","-1.208","0.0"],
    [1412350,"2026-05-16 21:30:00","49935","0.618","141.5","2.352","116.9","1016.388","16.6","63.21","-1.215","0.0"],
    [1412351,"2026-05-16 21:40:00","49936","0.442","154.1","1.731","168.9","1016.439","16.58","62.57","-1.268","0.0"],
    [1412352,"2026-05-16 21:50:00","49937","1.1320000000000001","172.9","2.875","160.9","1016.485","16.61","62.8","-1.3130000000000002","0.0"],
    [1412353,"2026-05-16 22:00:00","49938","1.405","170.3","3.365","174.6","1016.552","16.66","63.8","-1.197","0.0"],
    [1412354,"2026-05-16 22:10:00","49939","1.4680000000000002","161.7","3.463","167.3","1016.607","16.68","65.24","-1.193","0.0"],
    [1412355,"2026-05-16 22:20:00","49940","0.613","145.1","3.169","190","1016.664","16.68","66.03","-1.193","0.0"],
    [1412356,"2026-05-16 22:30:00","49941","1.0959999999999999","167.4","3.071","167.7","1016.673","16.68","66.85","-1.195","0.0"],
    [1412357,"2026-05-16 22:40:00","49942","1.1909999999999998","162.7","4.051","168.9","1016.612","16.65","67.84","-1.194","0.0"],
    [1412358,"2026-05-16 22:50:00","49943","0.8","163.9","2.254","156.1","1016.53","16.61","68.3","-1.195","0.0"],
    [1412359,"2026-05-16 23:00:00","49944","0.912","145.9","3.332","175.8","1016.415","16.56","68.8","-1.194","0.0"],
    [1412360,"2026-05-16 23:10:00","49945","1.567","170.9","3.038","167.8","1016.326","16.49","69.04","-1.199","0.0"],
    [1412361,"2026-05-16 23:20:00","49946","1.797","168.1","3.332","175","1016.221","16.46","68.34","-1.194","0.0"],
    [1412362,"2026-05-16 23:30:00","49947","1.656","170.3","3.234","168.9","1016.164","16.42","68.13","-1.194","0.0"],
    [1412363,"2026-05-16 23:40:00","49948","1.32","172.1","3.43","178.4","1016.0939999999999","16.41","68.58","-1.194","0.0"],
    [1412364,"2026-05-16 23:50:00","49949","1.018","172.9","2.581","208.4","1016.012","16.4","69.19","-1.199","0.0"],
    [1412365,"2026-05-17 00:00:00","49950","1.656","179.9","2.809","199.7","1015.977","16.41","68.63","-1.194","0.0"],
    [1412366,"2026-05-17 00:10:00","49951","1.339","174.6","2.809","183.7","1015.834","16.45","67.75","-1.199","0.0"],
    [1412367,"2026-05-17 00:20:00","49952","0.7559999999999999","161.1","2.091","202.9","1015.676","16.44","67.42","-1.204","0.0"],
    [1412368,"2026-05-17 00:30:00","49953","1.097","178.5","2.417","154.3","1015.549","16.44","65.85","-1.239","0.0"],
    [1412369,"2026-05-17 00:40:00","49954","1.026","189.8","1.764","164.5","1015.426","16.48","64.84","-1.226","0.0"],
    [1412370,"2026-05-17 00:50:00","49955","0.46399999999999997","175.0","1.601","202.5","1015.2860000000001","16.45","64.53","-1.239","0.0"],
    [1412371,"2026-05-17 01:00:00","49956","0.462","213.4","1.176","229","1015.1560000000001","16.37","65.39","-1.643","0.0"],
    [1412372,"2026-05-17 01:10:00","49957","0.35","219.3","1.111","220.9","1015.128","16.26","66.12","-1.9169999999999998","0.0"],
    [1412373,"2026-05-17 01:20:00","49958","0.042","229.1","0.621","228","1015.1210000000001","16.09","66.58","-1.953","0.0"],
    [1412374,"2026-05-17 01:30:00","49959","0.21899999999999997","146.1","0.915","154.1","1015.086","16.07","66.33","-1.9880000000000002","0.0"],
    [1412375,"2026-05-17 01:40:00","49960","0.073","151.2","0.98","142.1","1015.0360000000001","16.0","66.49","-1.942","0.0"],
    [1412376,"2026-05-17 01:50:00","49961","0.248","148.4","1.013","157.3","1014.9910000000001","16.06","65.79","-1.956","0.0"],
    [1412377,"2026-05-17 02:00:00","49962","0.255","133.5","1.241","124.7","1014.938","15.99","65.55","-2.269","0.0"],
    [1412378,"2026-05-17 02:10:00","49963","0.15","139.6","0.784","146.9","1014.898","15.96","65.35","-2.696","0.0"],
    [1412379,"2026-05-17 02:20:00","49964","0.18","132.5","0.882","139.7","1014.904","15.8","65.6","-2.7119999999999997","0.0"],
    [1412380,"2026-05-17 02:30:00","49965","0.479","161.2","1.241","189.1","1014.903","15.7","65.89","-2.708","0.0"],
    [1412381,"2026-05-17 02:40:00","49966","0.6579999999999999","181.9","1.339","195.2","1014.9069999999999","15.76","65.75","-2.708","0.0"],
    [1412382,"2026-05-17 02:50:00","49967","0.39899999999999997","246.7","1.993","293.6","1014.925","15.55","66.44","-2.667","0.0"],
    [1412383,"2026-05-17 03:00:00","49968","1.341","301.6","2.025","295","1014.885","14.61","71.23","-2.582","0.0"],
    [1412384,"2026-05-17 03:10:00","49969","0.945","306.7","1.307","307.8","1014.82","14.3","72.77","-2.7239999999999998","0.0"],
    [1412385,"2026-05-17 03:20:00","49970","0.628","301.3","0.882","298.4","1014.795","14.24","73.38","-2.71","0.0"],
    [1412386,"2026-05-17 03:30:00","49971","0.682","303.7","1.209","295.6","1014.705","14.16","73.7","-2.6039999999999996","0.0"],
    [1412387,"2026-05-17 03:40:00","49972","0.664","302.3","1.111","309.5","1014.63","13.99","74.47","-2.7239999999999998","0.0"],
    [1412388,"2026-05-17 03:50:00","49973","0.765","297.2","1.045","291.8","1014.6419999999999","13.99","74.86","-2.694","0.0"],
    [1412389,"2026-05-17 04:00:00","49974","0.40299999999999997","288.3","0.98","289.7","1014.596","14.02","74.87","-2.13","0.0"],
    [1412390,"2026-05-17 04:10:00","49975","0.26","289.8","0.555","290.1","1014.552","13.72","76.0","-1.972","0.0"],
    [1412391,"2026-05-17 04:20:00","49976","0.059000000000000004","299.6","0.523","303","1014.5189999999999","13.46","77.33","-1.5119999999999998","0.0"],
    [1412392,"2026-05-17 04:30:00","49977","0.32799999999999996","322.1","0.784","321.9","1014.575","13.56","77.25","0.48200000000000004","0.0"],
    [1412393,"2026-05-17 04:40:00","49978","0.525","319.6","0.751","316.2","1014.6260000000001","13.44","78.17","3.91","0.0"],
    [1412394,"2026-05-17 04:50:00","49979","0.856","323.6","1.111","325.3","1014.666","13.67","77.7","11.23","0.0"],
    [1412395,"2026-05-17 05:00:00","49980","0.517","330.0","1.111","325.5","1014.675","13.68","77.4","21.73","0.0"],
    [1412396,"2026-05-17 05:10:00","49981","0.23199999999999998","330.6","0.719","330.6","1014.677","13.76","77.14","33.71","0.0"],
    [1412397,"2026-05-17 05:20:00","49982","0.24","359.8","1.078","10.52","1014.72","14.01","76.34","42.01","0.0"],
    [1412398,"2026-05-17 05:30:00","49983","0.903","22.81","2.483","40.85","1014.7860000000001","14.3","75.73","67.2","0.0"],
    [1412399,"2026-05-17 05:40:00","49984","1.535","20.71","2.679","44.14","1014.8439999999999","14.99","73.82","106.1","0.0"],
    [1412400,"2026-05-17 05:50:00","49985","1.406","0.442","3.234","17.61","1014.9060000000001","15.79","72.18","172.3","0.0"],
    [1412401,"2026-05-17 06:00:00","49986","1.7069999999999999","9.17","3.626","34.52","1014.9730000000001","15.96","72.36","169.5","0.0"],
    [1412402,"2026-05-17 06:10:00","49987","2.7039999999999997","14.9","3.887","12.88","1014.9830000000001","16.43","72.25","202.7","0.0"],
    [1412403,"2026-05-17 06:20:00","49988","2.209","28.56","3.757","32.67","1015.0210000000001","16.64","71.91","231.0","0.0"],
    [1412404,"2026-05-17 06:30:00","49989","2.325","32.68","4.377","25.91","1014.9960000000001","17.0","71.19","260.1","0.0"],
    [1412405,"2026-05-17 06:40:00","49990","3.177","42.3","5.488","44.6","1015.044","17.14","71.19","324.9","0.0"],
    [1412406,"2026-05-17 06:50:00","49991","3.342","37.58","4.998","45.31","1015.212","17.29","71.66","368.7","0.0"],
    [1412407,"2026-05-17 07:00:00","49992","4.188","38.7","5.978","37.95","1015.314","17.12","72.58","395.4","0.0"],
    [1412408,"2026-05-17 07:10:00","49993","3.589","48.54","4.835","41.68","1015.3810000000001","17.32","71.95","434.9","0.0"],
    [1412409,"2026-05-17 07:20:00","49994","3.8960000000000004","38.07","5.847","66.56","1015.467","17.2","72.27","314.6","0.0"],
    [1412410,"2026-05-17 07:30:00","49995","4.273","58.94","5.553","55.36","1015.535","16.96","73.33","355.3","0.0"],
    [1412411,"2026-05-17 07:40:00","49996","4.276","63.38","5.88","74.6","1015.653","17.3","71.16","527.1","0.0"],
    [1412412,"2026-05-17 07:50:00","49997","3.8560000000000003","56.64","5.292","42.17","1015.7819999999999","17.55","69.59","561.2","0.0"],
    [1412413,"2026-05-17 08:00:00","49998","3.7439999999999998","56.65","5.717","64.45","1015.8760000000001","17.75","70.28","594.2","0.0"],
    [1412414,"2026-05-17 08:10:00","49999","4.263","63.75","6.076","77.47","1015.9110000000001","17.82","69.33","634.4","0.0"],
    [1412415,"2026-05-17 08:20:00","50000","4.716","73.08","6.468","81.1","1015.956","17.78","69.89","641.1","0.0"],
    [1412416,"2026-05-17 08:30:00","50001","4.61","65.24","5.913","84","1015.9780000000001","17.91","68.64","710.9","0.0"],
    [1412417,"2026-05-17 08:40:00","50002","4.59","72.85","6.501","78.55","1015.96","17.97","67.5","688.2","0.0"],
    [1412418,"2026-05-17 08:50:00","50003","4.637","75.5","6.141","76.39","1015.938","18.16","66.25","739.2","0.0"],
    [1412419,"2026-05-17 09:00:00","50004","4.9110000000000005","71.89","6.272","86.1","1015.956","18.15","65.96","761.1","0.0"],
    [1412420,"2026-05-17 09:10:00","50005","4.768","74.71","6.37","89.5","1016.038","18.23","65.91","786.4","0.0"],
    [1412421,"2026-05-17 09:20:00","50006","4.772","83.7","6.501","89.2","1016.048","18.43","64.78","808.0","0.0"],
    [1412422,"2026-05-17 09:30:00","50007","4.6080000000000005","73.25","6.599","73.97","1016.052","18.68","63.64","826.0","0.0"],
    [1412423,"2026-05-17 09:40:00","50008","5.49","80.0","6.729","73.63","1016.034","18.44","64.47","847.0","0.0"],
    [1412424,"2026-05-17 09:50:00","50009","4.763","84.9","6.435","82.6","1016.039","18.7","63.96","865.0","0.0"],
    [1412425,"2026-05-17 10:00:00","50010","5.439","78.22","7.546","82.2","1016.067","18.64","64.97","882.0","0.0"],
    [1412426,"2026-05-17 10:10:00","50011","5.3629999999999995","77.0","6.664","80.1","1016.1139999999999","18.65","65.35","899.0","0.0"],
    [1412427,"2026-05-17 10:20:00","50012","4.685","85.0","6.762","85","1016.2389999999999","18.48","65.84","918.0","0.0"],
    [1412428,"2026-05-17 10:30:00","50013","4.599","82.9","6.991","83.3","1016.25","18.88","65.36","932.0","0.0"],
    [1412429,"2026-05-17 10:40:00","50014","5.261","80.8","7.35","90.4","1016.291","18.9","65.1","939.0","0.0"],
    [1412430,"2026-05-17 10:50:00","50015","4.906000000000001","82.7","6.762","93.7","1016.279","18.9","65.36","950.0","0.0"],
    [1412431,"2026-05-17 11:00:00","50016","4.877","85.9","6.991","87","1016.268","18.62","66.1","961.0","0.0"],
    [1412432,"2026-05-17 11:10:00","50017","4.9","80.9","6.729","89.2","1016.2869999999999","18.84","66.19","952.0","0.0"],
    [1412433,"2026-05-17 11:20:00","50018","5.228","83.6","6.827","82","1016.227","18.97","66.42","952.0","0.0"],
    [1412434,"2026-05-17 11:30:00","50019","4.952","86.9","6.631","82.4","1016.245","18.7","67.2","965.0","0.0"],
    [1412435,"2026-05-17 11:40:00","50020","4.785","86.3","6.795","84.5","1016.2869999999999","18.9","65.19","989.0","0.0"],
    [1412436,"2026-05-17 11:50:00","50021","4.508","88.6","6.076","79.15","1016.293","18.97","65.17","994.0","0.0"],
    [1412437,"2026-05-17 12:00:00","50022","4.753","83.8","6.729","70.16","1016.238","18.96","65.69","994.0","0.0"],
    [1412438,"2026-05-17 12:10:00","50023","4.328","86.2","6.207","87.1","1016.2180000000001","19.2","64.64","989.0","0.0"],
    [1412439,"2026-05-17 12:20:00","50024","4.592","85.7","6.141","98","1016.1339999999999","19.1","64.69","965.0","0.0"],
    [1412440,"2026-05-17 12:30:00","50025","4.688","86.4","6.337","78.7","1016.095","19.14","64.4","915.0","0.0"],
    [1412441,"2026-05-17 12:40:00","50026","3.991","89.1","5.749","84.1","1016.073","19.21","64.21","953.0","0.0"],
    [1412442,"2026-05-17 12:50:00","50027","4.172","90.6","5.684","88.4","1016.034","19.08","64.93","917.0","0.0"],
    [1412443,"2026-05-17 13:00:00","50028","4.029","83.3","5.782","88.4","1015.9760000000001","19.12","64.27","840.0","0.0"],
    [1412444,"2026-05-17 13:10:00","50029","3.76","91.7","5.292","83.5","1015.916","19.08","64.46","940.0","0.0"],
    [1412445,"2026-05-17 13:20:00","50030","3.633","83.1","5.357","82.2","1015.837","19.5","63.45","950.0","0.0"],
    [1412446,"2026-05-17 13:30:00","50031","3.252","89.2","4.9","76.5","1015.7330000000001","19.36","62.93","836.0","0.0"],
    [1412447,"2026-05-17 13:40:00","50032","2.294","104.1","3.953","86","1015.686","19.42","61.92","833.0","0.0"],
    [1412448,"2026-05-17 13:50:00","50033","1.3969999999999998","127.6","4.018","146.2","1015.635","20.49","57.2","864.0","0.0"],
    [1412449,"2026-05-17 14:00:00","50034","2.484","186.4","4.345","156.9","1015.56","20.05","57.57","827.0","0.0"],
    [1412450,"2026-05-17 14:10:00","50035","2.759","176.8","5.325","174","1015.52","19.53","59.92","815.0","0.0"],
    [1412451,"2026-05-17 14:20:00","50036","2.872","183.7","5.717","230.9","1015.424","19.71","60.22","714.6","0.0"],
    [1412452,"2026-05-17 14:30:00","50037","2.459","177.8","4.835","205.3","1015.3","19.65","61.08","671.1","0.0"],
    [1412453,"2026-05-17 14:40:00","50038","3.347","202.2","5.749","176.5","1015.1339999999999","19.62","62.18","583.3","0.0"],
    [1412454,"2026-05-17 14:50:00","50039","3.636","203.4","5.357","183","1015.0310000000001","19.53","62.48","666.6","0.0"],
    [1412455,"2026-05-17 15:00:00","50040","3.036","199.1","6.109","179.1","1014.998","19.44","62.11","515.6","0.0"],
    [1412456,"2026-05-17 15:10:00","50041","2.925","190.8","5.227","176.7","1014.9019999999999","19.44","61.21","603.0","0.0"],
    [1412457,"2026-05-17 15:20:00","50042","2.9589999999999996","197.2","5.815","181.9","1014.934","19.47","58.28","560.4","0.0"],
    [1412458,"2026-05-17 15:30:00","50043","3.7680000000000002","203.6","6.533","224.2","1014.882","19.48","49.77","499.7","0.0"],
    [1412459,"2026-05-17 15:40:00","50044","4.751","210.1","6.991","208.3","1014.7130000000001","19.26","49.72","473.2","0.0"],
    [1412460,"2026-05-17 15:50:00","50045","4.944","209.8","7.448","215.3","1014.64","19.1","51.61","474.5","0.0"],
    [1412461,"2026-05-17 16:00:00","50046","4.709","214.3","7.056","226.4","1014.638","19.3","52.25","495.2","0.0"],
    [1412462,"2026-05-17 16:10:00","50047","5.221","217.0","7.84","204.9","1014.65","19.07","54.19","419.4","0.0"],
    [1412463,"2026-05-17 16:20:00","50048","5.225","215.1","8.33","214.5","1014.63","19.11","55.08","456.2","0.0"],
    [1412464,"2026-05-17 16:30:00","50049","4.35","212.2","7.611","202","1014.623","19.41","53.97","389.6","0.0"],
    [1412465,"2026-05-17 16:40:00","50050","4.5089999999999995","211.1","7.35","230.2","1014.6610000000001","19.0","55.27","316.4","0.0"],
    [1412466,"2026-05-17 16:50:00","50051","4.842","208.1","8.43","203.4","1014.562","18.86","56.63","302.7","0.0"],
    [1412467,"2026-05-17 17:00:00","50052","5.733","216.8","8.72","225.4","1014.49","18.82","56.95","376.2","0.0"],
    [1412468,"2026-05-17 17:10:00","50053","5.005","213.8","8.04","225.7","1014.5219999999999","18.69","57.79","332.3","0.0"],
    [1412469,"2026-05-17 17:20:00","50054","5.2829999999999995","218.8","8.13","230.4","1014.617","18.6","58.25","276.5","0.0"],
    [1412470,"2026-05-17 17:30:00","50055","4.875","220.7","7.481","213.7","1014.725","18.46","58.94","242.1","0.0"],
    [1412471,"2026-05-17 17:40:00","50056","4.6610000000000005","225.3","7.252","215","1014.87","18.16","60.73","164.2","0.0"],
    [1412472,"2026-05-17 17:50:00","50057","5.008","227.6","7.742","234.4","1014.9630000000001","17.9","62.84","160.2","0.0"],
    [1412473,"2026-05-17 18:00:00","50058","4.865","221.9","7.285","217.7","1015.0139999999999","18.04","63.87","147.8","0.0"],
    [1412474,"2026-05-17 18:10:00","50059","3.772","223.0","7.775","224.6","1015.12","18.15","64.65","121.1","0.0"],
    [1412475,"2026-05-17 18:20:00","50060","4.445","220.4","7.089","192.8","1015.173","17.99","65.45","88.5","0.0"],
    [1412476,"2026-05-17 18:30:00","50061","4.645","222.3","7.187","241.6","1015.204","17.83","66.07","35.48","0.0"],
    [1412477,"2026-05-17 18:40:00","50062","3.714","223.5","6.305","211.4","1015.268","17.62","67.96","19.6","0.0"],
    [1412478,"2026-05-17 18:50:00","50063","3.9589999999999996","222.6","6.468","217.2","1015.373","17.61","69.05","20.06","0.0"],
    [1412479,"2026-05-17 19:00:00","50064","3.273","225.8","4.769","235","1015.438","17.51","69.98","7.19","0.0"],
    [1412480,"2026-05-17 19:10:00","50065","3.227","223.7","5.096","223.5","1015.5319999999999","17.47","70.51","3.383","0.0"],
    [1412481,"2026-05-17 19:20:00","50066","3.227","224.0","5.129","219.2","1015.578","17.5","71.4","-0.41600000000000004","0.0"],
    [1412482,"2026-05-17 19:30:00","50067","1.8719999999999999","233.5","2.842","216.4","1015.685","17.37","72.43","-2.306","0.0"],
    [1412483,"2026-05-17 19:40:00","50068","1.291","236.0","2.744","241.9","1015.798","17.22","73.24","-2.696","0.0"],
    [1412484,"2026-05-17 19:50:00","50069","1.246","250.4","2.875","263.5","1015.9689999999999","17.09","73.83","-2.713","0.0"],
    [1412485,"2026-05-17 20:00:00","50070","1.024","258.6","2.025","247","1016.07","16.96","75.01","-2.76","0.0"],
    [1412486,"2026-05-17 20:10:00","50071","1.038","249.4","2.091","290.7","1016.24","16.99","75.31","-2.705","0.0"],
    [1412487,"2026-05-17 20:20:00","50072","1.6269999999999998","229.8","2.646","218.1","1016.3480000000001","17.0","74.85","-2.755","0.0"],
    [1412488,"2026-05-17 20:30:00","50073","1.13","232.6","1.927","226.9","1016.4789999999999","16.88","75.07","-2.695","0.0"],
    [1412489,"2026-05-17 20:40:00","50074","0.973","231.9","1.862","256.9","1016.555","16.79","75.37","-2.714","0.0"],
    [1412490,"2026-05-17 20:50:00","50075","1.13","230.6","1.829","228","1016.59","16.74","75.49","-2.795","0.0"],
    [1412491,"2026-05-17 21:00:00","50076","0.72","245.1","1.47","238.5","1016.66","16.62","75.76","-2.738","0.0"],
    [1412492,"2026-05-17 21:10:00","50077","0.46399999999999997","245.1","0.915","241.8","1016.659","16.52","76.18","-2.7960000000000003","0.0"],
    [1412493,"2026-05-17 21:20:00","50078","0.993","237.7","1.47","237.1","1016.6669999999999","16.48","76.64","-3.03","0.0"],
    [1412494,"2026-05-17 21:30:00","50079","0.392","251.8","0.915","252.1","1016.7489999999999","16.57","75.96","-2.7119999999999997","0.0"],
    [1412495,"2026-05-17 21:40:00","50080","0.405","254.5","0.784","254.5","1016.7510000000001","16.21","77.07","-2.72","0.0"],
    [1412496,"2026-05-17 21:50:00","50081","0.586","277.3","1.274","288.4","1016.689","16.1","77.83","-2.716","0.0"],
    [1412497,"2026-05-17 22:00:00","50082","0.642","294.7","1.405","291.4","1016.574","15.93","78.11","-2.7060000000000004","0.0"],
    [1412498,"2026-05-17 22:10:00","50083","0.489","333.7","1.307","337.9","1016.565","15.77","78.53","-2.708","0.0"],
    [1412499,"2026-05-17 22:20:00","50084","0.855","330.6","1.503","329.3","1016.618","15.82","78.26","-2.616","0.0"],
    [1412500,"2026-05-17 22:30:00","50085","0.496","316.5","1.143","321.4","1016.672","16.08","77.5","-2.662","0.0"],
    [1412501,"2026-05-17 22:40:00","50086","0.7509999999999999","266.7","1.405","258.9","1016.7","16.28","76.21","-2.718","0.0"],
    [1412502,"2026-05-17 22:50:00","50087","1.024","261.2","1.731","269.8","1016.762","16.42","75.48","-2.707","0.0"],
    [1412503,"2026-05-17 23:00:00","50088","1.06","281.4","1.895","286.6","1016.804","16.22","75.78","-2.38","0.0"],
    [1412504,"2026-05-17 23:10:00","50089","1.095","271.3","2.025","285.7","1016.735","15.58","77.8","-2.716","0.0"],
    [1412505,"2026-05-17 23:20:00","50090","1.02","276.9","2.025","270.8","1016.7189999999999","15.57","76.85","-2.721","0.0"],
    [1412506,"2026-05-17 23:30:00","50091","0.7490000000000001","273.0","1.274","280.9","1016.711","15.24","77.14","-2.721","0.0"],
    [1412507,"2026-05-17 23:40:00","50092","0.789","267.9","1.339","273.5","1016.648","15.29","77.2","-2.722","0.0"],
    [1412508,"2026-05-17 23:50:00","50093","0.23800000000000002","282.5","0.817","270.3","1016.6260000000001","15.32","76.45","-2.7239999999999998","0.0"],
    [1412509,"2026-05-18 00:00:00","50094","0.0","0.0","0","0","1016.638","14.93","78.26","-2.762","0.0"],
    [1412510,"2026-05-18 00:10:00","50095","0.25","270.6","1.078","268.7","1016.55","14.83","79.03","-2.7260000000000004","0.0"],
    [1412511,"2026-05-18 00:20:00","50096","1.0590000000000002","265.7","1.829","268.6","1016.427","15.04","78.61","-2.7260000000000004","0.0"],
    [1412512,"2026-05-18 00:30:00","50097","1.1909999999999998","268.7","1.797","276","1016.436","15.23","77.44","-2.323","0.0"],
    [1412513,"2026-05-18 00:40:00","50098","1.258","276.8","2.189","270.2","1016.2610000000001","15.14","77.81","-1.9780000000000002","0.0"],
    [1412514,"2026-05-18 00:50:00","50099","0.976","272.2","1.437","271","1016.1310000000001","15.03","78.54","-1.974","0.0"],
    [1412515,"2026-05-18 01:00:00","50100","0.8909999999999999","277.3","1.437","282.5","1016.096","14.96","78.74","-1.98","0.0"],
    [1412516,"2026-05-18 01:10:00","50101","0.21600000000000003","257.0","0.98","276.8","1015.9760000000001","14.85","79.4","-2.03","0.0"],
    [1412517,"2026-05-18 01:20:00","50102","0.191","252.9","0.588","250.3","1015.92","14.99","79.03","-2.241","0.0"],
    [1412518,"2026-05-18 01:30:00","50103","0.009000000000000001","254.7","0.555","255.6","1015.87","15.06","78.5","-2.5810000000000004","0.0"],
    [1412519,"2026-05-18 01:40:00","50104","0.363","268.8","1.176","280.4","1015.8530000000001","14.99","78.86","-2.715","0.0"],
    [1412520,"2026-05-18 01:50:00","50105","0.736","277.5","1.47","275.5","1015.882","14.78","79.88","-2.678","0.0"],
    [1412521,"2026-05-18 02:00:00","50106","0.011000000000000001","270.4","0.784","270.4","1015.8439999999999","14.75","79.81","-2.343","0.0"],
    [1412522,"2026-05-18 02:10:00","50107","0.182","270.4","0.817","270.4","1015.847","14.99","79.34","-1.361","0.0"],
    [1412523,"2026-05-18 02:20:00","50108","0.0","0.0","0","0","1015.832","14.99","79.29","-1.726","0.0"],
    [1412524,"2026-05-18 02:30:00","50109","1.375","282.2","2.515","272.9","1015.794","14.76","80.0","-2.67","0.0"],
    [1412525,"2026-05-18 02:40:00","50110","1.389","284.8","2.091","284.6","1015.779","14.37","81.3","-2.6860000000000004","0.0"],
    [1412526,"2026-05-18 02:50:00","50111","0.87","283.1","1.339","286.6","1015.811","14.14","82.4","-2.332","0.0"],
    [1412527,"2026-05-18 03:00:00","50112","0.765","283.6","1.274","282.8","1015.801","14.18","82.4","-1.819","0.0"],
    [1412528,"2026-05-18 03:10:00","50113","1.185","277.9","1.764","262.5","1015.875","14.24","82.3","-1.295","0.0"],
    [1412529,"2026-05-18 03:20:00","50114","1.091","282.8","1.633","276.9","1015.8789999999999","14.39","81.7","-1.232","0.0"],
    [1412530,"2026-05-18 03:30:00","50115","0.935","290.5","1.699","310.1","1015.932","14.43","82.0","-1.255","0.0"],
    [1412531,"2026-05-18 03:40:00","50116","1.075","303.1","1.927","305.4","1015.8739999999999","14.64","81.5","-1.709","0.0"],
    [1412532,"2026-05-18 03:50:00","50117","1.0859999999999999","311.1","2.287","300.2","1015.798","14.86","80.3","-1.9809999999999999","0.0"],
    [1412533,"2026-05-18 04:00:00","50118","0.379","307.5","1.013","298.1","1015.7639999999999","15.02","79.69","-1.9669999999999999","0.0"],
    [1412534,"2026-05-18 04:10:00","50119","0.725","281.7","1.078","263.4","1015.819","15.14","79.31","-1.614","0.0"],
    [1412535,"2026-05-18 04:20:00","50120","0.21600000000000003","263.8","0.784","264.1","1015.847","15.15","79.04","-1.225","0.0"],
    [1412536,"2026-05-18 04:30:00","50121","1.7819999999999998","276.2","3.397","281.3","1015.8939999999999","14.94","79.73","0.28","0.0"],
    [1412537,"2026-05-18 04:40:00","50122","1.3019999999999998","273.7","2.319","292.4","1015.8839999999999","14.54","81.1","3.068","0.0"],
    [1412538,"2026-05-18 04:50:00","50123","1.261","280.4","2.254","295.7","1015.944","14.38","81.8","10.65","0.0"],
    [1412539,"2026-05-18 05:00:00","50124","1.284","277.9","2.221","291.9","1016.0169999999999","14.5","81.4","27.11","0.0"],
    [1412540,"2026-05-18 05:10:00","50125","1.013","274.4","1.699","275.3","1016.128","14.76","80.3","55.23","0.0"],
    [1412541,"2026-05-18 05:20:00","50126","1.4","284.3","2.221","285.9","1016.245","15.11","79.22","65.7","0.0"],
    [1412542,"2026-05-18 05:30:00","50127","1.4809999999999999","271.4","2.352","273.3","1016.329","15.48","77.19","64.39","0.0"],
    [1412543,"2026-05-18 05:40:00","50128","1.5859999999999999","282.1","2.646","264","1016.378","15.46","76.84","70.56","0.0"],
    [1412544,"2026-05-18 05:50:00","50129","1.9569999999999999","278.7","3.397","276.2","1016.454","15.59","76.01","116.9","0.0"],
    [1412545,"2026-05-18 06:00:00","50130","1.841","284.8","3.495","287.1","1016.5219999999999","15.88","74.56","160.1","0.0"],
    [1412546,"2026-05-18 06:10:00","50131","2.269","294.5","3.561","299.1","1016.558","16.37","72.51","261.7","0.0"],
    [1412547,"2026-05-18 06:20:00","50132","2.647","308.9","3.985","302.2","1016.6289999999999","17.18","69.01","199.6","0.0"],
    [1412548,"2026-05-18 06:30:00","50133","2.6719999999999997","307.6","3.887","300","1016.675","16.9","69.38","86.3","0.0"],
    [1412549,"2026-05-18 06:40:00","50134","2.106","300.8","3.103","302","1016.7660000000001","16.99","68.69","107.3","0.0"],
    [1412550,"2026-05-18 06:50:00","50135","2.5180000000000002","303.1","3.365","310.2","1016.836","17.23","67.86","119.0","0.0"],
    [1412551,"2026-05-18 07:00:00","50136","1.536","306.6","2.646","310.9","1016.831","17.34","67.88","120.0","0.0"],
    [1412552,"2026-05-18 07:10:00","50137","1.17","343.6","1.862","346.8","1016.738","17.49","67.48","152.4","0.0"],
    [1412553,"2026-05-18 07:20:00","50138","1.561","313.4","2.94","304.8","1016.747","17.67","66.96","286.0","0.0"],
    [1412554,"2026-05-18 07:30:00","50139","0.474","344.4","1.405","307.4","1016.828","18.82","64.1","398.6","0.0"],
    [1412555,"2026-05-18 07:40:00","50140","1.594","201.4","3.659","187.5","1016.841","18.69","67.78","316.4","0.0"],
    [1412556,"2026-05-18 07:50:00","50141","1.838","207.7","4.345","207.7","1016.883","18.47","70.44","276.2","0.0"],
    [1412557,"2026-05-18 08:00:00","50142","2.283","195.8","5.227","228.1","1016.846","18.38","71.2","300.9","0.0"],
    [1412558,"2026-05-18 08:10:00","50143","2.4290000000000003","188.3","3.985","210.5","1016.915","18.62","71.24","473.4","0.0"],
    [1412559,"2026-05-18 08:20:00","50144","2.1519999999999997","178.5","3.887","179.9","1017.0210000000001","18.81","70.46","570.0","0.0"],
    [1412560,"2026-05-18 08:30:00","50145","2.2430000000000003","175.4","4.377","131.2","1017.077","19.2","69.46","669.4","0.0"],
    [1412561,"2026-05-18 08:40:00","50146","2.352","185.4","4.704","209","1017.1610000000001","19.35","68.76","713.3","0.0"],
    [1412562,"2026-05-18 08:50:00","50147","2.244","198.6","4.116","182.5","1017.189","19.65","68.08","566.3","0.0"],
    [1412563,"2026-05-18 09:00:00","50148","2.8510000000000004","168.4","4.704","171.6","1017.2230000000001","19.18","69.6","562.8","0.0"],
    [1412564,"2026-05-18 09:10:00","50149","2.653","172.9","4.9","193.7","1017.206","18.97","71.04","719.9","0.0"],
    [1412565,"2026-05-18 09:20:00","50150","3.411","174.7","5.194","175","1017.21","19.29","70.27","701.3","0.0"],
    [1412566,"2026-05-18 09:30:00","50151","3.225","182.1","5.553","189.3","1017.17","19.33","70.89","685.3","0.0"],
    [1412567,"2026-05-18 09:40:00","50152","3.165","196.0","5.161","183.7","1017.347","19.52","70.17","580.0","0.0"],
    [1412568,"2026-05-18 09:50:00","50153","3.069","186.1","6.043","168.4","1017.2719999999999","19.62","70.57","742.8","0.0"],
    [1412569,"2026-05-18 10:00:00","50154","2.891","174.1","5.749","174.3","1017.299","19.04","72.51","381.5","0.0"],
    [1412570,"2026-05-18 10:10:00","50155","2.6710000000000003","192.7","4.541","173.9","1017.4680000000001","19.44","71.93","627.2","0.0"],
    [1412571,"2026-05-18 10:20:00","50156","2.972","183.2","4.737","169.7","1017.5089999999999","19.12","70.9","293.8","0.0"],
    [1412572,"2026-05-18 10:30:00","50157","2.786","193.7","5.553","197.9","1017.457","19.08","70.97","269.1","0.0"],
    [1412573,"2026-05-18 10:40:00","50158","3.055","196.3","5.129","209.8","1017.414","19.09","70.75","278.2","0.0"],
    [1412574,"2026-05-18 10:50:00","50159","2.96","185.6","5.129","187.6","1017.416","18.99","72.15","267.3","0.0"],
    [1412575,"2026-05-18 11:00:00","50160","2.793","201.6","5.619","185.6","1017.544","18.94","72.06","234.7","0.0"],
    [1412576,"2026-05-18 11:10:00","50161","3.147","191.0","6.403","168","1017.475","18.64","72.42","185.9","0.0"],
    [1412577,"2026-05-18 11:20:00","50162","2.474","201.4","6.076","228.9","1017.596","18.7","69.78","189.7","0.0"],
    [1412578,"2026-05-18 11:30:00","50163","2.417","200.7","5.194","182","1017.663","18.57","73.84","199.8","0.0"],
    [1412579,"2026-05-18 11:40:00","50164","2.329","203.5","5.39","228.3","1017.725","18.25","76.79","174.7","0.0"],
    [1412580,"2026-05-18 11:50:00","50165","2.161","194.5","7.154","172","1017.5889999999999","18.15","76.56","240.6","0.0"],
    [1412581,"2026-05-18 12:00:00","50166","1.926","181.5","2.907","153.3","1017.313","18.35","76.81","362.5","0.0"],
    [1412582,"2026-05-18 12:10:00","50167","3.157","184.2","4.802","172.3","1017.138","18.48","77.99","489.7","0.0"],
    [1412583,"2026-05-18 12:20:00","50168","2.4819999999999998","187.4","4.802","83.8","1017.188","18.86","79.29","678.2","0.0"],
    [1412584,"2026-05-18 12:30:00","50169","2.235","181.3","4.475","175.8","1017.081","19.18","76.02","518.7","0.0"],
    [1412585,"2026-05-18 12:40:00","50170","2.194","191.0","5.978","227.7","1017.0369999999999","19.0","75.95","462.9","0.0"],
    [1412586,"2026-05-18 12:50:00","50171","2.655","190.6","4.443","171.7","1017.007","19.27","75.31","496.7","0.0"],
    [1412587,"2026-05-18 13:00:00","50172","2.978","211.9","5.521","206.9","1017.057","19.22","76.14","338.3","0.0"],
    [1412588,"2026-05-18 13:10:00","50173","2.847","185.2","4.933","204.1","1017.1560000000001","18.92","76.85","268.6","0.0"],
    [1412589,"2026-05-18 13:20:00","50174","2.5989999999999998","204.0","5.684","186.6","1017.3430000000001","18.86","77.43","170.7","0.0"],
    [1412590,"2026-05-18 13:30:00","50175","2.425","216.6","4.965","210.4","1017.4839999999999","18.64","79.44","98.5","0.0"],
    [1412591,"2026-05-18 13:40:00","50176","1.0859999999999999","196.1","2.548","234.5","1017.178","18.34","80.6","102.2","0.0"],
    [1412592,"2026-05-18 13:50:00","50177","1.99","186.4","4.018","187","1016.9830000000001","18.17","82.9","142.4","0.0"],
    [1412593,"2026-05-18 14:00:00","50178","3.4530000000000003","182.7","5.325","175.9","1016.6419999999999","18.11","84.2","287.7","0.0"],
    [1412594,"2026-05-18 14:10:00","50179","2.512","197.5","4.671","188","1016.688","18.82","84.1","481.4","0.0"],
    [1412595,"2026-05-18 14:20:00","50180","3.2060000000000004","198.1","5.553","228.9","1016.547","19.53","81.9","732.6","0.0"],
    [1412596,"2026-05-18 14:30:00","50181","4.083","208.1","7.154","218.3","1016.453","19.53","80.3","618.5","0.0"],
    [1412597,"2026-05-18 14:40:00","50182","3.1460000000000004","206.8","5.521","214.8","1016.34","19.7","80.3","587.3","0.0"],
    [1412598,"2026-05-18 14:50:00","50183","3.475","208.6","6.925","222.2","1016.423","19.63","78.81","502.9","0.0"],
    [1412599,"2026-05-18 15:00:00","50184","3.531","209.7","6.697","222.2","1016.405","19.59","78.99","505.7","0.0"],
    [1412600,"2026-05-18 15:10:00","50185","3.465","189.5","6.239","173.4","1016.312","19.51","78.62","490.9","0.0"],
    [1412601,"2026-05-18 15:20:00","50186","3.2060000000000004","199.6","5.619","176.2","1016.166","19.58","78.61","440.4","0.0"],
    [1412602,"2026-05-18 15:30:00","50187","3.287","208.1","5.684","223.5","1016.068","20.0","77.51","554.9","0.0"],
    [1412603,"2026-05-18 15:40:00","50188","3.86","205.4","6.827","214.9","1016.166","19.91","76.76","564.7","0.0"],
    [1412604,"2026-05-18 15:50:00","50189","3.4810000000000003","210.9","5.651","211.9","1016.203","19.82","76.83","487.6","0.0"],
    [1412605,"2026-05-18 16:00:00","50190","2.8539999999999996","203.0","5.521","215.8","1016.28","19.79","77.11","326.9","0.0"],
    [1412606,"2026-05-18 16:10:00","50191","2.888","193.6","5.749","180.5","1016.3539999999999","19.25","79.25","205.8","0.0"],
    [1412607,"2026-05-18 16:20:00","50192","2.846","204.4","5.39","208.9","1016.347","19.18","79.44","184.3","0.0"],
    [1412608,"2026-05-18 16:30:00","50193","2.2769999999999997","206.2","4.998","229.6","1016.308","19.01","80.1","137.6","0.0"],
    [1412609,"2026-05-18 16:40:00","50194","2.8489999999999998","196.5","4.606","189.5","1016.308","18.86","80.5","110.8","0.0"],
    [1412610,"2026-05-18 16:50:00","50195","2.346","193.8","4.769","183.6","1016.2769999999999","18.75","81.1","99.9","0.0"],
    [1412611,"2026-05-18 17:00:00","50196","2.4290000000000003","204.8","4.9","208.3","1016.19","18.72","81.2","115.4","0.0"],
    [1412612,"2026-05-18 17:10:00","50197","2.221","210.3","4.247","226.6","1016.181","18.72","81.9","105.1","0.0"],
    [1412613,"2026-05-18 17:20:00","50198","2.013","197.2","4.41","243","1016.2139999999999","18.67","82.1","84.8","0.0"],
    [1412614,"2026-05-18 17:30:00","50199","2.3890000000000002","205.1","6.566","198.4","1016.289","18.62","82.6","69.81","0.0"],
    [1412615,"2026-05-18 17:40:00","50200","2.739","212.6","4.9","219.9","1016.373","18.56","83.3","69.12","0.0"],
    [1412616,"2026-05-18 17:50:00","50201","3.022","214.6","6.141","225.2","1016.4939999999999","18.46","85.4","51.07","0.0"],
    [1412617,"2026-05-18 18:00:00","50202","2.765","215.3","4.508","210.7","1016.645","18.53","85.3","53.92","0.0"],
    [1412618,"2026-05-18 18:10:00","50203","2.702","207.8","5.194","213.8","1016.702","18.54","86.3","39.4","0.0"],
    [1412619,"2026-05-18 18:20:00","50204","2.385","210.6","5.651","229.4","1016.807","18.56","86.5","33.94","0.0"],
    [1412620,"2026-05-18 18:30:00","50205","2.233","215.8","3.822","219.8","1016.801","18.55","86.1","22.74","0.0"],
    [1412621,"2026-05-18 18:40:00","50206","2.548","213.4","4.998","203.1","1016.813","18.45","85.1","16.46","0.0"],
    [1412622,"2026-05-18 18:50:00","50207","2.6839999999999997","215.8","4.475","210.2","1016.959","18.44","84.5","11.55","0.0"],
    [1412623,"2026-05-18 19:00:00","50208","1.851","213.4","3.561","212.7","1017.096","18.4","85.4","5.462000000000001","0.0"],
    [1412624,"2026-05-18 19:10:00","50209","1.89","204.4","3.136","216.3","1017.102","18.35","86.1","1.318","0.0"],
    [1412625,"2026-05-18 19:20:00","50210","1.73","200.6","4.508","166.7","1017.033","18.32","86.7","-0.7509999999999999","0.0"],
    [1412626,"2026-05-18 19:30:00","50211","2.079","204.4","3.855","185.4","1017.049","18.28","87.5","-1.189","0.0"],
    [1412627,"2026-05-18 19:40:00","50212","1.915","205.0","3.332","209.3","1017.133","18.23","88.0","-1.195","0.0"],
    [1412628,"2026-05-18 19:50:00","50213","2.239","214.3","3.757","198.9","1017.242","18.21","88.1","-1.2009999999999998","0.0"],
    [1412629,"2026-05-18 20:00:00","50214","2.181","215.8","3.626","176.2","1017.365","18.21","88.2","-1.215","0.0"],
    [1412630,"2026-05-18 20:10:00","50215","1.663","211.4","3.005","207.6","1017.427","18.2","88.3","-1.197","0.0"],
    [1412631,"2026-05-18 20:20:00","50216","2.145","202.0","3.593","167.9","1017.578","18.17","88.4","-1.199","0.0"],
    [1412632,"2026-05-18 20:30:00","50217","2.05","213.5","4.214","182.5","1017.727","18.18","88.8","-1.199","0.0"],
    [1412633,"2026-05-18 20:40:00","50218","2.404","212.0","5.357","177.2","1017.8589999999999","18.18","89.3","-1.195","0.0"],
    [1412634,"2026-05-18 20:50:00","50219","1.811","205.9","3.757","230.4","1017.924","18.13","89.2","-1.193","0.0"],
    [1412635,"2026-05-18 21:00:00","50220","1.113","195.8","2.287","208.5","1017.9810000000001","18.07","89.1","-1.193","0.0"],
    [1412636,"2026-05-18 21:10:00","50221","1.21","192.2","2.091","227.5","1018.045","18.03","88.8","-1.193","0.0"],
    [1412637,"2026-05-18 21:20:00","50222","1.0390000000000001","198.6","2.091","201.6","1018.046","18.02","88.6","-1.199","0.0"],
    [1412638,"2026-05-18 21:30:00","50223","0.955","199.2","2.058","182.2","1018.069","17.97","88.2","-1.222","0.0"],
    [1412639,"2026-05-18 21:40:00","50224","0.98","195.1","1.993","174.5","1018.063","17.93","88.0","-1.204","0.0"],
    [1412640,"2026-05-18 21:50:00","50225","1.1840000000000002","191.6","2.058","160","1018.102","17.92","87.6","-1.2229999999999999","0.0"],
    [1412641,"2026-05-18 22:00:00","50226","1.2309999999999999","199.4","2.385","188.2","1018.1519999999999","17.92","87.6","-1.5119999999999998","0.0"],
    [1412642,"2026-05-18 22:10:00","50227","1.337","208.2","2.319","217","1018.181","17.92","88.0","-1.819","0.0"],
    [1412643,"2026-05-18 22:20:00","50228","1.419","210.8","2.058","222.5","1018.176","17.87","88.1","-1.9380000000000002","0.0"],
    [1412644,"2026-05-18 22:30:00","50229","1.1179999999999999","209.3","1.862","205.4","1018.173","17.8","88.0","-2.0","0.0"],
    [1412645,"2026-05-18 22:40:00","50230","1.0090000000000001","207.6","1.699","200.1","1018.1260000000001","17.7","88.0","-2.637","0.0"],
    [1412646,"2026-05-18 22:50:00","50231","0.687","205.5","1.829","236","1018.078","17.55","88.5","-2.694","0.0"],
    [1412647,"2026-05-18 23:00:00","50232","0.5489999999999999","196.3","1.274","203.4","1018.082","17.53","88.6","-2.2640000000000002","0.0"],
    [1412648,"2026-05-18 23:10:00","50233","0.6609999999999999","205.3","1.535","220","1018.1560000000001","17.52","88.7","-1.9409999999999998","0.0"],
    [1412649,"2026-05-18 23:20:00","50234","0.866","204.8","1.895","204.9","1018.178","17.57","88.5","-1.692","0.0"],
    [1412650,"2026-05-18 23:30:00","50235","0.7070000000000001","204.4","1.633","212.7","1018.1469999999999","17.6","88.5","-1.2930000000000001","0.0"],
    [1412651,"2026-05-18 23:40:00","50236","0.794","206.1","1.797","209.3","1018.115","17.64","88.6","-1.263","0.0"],
    [1412652,"2026-05-18 23:50:00","50237","0.831","210.4","1.666","195.4","1018.047","17.63","88.7","-1.485","0.0"],
    [1412653,"2026-05-19 00:00:00","50238","0.927","253.1","1.666","222.7","1018.0189999999999","17.59","88.5","-1.3030000000000002","0.0"],
    [1412654,"2026-05-19 00:10:00","50239","0.9520000000000001","291.7","1.339","289.2","1018.0260000000001","17.19","89.1","-1.6219999999999999","0.0"],
    [1412655,"2026-05-19 00:20:00","50240","0.327","287.7","0.947","276.6","1017.971","16.98","89.8","-1.893","0.0"],
    [1412656,"2026-05-19 00:30:00","50241","0.725","288.1","1.209","284","1017.9069999999999","16.87","90.1","-1.415","0.0"],
    [1412657,"2026-05-19 00:40:00","50242","0.067","277.6","0.523","273.7","1017.8739999999999","16.83","90.5","-1.214","0.0"],
    [1412658,"2026-05-19 00:50:00","50243","0.0","0.0","0","0","1017.807","16.79","90.6","-1.194","0.0"],
    [1412659,"2026-05-19 01:00:00","50244","0.0","0.0","0","0","1017.7439999999999","16.67","90.4","-1.203","0.0"],
    [1412660,"2026-05-19 01:10:00","50245","0.316","269.4","0.98","267.9","1017.798","16.71","90.2","-1.195","0.0"],
    [1412661,"2026-05-19 01:20:00","50246","0.331","257.3","0.947","248.9","1017.7239999999999","16.81","89.9","-1.196","0.0"],
    [1412662,"2026-05-19 01:30:00","50247","0.442","254.8","0.98","257.4","1017.674","16.87","89.5","-1.194","0.0"],
    [1412663,"2026-05-19 01:40:00","50248","0.506","261.1","0.849","263.4","1017.684","16.81","89.2","-1.196","0.0"],
    [1412664,"2026-05-19 01:50:00","50249","0.7979999999999999","270.8","1.437","276.6","1017.737","16.66","89.3","-1.195","0.0"],
    [1412665,"2026-05-19 02:00:00","50250","0.77","284.4","1.307","284.8","1017.697","16.51","89.4","-1.2229999999999999","0.0"],
    [1412666,"2026-05-19 02:10:00","50251","0.634","284.6","1.96","283.5","1017.613","16.37","89.6","-1.8430000000000002","0.0"],
    [1412667,"2026-05-19 02:20:00","50252","1.589","278.5","2.091","281.1","1017.6439999999999","16.27","89.7","-1.986","0.0"],
    [1412668,"2026-05-19 02:30:00","50253","1.436","283.2","2.058","275.5","1017.569","16.17","89.5","-1.995","0.0"],
    [1412669,"2026-05-19 02:40:00","50254","1.297","281.1","1.96","288.4","1017.562","15.96","89.9","-2.2319999999999998","0.0"],
    [1412670,"2026-05-19 02:50:00","50255","1.0979999999999999","270.8","1.535","273.5","1017.6080000000001","15.91","90.1","-2.182","0.0"],
    [1412671,"2026-05-19 03:00:00","50256","1.025","257.5","1.47","255.2","1017.591","15.94","89.8","-2.383","0.0"],
    [1412672,"2026-05-19 03:10:00","50257","1.1320000000000001","266.1","1.895","262.1","1017.6139999999999","15.92","89.6","-2.362","0.0"],
    [1412673,"2026-05-19 03:20:00","50258","0.91","257.8","1.535","262.8","1017.6560000000001","15.91","89.4","-1.9809999999999999","0.0"],
    [1412674,"2026-05-19 03:30:00","50259","0.738","260.3","1.666","270.6","1017.697","15.87","89.4","-1.725","0.0"],
    [1412675,"2026-05-19 03:40:00","50260","0.303","282.0","1.209","287","1017.66","15.85","89.2","-1.3630000000000002","0.0"],
    [1412676,"2026-05-19 03:50:00","50261","0.9329999999999999","276.5","1.437","274.7","1017.681","15.98","89.0","-1.304","0.0"],
    [1412677,"2026-05-19 04:00:00","50262","0.49200000000000005","265.3","1.143","269.2","1017.628","16.06","88.5","-1.204","0.0"],
    [1412678,"2026-05-19 04:10:00","50263","0.113","271.2","0.686","271.4","1017.564","16.1","88.2","-1.203","0.0"],
    [1412679,"2026-05-19 04:20:00","50264","0.005","273.3","0.327","273.3","1017.556","16.06","88.3","-1.195","0.0"],
    [1412680,"2026-05-19 04:30:00","50265","0.598","270.7","1.437","266.7","1017.748","16.01","88.4","-0.285","0.0"],
    [1412681,"2026-05-19 04:40:00","50266","1.067","273.9","1.699","289.2","1017.816","16.19","87.6","3.6180000000000003","0.0"],
    [1412682,"2026-05-19 04:50:00","50267","1.1340000000000001","275.9","1.666","258.7","1017.903","16.08","87.7","12.34","0.0"],
    [1412683,"2026-05-19 05:00:00","50268","1.125","277.0","1.764","267.1","1018.0039999999999","15.99","87.9","21.69","0.0"],
    [1412684,"2026-05-19 05:10:00","50269","0.75","274.3","1.372","281","1018.05","15.97","88.0","32.67","0.0"],
    [1412685,"2026-05-19 05:20:00","50270","0.7040000000000001","258.3","1.699","252.4","1018.1310000000001","16.09","87.7","65.34","0.0"],
    [1412686,"2026-05-19 05:30:00","50271","1.1320000000000001","277.3","1.764","286","1018.27","16.38","86.9","77.07","0.0"],
    [1412687,"2026-05-19 05:40:00","50272","0.848","279.8","1.339","287.3","1018.2710000000001","16.41","86.8","89.9","0.0"],
    [1412688,"2026-05-19 05:50:00","50273","1.005","277.0","1.601","274.9","1018.313","16.67","86.3","148.2","0.0"],
    [1412689,"2026-05-19 06:00:00","50274","0.961","280.3","1.339","281.4","1018.309","17.17","84.6","231.7","0.0"],
    [1412690,"2026-05-19 06:10:00","50275","0.708","292.6","1.307","293.6","1018.346","17.49","83.3","123.3","0.0"],
    [1412691,"2026-05-19 06:20:00","50276","0.9179999999999999","290.9","1.372","303.1","1018.4989999999999","17.59","83.4","123.5","0.0"],
    [1412692,"2026-05-19 06:30:00","50277","0.899","280.1","1.666","270.8","1018.587","17.83","82.5","183.7","0.0"],
    [1412693,"2026-05-19 06:40:00","50278","1.3","297.4","2.091","299.7","1018.685","18.05","81.6","128.1","0.0"],
    [1412694,"2026-05-19 06:50:00","50279","1.287","295.4","1.927","302","1018.737","18.4","79.98","298.7","0.0"],
    [1412695,"2026-05-19 07:00:00","50280","0.41600000000000004","308.6","1.633","301","1018.716","18.81","78.04","314.7","0.0"],
    [1412696,"2026-05-19 07:10:00","50281","0.040999999999999995","314.4","0.653","313.5","1018.823","19.22","76.33","294.1","0.0"],
    [1412697,"2026-05-19 07:20:00","50282","0.26899999999999996","187.5","2.189","208.2","1018.933","19.77","75.2","435.8","0.0"],
    [1412698,"2026-05-19 07:30:00","50283","1.306","206.1","2.515","203","1019.073","19.28","75.51","164.1","0.0"],
    [1412699,"2026-05-19 07:40:00","50284","1.3030000000000002","202.6","2.809","189.7","1019.198","18.91","77.84","192.9","0.0"],
    [1412700,"2026-05-19 07:50:00","50285","1.304","209.7","2.973","207.8","1019.242","19.28","77.91","455.7","0.0"],
    [1412701,"2026-05-19 08:00:00","50286","0.945","189.4","3.103","178.7","1019.2719999999999","19.94","73.5","223.3","0.0"],
    [1412702,"2026-05-19 08:10:00","50287","1.9080000000000001","171.4","5.39","141.7","1019.2719999999999","19.42","73.25","285.3","0.0"],
    [1412703,"2026-05-19 08:20:00","50288","1.254","179.5","3.985","154.6","1019.319","19.37","72.46","284.5","0.0"],
    [1412704,"2026-05-19 08:30:00","50289","0.9309999999999999","156.8","2.221","84.2","1019.27","19.94","71.68","431.4","0.0"],
    [1412705,"2026-05-19 08:40:00","50290","1.194","144.5","2.973","183.5","1019.2760000000001","20.5","70.7","493.2","0.0"],
    [1412706,"2026-05-19 08:50:00","50291","1.1340000000000001","156.1","3.855","190.7","1019.35","20.39","71.78","407.6","0.0"],
    [1412707,"2026-05-19 09:00:00","50292","1.064","144.5","3.855","103.6","1019.385","20.06","73.11","465.7","0.0"],
    [1412708,"2026-05-19 09:10:00","50293","1.135","146.9","3.136","163","1019.3739999999999","21.01","69.85","854.0","0.0"],
    [1412709,"2026-05-19 09:20:00","50294","1.436","166.3","3.397","176.5","1019.4110000000001","21.14","69.75","893.0","0.0"],
    [1412710,"2026-05-19 09:30:00","50295","2.312","204.7","4.149","215","1019.467","21.09","69.76","599.5","0.0"],
    [1412711,"2026-05-19 09:40:00","50296","3.057","177.8","4.377","164.7","1019.572","20.38","69.74","516.3","0.0"],
    [1412712,"2026-05-19 09:50:00","50297","3.238","170.2","4.802","185.2","1019.581","20.1","70.93","672.7","0.0"],
    [1412713,"2026-05-19 10:00:00","50298","3.157","176.7","4.802","175.3","1019.57","20.48","71.15","874.0","0.0"],
    [1412714,"2026-05-19 10:10:00","50299","3.353","175.0","4.965","174.1","1019.654","20.12","73.38","884.0","0.0"],
    [1412715,"2026-05-19 10:20:00","50300","3.073","173.0","5.325","160.5","1019.66","20.15","73.25","897.0","0.0"],
    [1412716,"2026-05-19 10:30:00","50301","3.005","175.9","5.521","163.2","1019.7080000000001","20.56","71.52","910.0","0.0"],
    [1412717,"2026-05-19 10:40:00","50302","3.2680000000000002","169.1","5.031","164.3","1019.655","20.46","70.82","926.0","0.0"],
    [1412718,"2026-05-19 10:50:00","50303","2.7230000000000003","188.2","4.639","173.9","1019.6439999999999","20.86","69.45","933.0","0.0"],
    [1412719,"2026-05-19 11:00:00","50304","3.766","172.6","5.39","165.1","1019.7130000000001","20.62","70.49","947.0","0.0"],
    [1412720,"2026-05-19 11:10:00","50305","2.885","191.3","4.606","185.8","1019.699","21.16","68.97","950.0","0.0"],
    [1412721,"2026-05-19 11:20:00","50306","3.09","181.2","5.423","176.7","1019.694","21.41","67.81","955.0","0.0"],
    [1412722,"2026-05-19 11:30:00","50307","2.9189999999999996","165.1","4.802","180.6","1019.7230000000001","20.77","70.51","960.0","0.0"],
    [1412723,"2026-05-19 11:40:00","50308","2.381","180.2","4.573","181.2","1019.666","21.4","67.39","966.0","0.0"],
    [1412724,"2026-05-19 11:50:00","50309","2.93","171.0","5.063","175.7","1019.613","21.38","65.6","949.0","0.0"],
    [1412725,"2026-05-19 12:00:00","50310","2.9019999999999997","172.5","4.867","171.7","1019.577","21.18","64.85","956.0","0.0"],
    [1412726,"2026-05-19 12:10:00","50311","2.736","188.5","6.86","156.8","1019.6339999999999","21.49","66.42","914.0","0.0"],
    [1412727,"2026-05-19 12:20:00","50312","2.6039999999999996","179.8","5.423","187.1","1019.632","21.27","70.98","972.0","0.0"],
    [1412728,"2026-05-19 12:30:00","50313","3.347","177.9","5.161","174.6","1019.622","21.06","71.39","961.0","0.0"],
    [1412729,"2026-05-19 12:40:00","50314","3.073","166.7","5.096","152","1019.612","20.75","72.18","951.0","0.0"],
    [1412730,"2026-05-19 12:50:00","50315","3.1180000000000003","172.5","5.031","174.3","1019.5360000000001","20.81","72.8","937.0","0.0"],
    [1412731,"2026-05-19 13:00:00","50316","3.177","170.8","5.325","169.8","1019.49","20.64","74.25","941.0","0.0"],
    [1412732,"2026-05-19 13:10:00","50317","3.278","176.0","6.207","195.1","1019.5319999999999","20.92","72.96","910.0","0.0"],
    [1412733,"2026-05-19 13:20:00","50318","2.1630000000000003","173.5","4.606","198.9","1019.4630000000001","21.21","71.41","927.0","0.0"],
    [1412734,"2026-05-19 13:30:00","50319","2.622","185.4","5.423","173.6","1019.408","21.46","71.2","882.0","0.0"],
    [1412735,"2026-05-19 13:40:00","50320","2.99","168.3","5.651","168.4","1019.424","21.05","71.84","889.0","0.0"],
    [1412736,"2026-05-19 13:50:00","50321","2.306","166.1","4.541","171.2","1019.3760000000001","21.13","72.93","827.0","0.0"],
    [1412737,"2026-05-19 14:00:00","50322","3.508","186.6","5.325","229.4","1019.32","20.84","75.19","833.0","0.0"],
    [1412738,"2026-05-19 14:10:00","50323","3.043","182.1","5.357","186.5","1019.27","21.36","73.32","876.0","0.0"],
    [1412739,"2026-05-19 14:20:00","50324","2.74","182.9","5.357","178.3","1019.2660000000001","21.6","72.72","749.5","0.0"],
    [1412740,"2026-05-19 14:30:00","50325","3.447","185.3","5.521","158.3","1019.1360000000001","21.16","74.65","760.8","0.0"],
    [1412741,"2026-05-19 14:40:00","50326","2.614","193.6","5.259","183","1019.127","21.68","73.2","684.7","0.0"],
    [1412742,"2026-05-19 14:50:00","50327","2.832","186.5","5.194","182.1","1019.145","21.38","73.84","682.4","0.0"],
    [1412743,"2026-05-19 15:00:00","50328","2.832","191.8","5.292","190.1","1019.1039999999999","21.61","73.96","675.2","0.0"],
    [1412744,"2026-05-19 15:10:00","50329","3.543","195.1","5.619","182","1019.087","21.41","74.77","667.4","0.0"],
    [1412745,"2026-05-19 15:20:00","50330","2.977","206.2","5.521","238","1019.1289999999999","21.41","74.98","672.0","0.0"],
    [1412746,"2026-05-19 15:30:00","50331","3.2539999999999996","201.3","6.174","219.5","1019.132","21.48","74.1","607.9","0.0"],
    [1412747,"2026-05-19 15:40:00","50332","3.075","208.2","5.553","215.9","1019.0360000000001","21.33","73.56","514.3","0.0"],
    [1412748,"2026-05-19 15:50:00","50333","2.8789999999999996","200.9","5.063","216","1019.05","21.43","72.77","532.1","0.0"],
    [1412749,"2026-05-19 16:00:00","50334","2.823","194.0","5.357","171.4","1019.117","20.89","75.29","423.9","0.0"],
    [1412750,"2026-05-19 16:10:00","50335","2.912","212.8","4.867","224.6","1019.1469999999999","20.94","75.26","384.5","0.0"],
    [1412751,"2026-05-19 16:20:00","50336","2.929","189.1","5.161","168.6","1019.177","20.72","75.43","404.0","0.0"],
    [1412752,"2026-05-19 16:30:00","50337","2.9160000000000004","195.6","4.606","224.9","1019.192","20.95","74.4","467.8","0.0"],
    [1412753,"2026-05-19 16:40:00","50338","2.886","208.5","4.998","217.4","1019.263","21.02","74.02","375.8","0.0"],
    [1412754,"2026-05-19 16:50:00","50339","3.261","176.9","5.39","184.4","1019.28","20.62","75.07","326.8","0.0"],
    [1412755,"2026-05-19 17:00:00","50340","2.968","197.0","5.455","189.6","1019.365","20.67","75.62","315.6","0.0"],
    [1412756,"2026-05-19 17:10:00","50341","2.634","193.5","4.377","194.7","1019.382","20.52","76.71","249.8","0.0"],
    [1412757,"2026-05-19 17:20:00","50342","2.926","211.5","4.671","222.8","1019.347","20.43","77.95","236.0","0.0"],
    [1412758,"2026-05-19 17:30:00","50343","2.381","206.5","3.887","203.9","1019.414","20.19","79.01","161.0","0.0"],
    [1412759,"2026-05-19 17:40:00","50344","2.572","184.7","3.855","189.5","1019.558","19.86","78.55","89.9","0.0"],
    [1412760,"2026-05-19 17:50:00","50345","2.3890000000000002","185.2","4.345","218","1019.5880000000001","19.82","80.5","89.1","0.0"],
    [1412761,"2026-05-19 18:00:00","50346","2.271","188.2","4.443","183.7","1019.688","19.7","79.34","68.05","0.0"],
    [1412762,"2026-05-19 18:10:00","50347","2.033","177.8","4.671","140.9","1019.828","19.73","78.09","64.9","0.0"],
    [1412763,"2026-05-19 18:20:00","50348","1.571","180.1","3.593","219.7","1019.877","19.65","78.07","43.11","0.0"],
    [1412764,"2026-05-19 18:30:00","50349","2.106","213.4","5.096","172.4","1019.904","19.66","77.35","71.81","0.0"],
    [1412765,"2026-05-19 18:40:00","50350","1.6130000000000002","188.4","3.561","149.1","1019.961","19.66","77.94","64.72","0.0"],
    [1412766,"2026-05-19 18:50:00","50351","1.821","195.0","4.247","212.3","1020.005","19.61","79.42","28.22","0.0"],
    [1412767,"2026-05-19 19:00:00","50352","1.865","190.1","3.332","189.9","1020.076","19.52","81.5","12.0","0.0"],
    [1412768,"2026-05-19 19:10:00","50353","1.8730000000000002","186.2","4.018","248.6","1020.174","19.17","82.0","5.1579999999999995","0.0"],
    [1412769,"2026-05-19 19:20:00","50354","1.314","189.1","3.038","123.3","1020.2310000000001","19.07","81.9","0.245","0.0"],
    [1412770,"2026-05-19 19:30:00","50355","1.47","182.1","4.802","215.8","1020.318","18.97","81.7","-1.778","0.0"],
    [1412771,"2026-05-19 19:40:00","50356","1.0659999999999998","159.1","3.234","201.9","1020.33","18.89","81.5","-2.5580000000000003","0.0"],
    [1412772,"2026-05-19 19:50:00","50357","1.3119999999999998","165.3","3.234","251.1","1020.418","18.8","81.6","-2.66","0.0"],
    [1412773,"2026-05-19 20:00:00","50358","0.527","136.1","1.699","358.6","1020.5310000000001","18.7","81.8","-2.66","0.0"],
    [1412774,"2026-05-19 20:10:00","50359","0.588","136.1","2.973","113.9","1020.7589999999999","18.67","81.9","-2.677","0.0"],
    [1412775,"2026-05-19 20:20:00","50360","0.59","123.4","1.764","131.2","1020.9580000000001","18.63","82.0","-2.68","0.0"],
    [1412776,"2026-05-19 20:30:00","50361","1.568","93.8","2.646","93.2","1021.1080000000001","18.72","82.1","-2.694","0.0"],
    [1412777,"2026-05-19 20:40:00","50362","1.8330000000000002","92.1","3.397","84.1","1021.2810000000001","18.76","81.8","-2.693","0.0"],
    [1412778,"2026-05-19 20:50:00","50363","1.5830000000000002","97.7","5.684","131","1021.434","18.7","82.2","-2.6919999999999997","0.0"],
    [1412779,"2026-05-19 21:00:00","50364","1.626","87.2","3.626","111.3","1021.493","18.68","82.5","-2.694","0.0"],
    [1412780,"2026-05-19 21:10:00","50365","1.7919999999999998","91.8","3.365","98.8","1021.515","18.7","82.8","-2.694","0.0"],
    [1412781,"2026-05-19 21:20:00","50366","1.4180000000000001","83.6","1.862","82","1021.607","18.58","83.5","-2.694","0.0"],
    [1412782,"2026-05-19 21:30:00","50367","1.172","83.3","1.731","82.1","1021.71","18.34","84.7","-2.694","0.0"],
    [1412783,"2026-05-19 21:40:00","50368","1.565","76.53","1.993","74.47","1021.77","18.15","85.7","-2.696","0.0"],
    [1412784,"2026-05-19 21:50:00","50369","0.606","83.6","1.176","90.2","1021.797","18.08","86.2","-2.694","0.0"],
    [1412785,"2026-05-19 22:00:00","50370","0.66","91.5","1.339","98","1021.789","18.09","86.5","-2.696","0.0"],
    [1412786,"2026-05-19 22:10:00","50371","1.08","73.37","1.372","77.57","1021.8639999999999","18.04","86.9","-2.694","0.0"],
    [1412787,"2026-05-19 22:20:00","50372","0.6409999999999999","75.74","1.078","73.57","1021.928","17.95","87.1","-2.694","0.0"],
    [1412788,"2026-05-19 22:30:00","50373","0.259","74.69","0.686","73.41","1021.956","17.82","87.5","-2.7039999999999997","0.0"],
    [1412789,"2026-05-19 22:40:00","50374","0.731","78.23","1.013","79.9","1021.9680000000001","17.81","88.1","-2.696","0.0"],
    [1412790,"2026-05-19 22:50:00","50375","0.643","77.67","1.078","71.18","1021.951","17.87","88.2","-2.694","0.0"],
    [1412791,"2026-05-19 23:00:00","50376","0.965","74.22","1.078","73.02","1021.942","17.73","88.5","-2.694","0.0"],
    [1412792,"2026-05-19 23:10:00","50377","0.772","75.96","1.078","76.83","1021.919","17.66","88.9","-2.694","0.0"],
    [1412793,"2026-05-19 23:20:00","50378","0.5379999999999999","85.5","1.143","81.4","1021.8989999999999","17.69","89.0","-2.694","0.0"],
    [1412794,"2026-05-19 23:30:00","50379","0.44","83.5","1.045","82.6","1021.885","17.65","88.5","-2.694","0.0"],
    [1412795,"2026-05-19 23:40:00","50380","0.652","95.3","1.078","96.4","1021.81","17.68","89.0","-2.693","0.0"],
    [1412796,"2026-05-19 23:50:00","50381","0.11699999999999999","99.8","0.719","99.8","1021.797","17.65","88.5","-2.693","0.0"],
    [1412797,"2026-05-20 00:00:00","50382","0.325","100.0","0.784","99.8","1021.807","17.53","89.1","-2.694","0.0"],
    [1412798,"2026-05-20 00:10:00","50383","0.055","102.3","0.621","105.6","1021.875","17.46","88.8","-2.695","0.0"],
    [1412799,"2026-05-20 00:20:00","50384","0.872","272.1","1.535","273.3","1021.939","17.16","89.2","-2.698","0.0"],
    [1412800,"2026-05-20 00:30:00","50385","0.8759999999999999","266.0","1.699","271.9","1021.975","17.16","88.9","-2.695","0.0"],
    [1412801,"2026-05-20 00:40:00","50386","0.782","269.3","1.764","284.4","1021.9069999999999","17.24","88.0","-2.695","0.0"],
    [1412802,"2026-05-20 00:50:00","50387","0.8009999999999999","273.4","1.47","276.6","1021.8710000000001","16.98","87.6","-2.694","0.0"],
    [1412803,"2026-05-20 01:00:00","50388","0.69","283.6","1.111","282.2","1021.827","16.62","88.3","-2.696","0.0"],
    [1412804,"2026-05-20 01:10:00","50389","0.368","283.3","0.947","286.2","1021.7669999999999","16.55","88.8","-2.694","0.0"],
    [1412805,"2026-05-20 01:20:00","50390","0.0","0.0","0","0","1021.71","16.46","88.9","-2.694","0.0"],
    [1412806,"2026-05-20 01:30:00","50391","0.758","257.7","1.176","252.4","1021.83","16.61","88.5","-2.694","0.0"],
    [1412807,"2026-05-20 01:40:00","50392","1.062","250.6","2.156","274.7","1021.762","16.8","87.2","-2.697","0.0"],
    [1412808,"2026-05-20 01:50:00","50393","0.9420000000000001","259.2","2.058","275.2","1021.7180000000001","16.83","87.0","-2.698","0.0"],
    [1412809,"2026-05-20 02:00:00","50394","0.261","267.5","0.817","244.5","1021.686","16.63","87.0","-2.699","0.0"],
    [1412810,"2026-05-20 02:10:00","50395","1.2819999999999998","279.0","1.993","284.3","1021.669","16.3","88.1","-2.695","0.0"],
    [1412811,"2026-05-20 02:20:00","50396","0.478","290.4","1.601","290.4","1021.748","16.15","88.8","-2.695","0.0"],
    [1412812,"2026-05-20 02:30:00","50397","0.0","0.0","0","0","1021.7719999999999","15.93","89.2","-2.697","0.0"],
    [1412813,"2026-05-20 02:40:00","50398","0.001","290.8","0.033","290.8","1021.785","15.75","89.8","-2.6519999999999997","0.0"],
    [1412814,"2026-05-20 02:50:00","50399","0.12","290.5","0.588","290.6","1021.773","15.79","90.1","-2.6430000000000002","0.0"],
    [1412815,"2026-05-20 03:00:00","50400","0.34","294.7","0.784","294.9","1021.796","15.81","90.2","-2.625","0.0"],
    [1412816,"2026-05-20 03:10:00","50401","0.05","294.8","0.523","294.9","1021.826","15.62","90.1","-2.522","0.0"],
    [1412817,"2026-05-20 03:20:00","50402","0.47600000000000003","294.1","1.111","292.7","1021.8589999999999","15.75","90.6","-2.612","0.0"],
    [1412818,"2026-05-20 03:30:00","50403","0.433","291.0","1.078","289.5","1021.8660000000001","15.85","90.0","-2.597","0.0"],
    [1412819,"2026-05-20 03:40:00","50404","0.69","278.7","1.797","281.2","1021.941","15.85","90.0","-2.685","0.0"],
    [1412820,"2026-05-20 03:50:00","50405","1.074","282.0","1.797","275","1022.0310000000001","15.98","89.7","-2.6860000000000004","0.0"],
    [1412821,"2026-05-20 04:00:00","50406","0.6679999999999999","279.4","1.176","282.6","1022.068","15.95","89.7","-2.695","0.0"],
    [1412822,"2026-05-20 04:10:00","50407","0.26","273.2","1.143","273.9","1022.1089999999999","15.82","89.6","-2.418","0.0"],
    [1412823,"2026-05-20 04:20:00","50408","0.035","267.2","0.359","265.3","1022.206","15.63","89.8","-1.521","0.0"],
    [1412824,"2026-05-20 04:30:00","50409","0.461","268.4","0.915","264.9","1022.297","15.73","90.2","0.7759999999999999","0.0"],
    [1412825,"2026-05-20 04:40:00","50410","0.057999999999999996","272.5","0.653","273.9","1022.3760000000001","15.84","89.6","5.432","0.0"],
    [1412826,"2026-05-20 04:50:00","50411","0.0","0.0","0","0","1022.4780000000001","15.8","89.7","12.05","0.0"],
    [1412827,"2026-05-20 05:00:00","50412","0.317","274.3","0.817","274.9","1022.581","15.8","89.8","30.0","0.0"],
    [1412828,"2026-05-20 05:10:00","50413","0.723","274.6","1.111","276.2","1022.6360000000001","16.04","89.5","49.54","0.0"],
    [1412829,"2026-05-20 05:20:00","50414","1.0759999999999998","277.3","1.535","287.5","1022.791","16.42","88.3","67.41","0.0"],
    [1412830,"2026-05-20 05:30:00","50415","0.927","280.3","1.437","283.2","1022.914","16.83","86.7","95.9","0.0"],
    [1412831,"2026-05-20 05:40:00","50416","0.818","280.7","1.241","280.1","1023.012","17.24","85.0","125.2","0.0"],
    [1412832,"2026-05-20 05:50:00","50417","0.506","282.8","0.947","284","1023.173","17.71","83.6","154.8","0.0"],
    [1412833,"2026-05-20 06:00:00","50418","0.602","290.2","0.947","293.9","1023.248","18.14","81.8","185.7","0.0"],
    [1412834,"2026-05-20 06:10:00","50419","0.504","293.4","0.849","294","1023.357","18.64","80.1","214.7","0.0"],
    [1412835,"2026-05-20 06:20:00","50420","0.836","288.0","1.307","281.6","1023.475","19.02","78.92","247.0","0.0"],
    [1412836,"2026-05-20 06:30:00","50421","0.619","290.8","1.274","291.7","1023.547","19.31","77.64","279.3","0.0"],
    [1412837,"2026-05-20 06:40:00","50422","0.981","295.5","1.437","309.3","1023.673","19.71","76.27","317.4","0.0"],
    [1412838,"2026-05-20 06:50:00","50423","0.6","26.36","2.156","87.1","1023.7439999999999","20.26","74.2","353.0","0.0"],
    [1412839,"2026-05-20 07:00:00","50424","2.798","82.5","3.92","86.3","1023.818","20.48","70.66","399.9","0.0"],
    [1412840,"2026-05-20 07:10:00","50425","2.824","73.89","3.691","82.6","1023.8939999999999","20.22","73.24","446.0","0.0"],
    [1412841,"2026-05-20 07:20:00","50426","2.267","74.3","3.528","74.94","1024.021","20.27","75.3","484.8","0.0"],
    [1412842,"2026-05-20 07:30:00","50427","1.9469999999999998","79.67","2.744","102.2","1024.12","20.3","75.93","484.1","0.0"],
    [1412843,"2026-05-20 07:40:00","50428","2.008","84.8","3.038","82.6","1024.2089999999998","20.34","75.23","424.1","0.0"],
    [1412844,"2026-05-20 07:50:00","50429","1.5390000000000001","95.6","2.711","79.73","1024.249","20.58","75.43","391.9","0.0"],
    [1412845,"2026-05-20 08:00:00","50430","1.59","91.5","2.548","90.8","1024.338","20.33","76.82","479.0","0.0"],
    [1412846,"2026-05-20 08:10:00","50431","1.704","87.2","3.397","86","1024.428","21.02","73.33","670.0","0.0"],
    [1412847,"2026-05-20 08:20:00","50432","2.248","89.6","3.397","86","1024.4669999999999","21.04","72.0","549.4","0.0"],
    [1412848,"2026-05-20 08:30:00","50433","1.841","84.2","2.94","85.6","1024.5410000000002","21.05","73.12","473.0","0.0"],
    [1412849,"2026-05-20 08:40:00","50434","1.9369999999999998","90.7","3.299","90.3","1024.639","21.27","72.09","712.6","0.0"],
    [1412850,"2026-05-20 08:50:00","50435","1.848","99.9","3.528","94.6","1024.693","21.88","69.52","758.6","0.0"],
    [1412851,"2026-05-20 09:00:00","50436","2.416","81.1","4.377","82.7","1024.765","21.62","69.33","786.7","0.0"],
    [1412852,"2026-05-20 09:10:00","50437","1.885","82.8","3.234","88.7","1024.802","21.59","69.91","766.4","0.0"],
    [1412853,"2026-05-20 09:20:00","50438","2.356","81.9","3.626","65.44","1024.8010000000002","21.63","70.7","791.6","0.0"],
    [1412854,"2026-05-20 09:30:00","50439","2.048","95.4","3.365","62.42","1024.8319999999999","21.5","73.13","813.0","0.0"],
    [1412855,"2026-05-20 09:40:00","50440","2.1430000000000002","89.4","3.789","67.95","1024.892","21.64","71.71","830.0","0.0"],
    [1412856,"2026-05-20 09:50:00","50441","2.3369999999999997","86.4","3.43","99.6","1024.931","21.33","73.4","847.0","0.0"],
    [1412857,"2026-05-20 10:00:00","50442","2.662","86.4","4.083","96.4","1024.9669999999999","21.72","71.22","863.0","0.0"],
    [1412858,"2026-05-20 10:10:00","50443","2.372","95.6","5.096","70.48","1025.012","21.93","70.57","879.0","0.0"],
    [1412859,"2026-05-20 10:20:00","50444","2.425","94.1","4.475","88.8","1025.055","21.92","71.17","878.0","0.0"],
    [1412860,"2026-05-20 10:30:00","50445","2.593","92.5","4.508","88.3","1025.083","21.91","71.17","903.0","0.0"],
    [1412861,"2026-05-20 10:40:00","50446","2.35","92.4","4.051","86.7","1025.068","22.2","70.79","879.0","0.0"],
    [1412862,"2026-05-20 10:50:00","50447","1.2690000000000001","120.1","2.973","138.6","1025.095","22.68","68.87","937.0","0.0"],
    [1412863,"2026-05-20 11:00:00","50448","1.103","157.0","3.495","194.2","1025.0339999999999","22.56","68.67","931.0","0.0"],
    [1412864,"2026-05-20 11:10:00","50449","1.5819999999999999","112.6","3.267","118.1","1024.9569999999999","22.82","67.22","948.0","0.0"],
    [1412865,"2026-05-20 11:20:00","50450","1.374","137.0","3.234","167.4","1024.944","22.95","66.0","960.0","0.0"],
    [1412866,"2026-05-20 11:30:00","50451","1.587","124.3","3.332","158.6","1025.016","22.8","65.46","950.0","0.0"],
    [1412867,"2026-05-20 11:40:00","50452","1.249","139.6","3.528","124","1025.004","23.13","64.56","950.0","0.0"],
    [1412868,"2026-05-20 11:50:00","50453","1.264","130.3","3.267","83.8","1024.925","23.45","63.13","936.0","0.0"],
    [1412869,"2026-05-20 12:00:00","50454","1.59","133.9","4.867","184.6","1024.877","23.28","63.15","925.0","0.0"],
    [1412870,"2026-05-20 12:10:00","50455","1.604","112.0","3.495","135","1024.948","22.6","64.74","795.6","0.0"],
    [1412871,"2026-05-20 12:20:00","50456","1.801","120.0","4.116","186.9","1024.931","22.83","64.27","794.1","0.0"],
    [1412872,"2026-05-20 12:30:00","50457","1.181","104.1","3.43","168.3","1024.932","23.34","62.91","937.0","0.0"],
    [1412873,"2026-05-20 12:40:00","50458","1.605","130.4","3.953","127.4","1024.812","23.4","61.45","939.0","0.0"],
    [1412874,"2026-05-20 12:50:00","50459","1.261","151.9","3.267","125.4","1024.8039999999999","23.36","61.69","923.0","0.0"],
    [1412875,"2026-05-20 13:00:00","50460","1.4280000000000002","161.5","3.724","160.5","1024.787","23.08","62.96","918.0","0.0"],
    [1412876,"2026-05-20 13:10:00","50461","1.725","157.1","3.822","181.4","1024.874","22.91","62.56","913.0","0.0"],
    [1412877,"2026-05-20 13:20:00","50462","1.5430000000000001","108.9","3.43","142.8","1024.932","23.09","62.9","887.0","0.0"],
    [1412878,"2026-05-20 13:30:00","50463","1.1320000000000001","125.0","3.267","191","1024.987","23.2","62.2","876.0","0.0"],
    [1412879,"2026-05-20 13:40:00","50464","1.6480000000000001","102.0","4.083","121.4","1025.002","23.41","62.26","871.0","0.0"],
    [1412880,"2026-05-20 13:50:00","50465","3.1489999999999996","96.0","4.769","101.9","1024.99","22.36","64.5","864.0","0.0"],
    [1412881,"2026-05-20 14:00:00","50466","1.9980000000000002","111.9","3.822","101.6","1024.952","22.33","65.56","838.0","0.0"],
    [1412882,"2026-05-20 14:10:00","50467","2.128","105.8","3.985","98.8","1024.8519999999999","22.82","63.26","822.0","0.0"],
    [1412883,"2026-05-20 14:20:00","50468","2.5839999999999996","95.5","4.149","84.6","1024.79","22.47","64.41","792.9","0.0"],
    [1412884,"2026-05-20 14:30:00","50469","1.5090000000000001","107.3","3.757","86.2","1024.652","23.06","61.21","761.1","0.0"],
    [1412885,"2026-05-20 14:40:00","50470","1.756","114.3","5.129","113.7","1024.59","22.76","62.22","683.6","0.0"],
    [1412886,"2026-05-20 14:50:00","50471","1.705","102.7","4.312","76.39","1024.4769999999999","22.96","61.84","689.6","0.0"],
    [1412887,"2026-05-20 15:00:00","50472","1.8780000000000001","100.4","3.659","85","1024.386","22.74","61.43","615.8","0.0"],
    [1412888,"2026-05-20 15:10:00","50473","1.901","110.6","3.953","86.9","1024.407","22.29","63.49","558.8","0.0"],
    [1412889,"2026-05-20 15:20:00","50474","1.8659999999999999","102.7","3.953","93.3","1024.405","22.16","62.93","581.5","0.0"],
    [1412890,"2026-05-20 15:30:00","50475","2.8939999999999997","83.8","4.704","82.4","1024.4289999999999","22.06","64.7","593.4","0.0"],
    [1412891,"2026-05-20 15:40:00","50476","2.492","96.1","4.051","114.1","1024.423","21.97","63.72","571.5","0.0"],
    [1412892,"2026-05-20 15:50:00","50477","2.313","78.14","4.279","82.1","1024.315","22.15","61.96","513.0","0.0"],
    [1412893,"2026-05-20 16:00:00","50478","2.391","97.0","4.41","104.2","1024.274","21.96","62.87","552.8","0.0"],
    [1412894,"2026-05-20 16:10:00","50479","2.2840000000000003","86.8","4.083","90.2","1024.27","22.12","62.61","501.4","0.0"],
    [1412895,"2026-05-20 16:20:00","50480","2.206","92.6","3.626","88","1024.205","22.14","63.67","483.8","0.0"],
    [1412896,"2026-05-20 16:30:00","50481","2.033","84.1","3.495","89.1","1024.129","22.19","64.44","423.1","0.0"],
    [1412897,"2026-05-20 16:40:00","50482","2.383","84.1","4.345","91.8","1024.095","22.0","65.72","415.0","0.0"],
    [1412898,"2026-05-20 16:50:00","50483","1.729","86.6","3.332","83","1024.0339999999999","21.93","66.2","357.1","0.0"],
    [1412899,"2026-05-20 17:00:00","50484","2.226","86.7","3.691","124.4","1024.04","21.94","65.24","292.9","0.0"],
    [1412900,"2026-05-20 17:10:00","50485","1.8159999999999998","86.7","3.659","86.3","1023.9960000000001","21.67","65.38","273.9","0.0"],
    [1412901,"2026-05-20 17:20:00","50486","2.904","83.9","4.279","86.6","1024.008","21.49","67.66","289.7","0.0"],
    [1412902,"2026-05-20 17:30:00","50487","3.6260000000000003","73.37","5.292","72.88","1024.104","21.39","67.23","241.7","0.0"],
    [1412903,"2026-05-20 17:40:00","50488","2.8369999999999997","77.56","3.92","77.92","1024.117","21.16","67.55","203.9","0.0"],
    [1412904,"2026-05-20 17:50:00","50489","3.2319999999999998","75.52","4.443","86.5","1024.143","21.17","68.18","182.6","0.0"],
    [1412905,"2026-05-20 18:00:00","50490","3.0380000000000003","72.77","4.214","72.98","1024.193","21.19","69.32","156.0","0.0"],
    [1412906,"2026-05-20 18:10:00","50491","2.725","75.28","3.659","81.6","1024.184","21.05","69.36","116.0","0.0"],
    [1412907,"2026-05-20 18:20:00","50492","2.492","78.22","3.659","76.49","1024.233","21.07","68.61","95.0","0.0"],
    [1412908,"2026-05-20 18:30:00","50493","2.305","75.81","3.626","94.4","1024.275","21.01","67.96","74.01","0.0"],
    [1412909,"2026-05-20 18:40:00","50494","2.063","70.99","2.907","73.02","1024.35","20.92","68.45","46.07","0.0"],
    [1412910,"2026-05-20 18:50:00","50495","1.903","73.72","2.842","83.4","1024.345","20.71","71.27","19.47","0.0"],
    [1412911,"2026-05-20 19:00:00","50496","1.729","63.12","2.973","65.92","1024.356","20.65","71.72","8.59","0.0"],
    [1412912,"2026-05-20 19:10:00","50497","1.629","72.95","2.319","60.76","1024.354","20.51","73.32","3.491","0.0"],
    [1412913,"2026-05-20 19:20:00","50498","1.5319999999999998","70.26","2.221","68.79","1024.375","20.42","73.77","-0.354","0.0"],
    [1412914,"2026-05-20 19:30:00","50499","1.2819999999999998","77.26","2.123","74.44","1024.3980000000001","20.38","73.15","-2.086","0.0"],
    [1412915,"2026-05-20 19:40:00","50500","1.0290000000000001","72.15","1.47","68.8","1024.41","20.29","73.05","-2.662","0.0"],
    [1412916,"2026-05-20 19:50:00","50501","0.922","66.6","1.372","78.39","1024.43","20.22","72.65","-2.668","0.0"],
    [1412917,"2026-05-20 20:00:00","50502","0.718","60.16","1.339","47.17","1024.546","20.17","72.31","-2.678","0.0"],
    [1412918,"2026-05-20 20:10:00","50503","0.645","56.26","1.111","53.56","1024.643","20.16","72.13","-2.673","0.0"],
    [1412919,"2026-05-20 20:20:00","50504","0.244","75.68","0.849","72.49","1024.6680000000001","20.09","72.84","-2.6630000000000003","0.0"],
    [1412920,"2026-05-20 20:30:00","50505","0.327","84.3","0.784","72.55","1024.768","20.07","73.02","-2.6660000000000004","0.0"],
    [1412921,"2026-05-20 20:40:00","50506","0.001","85.8","0.033","85.8","1024.856","20.03","73.02","-2.6639999999999997","0.0"],
    [1412922,"2026-05-20 20:50:00","50507","0.0","0.0","0","0","1024.976","20.06","71.79","-2.661","0.0"],
    [1412923,"2026-05-20 21:00:00","50508","0.0","0.0","0","0","1024.987","20.15","68.42","-2.627","0.0"],
    [1412924,"2026-05-20 21:10:00","50509","0.518","244.3","0.947","234.4","1025.008","19.95","71.06","-2.67","0.0"],
    [1412925,"2026-05-20 21:20:00","50510","0.5379999999999999","243.3","1.078","241.7","1025.016","19.91","72.61","-2.674","0.0"],
    [1412926,"2026-05-20 21:30:00","50511","1.035","236.1","1.339","234.9","1024.952","19.95","72.14","-2.678","0.0"],
    [1412927,"2026-05-20 21:40:00","50512","1.146","233.8","1.633","226.3","1024.895","19.94","69.67","-2.6830000000000003","0.0"],
    [1412928,"2026-05-20 21:50:00","50513","0.9079999999999999","244.2","1.535","231.8","1024.906","19.84","71.15","-2.682","0.0"],
    [1412929,"2026-05-20 22:00:00","50514","0.54","253.9","1.241","245.6","1024.9089999999999","19.66","72.58","-2.687","0.0"],
    [1412930,"2026-05-20 22:10:00","50515","0.976","232.4","1.47","230.3","1024.835","19.72","73.54","-2.6860000000000004","0.0"],
    [1412931,"2026-05-20 22:20:00","50516","1.145","234.0","1.601","244.3","1024.797","19.66","74.14","-2.6830000000000003","0.0"],
    [1412932,"2026-05-20 22:30:00","50517","0.742","237.9","1.209","240","1024.7269999999999","19.64","73.98","-2.6830000000000003","0.0"],
    [1412933,"2026-05-20 22:40:00","50518","0.633","249.6","1.241","247","1024.642","19.65","73.14","-2.687","0.0"],
    [1412934,"2026-05-20 22:50:00","50519","0.28800000000000003","252.9","1.111","262.3","1024.64","19.37","73.9","-2.6919999999999997","0.0"],
    [1412935,"2026-05-20 23:00:00","50520","0.68","249.8","1.078","245.7","1024.6019999999999","19.4","72.59","-2.693","0.0"],
    [1412936,"2026-05-20 23:10:00","50521","0.7929999999999999","260.0","1.405","261.9","1024.5","19.25","73.09","-2.6919999999999997","0.0"],
    [1412937,"2026-05-20 23:20:00","50522","0.7490000000000001","258.9","1.143","281.4","1024.522","19.07","73.12","-2.694","0.0"],
    [1412938,"2026-05-20 23:30:00","50523","1.3659999999999999","270.4","2.287","274.2","1024.5639999999999","19.12","72.67","-2.6919999999999997","0.0"],
    [1412939,"2026-05-20 23:40:00","50524","0.802","250.7","2.254","273.3","1024.6019999999999","19.07","71.89","-2.6860000000000004","0.0"],
    [1412940,"2026-05-20 23:50:00","50525","1.768","272.5","2.744","261.7","1024.513","18.74","72.59","-2.693","0.0"],
    [1412941,"2026-05-21 00:00:00","50526","1.675","268.4","2.646","270.5","1024.4189999999999","18.46","73.34","-2.693","0.0"],
    [1412942,"2026-05-21 00:10:00","50527","1.348","254.2","3.365","275.7","1024.383","18.35","74.09","-2.693","0.0"],
    [1412943,"2026-05-21 00:20:00","50528","1.2229999999999999","254.6","2.254","239","1024.371","18.45","73.49","-2.694","0.0"],
    [1412944,"2026-05-21 00:30:00","50529","0.863","263.7","1.764","279.9","1024.366","18.28","73.98","-2.694","0.0"],
    [1412945,"2026-05-21 00:40:00","50530","1.604","278.8","3.071","283.3","1024.356","17.9","75.44","-2.6889999999999996","0.0"],
    [1412946,"2026-05-21 00:50:00","50531","1.3530000000000002","281.5","2.581","263.9","1024.263","17.54","76.59","-2.688","0.0"],
    [1412947,"2026-05-21 01:00:00","50532","1.123","259.2","2.417","244.2","1024.23","17.5","76.61","-2.682","0.0"],
    [1412948,"2026-05-21 01:10:00","50533","1.7469999999999999","276.1","3.626","280.1","1024.205","17.58","75.84","-2.653","0.0"],
    [1412949,"2026-05-21 01:20:00","50534","1.8969999999999998","279.3","3.397","273.2","1024.121","17.34","76.56","-2.545","0.0"],
    [1412950,"2026-05-21 01:30:00","50535","1.85","275.7","3.822","254.2","1024.089","17.3","76.97","-2.659","0.0"],
    [1412951,"2026-05-21 01:40:00","50536","2.004","281.8","3.267","279.1","1024.152","17.25","77.3","-2.6189999999999998","0.0"],
    [1412952,"2026-05-21 01:50:00","50537","1.8419999999999999","281.1","2.973","277.7","1024.1480000000001","17.18","77.64","-2.694","0.0"],
    [1412953,"2026-05-21 02:00:00","50538","1.735","285.1","3.005","285.8","1024.125","17.07","78.02","-2.693","0.0"],
    [1412954,"2026-05-21 02:10:00","50539","1.474","294.3","2.875","292.6","1024.1860000000001","16.99","78.12","-2.693","0.0"],
    [1412955,"2026-05-21 02:20:00","50540","1.929","297.9","2.613","300.7","1024.2069999999999","16.94","77.98","-2.688","0.0"],
    [1412956,"2026-05-21 02:30:00","50541","1.723","285.5","2.679","262.9","1024.203","16.82","78.21","-2.693","0.0"],
    [1412957,"2026-05-21 02:40:00","50542","2.079","284.0","2.907","286.7","1024.161","16.61","78.98","-2.693","0.0"],
    [1412958,"2026-05-21 02:50:00","50543","1.624","282.9","2.875","278","1024.083","16.68","78.32","-2.694","0.0"],
    [1412959,"2026-05-21 03:00:00","50544","1.2930000000000001","281.2","1.96","279.3","1024.0539999999999","16.79","77.48","-2.694","0.0"],
    [1412960,"2026-05-21 03:10:00","50545","1.276","275.7","1.927","268.5","1023.992","17.0","76.3","-2.694","0.0"],
    [1412961,"2026-05-21 03:20:00","50546","1.6640000000000001","271.6","2.679","256.4","1023.936","17.3","74.65","-2.693","0.0"],
    [1412962,"2026-05-21 03:30:00","50547","1.3419999999999999","277.4","1.895","273","1023.8939999999999","17.11","75.23","-2.69","0.0"],
    [1412963,"2026-05-21 03:40:00","50548","1.008","267.7","1.666","277.4","1023.87","17.2","74.8","-2.694","0.0"],
    [1412964,"2026-05-21 03:50:00","50549","1.117","268.5","1.829","271.9","1023.873","17.2","74.74","-2.695","0.0"],
    [1412965,"2026-05-21 04:00:00","50550","1.075","266.2","1.993","266.8","1023.8860000000001","17.31","74.28","-2.693","0.0"],
    [1412966,"2026-05-21 04:10:00","50551","1.042","278.9","1.829","278.4","1023.9","17.27","74.19","-2.47","0.0"],
    [1412967,"2026-05-21 04:20:00","50552","0.982","284.6","1.927","288.3","1023.852","17.12","74.65","-1.464","0.0"],
    [1412968,"2026-05-21 04:30:00","50553","1.52","279.6","2.417","271.6","1023.835","17.09","74.8","1.162","0.0"],
    [1412969,"2026-05-21 04:40:00","50554","1.9509999999999998","281.1","2.809","286.9","1023.8860000000001","17.23","74.13","6.292999999999999","0.0"],
    [1412970,"2026-05-21 04:50:00","50555","1.59","284.0","2.352","279.4","1023.9739999999999","17.16","74.3","14.91","0.0"],
    [1412971,"2026-05-21 05:00:00","50556","1.1909999999999998","297.7","2.156","291.7","1024.011","17.12","74.71","23.72","0.0"],
    [1412972,"2026-05-21 05:10:00","50557","1.203","309.8","2.189","308.6","1024.147","17.33","74.18","43.62","0.0"],
    [1412973,"2026-05-21 05:20:00","50558","1.115","307.4","1.764","300.7","1024.198","18.13","70.89","68.95","0.0"],
    [1412974,"2026-05-21 05:30:00","50559","1.389","290.1","2.548","288.9","1024.362","18.52","69.46","86.8","0.0"],
    [1412975,"2026-05-21 05:40:00","50560","1.8130000000000002","278.9","3.038","278.8","1024.535","18.59","69.02","98.1","0.0"],
    [1412976,"2026-05-21 05:50:00","50561","2.156","287.4","3.234","300.5","1024.589","18.59","68.8","152.9","0.0"],
    [1412977,"2026-05-21 06:00:00","50562","2.371","290.0","3.953","279.4","1024.628","18.91","67.67","187.8","0.0"],
    [1412978,"2026-05-21 06:10:00","50563","2.074","288.5","3.887","285.2","1024.722","19.14","67.02","220.8","0.0"],
    [1412979,"2026-05-21 06:20:00","50564","1.12","297.7","2.613","329","1024.836","19.62","65.64","241.6","0.0"],
    [1412980,"2026-05-21 06:30:00","50565","1.07","313.6","2.613","329","1024.884","20.03","63.12","275.8","0.0"],
    [1412981,"2026-05-21 06:40:00","50566","0.28800000000000003","268.5","1.045","267.4","1025.003","20.71","61.07","316.7","0.0"],
    [1412982,"2026-05-21 06:50:00","50567","0.713","73.5","1.862","87.4","1025.125","21.49","58.61","348.5","0.0"],
    [1412983,"2026-05-21 07:00:00","50568","1.726","96.1","3.463","102.9","1025.2169999999999","21.63","58.63","386.9","0.0"],
    [1412984,"2026-05-21 07:10:00","50569","1.135","88.4","1.96","83.3","1025.306","21.7","58.97","422.1","0.0"],
    [1412985,"2026-05-21 07:20:00","50570","1.376","80.8","2.45","76.6","1025.3319999999999","21.84","59.46","443.7","0.0"],
    [1412986,"2026-05-21 07:30:00","50571","1.3319999999999999","93.6","3.463","103.2","1025.385","22.31","57.4","486.0","0.0"],
    [1412987,"2026-05-21 07:40:00","50572","2.454","80.9","4.018","78.81","1025.4189999999999","21.97","58.96","518.3","0.0"],
    [1412988,"2026-05-21 07:50:00","50573","3.201","72.91","4.247","77.73","1025.4189999999999","21.4","63.35","551.5","0.0"],
    [1412989,"2026-05-21 08:00:00","50574","3.161","70.97","4.018","80","1025.412","21.45","63.58","582.0","0.0"],
    [1412990,"2026-05-21 08:10:00","50575","3.2","72.96","4.475","83.1","1025.454","21.91","63.14","610.1","0.0"],
    [1412991,"2026-05-21 08:20:00","50576","3.167","73.22","4.279","82.4","1025.476","22.51","59.45","607.8","0.0"],
    [1412992,"2026-05-21 08:30:00","50577","3.589","64.94","4.541","72.25","1025.468","22.58","58.6","671.2","0.0"],
    [1412993,"2026-05-21 08:40:00","50578","3.532","64.07","5.292","74.62","1025.5","22.46","60.33","670.5","0.0"],
    [1412994,"2026-05-21 08:50:00","50579","3.2260000000000004","67.37","4.443","56.75","1025.451","22.8","56.58","729.3","0.0"],
    [1412995,"2026-05-21 09:00:00","50580","3.2239999999999998","76.26","4.9","77.44","1025.402","22.99","57.88","756.3","0.0"],
    [1412996,"2026-05-21 09:10:00","50581","3.139","75.49","4.998","88.2","1025.438","22.92","59.49","781.0","0.0"],
    [1412997,"2026-05-21 09:20:00","50582","3.326","76.67","4.998","88.2","1025.447","22.45","61.95","803.0","0.0"],
    [1412998,"2026-05-21 09:30:00","50583","3.071","84.4","4.41","83.8","1025.492","22.77","62.13","825.0","0.0"],
    [1412999,"2026-05-21 09:40:00","50584","3.207","87.7","4.443","84.7","1025.517","22.83","62.71","843.0","0.0"],
    [1413000,"2026-05-21 09:50:00","50585","3.188","91.0","4.508","78.84","1025.478","23.03","60.87","863.0","0.0"],
    [1413001,"2026-05-21 10:00:00","50586","3.492","91.0","4.933","82.4","1025.434","23.0","59.31","883.0","0.0"],
    [1413002,"2026-05-21 10:10:00","50587","3.4560000000000004","91.7","5.129","99.3","1025.406","23.38","55.86","900.0","0.0"],
    [1413003,"2026-05-21 10:20:00","50588","3.2680000000000002","95.9","4.867","99.9","1025.4","23.26","53.5","916.0","0.0"],
    [1413004,"2026-05-21 10:30:00","50589","3.42","97.2","5.096","98.3","1025.378","23.6","51.51","930.0","0.0"],
    [1413005,"2026-05-21 10:40:00","50590","3.4130000000000003","101.9","5.357","100.1","1025.303","23.58","49.32","944.0","0.0"],
    [1413006,"2026-05-21 10:50:00","50591","3.853","95.1","5.292","99.2","1025.224","23.45","51.1","953.0","0.0"],
    [1413007,"2026-05-21 11:00:00","50592","3.264","99.2","5.488","80.2","1025.113","23.67","51.87","958.0","0.0"],
    [1413008,"2026-05-21 11:10:00","50593","2.509","103.9","4.769","108.8","1025.027","23.83","52.8","969.0","0.0"],
    [1413009,"2026-05-21 11:20:00","50594","2.6289999999999996","102.9","4.41","85.7","1024.9560000000001","23.66","53.9","975.0","0.0"],
    [1413010,"2026-05-21 11:30:00","50595","2.455","105.1","4.671","95.2","1024.9080000000001","23.79","54.34","979.0","0.0"],
    [1413011,"2026-05-21 11:40:00","50596","2.206","103.5","4.769","87","1024.8110000000001","23.84","54.92","982.0","0.0"],
    [1413012,"2026-05-21 11:50:00","50597","1.6909999999999998","115.4","3.855","88.5","1024.762","24.2","54.08","982.0","0.0"],
    [1413013,"2026-05-21 12:00:00","50598","2.2430000000000003","114.4","4.508","118.5","1024.8210000000001","23.75","55.54","981.0","0.0"],
    [1413014,"2026-05-21 12:10:00","50599","1.4469999999999998","114.0","3.397","97.4","1024.767","24.13","56.72","978.0","0.0"],
    [1413015,"2026-05-21 12:20:00","50600","1.942","116.2","4.116","143.6","1024.711","24.13","54.87","975.0","0.0"],
    [1413016,"2026-05-21 12:30:00","50601","1.036","129.1","4.9","98.7","1024.597","24.99","51.86","971.0","0.0"],
    [1413017,"2026-05-21 12:40:00","50602","1.486","133.3","5.325","119.8","1024.491","24.38","53.36","963.0","0.0"],
    [1413018,"2026-05-21 12:50:00","50603","1.891","121.9","4.475","128.5","1024.415","23.57","57.21","956.0","0.0"],
    [1413019,"2026-05-21 13:00:00","50604","1.188","143.7","3.495","124.1","1024.385","24.54","56.07","944.0","0.0"],
    [1413020,"2026-05-21 13:10:00","50605","1.5190000000000001","128.2","4.377","157.8","1024.393","24.28","54.31","933.0","0.0"],
    [1413021,"2026-05-21 13:20:00","50606","1.646","116.0","4.181","121.6","1024.351","23.97","55.38","921.0","0.0"],
    [1413022,"2026-05-21 13:30:00","50607","1.642","178.8","3.92","181.1","1024.313","24.84","53.53","908.0","0.0"],
    [1413023,"2026-05-21 13:40:00","50608","1.361","155.7","3.822","147.7","1024.323","24.6","52.48","892.0","0.0"],
    [1413024,"2026-05-21 13:50:00","50609","2.1519999999999997","171.7","4.508","169.6","1024.317","24.72","53.07","878.0","0.0"],
    [1413025,"2026-05-21 14:00:00","50610","1.723","161.3","3.659","152.3","1024.262","24.18","54.09","858.0","0.0"],
    [1413026,"2026-05-21 14:10:00","50611","2.23","190.1","3.92","159.6","1024.164","24.65","53.22","839.0","0.0"],
    [1413027,"2026-05-21 14:20:00","50612","2.695","193.1","4.998","186","1024.12","24.61","52.91","820.0","0.0"],
    [1413028,"2026-05-21 14:30:00","50613","2.503","197.7","4.802","193.7","1024.008","24.68","52.74","800.0","0.0"],
    [1413029,"2026-05-21 14:40:00","50614","2.8689999999999998","193.4","4.671","176.1","1023.916","24.14","54.64","772.5","0.0"],
    [1413030,"2026-05-21 14:50:00","50615","2.992","181.9","5.292","182","1023.837","23.68","58.01","750.3","0.0"],
    [1413031,"2026-05-21 15:00:00","50616","3.1260000000000003","176.8","5.161","169.2","1023.7360000000001","23.19","60.5","726.2","0.0"],
    [1413032,"2026-05-21 15:10:00","50617","2.52","178.5","4.998","167","1023.7310000000001","23.46","62.81","698.2","0.0"],
    [1413033,"2026-05-21 15:20:00","50618","2.506","180.4","4.41","160.6","1023.683","23.37","64.64","668.2","0.0"],
    [1413034,"2026-05-21 15:30:00","50619","2.8569999999999998","184.7","5.488","177.4","1023.6239999999999","23.48","65.12","602.7","0.0"],
    [1413035,"2026-05-21 15:40:00","50620","3.375","208.7","5.292","210.7","1023.602","23.48","64.07","608.6","0.0"],
    [1413036,"2026-05-21 15:50:00","50621","2.667","197.6","4.639","209.8","1023.6089999999999","23.59","64.82","538.2","0.0"],
    [1413037,"2026-05-21 16:00:00","50622","2.964","192.7","5.717","192.7","1023.554","23.51","65.46","547.2","0.0"],
    [1413038,"2026-05-21 16:10:00","50623","4.027","186.3","5.717","187.1","1023.4780000000001","22.85","68.01","516.8","0.0"],
    [1413039,"2026-05-21 16:20:00","50624","2.766","192.8","4.933","170.8","1023.421","23.26","66.3","485.3","0.0"],
    [1413040,"2026-05-21 16:30:00","50625","2.965","202.3","6.109","224.9","1023.3439999999999","23.49","64.55","451.4","0.0"],
    [1413041,"2026-05-21 16:40:00","50626","2.8680000000000003","196.3","4.867","199.4","1023.22","23.6","59.48","416.2","0.0"],
    [1413042,"2026-05-21 16:50:00","50627","3.24","205.0","5.455","207.1","1023.112","23.22","61.71","382.8","0.0"],
    [1413043,"2026-05-21 17:00:00","50628","2.9160000000000004","203.3","5.325","199.1","1023.086","23.21","60.19","350.9","0.0"],
    [1413044,"2026-05-21 17:10:00","50629","3.412","199.8","5.031","209.8","1023.064","22.9","62.69","318.4","0.0"],
    [1413045,"2026-05-21 17:20:00","50630","2.8789999999999996","205.9","5.292","209.1","1023.002","22.89","65.02","285.0","0.0"],
    [1413046,"2026-05-21 17:30:00","50631","3.258","210.7","6.435","221.2","1023.0260000000001","22.76","59.38","254.8","0.0"],
    [1413047,"2026-05-21 17:40:00","50632","2.148","197.4","4.41","174.7","1022.997","22.85","61.95","221.9","0.0"],
    [1413048,"2026-05-21 17:50:00","50633","2.017","202.1","4.345","193","1023.041","22.52","66.6","188.8","0.0"],
    [1413049,"2026-05-21 18:00:00","50634","2.425","201.2","4.769","216.8","1023.076","22.39","69.89","158.6","0.0"],
    [1413050,"2026-05-21 18:10:00","50635","2.127","202.9","4.051","211","1023.0980000000001","22.1","73.64","129.1","0.0"],
    [1413051,"2026-05-21 18:20:00","50636","2.37","189.3","3.985","180.9","1023.1560000000001","21.66","78.0","100.9","0.0"],
    [1413052,"2026-05-21 18:30:00","50637","2.165","201.6","3.757","213.3","1023.2239999999999","21.3","80.3","73.43","0.0"],
    [1413053,"2026-05-21 18:40:00","50638","2.5180000000000002","209.3","4.998","207.2","1023.279","21.08","80.3","49.32","0.0"],
    [1413054,"2026-05-21 18:50:00","50639","2.295","209.4","4.345","187.3","1023.393","20.92","80.2","27.89","0.0"],
    [1413055,"2026-05-21 19:00:00","50640","2.18","206.4","4.475","216.9","1023.443","20.8","79.34","12.63","0.0"],
    [1413056,"2026-05-21 19:10:00","50641","2.177","204.5","5.259","195.8","1023.54","20.66","80.3","3.95","0.0"],
    [1413057,"2026-05-21 19:20:00","50642","2.978","213.3","5.129","223.6","1023.5980000000001","20.67","77.87","-0.033","0.0"],
    [1413058,"2026-05-21 19:30:00","50643","2.28","205.6","4.377","222.5","1023.6039999999999","20.64","79.37","-2.193","0.0"],
    [1413059,"2026-05-21 19:40:00","50644","1.82","200.8","4.345","210.6","1023.658","20.45","82.0","-2.665","0.0"],
    [1413060,"2026-05-21 19:50:00","50645","1.814","191.8","2.809","207","1023.745","20.36","83.0","-2.667","0.0"],
    [1413061,"2026-05-21 20:00:00","50646","2.021","187.7","5.096","213.7","1023.855","20.23","84.9","-2.66","0.0"],
    [1413062,"2026-05-21 20:10:00","50647","1.9369999999999998","199.9","5.194","203.7","1023.932","20.2","84.8","-2.661","0.0"],
    [1413063,"2026-05-21 20:20:00","50648","0.878","188.8","2.091","227","1023.9889999999999","20.1","85.3","-2.89","0.0"],
    [1413064,"2026-05-21 20:30:00","50649","1.655","208.6","3.365","216.5","1024.095","20.02","86.3","-2.825","0.0"],
    [1413065,"2026-05-21 20:40:00","50650","1.439","212.1","3.234","218.2","1024.195","20.07","86.3","-2.668","0.0"],
    [1413066,"2026-05-21 20:50:00","50651","1.151","195.0","3.071","141.4","1024.2160000000001","19.97","87.1","-2.685","0.0"],
    [1413067,"2026-05-21 21:00:00","50652","0.823","204.5","1.764","230","1024.215","19.89","87.4","-2.701","0.0"],
    [1413068,"2026-05-21 21:10:00","50653","0.615","194.8","1.535","182.5","1024.205","19.82","88.3","-2.6860000000000004","0.0"],
    [1413069,"2026-05-21 21:20:00","50654","0.735","190.7","1.307","239.1","1024.173","19.68","88.8","-2.71","0.0"],
    [1413070,"2026-05-21 21:30:00","50655","0.9","192.8","1.601","199.8","1024.192","19.7","88.6","-2.803","0.0"],
    [1413071,"2026-05-21 21:40:00","50656","1.341","221.0","1.862","232.9","1024.151","19.7","88.1","-2.727","0.0"],
    [1413072,"2026-05-21 21:50:00","50657","1.385","232.8","2.254","236.4","1024.192","19.69","87.1","-2.685","0.0"],
    [1413073,"2026-05-21 22:00:00","50658","1.531","234.8","2.221","230.9","1024.21","19.65","85.4","-2.813","0.0"],
    [1413074,"2026-05-21 22:10:00","50659","1.518","235.6","2.123","233","1024.224","19.67","84.5","-2.822","0.0"],
    [1413075,"2026-05-21 22:20:00","50660","1.389","236.8","2.254","237.5","1024.1689999999999","19.51","85.0","-2.688","0.0"],
    [1413076,"2026-05-21 22:30:00","50661","1.456","239.2","2.156","234","1024.1680000000001","19.49","85.4","-2.681","0.0"],
    [1413077,"2026-05-21 22:40:00","50662","0.9990000000000001","234.4","2.156","241.8","1024.173","19.36","85.6","-2.676","0.0"],
    [1413078,"2026-05-21 22:50:00","50663","0.986","236.3","2.091","236.1","1024.161","19.25","86.1","-2.9419999999999997","0.0"],
    [1413079,"2026-05-21 23:00:00","50664","1.148","230.0","2.221","219.1","1024.194","19.24","85.7","-2.741","0.0"],
    [1413080,"2026-05-21 23:10:00","50665","1.347","230.4","2.189","233.6","1024.114","19.21","85.4","-2.68","0.0"],
    [1413081,"2026-05-21 23:20:00","50666","1.075","237.4","2.058","234.8","1024.048","19.11","85.2","-2.69","0.0"],
    [1413082,"2026-05-21 23:30:00","50667","0.763","264.3","1.601","264.6","1024.045","19.01","85.0","-2.795","0.0"],
    [1413083,"2026-05-21 23:40:00","50668","0.7829999999999999","244.4","1.699","217.8","1024.055","19.09","84.5","-2.76","0.0"],
    [1413084,"2026-05-21 23:50:00","50669","1.0","258.7","2.221","274.8","1024.038","19.15","84.4","-2.7430000000000003","0.0"],
    [1413085,"2026-05-22 00:00:00","50670","1.102","280.0","1.731","284.6","1024.026","18.78","84.3","-2.6910000000000003","0.0"],
    [1413086,"2026-05-22 00:10:00","50671","1.6119999999999999","270.9","2.45","279.6","1023.925","18.5","81.2","-2.708","0.0"],
    [1413087,"2026-05-22 00:20:00","50672","0.804","243.5","1.568","246.5","1023.9110000000001","18.58","80.0","-2.696","0.0"],
    [1413088,"2026-05-22 00:30:00","50673","1.155","259.4","2.025","268.9","1023.8610000000001","18.52","79.12","-2.71","0.0"],
    [1413089,"2026-05-22 00:40:00","50674","1.162","254.7","2.319","267","1023.7660000000001","18.72","76.55","-2.698","0.0"],
    [1413090,"2026-05-22 00:50:00","50675","1.145","270.5","2.679","290.2","1023.703","18.32","75.16","-2.679","0.0"],
    [1413091,"2026-05-22 01:00:00","50676","1.067","271.4","2.221","275.1","1023.71","18.05","74.55","-2.694","0.0"],
    [1413092,"2026-05-22 01:10:00","50677","1.245","276.4","2.091","297.6","1023.697","17.82","74.06","-2.694","0.0"],
    [1413093,"2026-05-22 01:20:00","50678","1.102","265.9","2.025","269.7","1023.668","17.85","73.14","-2.694","0.0"],
    [1413094,"2026-05-22 01:30:00","50679","1.0290000000000001","279.6","2.025","280.4","1023.6010000000001","17.65","72.87","-2.6910000000000003","0.0"],
    [1413095,"2026-05-22 01:40:00","50680","0.7240000000000001","265.1","2.254","264.5","1023.543","17.47","72.97","-2.69","0.0"],
    [1413096,"2026-05-22 01:50:00","50681","0.515","241.4","1.111","244.9","1023.4810000000001","17.41","72.31","-2.694","0.0"],
    [1413097,"2026-05-22 02:00:00","50682","0.742","252.8","1.307","267.3","1023.47","17.5","72.01","-2.694","0.0"],
    [1413098,"2026-05-22 02:10:00","50683","0.955","239.2","1.993","235.2","1023.423","17.34","72.19","-2.695","0.0"],
    [1413099,"2026-05-22 02:20:00","50684","1.286","236.2","2.189","244.9","1023.395","17.88","68.82","-2.693","0.0"],
    [1413100,"2026-05-22 02:30:00","50685","0.927","246.4","1.699","248.4","1023.404","17.99","67.65","-2.6889999999999996","0.0"],
    [1413101,"2026-05-22 02:40:00","50686","1.08","278.5","2.221","266.9","1023.404","17.51","69.53","-2.694","0.0"],
    [1413102,"2026-05-22 02:50:00","50687","1.9909999999999999","277.4","3.365","268","1023.404","17.29","69.4","-2.6919999999999997","0.0"],
    [1413103,"2026-05-22 03:00:00","50688","1.208","275.9","2.679","256.8","1023.3610000000001","17.26","68.94","-2.6919999999999997","0.0"],
    [1413104,"2026-05-22 03:10:00","50689","1.3430000000000002","273.8","2.385","245.4","1023.3530000000001","17.03","69.14","-2.694","0.0"],
    [1413105,"2026-05-22 03:20:00","50690","1.239","271.9","2.156","271.9","1023.326","16.88","69.8","-2.685","0.0"],
    [1413106,"2026-05-22 03:30:00","50691","1.8019999999999998","273.5","3.299","284","1023.305","16.73","70.13","-2.694","0.0"],
    [1413107,"2026-05-22 03:40:00","50692","2.1519999999999997","279.4","3.332","277.5","1023.2710000000001","16.94","68.76","-2.68","0.0"],
    [1413108,"2026-05-22 03:50:00","50693","1.6440000000000001","279.1","2.94","282.1","1023.2769999999999","16.91","68.23","-2.656","0.0"],
    [1413109,"2026-05-22 04:00:00","50694","1.6880000000000002","269.7","2.875","269.7","1023.2460000000001","17.07","67.12","-2.653","0.0"],
    [1413110,"2026-05-22 04:10:00","50695","1.33","256.9","2.809","268.4","1023.255","17.48","64.84","-2.3609999999999998","0.0"],
    [1413111,"2026-05-22 04:20:00","50696","1.4380000000000002","266.8","2.744","274.8","1023.2389999999999","17.68","63.67","-1.079","0.0"],
    [1413112,"2026-05-22 04:30:00","50697","1.182","267.9","2.679","275.2","1023.331","17.7","63.98","1.714","0.0"],
    [1413113,"2026-05-22 04:40:00","50698","1.395","283.8","2.515","284","1023.452","17.5","64.95","6.956","0.0"],
    [1413114,"2026-05-22 04:50:00","50699","1.9780000000000002","280.0","2.809","255.9","1023.523","17.14","66.28","19.08","0.0"],
    [1413115,"2026-05-22 05:00:00","50700","1.8869999999999998","277.1","3.561","266.3","1023.5219999999999","17.45","64.84","36.73","0.0"],
    [1413116,"2026-05-22 05:10:00","50701","1.7719999999999998","276.0","3.299","272.8","1023.582","17.87","63.03","56.12","0.0"],
    [1413117,"2026-05-22 05:20:00","50702","1.246","280.2","2.287","282.1","1023.7869999999999","18.02","63.12","78.12","0.0"],
    [1413118,"2026-05-22 05:30:00","50703","0.625","316.6","1.666","285.4","1023.9760000000001","18.65","61.5","93.3","0.0"],
    [1413119,"2026-05-22 05:40:00","50704","0.743","55.66","1.372","87","1024.049","19.43","59.63","128.1","0.0"],
    [1413120,"2026-05-22 05:50:00","50705","0.679","90.4","1.731","87.1","1024.0430000000001","20.15","59.84","158.1","0.0"],
    [1413121,"2026-05-22 06:00:00","50706","0.39","89.3","1.405","80.1","1024.09","20.68","59.11","188.2","0.0"],
    [1413122,"2026-05-22 06:10:00","50707","1.413","89.0","2.613","83.5","1024.098","21.16","58.3","220.3","0.0"],
    [1413123,"2026-05-22 06:20:00","50708","1.591","68.25","2.385","79.39","1024.135","21.1","58.64","254.6","0.0"],
    [1413124,"2026-05-22 06:30:00","50709","1.7519999999999998","67.58","2.352","62.52","1024.1680000000001","21.41","55.75","287.7","0.0"],
    [1413125,"2026-05-22 06:40:00","50710","2.011","71.24","2.777","65.58","1024.3110000000001","21.54","54.62","320.3","0.0"],
    [1413126,"2026-05-22 06:50:00","50711","1.9380000000000002","64.42","2.777","54.53","1024.369","21.97","53.78","352.6","0.0"],
    [1413127,"2026-05-22 07:00:00","50712","2.045","47.16","3.234","11.66","1024.5230000000001","22.29","52.58","383.9","0.0"],
    [1413128,"2026-05-22 07:10:00","50713","2.431","37.42","4.933","64.69","1024.626","22.52","56.58","415.6","0.0"],
    [1413129,"2026-05-22 07:20:00","50714","3.569","56.51","5.227","76.74","1024.6989999999998","21.97","64.55","451.7","0.0"],
    [1413130,"2026-05-22 07:30:00","50715","3.3789999999999996","68.13","4.737","66.63","1024.798","21.88","63.73","483.0","0.0"],
    [1413131,"2026-05-22 07:40:00","50716","2.783","62.1","4.083","64.21","1024.809","22.55","60.95","510.5","0.0"],
    [1413132,"2026-05-22 07:50:00","50717","3.595","53.45","5.292","65.07","1024.807","23.18","55.24","542.6","0.0"],
    [1413133,"2026-05-22 08:00:00","50718","3.574","56.18","5.292","65.07","1024.848","23.04","57.12","576.4","0.0"],
    [1413134,"2026-05-22 08:10:00","50719","2.985","63.58","4.998","69.8","1024.888","23.08","60.35","606.3","0.0"],
    [1413135,"2026-05-22 08:20:00","50720","3.148","61.15","4.9","64.09","1024.94","23.01","59.42","600.4","0.0"],
    [1413136,"2026-05-22 08:30:00","50721","2.9339999999999997","47.39","4.279","61.45","1024.97","23.43","56.89","664.7","0.0"],
    [1413137,"2026-05-22 08:40:00","50722","3.187","43.01","4.639","57.87","1025.002","23.32","56.28","659.7","0.0"],
    [1413138,"2026-05-22 08:50:00","50723","3.865","73.89","5.325","65.71","1025.028","23.27","57.86","720.9","0.0"],
    [1413139,"2026-05-22 09:00:00","50724","3.965","63.07","5.161","55.73","1025.053","22.66","60.63","747.2","0.0"],
    [1413140,"2026-05-22 09:10:00","50725","3.7060000000000004","70.48","4.769","72.77","1025.031","22.84","60.29","770.5","0.0"],
    [1413141,"2026-05-22 09:20:00","50726","3.5810000000000004","63.46","5.259","74.87","1025.095","22.67","62.9","791.8","0.0"],
    [1413142,"2026-05-22 09:30:00","50727","3.7680000000000002","64.13","4.867","66.81","1025.119","22.26","65.61","814.0","0.0"],
    [1413143,"2026-05-22 09:40:00","50728","3.0","70.89","4.573","76.98","1025.094","22.54","66.21","831.0","0.0"],
    [1413144,"2026-05-22 09:50:00","50729","3.205","79.57","4.606","65.6","1025.089","22.81","67.12","851.0","0.0"],
    [1413145,"2026-05-22 10:00:00","50730","3.158","79.78","4.541","86.8","1025.122","22.7","69.63","868.0","0.0"],
    [1413146,"2026-05-22 10:10:00","50731","2.9389999999999996","77.95","4.181","78.16","1025.147","22.47","70.95","881.0","0.0"],
    [1413147,"2026-05-22 10:20:00","50732","2.918","69.91","4.214","55.34","1025.136","22.7","71.06","894.0","0.0"],
    [1413148,"2026-05-22 10:30:00","50733","2.8819999999999997","80.8","3.887","86.7","1025.107","22.59","71.26","909.0","0.0"],
    [1413149,"2026-05-22 10:40:00","50734","2.594","82.7","3.691","79.42","1025.065","22.94","70.78","916.0","0.0"],
    [1413150,"2026-05-22 10:50:00","50735","2.6839999999999997","83.7","4.051","92.2","1025.021","23.04","69.75","930.0","0.0"],
    [1413151,"2026-05-22 11:00:00","50736","2.186","91.1","3.267","68.17","1024.9260000000002","23.31","68.65","940.0","0.0"],
    [1413152,"2026-05-22 11:10:00","50737","2.064","100.9","3.365","88.5","1024.872","23.27","65.83","947.0","0.0"],
    [1413153,"2026-05-22 11:20:00","50738","1.9809999999999999","98.1","3.136","78.49","1024.836","23.16","65.78","954.0","0.0"],
    [1413154,"2026-05-22 11:30:00","50739","2.108","98.1","3.887","84.4","1024.84","23.24","65.34","956.0","0.0"],
    [1413155,"2026-05-22 11:40:00","50740","2.1959999999999997","91.3","3.528","97.5","1024.766","23.33","64.03","957.0","0.0"],
    [1413156,"2026-05-22 11:50:00","50741","2.346","88.7","3.299","80.3","1024.748","23.64","64.1","958.0","0.0"],
    [1413157,"2026-05-22 12:00:00","50742","2.114","92.9","3.691","90.1","1024.718","23.45","66.44","958.0","0.0"],
    [1413158,"2026-05-22 12:10:00","50743","2.039","96.4","3.365","80.4","1024.636","23.84","64.71","957.0","0.0"],
    [1413159,"2026-05-22 12:20:00","50744","2.015","99.0","3.234","99.1","1024.585","23.9","64.45","955.0","0.0"],
    [1413160,"2026-05-22 12:30:00","50745","1.8019999999999998","99.7","2.711","97.3","1024.557","24.27","60.89","952.0","0.0"],
    [1413161,"2026-05-22 12:40:00","50746","2.0780000000000003","91.9","3.136","91.4","1024.481","23.92","61.55","946.0","0.0"],
    [1413162,"2026-05-22 12:50:00","50747","1.9909999999999999","104.2","3.365","104.2","1024.4289999999999","23.95","61.68","936.0","0.0"],
    [1413163,"2026-05-22 13:00:00","50748","2.006","99.0","3.365","100","1024.417","24.15","58.58","925.0","0.0"],
    [1413164,"2026-05-22 13:10:00","50749","2.381","97.5","3.724","86.3","1024.376","23.99","61.07","914.0","0.0"],
    [1413165,"2026-05-22 13:20:00","50750","2.596","82.3","3.822","93.9","1024.289","23.97","63.22","902.0","0.0"],
    [1413166,"2026-05-22 13:30:00","50751","2.858","84.7","3.92","78.35","1024.26","23.91","63.01","887.0","0.0"],
    [1413167,"2026-05-22 13:40:00","50752","3.0069999999999997","81.4","4.508","82.2","1024.226","24.09","61.76","868.0","0.0"],
    [1413168,"2026-05-22 13:50:00","50753","2.722","90.3","4.377","98","1024.21","24.21","60.31","857.0","0.0"],
    [1413169,"2026-05-22 14:00:00","50754","2.688","93.2","4.279","81.6","1024.195","23.98","61.18","842.0","0.0"],
    [1413170,"2026-05-22 14:10:00","50755","2.079","104.3","3.691","79.29","1024.139","23.67","63.71","824.0","0.0"],
    [1413171,"2026-05-22 14:20:00","50756","2.114","91.6","4.377","82","1024.038","24.06","63.17","799.0","0.0"],
    [1413172,"2026-05-22 14:30:00","50757","2.5780000000000003","85.3","4.377","87.6","1023.9839999999999","23.79","62.77","777.3","0.0"],
    [1413173,"2026-05-22 14:40:00","50758","2.822","73.04","4.475","95.9","1023.908","23.85","62.69","752.7","0.0"],
    [1413174,"2026-05-22 14:50:00","50759","3.0","71.08","4.41","82.2","1023.872","23.93","63.05","729.7","0.0"],
    [1413175,"2026-05-22 15:00:00","50760","2.825","68.38","4.541","84.2","1023.88","23.66","63.71","706.5","0.0"],
    [1413176,"2026-05-22 15:10:00","50761","2.28","91.3","4.9","89","1023.91","23.8","61.03","680.5","0.0"],
    [1413177,"2026-05-22 15:20:00","50762","1.973","100.3","4.279","84.6","1023.842","23.78","62.06","648.1","0.0"],
    [1413178,"2026-05-22 15:30:00","50763","2.381","85.2","4.41","90.3","1023.81","23.98","62.0","586.1","0.0"],
    [1413179,"2026-05-22 15:40:00","50764","1.74","96.0","3.985","82.2","1023.794","24.14","62.68","592.1","0.0"],
    [1413180,"2026-05-22 15:50:00","50765","1.715","94.7","3.887","90.1","1023.7330000000001","23.94","63.2","525.3","0.0"],
    [1413181,"2026-05-22 16:00:00","50766","2.008","92.1","3.43","85.1","1023.758","23.67","65.57","532.8","0.0"],
    [1413182,"2026-05-22 16:10:00","50767","2.188","96.4","4.345","83.5","1023.7189999999999","23.73","65.66","500.3","0.0"],
    [1413183,"2026-05-22 16:20:00","50768","2.44","98.3","4.083","101.4","1023.704","23.35","67.01","469.2","0.0"],
    [1413184,"2026-05-22 16:30:00","50769","2.366","99.7","3.953","87.4","1023.722","23.45","64.95","439.7","0.0"],
    [1413185,"2026-05-22 16:40:00","50770","2.648","96.3","4.312","85.1","1023.75","23.07","68.97","407.2","0.0"],
    [1413186,"2026-05-22 16:50:00","50771","2.551","94.8","3.985","105","1023.659","23.16","64.71","373.7","0.0"],
    [1413187,"2026-05-22 17:00:00","50772","1.817","103.4","3.43","108.6","1023.591","23.39","63.33","338.8","0.0"],
    [1413188,"2026-05-22 17:10:00","50773","1.129","121.3","3.169","128.9","1023.567","23.7","61.42","304.2","0.0"],
    [1413189,"2026-05-22 17:20:00","50774","1.214","112.4","2.842","110.6","1023.5360000000001","23.74","59.74","272.9","0.0"],
    [1413190,"2026-05-22 17:30:00","50775","1.6909999999999998","101.9","3.495","82.4","1023.568","23.66","59.96","241.0","0.0"],
    [1413191,"2026-05-22 17:40:00","50776","1.524","102.5","3.038","97.1","1023.569","23.31","61.48","207.0","0.0"],
    [1413192,"2026-05-22 17:50:00","50777","1.3230000000000002","103.8","2.613","114.8","1023.562","23.33","61.95","178.4","0.0"],
    [1413193,"2026-05-22 18:00:00","50778","1.16","105.5","2.45","124","1023.59","23.32","60.91","149.6","0.0"],
    [1413194,"2026-05-22 18:10:00","50779","0.867","110.7","2.352","68.41","1023.61","23.25","59.96","120.2","0.0"],
    [1413195,"2026-05-22 18:20:00","50780","1.012","106.7","2.319","98.4","1023.65","23.03","60.87","94.1","0.0"],
    [1413196,"2026-05-22 18:30:00","50781","1.68","96.8","2.94","93.4","1023.7280000000001","22.75","68.92","69.53","0.0"],
    [1413197,"2026-05-22 18:40:00","50782","2.55","84.1","3.626","91.4","1023.785","22.34","75.72","47.17","0.0"],
    [1413198,"2026-05-22 18:50:00","50783","2.536","75.29","4.443","90.9","1023.8689999999999","21.83","81.1","25.3","0.0"],
    [1413199,"2026-05-22 19:00:00","50784","2.133","82.6","3.953","94","1023.915","21.52","81.1","8.88","0.0"],
    [1413200,"2026-05-22 19:10:00","50785","1.9240000000000002","80.3","3.822","100.2","1023.961","21.42","79.08","2.7739999999999996","0.0"],
    [1413201,"2026-05-22 19:20:00","50786","1.393","92.4","2.907","86.5","1023.9760000000001","21.4","77.17","-0.569","0.0"],
    [1413202,"2026-05-22 19:30:00","50787","1.536","87.6","2.842","109.7","1024.035","21.45","76.92","-2.3680000000000003","0.0"],
    [1413203,"2026-05-22 19:40:00","50788","1.069","109.0","3.071","146","1024.0910000000001","21.39","76.77","-2.668","0.0"],
    [1413204,"2026-05-22 19:50:00","50789","0.983","83.7","2.711","88.1","1024.161","21.29","77.97","-2.722","0.0"],
    [1413205,"2026-05-22 20:00:00","50790","0.951","90.2","1.764","114.4","1024.1680000000001","21.3","77.4","-2.7539999999999996","0.0"],
    [1413206,"2026-05-22 20:10:00","50791","0.423","99.2","1.633","83.3","1024.1889999999999","21.26","76.59","-2.676","0.0"],
    [1413207,"2026-05-22 20:20:00","50792","1.409","87.7","2.189","102.4","1024.25","21.35","77.51","-2.7739999999999996","0.0"],
    [1413208,"2026-05-22 20:30:00","50793","0.958","86.5","2.123","75.54","1024.309","21.1","79.13","-2.6630000000000003","0.0"],
    [1413209,"2026-05-22 20:40:00","50794","0.33899999999999997","95.0","1.503","103.3","1024.367","20.99","77.54","-2.823","0.0"],
    [1413210,"2026-05-22 20:50:00","50795","0.5920000000000001","110.1","1.405","117.2","1024.406","21.05","77.2","-2.7460000000000004","0.0"],
    [1413211,"2026-05-22 21:00:00","50796","0.6940000000000001","106.6","1.339","106.5","1024.44","21.13","78.09","-2.6639999999999997","0.0"],
    [1413212,"2026-05-22 21:10:00","50797","0.76","78.79","1.143","109.3","1024.486","20.95","79.33","-2.668","0.0"],
    [1413213,"2026-05-22 21:20:00","50798","0.46","80.1","1.013","79.91","1024.557","20.66","80.7","-2.69","0.0"],
    [1413214,"2026-05-22 21:30:00","50799","0.11699999999999999","81.0","0.523","81","1024.499","20.49","81.4","-2.865","0.0"],
    [1413215,"2026-05-22 21:40:00","50800","0.0","81.0","0.033","81","1024.388","20.46","81.5","-2.6660000000000004","0.0"],
    [1413216,"2026-05-22 21:50:00","50801","0.0","0.0","0","0","1024.428","20.26","81.8","-2.66","0.0"],
    [1413217,"2026-05-22 22:00:00","50802","0.245","86.6","0.882","237.9","1024.358","20.14","82.3","-2.6630000000000003","0.0"],
    [1413218,"2026-05-22 22:10:00","50803","0.54","242.5","1.045","246.3","1024.262","20.43","80.1","-2.657","0.0"],
    [1413219,"2026-05-22 22:20:00","50804","0.584","261.6","1.176","249.9","1024.162","20.51","78.97","-2.66","0.0"],
    [1413220,"2026-05-22 22:30:00","50805","0.457","266.6","1.274","261.3","1024.122","20.26","80.6","-2.6639999999999997","0.0"],
    [1413221,"2026-05-22 22:40:00","50806","0.555","255.2","1.111","241.1","1024.055","20.19","80.6","-2.6639999999999997","0.0"],
    [1413222,"2026-05-22 22:50:00","50807","0.512","267.1","1.372","258.4","1024.05","20.12","80.4","-2.6630000000000003","0.0"],
    [1413223,"2026-05-22 23:00:00","50808","0.6859999999999999","252.2","1.176","245.4","1023.9960000000001","20.04","78.73","-2.662","0.0"],
    [1413224,"2026-05-22 23:10:00","50809","0.7959999999999999","257.5","1.339","275.6","1023.939","20.24","76.66","-2.662","0.0"],
    [1413225,"2026-05-22 23:20:00","50810","0.9109999999999999","265.4","1.666","263.7","1023.909","20.27","75.63","-2.6660000000000004","0.0"],
    [1413226,"2026-05-22 23:30:00","50811","0.955","266.2","1.829","281.3","1023.829","20.15","74.06","-2.6660000000000004","0.0"],
    [1413227,"2026-05-22 23:40:00","50812","0.9229999999999999","246.4","1.96","252.8","1023.666","20.01","72.5","-2.6660000000000004","0.0"],
    [1413228,"2026-05-22 23:50:00","50813","0.841","249.9","2.025","249.5","1023.5989999999999","20.18","70.39","-2.668","0.0"],
    [1413229,"2026-05-23 00:00:00","50814","1.247","270.7","2.319","261","1023.595","19.85","70.85","-2.658","0.0"],
    [1413230,"2026-05-23 00:10:00","50815","0.971","268.7","1.535","285.8","1023.576","19.2","72.83","-2.668","0.0"],
    [1413231,"2026-05-23 00:20:00","50816","1.7469999999999999","275.8","2.581","273.6","1023.551","19.1","71.94","-2.6710000000000003","0.0"],
    [1413232,"2026-05-23 00:30:00","50817","2.146","271.5","2.613","272.2","1023.453","19.21","70.45","-2.674","0.0"],
    [1413233,"2026-05-23 00:40:00","50818","1.633","270.3","2.254","281.6","1023.3919999999999","19.13","70.01","-2.6710000000000003","0.0"],
    [1413234,"2026-05-23 00:50:00","50819","0.748","259.1","1.241","264.6","1023.3439999999999","19.07","70.05","-2.675","0.0"],
    [1413235,"2026-05-23 01:00:00","50820","1.07","268.3","1.96","271.6","1023.321","18.98","69.44","-2.68","0.0"],
    [1413236,"2026-05-23 01:10:00","50821","0.9059999999999999","266.7","1.764","277.3","1023.291","18.97","68.92","-2.685","0.0"],
    [1413237,"2026-05-23 01:20:00","50822","0.564","265.0","1.405","256.2","1023.257","18.83","69.18","-2.6839999999999997","0.0"],
    [1413238,"2026-05-23 01:30:00","50823","0.273","269.2","0.98","276.1","1023.2","18.7","69.4","-2.6910000000000003","0.0"],
    [1413239,"2026-05-23 01:40:00","50824","0.371","254.9","0.882","249.4","1023.117","18.66","68.97","-2.69","0.0"],
    [1413240,"2026-05-23 01:50:00","50825","0.36200000000000004","266.3","0.98","273.1","1023.064","18.59","68.98","-2.694","0.0"],
    [1413241,"2026-05-23 02:00:00","50826","0.612","249.3","0.915","252.3","1023.105","18.55","69.12","-2.693","0.0"],
    [1413242,"2026-05-23 02:10:00","50827","0.5920000000000001","244.3","0.849","234.1","1023.113","18.59","68.87","-2.693","0.0"],
    [1413243,"2026-05-23 02:20:00","50828","0.48100000000000004","256.7","0.882","253.1","1023.1519999999999","18.47","69.18","-2.688","0.0"],
    [1413244,"2026-05-23 02:30:00","50829","0.488","256.7","0.947","253.1","1023.262","18.23","69.97","-2.694","0.0"],
    [1413245,"2026-05-23 02:40:00","50830","0.294","248.2","0.882","240.7","1023.263","17.91","71.27","-2.694","0.0"],
    [1413246,"2026-05-23 02:50:00","50831","0.581","270.1","1.143","267.5","1023.2760000000001","17.73","71.65","-2.695","0.0"],
    [1413247,"2026-05-23 03:00:00","50832","1.26","279.8","1.699","275.5","1023.299","17.76","70.59","-2.694","0.0"],
    [1413248,"2026-05-23 03:10:00","50833","1.669","275.5","2.123","273.7","1023.318","17.89","69.0","-2.694","0.0"],
    [1413249,"2026-05-23 03:20:00","50834","1.9269999999999998","274.4","2.483","275.1","1023.3430000000001","17.93","68.33","-2.6910000000000003","0.0"],
    [1413250,"2026-05-23 03:30:00","50835","1.167","275.6","2.058","276.3","1023.3510000000001","17.83","68.74","-2.68","0.0"],
    [1413251,"2026-05-23 03:40:00","50836","0.8909999999999999","280.8","1.535","281.5","1023.304","17.44","70.74","-2.6910000000000003","0.0"],
    [1413252,"2026-05-23 03:50:00","50837","0.8","278.4","1.274","278.3","1023.345","17.25","71.91","-2.694","0.0"],
    [1413253,"2026-05-23 04:00:00","50838","0.5579999999999999","269.7","1.209","278.4","1023.422","17.43","70.54","-2.6830000000000003","0.0"],
    [1413254,"2026-05-23 04:10:00","50839","0.914","269.5","1.535","270.3","1023.539","17.44","70.43","-2.271","0.0"],
    [1413255,"2026-05-23 04:20:00","50840","0.43700000000000006","281.2","1.339","278.8","1023.565","17.32","70.79","-1.041","0.0"],
    [1413256,"2026-05-23 04:30:00","50841","0.213","277.9","0.719","275.2","1023.539","17.2","71.3","2.0180000000000002","0.0"],
    [1413257,"2026-05-23 04:40:00","50842","0.042","279.4","0.392","278.7","1023.54","17.15","71.4","7.367999999999999","0.0"],
    [1413258,"2026-05-23 04:50:00","50843","0.032","259.3","0.457","271","1023.5189999999999","17.21","71.05","18.39","0.0"],
    [1413259,"2026-05-23 05:00:00","50844","0.001","246.6","0.196","246.6","1023.534","17.68","69.36","34.24","0.0"],
    [1413260,"2026-05-23 05:10:00","50845","0.10800000000000001","247.3","0.555","246.5","1023.607","18.07","68.81","53.26","0.0"],
    [1413261,"2026-05-23 05:20:00","50846","0.073","249.9","0.588","248.2","1023.711","18.31","68.4","71.87","0.0"],
    [1413262,"2026-05-23 05:30:00","50847","0.507","266.0","1.013","267.1","1023.8430000000001","18.4","68.58","84.6","0.0"],
    [1413263,"2026-05-23 05:40:00","50848","0.998","279.9","1.47","281.6","1023.9069999999999","18.45","69.53","114.9","0.0"],
    [1413264,"2026-05-23 05:50:00","50849","0.96","284.1","1.372","291.8","1024.003","18.85","69.5","144.2","0.0"],
    [1413265,"2026-05-23 06:00:00","50850","0.7879999999999999","276.9","1.274","278.2","1023.9989999999999","19.23","69.0","174.8","0.0"],
    [1413266,"2026-05-23 06:10:00","50851","0.74","280.1","1.339","293.3","1024.049","19.65","68.22","205.2","0.0"],
    [1413267,"2026-05-23 06:20:00","50852","0.9129999999999999","289.1","1.437","294.8","1024.0710000000001","20.17","67.06","237.8","0.0"],
    [1413268,"2026-05-23 06:30:00","50853","0.7909999999999999","293.7","1.405","301.6","1024.127","20.73","66.41","266.3","0.0"],
    [1413269,"2026-05-23 06:40:00","50854","0.8170000000000001","281.9","1.829","282.8","1024.175","21.07","66.07","299.1","0.0"],
    [1413270,"2026-05-23 06:50:00","50855","0.642","295.1","1.372","304.2","1024.279","21.38","66.83","332.0","0.0"],
    [1413271,"2026-05-23 07:00:00","50856","0.627","309.6","1.47","303.4","1024.323","21.89","65.14","370.2","0.0"],
    [1413272,"2026-05-23 07:10:00","50857","0.349","352.0","0.882","336.9","1024.365","22.22","63.6","399.0","0.0"],
    [1413273,"2026-05-23 07:20:00","50858","0.763","34.6","1.96","104.4","1024.491","22.61","63.17","432.9","0.0"],
    [1413274,"2026-05-23 07:30:00","50859","1.046","84.3","2.581","75.64","1024.546","23.23","64.1","469.7","0.0"],
    [1413275,"2026-05-23 07:40:00","50860","1.496","94.1","2.679","89.9","1024.567","22.82","65.73","494.5","0.0"],
    [1413276,"2026-05-23 07:50:00","50861","1.767","88.4","2.744","89.9","1024.62","22.86","65.81","486.2","0.0"],
    [1413277,"2026-05-23 08:00:00","50862","1.891","86.0","3.234","89.8","1024.745","22.85","66.23","540.3","0.0"],
    [1413278,"2026-05-23 08:10:00","50863","2.445","69.06","3.593","78.05","1024.812","22.93","68.1","599.5","0.0"],
    [1413279,"2026-05-23 08:20:00","50864","3.241","70.31","4.9","77.31","1024.8319999999999","22.72","70.32","588.4","0.0"],
    [1413280,"2026-05-23 08:30:00","50865","4.083","71.64","5.978","80.4","1024.901","22.49","72.59","638.5","0.0"],
    [1413281,"2026-05-23 08:40:00","50866","4.794","69.11","6.403","77.34","1024.96","22.16","76.47","654.6","0.0"],
    [1413282,"2026-05-23 08:50:00","50867","4.261","53.48","5.586","44.9","1025.0230000000001","22.16","78.41","708.0","0.0"],
    [1413283,"2026-05-23 09:00:00","50868","3.9989999999999997","64.39","5.619","65.57","1025.0539999999999","22.45","76.5","738.1","0.0"],
    [1413284,"2026-05-23 09:10:00","50869","4.475","66.41","6.011","84.3","1025.031","22.45","77.69","762.7","0.0"],
    [1413285,"2026-05-23 09:20:00","50870","4.408","73.68","5.717","80.6","1025.077","21.98","80.8","785.7","0.0"],
    [1413286,"2026-05-23 09:30:00","50871","4.399","74.25","5.815","75.9","1025.178","22.32","78.62","807.0","0.0"],
    [1413287,"2026-05-23 09:40:00","50872","4.452","71.01","5.782","74.32","1025.259","22.27","79.13","826.0","0.0"],
    [1413288,"2026-05-23 09:50:00","50873","4.64","76.26","6.827","90","1025.335","22.25","78.27","846.0","0.0"],
    [1413289,"2026-05-23 10:00:00","50874","3.9930000000000003","87.5","5.684","85.4","1025.431","22.28","77.8","865.0","0.0"],
    [1413290,"2026-05-23 10:10:00","50875","3.614","91.7","5.455","81.1","1025.475","22.61","77.54","880.0","0.0"],
    [1413291,"2026-05-23 10:20:00","50876","3.613","93.5","4.867","76.18","1025.509","22.6","77.54","896.0","0.0"],
    [1413292,"2026-05-23 10:30:00","50877","3.9410000000000003","89.4","5.259","84.7","1025.489","22.48","79.44","907.0","0.0"],
    [1413293,"2026-05-23 10:40:00","50878","3.5780000000000003","95.4","4.998","98.9","1025.448","22.73","76.54","911.0","0.0"],
    [1413294,"2026-05-23 10:50:00","50879","3.633","95.6","4.835","100.2","1025.452","22.92","74.71","919.0","0.0"],
    [1413295,"2026-05-23 11:00:00","50880","3.1510000000000002","100.4","4.508","93.5","1025.4489999999998","23.23","72.64","936.0","0.0"],
    [1413296,"2026-05-23 11:10:00","50881","3.81","97.1","4.867","88.5","1025.435","23.01","69.45","940.0","0.0"],
    [1413297,"2026-05-23 11:20:00","50882","3.8960000000000004","92.7","4.933","85.9","1025.41","23.1","69.94","943.0","0.0"],
    [1413298,"2026-05-23 11:30:00","50883","2.414","107.4","4.573","85.4","1025.369","23.65","68.16","946.0","0.0"],
    [1413299,"2026-05-23 11:40:00","50884","2.283","110.8","4.541","91.6","1025.329","24.41","63.82","946.0","0.0"],
    [1413300,"2026-05-23 11:50:00","50885","3.275","104.2","4.769","109.2","1025.351","23.68","65.57","954.0","0.0"],
    [1413301,"2026-05-23 12:00:00","50886","2.41","112.4","4.181","86.8","1025.349","23.76","64.2","961.0","0.0"],
    [1413302,"2026-05-23 12:10:00","50887","1.806","115.9","3.659","145.4","1025.298","24.36","59.33","959.0","0.0"],
    [1413303,"2026-05-23 12:20:00","50888","1.2990000000000002","125.7","3.332","83.5","1025.263","25.54","49.78","945.0","0.0"],
    [1413304,"2026-05-23 12:30:00","50889","1.8219999999999998","120.6","4.116","109.5","1025.237","25.43","52.17","945.0","0.0"],
    [1413305,"2026-05-23 12:40:00","50890","2.001","110.3","3.887","121.1","1025.245","24.57","55.77","944.0","0.0"],
    [1413306,"2026-05-23 12:50:00","50891","2.028","100.9","3.789","107.9","1025.215","24.91","48.72","934.0","0.0"],
    [1413307,"2026-05-23 13:00:00","50892","1.784","120.7","3.887","88.9","1025.1960000000001","24.98","47.2","919.0","0.0"],
    [1413308,"2026-05-23 13:10:00","50893","0.922","118.8","3.528","82.4","1025.174","25.24","53.97","907.0","0.0"],
    [1413309,"2026-05-23 13:20:00","50894","2.068","118.5","4.41","141.8","1025.15","25.11","58.74","899.0","0.0"],
    [1413310,"2026-05-23 13:30:00","50895","1.766","121.1","4.312","120.6","1025.112","24.83","66.86","882.0","0.0"],
    [1413311,"2026-05-23 13:40:00","50896","1.3940000000000001","122.0","3.724","132","1025.066","24.73","68.7","866.0","0.0"],
    [1413312,"2026-05-23 13:50:00","50897","2.418","111.0","4.083","116.1","1025.045","24.13","70.14","853.0","0.0"],
    [1413313,"2026-05-23 14:00:00","50898","2.29","104.0","4.998","120.5","1025.065","23.81","72.96","835.0","0.0"],
    [1413314,"2026-05-23 14:10:00","50899","1.453","117.6","3.691","136.5","1024.993","24.89","67.86","811.0","0.0"],
    [1413315,"2026-05-23 14:20:00","50900","2.02","122.2","4.214","128.8","1024.892","24.53","64.15","784.5","0.0"],
    [1413316,"2026-05-23 14:30:00","50901","1.5119999999999998","124.8","3.92","106.4","1024.849","24.38","63.33","751.2","0.0"],
    [1413317,"2026-05-23 14:40:00","50902","0.981","147.9","3.332","154.3","1024.771","25.12","61.39","734.3","0.0"],
    [1413318,"2026-05-23 14:50:00","50903","1.6269999999999998","116.3","3.789","126.4","1024.687","24.75","62.09","712.1","0.0"],
    [1413319,"2026-05-23 15:00:00","50904","2.099","113.2","4.573","124.5","1024.64","24.52","62.05","688.4","0.0"],
    [1413320,"2026-05-23 15:10:00","50905","1.9969999999999999","117.5","4.541","122.4","1024.621","24.49","61.54","668.9","0.0"],
    [1413321,"2026-05-23 15:20:00","50906","1.6769999999999998","116.2","4.279","82.5","1024.492","24.79","62.24","640.1","0.0"],
    [1413322,"2026-05-23 15:30:00","50907","1.9240000000000002","115.0","3.626","104.4","1024.405","24.26","65.74","571.5","0.0"],
    [1413323,"2026-05-23 15:40:00","50908","2.02","114.6","3.659","112.1","1024.384","24.15","65.85","559.8","0.0"],
    [1413324,"2026-05-23 15:50:00","50909","1.2429999999999999","124.4","3.691","129.9","1024.323","24.56","64.74","511.0","0.0"],
    [1413325,"2026-05-23 16:00:00","50910","1.046","121.3","3.267","124.4","1024.339","24.48","64.75","506.6","0.0"],
    [1413326,"2026-05-23 16:10:00","50911","1.9069999999999998","113.1","3.822","107.8","1024.3039999999999","24.02","64.49","464.9","0.0"],
    [1413327,"2026-05-23 16:20:00","50912","1.146","121.3","3.169","61.69","1024.228","24.13","63.15","431.9","0.0"],
    [1413328,"2026-05-23 16:30:00","50913","0.742","111.4","2.352","187","1024.178","24.63","61.61","407.1","0.0"],
    [1413329,"2026-05-23 16:40:00","50914","1.075","142.4","2.679","186","1024.086","24.69","59.79","391.6","0.0"],
    [1413330,"2026-05-23 16:50:00","50915","0.88","118.7","3.495","130.9","1023.9939999999999","24.52","61.11","341.0","0.0"],
    [1413331,"2026-05-23 17:00:00","50916","1.318","159.4","3.528","192.9","1023.945","23.94","62.62","302.2","0.0"],
    [1413332,"2026-05-23 17:10:00","50917","2.006","163.0","3.789","175.1","1023.8989999999999","23.5","62.38","294.4","0.0"],
    [1413333,"2026-05-23 17:20:00","50918","0.972","111.9","2.581","135.6","1023.89","23.84","61.48","274.1","0.0"],
    [1413334,"2026-05-23 17:30:00","50919","1.0090000000000001","122.0","2.907","107.7","1023.847","24.07","59.54","235.2","0.0"],
    [1413335,"2026-05-23 17:40:00","50920","0.9390000000000001","151.9","3.299","136.8","1023.87","23.72","58.76","213.4","0.0"],
    [1413336,"2026-05-23 17:50:00","50921","1.37","169.8","3.397","207.9","1023.88","23.58","59.91","179.7","0.0"],
    [1413337,"2026-05-23 18:00:00","50922","1.065","155.5","3.332","131.8","1023.8539999999999","23.34","61.28","148.9","0.0"],
    [1413338,"2026-05-23 18:10:00","50923","1.1","141.8","2.45","137.1","1023.862","23.21","66.23","122.8","0.0"],
    [1413339,"2026-05-23 18:20:00","50924","0.909","155.3","2.548","179.2","1023.921","23.02","69.13","95.3","0.0"],
    [1413340,"2026-05-23 18:30:00","50925","1.1840000000000002","194.0","2.581","185.5","1023.95","22.9","69.82","71.44","0.0"],
    [1413341,"2026-05-23 18:40:00","50926","1.568","166.1","3.038","155.9","1023.934","22.68","72.33","41.25","0.0"],
    [1413342,"2026-05-23 18:50:00","50927","1.239","188.4","3.855","178.8","1023.924","22.45","74.25","26.22","0.0"],
    [1413343,"2026-05-23 19:00:00","50928","1.111","179.8","3.626","172.2","1023.893","22.26","77.8","17.05","0.0"],
    [1413344,"2026-05-23 19:10:00","50929","1.0979999999999999","181.3","2.189","181.2","1023.878","22.05","79.43","5.8389999999999995","0.0"],
    [1413345,"2026-05-23 19:20:00","50930","1.6280000000000001","201.9","3.201","180.1","1023.809","21.9","79.5","1.073","0.0"],
    [1413346,"2026-05-23 19:30:00","50931","1.3840000000000001","199.1","3.528","191.1","1023.845","21.82","81.3","-0.752","0.0"],
    [1413347,"2026-05-23 19:40:00","50932","1.12","208.7","2.025","218.8","1023.877","21.7","82.1","-2.645","0.0"],
    [1413348,"2026-05-23 19:50:00","50933","0.988","205.0","2.123","182.9","1023.8910000000001","21.53","82.7","-2.6639999999999997","0.0"],
    [1413349,"2026-05-23 20:00:00","50934","1.127","184.7","2.352","194.4","1023.955","21.6","82.2","-2.66","0.0"],
    [1413350,"2026-05-23 20:10:00","50935","0.997","212.7","2.025","175.7","1024.03","21.6","81.6","-2.66","0.0"],
    [1413351,"2026-05-23 20:20:00","50936","0.898","189.5","1.764","180.2","1024.113","21.61","81.2","-2.66","0.0"],
    [1413352,"2026-05-23 20:30:00","50937","1.632","189.5","3.005","157.4","1024.188","21.67","79.01","-2.66","0.0"],
    [1413353,"2026-05-23 20:40:00","50938","1.4080000000000001","197.9","2.711","193.4","1024.31","21.79","78.16","-2.659","0.0"],
    [1413354,"2026-05-23 20:50:00","50939","1.661","203.7","2.548","209.4","1024.345","21.82","78.26","-2.66","0.0"],
    [1413355,"2026-05-23 21:00:00","50940","1.6680000000000001","209.0","2.515","210.8","1024.383","21.84","79.49","-2.659","0.0"],
    [1413356,"2026-05-23 21:10:00","50941","0.6459999999999999","196.1","1.372","230.7","1024.443","21.67","82.2","-2.661","0.0"],
    [1413357,"2026-05-23 21:20:00","50942","0.843","203.6","1.797","230.8","1024.521","21.48","83.9","-2.661","0.0"],
    [1413358,"2026-05-23 21:30:00","50943","0.7829999999999999","196.1","1.503","206.1","1024.577","21.4","84.3","-2.6639999999999997","0.0"],
    [1413359,"2026-05-23 21:40:00","50944","1.0490000000000002","204.3","1.666","173.7","1024.589","21.32","85.0","-2.66","0.0"],
    [1413360,"2026-05-23 21:50:00","50945","1.3780000000000001","220.7","2.123","227.5","1024.5639999999999","21.25","85.1","-2.66","0.0"],
    [1413361,"2026-05-23 22:00:00","50946","0.9440000000000001","219.9","2.319","235.1","1024.552","21.2","84.6","-2.66","0.0"],
    [1413362,"2026-05-23 22:10:00","50947","0.302","196.0","1.111","226.4","1024.542","21.1","85.1","-2.7489999999999997","0.0"],
    [1413363,"2026-05-23 22:20:00","50948","0.711","220.5","1.503","202.2","1024.595","20.98","85.7","-2.707","0.0"],
    [1413364,"2026-05-23 22:30:00","50949","0.287","242.7","0.915","223.2","1024.632","20.77","86.3","-2.892","0.0"],
    [1413365,"2026-05-23 22:40:00","50950","0.7959999999999999","251.1","1.339","252.3","1024.657","20.72","87.0","-2.7569999999999997","0.0"],
    [1413366,"2026-05-23 22:50:00","50951","1.113","241.6","1.503","240.3","1024.5839999999998","20.68","86.9","-2.6639999999999997","0.0"],
    [1413367,"2026-05-23 23:00:00","50952","0.602","241.4","1.209","252.4","1024.496","20.59","86.8","-2.685","0.0"],
    [1413368,"2026-05-23 23:10:00","50953","0.9520000000000001","239.6","1.47","231.2","1024.482","20.56","86.5","-2.67","0.0"],
    [1413369,"2026-05-23 23:20:00","50954","0.67","246.6","1.111","246.3","1024.443","20.54","86.3","-2.693","0.0"],
    [1413370,"2026-05-23 23:30:00","50955","0.021","250.1","0.49","246.1","1024.453","20.37","86.2","-2.824","0.0"],
    [1413371,"2026-05-23 23:40:00","50956","0.718","239.0","1.437","242","1024.396","20.43","86.3","-2.8289999999999997","0.0"],
    [1413372,"2026-05-23 23:50:00","50957","1.291","239.4","1.764","236.5","1024.299","20.4","85.1","-2.833","0.0"],
    [1413373,"2026-05-24 00:00:00","50958","1.3219999999999998","229.3","1.764","221.4","1024.261","20.43","84.7","-2.713","0.0"],
    [1413374,"2026-05-24 00:10:00","50959","1.127","236.0","1.731","228.7","1024.223","20.32","83.9","-2.807","0.0"],
    [1413375,"2026-05-24 00:20:00","50960","1.023","247.2","1.993","274.4","1024.22","20.29","82.8","-3.029","0.0"],
    [1413376,"2026-05-24 00:30:00","50961","0.778","247.3","1.339","248.8","1024.0819999999999","20.07","81.4","-2.787","0.0"],
    [1413377,"2026-05-24 00:40:00","50962","0.975","246.8","1.633","240.5","1023.965","19.97","79.24","-2.944","0.0"],
    [1413378,"2026-05-24 00:50:00","50963","0.884","248.9","1.699","240.5","1023.905","19.96","77.42","-2.676","0.0"],
    [1413379,"2026-05-24 01:00:00","50964","0.807","259.4","1.699","261.1","1023.913","19.87","77.08","-2.687","0.0"],
    [1413380,"2026-05-24 01:10:00","50965","0.685","255.4","1.731","269.5","1023.877","19.75","77.24","-2.699","0.0"],
    [1413381,"2026-05-24 01:20:00","50966","1.0","261.4","1.666","273.7","1023.811","19.68","76.92","-2.855","0.0"],
    [1413382,"2026-05-24 01:30:00","50967","1.1179999999999999","251.9","2.189","264.5","1023.748","19.57","76.9","-2.81","0.0"],
    [1413383,"2026-05-24 01:40:00","50968","1.508","267.9","2.842","280.9","1023.73","19.52","77.35","-2.7430000000000003","0.0"],
    [1413384,"2026-05-24 01:50:00","50969","1.368","273.8","2.417","270.9","1023.788","19.29","78.24","-2.699","0.0"],
    [1413385,"2026-05-24 02:00:00","50970","1.429","263.6","2.973","274.1","1023.795","18.96","78.51","-2.705","0.0"],
    [1413386,"2026-05-24 02:10:00","50971","1.392","264.1","2.385","279.8","1023.852","18.81","78.22","-2.764","0.0"],
    [1413387,"2026-05-24 02:20:00","50972","0.9620000000000001","260.6","2.156","267.7","1023.877","18.78","78.05","-2.697","0.0"],
    [1413388,"2026-05-24 02:30:00","50973","1.072","250.1","2.123","256","1023.924","18.79","77.64","-2.823","0.0"],
    [1413389,"2026-05-24 02:40:00","50974","0.812","251.1","1.568","240.5","1023.931","18.73","77.65","-2.7030000000000003","0.0"],
    [1413390,"2026-05-24 02:50:00","50975","0.838","244.1","1.503","242.7","1023.8969999999999","18.63","77.78","-2.717","0.0"],
    [1413391,"2026-05-24 03:00:00","50976","0.882","246.0","1.405","251.8","1023.9010000000001","18.49","77.89","-2.7319999999999998","0.0"],
    [1413392,"2026-05-24 03:10:00","50977","0.674","254.5","1.372","228.5","1023.928","18.26","78.37","-2.884","0.0"],
    [1413393,"2026-05-24 03:20:00","50978","0.581","266.4","1.307","243.8","1023.941","18.04","78.86","-2.955","0.0"],
    [1413394,"2026-05-24 03:30:00","50979","1.508","265.6","2.319","265","1023.929","17.97","79.64","-3.0","0.0"],
    [1413395,"2026-05-24 03:40:00","50980","1.4180000000000001","265.1","2.352","262.9","1023.933","18.07","79.0","-2.697","0.0"],
    [1413396,"2026-05-24 03:50:00","50981","1.595","272.5","2.319","275.3","1023.939","17.98","79.13","-2.715","0.0"],
    [1413397,"2026-05-24 04:00:00","50982","0.742","273.8","1.405","264.4","1024.017","17.82","79.39","-2.695","0.0"],
    [1413398,"2026-05-24 04:10:00","50983","1.08","269.1","1.731","272.5","1024.062","17.74","79.32","-2.542","0.0"],
    [1413399,"2026-05-24 04:20:00","50984","0.965","274.7","1.797","276.5","1024.156","17.63","79.48","-1.3219999999999998","0.0"],
    [1413400,"2026-05-24 04:30:00","50985","0.753","276.8","1.405","274.6","1024.1889999999999","17.59","79.31","1.631","0.0"],
    [1413401,"2026-05-24 04:40:00","50986","0.142","276.3","0.784","277.2","1024.167","17.47","79.31","6.544","0.0"],
    [1413402,"2026-05-24 04:50:00","50987","0.44799999999999995","281.2","1.209","289.2","1024.177","17.4","80.1","20.76","0.0"],
    [1413403,"2026-05-24 05:00:00","50988","1.013","283.4","1.568","282.2","1024.23","17.51","79.78","39.0","0.0"],
    [1413404,"2026-05-24 05:10:00","50989","1.594","275.5","2.254","283.3","1024.26","17.87","78.31","58.81","0.0"],
    [1413405,"2026-05-24 05:20:00","50990","1.1740000000000002","270.0","2.189","286.5","1024.262","18.29","76.26","74.35","0.0"],
    [1413406,"2026-05-24 05:30:00","50991","0.922","266.8","1.862","284.5","1024.343","18.64","75.14","82.3","0.0"],
    [1413407,"2026-05-24 05:40:00","50992","1.08","283.7","1.764","284.6","1024.437","19.08","73.72","112.7","0.0"],
    [1413408,"2026-05-24 05:50:00","50993","0.852","282.4","1.274","296.4","1024.464","19.57","72.32","140.8","0.0"],
    [1413409,"2026-05-24 06:00:00","50994","0.802","267.9","1.503","283.9","1024.48","20.09","70.29","172.0","0.0"],
    [1413410,"2026-05-24 06:10:00","50995","1.097","288.8","2.025","275.8","1024.529","20.54","68.99","206.5","0.0"],
    [1413411,"2026-05-24 06:20:00","50996","1.272","266.3","1.96","277","1024.559","20.85","67.87","242.4","0.0"],
    [1413412,"2026-05-24 06:30:00","50997","1.153","277.2","2.221","301.2","1024.563","21.32","66.36","278.2","0.0"],
    [1413413,"2026-05-24 06:40:00","50998","1.9040000000000001","292.3","2.777","294.2","1024.634","21.68","64.51","315.1","0.0"],
    [1413414,"2026-05-24 06:50:00","50999","1.47","289.0","2.352","282.5","1024.6989999999998","22.12","63.28","350.1","0.0"],
    [1413415,"2026-05-24 07:00:00","51000","0.98","274.3","1.666","294.9","1024.736","22.67","61.21","384.5","0.0"],
    [1413416,"2026-05-24 07:10:00","51001","1.827","287.2","2.744","286.9","1024.785","23.14","58.91","420.2","0.0"],
    [1413417,"2026-05-24 07:20:00","51002","1.515","285.1","2.287","289.8","1024.785","23.6","57.31","453.4","0.0"],
    [1413418,"2026-05-24 07:30:00","51003","1.278","292.7","2.254","287.9","1024.8239999999998","24.2","55.49","486.2","0.0"],
    [1413419,"2026-05-24 07:40:00","51004","0.9079999999999999","272.1","1.829","293.8","1024.856","24.51","53.81","518.3","0.0"],
    [1413420,"2026-05-24 07:50:00","51005","0.772","189.9","1.895","202.7","1024.86","25.36","52.21","548.7","0.0"],
    [1413421,"2026-05-24 08:00:00","51006","0.912","194.7","1.96","196.9","1024.9180000000001","25.68","50.84","579.7","0.0"],
    [1413422,"2026-05-24 08:10:00","51007","0.9209999999999999","166.2","1.731","149.1","1025.032","25.84","50.07","611.3","0.0"],
    [1413423,"2026-05-24 08:20:00","51008","1.072","111.2","2.417","91.6","1025.0819999999999","26.53","49.7","608.7","0.0"],
    [1413424,"2026-05-24 08:30:00","51009","1.3769999999999998","102.4","3.267","82.9","1025.144","25.79","55.05","666.9","0.0"],
    [1413425,"2026-05-24 08:40:00","51010","1.8559999999999999","170.0","3.561","187.4","1025.286","25.75","53.67","676.6","0.0"],
    [1413426,"2026-05-24 08:50:00","51011","2.7060000000000004","176.8","3.855","166.8","1025.401","24.85","53.78","719.2","0.0"],
    [1413427,"2026-05-24 09:00:00","51012","2.642","177.1","3.626","178.8","1025.469","24.88","51.19","755.2","0.0"],
    [1413428,"2026-05-24 09:10:00","51013","1.608","151.5","3.463","166.7","1025.522","25.36","50.23","777.1","0.0"],
    [1413429,"2026-05-24 09:20:00","51014","1.605","114.2","3.234","133","1025.575","25.59","51.44","798.4","0.0"],
    [1413430,"2026-05-24 09:30:00","51015","1.9140000000000001","110.0","3.463","104.6","1025.644","25.24","52.06","820.0","0.0"],
    [1413431,"2026-05-24 09:40:00","51016","1.078","144.6","3.005","192.6","1025.735","25.76","51.87","838.0","0.0"],
    [1413432,"2026-05-24 09:50:00","51017","1.5390000000000001","143.9","3.757","166.1","1025.737","25.52","51.77","858.0","0.0"],
    [1413433,"2026-05-24 10:00:00","51018","1.235","114.4","2.711","120.8","1025.733","25.88","51.16","876.0","0.0"],
    [1413434,"2026-05-24 10:10:00","51019","0.953","133.4","2.581","187.8","1025.79","26.58","49.85","892.0","0.0"],
    [1413435,"2026-05-24 10:20:00","51020","0.981","137.0","2.352","189","1025.795","26.66","48.67","908.0","0.0"],
    [1413436,"2026-05-24 10:30:00","51021","1.412","112.9","3.92","168.3","1025.787","26.57","48.74","922.0","0.0"],
    [1413437,"2026-05-24 10:40:00","51022","1.706","175.8","4.377","187.3","1025.761","26.47","49.44","931.0","0.0"],
    [1413438,"2026-05-24 10:50:00","51023","2.008","176.7","4.377","151.7","1025.734","26.34","48.07","944.0","0.0"],
    [1413439,"2026-05-24 11:00:00","51024","1.804","182.3","3.43","164.5","1025.746","26.3","48.72","954.0","0.0"],
    [1413440,"2026-05-24 11:10:00","51025","2.258","171.1","5.357","174.3","1025.701","26.52","48.76","962.0","0.0"],
    [1413441,"2026-05-24 11:20:00","51026","2.388","184.6","3.887","181.8","1025.677","26.11","51.73","968.0","0.0"],
    [1413442,"2026-05-24 11:30:00","51027","2.201","185.5","4.214","180.7","1025.701","26.55","50.44","972.0","0.0"],
    [1413443,"2026-05-24 11:40:00","51028","2.0780000000000003","181.0","3.495","173.6","1025.6789999999999","26.4","50.95","973.0","0.0"],
    [1413444,"2026-05-24 11:50:00","51029","2.0340000000000003","183.7","3.822","182.5","1025.653","26.37","49.49","976.0","0.0"],
    [1413445,"2026-05-24 12:00:00","51030","2.167","172.6","3.757","201.9","1025.64","26.49","49.25","976.0","0.0"],
    [1413446,"2026-05-24 12:10:00","51031","2.251","170.1","6.011","144","1025.622","26.44","48.22","975.0","0.0"],
    [1413447,"2026-05-24 12:20:00","51032","2.112","187.4","4.573","176.1","1025.59","26.68","48.12","972.0","0.0"],
    [1413448,"2026-05-24 12:30:00","51033","2.021","182.8","3.855","167.1","1025.587","26.89","49.21","968.0","0.0"],
    [1413449,"2026-05-24 12:40:00","51034","2.215","187.0","3.691","173.8","1025.587","26.64","50.74","963.0","0.0"],
    [1413450,"2026-05-24 12:50:00","51035","2.575","176.9","4.9","188.3","1025.539","26.15","52.13","956.0","0.0"],
    [1413451,"2026-05-24 13:00:00","51036","2.622","185.4","4.247","181.6","1025.46","26.22","50.7","948.0","0.0"],
    [1413452,"2026-05-24 13:10:00","51037","2.85","210.2","4.247","220.9","1025.421","26.46","51.82","936.0","0.0"],
    [1413453,"2026-05-24 13:20:00","51038","2.7739999999999996","185.8","4.541","172.6","1025.363","26.75","50.54","924.0","0.0"],
    [1413454,"2026-05-24 13:30:00","51039","2.451","185.2","4.181","179.8","1025.338","26.7","50.76","911.0","0.0"],
    [1413455,"2026-05-24 13:40:00","51040","2.383","189.5","4.41","220.6","1025.317","26.65","50.65","897.0","0.0"],
    [1413456,"2026-05-24 13:50:00","51041","2.373","175.6","4.247","185","1025.305","26.9","50.23","881.0","0.0"],
    [1413457,"2026-05-24 14:00:00","51042","2.423","179.9","4.149","182.5","1025.31","26.88","50.73","863.0","0.0"],
    [1413458,"2026-05-24 14:10:00","51043","2.49","184.6","4.475","188.4","1025.274","26.32","54.49","844.0","0.0"],
    [1413459,"2026-05-24 14:20:00","51044","2.7680000000000002","179.2","4.377","199.2","1025.253","25.97","55.6","822.0","0.0"],
    [1413460,"2026-05-24 14:30:00","51045","2.6189999999999998","174.7","4.116","199.8","1025.2","25.88","54.7","799.1","0.0"],
    [1413461,"2026-05-24 14:40:00","51046","2.503","182.6","4.606","179.9","1025.156","26.03","54.38","775.0","0.0"],
    [1413462,"2026-05-24 14:50:00","51047","2.372","179.4","4.181","176.5","1025.15","25.89","54.76","750.2","0.0"],
    [1413463,"2026-05-24 15:00:00","51048","2.265","191.2","3.855","181","1025.157","25.84","52.38","724.6","0.0"],
    [1413464,"2026-05-24 15:10:00","51049","2.46","187.2","4.214","174","1025.156","25.93","52.37","697.9","0.0"],
    [1413465,"2026-05-24 15:20:00","51050","2.767","206.8","4.443","215.6","1025.1960000000001","25.86","53.1","670.2","0.0"],
    [1413466,"2026-05-24 15:30:00","51051","2.6519999999999997","207.2","4.769","216.6","1025.211","26.1","48.76","603.5","0.0"],
    [1413467,"2026-05-24 15:40:00","51052","2.6919999999999997","206.9","4.083","194.4","1025.181","26.33","44.49","612.3","0.0"],
    [1413468,"2026-05-24 15:50:00","51053","2.772","204.8","4.443","217.1","1025.144","26.19","45.41","542.3","0.0"],
    [1413469,"2026-05-24 16:00:00","51054","3.076","212.7","4.573","217","1025.174","25.86","43.93","553.2","0.0"],
    [1413470,"2026-05-24 16:10:00","51055","3.103","212.9","4.9","215","1025.17","25.75","44.49","521.8","0.0"],
    [1413471,"2026-05-24 16:20:00","51056","2.133","203.7","4.443","221.4","1025.1689999999999","25.85","45.76","488.4","0.0"],
    [1413472,"2026-05-24 16:30:00","51057","2.363","200.2","4.769","227.9","1025.124","25.9","44.53","455.8","0.0"],
    [1413473,"2026-05-24 16:40:00","51058","2.256","201.4","4.018","197.2","1025.101","25.74","45.91","423.1","0.0"],
    [1413474,"2026-05-24 16:50:00","51059","2.03","182.7","3.299","176.8","1025.089","25.45","47.39","389.4","0.0"],
    [1413475,"2026-05-24 17:00:00","51060","2.125","206.0","3.593","200.1","1025.047","25.6","44.67","357.0","0.0"],
    [1413476,"2026-05-24 17:10:00","51061","2.347","214.7","5.586","173.6","1025.019","25.4","44.16","325.6","0.0"],
    [1413477,"2026-05-24 17:20:00","51062","2.0180000000000002","215.2","3.528","213.2","1025.005","25.38","44.24","292.3","0.0"],
    [1413478,"2026-05-24 17:30:00","51063","1.901","198.2","3.201","178.5","1025.0","25.29","45.88","258.9","0.0"],
    [1413479,"2026-05-24 17:40:00","51064","1.8019999999999998","204.2","2.777","218.2","1024.985","25.22","48.86","227.7","0.0"],
    [1413480,"2026-05-24 17:50:00","51065","1.6159999999999999","198.6","3.397","175.4","1025.005","25.09","49.61","196.0","0.0"],
    [1413481,"2026-05-24 18:00:00","51066","1.925","195.2","3.365","171.5","1024.953","24.82","49.46","166.2","0.0"],
    [1413482,"2026-05-24 18:10:00","51067","1.555","191.6","3.822","205.7","1024.953","24.74","50.04","137.4","0.0"],
    [1413483,"2026-05-24 18:20:00","51068","1.472","199.1","3.201","217.6","1024.924","24.61","49.41","109.2","0.0"],
    [1413484,"2026-05-24 18:30:00","51069","1.526","202.3","2.907","205.5","1024.912","24.35","50.12","82.6","0.0"],
    [1413485,"2026-05-24 18:40:00","51070","1.6219999999999999","205.6","3.299","217.4","1024.891","24.04","53.23","58.19","0.0"],
    [1413486,"2026-05-24 18:50:00","51071","1.795","212.3","2.711","213.5","1024.915","23.69","58.5","34.51","0.0"],
    [1413487,"2026-05-24 19:00:00","51072","1.672","214.2","2.646","226.2","1024.899","23.3","64.15","11.03","0.0"],
    [1413488,"2026-05-24 19:10:00","51073","1.867","216.5","2.842","211.4","1024.878","23.07","67.67","3.0660000000000003","0.0"],
    [1413489,"2026-05-24 19:20:00","51074","1.465","213.8","2.352","206.5","1024.881","22.86","69.9","-0.536","0.0"],
    [1413490,"2026-05-24 19:30:00","51075","1.455","216.7","2.287","198.4","1024.894","22.73","69.49","-2.371","0.0"],
    [1413491,"2026-05-24 19:40:00","51076","1.4","219.4","2.058","224.8","1024.903","22.67","69.74","-3.242","0.0"],
    [1413492,"2026-05-24 19:50:00","51077","0.983","212.8","1.895","232.1","1024.99","22.64","70.81","-3.407","0.0"],
    [1413493,"2026-05-24 20:00:00","51078","1.2209999999999999","237.1","1.862","227.1","1025.126","22.45","70.43","-3.405","0.0"],
    [1413494,"2026-05-24 20:10:00","51079","1.217","243.2","1.666","254","1025.229","22.44","65.91","-3.4019999999999997","0.0"],
    [1413495,"2026-05-24 20:20:00","51080","1.095","233.0","1.633","248.6","1025.378","22.5","65.97","-3.391","0.0"],
    [1413496,"2026-05-24 20:30:00","51081","0.972","239.9","1.601","225","1025.505","22.3","68.8","-3.41","0.0"],
    [1413497,"2026-05-24 20:40:00","51082","1.011","240.4","1.503","254.5","1025.599","22.3","67.8","-3.415","0.0"],
    [1413498,"2026-05-24 20:50:00","51083","1.056","236.3","1.666","215.3","1025.723","22.23","68.19","-3.407","0.0"],
    [1413499,"2026-05-24 21:00:00","51084","0.706","206.8","2.254","204.3","1025.843","22.16","72.11","-3.4160000000000004","0.0"],
    [1413500,"2026-05-24 21:10:00","51085","0.64","187.3","1.176","182.2","1025.917","22.04","76.38","-3.477","0.0"],
    [1413501,"2026-05-24 21:20:00","51086","0.7509999999999999","184.8","1.143","196.5","1025.952","21.83","78.92","-3.4360000000000004","0.0"],
    [1413502,"2026-05-24 21:30:00","51087","0.415","201.7","1.209","220.6","1025.97","21.48","79.74","-3.426","0.0"],
    [1413503,"2026-05-24 21:40:00","51088","0.335","226.9","0.882","242.4","1025.998","21.37","80.4","-3.508","0.0"],
    [1413504,"2026-05-24 21:50:00","51089","0.10800000000000001","200.9","0.621","195.6","1026.055","21.32","81.1","-3.424","0.0"],
    [1413505,"2026-05-24 22:00:00","51090","0.243","195.6","0.849","182","1026.122","21.14","82.0","-3.395","0.0"],
    [1413506,"2026-05-24 22:10:00","51091","0.514","195.4","1.143","180.6","1026.113","21.08","83.0","-3.372","0.0"],
    [1413507,"2026-05-24 22:20:00","51092","0.743","206.4","1.405","216","1026.118","21.15","83.2","-3.122","0.0"],
    [1413508,"2026-05-24 22:30:00","51093","0.648","212.9","1.307","203.4","1026.077","21.17","84.2","-3.225","0.0"],
    [1413509,"2026-05-24 22:40:00","51094","0.39899999999999997","199.4","1.013","199.2","1026.0230000000001","21.08","84.3","-3.2489999999999997","0.0"],
    [1413510,"2026-05-24 22:50:00","51095","0.469","187.1","0.882","199.9","1025.973","21.12","84.0","-3.3339999999999996","0.0"],
    [1413511,"2026-05-24 23:00:00","51096","0.204","215.1","0.817","220.3","1025.903","20.98","84.4","-3.273","0.0"],
    [1413512,"2026-05-24 23:10:00","51097","0.042","208.6","0.49","208.6","1025.885","20.72","85.4","-3.373","0.0"],
    [1413513,"2026-05-24 23:20:00","51098","0.8540000000000001","264.2","1.274","273","1025.838","19.97","81.2","-3.386","0.0"],
    [1413514,"2026-05-24 23:30:00","51099","0.938","267.4","1.601","267.8","1025.792","19.82","67.61","-3.2319999999999998","0.0"],
    [1413515,"2026-05-24 23:40:00","51100","0.772","266.9","1.339","273.2","1025.827","20.21","60.43","-2.72","0.0"],
    [1413516,"2026-05-24 23:50:00","51101","0.8420000000000001","275.2","1.405","276.5","1025.83","20.37","58.46","-2.81","0.0"],
    [1413517,"2026-05-25 00:00:00","51102","0.966","280.9","1.307","275.6","1025.769","20.28","58.66","-2.875","0.0"],
    [1413518,"2026-05-25 00:10:00","51103","1.01","279.6","1.47","280.3","1025.694","19.92","60.43","-2.8819999999999997","0.0"],
    [1413519,"2026-05-25 00:20:00","51104","0.8740000000000001","281.9","1.209","282.5","1025.7089999999998","19.81","60.97","-3.035","0.0"],
    [1413520,"2026-05-25 00:30:00","51105","1.045","281.3","1.633","283.1","1025.67","19.67","61.91","-2.7260000000000004","0.0"],
    [1413521,"2026-05-25 00:40:00","51106","0.44","287.4","1.111","289.1","1025.61","19.38","62.67","-2.795","0.0"],
    [1413522,"2026-05-25 00:50:00","51107","0.32","287.7","0.653","286.5","1025.524","19.1","64.26","-2.7310000000000003","0.0"],
    [1413523,"2026-05-25 01:00:00","51108","0.006999999999999999","286.9","0.294","286.9","1025.433","19.02","63.92","-2.673","0.0"],
    [1413524,"2026-05-25 01:10:00","51109","0.203","272.7","1.045","272.9","1025.4","19.2","63.16","-2.681","0.0"],
    [1413525,"2026-05-25 01:20:00","51110","1.238","283.4","1.96","275.2","1025.4389999999999","19.08","64.71","-2.755","0.0"],
    [1413526,"2026-05-25 01:30:00","51111","0.514","274.9","1.405","286.5","1025.522","18.85","65.36","-2.69","0.0"],
    [1413527,"2026-05-25 01:40:00","51112","0.201","276.4","0.784","281.2","1025.517","18.96","64.79","-2.6889999999999996","0.0"],
    [1413528,"2026-05-25 01:50:00","51113","0.61","276.0","0.882","280.3","1025.536","18.83","64.97","-2.69","0.0"],
    [1413529,"2026-05-25 02:00:00","51114","0.396","276.8","0.915","278","1025.559","18.84","64.99","-2.6919999999999997","0.0"],
    [1413530,"2026-05-25 02:10:00","51115","0.268","274.4","1.241","276.9","1025.611","18.69","65.49","-2.693","0.0"],
    [1413531,"2026-05-25 02:20:00","51116","1.043","282.3","1.339","281.4","1025.606","18.61","65.17","-2.74","0.0"],
    [1413532,"2026-05-25 02:30:00","51117","0.435","292.1","0.947","282.1","1025.58","18.84","63.51","-2.694","0.0"],
    [1413533,"2026-05-25 02:40:00","51118","0.607","276.5","1.013","276.5","1025.589","18.64","64.09","-2.694","0.0"],
    [1413534,"2026-05-25 02:50:00","51119","0.531","281.7","1.045","283.9","1025.5510000000002","18.6","64.04","-2.694","0.0"],
    [1413535,"2026-05-25 03:00:00","51120","0.7290000000000001","279.6","0.98","277.1","1025.559","18.34","65.14","-2.696","0.0"],
    [1413536,"2026-05-25 03:10:00","51121","0.162","273.1","0.653","268.3","1025.583","18.47","63.82","-2.693","0.0"],
    [1413537,"2026-05-25 03:20:00","51122","0.29600000000000004","283.1","0.686","283.1","1025.603","18.23","65.71","-2.694","0.0"],
    [1413538,"2026-05-25 03:30:00","51123","0.72","279.1","1.013","277.5","1025.628","18.11","65.4","-2.694","0.0"],
    [1413539,"2026-05-25 03:40:00","51124","0.6759999999999999","284.9","1.274","292","1025.732","18.14","65.0","-2.69","0.0"],
    [1413540,"2026-05-25 03:50:00","51125","0.7929999999999999","286.6","1.307","281.3","1025.772","17.97","65.5","-2.694","0.0"],
    [1413541,"2026-05-25 04:00:00","51126","0.517","262.5","1.176","274.6","1025.81","17.98","65.17","-2.69","0.0"],
    [1413542,"2026-05-25 04:10:00","51127","1.254","272.7","2.058","274.2","1025.835","18.36","63.31","-2.385","0.0"],
    [1413543,"2026-05-25 04:20:00","51128","0.9209999999999999","281.1","1.764","277.6","1025.869","18.08","64.47","-0.905","0.0"],
    [1413544,"2026-05-25 04:30:00","51129","0.953","290.1","1.731","292.4","1025.944","17.99","64.29","1.98","0.0"],
    [1413545,"2026-05-25 04:40:00","51130","0.36200000000000004","285.8","1.013","277.7","1026.007","17.99","64.08","7.521","0.0"],
    [1413546,"2026-05-25 04:50:00","51131","0.396","282.5","1.078","284.3","1026.093","18.1","63.53","21.82","0.0"],
    [1413547,"2026-05-25 05:00:00","51132","0.581","283.4","1.045","284.3","1026.204","18.45","62.49","38.75","0.0"],
    [1413548,"2026-05-25 05:10:00","51133","0.59","273.8","1.633","287.1","1026.261","18.72","61.93","56.63","0.0"],
    [1413549,"2026-05-25 05:20:00","51134","0.9059999999999999","283.2","1.666","282.5","1026.347","19.17","60.02","72.19","0.0"],
    [1413550,"2026-05-25 05:30:00","51135","1.102","282.3","1.568","284.8","1026.4180000000001","19.65","57.58","81.7","0.0"],
    [1413551,"2026-05-25 05:40:00","51136","0.7190000000000001","275.1","1.535","288.2","1026.479","19.96","57.0","110.7","0.0"],
    [1413552,"2026-05-25 05:50:00","51137","0.951","276.5","1.339","287.5","1026.553","20.47","55.8","137.8","0.0"],
    [1413553,"2026-05-25 06:00:00","51138","0.897","288.2","1.666","282","1026.607","20.79","56.3","169.0","0.0"],
    [1413554,"2026-05-25 06:10:00","51139","0.245","280.9","1.013","284.9","1026.719","21.38","54.48","200.2","0.0"],
    [1413555,"2026-05-25 06:20:00","51140","0.648","295.0","1.241","282.3","1026.68","21.95","54.2","233.5","0.0"],
    [1413556,"2026-05-25 06:30:00","51141","0.701","317.9","2.319","18.34","1026.752","22.7","56.12","267.5","0.0"],
    [1413557,"2026-05-25 06:40:00","51142","2.155","45.84","3.136","55.81","1026.921","23.3","66.66","306.4","0.0"],
    [1413558,"2026-05-25 06:50:00","51143","2.3369999999999997","53.54","3.397","67.26","1027.058","23.25","64.19","346.1","0.0"],
    [1413559,"2026-05-25 07:00:00","51144","3.1319999999999997","60.97","4.018","59.19","1027.167","23.36","59.37","380.7","0.0"],
    [1413560,"2026-05-25 07:10:00","51145","3.4130000000000003","56.96","4.704","66.21","1027.26","23.4","58.87","413.2","0.0"],
    [1413561,"2026-05-25 07:20:00","51146","3.438","63.53","4.606","68.15","1027.339","23.22","63.03","446.8","0.0"],
    [1413562,"2026-05-25 07:30:00","51147","3.2460000000000004","59.14","5.063","64.47","1027.42","23.13","67.87","480.4","0.0"],
    [1413563,"2026-05-25 07:40:00","51148","3.612","62.67","4.802","52.06","1027.482","23.16","66.97","512.8","0.0"],
    [1413564,"2026-05-25 07:50:00","51149","2.764","57.18","4.41","69.17","1027.515","23.48","62.84","544.8","0.0"],
    [1413565,"2026-05-25 08:00:00","51150","2.813","56.88","4.345","71.28","1027.586","23.66","60.21","576.7","0.0"],
    [1413566,"2026-05-25 08:10:00","51151","2.963","60.64","4.345","51.84","1027.67","23.63","59.59","607.1","0.0"],
    [1413567,"2026-05-25 08:20:00","51152","3.2039999999999997","69.39","4.671","70.2","1027.674","23.79","60.09","614.5","0.0"],
    [1413568,"2026-05-25 08:30:00","51153","3.261","57.29","4.933","50.82","1027.683","23.57","62.72","649.8","0.0"],
    [1413569,"2026-05-25 08:40:00","51154","2.9619999999999997","63.22","4.345","62.48","1027.6889999999999","23.6","64.72","680.3","0.0"],
    [1413570,"2026-05-25 08:50:00","51155","2.866","68.75","4.018","75.87","1027.684","23.83","65.03","699.5","0.0"],
    [1413571,"2026-05-25 09:00:00","51156","2.438","69.21","3.593","87.5","1027.742","23.92","62.2","746.4","0.0"],
    [1413572,"2026-05-25 09:10:00","51157","2.095","60.81","3.397","40.21","1027.8110000000001","24.12","62.63","767.5","0.0"],
    [1413573,"2026-05-25 09:20:00","51158","2.233","69.62","3.822","93.9","1027.901","24.21","62.57","788.3","0.0"],
    [1413574,"2026-05-25 09:30:00","51159","2.391","64.89","4.083","97.2","1027.948","24.31","59.53","809.0","0.0"],
    [1413575,"2026-05-25 09:40:00","51160","2.9560000000000004","69.22","3.953","68.3","1027.931","24.05","60.84","831.0","0.0"],
    [1413576,"2026-05-25 09:50:00","51161","3.299","78.71","4.704","84.9","1027.985","24.1","63.61","850.0","0.0"],
    [1413577,"2026-05-25 10:00:00","51162","3.59","72.03","5.259","83.7","1028.045","23.83","65.96","869.0","0.0"],
    [1413578,"2026-05-25 10:10:00","51163","3.674","66.32","5.357","59.65","1028.089","23.78","65.87","888.0","0.0"],
    [1413579,"2026-05-25 10:20:00","51164","3.4530000000000003","73.77","5.129","59.08","1028.085","24.06","66.07","901.0","0.0"],
    [1413580,"2026-05-25 10:30:00","51165","3.532","69.83","4.9","82.2","1028.09","24.27","67.17","919.0","0.0"],
    [1413581,"2026-05-25 10:40:00","51166","3.74","74.04","5.521","70.94","1028.116","23.85","69.3","932.0","0.0"],
    [1413582,"2026-05-25 10:50:00","51167","3.85","63.5","5.259","71.55","1028.072","23.6","71.45","941.0","0.0"],
    [1413583,"2026-05-25 11:00:00","51168","3.577","72.68","5.292","54.99","1028.0610000000001","23.9","71.42","946.0","0.0"],
    [1413584,"2026-05-25 11:10:00","51169","3.4939999999999998","68.21","4.737","89","1028.063","24.04","71.64","951.0","0.0"],
    [1413585,"2026-05-25 11:20:00","51170","3.946","75.46","5.521","69.48","1028.063","23.98","72.06","957.0","0.0"],
    [1413586,"2026-05-25 11:30:00","51171","3.5010000000000003","84.2","5.194","85.5","1028.037","24.11","71.63","960.0","0.0"],
    [1413587,"2026-05-25 11:40:00","51172","3.609","80.3","5.586","91.5","1028.004","24.43","70.13","961.0","0.0"],
    [1413588,"2026-05-25 11:50:00","51173","3.574","86.6","5.39","92.4","1027.996","24.03","71.06","967.0","0.0"],
    [1413589,"2026-05-25 12:00:00","51174","3.53","80.3","5.325","95","1027.972","24.12","70.72","966.0","0.0"],
    [1413590,"2026-05-25 12:10:00","51175","3.1839999999999997","84.5","5.586","84.3","1027.931","24.18","70.89","964.0","0.0"],
    [1413591,"2026-05-25 12:20:00","51176","3.267","87.4","5.194","85.1","1027.897","24.27","67.95","962.0","0.0"],
    [1413592,"2026-05-25 12:30:00","51177","3.398","85.3","5.194","94.6","1027.86","24.2","63.25","958.0","0.0"],
    [1413593,"2026-05-25 12:40:00","51178","3.342","87.5","5.749","88.7","1027.79","24.51","61.69","954.0","0.0"],
    [1413594,"2026-05-25 12:50:00","51179","3.875","78.73","5.423","74.34","1027.761","24.45","60.1","946.0","0.0"],
    [1413595,"2026-05-25 13:00:00","51180","3.423","83.7","5.227","75.96","1027.687","24.63","58.36","937.0","0.0"],
    [1413596,"2026-05-25 13:10:00","51181","3.4560000000000004","81.2","5.259","86.3","1027.653","24.9","57.85","925.0","0.0"],
    [1413597,"2026-05-25 13:20:00","51182","3.6260000000000003","68.47","4.998","81.7","1027.673","24.62","58.81","910.0","0.0"],
    [1413598,"2026-05-25 13:30:00","51183","3.2039999999999997","86.6","5.488","78.54","1027.688","24.81","58.13","893.0","0.0"],
    [1413599,"2026-05-25 13:40:00","51184","2.843","94.4","4.867","84.6","1027.675","24.66","58.63","885.0","0.0"],
    [1413600,"2026-05-25 13:50:00","51185","3.138","81.3","5.161","65.27","1027.629","24.74","59.46","867.0","0.0"],
    [1413601,"2026-05-25 14:00:00","51186","2.9539999999999997","88.5","4.704","67.08","1027.558","24.57","60.06","848.0","0.0"],
    [1413602,"2026-05-25 14:10:00","51187","2.592","96.1","4.769","79.26","1027.478","24.42","61.54","831.0","0.0"],
    [1413603,"2026-05-25 14:20:00","51188","2.667","92.7","4.247","87.1","1027.385","24.55","62.0","811.0","0.0"],
    [1413604,"2026-05-25 14:30:00","51189","2.7960000000000003","79.86","4.835","84.7","1027.3139999999999","24.34","64.1","791.4","0.0"],
    [1413605,"2026-05-25 14:40:00","51190","2.5839999999999996","94.6","5.423","86.4","1027.297","24.4","64.7","768.1","0.0"],
    [1413606,"2026-05-25 14:50:00","51191","2.716","88.8","4.149","80.1","1027.266","24.24","65.35","744.9","0.0"],
    [1413607,"2026-05-25 15:00:00","51192","2.845","86.1","4.508","82.7","1027.224","24.12","66.45","717.3","0.0"],
    [1413608,"2026-05-25 15:10:00","51193","2.614","92.6","4.051","100.2","1027.239","24.32","66.87","690.9","0.0"],
    [1413609,"2026-05-25 15:20:00","51194","2.891","85.9","4.247","82.3","1027.1960000000001","24.26","67.07","667.2","0.0"],
    [1413610,"2026-05-25 15:30:00","51195","2.7539999999999996","88.1","4.41","84.9","1027.245","23.91","68.86","599.8","0.0"],
    [1413611,"2026-05-25 15:40:00","51196","2.559","92.8","4.345","74.31","1027.21","24.14","68.34","606.8","0.0"],
    [1413612,"2026-05-25 15:50:00","51197","2.88","76.79","4.443","65.47","1027.1989999999998","23.96","68.95","539.3","0.0"],
    [1413613,"2026-05-25 16:00:00","51198","3.137","68.08","4.639","82.4","1027.165","23.97","68.53","552.3","0.0"],
    [1413614,"2026-05-25 16:10:00","51199","3.093","69.9","4.116","66.52","1027.049","23.76","69.76","521.6","0.0"],
    [1413615,"2026-05-25 16:20:00","51200","3.168","74.04","4.9","81","1026.964","23.85","69.63","491.7","0.0"],
    [1413616,"2026-05-25 16:30:00","51201","2.695","81.0","4.051","81.7","1026.859","23.83","69.72","458.6","0.0"],
    [1413617,"2026-05-25 16:40:00","51202","2.897","77.04","4.149","78.23","1026.781","23.6","70.49","425.9","0.0"],
    [1413618,"2026-05-25 16:50:00","51203","2.93","70.98","4.345","56.44","1026.67","23.59","70.9","392.1","0.0"],
    [1413619,"2026-05-25 17:00:00","51204","2.7969999999999997","77.6","4.149","78.84","1026.621","23.61","71.27","359.9","0.0"],
    [1413620,"2026-05-25 17:10:00","51205","2.6319999999999997","83.4","3.985","85.9","1026.614","23.43","72.09","327.5","0.0"],
    [1413621,"2026-05-25 17:20:00","51206","2.326","75.13","3.332","50.35","1026.595","23.3","73.09","293.6","0.0"],
    [1413622,"2026-05-25 17:30:00","51207","1.976","69.9","2.809","81.9","1026.604","23.13","73.8","261.1","0.0"],
    [1413623,"2026-05-25 17:40:00","51208","2.094","78.67","2.907","73.77","1026.626","23.11","73.54","229.0","0.0"],
    [1413624,"2026-05-25 17:50:00","51209","2.387","78.31","3.038","83","1026.657","22.98","74.18","198.4","0.0"],
    [1413625,"2026-05-25 18:00:00","51210","1.858","75.58","2.711","78.66","1026.681","22.82","74.71","168.6","0.0"],
    [1413626,"2026-05-25 18:10:00","51211","1.3940000000000001","81.0","1.993","80.4","1026.646","22.71","74.76","139.3","0.0"],
    [1413627,"2026-05-25 18:20:00","51212","1.4340000000000002","75.16","2.156","81","1026.62","22.72","74.48","111.2","0.0"],
    [1413628,"2026-05-25 18:30:00","51213","1.538","76.49","2.189","84.5","1026.618","22.68","75.02","84.8","0.0"],
    [1413629,"2026-05-25 18:40:00","51214","1.252","82.7","1.927","104.5","1026.624","22.59","75.28","58.68","0.0"],
    [1413630,"2026-05-25 18:50:00","51215","0.371","101.5","1.339","95.3","1026.637","22.61","72.21","34.89","0.0"],
    [1413631,"2026-05-25 19:00:00","51216","0.175","170.5","1.111","169.5","1026.587","22.67","70.74","17.81","0.0"],
    [1413632,"2026-05-25 19:10:00","51217","0.499","157.6","1.339","136.3","1026.5919999999999","22.57","71.37","4.955","0.0"],
    [1413633,"2026-05-25 19:20:00","51218","0.892","177.6","1.764","164.3","1026.627","22.47","71.29","-0.052000000000000005","0.0"],
    [1413634,"2026-05-25 19:30:00","51219","0.867","179.4","1.862","177.9","1026.643","22.42","73.74","-2.388","0.0"],
    [1413635,"2026-05-25 19:40:00","51220","0.184","185.2","0.98","197.2","1026.6989999999998","22.23","74.3","-3.2889999999999997","0.0"],
    [1413636,"2026-05-25 19:50:00","51221","0.8109999999999999","88.4","1.927","84.1","1026.768","22.06","75.51","-3.5380000000000003","0.0"],
    [1413637,"2026-05-25 20:00:00","51222","1.006","92.2","1.601","79.46","1026.761","21.88","78.45","-3.488","0.0"],
    [1413638,"2026-05-25 20:10:00","51223","1.043","77.62","1.47","71.23","1026.7939999999999","21.78","78.57","-3.447","0.0"],
    [1413639,"2026-05-25 20:20:00","51224","1.214","82.9","1.699","81","1026.875","21.5","80.6","-3.4219999999999997","0.0"],
    [1413640,"2026-05-25 20:30:00","51225","0.893","89.5","1.503","85.6","1026.95","21.35","81.8","-3.426","0.0"],
    [1413641,"2026-05-25 20:40:00","51226","0.13","88.7","0.784","93.1","1027.01","21.3","81.9","-3.428","0.0"],
    [1413642,"2026-05-25 20:50:00","51227","0.061","101.8","0.621","102","1027.07","21.13","82.3","-3.815","0.0"],
    [1413643,"2026-05-25 21:00:00","51228","0.5589999999999999","84.6","1.078","81.9","1027.113","21.13","82.6","-3.417","0.0"],
    [1413644,"2026-05-25 21:10:00","51229","0.043","90.9","0.523","87.4","1027.149","20.98","83.2","-3.409","0.0"],
    [1413645,"2026-05-25 21:20:00","51230","0.364","202.2","0.98","214.8","1027.123","20.8","84.4","-3.319","0.0"],
    [1413646,"2026-05-25 21:30:00","51231","0.396","189.2","1.209","204.3","1027.0819999999999","21.0","85.6","-3.11","0.0"],
    [1413647,"2026-05-25 21:40:00","51232","0.609","224.4","1.209","229.6","1027.0819999999999","21.0","85.9","-3.3560000000000003","0.0"],
    [1413648,"2026-05-25 21:50:00","51233","0.882","231.4","1.209","237.4","1027.086","21.04","86.1","-3.3310000000000004","0.0"],
    [1413649,"2026-05-25 22:00:00","51234","0.142","232.8","0.686","217.2","1027.095","20.8","86.2","-3.2319999999999998","0.0"],
    [1413650,"2026-05-25 22:10:00","51235","0.171","227.6","0.817","223.6","1027.107","20.6","87.3","-3.2039999999999997","0.0"],
    [1413651,"2026-05-25 22:20:00","51236","0.8059999999999999","230.3","1.503","235.7","1027.08","20.61","88.3","-3.32","0.0"],
    [1413652,"2026-05-25 22:30:00","51237","1.386","225.4","2.091","235.4","1027.113","20.78","87.9","-3.158","0.0"],
    [1413653,"2026-05-25 22:40:00","51238","1.15","235.7","1.993","243.2","1027.175","20.64","86.7","-3.193","0.0"],
    [1413654,"2026-05-25 22:50:00","51239","0.992","231.1","1.797","254.7","1027.111","20.44","85.5","-3.4389999999999996","0.0"],
    [1413655,"2026-05-25 23:00:00","51240","0.81","239.8","1.339","239.9","1027.0510000000002","20.4","83.4","-3.605","0.0"],
    [1413656,"2026-05-25 23:10:00","51241","1.082","228.5","1.666","234.5","1027.021","20.4","78.57","-4.053","0.0"],
    [1413657,"2026-05-25 23:20:00","51242","1.087","268.5","1.699","286.3","1027.018","20.32","70.03","-4.1610000000000005","0.0"],
    [1413658,"2026-05-25 23:30:00","51243","1.215","272.0","2.483","260.9","1026.99","19.95","66.14","-3.805","0.0"],
    [1413659,"2026-05-25 23:40:00","51244","1.8119999999999998","274.3","2.809","257.9","1026.974","19.81","64.04","-2.862","0.0"],
    [1413660,"2026-05-25 23:50:00","51245","1.9480000000000002","274.2","2.744","276.2","1026.886","19.6","64.05","-2.667","0.0"],
    [1413661,"2026-05-26 00:00:00","51246","1.475","273.5","2.581","278.6","1026.856","19.43","63.55","-2.6639999999999997","0.0"],
    [1413662,"2026-05-26 00:10:00","51247","2.004","275.6","3.169","272.1","1026.848","19.21","64.0","-2.805","0.0"],
    [1413663,"2026-05-26 00:20:00","51248","2.153","275.7","2.94","265","1026.827","19.04","64.92","-2.781","0.0"],
    [1413664,"2026-05-26 00:30:00","51249","1.584","272.2","2.809","265.4","1026.719","19.08","64.95","-2.6889999999999996","0.0"],
    [1413665,"2026-05-26 00:40:00","51250","1.436","275.8","1.96","275.9","1026.626","18.93","65.28","-2.844","0.0"],
    [1413666,"2026-05-26 00:50:00","51251","1.364","263.3","1.993","269.2","1026.57","18.82","65.53","-2.945","0.0"],
    [1413667,"2026-05-26 01:00:00","51252","1.225","277.4","2.091","286.7","1026.553","18.82","65.68","-2.846","0.0"],
    [1413668,"2026-05-26 01:10:00","51253","1.17","279.8","1.731","277.9","1026.482","18.39","67.39","-3.358","0.0"],
    [1413669,"2026-05-26 01:20:00","51254","1.581","273.9","2.123","261.8","1026.379","18.54","66.74","-2.96","0.0"],
    [1413670,"2026-05-26 01:30:00","51255","2.017","273.7","2.777","273.5","1026.3210000000001","18.48","66.31","-2.713","0.0"],
    [1413671,"2026-05-26 01:40:00","51256","1.945","279.8","2.581","278.5","1026.2730000000001","18.19","66.92","-2.69","0.0"],
    [1413672,"2026-05-26 01:50:00","51257","1.702","279.6","2.417","285.6","1026.231","18.04","67.38","-2.6889999999999996","0.0"],
    [1413673,"2026-05-26 02:00:00","51258","1.8519999999999999","273.2","2.515","277.1","1026.201","18.01","67.13","-2.7119999999999997","0.0"],
    [1413674,"2026-05-26 02:20:00","51259","1.5819999999999999","277.8","2.679","274.5","1026.1480000000001","18.02","66.59","-2.7489999999999997","0.0"],
    [1413675,"2026-05-26 02:30:00","51260","1.6769999999999998","264.6","2.809","254.8","1026.13","18.12","65.94","-2.702","0.0"],
    [1413676,"2026-05-26 02:40:00","51261","1.617","274.2","2.515","291.5","1026.085","17.93","66.15","-2.698","0.0"],
    [1413677,"2026-05-26 02:50:00","51262","1.6280000000000001","276.8","2.548","283.6","1026.0510000000002","17.81","66.33","-2.695","0.0"],
    [1413678,"2026-05-26 03:00:00","51263","1.6980000000000002","273.2","2.548","264.5","1026.0430000000001","17.83","66.03","-2.7089999999999996","0.0"],
    [1413679,"2026-05-26 03:10:00","51264","1.819","268.8","2.613","289.7","1026.019","17.86","65.66","-2.698","0.0"],
    [1413680,"2026-05-26 03:20:00","51265","1.589","274.9","2.711","258.8","1025.964","17.72","65.93","-2.722","0.0"],
    [1413681,"2026-05-26 03:30:00","51266","0.966","281.6","1.927","277.3","1025.993","17.56","66.41","-2.826","0.0"],
    [1413682,"2026-05-26 03:40:00","51267","0.725","279.9","1.372","299.8","1025.955","17.4","67.04","-3.093","0.0"],
    [1413683,"2026-05-26 03:50:00","51268","0.878","279.7","1.633","289.6","1025.899","17.57","66.17","-2.948","0.0"],
    [1413684,"2026-05-26 04:00:00","51269","0.9329999999999999","279.6","1.437","294.5","1025.866","17.71","65.69","-2.88","0.0"],
    [1413685,"2026-05-26 04:10:00","51270","0.9890000000000001","275.7","1.862","272.4","1025.87","17.99","64.38","-2.512","0.0"],
    [1413686,"2026-05-26 04:20:00","51271","1.51","278.8","2.417","284","1025.887","18.18","63.38","-0.6659999999999999","0.0"],
    [1413687,"2026-05-26 04:30:00","51272","1.3259999999999998","287.9","2.123","288.6","1025.9560000000001","17.83","64.68","2.909","0.0"],
    [1413688,"2026-05-26 04:40:00","51273","1.147","287.1","1.895","303","1025.974","17.67","65.75","9.48","0.0"],
    [1413689,"2026-05-26 04:50:00","51274","1.3359999999999999","286.4","2.058","282.8","1026.038","18.22","63.46","27.92","0.0"],
    [1413690,"2026-05-26 05:00:00","51275","0.898","291.0","1.372","298.1","1026.154","18.45","62.67","47.48","0.0"],
    [1413691,"2026-05-26 05:10:00","51276","1.291","271.2","2.352","274.1","1026.235","18.84","61.09","63.45","0.0"],
    [1413692,"2026-05-26 05:20:00","51277","1.5130000000000001","270.9","2.548","289","1026.236","19.09","60.4","73.6","0.0"],
    [1413693,"2026-05-26 05:30:00","51278","1.7380000000000002","275.7","3.201","280.7","1026.2910000000002","19.17","60.53","78.48","0.0"],
    [1413694,"2026-05-26 05:40:00","51279","1.305","266.3","2.875","282.5","1026.333","19.48","60.2","101.9","0.0"],
    [1413695,"2026-05-26 05:50:00","51280","1.9140000000000001","277.6","3.365","277.5","1026.377","19.87","59.12","126.7","0.0"],
    [1413696,"2026-05-26 06:00:00","51281","2.56","282.7","4.475","287.5","1026.3980000000001","20.32","57.48","156.1","0.0"],
    [1413697,"2026-05-26 06:10:00","51282","3.262","291.6","4.802","298.9","1026.399","20.6","56.14","189.0","0.0"],
    [1413698,"2026-05-26 06:20:00","51283","2.307","293.6","4.181","299.4","1026.424","21.14","54.49","223.4","0.0"],
    [1413699,"2026-05-26 06:30:00","51284","2.48","289.0","3.626","297.2","1026.45","21.61","52.64","259.6","0.0"],
    [1413700,"2026-05-26 06:40:00","51285","2.7680000000000002","289.8","3.985","303.7","1026.4769999999999","21.83","52.22","296.5","0.0"],
    [1413701,"2026-05-26 06:50:00","51286","2.339","288.3","4.051","285.2","1026.532","22.47","50.6","333.0","0.0"],
    [1413702,"2026-05-26 07:00:00","51287","2.222","292.1","3.103","299.4","1026.573","22.82","49.19","370.5","0.0"],
    [1413703,"2026-05-26 07:10:00","51288","1.96","291.2","2.646","290.2","1026.6","23.47","47.32","406.3","0.0"],
    [1413704,"2026-05-26 07:20:00","51289","1.7309999999999999","301.6","2.875","296.3","1026.633","23.9","46.31","442.0","0.0"],
    [1413705,"2026-05-26 07:30:00","51290","1.7269999999999999","289.6","2.711","265.9","1026.6680000000001","24.55","45.06","475.4","0.0"],
    [1413706,"2026-05-26 07:40:00","51291","1.3619999999999999","263.4","2.581","264.9","1026.683","24.94","44.5","510.2","0.0"],
    [1413707,"2026-05-26 07:50:00","51292","1.315","266.3","2.156","304.9","1026.655","25.6","42.39","544.9","0.0"],
    [1413708,"2026-05-26 08:00:00","51293","0.7440000000000001","261.3","1.666","194.5","1026.678","26.2","40.08","578.5","0.0"],
    [1413709,"2026-05-26 08:10:00","51294","0.768","233.8","2.287","220","1026.6860000000001","26.53","38.78","610.8","0.0"],
    [1413710,"2026-05-26 08:20:00","51295","0.642","232.9","1.862","226.4","1026.719","26.97","38.09","630.4","0.0"],
    [1413711,"2026-05-26 08:30:00","51296","1.046","176.7","2.744","177.4","1026.736","26.99","37.27","650.4","0.0"],
    [1413712,"2026-05-26 08:40:00","51297","0.987","213.3","2.483","222.7","1026.763","27.34","37.24","697.8","0.0"],
    [1413713,"2026-05-26 08:50:00","51298","2.471","196.7","4.541","179.9","1026.807","26.9","41.75","701.5","0.0"],
    [1413714,"2026-05-26 09:00:00","51299","2.421","187.3","4.312","182.4","1026.85","26.24","45.27","758.7","0.0"],
    [1413715,"2026-05-26 09:10:00","51300","2.784","184.4","4.606","182.3","1026.855","25.84","45.81","784.8","0.0"],
    [1413716,"2026-05-26 09:20:00","51301","2.491","200.9","5.063","201.2","1026.877","26.11","44.59","807.0","0.0"],
    [1413717,"2026-05-26 09:30:00","51302","2.6719999999999997","193.3","4.279","178.2","1026.897","25.74","46.53","832.0","0.0"],
    [1413718,"2026-05-26 09:40:00","51303","3.4139999999999997","209.8","4.965","218.9","1026.95","25.61","50.17","852.0","0.0"],
    [1413719,"2026-05-26 09:50:00","51304","3.2319999999999998","208.7","5.161","212.4","1026.992","25.31","50.99","871.0","0.0"],
    [1413720,"2026-05-26 10:00:00","51305","2.696","194.9","5.227","181.5","1027.013","25.77","48.77","890.0","0.0"],
    [1413721,"2026-05-26 10:10:00","51306","2.9330000000000003","198.8","5.292","225.4","1027.083","25.95","49.89","904.0","0.0"],
    [1413722,"2026-05-26 10:20:00","51307","2.963","201.9","5.129","225.4","1027.085","25.79","51.22","919.0","0.0"],
    [1413723,"2026-05-26 10:30:00","51308","3.014","208.4","4.769","222.1","1027.049","26.18","48.62","932.0","0.0"],
    [1413724,"2026-05-26 10:40:00","51309","2.909","208.5","4.639","213.1","1027.057","26.11","50.37","942.0","0.0"],
    [1413725,"2026-05-26 10:50:00","51310","3.553","184.2","5.749","174.9","1027.021","25.55","52.28","955.0","0.0"],
    [1413726,"2026-05-26 11:00:00","51311","2.833","192.1","5.357","171.7","1026.985","25.53","50.84","961.0","0.0"],
    [1413727,"2026-05-26 11:10:00","51312","2.6710000000000003","200.4","5.161","221.4","1026.912","26.29","48.03","967.0","0.0"],
    [1413728,"2026-05-26 11:20:00","51313","2.5789999999999997","200.3","4.312","183.9","1026.825","26.19","48.22","973.0","0.0"],
    [1413729,"2026-05-26 11:30:00","51314","2.915","200.1","5.292","224","1026.771","26.28","50.05","976.0","0.0"],
    [1413730,"2026-05-26 11:40:00","51315","2.9989999999999997","190.6","4.933","180.3","1026.739","25.9","51.88","979.0","0.0"],
    [1413731,"2026-05-26 11:50:00","51316","2.931","199.1","4.867","220.4","1026.687","26.44","49.27","980.0","0.0"],
    [1413732,"2026-05-26 12:00:00","51317","3.275","200.6","5.651","211.8","1026.603","26.37","48.06","979.0","0.0"],
    [1413733,"2026-05-26 12:10:00","51318","3.022","202.2","5.39","195.4","1026.569","26.31","49.87","976.0","0.0"],
    [1413734,"2026-05-26 12:20:00","51319","2.852","194.7","7.709","209.1","1026.515","26.42","49.78","972.0","0.0"],
    [1413735,"2026-05-26 12:30:00","51320","3.63","208.4","7.742","250.9","1026.374","26.67","47.28","968.0","0.0"],
    [1413736,"2026-05-26 12:40:00","51321","3.095","197.8","7.84","201.6","1026.253","26.94","46.22","959.0","0.0"],
    [1413737,"2026-05-26 12:50:00","51322","3.615","205.0","5.88","210.5","1026.146","27.18","43.9","950.0","0.0"],
    [1413738,"2026-05-26 13:00:00","51323","3.548","211.6","6.435","213.7","1026.052","27.51","41.33","940.0","0.0"],
    [1413739,"2026-05-26 13:10:00","51324","4.096","208.2","6.37","210.1","1026.031","27.24","43.67","931.0","0.0"],
    [1413740,"2026-05-26 13:20:00","51325","3.305","192.8","5.749","218.1","1025.9769999999999","27.27","46.88","918.0","0.0"],
    [1413741,"2026-05-26 13:30:00","51326","3.165","186.1","5.978","214.8","1025.881","26.95","46.84","908.0","0.0"],
    [1413742,"2026-05-26 13:40:00","51327","3.21","191.0","5.423","194.7","1025.797","27.22","46.11","893.0","0.0"],
    [1413743,"2026-05-26 13:50:00","51328","3.0660000000000003","199.0","6.043","216.2","1025.781","27.18","46.11","875.0","0.0"],
    [1413744,"2026-05-26 14:00:00","51329","3.4410000000000003","197.0","6.109","216.6","1025.634","27.25","45.11","861.0","0.0"],
    [1413745,"2026-05-26 14:10:00","51330","2.832","198.5","5.717","228.5","1025.489","27.11","45.25","842.0","0.0"],
    [1413746,"2026-05-26 14:20:00","51331","3.287","206.6","5.553","197.9","1025.474","27.4","44.52","823.0","0.0"],
    [1413747,"2026-05-26 14:30:00","51332","4.189","216.7","8.69","240.4","1025.395","27.02","45.69","804.0","0.0"],
    [1413748,"2026-05-26 14:40:00","51333","4.084","215.5","6.697","248.1","1025.266","26.79","47.77","781.1","0.0"],
    [1413749,"2026-05-26 14:50:00","51334","3.537","200.0","5.749","226.7","1025.184","26.86","50.2","755.7","0.0"],
    [1413750,"2026-05-26 15:00:00","51335","3.9989999999999997","214.8","6.86","210.6","1025.127","26.53","50.66","730.1","0.0"],
    [1413751,"2026-05-26 15:10:00","51336","3.966","213.5","6.305","221.6","1025.048","26.45","51.48","703.8","0.0"],
    [1413752,"2026-05-26 15:20:00","51337","3.228","205.7","5.129","209.5","1024.983","26.66","52.76","675.0","0.0"],
    [1413753,"2026-05-26 15:30:00","51338","3.1839999999999997","201.3","6.076","223.2","1024.897","26.68","54.07","608.7","0.0"],
    [1413754,"2026-05-26 15:40:00","51339","3.002","193.2","6.207","177.7","1024.819","26.47","56.92","616.5","0.0"],
    [1413755,"2026-05-26 15:50:00","51340","2.7880000000000003","197.7","5.455","173.9","1024.738","26.24","57.77","548.5","0.0"],
    [1413756,"2026-05-26 16:00:00","51341","2.92","197.2","5.39","222.2","1024.623","25.99","58.95","560.1","0.0"],
    [1413757,"2026-05-26 16:10:00","51342","3.0589999999999997","195.2","6.925","211.2","1024.579","25.75","60.95","529.1","0.0"],
    [1413758,"2026-05-26 16:20:00","51343","2.68","201.8","4.573","236.3","1024.5330000000001","25.66","63.1","496.9","0.0"],
    [1413759,"2026-05-26 16:30:00","51344","3.0869999999999997","203.0","5.553","175","1024.411","25.53","63.9","464.5","0.0"],
    [1413760,"2026-05-26 16:40:00","51345","2.884","203.4","4.965","166.8","1024.363","25.54","62.83","431.3","0.0"],
    [1413761,"2026-05-26 16:50:00","51346","2.997","200.2","6.109","225.9","1024.327","25.46","64.14","398.0","0.0"],
    [1413762,"2026-05-26 17:00:00","51347","2.88","206.7","5.031","218.7","1024.3039999999999","25.21","65.42","364.3","0.0"],
    [1413763,"2026-05-26 17:10:00","51348","2.386","192.7","4.639","182.6","1024.289","24.99","67.32","330.9","0.0"],
    [1413764,"2026-05-26 17:20:00","51349","2.614","195.7","5.651","183.5","1024.238","24.88","68.3","298.0","0.0"],
    [1413765,"2026-05-26 17:30:00","51350","2.56","191.1","4.247","178.2","1024.221","24.65","69.89","265.3","0.0"],
    [1413766,"2026-05-26 17:40:00","51351","3.384","183.5","5.488","188.4","1024.248","24.33","71.05","231.9","0.0"],
    [1413767,"2026-05-26 17:50:00","51352","3.588","189.5","5.619","178.9","1024.236","23.87","72.52","203.5","0.0"],
    [1413768,"2026-05-26 18:00:00","51353","3.114","188.1","4.835","186.1","1024.215","23.89","72.53","172.6","0.0"],
    [1413769,"2026-05-26 18:10:00","51354","3.859","183.4","5.455","177.4","1024.231","23.57","74.48","142.1","0.0"],
    [1413770,"2026-05-26 18:20:00","51355","4.047","183.7","5.749","183.8","1024.2060000000001","23.42","74.95","113.6","0.0"],
    [1413771,"2026-05-26 18:30:00","51356","2.9739999999999998","186.8","5.325","172.4","1024.175","23.36","74.95","86.0","0.0"],
    [1413772,"2026-05-26 18:40:00","51357","2.4130000000000003","185.5","4.181","184.6","1024.173","23.26","76.63","60.87","0.0"],
    [1413773,"2026-05-26 18:50:00","51358","1.795","199.6","4.214","216.7","1024.1019999999999","23.17","77.64","37.05","0.0"],
    [1413774,"2026-05-26 19:00:00","51359","1.85","197.3","3.757","208","1024.0330000000001","22.94","79.33","19.04","0.0"],
    [1413775,"2026-05-26 19:10:00","51360","1.681","196.1","3.103","197.8","1024.027","22.7","81.1","6.496","0.0"],
    [1413776,"2026-05-26 19:20:00","51361","2.008","193.9","5.553","187.5","1023.9889999999999","22.47","83.1","0.789","0.0"],
    [1413777,"2026-05-26 19:30:00","51362","1.911","199.6","3.561","216.3","1023.9789999999999","22.36","83.7","-1.8980000000000001","0.0"],
    [1413778,"2026-05-26 19:40:00","51363","2.068","189.5","5.031","182.6","1023.9630000000001","22.27","84.8","-2.89","0.0"],
    [1413779,"2026-05-26 19:50:00","51364","1.919","201.2","3.659","171.7","1024.017","22.2","85.4","-3.285","0.0"],
    [1413780,"2026-05-26 20:00:00","51365","1.829","198.9","4.214","204.3","1024.106","22.1","86.3","-3.4139999999999997","0.0"],
    [1413781,"2026-05-26 20:10:00","51366","1.7180000000000002","186.1","3.267","172.6","1024.215","22.0","87.4","-3.392","0.0"],
    [1413782,"2026-05-26 20:20:00","51367","1.517","203.5","3.397","196.5","1024.3239999999998","21.92","87.9","-3.375","0.0"],
    [1413783,"2026-05-26 20:30:00","51368","1.5","194.6","3.528","186.2","1024.404","21.87","88.2","-3.4160000000000004","0.0"],
    [1413784,"2026-05-26 20:40:00","51369","1.47","197.4","2.842","183.5","1024.5","21.85","88.3","-3.404","0.0"],
    [1413785,"2026-05-26 20:50:00","51370","1.8030000000000002","189.2","3.626","181.5","1024.51","21.81","88.4","-3.407","0.0"],
    [1413786,"2026-05-26 21:00:00","51371","1.494","197.2","3.071","187.6","1024.579","21.81","88.4","-3.3739999999999997","0.0"],
    [1413787,"2026-05-26 21:10:00","51372","1.94","213.5","2.973","238.7","1024.608","21.8","88.5","-3.407","0.0"],
    [1413788,"2026-05-26 21:20:00","51373","1.88","217.7","3.038","218.4","1024.555","21.76","88.5","-3.39","0.0"],
    [1413789,"2026-05-26 21:30:00","51374","2.2119999999999997","219.5","3.495","227.1","1024.512","21.73","88.1","-3.408","0.0"],
    [1413790,"2026-05-26 21:40:00","51375","2.253","215.3","3.822","221.8","1024.4560000000001","21.75","87.5","-3.411","0.0"],
    [1413791,"2026-05-26 21:50:00","51376","2.275","215.2","3.397","212.2","1024.39","21.73","87.0","-3.4160000000000004","0.0"],
    [1413792,"2026-05-26 22:00:00","51377","2.006","213.0","3.365","207.5","1024.327","21.69","87.2","-3.408","0.0"],
    [1413793,"2026-05-26 22:10:00","51378","1.944","212.9","3.593","225.7","1024.2730000000001","21.66","87.7","-3.3960000000000004","0.0"],
    [1413794,"2026-05-26 22:20:00","51379","1.984","223.0","2.973","226.1","1024.2089999999998","21.62","88.4","-3.2739999999999996","0.0"],
    [1413795,"2026-05-26 22:30:00","51380","2.105","225.1","3.332","225.8","1024.154","21.63","88.8","-3.15","0.0"],
    [1413796,"2026-05-26 22:40:00","51381","2.119","227.4","3.267","228.3","1024.111","21.62","88.8","-3.111","0.0"],
    [1413797,"2026-05-26 22:50:00","51382","1.869","231.5","3.038","243.2","1024.062","21.59","88.2","-3.0810000000000004","0.0"],
    [1413798,"2026-05-26 23:00:00","51383","1.217","236.0","2.254","265.2","1024.045","21.31","86.8","-3.362","0.0"],
    [1413799,"2026-05-26 23:10:00","51384","1.426","235.6","2.189","224.7","1023.9580000000001","21.1","83.7","-3.895","0.0"],
    [1413800,"2026-05-26 23:20:00","51385","1.349","234.5","2.319","223.3","1023.8580000000001","21.11","79.29","-4.1610000000000005","0.0"],
    [1413801,"2026-05-26 23:30:00","51386","1.462","230.4","2.483","214.3","1023.686","21.24","76.38","-4.1610000000000005","0.0"],
    [1413802,"2026-05-26 23:40:00","51387","1.8159999999999998","230.7","2.417","226.5","1023.5930000000001","21.39","75.48","-4.16","0.0"],
    [1413803,"2026-05-26 23:50:00","51388","1.344","233.8","2.548","231","1023.498","21.31","74.48","-4.149","0.0"],
    [1413804,"2026-05-27 00:00:00","51389","1.168","269.6","1.993","267.1","1023.409","20.78","73.01","-3.949","0.0"],
    [1413805,"2026-05-27 00:10:00","51390","0.835","262.0","1.666","270.8","1023.318","20.21","70.71","-4.001","0.0"],
    [1413806,"2026-05-27 00:20:00","51391","1.128","258.6","2.123","250.4","1023.238","20.14","67.22","-3.4010000000000002","0.0"],
    [1413807,"2026-05-27 00:30:00","51392","0.9159999999999999","261.9","1.96","256.9","1023.2","20.02","65.64","-3.2769999999999997","0.0"],
    [1413808,"2026-05-27 00:40:00","51393","0.996","252.5","1.927","230.4","1023.1289999999999","19.78","65.34","-3.3489999999999998","0.0"],
    [1413809,"2026-05-27 00:50:00","51394","0.669","252.4","1.797","253.3","1023.0160000000001","19.44","66.31","-3.338","0.0"],
    [1413810,"2026-05-27 01:00:00","51395","0.7020000000000001","246.2","1.503","220.9","1022.927","19.19","66.71","-3.407","0.0"],
    [1413811,"2026-05-27 01:10:00","51396","1.0490000000000002","229.0","1.96","229.4","1022.8560000000001","19.36","64.8","-3.1860000000000004","0.0"],
    [1413812,"2026-05-27 01:20:00","51397","1.405","232.6","1.829","232.3","1022.785","19.25","64.46","-2.844","0.0"],
    [1413813,"2026-05-27 01:30:00","51398","1.013","250.7","1.862","256.9","1022.694","19.26","64.07","-2.859","0.0"],
    [1413814,"2026-05-27 01:40:00","51399","0.9990000000000001","248.7","1.895","251.8","1022.591","19.09","65.04","-2.873","0.0"],
    [1413815,"2026-05-27 01:50:00","51400","0.772","252.3","1.405","276.1","1022.462","18.64","67.33","-3.0869999999999997","0.0"],
    [1413816,"2026-05-27 02:00:00","51401","1.011","252.5","1.764","259.1","1022.377","18.65","66.43","-2.97","0.0"],
    [1413817,"2026-05-27 02:10:00","51402","0.773","260.7","1.307","251.1","1022.2810000000001","18.63","66.68","-2.755","0.0"],
    [1413818,"2026-05-27 02:20:00","51403","0.605","268.9","1.307","276.7","1022.205","18.3","68.0","-2.865","0.0"],
    [1413819,"2026-05-27 02:30:00","51404","1.219","278.3","1.927","288.9","1022.169","17.94","69.29","-2.7510000000000003","0.0"],
    [1413820,"2026-05-27 02:40:00","51405","1.1540000000000001","268.9","2.221","266.1","1022.073","17.98","68.58","-2.804","0.0"],
    [1413821,"2026-05-27 02:50:00","51406","0.736","250.6","1.895","254.6","1022.023","18.28","66.39","-2.717","0.0"],
    [1413822,"2026-05-27 03:00:00","51407","0.938","258.8","1.731","248.8","1021.97","18.37","66.11","-2.705","0.0"],
    [1413823,"2026-05-27 03:10:00","51408","0.633","255.9","1.209","280.9","1021.893","18.25","66.35","-2.725","0.0"],
    [1413824,"2026-05-27 03:20:00","51409","0.81","262.2","2.058","280.5","1021.802","18.05","66.84","-2.733","0.0"],
    [1413825,"2026-05-27 03:30:00","51410","0.7440000000000001","256.4","1.993","264.7","1021.778","18.09","66.44","-2.8369999999999997","0.0"],
    [1413826,"2026-05-27 03:40:00","51411","0.759","255.3","1.699","251.6","1021.7230000000001","18.02","66.26","-2.778","0.0"],
    [1413827,"2026-05-27 03:50:00","51412","1.119","268.1","2.058","262","1021.674","18.09","65.92","-2.74","0.0"],
    [1413828,"2026-05-27 04:00:00","51413","1.129","272.3","2.417","274.5","1021.679","17.97","66.17","-2.7539999999999996","0.0"],
    [1413829,"2026-05-27 04:10:00","51414","1.0190000000000001","260.1","1.797","274.4","1021.75","17.96","66.08","-2.398","0.0"],
    [1413830,"2026-05-27 04:20:00","51415","1.073","258.0","2.189","271.6","1021.81","17.97","65.62","-0.762","0.0"],
    [1413831,"2026-05-27 04:30:00","51416","1.067","265.1","2.091","292","1021.7919999999999","18.08","64.94","2.9739999999999998","0.0"],
    [1413832,"2026-05-27 04:40:00","51417","1.056","265.9","1.993","248.4","1021.7560000000001","18.06","64.6","10.07","0.0"],
    [1413833,"2026-05-27 04:50:00","51418","1.3730000000000002","269.6","3.005","257.7","1021.799","18.08","64.2","27.25","0.0"],
    [1413834,"2026-05-27 05:00:00","51419","1.564","268.2","2.94","274.5","1021.823","18.21","63.51","43.38","0.0"],
    [1413835,"2026-05-27 05:10:00","51420","1.935","278.2","3.528","248.8","1021.801","18.41","62.4","59.72","0.0"],
    [1413836,"2026-05-27 05:20:00","51421","2.0709999999999997","273.4","3.528","286.3","1021.804","18.59","61.71","71.07","0.0"],
    [1413837,"2026-05-27 05:30:00","51422","2.2359999999999998","274.8","3.757","281.4","1021.8430000000001","18.81","61.28","78.29","0.0"],
    [1413838,"2026-05-27 05:40:00","51423","2.146","277.9","3.593","291.1","1021.9019999999999","19.22","59.96","106.2","0.0"],
    [1413839,"2026-05-27 05:50:00","51424","2.157","280.0","3.43","295.4","1021.941","19.51","59.16","128.2","0.0"],
    [1413840,"2026-05-27 06:00:00","51425","1.8630000000000002","269.2","2.973","278.8","1021.9989999999999","19.92","58.17","158.2","0.0"],
    [1413841,"2026-05-27 06:10:00","51426","1.617","268.3","2.907","297.4","1022.112","20.48","56.12","195.5","0.0"],
    [1413842,"2026-05-27 06:20:00","51427","1.4880000000000002","269.4","3.397","284.2","1022.181","20.87","55.17","219.3","0.0"],
    [1413843,"2026-05-27 06:30:00","51428","1.6680000000000001","276.8","2.777","278.9","1022.2289999999999","21.49","53.44","254.6","0.0"],
    [1413844,"2026-05-27 06:40:00","51429","1.8659999999999999","278.0","2.711","272.8","1022.2710000000001","21.93","52.18","288.0","0.0"],
    [1413845,"2026-05-27 06:50:00","51430","2.233","283.1","3.659","300.2","1022.323","22.42","50.95","329.6","0.0"],
    [1413846,"2026-05-27 07:00:00","51431","1.902","272.1","3.071","279.9","1022.3839999999999","22.88","50.18","368.0","0.0"],
    [1413847,"2026-05-27 07:10:00","51432","1.6909999999999998","248.1","2.94","284.2","1022.423","23.39","48.59","412.3","0.0"],
    [1413848,"2026-05-27 07:20:00","51433","1.8319999999999999","254.6","3.953","283.7","1022.4169999999999","23.77","49.18","451.8","0.0"],
    [1413849,"2026-05-27 07:30:00","51434","1.912","240.1","3.332","216.4","1022.418","23.79","50.54","482.0","0.0"],
    [1413850,"2026-05-27 07:40:00","51435","1.469","232.0","2.94","273.2","1022.42","24.41","50.8","512.6","0.0"],
    [1413851,"2026-05-27 07:50:00","51436","1.263","224.8","2.45","255.1","1022.3739999999999","24.95","50.59","542.7","0.0"],
    [1413852,"2026-05-27 08:00:00","51437","1.5290000000000001","230.4","3.92","199.4","1022.3660000000001","25.31","51.14","565.4","0.0"],
    [1413853,"2026-05-27 08:10:00","51438","2.7689999999999997","214.3","5.194","205.7","1022.4019999999999","25.26","53.64","596.4","0.0"],
    [1413854,"2026-05-27 08:20:00","51439","4.035","209.1","6.109","206.7","1022.3989999999999","25.06","57.81","632.4","0.0"],
    [1413855,"2026-05-27 08:30:00","51440","3.2710000000000004","213.5","5.782","227","1022.3789999999999","25.43","55.06","638.1","0.0"],
    [1413856,"2026-05-27 08:40:00","51441","4.2669999999999995","217.9","6.566","209","1022.345","25.65","51.83","703.7","0.0"],
    [1413857,"2026-05-27 08:50:00","51442","4.806","217.2","7.742","201","1022.321","25.73","48.59","690.2","0.0"],
    [1413858,"2026-05-27 09:00:00","51443","3.765","215.4","7.579","203.7","1022.291","26.14","47.06","740.1","0.0"],
    [1413859,"2026-05-27 09:10:00","51444","4.938","214.5","7.807","211","1022.2310000000001","26.26","46.25","770.6","0.0"],
    [1413860,"2026-05-27 09:20:00","51445","4.055","214.3","6.599","239.5","1022.2","26.5","46.94","797.0","0.0"],
    [1413861,"2026-05-27 09:30:00","51446","4.042","210.4","6.076","225.7","1022.17","26.47","47.42","830.0","0.0"],
    [1413862,"2026-05-27 09:40:00","51447","4.128","212.0","6.925","215.1","1022.115","26.53","46.72","845.0","0.0"],
    [1413863,"2026-05-27 09:50:00","51448","4.614","213.5","8.17","231.7","1022.054","26.64","46.44","866.0","0.0"],
    [1413864,"2026-05-27 10:00:00","51449","4.382","216.2","7.709","160.9","1022.025","26.68","44.97","882.0","0.0"],
    [1413865,"2026-05-27 10:10:00","51450","4.149","212.6","7.513","224.2","1021.965","27.29","42.56","902.0","0.0"],
    [1413866,"2026-05-27 10:20:00","51451","4.452","210.9","7.84","215.2","1021.9739999999999","27.3","42.91","916.0","0.0"],
    [1413867,"2026-05-27 10:30:00","51452","4.4910000000000005","208.7","7.709","202.7","1021.948","27.01","45.15","929.0","0.0"],
    [1413868,"2026-05-27 10:40:00","51453","4.788","211.3","8.66","212.3","1021.8810000000001","27.06","46.17","937.0","0.0"],
    [1413869,"2026-05-27 10:50:00","51454","4.546","207.2","8.79","208.7","1021.783","26.84","47.0","951.0","0.0"],
    [1413870,"2026-05-27 11:00:00","51455","4.171","207.8","8.13","211","1021.689","27.29","45.68","961.0","0.0"],
    [1413871,"2026-05-27 11:10:00","51456","5.374","209.0","8.4","209.3","1021.6389999999999","26.69","47.81","966.0","0.0"],
    [1413872,"2026-05-27 11:20:00","51457","4.837","207.3","7.84","227.7","1021.538","26.9","47.35","970.0","0.0"],
    [1413873,"2026-05-27 11:30:00","51458","5.3420000000000005","210.3","8.3","208.5","1021.454","26.87","48.3","970.0","0.0"],
    [1413874,"2026-05-27 11:40:00","51459","5.518","213.7","8.13","215.4","1021.3660000000001","26.9","49.89","966.0","0.0"],
    [1413875,"2026-05-27 11:50:00","51460","6.087000000000001","210.6","9.54","218.1","1021.2719999999999","26.44","52.41","961.0","0.0"],
    [1413876,"2026-05-27 12:00:00","51461","4.967","209.8","9.8","211.3","1021.176","26.77","51.81","974.0","0.0"],
    [1413877,"2026-05-27 12:10:00","51462","6.231","211.7","9.77","221.7","1021.127","26.6","52.05","977.0","0.0"],
    [1413878,"2026-05-27 12:20:00","51463","4.872","210.6","8.62","223.5","1021.06","26.72","52.87","973.0","0.0"],
    [1413879,"2026-05-27 12:30:00","51464","5.183","211.7","9.38","226.8","1021.038","26.7","52.42","970.0","0.0"],
    [1413880,"2026-05-27 12:40:00","51465","4.636","207.3","9.24","215.7","1020.965","26.81","53.11","961.0","0.0"],
    [1413881,"2026-05-27 12:50:00","51466","4.94","209.8","8.75","201.9","1020.887","26.94","52.24","952.0","0.0"],
    [1413882,"2026-05-27 13:00:00","51467","6.082999999999999","211.2","10.06","226.8","1020.8610000000001","26.86","51.99","945.0","0.0"],
    [1413883,"2026-05-27 13:10:00","51468","4.718999999999999","208.6","9.15","216.9","1020.779","27.15","51.54","933.0","0.0"],
    [1413884,"2026-05-27 13:20:00","51469","5.515","212.1","9.05","220.1","1020.725","26.91","52.62","924.0","0.0"],
    [1413885,"2026-05-27 13:30:00","51470","5.239","212.9","8.66","216.6","1020.62","27.16","52.5","912.0","0.0"],
    [1413886,"2026-05-27 13:40:00","51471","5.52","213.5","8.95","215.4","1020.497","26.85","54.45","884.0","0.0"],
    [1413887,"2026-05-27 13:50:00","51472","5.233","212.6","8.62","225.1","1020.3539999999999","27.0","54.55","878.0","0.0"],
    [1413888,"2026-05-27 14:00:00","51473","4.921","209.9","8.36","218.9","1020.2","26.83","56.31","860.0","0.0"],
    [1413889,"2026-05-27 14:10:00","51474","5.968999999999999","210.6","9.34","190.8","1020.085","26.71","55.89","840.0","0.0"],
    [1413890,"2026-05-27 14:20:00","51475","5.132999999999999","212.0","8.23","205.1","1019.9689999999999","26.76","55.56","813.0","0.0"],
    [1413891,"2026-05-27 14:30:00","51476","4.493","208.3","8.3","207.8","1019.8710000000001","26.59","55.64","796.2","0.0"],
    [1413892,"2026-05-27 14:40:00","51477","4.762","211.5","8.1","208.4","1019.779","27.05","54.15","772.9","0.0"],
    [1413893,"2026-05-27 14:50:00","51478","5.31","208.6","9.11","216.5","1019.653","26.4","55.86","744.4","0.0"],
    [1413894,"2026-05-27 15:00:00","51479","4.872","209.9","9.11","206.9","1019.539","26.58","56.04","715.6","0.0"],
    [1413895,"2026-05-27 15:10:00","51480","5.537000000000001","213.1","9.31","218.8","1019.433","26.22","57.51","687.5","0.0"],
    [1413896,"2026-05-27 15:20:00","51481","5.305","214.4","8.79","221.4","1019.3639999999999","26.27","57.97","659.7","0.0"],
    [1413897,"2026-05-27 15:30:00","51482","5.0569999999999995","214.0","8.3","215.8","1019.263","26.45","57.5","592.6","0.0"],
    [1413898,"2026-05-27 15:40:00","51483","5.615","213.1","9.73","216.7","1019.2280000000001","26.11","58.08","601.4","0.0"],
    [1413899,"2026-05-27 15:50:00","51484","5.916","215.9","10.09","212.4","1019.22","26.02","58.35","536.7","0.0"],
    [1413900,"2026-05-27 16:00:00","51485","5.56","217.1","10.58","221.9","1019.133","26.14","58.4","549.1","0.0"],
    [1413901,"2026-05-27 16:10:00","51486","6.04","217.9","8.92","218.8","1019.035","25.83","59.39","521.4","0.0"],
    [1413902,"2026-05-27 16:20:00","51487","6.5","218.5","10.19","215.1","1018.962","25.5","61.43","489.7","0.0"],
    [1413903,"2026-05-27 16:30:00","51488","5.511","214.9","8.92","222.8","1018.8760000000001","25.62","61.36","457.4","0.0"],
    [1413904,"2026-05-27 16:40:00","51489","5.396","214.9","8.75","237","1018.811","25.59","60.98","424.3","0.0"],
    [1413905,"2026-05-27 16:50:00","51490","5.355","216.0","9.93","227.7","1018.659","25.47","61.32","391.9","0.0"],
    [1413906,"2026-05-27 17:00:00","51491","4.891","214.1","8.89","206.5","1018.569","25.6","60.41","359.9","0.0"],
    [1413907,"2026-05-27 17:10:00","51492","4.743","212.5","8.69","233.6","1018.5","25.53","59.64","331.4","0.0"],
    [1413908,"2026-05-27 17:20:00","51493","4.835","214.9","9.93","217.5","1018.445","25.51","58.93","301.1","0.0"],
    [1413909,"2026-05-27 17:30:00","51494","5.169","216.0","8.2","225.4","1018.415","25.36","58.35","269.7","0.0"],
    [1413910,"2026-05-27 17:40:00","51495","4.968","217.4","7.807","224.8","1018.3810000000001","25.31","57.19","237.4","0.0"],
    [1413911,"2026-05-27 17:50:00","51496","5.087","218.7","8.46","219.1","1018.372","25.19","57.75","205.2","0.0"],
    [1413912,"2026-05-27 18:00:00","51497","5.359","218.1","9.08","217.1","1018.3760000000001","24.84","59.79","174.1","0.0"],
    [1413913,"2026-05-27 18:10:00","51498","5.481","219.3","9.28","229.5","1018.3910000000001","24.61","61.54","143.0","0.0"],
    [1413914,"2026-05-27 18:20:00","51499","5.042","220.6","8.04","218.9","1018.3810000000001","24.41","61.38","108.1","0.0"],
    [1413915,"2026-05-27 18:30:00","51500","5.481","224.7","8.89","225.9","1018.419","24.27","61.39","84.8","0.0"],
    [1413916,"2026-05-27 18:40:00","51501","5.126","223.8","7.84","220.6","1018.443","24.02","62.64","56.24","0.0"],
    [1413917,"2026-05-27 18:50:00","51502","4.7669999999999995","219.9","7.448","213.5","1018.4680000000001","23.89","62.93","32.57","0.0"],
    [1413918,"2026-05-27 19:00:00","51503","4.672","216.7","7.383","233.4","1018.507","23.71","63.6","13.36","0.0"],
    [1413919,"2026-05-27 19:10:00","51504","4.385","218.7","6.337","197","1018.567","23.62","63.09","5.627999999999999","0.0"],
    [1413920,"2026-05-27 19:20:00","51505","4.621","220.3","7.383","210.3","1018.6489999999999","23.55","62.71","0.815","0.0"],
    [1413921,"2026-05-27 19:30:00","51506","4.582","217.5","6.664","197.7","1018.681","23.51","62.6","-1.69","0.0"],
    [1413922,"2026-05-27 19:40:00","51507","4.163","218.6","6.566","216.4","1018.799","23.42","62.82","-2.63","0.0"],
    [1413923,"2026-05-27 19:50:00","51508","4.724","221.1","6.827","201.9","1018.9069999999999","23.49","60.34","-2.6839999999999997","0.0"],
    [1413924,"2026-05-27 20:00:00","51509","4.477","220.9","6.272","207.8","1018.9810000000001","23.46","59.88","-2.653","0.0"],
    [1413925,"2026-05-27 20:10:00","51510","3.965","223.4","5.39","232.3","1019.0089999999999","23.36","59.49","-2.658","0.0"],
    [1413926,"2026-05-27 20:20:00","51511","3.5789999999999997","222.5","5.913","206.9","1019.071","23.37","58.13","-2.6719999999999997","0.0"],
    [1413927,"2026-05-27 20:30:00","51512","3.346","224.6","5.129","224","1019.17","23.39","56.85","-2.681","0.0"],
    [1413928,"2026-05-27 20:40:00","51513","3.147","221.6","4.704","224.1","1019.2080000000001","23.3","56.91","-2.6910000000000003","0.0"],
    [1413929,"2026-05-27 20:50:00","51514","3.4330000000000003","223.5","5.096","217.8","1019.2669999999999","23.22","57.4","-2.667","0.0"],
    [1413930,"2026-05-27 21:00:00","51515","3.198","224.6","4.769","210.3","1019.285","23.15","57.31","-2.694","0.0"],
    [1413931,"2026-05-27 21:10:00","51516","3.17","221.9","4.933","206.2","1019.2539999999999","23.16","57.46","-2.71","0.0"],
    [1413932,"2026-05-27 21:20:00","51517","2.903","222.3","4.933","217.6","1019.196","22.9","58.86","-2.6910000000000003","0.0"],
    [1413933,"2026-05-27 21:30:00","51518","2.863","226.6","4.541","216.7","1019.158","22.79","59.29","-2.682","0.0"],
    [1413934,"2026-05-27 21:40:00","51519","3.031","225.2","4.279","238.6","1019.169","22.74","59.71","-2.6839999999999997","0.0"],
    [1413935,"2026-05-27 21:50:00","51520","2.9019999999999997","224.7","4.051","233.6","1019.1360000000001","22.7","60.09","-2.679","0.0"],
    [1413936,"2026-05-27 22:00:00","51521","3.2239999999999998","223.6","4.508","219.6","1019.1139999999999","22.64","60.7","-2.6630000000000003","0.0"],
    [1413937,"2026-05-27 22:10:00","51522","3.1289999999999996","222.0","4.377","216.7","1019.067","22.55","61.66","-2.665","0.0"],
    [1413938,"2026-05-27 22:20:00","51523","3.388","222.1","4.541","219.7","1019.068","22.49","62.11","-2.665","0.0"],
    [1413939,"2026-05-27 22:30:00","51524","3.2460000000000004","224.6","4.671","215.8","1019.028","22.48","61.98","-2.6660000000000004","0.0"],
    [1413940,"2026-05-27 22:40:00","51525","3.385","224.9","4.867","221.5","1018.9730000000001","22.54","61.65","-2.667","0.0"],
    [1413941,"2026-05-27 22:50:00","51526","2.998","228.9","4.377","227.2","1018.966","22.57","61.42","-2.66","0.0"],
    [1413942,"2026-05-27 23:00:00","51527","2.582","227.6","4.116","216","1018.933","22.46","62.06","-2.662","0.0"],
    [1413943,"2026-05-27 23:10:00","51528","3.055","220.3","4.181","212.4","1018.842","22.39","62.56","-2.6639999999999997","0.0"],
    [1413944,"2026-05-27 23:20:00","51529","2.986","224.7","4.41","231.4","1018.795","22.32","62.31","-2.6639999999999997","0.0"],
    [1413945,"2026-05-27 23:30:00","51530","2.1630000000000003","229.4","3.365","220","1018.747","22.25","60.75","-2.661","0.0"],
    [1413946,"2026-05-27 23:40:00","51531","1.831","232.6","3.299","251","1018.682","22.19","59.75","-2.7289999999999996","0.0"],
    [1413947,"2026-05-27 23:50:00","51532","1.9","230.8","3.136","217.5","1018.58","22.18","60.1","-2.6910000000000003","0.0"],
    [1413948,"2026-05-28 00:00:00","51533","1.413","233.4","2.221","222.8","1018.512","22.05","59.15","-2.9019999999999997","0.0"],
    [1413949,"2026-05-28 00:10:00","51534","1.329","240.4","2.548","245.3","1018.4689999999999","22.06","58.13","-3.154","0.0"],
    [1413950,"2026-05-28 00:20:00","51535","1.3219999999999998","235.5","2.221","238.7","1018.455","21.91","58.15","-3.025","0.0"],
    [1413951,"2026-05-28 00:30:00","51536","1.548","227.7","2.319","236.9","1018.3760000000001","21.61","59.23","-2.795","0.0"],
    [1413952,"2026-05-28 00:40:00","51537","1.861","227.4","2.907","232.4","1018.326","21.33","60.47","-2.668","0.0"],
    [1413953,"2026-05-28 00:50:00","51538","1.874","227.9","2.646","208.6","1018.306","21.01","61.85","-2.661","0.0"],
    [1413954,"2026-05-28 01:00:00","51539","2.28","224.9","3.201","218.1","1018.232","21.01","62.32","-2.661","0.0"],
    [1413955,"2026-05-28 01:10:00","51540","1.641","228.8","2.744","248.3","1018.19","20.89","62.62","-2.661","0.0"],
    [1413956,"2026-05-28 01:20:00","51541","1.672","229.4","2.581","248.7","1018.159","20.74","63.12","-2.661","0.0"],
    [1413957,"2026-05-28 01:30:00","51542","1.526","229.2","2.777","268.3","1018.1469999999999","20.72","63.07","-2.665","0.0"],
    [1413958,"2026-05-28 01:40:00","51543","1.666","233.2","2.548","255.2","1018.072","20.86","62.37","-2.713","0.0"],
    [1413959,"2026-05-28 01:50:00","51544","1.3659999999999999","233.7","2.319","227.6","1018.048","20.9","62.47","-2.67","0.0"],
    [1413960,"2026-05-28 02:00:00","51545","1.278","242.8","2.744","286.4","1018.041","20.87","62.68","-2.6689999999999996","0.0"],
    [1413961,"2026-05-28 02:10:00","51546","1.38","240.2","2.613","244.1","1018.015","20.75","62.75","-2.682","0.0"],
    [1413962,"2026-05-28 02:20:00","51547","1.34","238.1","2.515","251.6","1017.942","20.69","62.87","-2.6710000000000003","0.0"],
    [1413963,"2026-05-28 02:30:00","51548","1.554","233.9","2.483","250.8","1017.8660000000001","20.65","63.08","-2.67","0.0"],
    [1413964,"2026-05-28 02:40:00","51549","1.555","251.4","3.038","259.9","1017.824","20.63","63.35","-2.668","0.0"],
    [1413965,"2026-05-28 02:50:00","51550","1.208","264.0","3.397","242.5","1017.791","20.5","63.08","-2.6639999999999997","0.0"],
    [1413966,"2026-05-28 03:00:00","51551","1.524","244.6","3.789","271.6","1017.755","20.57","61.98","-2.7289999999999996","0.0"],
    [1413967,"2026-05-28 03:10:00","51552","1.7719999999999998","247.4","3.822","269.8","1017.675","20.76","60.88","-2.6689999999999996","0.0"],
    [1413968,"2026-05-28 03:20:00","51553","2.195","258.2","4.214","257.8","1017.61","20.83","60.36","-2.661","0.0"],
    [1413969,"2026-05-28 03:30:00","51554","2.385","260.1","4.769","272.5","1017.565","20.93","58.97","-2.66","0.0"],
    [1413970,"2026-05-28 03:40:00","51555","1.9140000000000001","253.3","4.116","245.2","1017.5169999999999","21.09","57.58","-2.661","0.0"],
    [1413971,"2026-05-28 03:50:00","51556","1.76","250.7","3.463","281.2","1017.564","21.27","56.64","-2.66","0.0"],
    [1413972,"2026-05-28 04:00:00","51557","1.817","244.7","3.136","275.7","1017.595","21.24","57.04","-2.66","0.0"],
    [1413973,"2026-05-28 04:10:00","51558","1.8459999999999999","234.8","3.136","249.4","1017.6389999999999","21.07","57.89","-2.092","0.0"],
    [1413974,"2026-05-28 04:20:00","51559","1.999","235.3","3.659","251.6","1017.706","20.89","58.47","-0.627","0.0"],
    [1413975,"2026-05-28 04:30:00","51560","2.052","237.7","4.116","256.3","1017.7669999999999","21.19","57.27","2.502","0.0"],
    [1413976,"2026-05-28 04:40:00","51561","2.105","242.4","3.365","254.9","1017.752","21.15","57.69","9.26","0.0"],
    [1413977,"2026-05-28 04:50:00","51562","2.046","245.5","4.769","272.1","1017.778","21.25","57.32","24.1","0.0"],
    [1413978,"2026-05-28 05:00:00","51563","2.495","253.1","4.606","277.7","1017.819","21.48","56.23","41.4","0.0"],
    [1413979,"2026-05-28 05:10:00","51564","2.074","248.0","4.018","295.9","1017.8489999999999","21.61","55.51","56.48","0.0"],
    [1413980,"2026-05-28 05:20:00","51565","2.551","257.9","4.9","262.3","1017.932","21.87","54.51","67.46","0.0"],
    [1413981,"2026-05-28 05:30:00","51566","2.407","271.8","4.377","279.8","1017.977","21.9","54.16","74.35","0.0"],
    [1413982,"2026-05-28 05:40:00","51567","2.2880000000000003","264.5","4.345","299.8","1018.0139999999999","22.23","52.99","98.7","0.0"],
    [1413983,"2026-05-28 05:50:00","51568","3.313","276.7","5.227","267.7","1018.075","22.32","52.78","124.4","0.0"],
    [1413984,"2026-05-28 06:00:00","51569","2.968","267.0","5.096","260.2","1018.204","22.55","51.83","153.3","0.0"],
    [1413985,"2026-05-28 06:10:00","51570","3.154","266.5","5.227","264","1018.232","22.93","50.56","184.5","0.0"],
    [1413986,"2026-05-28 06:20:00","51571","2.477","251.6","4.965","293.3","1018.306","23.56","49.0","217.1","0.0"],
    [1413987,"2026-05-28 06:30:00","51572","2.455","241.9","4.475","227.6","1018.427","23.72","48.86","251.9","0.0"],
    [1413988,"2026-05-28 06:40:00","51573","2.467","243.1","4.639","278.2","1018.466","23.95","48.35","288.1","0.0"],
    [1413989,"2026-05-28 06:50:00","51574","2.43","233.4","4.247","250.4","1018.497","24.45","46.54","323.7","0.0"],
    [1413990,"2026-05-28 07:00:00","51575","2.3409999999999997","232.2","4.247","252.7","1018.55","24.94","44.8","358.7","0.0"],
    [1413991,"2026-05-28 07:10:00","51576","2.387","228.5","3.855","235.3","1018.592","25.24","44.8","393.4","0.0"],
    [1413992,"2026-05-28 07:20:00","51577","2.457","223.9","3.985","202.6","1018.564","25.67","44.67","428.6","0.0"],
    [1413993,"2026-05-28 07:30:00","51578","2.525","219.8","3.659","240.9","1018.553","26.13","44.17","462.4","0.0"],
    [1413994,"2026-05-28 07:40:00","51579","2.4419999999999997","223.0","3.757","222","1018.545","26.38","43.75","496.1","0.0"],
    [1413995,"2026-05-28 07:50:00","51580","2.448","219.8","3.822","201.1","1018.515","27.02","42.4","529.6","0.0"],
    [1413996,"2026-05-28 08:00:00","51581","2.476","217.0","3.626","208.4","1018.563","27.31","43.31","561.9","0.0"],
    [1413997,"2026-05-28 08:10:00","51582","2.713","208.7","4.312","210.8","1018.65","27.02","45.87","594.5","0.0"],
    [1413998,"2026-05-28 08:20:00","51583","2.244","198.6","4.116","182.7","1018.659","27.48","43.94","626.2","0.0"],
    [1413999,"2026-05-28 08:30:00","51584","2.659","198.0","5.325","225","1018.66","27.6","43.76","623.2","0.0"],
    [1414000,"2026-05-28 08:40:00","51585","3.045","208.0","5.194","232.6","1018.671","27.4","49.13","688.0","0.0"],
    [1414001,"2026-05-28 08:50:00","51586","2.667","205.6","5.259","212.2","1018.703","27.31","51.93","682.8","0.0"],
    [1414002,"2026-05-28 09:00:00","51587","4.822","215.9","6.697","225.3","1018.775","26.84","51.71","744.0","0.0"],
    [1414003,"2026-05-28 09:10:00","51588","4.5760000000000005","215.9","6.958","217.4","1018.857","26.66","54.46","767.7","0.0"],
    [1414004,"2026-05-28 09:20:00","51589","4.2330000000000005","215.8","6.403","219.3","1018.8660000000001","26.93","54.09","790.0","0.0"],
    [1414005,"2026-05-28 09:30:00","51590","4.03","215.2","5.782","210.7","1018.8969999999999","27.35","53.84","811.0","0.0"],
    [1414006,"2026-05-28 09:40:00","51591","4.524","214.6","6.697","213.4","1018.903","27.25","53.58","831.0","0.0"],
    [1414007,"2026-05-28 09:50:00","51592","4.638","216.5","6.893","223.3","1018.9019999999999","27.27","51.68","850.0","0.0"],
    [1414008,"2026-05-28 10:00:00","51593","4.6339999999999995","214.7","6.37","213.5","1018.882","27.25","54.15","868.0","0.0"],
    [1414009,"2026-05-28 10:10:00","51594","4.836","213.4","7.056","204","1018.887","27.11","53.96","884.0","0.0"],
    [1414010,"2026-05-28 10:20:00","51595","4.542","213.0","6.991","210.8","1018.885","27.44","52.43","898.0","0.0"],
    [1414011,"2026-05-28 10:30:00","51596","4.809","214.8","7.415","220.4","1018.834","27.39","52.83","913.0","0.0"],
    [1414012,"2026-05-28 10:40:00","51597","3.8689999999999998","212.5","6.86","209.6","1018.8760000000001","27.69","52.56","922.0","0.0"],
    [1414013,"2026-05-28 10:50:00","51598","3.4619999999999997","213.2","6.305","227.1","1018.825","28.36","51.24","930.0","0.0"],
    [1414014,"2026-05-28 11:00:00","51599","4.723","214.1","7.677","214.2","1018.7389999999999","28.14","51.53","939.0","0.0"],
    [1414015,"2026-05-28 11:10:00","51600","3.995","207.5","7.219","206.4","1018.6569999999999","28.01","51.11","944.0","0.0"],
    [1414016,"2026-05-28 11:20:00","51601","3.426","208.2","6.795","216.8","1018.6289999999999","28.33","47.64","949.0","0.0"],
    [1414017,"2026-05-28 11:30:00","51602","4.02","215.1","6.501","209.7","1018.55","28.53","46.74","953.0","0.0"],
    [1414018,"2026-05-28 11:40:00","51603","3.48","213.8","6.076","219.8","1018.5160000000001","28.83","44.88","955.0","0.0"],
    [1414019,"2026-05-28 11:50:00","51604","4.694","230.1","7.219","225.4","1018.4630000000001","28.74","41.16","959.0","0.0"],
    [1414020,"2026-05-28 12:00:00","51605","3.213","211.2","7.219","223.9","1018.421","29.53","41.56","956.0","0.0"],
    [1414021,"2026-05-28 12:10:00","51606","5.316","218.9","7.611","212.9","1018.415","28.9","40.88","958.0","0.0"],
    [1414022,"2026-05-28 12:20:00","51607","4.362","213.3","7.513","198.3","1018.305","29.36","42.79","953.0","0.0"],
    [1414023,"2026-05-28 12:30:00","51608","4.471","223.1","6.631","233.4","1018.206","29.47","40.58","950.0","0.0"],
    [1414024,"2026-05-28 12:40:00","51609","4.038","216.3","8.53","209.1","1018.1060000000001","29.71","42.2","942.0","0.0"],
    [1414025,"2026-05-28 12:50:00","51610","4.963","214.7","8.1","234.8","1018.067","29.35","41.98","932.0","0.0"],
    [1414026,"2026-05-28 13:00:00","51611","5.412999999999999","219.8","8.07","224","1017.952","28.87","43.13","925.0","0.0"],
    [1414027,"2026-05-28 13:10:00","51612","6.042000000000001","215.8","8.49","215.3","1017.8839999999999","29.23","41.12","915.0","0.0"],
    [1414028,"2026-05-28 13:20:00","51613","6.638","214.9","10.06","218.2","1017.8610000000001","28.63","42.52","907.0","0.0"],
    [1414029,"2026-05-28 13:30:00","51614","5.939","217.2","8.2","205","1017.868","28.7","42.45","892.0","0.0"],
    [1414030,"2026-05-28 13:40:00","51615","5.547000000000001","217.2","8.89","219.3","1017.822","29.04","41.42","872.0","0.0"],
    [1414031,"2026-05-28 13:50:00","51616","4.659","220.7","6.664","222","1017.7439999999999","29.46","39.32","854.0","0.0"],
    [1414032,"2026-05-28 14:00:00","51617","4.958","217.6","7.023","198.4","1017.6139999999999","29.56","39.53","838.0","0.0"],
    [1414033,"2026-05-28 14:10:00","51618","4.773","216.3","7.677","215.3","1017.495","29.96","36.94","823.0","0.0"],
    [1414034,"2026-05-28 14:20:00","51619","5.015","214.5","9.02","215.7","1017.415","29.59","39.52","805.0","0.0"],
    [1414035,"2026-05-28 14:30:00","51620","4.9430000000000005","212.9","8.33","216","1017.321","29.7","39.99","782.9","0.0"],
    [1414036,"2026-05-28 14:40:00","51621","5.372000000000001","218.7","8.43","224.4","1017.3480000000001","29.2","41.27","756.8","0.0"],
    [1414037,"2026-05-28 14:50:00","51622","4.775","209.0","7.383","217.3","1017.324","28.53","46.46","729.9","0.0"],
    [1414038,"2026-05-28 15:00:00","51623","4.878","215.2","8.66","211.7","1017.2810000000001","28.23","48.13","704.1","0.0"],
    [1414039,"2026-05-28 15:10:00","51624","5.357","218.3","9.21","219.2","1017.21","28.03","47.52","675.4","0.0"],
    [1414040,"2026-05-28 15:20:00","51625","5.391","218.1","9.7","214.5","1017.1669999999999","28.12","46.32","647.0","0.0"],
    [1414041,"2026-05-28 15:30:00","51626","5.351","216.2","8.85","208.3","1017.082","28.03","46.56","586.4","0.0"],
    [1414042,"2026-05-28 15:40:00","51627","5.675","220.2","9.21","195.3","1017.061","27.81","46.87","590.4","0.0"],
    [1414043,"2026-05-28 15:50:00","51628","5.768","218.5","8.89","209.5","1016.955","27.64","48.4","525.9","0.0"],
    [1414044,"2026-05-28 16:00:00","51629","5.3","217.2","8.04","214.6","1016.951","27.5","48.85","531.2","0.0"],
    [1414045,"2026-05-28 16:10:00","51630","4.744","217.7","8.4","226.7","1016.87","27.8","47.81","501.4","0.0"],
    [1414046,"2026-05-28 16:20:00","51631","5.354","218.0","9.02","226.7","1016.816","27.45","48.12","472.3","0.0"],
    [1414047,"2026-05-28 16:30:00","51632","5.325","216.5","8.17","201.5","1016.799","27.38","48.96","440.2","0.0"],
    [1414048,"2026-05-28 16:40:00","51633","5.05","218.5","8.98","204.9","1016.7639999999999","27.34","48.48","409.8","0.0"],
    [1414049,"2026-05-28 16:50:00","51634","4.871","218.2","7.677","213.2","1016.7610000000001","27.0","50.79","378.9","0.0"],
    [1414050,"2026-05-28 17:00:00","51635","5.455","219.5","8.07","214.8","1016.748","26.58","52.42","346.0","0.0"],
    [1414051,"2026-05-28 17:10:00","51636","4.802","221.1","8.2","221.4","1016.7080000000001","26.54","52.3","314.2","0.0"],
    [1414052,"2026-05-28 17:20:00","51637","4.565","219.1","7.807","233.4","1016.7639999999999","26.46","53.14","281.4","0.0"],
    [1414053,"2026-05-28 17:30:00","51638","4.695","216.2","8.85","241.4","1016.836","26.24","53.98","249.1","0.0"],
    [1414054,"2026-05-28 17:40:00","51639","4.251","217.4","6.958","203.5","1016.888","26.11","54.17","215.7","0.0"],
    [1414055,"2026-05-28 17:50:00","51640","4.138999999999999","215.0","7.056","219.7","1016.9810000000001","25.8","55.77","185.1","0.0"],
    [1414056,"2026-05-28 18:00:00","51641","5.195","216.0","7.611","192.3","1017.052","25.52","56.47","156.4","0.0"],
    [1414057,"2026-05-28 18:10:00","51642","4.755","216.3","6.827","241.6","1017.08","25.27","57.72","129.9","0.0"],
    [1414058,"2026-05-28 18:20:00","51643","4.096","212.9","7.905","220.7","1017.15","25.17","58.37","103.4","0.0"],
    [1414059,"2026-05-28 18:30:00","51644","4.489","215.4","7.546","221.6","1017.237","24.92","59.44","79.13","0.0"],
    [1414060,"2026-05-28 18:40:00","51645","4.363","212.8","8.3","225.2","1017.2339999999999","24.75","60.0","56.43","0.0"],
    [1414061,"2026-05-28 18:50:00","51646","4.337","212.0","7.383","238.3","1017.2460000000001","24.33","62.07","34.76","0.0"],
    [1414062,"2026-05-28 19:00:00","51647","4.034","213.8","7.252","201.8","1017.2410000000001","24.1","63.37","18.47","0.0"],
    [1414063,"2026-05-28 19:10:00","51648","4.638999999999999","212.4","7.121","219.4","1017.14","24.01","63.29","7.709","0.0"],
    [1414064,"2026-05-28 19:20:00","51649","4.599","214.4","8","211.8","1017.1510000000001","23.99","62.09","1.8159999999999998","0.0"],
    [1414065,"2026-05-28 19:30:00","51650","4.115","214.1","7.285","224.8","1017.225","24.08","60.26","-0.904","0.0"],
    [1414066,"2026-05-28 19:40:00","51651","4.502","217.6","7.317","212.3","1017.262","24.11","60.07","-2.025","0.0"],
    [1414067,"2026-05-28 19:50:00","51652","3.885","220.6","6.468","218","1017.332","24.04","60.28","-2.593","0.0"],
    [1414068,"2026-05-28 20:00:00","51653","4.404","222.0","6.501","216.7","1017.498","24.11","59.18","-2.5610000000000004","0.0"],
    [1414069,"2026-05-28 20:10:00","51654","3.7560000000000002","225.8","5.423","213.4","1017.659","24.02","59.5","-2.589","0.0"],
    [1414070,"2026-05-28 20:20:00","51655","2.977","224.5","5.292","220.6","1017.768","24.03","59.37","-2.6039999999999996","0.0"],
    [1414071,"2026-05-28 20:30:00","51656","2.562","225.1","3.757","229.5","1017.9110000000001","23.99","59.7","-2.608","0.0"],
    [1414072,"2026-05-28 20:40:00","51657","2.443","226.0","4.214","223.2","1018.01","23.85","61.34","-2.623","0.0"],
    [1414073,"2026-05-28 20:50:00","51658","1.8619999999999999","227.3","2.646","230.2","1018.112","23.76","61.76","-2.633","0.0"],
    [1414074,"2026-05-28 21:00:00","51659","1.726","233.9","3.103","261.3","1018.2510000000001","23.59","61.92","-2.6439999999999997","0.0"],
    [1414075,"2026-05-28 21:10:00","51660","2.613","226.8","4.181","210.6","1018.307","23.62","62.04","-2.653","0.0"],
    [1414076,"2026-05-28 21:20:00","51661","2.685","225.6","4.541","213.5","1018.3580000000001","23.72","62.14","-2.529","0.0"],
    [1414077,"2026-05-28 21:30:00","51662","2.359","229.0","3.887","223.8","1018.404","23.65","62.49","-1.895","0.0"],
    [1414078,"2026-05-28 21:40:00","51663","2.267","230.6","3.789","235.1","1018.434","23.76","62.46","-1.212","0.0"],
    [1414079,"2026-05-28 21:50:00","51664","2.546","227.4","4.214","216.6","1018.433","23.81","62.59","-1.155","0.0"],
    [1414080,"2026-05-28 22:00:00","51665","3.24","220.2","4.443","213","1018.3810000000001","23.86","63.03","-1.161","0.0"],
    [1414081,"2026-05-28 22:10:00","51666","2.5469999999999997","225.2","4.149","226.6","1018.337","23.81","63.86","-1.176","0.0"],
    [1414082,"2026-05-28 22:20:00","51667","2.227","223.4","3.365","235.6","1018.3439999999999","23.72","64.98","-1.7009999999999998","0.0"],
    [1414083,"2026-05-28 22:30:00","51668","1.696","232.0","2.679","265.8","1018.305","23.66","65.81","-1.883","0.0"],
    [1414084,"2026-05-28 22:40:00","51669","2.017","231.1","3.561","257.6","1018.2710000000001","23.47","66.67","-1.8940000000000001","0.0"],
    [1414085,"2026-05-28 22:50:00","51670","2.452","228.9","3.855","238.6","1018.206","23.49","66.62","-1.3980000000000001","0.0"],
    [1414086,"2026-05-28 23:00:00","51671","2.06","228.3","3.43","230.6","1018.13","23.5","66.98","-1.412","0.0"],
    [1414087,"2026-05-28 23:10:00","51672","2.662","227.3","4.247","228.7","1017.9989999999999","23.47","67.04","-1.906","0.0"],
    [1414088,"2026-05-28 23:20:00","51673","2.2840000000000003","230.9","3.953","223.3","1017.903","23.3","68.24","-2.069","0.0"],
    [1414089,"2026-05-28 23:30:00","51674","1.611","229.7","3.071","221.4","1017.925","23.07","69.4","-2.657","0.0"],
    [1414090,"2026-05-28 23:40:00","51675","1.739","230.1","2.973","248.2","1017.8639999999999","22.98","68.47","-2.658","0.0"],
    [1414091,"2026-05-28 23:50:00","51676","1.804","226.5","3.136","249","1017.7669999999999","23.03","66.59","-2.657","0.0"],
    [1414092,"2026-05-29 00:00:00","51677","1.995","230.2","3.299","239.9","1017.703","23.05","65.82","-2.656","0.0"],
    [1414093,"2026-05-29 00:10:00","51678","1.2819999999999998","239.2","2.711","248.8","1017.561","22.9","66.54","-2.661","0.0"],
    [1414094,"2026-05-29 00:20:00","51679","1.6030000000000002","238.5","3.365","241.5","1017.602","22.87","66.37","-2.707","0.0"],
    [1414095,"2026-05-29 00:30:00","51680","2.329","227.8","3.234","243.5","1017.554","22.95","64.32","-2.657","0.0"],
    [1414096,"2026-05-29 00:40:00","51681","2.3609999999999998","228.4","3.299","259.7","1017.5060000000001","23.24","60.89","-2.656","0.0"],
    [1414097,"2026-05-29 00:50:00","51682","2.273","227.3","3.201","222.2","1017.368","23.09","61.87","-2.657","0.0"],
    [1414098,"2026-05-29 01:00:00","51683","1.99","224.6","2.711","201.9","1017.313","22.9","61.03","-2.656","0.0"],
    [1414099,"2026-05-29 01:10:00","51684","1.709","227.5","2.646","234.6","1017.297","22.9","57.86","-2.657","0.0"],
    [1414100,"2026-05-29 01:20:00","51685","1.597","238.9","3.005","235.8","1017.2589999999999","23.02","52.17","-2.66","0.0"],
    [1414101,"2026-05-29 01:30:00","51686","1.1","247.4","2.679","284","1017.189","23.15","49.78","-2.659","0.0"],
    [1414102,"2026-05-29 01:40:00","51687","1.2590000000000001","253.5","2.319","275.7","1017.066","23.09","49.44","-2.685","0.0"],
    [1414103,"2026-05-29 01:50:00","51688","1.3969999999999998","259.0","3.038","266","1017.0060000000001","22.93","49.96","-2.658","0.0"],
    [1414104,"2026-05-29 02:00:00","51689","1.767","262.2","3.005","257.1","1016.918","22.81","50.93","-2.66","0.0"],
    [1414105,"2026-05-29 02:10:00","51690","1.776","266.3","2.94","252.2","1016.872","22.66","51.85","-2.659","0.0"],
    [1414106,"2026-05-29 02:20:00","51691","1.402","284.5","2.613","283.5","1016.875","22.33","52.71","-2.661","0.0"],
    [1414107,"2026-05-29 02:30:00","51692","1.207","284.6","2.254","300.3","1016.903","22.15","53.09","-2.6639999999999997","0.0"],
    [1414108,"2026-05-29 02:40:00","51693","1.052","287.2","2.025","274.9","1016.961","22.14","52.87","-2.661","0.0"],
    [1414109,"2026-05-29 02:50:00","51694","0.855","284.0","2.254","282.7","1017.0189999999999","22.54","51.4","-2.661","0.0"],
    [1414110,"2026-05-29 03:00:00","51695","0.611","278.5","1.535","307.5","1017.028","22.63","51.47","-2.66","0.0"],
    [1414111,"2026-05-29 03:10:00","51696","0.6","287.6","1.993","309.5","1017.0260000000001","22.38","52.81","-2.66","0.0"],
    [1414112,"2026-05-29 03:20:00","51697","0.861","288.5","1.927","280.3","1016.9860000000001","22.25","53.44","-2.66","0.0"],
    [1414113,"2026-05-29 03:30:00","51698","1.4469999999999998","303.9","3.757","302.7","1017.065","22.3","53.5","-2.668","0.0"],
    [1414114,"2026-05-29 03:40:00","51699","1.785","305.9","2.777","301.9","1017.1039999999999","22.65","51.94","-2.66","0.0"],
    [1414115,"2026-05-29 03:50:00","51700","1.198","293.0","2.319","298.1","1017.1160000000001","22.75","51.74","-2.638","0.0"],
    [1414116,"2026-05-29 04:00:00","51701","1.5130000000000001","285.5","2.679","282.3","1017.102","22.85","51.68","-2.66","0.0"],
    [1414117,"2026-05-29 04:10:00","51702","1.355","276.1","2.581","271.6","1017.0989999999999","22.81","52.1","-2.167","0.0"],
    [1414118,"2026-05-29 04:20:00","51703","0.73","283.0","1.535","278.1","1017.1289999999999","22.5","53.27","-0.495","0.0"],
    [1414119,"2026-05-29 04:30:00","51704","1.494","278.5","2.417","266","1017.2","22.56","53.31","3.1660000000000004","0.0"],
    [1414120,"2026-05-29 04:40:00","51705","0.888","285.3","1.699","283","1017.2489999999999","22.39","53.89","10.12","0.0"],
    [1414121,"2026-05-29 04:50:00","51706","0.937","306.4","1.797","323.3","1017.3389999999999","22.38","54.16","22.57","0.0"],
    [1414122,"2026-05-29 05:00:00","51707","1.215","345.4","2.189","346.3","1017.4960000000001","22.79","53.03","38.84","0.0"],
    [1414123,"2026-05-29 05:10:00","51708","0.769","15.55","1.339","5.424","1017.669","23.25","52.08","62.3","0.0"],
    [1414124,"2026-05-29 05:20:00","51709","1.1179999999999999","75.52","1.993","94.2","1017.7560000000001","23.72","51.42","95.0","0.0"],
    [1414125,"2026-05-29 05:30:00","51710","1.2309999999999999","90.4","2.025","89.9","1017.841","23.99","50.66","102.2","0.0"],
    [1414126,"2026-05-29 05:40:00","51711","0.419","42.16","1.372","68.52","1017.937","24.11","51.13","114.4","0.0"],
    [1414127,"2026-05-29 05:50:00","51712","0.035","71.23","0.555","72.84","1018.06","24.78","49.52","125.7","0.0"],
    [1414128,"2026-05-29 06:00:00","51713","0.256","307.8","1.274","305.4","1018.1489999999999","25.36","47.11","148.4","0.0"],
    [1414129,"2026-05-29 06:10:00","51714","1.304","280.4","2.287","285.2","1018.154","25.04","48.73","177.7","0.0"],
    [1414130,"2026-05-29 06:20:00","51715","1.474","293.6","1.96","287.2","1018.204","25.1","48.22","209.6","0.0"],
    [1414131,"2026-05-29 06:30:00","51716","1.329","294.3","1.862","307.2","1018.302","25.36","47.87","241.0","0.0"],
    [1414132,"2026-05-29 06:40:00","51717","1.102","297.0","1.829","318.8","1018.365","25.69","46.27","275.8","0.0"],
    [1414133,"2026-05-29 06:50:00","51718","0.735","292.8","1.503","284","1018.423","26.2","44.82","309.6","0.0"],
    [1414134,"2026-05-29 07:00:00","51719","0.645","293.1","1.437","276.3","1018.561","26.97","42.79","340.9","0.0"],
    [1414135,"2026-05-29 07:10:00","51720","0.23199999999999998","27.45","1.437","81.2","1018.703","27.97","40.58","377.3","0.0"],
    [1414136,"2026-05-29 07:20:00","51721","1.5630000000000002","84.0","2.123","83.6","1018.796","27.51","41.85","411.4","0.0"],
    [1414137,"2026-05-29 07:30:00","51722","0.784","75.41","1.535","59.13","1018.935","27.75","40.65","445.4","0.0"],
    [1414138,"2026-05-29 07:40:00","51723","1.252","77.0","2.254","79.27","1019.087","28.4","38.51","478.9","0.0"],
    [1414139,"2026-05-29 07:50:00","51724","1.087","90.1","2.058","78.35","1019.163","28.62","37.66","512.7","0.0"],
    [1414140,"2026-05-29 08:00:00","51725","1.0590000000000002","138.7","2.156","128.7","1019.2280000000001","28.79","40.94","544.6","0.0"],
    [1414141,"2026-05-29 08:10:00","51726","1.169","164.9","3.071","141.9","1019.2860000000001","27.96","45.28","575.8","0.0"],
    [1414142,"2026-05-29 08:20:00","51727","1.4240000000000002","161.7","2.613","163.7","1019.3489999999999","27.42","49.85","609.4","0.0"],
    [1414143,"2026-05-29 08:30:00","51728","0.73","82.4","2.287","70.94","1019.415","28.15","46.88","602.9","0.0"],
    [1414144,"2026-05-29 08:40:00","51729","1.222","84.6","3.267","91.2","1019.495","28.79","43.28","668.1","0.0"],
    [1414145,"2026-05-29 08:50:00","51730","0.86","101.4","1.862","99.7","1019.5039999999999","28.43","43.19","659.8","0.0"],
    [1414146,"2026-05-29 09:00:00","51731","1.489","175.0","2.385","206.7","1019.4689999999999","28.15","50.99","722.2","0.0"],
    [1414147,"2026-05-29 09:10:00","51732","1.212","143.2","2.875","187.7","1019.56","27.81","49.95","738.1","0.0"],
    [1414148,"2026-05-29 09:20:00","51733","0.716","117.5","2.058","110.3","1019.69","28.6","48.59","734.5","0.0"],
    [1414149,"2026-05-29 09:30:00","51734","0.797","158.3","1.927","159.3","1019.743","28.69","47.04","791.7","0.0"],
    [1414150,"2026-05-29 09:40:00","51735","1.4909999999999999","139.4","2.744","168.6","1019.7739999999999","28.73","46.97","810.0","0.0"],
    [1414151,"2026-05-29 09:50:00","51736","1.6380000000000001","169.1","3.038","180.6","1019.863","27.76","50.02","838.0","0.0"],
    [1414152,"2026-05-29 10:00:00","51737","2.04","184.5","3.299","164.6","1019.837","28.27","48.59","856.0","0.0"],
    [1414153,"2026-05-29 10:10:00","51738","2.113","174.8","3.136","165.6","1019.77","28.03","47.55","873.0","0.0"],
    [1414154,"2026-05-29 10:20:00","51739","2.074","176.1","3.136","145.6","1019.753","28.14","46.89","885.0","0.0"],
    [1414155,"2026-05-29 10:30:00","51740","2.066","177.9","3.561","162.3","1019.717","28.37","46.62","890.0","0.0"],
    [1414156,"2026-05-29 10:40:00","51741","2.121","170.0","3.593","186.2","1019.69","28.74","44.96","909.0","0.0"],
    [1414157,"2026-05-29 10:50:00","51742","2.5","171.4","3.953","172.1","1019.689","28.42","46.69","919.0","0.0"],
    [1414158,"2026-05-29 11:00:00","51743","2.333","179.1","3.887","185.5","1019.61","28.6","46.5","925.0","0.0"],
    [1414159,"2026-05-29 11:10:00","51744","2.728","170.8","4.443","169.3","1019.525","28.27","46.65","930.0","0.0"],
    [1414160,"2026-05-29 11:20:00","51745","2.366","174.0","3.495","177.6","1019.4780000000001","28.59","46.42","934.0","0.0"],
    [1414161,"2026-05-29 11:30:00","51746","2.505","175.8","3.855","177","1019.4860000000001","28.45","47.08","938.0","0.0"],
    [1414162,"2026-05-29 11:40:00","51747","2.57","185.4","4.835","186.2","1019.477","28.42","47.77","940.0","0.0"],
    [1414163,"2026-05-29 11:50:00","51748","2.9010000000000002","178.3","4.508","166","1019.529","28.03","47.08","941.0","0.0"],
    [1414164,"2026-05-29 12:00:00","51749","2.8960000000000004","178.4","4.41","180.5","1019.534","28.29","46.38","940.0","0.0"],
    [1414165,"2026-05-29 12:10:00","51750","3.155","179.2","4.475","184","1019.53","28.12","47.73","939.0","0.0"],
    [1414166,"2026-05-29 12:20:00","51751","3.155","181.2","4.802","179.4","1019.508","27.94","48.59","935.0","0.0"],
    [1414167,"2026-05-29 12:30:00","51752","2.73","208.1","4.443","230.6","1019.5269999999999","28.45","50.53","930.0","0.0"],
    [1414168,"2026-05-29 12:40:00","51753","2.9139999999999997","203.7","4.639","230.4","1019.5110000000001","28.83","49.93","922.0","0.0"],
    [1414169,"2026-05-29 12:50:00","51754","2.677","192.1","4.149","185","1019.492","28.64","49.56","914.0","0.0"],
    [1414170,"2026-05-29 13:00:00","51755","2.449","190.1","3.92","174.7","1019.5189999999999","28.61","51.08","904.0","0.0"],
    [1414171,"2026-05-29 13:10:00","51756","2.785","173.9","3.92","201.5","1019.508","28.01","51.05","895.0","0.0"],
    [1414172,"2026-05-29 13:20:00","51757","2.512","169.3","3.561","165.7","1019.546","27.92","51.51","881.0","0.0"],
    [1414173,"2026-05-29 13:30:00","51758","2.184","155.7","4.018","177.7","1019.6160000000001","27.82","53.17","867.0","0.0"],
    [1414174,"2026-05-29 13:40:00","51759","2.7110000000000003","99.1","6.076","87.6","1019.687","27.87","55.29","854.0","0.0"],
    [1414175,"2026-05-29 13:50:00","51760","4.857","77.13","6.566","74.8","1019.7769999999999","26.11","70.75","839.0","0.0"],
    [1414176,"2026-05-29 14:00:00","51761","5.138999999999999","71.2","6.566","92.4","1019.742","25.79","72.05","822.0","0.0"],
    [1414177,"2026-05-29 14:10:00","51762","4.819","69.93","6.37","52.74","1019.7510000000001","25.78","73.16","802.0","0.0"],
    [1414178,"2026-05-29 14:20:00","51763","4.645","72.25","6.207","62.76","1019.7439999999999","25.82","73.48","781.3","0.0"],
    [1414179,"2026-05-29 14:30:00","51764","4.953","66.46","6.305","70.12","1019.73","25.97","72.99","758.6","0.0"],
    [1414180,"2026-05-29 14:40:00","51765","5.156000000000001","73.37","6.697","79.15","1019.694","25.47","74.82","736.7","0.0"],
    [1414181,"2026-05-29 14:50:00","51766","5.492000000000001","68.56","7.383","78.03","1019.6360000000001","25.5","73.64","715.0","0.0"],
    [1414182,"2026-05-29 15:00:00","51767","5.91","68.6","7.905","64.47","1019.655","24.98","74.68","691.3","0.0"],
    [1414183,"2026-05-29 15:10:00","51768","5.722","67.55","7.415","67.05","1019.6389999999999","24.89","75.51","661.8","0.0"],
    [1414184,"2026-05-29 15:20:00","51769","5.482","68.25","7.154","61.04","1019.618","24.6","76.04","633.7","0.0"],
    [1414185,"2026-05-29 15:30:00","51770","5.06","65.65","6.599","70.28","1019.632","24.71","75.27","580.6","0.0"],
    [1414186,"2026-05-29 15:40:00","51771","4.87","67.52","6.174","63.58","1019.6030000000001","24.28","76.61","593.6","0.0"],
    [1414187,"2026-05-29 15:50:00","51772","4.712","69.19","6.043","73.5","1019.6310000000001","24.3","76.42","449.7","0.0"],
    [1414188,"2026-05-29 16:00:00","51773","4.735","70.96","6.141","70.17","1019.671","23.77","78.47","337.6","0.0"],
    [1414189,"2026-05-29 16:10:00","51774","4.106","66.84","5.553","66.41","1019.612","23.95","77.05","304.8","0.0"],
    [1414190,"2026-05-29 16:20:00","51775","3.5980000000000003","69.52","4.573","79.37","1019.549","23.75","78.26","255.0","0.0"],
    [1414191,"2026-05-29 16:30:00","51776","2.9539999999999997","73.31","3.953","77","1019.5419999999999","23.5","78.81","251.7","0.0"],
    [1414192,"2026-05-29 16:40:00","51777","2.242","76.79","4.051","56.64","1019.46","23.29","79.08","214.3","0.0"],
    [1414193,"2026-05-29 16:50:00","51778","1.781","72.42","2.679","59.4","1019.3919999999999","22.96","81.5","171.9","0.0"],
    [1414194,"2026-05-29 17:00:00","51779","1.6840000000000002","77.27","2.548","84.3","1019.444","22.95","81.4","148.9","0.0"],
    [1414195,"2026-05-29 17:10:00","51780","2.2","65.32","3.038","62.16","1019.4789999999999","23.02","80.1","126.5","0.0"],
    [1414196,"2026-05-29 17:20:00","51781","2.3480000000000003","78.07","3.593","76.45","1019.5310000000001","22.94","80.2","102.8","0.0"],
    [1414197,"2026-05-29 17:30:00","51782","2.477","75.27","3.593","82.6","1019.421","22.95","80.8","81.3","0.0"],
    [1414198,"2026-05-29 17:40:00","51783","2.505","72.17","3.528","67.16","1019.443","22.79","81.3","71.8","0.0"],
    [1414199,"2026-05-29 17:50:00","51784","2.825","72.7","4.149","82","1019.5060000000001","22.77","81.7","69.1","0.0"],
    [1414200,"2026-05-29 18:00:00","51785","2.36","58.91","3.953","60.38","1019.596","22.7","82.7","65.52","0.0"],
    [1414201,"2026-05-29 18:10:00","51786","2.562","54.16","3.789","44.65","1019.709","22.59","82.9","58.51","0.0"],
    [1414202,"2026-05-29 18:20:00","51787","2.884","61.52","4.312","62","1019.7489999999999","22.73","81.9","48.96","0.0"],
    [1414203,"2026-05-29 18:30:00","51788","3.068","67.73","4.181","73.67","1019.72","22.63","82.1","38.19","0.0"],
    [1414204,"2026-05-29 18:40:00","51789","2.867","65.44","3.855","65.74","1019.71","22.44","83.0","33.92","0.0"],
    [1414205,"2026-05-29 18:50:00","51790","2.7739999999999996","64.06","3.691","60.75","1019.7589999999999","22.39","83.1","25.95","0.0"],
    [1414206,"2026-05-29 19:00:00","51791","2.6719999999999997","65.53","3.43","55.77","1019.812","22.29","83.7","11.2","0.0"],
    [1414207,"2026-05-29 19:10:00","51792","3.1180000000000003","68.36","4.247","56.22","1019.721","22.29","83.6","4.823","0.0"],
    [1414208,"2026-05-29 19:20:00","51793","2.5989999999999998","53.99","3.92","54.44","1019.8489999999999","22.06","85.0","0.9259999999999999","0.0"],
    [1414209,"2026-05-29 19:30:00","51794","2.101","55.76","3.561","50.96","1019.945","22.05","84.9","-1.218","0.0"],
    [1414210,"2026-05-29 19:40:00","51795","2.315","65.26","3.365","68.71","1019.898","21.99","85.0","-1.9569999999999999","0.0"],
    [1414211,"2026-05-29 19:50:00","51796","2.3080000000000003","66.99","3.332","49.93","1019.933","21.95","85.4","-2.102","0.0"],
    [1414212,"2026-05-29 20:00:00","51797","2.721","59.57","4.083","69.18","1020.097","21.87","86.1","-1.9909999999999999","0.0"],
    [1414213,"2026-05-29 20:10:00","51798","2.221","56.3","3.626","45.33","1020.2489999999999","21.83","86.6","-1.99","0.0"],
    [1414214,"2026-05-29 20:20:00","51799","2.636","61.9","3.757","59.25","1020.3580000000001","21.88","86.4","-1.9780000000000002","0.0"],
    [1414215,"2026-05-29 20:30:00","51800","2.549","63.68","3.626","55.15","1020.5110000000001","21.92","86.2","-1.919","0.0"],
    [1414216,"2026-05-29 20:40:00","51801","2.509","57.05","3.691","54.11","1020.637","21.93","86.1","-1.794","0.0"],
    [1414217,"2026-05-29 20:50:00","51802","2.419","62.79","3.593","71.07","1020.6419999999999","21.98","85.7","-1.797","0.0"],
    [1414218,"2026-05-29 21:00:00","51803","2.302","70.73","3.103","59.95","1020.6010000000001","21.94","86.3","-1.835","0.0"],
    [1414219,"2026-05-29 21:10:00","51804","2.129","62.27","2.842","69.73","1020.6560000000001","21.91","86.8","-1.874","0.0"],
    [1414220,"2026-05-29 21:20:00","51805","1.6159999999999999","63.3","2.319","66.69","1020.6080000000001","21.86","87.2","-1.871","0.0"],
    [1414221,"2026-05-29 21:30:00","51806","1.4509999999999998","55.68","2.287","61.9","1020.543","21.82","87.5","-1.903","0.0"],
    [1414222,"2026-05-29 21:40:00","51807","1.6869999999999998","57.82","2.385","59.04","1020.565","21.78","87.7","-1.9169999999999998","0.0"],
    [1414223,"2026-05-29 21:50:00","51808","1.159","51.49","2.123","45.17","1020.471","21.87","87.0","-1.9","0.0"],
    [1414224,"2026-05-29 22:00:00","51809","0.672","29.49","1.797","15.82","1020.3860000000001","21.92","85.9","-1.876","0.0"],
    [1414225,"2026-05-29 22:10:00","51810","1.2919999999999998","36.54","1.862","29.67","1020.337","22.0","83.2","-1.984","0.0"],
    [1414226,"2026-05-29 22:20:00","51811","0.621","55.34","1.731","44.65","1020.215","22.22","80.9","-2.41","0.0"],
    [1414227,"2026-05-29 22:30:00","51812","0.716","104.3","1.372","100.1","1020.0210000000001","22.08","78.46","-2.658","0.0"],
    [1414228,"2026-05-29 22:40:00","51813","0.805","90.6","1.535","90","1020.0369999999999","22.23","76.95","-2.5839999999999996","0.0"],
    [1414229,"2026-05-29 22:50:00","51814","0.73","95.6","1.437","96","1019.965","22.17","79.33","-2.658","0.0"],
    [1414230,"2026-05-29 23:00:00","51815","1.089","92.4","1.797","92","1019.8889999999999","22.11","79.4","-2.659","0.0"],
    [1414231,"2026-05-29 23:10:00","51816","1.26","90.5","1.993","76.15","1019.7719999999999","22.05","79.58","-2.659","0.0"],
    [1414232,"2026-05-29 23:20:00","51817","1.334","97.1","2.025","97.1","1019.63","21.98","80.2","-2.66","0.0"],
    [1414233,"2026-05-29 23:30:00","51818","1.305","93.7","2.156","93.7","1019.585","22.06","79.94","-2.66","0.0"],
    [1414234,"2026-05-29 23:40:00","51819","1.371","84.6","1.96","81.4","1019.6160000000001","21.89","83.1","-2.66","0.0"],
    [1414235,"2026-05-29 23:50:00","51820","1.012","82.1","1.339","83.9","1019.675","21.61","86.1","-2.66","0.0"],
    [1414236,"2026-05-30 00:00:00","51821","1.095","83.9","1.568","79.2","1019.696","21.46","87.7","-2.66","0.0"],
    [1414237,"2026-05-30 00:10:00","51822","0.245","87.4","1.078","81.2","1019.677","21.3","88.5","-2.66","0.0"],
    [1414238,"2026-05-30 00:20:00","51823","0.8490000000000001","70.65","1.143","69.55","1019.585","21.22","89.4","-2.66","0.0"],
    [1414239,"2026-05-30 00:30:00","51824","0.386","70.01","0.915","67.9","1019.44","21.18","89.4","-2.66","0.0"],
    [1414240,"2026-05-30 00:40:00","51825","0.376","82.0","1.013","85.2","1019.252","21.21","89.4","-2.66","0.0"],
    [1414241,"2026-05-30 00:50:00","51826","1.031","78.85","1.633","77.97","1019.185","21.24","88.9","-2.66","0.0"],
    [1414242,"2026-05-30 01:00:00","51827","1.171","74.24","1.535","70.55","1019.155","21.26","89.1","-2.659","0.0"],
    [1414243,"2026-05-30 01:10:00","51828","0.28600000000000003","78.41","0.653","75.78","1019.095","21.16","89.8","-2.659","0.0"],
    [1414244,"2026-05-30 01:20:00","51829","0.0","0.0","0","0","1019.0939999999999","21.13","90.4","-2.66","0.0"],
    [1414245,"2026-05-30 01:30:00","51830","0.507","103.0","1.209","109.8","1019.067","21.21","90.7","-2.66","0.0"],
    [1414246,"2026-05-30 01:40:00","51831","0.387","108.2","0.947","98.7","1019.091","21.21","90.9","-2.521","0.0"],
    [1414247,"2026-05-30 01:50:00","51832","0.359","95.5","1.078","89.5","1019.0369999999999","21.14","91.2","-2.627","0.0"],
    [1414248,"2026-05-30 02:00:00","51833","0.341","88.0","1.078","89.5","1018.997","20.93","91.5","-2.535","0.0"],
    [1414249,"2026-05-30 02:10:00","51834","0.001","87.6","0.065","87.6","1019.005","20.85","92.0","-2.545","0.0"],
    [1414250,"2026-05-30 02:20:00","51835","0.0","0.0","0","0","1019.034","20.89","92.5","-2.318","0.0"],
    [1414251,"2026-05-30 02:30:00","51836","0.0","0.0","0","0","1019.065","20.78","92.5","-2.112","0.0"],
    [1414252,"2026-05-30 02:40:00","51837","0.0","87.8","0.033","87.8","1019.0880000000001","20.46","92.0","-2.168","0.0"],
    [1414253,"2026-05-30 02:50:00","51838","0.045","180.6","0.457","190.8","1019.117","20.43","91.5","-2.557","0.0"],
    [1414254,"2026-05-30 03:00:00","51839","0.122","205.9","0.653","226.1","1019.04","20.58","89.9","-2.7739999999999996","0.0"],
    [1414255,"2026-05-30 03:10:00","51840","0.6759999999999999","247.9","0.98","243.5","1018.941","20.79","88.5","-2.782","0.0"],
    [1414256,"2026-05-30 03:20:00","51841","0.395","237.9","0.947","241.9","1018.875","20.89","87.4","-2.8","0.0"],
    [1414257,"2026-05-30 03:30:00","51842","0.609","244.0","1.078","257.9","1018.831","20.92","84.8","-3.4139999999999997","0.0"],
    [1414258,"2026-05-30 03:40:00","51843","0.657","238.4","1.078","237.8","1018.8480000000001","21.08","82.0","-3.659","0.0"],
    [1414259,"2026-05-30 03:50:00","51844","0.0","0.0","0","0","1018.85","21.07","81.7","-3.438","0.0"],
    [1414260,"2026-05-30 04:00:00","51845","0.424","149.3","1.045","155.9","1018.8510000000001","21.14","81.8","-3.062","0.0"],
    [1414261,"2026-05-30 04:10:00","51846","0.184","134.0","0.817","136.5","1018.791","21.16","82.2","-2.439","0.0"],
    [1414262,"2026-05-30 04:20:00","51847","0.271","129.7","1.372","124.3","1018.842","20.98","84.0","-0.767","0.0"],
    [1414263,"2026-05-30 04:30:00","51848","0.10300000000000001","138.4","0.555","135.8","1018.8539999999999","21.01","85.7","3.355","0.0"],
    [1414264,"2026-05-30 04:40:00","51849","0.0","143.9","0.065","143.9","1018.799","20.72","86.8","9.69","0.0"],
    [1414265,"2026-05-30 04:50:00","51850","0.0","0.0","0","0","1018.811","20.8","88.1","19.9","0.0"],
    [1414266,"2026-05-30 05:00:00","51851","0.266","100.3","1.372","92","1018.868","21.1","89.7","32.04","0.0"],
    [1414267,"2026-05-30 05:10:00","51852","1.7269999999999999","76.43","2.058","67","1018.941","21.31","91.5","40.46","0.0"],
    [1414268,"2026-05-30 05:20:00","51853","1.655","68.42","2.156","66.37","1019.073","21.37","92.8","55.04","0.0"],
    [1414269,"2026-05-30 05:30:00","51854","1.5019999999999998","65.24","2.221","61.15","1019.14","21.53","93.3","74.28","0.0"],
    [1414270,"2026-05-30 05:40:00","51855","1.52","69.72","2.156","60.28","1019.2360000000001","21.65","93.3","92.1","0.0"],
    [1414271,"2026-05-30 05:50:00","51856","1.817","61.69","2.483","42.23","1019.253","21.77","92.3","120.4","0.0"],
    [1414272,"2026-05-30 06:00:00","51857","1.689","61.29","2.385","61.06","1019.273","21.8","87.8","143.9","0.0"],
    [1414273,"2026-05-30 06:10:00","51858","1.7269999999999999","57.46","2.45","55.73","1019.3439999999999","22.37","85.6","170.9","0.0"],
    [1414274,"2026-05-30 06:20:00","51859","1.6480000000000001","65.61","2.352","65.58","1019.336","22.5","85.1","201.1","0.0"],
    [1414275,"2026-05-30 06:30:00","51860","2.213","71.77","3.169","81.4","1019.302","22.56","83.8","234.0","0.0"],
    [1414276,"2026-05-30 06:40:00","51861","2.39","66.13","3.495","84.2","1019.4169999999999","22.65","84.1","262.8","0.0"],
    [1414277,"2026-05-30 06:50:00","51862","2.2230000000000003","48.76","3.005","51.6","1019.576","22.8","84.4","302.1","0.0"],
    [1414278,"2026-05-30 07:00:00","51863","2.4090000000000003","51.0","3.691","61.89","1019.6669999999999","22.7","84.9","331.2","0.0"],
    [1414279,"2026-05-30 07:10:00","51864","2.392","45.18","3.365","48.51","1019.752","22.87","82.9","376.1","0.0"],
    [1414280,"2026-05-30 07:20:00","51865","2.362","66.18","3.495","67.47","1019.791","22.98","82.4","402.1","0.0"],
    [1414281,"2026-05-30 07:30:00","51866","2.296","80.1","3.267","79.44","1019.815","22.97","82.2","437.7","0.0"],
    [1414282,"2026-05-30 07:40:00","51867","2.8680000000000003","73.43","3.495","69.41","1019.904","23.05","81.3","476.6","0.0"],
    [1414283,"2026-05-30 08:00:00","51868","2.8089999999999997","69.23","3.822","65.28","1020.0260000000001","23.25","81.7","543.9","0.0"],
    [1414284,"2026-05-30 08:10:00","51869","2.7889999999999997","85.8","3.691","92.6","1019.9810000000001","23.36","80.3","576.0","0.0"],
    [1414285,"2026-05-30 08:20:00","51870","3.239","83.0","4.149","63","1019.946","23.26","80.0","608.6","0.0"],
    [1414286,"2026-05-30 08:30:00","51871","3.1839999999999997","86.3","4.149","89.3","1019.937","23.22","79.92","608.6","0.0"],
    [1414287,"2026-05-30 08:40:00","51872","2.795","93.7","4.279","81.7","1019.998","23.55","79.46","669.5","0.0"],
    [1414288,"2026-05-30 08:50:00","51873","2.9410000000000003","93.9","4.149","87.1","1020.012","23.43","80.3","670.5","0.0"],
    [1414289,"2026-05-30 09:00:00","51874","3.128","88.7","4.802","85.7","1020.0160000000001","23.51","80.6","728.4","0.0"],
    [1414290,"2026-05-30 09:10:00","51875","3.182","90.7","4.704","86.8","1020.035","23.43","81.4","757.0","0.0"],
    [1414291,"2026-05-30 09:20:00","51876","3.185","96.6","4.835","76","1020.065","23.46","80.8","778.5","0.0"],
    [1414292,"2026-05-30 09:30:00","51877","3.6289999999999996","87.1","5.129","84.3","1020.072","23.54","79.35","790.3","0.0"],
    [1414293,"2026-05-30 09:40:00","51878","3.446","90.0","4.9","85.6","1020.073","23.64","76.71","817.0","0.0"],
    [1414294,"2026-05-30 09:50:00","51879","3.1069999999999998","91.2","4.867","83.5","1020.086","24.03","75.94","835.0","0.0"],
    [1414295,"2026-05-30 10:00:00","51880","2.9939999999999998","94.7","4.737","74.4","1020.082","24.22","74.93","865.0","0.0"],
    [1414296,"2026-05-30 10:10:00","51881","3.322","88.4","4.769","93.8","1020.084","24.13","75.36","876.0","0.0"],
    [1414297,"2026-05-30 10:20:00","51882","3.7260000000000004","82.1","4.9","78.66","1020.1010000000001","23.96","75.96","870.0","0.0"],
    [1414298,"2026-05-30 10:30:00","51883","3.391","86.2","4.704","77.5","1020.1010000000001","23.99","74.79","862.0","0.0"],
    [1414299,"2026-05-30 10:40:00","51884","3.2","95.6","4.475","81.4","1020.102","24.09","74.71","898.0","0.0"],
    [1414300,"2026-05-30 10:50:00","51885","3.397","98.3","5.096","90.3","1020.049","23.98","73.66","925.0","0.0"],
    [1414301,"2026-05-30 11:00:00","51886","3.265","99.9","4.41","101.2","1019.988","24.31","73.5","935.0","0.0"],
    [1414302,"2026-05-30 11:10:00","51887","2.911","95.4","4.475","94.5","1019.8789999999999","24.57","73.23","932.0","0.0"],
    [1414303,"2026-05-30 11:20:00","51888","3.002","94.5","4.541","89.9","1019.783","24.62","72.33","944.0","0.0"],
    [1414304,"2026-05-30 11:30:00","51889","3.622","96.2","5.096","105.3","1019.7189999999999","24.71","71.24","954.0","0.0"],
    [1414305,"2026-05-30 11:40:00","51890","3.13","94.9","4.345","90","1019.705","24.71","71.1","950.0","0.0"],
    [1414306,"2026-05-30 11:50:00","51891","3.4219999999999997","94.1","4.737","84.5","1019.7189999999999","24.57","71.61","961.0","0.0"],
    [1414307,"2026-05-30 12:00:00","51892","2.997","98.9","4.606","89.5","1019.6360000000001","24.34","72.83","960.0","0.0"],
    [1414308,"2026-05-30 12:10:00","51893","3.4960000000000004","91.7","4.965","84","1019.5169999999999","24.64","71.9","961.0","0.0"],
    [1414309,"2026-05-30 12:20:00","51894","3.678","85.6","5.259","79.42","1019.446","24.13","74.85","948.0","0.0"],
    [1414310,"2026-05-30 12:30:00","51895","3.511","89.4","5.586","88.3","1019.3530000000001","24.0","75.73","940.0","0.0"],
    [1414311,"2026-05-30 12:40:00","51896","3.054","96.7","4.802","88.4","1019.248","24.25","74.71","911.0","0.0"],
    [1414312,"2026-05-30 12:50:00","51897","3.049","95.2","5.063","79.73","1019.1610000000001","24.32","74.94","909.0","0.0"],
    [1414313,"2026-05-30 13:00:00","51898","3.327","87.0","4.769","65.17","1019.125","23.97","76.82","919.0","0.0"],
    [1414314,"2026-05-30 13:10:00","51899","3.332","89.3","5.684","82.2","1019.077","24.09","75.72","923.0","0.0"],
    [1414315,"2026-05-30 13:20:00","51900","3.483","82.9","4.867","81.5","1018.949","24.18","75.56","913.0","0.0"],
    [1414316,"2026-05-30 13:30:00","51901","3.0780000000000003","91.4","5.063","87.7","1018.846","24.39","74.66","902.0","0.0"],
    [1414317,"2026-05-30 13:40:00","51902","2.875","87.5","4.573","74.56","1018.852","24.59","73.77","888.0","0.0"],
    [1414318,"2026-05-30 13:50:00","51903","2.951","85.0","4.279","91.5","1018.828","24.61","73.33","876.0","0.0"],
    [1414319,"2026-05-30 14:00:00","51904","3.307","77.32","5.031","83.4","1018.768","24.43","73.95","867.0","0.0"],
    [1414320,"2026-05-30 14:10:00","51905","3.2760000000000002","86.7","4.671","85.6","1018.6519999999999","24.33","74.35","846.0","0.0"],
    [1414321,"2026-05-30 14:20:00","51906","3.0610000000000004","85.0","5.357","77.26","1018.637","24.45","73.33","845.0","0.0"],
    [1414322,"2026-05-30 14:30:00","51907","2.9789999999999996","89.7","4.606","86.1","1018.635","24.28","73.58","618.3","0.0"],
    [1414323,"2026-05-30 14:40:00","51908","2.8960000000000004","83.7","4.508","59.04","1018.689","24.26","74.13","630.0","0.0"],
    [1414324,"2026-05-30 14:50:00","51909","3.105","90.0","5.161","89","1018.6360000000001","24.49","73.22","613.3","0.0"],
    [1414325,"2026-05-30 15:00:00","51910","3.6719999999999997","76.67","4.769","79.87","1018.6189999999999","24.43","73.43","677.5","0.0"],
    [1414326,"2026-05-30 15:10:00","51911","3.641","70.36","4.867","82.6","1018.5989999999999","24.15","74.81","488.4","0.0"],
    [1414327,"2026-05-30 15:20:00","51912","3.3110000000000004","78.89","4.704","77.59","1018.602","24.01","74.86","293.2","0.0"],
    [1414328,"2026-05-30 15:30:00","51913","3.426","70.89","4.508","77.85","1018.633","23.78","75.76","282.4","0.0"],
    [1414329,"2026-05-30 15:40:00","51914","3.702","76.7","4.541","74.93","1018.563","23.78","75.58","301.5","0.0"],
    [1414330,"2026-05-30 15:50:00","51915","3.861","77.56","4.998","84.4","1018.472","23.77","76.07","312.9","0.0"],
    [1414331,"2026-05-30 16:00:00","51916","3.3760000000000003","69.36","4.41","65.57","1018.308","23.74","76.59","300.2","0.0"],
    [1414332,"2026-05-30 16:10:00","51917","3.3","80.1","4.345","80.2","1018.201","23.73","76.51","253.5","0.0"],
    [1414333,"2026-05-30 16:20:00","51918","2.753","73.03","4.051","87.1","1018.273","23.55","77.36","212.5","0.0"],
    [1414334,"2026-05-30 16:30:00","51919","2.559","78.78","3.463","69.72","1018.39","23.57","76.93","181.5","0.0"],
    [1414335,"2026-05-30 16:40:00","51920","2.4330000000000003","82.3","3.299","96.4","1018.216","23.39","78.14","166.5","0.0"],
    [1414336,"2026-05-30 16:50:00","51921","2.736","85.5","3.789","92.5","1018.035","23.35","78.27","156.7","0.0"],
    [1414337,"2026-05-30 17:00:00","51922","2.021","92.7","3.234","87.9","1018.0060000000001","23.37","77.74","141.8","0.0"],
    [1414338,"2026-05-30 17:10:00","51923","2.412","78.86","3.691","73.64","1018.086","23.39","76.6","129.1","0.0"],
    [1414339,"2026-05-30 17:20:00","51924","2.414","69.29","3.299","66.31","1018.159","23.37","77.09","122.6","0.0"],
    [1414340,"2026-05-30 17:30:00","51925","2.367","66.93","3.103","77.77","1018.184","23.28","77.15","108.7","0.0"],
    [1414341,"2026-05-30 17:40:00","51926","2.334","77.46","3.234","72.06","1018.195","23.33","76.45","96.5","0.0"],
    [1414342,"2026-05-30 17:50:00","51927","2.113","73.12","2.809","89.5","1018.199","23.12","76.58","83.1","0.0"],
    [1414343,"2026-05-30 18:00:00","51928","2.5","71.48","3.201","83","1018.2180000000001","23.22","76.24","68.34","0.0"],
    [1414344,"2026-05-30 18:10:00","51929","2.102","71.86","3.103","69.04","1018.34","23.06","77.25","52.68","0.0"],
    [1414345,"2026-05-30 18:20:00","51930","1.876","74.4","2.483","73.8","1018.383","23.05","77.23","40.43","0.0"],
    [1414346,"2026-05-30 18:30:00","51931","2.142","72.48","2.548","83.2","1018.4860000000001","22.99","77.06","32.27","0.0"],
    [1414347,"2026-05-30 18:40:00","51932","2.108","63.42","3.005","78.66","1018.681","23.01","77.33","27.21","0.0"],
    [1414348,"2026-05-30 18:50:00","51933","1.021","78.76","2.058","80.3","1018.7330000000001","22.94","77.31","19.41","0.0"],
    [1414349,"2026-05-30 19:00:00","51934","0.5710000000000001","78.61","1.209","63.99","1018.805","22.75","77.65","11.17","0.0"],
    [1414350,"2026-05-30 19:10:00","51935","0.098","121.1","0.849","125.3","1018.758","22.59","77.1","4.749","0.0"],
    [1414351,"2026-05-30 19:20:00","51936","0.114","62.32","0.621","63.24","1018.7860000000001","22.6","75.37","0.049","0.0"],
    [1414352,"2026-05-30 19:30:00","51937","0.593","89.5","1.503","71.84","1018.7180000000001","22.76","73.56","-1.669","0.0"],
    [1414353,"2026-05-30 19:40:00","51938","0.7120000000000001","115.7","1.535","109.8","1018.6439999999999","22.92","71.03","-2.301","0.0"],
    [1414354,"2026-05-30 19:50:00","51939","0.7440000000000001","155.0","1.731","175.4","1018.513","22.93","72.98","-2.653","0.0"],
    [1414355,"2026-05-30 20:00:00","51940","0.231","216.3","1.339","216.8","1018.567","22.89","74.18","-2.641","0.0"],
    [1414356,"2026-05-30 20:10:00","51941","0.261","182.1","0.915","183.2","1018.627","22.76","74.93","-2.658","0.0"],
    [1414357,"2026-05-30 20:20:00","51942","0.5770000000000001","167.7","1.568","154.5","1018.622","22.74","72.07","-2.659","0.0"],
    [1414358,"2026-05-30 20:30:00","51943","0.743","171.6","1.699","153.4","1018.6060000000001","22.92","71.43","-2.658","0.0"],
    [1414359,"2026-05-30 20:40:00","51944","1.091","176.5","2.254","184.9","1018.6339999999999","22.97","71.33","-2.67","0.0"],
    [1414360,"2026-05-30 20:50:00","51945","0.899","202.4","1.437","189.4","1018.7330000000001","22.88","71.48","-2.667","0.0"],
    [1414361,"2026-05-30 21:00:00","51946","1.094","204.7","1.927","194.2","1018.816","22.8","72.68","-2.678","0.0"],
    [1414362,"2026-05-30 21:10:00","51947","1.202","211.0","1.96","229.8","1018.8810000000001","22.8","76.66","-2.6639999999999997","0.0"],
    [1414363,"2026-05-30 21:20:00","51948","1.65","196.4","2.744","185","1018.829","22.53","79.61","-2.659","0.0"],
    [1414364,"2026-05-30 21:30:00","51949","1.34","183.8","2.189","180.9","1018.674","22.37","81.1","-2.659","0.0"],
    [1414365,"2026-05-30 21:40:00","51950","0.653","185.8","1.437","178.2","1018.69","22.24","82.1","-2.659","0.0"],
    [1414366,"2026-05-30 21:50:00","51951","0.653","204.0","1.339","221.6","1018.628","22.13","83.2","-2.668","0.0"],
    [1414367,"2026-05-30 22:00:00","51952","0.894","205.2","1.797","207.5","1018.525","22.18","83.7","-2.665","0.0"],
    [1414368,"2026-05-30 22:10:00","51953","0.695","186.0","1.307","178.5","1018.4910000000001","22.21","83.8","-2.6689999999999996","0.0"],
    [1414369,"2026-05-30 22:20:00","51954","0.426","228.5","1.111","238.2","1018.573","22.02","84.5","-2.678","0.0"],
    [1414370,"2026-05-30 22:30:00","51955","0.324","212.2","1.078","229.2","1018.595","21.82","85.4","-2.7319999999999998","0.0"],
    [1414371,"2026-05-30 22:40:00","51956","0.473","234.3","1.013","219.2","1018.555","21.84","85.8","-2.7","0.0"],
    [1414372,"2026-05-30 22:50:00","51957","0.20199999999999999","208.2","0.588","196.9","1018.462","21.87","85.9","-2.71","0.0"],
    [1414373,"2026-05-30 23:00:00","51958","0.177","240.4","0.98","238.6","1018.378","21.76","85.8","-2.6689999999999996","0.0"],
    [1414374,"2026-05-30 23:10:00","51959","0.541","240.4","0.947","244.5","1018.255","21.79","85.9","-2.66","0.0"],
    [1414375,"2026-05-30 23:20:00","51960","0.604","256.5","1.307","259.7","1018.2230000000001","21.65","85.6","-2.661","0.0"],
    [1414376,"2026-05-30 23:30:00","51961","0.8029999999999999","253.8","1.568","263.9","1018.198","21.48","86.1","-2.661","0.0"],
    [1414377,"2026-05-30 23:40:00","51962","0.601","256.4","1.209","262","1018.159","21.5","86.0","-2.66","0.0"],
    [1414378,"2026-05-30 23:50:00","51963","0.354","250.5","0.882","252.2","1017.997","21.53","85.7","-2.66","0.0"],
    [1414379,"2026-05-31 00:00:00","51964","0.185","248.0","0.719","248","1017.9110000000001","21.54","85.1","-2.66","0.0"],
    [1414380,"2026-05-31 00:10:00","51965","0.001","248.1","0.033","248.1","1017.803","21.34","85.4","-2.7039999999999997","0.0"],
    [1414381,"2026-05-31 00:20:00","51966","0.32899999999999996","251.2","1.372","253.8","1017.763","21.39","85.3","-2.665","0.0"],
    [1414382,"2026-05-31 00:30:00","51967","0.68","254.4","1.699","254.2","1017.727","21.3","84.7","-2.66","0.0"],
    [1414383,"2026-05-31 00:40:00","51968","0.293","252.4","0.882","261.7","1017.586","21.06","83.5","-2.6630000000000003","0.0"],
    [1414384,"2026-05-31 00:50:00","51969","1.021","261.6","1.993","243.9","1017.6160000000001","20.89","80.9","-2.68","0.0"],
    [1414385,"2026-05-31 01:00:00","51970","0.6409999999999999","251.1","1.47","248.5","1017.5219999999999","20.85","75.14","-2.659","0.0"],
    [1414386,"2026-05-31 01:10:00","51971","1.215","270.5","2.548","279.7","1017.4860000000001","20.79","71.42","-2.66","0.0"],
    [1414387,"2026-05-31 01:20:00","51972","1.088","266.9","1.862","268.2","1017.4889999999999","20.59","70.09","-2.6630000000000003","0.0"],
    [1414388,"2026-05-31 01:30:00","51973","0.998","257.7","1.927","274.7","1017.4889999999999","20.62","68.86","-2.661","0.0"],
    [1414389,"2026-05-31 01:40:00","51974","0.8590000000000001","244.6","1.307","237.2","1017.39","20.6","68.15","-2.66","0.0"],
    [1414390,"2026-05-31 01:50:00","51975","1.023","243.2","1.764","262.9","1017.43","20.6","67.74","-2.66","0.0"],
    [1414391,"2026-05-31 02:00:00","51976","1.084","244.8","1.764","261.7","1017.3710000000001","20.49","68.15","-2.66","0.0"],
    [1414392,"2026-05-31 02:10:00","51977","1.214","258.0","2.287","307.5","1017.357","20.36","68.85","-2.66","0.0"],
    [1414393,"2026-05-31 02:20:00","51978","1.454","268.8","2.613","257.5","1017.368","20.0","69.47","-2.66","0.0"],
    [1414394,"2026-05-31 02:30:00","51979","1.681","283.8","2.744","272.8","1017.2689999999999","19.68","69.46","-2.658","0.0"],
    [1414395,"2026-05-31 02:40:00","51980","1.386","270.1","2.417","281.3","1017.285","19.53","70.02","-2.66","0.0"],
    [1414396,"2026-05-31 02:50:00","51981","1.4280000000000002","278.5","3.201","284.2","1017.2639999999999","19.72","68.89","-2.6489999999999996","0.0"],
    [1414397,"2026-05-31 03:00:00","51982","1.369","276.7","2.679","259.5","1017.198","19.41","69.74","-2.673","0.0"],
    [1414398,"2026-05-31 03:10:00","51983","1.431","275.1","2.777","277.1","1017.225","19.79","67.29","-2.687","0.0"],
    [1414399,"2026-05-31 03:20:00","51984","1.629","272.7","3.005","278.2","1017.2189999999999","20.06","65.4","-2.625","0.0"],
    [1414400,"2026-05-31 03:30:00","51985","1.515","277.4","2.679","272.1","1017.19","19.88","65.99","-2.656","0.0"],
    [1414401,"2026-05-31 03:40:00","51986","1.6230000000000002","273.8","2.907","254.8","1017.198","19.87","65.76","-2.656","0.0"],
    [1414402,"2026-05-31 03:50:00","51987","1.412","272.9","2.907","277.8","1017.196","19.89","65.6","-2.639","0.0"],
    [1414403,"2026-05-31 04:00:00","51988","1.548","276.1","2.842","277.6","1017.1560000000001","19.76","65.99","-2.613","0.0"],
    [1414404,"2026-05-31 04:10:00","51989","1.493","280.8","2.777","257.3","1017.18","19.69","66.2","-1.771","0.0"],
    [1414405,"2026-05-31 04:20:00","51990","1.115","275.5","1.731","288.9","1017.317","19.36","67.62","-0.47100000000000003","0.0"],
    [1414406,"2026-05-31 04:30:00","51991","0.46299999999999997","266.6","1.307","245.9","1017.388","19.45","67.13","3.1489999999999996","0.0"],
    [1414407,"2026-05-31 04:40:00","51992","1.444","273.0","2.646","278.1","1017.503","19.38","67.64","10.0","0.0"],
    [1414408,"2026-05-31 04:50:00","51993","1.244","269.7","2.287","257.6","1017.6039999999999","19.43","67.41","21.78","0.0"],
    [1414409,"2026-05-31 05:00:00","51994","0.539","275.6","1.339","267","1017.6519999999999","19.47","67.46","35.72","0.0"],
    [1414410,"2026-05-31 05:10:00","51995","0.0","281.8","0.033","282.5","1017.712","19.77","66.46","50.62","0.0"],
    [1414411,"2026-05-31 05:20:00","51996","0.185","250.9","0.915","282.2","1017.915","20.26","65.24","63.26","0.0"],
    [1414412,"2026-05-31 05:30:00","51997","0.466","290.0","1.013","276.9","1018.01","20.64","64.27","75.8","0.0"],
    [1414413,"2026-05-31 05:40:00","51998","0.485","279.6","1.143","274.1","1018.0","20.95","64.5","93.4","0.0"],
    [1414414,"2026-05-31 05:50:00","51999","0.005","271.5","0.294","271.7","1017.9630000000001","21.35","63.93","118.9","0.0"],
    [1414415,"2026-05-31 06:00:00","52000","0.193","281.3","1.437","272.8","1018.068","21.77","63.77","146.6","0.0"],
    [1414416,"2026-05-31 06:10:00","52001","0.195","280.9","1.078","304.2","1018.1389999999999","22.36","63.48","176.0","0.0"],
    [1414417,"2026-05-31 06:20:00","52002","1.0070000000000001","26.27","2.711","57.74","1018.095","23.23","62.4","204.8","0.0"],
    [1414418,"2026-05-31 06:30:00","52003","1.93","48.56","2.777","59.97","1018.128","22.98","65.62","240.0","0.0"],
    [1414419,"2026-05-31 06:40:00","52004","1.5630000000000002","24.09","2.744","67.81","1018.196","23.08","65.23","272.3","0.0"],
    [1414420,"2026-05-31 06:50:00","52005","1.921","27.22","3.005","14.39","1018.14","23.28","64.51","307.6","0.0"],
    [1414421,"2026-05-31 07:00:00","52006","1.712","46.07","3.005","85.8","1018.1460000000001","23.56","65.11","344.0","0.0"],
    [1414422,"2026-05-31 07:10:00","52007","2.114","66.89","3.201","77.37","1018.212","23.81","65.67","379.6","0.0"],
    [1414423,"2026-05-31 07:20:00","52008","1.739","50.82","2.417","58.36","1018.321","23.72","67.25","415.1","0.0"],
    [1414424,"2026-05-31 07:30:00","52009","1.514","61.78","2.385","47.06","1018.377","24.05","66.55","447.5","0.0"],
    [1414425,"2026-05-31 07:40:00","52010","2.011","78.32","3.169","81","1018.4110000000001","24.26","66.4","471.8","0.0"],
    [1414426,"2026-05-31 07:50:00","52011","2.408","71.77","3.626","77.05","1018.3910000000001","24.24","65.68","517.9","0.0"],
    [1414427,"2026-05-31 08:00:00","52012","2.609","78.63","3.528","80.1","1018.3939999999999","24.25","66.96","553.1","0.0"],
    [1414428,"2026-05-31 08:10:00","52013","2.7710000000000004","81.7","3.855","87.5","1018.398","24.22","66.83","585.2","0.0"],
    [1414429,"2026-05-31 08:20:00","52014","2.7260000000000004","75.02","3.855","70.12","1018.4639999999999","24.29","67.02","614.9","0.0"],
    [1414430,"2026-05-31 08:30:00","52015","2.5180000000000002","82.9","4.051","61.71","1018.507","24.61","67.27","610.1","0.0"],
    [1414431,"2026-05-31 08:40:00","52016","2.738","75.62","4.312","84.4","1018.488","24.49","69.5","674.3","0.0"],
    [1414432,"2026-05-31 08:50:00","52017","3.0639999999999996","78.21","4.541","82.6","1018.452","24.28","72.18","672.6","0.0"],
    [1414433,"2026-05-31 09:00:00","52018","2.603","93.5","3.855","84.1","1018.447","24.44","72.77","728.7","0.0"],
    [1414434,"2026-05-31 09:10:00","52019","2.885","90.3","4.247","103.6","1018.452","24.3","72.93","753.0","0.0"],
    [1414435,"2026-05-31 09:20:00","52020","2.772","97.9","3.985","76.69","1018.471","24.46","73.18","772.1","0.0"],
    [1414436,"2026-05-31 09:30:00","52021","1.706","107.1","3.92","82.3","1018.4839999999999","24.67","73.0","789.7","0.0"],
    [1414437,"2026-05-31 09:40:00","52022","1.85","107.7","3.626","120.2","1018.4630000000001","25.07","71.71","810.0","0.0"],
    [1414438,"2026-05-31 09:50:00","52023","1.715","111.1","3.332","106.3","1018.457","25.23","71.55","827.0","0.0"],
    [1414439,"2026-05-31 10:00:00","52024","1.371","129.4","3.593","96.2","1018.482","25.15","72.73","845.0","0.0"],
    [1414440,"2026-05-31 10:10:00","52025","1.348","123.4","3.626","120.8","1018.472","25.44","71.95","865.0","0.0"],
    [1414441,"2026-05-31 10:20:00","52026","1.9140000000000001","103.6","3.953","94.3","1018.441","25.79","69.85","879.0","0.0"],
    [1414442,"2026-05-31 10:30:00","52027","2.231","104.2","4.508","91.2","1018.3710000000001","25.16","71.65","893.0","0.0"],
    [1414443,"2026-05-31 10:40:00","52028","2.452","112.3","3.985","119.8","1018.382","24.89","72.21","905.0","0.0"],
    [1414444,"2026-05-31 10:50:00","52029","2.477","108.0","4.377","123","1018.398","25.03","71.96","918.0","0.0"],
    [1414445,"2026-05-31 11:00:00","52030","1.578","113.6","3.855","80.6","1018.3910000000001","25.42","71.04","919.0","0.0"],
    [1414446,"2026-05-31 11:10:00","52031","1.6030000000000002","162.8","3.822","179.7","1018.378","25.75","66.58","928.0","0.0"],
    [1414447,"2026-05-31 11:20:00","52032","1.6219999999999999","137.1","3.789","162.2","1018.315","25.31","69.44","930.0","0.0"],
    [1414448,"2026-05-31 11:30:00","52033","2.151","154.4","5.357","195.1","1018.2280000000001","25.76","69.66","936.0","0.0"],
    [1414449,"2026-05-31 11:40:00","52034","1.7790000000000001","126.7","4.345","139.6","1018.117","25.53","69.79","937.0","0.0"],
    [1414450,"2026-05-31 11:50:00","52035","2.627","169.9","5.423","169.5","1018.045","25.12","71.59","944.0","0.0"],
    [1414451,"2026-05-31 12:00:00","52036","1.694","127.3","3.953","108.9","1017.9580000000001","25.86","70.1","938.0","0.0"],
    [1414452,"2026-05-31 12:10:00","52037","2.8110000000000004","174.9","5.063","193.9","1017.903","25.79","69.75","940.0","0.0"],
    [1414453,"2026-05-31 12:20:00","52038","2.459","148.5","5.325","175.5","1017.8610000000001","25.21","71.54","936.0","0.0"],
    [1414454,"2026-05-31 12:30:00","52039","2.153","144.9","4.769","184","1017.824","25.61","70.48","913.0","0.0"],
    [1414455,"2026-05-31 12:40:00","52040","1.705","145.8","4.965","185.8","1017.829","25.32","71.72","894.0","0.0"],
    [1414456,"2026-05-31 12:50:00","52041","1.469","160.1","3.43","163","1017.7230000000001","26.33","68.45","917.0","0.0"],
    [1414457,"2026-05-31 13:00:00","52042","2.633","204.1","6.109","238.8","1017.62","26.07","69.11","910.0","0.0"],
    [1414458,"2026-05-31 13:10:00","52043","2.864","175.2","5.619","173.8","1017.552","25.51","71.35","908.0","0.0"],
    [1414459,"2026-05-31 13:20:00","52044","2.738","182.7","5.161","170.4","1017.49","25.16","73.27","886.0","0.0"],
    [1414460,"2026-05-31 13:30:00","52045","2.318","204.5","4.083","230.4","1017.4730000000001","26.17","69.91","841.0","0.0"],
    [1414461,"2026-05-31 13:40:00","52046","2.818","189.7","5.717","177.2","1017.416","26.12","69.87","869.0","0.0"],
    [1414462,"2026-05-31 13:50:00","52047","2.7880000000000003","180.8","5.031","204.5","1017.33","25.69","71.47","865.0","0.0"],
    [1414463,"2026-05-31 14:00:00","52048","2.513","182.1","4.867","182.5","1017.4169999999999","25.79","71.02","856.0","0.0"],
    [1414464,"2026-05-31 14:10:00","52049","2.42","199.1","4.018","169.5","1017.3430000000001","25.76","70.85","811.0","0.0"],
    [1414465,"2026-05-31 14:20:00","52050","2.532","169.0","4.443","172","1017.29","25.74","70.12","786.7","0.0"],
    [1414466,"2026-05-31 14:30:00","52051","1.896","170.5","4.475","201.9","1017.275","26.03","69.92","697.0","0.0"],
    [1414467,"2026-05-31 14:40:00","52052","2.294","169.7","4.802","188.7","1017.221","25.63","71.55","729.1","0.0"],
    [1414468,"2026-05-31 14:50:00","52053","1.429","143.9","4.475","181.9","1017.0889999999999","25.68","71.6","680.5","0.0"],
    [1414469,"2026-05-31 15:00:00","52054","1.7109999999999999","116.0","3.528","74.27","1017.051","25.72","71.57","626.4","0.0"],
    [1414470,"2026-05-31 15:10:00","52055","1.217","157.1","3.724","162.2","1017.051","25.57","72.25","493.6","0.0"],
    [1414471,"2026-05-31 15:20:00","52056","2.2319999999999998","192.0","4.704","170","1017.029","25.5","72.1","541.5","0.0"],
    [1414472,"2026-05-31 15:30:00","52057","2.3819999999999997","207.7","4.083","223.3","1017.0169999999999","25.66","71.49","621.4","0.0"],
    [1414473,"2026-05-31 15:40:00","52058","2.233","212.9","4.769","230.4","1017.054","25.61","71.08","546.0","0.0"],
    [1414474,"2026-05-31 15:50:00","52059","2.083","187.6","3.659","175.2","1017.0239999999999","25.55","71.82","473.3","0.0"],
    [1414475,"2026-05-31 16:00:00","52060","2.4290000000000003","185.0","4.508","187.3","1017.02","25.25","73.24","359.8","0.0"],
    [1414476,"2026-05-31 16:10:00","52061","2.075","201.0","3.887","207.2","1017.0010000000001","24.75","75.8","250.6","0.0"],
    [1414477,"2026-05-31 16:20:00","52062","2.273","198.9","5.423","183.8","1016.952","24.4","77.61","188.9","0.0"],
    [1414478,"2026-05-31 16:30:00","52063","2.204","168.7","5.847","127.7","1016.916","23.97","79.5","180.7","0.0"],
    [1414479,"2026-05-31 16:40:00","52064","1.9069999999999998","180.7","4.116","195.7","1016.914","24.17","78.83","181.3","0.0"],
    [1414480,"2026-05-31 16:50:00","52065","2.09","211.8","4.965","222.9","1016.95","24.19","78.83","184.3","0.0"],
    [1414481,"2026-05-31 17:00:00","52066","2.463","206.1","4.737","218.7","1016.915","24.16","79.46","160.5","0.0"],
    [1414482,"2026-05-31 17:10:00","52067","2.457","207.9","4.704","181.8","1016.924","24.1","79.36","130.3","0.0"],
    [1414483,"2026-05-31 17:20:00","52068","2.5789999999999997","206.1","5.161","159.7","1016.883","24.01","79.33","117.3","0.0"],
    [1414484,"2026-05-31 17:30:00","52069","2.102","195.7","3.397","187.2","1016.873","23.95","79.6","105.5","0.0"],
    [1414485,"2026-05-31 17:40:00","52070","2.4730000000000003","194.9","3.887","184.1","1016.8910000000001","23.83","80.5","93.1","0.0"],
    [1414486,"2026-05-31 17:50:00","52071","2.25","179.4","4.541","179","1016.84","23.79","80.8","82.8","0.0"],
    [1414487,"2026-05-31 18:00:00","52072","2.379","196.2","4.802","236.5","1016.711","23.68","80.6","75.23","0.0"],
    [1414488,"2026-05-31 18:10:00","52073","1.955","191.3","3.985","182.8","1016.7410000000001","23.69","80.6","64.07","0.0"],
    [1414489,"2026-05-31 18:20:00","52074","2.124","191.5","4.312","218","1016.85","23.65","81.5","51.6","0.0"],
    [1414490,"2026-05-31 18:30:00","52075","1.9880000000000002","196.8","4.051","191.7","1016.8889999999999","23.6","82.1","36.63","0.0"],
    [1414491,"2026-05-31 18:40:00","52076","2.24","191.9","5.586","193.7","1016.8969999999999","23.47","82.9","23.15","0.0"],
    [1414492,"2026-05-31 18:50:00","52077","1.9169999999999998","204.5","3.789","191.7","1016.765","23.44","83.2","14.76","0.0"],
    [1414493,"2026-05-31 19:00:00","52078","2.207","201.2","5.031","201.4","1016.7819999999999","23.38","83.6","11.52","0.0"],
    [1414494,"2026-05-31 19:10:00","52079","2.005","188.8","3.103","202.4","1016.7819999999999","23.31","84.0","5.765","0.0"],
    [1414495,"2026-05-31 19:20:00","52080","2.128","190.5","4.867","180.9","1016.696","23.22","84.3","1.695","0.0"],
    [1414496,"2026-05-31 19:30:00","52081","2.2680000000000002","190.5","4.345","229.3","1016.6239999999999","23.22","84.4","-0.5539999999999999","0.0"],
    [1414497,"2026-05-31 19:40:00","52082","1.4809999999999999","196.6","4.018","232.7","1016.605","23.23","84.2","-1.558","0.0"],
    [1414498,"2026-05-31 19:50:00","52083","1.094","185.5","3.561","211.4","1016.61","23.26","84.4","-1.7790000000000001","0.0"],
    [1414499,"2026-05-31 20:00:00","52084","1.6159999999999999","182.5","4.769","171.5","1016.555","23.23","84.7","-1.8630000000000002","0.0"],
    [1414500,"2026-05-31 20:10:00","52085","1.177","192.5","2.94","221.9","1016.663","23.23","84.5","-1.889","0.0"],
    [1414501,"2026-05-31 20:20:00","52086","1.177","173.1","2.385","152.3","1016.7539999999999","23.23","83.7","-1.9","0.0"],
    [1414502,"2026-05-31 20:30:00","52087","1.05","165.4","2.809","136.1","1016.682","23.23","83.5","-1.903","0.0"],
    [1414503,"2026-05-31 20:40:00","52088","1.425","173.7","3.234","188.5","1016.735","23.27","83.6","-1.882","0.0"],
    [1414504,"2026-05-31 20:50:00","52089","1.131","118.1","5.063","95.7","1016.888","23.29","84.0","-1.85","0.0"],
    [1414505,"2026-05-31 21:00:00","52090","0.41600000000000004","85.9","1.699","82.7","1017.029","23.26","83.7","-1.919","0.0"],
    [1414506,"2026-05-31 21:10:00","52091","0.982","95.0","1.829","92","1017.115","23.33","84.4","-1.975","0.0"],
    [1414507,"2026-05-31 21:20:00","52092","0.753","103.5","1.535","83","1017.064","23.27","84.9","-2.521","0.0"],
    [1414508,"2026-05-31 21:30:00","52093","0.5329999999999999","107.5","1.372","98.3","1017.028","23.23","85.1","-2.615","0.0"],
    [1414509,"2026-05-31 21:40:00","52094","1.053","102.7","1.927","89.1","1017.007","23.13","84.9","-2.628","0.0"],
    [1414510,"2026-05-31 21:50:00","52095","0.7809999999999999","94.9","1.895","85.1","1017.1210000000001","23.23","84.6","-2.384","0.0"],
    [1414511,"2026-05-31 22:00:00","52096","0.535","94.8","1.143","100.4","1017.17","23.12","85.5","-2.656","0.0"],
    [1414512,"2026-05-31 22:10:00","52097","0.358","139.0","1.241","165.8","1017.181","23.01","85.7","-2.653","0.0"],
    [1414513,"2026-05-31 22:20:00","52098","0.257","115.2","0.98","123","1017.184","22.97","85.6","-2.653","0.0"],
    [1414514,"2026-05-31 22:30:00","52099","0.452","210.0","1.274","243.9","1017.2819999999999","22.87","85.9","-2.658","0.0"],
    [1414515,"2026-05-31 22:40:00","52100","0.847","176.6","1.307","176.8","1017.279","22.88","86.0","-2.658","0.0"],
    [1414516,"2026-05-31 22:50:00","52101","0.502","182.5","1.307","193.4","1017.24","22.92","86.1","-2.656","0.0"],
    [1414517,"2026-05-31 23:00:00","52102","1.02","186.8","1.633","184.6","1017.242","22.91","86.7","-2.654","0.0"],
    [1414518,"2026-05-31 23:10:00","52103","0.779","190.1","1.503","231.5","1017.22","22.89","87.0","-2.645","0.0"],
    [1414519,"2026-05-31 23:20:00","52104","0.716","209.2","1.731","222.1","1017.123","22.81","87.5","-2.657","0.0"],
    [1414520,"2026-05-31 23:30:00","52105","0.332","183.4","1.241","175.5","1017.169","22.79","87.7","-2.655","0.0"],
    [1414521,"2026-05-31 23:40:00","52106","0.156","178.4","0.882","169.6","1017.199","22.72","87.8","-2.655","0.0"],
    [1414522,"2026-05-31 23:50:00","52107","0.16399999999999998","166.6","0.686","168.2","1017.074","22.62","88.4","-2.659","0.0"],
    [1414523,"2026-06-01 00:00:00","52108","0.0","0.0","0","0","1017.018","22.63","88.4","-2.659","0.0"],
    [1414524,"2026-06-01 00:10:00","52109","0.331","104.5","1.47","91.6","1016.867","22.47","88.4","-2.658","0.0"],
    [1414525,"2026-06-01 00:20:00","52110","1.64","73.74","2.156","87","1016.78","22.32","88.8","-2.659","0.0"],
    [1414526,"2026-06-01 00:30:00","52111","1.625","65.23","1.96","64.62","1016.808","22.21","89.7","-2.653","0.0"],
    [1414527,"2026-06-01 00:40:00","52112","1.08","71.09","1.797","68.77","1016.862","22.19","90.2","-2.645","0.0"],
    [1414528,"2026-06-01 00:50:00","52113","1.431","68.4","1.797","65.92","1016.927","22.22","90.4","-2.4219999999999997","0.0"],
    [1414529,"2026-06-01 01:00:00","52114","1.693","58.97","2.189","57.86","1016.9780000000001","22.34","90.6","-1.911","0.0"],
    [1414530,"2026-06-01 01:10:00","52115","1.8090000000000002","58.12","2.548","52.84","1016.972","22.42","90.4","-1.949","0.0"],
    [1414531,"2026-06-01 01:20:00","52116","1.725","56.71","2.287","52.6","1016.967","22.42","90.0","-2.474","0.0"],
    [1414532,"2026-06-01 01:30:00","52117","2.5469999999999997","53.48","4.279","47.41","1016.954","22.39","89.8","-2.6210000000000004","0.0"],
    [1414533,"2026-06-01 01:40:00","52118","2.465","48.48","4.018","40.57","1016.954","22.41","90.2","-2.5380000000000003","0.0"],
    [1414534,"2026-06-01 01:50:00","52119","1.834","43.89","3.169","51.77","1016.955","22.42","90.7","-2.376","0.0"],
    [1414535,"2026-06-01 02:00:00","52120","1.999","40.73","3.201","42.77","1017.018","22.38","91.0","-2.178","0.0"],
    [1414536,"2026-06-01 02:10:00","52121","1.845","51.89","3.397","62.17","1016.937","22.45","91.0","-1.91","0.0"],
    [1414537,"2026-06-01 02:20:00","52122","3.278","44.96","4.867","50.21","1016.904","22.3","89.9","-1.2790000000000001","0.0"],
    [1414538,"2026-06-01 02:30:00","52123","2.997","48.79","4.639","47.7","1016.84","22.13","86.7","-1.4509999999999998","0.0"],
    [1414539,"2026-06-01 02:40:00","52124","2.6889999999999996","44.68","5.749","47.4","1016.794","22.27","86.6","-1.466","0.0"],
    [1414540,"2026-06-01 02:50:00","52125","3.6210000000000004","41.78","5.913","40.57","1016.707","22.19","87.6","-1.754","0.0"],
    [1414541,"2026-06-01 03:00:00","52126","4.146","38.23","6.141","36.37","1016.709","22.16","88.0","-1.8940000000000001","0.0"],
    [1414542,"2026-06-01 03:10:00","52127","3.8710000000000004","40.84","5.978","29.26","1016.679","22.22","88.2","-1.425","0.0"],
    [1414543,"2026-06-01 03:20:00","52128","3.444","56.84","4.933","39.31","1016.696","22.4","88.6","-1.15","0.0"],
    [1414544,"2026-06-01 03:30:00","52129","3.2710000000000004","70.77","4.443","63.2","1016.71","22.45","88.8","-1.183","0.0"],
    [1414545,"2026-06-01 03:40:00","52130","3.259","69.71","4.541","58.46","1016.705","22.45","88.2","-1.157","0.0"],
    [1414546,"2026-06-01 03:50:00","52131","2.8939999999999997","65.4","3.985","54.51","1016.663","22.42","87.3","-1.158","0.0"],
    [1414547,"2026-06-01 04:00:00","52132","2.846","70.06","4.41","67.93","1016.64","22.44","86.2","-1.157","0.0"],
    [1414548,"2026-06-01 04:10:00","52133","2.641","67.06","3.626","58.78","1016.628","22.41","84.2","-0.39899999999999997","0.0"],
    [1414549,"2026-06-01 04:20:00","52134","2.885","54.67","4.116","48.38","1016.68","22.44","84.3","0.91","0.0"],
    [1414550,"2026-06-01 04:30:00","52135","2.25","51.5","3.953","47.13","1016.69","22.19","86.6","3.301","0.0"],
    [1414551,"2026-06-01 04:40:00","52136","2.0180000000000002","44.36","3.43","49.56","1016.69","22.07","86.9","8.38","0.0"],
    [1414552,"2026-06-01 04:50:00","52137","2.298","52.44","3.561","51.21","1016.716","22.02","87.2","17.81","0.0"],
    [1414553,"2026-06-01 05:00:00","52138","2.571","53.41","3.691","49.92","1016.7739999999999","21.99","87.3","23.9","0.0"],
    [1414554,"2026-06-01 05:10:00","52139","2.237","49.69","3.43","54.24","1016.8","22.03","86.6","37.21","0.0"],
    [1414555,"2026-06-01 05:20:00","52140","2.9560000000000004","55.34","4.573","47.24","1016.7689999999999","22.2","84.1","55.32","0.0"],
    [1414556,"2026-06-01 05:30:00","52141","2.293","47.78","3.855","34.68","1016.784","22.54","81.8","70.76","0.0"],
    [1414557,"2026-06-01 05:40:00","52142","2.033","41.34","3.397","31.32","1016.822","22.64","82.6","87.1","0.0"],
    [1414558,"2026-06-01 05:50:00","52143","2.373","58.42","3.365","49.26","1016.908","22.82","81.2","116.4","0.0"],
    [1414559,"2026-06-01 06:00:00","52144","2.592","56.26","3.561","40.43","1016.9810000000001","23.12","79.63","147.3","0.0"],
    [1414560,"2026-06-01 06:10:00","52145","2.7089999999999996","60.3","4.443","58.92","1017.033","23.33","78.61","180.1","0.0"],
    [1414561,"2026-06-01 06:20:00","52146","2.622","62.28","4.377","89.9","1017.112","23.34","78.63","191.8","0.0"],
    [1414562,"2026-06-01 06:30:00","52147","2.591","68.82","4.214","108.4","1017.184","23.42","78.57","217.5","0.0"],
    [1414563,"2026-06-01 06:40:00","52148","2.306","64.87","4.312","92.6","1017.235","23.53","78.06","255.5","0.0"],
    [1414564,"2026-06-01 06:50:00","52149","2.461","62.08","4.312","117.1","1017.3539999999999","23.53","78.61","337.8","0.0"],
    [1414565,"2026-06-01 07:00:00","52150","2.301","71.92","4.181","71.52","1017.432","23.87","78.07","380.5","0.0"],
    [1414566,"2026-06-01 07:10:00","52151","1.7619999999999998","97.6","3.299","89.6","1017.535","24.16","76.38","394.2","0.0"],
    [1414567,"2026-06-01 07:20:00","52152","1.321","107.7","2.973","67.8","1017.625","24.53","74.55","412.6","0.0"],
    [1414568,"2026-06-01 07:30:00","52153","0.768","124.2","2.646","143.4","1017.654","25.06","71.25","454.3","0.0"],
    [1414569,"2026-06-01 07:40:00","52154","1.429","104.9","7.023","101.1","1017.697","24.62","72.04","467.0","0.0"],
    [1414570,"2026-06-01 07:50:00","52155","1.4380000000000002","142.7","3.332","121.3","1017.706","25.13","68.51","472.1","0.0"],
    [1414571,"2026-06-01 08:00:00","52156","1.703","161.9","3.561","180.1","1017.7","25.03","68.58","509.4","0.0"],
    [1414572,"2026-06-01 08:10:00","52157","1.953","164.0","3.593","160.8","1017.7510000000001","24.68","69.01","568.0","0.0"],
    [1414573,"2026-06-01 08:20:00","52158","2.158","171.5","4.214","162.7","1017.7139999999999","24.7","68.8","627.7","0.0"],
    [1414574,"2026-06-01 08:30:00","52159","1.347","115.1","3.267","106.3","1017.73","25.43","67.97","630.3","0.0"],
    [1414575,"2026-06-01 08:40:00","52160","2.076","161.6","5.063","173.9","1017.7639999999999","25.27","68.46","694.7","0.0"],
    [1414576,"2026-06-01 08:50:00","52161","2.174","180.8","5.325","196.8","1017.794","25.31","67.89","644.7","0.0"],
    [1414577,"2026-06-01 09:00:00","52162","2.338","194.8","4.606","232.1","1017.7460000000001","25.2","67.66","679.8","0.0"],
    [1414578,"2026-06-01 09:10:00","52163","2.53","175.3","4.769","180.9","1017.685","25.3","67.43","744.3","0.0"],
    [1414579,"2026-06-01 09:20:00","52164","1.9580000000000002","185.2","4.279","183.6","1017.672","25.93","65.58","788.2","0.0"],
    [1414580,"2026-06-01 09:30:00","52165","3.1639999999999997","174.3","5.553","184.5","1017.697","25.58","65.87","810.0","0.0"],
    [1414581,"2026-06-01 09:40:00","52166","2.889","189.0","6.305","207.5","1017.659","25.53","66.18","720.5","0.0"],
    [1414582,"2026-06-01 09:50:00","52167","3.1","178.8","5.586","182.3","1017.67","25.52","67.25","858.0","0.0"],
    [1414583,"2026-06-01 10:00:00","52168","2.967","186.1","5.717","185.8","1017.6619999999999","26.15","66.33","872.0","0.0"],
    [1414584,"2026-06-01 10:10:00","52169","3.18","197.4","6.011","165.1","1017.6039999999999","25.93","66.6","873.0","0.0"],
    [1414585,"2026-06-01 10:20:00","52170","3.112","185.1","6.631","180.2","1017.5889999999999","25.85","66.98","889.0","0.0"],
    [1414586,"2026-06-01 10:30:00","52171","3.207","200.9","6.305","212.8","1017.597","26.14","65.98","898.0","0.0"],
    [1414587,"2026-06-01 10:40:00","52172","3.4760000000000004","206.0","5.717","225.2","1017.554","26.15","65.61","891.0","0.0"],
    [1414588,"2026-06-01 10:50:00","52173","3.29","204.1","5.913","178.3","1017.466","26.09","66.09","909.0","0.0"],
    [1414589,"2026-06-01 11:00:00","52174","3.674","205.6","6.076","222.8","1017.39","26.36","64.4","918.0","0.0"],
    [1414590,"2026-06-01 11:10:00","52175","3.617","198.8","6.762","212.7","1017.293","26.33","63.45","922.0","0.0"],
    [1414591,"2026-06-01 11:20:00","52176","3.923","205.1","6.729","227.4","1017.196","26.32","63.27","923.0","0.0"],
    [1414592,"2026-06-01 11:30:00","52177","4.007","200.1","6.893","219.2","1017.166","26.24","64.05","932.0","0.0"],
    [1414593,"2026-06-01 11:40:00","52178","4.198","208.6","6.827","224.5","1017.086","26.36","64.46","931.0","0.0"],
    [1414594,"2026-06-01 11:50:00","52179","3.759","191.3","7.285","220.3","1017.03","26.73","63.02","933.0","0.0"],
    [1414595,"2026-06-01 12:00:00","52180","3.727","203.1","6.631","228.9","1017.012","26.61","63.92","931.0","0.0"],
    [1414596,"2026-06-01 12:10:00","52181","4.274","195.2","7.056","172.6","1016.9110000000001","26.38","64.21","933.0","0.0"],
    [1414597,"2026-06-01 12:20:00","52182","3.758","195.0","7.481","176.1","1016.763","26.63","62.5","929.0","0.0"],
    [1414598,"2026-06-01 12:30:00","52183","3.625","200.3","7.252","184.6","1016.597","27.08","60.13","929.0","0.0"],
    [1414599,"2026-06-01 12:40:00","52184","3.8739999999999997","195.6","6.631","229","1016.438","27.07","60.55","925.0","0.0"],
    [1414600,"2026-06-01 12:50:00","52185","4.658","204.1","6.925","198.8","1016.3510000000001","26.77","61.65","921.0","0.0"],
    [1414601,"2026-06-01 13:00:00","52186","4.236000000000001","194.2","7.709","176","1016.2710000000001","26.59","61.82","907.0","0.0"],
    [1414602,"2026-06-01 13:10:00","52187","4.177","196.5","7.971","183.7","1016.171","26.61","61.51","898.0","0.0"],
    [1414603,"2026-06-01 13:20:00","52188","3.889","199.5","7.056","228.3","1016.055","26.86","60.25","881.0","0.0"],
    [1414604,"2026-06-01 13:30:00","52189","5.083","185.8","7.742","178.3","1015.931","26.51","59.05","868.0","0.0"],
    [1414605,"2026-06-01 13:40:00","52190","4.133","188.5","8.3","180","1015.812","26.47","58.98","853.0","0.0"],
    [1414606,"2026-06-01 13:50:00","52191","4.651","200.2","7.775","175.3","1015.727","26.34","60.9","837.0","0.0"],
    [1414607,"2026-06-01 14:00:00","52192","4.4","195.2","7.383","171.8","1015.672","26.58","59.44","820.0","0.0"],
    [1414608,"2026-06-01 14:10:00","52193","4.373","198.9","8","218.7","1015.596","26.44","60.53","801.0","0.0"],
    [1414609,"2026-06-01 14:20:00","52194","5.374","218.0","7.187","237.9","1015.5110000000001","26.36","60.24","781.6","0.0"],
    [1414610,"2026-06-01 14:30:00","52195","3.8160000000000003","197.0","6.827","184.7","1015.3810000000001","26.34","62.7","760.0","0.0"],
    [1414611,"2026-06-01 14:40:00","52196","4.279","191.2","6.958","178.9","1015.238","26.26","58.71","741.6","0.0"],
    [1414612,"2026-06-01 14:50:00","52197","3.266","195.9","6.109","195.7","1015.163","26.67","59.18","714.8","0.0"],
    [1414613,"2026-06-01 15:00:00","52198","3.926","195.2","6.86","187.3","1015.0989999999999","26.51","58.87","695.6","0.0"],
    [1414614,"2026-06-01 15:10:00","52199","4.231","188.3","6.827","182.7","1014.9939999999999","26.25","58.78","671.2","0.0"],
    [1414615,"2026-06-01 15:20:00","52200","3.54","204.6","7.089","212.2","1014.909","26.3","57.91","629.4","0.0"],
    [1414616,"2026-06-01 15:30:00","52201","4.323","188.1","7.089","186.5","1014.791","26.2","57.87","596.4","0.0"],
    [1414617,"2026-06-01 15:40:00","52202","3.054","197.5","5.717","229.5","1014.709","26.55","57.59","585.6","0.0"],
    [1414618,"2026-06-01 15:50:00","52203","3.443","194.8","6.403","175.6","1014.672","26.35","58.48","530.6","0.0"],
    [1414619,"2026-06-01 16:00:00","52204","3.653","200.2","6.631","179.8","1014.6110000000001","25.95","61.96","534.2","0.0"],
    [1414620,"2026-06-01 16:10:00","52205","3.366","199.8","6.174","167","1014.4689999999999","26.18","61.77","504.9","0.0"],
    [1414621,"2026-06-01 16:20:00","52206","2.997","195.4","7.056","176.9","1014.322","26.07","63.27","472.1","0.0"],
    [1414622,"2026-06-01 16:30:00","52207","3.23","205.0","6.337","216.2","1014.2260000000001","26.23","61.96","445.0","0.0"],
    [1414623,"2026-06-01 16:40:00","52208","3.472","203.0","6.599","179.6","1014.11","25.69","62.8","403.3","0.0"],
    [1414624,"2026-06-01 16:50:00","52209","3.897","208.1","7.546","218.9","1014.0269999999999","25.63","62.94","374.7","0.0"],
    [1414625,"2026-06-01 17:00:00","52210","4.2139999999999995","212.1","7.023","214","1014.079","25.27","66.0","345.6","0.0"],
    [1414626,"2026-06-01 17:10:00","52211","3.55","210.4","6.207","217","1014.049","25.49","66.46","313.0","0.0"],
    [1414627,"2026-06-01 17:20:00","52212","3.721","208.7","7.513","218.2","1013.9630000000001","25.14","68.86","285.0","0.0"],
    [1414628,"2026-06-01 17:30:00","52213","3.1519999999999997","209.4","5.553","218.5","1013.837","25.1","69.78","194.6","0.0"],
    [1414629,"2026-06-01 17:40:00","52214","3.19","197.8","6.305","215.9","1013.828","24.75","69.73","164.8","0.0"],
    [1414630,"2026-06-01 17:50:00","52215","2.225","201.8","4.867","207.9","1013.81","24.68","70.05","140.8","0.0"],
    [1414631,"2026-06-01 18:00:00","52216","2.9189999999999996","211.0","5.259","216.5","1013.7539999999999","24.71","70.83","115.3","0.0"],
    [1414632,"2026-06-01 18:10:00","52217","2.883","206.5","6.141","204.5","1013.7189999999999","24.44","72.45","112.1","0.0"],
    [1414633,"2026-06-01 18:20:00","52218","3.301","211.9","5.227","207.4","1013.715","24.3","73.26","92.6","0.0"],
    [1414634,"2026-06-01 18:30:00","52219","2.935","212.9","5.031","214.5","1013.701","24.2","73.77","67.03","0.0"],
    [1414635,"2026-06-01 18:40:00","52220","2.369","207.2","4.835","242.2","1013.6610000000001","24.05","75.14","32.36","0.0"],
    [1414636,"2026-06-01 18:50:00","52221","2.7239999999999998","209.8","5.227","256.7","1013.665","23.79","77.07","20.33","0.0"],
    [1414637,"2026-06-01 19:00:00","52222","2.01","202.3","4.998","235","1013.6039999999999","23.64","78.33","12.16","0.0"],
    [1414638,"2026-06-01 19:10:00","52223","1.676","204.9","3.463","206.4","1013.6160000000001","23.55","79.56","5.981","0.0"],
    [1414639,"2026-06-01 19:20:00","52224","1.7619999999999998","201.5","3.201","230.6","1013.4960000000001","23.44","80.2","1.944","0.0"],
    [1414640,"2026-06-01 19:30:00","52225","1.5719999999999998","193.0","3.397","179.1","1013.4789999999999","23.36","81.1","-0.583","0.0"],
    [1414641,"2026-06-01 19:40:00","52226","1.7109999999999999","210.4","4.671","207.2","1013.554","23.29","81.9","-2.053","0.0"],
    [1414642,"2026-06-01 19:50:00","52227","1.445","206.0","3.887","236.6","1013.6089999999999","23.25","82.3","-2.54","0.0"],
    [1414643,"2026-06-01 20:00:00","52228","1.39","195.6","3.43","177.8","1013.655","23.2","82.8","-2.6239999999999997","0.0"],
    [1414644,"2026-06-01 20:10:00","52229","1.7730000000000001","205.5","3.593","221.7","1013.784","23.15","82.6","-2.636","0.0"],
    [1414645,"2026-06-01 20:20:00","52230","2.279","214.2","5.553","234.7","1014.044","23.2","82.6","-2.471","0.0"],
    [1414646,"2026-06-01 20:30:00","52231","2.359","218.4","7.35","209","1014.145","23.23","82.5","-1.682","0.0"],
    [1414647,"2026-06-01 20:40:00","52232","1.8840000000000001","200.0","5.488","256.7","1014.174","23.22","82.8","-1.883","0.0"],
    [1414648,"2026-06-01 20:50:00","52233","1.517","195.7","2.744","242.6","1014.18","23.14","83.2","-1.989","0.0"],
    [1414649,"2026-06-01 21:00:00","52234","1.676","209.6","7.938","250.2","1014.296","23.06","82.9","-2.101","0.0"],
    [1414650,"2026-06-01 21:10:00","52235","1.514","191.9","2.711","192","1014.177","23.12","82.5","-2.0340000000000003","0.0"],
    [1414651,"2026-06-01 21:20:00","52236","1.107","197.4","2.679","171.6","1014.107","23.06","82.3","-2.126","0.0"],
    [1414652,"2026-06-01 21:30:00","52237","1.247","203.7","2.45","173","1014.1410000000001","23.03","82.4","-2.658","0.0"],
    [1414653,"2026-06-01 21:40:00","52238","1.185","205.3","2.319","211.2","1014.1389999999999","22.99","82.6","-2.659","0.0"],
    [1414654,"2026-06-01 21:50:00","52239","1.3880000000000001","207.5","2.94","201","1014.1110000000001","22.96","82.6","-2.59","0.0"],
    [1414655,"2026-06-01 22:00:00","52240","1.493","205.5","2.679","228.1","1014.039","22.98","82.7","-1.946","0.0"],
    [1414656,"2026-06-01 22:10:00","52241","1.46","196.0","3.038","186.8","1013.9019999999999","22.93","82.8","-2.063","0.0"],
    [1414657,"2026-06-01 22:20:00","52242","1.901","203.7","3.724","209.1","1013.8839999999999","22.86","82.7","-1.976","0.0"],
    [1414658,"2026-06-01 22:30:00","52243","2.459","214.5","3.855","201.7","1013.975","22.96","82.4","-1.921","0.0"],
    [1414659,"2026-06-01 22:40:00","52244","2.46","216.4","3.397","227.4","1013.895","22.98","82.6","-1.5659999999999998","0.0"],
    [1414660,"2026-06-01 22:50:00","52245","2.371","214.7","3.495","208","1013.863","22.97","82.2","-1.3019999999999998","0.0"],
    [1414661,"2026-06-01 23:00:00","52246","1.8769999999999998","222.9","3.299","216.2","1013.93","23.02","81.6","-1.2009999999999998","0.0"],
    [1414662,"2026-06-01 23:10:00","52247","1.564","226.8","3.038","247.4","1013.862","22.98","81.2","-1.1840000000000002","0.0"],
    [1414663,"2026-06-01 23:20:00","52248","2.026","212.8","3.103","219","1013.695","23.06","81.1","-1.158","0.0"],
    [1414664,"2026-06-01 23:30:00","52249","2.182","213.5","3.136","212.2","1013.612","23.05","81.0","-1.162","0.0"],
    [1414665,"2026-06-01 23:40:00","52250","2.244","218.7","3.495","229.5","1013.4780000000001","23.06","81.2","-1.167","0.0"],
    [1414666,"2026-06-01 23:50:00","52251","2.41","217.5","3.201","201.3","1013.395","23.03","81.5","-1.159","0.0"],
    [1414667,"2026-06-02 00:00:00","52252","2.037","221.7","3.136","226.5","1013.3439999999999","23.03","82.0","-1.742","0.0"],
    [1414668,"2026-06-02 00:10:00","52253","1.913","221.6","3.005","228.7","1013.283","22.94","83.8","-2.697","0.0"],
    [1414669,"2026-06-02 00:20:00","52254","1.757","224.4","2.777","226.7","1013.196","22.77","84.9","-1.972","0.0"],
    [1414670,"2026-06-02 00:30:00","52255","1.575","225.7","2.548","235.7","1013.237","22.68","85.0","-1.157","0.0"],
    [1414671,"2026-06-02 00:40:00","52256","1.4240000000000002","193.9","2.254","193","1012.9810000000001","22.65","85.3","-1.157","0.0"],
    [1414672,"2026-06-02 00:50:00","52257","1.777","198.2","3.267","233.2","1012.7189999999999","22.64","86.0","-1.155","0.0"],
    [1414673,"2026-06-02 01:00:00","52258","1.734","227.4","3.528","226.6","1012.799","22.67","86.0","-1.39","0.0"],
    [1414674,"2026-06-02 01:10:00","52259","1.358","226.4","2.679","222.9","1012.69","22.51","86.3","-2.006","0.0"],
    [1414675,"2026-06-02 01:20:00","52260","1.518","227.2","2.417","204.9","1012.5880000000001","22.43","86.7","-2.633","0.0"],
    [1414676,"2026-06-02 01:30:00","52261","1.084","218.6","2.091","210.1","1012.421","22.31","87.3","-2.653","0.0"],
    [1414677,"2026-06-02 01:40:00","52262","0.8109999999999999","243.2","1.601","221.5","1012.382","22.23","87.5","-2.656","0.0"],
    [1414678,"2026-06-02 01:50:00","52263","1.18","231.0","1.862","232.9","1012.313","22.13","87.6","-2.659","0.0"],
    [1414679,"2026-06-02 02:00:00","52264","0.77","267.4","1.372","293.8","1012.3","22.08","87.8","-2.658","0.0"],
    [1414680,"2026-06-02 02:10:00","52265","0.879","262.2","1.503","238.9","1012.227","21.93","87.2","-2.658","0.0"],
    [1414681,"2026-06-02 02:20:00","52266","0.8170000000000001","255.6","1.699","244.6","1012.107","21.86","86.6","-2.656","0.0"],
    [1414682,"2026-06-02 02:30:00","52267","0.8240000000000001","233.9","1.503","248.6","1012.056","21.86","86.3","-2.659","0.0"],
    [1414683,"2026-06-02 02:40:00","52268","0.782","254.4","1.535","283.8","1012.065","21.87","86.5","-2.66","0.0"],
    [1414684,"2026-06-02 02:50:00","52269","0.61","257.6","1.731","266.2","1012.062","21.64","86.8","-2.639","0.0"],
    [1414685,"2026-06-02 03:00:00","52270","1.051","235.5","1.535","252.2","1011.926","21.66","86.1","-2.659","0.0"],
    [1414686,"2026-06-02 03:10:00","52271","1.2429999999999999","232.5","1.862","240.2","1011.837","21.75","85.1","-2.541","0.0"],
    [1414687,"2026-06-02 03:20:00","52272","1.024","235.4","2.058","236.1","1011.712","21.69","84.5","-2.582","0.0"],
    [1414688,"2026-06-02 03:30:00","52273","0.6679999999999999","234.4","1.437","223.6","1011.618","21.63","84.7","-2.65","0.0"],
    [1414689,"2026-06-02 03:40:00","52274","1.0490000000000002","227.4","1.666","228.4","1011.453","21.71","85.1","-2.645","0.0"],
    [1414690,"2026-06-02 03:50:00","52275","0.642","237.5","1.503","232.1","1011.4830000000001","21.56","85.4","-2.521","0.0"],
    [1414691,"2026-06-02 04:00:00","52276","0.8420000000000001","289.5","1.633","298.3","1011.615","21.23","86.2","-2.322","0.0"],
    [1414692,"2026-06-02 04:10:00","52277","0.93","264.7","1.797","291.1","1011.698","21.17","87.0","-1.645","0.0"],
    [1414693,"2026-06-02 04:20:00","52278","1.2570000000000001","280.7","2.091","282.4","1011.553","21.3","86.7","0.5329999999999999","0.0"],
    [1414694,"2026-06-02 04:30:00","52279","0.84","272.4","2.156","290.3","1011.565","21.18","86.7","5.593999999999999","0.0"],
    [1414695,"2026-06-02 04:40:00","52280","1.4340000000000002","276.5","2.123","291.8","1011.7819999999999","21.11","87.2","17.07","0.0"],
    [1414696,"2026-06-02 04:50:00","52281","0.507","279.7","1.601","280.6","1011.793","21.3","86.8","23.79","0.0"],
    [1414697,"2026-06-02 05:00:00","52282","0.674","292.4","1.241","299.9","1011.703","21.36","86.5","27.06","0.0"],
    [1414698,"2026-06-02 05:10:00","52283","0.069","290.1","1.111","292.7","1011.607","21.43","86.5","32.88","0.0"],
    [1414699,"2026-06-02 05:20:00","52284","0.599","286.8","1.143","298.3","1011.5930000000001","21.47","86.4","34.31","0.0"],
    [1414700,"2026-06-02 05:30:00","52285","0.775","239.1","1.503","235.5","1011.6610000000001","21.53","86.2","48.34","0.0"],
    [1414701,"2026-06-02 05:40:00","52286","0.764","244.2","1.666","248","1011.658","21.76","85.5","83.5","0.0"],
    [1414702,"2026-06-02 05:50:00","52287","0.67","227.7","1.274","249.1","1011.655","22.21","84.5","111.4","0.0"],
    [1414703,"2026-06-02 06:00:00","52288","0.774","269.1","1.895","298.6","1011.71","22.67","83.1","158.0","0.0"],
    [1414704,"2026-06-02 06:10:00","52289","1.5419999999999998","303.3","2.156","301.7","1011.7330000000001","22.81","82.0","193.2","0.0"],
    [1414705,"2026-06-02 06:20:00","52290","1.341","298.3","2.123","277","1011.7239999999999","23.02","82.1","208.5","0.0"],
    [1414706,"2026-06-02 06:30:00","52291","1.466","293.1","2.973","261.6","1011.682","23.27","81.3","228.6","0.0"],
    [1414707,"2026-06-02 06:40:00","52292","1.212","261.4","2.254","194.4","1011.6519999999999","23.55","80.6","264.9","0.0"],
    [1414708,"2026-06-02 06:50:00","52293","1.3730000000000002","238.8","2.94","310.8","1011.648","23.75","79.78","276.4","0.0"],
    [1414709,"2026-06-02 07:00:00","52294","1.4080000000000001","246.8","3.43","276.6","1011.721","23.84","79.19","268.2","0.0"],
    [1414710,"2026-06-02 07:20:00","52295","1.3130000000000002","239.2","2.973","251","1011.762","24.31","76.39","356.1","0.0"],
    [1414711,"2026-06-02 07:30:00","52296","1.527","229.4","2.613","224.4","1011.846","24.29","75.21","267.9","0.0"],
    [1414712,"2026-06-02 07:40:00","52297","1.577","222.6","3.169","233.2","1011.795","24.41","74.59","274.7","0.0"],
    [1414713,"2026-06-02 07:50:00","52298","1.209","214.5","2.581","219.8","1011.743","24.5","73.91","293.8","0.0"],
    [1414714,"2026-06-02 08:00:00","52299","1.692","210.5","3.103","200.8","1011.779","24.78","71.98","287.7","0.0"],
    [1414715,"2026-06-02 08:10:00","52300","2.27","204.4","3.757","206.4","1011.802","24.71","69.51","263.0","0.0"],
    [1414716,"2026-06-02 08:20:00","52301","2.505","188.1","5.129","172.9","1011.737","24.48","71.87","225.7","0.0"],
    [1414717,"2026-06-02 08:30:00","52302","2.627","207.1","7.121","176.9","1011.692","24.55","73.25","333.6","0.0"],
    [1414718,"2026-06-02 08:40:00","52303","2.6460000000000004","206.7","4.9","216.3","1011.568","24.75","73.37","421.0","0.0"],
    [1414719,"2026-06-02 08:50:00","52304","2.081","190.4","4.345","185.5","1011.5319999999999","25.05","75.2","404.7","0.0"],
    [1414720,"2026-06-02 09:00:00","52305","2.532","192.7","4.247","212","1011.528","25.05","74.94","493.9","0.0"],
    [1414721,"2026-06-02 09:10:00","52306","2.841","199.1","5.129","219.5","1011.487","25.02","75.35","623.8","0.0"],
    [1414722,"2026-06-02 09:20:00","52307","3.074","190.7","5.161","185.5","1011.518","24.84","76.13","554.9","0.0"],
    [1414723,"2026-06-02 09:30:00","52308","3.015","207.6","6.011","179.4","1011.643","25.11","75.61","627.1","0.0"],
    [1414724,"2026-06-02 09:40:00","52309","2.971","192.7","5.227","175.9","1011.7080000000001","25.41","74.25","741.5","0.0"],
    [1414725,"2026-06-02 09:50:00","52310","2.7460000000000004","195.7","7.121","209","1011.7180000000001","25.45","73.61","789.6","0.0"],
    [1414726,"2026-06-02 10:00:00","52311","2.907","173.1","4.933","160.8","1011.66","25.66","72.61","760.6","0.0"],
    [1414727,"2026-06-02 10:10:00","52312","3.662","182.4","5.749","181.4","1011.743","25.5","72.31","817.0","0.0"],
    [1414728,"2026-06-02 10:20:00","52313","2.512","188.3","4.639","194.7","1011.7310000000001","25.78","71.76","758.9","0.0"],
    [1414729,"2026-06-02 10:30:00","52314","2.6239999999999997","181.2","4.443","159","1011.735","26.18","70.27","769.4","0.0"],
    [1414730,"2026-06-02 10:40:00","52315","2.81","170.7","4.835","175.2","1011.706","25.39","73.7","740.3","0.0"],
    [1414731,"2026-06-02 10:50:00","52316","2.928","175.0","5.292","165.5","1011.692","25.3","75.12","753.5","0.0"],
    [1414732,"2026-06-02 11:00:00","52317","2.548","188.7","4.279","191.8","1011.677","25.98","73.22","789.2","0.0"],
    [1414733,"2026-06-02 11:10:00","52318","2.948","167.6","5.031","155.6","1011.785","25.22","75.52","811.0","0.0"],
    [1414734,"2026-06-02 11:20:00","52319","2.7910000000000004","192.3","5.063","176.4","1011.765","26.19","71.21","784.4","0.0"],
    [1414735,"2026-06-02 11:30:00","52320","2.4930000000000003","190.9","4.279","178.5","1011.673","26.29","70.84","787.4","0.0"],
    [1414736,"2026-06-02 11:40:00","52321","2.282","171.8","5.063","170.4","1011.675","26.2","71.07","872.0","0.0"],
    [1414737,"2026-06-02 11:50:00","52322","3.178","166.2","5.031","163.3","1011.65","25.5","74.26","941.0","0.0"],
    [1414738,"2026-06-02 12:00:00","52323","2.873","189.1","4.9","185.7","1011.507","26.04","72.95","879.0","0.0"],
    [1414739,"2026-06-02 12:10:00","52324","3.557","199.3","6.043","191.6","1011.513","26.22","70.9","825.0","0.0"],
    [1414740,"2026-06-02 12:20:00","52325","4.077","169.9","5.619","167.7","1011.5239999999999","25.2","74.16","674.9","0.0"],
    [1414741,"2026-06-02 12:30:00","52326","4.172","171.1","5.259","175.7","1011.488","24.73","76.71","607.6","0.0"],
    [1414742,"2026-06-02 12:40:00","52327","2.9130000000000003","191.7","5.586","185.5","1011.413","25.43","74.59","610.7","0.0"],
    [1414743,"2026-06-02 12:50:00","52328","3.173","188.4","5.423","181.8","1011.426","26.01","71.85","715.9","0.0"],
    [1414744,"2026-06-02 13:00:00","52329","1.734","189.4","4.051","145.1","1011.427","26.32","70.73","680.4","0.0"],
    [1414745,"2026-06-02 13:10:00","52330","1.942","176.6","4.345","215.8","1011.443","26.33","70.13","559.9","0.0"],
    [1414746,"2026-06-02 13:20:00","52331","1.4180000000000001","110.1","4.279","83","1011.419","26.51","68.4","645.8","0.0"],
    [1414747,"2026-06-02 13:30:00","52332","1.402","170.3","3.332","154.9","1011.363","26.06","69.37","411.3","0.0"],
    [1414748,"2026-06-02 13:40:00","52333","2.58","185.6","4.149","188.7","1011.4","25.58","69.92","389.5","0.0"],
    [1414749,"2026-06-02 13:50:00","52334","2.705","188.5","4.279","173.5","1011.378","25.51","70.07","363.6","0.0"],
    [1414750,"2026-06-02 14:00:00","52335","1.756","159.1","3.593","144.7","1011.375","25.42","69.33","430.5","0.0"],
    [1414751,"2026-06-02 14:10:00","52336","1.9769999999999999","167.1","4.083","165","1011.3510000000001","25.56","70.08","494.4","0.0"],
    [1414752,"2026-06-02 14:20:00","52337","1.735","160.5","4.737","157.8","1011.3560000000001","25.35","67.14","384.9","0.0"],
    [1414753,"2026-06-02 14:30:00","52338","1.524","114.5","2.94","108","1011.3639999999999","25.53","69.79","433.3","0.0"],
    [1414754,"2026-06-02 14:40:00","52339","1.619","101.0","3.267","101","1011.4630000000001","25.93","68.63","465.4","0.0"],
    [1414755,"2026-06-02 14:50:00","52340","2.873","90.8","5.423","70.12","1011.444","25.9","68.0","695.0","0.0"],
    [1414756,"2026-06-02 15:00:00","52341","3.571","89.0","5.815","73.01","1011.462","25.93","68.78","603.4","0.0"],
    [1414757,"2026-06-02 15:10:00","52342","4.047","82.1","5.325","71.19","1011.507","25.63","71.16","537.0","0.0"],
    [1414758,"2026-06-02 15:20:00","52343","4.578","75.55","5.88","78.23","1011.543","25.52","72.73","300.0","0.0"],
    [1414759,"2026-06-02 15:30:00","52344","4.3839999999999995","70.78","5.619","63.45","1011.6239999999999","25.21","74.69","247.1","0.0"],
    [1414760,"2026-06-02 15:40:00","52345","4.138","70.02","5.619","68.15","1011.628","25.35","74.59","548.5","0.0"],
    [1414761,"2026-06-02 15:50:00","52346","4.74","74.05","5.782","81","1011.674","25.38","73.98","520.9","0.0"],
    [1414762,"2026-06-02 16:00:00","52347","4.6930000000000005","74.11","6.011","80.3","1011.78","25.37","73.91","540.4","0.0"],
    [1414763,"2026-06-02 16:10:00","52348","4.939","73.51","6.762","62.5","1011.915","25.5","73.55","504.8","0.0"],
    [1414764,"2026-06-02 16:20:00","52349","5.1370000000000005","73.56","7.971","66.81","1011.993","25.69","72.19","474.7","0.0"],
    [1414765,"2026-06-02 16:30:00","52350","6.138999999999999","69.7","8.43","63.34","1012.043","25.73","66.11","443.3","0.0"],
    [1414766,"2026-06-02 16:40:00","52351","6.018","68.75","8.13","78.42","1012.097","25.57","66.44","401.4","0.0"],
    [1414767,"2026-06-02 16:50:00","52352","5.311","68.22","7.154","59.37","1012.173","25.53","67.8","369.7","0.0"],
    [1414768,"2026-06-02 17:00:00","52353","5.4110000000000005","78.77","8.36","75.37","1012.137","25.52","67.2","347.3","0.0"],
    [1414769,"2026-06-02 17:10:00","52354","5.565","82.2","8.17","90.9","1012.086","25.3","67.84","322.1","0.0"],
    [1414770,"2026-06-02 17:20:00","52355","5.577000000000001","82.8","8.17","82.3","1012.1560000000001","25.19","66.52","288.7","0.0"],
    [1414771,"2026-06-02 17:30:00","52356","4.97","84.6","6.827","87.1","1012.2360000000001","25.03","67.08","252.1","0.0"],
    [1414772,"2026-06-02 17:40:00","52357","5.026","86.7","6.991","83.3","1012.346","24.64","68.09","158.2","0.0"],
    [1414773,"2026-06-02 17:50:00","52358","4.842","82.9","7.089","82.7","1012.3660000000001","24.62","66.54","170.5","0.0"],
    [1414774,"2026-06-02 18:00:00","52359","5.001","86.0","6.958","71.38","1012.446","24.44","67.45","139.9","0.0"],
    [1414775,"2026-06-02 18:10:00","52360","4.426","88.9","6.795","88.9","1012.477","24.4","66.38","143.6","0.0"],
    [1414776,"2026-06-02 18:20:00","52361","3.924","88.1","5.194","84.2","1012.497","24.31","67.68","116.3","0.0"],
    [1414777,"2026-06-02 18:30:00","52362","4.059","86.7","5.978","79.55","1012.443","24.18","67.5","89.0","0.0"],
    [1414778,"2026-06-02 18:40:00","52363","3.7960000000000003","92.0","5.521","83.2","1012.4689999999999","24.01","68.65","62.14","0.0"],
    [1414779,"2026-06-02 18:50:00","52364","3.303","96.4","5.292","106.8","1012.6489999999999","23.81","68.45","38.19","0.0"],
    [1414780,"2026-06-02 19:00:00","52365","3.4139999999999997","97.1","5.782","103.1","1012.6519999999999","23.66","68.25","14.12","0.0"],
    [1414781,"2026-06-02 19:10:00","52366","3.207","100.1","5.39","92.7","1012.645","23.52","68.66","6.308","0.0"],
    [1414782,"2026-06-02 19:20:00","52367","2.444","100.1","5.194","84.6","1012.825","23.46","69.73","2.512","0.0"],
    [1414783,"2026-06-02 19:30:00","52368","3.052","102.1","5.292","96","1012.816","23.4","70.2","0.038","0.0"],
    [1414784,"2026-06-02 19:40:00","52369","3.741","96.9","5.194","103.1","1012.914","23.39","69.61","-1.5719999999999998","0.0"],
    [1414785,"2026-06-02 19:50:00","52370","3.159","97.0","5.423","91","1012.953","23.32","70.54","-2.346","0.0"],
    [1414786,"2026-06-02 20:00:00","52371","3.4339999999999997","91.2","5.194","93","1013.181","23.33","70.18","-2.614","0.0"],
    [1414787,"2026-06-02 20:10:00","52372","2.6719999999999997","90.6","4.051","83.2","1013.362","23.35","69.12","-2.63","0.0"],
    [1414788,"2026-06-02 20:20:00","52373","2.0869999999999997","93.3","3.43","83.9","1013.612","23.29","69.55","-2.64","0.0"],
    [1414789,"2026-06-02 20:30:00","52374","2.388","92.4","3.332","92.9","1013.834","23.3","65.35","-2.6430000000000002","0.0"],
    [1414790,"2026-06-02 20:40:00","52375","1.5919999999999999","105.0","4.051","107.1","1014.044","23.27","64.56","-2.6510000000000002","0.0"],
    [1414791,"2026-06-02 20:50:00","52376","1.4809999999999999","102.6","2.711","106.6","1014.227","23.29","65.12","-2.597","0.0"],
    [1414792,"2026-06-02 21:00:00","52377","1.141","125.5","2.581","141.3","1014.24","23.14","71.19","-2.614","0.0"],
    [1414793,"2026-06-02 21:10:00","52378","0.516","143.9","2.189","155.6","1014.3689999999999","22.92","72.52","-2.5789999999999997","0.0"],
    [1414794,"2026-06-02 21:20:00","52379","0.515","151.1","2.058","40.99","1014.456","22.8","74.57","-2.657","0.0"],
    [1414795,"2026-06-02 21:30:00","52380","0.76","151.2","2.156","135.8","1014.605","22.63","74.98","-2.492","0.0"],
    [1414796,"2026-06-02 21:40:00","52381","0.607","153.0","2.483","57.7","1014.7239999999999","22.56","74.3","-2.6460000000000004","0.0"],
    [1414797,"2026-06-02 21:50:00","52382","0.653","140.5","2.973","116.4","1014.763","22.56","73.64","-2.431","0.0"],
    [1414798,"2026-06-02 22:00:00","52383","0.8959999999999999","129.5","2.907","147.2","1014.7310000000001","22.53","69.5","-2.369","0.0"],
    [1414799,"2026-06-02 22:10:00","52384","1.246","119.2","3.561","131.1","1014.7719999999999","22.55","71.08","-2.608","0.0"],
    [1414800,"2026-06-02 22:20:00","52385","1.168","159.6","3.43","173.6","1014.802","22.41","69.64","-2.6060000000000003","0.0"],
    [1414801,"2026-06-02 22:30:00","52386","1.629","167.1","3.659","177.9","1014.85","22.43","69.95","-2.6519999999999997","0.0"],
    [1414802,"2026-06-02 22:40:00","52387","1.8219999999999998","163.9","3.757","145.3","1014.8839999999999","22.37","71.0","-2.6460000000000004","0.0"],
    [1414803,"2026-06-02 22:50:00","52388","2.358","171.7","4.671","177.4","1014.895","22.2","71.13","-2.647","0.0"],
    [1414804,"2026-06-02 23:00:00","52389","1.103","157.8","3.789","170.8","1014.852","22.07","70.51","-2.511","0.0"],
    [1414805,"2026-06-02 23:10:00","52390","1.254","161.1","2.907","117.6","1014.91","21.99","71.58","-2.659","0.0"],
    [1414806,"2026-06-02 23:20:00","52391","1.53","164.7","3.463","181.3","1014.913","21.92","71.64","-2.089","0.0"],
    [1414807,"2026-06-02 23:30:00","52392","2.298","179.1","3.855","172.1","1014.9119999999999","21.9","70.59","-2.657","0.0"],
    [1414808,"2026-06-02 23:40:00","52393","1.804","173.7","3.038","174","1014.9169999999999","21.93","70.29","-2.659","0.0"],
    [1414809,"2026-06-02 23:50:00","52394","1.3119999999999998","161.7","3.724","184.2","1014.823","21.81","71.48","-2.659","0.0"],
    [1414810,"2026-06-03 00:00:00","52395","1.071","159.6","2.842","154.4","1014.779","21.65","71.54","-2.661","0.0"],
    [1414811,"2026-06-03 00:10:00","52396","1.27","156.6","2.809","134.1","1014.793","21.59","71.38","-2.661","0.0"],
    [1414812,"2026-06-03 00:20:00","52397","0.778","113.4","2.189","69.03","1014.855","21.56","72.81","-2.66","0.0"],
    [1414813,"2026-06-03 00:30:00","52398","0.652","142.0","1.993","173.3","1014.8489999999999","21.41","73.41","-2.668","0.0"],
    [1414814,"2026-06-03 00:40:00","52399","1.535","176.7","2.646","185.1","1014.813","21.47","71.38","-2.662","0.0"],
    [1414815,"2026-06-03 00:50:00","52400","1.64","180.7","3.234","184.4","1014.827","21.53","69.65","-2.66","0.0"],
    [1414816,"2026-06-03 01:00:00","52401","1.139","181.3","1.96","193","1014.932","21.56","68.16","-2.61","0.0"],
    [1414817,"2026-06-03 01:10:00","52402","1.383","166.4","2.679","173.5","1015.029","21.63","66.41","-2.425","0.0"],
    [1414818,"2026-06-03 01:20:00","52403","1.5419999999999998","177.2","2.646","183.7","1015.076","21.63","66.86","-2.658","0.0"],
    [1414819,"2026-06-03 01:30:00","52404","1.212","195.3","2.254","165.3","1015.1439999999999","21.59","68.58","-2.316","0.0"],
    [1414820,"2026-06-03 01:40:00","52405","1.375","194.8","2.973","174.6","1015.18","21.57","70.04","-2.638","0.0"],
    [1414821,"2026-06-03 01:50:00","52406","1.167","201.0","2.287","227.5","1015.13","21.58","69.71","-1.915","0.0"],
    [1414822,"2026-06-03 02:00:00","52407","1.4169999999999998","194.5","2.744","182.8","1015.033","21.57","69.64","-2.4419999999999997","0.0"],
    [1414823,"2026-06-03 02:10:00","52408","1.564","204.8","3.169","211.8","1015.061","21.6","68.73","-2.059","0.0"],
    [1414824,"2026-06-03 02:20:00","52409","1.96","191.9","4.508","183.5","1015.0089999999999","21.72","68.69","-1.5430000000000001","0.0"],
    [1414825,"2026-06-03 02:30:00","52410","2.127","197.4","4.443","162.6","1014.8939999999999","21.73","68.56","-1.956","0.0"],
    [1414826,"2026-06-03 02:40:00","52411","2.471","188.0","4.508","190.9","1014.841","21.81","66.21","-2.101","0.0"],
    [1414827,"2026-06-03 02:50:00","52412","2.786","183.3","4.998","169.4","1014.914","21.83","64.94","-2.072","0.0"],
    [1414828,"2026-06-03 03:00:00","52413","3.272","212.6","5.978","228.2","1015.0989999999999","21.81","63.63","-1.27","0.0"],
    [1414829,"2026-06-03 03:10:00","52414","2.681","229.7","4.41","228.3","1015.185","21.37","56.58","-1.755","0.0"],
    [1414830,"2026-06-03 03:20:00","52415","2.627","228.2","3.92","212.3","1015.195","21.03","55.99","-2.654","0.0"],
    [1414831,"2026-06-03 03:30:00","52416","2.292","226.1","3.789","219.3","1015.2","20.78","56.45","-2.659","0.0"],
    [1414832,"2026-06-03 03:40:00","52417","2.28","230.1","3.953","248.8","1015.331","20.74","55.14","-2.131","0.0"],
    [1414833,"2026-06-03 03:50:00","52418","2.334","246.2","5.455","280.3","1015.3530000000001","20.76","53.62","-2.238","0.0"],
    [1414834,"2026-06-03 04:00:00","52419","4.354","308.0","7.448","300.6","1015.4060000000001","20.42","50.29","-2.435","0.0"],
    [1414835,"2026-06-03 04:10:00","52420","4.989","308.4","6.827","313.6","1015.437","20.17","45.49","-1.554","0.0"],
    [1414836,"2026-06-03 04:20:00","52421","5.088","314.2","9.15","321.2","1015.4630000000001","19.85","45.22","0.455","0.0"],
    [1414837,"2026-06-03 04:30:00","52422","5.782","314.5","9.93","318.5","1015.503","19.59","45.17","3.8110000000000004","0.0"],
    [1414838,"2026-06-03 04:40:00","52423","5.093","312.0","8.2","312.4","1015.655","19.38","45.74","8.81","0.0"],
    [1414839,"2026-06-03 04:50:00","52424","5.432","313.5","8.4","314.8","1015.7510000000001","19.32","45.66","14.8","0.0"],
    [1414840,"2026-06-03 05:00:00","52425","4.809","327.8","7.546","320.6","1015.801","19.29","45.86","24.32","0.0"],
    [1414841,"2026-06-03 05:10:00","52426","4.498","320.6","6.664","312.7","1015.926","19.25","46.11","30.16","0.0"],
    [1414842,"2026-06-03 05:20:00","52427","4.296","325.3","7.546","312.7","1015.945","19.08","46.71","28.75","0.0"],
    [1414843,"2026-06-03 05:30:00","52428","4.513999999999999","315.5","7.056","324.1","1015.9889999999999","19.02","46.99","66.22","0.0"],
    [1414844,"2026-06-03 05:40:00","52429","4.281000000000001","314.9","7.383","319.9","1016.064","19.28","46.32","101.4","0.0"],
    [1414845,"2026-06-03 05:50:00","52430","4.585","317.0","7.121","316.7","1016.118","19.5","45.75","138.7","0.0"],
    [1414846,"2026-06-03 06:00:00","52431","4.414","319.3","6.729","324.4","1016.183","19.74","45.13","169.5","0.0"],
    [1414847,"2026-06-03 06:10:00","52432","4.982","315.8","7.121","339.8","1016.2710000000001","19.73","45.21","203.0","0.0"],
    [1414848,"2026-06-03 06:20:00","52433","4.636","317.8","6.893","321.5","1016.2669999999999","19.88","44.87","237.1","0.0"],
    [1414849,"2026-06-03 06:30:00","52434","4.135","311.1","5.913","296.3","1016.212","20.18","44.28","271.9","0.0"],
    [1414850,"2026-06-03 06:40:00","52435","4.698","307.6","6.664","305.2","1016.247","20.24","44.09","308.3","0.0"],
    [1414851,"2026-06-03 06:50:00","52436","4.784","318.4","7.154","331.5","1016.312","20.45","43.55","344.5","0.0"],
    [1414852,"2026-06-03 07:00:00","52437","4.19","312.2","6.566","313.9","1016.365","20.75","43.02","380.7","0.0"],
    [1414853,"2026-06-03 07:10:00","52438","4.175","323.6","6.566","324.5","1016.439","21.13","42.44","416.5","0.0"],
    [1414854,"2026-06-03 07:20:00","52439","4.129","305.5","6.435","297.1","1016.404","21.23","42.34","451.8","0.0"],
    [1414855,"2026-06-03 07:30:00","52440","4.478","319.4","7.219","332.4","1016.5360000000001","21.47","41.84","485.6","0.0"],
    [1414856,"2026-06-03 07:40:00","52441","3.867","303.5","6.533","295.8","1016.665","21.81","41.26","518.3","0.0"],
    [1414857,"2026-06-03 07:50:00","52442","4.5360000000000005","305.2","7.056","306.3","1016.821","21.9","40.84","552.1","0.0"],
    [1414858,"2026-06-03 08:00:00","52443","4.359","296.3","7.252","286.3","1016.908","22.05","40.19","585.6","0.0"],
    [1414859,"2026-06-03 08:10:00","52444","3.11","303.3","4.835","322.1","1016.8860000000001","22.61","38.79","617.3","0.0"],
    [1414860,"2026-06-03 08:20:00","52445","2.92","300.7","4.606","298.4","1016.831","22.73","38.81","647.3","0.0"],
    [1414861,"2026-06-03 08:30:00","52446","1.321","229.7","3.365","212.6","1016.821","22.95","38.64","637.1","0.0"],
    [1414862,"2026-06-03 08:40:00","52447","1.44","203.7","2.875","285.9","1016.8560000000001","23.44","37.63","705.4","0.0"],
    [1414863,"2026-06-03 08:50:00","52448","0.9890000000000001","284.4","3.365","287.5","1016.8639999999999","23.42","38.03","695.9","0.0"],
    [1414864,"2026-06-03 09:00:00","52449","1.038","299.7","4.508","278.3","1016.8810000000001","23.42","37.85","757.1","0.0"],
    [1414865,"2026-06-03 09:10:00","52450","1.178","103.1","3.332","114.6","1016.878","23.8","38.05","781.1","0.0"],
    [1414866,"2026-06-03 09:20:00","52451","1.855","117.9","4.149","102.1","1016.9780000000001","23.65","38.93","807.0","0.0"],
    [1414867,"2026-06-03 09:30:00","52452","2.136","134.0","5.096","182.8","1017.025","23.41","41.45","827.0","0.0"],
    [1414868,"2026-06-03 09:40:00","52453","2.148","146.3","5.194","186.6","1016.944","23.07","42.48","848.0","0.0"],
    [1414869,"2026-06-03 09:50:00","52454","2.309","153.4","5.978","176.4","1016.954","23.4","41.96","866.0","0.0"],
    [1414870,"2026-06-03 10:00:00","52455","3.821","170.8","6.664","179","1017.065","22.24","44.41","886.0","0.0"],
    [1414871,"2026-06-03 10:10:00","52456","2.016","162.9","4.639","164.3","1017.1410000000001","22.68","46.2","898.0","0.0"],
    [1414872,"2026-06-03 10:20:00","52457","1.8159999999999998","141.6","5.521","110.9","1017.1039999999999","23.18","45.46","910.0","0.0"],
    [1414873,"2026-06-03 10:30:00","52458","3.498","180.1","5.978","176.8","1017.138","22.81","46.08","922.0","0.0"],
    [1414874,"2026-06-03 10:40:00","52459","2.739","191.2","4.998","199.1","1017.09","23.11","45.65","933.0","0.0"],
    [1414875,"2026-06-03 10:50:00","52460","3.853","183.7","6.207","178.7","1017.0980000000001","22.73","46.81","944.0","0.0"],
    [1414876,"2026-06-03 11:00:00","52461","3.102","189.4","5.096","188.6","1017.105","22.88","44.74","951.0","0.0"],
    [1414877,"2026-06-03 11:10:00","52462","3.116","190.5","5.292","228.1","1017.1560000000001","23.36","43.11","957.0","0.0"],
    [1414878,"2026-06-03 11:20:00","52463","3.6489999999999996","205.5","6.207","232.6","1017.16","23.18","42.29","962.0","0.0"],
    [1414879,"2026-06-03 11:30:00","52464","3.4330000000000003","205.7","6.109","219.4","1017.053","23.38","44.63","964.0","0.0"],
    [1414880,"2026-06-03 11:40:00","52465","3.141","198.1","5.619","181.2","1017.0360000000001","24.21","42.87","964.0","0.0"],
    [1414881,"2026-06-03 11:50:00","52466","3.926","185.6","6.533","182.4","1017.041","23.26","44.31","970.0","0.0"],
    [1414882,"2026-06-03 12:00:00","52467","3.423","204.6","6.207","225.7","1016.935","23.53","43.75","963.0","0.0"],
    [1414883,"2026-06-03 12:10:00","52468","3.944","196.6","6.925","179.6","1016.7719999999999","24.37","42.08","964.0","0.0"],
    [1414884,"2026-06-03 12:20:00","52469","4.65","190.4","8.17","179","1016.5980000000001","23.04","46.4","966.0","0.0"],
    [1414885,"2026-06-03 12:30:00","52470","4.405","182.7","6.566","184.2","1016.503","23.37","45.86","961.0","0.0"],
    [1414886,"2026-06-03 12:40:00","52471","4.121","201.8","6.991","215","1016.448","23.84","44.39","953.0","0.0"],
    [1414887,"2026-06-03 12:50:00","52472","4.11","204.6","6.86","221.8","1016.4060000000001","23.95","43.5","946.0","0.0"],
    [1414888,"2026-06-03 13:00:00","52473","4.49","194.6","8.1","184.4","1016.3710000000001","23.66","45.05","938.0","0.0"],
    [1414889,"2026-06-03 13:10:00","52474","4.11","200.1","7.056","216.8","1016.2510000000001","23.9","44.68","925.0","0.0"],
    [1414890,"2026-06-03 13:20:00","52475","3.302","199.2","6.239","165.4","1016.172","24.14","44.65","913.0","0.0"],
    [1414891,"2026-06-03 13:30:00","52476","3.719","187.2","6.174","180.7","1016.0930000000001","24.01","43.66","899.0","0.0"],
    [1414892,"2026-06-03 13:40:00","52477","3.142","181.8","5.88","159.6","1015.965","24.03","45.21","882.0","0.0"],
    [1414893,"2026-06-03 13:50:00","52478","4.255","176.6","5.945","163.2","1015.852","23.1","48.1","867.0","0.0"],
    [1414894,"2026-06-03 14:00:00","52479","3.2110000000000003","183.9","5.292","176.9","1015.67","23.95","44.67","849.0","0.0"],
    [1414895,"2026-06-03 14:10:00","52480","2.997","192.6","5.684","197.5","1015.627","24.2","45.52","832.0","0.0"],
    [1414896,"2026-06-03 14:20:00","52481","3.6060000000000003","174.7","6.174","146","1015.502","23.89","48.34","813.0","0.0"],
    [1414897,"2026-06-03 14:30:00","52482","3.2230000000000003","179.2","5.749","185","1015.377","23.89","46.62","792.8","0.0"],
    [1414898,"2026-06-03 14:40:00","52483","3.685","188.3","6.501","197","1015.452","24.54","44.56","772.7","0.0"],
    [1414899,"2026-06-03 14:50:00","52484","3.839","186.6","7.056","180.4","1015.446","24.23","47.47","749.4","0.0"],
    [1414900,"2026-06-03 15:00:00","52485","3.4010000000000002","185.3","5.717","188.4","1015.201","24.44","48.78","726.3","0.0"],
    [1414901,"2026-06-03 15:10:00","52486","3.866","207.5","7.644","221.4","1015.115","25.18","45.92","705.9","0.0"],
    [1414902,"2026-06-03 15:20:00","52487","5.178999999999999","214.1","9.08","217.7","1015.153","25.0","47.03","657.1","0.0"],
    [1414903,"2026-06-03 15:30:00","52488","4.3580000000000005","206.0","7.187","218.8","1015.067","24.91","48.44","643.1","0.0"],
    [1414904,"2026-06-03 15:40:00","52489","5.617000000000001","218.1","8.33","227.8","1015.015","24.64","49.34","618.2","0.0"],
    [1414905,"2026-06-03 15:50:00","52490","5.064","209.8","9.41","218.1","1014.857","24.58","50.28","569.3","0.0"],
    [1414906,"2026-06-03 16:00:00","52491","4.0360000000000005","210.7","7.84","199.8","1014.695","24.86","52.4","567.0","0.0"],
    [1414907,"2026-06-03 16:10:00","52492","4.898","209.1","9.57","206.1","1014.632","24.64","54.87","536.3","0.0"],
    [1414908,"2026-06-03 16:20:00","52493","6.148","216.6","10.85","222.7","1014.576","24.47","57.6","501.6","0.0"],
    [1414909,"2026-06-03 16:30:00","52494","4.713","213.3","8.36","197.3","1014.4","24.27","60.27","467.3","0.0"],
    [1414910,"2026-06-03 16:40:00","52495","5.912999999999999","212.9","8.75","226.1","1014.3860000000001","24.1","61.63","436.2","0.0"],
    [1414911,"2026-06-03 16:50:00","52496","6.071000000000001","211.2","9.11","227.7","1014.317","23.93","62.91","403.7","0.0"],
    [1414912,"2026-06-03 17:00:00","52497","6.55","216.0","11.4","211.5","1014.1410000000001","23.9","63.18","373.0","0.0"],
    [1414913,"2026-06-03 17:10:00","52498","5.632000000000001","218.8","10","223.2","1013.9689999999999","23.82","64.09","341.1","0.0"],
    [1414914,"2026-06-03 17:20:00","52499","5.757000000000001","218.4","8.79","221.6","1013.956","23.72","63.92","309.3","0.0"],
    [1414915,"2026-06-03 17:30:00","52500","6.272","214.6","9.51","204.1","1013.9910000000001","23.54","63.19","276.3","0.0"],
    [1414916,"2026-06-03 17:40:00","52501","6.047999999999999","222.9","10.49","207.1","1014.135","23.53","61.49","244.7","0.0"],
    [1414917,"2026-06-03 17:50:00","52502","5.596","225.0","8.82","219","1014.199","23.18","62.41","213.6","0.0"],
    [1414918,"2026-06-03 18:00:00","52503","4.782","209.9","7.415","218.4","1014.153","23.29","62.53","182.1","0.0"],
    [1414919,"2026-06-03 18:10:00","52504","5.037","216.9","8","221.2","1014.1110000000001","23.11","63.26","152.4","0.0"],
    [1414920,"2026-06-03 18:20:00","52505","4.825","218.1","7.219","236.5","1014.127","23.0","63.72","124.3","0.0"],
    [1414921,"2026-06-03 18:30:00","52506","4.91","218.8","7.448","204.7","1014.1310000000001","22.95","64.09","97.6","0.0"],
    [1414922,"2026-06-03 18:40:00","52507","5.7410000000000005","222.0","8.72","226.2","1014.2230000000001","22.67","65.22","73.75","0.0"],
    [1414923,"2026-06-03 18:50:00","52508","5.23","219.6","7.154","224.8","1014.198","22.62","66.52","49.83","0.0"],
    [1414924,"2026-06-03 19:00:00","52509","4.7","225.9","8.17","222.7","1014.215","22.35","67.37","27.56","0.0"],
    [1414925,"2026-06-03 19:10:00","52510","4.69","225.9","8.98","222.4","1014.211","22.23","68.02","8.2","0.0"],
    [1414926,"2026-06-03 19:20:00","52511","4.696000000000001","224.1","7.317","224.7","1014.273","22.05","69.25","3.157","0.0"],
    [1414927,"2026-06-03 19:30:00","52512","4.9510000000000005","225.7","7.775","203","1014.327","21.98","70.59","0.051","0.0"],
    [1414928,"2026-06-03 19:40:00","52513","5.462000000000001","221.1","8.69","192.4","1014.3480000000001","21.91","70.64","-1.558","0.0"],
    [1414929,"2026-06-03 19:50:00","52514","5.718","218.1","9.28","223.6","1014.301","21.91","71.14","-2.016","0.0"],
    [1414930,"2026-06-03 20:00:00","52515","4.543","216.7","8.62","229.4","1014.3919999999999","21.91","72.35","-2.511","0.0"],
    [1414931,"2026-06-03 20:10:00","52516","3.763","219.2","7.219","230.7","1014.591","21.88","73.25","-2.5469999999999997","0.0"],
    [1414932,"2026-06-03 20:20:00","52517","3.534","224.7","6.207","205.9","1014.9010000000001","21.86","73.75","-2.006","0.0"],
    [1414933,"2026-06-03 20:30:00","52518","3.957","216.3","7.187","212.4","1014.988","21.87","74.39","-1.97","0.0"],
    [1414934,"2026-06-03 20:40:00","52519","3.9330000000000003","216.5","7.383","223.7","1015.0219999999999","21.91","74.47","-1.8519999999999999","0.0"],
    [1414935,"2026-06-03 20:50:00","52520","4.171","213.2","6.631","231.8","1014.909","21.9","74.88","-2.237","0.0"],
    [1414936,"2026-06-03 21:00:00","52521","3.389","214.6","5.815","202.8","1014.8380000000001","21.85","75.77","-2.608","0.0"],
    [1414937,"2026-06-03 21:10:00","52522","3.5589999999999997","214.0","5.553","211.6","1014.809","21.85","76.25","-2.311","0.0"],
    [1414938,"2026-06-03 21:20:00","52523","3.554","215.3","5.325","209","1014.797","21.91","76.56","-1.909","0.0"],
    [1414939,"2026-06-03 21:30:00","52524","3.2310000000000003","215.7","5.292","221.8","1014.798","22.01","76.57","-1.3259999999999998","0.0"],
    [1414940,"2026-06-03 21:40:00","52525","3.234","222.4","4.965","209.3","1014.7180000000001","22.01","76.58","-1.002","0.0"],
    [1414941,"2026-06-03 21:50:00","52526","3.323","222.2","5.978","218.7","1014.705","22.03","76.93","-0.88","0.0"],
    [1414942,"2026-06-03 22:00:00","52527","3.0","222.1","4.9","238.4","1014.762","22.0","76.73","-0.721","0.0"],
    [1414943,"2026-06-03 22:10:00","52528","3.3280000000000003","217.3","4.9","234.8","1014.799","22.04","76.49","-0.8029999999999999","0.0"],
    [1414944,"2026-06-03 22:20:00","52529","3.596","221.8","5.847","207.6","1014.7360000000001","21.99","76.98","-0.608","0.0"],
    [1414945,"2026-06-03 22:30:00","52530","3.3","217.1","6.011","222.5","1014.702","22.01","77.28","-0.8370000000000001","0.0"],
    [1414946,"2026-06-03 22:40:00","52531","3.27","222.2","5.292","233.2","1014.857","22.0","77.72","-0.687","0.0"],
    [1414947,"2026-06-03 22:50:00","52532","3.4789999999999996","222.4","5.325","234.6","1014.904","21.98","78.16","-0.649","0.0"],
    [1414948,"2026-06-03 23:00:00","52533","3.008","217.9","5.684","207.3","1014.855","21.98","78.39","-0.726","0.0"],
    [1414949,"2026-06-03 23:10:00","52534","3.4339999999999997","220.9","5.815","219.8","1014.796","21.94","78.65","-0.735","0.0"],
    [1414950,"2026-06-03 23:20:00","52535","3.37","220.3","6.86","216.7","1014.7280000000001","21.94","78.83","-0.67","0.0"],
    [1414951,"2026-06-03 23:30:00","52536","3.012","216.7","4.835","232","1014.615","21.96","78.94","-0.8029999999999999","0.0"],
    [1414952,"2026-06-03 23:40:00","52537","3.219","219.4","5.553","228.4","1014.528","21.9","79.26","-0.6920000000000001","0.0"],
    [1414953,"2026-06-03 23:50:00","52538","3.0989999999999998","222.7","4.998","219.4","1014.424","21.89","78.93","-0.7490000000000001","0.0"],
    [1414954,"2026-06-04 00:00:00","52539","3.549","218.7","5.619","206.9","1014.313","21.94","78.42","-0.7829999999999999","0.0"],
    [1414955,"2026-06-04 00:10:00","52540","3.307","220.4","5.782","212","1014.288","21.94","78.62","-0.763","0.0"],
    [1414956,"2026-06-04 00:20:00","52541","3.138","221.4","5.717","220.3","1014.325","21.94","78.47","-0.889","0.0"],
    [1414957,"2026-06-04 00:30:00","52542","2.441","229.0","4.508","232","1014.331","21.93","78.71","-0.748","0.0"],
    [1414958,"2026-06-04 00:40:00","52543","2.842","227.3","4.769","217.7","1014.2189999999999","21.92","78.9","-0.8540000000000001","0.0"],
    [1414959,"2026-06-04 00:50:00","52544","2.747","214.9","4.769","217.7","1014.0160000000001","21.96","79.25","-0.892","0.0"],
    [1414960,"2026-06-04 01:00:00","52545","2.8569999999999998","216.6","4.181","209.5","1013.895","21.91","80.3","-0.8490000000000001","0.0"],
    [1414961,"2026-06-04 01:10:00","52546","2.352","214.1","4.41","208","1013.76","21.9","80.9","-0.9570000000000001","0.0"],
    [1414962,"2026-06-04 01:20:00","52547","3.014","218.0","4.606","224.5","1013.573","21.87","81.3","-0.836","0.0"],
    [1414963,"2026-06-04 01:30:00","52548","2.627","211.5","4.965","221.9","1013.336","21.88","82.0","-1.07","0.0"],
    [1414964,"2026-06-04 01:40:00","52549","2.687","218.8","4.443","236.9","1013.203","21.87","82.9","-1.1420000000000001","0.0"],
    [1414965,"2026-06-04 01:50:00","52550","2.7960000000000003","215.8","4.083","221.3","1013.0189999999999","21.8","83.0","-1.319","0.0"],
    [1414966,"2026-06-04 02:00:00","52551","3.0069999999999997","221.8","4.573","225.8","1012.9019999999999","21.66","83.5","-1.9069999999999998","0.0"],
    [1414967,"2026-06-04 02:10:00","52552","2.909","219.4","4.443","232.9","1012.863","21.56","83.9","-1.919","0.0"],
    [1414968,"2026-06-04 02:20:00","52553","2.845","218.8","4.41","215.5","1012.8760000000001","21.47","84.4","-1.965","0.0"],
    [1414969,"2026-06-04 02:30:00","52554","2.19","231.4","3.724","221.9","1012.873","21.38","84.2","-1.956","0.0"],
    [1414970,"2026-06-04 02:40:00","52555","2.3169999999999997","221.2","3.887","235.3","1012.836","21.41","83.9","-2.04","0.0"],
    [1414971,"2026-06-04 02:50:00","52556","2.267","216.4","3.855","210","1012.757","21.41","83.9","-2.102","0.0"],
    [1414972,"2026-06-04 03:00:00","52557","1.409","208.6","3.234","202.5","1012.57","21.38","84.3","-2.005","0.0"],
    [1414973,"2026-06-04 03:10:00","52558","1.5490000000000002","217.1","3.299","209.7","1012.4780000000001","21.34","84.9","-1.3659999999999999","0.0"],
    [1414974,"2026-06-04 03:20:00","52559","1.742","215.1","3.267","209.6","1012.436","21.41","85.0","-1.4509999999999998","0.0"],
    [1414975,"2026-06-04 03:30:00","52560","1.939","219.5","3.528","199","1012.445","21.4","85.5","-1.3869999999999998","0.0"],
    [1414976,"2026-06-04 03:40:00","52561","1.396","205.2","2.744","220.8","1012.372","21.33","85.9","-1.8","0.0"],
    [1414977,"2026-06-04 03:50:00","52562","1.97","221.9","3.103","221.9","1012.368","21.18","86.6","-2.109","0.0"],
    [1414978,"2026-06-04 04:00:00","52563","2.41","214.1","3.365","212.4","1012.395","21.18","87.1","-1.9769999999999999","0.0"],
    [1414979,"2026-06-04 04:10:00","52564","2.1319999999999997","213.6","3.299","218.5","1012.5","21.16","87.6","-1.062","0.0"],
    [1414980,"2026-06-04 04:20:00","52565","1.679","208.5","2.581","203.3","1012.549","21.23","87.5","0.1","0.0"],
    [1414981,"2026-06-04 04:30:00","52566","1.311","213.7","2.679","209.9","1012.525","21.29","87.3","1.9469999999999998","0.0"],
    [1414982,"2026-06-04 04:40:00","52567","1.527","218.0","2.515","206.4","1012.579","21.38","87.0","6.239","0.0"],
    [1414983,"2026-06-04 04:50:00","52568","1.46","212.5","3.201","222.8","1012.549","21.54","86.5","15.47","0.0"],
    [1414984,"2026-06-04 05:00:00","52569","2.439","216.0","3.561","220.3","1012.615","21.58","86.2","28.79","0.0"],
    [1414985,"2026-06-04 05:10:00","52570","2.437","212.0","5.521","198.6","1012.592","21.64","86.0","34.07","0.0"],
    [1414986,"2026-06-04 05:20:00","52571","2.795","211.3","4.737","222.4","1012.566","21.69","85.3","49.25","0.0"],
    [1414987,"2026-06-04 05:30:00","52572","2.427","224.2","3.855","208.8","1012.551","21.84","84.7","75.5","0.0"],
    [1414988,"2026-06-04 05:40:00","52573","2.211","226.0","5.259","216.6","1012.654","21.95","84.4","91.8","0.0"],
    [1414989,"2026-06-04 05:50:00","52574","3.0380000000000003","220.1","5.292","210.9","1012.6510000000001","22.04","83.9","116.8","0.0"],
    [1414990,"2026-06-04 06:00:00","52575","2.8789999999999996","223.7","5.063","190.9","1012.653","22.16","82.8","120.8","0.0"],
    [1414991,"2026-06-04 06:10:00","52576","2.531","210.3","4.639","215.5","1012.669","22.34","82.0","137.4","0.0"],
    [1414992,"2026-06-04 06:20:00","52577","2.354","206.2","5.586","257.8","1012.638","22.34","83.2","154.0","0.0"],
    [1414993,"2026-06-04 06:30:00","52578","2.5540000000000003","211.3","6.37","217.3","1012.711","22.21","83.5","127.5","0.0"],
    [1414994,"2026-06-04 06:40:00","52579","2.647","206.9","5.88","218.3","1012.678","22.5","82.2","263.5","0.0"],
    [1414995,"2026-06-04 06:50:00","52580","3.373","210.8","8.66","178.8","1012.681","22.88","79.98","347.6","0.0"],
    [1414996,"2026-06-04 07:00:00","52581","3.764","215.2","6.076","223.6","1012.6510000000001","22.94","79.41","404.1","0.0"],
    [1414997,"2026-06-04 07:10:00","52582","2.647","199.9","5.227","215.6","1012.502","23.39","77.86","466.9","0.0"],
    [1414998,"2026-06-04 07:20:00","52583","3.404","206.3","6.697","198.2","1012.44","23.18","77.85","232.8","0.0"],
    [1414999,"2026-06-04 07:30:00","52584","3.072","208.8","5.651","215.6","1012.3919999999999","22.96","79.36","351.3","0.0"],
    [1415000,"2026-06-04 07:40:00","52585","2.74","198.8","5.227","225.8","1012.337","23.62","75.92","461.9","0.0"],
    [1415001,"2026-06-04 07:50:00","52586","3.535","204.3","5.455","220.2","1012.2289999999999","23.54","75.01","461.1","0.0"],
    [1415002,"2026-06-04 08:00:00","52587","3.138","194.7","6.631","173","1012.0889999999999","23.52","75.58","567.0","0.0"],
    [1415003,"2026-06-04 08:10:00","52588","3.477","202.9","6.011","206","1011.9760000000001","24.04","74.14","597.4","0.0"],
    [1415004,"2026-06-04 08:20:00","52589","3.2539999999999996","194.4","5.945","212.8","1011.975","24.06","73.44","626.9","0.0"],
    [1415005,"2026-06-04 08:30:00","52590","3.5069999999999997","199.4","6.599","215.1","1011.944","24.13","72.12","585.0","0.0"],
    [1415006,"2026-06-04 08:40:00","52591","3.713","201.2","6.664","172.2","1011.825","24.14","71.45","688.6","0.0"],
    [1415007,"2026-06-04 08:50:00","52592","4.39","209.5","6.925","219.6","1011.825","24.27","70.59","689.7","0.0"],
    [1415008,"2026-06-04 09:00:00","52593","4.206","207.0","6.631","225.4","1011.801","24.22","71.17","754.4","0.0"],
    [1415009,"2026-06-04 09:10:00","52594","3.681","203.1","6.435","162.4","1011.722","24.59","69.68","560.1","0.0"],
    [1415010,"2026-06-04 09:20:00","52595","3.173","200.2","6.925","217.6","1011.663","24.57","68.56","649.1","0.0"],
    [1415011,"2026-06-04 09:30:00","52596","4.031000000000001","202.4","6.533","175.8","1011.6389999999999","24.76","67.23","687.1","0.0"],
    [1415012,"2026-06-04 09:40:00","52597","3.667","205.8","6.37","221.5","1011.698","24.38","69.05","464.5","0.0"],
    [1415013,"2026-06-04 09:50:00","52598","2.82","202.2","5.815","163.4","1011.697","24.25","70.26","338.7","0.0"],
    [1415014,"2026-06-04 10:00:00","52599","3.025","200.5","7.546","187.3","1011.698","23.82","71.97","282.0","0.0"],
    [1415015,"2026-06-04 10:10:00","52600","3.5269999999999997","202.8","6.043","215.1","1011.7180000000001","23.55","73.59","221.5","0.0"],
    [1415016,"2026-06-04 10:20:00","52601","2.943","197.1","5.88","181.1","1011.73","23.5","74.66","250.6","0.0"],
    [1415017,"2026-06-04 10:30:00","52602","2.8360000000000003","204.7","5.096","218.9","1011.62","23.52","74.67","255.0","0.0"],
    [1415018,"2026-06-04 10:40:00","52603","3.303","205.3","5.619","166.5","1011.567","23.68","74.93","503.3","0.0"],
    [1415019,"2026-06-04 10:50:00","52604","3.5989999999999998","197.7","6.174","180.9","1011.418","24.56","72.29","806.0","0.0"],
    [1415020,"2026-06-04 11:00:00","52605","3.681","195.3","6.86","186.3","1011.3610000000001","24.37","72.98","623.8","0.0"],
    [1415021,"2026-06-04 11:10:00","52606","3.952","205.2","6.501","215.3","1011.2589999999999","24.5","72.33","516.8","0.0"],
    [1415022,"2026-06-04 11:20:00","52607","3.7489999999999997","204.6","6.174","208.1","1011.145","24.09","73.93","388.6","0.0"],
    [1415023,"2026-06-04 11:30:00","52608","3.71","202.0","6.664","182.4","1011.145","24.09","73.99","353.1","0.0"],
    [1415024,"2026-06-04 11:40:00","52609","3.779","202.8","6.664","220.2","1011.123","23.87","75.07","273.3","0.0"],
    [1415025,"2026-06-04 11:50:00","52610","2.884","201.0","5.913","228.1","1011.159","23.8","76.0","227.6","0.0"],
    [1415026,"2026-06-04 12:00:00","52611","2.521","201.2","5.717","212.7","1011.1439999999999","23.74","76.48","148.7","0.0"],
    [1415027,"2026-06-04 12:10:00","52612","2.8480000000000003","200.2","5.847","170.3","1011.107","23.49","77.72","114.9","0.0"],
    [1415028,"2026-06-04 12:20:00","52613","3.075","205.8","5.423","187.9","1011.012","23.25","78.71","100.3","0.0"],
    [1415029,"2026-06-04 12:30:00","52614","2.897","201.6","5.357","172.9","1010.924","23.22","79.12","114.9","0.0"],
    [1415030,"2026-06-04 12:40:00","52615","2.815","206.6","6.076","207.1","1010.7769999999999","23.4","78.67","183.0","0.0"],
    [1415031,"2026-06-04 12:50:00","52616","3.6860000000000004","207.0","6.729","209","1010.623","23.56","77.61","242.4","0.0"],
    [1415032,"2026-06-04 13:00:00","52617","4.808","213.0","7.546","223.1","1010.4910000000001","23.62","77.43","431.1","0.0"],
    [1415033,"2026-06-04 13:10:00","52618","3.122","196.2","6.664","219.6","1010.41","24.02","76.17","415.6","0.0"],
    [1415034,"2026-06-04 13:20:00","52619","3.495","200.8","6.011","216.1","1010.398","23.9","76.04","316.6","0.0"],
    [1415035,"2026-06-04 13:30:00","52620","3.335","203.2","6.566","174.7","1010.3710000000001","24.02","76.12","286.0","0.0"],
    [1415036,"2026-06-04 13:40:00","52621","3.537","205.7","6.076","207.6","1010.305","23.9","76.89","292.2","0.0"],
    [1415037,"2026-06-04 13:50:00","52622","3.128","196.9","6.403","212.6","1010.1510000000001","23.97","76.38","344.5","0.0"],
    [1415038,"2026-06-04 14:00:00","52623","3.387","205.8","5.684","224.3","1010.058","23.97","76.75","328.7","0.0"],
    [1415039,"2026-06-04 14:10:00","52624","2.9610000000000003","199.3","5.651","215","1010.073","23.88","77.14","165.0","0.0"],
    [1415040,"2026-06-04 14:20:00","52625","2.714","206.3","5.161","218.4","1010.077","23.51","78.78","163.7","0.0"],
    [1415041,"2026-06-04 14:30:00","52626","3.1839999999999997","207.1","5.749","212.1","1010.0110000000001","23.51","78.59","185.4","0.0"],
    [1415042,"2026-06-04 14:40:00","52627","3.22","195.3","5.978","169.2","1009.882","23.67","78.15","275.0","0.0"],
    [1415043,"2026-06-04 14:50:00","52628","2.682","198.5","5.815","239.8","1009.7710000000001","23.96","76.78","299.3","0.0"],
    [1415044,"2026-06-04 15:00:00","52629","3.389","189.2","5.651","176.8","1009.573","23.96","76.97","273.6","0.0"],
    [1415045,"2026-06-04 15:10:00","52630","2.822","190.8","5.913","193.2","1009.533","23.88","77.48","243.8","0.0"],
    [1415046,"2026-06-04 15:20:00","52631","3.3310000000000004","185.6","6.305","192.5","1009.557","23.43","79.56","169.2","0.0"],
    [1415047,"2026-06-04 15:30:00","52632","3.1010000000000004","181.3","5.292","191.1","1009.4580000000001","23.28","80.6","162.6","0.0"],
    [1415048,"2026-06-04 15:40:00","52633","2.725","186.5","5.357","178.3","1009.283","23.47","79.82","171.8","0.0"],
    [1415049,"2026-06-04 15:50:00","52634","2.662","182.3","5.259","178.3","1009.107","23.73","79.25","338.6","0.0"],
    [1415050,"2026-06-04 16:00:00","52635","3.054","179.5","5.292","193.6","1009.0110000000001","23.73","79.24","273.2","0.0"],
    [1415051,"2026-06-04 16:10:00","52636","2.903","185.6","5.717","190.9","1009.1389999999999","23.98","78.64","378.0","0.0"],
    [1415052,"2026-06-04 16:20:00","52637","2.84","188.3","5.488","184.7","1009.294","23.88","79.09","256.8","0.0"],
    [1415053,"2026-06-04 16:30:00","52638","2.4330000000000003","186.1","5.194","193.3","1009.318","23.54","80.4","137.0","0.0"],
    [1415054,"2026-06-04 16:40:00","52639","2.6710000000000003","187.1","4.802","184.2","1009.363","23.33","81.6","89.3","0.0"],
    [1415055,"2026-06-04 16:50:00","52640","2.305","185.5","4.051","166.6","1009.278","23.17","82.4","88.8","0.0"],
    [1415056,"2026-06-04 17:00:00","52641","2.464","180.1","4.345","201","1009.44","23.09","82.8","48.73","0.0"],
    [1415057,"2026-06-04 17:10:00","52642","2.401","189.6","5.063","187.8","1009.58","22.88","84.1","18.8","0.0"],
    [1415058,"2026-06-04 17:20:00","52643","1.935","200.4","3.463","231.8","1009.813","22.9","84.1","10.87","0.0"],
    [1415059,"2026-06-04 17:30:00","52644","1.386","203.8","3.071","199.5","1009.9019999999999","22.92","83.7","9.42","0.0"],
    [1415060,"2026-06-04 17:40:00","52645","2.128","176.8","3.855","183","1009.8689999999999","22.82","83.8","12.61","0.0"],
    [1415061,"2026-06-04 17:50:00","52646","2.262","172.1","3.365","183.2","1009.908","22.68","84.6","12.36","0.0"],
    [1415062,"2026-06-04 18:00:00","52647","1.501","164.9","3.397","170.3","1009.893","22.71","84.6","17.58","0.0"],
    [1415063,"2026-06-04 18:10:00","52648","0.7559999999999999","150.3","2.94","174.8","1010.073","22.78","84.1","8.39","0.0"],
    [1415064,"2026-06-04 18:20:00","52649","1.026","163.6","3.005","185.7","1010.2439999999999","22.77","84.2","6.277","0.0"],
    [1415065,"2026-06-04 18:30:00","52650","1.2","118.0","3.822","135","1010.317","22.65","86.5","5.011","0.0"],
    [1415066,"2026-06-04 18:40:00","52651","1.689","134.0","3.887","120.4","1010.395","22.2","89.3","6.442","0.0"],
    [1415067,"2026-06-04 18:50:00","52652","1.4569999999999999","111.6","4.181","154.8","1010.628","21.97","90.9","3.545","0.0"],
    [1415068,"2026-06-04 19:00:00","52653","4.253","97.9","11.27","81.2","1010.957","21.63","90.6","1.483","0.0"],
    [1415069,"2026-06-04 19:10:00","52654","7.519","67.69","11.27","67.37","1011.3810000000001","18.63","89.9","3.153","0.0"],
    [1415070,"2026-06-04 19:20:00","52655","7.497999999999999","71.37","10.75","72.1","1011.493","18.14","90.8","1.3","0.0"],
    [1415071,"2026-06-04 19:30:00","52656","7.063","67.24","10.19","68.42","1011.6110000000001","18.02","89.7","-0.764","0.0"],
    [1415072,"2026-06-04 19:40:00","52657","6.071000000000001","73.97","9.21","80.1","1011.673","18.13","90.1","-1.207","0.0"],
    [1415073,"2026-06-04 19:50:00","52658","7.236000000000001","76.36","10.45","68.22","1011.689","17.88","88.2","-1.1079999999999999","0.0"],
    [1415074,"2026-06-04 20:00:00","52659","6.934","70.65","9.96","68.1","1011.835","17.92","86.7","-0.6609999999999999","0.0"],
    [1415075,"2026-06-04 20:10:00","52660","7.435","67.08","11.37","60.08","1011.997","17.9","85.6","-0.36700000000000005","0.0"],
    [1415076,"2026-06-04 20:20:00","52661","4.894","45.56","8.23","49.84","1012.791","17.67","88.3","-1.3130000000000002","0.0"],
    [1415077,"2026-06-04 20:30:00","52662","4.401","30.39","7.285","44.86","1013.433","16.77","94.2","0.307","0.0"],
    [1415078,"2026-06-04 20:40:00","52663","3.1830000000000003","24.11","5.161","14.56","1013.842","16.51","95.7","-0.5479999999999999","0.0"],
    [1415079,"2026-06-04 20:50:00","52664","3.798","47.55","7.154","53.5","1013.73","16.56","95.9","-0.34","0.0"],
    [1415080,"2026-06-04 21:00:00","52665","5.4","61.9","7.84","73.2","1013.62","16.69","95.6","-0.68","0.0"],
    [1415081,"2026-06-04 21:10:00","52666","4.205","44.6","7.285","75.08","1013.763","16.74","93.8","-0.071","0.0"],
    [1415082,"2026-06-04 21:20:00","52667","4.4510000000000005","48.71","9.02","71.45","1013.765","16.82","93.0","-0.386","0.0"],
    [1415083,"2026-06-04 21:30:00","52668","5.997000000000001","63.94","9.05","79.99","1013.4789999999999","16.67","92.7","-0.332","0.0"],
    [1415084,"2026-06-04 21:40:00","52669","5.347","52.53","7.873","51.73","1013.8739999999999","16.62","93.1","-0.45399999999999996","0.0"],
    [1415085,"2026-06-04 21:50:00","52670","5.71","62.3","8.92","67.6","1013.845","16.61","92.5","-0.6659999999999999","0.0"],
    [1415086,"2026-06-04 22:00:00","52671","6.182","61.74","8.98","52.65","1013.655","16.76","91.6","-0.34700000000000003","0.0"],
    [1415087,"2026-06-04 22:10:00","52672","6.6370000000000005","65.85","9.18","60.64","1014.028","16.74","90.8","0.248","0.0"],
    [1415088,"2026-06-04 22:20:00","52673","6.154","61.87","9.8","60.63","1014.095","16.69","89.6","0.47100000000000003","0.0"],
    [1415089,"2026-06-04 22:30:00","52674","6.487","61.5","9.47","67.1","1014.044","16.77","88.5","0.301","0.0"],
    [1415090,"2026-06-04 22:40:00","52675","5.282","56.42","8.46","52.17","1014.258","16.9","88.1","-0.068","0.0"],
    [1415091,"2026-06-04 22:50:00","52676","4.762","56.17","7.415","70.17","1014.632","17.02","88.6","-0.037000000000000005","0.0"],
    [1415092,"2026-06-04 23:00:00","52677","4.791","55.67","7.056","60.03","1014.743","17.06","88.1","0.20199999999999999","0.0"],
    [1415093,"2026-06-04 23:10:00","52678","5.005","55.66","7.383","42.66","1014.811","17.02","87.5","0.077","0.0"],
    [1415094,"2026-06-04 23:20:00","52679","4.547","47.64","7.971","43.37","1014.696","17.02","87.7","-1.025","0.0"],
    [1415095,"2026-06-04 23:30:00","52680","5.771","50.95","8.98","52.38","1014.4960000000001","16.78","88.0","-1.213","0.0"],
    [1415096,"2026-06-04 23:40:00","52681","4.769","52.32","7.481","53.41","1014.669","16.69","88.5","-1.6119999999999999","0.0"],
    [1415097,"2026-06-04 23:50:00","52682","5.073","49.63","7.938","57.23","1014.8330000000001","16.54","89.0","-1.26","0.0"],
    [1415098,"2026-06-05 00:00:00","52683","5.246","46.76","7.546","53.25","1014.784","16.23","90.5","-0.9570000000000001","0.0"],
    [1415099,"2026-06-05 00:10:00","52684","4.703","47.61","7.873","45.37","1014.74","16.14","91.2","-1.196","0.0"],
    [1415100,"2026-06-05 00:20:00","52685","3.968","51.72","6.337","51.36","1014.755","16.21","91.8","-1.193","0.0"],
    [1415101,"2026-06-05 00:30:00","52686","4.52","52.42","7.252","49.97","1014.809","16.19","91.0","-1.172","0.0"],
    [1415102,"2026-06-05 00:40:00","52687","4.816","58.8","8.04","56.6","1014.813","16.28","89.9","-0.769","0.0"],
    [1415103,"2026-06-05 00:50:00","52688","4.751","55.3","6.958","52.52","1014.7660000000001","16.36","89.7","-1.193","0.0"],
    [1415104,"2026-06-05 01:00:00","52689","4.667","54.64","6.566","51.22","1014.783","16.36","89.3","-1.115","0.0"],
    [1415105,"2026-06-05 01:10:00","52690","4.473","56.24","7.252","66.78","1014.676","16.44","89.2","-0.546","0.0"],
    [1415106,"2026-06-05 01:20:00","52691","4.731","60.92","6.958","66.48","1014.6189999999999","16.43","88.7","-0.382","0.0"],
    [1415107,"2026-06-05 01:30:00","52692","4.301","61.25","6.468","83","1014.725","16.52","87.7","0.124","0.0"],
    [1415108,"2026-06-05 01:40:00","52693","3.8560000000000003","59.02","5.978","55.45","1014.8","16.67","86.9","0.21","0.0"],
    [1415109,"2026-06-05 01:50:00","52694","3.347","53.29","5.945","66.45","1014.8760000000001","16.79","86.1","0.17800000000000002","0.0"],
    [1415110,"2026-06-05 02:00:00","52695","2.9360000000000004","48.3","4.9","51.31","1014.8960000000001","16.88","85.4","0.2","0.0"],
    [1415111,"2026-06-05 02:10:00","52696","2.673","53.75","4.606","66.73","1014.967","16.95","84.9","0.228","0.0"],
    [1415112,"2026-06-05 02:20:00","52697","2.886","54.33","4.181","51.86","1014.9780000000001","16.99","84.6","0.252","0.0"],
    [1415113,"2026-06-05 02:30:00","52698","2.9189999999999996","53.45","5.39","62.56","1014.98","17.03","84.7","0.301","0.0"],
    [1415114,"2026-06-05 02:40:00","52699","2.6630000000000003","43.98","4.508","35.04","1015.0219999999999","17.06","84.9","0.28300000000000003","0.0"],
    [1415115,"2026-06-05 02:50:00","52700","2.359","46.31","4.149","53.85","1015.081","17.1","84.0","0.298","0.0"],
    [1415116,"2026-06-05 03:00:00","52701","2.017","40.83","3.855","27.51","1015.095","17.18","82.8","0.247","0.0"],
    [1415117,"2026-06-05 03:10:00","52702","2.807","49.57","4.508","58.33","1015.052","17.19","83.0","0.221","0.0"],
    [1415118,"2026-06-05 03:20:00","52703","2.1109999999999998","56.84","3.789","55.91","1015.058","17.15","83.9","-0.138","0.0"],
    [1415119,"2026-06-05 03:30:00","52704","2.104","42.21","3.234","24.12","1015.048","17.15","83.2","-0.20199999999999999","0.0"],
    [1415120,"2026-06-05 03:40:00","52705","1.88","46.08","2.875","34.41","1014.9839999999999","17.19","84.2","-0.43799999999999994","0.0"],
    [1415121,"2026-06-05 03:50:00","52706","1.7590000000000001","30.46","2.777","40.64","1014.9839999999999","17.17","85.3","-0.44","0.0"],
    [1415122,"2026-06-05 04:00:00","52707","1.286","24.44","2.319","30.73","1015.0980000000001","17.15","86.0","-0.434","0.0"],
    [1415123,"2026-06-05 04:10:00","52708","0.606","44.34","1.372","43.78","1015.105","17.19","86.7","-0.26899999999999996","0.0"],
    [1415124,"2026-06-05 04:20:00","52709","1.723","321.6","2.744","333.2","1015.198","17.16","87.1","0.49200000000000005","0.0"],
    [1415125,"2026-06-05 04:30:00","52710","1.8769999999999998","307.4","2.679","310.6","1015.199","17.0","87.7","2.144","0.0"],
    [1415126,"2026-06-05 04:40:00","52711","1.874","316.2","2.646","321.9","1015.176","16.88","88.1","7.545","0.0"],
    [1415127,"2026-06-05 04:50:00","52712","1.5959999999999999","310.6","2.581","305.8","1015.3","16.92","88.4","9.01","0.0"],
    [1415128,"2026-06-05 05:00:00","52713","1.692","306.5","2.417","313.4","1015.424","16.97","88.3","17.45","0.0"],
    [1415129,"2026-06-05 05:10:00","52714","1.639","296.6","2.45","302.1","1015.525","17.05","88.0","19.98","0.0"],
    [1415130,"2026-06-05 05:20:00","52715","1.3869999999999998","290.4","2.287","305.4","1015.605","17.08","88.3","33.0","0.0"],
    [1415131,"2026-06-05 05:30:00","52716","1.9969999999999999","288.3","3.005","287.8","1015.6439999999999","17.01","87.9","36.87","0.0"],
    [1415132,"2026-06-05 05:40:00","52717","1.745","289.5","2.613","301.9","1015.676","17.07","87.6","53.03","0.0"],
    [1415133,"2026-06-05 05:50:00","52718","1.3519999999999999","303.4","2.483","289.4","1015.685","17.2","87.4","87.7","0.0"],
    [1415134,"2026-06-05 06:00:00","52719","0.8270000000000001","269.9","1.764","278.5","1015.694","17.32","87.0","119.2","0.0"],
    [1415135,"2026-06-05 06:10:00","52720","1.171","278.4","1.96","270.7","1015.823","17.5","85.4","135.5","0.0"],
    [1415136,"2026-06-05 06:20:00","52721","0.9109999999999999","290.3","1.731","288.2","1015.8539999999999","17.75","83.5","144.5","0.0"],
    [1415137,"2026-06-05 06:30:00","52722","0.5820000000000001","314.0","1.503","295.8","1015.8839999999999","18.02","81.6","141.6","0.0"],
    [1415138,"2026-06-05 06:40:00","52723","1.307","289.4","2.287","301","1015.941","18.21","79.54","187.2","0.0"],
    [1415139,"2026-06-05 06:50:00","52724","1.493","287.7","2.45","288.6","1016.0239999999999","18.27","79.56","162.5","0.0"],
    [1415140,"2026-06-05 07:00:00","52725","1.1059999999999999","289.9","2.352","315.5","1016.0","18.26","80.6","167.0","0.0"],
    [1415141,"2026-06-05 07:10:00","52726","0.68","313.9","1.503","297.3","1016.082","18.48","79.32","198.4","0.0"],
    [1415142,"2026-06-05 07:20:00","52727","1.274","284.6","2.875","285.2","1016.3539999999999","18.54","77.42","139.7","0.0"],
    [1415143,"2026-06-05 07:30:00","52728","1.725","283.8","2.809","288.6","1016.5060000000001","18.38","77.64","120.4","0.0"],
    [1415144,"2026-06-05 07:40:00","52729","2.116","296.0","4.083","314.3","1016.658","18.49","75.71","134.3","0.0"],
    [1415145,"2026-06-05 07:50:00","52730","3.991","294.4","6.435","292","1016.795","18.49","74.54","176.5","0.0"],
    [1415146,"2026-06-05 08:00:00","52731","4.272","296.3","6.076","296.2","1016.8430000000001","18.1","74.24","222.0","0.0"],
    [1415147,"2026-06-05 08:10:00","52732","4.061","300.5","6.697","303.6","1016.875","18.15","73.94","283.3","0.0"],
    [1415148,"2026-06-05 08:20:00","52733","2.59","288.8","4.149","292.8","1016.69","18.6","72.2","381.5","0.0"],
    [1415149,"2026-06-05 08:30:00","52734","2.362","291.5","3.789","285.1","1016.6089999999999","18.73","70.88","298.6","0.0"],
    [1415150,"2026-06-05 08:40:00","52735","2.258","291.8","3.855","299.5","1016.579","19.25","70.53","582.8","0.0"],
    [1415151,"2026-06-05 08:50:00","52736","1.244","274.2","2.417","252.7","1016.552","19.85","68.61","648.9","0.0"],
    [1415152,"2026-06-05 09:00:00","52737","2.589","208.5","5.161","213.1","1016.5","20.56","65.75","654.4","0.0"],
    [1415153,"2026-06-05 09:10:00","52738","2.614","201.4","5.227","214.1","1016.424","19.93","65.82","241.0","0.0"],
    [1415154,"2026-06-05 09:20:00","52739","2.289","206.4","5.063","265.6","1016.4780000000001","19.74","68.08","172.0","0.0"],
    [1415155,"2026-06-05 09:30:00","52740","2.8489999999999998","226.4","5.357","229.5","1016.5319999999999","19.59","69.89","202.8","0.0"],
    [1415156,"2026-06-05 09:40:00","52741","3.158","220.0","5.521","213.7","1016.6210000000001","20.03","68.97","669.8","0.0"],
    [1415157,"2026-06-05 09:50:00","52742","3.299","219.6","5.423","208.6","1016.705","21.11","64.88","733.9","0.0"],
    [1415158,"2026-06-05 10:00:00","52743","3.405","217.1","5.782","209.6","1016.743","20.98","65.43","730.7","0.0"],
    [1415159,"2026-06-05 10:10:00","52744","4.084","217.3","6.729","212.9","1016.747","20.84","64.22","637.7","0.0"],
    [1415160,"2026-06-05 10:20:00","52745","3.6460000000000004","214.6","6.501","198.3","1016.7769999999999","21.54","60.8","867.0","0.0"],
    [1415161,"2026-06-05 10:30:00","52746","4.35","218.6","6.664","219.2","1016.75","21.25","59.3","818.0","0.0"],
    [1415162,"2026-06-05 10:40:00","52747","3.196","222.1","6.86","226.5","1016.699","21.87","58.39","1013.0","0.0"],
    [1415163,"2026-06-05 10:50:00","52748","3.761","220.1","7.481","206","1016.6060000000001","22.2","57.23","925.0","0.0"],
    [1415164,"2026-06-05 11:00:00","52749","4.285","212.2","7.317","223.3","1016.591","21.9","57.67","795.3","0.0"],
    [1415165,"2026-06-05 11:10:00","52750","3.61","208.9","7.709","208.9","1016.6080000000001","21.73","59.94","727.7","0.0"],
    [1415166,"2026-06-05 11:20:00","52751","4.356","208.5","7.448","219.3","1016.679","20.96","63.65","482.8","0.0"],
    [1415167,"2026-06-05 11:30:00","52752","4.65","215.6","7.905","212.2","1016.7410000000001","20.53","65.61","391.5","0.0"],
    [1415168,"2026-06-05 11:40:00","52753","4.105","214.7","6.272","218","1016.737","20.91","64.8","449.6","0.0"],
    [1415169,"2026-06-05 11:50:00","52754","3.2239999999999998","203.7","6.795","174.3","1016.68","20.91","64.74","440.6","0.0"],
    [1415170,"2026-06-05 12:00:00","52755","3.3939999999999997","208.9","5.847","226.4","1016.6439999999999","20.79","65.58","349.6","0.0"],
    [1415171,"2026-06-05 12:10:00","52756","3.41","207.8","6.239","220.1","1016.6","20.59","65.86","299.5","0.0"],
    [1415172,"2026-06-05 12:20:00","52757","4.343","213.4","7.056","221.5","1016.547","20.41","65.53","351.1","0.0"],
    [1415173,"2026-06-05 12:30:00","52758","4.205","215.5","8.2","215.2","1016.462","20.35","65.79","323.9","0.0"],
    [1415174,"2026-06-05 12:40:00","52759","2.92","201.4","6.729","205.2","1016.471","20.46","66.09","297.9","0.0"],
    [1415175,"2026-06-05 12:50:00","52760","3.025","206.1","5.325","217.9","1016.5060000000001","20.58","65.83","353.3","0.0"],
    [1415176,"2026-06-05 13:00:00","52761","3.4589999999999996","206.9","7.023","214","1016.3739999999999","20.98","64.82","431.2","0.0"],
    [1415177,"2026-06-05 13:10:00","52762","3.0989999999999998","200.0","6.011","229.3","1016.24","20.94","64.82","497.9","0.0"],
    [1415178,"2026-06-05 13:20:00","52763","3.594","208.0","7.285","218.1","1016.0889999999999","21.69","62.63","670.8","0.0"],
    [1415179,"2026-06-05 13:30:00","52764","3.468","205.7","6.337","204.8","1016.0060000000001","21.22","64.32","580.1","0.0"],
    [1415180,"2026-06-05 13:40:00","52765","4.093999999999999","207.6","7.742","199.1","1016.069","21.89","62.37","952.0","0.0"],
    [1415181,"2026-06-05 13:50:00","52766","3.708","201.1","6.533","217.8","1016.072","21.81","61.78","710.8","0.0"],
    [1415182,"2026-06-05 14:00:00","52767","4.157","204.5","6.795","234.7","1016.003","21.24","60.7","620.9","0.0"],
    [1415183,"2026-06-05 14:10:00","52768","3.31","202.0","5.88","176.8","1015.922","21.62","59.4","697.8","0.0"],
    [1415184,"2026-06-05 14:20:00","52769","3.137","195.7","5.586","200.5","1015.8380000000001","22.29","57.44","804.0","0.0"],
    [1415185,"2026-06-05 14:30:00","52770","3.8960000000000004","207.2","6.958","230.8","1015.873","22.08","57.28","894.0","0.0"],
    [1415186,"2026-06-05 14:40:00","52771","4.004","198.3","6.435","228.9","1015.86","21.59","58.83","461.8","0.0"],
    [1415187,"2026-06-05 14:50:00","52772","3.582","192.0","6.174","179.3","1015.8989999999999","21.08","60.69","491.8","0.0"],
    [1415188,"2026-06-05 15:00:00","52773","3.426","201.7","5.978","164.9","1015.828","21.78","58.29","694.3","0.0"],
    [1415189,"2026-06-05 15:10:00","52774","3.783","185.9","6.468","177.3","1015.813","21.43","59.32","639.8","0.0"],
    [1415190,"2026-06-05 15:20:00","52775","3.549","205.5","5.455","222.5","1015.7739999999999","21.49","59.64","503.3","0.0"],
    [1415191,"2026-06-05 15:30:00","52776","3.2439999999999998","195.4","5.357","183.6","1015.7560000000001","21.18","60.97","389.2","0.0"],
    [1415192,"2026-06-05 15:40:00","52777","3.1439999999999997","190.9","5.129","179.8","1015.6569999999999","21.34","60.66","536.9","0.0"],
    [1415193,"2026-06-05 15:50:00","52778","3.366","181.4","5.455","182.9","1015.6469999999999","21.07","61.0","535.2","0.0"],
    [1415194,"2026-06-05 16:00:00","52779","2.911","180.7","5.161","177.3","1015.5210000000001","20.97","62.37","505.4","0.0"],
    [1415195,"2026-06-05 16:10:00","52780","3.3369999999999997","182.3","5.357","176.4","1015.5089999999999","21.12","63.23","519.2","0.0"],
    [1415196,"2026-06-05 16:20:00","52781","2.484","190.5","4.573","171","1015.62","21.36","62.63","414.1","0.0"],
    [1415197,"2026-06-05 16:30:00","52782","3.431","176.4","5.423","166","1015.6560000000001","20.69","64.51","383.8","0.0"],
    [1415198,"2026-06-05 16:40:00","52783","2.5789999999999997","184.6","4.965","161.2","1015.672","20.87","64.39","423.2","0.0"],
    [1415199,"2026-06-05 16:50:00","52784","3.009","187.2","5.684","186.4","1015.561","21.31","63.25","459.6","0.0"],
    [1415200,"2026-06-05 17:00:00","52785","2.673","180.0","4.639","166.4","1015.495","20.88","64.47","268.1","0.0"],
    [1415201,"2026-06-05 17:10:00","52786","2.378","184.2","4.345","194.3","1015.447","20.4","65.8","163.8","0.0"],
    [1415202,"2026-06-05 17:20:00","52787","2.0709999999999997","198.7","4.214","191.1","1015.497","20.44","66.36","214.7","0.0"],
    [1415203,"2026-06-05 17:30:00","52788","2.376","192.2","4.149","190.6","1015.5260000000001","20.49","65.9","168.8","0.0"],
    [1415204,"2026-06-05 17:40:00","52789","2.51","187.4","4.867","185.6","1015.505","20.14","66.95","135.7","0.0"],
    [1415205,"2026-06-05 17:50:00","52790","2.452","192.4","4.377","195.3","1015.446","20.26","67.28","191.6","0.0"],
    [1415206,"2026-06-05 18:00:00","52791","2.635","177.2","4.312","178.2","1015.445","20.09","67.87","190.9","0.0"],
    [1415207,"2026-06-05 18:10:00","52792","2.412","188.0","4.214","191.3","1015.5219999999999","19.99","68.09","100.5","0.0"],
    [1415208,"2026-06-05 18:20:00","52793","2.168","178.1","4.083","161.5","1015.56","19.82","68.82","48.63","0.0"],
    [1415209,"2026-06-05 18:30:00","52794","2.029","190.3","6.533","178.1","1015.539","19.63","69.91","37.49","0.0"],
    [1415210,"2026-06-05 18:40:00","52795","2.177","182.1","3.789","172.3","1015.654","19.58","70.35","36.67","0.0"],
    [1415211,"2026-06-05 18:50:00","52796","1.8769999999999998","186.9","3.985","189.7","1015.74","19.57","70.59","24.91","0.0"],
    [1415212,"2026-06-05 19:00:00","52797","2.072","188.5","3.626","189.7","1015.7360000000001","19.54","70.85","21.73","0.0"],
    [1415213,"2026-06-05 19:10:00","52798","2.116","185.2","3.92","181.9","1015.725","19.45","71.8","13.76","0.0"],
    [1415214,"2026-06-05 19:20:00","52799","2.086","180.9","3.397","200.1","1015.71","19.4","72.26","3.833","0.0"],
    [1415215,"2026-06-05 19:30:00","52800","1.995","183.0","3.299","175.5","1015.717","19.36","72.27","-0.39399999999999996","0.0"],
    [1415216,"2026-06-05 19:40:00","52801","1.901","186.4","3.953","181.3","1015.755","19.29","72.47","-1.641","0.0"],
    [1415217,"2026-06-05 19:50:00","52802","2.247","189.7","4.116","192.6","1015.8710000000001","19.24","72.61","-1.9880000000000002","0.0"],
    [1415218,"2026-06-05 20:00:00","52803","2.214","185.3","3.593","186.1","1015.953","19.2","72.59","-2.151","0.0"],
    [1415219,"2026-06-05 20:10:00","52804","1.766","190.5","2.842","194.4","1016.097","19.19","72.44","-2.296","0.0"],
    [1415220,"2026-06-05 20:20:00","52805","1.666","180.8","3.463","182.8","1016.2819999999999","19.17","72.84","-2.556","0.0"],
    [1415221,"2026-06-05 20:30:00","52806","1.5919999999999999","197.1","3.659","200.5","1016.434","19.19","72.78","-2.271","0.0"],
    [1415222,"2026-06-05 20:40:00","52807","1.6480000000000001","205.3","3.332","254.9","1016.451","19.18","73.45","-2.209","0.0"],
    [1415223,"2026-06-05 20:50:00","52808","1.367","214.6","3.855","231.5","1016.612","19.12","73.94","-2.197","0.0"],
    [1415224,"2026-06-05 21:00:00","52809","1.339","207.6","3.855","245.1","1016.677","19.14","73.77","-2.134","0.0"],
    [1415225,"2026-06-05 21:10:00","52810","0.9179999999999999","200.5","1.96","177.7","1016.648","19.01","74.33","-2.659","0.0"],
    [1415226,"2026-06-05 21:20:00","52811","0.789","193.9","1.895","197.3","1016.653","18.99","74.29","-2.476","0.0"],
    [1415227,"2026-06-05 21:30:00","52812","1.02","206.3","2.025","218.9","1016.576","19.01","74.25","-1.94","0.0"],
    [1415228,"2026-06-05 21:40:00","52813","1.218","205.2","2.352","214","1016.6010000000001","19.06","74.46","-1.942","0.0"],
    [1415229,"2026-06-05 21:50:00","52814","0.8640000000000001","191.6","1.731","231.4","1016.615","19.08","74.48","-1.8969999999999998","0.0"],
    [1415230,"2026-06-05 22:00:00","52815","0.731","200.1","1.633","168.1","1016.685","19.12","74.77","-1.374","0.0"],
    [1415231,"2026-06-05 22:10:00","52816","0.887","201.6","2.221","215.9","1016.688","19.25","74.63","-1.16","0.0"],
    [1415232,"2026-06-05 22:20:00","52817","1.4469999999999998","206.6","2.548","191.4","1016.645","19.37","74.1","-1.209","0.0"],
    [1415233,"2026-06-05 22:30:00","52818","1.9240000000000002","221.2","3.43","227.6","1016.703","19.42","73.55","-1.581","0.0"],
    [1415234,"2026-06-05 22:40:00","52819","1.8980000000000001","213.1","3.169","203.4","1016.704","19.41","73.82","-1.167","0.0"],
    [1415235,"2026-06-05 22:50:00","52820","1.8","216.3","2.94","220.1","1016.6","19.41","73.87","-1.162","0.0"],
    [1415236,"2026-06-05 23:00:00","52821","1.296","230.0","2.679","227.7","1016.674","19.42","73.83","-1.16","0.0"],
    [1415237,"2026-06-05 23:10:00","52822","1.227","293.5","1.862","305.2","1016.659","19.26","74.82","-1.16","0.0"],
    [1415238,"2026-06-05 23:20:00","52823","0.9390000000000001","291.4","1.633","292","1016.6410000000001","19.08","75.61","-1.274","0.0"],
    [1415239,"2026-06-05 23:30:00","52824","0.622","299.2","1.111","306.7","1016.4889999999999","18.97","75.72","-1.902","0.0"],
    [1415240,"2026-06-05 23:40:00","52825","0.672","279.5","1.307","271","1016.4780000000001","18.9","75.92","-1.9140000000000001","0.0"],
    [1415241,"2026-06-05 23:50:00","52826","0.21600000000000003","282.2","0.882","281.1","1016.302","18.74","76.77","-2.246","0.0"],
    [1415242,"2026-06-06 00:00:00","52827","0.851","292.7","1.47","298.4","1016.19","18.58","77.54","-1.9409999999999998","0.0"],
    [1415243,"2026-06-06 00:10:00","52828","0.862","294.3","1.568","300.1","1016.3","18.52","78.37","-1.915","0.0"],
    [1415244,"2026-06-06 00:20:00","52829","0.46299999999999997","299.8","1.503","298","1016.243","18.31","78.81","-1.944","0.0"],
    [1415245,"2026-06-06 00:30:00","52830","1.41","306.1","2.221","331","1016.329","18.36","78.56","-1.913","0.0"],
    [1415246,"2026-06-06 00:40:00","52831","1.364","300.9","2.515","312.3","1016.315","18.49","77.41","-1.972","0.0"],
    [1415247,"2026-06-06 00:50:00","52832","0.524","296.0","1.47","299.1","1016.2280000000001","18.49","76.78","-2.15","0.0"],
    [1415248,"2026-06-06 01:00:00","52833","0.688","292.5","1.437","301.5","1016.143","18.27","78.04","-2.635","0.0"],
    [1415249,"2026-06-06 01:10:00","52834","0.642","286.1","1.274","291.5","1016.168","18.17","78.72","-2.276","0.0"],
    [1415250,"2026-06-06 01:20:00","52835","1.157","290.8","1.829","300.6","1016.2260000000001","18.19","79.58","-1.197","0.0"],
    [1415251,"2026-06-06 01:30:00","52836","1.19","290.7","2.221","308.3","1016.181","18.2","79.47","-1.176","0.0"],
    [1415252,"2026-06-06 01:40:00","52837","1.1740000000000002","286.6","2.221","303","1016.0219999999999","18.28","78.33","-1.246","0.0"],
    [1415253,"2026-06-06 01:50:00","52838","0.754","296.4","1.764","291.6","1015.972","18.22","78.67","-1.807","0.0"],
    [1415254,"2026-06-06 02:00:00","52839","0.998","296.1","1.797","282.8","1016.01","18.14","79.13","-1.933","0.0"],
    [1415255,"2026-06-06 02:10:00","52840","0.698","290.6","1.47","294.8","1016.018","18.07","79.27","-2.026","0.0"],
    [1415256,"2026-06-06 02:20:00","52841","0.934","295.7","1.731","311.2","1016.0110000000001","18.09","79.13","-2.468","0.0"],
    [1415257,"2026-06-06 02:30:00","52842","1.071","308.5","1.568","316.2","1016.028","17.96","79.9","-2.6719999999999997","0.0"],
    [1415258,"2026-06-06 02:40:00","52843","0.64","305.0","NAN","316.2","1015.94","17.83","80.2","-2.653","0.0"],
    [1415259,"2026-06-06 02:50:00","52844","1.047","302.2","NAN","316.2","1015.988","17.83","80.5","-2.242","0.0"],
    [1415260,"2026-06-06 03:00:00","52845","0.755","292.4","NAN","316.2","1016.02","17.85","80.8","-1.222","0.0"],
    [1415261,"2026-06-06 03:10:00","52846","0.7709999999999999","293.4","1.274","289.9","1016.062","18.02","80.5","-1.133","0.0"],
    [1415262,"2026-06-06 03:20:00","52847","0.7759999999999999","288.4","1.47","287.2","1016.03","18.11","79.92","-0.8490000000000001","0.0"],
    [1415263,"2026-06-06 03:30:00","52848","0.736","291.3","1.437","290.8","1016.0160000000001","18.24","78.99","-0.6","0.0"],
    [1415264,"2026-06-06 03:40:00","52849","0.701","293.2","1.829","291.6","1016.122","18.32","79.1","-0.622","0.0"],
    [1415265,"2026-06-06 03:50:00","52850","1.1540000000000001","290.0","1.895","305.8","1016.1360000000001","18.43","78.56","-0.573","0.0"],
    [1415266,"2026-06-06 04:00:00","52851","0.9229999999999999","277.6","1.601","268.4","1015.987","18.45","77.88","-0.484","0.0"],
    [1415267,"2026-06-06 04:10:00","52852","0.6709999999999999","283.1","1.111","281.4","1015.77","18.44","77.7","-0.409","0.0"],
    [1415268,"2026-06-06 04:20:00","52853","0.574","277.0","1.209","282.4","1015.72","18.39","77.81","0.856","0.0"],
    [1415269,"2026-06-06 04:30:00","52854","1.261","295.4","1.731","302.7","1015.868","18.42","78.46","3.5469999999999997","0.0"],
    [1415270,"2026-06-06 04:40:00","52855","0.5820000000000001","289.6","1.535","307.8","1015.971","18.44","78.7","7.102","0.0"],
    [1415271,"2026-06-06 04:50:00","52856","0.826","293.9","1.633","309.9","1016.181","18.63","78.09","10.16","0.0"],
    [1415272,"2026-06-06 05:00:00","52857","1.0090000000000001","287.4","1.764","274.8","1016.2719999999999","18.64","77.93","12.25","0.0"],
    [1415273,"2026-06-06 05:10:00","52858","1.0170000000000001","281.6","1.895","289.6","1016.2669999999999","18.64","77.67","23.32","0.0"],
    [1415274,"2026-06-06 05:20:00","52859","0.513","257.7","1.372","281","1016.1560000000001","18.78","76.69","38.49","0.0"],
    [1415275,"2026-06-06 05:30:00","52860","1.47","268.6","2.385","272","1016.422","18.81","76.68","22.3","0.0"],
    [1415276,"2026-06-06 05:40:00","52861","1.071","282.5","1.993","281.2","1016.535","18.72","77.19","24.59","0.0"],
    [1415277,"2026-06-06 05:50:00","52862","0.9640000000000001","280.2","1.895","299.8","1016.557","18.79","76.45","33.42","0.0"],
    [1415278,"2026-06-06 06:00:00","52863","0.845","267.9","2.254","287.2","1016.671","18.9","75.96","41.35","0.0"],
    [1415279,"2026-06-06 06:10:00","52864","0.9129999999999999","275.1","1.601","274.5","1016.66","18.98","75.74","70.16","0.0"],
    [1415280,"2026-06-06 06:20:00","52865","1.071","282.3","1.797","301.1","1016.745","19.15","75.75","91.0","0.0"],
    [1415281,"2026-06-06 06:30:00","52866","1.489","281.5","2.385","288.5","1016.919","19.26","74.85","60.23","0.0"],
    [1415282,"2026-06-06 06:40:00","52867","1.3659999999999999","275.0","2.221","293.9","1017.0139999999999","19.27","74.69","79.0","0.0"],
    [1415283,"2026-06-06 06:50:00","52868","1.3530000000000002","286.5","2.515","299.6","1016.9780000000001","19.4","74.17","143.7","0.0"],
    [1415284,"2026-06-06 07:00:00","52869","1.079","284.3","1.666","299.8","1016.956","19.84","72.27","198.5","0.0"],
    [1415285,"2026-06-06 07:10:00","52870","0.875","263.5","2.123","231.5","1017.105","20.29","70.24","217.6","0.0"],
    [1415286,"2026-06-06 07:20:00","52871","1.429","219.3","2.417","226.5","1017.174","20.55","67.9","220.1","0.0"],
    [1415287,"2026-06-06 07:30:00","52872","2.052","214.6","3.495","217.5","1017.183","20.79","68.06","269.6","0.0"],
    [1415288,"2026-06-06 07:40:00","52873","2.365","216.9","3.463","222.9","1017.2389999999999","21.19","66.06","346.3","0.0"],
    [1415289,"2026-06-06 07:50:00","52874","1.432","224.3","2.94","220.1","1017.34","21.49","64.46","360.7","0.0"],
    [1415290,"2026-06-06 08:00:00","52875","1.881","220.2","4.149","223.7","1017.345","21.51","65.24","352.3","0.0"],
    [1415291,"2026-06-06 08:10:00","52876","2.099","206.3","4.345","185","1017.357","22.11","64.96","545.1","0.0"],
    [1415292,"2026-06-06 08:20:00","52877","2.926","193.7","5.161","181.4","1017.3380000000001","22.25","63.42","635.7","0.0"],
    [1415293,"2026-06-06 08:30:00","52878","3.35","197.6","5.455","175.6","1017.368","22.05","63.42","632.6","0.0"],
    [1415294,"2026-06-06 08:40:00","52879","2.9330000000000003","193.3","5.423","175.3","1017.427","22.37","62.79","695.0","0.0"],
    [1415295,"2026-06-06 08:50:00","52880","3.05","199.2","5.488","173.4","1017.461","22.37","64.22","698.1","0.0"],
    [1415296,"2026-06-06 09:00:00","52881","2.8169999999999997","187.8","5.521","170.2","1017.416","22.7","63.72","750.4","0.0"],
    [1415297,"2026-06-06 09:10:00","52882","2.6519999999999997","171.5","4.802","165.2","1017.47","22.26","65.74","775.3","0.0"],
    [1415298,"2026-06-06 09:20:00","52883","3.159","186.0","5.717","202.5","1017.493","22.44","65.93","801.0","0.0"],
    [1415299,"2026-06-06 09:30:00","52884","3.11","188.9","5.684","193","1017.5060000000001","22.85","65.17","811.0","0.0"],
    [1415300,"2026-06-06 09:40:00","52885","3.302","182.3","5.717","185.3","1017.5310000000001","22.88","65.03","839.0","0.0"],
    [1415301,"2026-06-06 09:50:00","52886","3.173","192.1","5.619","199.5","1017.575","22.83","65.67","859.0","0.0"],
    [1415302,"2026-06-06 10:00:00","52887","3.068","193.7","5.847","151.4","1017.658","23.21","64.71","866.0","0.0"],
    [1415303,"2026-06-06 10:10:00","52888","2.9410000000000003","197.6","7.089","191.9","1017.738","23.32","64.68","811.0","0.0"],
    [1415304,"2026-06-06 10:20:00","52889","3.08","190.7","6.207","210.1","1017.826","23.45","65.03","917.0","0.0"],
    [1415305,"2026-06-06 10:30:00","52890","3.9410000000000003","187.8","7.742","172.1","1017.927","23.14","66.06","867.0","0.0"],
    [1415306,"2026-06-06 10:40:00","52891","4.064","200.0","7.644","222.4","1018.047","23.14","67.02","909.0","0.0"],
    [1415307,"2026-06-06 10:50:00","52892","3.698","205.1","6.468","226.8","1018.1239999999999","23.56","65.57","931.0","0.0"],
    [1415308,"2026-06-06 11:00:00","52893","3.3539999999999996","197.7","8.3","177.3","1018.1419999999999","23.66","65.52","944.0","0.0"],
    [1415309,"2026-06-06 11:10:00","52894","4.456","182.4","7.513","178","1018.2330000000001","23.31","66.45","967.0","0.0"],
    [1415310,"2026-06-06 11:20:00","52895","3.714","195.2","6.795","184","1018.2660000000001","23.53","66.52","961.0","0.0"],
    [1415311,"2026-06-06 11:30:00","52896","3.755","197.6","8.75","189.5","1018.341","23.84","65.36","972.0","0.0"],
    [1415312,"2026-06-06 11:40:00","52897","3.6289999999999996","199.5","6.664","201.5","1018.42","23.84","65.8","991.0","0.0"],
    [1415313,"2026-06-06 11:50:00","52898","4.294","203.4","7.775","180.6","1018.409","23.93","65.76","973.0","0.0"],
    [1415314,"2026-06-06 12:00:00","52899","3.9589999999999996","202.6","7.252","179.1","1018.334","23.72","66.97","976.0","0.0"],
    [1415315,"2026-06-06 12:10:00","52900","3.866","200.0","6.664","225.2","1018.346","24.39","64.98","981.0","0.0"],
    [1415316,"2026-06-06 12:20:00","52901","4.136","201.2","6.795","186.1","1018.284","23.79","67.08","909.0","0.0"],
    [1415317,"2026-06-06 12:30:00","52902","3.7030000000000003","195.0","7.35","207.4","1018.222","23.77","66.99","794.1","0.0"],
    [1415318,"2026-06-06 12:40:00","52903","4.399","200.1","7.154","180.2","1018.2760000000001","23.22","69.18","663.1","0.0"],
    [1415319,"2026-06-06 12:50:00","52904","4.07","204.0","6.109","215.6","1018.291","23.6","69.46","694.1","0.0"],
    [1415320,"2026-06-06 13:00:00","52905","3.758","191.9","5.847","209.8","1018.2689999999999","23.21","71.08","655.0","0.0"],
    [1415321,"2026-06-06 13:10:00","52906","3.2710000000000004","204.7","6.043","216.6","1018.2610000000001","23.33","70.99","584.1","0.0"],
    [1415322,"2026-06-06 13:20:00","52907","3.312","204.7","6.174","213.6","1018.304","23.25","71.29","537.4","0.0"],
    [1415323,"2026-06-06 13:30:00","52908","3.74","198.0","6.174","175.4","1018.303","22.99","72.39","430.1","0.0"],
    [1415324,"2026-06-06 13:40:00","52909","3.5980000000000003","197.5","6.468","178.5","1018.285","23.36","71.71","629.4","0.0"],
    [1415325,"2026-06-06 13:50:00","52910","4.1419999999999995","190.9","7.121","169.7","1018.2330000000001","23.19","72.45","561.5","0.0"],
    [1415326,"2026-06-06 14:00:00","52911","3.838","196.3","6.664","215.2","1018.166","23.84","70.63","705.3","0.0"],
    [1415327,"2026-06-06 14:10:00","52912","4.505","212.7","7.709","208.9","1018.197","23.35","71.94","460.5","0.0"],
    [1415328,"2026-06-06 14:20:00","52913","4.342","207.2","7.35","208.7","1018.2230000000001","22.96","74.8","474.2","0.0"],
    [1415329,"2026-06-06 14:30:00","52914","3.407","205.2","6.337","199","1018.1569999999999","23.07","74.69","424.7","0.0"],
    [1415330,"2026-06-06 14:40:00","52915","3.642","208.8","7.154","216.8","1018.091","23.01","74.32","370.1","0.0"],
    [1415331,"2026-06-06 14:50:00","52916","3.49","207.4","6.207","222.5","1018.0139999999999","23.25","73.34","403.5","0.0"],
    [1415332,"2026-06-06 15:00:00","52917","4.325","219.3","6.762","203.7","1017.97","23.09","73.48","455.2","0.0"],
    [1415333,"2026-06-06 15:10:00","52918","3.627","218.9","6.664","212.4","1017.91","23.51","71.61","443.4","0.0"],
    [1415334,"2026-06-06 15:20:00","52919","3.701","216.0","7.187","199.1","1017.887","23.45","71.95","457.7","0.0"],
    [1415335,"2026-06-06 15:30:00","52920","3.5669999999999997","214.1","6.533","219.9","1017.9069999999999","24.13","69.68","671.0","0.0"],
    [1415336,"2026-06-06 15:40:00","52921","3.283","208.3","5.717","224.9","1017.954","24.56","68.29","617.5","0.0"],
    [1415337,"2026-06-06 15:50:00","52922","3.0460000000000003","203.7","5.88","195.1","1017.831","24.43","68.89","458.4","0.0"],
    [1415338,"2026-06-06 16:00:00","52923","2.9389999999999996","210.8","6.991","206.8","1017.832","23.93","71.16","460.4","0.0"],
    [1415339,"2026-06-06 16:10:00","52924","2.987","206.5","5.423","214.8","1017.943","24.07","70.87","428.3","0.0"],
    [1415340,"2026-06-06 16:20:00","52925","3.3710000000000004","210.2","6.076","227.5","1017.936","23.81","72.32","385.6","0.0"],
    [1415341,"2026-06-06 16:30:00","52926","2.7910000000000004","198.3","5.129","164.3","1017.982","23.47","73.8","383.2","0.0"],
    [1415342,"2026-06-06 16:40:00","52927","3.4219999999999997","205.1","5.88","213.3","1017.961","23.39","74.71","352.1","0.0"],
    [1415343,"2026-06-06 16:50:00","52928","3.32","206.1","5.521","174.7","1017.99","23.31","74.87","357.1","0.0"],
    [1415344,"2026-06-06 17:00:00","52929","3.397","208.9","5.815","211.1","1018.057","23.53","74.04","352.8","0.0"],
    [1415345,"2026-06-06 17:10:00","52930","3.35","207.9","5.978","223.1","1018.02","23.19","75.1","277.5","0.0"],
    [1415346,"2026-06-06 17:20:00","52931","3.7430000000000003","210.5","5.651","209.8","1018.066","22.9","77.0","219.2","0.0"],
    [1415347,"2026-06-06 17:30:00","52932","4.099","217.9","6.011","219.4","1018.166","22.78","77.44","206.5","0.0"],
    [1415348,"2026-06-06 17:40:00","52933","3.678","211.2","6.762","222.4","1018.2510000000001","22.66","78.3","183.2","0.0"],
    [1415349,"2026-06-06 17:50:00","52934","3.7","211.6","6.827","215.6","1018.3480000000001","22.6","78.66","224.9","0.0"],
    [1415350,"2026-06-06 18:00:00","52935","3.967","210.4","6.795","233.6","1018.462","22.65","78.59","223.4","0.0"],
    [1415351,"2026-06-06 18:10:00","52936","3.82","216.9","7.089","210.3","1018.6","22.45","79.65","132.7","0.0"],
    [1415352,"2026-06-06 18:20:00","52937","3.7310000000000003","218.5","6.272","225.1","1018.737","22.31","80.4","129.8","0.0"],
    [1415353,"2026-06-06 18:30:00","52938","2.535","209.6","4.639","229.6","1018.8380000000001","22.2","81.4","66.57","0.0"],
    [1415354,"2026-06-06 18:40:00","52939","2.897","212.0","5.455","215.7","1018.965","22.0","82.3","48.17","0.0"],
    [1415355,"2026-06-06 18:50:00","52940","3.115","213.7","6.011","226.6","1019.05","21.82","83.1","44.24","0.0"],
    [1415356,"2026-06-06 19:00:00","52941","2.638","210.9","5.227","220.1","1019.143","21.81","83.2","38.39","0.0"],
    [1415357,"2026-06-06 19:10:00","52942","3.279","216.4","5.129","204.2","1019.195","21.66","83.9","19.67","0.0"],
    [1415358,"2026-06-06 19:20:00","52943","3.412","212.4","5.423","201.6","1019.363","21.58","84.7","9.86","0.0"],
    [1415359,"2026-06-06 19:30:00","52944","2.8160000000000003","212.3","4.737","230.7","1019.444","21.49","85.3","7.252999999999999","0.0"],
    [1415360,"2026-06-06 19:40:00","52945","2.78","215.5","5.423","215","1019.5419999999999","21.42","85.8","-1.253","0.0"],
    [1415361,"2026-06-06 19:50:00","52946","2.641","214.2","6.043","217.3","1019.671","21.37","86.2","-1.925","0.0"],
    [1415362,"2026-06-06 20:00:00","52947","2.085","209.3","3.757","196.4","1019.735","21.31","86.6","-2.3930000000000002","0.0"],
    [1415363,"2026-06-06 20:10:00","52948","2.2359999999999998","210.4","4.998","232.7","1019.88","21.28","87.0","-2.471","0.0"],
    [1415364,"2026-06-06 20:20:00","52949","1.745","206.7","4.312","231.9","1020.02","21.22","87.3","-2.57","0.0"],
    [1415365,"2026-06-06 20:30:00","52950","1.744","207.2","3.43","212.3","1020.1389999999999","21.21","87.7","-2.622","0.0"],
    [1415366,"2026-06-06 20:40:00","52951","2.044","215.4","5.39","234.5","1020.2689999999999","21.21","87.9","-2.471","0.0"],
    [1415367,"2026-06-06 20:50:00","52952","1.9569999999999999","205.6","4.443","216.9","1020.414","21.15","88.3","-2.63","0.0"],
    [1415368,"2026-06-06 21:00:00","52953","1.214","205.2","3.528","240.5","1020.6010000000001","21.15","88.4","-2.448","0.0"],
    [1415369,"2026-06-06 21:10:00","52954","1.93","209.7","3.201","228.6","1020.819","21.11","88.6","-2.6060000000000003","0.0"],
    [1415370,"2026-06-06 21:20:00","52955","1.584","211.4","3.005","230.8","1021.007","21.08","88.7","-2.51","0.0"],
    [1415371,"2026-06-06 21:30:00","52956","0.9329999999999999","194.8","1.927","220","1021.138","21.07","88.8","-2.259","0.0"],
    [1415372,"2026-06-06 21:40:00","52957","1.05","195.6","2.352","175.7","1021.178","21.08","89.0","-1.6480000000000001","0.0"],
    [1415373,"2026-06-06 21:50:00","52958","1.183","191.1","2.45","188","1021.2260000000001","21.08","88.9","-1.6469999999999998","0.0"],
    [1415374,"2026-06-06 22:00:00","52959","1.625","213.5","2.711","218.7","1021.283","21.12","88.2","-1.165","0.0"],
    [1415375,"2026-06-06 22:10:00","52960","1.879","215.2","2.973","210.4","1021.3530000000001","21.15","87.8","-1.265","0.0"],
    [1415376,"2026-06-06 22:20:00","52961","1.795","210.7","2.809","200.8","1021.456","21.14","87.7","-1.8319999999999999","0.0"],
    [1415377,"2026-06-06 22:30:00","52962","1.6030000000000002","216.0","2.646","213","1021.426","21.08","87.6","-2.313","0.0"],
    [1415378,"2026-06-06 22:40:00","52963","1.7730000000000001","219.3","2.548","227","1021.466","20.96","87.7","-2.627","0.0"],
    [1415379,"2026-06-06 22:50:00","52964","1.402","227.5","2.581","234.3","1021.579","20.87","87.7","-2.5069999999999997","0.0"],
    [1415380,"2026-06-06 23:00:00","52965","1.426","229.0","2.809","238.5","1021.658","20.76","87.9","-2.638","0.0"],
    [1415381,"2026-06-06 23:10:00","52966","0.991","219.4","1.862","231","1021.591","20.71","87.9","-2.6010000000000004","0.0"],
    [1415382,"2026-06-06 23:20:00","52967","0.8220000000000001","225.4","2.091","222.7","1021.548","20.63","88.1","-2.66","0.0"],
    [1415383,"2026-06-06 23:30:00","52968","0.312","208.3","1.535","234.1","1021.552","20.57","88.1","-2.658","0.0"],
    [1415384,"2026-06-06 23:40:00","52969","0.655","228.5","1.372","239.2","1021.638","20.54","88.3","-2.656","0.0"],
    [1415385,"2026-06-06 23:50:00","52970","0.14400000000000002","261.8","0.719","257.7","1021.676","20.43","88.4","-2.658","0.0"],
    [1415386,"2026-06-07 00:00:00","52971","0.0","274.2","0.033","274.2","1021.693","20.35","88.5","-2.5860000000000003","0.0"],
    [1415387,"2026-06-07 00:10:00","52972","0.001","271.3","0.065","271.3","1021.633","20.17","88.9","-2.6210000000000004","0.0"],
    [1415388,"2026-06-07 00:20:00","52973","0.0","0.0","0","0","1021.615","20.01","89.6","-2.655","0.0"],
    [1415389,"2026-06-07 00:30:00","52974","0.261","271.2","0.555","271.2","1021.6139999999999","20.13","89.9","-2.654","0.0"],
    [1415390,"2026-06-07 00:40:00","52975","0.188","247.3","1.078","115.8","1021.6410000000001","20.28","89.2","-2.66","0.0"],
    [1415391,"2026-06-07 00:50:00","52976","0.644","116.3","0.882","118.3","1021.666","20.36","88.7","-2.211","0.0"],
    [1415392,"2026-06-07 01:00:00","52977","0.419","114.5","1.274","146.7","1021.66","20.46","88.4","-1.902","0.0"],
    [1415393,"2026-06-07 01:10:00","52978","1.263","172.8","2.287","164.3","1021.566","20.65","87.4","-2.634","0.0"],
    [1415394,"2026-06-07 01:20:00","52979","0.7140000000000001","184.0","2.417","192","1021.534","20.6","87.1","-2.766","0.0"],
    [1415395,"2026-06-07 01:30:00","52980","0.526","205.5","1.209","163.3","1021.567","20.49","86.9","-2.6660000000000004","0.0"],
    [1415396,"2026-06-07 01:40:00","52981","0.741","184.1","1.274","190.6","1021.557","20.51","86.6","-2.679","0.0"],
    [1415397,"2026-06-07 01:50:00","52982","0.0","0.0","0","0","1021.5160000000001","20.36","86.6","-2.665","0.0"],
    [1415398,"2026-06-07 02:00:00","52983","0.7509999999999999","281.6","1.829","282.1","1021.538","19.97","87.7","-2.66","0.0"],
    [1415399,"2026-06-07 02:10:00","52984","0.77","274.4","1.503","276.3","1021.559","19.67","89.2","-2.66","0.0"],
    [1415400,"2026-06-07 02:20:00","52985","0.42100000000000004","275.8","0.915","274.1","1021.546","19.51","89.5","-2.66","0.0"],
    [1415401,"2026-06-07 02:30:00","52986","0.754","278.1","1.209","277.5","1021.467","19.34","89.8","-2.66","0.0"],
    [1415402,"2026-06-07 02:40:00","52987","0.513","279.8","1.111","284.2","1021.45","19.04","90.1","-2.66","0.0"],
    [1415403,"2026-06-07 02:50:00","52988","0.0","0.0","0","0","1021.3919999999999","18.94","90.5","-2.66","0.0"],
    [1415404,"2026-06-07 03:00:00","52989","0.495","268.3","0.98","259.6","1021.3960000000001","18.93","90.9","-2.661","0.0"],
    [1415405,"2026-06-07 03:10:00","52990","0.599","271.4","1.078","266.4","1021.4010000000001","18.97","90.8","-2.636","0.0"],
    [1415406,"2026-06-07 03:20:00","52991","0.593","262.2","1.045","268.3","1021.4060000000001","18.9","90.9","-2.661","0.0"],
    [1415407,"2026-06-07 03:30:00","52992","0.677","264.2","1.535","275.4","1021.4860000000001","18.91","90.7","-2.66","0.0"],
    [1415408,"2026-06-07 03:40:00","52993","0.818","262.6","1.601","273.7","1021.5269999999999","18.9","90.3","-2.661","0.0"],
    [1415409,"2026-06-07 03:50:00","52994","1.004","271.5","1.666","277.2","1021.5980000000001","18.82","90.1","-2.6630000000000003","0.0"],
    [1415410,"2026-06-07 04:00:00","52995","0.301","272.9","1.045","266.1","1021.6510000000001","18.68","89.9","-2.634","0.0"],
    [1415411,"2026-06-07 04:10:00","52996","0.5720000000000001","282.5","1.045","268","1021.7489999999999","18.52","90.2","-1.5659999999999998","0.0"],
    [1415412,"2026-06-07 04:20:00","52997","0.75","281.4","1.045","281.2","1021.773","18.39","90.5","0.778","0.0"],
    [1415413,"2026-06-07 04:30:00","52998","0.33","287.0","1.078","284.3","1021.807","18.19","90.7","5.586","0.0"],
    [1415414,"2026-06-07 04:40:00","52999","0.867","284.1","1.405","277.7","1021.8960000000001","18.17","91.1","14.21","0.0"],
    [1415415,"2026-06-07 04:50:00","53000","1.01","282.2","1.47","284.8","1021.9169999999999","18.3","90.7","28.3","0.0"],
    [1415416,"2026-06-07 05:00:00","53001","1.125","277.2","1.829","278.1","1022.125","18.48","90.3","46.93","0.0"],
    [1415417,"2026-06-07 05:10:00","53002","0.8859999999999999","260.1","1.503","291.5","1022.26","18.66","89.3","67.3","0.0"],
    [1415418,"2026-06-07 05:20:00","53003","0.727","264.4","1.666","262.1","1022.3380000000001","18.88","88.0","89.3","0.0"],
    [1415419,"2026-06-07 05:30:00","53004","0.667","245.4","1.503","245","1022.415","19.19","86.7","114.2","0.0"],
    [1415420,"2026-06-07 05:40:00","53005","1.355","271.4","2.091","269.3","1022.545","19.36","85.8","129.3","0.0"],
    [1415421,"2026-06-07 05:50:00","53006","1.294","267.9","2.548","266.7","1022.61","19.58","85.2","171.1","0.0"],
    [1415422,"2026-06-07 06:00:00","53007","0.747","252.9","1.568","249.2","1022.7280000000001","19.92","83.6","201.9","0.0"],
    [1415423,"2026-06-07 06:10:00","53008","0.66","258.4","1.797","258.5","1022.81","20.28","81.4","233.7","0.0"],
    [1415424,"2026-06-07 06:20:00","53009","0.542","238.1","1.241","223.5","1022.7489999999999","20.69","78.96","266.9","0.0"],
    [1415425,"2026-06-07 06:30:00","53010","0.445","270.0","1.568","252.8","1022.753","21.24","76.25","299.9","0.0"],
    [1415426,"2026-06-07 06:40:00","53011","0.322","282.9","1.176","238.9","1022.8530000000001","21.75","74.4","334.6","0.0"],
    [1415427,"2026-06-07 06:50:00","53012","0.337","229.6","1.241","237.8","1022.98","22.34","73.16","346.7","0.0"],
    [1415428,"2026-06-07 07:00:00","53013","0.523","308.8","1.372","327","1023.049","22.74","71.79","387.7","0.0"],
    [1415429,"2026-06-07 07:10:00","53014","0.10099999999999999","8.54","0.947","1.324","1023.1139999999999","23.12","70.46","436.7","0.0"],
    [1415430,"2026-06-07 07:20:00","53015","0.18100000000000002","21.68","0.817","12.5","1023.16","23.71","68.41","469.1","0.0"],
    [1415431,"2026-06-07 07:30:00","53016","0.494","74.37","1.699","80.1","1023.194","24.13","67.81","476.8","0.0"],
    [1415432,"2026-06-07 07:40:00","53017","1.074","95.3","3.071","72.23","1023.207","24.35","66.4","532.3","0.0"],
    [1415433,"2026-06-07 07:50:00","53018","1.726","94.3","3.495","148.1","1023.337","23.8","68.61","551.2","0.0"],
    [1415434,"2026-06-07 08:00:00","53019","1.893","91.6","3.103","101.2","1023.4739999999999","23.33","69.31","527.4","0.0"],
    [1415435,"2026-06-07 08:10:00","53020","1.45","100.8","2.679","88.7","1023.548","23.59","67.85","578.5","0.0"],
    [1415436,"2026-06-07 08:20:00","53021","1.8430000000000002","96.9","3.92","85.9","1023.5939999999999","23.77","66.35","622.5","0.0"],
    [1415437,"2026-06-07 08:30:00","53022","1.3230000000000002","101.8","3.038","73.95","1023.6310000000001","24.23","65.16","636.5","0.0"],
    [1415438,"2026-06-07 08:40:00","53023","0.988","120.4","2.679","125.2","1023.7130000000001","24.85","62.71","710.9","0.0"],
    [1415439,"2026-06-07 08:50:00","53024","1.579","114.6","3.071","97.8","1023.791","24.61","62.18","727.7","0.0"],
    [1415440,"2026-06-07 09:00:00","53025","1.4909999999999999","141.5","3.299","119.8","1023.823","24.49","62.89","731.8","0.0"],
    [1415441,"2026-06-07 09:10:00","53026","2.108","185.4","5.423","167.8","1023.893","24.37","63.12","721.7","0.0"],
    [1415442,"2026-06-07 09:20:00","53027","2.062","190.2","3.92","215","1023.977","24.35","63.44","814.0","0.0"],
    [1415443,"2026-06-07 09:30:00","53028","1.829","189.5","5.553","191.8","1024.026","24.37","64.36","808.0","0.0"],
    [1415444,"2026-06-07 09:40:00","53029","2.298","188.1","4.083","206.2","1024.06","24.37","64.51","777.0","0.0"],
    [1415445,"2026-06-07 09:50:00","53030","2.42","168.4","4.769","157.2","1024.0510000000002","23.85","67.03","792.1","0.0"],
    [1415446,"2026-06-07 10:00:00","53031","2.799","207.5","4.769","214.1","1024.078","24.23","65.64","858.0","0.0"],
    [1415447,"2026-06-07 10:10:00","53032","3.112","177.8","4.998","187.2","1024.15","24.0","65.21","866.0","0.0"],
    [1415448,"2026-06-07 10:20:00","53033","2.596","198.1","4.965","215.3","1024.17","24.38","64.39","829.0","0.0"],
    [1415449,"2026-06-07 10:30:00","53034","2.9739999999999998","196.6","5.39","212.8","1024.213","24.6","63.26","854.0","0.0"],
    [1415450,"2026-06-07 10:40:00","53035","2.571","177.2","4.835","171.8","1024.133","24.15","63.39","921.0","0.0"],
    [1415451,"2026-06-07 10:50:00","53036","2.764","192.2","4.606","204.5","1024.063","24.32","62.8","928.0","0.0"],
    [1415452,"2026-06-07 11:00:00","53037","2.4019999999999997","176.4","4.639","159.5","1024.037","24.32","63.92","932.0","0.0"],
    [1415453,"2026-06-07 11:10:00","53038","2.178","173.4","3.691","201.8","1023.941","24.38","64.34","940.0","0.0"],
    [1415454,"2026-06-07 11:20:00","53039","2.589","192.5","5.292","191.3","1023.788","24.51","63.74","940.0","0.0"],
    [1415455,"2026-06-07 11:30:00","53040","1.942","158.6","5.423","190.4","1023.551","24.58","62.0","943.0","0.0"],
    [1415456,"2026-06-07 11:40:00","53041","1.921","167.7","4.051","198.1","1023.3939999999999","24.31","63.87","943.0","0.0"],
    [1415457,"2026-06-07 11:50:00","53042","1.921","160.2","4.377","184","1023.27","24.05","64.84","947.0","0.0"],
    [1415458,"2026-06-07 12:00:00","53043","1.673","125.8","3.757","101.3","1023.193","24.3","63.41","975.0","0.0"],
    [1415459,"2026-06-07 12:10:00","53044","1.545","116.4","3.593","102.5","1023.0210000000001","25.11","61.05","944.0","0.0"],
    [1415460,"2026-06-07 12:20:00","53045","1.578","126.2","3.953","110.8","1022.78","24.68","60.68","929.0","0.0"],
    [1415461,"2026-06-07 12:30:00","53046","1.514","134.3","3.953","162.5","1022.6439999999999","24.82","56.88","985.0","0.0"],
    [1415462,"2026-06-07 12:40:00","53047","2.146","164.3","4.475","177.8","1022.585","23.99","61.23","805.0","0.0"],
    [1415463,"2026-06-07 12:50:00","53048","1.381","163.4","3.332","162.4","1022.4989999999999","23.68","63.67","576.3","0.0"],
    [1415464,"2026-06-07 13:00:00","53049","1.364","144.1","4.149","187.6","1022.46","24.32","62.23","961.0","0.0"],
    [1415465,"2026-06-07 13:10:00","53050","1.649","134.0","4.083","180.7","1022.3580000000001","24.62","57.99","952.0","0.0"],
    [1415466,"2026-06-07 13:20:00","53051","2.154","166.7","4.802","183.8","1022.3480000000001","24.4","55.01","940.0","0.0"],
    [1415467,"2026-06-07 13:30:00","53052","1.235","129.7","4.083","89","1022.303","24.45","53.35","912.0","0.0"],
    [1415468,"2026-06-07 13:40:00","53053","2.4019999999999997","167.8","4.835","197.2","1022.283","24.34","54.44","888.0","0.0"],
    [1415469,"2026-06-07 13:50:00","53054","2.76","172.1","6.664","211.2","1022.2439999999999","24.02","55.66","884.0","0.0"],
    [1415470,"2026-06-07 14:00:00","53055","2.374","162.5","5.586","189.9","1022.153","23.74","56.43","864.0","0.0"],
    [1415471,"2026-06-07 14:10:00","53056","2.903","168.7","6.076","182","1022.0269999999999","23.67","56.79","832.0","0.0"],
    [1415472,"2026-06-07 14:20:00","53057","1.8530000000000002","166.8","4.083","183.7","1021.842","23.81","56.39","825.0","0.0"],
    [1415473,"2026-06-07 14:30:00","53058","2.673","176.3","4.508","169.9","1021.679","23.86","55.39","804.0","0.0"],
    [1415474,"2026-06-07 14:40:00","53059","1.541","136.3","4.083","174.3","1021.625","24.3","53.5","779.5","0.0"],
    [1415475,"2026-06-07 14:50:00","53060","1.578","158.1","3.593","185.9","1021.625","24.74","51.56","753.6","0.0"],
    [1415476,"2026-06-07 15:00:00","53061","1.492","160.2","3.593","180.6","1021.515","24.34","54.13","727.5","0.0"],
    [1415477,"2026-06-07 15:10:00","53062","1.604","167.9","3.593","147","1021.5319999999999","23.84","55.62","702.7","0.0"],
    [1415478,"2026-06-07 15:20:00","53063","2.0540000000000003","184.3","4.508","193.2","1021.53","24.52","54.67","640.0","0.0"],
    [1415479,"2026-06-07 15:30:00","53064","2.805","209.4","4.149","204.3","1021.592","23.96","58.35","647.8","0.0"],
    [1415480,"2026-06-07 15:40:00","53065","2.478","193.1","4.867","175.9","1021.534","23.87","58.92","594.8","0.0"],
    [1415481,"2026-06-07 15:50:00","53066","2.635","188.4","4.933","180.2","1021.508","23.65","58.77","576.3","0.0"],
    [1415482,"2026-06-07 16:00:00","53067","2.9210000000000003","181.3","4.9","184.8","1021.4580000000001","23.53","58.97","561.7","0.0"],
    [1415483,"2026-06-07 16:10:00","53068","2.531","193.3","4.769","192.6","1021.347","23.41","59.56","531.8","0.0"],
    [1415484,"2026-06-07 16:20:00","53069","2.136","193.0","4.116","181.6","1021.337","23.84","59.09","500.8","0.0"],
    [1415485,"2026-06-07 16:30:00","53070","2.537","191.6","4.933","227.6","1021.278","23.68","58.91","469.7","0.0"],
    [1415486,"2026-06-07 16:40:00","53071","3.17","200.6","5.357","160.7","1021.1439999999999","23.24","60.07","439.2","0.0"],
    [1415487,"2026-06-07 16:50:00","53072","2.484","194.7","4.345","202.2","1021.077","23.53","59.01","399.9","0.0"],
    [1415488,"2026-06-07 17:00:00","53073","2.835","193.8","4.377","231.7","1021.049","23.28","60.69","374.4","0.0"],
    [1415489,"2026-06-07 17:10:00","53074","2.571","199.0","4.345","207.9","1021.0010000000001","23.33","60.57","341.6","0.0"],
    [1415490,"2026-06-07 17:20:00","53075","2.4019999999999997","186.7","4.704","172","1020.951","23.16","60.56","298.9","0.0"],
    [1415491,"2026-06-07 17:30:00","53076","2.739","214.0","4.214","219.5","1020.885","23.1","61.05","270.0","0.0"],
    [1415492,"2026-06-07 17:40:00","53077","2.5069999999999997","198.9","4.606","242.7","1020.837","23.11","60.8","249.0","0.0"],
    [1415493,"2026-06-07 17:50:00","53078","2.5789999999999997","206.3","4.835","181.5","1020.7130000000001","23.0","60.84","215.2","0.0"],
    [1415494,"2026-06-07 18:00:00","53079","1.9569999999999999","197.3","4.965","246.2","1020.574","22.79","61.44","184.6","0.0"],
    [1415495,"2026-06-07 18:10:00","53080","2.3280000000000003","210.6","3.691","168.2","1020.591","22.8","61.86","150.6","0.0"],
    [1415496,"2026-06-07 18:20:00","53081","2.6319999999999997","212.7","5.815","218","1020.678","22.61","63.28","127.5","0.0"],
    [1415497,"2026-06-07 18:30:00","53082","2.278","205.1","4.508","197.9","1020.6210000000001","22.44","63.98","100.0","0.0"],
    [1415498,"2026-06-07 18:40:00","53083","2.395","218.3","4.083","207","1020.554","22.36","63.78","73.84","0.0"],
    [1415499,"2026-06-07 18:50:00","53084","2.352","218.8","4.508","182.5","1020.579","22.17","65.2","50.1","0.0"],
    [1415500,"2026-06-07 19:00:00","53085","2.283","221.2","3.953","207.7","1020.567","22.08","64.5","30.15","0.0"],
    [1415501,"2026-06-07 19:10:00","53086","2.307","209.4","4.377","199.3","1020.5139999999999","21.99","64.7","14.8","0.0"],
    [1415502,"2026-06-07 19:20:00","53087","1.895","221.2","3.822","203.6","1020.4639999999999","21.87","66.13","5.013999999999999","0.0"],
    [1415503,"2026-06-07 19:30:00","53088","1.212","233.2","2.025","203.8","1020.497","21.65","66.55","0.381","0.0"],
    [1415504,"2026-06-07 19:40:00","53089","1.2790000000000001","242.4","2.025","239","1020.466","21.42","67.18","-2.147","0.0"],
    [1415505,"2026-06-07 19:50:00","53090","0.7829999999999999","229.5","1.666","217.7","1020.451","21.27","66.72","-3.0580000000000003","0.0"],
    [1415506,"2026-06-07 20:00:00","53091","1.146","252.0","1.829","225.8","1020.5060000000001","21.46","65.32","-2.875","0.0"],
    [1415507,"2026-06-07 20:10:00","53092","0.833","275.1","1.601","284.1","1020.615","21.35","67.63","-3.096","0.0"],
    [1415508,"2026-06-07 20:20:00","53093","0.9890000000000001","237.8","1.601","226.8","1020.704","21.35","67.76","-2.998","0.0"],
    [1415509,"2026-06-07 20:30:00","53094","1.252","232.8","1.862","214.8","1020.6619999999999","21.28","67.48","-3.017","0.0"],
    [1415510,"2026-06-07 20:40:00","53095","0.841","248.1","1.993","219.1","1020.727","21.22","67.51","-2.759","0.0"],
    [1415511,"2026-06-07 20:50:00","53096","0.698","247.1","1.405","249","1020.815","21.14","67.48","-3.065","0.0"],
    [1415512,"2026-06-07 21:00:00","53097","0.547","255.9","1.176","245.3","1020.8389999999999","21.15","66.65","-2.7030000000000003","0.0"],
    [1415513,"2026-06-07 21:10:00","53098","0.247","257.9","1.045","279.7","1020.873","20.91","67.31","-2.83","0.0"],
    [1415514,"2026-06-07 21:20:00","53099","0.365","245.5","0.947","262","1020.875","20.88","66.2","-3.013","0.0"],
    [1415515,"2026-06-07 21:30:00","53100","0.0","0.0","0","0","1020.816","20.87","65.34","-2.665","0.0"],
    [1415516,"2026-06-07 21:40:00","53101","0.0","237.7","0.065","237.7","1020.868","20.69","66.02","-2.7110000000000003","0.0"],
    [1415517,"2026-06-07 21:50:00","53102","0.0","0.0","0","0","1020.895","21.07","63.3","-2.6689999999999996","0.0"],
    [1415518,"2026-06-07 22:00:00","53103","0.0","0.0","0","0","1020.845","21.12","62.82","-2.6630000000000003","0.0"],
    [1415519,"2026-06-07 22:10:00","53104","0.40399999999999997","188.6","1.274","187.2","1020.725","20.85","65.07","-2.9160000000000004","0.0"],
    [1415520,"2026-06-07 22:20:00","53105","0.76","188.8","1.405","189.5","1020.628","21.08","64.38","-2.702","0.0"],
    [1415521,"2026-06-07 22:30:00","53106","0.489","250.4","1.176","241.4","1020.596","20.82","65.6","-2.967","0.0"],
    [1415522,"2026-06-07 22:40:00","53107","0.516","236.5","1.143","236.1","1020.4789999999999","20.8","66.14","-2.952","0.0"],
    [1415523,"2026-06-07 22:50:00","53108","0.442","205.8","1.176","191","1020.475","20.81","66.32","-2.778","0.0"],
    [1415524,"2026-06-07 23:00:00","53109","0.71","266.7","1.274","257.6","1020.4960000000001","20.35","68.83","-2.917","0.0"],
    [1415525,"2026-06-07 23:10:00","53110","1.128","276.1","1.862","275.3","1020.409","20.25","68.6","-2.6830000000000003","0.0"],
    [1415526,"2026-06-07 23:20:00","53111","1.3319999999999999","269.4","1.993","275.8","1020.447","20.1","67.22","-2.675","0.0"],
    [1415527,"2026-06-07 23:30:00","53112","0.565","265.1","1.339","272.4","1020.515","19.95","67.1","-2.668","0.0"],
    [1415528,"2026-06-07 23:40:00","53113","0.9490000000000001","267.9","1.47","274.9","1020.4810000000001","19.64","68.11","-2.6830000000000003","0.0"],
    [1415529,"2026-06-07 23:50:00","53114","0.8440000000000001","273.5","1.339","270.2","1020.4839999999999","19.57","67.81","-2.66","0.0"],
    [1415530,"2026-06-08 00:00:00","53115","1.042","267.0","1.405","272","1020.467","19.5","67.46","-2.6639999999999997","0.0"],
    [1415531,"2026-06-08 00:10:00","53116","0.506","267.6","1.274","262.2","1020.383","19.58","66.26","-2.66","0.0"],
    [1415532,"2026-06-08 00:20:00","53117","0.682","266.8","1.307","267.9","1020.363","19.39","67.06","-2.717","0.0"],
    [1415533,"2026-06-08 00:30:00","53118","0.9229999999999999","273.0","1.503","266","1020.33","19.38","66.82","-2.674","0.0"],
    [1415534,"2026-06-08 00:40:00","53119","1.151","272.2","1.927","270.2","1020.193","19.22","67.57","-2.6689999999999996","0.0"],
    [1415535,"2026-06-08 00:50:00","53120","0.898","272.1","1.601","284.6","1020.078","19.21","67.87","-2.665","0.0"],
    [1415536,"2026-06-08 01:00:00","53121","0.968","263.3","1.699","293.2","1019.9939999999999","19.06","68.3","-2.667","0.0"],
    [1415537,"2026-06-08 01:10:00","53122","0.91","271.9","1.797","298.3","1019.8560000000001","19.0","68.12","-2.6639999999999997","0.0"],
    [1415538,"2026-06-08 01:20:00","53123","1.022","273.6","2.091","270.8","1019.812","18.78","69.1","-2.6710000000000003","0.0"],
    [1415539,"2026-06-08 01:30:00","53124","1.3330000000000002","272.1","2.287","288.1","1019.7610000000001","18.76","69.67","-2.665","0.0"],
    [1415540,"2026-06-08 01:40:00","53125","1.411","263.5","2.025","275.4","1019.628","18.68","70.07","-2.6630000000000003","0.0"],
    [1415541,"2026-06-08 01:50:00","53126","1.9040000000000001","273.7","2.417","268.1","1019.485","18.5","70.75","-2.667","0.0"],
    [1415542,"2026-06-08 02:00:00","53127","1.495","275.2","2.417","267","1019.3480000000001","18.41","71.17","-2.667","0.0"],
    [1415543,"2026-06-08 02:10:00","53128","1.42","279.5","2.352","287.8","1019.278","18.29","71.75","-2.67","0.0"],
    [1415544,"2026-06-08 02:20:00","53129","1.024","280.9","1.895","287.9","1019.172","18.26","71.98","-2.668","0.0"],
    [1415545,"2026-06-08 02:30:00","53130","1.3459999999999999","280.9","2.319","284","1019.096","18.24","72.26","-2.6719999999999997","0.0"],
    [1415546,"2026-06-08 02:40:00","53131","1.743","281.9","2.613","276.7","1018.993","18.3","72.02","-2.681","0.0"],
    [1415547,"2026-06-08 02:50:00","53132","1.02","269.5","2.679","295","1018.883","18.36","71.59","-2.678","0.0"],
    [1415548,"2026-06-08 03:00:00","53133","1.604","287.2","2.646","288.6","1018.86","18.18","72.45","-2.6839999999999997","0.0"],
    [1415549,"2026-06-08 03:10:00","53134","1.96","277.2","3.103","273.7","1018.795","18.06","72.74","-2.681","0.0"],
    [1415550,"2026-06-08 03:20:00","53135","1.777","269.8","2.711","268","1018.7660000000001","17.9","73.16","-2.62","0.0"],
    [1415551,"2026-06-08 03:30:00","53136","1.973","274.1","2.842","260.8","1018.694","17.67","74.23","-2.562","0.0"],
    [1415552,"2026-06-08 03:40:00","53137","1.265","278.1","1.96","273.6","1018.568","17.56","74.81","-2.595","0.0"],
    [1415553,"2026-06-08 03:50:00","53138","0.9540000000000001","265.3","2.091","264.2","1018.56","17.69","74.35","-2.6839999999999997","0.0"],
    [1415554,"2026-06-08 04:00:00","53139","1.1159999999999999","265.6","1.927","264.4","1018.477","17.97","73.39","-2.247","0.0"],
    [1415555,"2026-06-08 04:10:00","53140","0.996","281.0","1.568","261.5","1018.3439999999999","17.93","73.71","-1.42","0.0"],
    [1415556,"2026-06-08 04:20:00","53141","1.025","281.3","1.601","272.6","1018.294","17.87","74.32","0.73","0.0"],
    [1415557,"2026-06-08 04:30:00","53142","1.8319999999999999","277.7","2.744","286.6","1018.2639999999999","18.15","73.47","5.62","0.0"],
    [1415558,"2026-06-08 04:40:00","53143","1.3940000000000001","282.0","2.189","287.6","1018.216","18.28","72.89","15.35","0.0"],
    [1415559,"2026-06-08 04:50:00","53144","0.935","291.9","1.601","298.7","1018.127","18.38","72.85","30.44","0.0"],
    [1415560,"2026-06-08 05:00:00","53145","1.38","285.6","2.058","278.9","1018.085","18.73","71.57","48.37","0.0"],
    [1415561,"2026-06-08 05:10:00","53146","1.493","282.1","2.025","285.6","1018.028","19.15","69.81","69.43","0.0"],
    [1415562,"2026-06-08 05:20:00","53147","1.5959999999999999","280.5","2.287","271.2","1018.054","19.46","68.73","93.6","0.0"],
    [1415563,"2026-06-08 05:30:00","53148","1.801","293.2","2.809","303.2","1018.1","19.71","68.24","120.5","0.0"],
    [1415564,"2026-06-08 05:40:00","53149","1.891","285.8","2.907","289.9","1018.196","20.13","66.63","136.4","0.0"],
    [1415565,"2026-06-08 05:50:00","53150","1.6159999999999999","295.9","2.45","315.4","1018.189","20.52","65.09","178.9","0.0"],
    [1415566,"2026-06-08 06:00:00","53151","1.882","295.6","3.071","307.4","1018.193","20.95","63.0","209.1","0.0"],
    [1415567,"2026-06-08 06:10:00","53152","1.3769999999999998","274.3","2.483","280.6","1018.279","21.38","61.79","240.3","0.0"],
    [1415568,"2026-06-08 06:20:00","53153","1.945","297.6","2.94","303.6","1018.316","21.87","59.2","272.3","0.0"],
    [1415569,"2026-06-08 06:30:00","53154","1.841","288.3","2.548","282.4","1018.318","22.21","57.87","303.6","0.0"],
    [1415570,"2026-06-08 06:40:00","53155","1.8559999999999999","291.9","3.071","294.2","1018.295","22.48","56.78","335.9","0.0"],
    [1415571,"2026-06-08 06:50:00","53156","1.615","296.9","2.842","281","1018.291","23.14","55.27","367.3","0.0"],
    [1415572,"2026-06-08 07:00:00","53157","1.521","277.6","2.679","294.1","1018.302","23.33","54.37","398.4","0.0"],
    [1415573,"2026-06-08 07:10:00","53158","1.068","243.7","1.927","270.2","1018.3589999999999","23.86","53.15","428.5","0.0"],
    [1415574,"2026-06-08 07:20:00","53159","0.8270000000000001","183.9","1.47","186.7","1018.3989999999999","24.13","50.69","463.2","0.0"],
    [1415575,"2026-06-08 07:30:00","53160","1.254","201.1","3.299","230","1018.539","24.6","48.11","492.0","0.0"],
    [1415576,"2026-06-08 07:40:00","53161","1.2309999999999999","158.8","3.495","130","1018.5939999999999","24.94","48.17","522.3","0.0"],
    [1415577,"2026-06-08 07:50:00","53162","0.988","133.7","2.221","120.7","1018.715","25.16","47.99","553.9","0.0"],
    [1415578,"2026-06-08 08:00:00","53163","1.6219999999999999","146.6","3.495","183.4","1018.8839999999999","24.92","47.52","585.3","0.0"],
    [1415579,"2026-06-08 08:10:00","53164","1.682","163.3","3.724","172.6","1018.914","24.31","53.1","617.0","0.0"],
    [1415580,"2026-06-08 08:20:00","53165","1.2229999999999999","139.8","3.757","166.4","1018.863","24.28","54.72","645.0","0.0"],
    [1415581,"2026-06-08 08:30:00","53166","2.076","165.3","3.495","182.9","1018.8689999999999","24.87","50.96","633.4","0.0"],
    [1415582,"2026-06-08 08:40:00","53167","2.5069999999999997","168.2","3.887","164.4","1018.865","24.33","50.95","700.8","0.0"],
    [1415583,"2026-06-08 08:50:00","53168","2.372","183.2","3.855","177.5","1018.8689999999999","24.68","52.61","701.5","0.0"],
    [1415584,"2026-06-08 09:00:00","53169","2.386","198.0","3.691","193.5","1018.806","25.01","54.67","743.8","0.0"],
    [1415585,"2026-06-08 09:10:00","53170","2.205","198.4","4.083","209","1018.7869999999999","25.3","53.3","776.8","0.0"],
    [1415586,"2026-06-08 09:20:00","53171","2.173","188.0","3.789","177.8","1018.73","25.36","49.35","799.7","0.0"],
    [1415587,"2026-06-08 09:30:00","53172","2.299","189.1","3.822","179.2","1018.71","25.61","47.52","821.0","0.0"],
    [1415588,"2026-06-08 09:40:00","53173","3.127","209.3","4.443","223.2","1018.7230000000001","25.25","49.6","841.0","0.0"],
    [1415589,"2026-06-08 09:50:00","53174","2.945","196.9","4.802","174","1018.701","25.41","52.97","859.0","0.0"],
    [1415590,"2026-06-08 10:00:00","53175","2.905","192.3","5.129","176.9","1018.68","25.07","54.86","876.0","0.0"],
    [1415591,"2026-06-08 10:10:00","53176","3.28","205.0","5.194","229.3","1018.702","24.99","55.07","892.0","0.0"],
    [1415592,"2026-06-08 10:20:00","53177","3.325","209.4","5.684","187.1","1018.676","24.96","53.78","906.0","0.0"],
    [1415593,"2026-06-08 10:30:00","53178","2.8480000000000003","198.4","4.443","221.1","1018.67","25.6","51.84","919.0","0.0"],
    [1415594,"2026-06-08 10:40:00","53179","2.84","197.8","4.606","185.2","1018.752","25.84","50.82","931.0","0.0"],
    [1415595,"2026-06-08 10:50:00","53180","2.6489999999999996","197.2","4.639","164.4","1018.845","25.92","49.89","941.0","0.0"],
    [1415596,"2026-06-08 11:00:00","53181","3.3510000000000004","193.5","5.619","177.5","1018.8480000000001","25.6","52.19","950.0","0.0"],
    [1415597,"2026-06-08 11:10:00","53182","3.485","199.6","6.043","201.4","1018.797","24.83","55.6","956.0","0.0"],
    [1415598,"2026-06-08 11:20:00","53183","3.985","205.8","5.913","185.7","1018.7560000000001","25.09","55.46","963.0","0.0"],
    [1415599,"2026-06-08 11:30:00","53184","3.3110000000000004","192.4","5.847","188.4","1018.7230000000001","25.23","62.19","967.0","0.0"],
    [1415600,"2026-06-08 11:40:00","53185","4.175","210.4","7.252","209.3","1018.663","24.65","66.09","972.0","0.0"],
    [1415601,"2026-06-08 11:50:00","53186","3.61","196.7","6.174","215.4","1018.6089999999999","24.55","67.1","972.0","0.0"],
    [1415602,"2026-06-08 12:00:00","53187","3.722","186.5","6.239","186","1018.592","24.52","66.43","974.0","0.0"],
    [1415603,"2026-06-08 12:10:00","53188","3.2439999999999998","192.6","6.599","205.4","1018.477","24.66","63.96","971.0","0.0"],
    [1415604,"2026-06-08 12:20:00","53189","3.5269999999999997","206.2","6.239","222.4","1018.3910000000001","24.68","64.71","966.0","0.0"],
    [1415605,"2026-06-08 12:30:00","53190","3.987","195.4","7.285","220.9","1018.303","24.48","65.36","964.0","0.0"],
    [1415606,"2026-06-08 12:40:00","53191","4.044","196.2","6.239","184","1018.185","24.49","65.23","958.0","0.0"],
    [1415607,"2026-06-08 12:50:00","53192","3.245","201.2","5.945","206.1","1018.061","24.67","64.36","948.0","0.0"],
    [1415608,"2026-06-08 13:00:00","53193","3.09","203.3","6.272","178.1","1017.954","24.72","63.59","941.0","0.0"],
    [1415609,"2026-06-08 13:10:00","53194","3.168","199.9","6.827","188.6","1017.795","24.67","63.77","930.0","0.0"],
    [1415610,"2026-06-08 13:20:00","53195","3.0239999999999996","198.9","5.684","168.6","1017.679","25.19","62.0","918.0","0.0"],
    [1415611,"2026-06-08 13:30:00","53196","3.002","185.3","5.423","173.2","1017.572","25.15","61.95","905.0","0.0"],
    [1415612,"2026-06-08 13:40:00","53197","2.8480000000000003","193.5","5.259","218.6","1017.523","25.15","62.15","890.0","0.0"],
    [1415613,"2026-06-08 13:50:00","53198","3.362","183.5","5.717","218.7","1017.495","24.79","64.25","873.0","0.0"],
    [1415614,"2026-06-08 14:00:00","53199","3.555","205.9","6.043","208.5","1017.39","24.94","63.37","856.0","0.0"],
    [1415615,"2026-06-08 14:10:00","53200","3.089","199.7","5.161","182.3","1017.278","24.8","64.63","837.0","0.0"],
    [1415616,"2026-06-08 14:20:00","53201","3.0060000000000002","201.0","5.357","208.1","1017.183","24.84","66.07","818.0","0.0"],
    [1415617,"2026-06-08 14:30:00","53202","2.884","194.4","5.227","172.9","1017.0319999999999","24.97","66.78","797.2","0.0"],
    [1415618,"2026-06-08 14:40:00","53203","3.262","194.8","5.325","209.2","1016.957","24.87","67.43","774.2","0.0"],
    [1415619,"2026-06-08 14:50:00","53204","3.661","191.5","6.174","178.5","1016.852","24.42","69.08","751.5","0.0"],
    [1415620,"2026-06-08 15:00:00","53205","2.984","198.5","5.292","219","1016.7189999999999","25.09","67.04","726.7","0.0"],
    [1415621,"2026-06-08 15:10:00","53206","3.0069999999999997","190.3","5.259","174.3","1016.6030000000001","24.84","68.15","702.7","0.0"],
    [1415622,"2026-06-08 15:20:00","53207","3.397","198.1","5.488","213.9","1016.56","24.82","67.94","638.0","0.0"],
    [1415623,"2026-06-08 15:30:00","53208","3.43","191.2","6.011","172.5","1016.459","24.76","67.98","647.1","0.0"],
    [1415624,"2026-06-08 15:40:00","53209","3.2430000000000003","195.7","5.684","222.9","1016.5","24.77","68.2","593.2","0.0"],
    [1415625,"2026-06-08 15:50:00","53210","3.2119999999999997","195.4","5.455","219.1","1016.431","24.78","68.2","578.6","0.0"],
    [1415626,"2026-06-08 16:00:00","53211","3.247","195.4","5.161","211.6","1016.278","24.77","67.51","562.5","0.0"],
    [1415627,"2026-06-08 16:10:00","53212","2.97","190.4","5.684","185.5","1016.186","24.81","68.03","532.1","0.0"],
    [1415628,"2026-06-08 16:20:00","53213","2.9610000000000003","188.2","5.129","177.9","1016.015","24.63","68.53","499.3","0.0"],
    [1415629,"2026-06-08 16:30:00","53214","3.3819999999999997","193.4","5.717","175.6","1015.9739999999999","24.67","68.52","467.8","0.0"],
    [1415630,"2026-06-08 16:40:00","53215","3.068","204.8","5.455","222.4","1015.887","24.63","67.6","432.8","0.0"],
    [1415631,"2026-06-08 16:50:00","53216","3.125","189.1","5.194","169.2","1015.7660000000001","24.6","68.24","399.6","0.0"],
    [1415632,"2026-06-08 17:00:00","53217","2.8819999999999997","200.2","5.978","207.9","1015.685","24.5","68.2","367.2","0.0"],
    [1415633,"2026-06-08 17:10:00","53218","2.986","204.4","6.925","199.3","1015.633","24.73","65.19","335.7","0.0"],
    [1415634,"2026-06-08 17:20:00","53219","2.533","194.2","4.671","188.2","1015.578","24.66","64.34","303.7","0.0"],
    [1415635,"2026-06-08 17:30:00","53220","2.077","206.5","4.214","215.6","1015.6110000000001","25.05","62.25","273.1","0.0"],
    [1415636,"2026-06-08 17:40:00","53221","2.7","216.2","4.867","223.5","1015.525","25.01","58.79","241.2","0.0"],
    [1415637,"2026-06-08 17:50:00","53222","2.662","219.6","4.312","224.5","1015.559","25.2","57.74","208.8","0.0"],
    [1415638,"2026-06-08 18:00:00","53223","2.3209999999999997","227.5","4.181","207.9","1015.643","25.39","54.84","177.4","0.0"],
    [1415639,"2026-06-08 18:10:00","53224","1.8219999999999998","229.7","3.038","225.7","1015.572","25.68","52.29","137.6","0.0"],
    [1415640,"2026-06-08 18:20:00","53225","1.555","230.1","3.267","230","1015.5239999999999","25.82","49.59","114.4","0.0"],
    [1415641,"2026-06-08 18:30:00","53226","1.689","190.1","2.646","196","1015.472","25.83","50.4","84.4","0.0"],
    [1415642,"2026-06-08 18:40:00","53227","1.391","176.1","2.385","166.9","1015.4789999999999","25.18","58.76","38.9","0.0"],
    [1415643,"2026-06-08 18:50:00","53228","1.66","168.6","2.189","173.9","1015.431","24.24","68.07","24.32","0.0"],
    [1415644,"2026-06-08 19:00:00","53229","1.439","165.3","2.548","168.5","1015.311","23.97","69.22","25.46","0.0"],
    [1415645,"2026-06-08 19:10:00","53230","1.92","175.8","2.711","168.9","1015.179","23.76","69.1","12.31","0.0"],
    [1415646,"2026-06-08 19:20:00","53231","1.6469999999999998","172.4","2.319","158","1015.2869999999999","23.49","69.21","5.355","0.0"],
    [1415647,"2026-06-08 19:30:00","53232","1.013","164.1","4.508","172.4","1015.38","23.32","68.38","0.569","0.0"],
    [1415648,"2026-06-08 19:40:00","53233","0.96","154.3","2.875","151","1015.436","23.31","70.32","-1.5619999999999998","0.0"],
    [1415649,"2026-06-08 19:50:00","53234","1.126","162.2","2.94","177.1","1015.546","23.05","72.25","-2.488","0.0"],
    [1415650,"2026-06-08 20:00:00","53235","0.563","142.8","2.907","170","1015.703","22.92","75.77","-2.6310000000000002","0.0"],
    [1415651,"2026-06-08 20:10:00","53236","0.727","135.0","3.071","172.5","1015.819","22.48","82.3","-2.655","0.0"],
    [1415652,"2026-06-08 20:20:00","53237","1.25","107.9","3.267","100.7","1016.0360000000001","22.24","83.6","-2.66","0.0"],
    [1415653,"2026-06-08 20:30:00","53238","1.8090000000000002","92.2","3.561","85.5","1016.2869999999999","22.27","83.9","-2.655","0.0"],
    [1415654,"2026-06-08 20:40:00","53239","1.359","99.8","2.744","110.3","1016.5039999999999","22.18","84.1","-2.655","0.0"],
    [1415655,"2026-06-08 20:50:00","53240","2.1519999999999997","70.21","3.332","88.3","1016.818","22.19","84.4","-2.656","0.0"],
    [1415656,"2026-06-08 21:00:00","53241","2.546","70.19","4.181","96.2","1016.919","22.1","84.1","-2.6519999999999997","0.0"],
    [1415657,"2026-06-08 21:10:00","53242","2.167","69.34","3.071","67.18","1016.9889999999999","22.2","84.9","-2.636","0.0"],
    [1415658,"2026-06-08 21:20:00","53243","2.11","68.01","2.973","58.83","1016.9019999999999","22.06","85.9","-2.659","0.0"],
    [1415659,"2026-06-08 21:30:00","53244","1.636","62.68","2.515","66.04","1017.038","22.0","86.0","-2.642","0.0"],
    [1415660,"2026-06-08 21:40:00","53245","2.198","56.06","3.593","45.14","1017.074","21.96","86.1","-2.526","0.0"],
    [1415661,"2026-06-08 21:50:00","53246","2.693","64.38","3.822","74.5","1016.9839999999999","21.98","86.5","-2.658","0.0"],
    [1415662,"2026-06-08 22:00:00","53247","2.7230000000000003","55.37","4.149","38.49","1017.078","21.97","86.8","-2.3930000000000002","0.0"],
    [1415663,"2026-06-08 22:10:00","53248","2.77","45.98","4.279","59.72","1017.178","21.97","87.3","-2.309","0.0"],
    [1415664,"2026-06-08 22:20:00","53249","3.0580000000000003","52.41","4.475","40.67","1017.158","21.99","87.4","-2.088","0.0"],
    [1415665,"2026-06-08 22:30:00","53250","3.1210000000000004","52.89","4.737","57.55","1017.137","22.0","87.9","-1.9280000000000002","0.0"],
    [1415666,"2026-06-08 22:40:00","53251","3.1919999999999997","52.15","4.704","53.89","1017.122","21.98","88.3","-1.901","0.0"],
    [1415667,"2026-06-08 22:50:00","53252","3.2060000000000004","49.23","4.998","53.26","1017.2180000000001","21.92","88.2","-1.9069999999999998","0.0"],
    [1415668,"2026-06-08 23:00:00","53253","3.15","46.35","4.965","42.48","1017.3810000000001","21.84","87.6","-1.9080000000000001","0.0"],
    [1415669,"2026-06-08 23:10:00","53254","2.89","39.96","5.357","62.85","1017.512","21.83","87.6","-1.837","0.0"],
    [1415670,"2026-06-08 23:20:00","53255","2.421","53.59","3.757","42.76","1017.7130000000001","21.89","87.6","-1.1909999999999998","0.0"],
    [1415671,"2026-06-08 23:30:00","53256","2.7110000000000003","59.75","3.887","65.53","1017.587","21.96","87.3","-1.159","0.0"],
    [1415672,"2026-06-08 23:40:00","53257","2.164","48.11","3.659","55.52","1017.535","21.96","87.1","-1.158","0.0"],
    [1415673,"2026-06-08 23:50:00","53258","2.28","49.54","3.365","55.87","1017.507","21.88","87.2","-1.159","0.0"],
    [1415674,"2026-06-09 00:00:00","53259","2.3409999999999997","53.56","3.136","56.42","1017.2310000000001","21.92","87.2","-1.1640000000000001","0.0"],
    [1415675,"2026-06-09 00:10:00","53260","2.908","56.68","4.018","60.99","1017.035","21.86","87.7","-1.173","0.0"],
    [1415676,"2026-06-09 00:20:00","53261","2.753","70.27","4.149","72.02","1016.9010000000001","21.85","89.4","-2.013","0.0"],
    [1415677,"2026-06-09 00:30:00","53262","2.963","81.5","4.018","80.7","1016.7139999999999","21.74","90.8","-1.986","0.0"],
    [1415678,"2026-06-09 00:40:00","53263","2.528","86.6","3.887","76.46","1016.6260000000001","21.71","90.4","-2.0540000000000003","0.0"],
    [1415679,"2026-06-09 00:50:00","53264","2.476","73.61","3.561","81","1016.74","21.61","88.3","-1.554","0.0"],
    [1415680,"2026-06-09 01:00:00","53265","2.0980000000000003","47.99","3.234","55","1016.873","21.61","87.4","-1.663","0.0"],
    [1415681,"2026-06-09 01:10:00","53266","1.635","54.91","2.548","44.97","1016.923","21.61","86.8","-1.909","0.0"],
    [1415682,"2026-06-09 01:20:00","53267","1.6059999999999999","43.66","2.156","47.74","1016.929","21.58","86.7","-1.9709999999999999","0.0"],
    [1415683,"2026-06-09 01:30:00","53268","1.344","41.59","2.385","36.86","1016.882","21.51","86.7","-2.441","0.0"],
    [1415684,"2026-06-09 01:40:00","53269","1.229","46.87","1.797","54.19","1016.806","21.44","86.1","-2.616","0.0"],
    [1415685,"2026-06-09 01:50:00","53270","1.278","45.0","2.058","66.43","1016.7310000000001","21.35","85.8","-2.641","0.0"],
    [1415686,"2026-06-09 02:00:00","53271","1.6059999999999999","56.25","2.254","51.66","1016.6360000000001","21.4","84.9","-2.595","0.0"],
    [1415687,"2026-06-09 02:10:00","53272","1.273","58.0","1.96","52.98","1016.6080000000001","21.33","85.1","-2.635","0.0"],
    [1415688,"2026-06-09 02:20:00","53273","0.774","48.98","1.143","49.59","1016.678","21.17","85.7","-2.634","0.0"],
    [1415689,"2026-06-09 02:30:00","53274","0.893","45.84","1.633","41.75","1016.6669999999999","21.07","86.2","-2.66","0.0"],
    [1415690,"2026-06-09 02:40:00","53275","0.753","44.05","1.372","46.3","1016.682","20.99","86.3","-2.588","0.0"],
    [1415691,"2026-06-09 02:50:00","53276","0.15","57.59","0.588","58.65","1016.679","20.93","86.2","-2.552","0.0"],
    [1415692,"2026-06-09 03:00:00","53277","0.392","72.69","1.209","75.62","1016.711","20.81","86.6","-2.324","0.0"],
    [1415693,"2026-06-09 03:10:00","53278","0.306","88.8","1.045","78.1","1016.7710000000001","20.77","86.1","-1.891","0.0"],
    [1415694,"2026-06-09 03:20:00","53279","0.179","84.3","0.882","69.24","1016.823","20.84","84.8","-1.403","0.0"],
    [1415695,"2026-06-09 03:30:00","53280","0.27699999999999997","82.2","0.784","88.9","1016.8710000000001","21.02","83.6","-1.327","0.0"],
    [1415696,"2026-06-09 03:40:00","53281","0.37","71.94","0.784","70.63","1016.8580000000001","21.16","83.0","-1.635","0.0"],
    [1415697,"2026-06-09 03:50:00","53282","0.087","79.33","0.425","81.5","1016.895","21.1","83.3","-1.8659999999999999","0.0"],
    [1415698,"2026-06-09 04:00:00","53283","0.02","77.39","0.359","77.39","1016.926","21.04","83.5","-1.744","0.0"],
    [1415699,"2026-06-09 04:10:00","53284","0.332","183.9","1.078","175.6","1016.9169999999999","21.02","82.8","-1.048","0.0"],
    [1415700,"2026-06-09 04:20:00","53285","0.95","190.3","1.862","184","1016.855","21.22","81.8","0.8640000000000001","0.0"],
    [1415701,"2026-06-09 04:30:00","53286","0.764","197.8","1.535","204.1","1016.86","21.33","81.7","5.022","0.0"],
    [1415702,"2026-06-09 04:40:00","53287","0.755","201.0","1.47","210.8","1016.873","21.27","83.1","13.55","0.0"],
    [1415703,"2026-06-09 04:50:00","53288","0.8009999999999999","195.7","1.633","193.9","1016.877","21.21","83.6","26.09","0.0"],
    [1415704,"2026-06-09 05:00:00","53289","0.937","205.0","1.699","219.5","1016.961","21.21","83.4","39.98","0.0"],
    [1415705,"2026-06-09 05:10:00","53290","1.115","215.7","1.666","216.3","1017.1260000000001","21.32","82.9","38.0","0.0"],
    [1415706,"2026-06-09 05:20:00","53291","1.228","224.0","3.103","200.1","1017.1569999999999","21.46","82.1","47.43","0.0"],
    [1415707,"2026-06-09 05:30:00","53292","1.034","197.5","4.573","216.8","1017.1519999999999","21.65","81.6","73.3","0.0"],
    [1415708,"2026-06-09 05:40:00","53293","1.4669999999999999","216.4","3.299","228.6","1017.178","21.84","79.49","137.8","0.0"],
    [1415709,"2026-06-09 05:50:00","53294","1.811","203.9","3.365","230","1017.202","22.04","78.34","173.3","0.0"],
    [1415710,"2026-06-09 06:00:00","53295","1.6","206.7","3.92","187.2","1017.2439999999999","21.93","78.59","120.7","0.0"],
    [1415711,"2026-06-09 06:10:00","53296","2.3280000000000003","212.7","4.181","182.1","1017.3330000000001","21.9","79.01","164.8","0.0"],
    [1415712,"2026-06-09 06:20:00","53297","2.231","210.4","4.083","183.5","1017.438","21.96","78.33","132.8","0.0"],
    [1415713,"2026-06-09 06:30:00","53298","2.41","206.6","3.985","178.7","1017.553","22.1","77.94","167.9","0.0"],
    [1415714,"2026-06-09 06:40:00","53299","2.194","205.2","4.051","224.2","1017.6239999999999","22.09","78.3","106.5","0.0"],
    [1415715,"2026-06-09 06:50:00","53300","2.479","205.2","5.619","182.9","1017.6339999999999","22.2","77.82","186.3","0.0"],
    [1415716,"2026-06-09 07:00:00","53301","1.764","196.3","4.802","216.1","1017.66","22.35","76.71","181.7","0.0"],
    [1415717,"2026-06-09 07:10:00","53302","2.479","205.6","5.488","189.6","1017.679","22.33","76.37","195.7","0.0"],
    [1415718,"2026-06-09 07:20:00","53303","2.918","211.3","4.345","207.1","1017.675","22.52","75.82","213.1","0.0"],
    [1415719,"2026-06-09 07:30:00","53304","2.353","208.9","4.835","209.8","1017.692","22.75","74.67","246.5","0.0"],
    [1415720,"2026-06-09 07:40:00","53305","2.745","221.2","4.835","207.8","1017.7239999999999","22.86","73.95","223.2","0.0"],
    [1415721,"2026-06-09 07:50:00","53306","2.225","227.1","3.92","223.1","1017.753","23.05","73.06","212.2","0.0"],
    [1415722,"2026-06-09 08:00:00","53307","2.5469999999999997","212.8","5.325","205.4","1017.807","23.05","73.39","256.3","0.0"],
    [1415723,"2026-06-09 08:10:00","53308","3.537","212.5","5.847","227.2","1017.804","23.14","73.33","373.3","0.0"],
    [1415724,"2026-06-09 08:20:00","53309","2.698","211.6","5.031","205.9","1017.78","23.58","72.22","468.5","0.0"],
    [1415725,"2026-06-09 08:30:00","53310","3.372","217.1","5.39","232","1017.783","23.65","71.97","385.2","0.0"],
    [1415726,"2026-06-09 08:40:00","53311","3.383","210.4","7.971","211.8","1017.822","23.43","73.14","355.6","0.0"],
    [1415727,"2026-06-09 08:50:00","53312","3.5810000000000004","211.9","5.978","226.3","1017.827","23.36","73.12","456.7","0.0"],
    [1415728,"2026-06-09 09:00:00","53313","2.7460000000000004","205.6","5.292","208.8","1017.828","23.91","71.87","514.8","0.0"],
    [1415729,"2026-06-09 09:10:00","53314","3.6069999999999998","211.4","6.435","218.1","1017.842","23.97","71.36","548.3","0.0"],
    [1415730,"2026-06-09 09:20:00","53315","3.847","210.7","6.827","202.9","1017.801","23.91","71.56","527.5","0.0"],
    [1415731,"2026-06-09 09:30:00","53316","3.72","210.7","5.88","222.5","1017.821","23.85","72.06","520.5","0.0"],
    [1415732,"2026-06-09 09:40:00","53317","3.582","213.9","5.88","226.8","1017.796","24.13","71.28","570.3","0.0"],
    [1415733,"2026-06-09 09:50:00","53318","3.428","208.6","5.782","227.1","1017.727","24.2","71.44","606.2","0.0"],
    [1415734,"2026-06-09 10:00:00","53319","4.167","213.3","7.383","226.9","1017.707","23.98","72.07","519.8","0.0"],
    [1415735,"2026-06-09 10:10:00","53320","3.676","211.5","6.403","231.4","1017.65","24.28","70.97","658.2","0.0"],
    [1415736,"2026-06-09 10:20:00","53321","4.613","217.3","6.958","222.5","1017.605","24.44","70.06","655.9","0.0"],
    [1415737,"2026-06-09 10:30:00","53322","4.742","210.7","7.873","207.9","1017.6060000000001","24.49","70.27","687.7","0.0"],
    [1415738,"2026-06-09 10:40:00","53323","3.997","211.7","7.579","240.5","1017.574","25.1","68.74","960.0","0.0"],
    [1415739,"2026-06-09 10:50:00","53324","3.727","210.2","6.599","215.5","1017.528","25.16","67.98","887.0","0.0"],
    [1415740,"2026-06-09 11:00:00","53325","4.058","209.2","6.435","204.5","1017.431","25.07","68.41","853.0","0.0"],
    [1415741,"2026-06-09 11:10:00","53326","4.196000000000001","206.0","6.533","207.1","1017.3939999999999","25.37","67.43","895.0","0.0"],
    [1415742,"2026-06-09 11:20:00","53327","4.582","211.2","8.23","211.9","1017.3610000000001","25.3","67.27","963.0","0.0"],
    [1415743,"2026-06-09 11:30:00","53328","3.497","203.5","5.913","222.4","1017.253","25.86","66.1","1002.0","0.0"],
    [1415744,"2026-06-09 11:40:00","53329","3.431","201.6","6.207","207.1","1017.1610000000001","25.84","65.89","964.0","0.0"],
    [1415745,"2026-06-09 11:50:00","53330","3.0989999999999998","199.7","6.207","212.9","1017.095","26.31","64.54","964.0","0.0"],
    [1415746,"2026-06-09 12:00:00","53331","3.5639999999999996","198.8","6.37","206.1","1017.059","25.89","65.62","961.0","0.0"],
    [1415747,"2026-06-09 12:10:00","53332","3.8480000000000003","206.2","6.272","217","1017.028","25.82","65.58","956.0","0.0"],
    [1415748,"2026-06-09 12:20:00","53333","3.895","210.0","6.239","210.2","1016.9789999999999","25.98","64.86","953.0","0.0"],
    [1415749,"2026-06-09 12:30:00","53334","3.537","200.4","7.187","218.7","1016.9010000000001","25.84","65.68","949.0","0.0"],
    [1415750,"2026-06-09 12:40:00","53335","3.78","208.4","6.174","210.4","1016.855","25.76","65.62","938.0","0.0"],
    [1415751,"2026-06-09 12:50:00","53336","3.4730000000000003","207.4","6.991","230.9","1016.8439999999999","25.96","65.18","933.0","0.0"],
    [1415752,"2026-06-09 13:00:00","53337","4.125","209.8","6.893","229.2","1016.779","25.79","65.54","918.0","0.0"],
    [1415753,"2026-06-09 13:10:00","53338","4.428","212.8","6.925","208.9","1016.689","25.62","65.87","920.0","0.0"],
    [1415754,"2026-06-09 13:20:00","53339","4.265","211.2","7.611","226.8","1016.658","25.82","65.52","919.0","0.0"],
    [1415755,"2026-06-09 13:30:00","53340","3.855","207.0","7.579","213.8","1016.65","26.2","64.06","934.0","0.0"],
    [1415756,"2026-06-09 13:40:00","53341","4.026","203.0","6.991","202.1","1016.628","25.73","64.97","821.0","0.0"],
    [1415757,"2026-06-09 13:50:00","53342","3.565","201.9","6.207","213.7","1016.6030000000001","25.67","66.26","841.0","0.0"],
    [1415758,"2026-06-09 14:00:00","53343","3.6189999999999998","197.6","6.795","176.8","1016.65","25.66","66.68","740.2","0.0"],
    [1415759,"2026-06-09 14:10:00","53344","4.794","187.1","7.611","175.4","1016.65","24.19","71.82","565.4","0.0"],
    [1415760,"2026-06-09 14:20:00","53345","4.1819999999999995","202.2","8.13","215.9","1016.6139999999999","24.61","70.87","845.0","0.0"],
    [1415761,"2026-06-09 14:30:00","53346","4.377","196.2","7.023","181","1016.541","24.48","70.83","784.1","0.0"],
    [1415762,"2026-06-09 14:40:00","53347","3.9789999999999996","201.8","7.154","176.3","1016.427","24.75","70.75","773.3","0.0"],
    [1415763,"2026-06-09 14:50:00","53348","4.4510000000000005","185.8","6.729","166","1016.408","24.48","71.19","761.4","0.0"],
    [1415764,"2026-06-09 15:00:00","53349","3.083","190.8","5.945","171","1016.367","24.79","70.23","679.7","0.0"],
    [1415765,"2026-06-09 15:10:00","53350","3.748","173.3","6.207","162","1016.433","23.94","73.73","642.3","0.0"],
    [1415766,"2026-06-09 15:20:00","53351","4.051","186.7","6.664","181.6","1016.4810000000001","23.68","74.7","577.8","0.0"],
    [1415767,"2026-06-09 15:30:00","53352","2.9010000000000002","195.8","5.423","186","1016.4789999999999","24.19","72.84","484.5","0.0"],
    [1415768,"2026-06-09 15:40:00","53353","2.204","174.3","5.096","188.4","1016.4960000000001","24.02","72.9","415.9","0.0"],
    [1415769,"2026-06-09 15:50:00","53354","1.594","122.4","4.377","116.4","1016.442","24.24","72.3","653.2","0.0"],
    [1415770,"2026-06-09 16:00:00","53355","1.3130000000000002","128.5","3.887","142.8","1016.3969999999999","24.36","70.74","613.7","0.0"],
    [1415771,"2026-06-09 16:10:00","53356","1.598","141.6","4.704","160","1016.3330000000001","23.82","70.29","521.5","0.0"],
    [1415772,"2026-06-09 16:20:00","53357","1.272","159.5","3.495","100.5","1016.1560000000001","23.61","69.97","489.5","0.0"],
    [1415773,"2026-06-09 16:30:00","53358","1.104","147.0","4.083","156.4","1016.087","23.52","69.35","463.4","0.0"],
    [1415774,"2026-06-09 16:40:00","53359","1.5859999999999999","121.0","4.508","115.6","1016.043","23.4","69.42","437.9","0.0"],
    [1415775,"2026-06-09 16:50:00","53360","1.376","134.2","3.985","122.6","1016.029","23.4","69.63","396.7","0.0"],
    [1415776,"2026-06-09 17:00:00","53361","2.0869999999999997","167.2","4.508","161.4","1015.987","23.17","70.05","374.6","0.0"],
    [1415777,"2026-06-09 17:10:00","53362","1.8019999999999998","139.1","5.553","168.7","1015.9110000000001","23.14","70.56","319.2","0.0"],
    [1415778,"2026-06-09 17:20:00","53363","2.577","164.9","5.161","190.1","1015.86","22.73","71.7","303.3","0.0"],
    [1415779,"2026-06-09 17:30:00","53364","1.528","144.2","3.985","166.8","1015.803","22.89","71.01","243.2","0.0"],
    [1415780,"2026-06-09 17:40:00","53365","1.3530000000000002","155.4","4.116","91.9","1015.947","22.51","71.99","147.0","0.0"],
    [1415781,"2026-06-09 17:50:00","53366","1.581","154.0","3.92","187.6","1015.982","22.29","72.58","107.0","0.0"],
    [1415782,"2026-06-09 18:00:00","53367","2.35","172.5","4.508","164.9","1015.956","22.02","73.08","101.6","0.0"],
    [1415783,"2026-06-09 18:10:00","53368","2.079","178.3","3.953","163.6","1015.883","22.07","72.57","172.5","0.0"],
    [1415784,"2026-06-09 18:20:00","53369","2.312","182.8","4.018","168.4","1015.823","22.22","71.59","125.7","0.0"],
    [1415785,"2026-06-09 18:30:00","53370","0.753","125.9","2.744","183.7","1015.823","22.14","71.58","78.31","0.0"],
    [1415786,"2026-06-09 18:40:00","53371","1.869","159.1","3.463","173.9","1015.953","21.81","72.13","40.54","0.0"],
    [1415787,"2026-06-09 18:50:00","53372","2.035","169.2","3.528","116.2","1016.023","21.54","72.86","32.05","0.0"],
    [1415788,"2026-06-09 19:00:00","53373","2.032","168.4","3.528","154.6","1016.1060000000001","21.6","72.57","17.78","0.0"],
    [1415789,"2026-06-09 19:10:00","53374","1.729","181.4","2.875","179.9","1016.171","21.54","73.15","11.46","0.0"],
    [1415790,"2026-06-09 19:20:00","53375","1.821","182.0","3.495","192.6","1016.182","21.48","73.41","6.595","0.0"],
    [1415791,"2026-06-09 19:30:00","53376","1.472","179.4","2.711","156.4","1016.2","21.41","73.67","1.547","0.0"],
    [1415792,"2026-06-09 19:40:00","53377","1.226","169.0","2.156","188.6","1016.285","21.35","73.57","-0.925","0.0"],
    [1415793,"2026-06-09 19:50:00","53378","1.432","174.5","2.385","182","1016.2180000000001","21.36","73.88","-1.87","0.0"],
    [1415794,"2026-06-09 20:00:00","53379","1.229","163.0","2.483","164.2","1016.2639999999999","21.33","73.89","-1.986","0.0"],
    [1415795,"2026-06-09 20:10:00","53380","0.851","159.5","2.254","149.2","1016.225","21.29","73.81","-2.426","0.0"],
    [1415796,"2026-06-09 20:20:00","53381","1.389","185.9","3.332","201","1016.303","21.23","74.24","-2.656","0.0"],
    [1415797,"2026-06-09 20:30:00","53382","0.852","169.4","2.483","186","1016.3480000000001","21.24","74.72","-2.616","0.0"],
    [1415798,"2026-06-09 20:40:00","53383","0.988","176.3","1.829","186.1","1016.487","21.18","75.23","-2.659","0.0"],
    [1415799,"2026-06-09 20:50:00","53384","0.8059999999999999","216.0","1.47","185.8","1016.584","21.19","75.6","-2.613","0.0"],
    [1415800,"2026-06-09 21:00:00","53385","0.703","254.7","1.993","274.9","1016.627","21.1","76.36","-2.576","0.0"],
    [1415801,"2026-06-09 21:10:00","53386","0.205","168.8","1.209","135.1","1016.51","20.91","77.05","-2.66","0.0"],
    [1415802,"2026-06-09 21:20:00","53387","1.023","205.9","1.927","196.4","1016.5060000000001","21.01","76.8","-2.6210000000000004","0.0"],
    [1415803,"2026-06-09 21:40:00","53388","0.667","255.5","1.405","197.7","1016.5930000000001","20.87","77.08","-2.585","0.0"],
    [1415804,"2026-06-09 21:50:00","53389","0.561","252.1","1.143","260.1","1016.628","20.89","77.14","-2.589","0.0"],
    [1415805,"2026-06-09 22:00:00","53390","0.747","276.9","1.862","271.4","1016.654","20.8","77.62","-2.487","0.0"],
    [1415806,"2026-06-09 22:10:00","53391","0.7390000000000001","258.8","1.699","284.1","1016.633","20.81","77.92","-2.214","0.0"],
    [1415807,"2026-06-09 22:20:00","53392","1.148","233.1","2.091","245.8","1016.55","20.85","77.8","-2.614","0.0"],
    [1415808,"2026-06-09 22:30:00","53393","1.538","225.2","2.091","211.5","1016.5189999999999","20.94","77.55","-2.4459999999999997","0.0"],
    [1415809,"2026-06-09 22:40:00","53394","1.149","264.2","2.287","270.6","1016.602","20.89","77.94","-2.3","0.0"],
    [1415810,"2026-06-09 22:50:00","53395","1.315","272.0","2.254","257.9","1016.523","20.86","78.29","-2.5610000000000004","0.0"],
    [1415811,"2026-06-09 23:00:00","53396","1.4780000000000002","246.5","2.679","274","1016.6089999999999","20.87","78.34","-2.53","0.0"],
    [1415812,"2026-06-09 23:10:00","53397","1.525","230.4","2.581","241.3","1016.735","20.96","77.67","-2.543","0.0"],
    [1415813,"2026-06-09 23:20:00","53398","1.524","230.7","2.679","244.9","1016.789","20.98","77.69","-2.146","0.0"],
    [1415814,"2026-06-09 23:30:00","53399","1.4609999999999999","236.0","2.711","239.8","1016.7439999999999","20.95","77.91","-1.9509999999999998","0.0"],
    [1415815,"2026-06-09 23:40:00","53400","1.4280000000000002","227.7","2.679","246.9","1016.7289999999999","20.92","78.0","-2.07","0.0"],
    [1415816,"2026-06-09 23:50:00","53401","1.34","230.3","2.058","236","1016.722","20.86","78.36","-1.955","0.0"],
    [1415817,"2026-06-10 00:00:00","53402","0.804","263.3","2.319","222.5","1016.735","20.81","78.79","-1.915","0.0"],
    [1415818,"2026-06-10 00:10:00","53403","1.115","268.8","2.319","280.5","1016.7669999999999","20.76","79.38","-1.899","0.0"],
    [1415819,"2026-06-10 00:20:00","53404","0.941","265.3","1.96","294.1","1016.743","20.88","78.84","-1.8619999999999999","0.0"],
    [1415820,"2026-06-10 00:30:00","53405","1.227","292.2","1.764","280.7","1016.799","20.69","79.64","-1.946","0.0"],
    [1415821,"2026-06-10 00:40:00","53406","1.0170000000000001","284.6","1.764","282.4","1016.7439999999999","20.57","80.3","-1.8969999999999998","0.0"],
    [1415822,"2026-06-10 00:50:00","53407","1.256","281.4","1.862","279","1016.7180000000001","20.62","79.7","-1.246","0.0"],
    [1415823,"2026-06-10 01:00:00","53408","1.091","291.2","1.895","298.9","1016.721","20.72","79.31","-1.163","0.0"],
    [1415824,"2026-06-10 01:10:00","53409","1.219","294.4","1.829","295.7","1016.6439999999999","20.65","79.65","-1.16","0.0"],
    [1415825,"2026-06-10 01:20:00","53410","1.177","280.4","1.699","282.8","1016.569","20.75","78.96","-1.436","0.0"],
    [1415826,"2026-06-10 01:30:00","53411","1.234","290.4","2.156","291.5","1016.55","20.76","77.78","-1.867","0.0"],
    [1415827,"2026-06-10 01:40:00","53412","1.248","283.6","1.927","303.1","1016.472","20.75","77.35","-1.5590000000000002","0.0"],
    [1415828,"2026-06-10 01:50:00","53413","0.5720000000000001","281.3","0.98","277","1016.395","20.69","77.54","-1.916","0.0"],
    [1415829,"2026-06-10 02:00:00","53414","0.732","286.0","1.241","284.7","1016.3789999999999","20.67","77.94","-1.495","0.0"],
    [1415830,"2026-06-10 02:10:00","53415","0.943","276.9","1.993","274.7","1016.3960000000001","20.68","78.25","-1.162","0.0"],
    [1415831,"2026-06-10 02:20:00","53416","1.101","279.4","2.058","265.5","1016.383","20.86","76.99","-1.18","0.0"],
    [1415832,"2026-06-10 02:30:00","53417","1.103","273.8","1.764","277.2","1016.24","20.83","76.86","-1.284","0.0"],
    [1415833,"2026-06-10 02:40:00","53418","0.748","269.2","1.307","248.7","1016.11","20.9","76.29","-1.165","0.0"],
    [1415834,"2026-06-10 02:50:00","53419","1.133","278.7","1.829","290.1","1016.04","20.88","76.15","-1.7919999999999998","0.0"],
    [1415835,"2026-06-10 03:00:00","53420","1.0659999999999998","276.8","1.731","261.1","1016.047","20.84","76.28","-1.828","0.0"],
    [1415836,"2026-06-10 03:10:00","53421","0.9109999999999999","271.5","1.633","274.2","1015.96","20.78","76.68","-1.294","0.0"],
    [1415837,"2026-06-10 03:20:00","53422","0.807","282.2","1.405","303.3","1015.9989999999999","20.84","76.71","-1.219","0.0"],
    [1415838,"2026-06-10 03:30:00","53423","0.708","291.8","1.437","298.9","1016.007","20.78","77.39","-1.179","0.0"],
    [1415839,"2026-06-10 03:40:00","53424","0.743","297.3","1.437","296.9","1015.9739999999999","20.75","77.57","-1.16","0.0"],
    [1415840,"2026-06-10 03:50:00","53425","0.677","298.3","1.47","303.3","1015.9939999999999","20.82","77.22","-1.16","0.0"],
    [1415841,"2026-06-10 04:00:00","53426","0.8079999999999999","285.3","1.503","281.8","1015.9860000000001","20.85","76.99","-1.16","0.0"],
    [1415842,"2026-06-10 04:10:00","53427","1.0070000000000001","279.8","1.797","285.6","1016.012","20.89","76.19","-0.8390000000000001","0.0"],
    [1415843,"2026-06-10 04:20:00","53428","1.074","292.6","1.797","287.5","1016.102","20.85","76.72","0.509","0.0"],
    [1415844,"2026-06-10 04:30:00","53429","1.065","284.1","1.699","283.6","1016.172","20.84","76.72","2.229","0.0"],
    [1415845,"2026-06-10 04:40:00","53430","1.1740000000000002","288.5","2.058","287.2","1016.2139999999999","20.96","75.82","5.147","0.0"],
    [1415846,"2026-06-10 04:50:00","53431","0.807","283.8","1.339","300.6","1016.155","20.98","75.55","10.18","0.0"],
    [1415847,"2026-06-10 05:00:00","53432","0.883","252.3","1.601","226.4","1016.217","21.02","75.07","14.66","0.0"],
    [1415848,"2026-06-10 05:10:00","53433","0.902","230.8","1.601","232.2","1016.2739999999999","21.15","73.67","25.39","0.0"],
    [1415849,"2026-06-10 05:20:00","53434","0.54","243.4","1.143","238.2","1016.421","21.32","73.12","33.98","0.0"],
    [1415850,"2026-06-10 05:30:00","53435","1.252","226.4","2.025","217.1","1016.573","21.42","73.38","53.41","0.0"],
    [1415851,"2026-06-10 05:40:00","53436","1.403","218.9","2.287","225.1","1016.613","21.49","72.61","86.1","0.0"],
    [1415852,"2026-06-10 05:50:00","53437","1.719","223.5","2.581","222.8","1016.742","21.77","69.95","77.44","0.0"],
    [1415853,"2026-06-10 06:00:00","53438","1.19","232.3","2.417","206.1","1016.823","21.75","69.42","63.62","0.0"],
    [1415854,"2026-06-10 06:10:00","53439","0.9520000000000001","224.6","1.927","191.3","1016.8919999999999","21.79","70.05","58.74","0.0"],
    [1415855,"2026-06-10 06:20:00","53440","0.9470000000000001","235.8","1.862","237.3","1017.09","21.77","70.44","78.75","0.0"],
    [1415856,"2026-06-10 06:30:00","53441","0.623","254.5","1.241","282.1","1017.112","22.08","68.51","186.4","0.0"],
    [1415857,"2026-06-10 06:40:00","53442","1.045","268.2","2.123","284.3","1017.198","22.39","66.31","151.1","0.0"],
    [1415858,"2026-06-10 06:50:00","53443","1.403","270.6","2.875","287.3","1017.2919999999999","22.3","63.85","128.0","0.0"],
    [1415859,"2026-06-10 07:00:00","53444","1.926","292.7","4.149","323.7","1017.3330000000001","22.37","63.77","117.4","0.0"],
    [1415860,"2026-06-10 07:10:00","53445","3.072","322.3","4.573","310.3","1017.4680000000001","22.2","62.64","106.0","0.0"],
    [1415861,"2026-06-10 07:20:00","53446","2.498","336.1","3.659","335.7","1017.632","22.09","60.38","77.37","0.0"],
    [1415862,"2026-06-10 07:30:00","53447","3.2510000000000003","322.8","4.541","307.2","1017.7819999999999","21.92","58.54","92.8","0.0"],
    [1415863,"2026-06-10 07:40:00","53448","2.687","21.66","4.639","79.8","1017.8480000000001","21.95","64.99","119.4","0.0"],
    [1415864,"2026-06-10 07:50:00","53449","3.0810000000000004","91.4","5.227","76.41","1017.949","21.18","75.24","95.2","0.0"],
    [1415865,"2026-06-10 08:00:00","53450","2.024","106.2","4.345","86.6","1018.01","20.8","75.77","85.1","0.0"],
    [1415866,"2026-06-10 08:10:00","53451","2.5610000000000004","97.1","4.606","82.2","1018.16","20.82","74.62","83.4","0.0"],
    [1415867,"2026-06-10 08:20:00","53452","2.772","98.0","4.345","95.1","1018.247","20.68","75.22","68.92","0.0"],
    [1415868,"2026-06-10 08:30:00","53453","3.2239999999999998","86.0","5.063","92.5","1018.317","20.69","75.72","60.05","0.0"],
    [1415869,"2026-06-10 08:40:00","53454","3.5269999999999997","82.1","4.769","84.9","1018.416","20.45","75.96","57.46","0.0"],
    [1415870,"2026-06-10 08:50:00","53455","3.1069999999999998","84.1","4.573","73.53","1018.485","20.38","76.0","77.4","0.0"],
    [1415871,"2026-06-10 09:00:00","53456","2.309","91.3","3.561","85.1","1018.5269999999999","20.39","75.85","91.4","0.0"],
    [1415872,"2026-06-10 09:10:00","53457","2.6180000000000003","88.4","4.018","86.9","1018.555","20.46","75.23","128.1","0.0"],
    [1415873,"2026-06-10 09:20:00","53458","2.6","81.8","3.593","63.64","1018.6439999999999","20.62","73.84","131.9","0.0"],
    [1415874,"2026-06-10 09:30:00","53459","3.242","80.0","4.769","84.4","1018.7410000000001","20.51","73.33","85.1","0.0"],
    [1415875,"2026-06-10 09:40:00","53460","3.0789999999999997","77.75","4.475","69.97","1018.775","20.51","72.37","135.3","0.0"],
    [1415876,"2026-06-10 09:50:00","53461","2.735","85.9","3.92","88.9","1018.888","20.6","71.53","177.6","0.0"],
    [1415877,"2026-06-10 10:00:00","53462","2.623","90.6","3.757","85.2","1018.957","20.63","70.22","242.7","0.0"],
    [1415878,"2026-06-10 10:10:00","53463","2.541","92.0","4.345","79.2","1018.961","20.84","69.76","381.5","0.0"],
    [1415879,"2026-06-10 10:20:00","53464","1.945","101.7","3.43","90","1018.953","21.1","69.23","462.8","0.0"],
    [1415880,"2026-06-10 10:30:00","53465","2.495","95.0","4.051","86.7","1018.918","21.31","68.21","382.1","0.0"],
    [1415881,"2026-06-10 10:40:00","53466","2.476","102.7","4.443","83.9","1018.8430000000001","21.0","69.38","454.1","0.0"],
    [1415882,"2026-06-10 10:50:00","53467","2.386","107.3","4.443","102","1018.788","21.71","66.7","851.0","0.0"],
    [1415883,"2026-06-10 11:00:00","53468","2.011","108.9","4.443","95.6","1018.78","22.3","64.15","1031.0","0.0"],
    [1415884,"2026-06-10 11:10:00","53469","1.992","101.0","3.953","104.3","1018.778","23.03","61.21","1038.0","0.0"],
    [1415885,"2026-06-10 11:20:00","53470","2.229","98.9","4.802","110.8","1018.712","22.63","61.69","935.0","0.0"],
    [1415886,"2026-06-10 11:30:00","53471","1.1440000000000001","119.4","3.92","81.2","1018.7139999999999","22.81","61.17","981.0","0.0"],
    [1415887,"2026-06-10 11:40:00","53472","1.3519999999999999","110.2","4.279","95.9","1018.701","23.18","59.53","742.2","0.0"],
    [1415888,"2026-06-10 11:50:00","53473","0.903","125.4","3.267","126.3","1018.6410000000001","22.49","61.21","796.6","0.0"],
    [1415889,"2026-06-10 12:00:00","53474","1.67","116.1","3.463","76.65","1018.5260000000001","22.89","60.66","1088.0","0.0"],
    [1415890,"2026-06-10 12:10:00","53475","1.815","119.1","4.835","95.1","1018.419","23.37","59.44","1063.0","0.0"],
    [1415891,"2026-06-10 12:20:00","53476","2.52","113.4","5.259","125.7","1018.336","22.64","60.0","710.0","0.0"],
    [1415892,"2026-06-10 12:30:00","53477","2.023","121.7","5.553","108.1","1018.3330000000001","22.41","60.62","804.0","0.0"],
    [1415893,"2026-06-10 12:40:00","53478","1.482","115.8","4.41","89.8","1018.362","23.24","58.27","1000.0","0.0"],
    [1415894,"2026-06-10 12:50:00","53479","1.68","123.2","4.41","103.3","1018.363","23.06","60.12","967.0","0.0"],
    [1415895,"2026-06-10 13:00:00","53480","1.88","111.5","4.933","93.1","1018.4","23.03","60.68","958.0","0.0"],
    [1415896,"2026-06-10 13:10:00","53481","2.09","119.1","4.933","96.7","1018.419","22.72","61.82","821.0","0.0"],
    [1415897,"2026-06-10 13:20:00","53482","1.611","120.3","4.802","87.6","1018.3919999999999","22.39","62.88","661.5","0.0"],
    [1415898,"2026-06-10 13:30:00","53483","1.4469999999999998","121.4","4.345","158.5","1018.36","22.99","61.41","906.0","0.0"],
    [1415899,"2026-06-10 13:40:00","53484","1.5519999999999998","122.5","5.063","129.4","1018.372","23.47","60.16","879.0","0.0"],
    [1415900,"2026-06-10 13:50:00","53485","1.814","130.2","5.913","122.3","1018.422","22.92","61.2","855.0","0.0"],
    [1415901,"2026-06-10 14:00:00","53486","1.318","151.9","4.312","94.6","1018.4069999999999","23.68","58.47","837.0","0.0"],
    [1415902,"2026-06-10 14:10:00","53487","2.148","136.7","5.325","169.3","1018.3560000000001","23.16","59.5","772.8","0.0"],
    [1415903,"2026-06-10 14:20:00","53488","2.33","164.5","5.749","174.4","1018.39","22.46","61.56","702.1","0.0"],
    [1415904,"2026-06-10 14:30:00","53489","1.765","140.0","4.835","129.5","1018.3530000000001","22.77","61.07","616.1","0.0"],
    [1415905,"2026-06-10 14:40:00","53490","1.482","129.3","3.985","139.7","1018.3439999999999","22.63","61.7","591.9","0.0"],
    [1415906,"2026-06-10 14:50:00","53491","1.232","135.8","4.737","179.8","1018.3380000000001","22.41","62.62","462.7","0.0"],
    [1415907,"2026-06-10 15:00:00","53492","1.55","134.9","4.181","98.8","1018.438","22.16","63.65","467.7","0.0"],
    [1415908,"2026-06-10 15:10:00","53493","2.084","126.3","5.357","123.9","1018.433","22.24","63.1","560.0","0.0"],
    [1415909,"2026-06-10 15:20:00","53494","2.026","118.7","4.181","64.9","1018.365","22.28","63.02","635.1","0.0"],
    [1415910,"2026-06-10 15:30:00","53495","2.119","120.1","4.639","129.9","1018.268","22.46","62.62","706.5","0.0"],
    [1415911,"2026-06-10 15:40:00","53496","1.5530000000000002","118.4","4.671","112.3","1018.248","23.0","61.06","582.7","0.0"],
    [1415912,"2026-06-10 15:50:00","53497","1.8330000000000002","113.9","4.639","91.9","1018.2330000000001","22.78","61.32","523.5","0.0"],
    [1415913,"2026-06-10 16:00:00","53498","2.9010000000000002","108.4","5.88","108.5","1018.221","22.1","62.77","585.3","0.0"],
    [1415914,"2026-06-10 16:10:00","53499","3.009","105.4","4.998","98.6","1018.176","22.06","62.16","575.4","0.0"],
    [1415915,"2026-06-10 16:20:00","53500","2.84","103.4","6.305","100.1","1018.181","21.88","62.52","344.0","0.0"],
    [1415916,"2026-06-10 16:30:00","53501","2.408","108.8","4.769","119.5","1018.182","21.89","62.36","444.1","0.0"],
    [1415917,"2026-06-10 16:40:00","53502","2.8","104.2","5.847","74.98","1018.171","21.82","62.35","347.8","0.0"],
    [1415918,"2026-06-10 16:50:00","53503","3.0789999999999997","96.8","5.227","96.6","1018.283","21.34","63.88","174.4","0.0"],
    [1415919,"2026-06-10 17:00:00","53504","2.3609999999999998","97.5","4.737","90.3","1018.387","21.18","64.32","94.2","0.0"],
    [1415920,"2026-06-10 17:10:00","53505","3.888","94.2","5.455","81.6","1018.488","20.87","64.55","93.5","0.0"],
    [1415921,"2026-06-10 17:20:00","53506","3.7110000000000003","91.4","5.521","86.1","1018.543","20.83","64.46","81.5","0.0"],
    [1415922,"2026-06-10 17:30:00","53507","2.515","102.0","4.345","102.3","1018.648","20.65","64.91","73.22","0.0"],
    [1415923,"2026-06-10 17:40:00","53508","2.443","102.6","3.789","108.8","1018.7139999999999","20.72","64.36","72.85","0.0"],
    [1415924,"2026-06-10 17:50:00","53509","1.91","109.4","3.659","115.6","1018.7289999999999","20.84","64.04","53.22","0.0"],
    [1415925,"2026-06-10 18:00:00","53510","2.061","109.4","3.724","117.3","1018.835","20.64","64.31","45.8","0.0"],
    [1415926,"2026-06-10 18:10:00","53511","2.191","101.7","4.181","96","1018.8939999999999","20.65","64.22","49.27","0.0"],
    [1415927,"2026-06-10 18:20:00","53512","2.208","98.2","3.953","86.3","1019.0010000000001","20.57","63.88","42.36","0.0"],
    [1415928,"2026-06-10 18:30:00","53513","2.136","102.5","4.018","109.2","1019.057","20.42","64.1","32.68","0.0"],
    [1415929,"2026-06-10 18:40:00","53514","0.7190000000000001","132.6","3.397","205.4","1019.166","20.45","64.3","30.12","0.0"],
    [1415930,"2026-06-10 18:50:00","53515","0.879","116.5","3.299","90.2","1019.255","20.47","64.24","25.43","0.0"],
    [1415931,"2026-06-10 19:00:00","53516","1.088","115.7","2.907","66.4","1019.311","20.53","63.91","20.14","0.0"],
    [1415932,"2026-06-10 19:10:00","53517","0.98","119.0","3.038","119.1","1019.304","20.55","63.5","13.39","0.0"],
    [1415933,"2026-06-10 19:20:00","53518","1.229","117.4","2.973","92.5","1019.279","20.45","63.55","4.859","0.0"],
    [1415934,"2026-06-10 19:30:00","53519","0.804","121.0","2.744","185.2","1019.295","20.36","63.81","0.512","0.0"],
    [1415935,"2026-06-10 19:40:00","53520","1.158","117.7","2.679","123.1","1019.335","20.33","63.66","-1.723","0.0"],
    [1415936,"2026-06-10 19:50:00","53521","1.3869999999999998","111.5","2.94","102.4","1019.423","20.3","63.65","-2.615","0.0"],
    [1415937,"2026-06-10 20:00:00","53522","0.96","119.9","2.613","121.7","1019.552","20.32","63.62","-2.66","0.0"],
    [1415938,"2026-06-10 20:10:00","53523","0.7659999999999999","134.7","2.515","82.1","1019.677","20.26","63.46","-2.661","0.0"],
    [1415939,"2026-06-10 20:20:00","53524","0.56","145.6","5.88","29.63","1019.895","20.22","63.48","-2.7439999999999998","0.0"],
    [1415940,"2026-06-10 20:30:00","53525","1.5330000000000001","167.3","3.822","152.5","1020.073","20.28","63.07","-2.685","0.0"],
    [1415941,"2026-06-10 20:40:00","53526","1.581","178.1","3.103","174.3","1020.2389999999999","20.3","62.9","-2.6630000000000003","0.0"],
    [1415942,"2026-06-10 20:50:00","53527","1.476","172.6","2.711","161.9","1020.283","20.36","62.16","-2.6630000000000003","0.0"],
    [1415943,"2026-06-10 21:00:00","53528","1.766","175.6","2.973","176","1020.298","20.37","61.85","-2.66","0.0"],
    [1415944,"2026-06-10 21:10:00","53529","1.537","185.8","2.907","184.8","1020.283","20.36","62.11","-2.675","0.0"],
    [1415945,"2026-06-10 21:20:00","53530","1.26","193.6","2.646","195.5","1020.299","20.33","62.51","-2.701","0.0"],
    [1415946,"2026-06-10 21:30:00","53531","1.4880000000000002","179.1","2.287","164.2","1020.3480000000001","20.33","62.36","-2.668","0.0"],
    [1415947,"2026-06-10 21:40:00","53532","1.209","175.1","2.385","202.8","1020.363","20.36","62.22","-2.661","0.0"],
    [1415948,"2026-06-10 21:50:00","53533","1.192","177.0","2.515","172.1","1020.5089999999999","20.32","61.97","-2.66","0.0"],
    [1415949,"2026-06-10 22:00:00","53534","1.005","195.7","1.96","218.9","1020.567","20.4","62.49","-1.946","0.0"],
    [1415950,"2026-06-10 22:10:00","53535","1.077","190.4","2.058","166.8","1020.6310000000001","20.52","62.47","-1.21","0.0"],
    [1415951,"2026-06-10 22:20:00","53536","1.012","190.9","1.829","182.5","1020.654","20.58","62.51","-1.16","0.0"],
    [1415952,"2026-06-10 22:30:00","53537","1.482","200.8","2.515","196","1020.643","20.68","62.71","-1.16","0.0"],
    [1415953,"2026-06-10 22:40:00","53538","0.7559999999999999","207.1","2.352","162.2","1020.6419999999999","20.65","63.2","-1.163","0.0"],
    [1415954,"2026-06-10 22:50:00","53539","1.629","208.6","2.842","204.8","1020.659","20.67","63.14","-1.168","0.0"],
    [1415955,"2026-06-10 23:00:00","53540","1.09","205.0","2.319","208.3","1020.654","20.69","63.08","-1.166","0.0"],
    [1415956,"2026-06-10 23:10:00","53541","1.3430000000000002","205.2","2.842","206.5","1020.6089999999999","20.71","62.68","-1.179","0.0"],
    [1415957,"2026-06-10 23:20:00","53542","1.016","199.5","1.96","214","1020.5219999999999","20.68","63.01","-1.26","0.0"],
    [1415958,"2026-06-10 23:30:00","53543","1.345","202.0","2.483","203.6","1020.48","20.7","63.17","-1.198","0.0"],
    [1415959,"2026-06-10 23:40:00","53544","1.5759999999999998","199.6","2.679","215.9","1020.459","20.72","63.56","-1.5819999999999999","0.0"],
    [1415960,"2026-06-10 23:50:00","53545","1.828","207.7","2.777","202.3","1020.472","20.79","63.43","-1.247","0.0"],
    [1415961,"2026-06-11 00:00:00","53546","1.55","201.7","3.299","225.7","1020.4689999999999","20.84","63.37","-1.16","0.0"],
    [1415962,"2026-06-11 00:10:00","53547","1.57","210.0","2.581","209.8","1020.4010000000001","20.8","64.14","-1.16","0.0"],
    [1415963,"2026-06-11 00:20:00","53548","1.4080000000000001","212.7","2.581","171.8","1020.439","20.77","64.49","-1.16","0.0"],
    [1415964,"2026-06-11 00:30:00","53549","1.163","209.3","2.581","215.1","1020.448","20.78","64.51","-1.16","0.0"],
    [1415965,"2026-06-11 00:40:00","53550","1.992","213.3","2.875","222.4","1020.423","20.8","64.82","-1.159","0.0"],
    [1415966,"2026-06-11 00:50:00","53551","1.4709999999999999","211.5","2.45","224.1","1020.385","20.78","64.8","-1.16","0.0"],
    [1415967,"2026-06-11 01:00:00","53552","0.988","195.9","2.483","193.2","1020.307","20.82","64.43","-1.16","0.0"],
    [1415968,"2026-06-11 01:10:00","53553","1.4069999999999998","208.8","2.613","217.4","1020.325","20.83","64.55","-1.16","0.0"],
    [1415969,"2026-06-11 01:20:00","53554","1.7480000000000002","212.5","3.103","202.4","1020.3560000000001","20.86","64.43","-1.16","0.0"],
    [1415970,"2026-06-11 01:30:00","53555","1.4180000000000001","207.8","2.679","227.1","1020.437","20.89","64.43","-1.16","0.0"],
    [1415971,"2026-06-11 01:40:00","53556","1.492","212.3","3.005","220.7","1020.513","20.85","64.82","-1.16","0.0"],
    [1415972,"2026-06-11 01:50:00","53557","1.4069999999999998","207.7","2.515","223.7","1020.485","20.8","65.4","-1.16","0.0"],
    [1415973,"2026-06-11 02:00:00","53558","1.4909999999999999","188.9","2.973","178.8","1020.4110000000001","20.76","65.11","-1.16","0.0"],
    [1415974,"2026-06-11 02:10:00","53559","1.768","199.2","3.365","210.9","1020.316","20.85","64.69","-1.16","0.0"],
    [1415975,"2026-06-11 02:20:00","53560","2.285","210.1","3.561","193.5","1020.305","20.87","66.32","-1.151","0.0"],
    [1415976,"2026-06-11 02:30:00","53561","2.072","209.2","3.561","210","1020.2710000000001","20.69","67.36","-1.159","0.0"],
    [1415977,"2026-06-11 02:40:00","53562","2.102","187.4","4.116","166.9","1020.1460000000001","20.66","67.07","-1.185","0.0"],
    [1415978,"2026-06-11 02:50:00","53563","2.026","210.8","4.541","222.9","1020.145","20.23","72.99","-2.898","0.0"],
    [1415979,"2026-06-11 03:00:00","53564","0.669","189.0","1.666","188.7","1020.135","20.01","73.95","-1.4480000000000002","0.0"],
    [1415980,"2026-06-11 03:10:00","53565","0.903","209.9","3.365","211.6","1020.2660000000001","20.08","73.55","-1.159","0.0"],
    [1415981,"2026-06-11 03:20:00","53566","1.043","231.2","2.287","194.5","1020.295","20.24","74.0","-1.155","0.0"],
    [1415982,"2026-06-11 03:30:00","53567","0.899","213.2","2.711","220.4","1020.19","20.27","74.69","-1.153","0.0"],
    [1415983,"2026-06-11 03:40:00","53568","2.8739999999999997","220.8","6.109","196.5","1020.335","20.42","67.18","-1.197","0.0"],
    [1415984,"2026-06-11 03:50:00","53569","2.559","227.2","3.92","220.3","1020.423","20.34","59.68","-1.16","0.0"],
    [1415985,"2026-06-11 04:00:00","53570","2.8480000000000003","224.9","4.247","219.9","1020.4760000000001","20.19","57.56","-1.178","0.0"],
    [1415986,"2026-06-11 04:10:00","53571","2.718","225.2","4.345","230.8","1020.567","19.83","57.52","-1.16","0.0"],
    [1415987,"2026-06-11 04:20:00","53572","2.6289999999999996","228.0","4.083","217.9","1020.6339999999999","19.58","56.72","0.135","0.0"],
    [1415988,"2026-06-11 04:30:00","53573","2.164","230.9","3.757","219.3","1020.676","19.42","55.52","4.672","0.0"],
    [1415989,"2026-06-11 04:40:00","53574","1.6780000000000002","235.6","3.397","209.6","1020.809","19.33","55.44","12.79","0.0"],
    [1415990,"2026-06-11 04:50:00","53575","1.565","234.1","2.45","233","1020.8919999999999","19.19","55.81","22.57","0.0"],
    [1415991,"2026-06-11 05:00:00","53576","1.6130000000000002","233.0","2.45","234.6","1020.947","19.14","56.46","33.6","0.0"],
    [1415992,"2026-06-11 05:10:00","53577","1.038","218.5","2.711","206.9","1020.959","19.27","56.7","60.61","0.0"],
    [1415993,"2026-06-11 05:20:00","53578","1.55","272.4","2.777","225","1021.033","19.42","57.02","82.0","0.0"],
    [1415994,"2026-06-11 05:30:00","53579","1.75","270.1","4.345","286.1","1021.057","19.3","60.28","108.2","0.0"],
    [1415995,"2026-06-11 05:40:00","53580","2.456","276.3","4.312","295.1","1021.068","19.19","57.03","141.0","0.0"],
    [1415996,"2026-06-11 05:50:00","53581","2.062","269.4","4.508","290.7","1021.1139999999999","19.28","55.52","171.8","0.0"],
    [1415997,"2026-06-11 06:00:00","53582","1.7930000000000001","269.8","3.365","265.2","1021.138","19.45","54.33","210.9","0.0"],
    [1415998,"2026-06-11 06:10:00","53583","2.2","297.2","3.593","294","1021.242","19.88","54.0","233.2","0.0"],
    [1415999,"2026-06-11 06:20:00","53584","2.324","307.6","3.495","304.2","1021.334","20.14","54.72","220.4","0.0"],
    [1416000,"2026-06-11 06:30:00","53585","1.942","311.8","3.267","311.5","1021.367","20.47","56.35","281.0","0.0"],
    [1416001,"2026-06-11 06:40:00","53586","2.33","301.2","3.495","303.8","1021.561","20.91","56.68","309.6","0.0"],
    [1416002,"2026-06-11 06:50:00","53587","2.384","287.4","3.92","339.3","1021.6410000000001","20.86","54.18","345.3","0.0"],
    [1416003,"2026-06-11 07:00:00","53588","1.963","50.43","3.528","354.7","1021.709","21.29","55.02","365.0","0.0"],
    [1416004,"2026-06-11 07:10:00","53589","1.869","81.8","3.038","92.3","1021.845","21.46","53.4","398.3","0.0"],
    [1416005,"2026-06-11 07:20:00","53590","2.005","65.95","3.365","80.4","1021.934","21.52","52.06","418.4","0.0"],
    [1416006,"2026-06-11 07:30:00","53591","1.795","66.09","3.43","54.89","1022.035","21.72","52.06","465.1","0.0"],
    [1416007,"2026-06-11 07:40:00","53592","1.929","77.5","3.463","87","1022.035","21.71","51.16","473.6","0.0"],
    [1416008,"2026-06-11 07:50:00","53593","2.589","77.14","4.867","93.9","1022.182","21.62","50.88","464.5","0.0"],
    [1416009,"2026-06-11 08:00:00","53594","2.66","81.5","3.887","87.1","1022.258","21.29","51.09","433.6","0.0"],
    [1416010,"2026-06-11 08:10:00","53595","2.204","74.57","3.985","50.16","1022.352","21.38","52.45","478.6","0.0"],
    [1416011,"2026-06-11 08:20:00","53596","2.32","69.06","3.855","68.86","1022.3560000000001","21.34","52.74","528.8","0.0"],
    [1416012,"2026-06-11 08:30:00","53597","2.048","95.3","3.528","82.1","1022.4760000000001","21.49","52.79","541.6","0.0"],
    [1416013,"2026-06-11 08:40:00","53598","2.397","84.0","3.953","64.34","1022.5269999999999","21.62","52.68","571.6","0.0"],
    [1416014,"2026-06-11 08:50:00","53599","1.8359999999999999","85.2","3.691","88.7","1022.572","21.55","53.27","563.9","0.0"],
    [1416015,"2026-06-11 09:00:00","53600","1.95","87.4","3.757","85.6","1022.543","21.7","53.26","641.9","0.0"],
    [1416016,"2026-06-11 09:10:00","53601","1.98","74.41","3.626","74.03","1022.5089999999999","22.13","52.02","713.6","0.0"],
    [1416017,"2026-06-11 09:20:00","53602","2.525","84.9","3.953","86.1","1022.5060000000001","22.11","51.21","757.8","0.0"],
    [1416018,"2026-06-11 09:30:00","53603","2.29","78.97","4.116","69.02","1022.553","22.34","50.85","773.4","0.0"],
    [1416019,"2026-06-11 09:40:00","53604","2.6489999999999996","86.3","4.018","71.43","1022.6310000000001","22.16","52.04","777.5","0.0"],
    [1416020,"2026-06-11 09:50:00","53605","2.242","96.0","5.031","109.5","1022.666","22.29","50.22","801.0","0.0"],
    [1416021,"2026-06-11 10:00:00","53606","1.621","92.2","3.267","78.41","1022.705","22.8","48.89","798.4","0.0"],
    [1416022,"2026-06-11 10:10:00","53607","1.9369999999999998","77.92","4.116","96.5","1022.683","22.84","48.85","786.3","0.0"],
    [1416023,"2026-06-11 10:20:00","53608","1.74","112.4","3.757","104.7","1022.753","23.16","48.1","831.0","0.0"],
    [1416024,"2026-06-11 10:30:00","53609","1.501","148.8","4.639","179.9","1022.7819999999999","23.57","50.59","909.0","0.0"],
    [1416025,"2026-06-11 10:40:00","53610","2.9939999999999998","197.5","5.455","216.7","1022.872","23.51","53.34","943.0","0.0"],
    [1416026,"2026-06-11 10:50:00","53611","3.0069999999999997","183.9","5.553","167","1022.916","23.06","53.87","912.0","0.0"],
    [1416027,"2026-06-11 11:00:00","53612","3.159","184.6","6.011","190.4","1022.905","23.22","53.25","931.0","0.0"],
    [1416028,"2026-06-11 11:10:00","53613","3.0210000000000004","195.3","5.553","163.1","1022.9630000000001","23.06","54.49","803.0","0.0"],
    [1416029,"2026-06-11 11:20:00","53614","3.299","177.6","5.423","172.9","1023.0039999999999","22.8","55.3","864.0","0.0"],
    [1416030,"2026-06-11 11:30:00","53615","2.9160000000000004","178.6","6.109","172.3","1022.9910000000001","22.79","55.39","936.0","0.0"],
    [1416031,"2026-06-11 11:40:00","53616","3.391","185.2","6.043","166.5","1022.924","22.81","56.0","879.0","0.0"],
    [1416032,"2026-06-11 11:50:00","53617","3.688","178.7","6.468","174.2","1022.845","22.58","56.06","854.0","0.0"],
    [1416033,"2026-06-11 12:00:00","53618","3.36","189.7","9.41","158.3","1022.7710000000001","22.83","54.32","847.0","0.0"],
    [1416034,"2026-06-11 12:10:00","53619","3.7910000000000004","182.7","5.651","161.4","1022.7710000000001","22.48","54.75","839.0","0.0"],
    [1416035,"2026-06-11 12:20:00","53620","3.602","184.7","6.109","193.2","1022.7289999999999","22.76","53.97","890.0","0.0"],
    [1416036,"2026-06-11 12:30:00","53621","3.3760000000000003","197.2","5.847","215.4","1022.686","22.72","54.01","842.0","0.0"],
    [1416037,"2026-06-11 12:40:00","53622","3.605","176.2","5.521","179.1","1022.7","22.48","54.39","904.0","0.0"],
    [1416038,"2026-06-11 12:50:00","53623","3.609","194.0","7.644","222.6","1022.742","22.67","51.9","894.0","0.0"],
    [1416039,"2026-06-11 13:00:00","53624","2.952","174.7","5.357","163.6","1022.75","22.58","49.2","859.0","0.0"],
    [1416040,"2026-06-11 13:10:00","53625","2.798","186.0","5.031","174.4","1022.6669999999999","22.45","51.4","678.1","0.0"],
    [1416041,"2026-06-11 13:20:00","53626","2.95","180.7","5.292","150.5","1022.597","22.56","51.08","755.8","0.0"],
    [1416042,"2026-06-11 13:30:00","53627","2.591","189.6","5.292","187.1","1022.547","23.18","50.62","871.0","0.0"],
    [1416043,"2026-06-11 13:40:00","53628","3.1260000000000003","191.5","5.063","174.5","1022.5039999999999","23.53","50.77","913.0","0.0"],
    [1416044,"2026-06-11 13:50:00","53629","3.3280000000000003","174.4","5.749","187.5","1022.4960000000001","23.05","51.77","888.0","0.0"],
    [1416045,"2026-06-11 14:00:00","53630","2.8310000000000004","175.4","5.194","175.7","1022.472","23.02","52.81","870.0","0.0"],
    [1416046,"2026-06-11 14:10:00","53631","3.6660000000000004","194.1","6.501","232.1","1022.425","23.27","53.25","858.0","0.0"],
    [1416047,"2026-06-11 14:20:00","53632","3.221","199.8","5.945","211.4","1022.298","23.28","51.9","845.0","0.0"],
    [1416048,"2026-06-11 14:30:00","53633","3.323","202.5","5.88","213.9","1022.2289999999999","23.81","49.56","815.0","0.0"],
    [1416049,"2026-06-11 14:40:00","53634","3.721","186.2","6.141","177.3","1022.196","23.51","51.69","770.6","0.0"],
    [1416050,"2026-06-11 14:50:00","53635","3.6519999999999997","209.5","6.468","220.5","1022.1510000000001","23.36","52.22","734.3","0.0"],
    [1416051,"2026-06-11 15:00:00","53636","3.543","194.5","5.553","175.1","1022.1160000000001","23.45","51.83","735.3","0.0"],
    [1416052,"2026-06-11 15:10:00","53637","3.438","198.9","5.194","182.1","1022.052","23.4","51.03","719.3","0.0"],
    [1416053,"2026-06-11 15:20:00","53638","3.406","201.1","5.586","221.1","1021.9639999999999","23.59","51.25","656.8","0.0"],
    [1416054,"2026-06-11 15:30:00","53639","2.859","198.4","6.109","222.8","1021.8860000000001","23.61","50.76","662.7","0.0"],
    [1416055,"2026-06-11 15:40:00","53640","3.865","210.0","7.513","213.3","1021.8989999999999","23.1","52.28","598.0","0.0"],
    [1416056,"2026-06-11 15:50:00","53641","3.802","213.2","6.043","205.4","1021.8910000000001","23.18","51.29","590.0","0.0"],
    [1416057,"2026-06-11 16:00:00","53642","2.505","203.0","4.802","179","1021.91","23.63","48.83","567.2","0.0"],
    [1416058,"2026-06-11 16:10:00","53643","2.9589999999999996","203.4","5.161","182.8","1021.88","23.68","48.41","531.8","0.0"],
    [1416059,"2026-06-11 16:20:00","53644","3.563","201.3","6.305","177.2","1021.8639999999999","23.51","48.83","508.5","0.0"],
    [1416060,"2026-06-11 16:30:00","53645","3.2689999999999997","216.5","5.488","210.2","1021.865","23.51","50.32","458.1","0.0"],
    [1416061,"2026-06-11 16:40:00","53646","3.347","200.5","6.305","174.6","1021.945","23.13","50.76","433.1","0.0"],
    [1416062,"2026-06-11 16:50:00","53647","3.6889999999999996","206.2","6.468","202.3","1021.959","23.41","47.34","416.6","0.0"],
    [1416063,"2026-06-11 17:00:00","53648","3.992","221.0","6.272","230.1","1021.9780000000001","23.24","45.44","389.1","0.0"],
    [1416064,"2026-06-11 17:10:00","53649","3.2689999999999997","203.7","5.586","227.5","1022.055","23.22","48.56","355.2","0.0"],
    [1416065,"2026-06-11 17:20:00","53650","2.6889999999999996","191.7","4.998","256.9","1022.12","23.21","47.4","322.7","0.0"],
    [1416066,"2026-06-11 17:30:00","53651","2.804","209.2","4.933","213.3","1022.1239999999999","23.28","52.32","280.9","0.0"],
    [1416067,"2026-06-11 17:40:00","53652","3.525","214.2","5.913","184.1","1022.113","22.83","55.11","252.7","0.0"],
    [1416068,"2026-06-11 17:50:00","53653","2.708","211.0","5.913","214.3","1022.075","22.84","56.47","209.7","0.0"],
    [1416069,"2026-06-11 18:00:00","53654","2.654","207.8","5.292","214.8","1022.159","22.92","55.07","185.6","0.0"],
    [1416070,"2026-06-11 18:10:00","53655","2.785","206.5","5.292","224.3","1022.243","22.64","55.88","160.4","0.0"],
    [1416071,"2026-06-11 18:20:00","53656","2.524","202.4","5.031","216.6","1022.302","22.54","57.25","134.6","0.0"],
    [1416072,"2026-06-11 18:30:00","53657","3.239","218.8","5.096","224","1022.357","22.5","56.19","98.0","0.0"],
    [1416073,"2026-06-11 18:40:00","53658","2.3280000000000003","204.5","6.272","235.5","1022.409","22.38","57.92","77.3","0.0"],
    [1416074,"2026-06-11 18:50:00","53659","2.6830000000000003","210.9","5.586","215.8","1022.453","22.23","59.83","53.3","0.0"],
    [1416075,"2026-06-11 19:00:00","53660","2.76","212.4","6.533","225.8","1022.459","22.08","61.06","35.73","0.0"],
    [1416076,"2026-06-11 19:10:00","53661","3.085","216.8","4.933","257.7","1022.493","21.92","62.23","21.04","0.0"],
    [1416077,"2026-06-11 19:20:00","53662","3.009","217.9","4.933","219.7","1022.596","21.75","64.26","9.22","0.0"],
    [1416078,"2026-06-11 19:30:00","53663","2.5810000000000004","212.2","5.292","208.6","1022.711","21.65","64.76","2.263","0.0"],
    [1416079,"2026-06-11 19:40:00","53664","2.526","210.2","4.835","226.4","1022.77","21.51","66.34","-0.313","0.0"],
    [1416080,"2026-06-11 19:50:00","53665","2.91","212.2","4.541","213.8","1022.8939999999999","21.47","67.37","-1.88","0.0"],
    [1416081,"2026-06-11 20:00:00","53666","1.835","215.7","3.299","217.2","1023.0089999999999","21.42","68.67","-2.615","0.0"],
    [1416082,"2026-06-11 20:10:00","53667","2.481","222.8","4.279","199","1023.148","21.41","70.82","-2.6830000000000003","0.0"],
    [1416083,"2026-06-11 20:20:00","53668","3.116","217.6","5.031","199.3","1023.255","21.29","72.16","-2.66","0.0"],
    [1416084,"2026-06-11 20:30:00","53669","2.9730000000000003","215.4","5.194","222.7","1023.405","21.21","72.5","-2.66","0.0"],
    [1416085,"2026-06-11 20:40:00","53670","3.0580000000000003","212.5","4.9","234.4","1023.555","21.15","72.66","-2.66","0.0"],
    [1416086,"2026-06-11 20:50:00","53671","2.9010000000000002","212.1","6.435","220.7","1023.6669999999999","21.11","73.1","-2.66","0.0"],
    [1416087,"2026-06-11 21:00:00","53672","3.355","218.5","6.337","199.7","1023.785","21.08","73.18","-2.659","0.0"],
    [1416088,"2026-06-11 21:10:00","53673","2.821","223.9","4.998","226.1","1023.805","21.02","73.48","-2.659","0.0"],
    [1416089,"2026-06-11 21:20:00","53674","3.0","222.3","4.769","219.4","1023.821","20.96","73.71","-2.66","0.0"],
    [1416090,"2026-06-11 21:30:00","53675","2.155","213.4","3.593","208.1","1023.904","20.95","73.66","-2.665","0.0"],
    [1416091,"2026-06-11 21:40:00","53676","1.9280000000000002","219.8","3.691","214","1023.8910000000001","20.89","74.3","-2.6630000000000003","0.0"],
    [1416092,"2026-06-11 21:50:00","53677","2.141","226.5","3.299","226.5","1023.883","20.83","74.85","-2.6719999999999997","0.0"],
    [1416093,"2026-06-11 22:00:00","53678","1.989","225.1","3.201","222.4","1023.837","20.79","74.47","-2.661","0.0"],
    [1416094,"2026-06-11 22:10:00","53679","2.032","235.3","3.561","246","1023.703","20.67","74.57","-2.66","0.0"],
    [1416095,"2026-06-11 22:20:00","53680","1.953","227.5","3.659","245.9","1023.709","20.55","74.77","-2.66","0.0"],
    [1416096,"2026-06-11 22:30:00","53681","1.5490000000000002","230.1","2.809","210.7","1023.735","20.45","74.69","-2.66","0.0"],
    [1416097,"2026-06-11 22:40:00","53682","1.2930000000000001","238.7","2.842","247.8","1023.725","20.39","73.66","-2.673","0.0"],
    [1416098,"2026-06-11 22:50:00","53683","1.296","255.1","2.581","247.9","1023.688","20.41","70.11","-2.6919999999999997","0.0"],
    [1416099,"2026-06-11 23:00:00","53684","1.406","273.5","2.123","279.5","1023.717","20.09","70.57","-2.6639999999999997","0.0"],
    [1416100,"2026-06-11 23:10:00","53685","1.215","236.6","2.156","259.7","1023.747","20.06","70.77","-2.6630000000000003","0.0"],
    [1416101,"2026-06-11 23:20:00","53686","1.6780000000000002","273.8","3.43","276.2","1023.691","20.05","70.13","-2.667","0.0"],
    [1416102,"2026-06-11 23:30:00","53687","1.986","267.4","3.397","241.1","1023.6239999999999","20.06","67.29","-2.661","0.0"],
    [1416103,"2026-06-11 23:40:00","53688","1.797","259.6","3.201","282.8","1023.541","20.07","65.66","-2.66","0.0"],
    [1416104,"2026-06-11 23:50:00","53689","2.077","278.4","3.593","263.9","1023.5219999999999","19.86","65.03","-2.66","0.0"],
    [1416105,"2026-06-12 00:00:00","53690","2.101","280.1","3.267","279.7","1023.587","19.56","65.88","-2.66","0.0"],
    [1416106,"2026-06-12 00:10:00","53691","1.795","279.1","3.005","278.3","1023.545","19.41","66.51","-2.66","0.0"],
    [1416107,"2026-06-12 00:20:00","53692","1.975","273.1","2.711","265.9","1023.4639999999999","19.31","67.04","-2.66","0.0"],
    [1416108,"2026-06-12 00:30:00","53693","1.229","249.2","2.123","219.4","1023.485","19.39","67.0","-2.66","0.0"],
    [1416109,"2026-06-12 00:40:00","53694","1.061","261.3","2.025","264.2","1023.498","19.38","66.85","-2.6660000000000004","0.0"],
    [1416110,"2026-06-12 00:50:00","53695","1.208","236.9","1.895","229.8","1023.607","19.31","66.81","-2.66","0.0"],
    [1416111,"2026-06-12 01:00:00","53696","1.179","235.7","1.895","252","1023.6030000000001","19.01","68.13","-2.66","0.0"],
    [1416112,"2026-06-12 01:10:00","53697","0.9690000000000001","267.0","1.993","281.9","1023.5880000000001","18.9","69.26","-2.673","0.0"],
    [1416113,"2026-06-12 01:20:00","53698","0.7809999999999999","246.8","1.535","252.2","1023.5260000000001","18.71","70.14","-2.661","0.0"],
    [1416114,"2026-06-12 01:30:00","53699","0.524","268.0","1.307","259.1","1023.534","18.63","70.4","-2.66","0.0"],
    [1416115,"2026-06-12 01:40:00","53700","1.715","272.7","3.071","277.8","1023.577","18.48","71.44","-2.7","0.0"],
    [1416116,"2026-06-12 01:50:00","53701","1.653","276.8","2.581","279","1023.564","18.22","72.11","-2.665","0.0"],
    [1416117,"2026-06-12 02:00:00","53702","0.85","264.4","1.339","264.5","1023.502","18.13","72.44","-2.673","0.0"],
    [1416118,"2026-06-12 02:10:00","53703","1.594","268.4","2.679","266.5","1023.512","18.22","72.5","-2.685","0.0"],
    [1416119,"2026-06-12 02:20:00","53704","2.316","274.7","2.907","279.4","1023.674","18.23","73.03","-2.6830000000000003","0.0"],
    [1416120,"2026-06-12 02:30:00","53705","1.854","266.6","2.744","272.2","1023.75","18.09","73.72","-2.6839999999999997","0.0"],
    [1416121,"2026-06-12 02:40:00","53706","1.682","263.2","2.777","265.9","1023.79","18.05","73.47","-2.6830000000000003","0.0"],
    [1416122,"2026-06-12 02:50:00","53707","1.3259999999999998","234.9","2.091","235.7","1023.915","18.0","72.89","-2.685","0.0"],
    [1416123,"2026-06-12 03:00:00","53708","1.571","241.3","2.613","252.6","1024.02","17.74","73.18","-2.6889999999999996","0.0"],
    [1416124,"2026-06-12 03:10:00","53709","1.321","275.1","2.319","275.2","1024.063","17.5","74.07","-2.688","0.0"],
    [1416125,"2026-06-12 03:20:00","53710","1.653","271.5","2.973","270.7","1024.094","17.27","76.02","-2.696","0.0"],
    [1416126,"2026-06-12 03:30:00","53711","1.9040000000000001","280.3","3.005","289.3","1024.131","17.33","76.74","-2.694","0.0"],
    [1416127,"2026-06-12 03:40:00","53712","1.838","280.9","2.907","281.8","1024.165","17.33","76.75","-2.7","0.0"],
    [1416128,"2026-06-12 03:50:00","53713","1.749","276.8","2.679","270.4","1024.224","17.32","76.73","-2.694","0.0"],
    [1416129,"2026-06-12 04:00:00","53714","1.148","284.5","1.96","296","1024.318","17.16","76.86","-2.694","0.0"],
    [1416130,"2026-06-12 04:10:00","53715","1.3459999999999999","278.3","2.319","278.9","1024.345","17.11","77.23","-1.5919999999999999","0.0"],
    [1416131,"2026-06-12 04:20:00","53716","1.375","270.2","2.287","276.3","1024.473","17.11","76.64","1.479","0.0"],
    [1416132,"2026-06-12 04:30:00","53717","1.2329999999999999","274.7","2.189","266","1024.608","17.1","76.6","6.12","0.0"],
    [1416133,"2026-06-12 04:40:00","53718","1.483","280.9","2.319","268.5","1024.667","17.09","76.71","17.73","0.0"],
    [1416134,"2026-06-12 04:50:00","53719","1.3940000000000001","268.3","2.646","270.3","1024.731","17.04","76.71","36.6","0.0"],
    [1416135,"2026-06-12 05:00:00","53720","1.364","265.5","2.646","269.1","1024.807","17.36","74.94","57.95","0.0"],
    [1416136,"2026-06-12 05:10:00","53721","1.6269999999999998","283.3","2.842","293.6","1024.94","17.87","72.94","79.33","0.0"],
    [1416137,"2026-06-12 05:20:00","53722","1.6269999999999998","293.5","2.777","291.3","1024.9460000000001","18.29","72.1","102.4","0.0"],
    [1416138,"2026-06-12 05:30:00","53723","1.8880000000000001","298.6","2.94","285.5","1024.931","18.86","70.59","127.7","0.0"],
    [1416139,"2026-06-12 05:40:00","53724","2.076","306.9","3.365","310","1024.978","19.45","69.63","143.4","0.0"],
    [1416140,"2026-06-12 06:00:00","53725","2.015","295.4","3.365","302","1024.892","20.41","67.73","217.1","0.0"],
    [1416141,"2026-06-12 06:10:00","53726","2.05","301.4","3.136","286.4","1024.8310000000001","20.73","66.76","249.9","0.0"],
    [1416142,"2026-06-12 06:20:00","53727","1.693","295.2","2.646","292.8","1024.9160000000002","21.04","66.26","281.1","0.0"],
    [1416143,"2026-06-12 06:30:00","53728","1.827","293.6","2.842","283","1024.974","21.34","66.76","313.6","0.0"],
    [1416144,"2026-06-12 06:40:00","53729","1.85","284.1","3.038","272.3","1024.9289999999999","21.69","66.23","345.7","0.0"],
    [1416145,"2026-06-12 06:50:00","53730","1.489","280.5","2.809","286.5","1024.9389999999999","22.0","65.56","377.2","0.0"],
    [1416146,"2026-06-12 07:00:00","53731","1.575","280.4","3.169","286","1024.891","22.39","64.42","410.8","0.0"],
    [1416147,"2026-06-12 07:10:00","53732","2.126","289.9","3.463","294.5","1024.864","22.6","63.73","442.7","0.0"],
    [1416148,"2026-06-12 07:20:00","53733","2.165","298.2","3.528","289.5","1024.889","22.67","63.64","477.4","0.0"],
    [1416149,"2026-06-12 07:30:00","53734","1.646","307.3","2.907","292.9","1024.902","23.01","62.33","507.3","0.0"],
    [1416150,"2026-06-12 07:40:00","53735","1.305","307.2","2.646","291.1","1024.937","23.33","61.51","536.7","0.0"],
    [1416151,"2026-06-12 07:50:00","53736","1.185","286.9","2.907","321.9","1024.922","23.58","60.38","566.9","0.0"],
    [1416152,"2026-06-12 08:00:00","53737","0.835","230.7","2.319","229","1024.9660000000001","24.17","58.85","595.5","0.0"],
    [1416153,"2026-06-12 08:10:00","53738","1.452","274.5","3.855","275.4","1024.9769999999999","24.52","57.72","623.4","0.0"],
    [1416154,"2026-06-12 08:20:00","53739","1.8359999999999999","235.1","3.757","231.5","1025.046","24.71","56.84","650.4","0.0"],
    [1416155,"2026-06-12 08:30:00","53740","2.287","196.0","5.423","188.7","1024.983","24.61","57.85","661.1","0.0"],
    [1416156,"2026-06-12 08:40:00","53741","2.34","189.2","3.985","209.2","1024.885","24.66","59.15","685.4","0.0"],
    [1416157,"2026-06-12 08:50:00","53742","2.364","194.4","4.149","180.7","1024.83","24.85","61.08","734.1","0.0"],
    [1416158,"2026-06-12 09:00:00","53743","3.325","183.5","5.815","188","1024.812","24.35","64.67","727.7","0.0"],
    [1416159,"2026-06-12 09:10:00","53744","3.637","202.0","5.423","186.6","1024.789","23.95","67.39","786.9","0.0"],
    [1416160,"2026-06-12 09:20:00","53745","2.515","195.3","4.704","184.4","1024.835","24.44","66.74","810.0","0.0"],
    [1416161,"2026-06-12 09:30:00","53746","3.153","188.9","5.423","167","1024.856","24.2","68.38","831.0","0.0"],
    [1416162,"2026-06-12 09:40:00","53747","3.0669999999999997","185.8","5.39","180.6","1024.8419999999999","24.05","69.41","853.0","0.0"],
    [1416163,"2026-06-12 09:50:00","53748","2.6319999999999997","186.1","4.671","178","1024.788","23.91","70.71","872.0","0.0"],
    [1416164,"2026-06-12 10:00:00","53749","3.2089999999999996","180.3","4.835","181.9","1024.87","24.1","68.92","890.0","0.0"],
    [1416165,"2026-06-12 10:10:00","53750","2.823","184.5","5.063","182","1024.857","24.52","67.85","907.0","0.0"],
    [1416166,"2026-06-12 10:20:00","53751","3.094","180.5","5.063","160.1","1024.854","24.37","68.05","923.0","0.0"],
    [1416167,"2026-06-12 10:30:00","53752","2.588","191.1","4.573","173.8","1024.8419999999999","24.93","66.65","937.0","0.0"],
    [1416168,"2026-06-12 10:40:00","53753","3.111","205.1","5.292","221.8","1024.825","24.79","67.18","949.0","0.0"],
    [1416169,"2026-06-12 10:50:00","53754","3.2960000000000003","185.5","5.717","182.8","1024.937","24.98","66.17","958.0","0.0"],
    [1416170,"2026-06-12 11:00:00","53755","3.5460000000000003","206.4","6.305","211.2","1024.976","24.95","67.75","967.0","0.0"],
    [1416171,"2026-06-12 11:10:00","53756","2.9960000000000004","198.4","5.357","179.3","1024.953","25.45","64.17","975.0","0.0"],
    [1416172,"2026-06-12 11:20:00","53757","3.824","205.2","6.305","204.1","1024.992","25.16","65.29","981.0","0.0"],
    [1416173,"2026-06-12 11:30:00","53758","3.2710000000000004","200.2","6.109","174.3","1024.95","25.43","66.12","986.0","0.0"],
    [1416174,"2026-06-12 11:40:00","53759","3.472","204.3","5.782","219.5","1024.886","25.59","64.43","991.0","0.0"],
    [1416175,"2026-06-12 11:50:00","53760","3.978","210.3","5.684","223.6","1024.78","25.37","63.71","993.0","0.0"],
    [1416176,"2026-06-12 12:00:00","53761","3.7510000000000003","197.7","6.631","182.9","1024.745","25.83","63.56","993.0","0.0"],
    [1416177,"2026-06-12 12:10:00","53762","3.498","199.5","6.011","177.9","1024.729","25.74","63.82","992.0","0.0"],
    [1416178,"2026-06-12 12:20:00","53763","3.9139999999999997","194.2","6.925","183.5","1024.616","25.75","62.3","990.0","0.0"],
    [1416179,"2026-06-12 12:30:00","53764","3.574","198.1","6.403","181.5","1024.542","25.94","63.34","983.0","0.0"],
    [1416180,"2026-06-12 12:40:00","53765","3.5189999999999997","197.0","6.37","176.3","1024.4660000000001","26.11","61.26","976.0","0.0"],
    [1416181,"2026-06-12 12:50:00","53766","3.8510000000000004","206.8","6.664","227.5","1024.357","26.39","60.5","968.0","0.0"],
    [1416182,"2026-06-12 13:00:00","53767","4.659","210.2","8.04","204.5","1024.312","25.78","60.57","962.0","0.0"],
    [1416183,"2026-06-12 13:10:00","53768","4.669","212.1","7.121","219.5","1024.224","25.67","62.89","952.0","0.0"],
    [1416184,"2026-06-12 13:20:00","53769","3.9989999999999997","207.8","7.579","226","1024.21","26.03","64.54","940.0","0.0"],
    [1416185,"2026-06-12 13:30:00","53770","4.987","213.6","7.513","216.6","1024.195","25.95","62.58","925.0","0.0"],
    [1416186,"2026-06-12 13:40:00","53771","5.077","215.8","8.17","215.3","1024.101","25.93","60.39","910.0","0.0"],
    [1416187,"2026-06-12 13:50:00","53772","5.38","214.3","8.56","229.3","1024.003","25.94","58.94","896.0","0.0"],
    [1416188,"2026-06-12 14:00:00","53773","5.553999999999999","214.6","7.873","224.3","1023.9","26.22","57.23","877.0","0.0"],
    [1416189,"2026-06-12 14:10:00","53774","5.391","220.2","8.26","215.6","1023.819","26.29","54.15","859.0","0.0"],
    [1416190,"2026-06-12 14:20:00","53775","5.352","219.4","8.46","215.3","1023.66","26.39","55.86","839.0","0.0"],
    [1416191,"2026-06-12 14:30:00","53776","4.3389999999999995","222.3","8.23","218.5","1023.5039999999999","26.96","49.8","815.0","0.0"],
    [1416192,"2026-06-12 14:40:00","53777","4.854","219.2","7.709","216","1023.3969999999999","26.9","49.77","791.6","0.0"],
    [1416193,"2026-06-12 14:50:00","53778","5.6","220.1","7.644","224.2","1023.314","26.58","48.89","765.2","0.0"],
    [1416194,"2026-06-12 15:00:00","53779","4.468999999999999","219.6","7.285","217.2","1023.245","26.76","50.53","738.3","0.0"],
    [1416195,"2026-06-12 15:10:00","53780","3.557","216.4","5.684","211.4","1023.199","26.97","53.27","709.8","0.0"],
    [1416196,"2026-06-12 15:20:00","53781","4.042","222.1","7.35","210.1","1023.183","26.82","52.11","645.9","0.0"],
    [1416197,"2026-06-12 15:30:00","53782","4.878","214.8","7.873","215.3","1023.18","26.34","57.56","654.0","0.0"],
    [1416198,"2026-06-12 15:40:00","53783","4.63","213.1","7.644","218.9","1023.1489999999999","26.0","59.21","596.3","0.0"],
    [1416199,"2026-06-12 15:50:00","53784","5.04","214.2","7.742","227.3","1023.164","25.75","60.72","590.4","0.0"],
    [1416200,"2026-06-12 16:00:00","53785","4.7669999999999995","213.3","7.644","194.9","1023.1360000000001","25.58","63.57","567.8","0.0"],
    [1416201,"2026-06-12 16:10:00","53786","5.197","215.5","8.43","221.5","1023.1339999999999","25.47","64.41","533.6","0.0"],
    [1416202,"2026-06-12 16:20:00","53787","5.185","219.0","8.62","224.8","1023.0930000000001","25.31","64.97","502.9","0.0"],
    [1416203,"2026-06-12 16:30:00","53788","5.794","220.2","8.92","214","1023.043","25.18","62.07","474.5","0.0"],
    [1416204,"2026-06-12 16:40:00","53789","5.047","215.7","9.44","211.4","1022.9780000000001","25.59","58.87","441.5","0.0"],
    [1416205,"2026-06-12 16:50:00","53790","5.992000000000001","220.1","10.03","224","1022.975","25.23","58.18","410.9","0.0"],
    [1416206,"2026-06-12 17:00:00","53791","6.222","224.3","8.49","234.2","1022.95","24.97","59.88","380.3","0.0"],
    [1416207,"2026-06-12 17:10:00","53792","5.327999999999999","222.9","8.26","223.9","1022.819","24.99","59.89","347.5","0.0"],
    [1416208,"2026-06-12 17:20:00","53793","4.927","216.3","8.75","220.9","1022.7919999999999","25.23","60.64","314.6","0.0"],
    [1416209,"2026-06-12 17:30:00","53794","4.6930000000000005","218.3","7.317","226.2","1022.791","25.2","59.6","282.9","0.0"],
    [1416210,"2026-06-12 17:40:00","53795","4.423","220.9","8.89","226.1","1022.7439999999999","25.31","55.86","252.8","0.0"],
    [1416211,"2026-06-12 17:50:00","53796","3.872","213.9","6.631","218.2","1022.773","25.3","57.85","221.2","0.0"],
    [1416212,"2026-06-12 18:00:00","53797","3.952","213.8","7.285","215.6","1022.793","24.93","61.88","190.1","0.0"],
    [1416213,"2026-06-12 18:10:00","53798","4.273","215.0","7.187","199.9","1022.76","24.61","63.89","161.9","0.0"],
    [1416214,"2026-06-12 18:20:00","53799","3.508","208.5","6.991","231.4","1022.775","24.42","67.01","132.7","0.0"],
    [1416215,"2026-06-12 18:30:00","53800","4.129","211.3","6.272","203.1","1022.717","24.04","69.21","106.2","0.0"],
    [1416216,"2026-06-12 18:40:00","53801","4.4","213.5","7.285","214.3","1022.635","23.92","68.03","80.5","0.0"],
    [1416217,"2026-06-12 18:50:00","53802","4.48","216.6","7.579","186.7","1022.615","23.76","68.49","56.58","0.0"],
    [1416218,"2026-06-12 19:00:00","53803","4.947","217.8","8.17","222.9","1022.585","23.53","70.55","34.93","0.0"],
    [1416219,"2026-06-12 19:10:00","53804","4.82","222.3","7.938","222.2","1022.55","23.19","72.86","19.04","0.0"],
    [1416220,"2026-06-12 19:20:00","53805","3.657","218.3","6.207","222.3","1022.552","23.38","67.62","7.587999999999999","0.0"],
    [1416221,"2026-06-12 19:30:00","53806","3.219","223.1","4.737","205.7","1022.638","23.2","69.84","1.986","0.0"],
    [1416222,"2026-06-12 19:40:00","53807","3.312","226.6","4.769","227.9","1022.674","23.06","70.17","-0.635","0.0"],
    [1416223,"2026-06-12 19:50:00","53808","2.8","226.9","4.835","209.2","1022.653","23.09","67.64","-2.307","0.0"],
    [1416224,"2026-06-12 20:00:00","53809","2.832","225.0","5.031","222","1022.7080000000001","23.09","68.55","-2.6460000000000004","0.0"],
    [1416225,"2026-06-12 20:10:00","53810","2.154","230.1","3.495","227.8","1022.7639999999999","22.9","69.41","-2.661","0.0"],
    [1416226,"2026-06-12 20:20:00","53811","2.0180000000000002","225.7","3.038","227.8","1022.817","22.84","69.07","-2.7319999999999998","0.0"],
    [1416227,"2026-06-12 20:30:00","53812","2.262","218.4","3.201","234.1","1022.9110000000001","22.85","69.43","-2.89","0.0"],
    [1416228,"2026-06-12 20:40:00","53813","2.001","229.0","3.299","217.8","1022.908","22.86","67.9","-2.833","0.0"],
    [1416229,"2026-06-12 20:50:00","53814","1.3659999999999999","228.4","2.123","232.5","1022.9860000000001","22.82","67.42","-3.074","0.0"],
    [1416230,"2026-06-12 21:00:00","53815","1.567","229.9","2.385","231.2","1023.071","22.72","66.85","-3.0789999999999997","0.0"],
    [1416231,"2026-06-12 21:10:00","53816","1.463","223.1","2.319","232.5","1023.1360000000001","22.67","66.46","-2.9610000000000003","0.0"],
    [1416232,"2026-06-12 21:20:00","53817","1.591","227.9","2.515","211.6","1023.1519999999999","22.68","65.85","-3.036","0.0"],
    [1416233,"2026-06-12 21:30:00","53818","2.113","217.3","3.071","231.2","1023.2","22.67","67.02","-2.9730000000000003","0.0"],
    [1416234,"2026-06-12 21:40:00","53819","1.5730000000000002","228.2","3.201","215.4","1023.227","22.5","67.63","-2.699","0.0"],
    [1416235,"2026-06-12 21:50:00","53820","1.818","226.9","2.744","219.9","1023.221","22.42","67.15","-3.04","0.0"],
    [1416236,"2026-06-12 22:00:00","53821","1.3940000000000001","205.3","2.711","208.9","1023.245","22.53","66.59","-2.9610000000000003","0.0"],
    [1416237,"2026-06-12 22:10:00","53822","1.788","211.9","2.744","189.6","1023.235","22.31","68.84","-3.127","0.0"],
    [1416238,"2026-06-12 22:20:00","53823","2.214","210.5","3.103","228.2","1023.203","22.27","70.77","-2.787","0.0"],
    [1416239,"2026-06-12 22:30:00","53824","1.7630000000000001","221.7","2.515","220.3","1023.225","22.17","73.23","-2.76","0.0"],
    [1416240,"2026-06-12 22:40:00","53825","1.37","224.3","2.254","227.7","1023.2","22.19","71.31","-2.735","0.0"],
    [1416241,"2026-06-12 22:50:00","53826","1.052","227.2","1.993","244.9","1023.184","22.17","69.84","-3.1180000000000003","0.0"],
    [1416242,"2026-06-12 23:00:00","53827","1.099","255.5","2.189","269","1023.153","22.25","66.09","-2.926","0.0"],
    [1416243,"2026-06-12 23:10:00","53828","1.037","260.5","1.764","275.8","1023.076","22.16","63.01","-2.8960000000000004","0.0"],
    [1416244,"2026-06-12 23:20:00","53829","0.624","254.5","1.405","250.8","1023.0039999999999","22.02","62.74","-2.8360000000000003","0.0"],
    [1416245,"2026-06-12 23:30:00","53830","1.143","242.7","1.568","237.1","1022.935","21.88","62.24","-3.1010000000000004","0.0"],
    [1416246,"2026-06-12 23:40:00","53831","1.011","246.5","1.601","246.2","1022.863","21.78","63.16","-2.6889999999999996","0.0"],
    [1416247,"2026-06-12 23:50:00","53832","1.551","226.1","2.287","220","1022.8389999999999","21.7","64.74","-2.989","0.0"],
    [1416248,"2026-06-13 00:00:00","53833","1.129","273.1","2.123","250.3","1022.8380000000001","21.31","66.2","-2.7060000000000004","0.0"],
    [1416249,"2026-06-13 00:10:00","53834","0.963","256.1","1.699","274.9","1022.822","20.79","66.9","-2.968","0.0"],
    [1416250,"2026-06-13 00:20:00","53835","1.158","261.9","1.993","261.4","1022.73","20.87","65.67","-2.872","0.0"],
    [1416251,"2026-06-13 00:30:00","53836","1.078","285.2","2.091","282.8","1022.6439999999999","20.83","65.66","-2.667","0.0"],
    [1416252,"2026-06-13 00:40:00","53837","1.099","282.3","1.895","286.4","1022.535","20.41","67.71","-3.0669999999999997","0.0"],
    [1416253,"2026-06-13 00:50:00","53838","1.6869999999999998","261.6","2.548","277.8","1022.535","20.76","66.67","-2.877","0.0"],
    [1416254,"2026-06-13 01:00:00","53839","1.819","275.2","2.842","273.7","1022.4910000000001","20.81","66.82","-2.66","0.0"],
    [1416255,"2026-06-13 01:10:00","53840","1.495","282.0","2.744","286.6","1022.45","20.5","68.0","-2.885","0.0"],
    [1416256,"2026-06-13 01:20:00","53841","1.3530000000000002","267.5","2.352","271.9","1022.449","20.6","68.16","-2.679","0.0"],
    [1416257,"2026-06-13 01:30:00","53842","1.5490000000000002","281.4","2.875","286.8","1022.308","20.46","68.96","-2.668","0.0"],
    [1416258,"2026-06-13 01:40:00","53843","1.745","284.5","2.581","295.2","1022.1089999999999","20.38","69.34","-2.68","0.0"],
    [1416259,"2026-06-13 01:50:00","53844","1.3840000000000001","292.4","2.417","298.7","1021.936","20.25","69.59","-2.688","0.0"],
    [1416260,"2026-06-13 02:00:00","53845","1.4480000000000002","288.7","2.515","295.8","1021.809","20.07","69.93","-2.866","0.0"],
    [1416261,"2026-06-13 02:10:00","53846","1.5390000000000001","286.8","2.515","290.2","1021.727","19.82","70.82","-2.716","0.0"],
    [1416262,"2026-06-13 02:20:00","53847","1.632","269.7","2.907","254.2","1021.615","19.78","69.98","-2.963","0.0"],
    [1416263,"2026-06-13 02:30:00","53848","1.839","263.9","3.136","235.2","1021.5930000000001","20.19","67.95","-2.688","0.0"],
    [1416264,"2026-06-13 02:40:00","53849","1.801","270.8","3.43","263","1021.545","20.3","67.06","-2.678","0.0"],
    [1416265,"2026-06-13 02:50:00","53850","1.893","265.7","3.169","271.2","1021.565","20.58","65.78","-2.7510000000000003","0.0"],
    [1416266,"2026-06-13 03:00:00","53851","2.097","261.2","3.822","260.5","1021.62","20.87","64.04","-2.9210000000000003","0.0"],
    [1416267,"2026-06-13 03:10:00","53852","2.411","281.6","3.626","290.8","1021.684","20.94","62.99","-2.675","0.0"],
    [1416268,"2026-06-13 03:20:00","53853","3.009","293.4","5.292","300.1","1021.6060000000001","20.55","63.74","-2.847","0.0"],
    [1416269,"2026-06-13 03:30:00","53854","3.3339999999999996","295.0","5.782","295.8","1021.5160000000001","21.29","60.31","-2.967","0.0"],
    [1416270,"2026-06-13 03:40:00","53855","2.471","281.1","5.063","292.5","1021.5039999999999","21.27","60.53","-2.662","0.0"],
    [1416271,"2026-06-13 03:50:00","53856","3.0010000000000003","282.3","4.835","273.7","1021.4730000000001","21.2","60.61","-2.733","0.0"],
    [1416272,"2026-06-13 04:00:00","53857","2.421","278.6","4.312","286.8","1021.46","21.19","60.6","-2.51","0.0"],
    [1416273,"2026-06-13 04:10:00","53858","3.168","292.8","4.998","281.7","1021.4680000000001","21.22","60.42","-1.464","0.0"],
    [1416274,"2026-06-13 04:20:00","53859","2.5989999999999998","290.3","3.789","282","1021.512","20.86","61.85","1.181","0.0"],
    [1416275,"2026-06-13 04:30:00","53860","2.195","290.1","3.561","292.8","1021.543","20.64","62.7","5.399","0.0"],
    [1416276,"2026-06-13 04:40:00","53861","1.931","295.5","2.907","302.7","1021.538","20.6","62.95","16.42","0.0"],
    [1416277,"2026-06-13 04:50:00","53862","2.15","284.5","3.332","284.8","1021.575","20.82","61.81","34.16","0.0"],
    [1416278,"2026-06-13 05:00:00","53863","2.1630000000000003","290.1","3.365","292.4","1021.613","21.03","60.92","55.15","0.0"],
    [1416279,"2026-06-13 05:10:00","53864","2.124","290.2","3.299","294.2","1021.664","21.19","60.54","77.55","0.0"],
    [1416280,"2026-06-13 05:20:00","53865","2.2359999999999998","285.4","3.757","277.3","1021.683","21.49","59.4","101.4","0.0"],
    [1416281,"2026-06-13 05:30:00","53866","2.1319999999999997","282.3","4.214","277.6","1021.689","21.68","58.96","127.8","0.0"],
    [1416282,"2026-06-13 05:40:00","53867","2.2640000000000002","274.3","4.279","287.4","1021.686","22.08","57.6","146.9","0.0"],
    [1416283,"2026-06-13 05:50:00","53868","2.714","292.7","4.671","316.1","1021.7869999999999","22.3","57.32","180.9","0.0"],
    [1416284,"2026-06-13 06:00:00","53869","2.6010000000000004","291.5","4.443","304","1021.804","23.06","54.6","218.1","0.0"],
    [1416285,"2026-06-13 06:10:00","53870","2.477","292.1","3.985","301","1021.806","23.44","53.66","250.4","0.0"],
    [1416286,"2026-06-13 06:20:00","53871","2.713","298.0","4.312","316.6","1021.806","24.04","52.27","283.7","0.0"],
    [1416287,"2026-06-13 06:30:00","53872","2.5780000000000003","292.7","4.214","303.9","1021.8639999999999","24.49","50.96","317.1","0.0"],
    [1416288,"2026-06-13 06:40:00","53873","1.964","295.6","3.136","295.9","1021.855","25.15","49.19","348.1","0.0"],
    [1416289,"2026-06-13 06:50:00","53874","1.5590000000000002","303.7","2.548","309.4","1021.82","25.85","47.03","380.5","0.0"],
    [1416290,"2026-06-13 07:00:00","53875","1.072","330.5","1.764","311.9","1021.8580000000001","26.58","46.07","413.9","0.0"],
    [1416291,"2026-06-13 07:10:00","53876","1.504","86.4","2.221","95.5","1021.8480000000001","25.78","53.05","440.6","0.0"],
    [1416292,"2026-06-13 07:20:00","53877","0.7020000000000001","91.4","1.339","86.8","1021.7919999999999","26.25","50.88","465.2","0.0"],
    [1416293,"2026-06-13 07:30:00","53878","0.813","88.7","1.47","82.1","1021.842","27.56","46.03","491.4","0.0"],
    [1416294,"2026-06-13 07:40:00","53879","0.591","107.6","1.601","115.4","1021.78","28.24","42.55","528.7","0.0"],
    [1416295,"2026-06-13 07:50:00","53880","0.607","87.4","1.568","89.3","1021.7230000000001","28.87","40.16","559.4","0.0"],
    [1416296,"2026-06-13 08:00:00","53881","0.8220000000000001","76.87","1.764","87.4","1021.6560000000001","28.91","40.2","591.8","0.0"],
    [1416297,"2026-06-13 08:10:00","53882","1.21","92.1","2.091","92.7","1021.573","28.81","39.95","627.6","0.0"],
    [1416298,"2026-06-13 08:20:00","53883","1.5830000000000002","88.0","2.45","85.1","1021.563","28.9","38.69","656.4","0.0"],
    [1416299,"2026-06-13 08:30:00","53884","1.3880000000000001","103.7","3.103","127.7","1021.547","29.3","37.03","670.8","0.0"],
    [1416300,"2026-06-13 08:40:00","53885","0.636","115.2","1.927","161.4","1021.441","30.29","35.11","682.5","0.0"],
    [1416301,"2026-06-13 08:50:00","53886","1.093","108.0","2.221","111.1","1021.357","30.33","33.83","737.0","0.0"],
    [1416302,"2026-06-13 09:00:00","53887","0.616","97.7","2.548","73.74","1021.279","30.75","32.55","718.8","0.0"],
    [1416303,"2026-06-13 09:10:00","53888","0.7140000000000001","137.2","2.287","160.9","1021.284","31.05","33.03","767.6","0.0"],
    [1416304,"2026-06-13 09:20:00","53889","1.531","163.3","4.247","185.1","1021.216","30.23","34.7","791.1","0.0"],
    [1416305,"2026-06-13 09:30:00","53890","1.023","128.9","2.515","188.3","1021.1","29.82","35.58","821.0","0.0"],
    [1416306,"2026-06-13 09:40:00","53891","1.305","162.2","3.267","152","1021.1089999999999","30.32","34.73","849.0","0.0"],
    [1416307,"2026-06-13 09:50:00","53892","0.88","138.5","2.744","146.7","1021.08","29.96","34.84","868.0","0.0"],
    [1416308,"2026-06-13 10:00:00","53893","1.102","152.3","3.691","179.3","1021.064","30.66","34.0","883.0","0.0"],
    [1416309,"2026-06-13 10:10:00","53894","2.909","202.6","5.39","221","1021.169","29.33","42.22","908.0","0.0"],
    [1416310,"2026-06-13 10:20:00","53895","3.292","194.0","5.913","205.9","1021.319","27.8","48.12","922.0","0.0"],
    [1416311,"2026-06-13 10:30:00","53896","3.065","194.0","5.782","226.3","1021.335","27.69","52.92","938.0","0.0"],
    [1416312,"2026-06-13 10:40:00","53897","2.6689999999999996","199.0","4.867","232.4","1021.29","28.07","49.27","949.0","0.0"],
    [1416313,"2026-06-13 10:50:00","53898","2.448","201.6","5.227","229.7","1021.295","28.59","45.9","971.0","0.0"],
    [1416314,"2026-06-13 11:00:00","53899","2.449","187.4","5.063","178.1","1021.296","28.9","42.6","980.0","0.0"],
    [1416315,"2026-06-13 11:10:00","53900","3.0660000000000003","183.2","4.769","198.9","1021.298","27.94","45.45","965.0","0.0"],
    [1416316,"2026-06-13 11:20:00","53901","2.7680000000000002","202.9","4.737","221.1","1021.284","28.36","44.88","993.0","0.0"],
    [1416317,"2026-06-13 11:30:00","53902","3.471","185.4","5.129","183.8","1021.238","27.74","44.99","985.0","0.0"],
    [1416318,"2026-06-13 11:40:00","53903","3.299","180.2","4.9","181.9","1021.217","27.3","46.73","992.0","0.0"],
    [1416319,"2026-06-13 11:50:00","53904","2.6210000000000004","188.0","4.671","186.1","1021.13","28.24","43.35","1009.0","0.0"],
    [1416320,"2026-06-13 12:00:00","53905","2.8569999999999998","170.0","4.214","161.8","1021.041","27.84","46.28","1005.0","0.0"],
    [1416321,"2026-06-13 12:10:00","53906","3.318","177.0","4.802","182.3","1020.971","27.12","50.01","997.0","0.0"],
    [1416322,"2026-06-13 12:20:00","53907","3.227","168.9","5.684","172.1","1020.948","26.49","55.34","1009.0","0.0"],
    [1416323,"2026-06-13 12:30:00","53908","3.5269999999999997","175.7","5.194","201.6","1020.955","26.02","59.4","1005.0","0.0"],
    [1416324,"2026-06-13 12:40:00","53909","3.531","178.0","5.455","186.5","1020.925","26.3","57.26","999.0","0.0"],
    [1416325,"2026-06-13 12:50:00","53910","2.7","183.8","5.521","158.6","1020.8889999999999","26.25","62.33","959.0","0.0"],
    [1416326,"2026-06-13 13:00:00","53911","2.572","187.1","4.704","168.5","1020.7760000000001","27.15","55.73","991.0","0.0"],
    [1416327,"2026-06-13 13:10:00","53912","2.6710000000000003","193.4","5.357","169.8","1020.706","27.39","53.29","864.0","0.0"],
    [1416328,"2026-06-13 13:20:00","53913","3.005","180.7","4.606","190.5","1020.6360000000001","27.13","51.75","849.0","0.0"],
    [1416329,"2026-06-13 13:30:00","53914","3.2460000000000004","184.9","5.259","184.3","1020.523","27.18","52.2","846.0","0.0"],
    [1416330,"2026-06-13 13:40:00","53915","2.7969999999999997","181.8","4.671","164","1020.425","27.22","49.05","836.0","0.0"],
    [1416331,"2026-06-13 13:50:00","53916","2.968","177.7","4.639","174.3","1020.368","27.25","43.5","795.9","0.0"],
    [1416332,"2026-06-13 14:00:00","53917","2.471","181.8","3.789","144.2","1020.2760000000001","28.11","39.13","790.4","0.0"],
    [1416333,"2026-06-13 14:10:00","53918","2.542","171.5","4.051","161.4","1020.202","28.01","32.04","814.0","0.0"],
    [1416334,"2026-06-13 14:20:00","53919","2.593","179.8","4.247","168.4","1020.155","28.21","30.89","794.0","0.0"],
    [1416335,"2026-06-13 14:30:00","53920","2.775","184.8","5.488","168.8","1020.081","27.92","38.68","813.0","0.0"],
    [1416336,"2026-06-13 14:40:00","53921","2.6430000000000002","177.2","4.345","164.2","1019.995","27.48","44.57","811.0","0.0"],
    [1416337,"2026-06-13 14:50:00","53922","2.897","184.2","6.076","184.2","1019.868","27.43","48.19","767.2","0.0"],
    [1416338,"2026-06-13 15:00:00","53923","3.0380000000000003","187.5","5.161","190.3","1019.7460000000001","27.21","50.36","748.6","0.0"],
    [1416339,"2026-06-13 15:10:00","53924","3.3","174.7","5.227","183.8","1019.669","26.58","57.68","733.7","0.0"],
    [1416340,"2026-06-13 15:20:00","53925","3.0780000000000003","175.5","4.867","182","1019.62","26.31","60.43","667.0","0.0"],
    [1416341,"2026-06-13 15:30:00","53926","3.261","172.9","4.998","178.2","1019.558","26.47","61.07","679.3","0.0"],
    [1416342,"2026-06-13 15:40:00","53927","2.944","183.0","4.573","166.1","1019.461","26.47","61.75","594.9","0.0"],
    [1416343,"2026-06-13 15:50:00","53928","2.8960000000000004","178.6","4.541","153.1","1019.395","26.14","64.28","553.5","0.0"],
    [1416344,"2026-06-13 16:00:00","53929","2.67","178.0","4.345","166.7","1019.393","26.3","65.32","470.5","0.0"],
    [1416345,"2026-06-13 16:10:00","53930","2.864","178.7","5.063","162.5","1019.3939999999999","25.93","67.53","472.9","0.0"],
    [1416346,"2026-06-13 16:20:00","53931","2.83","184.0","4.704","199.4","1019.3539999999999","25.93","68.13","455.3","0.0"],
    [1416347,"2026-06-13 16:30:00","53932","2.553","190.8","4.704","155.8","1019.2710000000001","26.08","68.82","402.3","0.0"],
    [1416348,"2026-06-13 16:40:00","53933","2.363","191.1","4.018","175.7","1019.2230000000001","25.7","70.45","426.6","0.0"],
    [1416349,"2026-06-13 16:50:00","53934","2.33","187.7","4.345","184.5","1019.082","26.07","68.79","459.5","0.0"],
    [1416350,"2026-06-13 17:00:00","53935","2.614","181.7","4.606","178.4","1018.9839999999999","25.94","69.73","403.9","0.0"],
    [1416351,"2026-06-13 17:10:00","53936","2.88","186.3","4.671","180.6","1018.9860000000001","25.74","69.05","357.0","0.0"],
    [1416352,"2026-06-13 17:20:00","53937","2.806","185.7","5.423","182.5","1018.925","25.88","67.88","353.3","0.0"],
    [1416353,"2026-06-13 17:30:00","53938","3.0269999999999997","184.7","5.423","177.7","1018.898","25.52","68.88","296.0","0.0"],
    [1416354,"2026-06-13 17:40:00","53939","3.4010000000000002","183.7","5.455","182.9","1018.845","25.37","68.94","278.0","0.0"],
    [1416355,"2026-06-13 17:50:00","53940","3.113","185.4","5.063","178.9","1018.7860000000001","25.2","71.31","239.3","0.0"],
    [1416356,"2026-06-13 18:00:00","53941","2.5180000000000002","191.7","4.933","173.8","1018.75","25.36","71.66","203.3","0.0"],
    [1416357,"2026-06-13 18:10:00","53942","2.025","201.6","4.083","211.2","1018.681","25.39","71.71","168.0","0.0"],
    [1416358,"2026-06-13 18:20:00","53943","1.912","200.0","3.985","207.2","1018.635","25.3","70.85","138.0","0.0"],
    [1416359,"2026-06-13 18:30:00","53944","2.088","203.2","4.671","219.8","1018.576","25.23","69.58","104.4","0.0"],
    [1416360,"2026-06-13 18:40:00","53945","2.635","191.2","4.541","160.5","1018.5160000000001","24.99","70.06","87.2","0.0"],
    [1416361,"2026-06-13 18:50:00","53946","2.6830000000000003","189.8","5.161","193.1","1018.4960000000001","24.84","70.99","69.61","0.0"],
    [1416362,"2026-06-13 19:00:00","53947","3.264","183.5","5.259","184.2","1018.433","24.64","71.44","49.03","0.0"],
    [1416363,"2026-06-13 19:10:00","53948","3.4560000000000004","183.5","6.076","184.6","1018.375","24.38","72.56","28.8","0.0"],
    [1416364,"2026-06-13 19:20:00","53949","2.068","200.1","3.855","217.1","1018.3510000000001","24.28","73.39","12.36","0.0"],
    [1416365,"2026-06-13 19:30:00","53950","2.164","202.2","5.259","202.6","1018.291","24.1","73.27","2.721","0.0"],
    [1416366,"2026-06-13 19:40:00","53951","2.503","208.0","5.031","217.2","1018.26","24.1","71.19","-0.98","0.0"],
    [1416367,"2026-06-13 19:50:00","53952","2.249","203.7","4.149","225.3","1018.24","24.04","69.32","-2.407","0.0"],
    [1416368,"2026-06-13 20:00:00","53953","2.364","210.2","4.018","215.9","1018.2489999999999","23.96","67.91","-2.61","0.0"],
    [1416369,"2026-06-13 20:10:00","53954","2.263","213.7","4.149","212.7","1018.298","23.95","67.27","-2.6889999999999996","0.0"],
    [1416370,"2026-06-13 20:20:00","53955","2.524","216.5","5.129","212.6","1018.3330000000001","23.95","65.47","-2.7510000000000003","0.0"],
    [1416371,"2026-06-13 20:30:00","53956","2.543","217.3","4.802","222.3","1018.3510000000001","24.1","63.31","-2.72","0.0"],
    [1416372,"2026-06-13 20:40:00","53957","2.616","224.7","3.43","216.6","1018.3810000000001","24.16","60.27","-2.803","0.0"],
    [1416373,"2026-06-13 20:50:00","53958","2.531","223.9","3.822","212.9","1018.387","24.48","55.8","-2.85","0.0"],
    [1416374,"2026-06-13 21:00:00","53959","2.555","221.8","3.691","226.1","1018.383","24.7","53.76","-2.955","0.0"],
    [1416375,"2026-06-13 21:10:00","53960","1.855","209.2","3.005","219.6","1018.4060000000001","24.49","57.49","-2.7460000000000004","0.0"],
    [1416376,"2026-06-13 21:20:00","53961","1.6680000000000001","212.1","2.581","221.9","1018.329","24.05","59.99","-3.364","0.0"],
    [1416377,"2026-06-13 21:30:00","53962","2.293","220.7","3.626","218.6","1018.2139999999999","24.13","56.8","-3.3789999999999996","0.0"],
    [1416378,"2026-06-13 21:40:00","53963","2.077","229.2","3.169","217.1","1018.073","24.56","50.69","-3.255","0.0"],
    [1416379,"2026-06-13 21:50:00","53964","2.115","229.1","3.005","225.3","1018.044","24.54","50.21","-2.9619999999999997","0.0"],
    [1416380,"2026-06-13 22:00:00","53965","1.611","230.3","2.515","247.8","1017.9889999999999","24.24","50.44","-2.9330000000000003","0.0"],
    [1416381,"2026-06-13 22:10:00","53966","1.109","235.1","2.973","235.2","1017.962","24.1","50.47","-3.012","0.0"],
    [1416382,"2026-06-13 22:20:00","53967","1.8630000000000002","230.1","3.169","225.7","1017.982","24.13","50.24","-3.057","0.0"],
    [1416383,"2026-06-13 22:30:00","53968","1.3730000000000002","235.7","2.646","237","1017.908","24.22","49.06","-2.7119999999999997","0.0"],
    [1416384,"2026-06-13 22:40:00","53969","0.8170000000000001","240.6","1.666","236","1017.85","23.8","50.86","-3.2710000000000004","0.0"],
    [1416385,"2026-06-13 22:50:00","53970","1.624","225.2","2.189","228.8","1017.793","23.71","52.09","-3.1239999999999997","0.0"],
    [1416386,"2026-06-13 23:00:00","53971","1.416","229.7","2.221","223.8","1017.7560000000001","23.67","53.29","-2.898","0.0"],
    [1416387,"2026-06-13 23:10:00","53972","1.605","222.2","2.417","226.7","1017.684","23.68","52.76","-3.281","0.0"],
    [1416388,"2026-06-13 23:20:00","53973","1.158","225.9","1.764","224.8","1017.566","23.71","51.56","-3.233","0.0"],
    [1416389,"2026-06-13 23:30:00","53974","0.813","247.5","1.503","234","1017.431","23.53","51.07","-3.325","0.0"],
    [1416390,"2026-06-13 23:40:00","53975","1.1640000000000001","228.3","1.764","241.7","1017.373","23.28","52.08","-3.305","0.0"],
    [1416391,"2026-06-13 23:50:00","53976","1.079","243.8","1.731","257.1","1017.334","23.24","50.37","-3.1239999999999997","0.0"],
    [1416392,"2026-06-14 00:00:00","53977","1.097","234.3","1.927","228.7","1017.238","23.17","50.02","-2.844","0.0"],
    [1416393,"2026-06-14 00:10:00","53978","1.035","243.1","1.96","227.1","1017.1460000000001","22.98","50.48","-2.74","0.0"],
    [1416394,"2026-06-14 00:20:00","53979","0.49700000000000005","245.7","1.045","233.4","1016.943","22.34","52.89","-3.222","0.0"],
    [1416395,"2026-06-14 00:30:00","53980","0.872","253.7","1.764","288.1","1016.865","22.36","52.07","-3.09","0.0"],
    [1416396,"2026-06-14 00:40:00","53981","0.662","263.7","1.797","264.1","1016.788","22.23","52.52","-2.833","0.0"],
    [1416397,"2026-06-14 00:50:00","53982","1.286","277.7","2.189","275.6","1016.692","21.77","54.18","-2.8789999999999996","0.0"],
    [1416398,"2026-06-14 01:00:00","53983","1.44","272.1","2.744","258.7","1016.5210000000001","21.85","53.1","-2.853","0.0"],
    [1416399,"2026-06-14 01:10:00","53984","1.2570000000000001","277.9","2.189","286.8","1016.3839999999999","21.76","52.9","-2.6689999999999996","0.0"],
    [1416400,"2026-06-14 01:20:00","53985","1.375","271.0","2.548","273.7","1016.307","21.87","51.79","-2.714","0.0"],
    [1416401,"2026-06-14 01:30:00","53986","1.6380000000000001","279.0","2.711","277.2","1016.262","21.95","51.5","-2.6639999999999997","0.0"],
    [1416402,"2026-06-14 01:40:00","53987","1.722","278.3","2.875","291","1016.169","21.59","52.96","-2.6689999999999996","0.0"],
    [1416403,"2026-06-14 01:50:00","53988","1.369","273.4","2.94","291.5","1016.1110000000001","21.63","52.84","-2.665","0.0"],
    [1416404,"2026-06-14 02:00:00","53989","1.954","271.5","3.169","271.6","1016.0","21.66","52.46","-2.728","0.0"],
    [1416405,"2026-06-14 02:10:00","53990","1.555","256.8","2.581","280","1016.002","21.66","52.1","-2.677","0.0"],
    [1416406,"2026-06-14 02:20:00","53991","1.633","263.8","2.744","270.3","1016.0260000000001","21.7","51.68","-2.702","0.0"],
    [1416407,"2026-06-14 02:30:00","53992","1.515","270.9","2.679","289.3","1015.944","21.79","51.15","-2.6830000000000003","0.0"],
    [1416408,"2026-06-14 02:40:00","53993","1.597","267.8","2.777","298.3","1015.913","21.52","52.28","-2.9339999999999997","0.0"],
    [1416409,"2026-06-14 02:50:00","53994","1.524","268.2","3.071","271.8","1015.868","21.59","52.1","-2.806","0.0"],
    [1416410,"2026-06-14 03:00:00","53995","1.506","266.8","2.679","289.5","1015.788","21.66","52.01","-2.872","0.0"],
    [1416411,"2026-06-14 03:10:00","53996","1.568","259.9","2.646","260.3","1015.7189999999999","21.59","52.3","-2.92","0.0"],
    [1416412,"2026-06-14 03:20:00","53997","1.444","260.6","2.744","272.9","1015.673","21.67","52.04","-2.807","0.0"],
    [1416413,"2026-06-14 03:30:00","53998","1.6880000000000002","264.1","2.809","275.3","1015.56","21.63","52.41","-2.846","0.0"],
    [1416414,"2026-06-14 03:40:00","53999","2.188","286.6","3.724","280.7","1015.42","21.63","52.54","-3.156","0.0"],
    [1416415,"2026-06-14 03:50:00","54000","2.478","280.4","4.116","280.8","1015.424","21.94","51.48","-2.864","0.0"],
    [1416416,"2026-06-14 04:00:00","54001","2.21","278.9","3.855","284.5","1015.395","21.74","51.95","-2.687","0.0"],
    [1416417,"2026-06-14 04:10:00","54002","2.181","297.9","3.169","295.1","1015.3910000000001","21.2","53.86","-2.096","0.0"],
    [1416418,"2026-06-14 04:20:00","54003","1.943","304.5","3.103","326.2","1015.4910000000001","21.49","52.77","-0.08199999999999999","0.0"],
    [1416419,"2026-06-14 04:30:00","54004","0.325","344.3","1.372","52.02","1015.645","21.32","53.37","3.7039999999999997","0.0"],
    [1416420,"2026-06-14 04:40:00","54005","0.001","49.3","0.033","49.3","1015.7510000000001","21.03","54.59","8.99","0.0"],
    [1416421,"2026-06-14 04:50:00","54006","0.742","314.0","1.731","1.227","1015.7660000000001","20.9","56.12","21.18","0.0"],
    [1416422,"2026-06-14 05:00:00","54007","1.034","294.2","1.927","282","1015.794","20.9","56.98","49.51","0.0"],
    [1416423,"2026-06-14 05:10:00","54008","1.014","276.2","1.731","288.2","1015.81","21.56","55.26","72.86","0.0"],
    [1416424,"2026-06-14 05:20:00","54009","1.3940000000000001","280.2","2.254","269.1","1015.814","22.25","53.12","96.3","0.0"],
    [1416425,"2026-06-14 05:30:00","54010","1.6769999999999998","283.7","2.973","279.5","1015.826","22.67","52.06","122.8","0.0"],
    [1416426,"2026-06-14 05:40:00","54011","2.035","289.1","2.973","282.7","1015.862","22.83","51.21","145.1","0.0"],
    [1416427,"2026-06-14 05:50:00","54012","2.3930000000000002","280.1","3.953","280.3","1015.905","22.92","50.56","173.5","0.0"],
    [1416428,"2026-06-14 06:00:00","54013","2.639","279.0","4.377","278.1","1015.927","23.07","50.58","213.6","0.0"],
    [1416429,"2026-06-14 06:10:00","54014","2.2640000000000002","293.8","3.528","281.1","1015.816","23.46","49.94","245.6","0.0"],
    [1416430,"2026-06-14 06:20:00","54015","2.775","302.7","4.051","304.9","1015.752","23.96","47.58","279.5","0.0"],
    [1416431,"2026-06-14 06:30:00","54016","2.495","296.9","3.822","311.3","1015.75","24.54","46.03","313.2","0.0"],
    [1416432,"2026-06-14 06:40:00","54017","2.085","285.5","2.744","295.4","1015.685","24.99","45.26","345.7","0.0"],
    [1416433,"2026-06-14 06:50:00","54018","2.106","290.4","3.332","287.8","1015.721","25.39","44.5","378.4","0.0"],
    [1416434,"2026-06-14 07:00:00","54019","2.352","300.0","3.201","301.2","1015.7710000000001","25.8","43.5","410.4","0.0"],
    [1416435,"2026-06-14 07:10:00","54020","1.9809999999999999","294.0","2.744","301.4","1015.7689999999999","26.44","42.19","442.2","0.0"],
    [1416436,"2026-06-14 07:20:00","54021","1.712","278.0","2.581","293.1","1015.836","26.93","40.85","473.6","0.0"],
    [1416437,"2026-06-14 07:40:00","54022","1.345","291.6","2.287","327.1","1015.803","27.93","38.87","535.8","0.0"],
    [1416438,"2026-06-14 07:50:00","54023","1.056","202.9","1.895","199.6","1015.817","28.42","37.57","563.3","0.0"],
    [1416439,"2026-06-14 08:00:00","54024","1.88","210.4","4.051","231.5","1015.8760000000001","28.79","36.42","591.7","0.0"],
    [1416440,"2026-06-14 08:10:00","54025","2.209","204.1","4.083","210.9","1015.8910000000001","28.59","38.77","620.7","0.0"],
    [1416441,"2026-06-14 08:20:00","54026","2.313","209.7","3.757","214.6","1015.8710000000001","28.1","44.71","650.0","0.0"],
    [1416442,"2026-06-14 08:30:00","54027","2.086","201.9","3.495","205.8","1015.87","28.02","44.52","671.1","0.0"],
    [1416443,"2026-06-14 08:40:00","54028","2.5469999999999997","213.4","3.659","231.9","1015.938","28.04","44.16","670.5","0.0"],
    [1416444,"2026-06-14 08:50:00","54029","2.479","187.9","3.855","186.8","1015.898","28.15","43.13","730.4","0.0"],
    [1416445,"2026-06-14 09:00:00","54030","2.397","191.7","4.573","182.2","1015.8739999999999","27.97","44.86","716.0","0.0"],
    [1416446,"2026-06-14 09:10:00","54031","1.855","187.4","3.365","219.7","1015.855","28.22","42.76","783.1","0.0"],
    [1416447,"2026-06-14 09:20:00","54032","1.587","180.4","3.005","171.8","1015.752","28.72","41.72","807.0","0.0"],
    [1416448,"2026-06-14 09:30:00","54033","1.77","201.6","3.136","222.5","1015.712","28.79","41.92","833.0","0.0"],
    [1416449,"2026-06-14 09:40:00","54034","1.0290000000000001","173.1","2.711","153.6","1015.65","29.1","37.37","852.0","0.0"],
    [1416450,"2026-06-14 09:50:00","54035","1.67","162.7","3.561","159.9","1015.677","28.99","36.24","869.0","0.0"],
    [1416451,"2026-06-14 10:00:00","54036","1.0959999999999999","141.9","2.875","155.5","1015.5060000000001","29.05","36.0","883.0","0.0"],
    [1416452,"2026-06-14 10:10:00","54037","1.1640000000000001","101.6","2.319","95.8","1015.415","29.41","36.21","900.0","0.0"],
    [1416453,"2026-06-14 10:20:00","54038","2.406","92.3","4.377","80.2","1015.4110000000001","29.47","33.8","916.0","0.0"],
    [1416454,"2026-06-14 10:30:00","54039","2.6430000000000002","89.5","4.181","100.4","1015.4","29.26","33.76","931.0","0.0"],
    [1416455,"2026-06-14 10:40:00","54040","1.8619999999999999","97.8","3.985","123.7","1015.32","29.82","33.16","945.0","0.0"],
    [1416456,"2026-06-14 10:50:00","54041","2.53","99.5","4.998","106.2","1015.285","29.57","32.75","962.0","0.0"],
    [1416457,"2026-06-14 11:00:00","54042","1.565","104.6","3.463","108.3","1015.262","29.68","33.0","989.0","0.0"],
    [1416458,"2026-06-14 11:10:00","54043","2.407","93.6","4.965","79.39","1015.15","29.55","33.34","1004.0","0.0"],
    [1416459,"2026-06-14 11:20:00","54044","3.17","89.8","5.357","81.3","1015.11","29.18","33.15","998.0","0.0"],
    [1416460,"2026-06-14 11:30:00","54045","3.282","94.8","5.292","93.9","1015.117","29.36","33.29","994.0","0.0"],
    [1416461,"2026-06-14 11:40:00","54046","2.69","115.2","4.802","102.8","1015.035","29.2","33.5","996.0","0.0"],
    [1416462,"2026-06-14 11:50:00","54047","3.537","97.1","6.435","81.7","1014.967","28.79","34.12","950.0","0.0"],
    [1416463,"2026-06-14 12:00:00","54048","1.578","113.6","4.083","93.6","1014.9","29.44","34.42","972.0","0.0"],
    [1416464,"2026-06-14 12:10:00","54049","1.923","108.6","4.769","78.92","1014.801","29.05","35.07","1019.0","0.0"],
    [1416465,"2026-06-14 12:20:00","54050","1.972","158.0","4.312","217","1014.863","28.99","37.7","899.0","0.0"],
    [1416466,"2026-06-14 12:30:00","54051","2.481","186.1","4.9","181.5","1014.8989999999999","28.33","39.55","914.0","0.0"],
    [1416467,"2026-06-14 12:40:00","54052","2.23","193.0","4.247","234.8","1014.823","29.06","37.77","950.0","0.0"],
    [1416468,"2026-06-14 12:50:00","54053","2.049","177.0","5.292","163","1014.745","28.68","38.55","934.0","0.0"],
    [1416469,"2026-06-14 13:00:00","54054","1.8719999999999999","182.0","4.933","196.6","1014.698","29.03","38.53","943.0","0.0"],
    [1416470,"2026-06-14 13:10:00","54055","2.22","194.7","4.508","219.6","1014.655","28.73","38.75","933.0","0.0"],
    [1416471,"2026-06-14 13:20:00","54056","1.943","177.4","4.508","179.5","1014.575","28.99","38.21","915.0","0.0"],
    [1416472,"2026-06-14 13:30:00","54057","1.263","170.8","2.809","169.6","1014.457","29.35","37.62","899.0","0.0"],
    [1416473,"2026-06-14 13:40:00","54058","1.4380000000000002","169.1","4.083","159","1014.388","29.05","36.55","889.0","0.0"],
    [1416474,"2026-06-14 13:50:00","54059","2.245","115.8","4.279","133.5","1014.3789999999999","28.82","35.55","859.0","0.0"],
    [1416475,"2026-06-14 14:00:00","54060","1.6640000000000001","101.1","4.214","86.1","1014.363","28.65","35.91","855.0","0.0"],
    [1416476,"2026-06-14 14:10:00","54061","1.93","118.9","4.149","129.6","1014.346","28.41","36.31","836.0","0.0"],
    [1416477,"2026-06-14 14:20:00","54062","1.368","115.9","4.116","86.4","1014.2239999999999","28.46","36.31","815.0","0.0"],
    [1416478,"2026-06-14 14:30:00","54063","1.2209999999999999","128.1","3.691","146","1014.1339999999999","28.92","35.79","799.4","0.0"],
    [1416479,"2026-06-14 14:40:00","54064","1.3519999999999999","133.8","3.495","147.5","1014.1469999999999","28.77","36.03","781.4","0.0"],
    [1416480,"2026-06-14 14:50:00","54065","1.899","145.8","4.508","190","1014.1460000000001","28.89","36.45","707.7","0.0"],
    [1416481,"2026-06-14 15:00:00","54066","2.001","183.8","4.149","219.3","1014.1030000000001","28.06","38.3","550.6","0.0"],
    [1416482,"2026-06-14 15:10:00","54067","1.238","151.8","2.842","162.9","1013.9639999999999","28.25","37.73","611.5","0.0"],
    [1416483,"2026-06-14 15:20:00","54068","1.494","128.3","4.149","194.6","1013.797","28.41","35.77","638.2","0.0"],
    [1416484,"2026-06-14 15:30:00","54069","1.083","128.1","3.038","147.6","1013.664","28.49","35.48","644.9","0.0"],
    [1416485,"2026-06-14 15:40:00","54070","1.3840000000000001","118.6","3.234","163.7","1013.571","28.64","34.95","589.8","0.0"],
    [1416486,"2026-06-14 15:50:00","54071","1.117","107.7","3.561","140.6","1013.5189999999999","28.24","35.94","582.6","0.0"],
    [1416487,"2026-06-14 16:00:00","54072","1.4969999999999999","130.4","3.528","73.52","1013.564","28.11","36.47","562.5","0.0"],
    [1416488,"2026-06-14 16:10:00","54073","1.801","112.2","3.985","123","1013.447","27.75","37.3","527.8","0.0"],
    [1416489,"2026-06-14 16:20:00","54074","1.045","135.3","2.875","162.9","1013.385","27.79","37.75","420.4","0.0"],
    [1416490,"2026-06-14 16:30:00","54075","1.3459999999999999","94.4","3.071","76.65","1013.24","27.83","36.86","285.9","0.0"],
    [1416491,"2026-06-14 16:40:00","54076","1.052","111.8","2.875","106","1013.179","27.61","36.69","360.3","0.0"],
    [1416492,"2026-06-14 16:50:00","54077","1.281","170.0","3.071","196.2","1013.17","27.17","38.21","249.1","0.0"],
    [1416493,"2026-06-14 17:00:00","54078","1.043","121.3","2.94","84.7","1013.18","27.35","39.0","326.4","0.0"],
    [1416494,"2026-06-14 17:10:00","54079","1.64","187.6","3.201","187","1013.08","27.31","40.09","256.6","0.0"],
    [1416495,"2026-06-14 17:20:00","54080","2.0269999999999997","193.3","3.953","220.4","1012.9730000000001","26.88","40.95","241.8","0.0"],
    [1416496,"2026-06-14 17:30:00","54081","1.983","197.4","3.953","179.8","1012.9060000000001","26.75","40.9","166.1","0.0"],
    [1416497,"2026-06-14 17:40:00","54082","1.508","213.2","2.777","227.8","1012.84","26.49","41.6","187.0","0.0"],
    [1416498,"2026-06-14 17:50:00","54083","1.726","201.0","3.43","212","1012.8430000000001","26.77","40.96","226.5","0.0"],
    [1416499,"2026-06-14 18:00:00","54084","1.821","218.9","4.247","223.8","1012.7769999999999","26.68","41.12","205.3","0.0"],
    [1416500,"2026-06-14 18:10:00","54085","1.1340000000000001","205.9","2.352","228.9","1012.701","26.78","40.7","175.7","0.0"],
    [1416501,"2026-06-14 18:20:00","54086","0.562","205.3","2.091","146.6","1012.701","26.6","38.93","104.2","0.0"],
    [1416502,"2026-06-14 18:30:00","54087","0.41100000000000003","212.0","1.274","220.3","1012.704","26.69","39.23","113.3","0.0"],
    [1416503,"2026-06-14 18:40:00","54088","1.071","304.9","1.829","313.9","1012.7289999999999","26.77","38.9","84.7","0.0"],
    [1416504,"2026-06-14 18:50:00","54089","0.879","275.7","1.274","299.4","1012.7589999999999","26.42","39.28","47.57","0.0"],
    [1416505,"2026-06-14 19:00:00","54090","0.813","247.1","1.339","254.1","1012.7389999999999","26.33","38.58","39.81","0.0"],
    [1416506,"2026-06-14 19:10:00","54091","0.24","269.9","0.817","274.6","1012.697","26.24","38.52","22.7","0.0"],
    [1416507,"2026-06-14 19:20:00","54092","0.597","281.4","1.078","277","1012.6610000000001","26.02","39.03","8.26","0.0"],
    [1416508,"2026-06-14 19:30:00","54093","0.6609999999999999","273.3","1.013","283.6","1012.663","25.93","38.89","0.8059999999999999","0.0"],
    [1416509,"2026-06-14 19:40:00","54094","0.254","249.1","0.784","252.6","1012.669","25.83","38.84","-1.797","0.0"],
    [1416510,"2026-06-14 19:50:00","54095","0.439","208.6","0.882","244.2","1012.721","25.81","38.35","-2.5980000000000003","0.0"],
    [1416511,"2026-06-14 20:00:00","54096","1.131","182.5","2.189","183.9","1012.773","25.8","38.54","-3.0660000000000003","0.0"],
    [1416512,"2026-06-14 20:10:00","54097","1.5230000000000001","189.5","2.319","216.4","1012.827","25.84","39.3","-2.597","0.0"],
    [1416513,"2026-06-14 20:20:00","54098","1.601","220.5","2.711","222.5","1012.8689999999999","25.71","41.86","-2.594","0.0"],
    [1416514,"2026-06-14 20:30:00","54099","1.3559999999999999","212.7","2.156","182.7","1012.918","25.49","42.4","-2.594","0.0"],
    [1416515,"2026-06-14 20:40:00","54100","1.59","228.5","2.385","213.9","1012.959","25.5","41.89","-2.589","0.0"],
    [1416516,"2026-06-14 20:50:00","54101","1.0979999999999999","227.9","1.731","233.2","1012.954","25.51","39.99","-2.592","0.0"],
    [1416517,"2026-06-14 21:00:00","54102","1.035","237.3","1.535","234","1013.007","25.61","39.44","-2.589","0.0"],
    [1416518,"2026-06-14 21:10:00","54103","0.8909999999999999","249.1","1.568","239","1013.07","25.44","40.36","-2.592","0.0"],
    [1416519,"2026-06-14 21:20:00","54104","1.403","230.4","2.221","222.5","1013.123","25.44","40.1","-2.592","0.0"],
    [1416520,"2026-06-14 21:30:00","54105","1.245","235.2","2.548","256.4","1013.0980000000001","25.39","40.61","-2.593","0.0"],
    [1416521,"2026-06-14 21:40:00","54106","0.937","247.9","2.221","274.7","1012.993","25.34","41.54","-2.593","0.0"],
    [1416522,"2026-06-14 21:50:00","54107","0.975","245.6","1.764","269.3","1012.9169999999999","25.2","42.03","-2.6","0.0"],
    [1416523,"2026-06-14 22:00:00","54108","1.119","245.4","2.319","280.3","1012.824","25.17","42.36","-2.594","0.0"],
    [1416524,"2026-06-14 22:10:00","54109","1.078","247.3","2.319","281.5","1012.875","25.09","43.13","-2.623","0.0"],
    [1416525,"2026-06-14 22:20:00","54110","1.189","258.8","2.515","285.9","1012.803","25.05","43.17","-2.6889999999999996","0.0"],
    [1416526,"2026-06-14 22:30:00","54111","1.085","272.8","2.091","282.4","1012.732","24.69","44.62","-2.7769999999999997","0.0"],
    [1416527,"2026-06-14 22:40:00","54112","1.357","274.7","2.319","264","1012.62","24.33","45.54","-2.6060000000000003","0.0"],
    [1416528,"2026-06-14 22:50:00","54113","1.17","259.6","2.156","265.4","1012.544","24.42","44.88","-2.5989999999999998","0.0"],
    [1416529,"2026-06-14 23:00:00","54114","1.3090000000000002","254.5","2.352","272.6","1012.6439999999999","24.27","45.51","-2.602","0.0"],
    [1416530,"2026-06-14 23:10:00","54115","1.61","227.8","2.221","229.7","1012.6610000000001","24.37","44.64","-2.4","0.0"],
    [1416531,"2026-06-14 23:20:00","54116","1.317","232.5","1.927","234","1012.52","24.23","44.8","-2.043","0.0"],
    [1416532,"2026-06-14 23:30:00","54117","1.849","226.5","2.548","225.7","1012.5110000000001","24.43","43.97","-2.4930000000000003","0.0"],
    [1416533,"2026-06-14 23:40:00","54118","1.76","229.8","2.45","221.1","1012.6310000000001","24.51","44.41","-1.942","0.0"],
    [1416534,"2026-06-14 23:50:00","54119","1.041","235.7","2.254","227.1","1012.6360000000001","24.22","45.04","-1.9340000000000002","0.0"],
    [1416535,"2026-06-15 00:00:00","54120","0.875","274.5","1.829","285.6","1012.561","24.0","46.12","-2.335","0.0"],
    [1416536,"2026-06-15 00:10:00","54121","1.459","282.3","2.319","278.6","1012.4860000000001","23.58","47.67","-2.259","0.0"],
    [1416537,"2026-06-15 00:20:00","54122","1.2590000000000001","266.3","1.895","271.6","1012.393","23.52","47.96","-2.245","0.0"],
    [1416538,"2026-06-15 00:30:00","54123","1.183","252.5","1.96","301.1","1012.36","23.54","48.25","-2.3409999999999997","0.0"],
    [1416539,"2026-06-15 00:40:00","54124","1.875","278.2","2.777","269.8","1012.245","23.59","48.27","-2.112","0.0"],
    [1416540,"2026-06-15 00:50:00","54125","1.0659999999999998","283.6","1.764","288.2","1012.082","23.28","49.53","-2.515","0.0"],
    [1416541,"2026-06-15 01:00:00","54126","1.1179999999999999","289.5","1.96","306.4","1011.845","22.96","50.38","-2.65","0.0"],
    [1416542,"2026-06-15 01:10:00","54127","1.308","271.6","2.417","275.3","1011.742","23.29","48.35","-2.7319999999999998","0.0"],
    [1416543,"2026-06-15 01:20:00","54128","1.197","253.8","2.287","268.4","1011.676","23.83","46.37","-2.658","0.0"],
    [1416544,"2026-06-15 01:30:00","54129","1.81","238.9","2.973","239.4","1011.625","23.86","46.53","-2.6319999999999997","0.0"],
    [1416545,"2026-06-15 01:40:00","54130","1.5830000000000002","237.4","2.613","235.9","1011.58","23.5","47.03","-2.633","0.0"],
    [1416546,"2026-06-15 01:50:00","54131","1.298","238.9","2.254","258.7","1011.456","23.26","46.98","-2.658","0.0"],
    [1416547,"2026-06-15 02:00:00","54132","1.1740000000000002","239.3","2.352","218.5","1011.3969999999999","23.44","46.01","-2.659","0.0"],
    [1416548,"2026-06-15 02:10:00","54133","1.8019999999999998","233.6","2.809","245.8","1011.33","23.71","45.28","-2.63","0.0"],
    [1416549,"2026-06-15 02:20:00","54134","1.775","242.6","3.365","244.5","1011.2719999999999","23.74","45.32","-2.6430000000000002","0.0"],
    [1416550,"2026-06-15 02:30:00","54135","1.93","247.5","4.279","270.7","1011.242","23.85","45.13","-2.6319999999999997","0.0"],
    [1416551,"2026-06-15 02:40:00","54136","2.1180000000000003","239.0","4.214","281.5","1011.143","23.78","45.28","-2.658","0.0"],
    [1416552,"2026-06-15 02:50:00","54137","1.617","237.7","3.038","253.1","1011.052","23.59","45.9","-2.657","0.0"],
    [1416553,"2026-06-15 03:00:00","54138","2.177","231.8","3.365","251.2","1010.977","23.44","46.21","-2.656","0.0"],
    [1416554,"2026-06-15 03:10:00","54139","2.093","237.8","3.593","254.7","1010.868","23.65","45.1","-2.6630000000000003","0.0"],
    [1416555,"2026-06-15 03:20:00","54140","2.043","238.6","3.789","261.2","1010.805","23.82","44.53","-2.66","0.0"],
    [1416556,"2026-06-15 03:30:00","54141","2.024","228.7","2.907","231.9","1010.7310000000001","23.25","46.96","-2.657","0.0"],
    [1416557,"2026-06-15 03:40:00","54142","1.625","252.3","2.777","288.3","1010.622","23.0","47.69","-2.6639999999999997","0.0"],
    [1416558,"2026-06-15 03:50:00","54143","1.9909999999999999","257.8","4.345","281.9","1010.558","23.19","47.24","-2.674","0.0"],
    [1416559,"2026-06-15 04:00:00","54144","2.11","281.9","3.789","274.9","1010.4839999999999","22.9","47.86","-2.447","0.0"],
    [1416560,"2026-06-15 04:10:00","54145","2.009","273.7","4.083","287.1","1010.388","22.69","48.3","-1.584","0.0"],
    [1416561,"2026-06-15 04:20:00","54146","1.736","278.9","3.267","276.1","1010.36","22.79","47.96","1.272","0.0"],
    [1416562,"2026-06-15 04:30:00","54147","1.6230000000000002","285.0","2.777","297.3","1010.3660000000001","22.75","48.22","6.292999999999999","0.0"],
    [1416563,"2026-06-15 04:40:00","54148","2.026","299.7","3.855","309.2","1010.311","23.12","46.71","14.86","0.0"],
    [1416564,"2026-06-15 04:50:00","54149","1.126","292.9","2.319","288.5","1010.395","23.85","44.06","27.58","0.0"],
    [1416565,"2026-06-15 05:00:00","54150","1.008","287.3","2.091","318.4","1010.441","24.07","43.6","45.35","0.0"],
    [1416566,"2026-06-15 05:10:00","54151","1.945","290.4","3.071","291.1","1010.428","24.09","44.24","64.66","0.0"],
    [1416567,"2026-06-15 05:20:00","54152","2.545","294.3","4.671","298.7","1010.4910000000001","24.17","44.23","86.6","0.0"],
    [1416568,"2026-06-15 05:30:00","54153","2.739","296.7","4.769","302.2","1010.6289999999999","24.37","43.71","110.8","0.0"],
    [1416569,"2026-06-15 05:40:00","54154","2.488","288.0","4.541","298.2","1010.717","24.55","43.59","134.0","0.0"],
    [1416570,"2026-06-15 05:50:00","54155","1.9880000000000002","272.2","4.181","277.6","1010.7510000000001","24.56","44.18","157.3","0.0"],
    [1416571,"2026-06-15 06:00:00","54156","1.537","284.2","2.842","285.3","1010.8580000000001","24.78","44.32","191.8","0.0"],
    [1416572,"2026-06-15 06:10:00","54157","1.705","304.8","3.299","62.32","1010.992","25.2","43.99","220.6","0.0"],
    [1416573,"2026-06-15 06:20:00","54158","2.215","52.41","3.593","51.4","1011.02","25.32","48.64","251.5","0.0"],
    [1416574,"2026-06-15 06:30:00","54159","1.911","46.25","3.103","37.8","1011.082","26.02","46.08","281.0","0.0"],
    [1416575,"2026-06-15 06:40:00","54160","2.32","36.2","3.332","33.06","1011.069","26.29","44.13","312.8","0.0"],
    [1416576,"2026-06-15 06:50:00","54161","2.401","31.14","3.691","34.91","1011.076","26.6","40.95","348.0","0.0"],
    [1416577,"2026-06-15 07:00:00","54162","2.0780000000000003","49.98","3.495","63.52","1011.235","27.27","43.48","378.9","0.0"],
    [1416578,"2026-06-15 07:10:00","54163","3.2969999999999997","46.6","6.566","28.65","1011.299","27.72","40.81","412.4","0.0"],
    [1416579,"2026-06-15 07:20:00","54164","4.99","44.84","7.84","65.02","1011.315","27.37","42.51","445.8","0.0"],
    [1416580,"2026-06-15 07:30:00","54165","5.172000000000001","54.07","8.98","80.2","1011.336","26.22","54.16","479.7","0.0"],
    [1416581,"2026-06-15 07:40:00","54166","4.899","49.27","8.49","49.88","1011.5139999999999","25.85","57.64","509.3","0.0"],
    [1416582,"2026-06-15 07:50:00","54167","5.172000000000001","53.64","7.383","51.14","1011.676","26.12","53.58","541.4","0.0"],
    [1416583,"2026-06-15 08:00:00","54168","4.088","51.81","6.011","49.69","1011.669","27.0","46.49","570.6","0.0"],
    [1416584,"2026-06-15 08:10:00","54169","4.359","52.81","6.631","55.03","1011.6239999999999","27.69","41.98","598.6","0.0"],
    [1416585,"2026-06-15 08:20:00","54170","5.224","52.39","7.742","44.97","1011.597","27.51","41.7","625.5","0.0"],
    [1416586,"2026-06-15 08:30:00","54171","5.218999999999999","57.43","7.873","63.13","1011.694","27.31","44.28","660.3","0.0"],
    [1416587,"2026-06-15 08:40:00","54172","5.029","76.41","7.317","73.21","1011.7869999999999","27.2","46.64","656.6","0.0"],
    [1416588,"2026-06-15 08:50:00","54173","4.69","84.4","6.468","80.4","1011.905","27.39","45.39","720.1","0.0"],
    [1416589,"2026-06-15 09:00:00","54174","3.94","93.2","6.599","85.8","1012.044","27.25","45.61","714.5","0.0"],
    [1416590,"2026-06-15 09:10:00","54175","3.302","101.0","5.292","98.6","1012.2239999999999","27.1","47.27","732.6","0.0"],
    [1416591,"2026-06-15 09:20:00","54176","3.22","102.5","6.109","92.8","1012.3389999999999","26.68","47.43","679.3","0.0"],
    [1416592,"2026-06-15 09:30:00","54177","3.6069999999999998","97.7","6.533","81","1012.4939999999999","26.92","45.62","824.0","0.0"],
    [1416593,"2026-06-15 09:40:00","54178","3.343","99.0","5.684","94.1","1012.591","27.12","45.22","845.0","0.0"],
    [1416594,"2026-06-15 09:50:00","54179","3.565","98.7","6.305","104.2","1012.6360000000001","26.96","45.74","857.0","0.0"],
    [1416595,"2026-06-15 10:00:00","54180","2.415","111.2","4.965","86.9","1012.7719999999999","27.04","47.47","866.0","0.0"],
    [1416596,"2026-06-15 10:10:00","54181","1.883","111.2","4.541","103.4","1012.918","26.71","50.78","881.0","0.0"],
    [1416597,"2026-06-15 10:20:00","54182","1.123","105.4","4.541","76.46","1013.01","27.12","50.86","893.0","0.0"],
    [1416598,"2026-06-15 10:30:00","54183","1.182","114.3","3.528","74.6","1012.961","27.24","50.41","905.0","0.0"],
    [1416599,"2026-06-15 10:40:00","54184","1.028","125.9","2.973","150","1012.937","27.49","49.05","916.0","0.0"],
    [1416600,"2026-06-15 10:50:00","54185","1.632","134.5","5.096","120.8","1012.998","27.52","49.61","932.0","0.0"],
    [1416601,"2026-06-15 11:00:00","54186","1.2770000000000001","115.5","4.149","130.3","1013.0260000000001","27.51","49.09","943.0","0.0"],
    [1416602,"2026-06-15 11:10:00","54187","1.858","119.2","5.325","134","1013.039","27.71","47.07","950.0","0.0"],
    [1416603,"2026-06-15 11:20:00","54188","2.138","115.0","4.965","98.9","1013.188","27.36","49.38","955.0","0.0"],
    [1416604,"2026-06-15 11:30:00","54189","1.521","116.1","4.051","89.5","1013.2080000000001","27.73","47.63","955.0","0.0"],
    [1416605,"2026-06-15 11:40:00","54190","1.504","148.8","4.312","131.4","1013.23","27.82","44.42","959.0","0.0"],
    [1416606,"2026-06-15 11:50:00","54191","1.4969999999999999","166.8","3.593","154.7","1013.275","27.62","43.01","965.0","0.0"],
    [1416607,"2026-06-15 12:00:00","54192","2.0709999999999997","169.7","4.475","181.1","1013.305","27.89","40.59","950.0","0.0"],
    [1416608,"2026-06-15 12:10:00","54193","2.235","165.7","3.855","143.9","1013.305","27.14","39.92","969.0","0.0"],
    [1416609,"2026-06-15 12:20:00","54194","1.7990000000000002","162.1","5.129","144","1013.303","27.04","39.84","983.0","0.0"],
    [1416610,"2026-06-15 12:30:00","54195","1.955","142.4","4.835","166","1013.3689999999999","27.29","40.28","959.0","0.0"],
    [1416611,"2026-06-15 12:40:00","54196","2.792","157.8","6.239","164.3","1013.415","27.46","40.57","949.0","0.0"],
    [1416612,"2026-06-15 12:50:00","54197","1.242","147.3","4.508","95.5","1013.36","28.19","38.85","941.0","0.0"],
    [1416613,"2026-06-15 13:00:00","54198","1.17","158.0","3.495","111.6","1013.3589999999999","28.22","38.12","939.0","0.0"],
    [1416614,"2026-06-15 13:10:00","54199","1.561","151.5","3.985","169.1","1013.432","28.52","39.26","929.0","0.0"],
    [1416615,"2026-06-15 13:20:00","54200","2.8","187.3","5.096","154","1013.442","27.95","42.23","925.0","0.0"],
    [1416616,"2026-06-15 13:30:00","54201","2.7","186.3","4.933","223.3","1013.492","27.66","43.29","917.0","0.0"],
    [1416617,"2026-06-15 13:40:00","54202","1.4480000000000002","163.8","4.116","175","1013.48","28.3","39.97","914.0","0.0"],
    [1416618,"2026-06-15 13:50:00","54203","1.5190000000000001","135.2","4.312","138.4","1013.4830000000001","28.28","38.52","913.0","0.0"],
    [1416619,"2026-06-15 14:00:00","54204","1.829","148.5","4.475","193.7","1013.4680000000001","28.43","36.37","923.0","0.0"],
    [1416620,"2026-06-15 14:10:00","54205","1.881","116.6","4.279","165.1","1013.456","27.63","35.72","766.5","0.0"],
    [1416621,"2026-06-15 14:20:00","54206","1.45","105.1","3.169","131.3","1013.415","27.69","31.74","491.9","0.0"],
    [1416622,"2026-06-15 14:30:00","54207","1.139","169.8","3.757","118.8","1013.398","27.48","31.68","617.5","0.0"],
    [1416623,"2026-06-15 14:40:00","54208","1.8769999999999998","206.1","4.573","208.6","1013.331","28.02","36.93","725.5","0.0"],
    [1416624,"2026-06-15 14:50:00","54209","2.944","185.1","4.835","189.5","1013.245","27.93","37.27","744.2","0.0"],
    [1416625,"2026-06-15 15:00:00","54210","2.685","198.5","4.933","208.8","1013.202","27.89","37.78","786.8","0.0"],
    [1416626,"2026-06-15 15:10:00","54211","2.023","178.3","4.573","197.7","1013.095","27.62","38.66","565.0","0.0"],
    [1416627,"2026-06-15 15:20:00","54212","1.9469999999999998","193.2","3.659","188.8","1013.028","27.21","38.56","401.7","0.0"],
    [1416628,"2026-06-15 15:30:00","54213","1.548","182.1","4.214","149.7","1012.94","26.95","37.17","320.7","0.0"],
    [1416629,"2026-06-15 15:40:00","54214","1.739","177.5","3.953","205.8","1012.885","26.68","36.65","232.0","0.0"],
    [1416630,"2026-06-15 15:50:00","54215","1.7369999999999999","190.0","3.822","174.5","1012.918","26.36","37.49","222.0","0.0"],
    [1416631,"2026-06-15 16:00:00","54216","1.676","187.6","3.071","134.6","1012.905","26.46","38.83","216.2","0.0"],
    [1416632,"2026-06-15 16:10:00","54217","1.419","183.7","2.809","218.8","1012.938","26.25","37.86","214.9","0.0"],
    [1416633,"2026-06-15 16:20:00","54218","1.493","197.1","2.809","187.3","1012.8989999999999","26.56","36.92","260.7","0.0"],
    [1416634,"2026-06-15 16:30:00","54219","1.3769999999999998","199.0","2.711","216.1","1012.945","27.14","34.66","283.7","0.0"],
    [1416635,"2026-06-15 16:40:00","54220","1.426","216.5","2.581","190.5","1012.895","27.13","35.28","304.8","0.0"],
    [1416636,"2026-06-15 16:50:00","54221","1.567","219.0","3.299","180.6","1013.012","27.38","33.09","343.9","0.0"],
    [1416637,"2026-06-15 17:00:00","54222","1.16","201.2","2.875","215.6","1012.918","27.63","31.11","365.2","0.0"],
    [1416638,"2026-06-15 17:10:00","54223","1.73","195.4","4.9","160.2","1012.818","27.62","29.25","340.0","0.0"],
    [1416639,"2026-06-15 17:20:00","54224","1.5119999999999998","219.7","2.613","219.3","1012.8760000000001","27.95","27.99","334.1","0.0"],
    [1416640,"2026-06-15 17:30:00","54225","1.655","194.9","2.973","199.2","1012.836","28.08","28.15","339.0","0.0"],
    [1416641,"2026-06-15 17:40:00","54226","1.7480000000000002","191.5","3.495","223","1012.7589999999999","28.11","27.12","308.0","0.0"],
    [1416642,"2026-06-15 17:50:00","54227","1.996","217.7","3.495","218.8","1012.768","27.92","27.78","230.7","0.0"],
    [1416643,"2026-06-15 18:00:00","54228","1.765","195.0","3.691","155.2","1012.887","27.46","25.93","166.2","0.0"],
    [1416644,"2026-06-15 18:10:00","54229","1.724","199.1","3.267","179.2","1012.926","27.3","28.65","142.9","0.0"],
    [1416645,"2026-06-15 18:20:00","54230","1.7719999999999998","206.5","3.561","208.1","1012.937","26.96","31.4","92.0","0.0"],
    [1416646,"2026-06-15 18:30:00","54231","1.855","201.3","3.659","214.2","1012.946","26.77","33.89","68.85","0.0"],
    [1416647,"2026-06-15 18:40:00","54232","1.761","201.6","2.973","225.3","1013.013","26.6","33.68","51.03","0.0"],
    [1416648,"2026-06-15 18:50:00","54233","1.844","197.3","3.365","201.2","1013.0089999999999","26.29","34.71","32.14","0.0"],
    [1416649,"2026-06-15 19:00:00","54234","1.9980000000000002","217.6","3.463","218.9","1013.015","26.0","38.63","17.77","0.0"],
    [1416650,"2026-06-15 19:10:00","54235","1.6780000000000002","227.0","2.744","220.3","1013.08","25.85","39.42","10.67","0.0"],
    [1416651,"2026-06-15 19:20:00","54236","1.4480000000000002","235.1","2.156","233.1","1013.174","25.96","39.06","5.545","0.0"],
    [1416652,"2026-06-15 19:30:00","54237","1.5930000000000002","237.4","2.711","231.8","1013.148","25.87","37.68","0.23","0.0"],
    [1416653,"2026-06-15 19:40:00","54238","1.723","214.9","3.136","211.1","1013.005","25.99","36.28","-1.76","0.0"],
    [1416654,"2026-06-15 19:50:00","54239","1.891","215.4","3.332","218.3","1013.102","25.51","42.14","-2.497","0.0"],
    [1416655,"2026-06-15 20:00:00","54240","2.127","211.3","3.659","228.1","1013.2130000000001","25.15","41.26","-2.875","0.0"],
    [1416656,"2026-06-15 20:10:00","54241","2.336","217.8","3.561","217.3","1013.308","25.07","40.19","-2.9610000000000003","0.0"],
    [1416657,"2026-06-15 20:20:00","54242","2.329","224.8","3.561","236.7","1013.492","25.27","38.97","-3.3080000000000003","0.0"],
    [1416658,"2026-06-15 20:30:00","54243","1.5519999999999998","229.3","2.679","248.9","1013.7239999999999","24.99","40.3","-3.238","0.0"],
    [1416659,"2026-06-15 20:40:00","54244","0.8759999999999999","238.2","2.025","236","1013.873","24.73","41.29","-3.373","0.0"],
    [1416660,"2026-06-15 20:50:00","54245","0.741","250.3","1.829","208.1","1013.966","24.58","40.89","-3.6319999999999997","0.0"],
    [1416661,"2026-06-15 21:00:00","54246","0.8340000000000001","234.0","1.568","230.3","1013.99","24.78","40.34","-2.889","0.0"],
    [1416662,"2026-06-15 21:10:00","54247","1.182","240.0","1.797","215","1014.0010000000001","24.9","40.31","-2.6010000000000004","0.0"],
    [1416663,"2026-06-15 21:20:00","54248","0.243","257.1","0.849","258.2","1013.998","24.93","40.27","-2.555","0.0"],
    [1416664,"2026-06-15 21:30:00","54249","0.795","261.3","1.405","270.6","1014.044","24.7","41.42","-2.602","0.0"],
    [1416665,"2026-06-15 21:40:00","54250","0.654","273.0","1.307","267.5","1014.065","24.89","40.16","-2.6039999999999996","0.0"],
    [1416666,"2026-06-15 21:50:00","54251","0.8859999999999999","272.5","1.339","274.9","1013.988","24.53","41.07","-2.9410000000000003","0.0"],
    [1416667,"2026-06-15 22:00:00","54252","0.9690000000000001","277.7","1.699","268.6","1013.929","24.71","41.18","-2.761","0.0"],
    [1416668,"2026-06-15 22:10:00","54253","0.855","263.5","1.503","281.4","1013.953","24.19","42.28","-2.966","0.0"],
    [1416669,"2026-06-15 22:20:00","54254","1.087","279.0","1.666","279.2","1013.9889999999999","24.42","40.01","-2.7769999999999997","0.0"],
    [1416670,"2026-06-15 22:30:00","54255","1.6119999999999999","276.3","2.581","270.2","1013.953","24.26","39.75","-2.9989999999999997","0.0"],
    [1416671,"2026-06-15 22:40:00","54256","1.8619999999999999","264.7","3.038","265.7","1013.94","24.35","38.69","-3.3480000000000003","0.0"],
    [1416672,"2026-06-15 22:50:00","54257","1.5619999999999998","276.1","2.613","278.6","1013.988","24.29","38.65","-3.057","0.0"],
    [1416673,"2026-06-15 23:00:00","54258","1.82","278.6","3.234","285","1013.957","23.93","39.26","-3.091","0.0"],
    [1416674,"2026-06-15 23:10:00","54259","1.765","274.8","2.777","261.4","1013.9010000000001","23.61","39.54","-2.697","0.0"],
    [1416675,"2026-06-15 23:20:00","54260","1.252","288.1","2.581","278.5","1013.857","23.28","40.11","-2.9560000000000004","0.0"],
    [1416676,"2026-06-15 23:30:00","54261","2.0909999999999997","296.7","5.586","313.4","1013.7689999999999","23.29","39.42","-3.437","0.0"],
    [1416677,"2026-06-15 23:40:00","54262","2.705","294.4","4.639","314.2","1013.73","24.29","35.79","-3.469","0.0"],
    [1416678,"2026-06-15 23:50:00","54263","2.249","296.0","3.724","320.6","1013.716","24.39","34.8","-3.195","0.0"],
    [1416679,"2026-06-16 00:00:00","54264","2.201","277.5","3.724","270.5","1013.693","24.47","34.26","-2.9810000000000003","0.0"],
    [1416680,"2026-06-16 00:10:00","54265","2.523","289.1","4.083","285.1","1013.683","24.2","34.41","-2.932","0.0"],
    [1416681,"2026-06-16 00:20:00","54266","2.898","292.6","5.063","303.4","1013.6460000000001","24.29","33.65","-2.9739999999999998","0.0"],
    [1416682,"2026-06-16 00:30:00","54267","2.835","298.5","4.639","292.8","1013.6030000000001","24.43","32.92","-2.891","0.0"],
    [1416683,"2026-06-16 00:40:00","54268","2.168","297.7","3.92","310.4","1013.551","24.53","32.46","-3.025","0.0"],
    [1416684,"2026-06-16 00:50:00","54269","2.211","297.4","4.443","317.4","1013.5419999999999","24.43","32.92","-3.216","0.0"],
    [1416685,"2026-06-16 01:00:00","54270","2.246","297.1","3.92","310.3","1013.564","24.43","33.57","-3.04","0.0"],
    [1416686,"2026-06-16 01:10:00","54271","2.7089999999999996","304.1","4.377","313.3","1013.508","24.55","34.14","-3.347","0.0"],
    [1416687,"2026-06-16 01:20:00","54272","1.797","295.1","2.907","307.2","1013.573","24.51","34.71","-3.1719999999999997","0.0"],
    [1416688,"2026-06-16 01:30:00","54273","1.735","289.3","3.495","297.4","1013.6030000000001","24.36","35.85","-3.283","0.0"],
    [1416689,"2026-06-16 01:40:00","54274","1.25","278.9","2.254","280.5","1013.5830000000001","24.11","37.2","-3.39","0.0"],
    [1416690,"2026-06-16 01:50:00","54275","1.666","269.9","2.777","274.2","1013.586","24.28","37.66","-3.2","0.0"],
    [1416691,"2026-06-16 02:00:00","54276","1.839","265.4","2.809","255.4","1013.6039999999999","24.27","38.31","-3.0060000000000002","0.0"],
    [1416692,"2026-06-16 02:10:00","54277","2.198","280.3","3.724","284.6","1013.6339999999999","24.15","38.82","-2.845","0.0"],
    [1416693,"2026-06-16 02:20:00","54278","1.7590000000000001","282.4","3.234","282.5","1013.645","23.81","40.32","-2.721","0.0"],
    [1416694,"2026-06-16 02:30:00","54279","1.504","283.9","2.875","316.2","1013.683","23.42","41.64","-3.279","0.0"],
    [1416695,"2026-06-16 02:40:00","54280","1.595","289.1","3.463","293","1013.7339999999999","23.39","42.16","-3.035","0.0"],
    [1416696,"2026-06-16 02:50:00","54281","1.72","284.6","3.822","300.2","1013.68","23.39","42.54","-3.071","0.0"],
    [1416697,"2026-06-16 03:00:00","54282","1.6909999999999998","282.0","2.515","300.1","1013.627","23.27","43.29","-2.855","0.0"],
    [1416698,"2026-06-16 03:10:00","54283","1.3630000000000002","272.0","2.287","258.7","1013.7189999999999","23.15","43.86","-2.79","0.0"],
    [1416699,"2026-06-16 03:20:00","54284","1.391","282.5","2.385","272.1","1013.828","23.0","44.11","-2.8369999999999997","0.0"],
    [1416700,"2026-06-16 03:30:00","54285","1.469","287.4","2.613","293.3","1013.91","22.71","45.1","-2.795","0.0"],
    [1416701,"2026-06-16 03:40:00","54286","1.058","292.8","2.058","269.8","1014.063","22.45","46.04","-3.122","0.0"],
    [1416702,"2026-06-16 03:50:00","54287","1.6380000000000001","292.3","2.548","307","1014.0939999999999","22.49","46.28","-3.022","0.0"],
    [1416703,"2026-06-16 04:00:00","54288","1.6369999999999998","294.4","2.94","299.1","1014.2","22.34","47.0","-2.673","0.0"],
    [1416704,"2026-06-16 04:10:00","54289","1.6","303.8","2.744","318","1014.273","22.39","46.64","-1.9069999999999998","0.0"],
    [1416705,"2026-06-16 04:20:00","54290","1.568","289.3","2.646","303.9","1014.423","22.52","46.12","1.155","0.0"],
    [1416706,"2026-06-16 04:30:00","54291","1.69","263.3","2.842","238.5","1014.5930000000001","22.49","46.35","6.769","0.0"],
    [1416707,"2026-06-16 04:40:00","54292","1.6769999999999998","264.3","2.809","260.1","1014.7389999999999","22.27","47.95","16.97","0.0"],
    [1416708,"2026-06-16 04:50:00","54293","2.021","288.3","3.659","293.7","1014.7669999999999","22.14","48.26","32.21","0.0"],
    [1416709,"2026-06-16 05:00:00","54294","1.939","285.1","3.528","283.6","1014.836","22.45","47.56","51.43","0.0"],
    [1416710,"2026-06-16 05:10:00","54295","1.6059999999999999","289.4","3.071","291.7","1014.799","22.81","46.93","71.63","0.0"],
    [1416711,"2026-06-16 05:20:00","54296","2.1319999999999997","293.6","3.528","296.5","1014.821","23.09","46.29","93.5","0.0"],
    [1416712,"2026-06-16 05:30:00","54297","2.719","290.6","4.116","300.9","1014.943","23.18","45.88","118.9","0.0"],
    [1416713,"2026-06-16 05:40:00","54298","2.32","289.8","3.561","296.6","1015.0269999999999","23.27","46.21","143.3","0.0"],
    [1416714,"2026-06-16 05:50:00","54299","2.645","290.6","4.018","308.7","1015.2239999999999","23.56","44.94","163.2","0.0"],
    [1416715,"2026-06-16 06:00:00","54300","1.986","290.8","3.103","296.2","1015.4069999999999","23.99","43.78","202.5","0.0"],
    [1416716,"2026-06-16 06:10:00","54301","2.8169999999999997","292.8","3.953","297.9","1015.579","24.33","42.67","233.5","0.0"],
    [1416717,"2026-06-16 06:20:00","54302","2.45","302.3","3.299","289.1","1015.717","24.58","42.12","263.0","0.0"],
    [1416718,"2026-06-16 06:30:00","54303","2.394","301.6","3.332","303.6","1015.816","25.17","39.99","293.8","0.0"],
    [1416719,"2026-06-16 06:40:00","54304","1.589","298.2","2.581","306.1","1015.925","25.77","38.56","326.9","0.0"],
    [1416720,"2026-06-16 06:50:00","54305","2.1180000000000003","292.4","2.777","297.8","1016.039","26.2","37.43","358.5","0.0"],
    [1416721,"2026-06-16 07:00:00","54306","1.889","278.3","2.744","274.9","1016.203","26.35","38.01","388.8","0.0"],
    [1416722,"2026-06-16 07:10:00","54307","2.024","289.8","2.777","287.6","1016.2510000000001","26.68","37.43","422.0","0.0"],
    [1416723,"2026-06-16 07:20:00","54308","1.829","291.6","2.646","280.1","1016.34","27.08","36.1","453.3","0.0"],
    [1416724,"2026-06-16 07:30:00","54309","1.287","287.0","2.352","278.3","1016.3839999999999","27.61","34.29","484.9","0.0"],
    [1416725,"2026-06-16 07:40:00","54310","0.415","288.2","1.339","342.3","1016.434","28.7","32.89","511.9","0.0"],
    [1416726,"2026-06-16 07:50:00","54311","1.067","64.33","2.744","91.7","1016.5310000000001","29.56","30.47","545.6","0.0"],
    [1416727,"2026-06-16 08:00:00","54312","2.2769999999999997","83.3","4.116","92.6","1016.6","29.59","27.88","579.5","0.0"],
    [1416728,"2026-06-16 08:10:00","54313","2.082","72.65","3.103","60.49","1016.595","29.58","27.8","606.8","0.0"],
    [1416729,"2026-06-16 08:20:00","54314","1.983","80.4","3.463","70.32","1016.6239999999999","29.65","27.47","636.1","0.0"],
    [1416730,"2026-06-16 08:30:00","54315","1.89","85.9","4.149","86.8","1016.665","29.57","27.73","661.5","0.0"],
    [1416731,"2026-06-16 08:40:00","54316","1.954","83.3","3.528","61.63","1016.669","29.72","27.63","654.1","0.0"],
    [1416732,"2026-06-16 08:50:00","54317","1.712","85.5","3.953","90.8","1016.7260000000001","29.56","27.93","714.8","0.0"],
    [1416733,"2026-06-16 09:00:00","54318","1.3459999999999999","101.6","3.528","76.82","1016.815","29.97","27.47","704.7","0.0"],
    [1416734,"2026-06-16 09:10:00","54319","1.992","94.0","4.051","92.3","1016.8389999999999","29.7","27.88","763.8","0.0"],
    [1416735,"2026-06-16 09:20:00","54320","1.703","95.7","3.757","88.2","1016.88","29.31","28.84","786.2","0.0"],
    [1416736,"2026-06-16 09:30:00","54321","1.76","98.1","3.659","96.5","1016.9760000000001","29.35","28.9","806.0","0.0"],
    [1416737,"2026-06-16 09:40:00","54322","1.689","93.8","3.005","86.2","1017.035","29.5","28.91","825.0","0.0"],
    [1416738,"2026-06-16 09:50:00","54323","2.0269999999999997","98.7","3.495","84.5","1017.1489999999999","29.52","28.91","846.0","0.0"],
    [1416739,"2026-06-16 10:00:00","54324","2.144","89.9","3.626","66.14","1017.2610000000001","29.16","29.67","863.0","0.0"],
    [1416740,"2026-06-16 10:10:00","54325","2.311","82.5","4.149","79.88","1017.3539999999999","29.32","29.36","878.0","0.0"],
    [1416741,"2026-06-16 10:20:00","54326","2.862","86.6","4.247","92.2","1017.4069999999999","29.17","29.52","896.0","0.0"],
    [1416742,"2026-06-16 10:30:00","54327","2.965","76.95","4.475","82.5","1017.488","29.0","30.0","909.0","0.0"],
    [1416743,"2026-06-16 10:40:00","54328","3.299","90.7","4.933","83.7","1017.605","28.85","30.46","920.0","0.0"],
    [1416744,"2026-06-16 10:50:00","54329","2.162","99.5","4.247","75.61","1017.711","29.17","30.88","931.0","0.0"],
    [1416745,"2026-06-16 11:00:00","54330","2.298","98.2","4.247","95.4","1017.7510000000001","29.26","31.22","939.0","0.0"],
    [1416746,"2026-06-16 11:10:00","54331","2.083","102.9","4.345","99.8","1017.778","29.38","31.26","948.0","0.0"],
    [1416747,"2026-06-16 11:20:00","54332","2.654","102.5","4.835","97.1","1017.794","28.91","31.68","955.0","0.0"],
    [1416748,"2026-06-16 11:30:00","54333","1.6780000000000002","109.9","3.365","120","1017.806","29.05","32.32","958.0","0.0"],
    [1416749,"2026-06-16 11:40:00","54334","1.896","100.3","4.671","82.3","1017.814","29.21","32.03","961.0","0.0"],
    [1416750,"2026-06-16 11:50:00","54335","2.47","98.1","4.443","83","1017.7919999999999","29.34","31.87","964.0","0.0"],
    [1416751,"2026-06-16 12:00:00","54336","2.136","108.2","4.443","110.4","1017.7539999999999","28.87","33.54","965.0","0.0"],
    [1416752,"2026-06-16 12:10:00","54337","2.323","103.6","4.377","102","1017.679","29.11","34.0","964.0","0.0"],
    [1416753,"2026-06-16 12:20:00","54338","2.5469999999999997","106.6","4.508","114.4","1017.7189999999999","28.69","35.95","960.0","0.0"],
    [1416754,"2026-06-16 12:30:00","54339","1.7530000000000001","106.1","4.377","116.5","1017.737","29.0","37.65","956.0","0.0"],
    [1416755,"2026-06-16 12:40:00","54340","2.3369999999999997","106.1","4.475","116.1","1017.7439999999999","28.46","37.99","952.0","0.0"],
    [1416756,"2026-06-16 12:50:00","54341","2.801","98.7","4.835","84.5","1017.748","28.22","40.48","945.0","0.0"],
    [1416757,"2026-06-16 13:00:00","54342","2.182","106.9","3.822","120.3","1017.78","28.56","42.54","937.0","0.0"],
    [1416758,"2026-06-16 13:10:00","54343","3.017","107.4","4.508","119.2","1017.816","27.99","41.78","928.0","0.0"],
    [1416759,"2026-06-16 13:20:00","54344","2.43","112.4","4.541","115.2","1017.804","28.04","40.13","917.0","0.0"],
    [1416760,"2026-06-16 13:30:00","54345","2.78","105.3","5.129","107.1","1017.832","28.4","38.0","895.0","0.0"],
    [1416761,"2026-06-16 13:40:00","54346","3.202","96.2","4.639","88.1","1017.823","27.58","39.68","892.0","0.0"],
    [1416762,"2026-06-16 13:50:00","54347","2.9189999999999996","107.1","4.606","80.2","1017.797","27.68","38.34","875.0","0.0"],
    [1416763,"2026-06-16 14:00:00","54348","2.592","101.5","4.279","93.7","1017.7739999999999","28.32","41.02","858.0","0.0"],
    [1416764,"2026-06-16 14:10:00","54349","3.486","89.7","5.096","85.2","1017.716","27.46","45.85","841.0","0.0"],
    [1416765,"2026-06-16 14:20:00","54350","3.142","91.4","4.443","86.6","1017.677","27.46","47.89","818.0","0.0"],
    [1416766,"2026-06-16 14:30:00","54351","3.471","87.3","4.867","86.7","1017.633","27.16","48.42","797.6","0.0"],
    [1416767,"2026-06-16 14:40:00","54352","3.431","81.4","5.194","73.7","1017.551","27.47","50.03","771.9","0.0"],
    [1416768,"2026-06-16 14:50:00","54353","3.3939999999999997","83.8","4.802","87","1017.43","27.13","51.87","751.1","0.0"],
    [1416769,"2026-06-16 15:00:00","54354","3.09","91.7","5.586","79.5","1017.372","27.1","48.28","725.8","0.0"],
    [1416770,"2026-06-16 15:10:00","54355","2.698","92.6","4.345","78.37","1017.3889999999999","27.28","49.51","694.2","0.0"],
    [1416771,"2026-06-16 15:20:00","54356","3.498","86.1","5.063","85.5","1017.441","27.13","51.14","632.2","0.0"],
    [1416772,"2026-06-16 15:30:00","54357","3.264","87.1","4.737","104.3","1017.563","27.02","51.88","646.0","0.0"],
    [1416773,"2026-06-16 15:40:00","54358","3.262","81.3","5.227","80.7","1017.633","26.84","54.79","589.2","0.0"],
    [1416774,"2026-06-16 15:50:00","54359","3.3560000000000003","77.7","4.443","88.3","1017.668","26.54","56.9","584.4","0.0"],
    [1416775,"2026-06-16 16:00:00","54360","3.7289999999999996","83.3","5.161","94.8","1017.702","26.37","57.61","562.9","0.0"],
    [1416776,"2026-06-16 16:10:00","54361","3.9419999999999997","73.63","5.161","71.06","1017.687","26.12","57.35","534.6","0.0"],
    [1416777,"2026-06-16 16:20:00","54362","3.758","74.86","5.161","80.6","1017.591","25.86","59.54","503.5","0.0"],
    [1416778,"2026-06-16 16:30:00","54363","3.4139999999999997","71.01","4.671","76.62","1017.562","26.04","57.32","471.6","0.0"],
    [1416779,"2026-06-16 16:40:00","54364","3.4410000000000003","75.09","4.573","75.24","1017.5880000000001","25.78","59.64","440.7","0.0"],
    [1416780,"2026-06-16 16:50:00","54365","3.187","71.29","4.41","65.21","1017.605","25.57","58.87","411.2","0.0"],
    [1416781,"2026-06-16 17:00:00","54366","3.448","66.92","4.965","58.55","1017.643","25.53","59.04","319.2","0.0"],
    [1416782,"2026-06-16 17:10:00","54367","2.985","79.65","4.116","81.4","1017.6189999999999","25.38","59.52","289.5","0.0"],
    [1416783,"2026-06-16 17:20:00","54368","3.054","79.09","4.312","83.6","1017.676","25.22","59.01","316.2","0.0"],
    [1416784,"2026-06-16 17:30:00","54369","3.114","75.03","4.312","78.18","1017.664","25.41","58.3","271.0","0.0"],
    [1416785,"2026-06-16 17:40:00","54370","3.13","69.7","4.181","80.4","1017.77","25.15","60.09","185.0","0.0"],
    [1416786,"2026-06-16 17:50:00","54371","2.7510000000000003","71.65","3.789","74.7","1017.8810000000001","25.27","57.38","218.5","0.0"],
    [1416787,"2026-06-16 18:00:00","54372","2.967","70.4","4.083","81.9","1017.903","25.24","56.87","147.2","0.0"],
    [1416788,"2026-06-16 18:10:00","54373","2.97","58.66","4.247","44.7","1017.96","25.19","56.36","136.4","0.0"],
    [1416789,"2026-06-16 18:20:00","54374","3.322","59.92","4.443","47.43","1018.04","25.23","51.4","107.3","0.0"],
    [1416790,"2026-06-16 18:30:00","54375","2.541","68.6","3.724","74.06","1018.025","25.32","52.67","100.0","0.0"],
    [1416791,"2026-06-16 18:40:00","54376","2.801","61.17","3.691","63.35","1018.1010000000001","25.06","54.67","76.67","0.0"],
    [1416792,"2026-06-16 18:50:00","54377","1.996","64.13","3.234","58.56","1017.988","24.98","53.57","51.04","0.0"],
    [1416793,"2026-06-16 19:00:00","54378","1.974","66.54","2.711","66.37","1017.928","24.94","54.2","30.29","0.0"],
    [1416794,"2026-06-16 19:10:00","54379","1.421","68.89","1.927","74.98","1017.935","24.59","57.73","19.48","0.0"],
    [1416795,"2026-06-16 19:20:00","54380","1.044","72.39","1.372","95.2","1018.0260000000001","24.36","58.75","8.49","0.0"],
    [1416796,"2026-06-16 19:30:00","54381","1.149","81.5","1.372","95.1","1018.005","24.38","57.32","1.979","0.0"],
    [1416797,"2026-06-16 19:40:00","54382","1.285","79.25","1.601","80.3","1018.0419999999999","24.12","58.47","-1.3980000000000001","0.0"],
    [1416798,"2026-06-16 19:50:00","54383","1.328","74.94","1.797","68.15","1018.028","23.89","59.5","-2.883","0.0"],
    [1416799,"2026-06-16 20:00:00","54384","1.075","66.78","1.764","58.43","1018.09","23.77","59.73","-3.338","0.0"],
    [1416800,"2026-06-16 20:10:00","54385","0.213","96.5","0.719","82.3","1018.0830000000001","23.74","57.98","-3.4210000000000003","0.0"],
    [1416801,"2026-06-16 20:20:00","54386","0.32299999999999995","70.95","1.078","62.3","1018.1239999999999","23.95","54.34","-3.353","0.0"],
    [1416802,"2026-06-16 20:30:00","54387","0.6579999999999999","64.32","1.437","60.06","1018.1080000000001","23.74","55.72","-3.418","0.0"],
    [1416803,"2026-06-16 20:40:00","54388","1.133","62.95","1.568","59.87","1018.159","23.56","56.33","-3.391","0.0"],
    [1416804,"2026-06-16 20:50:00","54389","0.11900000000000001","74.25","0.915","81.2","1018.199","23.52","58.47","-3.364","0.0"],
    [1416805,"2026-06-16 21:00:00","54390","0.184","81.3","0.686","84.5","1018.193","23.5","59.53","-3.3339999999999996","0.0"],
    [1416806,"2026-06-16 21:10:00","54391","0.0","84.2","0.033","84.3","1018.2289999999999","23.67","57.42","-3.108","0.0"],
    [1416807,"2026-06-16 21:20:00","54392","0.0","0.0","0","0","1018.143","23.41","56.6","-2.948","0.0"],
    [1416808,"2026-06-16 21:30:00","54393","0.0","0.0","0","0","1018.0989999999999","23.55","55.15","-2.655","0.0"],
    [1416809,"2026-06-16 21:40:00","54394","0.34299999999999997","230.9","1.176","241","1018.155","23.58","50.23","-2.911","0.0"],
    [1416810,"2026-06-16 21:50:00","54395","0.779","238.4","1.307","233.7","1018.2819999999999","24.32","47.83","-3.0269999999999997","0.0"],
    [1416811,"2026-06-16 22:00:00","54396","1.013","244.1","1.633","226.7","1018.418","23.98","46.74","-3.083","0.0"],
    [1416812,"2026-06-16 22:10:00","54397","1.271","237.3","1.633","224.5","1018.508","24.23","44.51","-3.1260000000000003","0.0"],
    [1416813,"2026-06-16 22:20:00","54398","0.573","264.7","1.339","245.1","1018.5310000000001","23.98","45.18","-3.245","0.0"],
    [1416814,"2026-06-16 22:30:00","54399","1.068","266.1","2.091","266.1","1018.564","23.58","46.77","-3.3930000000000002","0.0"],
    [1416815,"2026-06-16 22:40:00","54400","0.721","264.1","1.666","254.7","1018.5939999999999","23.59","47.36","-3.18","0.0"],
    [1416816,"2026-06-16 22:50:00","54401","0.877","286.7","1.437","289.3","1018.515","23.22","49.44","-3.392","0.0"],
    [1416817,"2026-06-16 23:00:00","54402","0.8290000000000001","289.8","1.307","309.5","1018.461","22.79","51.34","-3.409","0.0"],
    [1416818,"2026-06-16 23:10:00","54403","0.415","314.5","1.111","301.8","1018.439","22.55","52.48","-3.358","0.0"],
    [1416819,"2026-06-16 23:20:00","54404","0.46799999999999997","304.6","0.947","301.6","1018.432","22.21","52.78","-2.7260000000000004","0.0"],
    [1416820,"2026-06-16 23:30:00","54405","1.102","238.0","1.862","246.5","1018.4689999999999","23.17","49.17","-3.194","0.0"],
    [1416821,"2026-06-16 23:40:00","54406","1.453","235.0","2.058","220.9","1018.515","23.74","46.6","-2.8489999999999998","0.0"],
    [1416822,"2026-06-16 23:50:00","54407","1.159","250.1","2.646","267.8","1018.581","23.19","48.06","-2.747","0.0"],
    [1416823,"2026-06-17 00:00:00","54408","1.453","284.1","2.515","291.7","1018.584","22.51","49.86","-2.7939999999999996","0.0"],
    [1416824,"2026-06-17 00:10:00","54409","1.3869999999999998","273.0","2.319","276.9","1018.59","21.99","51.62","-2.707","0.0"],
    [1416825,"2026-06-17 00:20:00","54410","0.887","268.2","1.96","287.7","1018.6010000000001","21.63","53.13","-2.8739999999999997","0.0"],
    [1416826,"2026-06-17 00:30:00","54411","1.057","276.5","2.45","278.3","1018.5930000000001","21.6","53.49","-2.813","0.0"],
    [1416827,"2026-06-17 00:40:00","54412","1.382","286.0","3.136","293.1","1018.6060000000001","21.56","53.62","-3.2239999999999998","0.0"],
    [1416828,"2026-06-17 00:50:00","54413","1.455","278.9","2.907","273.1","1018.591","22.06","51.81","-2.806","0.0"],
    [1416829,"2026-06-17 01:00:00","54414","1.17","254.4","2.875","242","1018.6060000000001","21.81","52.57","-2.877","0.0"],
    [1416830,"2026-06-17 01:10:00","54415","1.2429999999999999","245.9","2.809","274","1018.673","22.17","50.7","-2.8760000000000003","0.0"],
    [1416831,"2026-06-17 01:20:00","54416","1.256","237.7","2.025","244.3","1018.757","22.41","49.03","-2.739","0.0"],
    [1416832,"2026-06-17 01:30:00","54417","1.44","238.5","2.352","251.5","1018.7869999999999","22.34","49.87","-2.73","0.0"],
    [1416833,"2026-06-17 01:40:00","54418","1.114","264.9","1.895","268.7","1018.715","22.02","51.8","-2.753","0.0"],
    [1416834,"2026-06-17 01:50:00","54419","0.973","249.3","2.319","261.9","1018.6489999999999","21.76","52.35","-2.9219999999999997","0.0"],
    [1416835,"2026-06-17 02:00:00","54420","1.031","254.7","2.385","266.6","1018.613","21.59","53.03","-2.94","0.0"],
    [1416836,"2026-06-17 02:10:00","54421","1.167","269.6","2.123","279.5","1018.61","21.17","54.52","-2.937","0.0"],
    [1416837,"2026-06-17 02:20:00","54422","1.179","276.2","2.254","263.8","1018.56","20.94","55.59","-2.733","0.0"],
    [1416838,"2026-06-17 02:30:00","54423","1.107","271.8","1.862","290.2","1018.424","20.77","56.39","-2.884","0.0"],
    [1416839,"2026-06-17 02:40:00","54424","1.113","265.5","2.156","254.3","1018.337","21.05","55.03","-2.761","0.0"],
    [1416840,"2026-06-17 02:50:00","54425","1.169","265.1","2.287","267.6","1018.2260000000001","21.14","54.74","-2.6910000000000003","0.0"],
    [1416841,"2026-06-17 03:00:00","54426","1.6669999999999998","277.4","2.809","271.2","1018.052","21.01","55.16","-2.6639999999999997","0.0"],
    [1416842,"2026-06-17 03:10:00","54427","1.8","280.7","2.907","286.4","1017.8919999999999","20.81","55.51","-2.69","0.0"],
    [1416843,"2026-06-17 03:20:00","54428","2.0069999999999997","274.6","2.973","276.1","1017.7639999999999","20.74","55.96","-2.6630000000000003","0.0"],
    [1416844,"2026-06-17 03:30:00","54429","1.8330000000000002","267.0","2.907","272.3","1017.717","20.84","55.83","-2.66","0.0"],
    [1416845,"2026-06-17 03:40:00","54430","1.919","268.7","3.169","260.1","1017.697","20.77","56.25","-2.66","0.0"],
    [1416846,"2026-06-17 03:50:00","54431","1.7","266.9","2.777","258.5","1017.7260000000001","20.79","56.03","-2.661","0.0"],
    [1416847,"2026-06-17 04:00:00","54432","1.535","261.2","2.352","267.4","1017.796","20.84","55.64","-2.583","0.0"],
    [1416848,"2026-06-17 04:10:00","54433","1.345","282.6","2.254","289.7","1017.826","20.89","55.35","-1.496","0.0"],
    [1416849,"2026-06-17 04:20:00","54434","0.626","285.3","1.666","286.4","1017.821","20.71","56.04","0.8079999999999999","0.0"],
    [1416850,"2026-06-17 04:30:00","54435","1.107","283.7","1.862","293.3","1017.904","21.14","54.5","5.735","0.0"],
    [1416851,"2026-06-17 04:40:00","54436","0.868","272.6","1.339","268.7","1018.028","21.17","54.55","15.7","0.0"],
    [1416852,"2026-06-17 04:50:00","54437","0.8170000000000001","279.8","1.535","290.2","1018.08","21.39","54.03","30.61","0.0"],
    [1416853,"2026-06-17 05:00:00","54438","1.2770000000000001","295.0","1.797","294.4","1017.982","21.18","55.61","49.46","0.0"],
    [1416854,"2026-06-17 05:10:00","54439","1.337","292.4","2.123","302.9","1018.0210000000001","21.65","54.08","68.33","0.0"],
    [1416855,"2026-06-17 05:20:00","54440","1.4340000000000002","272.8","2.189","282.6","1018.1010000000001","22.11","52.65","89.6","0.0"],
    [1416856,"2026-06-17 05:30:00","54441","1.881","270.9","3.005","262.7","1018.293","22.35","52.21","113.6","0.0"],
    [1416857,"2026-06-17 05:40:00","54442","1.913","285.8","3.071","303.5","1018.39","22.36","52.42","139.3","0.0"],
    [1416858,"2026-06-17 05:50:00","54443","1.876","303.4","3.169","308.5","1018.38","22.78","51.17","157.8","0.0"],
    [1416859,"2026-06-17 06:00:00","54444","2.063","298.0","3.071","300.7","1018.51","23.52","48.85","200.6","0.0"],
    [1416860,"2026-06-17 06:10:00","54445","1.97","302.4","3.169","298.1","1018.505","24.02","47.4","232.5","0.0"],
    [1416861,"2026-06-17 06:20:00","54446","1.9709999999999999","300.9","3.234","308","1018.551","24.4","46.35","264.9","0.0"],
    [1416862,"2026-06-17 06:30:00","54447","1.685","304.1","2.254","306.3","1018.653","25.17","44.68","296.3","0.0"],
    [1416863,"2026-06-17 06:40:00","54448","1.256","343.6","1.829","309.4","1018.673","25.52","43.29","326.9","0.0"],
    [1416864,"2026-06-17 06:50:00","54449","2.418","59.83","3.365","64.21","1018.65","25.77","43.74","359.2","0.0"],
    [1416865,"2026-06-17 07:00:00","54450","2.1319999999999997","84.8","3.659","91.9","1018.76","25.25","51.08","393.0","0.0"],
    [1416866,"2026-06-17 07:10:00","54451","1.423","84.1","2.058","84.9","1018.7869999999999","25.64","49.13","424.4","0.0"],
    [1416867,"2026-06-17 07:20:00","54452","1.052","103.7","3.005","156.7","1018.935","26.04","47.5","456.1","0.0"],
    [1416868,"2026-06-17 07:30:00","54453","1.952","82.4","3.855","64.05","1018.941","26.16","43.89","489.4","0.0"],
    [1416869,"2026-06-17 07:40:00","54454","2.8789999999999996","81.6","3.626","80.5","1018.905","26.14","43.86","522.3","0.0"],
    [1416870,"2026-06-17 07:50:00","54455","2.525","85.4","3.561","74.71","1018.8789999999999","26.23","43.12","552.2","0.0"],
    [1416871,"2026-06-17 08:00:00","54456","2.309","80.1","3.169","80.8","1018.888","26.52","42.95","579.7","0.0"],
    [1416872,"2026-06-17 08:10:00","54457","1.9380000000000002","88.8","2.679","84.4","1018.937","26.85","43.78","607.3","0.0"],
    [1416873,"2026-06-17 08:20:00","54458","1.4080000000000001","95.1","2.646","80.3","1019.052","27.41","43.87","629.5","0.0"],
    [1416874,"2026-06-17 08:30:00","54459","2.012","93.7","3.038","69.14","1019.112","27.24","43.23","662.2","0.0"],
    [1416875,"2026-06-17 08:40:00","54460","2.024","98.3","3.005","108.6","1019.21","27.13","44.29","651.9","0.0"],
    [1416876,"2026-06-17 08:50:00","54461","2.657","92.1","4.443","92.6","1019.245","26.9","49.2","714.4","0.0"],
    [1416877,"2026-06-17 09:00:00","54462","2.8139999999999996","93.6","4.051","85.9","1019.322","26.31","52.27","705.2","0.0"],
    [1416878,"2026-06-17 09:10:00","54463","3.279","92.7","4.606","79.31","1019.3839999999999","26.47","48.23","763.8","0.0"],
    [1416879,"2026-06-17 09:20:00","54464","2.6830000000000003","102.2","4.247","95.1","1019.535","26.49","51.4","785.0","0.0"],
    [1416880,"2026-06-17 09:30:00","54465","1.604","116.4","3.365","102.5","1019.51","26.61","54.09","807.0","0.0"],
    [1416881,"2026-06-17 09:40:00","54466","2.291","97.0","3.528","101.9","1019.426","26.94","52.3","828.0","0.0"],
    [1416882,"2026-06-17 09:50:00","54467","2.467","91.4","3.985","80.7","1019.4110000000001","27.18","50.51","847.0","0.0"],
    [1416883,"2026-06-17 10:00:00","54468","2.512","97.0","3.724","90.5","1019.5219999999999","27.18","47.31","864.0","0.0"],
    [1416884,"2026-06-17 10:10:00","54469","2.191","100.9","3.626","108.8","1019.638","27.49","47.04","882.0","0.0"],
    [1416885,"2026-06-17 10:20:00","54470","1.217","118.2","3.561","111.3","1019.7489999999999","28.21","44.54","893.0","0.0"],
    [1416886,"2026-06-17 10:30:00","54471","1.486","179.6","4.737","203.3","1019.7560000000001","28.33","46.66","903.0","0.0"],
    [1416887,"2026-06-17 10:40:00","54472","2.4659999999999997","185.0","4.443","175.3","1019.7710000000001","27.95","45.84","921.0","0.0"],
    [1416888,"2026-06-17 10:50:00","54473","1.798","172.1","3.136","158.2","1019.674","27.9","47.19","931.0","0.0"],
    [1416889,"2026-06-17 11:00:00","54474","1.285","114.4","3.561","99.3","1019.6260000000001","29.03","43.22","939.0","0.0"],
    [1416890,"2026-06-17 11:10:00","54475","1.276","118.5","3.397","226.6","1019.566","28.98","42.3","951.0","0.0"],
    [1416891,"2026-06-17 11:20:00","54476","2.11","151.7","5.031","184","1019.6619999999999","29.42","44.48","958.0","0.0"],
    [1416892,"2026-06-17 11:30:00","54477","2.488","176.3","4.541","168.9","1019.75","28.22","53.38","961.0","0.0"],
    [1416893,"2026-06-17 11:40:00","54478","2.772","196.0","4.998","185.6","1019.8","28.58","53.2","965.0","0.0"],
    [1416894,"2026-06-17 11:50:00","54479","2.352","200.1","3.985","220.1","1019.7710000000001","28.62","54.66","967.0","0.0"],
    [1416895,"2026-06-17 12:00:00","54480","1.626","172.0","4.018","201.7","1019.654","28.6","52.35","962.0","0.0"],
    [1416896,"2026-06-17 12:10:00","54481","2.1719999999999997","194.5","4.279","228.7","1019.691","29.3","51.88","962.0","0.0"],
    [1416897,"2026-06-17 12:20:00","54482","2.3409999999999997","188.3","4.116","171.7","1019.697","28.71","56.0","962.0","0.0"],
    [1416898,"2026-06-17 12:30:00","54483","1.285","121.8","3.103","110.9","1019.587","28.91","51.08","959.0","0.0"],
    [1416899,"2026-06-17 12:40:00","54484","1.561","131.8","3.561","119","1019.508","28.57","47.93","957.0","0.0"],
    [1416900,"2026-06-17 12:50:00","54485","1.306","135.0","3.528","159.3","1019.581","29.58","46.71","946.0","0.0"],
    [1416901,"2026-06-17 13:00:00","54486","3.261","190.8","6.272","166.1","1019.6619999999999","28.38","59.04","940.0","0.0"],
    [1416902,"2026-06-17 13:10:00","54487","4.3069999999999995","176.4","6.305","161.5","1019.7919999999999","26.65","73.5","936.0","0.0"],
    [1416903,"2026-06-17 13:20:00","54488","3.265","180.0","5.815","174.3","1019.822","26.95","73.68","923.0","0.0"],
    [1416904,"2026-06-17 13:30:00","54489","3.306","184.3","5.651","175.6","1019.816","27.18","71.95","906.0","0.0"],
    [1416905,"2026-06-17 13:40:00","54490","3.4930000000000003","176.0","5.39","182.9","1019.8580000000001","26.61","73.45","894.0","0.0"],
    [1416906,"2026-06-17 13:50:00","54491","2.682","197.3","4.671","174.6","1019.816","27.04","70.48","877.0","0.0"],
    [1416907,"2026-06-17 14:00:00","54492","2.133","183.6","4.018","156","1019.7689999999999","26.93","65.89","861.0","0.0"],
    [1416908,"2026-06-17 14:10:00","54493","1.801","193.4","5.194","267.8","1019.6489999999999","27.77","58.85","840.0","0.0"],
    [1416909,"2026-06-17 14:20:00","54494","2.044","96.1","3.757","92.7","1019.467","27.62","58.85","818.0","0.0"],
    [1416910,"2026-06-17 14:30:00","54495","2.48","103.8","3.855","109.3","1019.47","27.7","55.03","803.0","0.0"],
    [1416911,"2026-06-17 14:40:00","54496","2.675","102.8","5.096","87.5","1019.408","27.24","60.99","780.8","0.0"],
    [1416912,"2026-06-17 14:50:00","54497","3.11","87.9","4.769","86.4","1019.355","26.68","63.85","756.2","0.0"],
    [1416913,"2026-06-17 15:00:00","54498","2.536","106.1","4.606","69.46","1019.2819999999999","26.99","55.55","733.7","0.0"],
    [1416914,"2026-06-17 15:10:00","54499","1.931","105.2","4.345","103.3","1019.285","27.36","54.63","709.0","0.0"],
    [1416915,"2026-06-17 15:20:00","54500","1.197","135.3","2.613","175.7","1019.227","28.08","45.36","642.8","0.0"],
    [1416916,"2026-06-17 15:30:00","54501","0.972","123.2","2.679","108.1","1019.174","28.76","36.35","652.0","0.0"],
    [1416917,"2026-06-17 15:40:00","54502","1.6440000000000001","106.1","3.528","109.4","1019.068","28.06","42.34","594.9","0.0"],
    [1416918,"2026-06-17 15:50:00","54503","2.0709999999999997","109.5","3.528","100.4","1018.931","27.74","44.63","584.9","0.0"],
    [1416919,"2026-06-17 16:00:00","54504","1.6740000000000002","121.4","3.593","127.9","1018.796","27.79","44.53","564.8","0.0"],
    [1416920,"2026-06-17 16:10:00","54505","2.173","94.1","4.083","69.48","1018.7","27.81","51.58","534.5","0.0"],
    [1416921,"2026-06-17 16:20:00","54506","2.804","87.4","4.508","83.8","1018.6510000000001","26.6","60.65","505.3","0.0"],
    [1416922,"2026-06-17 16:30:00","54507","2.7310000000000003","86.3","5.129","79.99","1018.512","26.54","61.78","474.6","0.0"],
    [1416923,"2026-06-17 16:40:00","54508","2.4730000000000003","91.4","3.593","83.7","1018.45","26.09","63.86","444.3","0.0"],
    [1416924,"2026-06-17 16:50:00","54509","2.569","92.0","3.789","89.1","1018.445","26.1","63.21","412.9","0.0"],
    [1416925,"2026-06-17 17:00:00","54510","3.0839999999999996","87.7","4.541","89.5","1018.393","26.07","62.97","381.5","0.0"],
    [1416926,"2026-06-17 17:10:00","54511","2.698","89.1","4.018","110","1018.331","25.8","64.49","349.8","0.0"],
    [1416927,"2026-06-17 17:20:00","54512","3.318","73.51","4.639","70.74","1018.145","25.89","65.25","319.3","0.0"],
    [1416928,"2026-06-17 17:30:00","54513","3.7030000000000003","70.47","4.933","69.38","1017.9739999999999","25.72","66.06","290.3","0.0"],
    [1416929,"2026-06-17 17:40:00","54514","3.408","67.88","4.606","76.29","1017.955","25.89","65.74","258.7","0.0"],
    [1416930,"2026-06-17 17:50:00","54515","2.949","57.43","4.312","66.27","1017.924","25.85","65.98","225.6","0.0"],
    [1416931,"2026-06-17 18:00:00","54516","2.471","66.79","3.495","72.95","1017.857","26.05","60.54","194.1","0.0"],
    [1416932,"2026-06-17 18:10:00","54517","2.296","89.1","3.593","83.6","1017.914","26.03","64.75","164.4","0.0"],
    [1416933,"2026-06-17 18:20:00","54518","2.2969999999999997","84.6","3.201","82.2","1018.077","25.45","67.13","137.1","0.0"],
    [1416934,"2026-06-17 18:30:00","54519","1.785","92.2","2.875","92.4","1018.183","25.36","66.88","108.3","0.0"],
    [1416935,"2026-06-17 18:40:00","54520","2.073","94.9","4.345","101.2","1018.15","25.4","66.27","83.0","0.0"],
    [1416936,"2026-06-17 18:50:00","54521","0.9790000000000001","92.8","2.123","121.6","1018.166","25.28","64.49","55.95","0.0"],
    [1416937,"2026-06-17 19:00:00","54522","1.946","71.54","2.613","72.22","1018.034","25.11","67.05","35.13","0.0"],
    [1416938,"2026-06-17 19:10:00","54523","1.536","84.3","2.385","79.32","1018.072","24.76","69.33","17.48","0.0"],
    [1416939,"2026-06-17 19:20:00","54524","1.631","97.5","2.45","92.3","1018.1030000000001","24.7","70.01","6.8","0.0"],
    [1416940,"2026-06-17 19:30:00","54525","1.8780000000000001","92.8","2.842","90.6","1018.095","24.59","70.56","1.6019999999999999","0.0"],
    [1416941,"2026-06-17 19:40:00","54526","1.465","94.6","2.483","112.6","1018.048","24.48","70.8","-1.39","0.0"],
    [1416942,"2026-06-17 19:50:00","54527","1.662","70.21","2.352","69.13","1017.9989999999999","24.27","72.33","-2.68","0.0"],
    [1416943,"2026-06-17 20:00:00","54528","1.767","60.75","2.319","66.11","1017.945","23.91","73.76","-3.247","0.0"],
    [1416944,"2026-06-17 20:10:00","54529","1.432","85.4","2.287","96.7","1018.118","23.86","74.7","-3.405","0.0"],
    [1416945,"2026-06-17 20:20:00","54530","0.465","48.71","1.633","86.1","1018.3580000000001","23.8","76.07","-3.477","0.0"],
    [1416946,"2026-06-17 20:30:00","54531","0.581","91.0","1.895","106.5","1018.6110000000001","23.77","76.66","-3.3689999999999998","0.0"],
    [1416947,"2026-06-17 20:40:00","54532","1.53","85.4","2.483","70.64","1018.67","23.78","77.01","-3.222","0.0"],
    [1416948,"2026-06-17 20:50:00","54533","0.779","81.0","2.352","78.03","1018.7460000000001","23.72","77.8","-3.437","0.0"],
    [1416949,"2026-06-17 21:00:00","54534","1.288","78.87","2.385","59.29","1018.8639999999999","23.54","79.64","-3.324","0.0"],
    [1416950,"2026-06-17 21:10:00","54535","1.058","143.7","2.254","168.1","1019.14","23.62","80.7","-3.3960000000000004","0.0"],
    [1416951,"2026-06-17 21:20:00","54536","0.6779999999999999","151.4","1.862","70.55","1019.182","23.73","82.5","-3.0810000000000004","0.0"],
    [1416952,"2026-06-17 21:40:00","54537","0.782","108.4","1.633","101.9","1019.168","23.59","85.0","-3.319","0.0"],
    [1416953,"2026-06-17 21:50:00","54538","0.46399999999999997","134.5","1.47","95.2","1019.049","23.58","86.3","-2.955","0.0"],
    [1416954,"2026-06-17 22:00:00","54539","0.875","65.05","1.829","70.73","1019.0210000000001","23.39","87.5","-3.2","0.0"],
    [1416955,"2026-06-17 22:10:00","54540","0.9159999999999999","61.84","1.47","55.99","1019.0060000000001","23.19","88.6","-3.08","0.0"],
    [1416956,"2026-06-17 22:20:00","54541","0.17600000000000002","76.05","1.241","68.5","1019.072","23.1","89.6","-2.739","0.0"],
    [1416957,"2026-06-17 22:30:00","54542","0.09300000000000001","180.4","1.013","185.2","1019.2239999999999","22.99","90.2","-2.67","0.0"],
    [1416958,"2026-06-17 22:40:00","54543","0.9059999999999999","174.8","1.633","191.7","1019.308","23.17","90.6","-2.677","0.0"],
    [1416959,"2026-06-17 22:50:00","54544","1.493","177.9","2.319","181.7","1019.447","23.35","90.5","-2.47","0.0"],
    [1416960,"2026-06-17 23:00:00","54545","0.731","196.5","1.96","192.8","1019.429","23.24","89.9","-2.6460000000000004","0.0"],
    [1416961,"2026-06-17 23:10:00","54546","0.141","62.95","1.013","56.07","1019.328","23.15","89.7","-2.987","0.0"],
    [1416962,"2026-06-17 23:20:00","54547","0.233","68.33","0.882","64.64","1019.319","22.94","89.4","-3.3539999999999996","0.0"],
    [1416963,"2026-06-17 23:30:00","54548","0.396","49.4","0.588","49.69","1019.26","22.88","89.0","-3.2230000000000003","0.0"],
    [1416964,"2026-06-17 23:40:00","54549","0.40700000000000003","27.5","0.784","351.8","1019.22","22.79","88.5","-3.1689999999999996","0.0"],
    [1416965,"2026-06-17 23:50:00","54550","0.83","347.3","1.307","347.8","1019.15","22.65","87.7","-3.365","0.0"],
    [1416966,"2026-06-18 00:00:00","54551","0.5539999999999999","331.4","1.176","333.1","1019.209","22.45","87.2","-3.397","0.0"],
    [1416967,"2026-06-18 00:10:00","54552","0.36700000000000005","318.3","1.013","319.2","1019.19","22.49","87.3","-3.177","0.0"],
    [1416968,"2026-06-18 00:20:00","54553","0.389","316.3","1.143","316.2","1019.0319999999999","22.49","87.5","-2.943","0.0"],
    [1416969,"2026-06-18 00:30:00","54554","0.42200000000000004","356.9","0.947","353.2","1018.9889999999999","22.37","87.3","-3.042","0.0"],
    [1416970,"2026-06-18 00:40:00","54555","0.259","77.42","1.176","84.1","1018.975","22.36","87.1","-3.02","0.0"],
    [1416971,"2026-06-18 00:50:00","54556","1.044","86.1","1.96","76.1","1018.924","22.69","88.0","-3.2439999999999998","0.0"],
    [1416972,"2026-06-18 01:00:00","54557","2.461","67.66","2.875","63.8","1018.7289999999999","22.7","89.7","-2.675","0.0"],
    [1416973,"2026-06-18 01:10:00","54558","1.8940000000000001","76.9","2.711","73.21","1018.6560000000001","22.77","90.7","-2.6710000000000003","0.0"],
    [1416974,"2026-06-18 01:20:00","54559","1.732","64.9","2.483","64.32","1018.6060000000001","22.61","91.0","-2.667","0.0"],
    [1416975,"2026-06-18 01:30:00","54560","1.8969999999999998","79.28","2.907","83.6","1018.575","22.78","91.6","-2.6860000000000004","0.0"],
    [1416976,"2026-06-18 01:40:00","54561","1.74","77.86","2.777","88.2","1018.558","22.73","91.6","-2.66","0.0"],
    [1416977,"2026-06-18 01:50:00","54562","0.9840000000000001","92.3","1.862","82.6","1018.5939999999999","22.72","91.9","-2.657","0.0"],
    [1416978,"2026-06-18 02:00:00","54563","1.3459999999999999","75.92","2.254","75.68","1018.513","22.66","91.9","-2.6639999999999997","0.0"],
    [1416979,"2026-06-18 02:10:00","54564","1.092","67.02","1.797","95.2","1018.428","22.42","92.3","-2.66","0.0"],
    [1416980,"2026-06-18 02:20:00","54565","0.597","105.9","1.601","97.4","1018.582","22.48","92.8","-2.658","0.0"],
    [1416981,"2026-06-18 02:30:00","54566","0.512","87.5","1.437","87.7","1018.566","22.22","91.6","-2.366","0.0"],
    [1416982,"2026-06-18 02:40:00","54567","0.564","309.2","1.797","298.1","1018.541","20.3","86.0","-4.377","0.0"],
    [1416983,"2026-06-18 02:50:00","54568","0.897","244.4","1.797","285.7","1018.46","20.29","82.4","-4.9319999999999995","0.0"],
    [1416984,"2026-06-18 03:00:00","54569","0.131","309.8","0.719","306.5","1018.387","20.81","78.67","-4.162","0.0"],
    [1416985,"2026-06-18 03:10:00","54570","0.49","298.0","1.339","299.4","1018.2860000000001","20.8","76.04","-3.258","0.0"],
    [1416986,"2026-06-18 03:20:00","54571","0.187","258.4","0.947","245.5","1018.317","21.09","76.0","-2.221","0.0"],
    [1416987,"2026-06-18 03:30:00","54572","0.49700000000000005","307.7","1.274","312.6","1018.2310000000001","21.26","75.42","-2.1959999999999997","0.0"],
    [1416988,"2026-06-18 03:40:00","54573","0.177","354.4","0.947","32.26","1018.1339999999999","21.28","76.42","-2.66","0.0"],
    [1416989,"2026-06-18 03:50:00","54574","0.612","28.47","1.274","41.6","1018.1039999999999","21.18","77.99","-2.6319999999999997","0.0"],
    [1416990,"2026-06-18 04:00:00","54575","0.907","52.89","1.209","41.84","1018.054","21.26","81.8","-2.38","0.0"],
    [1416991,"2026-06-18 04:10:00","54576","1.3019999999999998","41.78","2.156","41.64","1017.9789999999999","21.26","83.3","-1.244","0.0"],
    [1416992,"2026-06-18 04:20:00","54577","1.419","40.69","2.385","45.27","1017.888","21.52","85.0","0.589","0.0"],
    [1416993,"2026-06-18 04:30:00","54578","1.6980000000000002","51.79","2.809","34.03","1017.778","22.18","88.6","6.52","0.0"],
    [1416994,"2026-06-18 04:40:00","54579","1.2770000000000001","56.4","1.895","70.68","1017.8430000000001","22.07","88.9","17.85","0.0"],
    [1416995,"2026-06-18 04:50:00","54580","1.8119999999999998","60.65","2.417","67.55","1017.942","22.01","87.2","33.45","0.0"],
    [1416996,"2026-06-18 05:00:00","54581","0.72","47.06","1.731","61.8","1018.0060000000001","21.94","84.2","54.46","0.0"],
    [1416997,"2026-06-18 05:10:00","54582","1.015","21.57","2.287","45.94","1018.003","21.49","78.87","73.5","0.0"],
    [1416998,"2026-06-18 05:20:00","54583","0.473","272.4","1.241","284.8","1018.135","21.63","75.07","91.7","0.0"],
    [1416999,"2026-06-18 05:30:00","54584","1.095","306.2","2.189","307.1","1018.107","21.58","72.93","112.5","0.0"],
    [1417000,"2026-06-18 05:40:00","54585","0.841","306.8","1.731","286","1018.062","21.58","72.88","138.0","0.0"],
    [1417001,"2026-06-18 05:50:00","54586","1.808","37.54","3.332","30.22","1018.0310000000001","22.92","78.44","156.8","0.0"],
    [1417002,"2026-06-18 06:00:00","54587","2.379","41.13","3.561","31.89","1018.052","23.3","79.65","204.4","0.0"],
    [1417003,"2026-06-18 06:10:00","54588","2.064","44.72","3.201","46.25","1018.095","23.51","79.49","238.7","0.0"],
    [1417004,"2026-06-18 06:20:00","54589","2.2640000000000002","44.01","3.365","35.3","1018.0889999999999","23.63","78.88","273.6","0.0"],
    [1417005,"2026-06-18 06:30:00","54590","2.44","72.78","4.083","65.21","1018.2610000000001","23.75","77.51","309.3","0.0"],
    [1417006,"2026-06-18 06:40:00","54591","3.148","84.4","4.769","96.3","1018.321","23.76","77.74","345.8","0.0"],
    [1417007,"2026-06-18 06:50:00","54592","2.326","90.1","4.508","82.7","1018.615","23.86","76.78","377.2","0.0"],
    [1417008,"2026-06-18 07:00:00","54593","2.6260000000000003","76.98","5.357","102.4","1018.702","23.86","77.03","409.7","0.0"],
    [1417009,"2026-06-18 07:10:00","54594","2.46","88.1","4.377","96.8","1018.695","23.91","76.09","441.0","0.0"],
    [1417010,"2026-06-18 07:20:00","54595","2.508","81.5","3.887","71.7","1018.7589999999999","24.22","73.63","473.4","0.0"],
    [1417011,"2026-06-18 07:30:00","54596","2.978","77.22","4.606","85.2","1018.831","24.27","72.8","506.5","0.0"],
    [1417012,"2026-06-18 07:40:00","54597","2.866","81.7","4.247","86.4","1018.949","24.4","73.0","538.8","0.0"],
    [1417013,"2026-06-18 07:50:00","54598","3.338","77.59","4.541","79.06","1019.012","24.33","75.06","571.1","0.0"],
    [1417014,"2026-06-18 08:00:00","54599","3.42","78.55","4.769","82.1","1019.052","24.22","76.89","603.5","0.0"],
    [1417015,"2026-06-18 08:10:00","54600","3.036","82.1","4.671","94.7","1019.1","24.34","77.95","625.2","0.0"],
    [1417016,"2026-06-18 08:20:00","54601","3.236","89.5","4.671","84.4","1019.127","24.26","77.89","660.6","0.0"],
    [1417017,"2026-06-18 08:30:00","54602","3.216","83.8","5.031","89.5","1019.1389999999999","24.13","78.91","628.6","0.0"],
    [1417018,"2026-06-18 08:40:00","54603","3.2430000000000003","87.5","4.835","89.6","1019.137","24.31","77.97","669.0","0.0"],
    [1417019,"2026-06-18 08:50:00","54604","3.29","87.6","5.292","88.1","1019.179","24.49","77.04","726.9","0.0"],
    [1417020,"2026-06-18 09:00:00","54605","3.96","83.9","5.782","79.76","1019.217","24.56","76.36","737.2","0.0"],
    [1417021,"2026-06-18 09:10:00","54606","4.107","76.48","5.978","68.17","1019.302","24.47","76.99","694.9","0.0"],
    [1417022,"2026-06-18 09:20:00","54607","4.186","77.02","6.272","80.7","1019.2869999999999","24.57","76.48","794.8","0.0"],
    [1417023,"2026-06-18 09:30:00","54608","4.17","76.93","6.141","77.37","1019.262","24.83","75.16","832.0","0.0"],
    [1417024,"2026-06-18 09:40:00","54609","3.8819999999999997","88.3","5.749","89","1019.4069999999999","25.0","74.53","843.0","0.0"],
    [1417025,"2026-06-18 09:50:00","54610","4.613","84.6","6.239","83.3","1019.495","24.67","75.26","919.0","0.0"],
    [1417026,"2026-06-18 10:00:00","54611","4.061","88.1","6.599","87","1019.5260000000001","24.86","74.52","888.0","0.0"],
    [1417027,"2026-06-18 10:10:00","54612","4.3389999999999995","86.9","6.468","87.7","1019.579","24.66","75.15","875.0","0.0"],
    [1417028,"2026-06-18 10:20:00","54613","4.361000000000001","90.5","6.86","89.1","1019.5010000000001","24.64","74.57","928.0","0.0"],
    [1417029,"2026-06-18 10:30:00","54614","4.29","83.7","6.076","79.76","1019.597","24.78","74.27","917.0","0.0"],
    [1417030,"2026-06-18 10:40:00","54615","4.063","85.0","6.599","76.71","1019.592","25.01","73.52","945.0","0.0"],
    [1417031,"2026-06-18 10:50:00","54616","4.352","73.35","5.913","84.2","1019.518","25.17","72.75","932.0","0.0"],
    [1417032,"2026-06-18 11:00:00","54617","3.915","88.2","5.88","75","1019.477","25.36","72.14","970.0","0.0"],
    [1417033,"2026-06-18 11:10:00","54618","4.178999999999999","80.7","6.141","90.2","1019.4580000000001","25.06","73.42","978.0","0.0"],
    [1417034,"2026-06-18 11:20:00","54619","4.175","83.2","6.043","89.5","1019.4010000000001","25.26","72.51","953.0","0.0"],
    [1417035,"2026-06-18 11:30:00","54620","3.889","83.5","6.011","79.09","1019.341","25.19","72.81","972.0","0.0"],
    [1417036,"2026-06-18 11:40:00","54621","4.232","83.2","6.435","80.2","1019.222","25.28","72.76","989.0","0.0"],
    [1417037,"2026-06-18 11:50:00","54622","3.347","93.2","5.815","85","1019.191","25.23","72.86","989.0","0.0"],
    [1417038,"2026-06-18 12:00:00","54623","3.2760000000000002","93.3","5.161","98.3","1019.291","25.21","72.97","988.0","0.0"],
    [1417039,"2026-06-18 12:10:00","54624","3.718","87.9","5.553","94.9","1019.227","25.13","73.32","1003.0","0.0"],
    [1417040,"2026-06-18 12:20:00","54625","3.866","86.3","5.521","89","1019.097","25.13","73.61","802.0","0.0"],
    [1417041,"2026-06-18 12:30:00","54626","4.065","85.1","6.403","82.1","1018.9580000000001","24.64","75.61","735.8","0.0"],
    [1417042,"2026-06-18 12:40:00","54627","4.4910000000000005","79.46","6.109","73.23","1018.898","24.95","74.86","870.0","0.0"],
    [1417043,"2026-06-18 12:50:00","54628","4.175","82.9","6.174","82.8","1018.809","25.17","74.17","907.0","0.0"],
    [1417044,"2026-06-18 13:00:00","54629","4.7589999999999995","78.1","7.252","87.2","1018.701","25.29","73.83","968.0","0.0"],
    [1417045,"2026-06-18 13:10:00","54630","4.588","79.69","7.481","73.62","1018.6239999999999","25.36","74.0","949.0","0.0"],
    [1417046,"2026-06-18 13:20:00","54631","4.4510000000000005","74.3","6.827","91.6","1018.563","25.34","74.32","944.0","0.0"],
    [1417047,"2026-06-18 13:30:00","54632","4.546","75.32","6.599","92","1018.562","25.45","73.66","923.0","0.0"],
    [1417048,"2026-06-18 13:40:00","54633","4.2410000000000005","73.2","7.056","88.1","1018.557","25.3","74.54","912.0","0.0"],
    [1417049,"2026-06-18 13:50:00","54634","4.395","73.74","6.011","75.45","1018.5010000000001","25.34","74.58","900.0","0.0"],
    [1417050,"2026-06-18 14:00:00","54635","4.075","77.72","5.978","78.05","1018.4810000000001","25.5","73.97","854.0","0.0"],
    [1417051,"2026-06-18 14:10:00","54636","4.377","77.9","6.076","83.7","1018.461","24.97","75.55","560.5","0.0"],
    [1417052,"2026-06-18 14:20:00","54637","4.058","74.51","6.109","64.76","1018.42","25.37","74.18","806.0","0.0"],
    [1417053,"2026-06-18 14:30:00","54638","4.499","84.1","6.174","88.5","1018.398","25.13","74.36","621.8","0.0"],
    [1417054,"2026-06-18 14:40:00","54639","4.263","86.0","6.174","78.08","1018.404","25.01","75.11","751.6","0.0"],
    [1417055,"2026-06-18 14:50:00","54640","4.446000000000001","83.1","6.729","85.3","1018.3510000000001","25.06","75.08","765.8","0.0"],
    [1417056,"2026-06-18 15:00:00","54641","4.533","86.5","6.043","92.3","1018.2919999999999","25.28","74.65","756.6","0.0"],
    [1417057,"2026-06-18 15:10:00","54642","4.63","85.1","6.631","84","1018.133","25.11","75.15","721.9","0.0"],
    [1417058,"2026-06-18 15:20:00","54643","4.5889999999999995","82.5","6.305","92.9","1018.07","24.98","75.7","657.8","0.0"],
    [1417059,"2026-06-18 15:30:00","54644","3.97","84.2","5.749","83.5","1018.0169999999999","25.02","75.67","659.2","0.0"],
    [1417060,"2026-06-18 15:40:00","54645","4.144","75.41","6.631","84.2","1017.959","25.26","75.18","595.2","0.0"],
    [1417061,"2026-06-18 15:50:00","54646","4.12","79.99","5.847","82.3","1017.9","24.94","76.81","582.9","0.0"],
    [1417062,"2026-06-18 16:00:00","54647","4.187","76.6","5.782","89.5","1017.7289999999999","24.9","77.24","564.0","0.0"],
    [1417063,"2026-06-18 16:10:00","54648","4.703","71.27","6.043","86.4","1017.548","24.87","77.58","534.1","0.0"],
    [1417064,"2026-06-18 16:20:00","54649","4.232","71.17","6.37","80.3","1017.4110000000001","25.07","76.75","503.8","0.0"],
    [1417065,"2026-06-18 16:30:00","54650","4.349","66.98","5.651","79","1017.306","24.86","77.54","468.0","0.0"],
    [1417066,"2026-06-18 16:40:00","54651","4.691","72.71","6.109","78.6","1017.23","24.91","77.73","434.5","0.0"],
    [1417067,"2026-06-18 16:50:00","54652","4.529","69.1","5.684","74.87","1017.082","24.77","78.43","406.1","0.0"],
    [1417068,"2026-06-18 17:00:00","54653","4.646","66.82","6.435","60.87","1016.847","24.7","78.68","374.6","0.0"],
    [1417069,"2026-06-18 17:10:00","54654","4.533","57.53","6.272","58.64","1016.807","24.73","78.67","345.8","0.0"],
    [1417070,"2026-06-18 17:20:00","54655","4.309","60.4","6.239","65.08","1016.748","24.6","79.22","312.1","0.0"],
    [1417071,"2026-06-18 17:30:00","54656","4.034","58.15","5.553","56.72","1016.801","24.54","79.26","279.7","0.0"],
    [1417072,"2026-06-18 17:40:00","54657","3.8110000000000004","53.36","5.259","55.49","1016.826","24.4","79.93","252.1","0.0"],
    [1417073,"2026-06-18 17:50:00","54658","3.529","57.85","5.292","59.03","1016.888","24.4","79.48","221.0","0.0"],
    [1417074,"2026-06-18 18:00:00","54659","3.523","62.15","4.998","55.86","1016.872","24.27","79.4","188.0","0.0"],
    [1417075,"2026-06-18 18:10:00","54660","3.5810000000000004","59.24","5.227","47.83","1016.818","24.25","80.1","161.4","0.0"],
    [1417076,"2026-06-18 18:20:00","54661","3.557","61.65","4.704","59.88","1016.793","24.09","80.7","135.7","0.0"],
    [1417077,"2026-06-18 18:30:00","54662","2.989","58.4","4.443","59.75","1016.905","24.13","80.6","110.3","0.0"],
    [1417078,"2026-06-18 18:40:00","54663","3.4619999999999997","58.84","4.802","53.84","1016.9","23.94","80.7","86.1","0.0"],
    [1417079,"2026-06-18 18:50:00","54664","3.093","45.74","4.704","49.59","1016.8689999999999","23.75","81.6","62.23","0.0"],
    [1417080,"2026-06-18 19:00:00","54665","2.975","49.5","4.41","42.68","1016.9639999999999","23.7","79.96","41.97","0.0"],
    [1417081,"2026-06-18 19:10:00","54666","3.075","53.82","4.279","48.82","1016.914","23.7","80.6","24.57","0.0"],
    [1417082,"2026-06-18 19:20:00","54667","3.0010000000000003","48.03","4.247","55.86","1016.9680000000001","23.49","81.9","10.52","0.0"],
    [1417083,"2026-06-18 19:30:00","54668","2.499","60.41","3.528","49.09","1017.1010000000001","23.47","81.1","2.911","0.0"],
    [1417084,"2026-06-18 19:40:00","54669","2.682","61.97","3.953","60.08","1017.1060000000001","23.41","81.7","-0.857","0.0"],
    [1417085,"2026-06-18 19:50:00","54670","2.8560000000000003","61.79","3.92","45.77","1017.02","23.42","81.7","-2.525","0.0"],
    [1417086,"2026-06-18 20:00:00","54671","3.508","55.4","4.769","56.02","1016.933","23.3","83.3","-2.614","0.0"],
    [1417087,"2026-06-18 20:10:00","54672","3.213","55.88","5.031","55.61","1016.8889999999999","23.24","83.7","-2.641","0.0"],
    [1417088,"2026-06-18 20:20:00","54673","3.4139999999999997","55.43","4.835","76.37","1016.873","23.26","84.2","-2.633","0.0"],
    [1417089,"2026-06-18 20:30:00","54674","3.467","54.28","5.129","56.74","1016.846","23.22","84.6","-2.639","0.0"],
    [1417090,"2026-06-18 20:40:00","54675","2.745","46.37","5.129","47.35","1016.9069999999999","23.15","84.9","-2.728","0.0"],
    [1417091,"2026-06-18 20:50:00","54676","3.285","49.67","5.423","46.35","1016.8860000000001","23.15","84.9","-2.717","0.0"],
    [1417092,"2026-06-18 21:00:00","54677","3.6710000000000003","61.96","5.292","65.02","1016.8839999999999","23.16","81.1","-2.8510000000000004","0.0"],
    [1417093,"2026-06-18 21:10:00","54678","3.055","63.72","4.443","54.65","1017.0039999999999","23.37","79.76","-2.7289999999999996","0.0"],
    [1417094,"2026-06-18 21:20:00","54679","3.154","53.78","4.606","56.96","1016.998","23.33","77.34","-2.6689999999999996","0.0"],
    [1417095,"2026-06-18 21:30:00","54680","2.7710000000000004","53.71","4.737","43.72","1017.008","23.48","74.36","-2.658","0.0"],
    [1417096,"2026-06-18 21:40:00","54681","3.35","53.34","6.305","70.49","1016.868","23.54","75.8","-2.658","0.0"],
    [1417097,"2026-06-18 21:50:00","54682","4.648","53.0","6.893","47.48","1016.3","23.55","75.11","-2.655","0.0"],
    [1417098,"2026-06-18 22:00:00","54683","3.739","45.09","6.207","41.01","1016.472","23.53","73.75","-2.667","0.0"],
    [1417099,"2026-06-18 22:10:00","54684","3.6630000000000003","48.68","5.978","44.81","1016.591","23.61","75.97","-2.589","0.0"],
    [1417100,"2026-06-18 22:20:00","54685","3.177","54.71","5.259","47.08","1016.783","23.54","79.59","-2.2680000000000002","0.0"],
    [1417101,"2026-06-18 22:30:00","54686","3.487","62.18","5.423","83.3","1016.927","23.47","80.1","-2.089","0.0"],
    [1417102,"2026-06-18 22:40:00","54687","2.7489999999999997","61.06","4.41","64.53","1017.262","23.41","78.83","-2.6180000000000003","0.0"],
    [1417103,"2026-06-18 22:50:00","54688","2.7680000000000002","62.03","3.953","65.25","1017.279","23.36","78.95","-2.6519999999999997","0.0"],
    [1417104,"2026-06-18 23:00:00","54689","2.5839999999999996","62.32","3.822","70.34","1017.299","23.29","80.2","-2.657","0.0"],
    [1417105,"2026-06-18 23:10:00","54690","2.335","49.53","3.561","45.19","1017.398","23.17","80.6","-2.656","0.0"],
    [1417106,"2026-06-18 23:20:00","54691","2.513","30.76","4.345","46.88","1017.2819999999999","23.18","79.98","-2.077","0.0"],
    [1417107,"2026-06-18 23:30:00","54692","1.212","38.26","2.809","31.8","1017.55","23.24","78.41","-1.913","0.0"],
    [1417108,"2026-06-18 23:40:00","54693","1.6380000000000001","18.45","2.875","21.08","1017.682","23.23","77.66","-2.463","0.0"],
    [1417109,"2026-06-18 23:50:00","54694","1.528","4.227","2.319","5.924","1017.7330000000001","23.12","77.28","-2.6","0.0"],
    [1417110,"2026-06-19 00:00:00","54695","1.8330000000000002","31.68","2.548","11.14","1017.625","23.22","76.42","-1.979","0.0"],
    [1417111,"2026-06-19 00:10:00","54696","1.147","19.07","2.287","17.22","1017.8430000000001","23.33","76.81","-2.207","0.0"],
    [1417112,"2026-06-19 00:20:00","54697","2.155","54.19","3.365","73.7","1017.8919999999999","23.31","77.84","-2.286","0.0"],
    [1417113,"2026-06-19 00:30:00","54698","3.616","66.88","5.129","66.79","1017.5089999999999","23.38","80.1","-1.5859999999999999","0.0"],
    [1417114,"2026-06-19 00:40:00","54699","3.272","56.03","4.965","49.84","1017.452","23.24","82.3","-1.195","0.0"],
    [1417115,"2026-06-19 01:00:00","54700","2.532","26.29","4.606","27.91","1017.311","23.1","81.6","-1.228","0.0"],
    [1417116,"2026-06-19 01:10:00","54701","2.1830000000000003","25.15","3.397","16.02","1017.457","23.11","78.78","-1.824","0.0"],
    [1417117,"2026-06-19 01:20:00","54702","1.7480000000000002","39.44","2.94","28.91","1017.404","23.09","78.11","-2.636","0.0"],
    [1417118,"2026-06-19 01:30:00","54703","2.509","38.64","4.116","30.53","1017.122","23.08","76.46","-1.975","0.0"],
    [1417119,"2026-06-19 01:40:00","54704","1.685","35.85","3.724","35.23","1017.2819999999999","23.18","72.75","-1.916","0.0"],
    [1417120,"2026-06-19 01:50:00","54705","1.649","15.9","2.973","18.58","1017.316","23.16","70.52","-2.088","0.0"],
    [1417121,"2026-06-19 02:00:00","54706","2.021","37.66","3.005","17.08","1017.1569999999999","23.28","66.8","-1.921","0.0"],
    [1417122,"2026-06-19 02:10:00","54707","2.421","62.26","3.789","66.92","1017.053","23.37","67.57","-1.8430000000000002","0.0"],
    [1417123,"2026-06-19 02:20:00","54708","2.376","48.87","3.495","37.66","1016.857","23.31","64.84","-1.6669999999999998","0.0"],
    [1417124,"2026-06-19 02:30:00","54709","2.474","39.83","4.541","26.28","1016.6289999999999","23.42","62.54","-1.9069999999999998","0.0"],
    [1417125,"2026-06-19 02:40:00","54710","2.91","40.2","4.639","38.69","1016.436","23.47","59.31","-2.245","0.0"],
    [1417126,"2026-06-19 02:50:00","54711","2.503","29.07","4.41","6.99","1016.295","23.41","57.71","-2.6060000000000003","0.0"],
    [1417127,"2026-06-19 03:00:00","54712","0.8290000000000001","52.28","2.581","36.55","1016.552","23.32","57.58","-2.676","0.0"],
    [1417128,"2026-06-19 03:10:00","54713","1.7619999999999998","37.15","2.94","21.39","1016.523","23.16","58.1","-2.674","0.0"],
    [1417129,"2026-06-19 03:20:00","54714","2.427","34.08","3.92","33.51","1016.08","23.15","59.42","-2.6630000000000003","0.0"],
    [1417130,"2026-06-19 03:30:00","54715","2.023","34.0","3.365","26.57","1016.0830000000001","23.21","60.38","-2.658","0.0"],
    [1417131,"2026-06-19 03:40:00","54716","2.148","40.59","3.626","27.36","1016.0","23.16","59.96","-2.656","0.0"],
    [1417132,"2026-06-19 03:50:00","54717","2.612","40.63","4.116","34.31","1015.987","23.12","60.0","-2.658","0.0"],
    [1417133,"2026-06-19 04:00:00","54718","2.8110000000000004","46.68","4.998","53.79","1015.967","23.23","60.03","-2.637","0.0"],
    [1417134,"2026-06-19 04:10:00","54719","2.574","45.58","3.822","39.34","1016.085","23.11","60.56","-1.858","0.0"],
    [1417135,"2026-06-19 04:20:00","54720","1.558","15.31","3.822","19.52","1016.184","23.0","60.17","-0.321","0.0"],
    [1417136,"2026-06-19 04:30:00","54721","1.445","350.8","2.483","5.134","1016.294","22.88","58.19","2.2640000000000002","0.0"],
    [1417137,"2026-06-19 04:40:00","54722","1.8259999999999998","327.1","2.613","313.6","1016.2710000000001","22.93","55.51","7.2589999999999995","0.0"],
    [1417138,"2026-06-19 04:50:00","54723","1.092","329.5","1.731","337.3","1016.2489999999999","22.66","51.09","18.77","0.0"],
    [1417139,"2026-06-19 05:00:00","54724","1.093","341.7","1.699","22.72","1016.304","22.68","50.51","35.77","0.0"],
    [1417140,"2026-06-19 05:10:00","54725","1.744","10.01","3.005","351.6","1016.328","23.13","50.94","47.94","0.0"],
    [1417141,"2026-06-19 05:20:00","54726","2.068","15.28","3.365","6.829","1016.297","23.65","48.75","64.11","0.0"],
    [1417142,"2026-06-19 05:30:00","54727","1.7830000000000001","10.4","3.136","356.7","1016.284","24.06","47.53","89.2","0.0"],
    [1417143,"2026-06-19 05:40:00","54728","1.712","12.26","3.267","1.792","1016.2230000000001","24.43","47.18","111.9","0.0"],
    [1417144,"2026-06-19 05:50:00","54729","1.883","16.12","3.005","2.034","1016.262","24.92","46.74","133.6","0.0"],
    [1417145,"2026-06-19 06:00:00","54730","1.859","22.18","3.169","22.64","1016.294","25.23","46.7","168.3","0.0"],
    [1417146,"2026-06-19 06:10:00","54731","2.8289999999999997","27.74","4.377","21.45","1016.4019999999999","25.51","44.61","199.0","0.0"],
    [1417147,"2026-06-19 06:20:00","54732","2.6689999999999996","28.7","3.887","28.58","1016.44","25.78","42.84","230.9","0.0"],
    [1417148,"2026-06-19 06:30:00","54733","2.296","38.9","3.626","27.91","1016.495","26.29","41.34","263.8","0.0"],
    [1417149,"2026-06-19 06:40:00","54734","2.5789999999999997","53.96","4.051","58.04","1016.5010000000001","26.68","40.03","296.5","0.0"],
    [1417150,"2026-06-19 06:50:00","54735","3.159","61.47","4.377","63.16","1016.5219999999999","26.69","39.8","331.1","0.0"],
    [1417151,"2026-06-19 07:00:00","54736","3.0839999999999996","63.64","4.345","75.17","1016.7180000000001","26.76","40.71","365.2","0.0"],
    [1417152,"2026-06-19 07:10:00","54737","3.0839999999999996","62.64","4.345","54.57","1016.831","26.79","41.37","398.2","0.0"],
    [1417153,"2026-06-19 07:20:00","54738","3.1430000000000002","62.37","4.541","71.44","1016.919","26.92","40.93","430.7","0.0"],
    [1417154,"2026-06-19 07:30:00","54739","3.225","59.78","4.508","65.69","1017.005","26.82","41.05","462.5","0.0"],
    [1417155,"2026-06-19 07:40:00","54740","3.5980000000000003","68.68","5.357","63.09","1017.1460000000001","26.84","41.55","494.8","0.0"],
    [1417156,"2026-06-19 07:50:00","54741","4.045","77.3","5.488","71.83","1017.19","26.49","44.51","523.6","0.0"],
    [1417157,"2026-06-19 08:00:00","54742","3.864","79.49","5.227","86.9","1017.2589999999999","26.19","50.34","555.5","0.0"],
    [1417158,"2026-06-19 08:10:00","54743","3.678","77.92","5.423","67.23","1017.337","26.07","56.19","591.8","0.0"],
    [1417159,"2026-06-19 08:20:00","54744","3.8480000000000003","84.6","5.488","93.4","1017.4019999999999","26.48","55.82","619.8","0.0"],
    [1417160,"2026-06-19 08:30:00","54745","4.513999999999999","71.58","6.174","84.5","1017.422","26.5","55.17","651.7","0.0"],
    [1417161,"2026-06-19 08:40:00","54746","4.667","70.01","6.468","77.77","1017.388","26.36","54.96","647.1","0.0"],
    [1417162,"2026-06-19 08:50:00","54747","4.223","66.51","6.043","80.8","1017.48","26.61","54.08","705.7","0.0"],
    [1417163,"2026-06-19 09:00:00","54748","4.38","58.75","6.109","41.47","1017.559","26.66","54.8","702.0","0.0"],
    [1417164,"2026-06-19 09:10:00","54749","4.306","58.09","6.011","68.12","1017.6139999999999","26.63","54.17","758.2","0.0"],
    [1417165,"2026-06-19 09:20:00","54750","4.388","52.54","6.468","41.24","1017.69","26.65","54.07","779.8","0.0"],
    [1417166,"2026-06-19 09:30:00","54751","4.747","58.7","6.729","60.29","1017.654","26.69","52.84","796.4","0.0"],
    [1417167,"2026-06-19 09:40:00","54752","4.989","63.93","6.795","51.43","1017.622","26.64","52.56","811.0","0.0"],
    [1417168,"2026-06-19 09:50:00","54753","5.315","67.43","6.893","72.74","1017.68","26.77","51.75","827.0","0.0"],
    [1417169,"2026-06-19 10:00:00","54754","4.949","60.6","7.023","71.88","1017.584","26.77","52.49","845.0","0.0"],
    [1417170,"2026-06-19 10:10:00","54755","5.047","56.33","7.187","65.51","1017.539","27.17","51.99","857.0","0.0"],
    [1417171,"2026-06-19 10:20:00","54756","4.86","57.3","6.468","60.61","1017.716","27.1","52.39","870.0","0.0"],
    [1417172,"2026-06-19 10:30:00","54757","5.142","61.22","7.219","69","1017.7410000000001","27.16","52.48","887.0","0.0"],
    [1417173,"2026-06-19 10:40:00","54758","4.885","52.71","6.925","49.58","1017.7760000000001","27.39","53.42","828.0","0.0"],
    [1417174,"2026-06-19 10:50:00","54759","5.3839999999999995","57.14","7.219","62.82","1017.83","26.95","55.58","918.0","0.0"],
    [1417175,"2026-06-19 11:00:00","54760","5.004","63.71","6.893","68.42","1017.9110000000001","27.19","55.62","916.0","0.0"],
    [1417176,"2026-06-19 11:10:00","54761","5.059","64.47","7.056","71.5","1017.938","27.49","54.63","922.0","0.0"],
    [1417177,"2026-06-19 11:20:00","54762","5.4639999999999995","66.92","6.795","62.24","1017.925","27.31","55.77","927.0","0.0"],
    [1417178,"2026-06-19 11:30:00","54763","5.127999999999999","65.49","7.089","70.26","1017.8910000000001","27.39","56.62","934.0","0.0"],
    [1417179,"2026-06-19 11:40:00","54764","5.266","70.57","7.481","85","1017.925","27.43","57.21","939.0","0.0"],
    [1417180,"2026-06-19 11:50:00","54765","5.832000000000001","75.54","7.121","79.35","1017.895","27.04","59.38","942.0","0.0"],
    [1417181,"2026-06-19 12:00:00","54766","5.825","75.13","7.252","78.83","1017.9","27.24","57.98","947.0","0.0"],
    [1417182,"2026-06-19 12:10:00","54767","5.617000000000001","71.7","7.219","75.11","1017.8610000000001","27.28","58.01","959.0","0.0"],
    [1417183,"2026-06-19 12:20:00","54768","5.74","72.57","7.513","81.1","1017.841","27.22","57.81","767.1","0.0"],
    [1417184,"2026-06-19 12:30:00","54769","4.665","60.83","7.023","66.6","1017.83","27.26","58.47","501.4","0.0"],
    [1417185,"2026-06-19 12:40:00","54770","4.619","62.17","6.239","64.85","1017.8589999999999","27.51","57.33","892.0","0.0"],
    [1417186,"2026-06-19 13:00:00","54771","4.748","61.99","6.533","45.99","1017.779","27.91","59.14","985.0","0.0"],
    [1417187,"2026-06-19 13:10:00","54772","4.999","67.98","6.991","88.4","1017.737","27.95","58.79","924.0","0.0"],
    [1417188,"2026-06-19 13:20:00","54773","5.067","61.3","7.023","60.95","1017.66","27.64","58.46","887.0","0.0"],
    [1417189,"2026-06-19 13:30:00","54774","5.169","61.73","7.481","51.85","1017.681","27.68","57.67","889.0","0.0"],
    [1417190,"2026-06-19 13:40:00","54775","4.918","57.0","6.991","67.38","1017.757","27.81","57.56","870.0","0.0"],
    [1417191,"2026-06-19 13:50:00","54776","5.271","55.64","7.481","65.13","1017.7410000000001","27.82","56.86","765.1","0.0"],
    [1417192,"2026-06-19 14:00:00","54777","5.644","59.93","7.481","62.84","1017.584","27.29","62.03","826.0","0.0"],
    [1417193,"2026-06-19 14:10:00","54778","5.555","60.33","8.2","81.6","1017.6110000000001","27.46","58.86","822.0","0.0"],
    [1417194,"2026-06-19 14:20:00","54779","5.935","59.43","8.2","73.85","1017.507","27.64","56.94","801.0","0.0"],
    [1417195,"2026-06-19 14:30:00","54780","5.867000000000001","62.13","8.62","67.71","1017.4939999999999","27.55","55.19","780.7","0.0"],
    [1417196,"2026-06-19 14:40:00","54781","5.5520000000000005","52.99","8","46.99","1017.418","27.72","55.33","758.3","0.0"],
    [1417197,"2026-06-19 14:50:00","54782","5.51","57.98","8.4","57.58","1017.265","27.78","52.98","733.4","0.0"],
    [1417198,"2026-06-19 15:00:00","54783","5.739","60.46","8.17","62.04","1017.12","27.73","52.32","708.8","0.0"],
    [1417199,"2026-06-19 15:10:00","54784","5.4879999999999995","54.67","7.709","66.41","1017.154","27.71","53.43","683.6","0.0"],
    [1417200,"2026-06-19 15:20:00","54785","6.2","58.33","8.66","61.77","1017.0219999999999","27.61","54.23","627.5","0.0"],
    [1417201,"2026-06-19 15:30:00","54786","5.684","57.05","7.579","62.19","1016.9789999999999","27.46","54.6","627.3","0.0"],
    [1417202,"2026-06-19 15:40:00","54787","5.773","56.61","8.4","58.36","1016.938","27.5","52.89","577.2","0.0"],
    [1417203,"2026-06-19 15:50:00","54788","5.287000000000001","52.17","7.709","37.64","1016.946","27.56","53.31","556.0","0.0"],
    [1417204,"2026-06-19 16:00:00","54789","5.077","50.99","7.579","53.5","1016.883","27.38","54.6","540.1","0.0"],
    [1417205,"2026-06-19 16:10:00","54790","5.143","49.53","7.546","45.23","1016.788","27.49","54.14","509.0","0.0"],
    [1417206,"2026-06-19 16:20:00","54791","4.794","54.25","6.893","61.62","1016.7439999999999","27.23","54.95","477.4","0.0"],
    [1417207,"2026-06-19 16:30:00","54792","4.635","55.43","6.435","46.47","1016.645","27.2","55.13","445.0","0.0"],
    [1417208,"2026-06-19 16:40:00","54793","4.745","58.39","6.631","48.35","1016.585","27.01","56.62","415.5","0.0"],
    [1417209,"2026-06-19 16:50:00","54794","4.8180000000000005","59.87","7.089","60.17","1016.457","26.82","58.38","384.9","0.0"],
    [1417210,"2026-06-19 17:00:00","54795","4.846","64.06","6.991","64.6","1016.357","26.67","60.67","356.1","0.0"],
    [1417211,"2026-06-19 17:10:00","54796","4.196000000000001","61.04","6.337","57.83","1016.255","26.84","61.28","326.7","0.0"],
    [1417212,"2026-06-19 17:20:00","54797","4.25","59.81","6.305","38.52","1016.321","26.56","62.89","295.5","0.0"],
    [1417213,"2026-06-19 17:30:00","54798","5.319","60.8","6.762","47.3","1016.3489999999999","26.18","65.19","266.1","0.0"],
    [1417214,"2026-06-19 17:40:00","54799","4.711","56.5","7.219","54.19","1016.2739999999999","26.15","66.05","235.8","0.0"],
    [1417215,"2026-06-19 17:50:00","54800","4.394","58.35","6.664","69.84","1016.383","26.23","66.27","206.0","0.0"],
    [1417216,"2026-06-19 18:00:00","54801","5.0680000000000005","57.01","6.729","47.21","1016.428","25.91","66.58","177.9","0.0"],
    [1417217,"2026-06-19 18:10:00","54802","4.617","56.11","7.023","48.01","1016.4960000000001","25.83","67.04","150.3","0.0"],
    [1417218,"2026-06-19 18:20:00","54803","4.81","54.14","7.056","55.39","1016.577","25.66","67.75","122.6","0.0"],
    [1417219,"2026-06-19 18:30:00","54804","4.735","53.21","6.697","51.95","1016.623","25.48","68.14","98.1","0.0"],
    [1417220,"2026-06-19 18:40:00","54805","4.691","57.1","6.599","49.88","1016.7189999999999","25.34","69.53","75.74","0.0"],
    [1417221,"2026-06-19 18:50:00","54806","4.186","55.0","6.468","57.12","1016.82","25.26","70.88","55.09","0.0"],
    [1417222,"2026-06-19 19:00:00","54807","3.452","48.03","5.096","30","1016.915","25.19","72.26","36.4","0.0"],
    [1417223,"2026-06-19 19:10:00","54808","3.6319999999999997","50.47","5.488","61.43","1016.95","24.94","73.84","17.44","0.0"],
    [1417224,"2026-06-19 19:20:00","54809","3.471","54.88","5.553","60.94","1016.9739999999999","24.81","74.73","5.454","0.0"],
    [1417225,"2026-06-19 19:30:00","54810","4.376","54.9","7.056","57.89","1016.96","24.65","75.82","2.155","0.0"],
    [1417226,"2026-06-19 19:40:00","54811","4.524","55.71","6.468","48.63","1016.95","24.55","76.9","-0.884","0.0"],
    [1417227,"2026-06-19 19:50:00","54812","4.731","54.31","6.664","41.01","1016.935","24.44","78.03","-1.919","0.0"],
    [1417228,"2026-06-19 20:00:00","54813","3.892","53.32","5.913","39.16","1017.043","24.37","79.09","-2.562","0.0"],
    [1417229,"2026-06-19 20:10:00","54814","3.345","50.01","5.847","47.51","1017.107","24.35","79.3","-2.593","0.0"],
    [1417230,"2026-06-19 20:20:00","54815","3.767","50.69","6.043","50.72","1017.1189999999999","24.31","79.4","-2.593","0.0"],
    [1417231,"2026-06-19 20:30:00","54816","3.25","51.74","5.325","47.39","1017.209","24.29","79.81","-2.593","0.0"],
    [1417232,"2026-06-19 20:40:00","54817","2.951","48.99","5.455","54.92","1017.3810000000001","24.26","80.0","-2.593","0.0"],
    [1417233,"2026-06-19 20:50:00","54818","3.3569999999999998","47.89","5.521","46.25","1017.582","24.23","80.3","-2.593","0.0"],
    [1417234,"2026-06-19 21:00:00","54819","3.306","47.21","5.259","56.07","1017.695","24.2","80.2","-2.593","0.0"],
    [1417235,"2026-06-19 21:10:00","54820","2.903","45.55","4.802","57.85","1017.747","24.2","80.4","-2.592","0.0"],
    [1417236,"2026-06-19 21:20:00","54821","2.5340000000000003","44.65","4.051","43.68","1017.807","24.16","80.4","-2.593","0.0"],
    [1417237,"2026-06-19 21:30:00","54822","2.8289999999999997","46.62","4.639","41.25","1017.8430000000001","24.14","80.2","-2.596","0.0"],
    [1417238,"2026-06-19 21:40:00","54823","3.2939999999999996","50.02","5.325","58.91","1017.797","24.12","80.1","-2.596","0.0"],
    [1417239,"2026-06-19 21:50:00","54824","3.12","49.8","5.717","44.15","1017.7769999999999","24.12","80.2","-2.596","0.0"],
    [1417240,"2026-06-19 22:00:00","54825","3.2489999999999997","52.66","5.194","58.09","1017.748","24.12","80.2","-2.596","0.0"],
    [1417241,"2026-06-19 22:10:00","54826","3.7889999999999997","51.01","6.533","52.15","1017.701","24.06","80.4","-2.602","0.0"],
    [1417242,"2026-06-19 22:20:00","54827","3.642","44.69","5.455","52.54","1017.732","24.04","80.1","-2.5980000000000003","0.0"],
    [1417243,"2026-06-19 22:30:00","54828","3.1430000000000002","45.14","5.161","32.6","1017.7389999999999","24.06","79.53","-2.6010000000000004","0.0"],
    [1417244,"2026-06-19 22:40:00","54829","3.782","38.69","5.945","37.28","1017.8330000000001","24.06","78.46","-2.605","0.0"],
    [1417245,"2026-06-19 22:50:00","54830","2.792","43.57","4.671","27.9","1017.7810000000001","24.07","77.69","-2.6060000000000003","0.0"],
    [1417246,"2026-06-19 23:00:00","54831","3.5810000000000004","39.03","6.011","38.13","1017.717","24.08","77.35","-2.608","0.0"],
    [1417247,"2026-06-19 23:10:00","54832","4.056","38.02","6.207","36.53","1017.73","24.09","76.17","-2.609","0.0"],
    [1417248,"2026-06-19 23:20:00","54833","3.7560000000000002","41.17","5.488","51.28","1017.691","24.14","74.48","-2.615","0.0"],
    [1417249,"2026-06-19 23:30:00","54834","3.22","37.09","4.671","48.1","1017.693","24.19","73.82","-2.609","0.0"],
    [1417250,"2026-06-19 23:40:00","54835","3.7489999999999997","37.2","5.815","41.79","1017.68","24.19","73.22","-2.616","0.0"],
    [1417251,"2026-06-19 23:50:00","54836","3.116","39.43","4.965","42.92","1017.6510000000001","24.19","72.7","-2.611","0.0"],
    [1417252,"2026-06-20 00:00:00","54837","2.779","29.54","4.835","19.07","1017.829","24.15","72.52","-2.611","0.0"],
    [1417253,"2026-06-20 00:10:00","54838","2.676","31.93","4.606","43.14","1017.785","24.12","72.6","-2.615","0.0"],
    [1417254,"2026-06-20 00:20:00","54839","2.615","31.83","4.639","35.69","1017.705","24.1","72.55","-2.615","0.0"],
    [1417255,"2026-06-20 00:30:00","54840","2.863","41.08","4.508","37.3","1017.579","24.12","72.33","-2.615","0.0"],
    [1417256,"2026-06-20 00:40:00","54841","2.906","40.97","5.194","34.47","1017.558","24.12","71.97","-2.6180000000000003","0.0"],
    [1417257,"2026-06-20 00:50:00","54842","2.775","39.1","4.475","35.75","1017.54","24.12","72.24","-2.617","0.0"],
    [1417258,"2026-06-20 01:00:00","54843","3.193","43.77","5.259","36.14","1017.48","24.08","72.16","-2.6189999999999998","0.0"],
    [1417259,"2026-06-20 01:10:00","54844","2.394","41.41","4.214","44.55","1017.52","24.05","72.3","-2.6180000000000003","0.0"],
    [1417260,"2026-06-20 01:20:00","54845","2.9730000000000003","32.8","4.769","35.98","1017.574","24.05","72.28","-2.617","0.0"],
    [1417261,"2026-06-20 01:30:00","54846","2.968","28.79","4.671","35.75","1017.5989999999999","24.03","72.56","-2.614","0.0"],
    [1417262,"2026-06-20 01:40:00","54847","2.84","30.59","4.475","33.2","1017.543","24.0","72.33","-2.6289999999999996","0.0"],
    [1417263,"2026-06-20 01:50:00","54848","2.8089999999999997","29.55","5.129","32.23","1017.485","24.04","71.6","-2.6289999999999996","0.0"],
    [1417264,"2026-06-20 02:00:00","54849","2.45","32.95","3.887","13.29","1017.433","24.0","71.25","-2.6319999999999997","0.0"],
    [1417265,"2026-06-20 02:10:00","54850","1.915","19.67","4.312","14.48","1017.4839999999999","23.9","70.75","-2.636","0.0"],
    [1417266,"2026-06-20 02:20:00","54851","2.19","23.48","3.136","19.13","1017.47","23.81","69.71","-2.6460000000000004","0.0"],
    [1417267,"2026-06-20 02:30:00","54852","2.062","29.19","3.299","29.07","1017.395","23.85","68.79","-2.648","0.0"],
    [1417268,"2026-06-20 02:40:00","54853","2.158","32.0","3.953","29.29","1017.414","23.87","68.4","-2.7710000000000004","0.0"],
    [1417269,"2026-06-20 02:50:00","54854","2.6189999999999998","34.74","4.247","37.67","1017.393","24.04","67.43","-2.654","0.0"],
    [1417270,"2026-06-20 03:00:00","54855","2.3819999999999997","31.5","3.463","59.52","1017.4839999999999","24.02","67.22","-2.655","0.0"],
    [1417271,"2026-06-20 03:10:00","54856","3.003","36.01","4.508","25.54","1017.3739999999999","24.01","66.97","-2.65","0.0"],
    [1417272,"2026-06-20 03:20:00","54857","2.984","34.72","4.41","37","1017.312","24.01","66.59","-2.653","0.0"],
    [1417273,"2026-06-20 03:30:00","54858","2.112","35.28","3.43","42.71","1017.3919999999999","23.87","66.64","-2.6510000000000002","0.0"],
    [1417274,"2026-06-20 03:40:00","54859","2.291","27.08","3.593","14.75","1017.5939999999999","23.88","66.32","-2.653","0.0"],
    [1417275,"2026-06-20 03:50:00","54860","2.635","30.52","4.051","21.31","1017.687","23.91","65.83","-2.6519999999999997","0.0"],
    [1417276,"2026-06-20 04:00:00","54861","2.343","26.38","4.149","38.48","1017.806","23.85","65.42","-2.583","0.0"],
    [1417277,"2026-06-20 04:10:00","54862","2.682","31.57","4.214","41.6","1017.865","23.85","64.91","-1.709","0.0"],
    [1417278,"2026-06-20 04:30:00","54863","2.129","31.62","3.593","40.34","1018.018","23.96","64.44","5.773","0.0"],
    [1417279,"2026-06-20 04:40:00","54864","2.182","29.33","3.463","29.59","1018.13","23.99","64.44","15.03","0.0"],
    [1417280,"2026-06-20 04:50:00","54865","1.8869999999999998","31.57","2.973","17.75","1018.2610000000001","24.01","64.31","27.74","0.0"],
    [1417281,"2026-06-20 05:00:00","54866","1.797","25.65","3.038","34.03","1018.393","24.07","64.11","42.28","0.0"],
    [1417282,"2026-06-20 05:10:00","54867","1.817","21.75","3.038","15.98","1018.566","24.26","63.27","58.07","0.0"],
    [1417283,"2026-06-20 05:20:00","54868","1.7369999999999999","27.77","3.299","39.46","1018.6469999999999","24.5","62.49","72.42","0.0"],
    [1417284,"2026-06-20 05:30:00","54869","2.104","36.6","3.495","29.24","1018.635","24.71","61.67","89.0","0.0"],
    [1417285,"2026-06-20 05:40:00","54870","1.945","33.35","3.299","30.16","1018.7139999999999","24.92","60.82","100.9","0.0"],
    [1417286,"2026-06-20 05:50:00","54871","2.1919999999999997","37.51","3.691","39.6","1018.758","25.05","60.53","120.0","0.0"],
    [1417287,"2026-06-20 06:00:00","54872","2.551","34.36","4.475","32.3","1018.7719999999999","25.3","59.46","157.8","0.0"],
    [1417288,"2026-06-20 06:10:00","54873","2.4659999999999997","34.86","4.247","21.41","1018.762","25.53","58.39","188.8","0.0"],
    [1417289,"2026-06-20 06:20:00","54874","2.227","32.88","3.887","32.98","1018.813","25.8","57.23","224.2","0.0"],
    [1417290,"2026-06-20 06:30:00","54875","2.8930000000000002","35.6","4.377","34.4","1018.8689999999999","25.93","56.42","256.2","0.0"],
    [1417291,"2026-06-20 06:40:00","54876","3.2239999999999998","39.05","4.867","29.09","1018.933","25.99","55.89","286.6","0.0"],
    [1417292,"2026-06-20 06:50:00","54877","3.447","37.43","5.129","39.31","1019.06","26.15","55.42","317.9","0.0"],
    [1417293,"2026-06-20 07:00:00","54878","4.005","39.22","5.88","29.52","1019.2260000000001","26.29","55.34","350.6","0.0"],
    [1417294,"2026-06-20 07:10:00","54879","4.074","37.71","5.913","29.18","1019.2769999999999","26.46","54.76","382.9","0.0"],
    [1417295,"2026-06-20 07:20:00","54880","3.7310000000000003","38.06","6.141","23.98","1019.362","26.65","54.53","413.9","0.0"],
    [1417296,"2026-06-20 07:30:00","54881","4.131","33.21","6.337","39.7","1019.5039999999999","26.68","54.55","446.9","0.0"],
    [1417297,"2026-06-20 07:40:00","54882","4.367","41.13","5.913","36.44","1019.579","26.72","54.77","479.9","0.0"],
    [1417298,"2026-06-20 07:50:00","54883","4.093999999999999","48.67","5.88","35.05","1019.6489999999999","27.08","53.72","511.5","0.0"],
    [1417299,"2026-06-20 08:00:00","54884","4.218","45.56","6.239","33.55","1019.653","27.09","53.65","546.8","0.0"],
    [1417300,"2026-06-20 08:10:00","54885","3.61","40.81","5.553","34.6","1019.8610000000001","27.34","53.52","584.1","0.0"],
    [1417301,"2026-06-20 08:20:00","54886","4.189","63.35","5.684","62.22","1019.934","27.32","54.33","615.4","0.0"],
    [1417302,"2026-06-20 08:30:00","54887","4.117","63.3","5.913","55.94","1020.008","27.26","55.58","637.9","0.0"],
    [1417303,"2026-06-20 08:40:00","54888","4.357","64.64","5.651","58.95","1020.046","27.15","55.49","624.4","0.0"],
    [1417304,"2026-06-20 08:50:00","54889","3.752","68.26","5.031","77.29","1020.19","27.53","54.35","691.5","0.0"],
    [1417305,"2026-06-20 09:00:00","54890","4.346","68.14","5.847","71.87","1020.166","27.32","55.09","689.4","0.0"],
    [1417306,"2026-06-20 09:10:00","54891","4.178","55.2","6.239","49.67","1020.0989999999999","27.85","53.47","738.2","0.0"],
    [1417307,"2026-06-20 09:20:00","54892","4.23","53.74","6.207","35.86","1020.1089999999999","27.55","54.5","760.6","0.0"],
    [1417308,"2026-06-20 09:30:00","54893","4.088","55.98","5.586","47.54","1020.232","27.73","54.14","781.9","0.0"],
    [1417309,"2026-06-20 09:40:00","54894","4.032","61.91","5.455","64.89","1020.318","27.8","54.01","801.0","0.0"],
    [1417310,"2026-06-20 09:50:00","54895","4.074","65.25","5.586","73.78","1020.365","27.82","53.97","821.0","0.0"],
    [1417311,"2026-06-20 10:00:00","54896","3.447","59.51","4.9","69.82","1020.3489999999999","28.62","52.81","838.0","0.0"],
    [1417312,"2026-06-20 10:10:00","54897","3.5610000000000004","71.11","5.586","97.6","1020.4680000000001","28.28","53.1","854.0","0.0"],
    [1417313,"2026-06-20 10:20:00","54898","2.969","77.88","4.443","93.3","1020.561","28.65","51.07","868.0","0.0"],
    [1417314,"2026-06-20 10:30:00","54899","2.7510000000000003","70.66","3.92","84.3","1020.556","28.63","50.48","882.0","0.0"],
    [1417315,"2026-06-20 10:40:00","54900","2.839","76.69","3.887","93.2","1020.523","29.27","46.63","891.0","0.0"],
    [1417316,"2026-06-20 10:50:00","54901","2.5140000000000002","61.04","4.116","76.62","1020.557","29.75","43.8","904.0","0.0"],
    [1417317,"2026-06-20 11:00:00","54902","2.9539999999999997","70.68","4.279","69.53","1020.602","30.14","43.34","915.0","0.0"],
    [1417318,"2026-06-20 11:10:00","54903","4.135","74.79","5.553","68.9","1020.6260000000001","29.11","52.1","925.0","0.0"],
    [1417319,"2026-06-20 11:20:00","54904","5.319","71.25","6.795","88.2","1020.591","28.01","58.79","931.0","0.0"],
    [1417320,"2026-06-20 11:30:00","54905","4.5889999999999995","68.54","6.109","75.47","1020.6030000000001","28.0","58.95","935.0","0.0"],
    [1417321,"2026-06-20 11:40:00","54906","4.444","56.21","5.913","54.67","1020.569","28.64","55.22","942.0","0.0"],
    [1417322,"2026-06-20 11:50:00","54907","3.623","57.52","5.455","75.2","1020.613","29.19","48.31","943.0","0.0"],
    [1417323,"2026-06-20 12:00:00","54908","3.4189999999999996","62.68","5.357","80.2","1020.6569999999999","29.81","46.35","948.0","0.0"],
    [1417324,"2026-06-20 12:10:00","54909","3.531","58.75","5.063","55.52","1020.632","29.96","41.01","947.0","0.0"],
    [1417325,"2026-06-20 12:20:00","54910","3.9560000000000004","75.27","5.455","71.05","1020.5060000000001","30.1","38.8","943.0","0.0"],
    [1417326,"2026-06-20 12:30:00","54911","3.512","77.27","4.998","80.4","1020.513","30.02","38.41","938.0","0.0"],
    [1417327,"2026-06-20 12:40:00","54912","3.772","80.0","5.455","79.86","1020.48","30.04","37.97","936.0","0.0"],
    [1417328,"2026-06-20 12:50:00","54913","3.966","77.69","5.815","62.29","1020.472","29.9","37.97","925.0","0.0"],
    [1417329,"2026-06-20 13:00:00","54914","3.8169999999999997","77.02","5.815","83.8","1020.471","29.89","38.24","922.0","0.0"],
    [1417330,"2026-06-20 13:10:00","54915","4.144","76.13","6.207","89.1","1020.48","30.12","37.41","932.0","0.0"],
    [1417331,"2026-06-20 13:20:00","54916","4.333","78.08","6.076","91.4","1020.388","29.88","37.25","920.0","0.0"],
    [1417332,"2026-06-20 13:30:00","54917","4.572","78.4","6.435","78.75","1020.378","29.76","37.78","871.0","0.0"],
    [1417333,"2026-06-20 13:40:00","54918","4.843999999999999","68.68","6.501","60.42","1020.3789999999999","29.88","38.09","876.0","0.0"],
    [1417334,"2026-06-20 13:50:00","54919","4.816","68.72","6.435","70.82","1020.3639999999999","29.85","39.39","864.0","0.0"],
    [1417335,"2026-06-20 14:00:00","54920","4.531000000000001","72.5","6.174","81.2","1020.44","29.56","41.9","846.0","0.0"],
    [1417336,"2026-06-20 14:10:00","54921","4.4430000000000005","75.43","6.533","84.5","1020.4739999999999","29.77","41.82","830.0","0.0"],
    [1417337,"2026-06-20 14:20:00","54922","4.547","81.8","6.729","81.3","1020.5189999999999","29.57","42.23","814.0","0.0"],
    [1417338,"2026-06-20 14:30:00","54923","4.704","71.89","6.729","66.07","1020.549","29.46","42.87","797.5","0.0"],
    [1417339,"2026-06-20 14:40:00","54924","4.774","69.09","6.011","74.43","1020.553","29.16","44.81","772.5","0.0"],
    [1417340,"2026-06-20 14:50:00","54925","4.766","75.22","6.239","77.95","1020.5110000000001","28.87","44.72","746.5","0.0"],
    [1417341,"2026-06-20 15:00:00","54926","4.356","65.78","6.109","83.7","1020.4760000000001","29.29","42.57","718.9","0.0"],
    [1417342,"2026-06-20 15:10:00","54927","4.319","60.64","6.403","68.58","1020.456","29.74","40.78","691.3","0.0"],
    [1417343,"2026-06-20 15:20:00","54928","4.022","66.85","6.403","90.2","1020.385","30.07","38.65","632.4","0.0"],
    [1417344,"2026-06-20 15:30:00","54929","4.257","66.16","6.599","59.51","1020.332","29.89","40.27","633.7","0.0"],
    [1417345,"2026-06-20 15:40:00","54930","4.221","59.52","6.305","57.73","1020.296","29.7","40.22","583.8","0.0"],
    [1417346,"2026-06-20 15:50:00","54931","4.843","57.37","7.154","64.09","1020.2389999999999","29.73","38.04","559.6","0.0"],
    [1417347,"2026-06-20 16:00:00","54932","4.738","55.53","6.599","59.77","1020.188","29.63","38.37","546.1","0.0"],
    [1417348,"2026-06-20 16:10:00","54933","4.454","55.48","6.403","37.41","1020.189","29.67","39.22","516.0","0.0"],
    [1417349,"2026-06-20 16:20:00","54934","4.377","58.8","6.925","53.01","1020.122","29.53","39.24","484.2","0.0"],
    [1417350,"2026-06-20 16:30:00","54935","5.032","53.77","6.86","60.48","1020.102","29.25","39.65","451.8","0.0"],
    [1417351,"2026-06-20 16:40:00","54936","4.913","53.93","7.415","48.27","1019.936","29.23","40.92","421.6","0.0"],
    [1417352,"2026-06-20 16:50:00","54937","4.809","52.34","7.317","41.57","1019.8660000000001","28.97","43.44","391.7","0.0"],
    [1417353,"2026-06-20 17:00:00","54938","4.683","58.5","6.664","62.15","1019.8889999999999","28.79","44.77","360.1","0.0"],
    [1417354,"2026-06-20 17:10:00","54939","4.717","57.1","6.827","54.22","1019.926","28.75","43.97","329.5","0.0"],
    [1417355,"2026-06-20 17:20:00","54940","4.519","58.44","6.174","47.11","1019.938","28.64","45.04","298.2","0.0"],
    [1417356,"2026-06-20 17:30:00","54941","4.659","56.72","6.37","51.11","1020.049","28.46","45.47","264.1","0.0"],
    [1417357,"2026-06-20 17:40:00","54942","4.32","56.97","6.207","56.04","1020.128","28.39","44.13","228.6","0.0"],
    [1417358,"2026-06-20 17:50:00","54943","4.03","50.46","6.272","41.63","1020.159","28.49","43.2","197.8","0.0"],
    [1417359,"2026-06-20 18:00:00","54944","4.14","56.58","6.043","65.15","1020.2189999999999","28.39","43.27","169.9","0.0"],
    [1417360,"2026-06-20 18:10:00","54945","3.7769999999999997","56.31","5.717","56.77","1020.337","28.38","42.95","142.0","0.0"],
    [1417361,"2026-06-20 18:20:00","54946","3.5460000000000003","54.68","5.357","47.07","1020.347","28.2","43.57","114.6","0.0"],
    [1417362,"2026-06-20 18:30:00","54947","3.342","50.09","5.096","48.69","1020.456","28.18","42.85","91.4","0.0"],
    [1417363,"2026-06-20 18:40:00","54948","2.82","53.4","4.475","56.02","1020.5369999999999","28.12","42.5","68.02","0.0"],
    [1417364,"2026-06-20 18:50:00","54949","3.3539999999999996","60.66","4.704","56.58","1020.4739999999999","27.99","42.57","47.75","0.0"],
    [1417365,"2026-06-20 19:00:00","54950","2.897","56.49","4.051","49.09","1020.587","27.84","42.63","26.56","0.0"],
    [1417366,"2026-06-20 19:10:00","54951","2.2969999999999997","59.56","3.463","60.77","1020.6419999999999","27.79","42.59","10.43","0.0"],
    [1417367,"2026-06-20 19:20:00","54952","2.401","65.3","3.43","69.57","1020.742","27.64","44.36","3.301","0.0"],
    [1417368,"2026-06-20 19:30:00","54953","2.467","62.07","3.593","56.26","1020.79","27.37","45.12","0.19699999999999998","0.0"],
    [1417369,"2026-06-20 19:40:00","54954","2.747","66.06","3.724","62","1020.711","27.16","47.48","-1.516","0.0"],
    [1417370,"2026-06-20 19:50:00","54955","2.391","62.49","3.495","70.91","1020.791","26.92","50.3","-2.592","0.0"],
    [1417371,"2026-06-20 20:00:00","54956","2.3890000000000002","55.28","3.267","57.02","1020.8439999999999","26.7","51.41","-2.694","0.0"],
    [1417372,"2026-06-20 20:10:00","54957","2.6889999999999996","57.61","3.593","50.91","1020.812","26.83","49.36","-3.13","0.0"],
    [1417373,"2026-06-20 20:20:00","54958","2.596","61.23","3.855","61.75","1020.8960000000001","26.87","49.41","-2.821","0.0"],
    [1417374,"2026-06-20 20:30:00","54959","2.966","67.61","4.083","70.9","1020.8860000000001","26.76","53.56","-2.614","0.0"],
    [1417375,"2026-06-20 20:40:00","54960","3.1710000000000003","65.23","4.606","54.72","1020.86","26.58","54.98","-2.6039999999999996","0.0"],
    [1417376,"2026-06-20 20:50:00","54961","2.6860000000000004","62.86","4.181","54.37","1020.96","26.44","56.01","-2.595","0.0"],
    [1417377,"2026-06-20 21:00:00","54962","2.398","66.05","4.018","60.48","1021.118","26.44","54.81","-2.594","0.0"],
    [1417378,"2026-06-20 21:10:00","54963","1.835","62.77","2.711","75","1021.2719999999999","26.46","54.34","-2.593","0.0"],
    [1417379,"2026-06-20 21:20:00","54964","1.694","55.59","2.254","47.19","1021.421","26.21","55.53","-2.594","0.0"],
    [1417380,"2026-06-20 21:30:00","54965","1.608","62.72","2.189","61.87","1021.568","26.15","56.54","-2.594","0.0"],
    [1417381,"2026-06-20 21:40:00","54966","0.96","57.87","1.895","65.52","1021.697","25.79","57.59","-2.9139999999999997","0.0"],
    [1417382,"2026-06-20 21:50:00","54967","1.328","73.03","1.699","79.13","1021.6210000000001","25.58","59.6","-2.759","0.0"],
    [1417383,"2026-06-20 22:00:00","54968","1.385","58.9","1.927","59.93","1021.554","25.31","61.86","-2.622","0.0"],
    [1417384,"2026-06-20 22:10:00","54969","1.138","62.4","1.797","64.45","1021.6080000000001","25.35","61.72","-2.593","0.0"],
    [1417385,"2026-06-20 22:20:00","54970","1.287","39.61","1.993","32.09","1021.7460000000001","25.11","62.7","-2.63","0.0"],
    [1417386,"2026-06-20 22:30:00","54971","1.459","39.09","2.123","45.59","1021.725","25.56","59.84","-2.594","0.0"],
    [1417387,"2026-06-20 22:40:00","54972","2.2230000000000003","48.73","3.365","59.06","1021.5360000000001","25.81","57.17","-2.633","0.0"],
    [1417388,"2026-06-20 22:50:00","54973","2.281","48.77","3.593","52.97","1021.319","26.07","56.08","-2.595","0.0"],
    [1417389,"2026-06-20 23:00:00","54974","1.3559999999999999","38.53","2.221","43.54","1021.46","26.05","55.07","-2.594","0.0"],
    [1417390,"2026-06-20 23:10:00","54975","1.652","41.7","2.711","29.73","1021.3710000000001","26.03","54.78","-2.592","0.0"],
    [1417391,"2026-06-20 23:20:00","54976","1.483","26.97","1.993","13.52","1021.446","26.03","56.8","-2.535","0.0"],
    [1417392,"2026-06-20 23:30:00","54977","1.4","38.42","1.993","53.89","1021.3969999999999","25.94","57.06","-2.4659999999999997","0.0"],
    [1417393,"2026-06-20 23:40:00","54978","2.041","55.31","2.777","55.17","1021.321","26.11","53.73","-2.593","0.0"],
    [1417394,"2026-06-20 23:50:00","54979","1.196","34.51","1.731","28.58","1021.533","26.09","53.14","-2.593","0.0"],
    [1417395,"2026-06-21 00:00:00","54980","1.3319999999999999","345.1","2.319","340.1","1021.685","25.78","52.82","-2.595","0.0"],
    [1417396,"2026-06-21 00:10:00","54981","1.4669999999999999","343.6","3.136","339.2","1021.5160000000001","25.98","50.64","-2.593","0.0"],
    [1417397,"2026-06-21 00:20:00","54982","1.8019999999999998","320.3","3.038","337.6","1021.5310000000001","26.01","46.95","-2.6","0.0"],
    [1417398,"2026-06-21 00:30:00","54983","1.5619999999999998","317.9","2.973","309.1","1021.456","25.93","44.86","-2.593","0.0"],
    [1417399,"2026-06-21 00:40:00","54984","0.718","357.3","1.045","1.13","1021.365","25.76","45.18","-2.593","0.0"],
    [1417400,"2026-06-21 00:50:00","54985","0.639","39.08","1.111","12.31","1021.372","25.18","48.33","-2.595","0.0"],
    [1417401,"2026-06-21 01:00:00","54986","1.127","44.97","1.764","45.38","1021.3639999999999","25.24","47.99","-2.608","0.0"],
    [1417402,"2026-06-21 01:10:00","54987","1.371","77.23","1.993","78.47","1021.2339999999999","25.56","47.65","-2.615","0.0"],
    [1417403,"2026-06-21 01:20:00","54988","1.215","95.3","1.895","94.1","1021.171","25.22","52.01","-2.78","0.0"],
    [1417404,"2026-06-21 01:30:00","54989","1.318","82.0","1.895","86.1","1021.132","25.32","53.87","-2.7560000000000002","0.0"],
    [1417405,"2026-06-21 01:40:00","54990","0.44","92.4","1.372","81.1","1021.1160000000001","25.03","55.25","-2.81","0.0"],
    [1417406,"2026-06-21 01:50:00","54991","0.293","303.2","1.797","289.7","1021.204","24.31","58.57","-3.262","0.0"],
    [1417407,"2026-06-21 02:00:00","54992","0.504","268.5","1.764","266.6","1021.299","23.87","55.34","-3.096","0.0"],
    [1417408,"2026-06-21 02:10:00","54993","1.069","256.4","1.666","278","1021.3530000000001","24.56","49.43","-2.753","0.0"],
    [1417409,"2026-06-21 02:20:00","54994","0.746","266.4","1.731","246.3","1021.316","24.59","47.88","-2.623","0.0"],
    [1417410,"2026-06-21 02:30:00","54995","0.023","268.1","0.425","268.5","1021.2489999999999","23.96","50.39","-2.8110000000000004","0.0"],
    [1417411,"2026-06-21 02:40:00","54996","0.797","359.3","1.437","2.357","1021.165","23.54","52.25","-2.753","0.0"],
    [1417412,"2026-06-21 02:50:00","54997","0.86","9.68","1.47","1.082","1021.113","23.4","52.6","-2.665","0.0"],
    [1417413,"2026-06-21 03:00:00","54998","0.632","10.46","0.784","10.46","1021.077","23.38","52.87","-2.657","0.0"],
    [1417414,"2026-06-21 03:10:00","54999","0.107","7.156000000000001","0.653","353.6","1021.203","23.19","52.87","-2.6630000000000003","0.0"],
    [1417415,"2026-06-21 03:20:00","55000","1.087","266.8","1.96","274.1","1021.295","23.67","50.94","-2.657","0.0"],
    [1417416,"2026-06-21 03:30:00","55001","1.4769999999999999","248.2","2.287","258.7","1021.5310000000001","23.68","50.31","-2.662","0.0"],
    [1417417,"2026-06-21 03:40:00","55002","1.496","278.9","2.45","288.5","1021.618","23.64","51.06","-2.654","0.0"],
    [1417418,"2026-06-21 03:50:00","55003","0.5539999999999999","304.7","1.633","279.9","1021.568","22.66","54.62","-2.819","0.0"],
    [1417419,"2026-06-21 04:00:00","55004","0.637","289.5","1.535","275.1","1021.635","22.72","53.54","-2.6239999999999997","0.0"],
    [1417420,"2026-06-21 04:10:00","55005","1.139","294.2","2.515","295.4","1021.7439999999999","22.91","53.18","-0.698","0.0"],
    [1417421,"2026-06-21 04:20:00","55006","0.52","292.4","1.47","301.4","1021.872","22.84","52.71","1.765","0.0"],
    [1417422,"2026-06-21 04:30:00","55007","0.848","340.6","1.274","353.6","1021.812","22.73","53.82","5.392","0.0"],
    [1417423,"2026-06-21 04:40:00","55008","0.519","324.1","1.013","288","1021.967","22.63","53.48","14.7","0.0"],
    [1417424,"2026-06-21 04:50:00","55009","0.975","280.0","1.437","280.8","1022.0880000000001","23.09","52.51","26.61","0.0"],
    [1417425,"2026-06-21 05:00:00","55010","1.092","277.0","1.699","276","1022.145","23.33","51.41","40.09","0.0"],
    [1417426,"2026-06-21 05:10:00","55011","1.63","280.8","2.548","282.4","1022.279","23.69","50.07","57.43","0.0"],
    [1417427,"2026-06-21 05:20:00","55012","1.1079999999999999","275.3","1.764","279.8","1022.403","23.81","49.62","73.39","0.0"],
    [1417428,"2026-06-21 05:30:00","55013","0.764","282.9","1.339","291.2","1022.423","23.99","49.56","89.2","0.0"],
    [1417429,"2026-06-21 05:40:00","55014","0.268","275.0","1.143","275.8","1022.439","24.51","48.07","106.2","0.0"],
    [1417430,"2026-06-21 05:50:00","55015","0.11599999999999999","289.8","0.425","290.1","1022.3660000000001","25.04","47.35","132.0","0.0"],
    [1417431,"2026-06-21 06:00:00","55016","0.309","283.0","1.111","287.7","1022.368","25.52","46.54","166.7","0.0"],
    [1417432,"2026-06-21 06:10:00","55017","1.092","304.2","1.568","322.8","1022.432","26.1","43.98","194.0","0.0"],
    [1417433,"2026-06-21 06:20:00","55018","1.248","346.2","1.96","6.831","1022.38","26.86","41.36","224.1","0.0"],
    [1417434,"2026-06-21 06:30:00","55019","0.72","344.1","1.829","352.8","1022.475","27.62","39.67","250.7","0.0"],
    [1417435,"2026-06-21 06:40:00","55020","0.619","310.9","1.405","302.2","1022.573","28.32","38.29","278.9","0.0"],
    [1417436,"2026-06-21 06:50:00","55021","1.3019999999999998","302.3","1.895","281.1","1022.7330000000001","28.28","38.94","300.2","0.0"],
    [1417437,"2026-06-21 07:00:00","55022","0.9279999999999999","292.1","1.993","287.7","1022.799","27.95","39.49","337.0","0.0"],
    [1417438,"2026-06-21 07:10:00","55023","0.708","247.6","1.568","290.6","1022.773","28.59","38.72","364.9","0.0"],
    [1417439,"2026-06-21 07:20:00","55024","1.208","88.1","3.103","83.1","1022.763","29.41","37.02","404.7","0.0"],
    [1417440,"2026-06-21 07:30:00","55025","1.556","73.2","2.417","46.45","1022.87","29.3","37.55","437.1","0.0"],
    [1417441,"2026-06-21 07:40:00","55026","1.473","63.87","2.679","90.2","1022.918","29.54","37.46","474.5","0.0"],
    [1417442,"2026-06-21 07:50:00","55027","1.61","94.3","2.842","93.4","1022.8480000000001","29.64","36.82","515.7","0.0"],
    [1417443,"2026-06-21 08:00:00","55028","2.315","87.8","3.495","77.45","1022.817","29.55","37.45","552.1","0.0"],
    [1417444,"2026-06-21 08:10:00","55029","2.537","84.1","3.659","79.21","1022.794","29.54","37.1","588.0","0.0"],
    [1417445,"2026-06-21 08:20:00","55030","3.179","75.89","4.247","85.7","1022.806","29.61","36.55","615.0","0.0"],
    [1417446,"2026-06-21 08:30:00","55031","3.403","75.76","4.345","81.6","1022.79","29.61","36.35","639.2","0.0"],
    [1417447,"2026-06-21 08:40:00","55032","3.647","76.66","4.671","82.6","1022.765","29.67","36.51","637.4","0.0"],
    [1417448,"2026-06-21 08:50:00","55033","3.7119999999999997","73.96","5.031","74.84","1022.693","29.76","36.51","693.4","0.0"],
    [1417449,"2026-06-21 09:00:00","55034","3.8760000000000003","70.77","4.965","65.7","1022.627","29.57","37.17","692.3","0.0"],
    [1417450,"2026-06-21 09:10:00","55035","3.429","71.08","4.541","58.77","1022.581","30.01","36.58","743.9","0.0"],
    [1417451,"2026-06-21 09:20:00","55036","3.887","78.53","5.031","84.4","1022.548","29.8","36.53","765.9","0.0"],
    [1417452,"2026-06-21 09:30:00","55037","3.4810000000000003","75.49","4.41","71.7","1022.613","29.88","36.93","785.7","0.0"],
    [1417453,"2026-06-21 09:40:00","55038","3.0189999999999997","93.9","4.606","91.3","1022.698","29.93","37.12","804.0","0.0"],
    [1417454,"2026-06-21 09:50:00","55039","3.525","91.9","4.965","85","1022.6389999999999","29.64","37.54","824.0","0.0"],
    [1417455,"2026-06-21 10:00:00","55040","3.8789999999999996","92.0","5.586","90","1022.54","29.6","37.92","842.0","0.0"],
    [1417456,"2026-06-21 10:10:00","55041","3.4330000000000003","88.6","4.867","80.3","1022.488","29.72","38.86","858.0","0.0"],
    [1417457,"2026-06-21 10:20:00","55042","3.423","88.8","4.867","78.3","1022.558","29.75","38.68","875.0","0.0"],
    [1417458,"2026-06-21 10:30:00","55043","3.5069999999999997","81.7","4.998","85.8","1022.571","29.73","38.56","884.0","0.0"],
    [1417459,"2026-06-21 10:40:00","55044","3.4360000000000004","88.7","4.802","83.4","1022.558","29.73","39.41","897.0","0.0"],
    [1417460,"2026-06-21 10:50:00","55045","3.2430000000000003","93.1","4.671","88.7","1022.6039999999999","29.59","39.11","905.0","0.0"],
    [1417461,"2026-06-21 11:00:00","55046","3.554","96.9","4.835","83.1","1022.691","29.49","39.27","915.0","0.0"],
    [1417462,"2026-06-21 11:10:00","55047","4.01","95.6","5.455","102.5","1022.659","29.3","39.76","923.0","0.0"],
    [1417463,"2026-06-21 11:20:00","55048","4.1819999999999995","96.1","5.357","93.2","1022.6260000000001","29.29","41.32","921.0","0.0"],
    [1417464,"2026-06-21 11:30:00","55049","4.277","94.6","5.651","96.8","1022.6489999999999","28.96","43.66","933.0","0.0"],
    [1417465,"2026-06-21 11:40:00","55050","3.4330000000000003","95.0","5.161","92.5","1022.664","29.38","44.32","939.0","0.0"],
    [1417466,"2026-06-21 11:50:00","55051","3.0860000000000003","93.6","4.835","90.8","1022.6110000000001","29.43","47.03","941.0","0.0"],
    [1417467,"2026-06-21 12:00:00","55052","3.84","94.2","4.965","96.2","1022.638","28.89","49.46","943.0","0.0"],
    [1417468,"2026-06-21 12:10:00","55053","4.333","89.9","5.749","80.8","1022.632","28.79","50.21","932.0","0.0"],
    [1417469,"2026-06-21 12:20:00","55054","4.225","90.8","5.455","87.4","1022.707","28.61","51.23","929.0","0.0"],
    [1417470,"2026-06-21 12:30:00","55055","3.8939999999999997","96.5","4.998","89.4","1022.717","28.68","52.9","936.0","0.0"],
    [1417471,"2026-06-21 12:40:00","55056","4.3469999999999995","94.9","5.586","107.4","1022.68","28.34","55.91","931.0","0.0"],
    [1417472,"2026-06-21 12:50:00","55057","4.3260000000000005","93.7","5.978","85.2","1022.716","28.4","56.31","924.0","0.0"],
    [1417473,"2026-06-21 13:00:00","55058","4.437","97.6","6.141","104.5","1022.763","28.33","57.02","915.0","0.0"],
    [1417474,"2026-06-21 13:10:00","55059","3.9960000000000004","95.0","5.521","98","1022.832","28.21","59.53","902.0","0.0"],
    [1417475,"2026-06-21 13:20:00","55060","4.6610000000000005","86.5","6.043","93.3","1022.7660000000001","28.48","59.69","891.0","0.0"],
    [1417476,"2026-06-21 13:30:00","55061","4.5969999999999995","87.7","6.403","89.5","1022.758","28.13","61.68","874.0","0.0"],
    [1417477,"2026-06-21 13:40:00","55062","4.67","86.4","6.305","88.5","1022.7919999999999","28.19","62.25","865.0","0.0"],
    [1417478,"2026-06-21 13:50:00","55063","4.59","92.7","5.945","92.6","1022.784","27.86","63.51","849.0","0.0"],
    [1417479,"2026-06-21 14:00:00","55064","4.102","84.0","5.88","77.01","1022.69","28.23","62.71","832.0","0.0"],
    [1417480,"2026-06-21 14:10:00","55065","3.722","87.7","5.292","89.6","1022.716","28.21","62.23","810.0","0.0"],
    [1417481,"2026-06-21 14:20:00","55066","3.517","87.5","5.031","80","1022.7","28.2","63.41","788.7","0.0"],
    [1417482,"2026-06-21 14:30:00","55067","3.563","85.7","5.292","82.3","1022.633","28.32","62.56","768.9","0.0"],
    [1417483,"2026-06-21 14:40:00","55068","4.002","82.0","5.553","78.3","1022.6030000000001","28.26","63.05","751.3","0.0"],
    [1417484,"2026-06-21 14:50:00","55069","3.6460000000000004","77.52","5.031","92.1","1022.579","28.39","63.72","728.7","0.0"],
    [1417485,"2026-06-21 15:00:00","55070","3.7310000000000003","83.8","5.129","81.4","1022.564","28.31","63.01","703.6","0.0"],
    [1417486,"2026-06-21 15:10:00","55071","3.801","80.6","5.619","84.8","1022.5319999999999","28.35","63.64","676.8","0.0"],
    [1417487,"2026-06-21 15:20:00","55072","4.077","85.4","5.227","88.5","1022.448","28.15","65.8","622.5","0.0"],
    [1417488,"2026-06-21 15:30:00","55073","3.7260000000000004","78.4","5.357","83.3","1022.431","28.08","65.22","622.3","0.0"],
    [1417489,"2026-06-21 15:40:00","55074","3.447","75.8","4.671","75.93","1022.328","28.23","64.73","584.0","0.0"],
    [1417490,"2026-06-21 15:50:00","55075","3.3","79.81","4.475","70.89","1022.189","28.22","64.68","554.8","0.0"],
    [1417491,"2026-06-21 16:00:00","55076","3.272","74.9","4.573","77.93","1022.189","28.26","63.42","543.3","0.0"],
    [1417492,"2026-06-21 16:10:00","55077","2.7680000000000002","81.7","4.051","92.9","1022.096","28.3","63.04","517.4","0.0"],
    [1417493,"2026-06-21 16:20:00","55078","2.878","66.49","3.985","67.75","1022.057","28.26","63.22","502.5","0.0"],
    [1417494,"2026-06-21 16:30:00","55079","2.468","69.84","3.267","73.84","1021.9830000000001","28.34","62.48","469.0","0.0"],
    [1417495,"2026-06-21 16:40:00","55080","1.9609999999999999","73.71","3.724","81.8","1021.943","28.55","59.55","349.7","0.0"],
    [1417496,"2026-06-21 16:50:00","55081","2.1919999999999997","73.72","3.038","87.9","1021.9789999999999","28.35","57.36","303.1","0.0"],
    [1417497,"2026-06-21 17:00:00","55082","2.4659999999999997","70.72","3.299","84","1021.9989999999999","28.26","55.55","242.7","0.0"],
    [1417498,"2026-06-21 17:10:00","55083","2.845","79.07","3.691","82.8","1021.9580000000001","28.16","59.73","210.0","0.0"],
    [1417499,"2026-06-21 17:20:00","55084","2.904","74.68","3.691","82.8","1021.9630000000001","27.55","64.36","189.8","0.0"],
    [1417500,"2026-06-21 17:30:00","55085","3.156","77.49","4.018","94.4","1022.09","27.46","64.34","180.1","0.0"],
    [1417501,"2026-06-21 17:40:00","55086","2.903","74.6","3.887","70.58","1022.123","27.47","62.16","187.7","0.0"],
    [1417502,"2026-06-21 17:50:00","55087","2.411","71.57","3.299","85.5","1022.194","27.64","60.56","159.1","0.0"],
    [1417503,"2026-06-21 18:00:00","55088","2.867","77.43","3.626","71.35","1022.194","27.63","59.18","132.5","0.0"],
    [1417504,"2026-06-21 18:10:00","55089","2.647","79.4","3.169","89.5","1022.159","27.55","58.92","118.3","0.0"],
    [1417505,"2026-06-21 18:20:00","55090","2.252","66.97","3.005","62.22","1022.203","27.57","57.48","89.3","0.0"],
    [1417506,"2026-06-21 18:30:00","55091","2.2569999999999997","70.86","3.071","76.6","1022.2819999999999","27.51","56.79","68.8","0.0"],
    [1417507,"2026-06-21 18:40:00","55092","2.4530000000000003","73.4","3.169","68.99","1022.3760000000001","27.55","56.56","56.76","0.0"],
    [1417508,"2026-06-21 18:50:00","55093","2.399","68.19","3.463","69.9","1022.444","27.42","57.17","43.16","0.0"],
    [1417509,"2026-06-21 19:00:00","55094","2.298","63.06","3.495","55.17","1022.5360000000001","27.38","56.34","27.92","0.0"],
    [1417510,"2026-06-21 19:10:00","55095","1.9869999999999999","62.41","3.136","61.61","1022.5360000000001","27.37","55.27","19.01","0.0"],
    [1417511,"2026-06-21 19:20:00","55096","1.392","60.0","1.993","49.64","1022.545","27.27","54.77","12.46","0.0"],
    [1417512,"2026-06-21 19:30:00","55097","0.9570000000000001","33.02","1.96","39.58","1022.5939999999999","27.18","52.89","3.014","0.0"],
    [1417513,"2026-06-21 19:40:00","55098","0.722","37.17","1.633","2.035","1022.607","27.23","50.41","0.094","0.0"],
    [1417514,"2026-06-21 19:50:00","55099","0.047","100.3","1.111","112.9","1022.502","27.43","48.94","-2.4219999999999997","0.0"],
    [1417515,"2026-06-21 20:00:00","55100","0.943","90.9","1.633","83.2","1022.565","27.27","52.48","-2.781","0.0"],
    [1417516,"2026-06-21 20:10:00","55101","0.153","96.1","0.947","108.2","1022.5219999999999","26.76","54.14","-3.234","0.0"],
    [1417517,"2026-06-21 20:20:00","55102","0.545","161.0","1.731","158.3","1022.431","26.77","52.15","-3.3739999999999997","0.0"],
    [1417518,"2026-06-21 20:30:00","55103","0.019","147.2","0.49","139.7","1022.5160000000001","27.04","50.87","-2.963","0.0"],
    [1417519,"2026-06-21 20:40:00","55104","0.001","145.8","0.033","150","1022.447","26.65","51.71","-3.252","0.0"],
    [1417520,"2026-06-21 20:50:00","55105","0.0","0.0","0","0","1022.443","26.5","51.96","-2.8569999999999998","0.0"],
    [1417521,"2026-06-21 21:00:00","55106","1.3219999999999998","176.6","2.515","180.6","1022.297","27.06","47.08","-3.5869999999999997","0.0"],
    [1417522,"2026-06-21 21:10:00","55107","0.57","242.3","1.829","190.9","1022.3489999999999","27.45","43.92","-2.75","0.0"],
    [1417523,"2026-06-21 21:20:00","55108","0.5539999999999999","163.6","1.274","162.5","1022.308","27.31","44.2","-3.225","0.0"],
    [1417524,"2026-06-21 21:30:00","55109","1.3840000000000001","171.4","2.711","172.9","1022.2639999999999","27.26","45.82","-3.298","0.0"],
    [1417525,"2026-06-21 21:40:00","55110","1.501","186.9","2.777","179.7","1022.2289999999999","26.98","49.66","-2.938","0.0"],
    [1417526,"2026-06-21 21:50:00","55111","0.9229999999999999","197.0","1.503","203.8","1022.159","26.63","52.26","-3.3369999999999997","0.0"],
    [1417527,"2026-06-21 22:00:00","55112","0.48700000000000004","186.5","1.503","184.2","1022.186","26.51","54.74","-3.27","0.0"],
    [1417528,"2026-06-21 22:10:00","55113","0.0","60.85","0.033","60.85","1022.168","25.93","55.55","-3.364","0.0"],
    [1417529,"2026-06-21 22:20:00","55114","0.6779999999999999","262.9","1.176","259.5","1021.987","25.68","58.14","-3.3960000000000004","0.0"],
    [1417530,"2026-06-21 22:30:00","55115","1.153","265.2","1.797","268.8","1021.922","25.59","60.35","-2.841","0.0"],
    [1417531,"2026-06-21 22:40:00","55116","0.45799999999999996","283.2","0.947","275.5","1021.987","25.35","63.62","-2.733","0.0"],
    [1417532,"2026-06-21 22:50:00","55117","0.0","0.0","0","0","1021.936","24.97","64.25","-3.2560000000000002","0.0"],
    [1417533,"2026-06-21 23:00:00","55118","0.0","0.0","0","0","1021.903","24.91","63.52","-2.681","0.0"],
    [1417534,"2026-06-21 23:10:00","55119","0.001","289.3","0.033","289.3","1021.852","24.75","61.24","-2.602","0.0"],
    [1417535,"2026-06-21 23:20:00","55120","0.109","5.854","0.784","5.039","1021.791","24.8","61.16","-2.677","0.0"],
    [1417536,"2026-06-21 23:30:00","55121","0.0","0.0","0","0","1021.689","24.88","58.21","-2.6010000000000004","0.0"],
    [1417537,"2026-06-21 23:40:00","55122","0.38299999999999995","256.2","1.176","255.4","1021.592","24.88","58.0","-2.612","0.0"],
    [1417538,"2026-06-21 23:50:00","55123","0.604","258.3","1.045","257.4","1021.5010000000001","25.2","54.15","-2.6060000000000003","0.0"],
    [1417539,"2026-06-22 00:00:00","55124","0.381","245.5","1.045","264.3","1021.416","25.46","51.01","-2.614","0.0"],
    [1417540,"2026-06-22 00:10:00","55125","0.258","237.1","1.503","227.2","1021.3439999999999","25.38","50.47","-2.719","0.0"],
    [1417541,"2026-06-22 00:20:00","55126","1.121","256.2","2.025","268.4","1021.324","25.33","50.35","-2.615","0.0"],
    [1417542,"2026-06-22 00:30:00","55127","0.5770000000000001","265.2","1.339","263.8","1021.311","25.03","50.42","-2.6239999999999997","0.0"],
    [1417543,"2026-06-22 00:40:00","55128","0.963","267.7","1.437","277.6","1021.342","24.67","50.99","-2.68","0.0"],
    [1417544,"2026-06-22 00:50:00","55129","0.081","267.2","1.274","250.2","1021.302","24.52","50.78","-2.792","0.0"],
    [1417545,"2026-06-22 01:00:00","55130","0.8320000000000001","233.3","1.927","230.2","1021.258","24.69","49.56","-2.642","0.0"],
    [1417546,"2026-06-22 01:10:00","55131","1.485","235.0","2.287","237.6","1021.184","24.79","49.17","-2.616","0.0"],
    [1417547,"2026-06-22 01:20:00","55132","1.39","233.7","2.091","224.5","1021.071","24.6","50.0","-2.62","0.0"],
    [1417548,"2026-06-22 01:30:00","55133","1.104","233.9","1.96","238.9","1021.068","24.31","51.11","-2.62","0.0"],
    [1417549,"2026-06-22 01:40:00","55134","1.679","229.4","2.548","239.9","1021.118","24.08","51.84","-2.63","0.0"],
    [1417550,"2026-06-22 01:50:00","55135","1.858","234.3","2.907","271.9","1020.9730000000001","23.8","52.67","-2.6239999999999997","0.0"],
    [1417551,"2026-06-22 02:00:00","55136","1.474","253.6","3.038","264.9","1020.832","24.05","51.5","-2.623","0.0"],
    [1417552,"2026-06-22 02:10:00","55137","1.047","251.1","1.96","258.3","1020.7180000000001","23.99","51.38","-2.633","0.0"],
    [1417553,"2026-06-22 02:20:00","55138","1.113","256.2","2.221","267.5","1020.6669999999999","24.14","51.32","-2.642","0.0"],
    [1417554,"2026-06-22 02:30:00","55139","0.612","282.1","1.47","266.7","1020.5889999999999","23.61","53.29","-2.665","0.0"],
    [1417555,"2026-06-22 02:40:00","55140","0.294","277.8","1.013","274.6","1020.556","23.35","53.53","-2.985","0.0"],
    [1417556,"2026-06-22 02:50:00","55141","0.22","261.6","0.882","257.6","1020.4810000000001","23.7","52.29","-2.657","0.0"],
    [1417557,"2026-06-22 03:00:00","55142","0.941","263.4","1.862","279.7","1020.3689999999999","23.92","51.3","-2.685","0.0"],
    [1417558,"2026-06-22 03:10:00","55143","1.188","280.2","1.731","268.1","1020.3739999999999","23.85","51.86","-2.655","0.0"],
    [1417559,"2026-06-22 03:20:00","55144","0.855","257.7","1.601","237.4","1020.328","23.25","53.88","-2.819","0.0"],
    [1417560,"2026-06-22 03:30:00","55145","0.938","246.7","1.764","270.5","1020.346","23.54","52.69","-2.693","0.0"],
    [1417561,"2026-06-22 03:40:00","55146","1.077","244.6","1.568","268.2","1020.3660000000001","23.54","53.03","-2.665","0.0"],
    [1417562,"2026-06-22 03:50:00","55147","1.068","261.7","2.156","271.5","1020.32","23.28","54.01","-2.6660000000000004","0.0"],
    [1417563,"2026-06-22 04:00:00","55148","1.455","260.0","2.548","268.7","1020.284","23.0","55.86","-2.6439999999999997","0.0"],
    [1417564,"2026-06-22 04:10:00","55149","1.218","262.1","2.123","264.2","1020.265","22.88","56.08","-1.9269999999999998","0.0"],
    [1417565,"2026-06-22 04:20:00","55150","1.0290000000000001","267.1","2.189","279.4","1020.2710000000001","22.79","56.25","-0.14300000000000002","0.0"],
    [1417566,"2026-06-22 04:30:00","55151","2.083","273.4","3.757","279.8","1020.203","22.86","55.64","2.95","0.0"],
    [1417567,"2026-06-22 04:40:00","55152","1.732","275.4","3.038","265.1","1020.19","22.84","55.29","9.51","0.0"],
    [1417568,"2026-06-22 04:50:00","55153","1.548","263.6","3.136","268.5","1020.173","23.18","53.91","19.68","0.0"],
    [1417569,"2026-06-22 05:00:00","55154","1.4509999999999998","262.8","3.136","263.4","1020.055","23.55","52.29","31.79","0.0"],
    [1417570,"2026-06-22 05:10:00","55155","1.68","269.3","2.809","260.7","1020.04","23.65","51.5","47.03","0.0"],
    [1417571,"2026-06-22 05:20:00","55156","1.4709999999999999","253.4","2.515","239.6","1020.034","23.84","50.48","63.04","0.0"],
    [1417572,"2026-06-22 05:30:00","55157","1.207","250.2","2.417","276.6","1020.0419999999999","24.04","50.04","80.9","0.0"],
    [1417573,"2026-06-22 05:40:00","55158","1.439","247.0","3.136","235.2","1019.9989999999999","24.43","48.17","101.8","0.0"],
    [1417574,"2026-06-22 05:50:00","55159","1.2919999999999998","254.3","3.103","275.6","1019.948","24.83","46.98","122.7","0.0"],
    [1417575,"2026-06-22 06:00:00","55160","1.344","255.7","3.234","275.6","1019.931","25.13","46.35","150.6","0.0"],
    [1417576,"2026-06-22 06:10:00","55161","1.129","262.7","2.352","292.3","1019.951","25.52","45.28","176.9","0.0"],
    [1417577,"2026-06-22 06:20:00","55162","1.8359999999999999","281.2","3.103","294.8","1019.942","25.72","44.79","205.9","0.0"],
    [1417578,"2026-06-22 06:30:00","55163","1.219","265.3","2.254","267.6","1019.95","26.2","43.76","234.7","0.0"],
    [1417579,"2026-06-22 06:40:00","55164","1.3230000000000002","243.0","2.548","269","1019.97","27.23","40.71","263.8","0.0"],
    [1417580,"2026-06-22 06:50:00","55165","1.162","236.6","2.548","227.6","1020.069","27.84","39.22","295.6","0.0"],
    [1417581,"2026-06-22 07:00:00","55166","0.68","235.2","1.405","235.1","1020.2330000000001","28.62","37.76","324.3","0.0"],
    [1417582,"2026-06-22 07:10:00","55167","0.855","241.2","1.829","228.1","1020.2610000000001","29.0","36.86","352.4","0.0"],
    [1417583,"2026-06-22 07:20:00","55168","1.5019999999999998","218.4","2.515","208.3","1020.278","29.25","36.15","384.5","0.0"],
    [1417584,"2026-06-22 07:30:00","55169","1.36","229.7","2.319","244.1","1020.2130000000001","29.21","36.12","417.2","0.0"],
    [1417585,"2026-06-22 07:40:00","55170","2.017","209.4","3.038","188.2","1020.154","29.52","35.71","450.6","0.0"],
    [1417586,"2026-06-22 07:50:00","55171","2.109","211.9","3.169","210.5","1020.069","29.41","39.43","484.3","0.0"],
    [1417587,"2026-06-22 08:00:00","55172","1.7890000000000001","216.2","2.973","211.9","1019.953","29.65","46.2","514.8","0.0"],
    [1417588,"2026-06-22 08:10:00","55173","1.445","200.1","3.005","238.4","1019.903","30.09","48.35","547.1","0.0"],
    [1417589,"2026-06-22 08:20:00","55174","2.2680000000000002","201.2","5.129","186.8","1019.845","30.5","45.87","576.9","0.0"],
    [1417590,"2026-06-22 08:30:00","55175","2.377","204.8","4.247","206.2","1019.791","30.61","42.59","605.1","0.0"],
    [1417591,"2026-06-22 08:40:00","55176","2.214","216.6","4.377","207.5","1019.7130000000001","31.14","40.13","608.8","0.0"],
    [1417592,"2026-06-22 08:50:00","55177","2.866","216.8","5.619","222.3","1019.6410000000001","31.57","36.08","662.1","0.0"],
    [1417593,"2026-06-22 09:00:00","55178","3.326","214.9","5.521","217.3","1019.6060000000001","32.12","32.54","666.6","0.0"],
    [1417594,"2026-06-22 09:10:00","55179","2.866","213.1","5.586","209.4","1019.6419999999999","32.46","31.72","715.4","0.0"],
    [1417595,"2026-06-22 09:20:00","55180","3.4810000000000003","212.7","6.272","216.8","1019.712","31.89","33.81","739.3","0.0"],
    [1417596,"2026-06-22 09:30:00","55181","2.7439999999999998","207.7","6.109","211.6","1019.788","31.37","39.99","761.6","0.0"],
    [1417597,"2026-06-22 09:40:00","55182","2.394","204.3","4.802","208.2","1019.823","31.27","43.01","782.4","0.0"],
    [1417598,"2026-06-22 09:50:00","55183","2.681","203.7","4.867","225.5","1019.8380000000001","31.32","43.38","803.0","0.0"],
    [1417599,"2026-06-22 10:00:00","55184","2.31","197.0","4.475","184.5","1019.768","31.32","44.39","820.0","0.0"],
    [1417600,"2026-06-22 10:10:00","55185","2.352","199.3","5.129","212.2","1019.7260000000001","31.66","41.36","838.0","0.0"],
    [1417601,"2026-06-22 10:20:00","55186","2.569","194.7","5.586","190.8","1019.712","31.93","39.91","856.0","0.0"],
    [1417602,"2026-06-22 10:30:00","55187","2.8369999999999997","200.0","6.174","206.7","1019.7610000000001","32.64","35.47","871.0","0.0"],
    [1417603,"2026-06-22 10:40:00","55188","3.636","201.3","6.729","207.6","1019.797","32.37","36.84","885.0","0.0"],
    [1417604,"2026-06-22 10:50:00","55189","4.322","206.9","8.53","210.9","1019.8610000000001","32.39","36.92","894.0","0.0"],
    [1417605,"2026-06-22 11:00:00","55190","3.2439999999999998","202.5","5.684","219.8","1019.923","32.15","40.85","903.0","0.0"],
    [1417606,"2026-06-22 11:10:00","55191","3.9219999999999997","206.9","6.925","215.4","1019.8910000000001","31.8","42.2","911.0","0.0"],
    [1417607,"2026-06-22 11:20:00","55192","4.882","209.9","8.23","202.1","1019.805","31.74","42.14","918.0","0.0"],
    [1417608,"2026-06-22 11:30:00","55193","5.129","211.3","8.43","225.3","1019.7710000000001","31.56","41.68","921.0","0.0"],
    [1417609,"2026-06-22 11:40:00","55194","4.176","209.8","8.92","228","1019.7239999999999","31.93","36.95","924.0","0.0"],
    [1417610,"2026-06-22 11:50:00","55195","4.887","216.7","8.13","218.5","1019.628","32.54","36.15","929.0","0.0"],
    [1417611,"2026-06-22 12:00:00","55196","5.1339999999999995","216.2","8.56","197.7","1019.535","32.42","35.59","932.0","0.0"],
    [1417612,"2026-06-22 12:10:00","55197","4.877","213.1","8.07","200.8","1019.425","32.38","36.35","929.0","0.0"],
    [1417613,"2026-06-22 12:20:00","55198","4.0760000000000005","211.2","7.252","243.9","1019.4169999999999","32.1","39.66","925.0","0.0"],
    [1417614,"2026-06-22 12:30:00","55199","4.183","212.2","6.729","223.2","1019.3969999999999","31.43","44.06","923.0","0.0"],
    [1417615,"2026-06-22 12:40:00","55200","4.368","211.5","7.546","206.4","1019.3589999999999","31.15","46.81","915.0","0.0"],
    [1417616,"2026-06-22 12:50:00","55201","3.593","207.9","6.893","199.6","1019.288","31.43","45.36","906.0","0.0"],
    [1417617,"2026-06-22 13:00:00","55202","4.071000000000001","213.1","6.958","211.7","1019.2539999999999","31.68","41.64","902.0","0.0"],
    [1417618,"2026-06-22 13:10:00","55203","3.8160000000000003","213.7","6.991","223.1","1019.242","31.9","38.6","895.0","0.0"],
    [1417619,"2026-06-22 13:20:00","55204","3.194","209.1","6.109","229.8","1019.187","32.15","39.58","881.0","0.0"],
    [1417620,"2026-06-22 13:30:00","55205","3.878","212.6","5.978","194.2","1019.128","31.88","40.01","867.0","0.0"],
    [1417621,"2026-06-22 13:40:00","55206","3.641","209.3","6.795","214.1","1019.2460000000001","32.08","39.53","858.0","0.0"],
    [1417622,"2026-06-22 13:50:00","55207","3.872","211.0","6.468","212.9","1019.3539999999999","31.84","40.23","843.0","0.0"],
    [1417623,"2026-06-22 14:00:00","55208","2.6439999999999997","206.5","5.684","216.5","1019.318","32.69","37.03","823.0","0.0"],
    [1417624,"2026-06-22 14:10:00","55209","4.247","213.2","6.403","231.5","1019.2489999999999","32.63","35.29","808.0","0.0"],
    [1417625,"2026-06-22 14:20:00","55210","3.502","212.4","6.174","198.4","1019.1060000000001","32.87","34.05","789.9","0.0"],
    [1417626,"2026-06-22 14:30:00","55211","3.31","192.2","5.292","174.6","1019.025","32.73","35.89","776.3","0.0"],
    [1417627,"2026-06-22 14:40:00","55212","3.18","190.6","5.488","214.7","1018.9169999999999","32.02","40.85","764.4","0.0"],
    [1417628,"2026-06-22 14:50:00","55213","2.989","195.1","5.292","179.2","1018.8960000000001","31.72","42.45","739.4","0.0"],
    [1417629,"2026-06-22 15:00:00","55214","3.361","182.4","5.488","191.5","1018.814","30.88","47.31","702.0","0.0"],
    [1417630,"2026-06-22 15:10:00","55215","3.012","187.0","5.39","185.5","1018.831","30.57","50.06","658.5","0.0"],
    [1417631,"2026-06-22 15:20:00","55216","2.9139999999999997","189.5","4.802","183.7","1018.8739999999999","30.29","48.74","554.3","0.0"],
    [1417632,"2026-06-22 15:30:00","55217","2.441","185.8","4.475","190","1018.802","30.82","48.12","442.8","0.0"],
    [1417633,"2026-06-22 15:40:00","55218","2.932","180.7","5.063","179.2","1018.778","29.52","50.45","327.5","0.0"],
    [1417634,"2026-06-22 15:50:00","55219","3.091","185.3","5.749","181","1018.812","29.31","51.22","300.5","0.0"],
    [1417635,"2026-06-22 16:00:00","55220","2.909","179.9","4.9","170.8","1018.758","28.95","53.13","258.8","0.0"],
    [1417636,"2026-06-22 16:10:00","55221","2.658","190.4","4.214","188.3","1018.778","28.9","53.9","295.4","0.0"],
    [1417637,"2026-06-22 16:20:00","55222","2.407","194.2","3.822","206","1018.7639999999999","29.45","49.58","264.4","0.0"],
    [1417638,"2026-06-22 16:30:00","55223","2.733","188.3","5.357","174.7","1018.6210000000001","29.28","48.27","220.4","0.0"],
    [1417639,"2026-06-22 16:40:00","55224","2.6910000000000003","188.2","4.769","171","1018.595","28.94","49.52","266.5","0.0"],
    [1417640,"2026-06-22 16:50:00","55225","3.096","184.2","5.096","176.2","1018.45","29.26","49.13","379.3","0.0"],
    [1417641,"2026-06-22 17:00:00","55226","2.94","185.3","5.325","197.6","1018.4019999999999","29.15","50.3","351.5","0.0"],
    [1417642,"2026-06-22 17:10:00","55227","2.676","187.1","4.835","176","1018.422","29.21","52.02","310.8","0.0"],
    [1417643,"2026-06-22 17:20:00","55228","2.5660000000000003","205.1","4.737","183.9","1018.565","28.96","54.09","238.8","0.0"],
    [1417644,"2026-06-22 17:30:00","55229","2.8810000000000002","183.1","4.9","177.6","1018.591","28.52","57.2","240.9","0.0"],
    [1417645,"2026-06-22 17:40:00","55230","3.215","180.7","5.031","193.9","1018.525","28.27","58.64","228.1","0.0"],
    [1417646,"2026-06-22 17:50:00","55231","3.5610000000000004","181.5","5.325","171.6","1018.568","28.19","59.67","235.7","0.0"],
    [1417647,"2026-06-22 18:00:00","55232","4.079","185.1","5.978","188.3","1018.441","27.97","61.65","211.4","0.0"],
    [1417648,"2026-06-22 18:10:00","55233","2.6510000000000002","191.7","5.063","181","1018.53","27.97","63.12","174.9","0.0"],
    [1417649,"2026-06-22 18:20:00","55234","2.432","190.1","4.377","184","1018.706","28.07","61.87","97.2","0.0"],
    [1417650,"2026-06-22 18:30:00","55235","3.0380000000000003","188.9","5.259","167.1","1018.6610000000001","27.39","68.11","65.85","0.0"],
    [1417651,"2026-06-22 18:40:00","55236","2.432","190.0","4.704","183.6","1018.529","27.28","67.89","70.53","0.0"],
    [1417652,"2026-06-22 18:50:00","55237","2.11","196.6","4.671","175","1018.5160000000001","27.22","67.83","52.06","0.0"],
    [1417653,"2026-06-22 19:00:00","55238","2.055","206.4","4.018","232.2","1018.466","27.17","67.88","31.42","0.0"],
    [1417654,"2026-06-22 19:10:00","55239","2.124","206.3","4.312","231.1","1018.444","27.06","69.01","19.01","0.0"],
    [1417655,"2026-06-22 19:20:00","55240","2.428","218.2","4.377","240.9","1018.488","26.85","70.3","9.2","0.0"],
    [1417656,"2026-06-22 19:30:00","55241","2.9339999999999997","223.4","5.031","212.9","1018.4989999999999","26.73","69.5","2.199","0.0"],
    [1417657,"2026-06-22 19:40:00","55242","3.073","214.8","5.684","215","1018.431","26.67","69.22","-0.873","0.0"],
    [1417658,"2026-06-22 19:50:00","55243","2.093","213.9","4.181","240","1018.418","26.64","68.81","-2.3609999999999998","0.0"],
    [1417659,"2026-06-22 20:00:00","55244","2.782","215.9","4.181","218.8","1018.413","26.55","70.67","-2.597","0.0"],
    [1417660,"2026-06-22 20:10:00","55245","2.013","207.8","4.083","216.9","1018.453","26.48","71.54","-2.64","0.0"],
    [1417661,"2026-06-22 20:20:00","55246","2.235","212.9","4.018","223.3","1018.577","26.38","75.16","-2.965","0.0"],
    [1417662,"2026-06-22 20:30:00","55247","1.706","205.3","3.071","220.8","1018.706","26.27","75.62","-2.7739999999999996","0.0"],
    [1417663,"2026-06-22 20:40:00","55248","1.324","194.5","2.907","176.2","1018.817","26.11","77.5","-3.2710000000000004","0.0"],
    [1417664,"2026-06-22 20:50:00","55249","1.94","188.4","3.92","185.1","1018.962","26.04","78.76","-2.9939999999999998","0.0"],
    [1417665,"2026-06-22 21:00:00","55250","2.529","186.8","3.822","182.8","1019.0039999999999","26.03","80.7","-2.612","0.0"],
    [1417666,"2026-06-22 21:10:00","55251","2.103","207.7","3.332","198.6","1018.878","25.89","82.0","-2.625","0.0"],
    [1417667,"2026-06-22 21:20:00","55252","1.936","213.3","3.201","239.6","1018.8919999999999","25.77","80.5","-2.798","0.0"],
    [1417668,"2026-06-22 21:30:00","55253","1.994","233.2","3.626","217.4","1018.857","25.77","78.64","-2.6","0.0"],
    [1417669,"2026-06-22 21:40:00","55254","1.786","229.4","3.365","224.2","1018.742","25.61","78.63","-2.6239999999999997","0.0"],
    [1417670,"2026-06-22 21:50:00","55255","2.255","228.6","3.822","235.4","1018.618","25.61","79.09","-2.61","0.0"],
    [1417671,"2026-06-22 22:00:00","55256","2.274","222.4","3.626","231.4","1018.5360000000001","25.71","78.1","-2.608","0.0"],
    [1417672,"2026-06-22 22:10:00","55257","2.0469999999999997","229.8","3.953","223.6","1018.566","25.67","78.1","-2.5989999999999998","0.0"],
    [1417673,"2026-06-22 22:20:00","55258","1.26","231.7","2.156","229.9","1018.559","25.45","78.17","-2.616","0.0"],
    [1417674,"2026-06-22 22:30:00","55259","0.873","249.5","2.123","225.3","1018.5239999999999","25.39","78.28","-2.8080000000000003","0.0"],
    [1417675,"2026-06-22 22:40:00","55260","0.774","263.4","1.47","275.3","1018.568","25.25","79.12","-3.0989999999999998","0.0"],
    [1417676,"2026-06-22 22:50:00","55261","1.012","243.5","2.287","225.5","1018.449","25.16","80.1","-3.185","0.0"],
    [1417677,"2026-06-22 23:00:00","55262","1.246","230.5","2.352","247.3","1018.308","25.21","80.5","-2.7310000000000003","0.0"],
    [1417678,"2026-06-22 23:10:00","55263","0.7929999999999999","256.9","1.829","249.4","1018.177","25.01","82.3","-2.967","0.0"],
    [1417679,"2026-06-22 23:20:00","55264","0.784","250.4","1.568","258.1","1018.035","24.89","83.8","-2.968","0.0"],
    [1417680,"2026-06-22 23:30:00","55265","0.644","239.7","1.372","237","1017.952","24.88","84.0","-2.7880000000000003","0.0"],
    [1417681,"2026-06-22 23:40:00","55266","0.757","273.7","1.503","278.8","1017.914","24.86","84.3","-2.8739999999999997","0.0"],
    [1417682,"2026-06-22 23:50:00","55267","0.867","261.5","1.405","267.4","1017.908","24.77","84.7","-2.72","0.0"],
    [1417683,"2026-06-23 00:00:00","55268","0.7929999999999999","267.0","1.764","252.1","1017.8989999999999","24.8","85.0","-2.678","0.0"],
    [1417684,"2026-06-23 00:10:00","55269","0.9890000000000001","231.8","1.895","235.2","1017.813","24.83","84.5","-2.6839999999999997","0.0"],
    [1417685,"2026-06-23 00:20:00","55270","1.2570000000000001","232.0","2.025","239.4","1017.745","24.97","83.1","-2.61","0.0"],
    [1417686,"2026-06-23 00:30:00","55271","1.742","231.3","2.515","215.9","1017.701","25.04","82.1","-2.602","0.0"],
    [1417687,"2026-06-23 00:40:00","55272","1.6469999999999998","231.1","2.842","242.1","1017.561","25.01","80.7","-2.594","0.0"],
    [1417688,"2026-06-23 00:50:00","55273","1.0859999999999999","253.1","2.189","232.7","1017.539","24.68","76.97","-2.594","0.0"],
    [1417689,"2026-06-23 01:00:00","55274","0.867","240.6","2.058","252.7","1017.5930000000001","24.49","71.32","-2.662","0.0"],
    [1417690,"2026-06-23 01:10:00","55275","1.609","235.3","2.777","244.3","1017.502","24.71","66.97","-2.613","0.0"],
    [1417691,"2026-06-23 01:20:00","55276","1.8159999999999998","235.6","3.169","257.3","1017.306","24.98","64.83","-2.597","0.0"],
    [1417692,"2026-06-23 01:30:00","55277","1.389","259.6","2.809","304.5","1017.3380000000001","24.7","64.27","-2.593","0.0"],
    [1417693,"2026-06-23 01:40:00","55278","1.4080000000000001","242.9","2.973","251.4","1017.3330000000001","24.33","63.13","-2.6","0.0"],
    [1417694,"2026-06-23 01:50:00","55279","1.3119999999999998","247.3","2.581","284.2","1017.294","24.2","61.16","-2.596","0.0"],
    [1417695,"2026-06-23 02:00:00","55280","1.015","248.3","2.254","226.8","1017.331","24.08","60.48","-2.61","0.0"],
    [1417696,"2026-06-23 02:10:00","55281","1.348","233.8","2.515","236.9","1017.312","24.03","59.82","-2.6039999999999996","0.0"],
    [1417697,"2026-06-23 02:20:00","55282","1.3159999999999998","242.7","2.352","256.2","1017.252","24.02","59.38","-2.615","0.0"],
    [1417698,"2026-06-23 02:30:00","55283","0.943","248.2","1.731","257.9","1017.2260000000001","24.07","58.82","-2.655","0.0"],
    [1417699,"2026-06-23 02:40:00","55284","1.0490000000000002","241.8","1.993","236.3","1017.211","24.05","58.29","-2.6310000000000002","0.0"],
    [1417700,"2026-06-23 02:50:00","55285","1.1909999999999998","242.6","2.515","235.7","1017.2310000000001","24.1","57.67","-2.7039999999999997","0.0"],
    [1417701,"2026-06-23 03:00:00","55286","1.685","241.1","3.495","264.4","1017.178","24.31","55.68","-2.65","0.0"],
    [1417702,"2026-06-23 03:10:00","55287","1.67","236.6","2.842","261.8","1017.17","24.38","54.4","-2.679","0.0"],
    [1417703,"2026-06-23 03:20:00","55288","1.486","239.9","2.613","243.7","1017.091","24.35","54.14","-2.64","0.0"],
    [1417704,"2026-06-23 03:30:00","55289","1.287","260.3","2.254","287","1017.1360000000001","24.24","54.27","-2.634","0.0"],
    [1417705,"2026-06-23 03:40:00","55290","1.263","266.3","2.842","255.4","1017.079","24.05","54.55","-2.642","0.0"],
    [1417706,"2026-06-23 03:50:00","55291","1.645","271.1","2.515","293.8","1017.039","23.84","55.05","-2.639","0.0"],
    [1417707,"2026-06-23 04:00:00","55292","1.568","279.4","2.45","287","1016.998","23.61","55.65","-2.6319999999999997","0.0"],
    [1417708,"2026-06-23 04:10:00","55293","1.4","277.6","2.221","274.4","1017.04","23.24","56.82","-1.4409999999999998","0.0"],
    [1417709,"2026-06-23 04:20:00","55294","1.432","284.9","2.221","277.4","1017.0219999999999","23.07","57.36","2.09","0.0"],
    [1417710,"2026-06-23 04:30:00","55295","1.443","294.5","2.352","290.6","1017.0939999999999","22.78","58.14","7.64","0.0"],
    [1417711,"2026-06-23 04:40:00","55296","0.515","295.0","1.045","315.2","1017.23","22.54","59.24","18.3","0.0"],
    [1417712,"2026-06-23 04:50:00","55297","0.24","300.9","0.915","322.3","1017.2719999999999","22.93","58.24","33.25","0.0"],
    [1417713,"2026-06-23 05:00:00","55298","0.21100000000000002","315.0","1.045","299.2","1017.2139999999999","23.47","56.91","49.58","0.0"],
    [1417714,"2026-06-23 05:10:00","55299","0.348","290.0","1.013","298.4","1017.2339999999999","23.96","55.93","65.16","0.0"],
    [1417715,"2026-06-23 05:20:00","55300","0.7659999999999999","270.7","2.091","281.7","1017.2539999999999","24.48","53.11","79.2","0.0"],
    [1417716,"2026-06-23 05:30:00","55301","1.5519999999999998","279.0","1.993","274.7","1017.2639999999999","24.34","52.72","95.8","0.0"],
    [1417717,"2026-06-23 05:40:00","55302","1.449","272.1","2.123","270.4","1017.1519999999999","24.73","51.91","115.8","0.0"],
    [1417718,"2026-06-23 05:50:00","55303","1.4480000000000002","276.0","2.613","293.2","1017.1060000000001","25.14","51.37","133.8","0.0"],
    [1417719,"2026-06-23 06:00:00","55304","1.4280000000000002","284.0","2.025","287.7","1017.187","25.54","50.89","166.4","0.0"],
    [1417720,"2026-06-23 06:10:00","55305","1.246","272.6","2.287","266","1017.22","26.11","49.27","194.3","0.0"],
    [1417721,"2026-06-23 06:20:00","55306","0.263","198.3","0.882","215.1","1017.268","26.77","47.93","224.4","0.0"],
    [1417722,"2026-06-23 06:30:00","55307","0.185","295.7","0.882","353.4","1017.335","27.33","47.01","254.6","0.0"],
    [1417723,"2026-06-23 06:40:00","55308","0.281","25.13","1.503","89.6","1017.3539999999999","28.19","46.67","284.9","0.0"],
    [1417724,"2026-06-23 06:50:00","55309","1.611","79.59","2.385","66.23","1017.321","28.07","48.04","320.2","0.0"],
    [1417725,"2026-06-23 07:00:00","55310","1.742","84.7","3.495","94.8","1017.2860000000001","27.57","51.84","354.9","0.0"],
    [1417726,"2026-06-23 07:10:00","55311","2.92","72.72","4.475","78.56","1017.315","27.47","54.96","390.0","0.0"],
    [1417727,"2026-06-23 07:20:00","55312","3.3789999999999996","66.55","4.704","57.38","1017.387","27.73","56.32","426.1","0.0"],
    [1417728,"2026-06-23 07:30:00","55313","3.662","65.72","5.227","62.6","1017.426","27.51","60.77","459.3","0.0"],
    [1417729,"2026-06-23 07:40:00","55314","3.946","61.28","5.357","66.72","1017.555","27.15","69.58","491.9","0.0"],
    [1417730,"2026-06-23 07:50:00","55315","3.1689999999999996","64.58","4.835","69.29","1017.498","27.25","70.89","527.9","0.0"],
    [1417731,"2026-06-23 08:00:00","55316","3.2439999999999998","71.43","4.671","95.1","1017.55","27.6","70.01","562.1","0.0"],
    [1417732,"2026-06-23 08:10:00","55317","3.782","70.1","4.9","70.29","1017.584","27.17","73.75","597.2","0.0"],
    [1417733,"2026-06-23 08:20:00","55318","4.113","63.38","5.619","50.98","1017.596","26.73","79.03","629.4","0.0"],
    [1417734,"2026-06-23 08:30:00","55319","3.9389999999999996","62.43","5.586","68.09","1017.602","26.9","80.1","658.0","0.0"],
    [1417735,"2026-06-23 08:40:00","55320","3.447","64.7","5.096","84.6","1017.574","27.02","79.71","647.1","0.0"],
    [1417736,"2026-06-23 08:50:00","55321","3.963","68.57","5.129","79.13","1017.549","27.0","80.7","711.9","0.0"],
    [1417737,"2026-06-23 09:00:00","55322","3.861","63.58","5.325","83.2","1017.48","27.07","80.8","701.6","0.0"],
    [1417738,"2026-06-23 09:10:00","55323","4.223","72.9","5.651","78.5","1017.4069999999999","27.04","80.5","757.7","0.0"],
    [1417739,"2026-06-23 09:20:00","55324","3.9130000000000003","64.14","5.553","77.82","1017.3760000000001","27.42","78.24","778.9","0.0"],
    [1417740,"2026-06-23 09:30:00","55325","4.3469999999999995","73.6","5.913","63.52","1017.347","27.38","78.52","801.0","0.0"],
    [1417741,"2026-06-23 09:40:00","55326","4.519","72.8","6.141","77.09","1017.4","27.43","77.98","820.0","0.0"],
    [1417742,"2026-06-23 09:50:00","55327","5.06","76.37","6.305","73.42","1017.442","27.36","77.36","837.0","0.0"],
    [1417743,"2026-06-23 10:00:00","55328","4.936","75.68","6.305","79.88","1017.4960000000001","27.39","74.88","851.0","0.0"],
    [1417744,"2026-06-23 10:10:00","55329","3.964","79.61","5.423","87.3","1017.44","27.72","73.11","866.0","0.0"],
    [1417745,"2026-06-23 10:20:00","55330","4.158","75.34","5.096","70.66","1017.462","27.93","71.89","875.0","0.0"],
    [1417746,"2026-06-23 10:30:00","55331","4.485","72.47","5.651","80.2","1017.4630000000001","27.91","69.62","893.0","0.0"],
    [1417747,"2026-06-23 10:40:00","55332","4.758","67.39","5.978","60.77","1017.423","27.56","73.59","905.0","0.0"],
    [1417748,"2026-06-23 10:50:00","55333","4.37","75.67","6.076","88.3","1017.457","27.94","74.17","913.0","0.0"],
    [1417749,"2026-06-23 11:00:00","55334","4.166","80.7","5.553","82.5","1017.4630000000001","27.75","74.29","922.0","0.0"],
    [1417750,"2026-06-23 11:10:00","55335","3.872","79.95","5.488","68.09","1017.45","27.83","72.57","930.0","0.0"],
    [1417751,"2026-06-23 11:20:00","55336","3.573","84.3","5.031","83.6","1017.387","28.04","68.49","937.0","0.0"],
    [1417752,"2026-06-23 11:30:00","55337","3.263","85.2","4.965","92.1","1017.3639999999999","28.11","68.92","941.0","0.0"],
    [1417753,"2026-06-23 11:40:00","55338","3.408","81.6","4.835","86.4","1017.3639999999999","28.24","66.59","943.0","0.0"],
    [1417754,"2026-06-23 11:50:00","55339","3.3989999999999996","91.1","4.933","88.5","1017.334","28.26","67.25","943.0","0.0"],
    [1417755,"2026-06-23 12:00:00","55340","3.877","85.1","5.031","74.57","1017.247","27.91","70.88","947.0","0.0"],
    [1417756,"2026-06-23 12:10:00","55341","3.4939999999999998","89.3","5.096","74.83","1017.138","27.96","70.94","945.0","0.0"],
    [1417757,"2026-06-23 12:20:00","55342","2.861","98.0","4.802","110.9","1017.14","28.44","64.99","946.0","0.0"],
    [1417758,"2026-06-23 12:30:00","55343","2.88","103.2","4.965","100.6","1017.1030000000001","28.71","61.33","944.0","0.0"],
    [1417759,"2026-06-23 12:40:00","55344","3.727","83.5","5.161","73.16","1017.0010000000001","28.82","59.17","938.0","0.0"],
    [1417760,"2026-06-23 12:50:00","55345","3.218","96.1","5.129","82.6","1016.9730000000001","28.5","62.28","934.0","0.0"],
    [1417761,"2026-06-23 13:00:00","55346","2.4330000000000003","87.7","4.443","105.6","1016.941","28.87","63.62","925.0","0.0"],
    [1417762,"2026-06-23 13:10:00","55347","2.736","85.3","4.541","65.56","1016.827","28.84","66.29","915.0","0.0"],
    [1417763,"2026-06-23 13:20:00","55348","2.475","100.2","4.018","77.95","1016.711","28.75","66.15","906.0","0.0"],
    [1417764,"2026-06-23 13:30:00","55349","3.205","90.0","5.096","80.6","1016.66","28.5","69.27","896.0","0.0"],
    [1417765,"2026-06-23 13:40:00","55350","3.372","91.1","4.606","88.2","1016.555","28.0","69.02","882.0","0.0"],
    [1417766,"2026-06-23 13:50:00","55351","3.06","94.4","4.279","101","1016.5169999999999","28.14","70.57","868.0","0.0"],
    [1417767,"2026-06-23 14:00:00","55352","3.372","93.1","4.998","93.2","1016.4680000000001","28.05","73.33","852.0","0.0"],
    [1417768,"2026-06-23 14:10:00","55353","3.022","96.2","4.377","95.3","1016.3589999999999","28.0","72.31","833.0","0.0"],
    [1417769,"2026-06-23 14:20:00","55354","2.434","100.7","3.985","86.2","1016.29","28.17","67.57","817.0","0.0"],
    [1417770,"2026-06-23 14:30:00","55355","2.496","103.8","3.495","105.2","1016.2869999999999","28.61","60.78","795.8","0.0"],
    [1417771,"2026-06-23 14:40:00","55356","2.6010000000000004","96.8","4.018","82.7","1016.328","28.45","62.67","773.0","0.0"],
    [1417772,"2026-06-23 14:50:00","55357","1.979","92.1","3.463","68.84","1016.2339999999999","28.75","64.46","750.4","0.0"],
    [1417773,"2026-06-23 15:00:00","55358","2.3569999999999998","91.9","3.659","94.4","1016.18","28.71","66.42","725.8","0.0"],
    [1417774,"2026-06-23 15:10:00","55359","3.1430000000000002","90.2","4.443","91.7","1016.063","28.5","67.41","702.5","0.0"],
    [1417775,"2026-06-23 15:20:00","55360","3.3930000000000002","90.1","4.573","89.9","1015.898","27.93","73.16","646.0","0.0"],
    [1417776,"2026-06-23 15:30:00","55361","3.042","93.5","4.149","82.3","1015.82","27.61","73.58","644.7","0.0"],
    [1417777,"2026-06-23 15:40:00","55362","2.773","96.4","3.757","101.9","1015.811","27.76","70.92","608.9","0.0"],
    [1417778,"2026-06-23 15:50:00","55363","3.074","95.3","4.508","94.4","1015.7339999999999","27.58","73.01","565.2","0.0"],
    [1417779,"2026-06-23 16:00:00","55364","3.1919999999999997","96.2","5.521","77.01","1015.7139999999999","27.4","74.51","565.0","0.0"],
    [1417780,"2026-06-23 16:10:00","55365","3.122","90.1","5.063","101.2","1015.653","27.45","75.62","529.9","0.0"],
    [1417781,"2026-06-23 16:20:00","55366","2.467","85.8","3.43","87.1","1015.6139999999999","27.53","75.03","491.0","0.0"],
    [1417782,"2026-06-23 16:30:00","55367","2.367","73.8","3.528","64.49","1015.564","27.64","73.33","461.8","0.0"],
    [1417783,"2026-06-23 16:40:00","55368","2.34","95.5","4.312","77.86","1015.518","27.65","71.15","433.0","0.0"],
    [1417784,"2026-06-23 16:50:00","55369","2.359","95.3","3.626","86.4","1015.455","27.52","73.09","400.3","0.0"],
    [1417785,"2026-06-23 17:00:00","55370","2.82","89.4","4.018","107.7","1015.5219999999999","27.19","73.94","367.1","0.0"],
    [1417786,"2026-06-23 17:10:00","55371","2.8280000000000003","90.3","4.083","89.4","1015.508","26.98","76.13","339.4","0.0"],
    [1417787,"2026-06-23 17:20:00","55372","2.451","94.1","3.822","89.3","1015.447","26.94","76.57","304.9","0.0"],
    [1417788,"2026-06-23 17:30:00","55373","1.913","94.0","3.071","102.3","1015.423","27.05","76.53","272.4","0.0"],
    [1417789,"2026-06-23 17:40:00","55374","2.487","85.0","4.051","81.7","1015.523","26.79","77.61","242.5","0.0"],
    [1417790,"2026-06-23 17:50:00","55375","2.87","87.2","4.41","81.5","1015.513","26.62","77.55","213.1","0.0"],
    [1417791,"2026-06-23 18:00:00","55376","2.46","82.6","3.397","85.6","1015.492","26.57","78.51","183.6","0.0"],
    [1417792,"2026-06-23 18:10:00","55377","1.985","87.7","2.842","83.9","1015.569","26.6","78.29","154.3","0.0"],
    [1417793,"2026-06-23 18:20:00","55378","2.169","90.0","3.071","85.3","1015.672","26.46","78.09","127.5","0.0"],
    [1417794,"2026-06-23 18:30:00","55379","1.933","94.3","2.875","90.8","1015.648","26.38","77.73","102.2","0.0"],
    [1417795,"2026-06-23 18:40:00","55380","1.88","93.6","2.94","97","1015.622","26.18","78.75","76.22","0.0"],
    [1417796,"2026-06-23 18:50:00","55381","1.8330000000000002","86.1","2.613","94.4","1015.6289999999999","26.06","79.38","53.06","0.0"],
    [1417797,"2026-06-23 19:00:00","55382","1.9580000000000002","100.6","2.777","121.6","1015.6489999999999","25.92","79.79","28.8","0.0"],
    [1417798,"2026-06-23 19:10:00","55383","2.407","84.7","3.267","80.9","1015.612","25.9","81.4","10.68","0.0"],
    [1417799,"2026-06-23 19:20:00","55384","2.256","77.0","2.973","70.88","1015.571","25.78","82.7","4.551","0.0"],
    [1417800,"2026-06-23 19:30:00","55385","1.99","76.18","2.809","76.39","1015.573","25.69","82.6","0.976","0.0"],
    [1417801,"2026-06-23 19:40:00","55386","1.933","88.1","2.581","87","1015.4760000000001","25.65","83.3","-1.25","0.0"],
    [1417802,"2026-06-23 19:50:00","55387","1.801","81.5","2.548","86.4","1015.554","25.61","83.9","-2.573","0.0"],
    [1417803,"2026-06-23 20:00:00","55388","1.475","71.71","2.254","70.93","1015.7260000000001","25.44","84.7","-2.748","0.0"],
    [1417804,"2026-06-23 20:10:00","55389","1.2770000000000001","74.26","1.797","59.4","1015.804","25.37","85.2","-3.1039999999999996","0.0"],
    [1417805,"2026-06-23 20:20:00","55390","1.208","73.07","1.633","81.4","1015.799","25.24","85.7","-3.195","0.0"],
    [1417806,"2026-06-23 20:30:00","55391","1.435","75.21","1.927","72.28","1015.768","25.28","86.1","-3.236","0.0"],
    [1417807,"2026-06-23 20:40:00","55392","1.1540000000000001","62.34","1.731","67.05","1015.795","25.17","86.3","-3.1010000000000004","0.0"],
    [1417808,"2026-06-23 20:50:00","55393","1.2919999999999998","73.56","1.633","73.33","1015.768","25.1","86.6","-3.305","0.0"],
    [1417809,"2026-06-23 21:00:00","55394","0.779","93.9","1.503","91","1015.679","25.06","86.6","-3.1180000000000003","0.0"],
    [1417810,"2026-06-23 21:10:00","55395","0.998","89.6","1.47","89.9","1015.6189999999999","25.06","87.0","-3.293","0.0"],
    [1417811,"2026-06-23 21:20:00","55396","0.8959999999999999","90.7","1.372","86","1015.557","25.04","87.0","-3.306","0.0"],
    [1417812,"2026-06-23 21:30:00","55397","1.082","106.6","1.535","110.8","1015.585","25.02","87.0","-3.2310000000000003","0.0"],
    [1417813,"2026-06-23 21:40:00","55398","0.579","114.5","1.209","114.1","1015.6","25.06","86.3","-3.153","0.0"],
    [1417814,"2026-06-23 21:50:00","55399","0.376","126.4","1.111","135.4","1015.6030000000001","25.0","86.7","-3.0780000000000003","0.0"],
    [1417815,"2026-06-23 22:00:00","55400","0.451","172.2","1.013","216.2","1015.579","24.89","87.2","-3.0839999999999996","0.0"],
    [1417816,"2026-06-23 22:10:00","55401","0.04","219.0","0.49","219","1015.576","24.82","87.2","-3.0239999999999996","0.0"],
    [1417817,"2026-06-23 22:20:00","55402","0.0","182.2","0.033","182.2","1015.572","24.84","87.0","-2.819","0.0"],
    [1417818,"2026-06-23 22:30:00","55403","0.084","189.3","0.686","193.6","1015.605","24.76","87.2","-3.0269999999999997","0.0"],
    [1417819,"2026-06-23 22:40:00","55404","0.266","223.1","1.143","235.8","1015.6419999999999","24.68","87.4","-2.935","0.0"],
    [1417820,"2026-06-23 22:50:00","55405","0.83","220.8","1.372","183.4","1015.701","24.71","87.7","-2.783","0.0"],
    [1417821,"2026-06-23 23:00:00","55406","1.151","183.5","1.601","180.4","1015.696","24.82","88.0","-2.858","0.0"],
    [1417822,"2026-06-23 23:10:00","55407","1.195","186.3","1.862","187.9","1015.81","24.86","88.4","-2.6010000000000004","0.0"],
    [1417823,"2026-06-23 23:20:00","55408","0.7040000000000001","188.8","1.535","179.1","1015.863","24.79","88.4","-2.714","0.0"],
    [1417824,"2026-06-23 23:30:00","55409","1.143","188.3","1.96","164.4","1015.873","24.73","88.8","-2.839","0.0"],
    [1417825,"2026-06-23 23:40:00","55410","1.374","185.2","1.862","189.2","1015.89","24.74","89.0","-2.617","0.0"],
    [1417826,"2026-06-23 23:50:00","55411","0.78","190.5","1.764","182","1015.8989999999999","24.67","89.0","-2.5989999999999998","0.0"],
    [1417827,"2026-06-24 00:00:00","55412","0.498","224.0","1.209","233","1015.87","24.51","89.6","-2.83","0.0"],
    [1417828,"2026-06-24 00:10:00","55413","0.5660000000000001","226.6","1.372","225.9","1015.8789999999999","24.5","90.1","-2.697","0.0"],
    [1417829,"2026-06-24 00:20:00","55414","0.264","178.6","0.947","170.1","1015.826","24.49","90.5","-2.597","0.0"],
    [1417830,"2026-06-24 00:30:00","55415","0.405","183.3","0.98","184.6","1015.7239999999999","24.49","90.6","-2.597","0.0"],
    [1417831,"2026-06-24 00:40:00","55416","0.157","229.9","0.947","259","1015.682","24.4","90.5","-2.6039999999999996","0.0"],
    [1417832,"2026-06-24 00:50:00","55417","0.32","275.2","1.013","287","1015.5189999999999","24.17","90.8","-2.6","0.0"],
    [1417833,"2026-06-24 01:00:00","55418","0.0","0.0","0","0","1015.455","24.03","91.3","-2.603","0.0"],
    [1417834,"2026-06-24 01:10:00","55419","0.0","282.2","0.033","282.2","1015.4780000000001","23.96","91.6","-2.617","0.0"],
    [1417835,"2026-06-24 01:20:00","55420","0.0","0.0","0","0","1015.4680000000001","23.87","91.7","-2.4619999999999997","0.0"],
    [1417836,"2026-06-24 01:30:00","55421","0.0","0.0","0","0","1015.439","23.9","92.2","-2.472","0.0"],
    [1417837,"2026-06-24 01:40:00","55422","0.0","280.4","0.033","280.4","1015.3530000000001","24.03","92.1","-2.574","0.0"],
    [1417838,"2026-06-24 01:50:00","55423","0.0","0.0","0","0","1015.2869999999999","23.67","91.5","-2.608","0.0"],
    [1417839,"2026-06-24 02:00:00","55424","0.0","0.0","0","0","1015.164","23.67","92.0","-2.585","0.0"],
    [1417840,"2026-06-24 02:10:00","55425","0.003","252.2","0.131","252.2","1015.0210000000001","23.85","92.0","-2.439","0.0"],
    [1417841,"2026-06-24 02:20:00","55426","0.0","0.0","0","0","1015.008","23.68","92.0","-2.608","0.0"],
    [1417842,"2026-06-24 02:30:00","55427","0.0","0.0","0","0","1014.9939999999999","23.73","91.8","-2.494","0.0"],
    [1417843,"2026-06-24 02:40:00","55428","0.001","263.9","0.065","264","1014.944","23.57","92.2","-2.5580000000000003","0.0"],
    [1417844,"2026-06-24 02:50:00","55429","1.337","275.1","2.319","262.8","1014.9169999999999","23.32","91.9","-2.38","0.0"],
    [1417845,"2026-06-24 03:00:00","55430","1.296","260.1","2.679","270","1014.99","22.83","88.9","-3.4930000000000003","0.0"],
    [1417846,"2026-06-24 03:10:00","55431","0.743","258.2","1.731","271.2","1015.054","22.91","86.0","-4.16","0.0"],
    [1417847,"2026-06-24 03:20:00","55432","0.867","254.0","1.731","262.2","1015.1060000000001","22.87","81.8","-4.461","0.0"],
    [1417848,"2026-06-24 03:30:00","55433","0.8590000000000001","278.8","1.699","269.5","1015.076","22.76","79.32","-4.471","0.0"],
    [1417849,"2026-06-24 03:40:00","55434","0.92","248.9","1.437","239.6","1015.068","22.64","77.55","-4.167","0.0"],
    [1417850,"2026-06-24 03:50:00","55435","0.441","249.1","1.405","277.8","1015.072","23.06","75.62","-3.5460000000000003","0.0"],
    [1417851,"2026-06-24 04:00:00","55436","0.753","283.9","1.307","286.7","1015.118","22.81","76.06","-3.153","0.0"],
    [1417852,"2026-06-24 04:10:00","55437","0.42100000000000004","264.3","0.882","258.9","1015.158","22.47","76.63","-2.1790000000000003","0.0"],
    [1417853,"2026-06-24 04:20:00","55438","0.755","257.9","1.666","279.9","1015.1210000000001","22.63","76.63","0.052000000000000005","0.0"],
    [1417854,"2026-06-24 04:30:00","55439","1.464","277.8","2.091","277.5","1015.0939999999999","22.45","77.18","4.228","0.0"],
    [1417855,"2026-06-24 04:40:00","55440","1.058","268.6","1.503","274.6","1015.1060000000001","22.16","76.91","11.51","0.0"],
    [1417856,"2026-06-24 04:50:00","55441","0.632","267.9","1.568","272.2","1015.175","22.52","74.76","21.89","0.0"],
    [1417857,"2026-06-24 05:00:00","55442","0.809","271.5","1.96","279.3","1015.263","22.67","73.73","35.11","0.0"],
    [1417858,"2026-06-24 05:10:00","55443","1.063","268.6","1.895","272.4","1015.297","22.97","71.32","51.16","0.0"],
    [1417859,"2026-06-24 05:20:00","55444","0.675","262.8","1.176","258.9","1015.341","23.18","69.99","66.72","0.0"],
    [1417860,"2026-06-24 05:30:00","55445","0.755","278.7","1.437","291.6","1015.291","23.38","69.79","83.8","0.0"],
    [1417861,"2026-06-24 05:40:00","55446","0.069","279.5","0.686","278.7","1015.2869999999999","23.55","70.21","104.2","0.0"],
    [1417862,"2026-06-24 05:50:00","55447","0.0","0.0","0","0","1015.332","24.35","67.88","120.5","0.0"],
    [1417863,"2026-06-24 06:00:00","55448","0.0","0.0","0","0","1015.37","25.14","66.33","152.0","0.0"],
    [1417864,"2026-06-24 06:10:00","55449","0.02","27.12","0.915","47.48","1015.3660000000001","25.71","67.49","179.5","0.0"],
    [1417865,"2026-06-24 06:20:00","55450","0.39399999999999996","47.06","1.078","50.19","1015.38","26.25","70.21","211.1","0.0"],
    [1417866,"2026-06-24 06:30:00","55451","0.643","62.12","1.535","47.78","1015.3689999999999","26.62","74.12","243.1","0.0"],
    [1417867,"2026-06-24 06:40:00","55452","0.275","75.86","0.98","68.21","1015.3969999999999","26.69","74.99","276.1","0.0"],
    [1417868,"2026-06-24 06:50:00","55453","0.557","155.4","1.666","140.5","1015.4639999999999","26.94","73.17","306.2","0.0"],
    [1417869,"2026-06-24 07:00:00","55454","0.613","167.9","1.339","161.4","1015.5089999999999","27.08","72.67","344.1","0.0"],
    [1417870,"2026-06-24 07:10:00","55455","1.236","170.7","3.92","154.1","1015.569","27.1","70.11","379.5","0.0"],
    [1417871,"2026-06-24 07:20:00","55456","0.733","139.6","2.515","131.8","1015.6139999999999","27.25","73.14","413.9","0.0"],
    [1417872,"2026-06-24 07:30:00","55457","0.9670000000000001","213.9","2.319","234.6","1015.6569999999999","27.8","69.29","442.5","0.0"],
    [1417873,"2026-06-24 07:40:00","55458","1.3219999999999998","194.0","2.581","202","1015.675","27.67","69.09","470.2","0.0"],
    [1417874,"2026-06-24 07:50:00","55459","1.1740000000000002","180.2","2.352","149.9","1015.663","28.0","67.12","499.8","0.0"],
    [1417875,"2026-06-24 08:00:00","55460","0.9840000000000001","197.4","1.895","225.9","1015.66","28.47","63.88","529.8","0.0"],
    [1417876,"2026-06-24 08:10:00","55461","0.7120000000000001","165.2","1.96","178.7","1015.6260000000001","28.9","62.25","561.1","0.0"],
    [1417877,"2026-06-24 08:20:00","55462","1.081","175.4","2.254","182.9","1015.591","29.17","60.79","599.2","0.0"],
    [1417878,"2026-06-24 08:30:00","55463","1.3559999999999999","107.3","3.005","133.1","1015.628","29.6","63.27","630.2","0.0"],
    [1417879,"2026-06-24 08:40:00","55464","1.035","134.2","2.189","119.8","1015.678","29.36","63.42","621.6","0.0"],
    [1417880,"2026-06-24 08:50:00","55465","1.013","123.4","2.711","133.4","1015.695","29.26","63.62","687.3","0.0"],
    [1417881,"2026-06-24 09:00:00","55466","1.052","135.2","3.136","108.1","1015.793","29.25","63.65","682.0","0.0"],
    [1417882,"2026-06-24 09:10:00","55467","0.677","141.1","2.156","102.2","1015.867","29.14","63.67","738.6","0.0"],
    [1417883,"2026-06-24 09:20:00","55468","1.444","115.6","3.136","80.3","1015.862","29.49","62.57","765.8","0.0"],
    [1417884,"2026-06-24 09:30:00","55469","0.929","124.7","2.711","112.4","1015.89","29.61","62.24","785.3","0.0"],
    [1417885,"2026-06-24 09:40:00","55470","1.4169999999999998","119.6","2.94","119.8","1015.8969999999999","29.59","61.06","808.0","0.0"],
    [1417886,"2026-06-24 09:50:00","55471","1.349","108.9","2.744","110.3","1015.8989999999999","29.54","61.72","827.0","0.0"],
    [1417887,"2026-06-24 10:00:00","55472","1.1079999999999999","142.7","3.201","134.7","1015.925","29.43","62.3","847.0","0.0"],
    [1417888,"2026-06-24 10:10:00","55473","0.888","103.6","2.45","111.8","1015.905","29.75","63.4","863.0","0.0"],
    [1417889,"2026-06-24 10:20:00","55474","1.1640000000000001","112.8","3.593","86.3","1015.8380000000001","29.87","62.51","879.0","0.0"],
    [1417890,"2026-06-24 10:30:00","55475","1.155","120.6","2.973","139.8","1015.809","29.75","62.77","892.0","0.0"],
    [1417891,"2026-06-24 10:40:00","55476","1.726","112.7","3.071","115.3","1015.834","29.84","58.5","911.0","0.0"],
    [1417892,"2026-06-24 10:50:00","55477","1.636","113.1","3.365","105.5","1015.913","29.78","60.68","920.0","0.0"],
    [1417893,"2026-06-24 11:00:00","55478","1.311","117.1","3.234","121.4","1015.922","29.89","62.53","934.0","0.0"],
    [1417894,"2026-06-24 11:10:00","55479","1.176","130.5","4.051","115.9","1015.8510000000001","29.76","59.98","946.0","0.0"],
    [1417895,"2026-06-24 11:20:00","55480","1.4280000000000002","117.0","3.397","132.1","1015.7710000000001","29.85","60.74","951.0","0.0"],
    [1417896,"2026-06-24 11:30:00","55481","1.258","135.0","3.463","172.4","1015.721","30.61","58.49","957.0","0.0"],
    [1417897,"2026-06-24 11:40:00","55482","1.986","113.4","3.887","115.1","1015.7139999999999","30.36","58.39","964.0","0.0"],
    [1417898,"2026-06-24 11:50:00","55483","1.8119999999999998","118.8","3.593","131.5","1015.658","29.47","63.49","968.0","0.0"],
    [1417899,"2026-06-24 12:00:00","55484","1.726","119.4","3.561","124","1015.633","29.6","64.06","965.0","0.0"],
    [1417900,"2026-06-24 12:10:00","55485","1.92","123.1","4.312","85.1","1015.591","29.58","65.81","964.0","0.0"],
    [1417901,"2026-06-24 12:20:00","55486","1.7269999999999999","127.0","4.475","107.4","1015.6080000000001","29.38","66.94","961.0","0.0"],
    [1417902,"2026-06-24 12:30:00","55487","1.764","122.1","3.495","153.1","1015.632","29.46","68.4","955.0","0.0"],
    [1417903,"2026-06-24 12:40:00","55488","1.5959999999999999","110.5","3.691","104.8","1015.703","30.24","66.83","947.0","0.0"],
    [1417904,"2026-06-24 12:50:00","55489","1.732","117.9","3.593","104.3","1015.7360000000001","30.12","65.82","939.0","0.0"],
    [1417905,"2026-06-24 13:00:00","55490","1.9869999999999999","108.0","3.953","119.2","1015.6410000000001","29.42","68.5","931.0","0.0"],
    [1417906,"2026-06-24 13:10:00","55491","1.567","130.6","3.789","159.3","1015.572","29.35","68.97","919.0","0.0"],
    [1417907,"2026-06-24 13:20:00","55492","2.54","172.4","4.573","169.1","1015.56","29.19","67.24","912.0","0.0"],
    [1417908,"2026-06-24 13:30:00","55493","2.593","168.2","4.312","178.2","1015.5360000000001","28.85","65.4","900.0","0.0"],
    [1417909,"2026-06-24 13:40:00","55494","1.756","163.7","3.593","179.4","1015.5169999999999","29.79","58.24","885.0","0.0"],
    [1417910,"2026-06-24 13:50:00","55495","2.339","169.5","3.92","158.3","1015.5089999999999","29.68","56.45","871.0","0.0"],
    [1417911,"2026-06-24 14:00:00","55496","2.065","160.3","4.769","172.8","1015.529","29.55","60.58","853.0","0.0"],
    [1417912,"2026-06-24 14:10:00","55497","1.6059999999999999","156.9","4.083","176.3","1015.455","30.35","54.14","837.0","0.0"],
    [1417913,"2026-06-24 14:20:00","55498","2.049","151.0","4.312","148.8","1015.404","29.75","55.64","816.0","0.0"],
    [1417914,"2026-06-24 14:30:00","55499","2.119","121.4","4.704","97.7","1015.318","30.1","54.97","794.9","0.0"],
    [1417915,"2026-06-24 14:40:00","55500","1.86","152.0","3.757","89.9","1015.227","30.22","56.6","774.7","0.0"],
    [1417916,"2026-06-24 14:50:00","55501","2.719","190.8","4.802","174.6","1015.179","30.42","54.74","754.0","0.0"],
    [1417917,"2026-06-24 15:00:00","55502","3.304","191.4","5.521","183.5","1015.148","29.92","57.3","731.5","0.0"],
    [1417918,"2026-06-24 15:10:00","55503","2.7289999999999996","192.9","4.737","184.2","1015.1189999999999","29.37","61.86","704.6","0.0"],
    [1417919,"2026-06-24 15:20:00","55504","2.57","181.3","4.639","191.7","1015.11","29.34","62.39","647.5","0.0"],
    [1417920,"2026-06-24 15:30:00","55505","2.533","175.9","4.671","160.7","1014.998","29.12","59.28","642.4","0.0"],
    [1417921,"2026-06-24 15:40:00","55506","2.845","205.8","5.063","229.6","1014.915","29.8","52.15","615.8","0.0"],
    [1417922,"2026-06-24 15:50:00","55507","3.2910000000000004","207.5","5.259","230.7","1014.7919999999999","29.96","47.7","562.8","0.0"],
    [1417923,"2026-06-24 16:00:00","55508","2.67","211.2","4.737","220.3","1014.694","30.28","49.67","566.1","0.0"],
    [1417924,"2026-06-24 16:10:00","55509","3.315","213.6","5.521","215.8","1014.7289999999999","29.61","53.87","536.9","0.0"],
    [1417925,"2026-06-24 16:20:00","55510","2.7289999999999996","201.5","4.965","213.5","1014.701","29.4","54.24","505.7","0.0"],
    [1417926,"2026-06-24 16:30:00","55511","2.923","189.6","4.998","181.4","1014.6560000000001","29.22","56.44","474.7","0.0"],
    [1417927,"2026-06-24 16:40:00","55512","3.2680000000000002","188.2","5.488","187.5","1014.6310000000001","28.84","56.44","444.1","0.0"],
    [1417928,"2026-06-24 16:50:00","55513","2.497","196.5","4.475","185.5","1014.574","28.93","59.83","413.0","0.0"],
    [1417929,"2026-06-24 17:00:00","55514","2.8560000000000003","206.7","5.88","191","1014.556","29.02","57.82","382.1","0.0"],
    [1417930,"2026-06-24 17:10:00","55515","2.101","195.0","4.541","210.7","1014.607","28.84","61.07","351.0","0.0"],
    [1417931,"2026-06-24 17:20:00","55516","2.314","178.5","3.757","171.3","1014.638","28.82","59.85","320.7","0.0"],
    [1417932,"2026-06-24 17:30:00","55517","2.254","172.2","3.626","175.9","1014.695","28.48","57.23","290.6","0.0"],
    [1417933,"2026-06-24 17:40:00","55518","1.9569999999999999","185.0","3.561","187.5","1014.783","28.75","55.35","260.6","0.0"],
    [1417934,"2026-06-24 17:50:00","55519","2.3","177.7","4.214","178.6","1014.813","28.38","58.34","231.8","0.0"],
    [1417935,"2026-06-24 18:00:00","55520","1.867","201.2","3.887","227.9","1014.7639999999999","28.63","58.53","202.6","0.0"],
    [1417936,"2026-06-24 18:10:00","55521","2.414","204.2","5.782","239","1014.797","28.26","59.58","175.0","0.0"],
    [1417937,"2026-06-24 18:20:00","55522","1.952","205.0","4.475","230.8","1014.7919999999999","28.13","59.49","147.7","0.0"],
    [1417938,"2026-06-24 18:30:00","55523","1.6540000000000001","203.1","3.855","196.1","1014.753","27.99","60.72","121.1","0.0"],
    [1417939,"2026-06-24 18:40:00","55524","1.835","213.5","3.528","210.6","1014.738","27.9","61.75","94.6","0.0"],
    [1417940,"2026-06-24 18:50:00","55525","1.849","222.0","3.822","211.1","1014.81","27.6","65.25","69.79","0.0"],
    [1417941,"2026-06-24 19:00:00","55526","1.706","191.7","3.463","176.2","1014.936","27.34","67.71","46.6","0.0"],
    [1417942,"2026-06-24 19:10:00","55527","1.696","195.4","4.214","174.5","1015.0219999999999","27.1","69.52","25.28","0.0"],
    [1417943,"2026-06-24 19:20:00","55528","1.726","203.3","3.201","163","1014.927","26.88","70.35","9.06","0.0"],
    [1417944,"2026-06-24 19:30:00","55529","1.98","208.5","4.051","182.5","1014.8860000000001","26.78","70.76","1.671","0.0"],
    [1417945,"2026-06-24 19:40:00","55530","1.013","216.8","1.96","239.9","1014.885","26.67","71.41","-1.6159999999999999","0.0"],
    [1417946,"2026-06-24 19:50:00","55531","1.421","225.3","2.417","210","1014.83","26.48","70.55","-2.8160000000000003","0.0"],
    [1417947,"2026-06-24 20:00:00","55532","1.547","219.9","2.319","215.6","1014.8739999999999","26.6","69.34","-3.343","0.0"],
    [1417948,"2026-06-24 20:10:00","55533","1.5719999999999998","207.2","2.45","194.1","1014.982","26.62","70.23","-3.377","0.0"],
    [1417949,"2026-06-24 20:20:00","55534","1.359","203.4","2.777","181.8","1015.012","26.56","69.83","-3.335","0.0"],
    [1417950,"2026-06-24 20:30:00","55535","1.4409999999999998","206.4","3.103","189.8","1015.096","26.54","72.06","-3.364","0.0"],
    [1417951,"2026-06-24 20:40:00","55536","1.0","204.9","2.091","209.9","1015.197","26.32","73.13","-3.4139999999999997","0.0"],
    [1417952,"2026-06-24 20:50:00","55537","1.401","218.0","2.352","215.2","1015.2810000000001","26.27","73.09","-3.4219999999999997","0.0"],
    [1417953,"2026-06-24 21:00:00","55538","0.85","201.0","1.666","254.4","1015.3439999999999","26.38","71.96","-3.37","0.0"],
    [1417954,"2026-06-24 21:10:00","55539","0.512","199.8","1.209","230.4","1015.4","26.12","76.07","-3.429","0.0"],
    [1417955,"2026-06-24 21:20:00","55540","0.899","178.3","1.405","182.6","1015.472","26.03","77.18","-3.51","0.0"],
    [1417956,"2026-06-24 21:30:00","55541","0.7979999999999999","182.6","1.47","186.7","1015.5980000000001","26.03","76.3","-3.3310000000000004","0.0"],
    [1417957,"2026-06-24 21:40:00","55542","0.282","177.9","0.882","201.2","1015.612","25.89","76.17","-3.342","0.0"],
    [1417958,"2026-06-24 21:50:00","55543","0.489","206.2","0.947","185.6","1015.549","25.83","76.03","-3.344","0.0"],
    [1417959,"2026-06-24 22:00:00","55544","0.524","202.0","1.339","232.3","1015.488","25.53","78.16","-3.362","0.0"],
    [1417960,"2026-06-24 22:10:00","55545","0.9","235.4","1.568","231.4","1015.471","25.61","80.3","-3.367","0.0"],
    [1417961,"2026-06-24 22:20:00","55546","0.557","251.9","1.111","239.8","1015.442","25.5","80.9","-3.33","0.0"],
    [1417962,"2026-06-24 22:30:00","55547","0.7659999999999999","199.9","1.274","224.9","1015.47","25.36","82.1","-3.3280000000000003","0.0"],
    [1417963,"2026-06-24 22:40:00","55548","0.894","183.2","1.405","181.4","1015.453","25.57","82.2","-3.342","0.0"],
    [1417964,"2026-06-24 22:50:00","55549","0.662","182.7","1.307","182","1015.3919999999999","25.56","82.3","-3.287","0.0"],
    [1417965,"2026-06-24 23:00:00","55550","0.18899999999999997","182.6","1.045","179.6","1015.528","25.37","82.9","-3.319","0.0"],
    [1417966,"2026-06-24 23:10:00","55551","0.157","186.3","0.784","187.3","1015.565","25.18","84.0","-3.3560000000000003","0.0"],
    [1417967,"2026-06-24 23:20:00","55552","0.831","237.3","1.307","244.5","1015.438","25.24","83.9","-3.12","0.0"],
    [1417968,"2026-06-24 23:30:00","55553","1.203","240.7","1.764","237","1015.395","25.22","83.9","-3.125","0.0"],
    [1417969,"2026-06-24 23:40:00","55554","1.439","236.1","1.993","233.4","1015.3380000000001","25.1","83.8","-2.7689999999999997","0.0"],
    [1417970,"2026-06-24 23:50:00","55555","1.12","244.7","2.254","236.4","1015.196","24.88","81.8","-2.6039999999999996","0.0"],
    [1417971,"2026-06-25 00:00:00","55556","1.1840000000000002","291.3","1.797","299.3","1015.168","24.57","74.07","-2.5980000000000003","0.0"],
    [1417972,"2026-06-25 00:10:00","55557","0.821","283.3","1.437","300.8","1015.172","24.24","68.49","-2.667","0.0"],
    [1417973,"2026-06-25 00:20:00","55558","0.6709999999999999","282.5","1.209","288.8","1015.164","24.37","65.04","-2.674","0.0"],
    [1417974,"2026-06-25 00:30:00","55559","0.185","280.8","0.621","279.3","1015.179","24.15","63.89","-2.62","0.0"],
    [1417975,"2026-06-25 00:40:00","55560","0.001","291.7","0.033","291.7","1015.2560000000001","23.94","65.23","-2.6310000000000002","0.0"],
    [1417976,"2026-06-25 00:50:00","55561","0.0","0.0","0","0","1015.1360000000001","23.98","63.75","-2.614","0.0"],
    [1417977,"2026-06-25 01:00:00","55562","0.345","251.2","1.143","248","1015.145","24.13","63.91","-2.764","0.0"],
    [1417978,"2026-06-25 01:10:00","55563","1.129","243.1","1.503","232.9","1015.0260000000001","24.51","62.89","-2.6910000000000003","0.0"],
    [1417979,"2026-06-25 01:20:00","55564","1.304","278.2","2.189","287.6","1014.957","24.28","60.85","-2.62","0.0"],
    [1417980,"2026-06-25 01:30:00","55565","0.7979999999999999","278.7","1.405","288.3","1014.961","23.29","63.66","-2.8819999999999997","0.0"],
    [1417981,"2026-06-25 01:40:00","55566","0.7290000000000001","280.3","1.47","284.6","1014.927","23.42","61.47","-2.696","0.0"],
    [1417982,"2026-06-25 01:50:00","55567","0.878","264.3","1.601","275.3","1014.867","23.46","60.02","-2.662","0.0"],
    [1417983,"2026-06-25 02:00:00","55568","1.095","270.7","2.091","275.3","1014.882","23.66","59.83","-2.655","0.0"],
    [1417984,"2026-06-25 02:10:00","55569","1.1320000000000001","293.7","1.829","299.5","1014.9739999999999","23.28","61.81","-2.6510000000000002","0.0"],
    [1417985,"2026-06-25 02:20:00","55570","0.067","292.9","0.653","293.6","1015.058","22.94","63.25","-2.655","0.0"],
    [1417986,"2026-06-25 02:30:00","55571","0.266","255.0","1.013","234","1015.02","23.16","62.63","-2.659","0.0"],
    [1417987,"2026-06-25 02:40:00","55572","1.055","252.8","1.535","247","1015.02","23.73","60.78","-2.658","0.0"],
    [1417988,"2026-06-25 02:50:00","55573","1.815","274.9","2.679","273.1","1015.0060000000001","23.39","62.23","-2.647","0.0"],
    [1417989,"2026-06-25 03:00:00","55574","1.607","268.5","2.842","276","1014.885","23.25","62.11","-2.658","0.0"],
    [1417990,"2026-06-25 03:10:00","55575","1.317","274.6","2.646","280","1014.8","23.05","63.22","-2.655","0.0"],
    [1417991,"2026-06-25 03:20:00","55576","1.3719999999999999","289.0","2.777","276.3","1014.863","22.65","64.42","-2.657","0.0"],
    [1417992,"2026-06-25 03:30:00","55577","1.0390000000000001","296.0","1.568","318.3","1014.816","22.25","65.48","-2.7239999999999998","0.0"],
    [1417993,"2026-06-25 03:40:00","55578","1.435","271.5","1.862","281.9","1014.702","22.69","63.61","-2.6839999999999997","0.0"],
    [1417994,"2026-06-25 03:50:00","55579","1.2409999999999999","278.9","1.862","271","1014.6519999999999","22.64","64.07","-2.657","0.0"],
    [1417995,"2026-06-25 04:00:00","55580","0.907","276.8","1.666","283.4","1014.669","22.31","65.8","-2.657","0.0"],
    [1417996,"2026-06-25 04:10:00","55581","1.271","282.9","1.993","290.5","1014.69","22.57","64.63","-1.761","0.0"],
    [1417997,"2026-06-25 04:20:00","55582","1.48","272.0","2.515","268","1014.785","22.85","62.01","-0.006","0.0"],
    [1417998,"2026-06-25 04:30:00","55583","2.149","270.8","3.267","265.2","1014.7289999999999","22.69","62.62","3.318","0.0"],
    [1417999,"2026-06-25 04:40:00","55584","2.0","278.2","3.038","268.8","1014.665","22.19","64.37","9.74","0.0"],
    [1418000,"2026-06-25 04:50:00","55585","1.736","279.1","2.679","276.7","1014.5980000000001","22.02","65.33","26.17","0.0"],
    [1418001,"2026-06-25 05:00:00","55586","1.935","264.0","2.777","257.8","1014.4830000000001","22.4","64.04","42.76","0.0"],
    [1418002,"2026-06-25 05:10:00","55587","1.175","275.2","2.45","278.6","1014.503","22.59","63.32","59.62","0.0"],
    [1418003,"2026-06-25 05:20:00","55588","1.036","275.1","2.287","272","1014.5039999999999","23.05","61.48","75.44","0.0"],
    [1418004,"2026-06-25 05:30:00","55589","1.524","282.7","2.091","272.5","1014.502","23.41","60.34","85.0","0.0"],
    [1418005,"2026-06-25 05:40:00","55590","1.329","282.4","1.797","282","1014.574","23.84","59.21","106.3","0.0"],
    [1418006,"2026-06-25 05:50:00","55591","1.1179999999999999","276.4","2.025","280","1014.643","24.42","57.11","126.0","0.0"],
    [1418007,"2026-06-25 06:00:00","55592","0.826","291.7","1.829","275.2","1014.5989999999999","25.04","54.95","164.8","0.0"],
    [1418008,"2026-06-25 06:10:00","55593","1.123","282.8","2.025","268.8","1014.612","25.59","52.76","192.5","0.0"],
    [1418009,"2026-06-25 06:20:00","55594","0.046","301.8","0.719","313.5","1014.727","26.44","49.82","219.9","0.0"],
    [1418010,"2026-06-25 06:30:00","55595","1.062","69.47","2.613","71.14","1014.8760000000001","27.4","51.33","250.9","0.0"],
    [1418011,"2026-06-25 06:40:00","55596","2.24","82.7","3.463","83.4","1014.9","26.62","62.8","288.2","0.0"],
    [1418012,"2026-06-25 06:50:00","55597","2.685","79.89","3.822","90.7","1015.034","26.34","65.55","324.2","0.0"],
    [1418013,"2026-06-25 07:00:00","55598","2.015","87.3","3.234","85.9","1015.143","26.61","65.15","360.2","0.0"],
    [1418014,"2026-06-25 07:10:00","55599","1.829","90.2","4.149","100.5","1015.2739999999999","26.99","61.88","391.8","0.0"],
    [1418015,"2026-06-25 07:20:00","55600","1.989","87.6","3.724","151.7","1015.363","27.39","60.52","422.8","0.0"],
    [1418016,"2026-06-25 07:30:00","55601","1.962","81.3","3.038","56.25","1015.425","27.42","60.99","453.1","0.0"],
    [1418017,"2026-06-25 07:40:00","55602","2.286","88.2","5.292","127.1","1015.497","27.32","63.22","484.9","0.0"],
    [1418018,"2026-06-25 07:50:00","55603","2.464","80.6","3.757","88","1015.505","27.35","62.72","516.5","0.0"],
    [1418019,"2026-06-25 08:00:00","55604","2.497","89.3","4.639","87.7","1015.5160000000001","27.57","63.61","550.2","0.0"],
    [1418020,"2026-06-25 08:10:00","55605","2.4290000000000003","86.7","3.789","78.25","1015.5110000000001","27.61","64.33","578.8","0.0"],
    [1418021,"2026-06-25 08:20:00","55606","1.601","103.1","4.247","95.6","1015.6510000000001","27.91","66.58","605.9","0.0"],
    [1418022,"2026-06-25 08:30:00","55607","0.9440000000000001","116.3","2.613","97.5","1015.677","28.46","68.29","634.9","0.0"],
    [1418023,"2026-06-25 08:40:00","55608","1.357","110.1","3.136","111.5","1015.685","28.8","66.86","628.0","0.0"],
    [1418024,"2026-06-25 08:50:00","55609","1.601","123.3","8.33","170.3","1015.623","28.35","66.06","690.8","0.0"],
    [1418025,"2026-06-25 09:00:00","55610","1.268","131.8","3.201","122.5","1015.645","28.61","64.5","681.5","0.0"],
    [1418026,"2026-06-25 09:10:00","55611","0.953","110.9","2.94","110.2","1015.7689999999999","28.91","62.41","739.8","0.0"],
    [1418027,"2026-06-25 09:20:00","55612","1.311","154.5","3.332","199","1015.801","29.55","57.2","761.9","0.0"],
    [1418028,"2026-06-25 09:30:00","55613","1.585","174.0","4.965","179.6","1015.732","29.11","55.56","786.0","0.0"],
    [1418029,"2026-06-25 09:40:00","55614","1.464","132.4","3.299","176.1","1015.703","29.59","55.98","805.0","0.0"],
    [1418030,"2026-06-25 09:50:00","55615","1.95","191.9","4.639","202.4","1015.775","30.28","46.94","825.0","0.0"],
    [1418031,"2026-06-25 10:00:00","55616","1.9040000000000001","184.9","5.455","241.3","1015.753","30.09","44.47","844.0","0.0"],
    [1418032,"2026-06-25 10:10:00","55617","2.259","201.8","4.116","211.5","1015.732","30.45","44.4","860.0","0.0"],
    [1418033,"2026-06-25 10:20:00","55618","2.645","168.4","4.312","157.4","1015.75","30.04","45.6","879.0","0.0"],
    [1418034,"2026-06-25 10:30:00","55619","2.594","176.4","4.998","182.8","1015.7189999999999","29.71","49.8","893.0","0.0"],
    [1418035,"2026-06-25 10:40:00","55620","2.864","177.6","4.671","189.4","1015.7080000000001","29.91","53.58","909.0","0.0"],
    [1418036,"2026-06-25 10:50:00","55621","3.033","189.1","6.109","180.7","1015.76","30.22","54.07","919.0","0.0"],
    [1418037,"2026-06-25 11:00:00","55622","3.116","187.5","5.259","181.5","1015.7689999999999","30.09","58.18","928.0","0.0"],
    [1418038,"2026-06-25 11:10:00","55623","3.2689999999999997","193.7","5.031","178","1015.7260000000001","30.22","59.05","935.0","0.0"],
    [1418039,"2026-06-25 11:20:00","55624","2.7539999999999996","186.9","4.671","188.5","1015.7080000000001","30.13","59.47","941.0","0.0"],
    [1418040,"2026-06-25 11:30:00","55625","4.032","198.7","7.513","223.1","1015.711","30.22","60.62","949.0","0.0"],
    [1418041,"2026-06-25 11:40:00","55626","3.6710000000000003","196.3","6.239","197.8","1015.725","30.46","60.23","951.0","0.0"],
    [1418042,"2026-06-25 11:50:00","55627","3.2939999999999996","200.0","6.435","210.7","1015.697","30.69","58.01","956.0","0.0"],
    [1418043,"2026-06-25 12:00:00","55628","3.7319999999999998","176.6","5.717","179.3","1015.655","30.22","57.9","956.0","0.0"],
    [1418044,"2026-06-25 12:10:00","55629","3.918","175.6","6.435","165.5","1015.7130000000001","30.07","61.72","954.0","0.0"],
    [1418045,"2026-06-25 12:20:00","55630","4.421","180.4","6.958","178.7","1015.804","29.37","68.41","951.0","0.0"],
    [1418046,"2026-06-25 12:30:00","55631","4.434","182.9","6.664","174.2","1015.875","29.58","68.3","946.0","0.0"],
    [1418047,"2026-06-25 12:40:00","55632","4.436","185.2","7.84","175.1","1015.9069999999999","29.25","68.15","942.0","0.0"],
    [1418048,"2026-06-25 12:50:00","55633","3.7","187.4","6.599","185.2","1015.9110000000001","29.89","65.91","933.0","0.0"],
    [1418049,"2026-06-25 13:00:00","55634","3.2569999999999997","184.6","5.423","196.2","1015.938","30.23","63.46","923.0","0.0"],
    [1418050,"2026-06-25 13:10:00","55635","3.092","189.9","5.031","182.4","1015.875","30.56","59.38","914.0","0.0"],
    [1418051,"2026-06-25 13:20:00","55636","3.639","179.4","6.305","168.9","1015.836","30.27","59.17","904.0","0.0"],
    [1418052,"2026-06-25 13:30:00","55637","3.1239999999999997","186.3","5.978","173.4","1015.783","30.21","60.03","892.0","0.0"],
    [1418053,"2026-06-25 13:40:00","55638","3.503","182.2","5.945","157.3","1015.802","30.17","62.3","878.0","0.0"],
    [1418054,"2026-06-25 13:50:00","55639","4.6419999999999995","211.8","7.415","222.4","1015.737","30.23","57.09","865.0","0.0"],
    [1418055,"2026-06-25 14:00:00","55640","3.7119999999999997","203.4","5.782","215.6","1015.6360000000001","30.47","53.6","848.0","0.0"],
    [1418056,"2026-06-25 14:10:00","55641","3.639","212.8","5.945","211.3","1015.553","31.0","48.58","831.0","0.0"],
    [1418057,"2026-06-25 14:20:00","55642","3.66","197.9","6.566","219","1015.562","31.36","43.56","813.0","0.0"],
    [1418058,"2026-06-25 14:30:00","55643","4.018","184.3","6.272","178","1015.5219999999999","30.69","44.07","792.2","0.0"],
    [1418059,"2026-06-25 14:40:00","55644","3.4730000000000003","192.2","5.292","177.5","1015.438","31.09","44.7","769.4","0.0"],
    [1418060,"2026-06-25 14:50:00","55645","2.779","191.4","5.227","179.3","1015.3480000000001","31.15","47.73","746.0","0.0"],
    [1418061,"2026-06-25 15:00:00","55646","2.938","196.1","5.259","181.2","1015.319","31.32","48.57","721.7","0.0"],
    [1418062,"2026-06-25 15:10:00","55647","3.1719999999999997","207.0","6.533","213.1","1015.22","31.04","48.15","697.2","0.0"],
    [1418063,"2026-06-25 15:20:00","55648","3.2910000000000004","196.7","5.031","165.3","1015.199","30.99","50.76","646.4","0.0"],
    [1418064,"2026-06-25 15:30:00","55649","3.667","188.5","5.847","171.8","1015.1419999999999","30.49","54.72","629.4","0.0"],
    [1418065,"2026-06-25 15:40:00","55650","3.92","196.1","6.141","177.6","1015.185","30.17","55.83","607.9","0.0"],
    [1418066,"2026-06-25 15:50:00","55651","4.06","210.6","6.403","220.1","1015.2139999999999","30.42","56.02","550.0","0.0"],
    [1418067,"2026-06-25 16:00:00","55652","4.042","210.5","7.187","215.5","1015.16","30.32","58.97","555.6","0.0"],
    [1418068,"2026-06-25 16:10:00","55653","4.06","214.0","6.729","217.9","1015.1310000000001","30.31","57.46","524.8","0.0"],
    [1418069,"2026-06-25 16:20:00","55654","3.957","211.8","6.305","201.1","1015.082","30.55","55.41","500.0","0.0"],
    [1418070,"2026-06-25 16:30:00","55655","4.681","214.9","6.86","215.7","1015.084","30.12","57.28","468.2","0.0"],
    [1418071,"2026-06-25 16:40:00","55656","4.0680000000000005","211.6","6.697","219.5","1015.0939999999999","30.01","59.4","431.4","0.0"],
    [1418072,"2026-06-25 16:50:00","55657","3.468","208.7","6.337","260.7","1015.061","30.12","61.3","396.2","0.0"],
    [1418073,"2026-06-25 17:00:00","55658","3.338","210.9","6.109","215.1","1015.0169999999999","30.04","61.54","369.2","0.0"],
    [1418074,"2026-06-25 17:10:00","55659","2.995","205.9","5.913","211.9","1014.993","29.92","60.31","340.6","0.0"],
    [1418075,"2026-06-25 17:20:00","55660","2.9619999999999997","208.2","5.586","233","1014.9760000000001","29.81","59.91","309.8","0.0"],
    [1418076,"2026-06-25 17:30:00","55661","2.44","201.6","4.769","207.4","1014.975","29.87","59.1","278.2","0.0"],
    [1418077,"2026-06-25 17:40:00","55662","3.083","211.8","5.586","237.5","1014.954","29.46","57.37","242.3","0.0"],
    [1418078,"2026-06-25 17:50:00","55663","3.176","214.8","5.063","214.1","1014.9010000000001","29.41","58.13","210.6","0.0"],
    [1418079,"2026-06-25 18:00:00","55664","3.373","214.2","5.455","213.1","1014.942","29.3","58.95","186.7","0.0"],
    [1418080,"2026-06-25 18:10:00","55665","3.593","212.5","5.978","232.9","1014.953","29.01","59.83","163.4","0.0"],
    [1418081,"2026-06-25 18:20:00","55666","3.344","207.8","6.141","232.7","1014.966","28.77","62.38","139.2","0.0"],
    [1418082,"2026-06-25 18:30:00","55667","2.752","207.4","5.455","201.9","1014.9","28.47","65.52","113.7","0.0"],
    [1418083,"2026-06-25 18:40:00","55668","2.9539999999999997","210.9","5.521","210.7","1014.875","28.28","66.73","89.6","0.0"],
    [1418084,"2026-06-25 18:50:00","55669","3.06","208.8","6.109","210.2","1014.862","28.02","67.54","66.99","0.0"],
    [1418085,"2026-06-25 19:00:00","55670","2.443","205.4","5.292","188.7","1014.855","27.85","69.97","42.3","0.0"],
    [1418086,"2026-06-25 19:10:00","55671","2.339","206.2","3.985","217.8","1014.8860000000001","27.56","71.57","15.27","0.0"],
    [1418087,"2026-06-25 19:20:00","55672","2.494","208.5","5.423","214.6","1014.946","27.35","72.27","4.205","0.0"],
    [1418088,"2026-06-25 19:30:00","55673","2.813","212.9","5.031","232.7","1015.071","27.27","73.36","0.821","0.0"],
    [1418089,"2026-06-25 19:40:00","55674","2.911","213.9","5.096","234.5","1015.166","27.07","73.9","-1.329","0.0"],
    [1418090,"2026-06-25 19:50:00","55675","3.011","213.4","4.998","211.4","1015.2710000000001","27.06","75.81","-2.536","0.0"],
    [1418091,"2026-06-25 20:00:00","55676","2.378","214.5","4.377","209","1015.429","26.85","78.0","-2.787","0.0"],
    [1418092,"2026-06-25 20:10:00","55677","2.9360000000000004","218.3","5.096","224","1015.66","26.81","77.51","-3.0060000000000002","0.0"],
    [1418093,"2026-06-25 20:20:00","55678","2.79","215.3","4.737","220.5","1015.796","26.92","74.82","-2.8280000000000003","0.0"],
    [1418094,"2026-06-25 20:30:00","55679","2.45","215.6","4.018","211.8","1015.992","26.88","75.38","-3.095","0.0"],
    [1418095,"2026-06-25 20:40:00","55680","2.9619999999999997","216.9","4.573","209","1016.1460000000001","27.06","69.65","-3.102","0.0"],
    [1418096,"2026-06-25 20:50:00","55681","2.8680000000000003","213.9","4.541","213.8","1016.179","27.18","67.6","-2.855","0.0"],
    [1418097,"2026-06-25 21:00:00","55682","2.206","217.0","4.41","211.5","1016.2439999999999","27.01","71.04","-2.6889999999999996","0.0"],
    [1418098,"2026-06-25 21:10:00","55683","1.923","215.7","2.842","194.1","1016.368","26.66","73.47","-3.0060000000000002","0.0"],
    [1418099,"2026-06-25 21:20:00","55684","2.231","214.0","3.234","203.8","1016.395","26.6","72.72","-3.1519999999999997","0.0"],
    [1418100,"2026-06-25 21:30:00","55685","1.979","217.7","2.973","198.9","1016.453","26.58","72.72","-2.861","0.0"],
    [1418101,"2026-06-25 21:40:00","55686","1.9880000000000002","218.2","2.973","200.4","1016.507","26.54","71.52","-2.873","0.0"],
    [1418102,"2026-06-25 21:50:00","55687","1.98","221.1","2.809","223.9","1016.5010000000001","26.59","70.52","-2.7569999999999997","0.0"],
    [1418103,"2026-06-25 22:00:00","55688","2.2359999999999998","230.7","3.332","228.6","1016.4730000000001","26.57","71.16","-2.7","0.0"],
    [1418104,"2026-06-25 22:10:00","55689","2.0269999999999997","229.4","3.463","207.5","1016.4810000000001","26.54","69.83","-2.602","0.0"],
    [1418105,"2026-06-25 22:20:00","55690","1.915","231.5","3.038","229.7","1016.46","26.57","68.17","-2.6069999999999998","0.0"],
    [1418106,"2026-06-25 22:30:00","55691","1.6980000000000002","232.4","3.169","256.7","1016.4060000000001","26.55","67.77","-2.5980000000000003","0.0"],
    [1418107,"2026-06-25 22:40:00","55692","1.984","229.4","3.267","232.8","1016.31","26.57","67.23","-2.5989999999999998","0.0"],
    [1418108,"2026-06-25 22:50:00","55693","1.5759999999999998","232.6","2.646","228.4","1016.2660000000001","26.61","67.75","-2.597","0.0"],
    [1418109,"2026-06-25 23:00:00","55694","1.1420000000000001","237.8","2.287","218.5","1016.2769999999999","26.34","70.17","-2.6210000000000004","0.0"],
    [1418110,"2026-06-25 23:10:00","55695","0.85","274.0","1.339","309.7","1016.327","26.1","70.1","-2.865","0.0"],
    [1418111,"2026-06-25 23:20:00","55696","0.509","268.4","1.241","294.6","1016.383","25.78","71.38","-3.138","0.0"],
    [1418112,"2026-06-25 23:30:00","55697","0.475","244.1","1.601","229.3","1016.419","25.73","72.23","-3.1710000000000003","0.0"],
    [1418113,"2026-06-25 23:40:00","55698","0.516","247.6","1.405","240.8","1016.433","25.91","71.26","-2.807","0.0"],
    [1418114,"2026-06-25 23:50:00","55699","0.978","229.7","1.307","230.9","1016.459","26.04","68.03","-2.688","0.0"],
    [1418115,"2026-06-26 00:00:00","55700","1.364","222.0","2.058","212.9","1016.4889999999999","26.24","64.89","-2.727","0.0"],
    [1418116,"2026-06-26 00:10:00","55701","0.742","191.1","1.372","185","1016.438","26.21","64.4","-2.957","0.0"],
    [1418117,"2026-06-26 00:20:00","55702","0.5489999999999999","213.7","1.503","236.2","1016.3919999999999","25.98","63.21","-3.073","0.0"],
    [1418118,"2026-06-26 00:30:00","55703","0.888","219.8","1.568","243.4","1016.37","25.7","60.12","-3.315","0.0"],
    [1418119,"2026-06-26 00:40:00","55704","1.577","230.0","2.319","236.8","1016.326","25.74","55.31","-2.861","0.0"],
    [1418120,"2026-06-26 00:50:00","55705","1.9340000000000002","227.5","2.581","228.5","1016.247","25.71","54.79","-2.846","0.0"],
    [1418121,"2026-06-26 01:00:00","55706","1.565","234.4","2.581","244.1","1016.273","25.59","54.26","-2.656","0.0"],
    [1418122,"2026-06-26 01:10:00","55707","1.271","246.2","2.189","237.5","1016.335","25.74","53.52","-2.88","0.0"],
    [1418123,"2026-06-26 01:20:00","55708","0.9470000000000001","262.4","1.764","271.2","1016.337","25.68","53.55","-2.842","0.0"],
    [1418124,"2026-06-26 01:30:00","55709","0.764","254.0","1.437","267.2","1016.319","25.54","53.39","-3.1460000000000004","0.0"],
    [1418125,"2026-06-26 01:40:00","55710","0.813","258.7","1.666","266","1016.3380000000001","25.35","54.32","-2.68","0.0"],
    [1418126,"2026-06-26 01:50:00","55711","1.05","280.0","2.025","290","1016.363","24.52","57.55","-2.76","0.0"],
    [1418127,"2026-06-26 02:00:00","55712","1.34","270.5","2.483","273.8","1016.317","24.63","57.14","-3.057","0.0"],
    [1418128,"2026-06-26 02:10:00","55713","0.8959999999999999","273.8","1.633","281.5","1016.309","24.66","57.24","-2.6189999999999998","0.0"],
    [1418129,"2026-06-26 02:20:00","55714","0.7609999999999999","271.9","1.895","269.5","1016.222","24.07","59.42","-2.9010000000000002","0.0"],
    [1418130,"2026-06-26 02:30:00","55715","1.139","284.5","2.025","281.2","1016.18","23.98","60.07","-2.7089999999999996","0.0"],
    [1418131,"2026-06-26 02:40:00","55716","1.2919999999999998","276.5","2.058","264.3","1016.158","23.89","60.3","-2.685","0.0"],
    [1418132,"2026-06-26 02:50:00","55717","1.196","265.3","1.895","275.9","1016.189","24.13","59.11","-2.5980000000000003","0.0"],
    [1418133,"2026-06-26 03:00:00","55718","0.968","259.2","1.666","259.3","1016.22","24.09","58.91","-2.6060000000000003","0.0"],
    [1418134,"2026-06-26 03:10:00","55719","1.183","262.8","1.993","269.9","1016.22","24.2","58.23","-2.623","0.0"],
    [1418135,"2026-06-26 03:20:00","55720","0.93","274.1","1.699","307.8","1016.247","24.05","58.93","-2.6189999999999998","0.0"],
    [1418136,"2026-06-26 03:30:00","55721","0.787","276.6","1.47","285.2","1016.196","23.74","60.3","-2.635","0.0"],
    [1418137,"2026-06-26 03:40:00","55722","0.8959999999999999","269.4","1.666","258.8","1016.166","23.7","60.12","-2.667","0.0"],
    [1418138,"2026-06-26 03:50:00","55723","0.782","263.0","1.601","273.8","1016.255","23.75","59.78","-2.6319999999999997","0.0"],
    [1418139,"2026-06-26 04:00:00","55724","1.093","282.8","1.699","289.6","1016.3430000000001","23.33","61.28","-2.6489999999999996","0.0"],
    [1418140,"2026-06-26 04:10:00","55725","0.8809999999999999","296.9","1.503","298.8","1016.409","23.02","62.41","-2.187","0.0"],
    [1418141,"2026-06-26 04:20:00","55726","0.41700000000000004","290.1","1.143","289.1","1016.498","23.01","62.41","-0.301","0.0"],
    [1418142,"2026-06-26 04:30:00","55727","1.0270000000000001","275.8","1.633","273","1016.556","23.44","60.97","3.127","0.0"],
    [1418143,"2026-06-26 04:40:00","55728","1.382","271.8","2.483","265.7","1016.627","23.67","60.13","9.86","0.0"],
    [1418144,"2026-06-26 04:50:00","55729","1.83","277.2","2.777","278.6","1016.693","23.39","61.06","21.48","0.0"],
    [1418145,"2026-06-26 05:00:00","55730","1.7819999999999998","280.8","2.711","276.9","1016.813","23.11","61.83","39.32","0.0"],
    [1418146,"2026-06-26 05:10:00","55731","1.453","264.9","2.646","280.3","1016.898","23.2","60.8","55.89","0.0"],
    [1418147,"2026-06-26 05:20:00","55732","1.23","275.2","2.123","292.7","1017.02","23.42","59.71","72.84","0.0"],
    [1418148,"2026-06-26 05:30:00","55733","1.4480000000000002","270.2","2.548","285.5","1017.06","23.83","58.38","94.1","0.0"],
    [1418149,"2026-06-26 05:40:00","55734","1.413","269.0","2.679","289.3","1017.069","24.27","57.17","115.1","0.0"],
    [1418150,"2026-06-26 05:50:00","55735","1.588","278.6","2.679","273.5","1017.0989999999999","24.59","56.07","130.2","0.0"],
    [1418151,"2026-06-26 06:00:00","55736","1.9140000000000001","288.0","2.777","283.5","1017.128","25.2","54.06","164.3","0.0"],
    [1418152,"2026-06-26 06:10:00","55737","1.797","285.3","3.005","289.1","1017.1419999999999","25.94","51.85","191.3","0.0"],
    [1418153,"2026-06-26 06:20:00","55738","1.032","268.2","2.809","286.5","1017.211","26.54","50.58","220.7","0.0"],
    [1418154,"2026-06-26 06:30:00","55739","1.61","283.7","3.005","281.6","1017.325","27.05","49.32","254.7","0.0"],
    [1418155,"2026-06-26 06:40:00","55740","1.028","266.5","1.862","283.1","1017.4630000000001","27.4","48.52","289.5","0.0"],
    [1418156,"2026-06-26 06:50:00","55741","0.64","282.6","1.274","283.4","1017.5880000000001","27.99","46.93","321.1","0.0"],
    [1418157,"2026-06-26 07:00:00","55742","0.721","229.2","1.47","207.2","1017.539","28.79","45.09","352.6","0.0"],
    [1418158,"2026-06-26 07:10:00","55743","0.688","219.5","1.568","211.2","1017.54","29.41","43.54","384.1","0.0"],
    [1418159,"2026-06-26 07:20:00","55744","0.956","228.1","2.123","240.8","1017.539","29.5","43.65","415.8","0.0"],
    [1418160,"2026-06-26 07:30:00","55745","1.4340000000000002","228.5","2.417","233.4","1017.605","29.38","44.32","447.8","0.0"],
    [1418161,"2026-06-26 07:40:00","55746","1.146","228.5","2.777","212.9","1017.612","30.0","42.64","478.1","0.0"],
    [1418162,"2026-06-26 07:50:00","55747","1.849","215.2","3.038","212.7","1017.69","29.9","42.73","512.2","0.0"],
    [1418163,"2026-06-26 08:00:00","55748","1.8869999999999998","202.2","3.365","201.2","1017.742","30.24","41.58","543.5","0.0"],
    [1418164,"2026-06-26 08:10:00","55749","2.336","209.9","6.566","231.6","1017.77","30.2","43.3","571.8","0.0"],
    [1418165,"2026-06-26 08:20:00","55750","2.469","206.7","4.443","218.6","1017.945","29.91","45.92","602.0","0.0"],
    [1418166,"2026-06-26 08:30:00","55751","2.675","204.5","4.149","209.6","1017.936","29.92","46.3","634.6","0.0"],
    [1418167,"2026-06-26 08:40:00","55752","2.96","197.7","4.443","217.2","1017.948","30.12","46.69","627.9","0.0"],
    [1418168,"2026-06-26 08:50:00","55753","2.571","188.6","5.586","218.4","1017.985","29.66","51.23","693.6","0.0"],
    [1418169,"2026-06-26 09:00:00","55754","2.9389999999999996","206.9","4.769","226.1","1017.9739999999999","29.75","52.89","687.8","0.0"],
    [1418170,"2026-06-26 09:10:00","55755","3.1439999999999997","198.1","4.867","223.5","1017.8969999999999","29.76","52.7","747.6","0.0"],
    [1418171,"2026-06-26 09:20:00","55756","2.823","198.8","6.011","186.2","1017.895","30.28","49.35","771.7","0.0"],
    [1418172,"2026-06-26 09:30:00","55757","3.305","186.8","5.227","188","1017.927","29.8","53.07","795.6","0.0"],
    [1418173,"2026-06-26 09:40:00","55758","3.128","195.2","4.867","208.6","1017.9110000000001","30.16","52.08","815.0","0.0"],
    [1418174,"2026-06-26 09:50:00","55759","2.907","198.0","4.639","178.9","1017.918","30.28","54.1","832.0","0.0"],
    [1418175,"2026-06-26 10:00:00","55760","3.1","187.0","5.161","165.8","1017.9789999999999","30.08","55.92","851.0","0.0"],
    [1418176,"2026-06-26 10:10:00","55761","3.668","171.2","5.259","163","1017.9989999999999","29.02","58.46","871.0","0.0"],
    [1418177,"2026-06-26 10:20:00","55762","3.784","171.5","5.455","164.2","1017.9810000000001","28.94","55.63","887.0","0.0"],
    [1418178,"2026-06-26 10:30:00","55763","3.736","173.1","5.455","182.7","1017.957","28.69","59.5","902.0","0.0"],
    [1418179,"2026-06-26 10:40:00","55764","2.844","175.6","4.802","192.9","1017.878","29.65","57.83","914.0","0.0"],
    [1418180,"2026-06-26 10:50:00","55765","3.197","170.6","4.573","169.5","1017.822","29.14","56.35","929.0","0.0"],
    [1418181,"2026-06-26 11:00:00","55766","3.5180000000000002","174.2","4.9","188","1017.818","29.23","56.9","938.0","0.0"],
    [1418182,"2026-06-26 11:10:00","55767","3.3989999999999996","170.8","6.109","172.6","1017.76","29.05","58.15","944.0","0.0"],
    [1418183,"2026-06-26 11:20:00","55768","3.0269999999999997","179.2","5.259","192.8","1017.694","29.61","58.58","949.0","0.0"],
    [1418184,"2026-06-26 11:30:00","55769","2.8689999999999998","185.9","4.541","168","1017.6260000000001","30.08","58.96","953.0","0.0"],
    [1418185,"2026-06-26 11:40:00","55770","3.168","182.1","5.978","165.8","1017.5830000000001","30.1","60.39","957.0","0.0"],
    [1418186,"2026-06-26 11:50:00","55771","3.3789999999999996","172.2","5.031","182.1","1017.5369999999999","29.35","61.52","959.0","0.0"],
    [1418187,"2026-06-26 12:00:00","55772","3.136","180.9","5.357","172.1","1017.4639999999999","29.89","59.31","954.0","0.0"],
    [1418188,"2026-06-26 12:10:00","55773","3.389","169.4","5.096","175.7","1017.427","29.61","62.35","959.0","0.0"],
    [1418189,"2026-06-26 12:20:00","55774","3.4330000000000003","175.4","5.39","174.5","1017.408","29.36","62.89","955.0","0.0"],
    [1418190,"2026-06-26 12:30:00","55775","2.68","189.0","5.978","226.8","1017.3530000000001","30.23","59.96","948.0","0.0"],
    [1418191,"2026-06-26 12:40:00","55776","2.86","194.5","5.586","212.9","1017.2689999999999","30.82","57.6","943.0","0.0"],
    [1418192,"2026-06-26 12:50:00","55777","3.197","192.4","5.292","180.8","1017.179","30.66","55.38","938.0","0.0"],
    [1418193,"2026-06-26 13:00:00","55778","3.298","196.1","5.259","211.3","1017.155","30.72","54.51","930.0","0.0"],
    [1418194,"2026-06-26 13:10:00","55779","3.134","206.3","6.043","223.2","1017.064","30.95","52.2","922.0","0.0"],
    [1418195,"2026-06-26 13:20:00","55780","2.613","189.4","4.835","185","1017.01","31.48","51.81","911.0","0.0"],
    [1418196,"2026-06-26 13:30:00","55781","3.048","197.1","6.011","220.1","1017.007","31.33","52.94","898.0","0.0"],
    [1418197,"2026-06-26 13:40:00","55782","3.077","186.2","5.88","170.9","1016.9010000000001","31.23","52.72","886.0","0.0"],
    [1418198,"2026-06-26 13:50:00","55783","3.28","203.1","5.553","218.9","1016.855","31.25","54.18","869.0","0.0"],
    [1418199,"2026-06-26 14:00:00","55784","3.362","195.3","5.553","170.3","1016.826","31.45","53.48","854.0","0.0"],
    [1418200,"2026-06-26 14:10:00","55785","3.4339999999999997","191.2","5.325","183.5","1016.805","30.97","55.39","835.0","0.0"],
    [1418201,"2026-06-26 14:20:00","55786","3.832","190.0","5.913","179.3","1016.8530000000001","30.82","55.38","816.0","0.0"],
    [1418202,"2026-06-26 14:30:00","55787","3.7239999999999998","191.4","6.697","178.5","1016.8739999999999","30.94","55.4","795.3","0.0"],
    [1418203,"2026-06-26 14:40:00","55788","3.472","192.4","5.782","221.3","1016.835","30.69","56.76","773.6","0.0"],
    [1418204,"2026-06-26 14:50:00","55789","3.6010000000000004","206.0","5.978","181.8","1016.785","30.89","56.73","750.0","0.0"],
    [1418205,"2026-06-26 15:00:00","55790","3.7880000000000003","191.2","5.88","178.7","1016.757","30.61","58.0","724.5","0.0"],
    [1418206,"2026-06-26 15:10:00","55791","4.029","197.1","6.697","166","1016.705","30.35","59.35","702.0","0.0"],
    [1418207,"2026-06-26 15:20:00","55792","3.55","185.8","5.978","173.2","1016.672","30.06","59.52","656.2","0.0"],
    [1418208,"2026-06-26 15:30:00","55793","3.929","184.1","6.631","181.8","1016.6160000000001","30.25","58.1","627.4","0.0"],
    [1418209,"2026-06-26 15:40:00","55794","3.895","190.4","6.37","174.7","1016.569","30.06","58.41","615.5","0.0"],
    [1418210,"2026-06-26 15:50:00","55795","3.103","188.7","5.945","174.4","1016.574","30.33","58.49","551.7","0.0"],
    [1418211,"2026-06-26 16:00:00","55796","3.48","186.6","5.684","191.8","1016.607","29.96","58.65","560.9","0.0"],
    [1418212,"2026-06-26 16:10:00","55797","3.4810000000000003","187.1","5.455","177.8","1016.5260000000001","29.7","59.24","532.0","0.0"],
    [1418213,"2026-06-26 16:20:00","55798","3.96","183.0","5.88","187.9","1016.472","29.5","61.4","502.1","0.0"],
    [1418214,"2026-06-26 16:30:00","55799","3.6239999999999997","188.6","5.619","188","1016.42","29.46","60.6","469.8","0.0"],
    [1418215,"2026-06-26 16:40:00","55800","3.4019999999999997","191.2","5.815","179.3","1016.426","29.69","61.2","437.4","0.0"],
    [1418216,"2026-06-26 16:50:00","55801","3.68","188.8","6.174","202.2","1016.429","29.14","62.39","408.7","0.0"],
    [1418217,"2026-06-26 17:00:00","55802","2.719","198.9","5.031","218.6","1016.45","29.54","61.12","375.7","0.0"],
    [1418218,"2026-06-26 17:10:00","55803","3.958","184.4","5.488","185.4","1016.492","29.03","61.25","345.1","0.0"],
    [1418219,"2026-06-26 17:20:00","55804","2.734","192.4","4.704","186.7","1016.471","29.23","60.18","314.1","0.0"],
    [1418220,"2026-06-26 17:30:00","55805","2.427","202.2","5.325","186.4","1016.4680000000001","29.29","58.94","283.0","0.0"],
    [1418221,"2026-06-26 17:40:00","55806","2.563","202.5","7.023","210.8","1016.5169999999999","29.39","58.69","253.1","0.0"],
    [1418222,"2026-06-26 17:50:00","55807","2.7319999999999998","194.6","5.161","175.7","1016.574","28.89","60.86","223.7","0.0"],
    [1418223,"2026-06-26 18:00:00","55808","2.7060000000000004","197.3","4.835","181.2","1016.6089999999999","28.88","60.72","194.1","0.0"],
    [1418224,"2026-06-26 18:10:00","55809","2.577","209.7","4.345","226.8","1016.6289999999999","28.86","60.72","166.2","0.0"],
    [1418225,"2026-06-26 18:20:00","55810","2.864","195.8","5.161","178.1","1016.703","28.64","62.95","139.4","0.0"],
    [1418226,"2026-06-26 18:30:00","55811","2.975","183.1","4.867","178.5","1016.738","28.11","66.8","114.0","0.0"],
    [1418227,"2026-06-26 18:40:00","55812","2.1830000000000003","196.8","4.802","215.4","1016.7819999999999","28.07","66.03","88.7","0.0"],
    [1418228,"2026-06-26 18:50:00","55813","2.331","211.8","4.933","229.5","1016.882","28.1","63.75","65.8","0.0"],
    [1418229,"2026-06-26 19:00:00","55814","2.573","209.4","5.815","168.5","1016.8960000000001","27.96","65.55","44.8","0.0"],
    [1418230,"2026-06-26 19:10:00","55815","2.437","212.5","5.619","225.5","1016.942","27.84","64.67","26.77","0.0"],
    [1418231,"2026-06-26 19:20:00","55816","2.122","211.2","4.083","190.5","1016.965","27.67","66.44","12.72","0.0"],
    [1418232,"2026-06-26 19:30:00","55817","1.625","191.8","3.593","173.7","1016.953","27.41","70.99","3.235","0.0"],
    [1418233,"2026-06-26 19:40:00","55818","1.6740000000000002","206.5","3.855","191.8","1017.01","27.26","70.84","-0.484","0.0"],
    [1418234,"2026-06-26 19:50:00","55819","1.1320000000000001","201.8","3.495","187.7","1017.065","27.12","72.02","-2.4459999999999997","0.0"],
    [1418235,"2026-06-26 20:00:00","55820","1.16","205.5","4.671","263.2","1017.16","27.13","70.36","-2.8939999999999997","0.0"],
    [1418236,"2026-06-26 20:10:00","55821","1.278","187.4","3.201","202.7","1017.2310000000001","27.08","73.31","-2.964","0.0"],
    [1418237,"2026-06-26 20:20:00","55822","1.078","171.0","3.92","137.5","1017.305","27.0","74.02","-2.905","0.0"],
    [1418238,"2026-06-26 20:30:00","55823","1.0859999999999999","186.5","2.156","165.8","1017.3839999999999","26.89","75.18","-3.275","0.0"],
    [1418239,"2026-06-26 20:40:00","55824","0.9570000000000001","180.8","2.352","172.8","1017.413","26.92","74.96","-3.088","0.0"],
    [1418240,"2026-06-26 20:50:00","55825","1.403","183.2","2.842","151","1017.503","26.99","74.54","-2.949","0.0"],
    [1418241,"2026-06-26 21:00:00","55826","0.823","211.5","1.437","210.9","1017.5889999999999","26.87","75.28","-2.81","0.0"],
    [1418242,"2026-06-26 21:10:00","55827","0.622","222.1","1.143","228.1","1017.673","26.62","75.96","-3.21","0.0"],
    [1418243,"2026-06-26 21:20:00","55828","0.0","0.0","0","0","1017.7239999999999","26.47","76.36","-3.21","0.0"],
    [1418244,"2026-06-26 21:30:00","55829","0.0","0.0","0","0","1017.79","26.32","77.04","-3.201","0.0"],
    [1418245,"2026-06-26 21:40:00","55830","0.001","240.5","0.065","240.5","1017.705","26.22","76.4","-2.674","0.0"],
    [1418246,"2026-06-26 21:50:00","55831","0.0","0.0","0","0","1017.712","26.1","76.52","-2.6069999999999998","0.0"],
    [1418247,"2026-06-26 22:00:00","55832","0.0","0.0","0","0","1017.695","26.03","77.21","-2.6289999999999996","0.0"],
    [1418248,"2026-06-26 22:10:00","55833","0.0","240.5","0.033","240.5","1017.735","26.15","76.42","-2.593","0.0"],
    [1418249,"2026-06-26 22:20:00","55834","0.0","0.0","0","0","1017.7610000000001","26.02","76.37","-2.593","0.0"],
    [1418250,"2026-06-26 22:30:00","55835","0.0","0.0","0","0","1017.775","25.8","77.16","-2.593","0.0"],
    [1418251,"2026-06-26 22:40:00","55836","0.0","240.6","0.033","240.5","1017.809","25.9","76.92","-2.591","0.0"],
    [1418252,"2026-06-26 22:50:00","55837","0.0","0.0","0","0","1017.7439999999999","25.8","77.48","-2.593","0.0"],
    [1418253,"2026-06-26 23:00:00","55838","0.0","0.0","0","0","1017.71","25.77","78.47","-2.595","0.0"],
    [1418254,"2026-06-26 23:10:00","55839","0.0","240.5","0.033","240.5","1017.7339999999999","25.64","78.61","-2.594","0.0"],
    [1418255,"2026-06-26 23:20:00","55840","0.0","0.0","0","0","1017.693","25.5","79.57","-2.593","0.0"],
    [1418256,"2026-06-26 23:30:00","55841","0.0","0.0","0","0","1017.702","25.48","78.28","-2.546","0.0"],
    [1418257,"2026-06-26 23:40:00","55842","0.52","284.2","1.241","289.5","1017.677","25.4","71.55","-2.59","0.0"],
    [1418258,"2026-06-26 23:50:00","55843","0.792","279.2","1.209","277.9","1017.6419999999999","25.47","69.11","-2.59","0.0"],
    [1418259,"2026-06-27 00:00:00","55844","0.937","277.2","1.437","276.7","1017.568","25.41","69.46","-2.593","0.0"],
    [1418260,"2026-06-27 00:10:00","55845","1.002","269.7","1.797","276.9","1017.6060000000001","25.16","68.93","-2.593","0.0"],
    [1418261,"2026-06-27 00:20:00","55846","1.2590000000000001","268.6","1.699","267.2","1017.5889999999999","25.22","65.71","-2.596","0.0"],
    [1418262,"2026-06-27 00:30:00","55847","0.722","272.8","1.601","270.5","1017.561","25.25","64.97","-2.593","0.0"],
    [1418263,"2026-06-27 00:40:00","55848","0.7929999999999999","281.1","1.274","268.2","1017.498","25.03","65.03","-2.593","0.0"],
    [1418264,"2026-06-27 00:50:00","55849","0.995","296.2","1.503","300","1017.41","24.98","64.3","-2.595","0.0"],
    [1418265,"2026-06-27 01:00:00","55850","0.889","285.7","1.47","294.5","1017.3530000000001","24.87","63.69","-2.594","0.0"],
    [1418266,"2026-06-27 01:10:00","55851","0.703","282.7","1.209","277.6","1017.328","24.83","63.35","-2.594","0.0"],
    [1418267,"2026-06-27 01:20:00","55852","0.8859999999999999","267.0","1.535","281.7","1017.346","24.93","62.36","-2.594","0.0"],
    [1418268,"2026-06-27 01:30:00","55853","1.08","261.4","1.764","280.9","1017.331","25.05","61.5","-2.593","0.0"],
    [1418269,"2026-06-27 01:40:00","55854","1.867","271.8","2.548","277.4","1017.26","24.88","62.34","-2.594","0.0"],
    [1418270,"2026-06-27 01:50:00","55855","2.157","270.2","2.809","269.7","1017.222","24.5","63.82","-2.592","0.0"],
    [1418271,"2026-06-27 02:00:00","55856","1.6740000000000002","267.9","2.156","273.1","1017.202","24.34","64.42","-2.592","0.0"],
    [1418272,"2026-06-27 02:10:00","55857","1.972","272.6","2.287","273.4","1017.24","24.19","64.4","-2.592","0.0"],
    [1418273,"2026-06-27 02:20:00","55858","1.666","270.3","2.189","274.4","1017.2189999999999","24.14","64.47","-2.593","0.0"],
    [1418274,"2026-06-27 02:30:00","55859","1.44","272.0","2.058","268.6","1017.222","24.06","64.35","-2.592","0.0"],
    [1418275,"2026-06-27 02:40:00","55860","1.0859999999999999","280.9","1.927","272.9","1017.1619999999999","23.96","64.44","-2.596","0.0"],
    [1418276,"2026-06-27 02:50:00","55861","0.644","279.4","1.307","280.7","1017.0980000000001","23.98","64.39","-2.594","0.0"],
    [1418277,"2026-06-27 03:00:00","55862","0.5329999999999999","286.4","1.405","302.2","1017.086","23.8","65.17","-2.6010000000000004","0.0"],
    [1418278,"2026-06-27 03:10:00","55863","0.925","281.1","1.47","276.9","1017.1339999999999","23.99","64.75","-2.6060000000000003","0.0"],
    [1418279,"2026-06-27 03:20:00","55864","1.23","269.7","1.96","279.1","1017.1060000000001","24.21","64.0","-2.6069999999999998","0.0"],
    [1418280,"2026-06-27 03:30:00","55865","1.442","276.2","1.895","272.2","1017.1210000000001","24.06","64.8","-2.612","0.0"],
    [1418281,"2026-06-27 03:40:00","55866","1.464","280.5","2.123","279.2","1017.044","23.8","65.92","-2.623","0.0"],
    [1418282,"2026-06-27 03:50:00","55867","1.5759999999999998","282.3","2.221","275.4","1017.049","23.77","65.99","-2.623","0.0"],
    [1418283,"2026-06-27 04:00:00","55868","1.489","282.6","2.287","272.9","1017.085","23.59","66.49","-2.569","0.0"],
    [1418284,"2026-06-27 04:10:00","55869","1.445","283.2","1.993","276.5","1017.1360000000001","23.4","66.58","-1.715","0.0"],
    [1418285,"2026-06-27 04:20:00","55870","1.537","285.7","2.287","287.2","1017.155","23.32","66.34","0.28300000000000003","0.0"],
    [1418286,"2026-06-27 04:30:00","55871","1.27","283.9","2.058","281.7","1017.1510000000001","23.19","66.47","4.689","0.0"],
    [1418287,"2026-06-27 04:40:00","55872","1.324","279.8","1.862","282.3","1017.278","23.39","65.19","13.72","0.0"],
    [1418288,"2026-06-27 04:50:00","55873","1.185","279.0","1.699","277.3","1017.4019999999999","23.65","63.96","26.35","0.0"],
    [1418289,"2026-06-27 05:00:00","55874","1.3869999999999998","273.5","2.646","272.7","1017.5269999999999","23.85","62.58","40.63","0.0"],
    [1418290,"2026-06-27 05:10:00","55875","1.535","279.0","2.483","271","1017.659","24.04","61.36","55.95","0.0"],
    [1418291,"2026-06-27 05:20:00","55876","0.735","250.8","1.797","303.5","1017.7280000000001","24.27","60.37","73.21","0.0"],
    [1418292,"2026-06-27 05:30:00","55877","0.9309999999999999","275.5","1.568","290","1017.779","24.67","58.84","90.4","0.0"],
    [1418293,"2026-06-27 05:40:00","55878","1.264","280.5","2.221","276.5","1017.857","25.06","57.63","109.7","0.0"],
    [1418294,"2026-06-27 05:50:00","55879","1.2790000000000001","276.5","2.058","287","1017.962","25.46","56.51","122.7","0.0"],
    [1418295,"2026-06-27 06:00:00","55880","1.5219999999999998","283.8","2.319","287.6","1018.034","25.76","55.15","156.2","0.0"],
    [1418296,"2026-06-27 06:10:00","55881","0.9590000000000001","265.0","1.96","283.1","1018.127","26.16","53.45","187.6","0.0"],
    [1418297,"2026-06-27 06:20:00","55882","0.9209999999999999","258.4","1.862","278.9","1018.211","26.68","52.24","219.7","0.0"],
    [1418298,"2026-06-27 06:30:00","55883","1.6380000000000001","290.3","2.417","291.1","1018.2510000000001","26.76","51.63","253.2","0.0"],
    [1418299,"2026-06-27 06:40:00","55884","1.176","269.2","2.319","300.7","1018.328","27.05","51.43","274.7","0.0"],
    [1418300,"2026-06-27 06:50:00","55885","1.036","287.2","1.927","294","1018.403","27.5","50.44","304.7","0.0"],
    [1418301,"2026-06-27 07:00:00","55886","0.555","296.4","1.209","309.4","1018.4169999999999","27.97","49.73","338.1","0.0"],
    [1418302,"2026-06-27 07:10:00","55887","0.799","293.2","1.797","310.5","1018.42","28.44","48.8","376.6","0.0"],
    [1418303,"2026-06-27 07:20:00","55888","0.516","334.1","1.274","284.9","1018.4060000000001","29.07","48.08","415.5","0.0"],
    [1418304,"2026-06-27 07:30:00","55889","0.132","61.16","0.719","80.4","1018.472","29.82","48.3","452.6","0.0"],
    [1418305,"2026-06-27 07:40:00","55890","0.778","89.2","2.319","90.3","1018.488","30.16","48.88","467.6","0.0"],
    [1418306,"2026-06-27 07:50:00","55891","1.6569999999999998","94.5","2.515","81.4","1018.53","29.66","53.05","484.6","0.0"],
    [1418307,"2026-06-27 08:00:00","55892","2.005","97.5","3.038","84.2","1018.6080000000001","29.27","55.72","502.1","0.0"],
    [1418308,"2026-06-27 08:10:00","55893","1.777","116.8","2.907","113.5","1018.648","29.12","57.04","555.8","0.0"],
    [1418309,"2026-06-27 08:20:00","55894","1.8730000000000002","108.9","3.528","120","1018.7080000000001","28.97","60.62","555.8","0.0"],
    [1418310,"2026-06-27 08:30:00","55895","1.435","115.5","3.169","133.1","1018.7819999999999","28.89","64.65","616.5","0.0"],
    [1418311,"2026-06-27 08:40:00","55896","0.746","125.2","3.299","112.9","1018.81","29.42","63.24","625.4","0.0"],
    [1418312,"2026-06-27 08:50:00","55897","0.8490000000000001","146.5","2.385","152.6","1018.813","29.14","62.01","683.2","0.0"],
    [1418313,"2026-06-27 09:00:00","55898","1.123","113.9","2.548","121.8","1018.831","29.65","59.7","672.2","0.0"],
    [1418314,"2026-06-27 09:10:00","55899","1.004","151.9","2.907","129.3","1018.8610000000001","29.77","56.43","736.2","0.0"],
    [1418315,"2026-06-27 09:20:00","55900","1.1059999999999999","132.3","2.613","194.3","1018.909","30.82","52.44","761.2","0.0"],
    [1418316,"2026-06-27 09:30:00","55901","1.148","156.3","2.744","195.2","1018.9630000000001","30.74","53.75","778.2","0.0"],
    [1418317,"2026-06-27 09:40:00","55902","1.068","168.3","3.038","176.5","1019.015","30.95","55.84","797.0","0.0"],
    [1418318,"2026-06-27 09:50:00","55903","1.2919999999999998","118.2","3.267","109.5","1018.998","31.17","54.06","813.0","0.0"],
    [1418319,"2026-06-27 10:00:00","55904","1.8430000000000002","116.1","8.1","131.7","1019.039","30.42","54.64","849.0","0.0"],
    [1418320,"2026-06-27 10:10:00","55905","1.669","153.1","3.234","169.1","1019.087","30.5","53.61","866.0","0.0"],
    [1418321,"2026-06-27 10:20:00","55906","0.9470000000000001","149.1","2.907","159.8","1019.077","30.6","54.98","879.0","0.0"],
    [1418322,"2026-06-27 10:30:00","55907","0.8590000000000001","151.9","2.907","198.3","1019.113","31.41","53.44","893.0","0.0"],
    [1418323,"2026-06-27 10:40:00","55908","2.4819999999999998","180.7","4.9","171.9","1019.237","30.5","51.65","906.0","0.0"],
    [1418324,"2026-06-27 10:50:00","55909","2.747","171.5","4.41","170.6","1019.295","30.58","51.97","922.0","0.0"],
    [1418325,"2026-06-27 11:00:00","55910","2.29","182.8","4.018","190.9","1019.252","30.76","54.11","934.0","0.0"],
    [1418326,"2026-06-27 11:10:00","55911","2.4090000000000003","188.2","5.815","179.4","1019.171","31.28","50.57","945.0","0.0"],
    [1418327,"2026-06-27 11:20:00","55912","2.665","171.7","3.92","184.1","1019.1439999999999","30.7","53.18","953.0","0.0"],
    [1418328,"2026-06-27 11:30:00","55913","2.369","191.4","4.018","170.8","1019.102","30.61","53.41","957.0","0.0"],
    [1418329,"2026-06-27 11:40:00","55914","2.4459999999999997","188.1","4.116","167","1019.11","31.16","52.15","956.0","0.0"],
    [1418330,"2026-06-27 11:50:00","55915","1.8130000000000002","178.1","4.214","172.7","1019.065","31.29","53.98","957.0","0.0"],
    [1418331,"2026-06-27 12:00:00","55916","1.527","148.3","4.377","171.4","1018.977","30.73","56.94","957.0","0.0"],
    [1418332,"2026-06-27 12:10:00","55917","1.32","130.7","3.757","129.6","1018.862","31.0","55.83","955.0","0.0"],
    [1418333,"2026-06-27 12:20:00","55918","1.979","127.5","4.573","105.1","1018.765","30.85","57.19","954.0","0.0"],
    [1418334,"2026-06-27 12:30:00","55919","2.0","119.1","4.279","116.5","1018.7080000000001","30.46","59.04","950.0","0.0"],
    [1418335,"2026-06-27 12:40:00","55920","1.633","106.7","4.214","115.8","1018.68","30.97","57.03","939.0","0.0"],
    [1418336,"2026-06-27 12:50:00","55921","1.494","100.9","3.495","108.8","1018.712","31.65","50.81","932.0","0.0"],
    [1418337,"2026-06-27 13:00:00","55922","1.922","112.6","3.887","117.4","1018.696","31.27","50.98","926.0","0.0"],
    [1418338,"2026-06-27 13:10:00","55923","1.855","125.3","4.541","120.4","1018.705","31.05","50.98","916.0","0.0"],
    [1418339,"2026-06-27 13:20:00","55924","1.514","118.4","3.92","152.5","1018.737","31.04","50.66","904.0","0.0"],
    [1418340,"2026-06-27 13:30:00","55925","1.675","152.1","3.887","171.5","1018.752","31.05","52.58","891.0","0.0"],
    [1418341,"2026-06-27 13:40:00","55926","1.088","160.9","5.717","134.3","1018.643","31.96","47.54","875.0","0.0"],
    [1418342,"2026-06-27 13:50:00","55927","1.6680000000000001","159.5","3.985","176.2","1018.653","31.9","49.78","862.0","0.0"],
    [1418343,"2026-06-27 14:00:00","55928","2.006","174.3","4.116","146.7","1018.677","31.46","49.45","847.0","0.0"],
    [1418344,"2026-06-27 14:10:00","55929","2.0180000000000002","169.8","3.953","167.5","1018.6360000000001","31.47","48.98","829.0","0.0"],
    [1418345,"2026-06-27 14:20:00","55930","1.459","137.4","3.724","181.2","1018.6139999999999","31.55","45.68","809.0","0.0"],
    [1418346,"2026-06-27 14:30:00","55931","1.305","132.7","4.737","126.6","1018.582","31.9","44.36","788.7","0.0"],
    [1418347,"2026-06-27 14:40:00","55932","1.382","137.9","3.593","133","1018.564","31.63","44.36","767.5","0.0"],
    [1418348,"2026-06-27 14:50:00","55933","0.977","132.1","2.777","141.1","1018.6030000000001","32.05","42.73","743.2","0.0"],
    [1418349,"2026-06-27 15:00:00","55934","1.203","143.8","2.809","176.4","1018.546","31.87","44.0","720.1","0.0"],
    [1418350,"2026-06-27 15:10:00","55935","1.4080000000000001","111.3","2.875","129.6","1018.49","31.99","42.08","695.7","0.0"],
    [1418351,"2026-06-27 15:20:00","55936","1.5090000000000001","107.5","3.005","92","1018.435","31.77","41.76","657.2","0.0"],
    [1418352,"2026-06-27 15:30:00","55937","1.6740000000000002","110.7","3.071","96.1","1018.3839999999999","31.86","42.54","619.7","0.0"],
    [1418353,"2026-06-27 15:40:00","55938","1.381","135.4","3.659","159","1018.321","31.53","43.94","610.4","0.0"],
    [1418354,"2026-06-27 15:50:00","55939","1.004","164.6","2.581","125.5","1018.2669999999999","31.19","44.43","545.3","0.0"],
    [1418355,"2026-06-27 16:00:00","55940","1.208","117.9","3.136","124","1018.221","31.77","42.72","552.2","0.0"],
    [1418356,"2026-06-27 16:10:00","55941","1.374","114.9","3.463","113.2","1018.177","31.48","46.08","524.1","0.0"],
    [1418357,"2026-06-27 16:20:00","55942","0.8340000000000001","140.0","2.907","165.3","1018.085","31.57","49.53","493.3","0.0"],
    [1418358,"2026-06-27 16:30:00","55943","1.4180000000000001","182.7","3.103","194.2","1018.0369999999999","31.69","48.7","461.9","0.0"],
    [1418359,"2026-06-27 16:40:00","55944","1.797","196.8","3.887","147.1","1018.012","31.33","44.58","431.3","0.0"],
    [1418360,"2026-06-27 16:50:00","55945","1.89","186.2","4.116","185.6","1017.932","31.24","43.89","399.1","0.0"],
    [1418361,"2026-06-27 17:00:00","55946","1.929","184.2","6.043","194.9","1017.9","30.95","45.54","369.3","0.0"],
    [1418362,"2026-06-27 17:10:00","55947","1.686","199.2","3.299","150.3","1017.8939999999999","31.3","44.27","338.9","0.0"],
    [1418363,"2026-06-27 17:20:00","55948","1.744","184.1","3.626","190.5","1017.904","30.86","47.82","308.3","0.0"],
    [1418364,"2026-06-27 17:30:00","55949","1.858","187.1","4.704","218.8","1017.921","30.47","48.89","278.0","0.0"],
    [1418365,"2026-06-27 17:40:00","55950","1.7080000000000002","197.3","4.671","210","1017.9910000000001","30.67","48.97","247.5","0.0"],
    [1418366,"2026-06-27 17:50:00","55951","2.1790000000000003","184.5","4.214","206.6","1018.039","30.08","52.23","218.1","0.0"],
    [1418367,"2026-06-27 18:00:00","55952","1.261","192.4","2.973","215.5","1018.0189999999999","29.97","52.6","189.0","0.0"],
    [1418368,"2026-06-27 18:10:00","55953","1.945","186.2","3.071","180.5","1018.078","29.73","53.42","161.8","0.0"],
    [1418369,"2026-06-27 18:20:00","55954","1.524","166.1","4.639","146","1018.067","29.47","54.28","135.1","0.0"],
    [1418370,"2026-06-27 18:30:00","55955","1.844","186.5","5.357","182","1018.084","29.47","49.64","108.3","0.0"],
    [1418371,"2026-06-27 18:40:00","55956","1.492","178.6","3.299","233.9","1018.096","29.39","53.18","84.6","0.0"],
    [1418372,"2026-06-27 18:50:00","55957","1.0859999999999999","173.3","4.377","179.2","1018.066","29.21","54.69","62.25","0.0"],
    [1418373,"2026-06-27 19:00:00","55958","1.2329999999999999","168.2","3.953","149.5","1018.053","28.96","57.03","42.89","0.0"],
    [1418374,"2026-06-27 19:10:00","55959","1.252","172.6","3.038","159.4","1017.926","28.75","57.34","25.96","0.0"],
    [1418375,"2026-06-27 19:20:00","55960","1.401","171.2","3.103","187.9","1017.883","28.78","53.51","12.34","0.0"],
    [1418376,"2026-06-27 19:30:00","55961","1.16","171.2","3.789","153.8","1017.873","28.58","55.91","2.194","0.0"],
    [1418377,"2026-06-27 19:50:00","55962","0.951","178.7","1.568","162.7","1017.946","28.25","61.43","-2.858","0.0"],
    [1418378,"2026-06-27 20:00:00","55963","0.8390000000000001","177.3","1.535","180","1018.055","28.05","63.55","-3.2960000000000003","0.0"],
    [1418379,"2026-06-27 20:10:00","55964","0.664","198.0","1.209","184.2","1018.171","27.91","64.83","-3.3280000000000003","0.0"],
    [1418380,"2026-06-27 20:20:00","55965","1.136","187.2","2.385","195.5","1018.28","27.83","63.83","-3.409","0.0"],
    [1418381,"2026-06-27 20:30:00","55966","0.9890000000000001","210.2","2.156","202.7","1018.3960000000001","27.82","65.02","-3.285","0.0"],
    [1418382,"2026-06-27 20:40:00","55967","1.192","196.8","2.319","158.2","1018.5369999999999","27.8","64.07","-3.326","0.0"],
    [1418383,"2026-06-27 20:50:00","55968","1.226","163.8","3.005","135.2","1018.638","27.94","63.02","-3.292","0.0"],
    [1418384,"2026-06-27 21:00:00","55969","0.499","152.7","2.287","122.9","1018.7239999999999","27.85","64.45","-2.965","0.0"],
    [1418385,"2026-06-27 21:10:00","55970","0.07","153.5","0.719","180.6","1018.693","27.61","65.43","-3.346","0.0"],
    [1418386,"2026-06-27 21:20:00","55971","0.41700000000000004","168.6","1.274","191.8","1018.7080000000001","27.48","65.3","-3.378","0.0"],
    [1418387,"2026-06-27 21:30:00","55972","0.93","180.8","1.601","191.4","1018.748","27.65","64.79","-3.248","0.0"],
    [1418388,"2026-06-27 21:40:00","55973","0.846","192.2","1.568","187.6","1018.77","27.55","64.95","-3.188","0.0"],
    [1418389,"2026-06-27 21:50:00","55974","0.294","181.1","0.817","172.3","1018.795","27.35","66.02","-3.178","0.0"],
    [1418390,"2026-06-27 22:00:00","55975","0.004","201.6","0.196","201.5","1018.79","27.07","67.03","-3.342","0.0"],
    [1418391,"2026-06-27 22:10:00","55976","0.062","156.1","0.457","155.9","1018.765","27.1","67.59","-3.093","0.0"],
    [1418392,"2026-06-27 22:20:00","55977","0.0","0.0","0","0","1018.758","26.94","67.86","-2.9989999999999997","0.0"],
    [1418393,"2026-06-27 22:30:00","55978","0.0","0.0","0","0","1018.711","26.74","68.12","-2.9410000000000003","0.0"],
    [1418394,"2026-06-27 22:40:00","55979","0.001","170.7","0.065","170.7","1018.63","26.58","68.72","-3.1010000000000004","0.0"],
    [1418395,"2026-06-27 22:50:00","55980","0.03","224.2","0.621","233","1018.57","26.49","69.04","-2.637","0.0"],
    [1418396,"2026-06-27 23:00:00","55981","0.049","182.0","0.784","179.8","1018.53","26.33","70.78","-2.5989999999999998","0.0"],
    [1418397,"2026-06-27 23:10:00","55982","0.001","172.6","0.065","173.3","1018.5","26.26","71.18","-2.616","0.0"],
    [1418398,"2026-06-27 23:20:00","55983","0.0","0.0","0","0","1018.452","26.13","72.46","-2.605","0.0"],
    [1418399,"2026-06-27 23:30:00","55984","0.687","270.0","1.633","282.1","1018.4730000000001","25.89","74.08","-2.673","0.0"],
    [1418400,"2026-06-27 23:40:00","55985","1.235","271.0","2.025","269.8","1018.442","25.71","74.01","-2.6289999999999996","0.0"],
    [1418401,"2026-06-27 23:50:00","55986","0.945","264.2","2.025","268.6","1018.434","25.6","68.96","-2.5980000000000003","0.0"],
    [1418402,"2026-06-28 00:00:00","55987","1.084","271.7","1.862","277.4","1018.4119999999999","25.54","64.17","-2.67","0.0"],
    [1418403,"2026-06-28 00:10:00","55988","0.938","275.0","1.633","267.1","1018.367","25.54","59.57","-2.6189999999999998","0.0"],
    [1418404,"2026-06-28 00:20:00","55989","0.867","268.8","1.47","285.5","1018.3639999999999","25.28","57.91","-2.64","0.0"],
    [1418405,"2026-06-28 00:30:00","55990","1.138","257.8","2.156","270.2","1018.2660000000001","25.46","54.75","-2.6","0.0"],
    [1418406,"2026-06-28 00:40:00","55991","0.9129999999999999","276.8","1.601","301.3","1018.169","25.32","54.62","-2.639","0.0"],
    [1418407,"2026-06-28 00:50:00","55992","1.2329999999999999","262.2","1.829","262.4","1018.0169999999999","25.29","54.19","-2.659","0.0"],
    [1418408,"2026-06-28 01:00:00","55993","1.525","260.1","2.483","265","1018.005","25.36","53.5","-2.595","0.0"],
    [1418409,"2026-06-28 01:10:00","55994","1.558","272.7","2.221","256.1","1018.008","25.24","53.12","-2.594","0.0"],
    [1418410,"2026-06-28 01:20:00","55995","1.518","262.4","2.515","271.3","1017.985","25.08","53.71","-2.593","0.0"],
    [1418411,"2026-06-28 01:30:00","55996","1.484","271.7","2.385","247.8","1017.992","24.94","53.88","-2.593","0.0"],
    [1418412,"2026-06-28 01:40:00","55997","1.3880000000000001","274.3","2.417","294.2","1017.992","24.78","54.29","-2.593","0.0"],
    [1418413,"2026-06-28 01:50:00","55998","1.758","272.9","2.907","251","1017.9910000000001","24.62","54.38","-2.594","0.0"],
    [1418414,"2026-06-28 02:00:00","55999","1.7890000000000001","270.4","2.973","249","1017.938","24.65","54.13","-2.593","0.0"],
    [1418415,"2026-06-28 02:10:00","56000","1.725","263.2","2.515","260.9","1017.86","24.45","54.75","-2.592","0.0"],
    [1418416,"2026-06-28 02:20:00","56001","1.814","271.0","2.973","275.4","1017.806","24.32","55.09","-2.593","0.0"],
    [1418417,"2026-06-28 02:30:00","56002","1.3980000000000001","265.2","2.548","271.5","1017.82","24.24","55.28","-2.593","0.0"],
    [1418418,"2026-06-28 02:40:00","56003","1.207","279.5","2.287","277.6","1017.758","24.02","55.6","-2.593","0.0"],
    [1418419,"2026-06-28 02:50:00","56004","1.473","279.1","2.385","274.7","1017.659","23.96","55.51","-2.595","0.0"],
    [1418420,"2026-06-28 03:00:00","56005","1.72","279.2","2.548","279.1","1017.613","24.11","54.72","-2.593","0.0"],
    [1418421,"2026-06-28 03:10:00","56006","1.382","272.5","2.45","294.1","1017.6389999999999","24.04","54.78","-2.594","0.0"],
    [1418422,"2026-06-28 03:20:00","56007","1.244","264.7","2.613","283.2","1017.633","24.01","54.67","-2.594","0.0"],
    [1418423,"2026-06-28 03:30:00","56008","1.46","270.2","3.136","268.4","1017.595","23.99","54.66","-2.595","0.0"],
    [1418424,"2026-06-28 03:40:00","56009","2.131","279.1","3.561","278.3","1017.6","23.81","54.9","-2.595","0.0"],
    [1418425,"2026-06-28 03:50:00","56010","1.443","282.2","2.254","280.1","1017.5930000000001","23.55","55.79","-2.596","0.0"],
    [1418426,"2026-06-28 04:00:00","56011","1.6840000000000002","271.3","2.744","265.7","1017.541","23.69","55.28","-2.597","0.0"],
    [1418427,"2026-06-28 04:10:00","56012","1.4580000000000002","269.7","2.417","272","1017.578","23.93","54.38","-1.7790000000000001","0.0"],
    [1418428,"2026-06-28 04:20:00","56013","1.255","272.0","2.319","288","1017.66","23.94","54.46","0.2","0.0"],
    [1418429,"2026-06-28 04:30:00","56014","1.389","266.5","2.417","277.4","1017.666","23.93","54.5","4.745","0.0"],
    [1418430,"2026-06-28 04:40:00","56015","1.273","266.8","2.287","283.8","1017.7439999999999","24.05","53.86","13.05","0.0"],
    [1418431,"2026-06-28 04:50:00","56016","1.3880000000000001","268.6","2.613","282.2","1017.8389999999999","24.27","53.3","25.0","0.0"],
    [1418432,"2026-06-28 05:00:00","56017","1.825","265.1","3.365","266.7","1017.867","24.34","53.23","38.63","0.0"],
    [1418433,"2026-06-28 05:10:00","56018","1.8090000000000002","265.2","2.875","278.1","1017.947","24.27","53.74","54.18","0.0"],
    [1418434,"2026-06-28 05:20:00","56019","1.149","269.9","2.254","283.9","1017.967","24.15","54.14","70.57","0.0"],
    [1418435,"2026-06-28 05:30:00","56020","1.324","277.2","1.862","276.1","1017.939","24.44","53.23","88.2","0.0"],
    [1418436,"2026-06-28 05:40:00","56021","1.432","275.6","2.417","287.7","1017.995","24.73","52.39","108.6","0.0"],
    [1418437,"2026-06-28 05:50:00","56022","1.3030000000000002","265.4","2.091","259.1","1018.0980000000001","25.05","51.55","123.6","0.0"],
    [1418438,"2026-06-28 06:00:00","56023","1.7109999999999999","264.4","2.809","280.4","1018.203","25.19","51.43","156.4","0.0"],
    [1418439,"2026-06-28 06:10:00","56024","1.7690000000000001","271.7","2.777","269.3","1018.328","25.45","50.93","184.3","0.0"],
    [1418440,"2026-06-28 06:20:00","56025","1.5419999999999998","259.9","2.744","266.2","1018.448","25.81","49.96","214.2","0.0"],
    [1418441,"2026-06-28 06:30:00","56026","1.3659999999999999","274.6","2.091","296","1018.563","26.35","48.56","247.5","0.0"],
    [1418442,"2026-06-28 06:40:00","56027","1.1909999999999998","268.6","2.287","267.3","1018.653","27.02","46.91","280.2","0.0"],
    [1418443,"2026-06-28 06:50:00","56028","1.068","278.2","1.96","286.9","1018.668","27.63","45.38","313.3","0.0"],
    [1418444,"2026-06-28 07:00:00","56029","0.722","250.8","1.96","217.2","1018.7080000000001","28.38","43.85","346.1","0.0"],
    [1418445,"2026-06-28 07:10:00","56030","0.528","262.7","1.568","289.2","1018.826","29.04","42.55","378.7","0.0"],
    [1418446,"2026-06-28 07:20:00","56031","0.645","219.3","1.503","208.9","1018.9","29.53","41.04","410.6","0.0"],
    [1418447,"2026-06-28 07:30:00","56032","0.769","80.0","2.679","84.2","1019.003","29.92","42.97","438.8","0.0"],
    [1418448,"2026-06-28 07:40:00","56033","2.195","84.9","3.005","90.7","1019.09","29.01","52.76","473.1","0.0"],
    [1418449,"2026-06-28 07:50:00","56034","2.822","81.6","3.887","78.92","1019.1619999999999","28.75","53.99","505.8","0.0"],
    [1418450,"2026-06-28 08:00:00","56035","2.6310000000000002","86.1","4.41","91.1","1019.205","28.61","51.86","534.1","0.0"],
    [1418451,"2026-06-28 08:10:00","56036","2.759","71.11","3.822","74.64","1019.1669999999999","29.0","47.98","566.2","0.0"],
    [1418452,"2026-06-28 08:20:00","56037","3.0","72.29","3.92","78.71","1019.123","28.85","52.03","598.0","0.0"],
    [1418453,"2026-06-28 08:30:00","56038","3.3","80.4","4.377","82","1019.107","28.63","55.24","627.3","0.0"],
    [1418454,"2026-06-28 08:40:00","56039","3.2569999999999997","79.29","4.639","79.11","1019.143","28.82","59.75","620.5","0.0"],
    [1418455,"2026-06-28 08:50:00","56040","3.565","82.0","4.704","81.4","1019.077","28.89","60.15","683.4","0.0"],
    [1418456,"2026-06-28 09:00:00","56041","3.477","77.33","4.737","81","1019.0830000000001","28.83","61.37","675.8","0.0"],
    [1418457,"2026-06-28 09:10:00","56042","3.1689999999999996","66.14","4.475","70.79","1019.13","29.23","60.52","732.0","0.0"],
    [1418458,"2026-06-28 09:20:00","56043","2.355","88.1","4.345","77.93","1019.0930000000001","29.59","57.45","754.8","0.0"],
    [1418459,"2026-06-28 09:30:00","56044","3.227","68.32","5.227","76.7","1019.091","29.63","57.36","776.5","0.0"],
    [1418460,"2026-06-28 09:40:00","56045","3.387","64.9","4.867","56.22","1019.065","29.38","61.46","797.5","0.0"],
    [1418461,"2026-06-28 09:50:00","56046","3.285","79.97","4.639","84.3","1018.975","29.52","59.12","817.0","0.0"],
    [1418462,"2026-06-28 10:00:00","56047","2.759","92.6","4.018","78.26","1018.957","29.96","51.78","838.0","0.0"],
    [1418463,"2026-06-28 10:10:00","56048","2.878","84.6","4.247","86","1018.992","30.1","49.45","856.0","0.0"],
    [1418464,"2026-06-28 10:20:00","56049","2.747","88.4","4.475","100.3","1019.038","30.16","54.22","871.0","0.0"],
    [1418465,"2026-06-28 10:30:00","56050","2.3","97.7","3.528","87.3","1018.9989999999999","30.05","58.71","887.0","0.0"],
    [1418466,"2026-06-28 10:40:00","56051","2.443","98.6","3.332","82.8","1018.934","30.15","54.48","902.0","0.0"],
    [1418467,"2026-06-28 10:50:00","56052","2.928","100.3","4.116","95.2","1018.922","30.0","52.07","914.0","0.0"],
    [1418468,"2026-06-28 11:00:00","56053","2.523","105.2","3.757","101.5","1018.89","30.58","51.34","923.0","0.0"],
    [1418469,"2026-06-28 11:10:00","56054","3.02","94.0","4.247","116.4","1018.863","30.69","46.95","933.0","0.0"],
    [1418470,"2026-06-28 11:20:00","56055","2.8080000000000003","95.1","4.247","94.8","1018.826","31.15","46.08","940.0","0.0"],
    [1418471,"2026-06-28 11:30:00","56056","2.679","94.3","3.43","108.5","1018.82","31.29","43.48","947.0","0.0"],
    [1418472,"2026-06-28 11:40:00","56057","2.497","96.6","4.475","93.2","1018.832","31.53","46.59","951.0","0.0"],
    [1418473,"2026-06-28 11:50:00","56058","2.862","96.1","4.083","101.1","1018.773","30.65","54.19","952.0","0.0"],
    [1418474,"2026-06-28 12:00:00","56059","2.343","98.9","3.299","107.1","1018.747","30.93","55.48","950.0","0.0"],
    [1418475,"2026-06-28 12:10:00","56060","2.6519999999999997","100.5","3.855","103.8","1018.6519999999999","30.99","57.0","949.0","0.0"],
    [1418476,"2026-06-28 12:20:00","56061","3.14","90.6","4.443","100.5","1018.557","30.77","59.79","946.0","0.0"],
    [1418477,"2026-06-28 12:30:00","56062","3.247","92.9","4.9","93","1018.5360000000001","30.45","62.95","940.0","0.0"],
    [1418478,"2026-06-28 12:40:00","56063","3.827","83.2","4.704","86.4","1018.4889999999999","30.07","66.14","935.0","0.0"],
    [1418479,"2026-06-28 12:50:00","56064","3.134","93.3","4.639","85.1","1018.457","30.22","67.18","927.0","0.0"],
    [1418480,"2026-06-28 13:00:00","56065","2.7760000000000002","102.1","4.181","103.8","1018.4110000000001","30.27","67.71","918.0","0.0"],
    [1418481,"2026-06-28 13:10:00","56066","2.718","106.3","4.41","112.3","1018.3330000000001","30.27","68.9","905.0","0.0"],
    [1418482,"2026-06-28 13:20:00","56067","2.572","102.0","5.161","93.6","1018.352","30.55","69.6","894.0","0.0"],
    [1418483,"2026-06-28 13:30:00","56068","2.722","104.5","4.443","113.6","1018.326","30.42","70.47","883.0","0.0"],
    [1418484,"2026-06-28 13:40:00","56069","3.16","100.9","4.965","79.94","1018.298","30.07","72.64","870.0","0.0"],
    [1418485,"2026-06-28 13:50:00","56070","2.506","107.8","4.41","103.8","1018.21","30.37","72.34","859.0","0.0"],
    [1418486,"2026-06-28 14:00:00","56071","2.718","104.2","4.312","102","1018.1419999999999","30.36","72.56","860.0","0.0"],
    [1418487,"2026-06-28 14:10:00","56072","2.42","104.1","4.247","101.7","1018.086","30.13","73.02","671.5","0.0"],
    [1418488,"2026-06-28 14:20:00","56073","2.82","99.4","5.096","79.85","1017.947","30.12","72.51","799.5","0.0"],
    [1418489,"2026-06-28 14:30:00","56074","3.665","91.4","5.129","91.9","1017.84","30.07","71.8","791.5","0.0"],
    [1418490,"2026-06-28 14:40:00","56075","3.387","101.3","4.835","103.7","1017.768","29.71","74.64","762.2","0.0"],
    [1418491,"2026-06-28 14:50:00","56076","2.753","104.0","4.573","101.7","1017.681","30.03","73.1","733.5","0.0"],
    [1418492,"2026-06-28 15:00:00","56077","2.9989999999999997","101.0","4.998","114","1017.677","30.11","73.44","712.2","0.0"],
    [1418493,"2026-06-28 15:10:00","56078","3.303","103.8","4.9","101.7","1017.669","29.99","73.66","688.2","0.0"],
    [1418494,"2026-06-28 15:20:00","56079","3.555","95.5","5.357","85.9","1017.709","29.66","74.37","652.3","0.0"],
    [1418495,"2026-06-28 15:30:00","56080","3.7430000000000003","95.3","4.671","100.4","1017.549","29.49","75.96","626.9","0.0"],
    [1418496,"2026-06-28 15:40:00","56081","3.845","98.1","5.39","95.6","1017.328","29.25","74.01","530.4","0.0"],
    [1418497,"2026-06-28 15:50:00","56082","2.7960000000000003","92.3","4.377","69.37","1017.295","29.5","71.83","431.6","0.0"],
    [1418498,"2026-06-28 16:00:00","56083","1.926","107.1","3.789","102","1017.4580000000001","29.47","70.74","437.5","0.0"],
    [1418499,"2026-06-28 16:10:00","56084","1.621","104.8","3.43","110","1017.442","29.97","67.39","484.9","0.0"],
    [1418500,"2026-06-28 16:20:00","56085","0.943","140.8","3.103","129.9","1017.409","29.9","63.93","274.5","0.0"],
    [1418501,"2026-06-28 16:30:00","56086","1.291","112.1","2.646","113.1","1017.41","29.5","66.55","234.3","0.0"],
    [1418502,"2026-06-28 16:40:00","56087","1.3419999999999999","110.0","2.711","100.5","1017.3689999999999","29.33","65.67","188.2","0.0"],
    [1418503,"2026-06-28 16:50:00","56088","0.941","105.1","2.058","77.78","1017.52","29.39","64.63","176.5","0.0"],
    [1418504,"2026-06-28 17:00:00","56089","0.585","137.2","2.646","179.3","1017.6110000000001","29.59","62.17","148.1","0.0"],
    [1418505,"2026-06-28 17:10:00","56090","0.938","182.6","2.581","169.7","1017.732","29.54","62.05","130.3","0.0"],
    [1418506,"2026-06-28 17:20:00","56091","1.484","212.0","4.247","203.3","1017.942","29.46","60.41","106.9","0.0"],
    [1418507,"2026-06-28 17:30:00","56092","0.8490000000000001","228.0","2.058","248.9","1018.283","29.33","62.34","73.92","0.0"],
    [1418508,"2026-06-28 17:40:00","56093","0.841","218.6","2.123","246.8","1018.416","29.32","62.97","58.47","0.0"],
    [1418509,"2026-06-28 17:50:00","56094","1.165","208.0","2.613","227","1018.452","29.39","62.29","51.79","0.0"],
    [1418510,"2026-06-28 18:00:00","56095","1.768","221.6","2.679","218.7","1018.503","29.48","61.56","61.68","0.0"],
    [1418511,"2026-06-28 18:10:00","56096","1.262","250.2","2.287","279.6","1018.543","29.8","59.44","84.0","0.0"],
    [1418512,"2026-06-28 18:20:00","56097","0.958","262.5","2.254","281.7","1018.377","30.1","52.11","83.3","0.0"],
    [1418513,"2026-06-28 18:30:00","56098","1.354","186.1","2.711","194.6","1018.1519999999999","30.26","50.99","76.93","0.0"],
    [1418514,"2026-06-28 18:40:00","56099","1.574","181.7","3.169","178.6","1017.951","30.24","49.53","63.73","0.0"],
    [1418515,"2026-06-28 18:50:00","56100","2.136","171.4","3.92","165.9","1017.7310000000001","29.72","59.88","51.51","0.0"],
    [1418516,"2026-06-28 19:00:00","56101","1.734","187.7","3.659","174.3","1017.716","29.41","64.03","30.83","0.0"],
    [1418517,"2026-06-28 19:10:00","56102","1.976","200.8","3.234","204.2","1017.915","29.22","69.36","12.84","0.0"],
    [1418518,"2026-06-28 19:20:00","56103","2.489","197.9","5.782","179.6","1018.076","28.99","73.91","5.46","0.0"],
    [1418519,"2026-06-28 19:30:00","56104","2.427","183.7","4.671","175.6","1017.985","28.49","79.69","1.163","0.0"],
    [1418520,"2026-06-28 19:40:00","56105","2.142","192.6","3.887","232.8","1017.7330000000001","28.57","74.85","-0.924","0.0"],
    [1418521,"2026-06-28 19:50:00","56106","2.274","222.6","4.573","193.2","1017.8689999999999","28.78","68.69","-2.204","0.0"],
    [1418522,"2026-06-28 20:00:00","56107","2.1790000000000003","228.7","3.659","220.8","1018.056","28.78","65.35","-2.551","0.0"],
    [1418523,"2026-06-28 20:10:00","56108","1.778","234.4","3.103","233.5","1018.005","28.75","61.86","-2.552","0.0"],
    [1418524,"2026-06-28 20:20:00","56109","0.95","242.0","2.254","236.8","1017.9889999999999","28.67","59.39","-2.862","0.0"],
    [1418525,"2026-06-28 20:30:00","56110","0.86","232.9","2.156","238.5","1017.846","28.81","57.37","-2.6510000000000002","0.0"],
    [1418526,"2026-06-28 20:40:00","56111","1.1640000000000001","236.4","1.829","239.2","1017.836","28.64","57.62","-2.9530000000000003","0.0"],
    [1418527,"2026-06-28 20:50:00","56112","0.742","253.8","1.666","245.8","1017.888","28.46","57.36","-2.5789999999999997","0.0"],
    [1418528,"2026-06-28 21:00:00","56113","1.5590000000000002","227.1","3.201","212.8","1017.934","28.66","54.93","-2.5860000000000003","0.0"],
    [1418529,"2026-06-28 21:10:00","56114","1.524","232.4","2.646","217.6","1018.067","29.17","51.2","-2.094","0.0"],
    [1418530,"2026-06-28 21:20:00","56115","0.877","260.9","1.797","214.5","1018.117","28.98","52.61","-1.854","0.0"],
    [1418531,"2026-06-28 21:30:00","56116","0.867","300.6","1.797","317.8","1018.067","28.55","54.75","-1.858","0.0"],
    [1418532,"2026-06-28 21:40:00","56117","1.2109999999999999","222.8","1.601","226.7","1018.1489999999999","28.78","54.36","-2.074","0.0"],
    [1418533,"2026-06-28 21:50:00","56118","1.495","198.8","2.679","177.4","1018.2389999999999","29.19","53.79","-1.8630000000000002","0.0"],
    [1418534,"2026-06-28 22:00:00","56119","1.162","250.4","1.927","234.1","1018.291","28.94","55.28","-1.85","0.0"],
    [1418535,"2026-06-28 22:10:00","56120","1.801","276.8","3.234","274","1018.456","28.57","57.13","-1.785","0.0"],
    [1418536,"2026-06-28 22:20:00","56121","1.119","293.2","2.417","258.2","1018.525","28.73","56.56","-1.835","0.0"],
    [1418537,"2026-06-28 22:30:00","56122","0.473","224.3","1.209","239.9","1018.1489999999999","28.74","55.17","-1.855","0.0"],
    [1418538,"2026-06-28 22:40:00","56123","1.767","253.3","3.43","229.7","1018.247","29.27","51.41","-1.925","0.0"],
    [1418539,"2026-06-28 22:50:00","56124","3.213","306.4","7.056","316","1018.164","29.58","46.91","-2.5780000000000003","0.0"],
    [1418540,"2026-06-28 23:00:00","56125","3.773","309.6","7.317","306.3","1018.215","29.93","41.28","-2.411","0.0"],
    [1418541,"2026-06-28 23:10:00","56126","4.559","309.3","7.252","303.2","1017.9169999999999","29.69","40.18","-1.97","0.0"],
    [1418542,"2026-06-28 23:20:00","56127","2.866","276.1","6.827","286.9","1018.0219999999999","29.44","40.64","-1.8769999999999998","0.0"],
    [1418543,"2026-06-28 23:30:00","56128","4.349","302.9","8.17","304.8","1017.942","29.34","40.43","-1.81","0.0"],
    [1418544,"2026-06-28 23:40:00","56129","4.22","314.0","6.86","315.2","1017.556","29.22","40.38","-1.931","0.0"],
    [1418545,"2026-06-28 23:50:00","56130","3.3930000000000002","328.3","5.651","331.1","1017.138","29.14","40.51","-2.185","0.0"],
    [1418546,"2026-06-29 00:00:00","56131","1.8","305.7","3.724","283.9","1017.345","29.02","40.86","-2.551","0.0"],
    [1418547,"2026-06-29 00:10:00","56132","1.3630000000000002","315.2","2.287","340.2","1017.164","28.91","41.05","-2.736","0.0"],
    [1418548,"2026-06-29 00:20:00","56133","1.371","268.6","2.744","257.4","1017.451","29.09","40.93","-2.3169999999999997","0.0"],
    [1418549,"2026-06-29 00:30:00","56134","2.2569999999999997","272.7","4.933","280.8","1017.566","29.07","40.87","-1.831","0.0"],
    [1418550,"2026-06-29 00:40:00","56135","2.802","312.0","5.455","288.2","1017.195","28.83","40.89","-1.815","0.0"],
    [1418551,"2026-06-29 00:50:00","56136","2.6039999999999996","280.5","4.508","282.8","1017.4630000000001","28.83","41.02","-1.83","0.0"],
    [1418552,"2026-06-29 01:00:00","56137","2.3609999999999998","296.6","5.259","275.6","1017.6139999999999","28.79","41.1","-1.8259999999999998","0.0"],
    [1418553,"2026-06-29 01:10:00","56138","1.995","320.8","3.103","314.4","1017.665","29.0","40.4","-1.8259999999999998","0.0"],
    [1418554,"2026-06-29 01:20:00","56139","0.8270000000000001","320.3","1.862","324.4","1017.8860000000001","28.96","40.77","-1.824","0.0"],
    [1418555,"2026-06-29 01:30:00","56140","1.3","342.2","2.287","349.9","1017.926","28.79","41.54","-2.255","0.0"],
    [1418556,"2026-06-29 01:40:00","56141","1.2919999999999998","333.6","2.417","341.6","1018.122","28.77","41.6","-2.58","0.0"],
    [1418557,"2026-06-29 01:50:00","56142","0.6829999999999999","291.5","1.568","302.8","1018.1469999999999","28.66","42.63","-2.734","0.0"],
    [1418558,"2026-06-29 02:00:00","56143","0.034","321.4","0.49","353.6","1018.188","28.08","44.53","-3.335","0.0"],
    [1418559,"2026-06-29 02:10:00","56144","0.8190000000000001","23.49","1.731","46.41","1018.135","27.83","45.99","-2.889","0.0"],
    [1418560,"2026-06-29 02:20:00","56145","2.151","38.86","3.365","36.37","1018.165","27.61","56.22","-2.603","0.0"],
    [1418561,"2026-06-29 02:30:00","56146","3.659","38.25","5.749","42.97","1018.2260000000001","27.59","77.85","-2.193","0.0"],
    [1418562,"2026-06-29 02:40:00","56147","3.022","35.26","5.227","32.67","1018.205","27.06","84.1","-1.85","0.0"],
    [1418563,"2026-06-29 02:50:00","56148","2.9739999999999998","28.95","5.945","31.86","1018.247","26.89","79.09","-1.8419999999999999","0.0"],
    [1418564,"2026-06-29 03:00:00","56149","2.201","16.64","3.757","10.9","1018.2760000000001","26.99","73.33","-1.8419999999999999","0.0"],
    [1418565,"2026-06-29 03:10:00","56150","2.428","31.77","4.279","42.26","1018.133","27.03","74.42","-2.01","0.0"],
    [1418566,"2026-06-29 03:20:00","56151","2.481","37.89","3.855","39.71","1018.1439999999999","27.04","77.36","-2.405","0.0"],
    [1418567,"2026-06-29 03:30:00","56152","2.495","38.98","4.116","33.87","1018.2689999999999","27.03","79.46","-2.4619999999999997","0.0"],
    [1418568,"2026-06-29 03:40:00","56153","2.7560000000000002","38.89","4.181","42.78","1018.308","26.99","80.5","-1.857","0.0"],
    [1418569,"2026-06-29 03:50:00","56154","2.865","37.39","4.573","33.36","1018.377","26.86","79.72","-2.136","0.0"],
    [1418570,"2026-06-29 04:00:00","56155","2.623","26.77","4.443","21.46","1018.443","26.89","79.91","-1.871","0.0"],
    [1418571,"2026-06-29 04:10:00","56156","2.266","15.68","3.659","2.261","1018.439","26.83","81.8","-1.564","0.0"],
    [1418572,"2026-06-29 04:20:00","56157","2.1319999999999997","21.13","3.332","10.98","1018.553","26.79","80.9","-0.35200000000000004","0.0"],
    [1418573,"2026-06-29 04:30:00","56158","1.7480000000000002","23.32","2.809","4.086","1018.613","26.89","80.7","2.2769999999999997","0.0"],
    [1418574,"2026-06-29 04:40:00","56159","1.493","8.77","2.973","1.389","1018.717","26.98","80.6","7.236000000000001","0.0"],
    [1418575,"2026-06-29 04:50:00","56160","1.28","345.9","2.548","346.8","1018.7710000000001","27.0","79.11","14.27","0.0"],
    [1418576,"2026-06-29 05:00:00","56161","1.365","337.8","2.45","332.2","1018.87","27.15","76.99","25.11","0.0"],
    [1418577,"2026-06-29 05:10:00","56162","1.972","309.1","3.855","312.2","1018.8919999999999","26.96","66.45","27.5","0.0"],
    [1418578,"2026-06-29 05:20:00","56163","3.085","313.5","4.541","314.9","1018.8430000000001","26.92","53.9","37.47","0.0"],
    [1418579,"2026-06-29 05:30:00","56164","3.1180000000000003","317.1","4.606","318.7","1018.923","27.03","50.51","42.84","0.0"],
    [1418580,"2026-06-29 05:40:00","56165","2.855","314.6","4.639","307.9","1019.061","27.06","50.2","35.82","0.0"],
    [1418581,"2026-06-29 05:50:00","56166","2.985","313.2","4.345","311.7","1019.1339999999999","27.03","50.64","40.34","0.0"],
    [1418582,"2026-06-29 06:00:00","56167","2.708","313.6","4.181","312.8","1019.13","27.08","51.13","62.68","0.0"],
    [1418583,"2026-06-29 06:10:00","56168","2.189","301.1","3.626","306.8","1019.257","27.1","51.18","70.14","0.0"],
    [1418584,"2026-06-29 06:20:00","56169","2.2840000000000003","297.2","3.659","306.7","1019.225","27.09","51.05","101.1","0.0"],
    [1418585,"2026-06-29 06:30:00","56170","2.209","304.7","3.103","310.4","1019.2669999999999","27.75","50.67","235.4","0.0"],
    [1418586,"2026-06-29 06:40:00","56171","2.488","296.9","4.018","280.8","1019.3710000000001","28.23","50.03","169.1","0.0"],
    [1418587,"2026-06-29 06:50:00","56172","2.585","310.0","3.691","305.2","1019.3489999999999","28.51","50.15","317.3","0.0"],
    [1418588,"2026-06-29 07:00:00","56173","2.541","302.3","3.855","304.2","1019.4010000000001","29.08","49.12","335.0","0.0"],
    [1418589,"2026-06-29 07:10:00","56174","2.695","302.6","3.953","309.5","1019.461","29.33","48.77","367.6","0.0"],
    [1418590,"2026-06-29 07:20:00","56175","2.45","290.8","3.397","280.1","1019.558","29.61","48.0","403.2","0.0"],
    [1418591,"2026-06-29 07:30:00","56176","2.7880000000000003","298.8","4.41","290.6","1019.633","29.86","48.07","437.7","0.0"],
    [1418592,"2026-06-29 07:40:00","56177","2.6180000000000003","300.1","3.887","303.6","1019.653","29.91","50.46","407.0","0.0"],
    [1418593,"2026-06-29 07:50:00","56178","1.9409999999999998","301.6","3.332","309.9","1019.71","29.92","51.07","371.4","0.0"],
    [1418594,"2026-06-29 08:00:00","56179","1.9780000000000002","285.2","3.136","251.1","1019.663","30.45","50.09","533.9","0.0"],
    [1418595,"2026-06-29 08:10:00","56180","1.214","226.3","2.515","242.1","1019.69","30.46","50.09","412.8","0.0"],
    [1418596,"2026-06-29 08:20:00","56181","1.5230000000000001","321.9","3.626","323.5","1019.707","31.09","50.48","577.3","0.0"],
    [1418597,"2026-06-29 08:30:00","56182","1.695","224.6","4.247","292.4","1019.722","30.91","50.93","605.9","0.0"],
    [1418598,"2026-06-29 08:40:00","56183","0.7809999999999999","102.8","2.907","135.7","1019.8960000000001","31.36","50.78","594.8","0.0"],
    [1418599,"2026-06-29 08:50:00","56184","1.944","124.4","4.671","153.9","1019.8710000000001","30.47","56.79","659.0","0.0"],
    [1418600,"2026-06-29 09:00:00","56185","2.681","169.9","4.181","155.9","1019.846","30.49","54.86","651.5","0.0"],
    [1418601,"2026-06-29 09:10:00","56186","3.361","170.8","4.867","165.1","1019.83","30.05","55.81","712.7","0.0"],
    [1418602,"2026-06-29 09:20:00","56187","3.2539999999999996","185.3","5.063","181.2","1019.9010000000001","29.9","58.38","732.0","0.0"],
    [1418603,"2026-06-29 09:30:00","56188","2.073","179.7","4.671","168.5","1019.8989999999999","30.64","57.78","748.9","0.0"],
    [1418604,"2026-06-29 09:40:00","56189","3.1639999999999997","183.4","5.031","176.4","1019.8939999999999","30.54","59.2","776.7","0.0"],
    [1418605,"2026-06-29 09:50:00","56190","3.07","191.0","5.619","163.1","1019.882","30.43","60.58","797.2","0.0"],
    [1418606,"2026-06-29 10:00:00","56191","3.194","179.1","6.141","173","1019.88","30.25","61.26","817.0","0.0"],
    [1418607,"2026-06-29 10:10:00","56192","3.134","182.6","5.39","163.2","1019.915","30.28","60.99","834.0","0.0"],
    [1418608,"2026-06-29 10:20:00","56193","3.173","180.6","6.631","171.2","1019.8919999999999","30.42","60.6","852.0","0.0"],
    [1418609,"2026-06-29 10:30:00","56194","3.575","169.1","5.847","175.2","1019.8919999999999","29.92","62.23","869.0","0.0"],
    [1418610,"2026-06-29 10:40:00","56195","3.7889999999999997","187.2","6.272","174.2","1019.823","30.07","62.18","881.0","0.0"],
    [1418611,"2026-06-29 10:50:00","56196","4.1080000000000005","211.3","6.795","216.3","1019.915","30.39","61.28","894.0","0.0"],
    [1418612,"2026-06-29 11:00:00","56197","3.5269999999999997","212.8","6.403","224.8","1020.008","30.24","61.94","904.0","0.0"],
    [1418613,"2026-06-29 11:20:00","56198","3.76","201.7","6.827","235.8","1019.916","30.42","61.99","926.0","0.0"],
    [1418614,"2026-06-29 11:30:00","56199","4.504","198.7","7.35","218.3","1019.8839999999999","30.69","60.79","934.0","0.0"],
    [1418615,"2026-06-29 11:40:00","56200","4.527","188.2","6.958","181.3","1019.826","30.55","61.8","939.0","0.0"],
    [1418616,"2026-06-29 11:50:00","56201","4.183","188.1","7.317","178.2","1019.676","30.6","62.19","943.0","0.0"],
    [1418617,"2026-06-29 12:00:00","56202","4.493","210.1","6.958","212.1","1019.67","30.93","61.22","943.0","0.0"],
    [1418618,"2026-06-29 12:10:00","56203","4.6339999999999995","213.6","8","228","1019.564","31.14","60.89","940.0","0.0"],
    [1418619,"2026-06-29 12:20:00","56204","4.77","209.0","8.3","229","1019.549","30.95","61.33","937.0","0.0"],
    [1418620,"2026-06-29 12:30:00","56205","5.42","213.4","8.85","230.5","1019.488","30.81","61.29","935.0","0.0"],
    [1418621,"2026-06-29 12:40:00","56206","4.729","208.0","7.448","223.1","1019.331","31.02","61.62","926.0","0.0"],
    [1418622,"2026-06-29 12:50:00","56207","5.645","212.6","9.73","224","1019.265","31.24","60.75","921.0","0.0"],
    [1418623,"2026-06-29 13:00:00","56208","6.002000000000001","218.0","9.73","212.3","1019.171","30.65","63.25","912.0","0.0"],
    [1418624,"2026-06-29 13:10:00","56209","5.602","211.4","9.57","220.9","1019.1410000000001","31.08","61.61","904.0","0.0"],
    [1418625,"2026-06-29 13:20:00","56210","4.973","212.6","9.77","223.7","1019.179","31.13","61.42","892.0","0.0"],
    [1418626,"2026-06-29 13:30:00","56211","6.222","218.7","9.44","230.1","1019.235","30.92","61.5","882.0","0.0"],
    [1418627,"2026-06-29 13:40:00","56212","6.086","218.3","8.82","212.4","1019.196","30.62","62.79","868.0","0.0"],
    [1418628,"2026-06-29 13:50:00","56213","6.271","217.3","9.05","226.4","1019.0830000000001","30.65","62.54","853.0","0.0"],
    [1418629,"2026-06-29 14:00:00","56214","4.374","208.1","7.677","212.2","1019.0269999999999","31.14","62.2","835.0","0.0"],
    [1418630,"2026-06-29 14:10:00","56215","5.66","211.3","9.05","215.4","1018.953","30.59","63.6","818.0","0.0"],
    [1418631,"2026-06-29 14:20:00","56216","4.189","210.5","7.089","230.5","1018.888","31.31","61.8","797.2","0.0"],
    [1418632,"2026-06-29 14:30:00","56217","5.521","214.2","8.49","227.2","1018.862","30.8","61.97","778.8","0.0"],
    [1418633,"2026-06-29 14:40:00","56218","4.95","213.6","7.742","193.8","1018.8489999999999","31.21","60.07","754.7","0.0"],
    [1418634,"2026-06-29 14:50:00","56219","4.3","215.3","7.383","213.6","1018.689","31.61","56.84","730.6","0.0"],
    [1418635,"2026-06-29 15:00:00","56220","4.691","213.6","7.089","210.7","1018.6110000000001","31.71","55.94","705.5","0.0"],
    [1418636,"2026-06-29 15:10:00","56221","4.293","216.0","7.089","224.6","1018.592","31.71","54.55","680.5","0.0"],
    [1418637,"2026-06-29 15:20:00","56222","5.042","214.5","7.154","203","1018.502","31.73","52.91","654.2","0.0"],
    [1418638,"2026-06-29 15:30:00","56223","4.561","214.9","7.383","197.4","1018.443","31.93","53.56","600.2","0.0"],
    [1418639,"2026-06-29 15:40:00","56224","4.641","215.9","7.35","222.1","1018.3969999999999","31.4","55.72","603.0","0.0"],
    [1418640,"2026-06-29 15:50:00","56225","3.863","215.7","7.35","205.3","1018.352","31.32","56.39","535.3","0.0"],
    [1418641,"2026-06-29 16:00:00","56226","4.61","221.0","7.709","219.1","1018.2860000000001","31.11","56.69","542.6","0.0"],
    [1418642,"2026-06-29 16:10:00","56227","4.239","221.2","8.4","225.8","1018.225","31.01","56.19","514.3","0.0"],
    [1418643,"2026-06-29 16:20:00","56228","4.078","224.8","7.415","207.7","1018.201","31.04","55.45","483.9","0.0"],
    [1418644,"2026-06-29 16:30:00","56229","5.09","219.7","8.3","206.3","1018.035","30.74","54.95","452.8","0.0"],
    [1418645,"2026-06-29 16:40:00","56230","5.1080000000000005","214.7","8.07","206.2","1017.893","30.75","54.16","423.2","0.0"],
    [1418646,"2026-06-29 16:50:00","56231","3.926","218.4","6.174","216.1","1017.814","30.93","55.07","394.4","0.0"],
    [1418647,"2026-06-29 17:00:00","56232","4.38","226.3","7.089","222.8","1017.8539999999999","30.7","54.43","364.7","0.0"],
    [1418648,"2026-06-29 17:10:00","56233","4.822","224.5","7.056","223.4","1017.835","30.46","54.05","334.7","0.0"],
    [1418649,"2026-06-29 17:20:00","56234","5.001","223.7","7.938","214.6","1017.7810000000001","30.37","54.63","303.2","0.0"],
    [1418650,"2026-06-29 17:30:00","56235","4.19","222.7","6.86","215.9","1017.77","30.24","54.98","273.5","0.0"],
    [1418651,"2026-06-29 17:40:00","56236","4.303","220.5","6.337","221.3","1017.6510000000001","30.36","54.02","244.0","0.0"],
    [1418652,"2026-06-29 17:50:00","56237","3.605","226.5","5.782","220.2","1017.6360000000001","30.18","56.48","214.3","0.0"],
    [1418653,"2026-06-29 18:00:00","56238","2.705","235.9","4.671","237.7","1017.643","29.92","57.96","185.5","0.0"],
    [1418654,"2026-06-29 18:10:00","56239","3.907","225.8","6.207","211","1017.689","29.66","58.4","158.1","0.0"],
    [1418655,"2026-06-29 18:20:00","56240","2.866","228.2","5.096","208.7","1017.707","29.64","57.95","130.2","0.0"],
    [1418656,"2026-06-29 18:30:00","56241","3.543","221.2","6.011","205.5","1017.807","29.62","56.99","104.8","0.0"],
    [1418657,"2026-06-29 18:40:00","56242","3.384","221.0","5.063","217.8","1017.785","29.66","55.89","80.2","0.0"],
    [1418658,"2026-06-29 18:50:00","56243","2.9210000000000003","227.0","4.541","230","1017.809","29.35","57.17","59.5","0.0"],
    [1418659,"2026-06-29 19:00:00","56244","2.9389999999999996","223.9","4.083","223.9","1017.816","29.33","56.65","40.67","0.0"],
    [1418660,"2026-06-29 19:10:00","56245","2.877","226.4","4.247","219.8","1017.882","29.21","56.27","24.64","0.0"],
    [1418661,"2026-06-29 19:20:00","56246","2.478","233.2","3.855","222.1","1017.931","29.01","56.0","11.34","0.0"],
    [1418662,"2026-06-29 19:30:00","56247","2.925","226.3","4.247","220.2","1017.878","29.0","55.17","3.4530000000000003","0.0"],
    [1418663,"2026-06-29 19:40:00","56248","2.01","232.1","3.659","211.2","1017.982","28.86","55.42","-0.046","0.0"],
    [1418664,"2026-06-29 19:50:00","56249","2.469","232.5","4.181","221.8","1017.9960000000001","28.75","54.92","-1.814","0.0"],
    [1418665,"2026-06-29 20:00:00","56250","2.295","235.6","3.887","228.9","1018.102","28.73","54.23","-2.544","0.0"],
    [1418666,"2026-06-29 20:10:00","56251","2.324","227.1","4.181","207.1","1018.2589999999999","28.73","53.35","-2.552","0.0"],
    [1418667,"2026-06-29 20:20:00","56252","2.267","231.0","3.495","256.1","1018.345","28.79","52.3","-2.555","0.0"],
    [1418668,"2026-06-29 20:30:00","56253","2.472","224.8","3.593","217.3","1018.482","28.84","51.68","-2.562","0.0"],
    [1418669,"2026-06-29 20:40:00","56254","2.093","224.4","3.299","216.8","1018.595","28.8","51.48","-2.5540000000000003","0.0"],
    [1418670,"2026-06-29 20:50:00","56255","1.8259999999999998","225.9","2.842","220.8","1018.7239999999999","28.82","51.13","-2.574","0.0"],
    [1418671,"2026-06-29 21:00:00","56256","1.598","234.5","2.907","231.8","1018.799","28.77","51.06","-2.572","0.0"],
    [1418672,"2026-06-29 21:10:00","56257","1.6909999999999998","229.5","2.711","243.1","1018.9580000000001","28.63","51.77","-2.6510000000000002","0.0"],
    [1418673,"2026-06-29 21:20:00","56258","1.7180000000000002","229.4","2.875","225.9","1018.95","28.64","51.49","-2.583","0.0"],
    [1418674,"2026-06-29 21:30:00","56259","1.605","231.1","2.548","241.5","1019.047","28.53","52.0","-2.585","0.0"],
    [1418675,"2026-06-29 21:40:00","56260","1.4980000000000002","227.5","2.613","223.6","1019.1160000000001","28.53","51.65","-2.609","0.0"],
    [1418676,"2026-06-29 21:50:00","56261","1.8430000000000002","224.2","3.038","234.5","1019.105","28.63","50.24","-2.74","0.0"],
    [1418677,"2026-06-29 22:00:00","56262","1.7269999999999999","220.4","2.907","229.2","1019.0880000000001","28.54","51.91","-2.61","0.0"],
    [1418678,"2026-06-29 22:10:00","56263","1.734","228.4","2.581","233.6","1019.1389999999999","28.34","52.46","-2.741","0.0"],
    [1418679,"2026-06-29 22:20:00","56264","1.819","234.6","2.973","226.7","1019.201","28.19","52.8","-2.593","0.0"],
    [1418680,"2026-06-29 22:30:00","56265","1.9509999999999998","233.1","2.809","215.7","1019.16","28.07","53.95","-2.594","0.0"],
    [1418681,"2026-06-29 22:40:00","56266","1.499","230.0","2.515","207.6","1019.148","27.92","54.83","-2.6","0.0"],
    [1418682,"2026-06-29 22:50:00","56267","1.88","226.2","3.561","217.7","1019.195","27.97","55.05","-2.616","0.0"],
    [1418683,"2026-06-29 23:00:00","56268","1.879","232.6","3.136","227.5","1019.122","27.94","55.09","-2.593","0.0"],
    [1418684,"2026-06-29 23:10:00","56269","1.4680000000000002","230.4","2.679","226.6","1019.1060000000001","27.86","54.46","-2.6660000000000004","0.0"],
    [1418685,"2026-06-29 23:20:00","56270","1.7480000000000002","221.9","2.842","219.4","1019.2669999999999","27.97","52.35","-2.653","0.0"],
    [1418686,"2026-06-29 23:30:00","56271","0.813","214.7","1.568","247.9","1019.305","27.78","53.3","-2.804","0.0"],
    [1418687,"2026-06-29 23:40:00","56272","0.35","222.7","1.437","225.4","1019.3610000000001","27.49","54.0","-2.905","0.0"],
    [1418688,"2026-06-29 23:50:00","56273","0.122","225.1","1.307","227.5","1019.413","27.19","55.18","-3.04","0.0"],
    [1418689,"2026-06-30 00:00:00","56274","0.382","206.2","1.111","260.9","1019.424","27.23","55.08","-2.8939999999999997","0.0"],
    [1418690,"2026-06-30 00:10:00","56275","1.183","184.1","1.927","183.1","1019.426","27.38","54.45","-2.843","0.0"],
    [1418691,"2026-06-30 00:20:00","56276","1.141","193.0","1.96","216","1019.4639999999999","27.26","55.89","-2.641","0.0"],
    [1418692,"2026-06-30 00:30:00","56277","0.879","181.1","1.699","170.7","1019.453","27.21","58.08","-2.742","0.0"],
    [1418693,"2026-06-30 00:40:00","56278","0.715","103.5","1.96","91.6","1019.5319999999999","26.94","64.01","-2.612","0.0"],
    [1418694,"2026-06-30 00:50:00","56279","0.40399999999999997","143.1","1.633","171","1019.452","26.53","67.6","-2.877","0.0"],
    [1418695,"2026-06-30 01:00:00","56280","0.14300000000000002","197.6","1.111","225","1019.4110000000001","26.54","66.56","-2.832","0.0"],
    [1418696,"2026-06-30 01:10:00","56281","1.165","188.9","1.895","183.9","1019.3330000000001","26.69","66.48","-2.9339999999999997","0.0"],
    [1418697,"2026-06-30 01:20:00","56282","1.093","209.5","2.189","222.7","1019.247","26.71","66.69","-2.6069999999999998","0.0"],
    [1418698,"2026-06-30 01:30:00","56283","0.983","237.3","2.025","221.5","1019.053","26.63","66.53","-2.5980000000000003","0.0"],
    [1418699,"2026-06-30 01:40:00","56284","0.955","244.7","1.764","255.2","1019.034","26.24","67.17","-2.615","0.0"],
    [1418700,"2026-06-30 01:50:00","56285","0.982","275.6","1.699","281.5","1019.003","25.76","64.82","-2.613","0.0"],
    [1418701,"2026-06-30 02:00:00","56286","0.9890000000000001","278.4","1.993","288.7","1018.8789999999999","25.11","61.88","-2.656","0.0"],
    [1418702,"2026-06-30 02:10:00","56287","0.632","283.5","1.372","297.2","1018.785","25.0","61.14","-2.786","0.0"],
    [1418703,"2026-06-30 02:20:00","56288","0.599","261.1","1.307","247.9","1018.802","25.62","57.89","-2.6010000000000004","0.0"],
    [1418704,"2026-06-30 02:30:00","56289","0.821","264.0","1.437","261.3","1018.7760000000001","25.72","56.48","-2.594","0.0"],
    [1418705,"2026-06-30 02:40:00","56290","0.45","278.6","1.307","245.1","1018.7639999999999","25.54","56.78","-2.597","0.0"],
    [1418706,"2026-06-30 02:50:00","56291","0.966","261.5","2.025","273.8","1018.7739999999999","25.55","57.2","-2.658","0.0"],
    [1418707,"2026-06-30 03:00:00","56292","0.887","279.5","1.633","262","1018.79","25.64","57.21","-2.595","0.0"],
    [1418708,"2026-06-30 03:10:00","56293","1.064","270.8","1.699","274.1","1018.785","25.29","58.36","-2.6039999999999996","0.0"],
    [1418709,"2026-06-30 03:20:00","56294","0.958","255.7","1.731","250.6","1018.752","25.49","57.76","-2.593","0.0"],
    [1418710,"2026-06-30 03:30:00","56295","1.041","264.3","1.764","270.7","1018.806","25.48","57.75","-2.593","0.0"],
    [1418711,"2026-06-30 03:40:00","56296","0.96","267.8","1.633","270.5","1018.882","25.39","58.21","-2.593","0.0"],
    [1418712,"2026-06-30 03:50:00","56297","0.8420000000000001","256.4","1.437","260.9","1018.8689999999999","25.26","58.7","-2.593","0.0"],
    [1418713,"2026-06-30 04:00:00","56298","0.883","245.4","1.339","268.6","1018.932","25.25","58.57","-2.592","0.0"],
    [1418714,"2026-06-30 04:10:00","56299","1.6130000000000002","276.7","2.352","274.9","1018.8989999999999","25.35","58.63","-2.116","0.0"],
    [1418715,"2026-06-30 04:20:00","56300","1.365","277.2","2.319","275.9","1018.8510000000001","25.22","59.3","-0.12300000000000001","0.0"],
    [1418716,"2026-06-30 04:30:00","56301","1.115","276.1","2.613","249.3","1018.865","24.74","61.31","3.503","0.0"],
    [1418717,"2026-06-30 04:40:00","56302","1.186","280.4","3.103","295.1","1018.887","24.67","61.52","10.67","0.0"],
    [1418718,"2026-06-30 04:50:00","56303","1.18","283.0","2.548","252","1018.868","24.73","61.03","22.78","0.0"],
    [1418719,"2026-06-30 05:00:00","56304","1.028","277.0","1.895","275.8","1018.8889999999999","24.71","61.34","37.03","0.0"],
    [1418720,"2026-06-30 05:10:00","56305","0.688","274.1","1.666","287.2","1018.88","24.96","60.74","52.77","0.0"],
    [1418721,"2026-06-30 05:20:00","56306","0.6409999999999999","266.6","1.241","261","1018.98","25.4","59.47","68.19","0.0"],
    [1418722,"2026-06-30 05:30:00","56307","0.757","255.3","1.535","271.5","1018.9810000000001","25.8","58.35","85.3","0.0"],
    [1418723,"2026-06-30 05:40:00","56308","0.907","251.1","2.156","273.3","1018.9580000000001","26.13","57.41","105.3","0.0"],
    [1418724,"2026-06-30 05:50:00","56309","1.7619999999999998","276.6","2.842","289.2","1018.962","26.16","57.33","119.9","0.0"],
    [1418725,"2026-06-30 06:00:00","56310","1.911","281.5","3.071","280.7","1019.033","26.33","56.97","153.0","0.0"],
    [1418726,"2026-06-30 06:10:00","56311","1.8","287.2","3.038","286.1","1019.086","26.81","55.43","179.7","0.0"],
    [1418727,"2026-06-30 06:20:00","56312","2.182","283.9","3.038","292.1","1019.11","27.28","53.92","209.2","0.0"],
    [1418728,"2026-06-30 06:30:00","56313","2.238","280.2","3.365","296.8","1019.122","27.65","52.82","237.3","0.0"],
    [1418729,"2026-06-30 06:40:00","56314","2.398","289.0","3.887","291.3","1019.1060000000001","28.11","51.0","269.6","0.0"],
    [1418730,"2026-06-30 06:50:00","56315","2.892","295.2","4.247","307.6","1019.127","28.36","49.45","308.5","0.0"],
    [1418731,"2026-06-30 07:00:00","56316","2.698","291.5","3.593","293.2","1019.132","28.76","47.91","340.4","0.0"],
    [1418732,"2026-06-30 07:10:00","56317","2.891","284.6","4.116","284.1","1019.1289999999999","29.08","46.7","371.1","0.0"],
    [1418733,"2026-06-30 07:20:00","56318","2.82","297.6","4.312","305.2","1019.168","29.24","46.28","403.5","0.0"],
    [1418734,"2026-06-30 07:30:00","56319","3.022","297.7","4.377","303.4","1019.171","29.71","45.34","437.7","0.0"],
    [1418735,"2026-06-30 07:40:00","56320","2.878","288.3","4.737","290.9","1019.1460000000001","29.77","44.99","466.9","0.0"],
    [1418736,"2026-06-30 07:50:00","56321","2.83","286.7","4.475","285.5","1019.1260000000001","30.09","44.19","497.5","0.0"],
    [1418737,"2026-06-30 08:00:00","56322","1.7369999999999999","262.0","3.299","217.8","1019.082","30.67","42.96","528.0","0.0"],
    [1418738,"2026-06-30 08:10:00","56323","2.484","292.5","4.377","293","1019.0139999999999","30.41","43.49","559.6","0.0"],
    [1418739,"2026-06-30 08:20:00","56324","2.441","271.4","3.822","262.8","1018.94","30.59","43.14","588.9","0.0"],
    [1418740,"2026-06-30 08:30:00","56325","2.099","244.9","3.887","289.8","1018.948","31.32","41.88","614.7","0.0"],
    [1418741,"2026-06-30 08:40:00","56326","1.002","222.1","2.875","287.2","1018.888","31.13","42.02","604.2","0.0"],
    [1418742,"2026-06-30 08:50:00","56327","1.952","200.1","4.181","189.3","1018.7510000000001","31.48","45.8","662.8","0.0"],
    [1418743,"2026-06-30 09:00:00","56328","2.9410000000000003","190.3","4.9","172.8","1018.745","30.92","47.95","665.6","0.0"],
    [1418744,"2026-06-30 09:10:00","56329","2.875","192.1","5.031","204.3","1018.7639999999999","30.97","47.59","720.4","0.0"],
    [1418745,"2026-06-30 09:20:00","56330","3.688","213.0","6.631","200","1018.755","30.91","47.61","736.9","0.0"],
    [1418746,"2026-06-30 09:30:00","56331","3.281","208.4","6.305","214.6","1018.69","30.99","48.59","771.5","0.0"],
    [1418747,"2026-06-30 09:40:00","56332","3.17","203.7","5.292","224.4","1018.643","31.31","48.46","791.8","0.0"],
    [1418748,"2026-06-30 09:50:00","56333","2.7230000000000003","196.7","5.913","184.8","1018.687","31.47","46.99","809.0","0.0"],
    [1418749,"2026-06-30 10:00:00","56334","3.137","202.6","5.717","217.6","1018.66","31.6","47.58","829.0","0.0"],
    [1418750,"2026-06-30 10:10:00","56335","3.234","204.9","5.259","218.7","1018.571","31.54","46.34","848.0","0.0"],
    [1418751,"2026-06-30 10:20:00","56336","3.3080000000000003","195.8","6.043","218.3","1018.5210000000001","31.66","46.75","866.0","0.0"],
    [1418752,"2026-06-30 10:30:00","56337","3.052","195.6","5.031","176","1018.455","31.92","48.01","879.0","0.0"],
    [1418753,"2026-06-30 10:40:00","56338","3.662","201.7","5.521","216.8","1018.456","31.74","49.01","891.0","0.0"],
    [1418754,"2026-06-30 10:50:00","56339","3.7739999999999996","197.4","6.337","222.6","1018.428","31.64","50.47","902.0","0.0"],
    [1418755,"2026-06-30 11:00:00","56340","3.5780000000000003","202.5","6.043","207","1018.454","31.81","49.74","913.0","0.0"],
    [1418756,"2026-06-30 11:10:00","56341","4.281000000000001","208.7","6.762","220.6","1018.4860000000001","31.04","53.35","921.0","0.0"],
    [1418757,"2026-06-30 11:20:00","56342","3.9010000000000002","196.5","6.991","175.8","1018.444","30.61","57.17","926.0","0.0"],
    [1418758,"2026-06-30 11:30:00","56343","3.63","194.9","5.815","220.7","1018.355","31.03","55.26","934.0","0.0"],
    [1418759,"2026-06-30 11:40:00","56344","4.906000000000001","214.2","7.219","221.8","1018.2769999999999","31.57","48.55","943.0","0.0"],
    [1418760,"2026-06-30 11:50:00","56345","4.166","206.7","7.709","211.3","1018.192","31.68","48.48","948.0","0.0"],
    [1418761,"2026-06-30 12:00:00","56346","4.38","210.7","7.023","216.5","1018.191","31.62","50.2","947.0","0.0"],
    [1418762,"2026-06-30 12:10:00","56347","4.4239999999999995","205.1","7.807","214.3","1018.13","31.36","53.03","948.0","0.0"],
    [1418763,"2026-06-30 12:20:00","56348","3.8680000000000003","200.9","7.807","210.3","1017.9839999999999","31.47","49.74","943.0","0.0"],
    [1418764,"2026-06-30 12:30:00","56349","3.2119999999999997","196.1","7.187","206.2","1017.802","31.99","49.28","939.0","0.0"],
    [1418765,"2026-06-30 12:40:00","56350","4.6419999999999995","211.8","7.84","218.5","1017.658","31.97","47.9","933.0","0.0"],
    [1418766,"2026-06-30 12:50:00","56351","6.4","215.1","9.77","209.8","1017.549","31.53","46.76","931.0","0.0"],
    [1418767,"2026-06-30 13:00:00","56352","5.2170000000000005","216.9","8.13","226.9","1017.446","32.29","43.87","918.0","0.0"],
    [1418768,"2026-06-30 13:10:00","56353","3.735","208.6","8.49","220.8","1017.373","32.85","41.69","906.0","0.0"],
    [1418769,"2026-06-30 13:20:00","56354","4.3919999999999995","206.8","7.709","214","1017.325","32.3","42.78","896.0","0.0"],
    [1418770,"2026-06-30 13:30:00","56355","4.207","204.6","8.04","217.4","1017.432","32.56","43.02","880.0","0.0"],
    [1418771,"2026-06-30 13:40:00","56356","4.2139999999999995","202.4","7.448","228.8","1017.355","32.43","43.23","870.0","0.0"],
    [1418772,"2026-06-30 13:50:00","56357","4.369","211.4","7.252","212.4","1017.437","31.91","45.05","862.0","0.0"],
    [1418773,"2026-06-30 14:00:00","56358","4.696000000000001","211.5","6.664","212.6","1017.441","31.56","48.15","851.0","0.0"],
    [1418774,"2026-06-30 14:10:00","56359","4.178","198.2","7.121","223.6","1017.451","30.56","54.7","822.0","0.0"],
    [1418775,"2026-06-30 14:20:00","56360","3.551","187.1","6.272","186","1017.403","30.51","56.5","806.0","0.0"],
    [1418776,"2026-06-30 14:30:00","56361","3.609","173.1","6.272","178.2","1017.3660000000001","30.23","58.19","806.0","0.0"],
    [1418777,"2026-06-30 14:40:00","56362","2.8789999999999996","185.3","5.325","167.3","1017.3580000000001","30.21","60.63","776.0","0.0"],
    [1418778,"2026-06-30 14:50:00","56363","2.7689999999999997","178.8","4.769","167.9","1017.3480000000001","30.07","61.59","746.5","0.0"],
    [1418779,"2026-06-30 15:00:00","56364","2.408","171.6","5.325","190.5","1017.342","30.09","60.41","718.6","0.0"],
    [1418780,"2026-06-30 15:10:00","56365","2.73","195.7","5.063","179.7","1017.404","30.51","58.89","692.2","0.0"],
    [1418781,"2026-06-30 15:20:00","56366","2.895","180.4","5.259","180","1017.3489999999999","30.38","59.95","662.0","0.0"],
    [1418782,"2026-06-30 15:30:00","56367","2.58","165.0","5.815","169.5","1017.243","30.08","60.99","602.5","0.0"],
    [1418783,"2026-06-30 15:40:00","56368","2.846","174.0","5.031","171.6","1017.186","30.13","60.5","608.8","0.0"],
    [1418784,"2026-06-30 15:50:00","56369","3.11","174.3","5.031","179.3","1017.201","29.75","60.21","542.2","0.0"],
    [1418785,"2026-06-30 16:00:00","56370","3.102","185.4","6.37","162.4","1017.204","29.88","60.5","552.4","0.0"],
    [1418786,"2026-06-30 16:10:00","56371","1.4609999999999999","174.9","3.365","177.5","1017.216","30.76","57.76","519.5","0.0"],
    [1418787,"2026-06-30 16:20:00","56372","2.2159999999999997","200.7","4.508","238.8","1017.2439999999999","30.6","56.86","490.2","0.0"],
    [1418788,"2026-06-30 16:30:00","56373","2.102","197.9","3.92","222","1017.3","30.48","55.28","458.1","0.0"],
    [1418789,"2026-06-30 16:40:00","56374","2.059","207.5","4.541","267","1017.302","30.54","52.68","427.0","0.0"],
    [1418790,"2026-06-30 16:50:00","56375","1.475","183.6","3.92","223.6","1017.368","30.54","53.76","394.5","0.0"],
    [1418791,"2026-06-30 17:00:00","56376","1.649","106.6","3.561","98.4","1017.423","30.41","58.36","362.9","0.0"],
    [1418792,"2026-06-30 17:10:00","56377","1.9140000000000001","106.1","4.247","105.8","1017.4110000000001","29.91","63.75","332.3","0.0"],
    [1418793,"2026-06-30 17:20:00","56378","1.5390000000000001","109.1","3.985","111.4","1017.416","29.64","64.0","298.3","0.0"],
    [1418794,"2026-06-30 17:30:00","56379","2.352","109.6","4.704","93.3","1017.403","29.36","64.52","266.9","0.0"],
    [1418795,"2026-06-30 17:40:00","56380","2.5669999999999997","108.1","4.214","102.3","1017.455","29.04","66.19","236.8","0.0"],
    [1418796,"2026-06-30 17:50:00","56381","2.0669999999999997","101.9","3.659","91.9","1017.441","28.94","66.67","207.5","0.0"],
    [1418797,"2026-06-30 18:00:00","56382","2.4619999999999997","105.2","3.953","106.5","1017.465","29.05","66.06","180.5","0.0"],
    [1418798,"2026-06-30 18:10:00","56383","1.1520000000000001","119.3","3.397","100.4","1017.46","28.95","66.53","153.5","0.0"],
    [1418799,"2026-06-30 18:20:00","56384","1.041","152.4","5.586","213.9","1017.432","29.18","63.86","127.4","0.0"],
    [1418800,"2026-06-30 18:30:00","56385","0.8320000000000001","166.5","2.254","116.7","1017.4169999999999","29.07","64.25","103.9","0.0"],
    [1418801,"2026-06-30 18:40:00","56386","1.652","184.0","4.965","158.6","1017.471","28.87","63.51","82.6","0.0"],
    [1418802,"2026-06-30 18:50:00","56387","2.062","170.3","3.659","217.4","1017.558","28.67","60.72","61.89","0.0"],
    [1418803,"2026-06-30 19:00:00","56388","2.188","177.1","3.43","158.9","1017.5369999999999","28.66","61.27","42.11","0.0"],
    [1418804,"2026-06-30 19:10:00","56389","1.976","185.0","3.789","183.9","1017.4860000000001","28.54","61.74","25.5","0.0"],
    [1418805,"2026-06-30 19:20:00","56390","2.041","179.2","3.887","178.7","1017.568","28.34","63.09","11.64","0.0"],
    [1418806,"2026-06-30 19:30:00","56391","1.5530000000000002","186.5","3.43","200.9","1017.817","28.19","63.89","3.332","0.0"],
    [1418807,"2026-06-30 19:40:00","56392","1.6909999999999998","189.9","4.704","206.7","1017.94","28.04","63.94","-0.524","0.0"],
    [1418808,"2026-06-30 19:50:00","56393","1.8019999999999998","175.1","4.345","155.2","1018.018","27.93","64.14","-2.2","0.0"],
    [1418809,"2026-06-30 20:00:00","56394","1.469","175.9","4.769","191","1018.145","27.88","64.05","-2.557","0.0"],
    [1418810,"2026-06-30 20:10:00","56395","0.6659999999999999","175.0","1.568","167.2","1018.36","27.83","65.04","-2.628","0.0"],
    [1418811,"2026-06-30 20:20:00","56396","0.483","101.6","1.829","103.2","1018.4780000000001","27.7","65.02","-2.8280000000000003","0.0"],
    [1418812,"2026-06-30 20:30:00","56397","0.526","153.0","1.666","219.1","1018.627","27.69","64.71","-2.6069999999999998","0.0"],
    [1418813,"2026-06-30 20:40:00","56398","1.063","188.1","2.45","209.5","1018.745","27.68","65.35","-2.614","0.0"],
    [1418814,"2026-06-30 20:50:00","56399","2.119","181.1","9.44","207.4","1018.711","27.7","66.52","-2.6039999999999996","0.0"],
    [1418815,"2026-06-30 21:00:00","56400","1.516","192.8","3.201","196.1","1018.7560000000001","27.62","67.88","-2.593","0.0"],
    [1418816,"2026-06-30 21:10:00","56401","1.41","186.9","3.463","132.7","1018.9019999999999","27.5","68.45","-2.658","0.0"],
    [1418817,"2026-06-30 21:20:00","56402","1.3419999999999999","199.0","2.189","178.8","1018.9910000000001","27.45","69.38","-2.6069999999999998","0.0"],
    [1418818,"2026-06-30 21:30:00","56403","1.042","199.5","2.156","186.3","1019.062","27.36","69.88","-2.602","0.0"],
    [1418819,"2026-06-30 21:40:00","56404","1.179","207.6","2.515","219","1019.012","27.25","71.21","-2.8760000000000003","0.0"],
    [1418820,"2026-06-30 21:50:00","56405","0.818","205.3","1.633","234.7","1018.919","27.23","72.56","-2.657","0.0"],
    [1418821,"2026-06-30 22:00:00","56406","0.9590000000000001","204.8","2.091","214.2","1018.925","27.01","73.9","-2.908","0.0"],
    [1418822,"2026-06-30 22:10:00","56407","0.8640000000000001","211.2","1.633","229","1018.895","26.89","74.88","-2.69","0.0"],
    [1418823,"2026-06-30 22:20:00","56408","1.1059999999999999","212.3","1.96","213","1018.788","26.85","74.92","-2.707","0.0"],
    [1418824,"2026-06-30 22:30:00","56409","1.52","225.1","2.385","231","1018.727","26.82","74.43","-2.614","0.0"],
    [1418825,"2026-06-30 22:40:00","56410","1.618","206.7","2.352","200.8","1018.688","26.88","74.55","-2.6","0.0"],
    [1418826,"2026-06-30 22:50:00","56411","1.546","215.7","2.711","219.9","1018.658","26.76","75.87","-2.687","0.0"],
    [1418827,"2026-06-30 23:00:00","56412","2.1790000000000003","216.6","3.267","215","1018.5269999999999","26.82","75.68","-2.5980000000000003","0.0"],
    [1418828,"2026-06-30 23:10:00","56413","2.104","215.0","2.907","213.1","1018.543","26.82","75.41","-2.594","0.0"],
    [1418829,"2026-06-30 23:20:00","56414","1.97","218.7","2.973","210","1018.595","26.77","75.79","-2.593","0.0"],
    [1418830,"2026-06-30 23:30:00","56415","2.3280000000000003","224.4","3.332","230.9","1018.546","26.74","75.55","-2.595","0.0"],
    [1418831,"2026-06-30 23:40:00","56416","2.052","230.3","3.136","208.9","1018.466","26.7","76.12","-2.593","0.0"],
    [1418832,"2026-06-30 23:50:00","56417","1.655","229.7","2.515","238.7","1018.431","26.58","76.81","-2.593","0.0"],
    [1418833,"2026-07-01 00:00:00","56418","1.3559999999999999","232.6","2.45","228.9","1018.4730000000001","26.45","77.34","-2.593","0.0"],
    [1418834,"2026-07-01 00:10:00","56419","1.6219999999999999","235.0","2.809","239.1","1018.5269999999999","26.29","77.69","-2.593","0.0"],
    [1418835,"2026-07-01 00:20:00","56420","1.536","239.9","2.875","238.8","1018.4810000000001","26.25","77.63","-2.593","0.0"],
    [1418836,"2026-07-01 00:30:00","56421","1.663","232.7","3.071","245.7","1018.4169999999999","26.13","77.91","-2.593","0.0"],
    [1418837,"2026-07-01 00:40:00","56422","1.511","230.7","2.907","265.8","1018.27","26.07","77.42","-2.593","0.0"],
    [1418838,"2026-07-01 00:50:00","56423","1.6130000000000002","231.4","2.646","259.3","1018.279","25.99","76.47","-2.593","0.0"],
    [1418839,"2026-07-01 01:00:00","56424","1.452","235.3","2.548","249.1","1018.2719999999999","26.01","76.4","-2.593","0.0"],
    [1418840,"2026-07-01 01:10:00","56425","1.579","234.4","2.907","243.3","1018.209","25.98","76.2","-2.593","0.0"],
    [1418841,"2026-07-01 01:20:00","56426","1.578","233.0","2.711","253.8","1018.138","25.93","75.61","-2.593","0.0"],
    [1418842,"2026-07-01 01:30:00","56427","1.605","236.4","2.973","246.7","1018.15","25.96","74.82","-2.592","0.0"],
    [1418843,"2026-07-01 01:40:00","56428","1.2009999999999998","246.3","2.417","246.1","1018.096","25.96","74.85","-2.56","0.0"],
    [1418844,"2026-07-01 01:50:00","56429","1.285","277.4","2.189","288.7","1018.07","25.41","75.39","-2.571","0.0"],
    [1418845,"2026-07-01 02:00:00","56430","0.841","250.0","1.764","238.6","1017.9639999999999","25.38","75.6","-2.593","0.0"],
    [1418846,"2026-07-01 02:10:00","56431","1.026","237.5","1.927","250.6","1017.9119999999999","25.73","75.2","-2.589","0.0"],
    [1418847,"2026-07-01 02:20:00","56432","1.193","268.6","2.483","298.4","1017.94","25.6","74.45","-2.59","0.0"],
    [1418848,"2026-07-01 02:30:00","56433","1.844","273.0","2.744","273.7","1017.9010000000001","25.31","71.49","-2.44","0.0"],
    [1418849,"2026-07-01 02:40:00","56434","1.874","267.9","3.071","265.9","1017.927","25.22","70.36","-2.214","0.0"],
    [1418850,"2026-07-01 02:50:00","56435","1.272","277.8","2.973","268.7","1017.95","25.02","70.73","-2.406","0.0"],
    [1418851,"2026-07-01 03:00:00","56436","1.02","259.5","2.417","262.5","1017.942","24.78","71.39","-2.5","0.0"],
    [1418852,"2026-07-01 03:10:00","56437","1.244","271.8","2.221","276","1017.87","24.74","71.79","-2.5810000000000004","0.0"],
    [1418853,"2026-07-01 03:20:00","56438","1.27","268.3","2.123","270.8","1017.737","24.79","71.93","-2.555","0.0"],
    [1418854,"2026-07-01 03:30:00","56439","1.008","268.8","1.601","280.6","1017.541","24.75","72.1","-2.572","0.0"],
    [1418855,"2026-07-01 03:40:00","56440","0.8690000000000001","275.4","1.503","269.8","1017.442","24.61","72.74","-2.59","0.0"],
    [1418856,"2026-07-01 03:50:00","56441","0.723","274.0","1.503","256.7","1017.45","24.48","73.67","-2.591","0.0"],
    [1418857,"2026-07-01 04:00:00","56442","0.752","273.9","1.372","274.5","1017.548","24.51","73.83","-2.5340000000000003","0.0"],
    [1418858,"2026-07-01 04:10:00","56443","1.097","281.3","2.613","295.8","1017.6160000000001","24.36","74.49","-2.01","0.0"],
    [1418859,"2026-07-01 04:20:00","56444","1.935","294.2","4.181","302.9","1017.668","24.37","74.91","-0.626","0.0"],
    [1418860,"2026-07-01 04:30:00","56445","2.546","287.1","4.671","290.3","1017.618","24.48","71.56","2.278","0.0"],
    [1418861,"2026-07-01 04:40:00","56446","2.009","295.2","3.659","320.6","1017.633","24.47","65.55","7.803","0.0"],
    [1418862,"2026-07-01 04:50:00","56447","3.082","300.3","5.357","311.5","1017.738","24.69","59.88","17.45","0.0"],
    [1418863,"2026-07-01 05:00:00","56448","3.384","310.4","6.076","309.7","1017.791","24.94","53.57","29.98","0.0"],
    [1418864,"2026-07-01 05:10:00","56449","3.858","310.9","5.88","317.2","1017.79","25.08","50.07","48.79","0.0"],
    [1418865,"2026-07-01 05:20:00","56450","3.6","304.2","5.227","308.1","1017.846","25.08","49.82","65.01","0.0"],
    [1418866,"2026-07-01 05:30:00","56451","3.972","303.1","5.945","331.2","1017.938","25.09","49.43","82.0","0.0"],
    [1418867,"2026-07-01 05:40:00","56452","3.773","306.1","6.272","309.1","1018.0","25.16","49.09","102.6","0.0"],
    [1418868,"2026-07-01 05:50:00","56453","4.235","301.3","6.991","308.1","1018.08","25.2","49.03","116.8","0.0"],
    [1418869,"2026-07-01 06:00:00","56454","4.354","305.7","6.664","300.2","1018.2660000000001","25.34","48.61","147.4","0.0"],
    [1418870,"2026-07-01 06:10:00","56455","4.383","305.2","7.121","311.8","1018.452","25.37","48.38","175.9","0.0"],
    [1418871,"2026-07-01 06:20:00","56456","4.848","309.1","7.154","308.8","1018.534","25.46","48.13","205.2","0.0"],
    [1418872,"2026-07-01 06:30:00","56457","5.197","306.2","7.285","308","1018.525","25.52","48.06","237.8","0.0"],
    [1418873,"2026-07-01 06:40:00","56458","4.245","306.9","5.978","296.5","1018.529","25.69","47.9","272.1","0.0"],
    [1418874,"2026-07-01 06:50:00","56459","4.266","301.5","6.37","291.2","1018.563","25.91","47.33","305.7","0.0"],
    [1418875,"2026-07-01 07:00:00","56460","3.537","302.9","5.619","295.7","1018.6239999999999","26.41","46.39","336.7","0.0"],
    [1418876,"2026-07-01 07:10:00","56461","4.064","309.1","5.684","317.7","1018.6089999999999","26.56","46.39","371.1","0.0"],
    [1418877,"2026-07-01 07:20:00","56462","3.739","296.2","5.455","300.4","1018.533","26.83","45.74","406.2","0.0"],
    [1418878,"2026-07-01 07:30:00","56463","3.647","291.9","6.239","286.8","1018.421","27.0","45.36","436.4","0.0"],
    [1418879,"2026-07-01 07:40:00","56464","3.052","292.9","5.194","280.7","1018.395","27.47","44.65","463.2","0.0"],
    [1418880,"2026-07-01 07:50:00","56465","3.233","293.7","5.063","285.4","1018.318","27.7","44.42","498.8","0.0"],
    [1418881,"2026-07-01 08:00:00","56466","2.6430000000000002","299.3","4.671","312.1","1018.4019999999999","28.32","43.55","526.0","0.0"],
    [1418882,"2026-07-01 08:10:00","56467","2.735","299.4","4.443","306.9","1018.3480000000001","28.77","43.57","549.6","0.0"],
    [1418883,"2026-07-01 08:20:00","56468","2.0709999999999997","13.98","3.887","330.5","1018.327","28.77","48.24","579.3","0.0"],
    [1418884,"2026-07-01 08:30:00","56469","2.04","76.6","4.279","61.79","1018.335","28.8","56.71","607.2","0.0"],
    [1418885,"2026-07-01 08:40:00","56470","2.7510000000000003","81.5","4.149","96.1","1018.4169999999999","28.36","61.47","605.3","0.0"],
    [1418886,"2026-07-01 08:50:00","56471","2.3209999999999997","98.9","4.508","83.6","1018.3639999999999","28.55","60.98","657.0","0.0"],
    [1418887,"2026-07-01 09:00:00","56472","2.575","101.4","4.345","91.4","1018.3689999999999","28.36","61.11","655.1","0.0"],
    [1418888,"2026-07-01 09:10:00","56473","3.0260000000000002","92.5","5.063","89.2","1018.395","28.39","58.92","696.4","0.0"],
    [1418889,"2026-07-01 09:20:00","56474","2.821","95.1","4.704","110.1","1018.301","28.43","63.86","662.3","0.0"],
    [1418890,"2026-07-01 09:30:00","56475","2.792","86.9","4.671","67.09","1018.331","28.23","67.18","752.9","0.0"],
    [1418891,"2026-07-01 09:40:00","56476","4.185","69.54","5.619","75.15","1018.308","28.48","66.6","797.3","0.0"],
    [1418892,"2026-07-01 09:50:00","56477","4.343999999999999","77.21","5.684","87.2","1018.294","28.58","65.83","813.0","0.0"],
    [1418893,"2026-07-01 10:00:00","56478","4.636","74.14","6.043","70.84","1018.329","28.6","66.7","815.0","0.0"],
    [1418894,"2026-07-01 10:10:00","56479","4.466","63.49","6.337","76.99","1018.298","28.91","66.68","809.0","0.0"],
    [1418895,"2026-07-01 10:20:00","56480","4.834","59.95","7.121","65.18","1018.283","28.96","66.84","867.0","0.0"],
    [1418896,"2026-07-01 10:30:00","56481","4.829","61.29","6.958","76.04","1018.3430000000001","29.01","66.72","883.0","0.0"],
    [1418897,"2026-07-01 10:40:00","56482","5.722","66.91","8.04","65.39","1018.3610000000001","28.93","65.23","877.0","0.0"],
    [1418898,"2026-07-01 10:50:00","56483","6.156000000000001","68.48","8.1","74.77","1018.317","29.08","62.46","894.0","0.0"],
    [1418899,"2026-07-01 11:00:00","56484","5.739","70.57","7.579","73.65","1018.2639999999999","28.98","63.37","883.0","0.0"],
    [1418900,"2026-07-01 11:10:00","56485","5.74","75.04","8.26","58.77","1018.2180000000001","29.1","63.89","879.0","0.0"],
    [1418901,"2026-07-01 11:20:00","56486","6.204","84.8","8.98","76.82","1018.314","29.2","62.35","927.0","0.0"],
    [1418902,"2026-07-01 11:30:00","56487","5.355","89.9","8.33","81.5","1018.329","29.03","61.91","937.0","0.0"],
    [1418903,"2026-07-01 11:40:00","56488","4.787","95.0","7.383","102.7","1018.3330000000001","28.77","63.91","923.0","0.0"],
    [1418904,"2026-07-01 11:50:00","56489","4.459","98.1","6.729","95.5","1018.334","28.43","65.68","915.0","0.0"],
    [1418905,"2026-07-01 12:00:00","56490","3.944","96.0","5.945","104.8","1018.257","28.53","65.33","923.0","0.0"],
    [1418906,"2026-07-01 12:10:00","56491","4.8180000000000005","93.1","6.468","89.9","1018.2139999999999","28.13","66.64","912.0","0.0"],
    [1418907,"2026-07-01 12:20:00","56492","4.217","97.5","6.141","89","1018.17","28.34","66.81","911.0","0.0"],
    [1418908,"2026-07-01 12:30:00","56493","4.17","95.4","5.847","89.7","1018.125","28.56","66.3","899.0","0.0"],
    [1418909,"2026-07-01 12:40:00","56494","3.62","99.5","5.39","91.6","1018.054","28.53","66.89","915.0","0.0"],
    [1418910,"2026-07-01 12:50:00","56495","4.032","93.0","6.239","86.8","1017.9689999999999","28.9","65.91","916.0","0.0"],
    [1418911,"2026-07-01 13:00:00","56496","4.035","96.3","5.782","85.4","1017.934","28.76","66.8","896.0","0.0"],
    [1418912,"2026-07-01 13:10:00","56497","3.907","99.0","5.815","99.7","1017.909","28.5","67.74","929.0","0.0"],
    [1418913,"2026-07-01 13:20:00","56498","4.231","88.6","6.109","89.5","1017.92","28.75","66.75","906.0","0.0"],
    [1418914,"2026-07-01 13:30:00","56499","3.623","85.8","5.586","81.5","1017.8910000000001","28.8","66.81","884.0","0.0"],
    [1418915,"2026-07-01 13:40:00","56500","2.785","89.8","4.835","73.46","1017.794","28.57","66.83","876.0","0.0"],
    [1418916,"2026-07-01 13:50:00","56501","1.9769999999999999","99.8","4.475","114.7","1017.705","28.85","65.08","812.0","0.0"],
    [1418917,"2026-07-01 14:00:00","56502","1.912","81.8","4.181","87.3","1017.7130000000001","28.69","64.99","659.8","0.0"],
    [1418918,"2026-07-01 14:10:00","56503","1.5330000000000001","107.1","3.43","147.3","1017.683","29.62","61.74","806.0","0.0"],
    [1418919,"2026-07-01 14:20:00","56504","1.32","150.9","4.475","162.8","1017.658","29.55","59.32","781.6","0.0"],
    [1418920,"2026-07-01 14:30:00","56505","1.794","148.2","3.985","199.8","1017.628","29.48","55.82","777.3","0.0"],
    [1418921,"2026-07-01 14:40:00","56506","1.516","128.5","4.443","174.1","1017.6089999999999","29.43","54.76","768.7","0.0"],
    [1418922,"2026-07-01 14:50:00","56507","1.517","115.8","4.247","175.4","1017.6030000000001","29.9","52.93","727.7","0.0"],
    [1418923,"2026-07-01 15:00:00","56508","1.466","122.8","3.201","133","1017.59","29.08","55.12","645.5","0.0"],
    [1418924,"2026-07-01 15:10:00","56509","1.673","109.0","5.357","117.3","1017.548","29.01","56.01","579.1","0.0"],
    [1418925,"2026-07-01 15:20:00","56510","2.637","105.3","6.501","84.4","1017.613","28.68","59.19","600.8","0.0"],
    [1418926,"2026-07-01 15:30:00","56511","1.43","116.1","5.553","113","1017.569","29.18","57.69","601.3","0.0"],
    [1418927,"2026-07-01 15:40:00","56512","1.686","106.9","5.488","92.2","1017.553","29.36","55.49","597.3","0.0"],
    [1418928,"2026-07-01 15:50:00","56513","1.486","115.5","4.377","99.1","1017.5010000000001","29.09","53.66","524.1","0.0"],
    [1418929,"2026-07-01 16:00:00","56514","1.284","116.8","3.691","148.6","1017.46","29.62","51.59","534.9","0.0"],
    [1418930,"2026-07-01 16:10:00","56515","1.249","117.5","3.495","123.4","1017.49","29.08","54.08","483.9","0.0"],
    [1418931,"2026-07-01 16:20:00","56516","1.507","111.4","4.443","128.5","1017.485","29.55","52.47","468.7","0.0"],
    [1418932,"2026-07-01 16:30:00","56517","1.171","121.6","3.593","110.8","1017.408","28.49","55.43","241.0","0.0"],
    [1418933,"2026-07-01 16:40:00","56518","1.275","107.6","3.822","78.87","1017.3539999999999","28.17","57.44","274.6","0.0"],
    [1418934,"2026-07-01 16:50:00","56519","1.425","120.0","3.887","49.38","1017.2860000000001","28.25","57.36","343.2","0.0"],
    [1418935,"2026-07-01 17:00:00","56520","1.318","125.6","3.365","111.1","1017.327","28.31","56.75","307.2","0.0"],
    [1418936,"2026-07-01 17:10:00","56521","1.36","104.1","3.953","101","1017.334","28.45","57.62","328.6","0.0"],
    [1418937,"2026-07-01 17:20:00","56522","1.449","123.1","3.855","118.9","1017.2180000000001","28.01","60.7","293.8","0.0"],
    [1418938,"2026-07-01 17:30:00","56523","2.06","105.1","3.822","94.4","1017.195","27.99","62.31","272.7","0.0"],
    [1418939,"2026-07-01 17:40:00","56524","1.692","112.1","3.691","108.3","1017.117","27.71","63.51","201.5","0.0"],
    [1418940,"2026-07-01 17:50:00","56525","1.974","111.1","4.149","83.6","1017.192","27.4","64.7","147.5","0.0"],
    [1418941,"2026-07-01 18:00:00","56526","2.184","102.4","4.247","94.4","1017.31","27.23","65.31","108.2","0.0"],
    [1418942,"2026-07-01 18:10:00","56527","1.2790000000000001","108.2","2.842","107.9","1017.4739999999999","27.06","66.26","75.99","0.0"],
    [1418943,"2026-07-01 18:20:00","56528","1.12","118.7","2.417","110.5","1017.529","27.06","66.46","75.94","0.0"],
    [1418944,"2026-07-01 18:30:00","56529","1.395","109.5","2.973","109.7","1017.578","27.06","65.95","66.95","0.0"],
    [1418945,"2026-07-01 18:40:00","56530","1.386","123.2","3.201","103.4","1017.747","26.93","66.42","53.1","0.0"],
    [1418946,"2026-07-01 18:50:00","56531","0.847","135.7","2.385","147.6","1017.888","26.77","66.97","48.55","0.0"],
    [1418947,"2026-07-01 19:00:00","56532","0.998","117.1","2.744","128.9","1017.98","26.66","68.41","37.5","0.0"],
    [1418948,"2026-07-01 19:10:00","56533","0.769","160.8","3.169","162.3","1018.137","26.72","68.13","27.26","0.0"],
    [1418949,"2026-07-01 19:20:00","56534","1.0859999999999999","168.6","2.711","174.7","1018.16","26.55","67.85","13.61","0.0"],
    [1418950,"2026-07-01 19:30:00","56535","0.9640000000000001","146.3","6.403","115","1018.179","26.5","68.12","3.9339999999999997","0.0"],
    [1418951,"2026-07-01 19:40:00","56536","0.82","161.9","2.548","150.5","1018.232","26.44","67.07","0.735","0.0"],
    [1418952,"2026-07-01 19:50:00","56537","1.4969999999999999","188.6","2.973","182.2","1018.3910000000001","26.45","66.38","-0.973","0.0"],
    [1418953,"2026-07-01 20:00:00","56538","1.6769999999999998","195.7","4.279","196","1018.6","26.41","65.32","-2.533","0.0"],
    [1418954,"2026-07-01 20:10:00","56539","1.9869999999999999","186.8","4.018","213.4","1018.704","26.42","65.29","-2.593","0.0"],
    [1418955,"2026-07-01 20:20:00","56540","1.4509999999999998","185.3","3.528","157.4","1018.815","26.45","65.67","-2.594","0.0"],
    [1418956,"2026-07-01 20:30:00","56541","1.902","191.0","5.39","186.9","1018.9119999999999","26.43","65.42","-2.595","0.0"],
    [1418957,"2026-07-01 20:40:00","56542","2.287","205.2","5.096","155.8","1018.959","26.46","66.61","-2.593","0.0"],
    [1418958,"2026-07-01 20:50:00","56543","1.608","215.8","3.659","260.1","1019.054","26.42","66.39","-2.593","0.0"],
    [1418959,"2026-07-01 21:00:00","56544","1.2","209.5","2.907","223.1","1019.1619999999999","26.31","67.24","-2.655","0.0"],
    [1418960,"2026-07-01 21:10:00","56545","0.535","209.9","1.339","236.8","1019.238","26.24","66.69","-2.6069999999999998","0.0"],
    [1418961,"2026-07-01 21:20:00","56546","0.607","204.5","1.568","220.6","1019.309","26.07","67.01","-2.7230000000000003","0.0"],
    [1418962,"2026-07-01 21:30:00","56547","1.082","213.3","2.221","226.1","1019.33","26.14","66.87","-2.6039999999999996","0.0"],
    [1418963,"2026-07-01 21:40:00","56548","1.6369999999999998","220.4","2.581","207.4","1019.2660000000001","26.27","65.38","-2.594","0.0"],
    [1418964,"2026-07-01 21:50:00","56549","1.4469999999999998","232.2","2.679","205.6","1019.2139999999999","26.27","64.17","-2.593","0.0"],
    [1418965,"2026-07-01 22:00:00","56550","1.905","234.1","3.071","225.9","1019.1010000000001","26.17","63.2","-2.5989999999999998","0.0"],
    [1418966,"2026-07-01 22:10:00","56551","1.453","241.8","2.907","242","1019.091","26.16","62.58","-2.593","0.0"],
    [1418967,"2026-07-01 22:20:00","56552","1.1","333.0","1.862","342.6","1019.258","26.12","61.51","-2.59","0.0"],
    [1418968,"2026-07-01 22:30:00","56553","1.5430000000000001","323.8","3.071","321.3","1019.26","26.14","60.17","-2.596","0.0"],
    [1418969,"2026-07-01 22:40:00","56554","1.252","295.8","2.515","304.3","1019.198","26.06","60.16","-2.636","0.0"],
    [1418970,"2026-07-01 22:50:00","56555","1.3619999999999999","298.1","2.319","308.5","1019.1360000000001","25.86","61.14","-2.739","0.0"],
    [1418971,"2026-07-01 23:00:00","56556","1.182","290.4","2.058","285.5","1019.0219999999999","25.71","61.94","-2.728","0.0"],
    [1418972,"2026-07-01 23:10:00","56557","1.225","292.1","2.123","283.6","1019.007","25.46","63.39","-2.615","0.0"],
    [1418973,"2026-07-01 23:20:00","56558","0.6609999999999999","285.5","1.764","256.3","1019.033","25.27","64.32","-3.133","0.0"],
    [1418974,"2026-07-01 23:30:00","56559","0.833","286.5","1.209","282","1018.9889999999999","25.45","63.81","-2.5980000000000003","0.0"],
    [1418975,"2026-07-01 23:40:00","56560","0.797","271.0","1.633","260.8","1018.9960000000001","25.21","64.94","-2.682","0.0"],
    [1418976,"2026-07-01 23:50:00","56561","1.011","261.2","1.764","280","1018.975","25.35","64.08","-2.594","0.0"],
    [1418977,"2026-07-02 00:00:00","56562","1.4569999999999999","269.5","2.352","267.1","1019.008","25.53","63.22","-2.5989999999999998","0.0"],
    [1418978,"2026-07-02 00:10:00","56563","1.217","273.0","2.156","270.3","1019.015","25.54","63.2","-2.593","0.0"],
    [1418979,"2026-07-02 00:20:00","56564","1.052","285.7","1.797","299.5","1018.971","25.17","64.17","-2.6060000000000003","0.0"],
    [1418980,"2026-07-02 00:30:00","56565","1.0070000000000001","254.2","1.568","273.2","1018.9169999999999","24.94","64.72","-2.6319999999999997","0.0"],
    [1418981,"2026-07-02 00:40:00","56566","0.534","247.7","0.98","246.3","1018.971","25.06","63.98","-2.593","0.0"],
    [1418982,"2026-07-02 00:50:00","56567","0.8","263.7","1.535","247.2","1018.934","25.09","63.62","-2.6639999999999997","0.0"],
    [1418983,"2026-07-02 01:00:00","56568","0.77","302.6","1.372","292.9","1018.836","24.89","64.58","-2.6519999999999997","0.0"],
    [1418984,"2026-07-02 01:10:00","56569","0.7909999999999999","283.4","1.209","290.5","1018.834","24.64","65.33","-2.645","0.0"],
    [1418985,"2026-07-02 01:20:00","56570","0.9470000000000001","254.5","1.372","256.7","1018.802","24.48","65.47","-2.596","0.0"],
    [1418986,"2026-07-02 01:30:00","56571","0.8440000000000001","264.5","1.372","263.5","1018.822","24.43","65.48","-2.593","0.0"],
    [1418987,"2026-07-02 01:40:00","56572","0.535","267.8","1.339","286.7","1018.783","24.24","66.27","-2.63","0.0"],
    [1418988,"2026-07-02 01:50:00","56573","0.973","270.5","2.254","274.4","1018.791","24.26","66.4","-2.6710000000000003","0.0"],
    [1418989,"2026-07-02 02:00:00","56574","1.6159999999999999","270.7","2.777","281.9","1018.738","24.44","66.04","-2.627","0.0"],
    [1418990,"2026-07-02 02:10:00","56575","1.8119999999999998","295.0","3.528","307.4","1018.716","24.3","66.5","-2.6039999999999996","0.0"],
    [1418991,"2026-07-02 02:20:00","56576","2.484","300.8","4.116","307.5","1018.7189999999999","24.4","65.43","-2.6010000000000004","0.0"],
    [1418992,"2026-07-02 02:30:00","56577","2.1919999999999997","308.3","3.463","298","1018.773","24.44","64.9","-2.595","0.0"],
    [1418993,"2026-07-02 02:40:00","56578","2.846","314.1","4.508","305.2","1018.7280000000001","24.57","62.54","-2.614","0.0"],
    [1418994,"2026-07-02 02:50:00","56579","3.963","310.1","6.729","308.3","1018.6239999999999","24.62","56.98","-2.5980000000000003","0.0"],
    [1418995,"2026-07-02 03:00:00","56580","3.701","322.4","5.815","313.3","1018.62","24.67","52.97","-2.595","0.0"],
    [1418996,"2026-07-02 03:10:00","56581","4.308","320.7","7.481","319.1","1018.699","24.52","51.3","-2.593","0.0"],
    [1418997,"2026-07-02 03:20:00","56582","3.9530000000000003","317.0","6.664","312.8","1018.7489999999999","24.34","50.82","-2.593","0.0"],
    [1418998,"2026-07-02 03:30:00","56583","4.631","312.3","6.827","314.1","1018.7180000000001","24.24","50.1","-2.593","0.0"],
    [1418999,"2026-07-02 03:40:00","56584","4.65","314.5","7.84","306.9","1018.618","24.16","49.45","-2.593","0.0"],
    [1419000,"2026-07-02 03:50:00","56585","4.511","314.2","7.317","323.6","1018.578","24.04","49.2","-2.592","0.0"],
    [1419001,"2026-07-02 04:00:00","56586","3.5039999999999996","322.4","5.945","307.9","1018.571","23.87","49.33","-2.594","0.0"],
    [1419002,"2026-07-02 04:10:00","56587","3.0810000000000004","318.0","5.096","324.6","1018.587","23.71","49.61","-2.234","0.0"],
    [1419003,"2026-07-02 04:20:00","56588","4.775","306.1","6.795","309","1018.638","23.6","49.66","-0.703","0.0"],
    [1419004,"2026-07-02 04:30:00","56589","4.1080000000000005","300.3","6.239","303.3","1018.613","23.5","49.71","2.1","0.0"],
    [1419005,"2026-07-02 04:40:00","56590","4.508","305.5","6.664","318","1018.7230000000001","23.41","49.74","5.555","0.0"],
    [1419006,"2026-07-02 04:50:00","56591","4.5089999999999995","311.9","7.873","328.9","1018.783","23.29","49.81","12.0","0.0"],
    [1419007,"2026-07-02 05:00:00","56592","4.247","309.4","6.86","320.1","1018.877","23.18","49.92","15.83","0.0"],
    [1419008,"2026-07-02 05:10:00","56593","4.252","308.2","6.664","322.2","1018.951","23.14","49.86","42.77","0.0"],
    [1419009,"2026-07-02 05:20:00","56594","4.791","303.1","7.252","301.6","1018.855","23.23","49.57","65.46","0.0"],
    [1419010,"2026-07-02 05:30:00","56595","4.635","306.4","7.154","320.7","1018.8489999999999","23.33","49.12","81.9","0.0"],
    [1419011,"2026-07-02 05:40:00","56596","4.562","310.9","7.481","321.1","1018.815","23.37","48.81","100.8","0.0"],
    [1419012,"2026-07-02 05:50:00","56597","4.5280000000000005","313.8","6.958","317.1","1018.8560000000001","23.5","48.27","116.2","0.0"],
    [1419013,"2026-07-02 06:00:00","56598","4.316","304.0","6.893","313.5","1018.7769999999999","23.58","48.09","147.6","0.0"],
    [1419014,"2026-07-02 06:10:00","56599","3.7039999999999997","304.3","6.174","288.8","1018.805","23.77","47.74","175.2","0.0"],
    [1419015,"2026-07-02 06:20:00","56600","4.3","310.6","6.076","309","1018.877","23.89","47.24","204.2","0.0"],
    [1419016,"2026-07-02 06:30:00","56601","4.408","301.6","6.501","291.4","1018.948","24.04","46.97","235.5","0.0"],
    [1419017,"2026-07-02 06:40:00","56602","3.9930000000000003","307.6","5.782","328.2","1018.9630000000001","24.3","46.3","266.3","0.0"],
    [1419018,"2026-07-02 06:50:00","56603","3.466","310.7","6.043","315.6","1019.069","24.65","45.47","298.5","0.0"],
    [1419019,"2026-07-02 07:00:00","56604","3.57","318.0","5.39","316.3","1019.085","24.97","44.62","338.8","0.0"],
    [1419020,"2026-07-02 07:10:00","56605","3.574","305.0","5.455","307.6","1019.057","25.37","43.57","377.6","0.0"],
    [1419021,"2026-07-02 07:20:00","56606","4.251","308.7","5.553","313.7","1019.084","25.59","42.89","403.3","0.0"],
    [1419022,"2026-07-02 07:30:00","56607","3.782","303.0","5.684","289.7","1019.191","26.06","41.64","437.0","0.0"],
    [1419023,"2026-07-02 07:40:00","56608","4.6530000000000005","318.2","6.533","328.6","1019.2710000000001","26.12","41.14","470.3","0.0"],
    [1419024,"2026-07-02 07:50:00","56609","4.061","305.2","6.599","306.1","1019.375","26.48","40.36","503.7","0.0"],
    [1419025,"2026-07-02 08:00:00","56610","4.505","317.0","6.795","307.9","1019.467","26.33","40.43","534.7","0.0"],
    [1419026,"2026-07-02 08:10:00","56611","4.244","312.1","6.109","310.4","1019.439","26.71","39.63","567.1","0.0"],
    [1419027,"2026-07-02 08:20:00","56612","3.438","314.0","5.488","306.4","1019.451","27.44","37.67","603.3","0.0"],
    [1419028,"2026-07-02 08:30:00","56613","3.2910000000000004","312.2","5.129","303.8","1019.465","27.8","36.25","632.3","0.0"],
    [1419029,"2026-07-02 08:40:00","56614","3.056","309.8","5.292","312","1019.443","28.34","34.88","622.0","0.0"],
    [1419030,"2026-07-02 08:50:00","56615","2.5540000000000003","305.2","4.279","307","1019.285","28.5","34.04","688.5","0.0"],
    [1419031,"2026-07-02 09:00:00","56616","1.943","324.4","3.757","304.2","1019.284","29.0","33.06","677.2","0.0"],
    [1419032,"2026-07-02 09:10:00","56617","2.11","307.8","4.279","292","1019.2589999999999","29.47","32.38","731.2","0.0"],
    [1419033,"2026-07-02 09:20:00","56618","1.464","262.9","3.626","277.5","1019.225","29.59","32.31","752.7","0.0"],
    [1419034,"2026-07-02 09:30:00","56619","1.96","279.2","4.018","269.2","1019.065","29.92","31.85","777.7","0.0"],
    [1419035,"2026-07-02 09:40:00","56620","1.837","237.5","3.103","240.3","1019.059","30.1","32.22","796.1","0.0"],
    [1419036,"2026-07-02 09:50:00","56621","1.804","277.6","3.724","277.2","1019.046","29.61","33.19","817.0","0.0"],
    [1419037,"2026-07-02 10:00:00","56622","1.541","313.4","3.659","309.5","1019.063","30.61","30.78","836.0","0.0"],
    [1419038,"2026-07-02 10:10:00","56623","1.9240000000000002","315.4","4.149","295.1","1019.039","30.63","30.12","854.0","0.0"],
    [1419039,"2026-07-02 10:20:00","56624","1.891","209.2","4.639","189.9","1019.0880000000001","30.74","31.98","872.0","0.0"],
    [1419040,"2026-07-02 10:30:00","56625","3.013","186.3","5.325","173.5","1019.08","29.19","40.02","887.0","0.0"],
    [1419041,"2026-07-02 10:40:00","56626","3.4539999999999997","186.3","4.998","184.1","1019.054","29.13","41.6","900.0","0.0"],
    [1419042,"2026-07-02 10:50:00","56627","3.6260000000000003","189.5","6.141","186.1","1019.05","29.01","43.02","917.0","0.0"],
    [1419043,"2026-07-02 11:00:00","56628","4.4510000000000005","209.8","7.154","214.9","1019.062","28.72","44.37","933.0","0.0"],
    [1419044,"2026-07-02 11:10:00","56629","3.332","203.5","6.533","169.7","1019.047","28.94","40.44","940.0","0.0"],
    [1419045,"2026-07-02 11:20:00","56630","3.4219999999999997","202.3","5.684","220.1","1019.054","29.47","38.21","947.0","0.0"],
    [1419046,"2026-07-02 11:30:00","56631","3.6460000000000004","189.4","6.076","181.2","1019.015","28.8","42.79","951.0","0.0"],
    [1419047,"2026-07-02 11:50:00","56632","3.702","193.3","6.109","214.4","1018.948","28.76","44.52","963.0","0.0"],
    [1419048,"2026-07-02 12:00:00","56633","3.714","183.5","6.239","159.3","1019.023","28.76","45.84","961.0","0.0"],
    [1419049,"2026-07-02 12:10:00","56634","3.522","184.8","6.729","160.4","1018.9789999999999","28.5","46.84","964.0","0.0"],
    [1419050,"2026-07-02 12:20:00","56635","3.4530000000000003","181.6","5.749","179.7","1018.955","28.67","45.16","957.0","0.0"],
    [1419051,"2026-07-02 12:30:00","56636","3.7539999999999996","175.5","6.043","158.1","1018.9","28.54","46.58","953.0","0.0"],
    [1419052,"2026-07-02 12:40:00","56637","3.605","177.5","5.749","158.5","1018.805","28.41","45.31","951.0","0.0"],
    [1419053,"2026-07-02 12:50:00","56638","4.044","174.3","5.978","176","1018.706","28.37","46.07","943.0","0.0"],
    [1419054,"2026-07-02 13:00:00","56639","4.329","172.3","6.174","178.3","1018.645","28.13","46.28","930.0","0.0"],
    [1419055,"2026-07-02 13:10:00","56640","3.865","169.7","6.043","173.6","1018.5930000000001","28.45","47.16","919.0","0.0"],
    [1419056,"2026-07-02 13:20:00","56641","3.702","192.5","6.207","207.6","1018.53","29.05","50.01","910.0","0.0"],
    [1419057,"2026-07-02 13:30:00","56642","3.984","179.1","6.109","173.9","1018.493","28.81","48.95","899.0","0.0"],
    [1419058,"2026-07-02 13:40:00","56643","2.915","180.6","5.423","165.6","1018.5110000000001","28.91","47.97","882.0","0.0"],
    [1419059,"2026-07-02 13:50:00","56644","2.863","178.2","8.66","183.3","1018.515","29.11","45.84","869.0","0.0"],
    [1419060,"2026-07-02 14:00:00","56645","3.695","183.0","5.749","181","1018.3760000000001","28.78","47.76","853.0","0.0"],
    [1419061,"2026-07-02 14:10:00","56646","3.4410000000000003","182.5","5.553","184.7","1018.327","29.03","45.42","832.0","0.0"],
    [1419062,"2026-07-02 14:20:00","56647","2.971","201.7","5.553","193.2","1018.332","29.25","44.4","811.0","0.0"],
    [1419063,"2026-07-02 14:30:00","56648","3.0989999999999998","183.3","5.031","157.1","1018.24","29.32","44.64","791.6","0.0"],
    [1419064,"2026-07-02 14:40:00","56649","2.971","187.5","4.965","168","1018.1389999999999","29.2","45.28","768.0","0.0"],
    [1419065,"2026-07-02 14:50:00","56650","2.562","197.0","4.933","221.6","1018.1","29.68","43.07","743.7","0.0"],
    [1419066,"2026-07-02 15:00:00","56651","2.716","174.4","4.835","163.3","1018.01","29.52","43.44","719.9","0.0"],
    [1419067,"2026-07-02 15:10:00","56652","3.6039999999999996","175.5","5.815","167.3","1018.048","29.16","44.04","695.8","0.0"],
    [1419068,"2026-07-02 15:20:00","56653","2.7060000000000004","191.4","5.161","194.6","1018.061","29.57","43.06","666.4","0.0"],
    [1419069,"2026-07-02 15:30:00","56654","2.5669999999999997","192.9","4.769","174.1","1018.0830000000001","29.84","40.52","603.5","0.0"],
    [1419070,"2026-07-02 15:40:00","56655","2.998","171.7","4.998","155.3","1018.059","29.28","44.81","611.3","0.0"],
    [1419071,"2026-07-02 15:50:00","56656","3.275","197.5","4.965","220.8","1018.0160000000001","29.54","46.95","543.7","0.0"],
    [1419072,"2026-07-02 16:00:00","56657","3.3560000000000003","201.6","5.194","175.1","1017.918","29.49","49.43","551.4","0.0"],
    [1419073,"2026-07-02 16:10:00","56658","3.2689999999999997","196.3","5.521","177.4","1017.825","29.24","50.75","520.7","0.0"],
    [1419074,"2026-07-02 16:20:00","56659","3.247","198.1","5.717","217.1","1017.747","29.25","50.97","489.5","0.0"],
    [1419075,"2026-07-02 16:30:00","56660","3.25","195.6","5.684","181.8","1017.7389999999999","29.22","51.15","458.4","0.0"],
    [1419076,"2026-07-02 16:40:00","56661","3.6510000000000002","194.0","5.749","187.1","1017.7489999999999","28.83","53.6","426.2","0.0"],
    [1419077,"2026-07-02 16:50:00","56662","3.362","202.3","6.827","203.9","1017.829","28.89","52.05","395.6","0.0"],
    [1419078,"2026-07-02 17:00:00","56663","3.2460000000000004","204.4","5.782","224.4","1017.86","28.94","51.83","364.6","0.0"],
    [1419079,"2026-07-02 17:10:00","56664","2.432","203.7","5.031","233.7","1017.908","29.16","48.91","334.5","0.0"],
    [1419080,"2026-07-02 17:20:00","56665","2.9530000000000003","195.5","5.292","181.8","1017.908","28.93","48.69","305.6","0.0"],
    [1419081,"2026-07-02 17:30:00","56666","2.9360000000000004","193.5","4.737","178.2","1017.95","28.75","50.26","274.2","0.0"],
    [1419082,"2026-07-02 17:40:00","56667","2.801","193.8","5.161","176.7","1018.039","28.35","51.15","243.6","0.0"],
    [1419083,"2026-07-02 17:50:00","56668","3.011","207.9","5.782","202","1018.092","28.25","51.87","213.6","0.0"],
    [1419084,"2026-07-02 18:00:00","56669","2.924","216.0","4.443","212.8","1018.133","28.24","51.11","183.9","0.0"],
    [1419085,"2026-07-02 18:10:00","56670","2.68","211.2","4.9","236.2","1018.273","28.21","51.4","156.2","0.0"],
    [1419086,"2026-07-02 18:20:00","56671","2.72","210.6","5.488","215.7","1018.317","28.07","53.06","131.9","0.0"],
    [1419087,"2026-07-02 18:30:00","56672","2.6060000000000003","201.8","5.717","184.5","1018.375","27.92","54.22","107.8","0.0"],
    [1419088,"2026-07-02 18:40:00","56673","2.995","215.6","5.259","221","1018.422","27.74","56.13","84.9","0.0"],
    [1419089,"2026-07-02 18:50:00","56674","3.5580000000000003","218.9","6.141","246.5","1018.454","27.65","54.24","63.38","0.0"],
    [1419090,"2026-07-02 19:00:00","56675","3.648","219.1","5.684","213.3","1018.5189999999999","27.52","53.6","43.44","0.0"],
    [1419091,"2026-07-02 19:10:00","56676","3.408","224.8","6.533","234.6","1018.551","27.39","54.4","25.71","0.0"],
    [1419092,"2026-07-02 19:20:00","56677","3.715","223.5","6.207","222","1018.586","26.98","57.09","12.2","0.0"],
    [1419093,"2026-07-02 19:30:00","56678","3.7319999999999998","218.6","6.533","214.1","1018.712","26.83","58.53","3.6260000000000003","0.0"],
    [1419094,"2026-07-02 19:40:00","56679","3.455","222.1","5.553","238.6","1018.704","26.51","61.93","-0.185","0.0"],
    [1419095,"2026-07-02 19:50:00","56680","3.616","221.0","6.337","188.8","1018.706","26.43","60.84","-2.17","0.0"],
    [1419096,"2026-07-02 20:00:00","56681","3.404","216.3","5.717","223.3","1018.779","26.38","61.74","-2.661","0.0"],
    [1419097,"2026-07-02 20:10:00","56682","3.734","222.4","6.207","193.4","1018.888","26.38","58.88","-2.7","0.0"],
    [1419098,"2026-07-02 20:20:00","56683","3.0269999999999997","221.0","4.965","217.7","1018.99","26.4","56.25","-3.14","0.0"],
    [1419099,"2026-07-02 20:30:00","56684","3.466","222.4","6.043","196.1","1019.053","26.66","52.02","-3.3","0.0"],
    [1419100,"2026-07-02 20:40:00","56685","3.593","224.6","5.39","221.5","1019.1360000000001","26.59","55.09","-2.885","0.0"],
    [1419101,"2026-07-02 20:50:00","56686","2.88","229.0","4.802","217.4","1019.145","26.54","54.85","-3.0380000000000003","0.0"],
    [1419102,"2026-07-02 21:00:00","56687","2.253","226.8","3.561","217.6","1019.202","26.42","53.71","-3.295","0.0"],
    [1419103,"2026-07-02 21:10:00","56688","2.106","229.9","3.299","229.9","1019.25","26.38","51.78","-3.2910000000000004","0.0"],
    [1419104,"2026-07-02 21:20:00","56689","1.9169999999999998","228.5","3.005","260","1019.2860000000001","26.36","50.32","-3.342","0.0"],
    [1419105,"2026-07-02 21:30:00","56690","1.633","231.2","2.45","226.3","1019.313","26.25","50.1","-3.342","0.0"],
    [1419106,"2026-07-02 21:40:00","56691","1.256","251.9","2.581","258.8","1019.3689999999999","26.14","50.77","-3.365","0.0"],
    [1419107,"2026-07-02 21:50:00","56692","1.742","264.5","3.43","271.4","1019.373","26.17","49.89","-3.364","0.0"],
    [1419108,"2026-07-02 22:00:00","56693","1.355","255.7","2.777","279.7","1019.4060000000001","26.16","50.38","-3.344","0.0"],
    [1419109,"2026-07-02 22:10:00","56694","1.5419999999999998","273.7","2.515","266.5","1019.4760000000001","26.0","52.27","-3.343","0.0"],
    [1419110,"2026-07-02 22:20:00","56695","1.2990000000000002","272.2","2.189","284.6","1019.59","25.75","52.7","-3.364","0.0"],
    [1419111,"2026-07-02 22:30:00","56696","0.9590000000000001","264.5","1.927","231.5","1019.648","25.75","51.38","-3.35","0.0"],
    [1419112,"2026-07-02 22:40:00","56697","1.045","287.9","1.829","281.8","1019.6489999999999","25.33","51.95","-3.615","0.0"],
    [1419113,"2026-07-02 22:50:00","56698","0.903","289.5","1.895","318.9","1019.683","24.97","51.91","-3.6919999999999997","0.0"],
    [1419114,"2026-07-02 23:00:00","56699","0.9520000000000001","285.4","1.797","282.4","1019.688","25.24","50.16","-3.372","0.0"],
    [1419115,"2026-07-02 23:10:00","56700","1.133","287.3","1.993","281.8","1019.752","25.22","49.75","-3.495","0.0"],
    [1419116,"2026-07-02 23:20:00","56701","1.224","297.4","1.927","304.3","1019.791","25.01","50.36","-3.429","0.0"],
    [1419117,"2026-07-02 23:30:00","56702","1.091","288.8","1.829","302.3","1019.706","24.79","50.63","-3.5380000000000003","0.0"],
    [1419118,"2026-07-02 23:40:00","56703","0.726","294.4","1.699","321.8","1019.7080000000001","24.41","51.83","-3.3680000000000003","0.0"],
    [1419119,"2026-07-02 23:50:00","56704","0.991","284.1","1.829","293","1019.6389999999999","24.32","51.41","-3.412","0.0"],
    [1419120,"2026-07-03 00:00:00","56705","1.101","261.0","2.221","277.3","1019.533","25.16","47.77","-3.552","0.0"],
    [1419121,"2026-07-03 00:10:00","56706","1.568","273.4","2.548","265.2","1019.485","24.86","49.46","-3.353","0.0"],
    [1419122,"2026-07-03 00:20:00","56707","1.328","273.1","2.385","265.4","1019.4119999999999","24.68","50.75","-3.373","0.0"],
    [1419123,"2026-07-03 00:30:00","56708","1.338","276.7","2.189","272.3","1019.3760000000001","24.17","52.47","-3.385","0.0"],
    [1419124,"2026-07-03 00:40:00","56709","1.016","283.2","1.895","264","1019.337","23.96","52.64","-3.469","0.0"],
    [1419125,"2026-07-03 00:50:00","56710","0.905","266.8","1.96","268.6","1019.263","23.84","52.61","-3.69","0.0"],
    [1419126,"2026-07-03 01:00:00","56711","0.804","275.0","1.633","256.9","1019.181","23.94","51.95","-3.389","0.0"],
    [1419127,"2026-07-03 01:10:00","56712","1.125","262.4","2.091","267.1","1019.1010000000001","24.01","51.06","-3.457","0.0"],
    [1419128,"2026-07-03 01:20:00","56713","1.053","281.2","1.862","308.5","1019.084","23.92","51.29","-3.4019999999999997","0.0"],
    [1419129,"2026-07-03 01:30:00","56714","0.9520000000000001","282.6","1.633","271","1019.095","23.59","52.57","-3.424","0.0"],
    [1419130,"2026-07-03 01:40:00","56715","0.945","280.4","1.764","304","1019.082","23.33","53.54","-3.409","0.0"],
    [1419131,"2026-07-03 01:50:00","56716","0.633","270.0","1.209","277","1019.038","23.35","53.03","-3.3289999999999997","0.0"],
    [1419132,"2026-07-03 02:00:00","56717","0.46","275.7","1.078","269.6","1019.07","23.5","51.99","-3.06","0.0"],
    [1419133,"2026-07-03 02:10:00","56718","1.486","299.2","2.287","295.8","1019.0169999999999","23.67","51.84","-2.943","0.0"],
    [1419134,"2026-07-03 02:20:00","56719","1.511","297.2","2.189","299.9","1018.938","23.24","54.06","-2.815","0.0"],
    [1419135,"2026-07-03 02:30:00","56720","1.354","290.1","2.058","293.2","1018.956","22.7","56.68","-2.927","0.0"],
    [1419136,"2026-07-03 02:40:00","56721","1.4509999999999998","289.8","2.123","291.2","1018.992","22.71","56.68","-3.1210000000000004","0.0"],
    [1419137,"2026-07-03 02:50:00","56722","1.696","292.6","2.319","291.4","1018.94","22.62","56.98","-2.8510000000000004","0.0"],
    [1419138,"2026-07-03 03:00:00","56723","1.494","304.3","2.091","307","1018.946","22.52","57.16","-2.931","0.0"],
    [1419139,"2026-07-03 03:10:00","56724","1.8459999999999999","301.2","2.744","307.2","1018.947","22.91","55.0","-3.127","0.0"],
    [1419140,"2026-07-03 03:20:00","56725","1.4680000000000002","273.7","2.548","281.7","1018.8739999999999","23.35","52.47","-3.13","0.0"],
    [1419141,"2026-07-03 03:30:00","56726","1.9509999999999998","266.6","3.169","276.5","1018.916","23.88","50.79","-2.8510000000000004","0.0"],
    [1419142,"2026-07-03 03:40:00","56727","1.436","255.4","3.071","257.7","1019.0089999999999","24.11","49.74","-2.827","0.0"],
    [1419143,"2026-07-03 03:50:00","56728","1.286","260.1","2.221","273.6","1019.0369999999999","23.92","50.74","-2.846","0.0"],
    [1419144,"2026-07-03 04:00:00","56729","0.498","287.5","1.274","298.3","1019.0980000000001","23.26","52.69","-3.25","0.0"],
    [1419145,"2026-07-03 04:10:00","56730","1.587","298.6","2.515","314.6","1019.0980000000001","23.17","52.76","-2.654","0.0"],
    [1419146,"2026-07-03 04:20:00","56731","1.3259999999999998","306.5","2.548","329.2","1019.143","23.74","50.33","0.384","0.0"],
    [1419147,"2026-07-03 04:30:00","56732","1.247","318.7","2.254","310.6","1019.211","23.94","49.23","5.257000000000001","0.0"],
    [1419148,"2026-07-03 04:40:00","56733","0.35200000000000004","14.99","1.078","29.61","1019.318","24.06","49.21","13.36","0.0"],
    [1419149,"2026-07-03 04:50:00","56734","0.361","305.1","1.437","296.4","1019.4019999999999","24.21","49.64","28.26","0.0"],
    [1419150,"2026-07-03 05:00:00","56735","0.7090000000000001","303.7","1.895","302.3","1019.44","24.05","50.61","43.5","0.0"],
    [1419151,"2026-07-03 05:10:00","56736","0.665","249.6","1.437","259.5","1019.574","24.4","50.41","56.98","0.0"],
    [1419152,"2026-07-03 05:20:00","56737","0.365","284.4","1.209","294.8","1019.617","24.83","48.3","68.03","0.0"],
    [1419153,"2026-07-03 05:30:00","56738","0.162","352.8","0.849","352.7","1019.775","25.41","46.31","81.7","0.0"],
    [1419154,"2026-07-03 05:40:00","56739","0.14300000000000002","308.4","1.111","320","1019.7669999999999","26.09","44.13","100.1","0.0"],
    [1419155,"2026-07-03 05:50:00","56740","0.34600000000000003","309.3","1.274","342.2","1019.918","26.25","43.34","113.3","0.0"],
    [1419156,"2026-07-03 06:00:00","56741","1.516","317.1","2.45","311","1020.045","26.14","43.39","147.2","0.0"],
    [1419157,"2026-07-03 06:10:00","56742","1.5659999999999998","337.1","2.679","5.555","1020.148","26.46","43.52","175.6","0.0"],
    [1419158,"2026-07-03 06:20:00","56743","2.3680000000000003","27.45","3.495","23.27","1020.209","26.58","50.23","209.8","0.0"],
    [1419159,"2026-07-03 06:30:00","56744","2.082","302.2","3.626","293.8","1020.345","26.78","42.11","244.3","0.0"],
    [1419160,"2026-07-03 06:40:00","56745","2.417","301.0","3.528","304.3","1020.3660000000001","26.88","41.72","277.9","0.0"],
    [1419161,"2026-07-03 06:50:00","56746","2.397","307.0","3.659","312.3","1020.425","27.24","41.13","313.0","0.0"],
    [1419162,"2026-07-03 07:00:00","56747","2.221","299.0","3.299","314.7","1020.443","27.56","40.3","348.0","0.0"],
    [1419163,"2026-07-03 07:10:00","56748","2.642","296.4","3.822","299.6","1020.5010000000001","27.74","39.87","379.0","0.0"],
    [1419164,"2026-07-03 07:20:00","56749","3.293","297.7","4.639","284.1","1020.6039999999999","27.65","40.09","414.4","0.0"],
    [1419165,"2026-07-03 07:30:00","56750","3.3789999999999996","302.2","4.541","303.8","1020.693","27.96","39.39","449.1","0.0"],
    [1419166,"2026-07-03 07:40:00","56751","2.654","289.5","4.018","280.1","1020.757","28.17","39.52","480.5","0.0"],
    [1419167,"2026-07-03 07:50:00","56752","2.7460000000000004","290.6","4.083","284.4","1020.865","28.5","38.83","511.0","0.0"],
    [1419168,"2026-07-03 08:00:00","56753","1.5","310.9","3.985","307.7","1020.89","28.78","41.49","542.0","0.0"],
    [1419169,"2026-07-03 08:10:00","56754","1.4069999999999998","219.4","3.332","235.8","1020.962","29.48","40.84","569.7","0.0"],
    [1419170,"2026-07-03 08:20:00","56755","1.485","182.6","3.365","161","1020.955","28.77","45.7","599.0","0.0"],
    [1419171,"2026-07-03 08:30:00","56756","0.7809999999999999","151.6","3.463","167","1020.943","29.83","43.06","622.7","0.0"],
    [1419172,"2026-07-03 08:40:00","56757","2.0780000000000003","167.9","4.312","165.3","1021.0260000000001","28.86","50.94","621.5","0.0"],
    [1419173,"2026-07-03 08:50:00","56758","1.845","160.2","4.769","179.1","1021.1","28.56","52.15","685.6","0.0"],
    [1419174,"2026-07-03 09:00:00","56759","1.8730000000000002","166.6","4.083","192.1","1021.225","28.91","51.84","677.6","0.0"],
    [1419175,"2026-07-03 09:10:00","56760","2.379","185.4","4.345","183.5","1021.311","28.67","55.85","738.1","0.0"],
    [1419176,"2026-07-03 09:20:00","56761","2.908","184.4","4.704","180.7","1021.34","28.44","57.77","761.9","0.0"],
    [1419177,"2026-07-03 09:30:00","56762","2.639","177.3","4.606","158","1021.335","28.96","56.69","782.9","0.0"],
    [1419178,"2026-07-03 09:40:00","56763","2.986","209.2","6.272","212.6","1021.3889999999999","28.53","58.81","803.0","0.0"],
    [1419179,"2026-07-03 09:50:00","56764","3.015","202.9","5.978","226.8","1021.438","29.09","58.01","823.0","0.0"],
    [1419180,"2026-07-03 10:00:00","56765","3.023","194.0","5.488","170","1021.471","29.12","57.63","841.0","0.0"],
    [1419181,"2026-07-03 10:10:00","56766","3.5010000000000003","194.3","6.827","218.4","1021.518","29.01","58.08","858.0","0.0"],
    [1419182,"2026-07-03 10:20:00","56767","3.661","202.6","5.978","207.8","1021.529","28.78","59.3","873.0","0.0"],
    [1419183,"2026-07-03 10:30:00","56768","3.7260000000000004","195.2","6.827","187.3","1021.487","28.86","59.21","888.0","0.0"],
    [1419184,"2026-07-03 10:40:00","56769","3.986","204.0","6.827","219.3","1021.497","28.86","59.6","901.0","0.0"],
    [1419185,"2026-07-03 10:50:00","56770","3.7560000000000002","198.7","7.35","181.1","1021.47","29.32","58.51","915.0","0.0"],
    [1419186,"2026-07-03 11:00:00","56771","4.949","188.5","8.07","183.4","1021.477","28.82","60.06","926.0","0.0"],
    [1419187,"2026-07-03 11:10:00","56772","3.763","204.9","7.742","214","1021.5319999999999","29.38","59.2","934.0","0.0"],
    [1419188,"2026-07-03 11:20:00","56773","4.275","195.9","7.709","226","1021.62","29.24","59.06","944.0","0.0"],
    [1419189,"2026-07-03 11:30:00","56774","4.96","203.7","8.43","180.5","1021.5989999999999","29.0","59.67","950.0","0.0"],
    [1419190,"2026-07-03 11:40:00","56775","5.125","211.6","8.13","219.5","1021.5319999999999","29.03","59.85","955.0","0.0"],
    [1419191,"2026-07-03 11:50:00","56776","4.526","205.9","7.187","227.2","1021.4810000000001","29.0","60.46","957.0","0.0"],
    [1419192,"2026-07-03 12:00:00","56777","4.746","211.0","8.46","212","1021.487","29.25","59.39","956.0","0.0"],
    [1419193,"2026-07-03 12:10:00","56778","5.126","211.9","8.36","227.7","1021.426","29.22","58.96","956.0","0.0"],
    [1419194,"2026-07-03 12:20:00","56779","5.276","213.0","7.84","220.1","1021.421","29.02","59.22","953.0","0.0"],
    [1419195,"2026-07-03 12:30:00","56780","4.853","210.8","7.775","200","1021.367","29.34","58.63","949.0","0.0"],
    [1419196,"2026-07-03 12:40:00","56781","5.092","213.0","7.677","221.5","1021.28","29.23","58.94","944.0","0.0"],
    [1419197,"2026-07-03 12:50:00","56782","5.053","214.1","7.775","215","1021.174","29.1","58.82","936.0","0.0"],
    [1419198,"2026-07-03 13:00:00","56783","4.298","207.3","7.383","217.5","1021.179","29.3","58.82","927.0","0.0"],
    [1419199,"2026-07-03 13:10:00","56784","4.673","204.9","8.53","212.6","1021.173","29.2","58.82","918.0","0.0"],
    [1419200,"2026-07-03 13:20:00","56785","3.6239999999999997","195.4","6.207","185.8","1021.1","29.4","58.37","906.0","0.0"],
    [1419201,"2026-07-03 13:30:00","56786","4.428","201.6","7.905","228.7","1021.075","29.25","59.03","894.0","0.0"],
    [1419202,"2026-07-03 13:40:00","56787","4.755","192.8","7.873","179.7","1021.045","28.94","59.46","881.0","0.0"],
    [1419203,"2026-07-03 13:50:00","56788","4.353","203.9","7.187","180.4","1020.9889999999999","29.34","57.73","865.0","0.0"],
    [1419204,"2026-07-03 14:00:00","56789","3.7560000000000002","196.5","7.415","182.3","1020.939","29.36","56.89","848.0","0.0"],
    [1419205,"2026-07-03 14:10:00","56790","4.29","208.2","7.252","207.3","1020.8660000000001","29.57","54.89","831.0","0.0"],
    [1419206,"2026-07-03 14:20:00","56791","4.9239999999999995","211.1","8.07","211.4","1020.7560000000001","29.19","53.48","813.0","0.0"],
    [1419207,"2026-07-03 14:30:00","56792","5.075","205.3","8.72","218.5","1020.706","28.92","51.24","793.1","0.0"],
    [1419208,"2026-07-03 14:40:00","56793","4.2","194.4","7.285","170.5","1020.658","29.11","52.43","772.2","0.0"],
    [1419209,"2026-07-03 14:50:00","56794","3.8169999999999997","199.2","7.546","220.1","1020.615","29.37","53.32","747.4","0.0"],
    [1419210,"2026-07-03 15:00:00","56795","4.217","207.6","7.35","219.6","1020.617","29.1","54.95","724.9","0.0"],
    [1419211,"2026-07-03 15:10:00","56796","4.6160000000000005","213.5","7.056","215.8","1020.6030000000001","28.78","55.21","698.7","0.0"],
    [1419212,"2026-07-03 15:20:00","56797","3.865","208.6","6.631","228.9","1020.549","28.81","55.39","671.2","0.0"],
    [1419213,"2026-07-03 15:30:00","56798","3.657","194.1","6.174","179.2","1020.49","28.95","53.69","606.5","0.0"],
    [1419214,"2026-07-03 15:40:00","56799","4.055","204.5","7.317","218.9","1020.451","28.63","54.73","615.4","0.0"],
    [1419215,"2026-07-03 15:50:00","56800","3.761","192.7","6.599","183.8","1020.395","28.52","55.73","546.2","0.0"],
    [1419216,"2026-07-03 16:00:00","56801","3.088","197.5","6.174","214.6","1020.3919999999999","28.85","55.81","555.1","0.0"],
    [1419217,"2026-07-03 16:10:00","56802","3.8689999999999998","204.9","6.468","204.9","1020.3510000000001","28.51","54.54","526.0","0.0"],
    [1419218,"2026-07-03 16:20:00","56803","3.782","208.5","6.141","213.7","1020.327","28.75","53.07","493.3","0.0"],
    [1419219,"2026-07-03 16:30:00","56804","3.888","206.0","6.109","229.9","1020.2739999999999","28.33","55.51","464.0","0.0"],
    [1419220,"2026-07-03 16:40:00","56805","3.5189999999999997","197.0","5.325","175.7","1020.2560000000001","28.19","57.79","432.2","0.0"],
    [1419221,"2026-07-03 16:50:00","56806","3.264","208.7","6.925","224.4","1020.288","28.27","58.05","399.7","0.0"],
    [1419222,"2026-07-03 17:00:00","56807","3.548","210.1","6.501","215.4","1020.2689999999999","28.28","59.12","368.0","0.0"],
    [1419223,"2026-07-03 17:10:00","56808","3.7060000000000004","208.7","6.631","219.6","1020.324","27.84","60.64","337.8","0.0"],
    [1419224,"2026-07-03 17:20:00","56809","3.6010000000000004","212.5","5.586","231.4","1020.3610000000001","27.81","61.01","307.5","0.0"],
    [1419225,"2026-07-03 17:30:00","56810","2.925","200.8","5.553","176","1020.4169999999999","27.85","60.22","276.6","0.0"],
    [1419226,"2026-07-03 17:40:00","56811","2.927","187.8","5.259","175.5","1020.551","27.76","59.82","247.3","0.0"],
    [1419227,"2026-07-03 17:50:00","56812","2.9619999999999997","197.4","5.782","249.5","1020.672","27.52","59.5","217.8","0.0"],
    [1419228,"2026-07-03 18:00:00","56813","3.1719999999999997","202.0","5.88","211.5","1020.799","27.67","59.41","188.3","0.0"],
    [1419229,"2026-07-03 18:10:00","56814","2.878","203.5","5.978","213.1","1020.8539999999999","27.56","58.53","160.1","0.0"],
    [1419230,"2026-07-03 18:20:00","56815","3.603","210.7","5.488","209.2","1020.8910000000001","27.34","58.89","133.6","0.0"],
    [1419231,"2026-07-03 18:30:00","56816","3.508","215.0","5.717","230.2","1020.993","27.27","59.58","108.6","0.0"],
    [1419232,"2026-07-03 18:40:00","56817","3.866","223.8","7.187","212","1021.045","26.94","61.14","85.6","0.0"],
    [1419233,"2026-07-03 18:50:00","56818","4.135","218.7","6.86","225.4","1021.13","26.83","62.39","63.76","0.0"],
    [1419234,"2026-07-03 19:00:00","56819","3.727","221.2","6.86","192.6","1021.1510000000001","26.66","63.7","43.11","0.0"],
    [1419235,"2026-07-03 19:10:00","56820","3.13","221.8","6.207","231.4","1021.245","26.6","65.16","25.39","0.0"],
    [1419236,"2026-07-03 19:20:00","56821","2.7119999999999997","223.0","4.377","218.7","1021.326","26.45","65.97","11.87","0.0"],
    [1419237,"2026-07-03 19:30:00","56822","2.822","219.8","4.802","198.5","1021.405","26.28","66.59","3.425","0.0"],
    [1419238,"2026-07-03 19:40:00","56823","2.687","223.8","4.149","215","1021.495","26.26","66.43","-0.17600000000000002","0.0"],
    [1419239,"2026-07-03 19:50:00","56824","2.367","223.9","3.463","200","1021.6189999999999","26.18","67.45","-2.0","0.0"],
    [1419240,"2026-07-03 20:00:00","56825","2.7439999999999998","223.2","3.985","214.5","1021.7339999999999","26.18","67.65","-2.593","0.0"],
    [1419241,"2026-07-03 20:10:00","56826","2.745","222.6","4.279","213.7","1021.85","26.16","67.78","-2.593","0.0"],
    [1419242,"2026-07-03 20:20:00","56827","2.5610000000000004","227.3","3.691","215.3","1022.007","26.07","68.72","-2.594","0.0"],
    [1419243,"2026-07-03 20:30:00","56828","2.523","227.7","4.116","236.1","1022.1030000000001","25.96","68.74","-2.593","0.0"],
    [1419244,"2026-07-03 20:40:00","56829","2.66","227.4","4.279","229.1","1022.2869999999999","25.99","68.31","-2.594","0.0"],
    [1419245,"2026-07-03 20:50:00","56830","1.618","232.8","3.593","222.4","1022.3939999999999","25.97","68.58","-2.594","0.0"],
    [1419246,"2026-07-03 21:00:00","56831","1.564","231.2","2.777","250.1","1022.462","25.77","69.76","-2.613","0.0"],
    [1419247,"2026-07-03 21:10:00","56832","1.699","229.9","3.201","224","1022.549","25.74","70.03","-2.594","0.0"],
    [1419248,"2026-07-03 21:20:00","56833","1.7469999999999999","229.8","2.842","241.8","1022.5360000000001","25.65","70.18","-2.595","0.0"],
    [1419249,"2026-07-03 21:30:00","56834","1.6219999999999999","230.5","2.613","217.6","1022.5210000000001","25.56","70.1","-2.5989999999999998","0.0"],
    [1419250,"2026-07-03 21:40:00","56835","1.7619999999999998","238.2","3.267","256.3","1022.477","25.58","69.35","-2.5980000000000003","0.0"],
    [1419251,"2026-07-03 21:50:00","56836","1.827","230.3","3.136","239","1022.454","24.86","72.38","-2.605","0.0"],
    [1419252,"2026-07-03 22:00:00","56837","1.621","234.0","3.332","224.5","1022.475","24.06","74.23","-3.7769999999999997","0.0"],
    [1419253,"2026-07-03 22:10:00","56838","1.685","233.9","3.005","253.3","1022.482","23.59","74.23","-4.676","0.0"],
    [1419254,"2026-07-03 22:20:00","56839","1.6380000000000001","258.7","3.103","277.9","1022.4789999999999","23.43","71.02","-3.404","0.0"],
    [1419255,"2026-07-03 22:30:00","56840","1.604","280.7","2.777","290.5","1022.4989999999999","23.84","62.76","-2.608","0.0"],
    [1419256,"2026-07-03 22:40:00","56841","1.59","286.3","3.005","263.2","1022.57","24.82","55.5","-2.667","0.0"],
    [1419257,"2026-07-03 22:50:00","56842","1.22","292.4","2.189","297.6","1022.5360000000001","24.75","56.33","-2.8369999999999997","0.0"],
    [1419258,"2026-07-03 23:00:00","56843","1.28","295.3","2.581","308","1022.51","24.7","57.54","-2.957","0.0"],
    [1419259,"2026-07-03 23:10:00","56844","1.801","299.0","3.136","316.4","1022.4839999999999","24.65","57.02","-3.1430000000000002","0.0"],
    [1419260,"2026-07-03 23:20:00","56845","2.005","307.5","2.973","312","1022.439","25.01","54.83","-2.819","0.0"],
    [1419261,"2026-07-03 23:30:00","56846","1.557","297.1","2.613","307.9","1022.4010000000001","25.22","53.8","-2.6660000000000004","0.0"],
    [1419262,"2026-07-03 23:40:00","56847","1.069","296.5","1.666","301.7","1022.345","24.99","54.42","-3.133","0.0"],
    [1419263,"2026-07-03 23:50:00","56848","0.823","286.3","1.568","282.5","1022.288","24.88","54.57","-3.159","0.0"],
    [1419264,"2026-07-04 00:00:00","56849","1.209","274.5","2.058","256.2","1022.232","24.91","55.0","-2.8360000000000003","0.0"],
    [1419265,"2026-07-04 00:10:00","56850","0.9390000000000001","271.6","1.797","247.9","1022.166","24.77","56.46","-2.6719999999999997","0.0"],
    [1419266,"2026-07-04 00:20:00","56851","1.074","276.0","2.221","287.8","1022.135","24.59","57.31","-2.65","0.0"],
    [1419267,"2026-07-04 00:30:00","56852","1.5390000000000001","273.8","2.744","271.3","1022.137","24.51","58.78","-2.721","0.0"],
    [1419268,"2026-07-04 00:40:00","56853","1.591","276.9","2.711","282.2","1022.097","24.45","60.63","-2.6060000000000003","0.0"],
    [1419269,"2026-07-04 00:50:00","56854","1.472","272.4","2.679","258.9","1022.068","24.24","62.22","-2.596","0.0"],
    [1419270,"2026-07-04 01:00:00","56855","1.469","271.9","2.548","247.7","1022.05","24.15","62.9","-2.602","0.0"],
    [1419271,"2026-07-04 01:10:00","56856","1.324","266.8","2.679","252.7","1022.015","24.14","63.16","-2.5980000000000003","0.0"],
    [1419272,"2026-07-04 01:20:00","56857","0.932","275.2","1.862","288.9","1021.9789999999999","24.05","63.66","-2.605","0.0"],
    [1419273,"2026-07-04 01:30:00","56858","0.693","275.5","1.666","284.9","1021.943","24.0","63.86","-2.617","0.0"],
    [1419274,"2026-07-04 01:40:00","56859","0.5489999999999999","273.2","1.405","283.1","1021.948","23.92","64.26","-2.613","0.0"],
    [1419275,"2026-07-04 01:50:00","56860","0.48200000000000004","267.6","1.241","280.6","1021.995","23.91","64.24","-2.627","0.0"],
    [1419276,"2026-07-04 02:00:00","56861","0.701","266.5","1.437","276.4","1021.9860000000001","23.94","64.16","-2.625","0.0"],
    [1419277,"2026-07-04 02:10:00","56862","0.875","267.3","1.503","270.6","1021.972","23.91","64.29","-2.633","0.0"],
    [1419278,"2026-07-04 02:20:00","56863","0.545","266.8","1.339","276.1","1021.9689999999999","23.85","64.24","-2.639","0.0"],
    [1419279,"2026-07-04 02:30:00","56864","0.8270000000000001","267.5","1.568","269.4","1021.96","23.82","64.07","-2.645","0.0"],
    [1419280,"2026-07-04 02:40:00","56865","0.713","251.1","1.045","270.5","1021.948","24.02","62.84","-2.647","0.0"],
    [1419281,"2026-07-04 02:50:00","56866","0.7240000000000001","255.8","1.013","258.8","1021.954","23.75","64.58","-2.6519999999999997","0.0"],
    [1419282,"2026-07-04 03:00:00","56867","0.716","241.8","1.111","246.6","1021.936","23.43","65.87","-2.647","0.0"],
    [1419283,"2026-07-04 03:10:00","56868","0.838","268.9","1.339","280.1","1021.941","23.4","66.13","-2.657","0.0"],
    [1419284,"2026-07-04 03:20:00","56869","1.0","261.5","1.895","271.4","1021.943","23.17","66.37","-2.653","0.0"],
    [1419285,"2026-07-04 03:30:00","56870","1.304","267.7","2.254","273.8","1022.0089999999999","23.1","66.23","-2.653","0.0"],
    [1419286,"2026-07-04 03:40:00","56871","1.347","276.3","2.973","279","1022.064","22.9","66.57","-2.641","0.0"],
    [1419287,"2026-07-04 03:50:00","56872","0.96","270.7","2.123","274.3","1022.084","22.65","67.39","-2.623","0.0"],
    [1419288,"2026-07-04 04:00:00","56873","1.06","274.5","1.96","268","1022.0830000000001","22.63","67.31","-2.654","0.0"],
    [1419289,"2026-07-04 04:10:00","56874","0.851","268.3","1.764","265","1022.028","22.74","66.68","-1.921","0.0"],
    [1419290,"2026-07-04 04:20:00","56875","1.395","265.6","2.091","249.5","1022.041","22.95","65.25","-0.636","0.0"],
    [1419291,"2026-07-04 04:30:00","56876","1.195","280.0","2.156","277.2","1022.125","22.94","63.77","2.205","0.0"],
    [1419292,"2026-07-04 04:40:00","56877","1.379","285.4","2.123","281.5","1022.154","22.93","62.26","7.247000000000001","0.0"],
    [1419293,"2026-07-04 04:50:00","56878","1.526","291.8","2.646","267","1022.196","23.18","59.15","17.86","0.0"],
    [1419294,"2026-07-04 05:00:00","56879","1.724","280.3","3.169","286.9","1022.2310000000001","23.54","56.33","31.92","0.0"],
    [1419295,"2026-07-04 05:10:00","56880","1.635","280.3","2.875","288.3","1022.2719999999999","23.6","55.62","46.39","0.0"],
    [1419296,"2026-07-04 05:20:00","56881","2.001","285.5","3.365","296.9","1022.33","23.8","55.14","62.14","0.0"],
    [1419297,"2026-07-04 05:30:00","56882","1.9569999999999999","272.5","4.443","287.7","1022.375","24.13","53.67","78.71","0.0"],
    [1419298,"2026-07-04 05:40:00","56883","2.43","277.1","4.116","294.7","1022.4580000000001","24.26","52.35","98.5","0.0"],
    [1419299,"2026-07-04 05:50:00","56884","2.52","289.6","4.181","303.9","1022.4830000000001","24.34","52.39","111.2","0.0"],
    [1419300,"2026-07-04 06:00:00","56885","2.4419999999999997","296.0","4.312","287.5","1022.534","24.87","50.76","143.4","0.0"],
    [1419301,"2026-07-04 06:10:00","56886","2.912","299.1","4.475","292.1","1022.544","25.39","48.91","169.0","0.0"],
    [1419302,"2026-07-04 06:20:00","56887","3.072","304.4","4.247","302","1022.564","25.63","48.12","200.1","0.0"],
    [1419303,"2026-07-04 06:30:00","56888","2.866","308.7","4.083","301.6","1022.617","26.12","47.28","233.6","0.0"],
    [1419304,"2026-07-04 06:40:00","56889","2.318","308.4","3.985","304.5","1022.671","26.34","46.7","268.1","0.0"],
    [1419305,"2026-07-04 06:50:00","56890","2.206","305.0","3.561","309.4","1022.696","26.79","45.38","301.9","0.0"],
    [1419306,"2026-07-04 07:00:00","56891","2.214","306.2","3.789","305.2","1022.732","27.4","44.26","337.4","0.0"],
    [1419307,"2026-07-04 07:10:00","56892","3.137","314.2","5.031","316.8","1022.825","27.66","43.7","372.8","0.0"],
    [1419308,"2026-07-04 07:20:00","56893","2.459","304.4","4.214","295.1","1022.8939999999999","27.98","43.18","405.0","0.0"],
    [1419309,"2026-07-04 07:30:00","56894","2.425","313.6","4.279","317.1","1022.992","28.07","43.31","436.8","0.0"],
    [1419310,"2026-07-04 07:40:00","56895","1.4809999999999999","79.73","3.593","35.98","1023.0039999999999","28.03","49.6","467.3","0.0"],
    [1419311,"2026-07-04 07:50:00","56896","1.555","105.3","2.613","89.8","1023.005","27.97","48.35","497.6","0.0"],
    [1419312,"2026-07-04 08:00:00","56897","1.476","106.6","2.581","77.77","1023.01","28.18","46.23","529.6","0.0"],
    [1419313,"2026-07-04 08:10:00","56898","1.359","87.5","2.352","87.9","1022.956","28.52","45.24","560.0","0.0"],
    [1419314,"2026-07-04 08:20:00","56899","1.8659999999999999","94.2","3.103","89.3","1022.908","28.42","45.8","588.1","0.0"],
    [1419315,"2026-07-04 08:30:00","56900","1.811","99.9","3.985","125.5","1022.9169999999999","28.35","45.25","615.9","0.0"],
    [1419316,"2026-07-04 08:40:00","56901","2.123","95.4","3.626","88.4","1022.916","28.86","41.03","607.0","0.0"],
    [1419317,"2026-07-04 08:50:00","56902","2.289","97.7","3.136","111.8","1022.8919999999999","28.61","41.14","671.5","0.0"],
    [1419318,"2026-07-04 09:00:00","56903","2.322","101.2","3.659","104","1022.918","28.54","41.51","664.3","0.0"],
    [1419319,"2026-07-04 09:10:00","56904","2.12","105.4","3.561","92.9","1022.94","28.22","45.53","723.1","0.0"],
    [1419320,"2026-07-04 09:20:00","56905","1.77","106.2","3.005","92.9","1022.935","28.41","46.11","746.3","0.0"],
    [1419321,"2026-07-04 09:30:00","56906","2.2640000000000002","102.1","4.214","135.9","1022.971","28.52","44.86","770.0","0.0"],
    [1419322,"2026-07-04 09:40:00","56907","1.8119999999999998","103.0","2.777","143.6","1023.029","28.81","45.04","791.2","0.0"],
    [1419323,"2026-07-04 09:50:00","56908","2.008","98.9","3.201","106.3","1023.0239999999999","28.66","44.66","811.0","0.0"],
    [1419324,"2026-07-04 10:00:00","56909","1.994","109.0","3.299","92.8","1022.995","28.79","45.23","827.0","0.0"],
    [1419325,"2026-07-04 10:10:00","56910","1.409","114.7","3.267","109.3","1022.934","29.6","41.99","844.0","0.0"],
    [1419326,"2026-07-04 10:20:00","56911","0.7879999999999999","137.8","2.483","109.6","1022.95","30.41","41.06","856.0","0.0"],
    [1419327,"2026-07-04 10:30:00","56912","2.147","194.7","3.757","158","1022.8760000000001","30.06","40.6","877.0","0.0"],
    [1419328,"2026-07-04 10:40:00","56913","3.265","205.3","5.619","209","1022.826","29.32","49.01","892.0","0.0"],
    [1419329,"2026-07-04 10:50:00","56914","3.4219999999999997","188.4","5.847","175.2","1022.778","29.09","51.95","906.0","0.0"],
    [1419330,"2026-07-04 11:00:00","56915","3.363","193.9","5.227","186.9","1022.752","29.51","50.45","918.0","0.0"],
    [1419331,"2026-07-04 11:10:00","56916","3.593","203.1","5.325","170.8","1022.702","29.87","45.67","932.0","0.0"],
    [1419332,"2026-07-04 11:20:00","56917","3.48","204.8","5.749","215.7","1022.6210000000001","29.82","48.32","940.0","0.0"],
    [1419333,"2026-07-04 11:30:00","56918","4.1419999999999995","200.9","6.664","203.7","1022.523","29.48","54.45","948.0","0.0"],
    [1419334,"2026-07-04 11:40:00","56919","3.7889999999999997","193.3","7.285","176","1022.443","29.47","58.27","955.0","0.0"],
    [1419335,"2026-07-04 11:50:00","56920","5.037","199.8","8.07","215","1022.342","29.23","56.03","960.0","0.0"],
    [1419336,"2026-07-04 12:00:00","56921","4.852","210.0","8.1","203.4","1022.2639999999999","29.23","54.03","962.0","0.0"],
    [1419337,"2026-07-04 12:10:00","56922","3.951","198.8","10","212.1","1022.155","29.71","53.28","962.0","0.0"],
    [1419338,"2026-07-04 12:20:00","56923","3.5010000000000003","198.5","6.795","224.9","1022.1060000000001","29.79","52.59","960.0","0.0"],
    [1419339,"2026-07-04 12:30:00","56924","4.345","196.1","7.775","200.3","1022.007","29.35","52.94","958.0","0.0"],
    [1419340,"2026-07-04 12:40:00","56925","4.19","200.6","7.709","179.9","1021.878","29.83","51.4","953.0","0.0"],
    [1419341,"2026-07-04 12:50:00","56926","4.47","205.3","8.04","221.6","1021.823","29.98","49.56","946.0","0.0"],
    [1419342,"2026-07-04 13:00:00","56927","4.346","206.2","8.49","217.8","1021.742","30.21","48.41","938.0","0.0"],
    [1419343,"2026-07-04 13:10:00","56928","4.718","208.5","9.38","201.2","1021.622","30.19","50.22","929.0","0.0"],
    [1419344,"2026-07-04 13:20:00","56929","4.485","205.4","8.23","220.5","1021.529","30.28","51.25","917.0","0.0"],
    [1419345,"2026-07-04 13:30:00","56930","5.968999999999999","212.1","9.6","227.6","1021.4680000000001","29.98","50.0","905.0","0.0"],
    [1419346,"2026-07-04 13:40:00","56931","6.181","211.6","9.6","208.5","1021.422","29.92","49.87","892.0","0.0"],
    [1419347,"2026-07-04 13:50:00","56932","5.622999999999999","213.1","9.93","213.4","1021.4169999999999","29.81","50.23","875.0","0.0"],
    [1419348,"2026-07-04 14:00:00","56933","5.261","212.7","8.95","221","1021.38","30.18","46.97","859.0","0.0"],
    [1419349,"2026-07-04 14:10:00","56934","5.885","215.0","9.24","231.6","1021.32","30.46","45.15","842.0","0.0"],
    [1419350,"2026-07-04 14:20:00","56935","5.441","218.3","11.2","227.5","1021.21","30.19","46.53","823.0","0.0"],
    [1419351,"2026-07-04 14:30:00","56936","6.6339999999999995","217.2","10.91","218.5","1021.178","30.07","47.17","803.0","0.0"],
    [1419352,"2026-07-04 14:40:00","56937","5.235","217.3","9.44","224","1021.174","30.35","48.43","778.4","0.0"],
    [1419353,"2026-07-04 14:50:00","56938","5.579","219.8","10.29","224.3","1021.21","30.08","49.77","755.6","0.0"],
    [1419354,"2026-07-04 15:00:00","56939","5.757999999999999","216.3","11.04","198.7","1021.174","29.86","52.47","731.7","0.0"],
    [1419355,"2026-07-04 15:10:00","56940","6.335","222.3","9.77","210.4","1021.113","29.76","51.32","705.8","0.0"],
    [1419356,"2026-07-04 15:20:00","56941","5.664","215.6","9.77","216.9","1021.051","29.86","52.08","678.5","0.0"],
    [1419357,"2026-07-04 15:30:00","56942","6.605","217.9","9.47","210.5","1021.0039999999999","30.06","49.24","613.9","0.0"],
    [1419358,"2026-07-04 15:40:00","56943","6.223","221.4","9.11","217.6","1020.998","29.87","48.98","623.2","0.0"],
    [1419359,"2026-07-04 15:50:00","56944","6.042999999999999","222.0","9.51","208.4","1020.9839999999999","29.79","49.47","553.3","0.0"],
    [1419360,"2026-07-04 16:00:00","56945","6.316","219.9","9.31","224.4","1021.012","29.59","50.73","562.8","0.0"],
    [1419361,"2026-07-04 16:10:00","56946","5.718999999999999","217.8","8.72","214.5","1020.97","29.76","50.8","530.6","0.0"],
    [1419362,"2026-07-04 16:20:00","56947","6.034","217.4","9.18","209.7","1020.92","29.74","50.67","500.9","0.0"],
    [1419363,"2026-07-04 16:30:00","56948","4.806","215.3","7.84","211.3","1020.875","29.67","53.53","467.6","0.0"],
    [1419364,"2026-07-04 16:40:00","56949","5.547999999999999","218.2","8.1","214.6","1020.877","29.63","52.09","435.8","0.0"],
    [1419365,"2026-07-04 16:50:00","56950","5.037","221.8","7.905","230.8","1020.831","29.38","52.27","403.4","0.0"],
    [1419366,"2026-07-04 17:00:00","56951","5.805","217.2","9.02","221","1020.834","29.18","54.32","372.4","0.0"],
    [1419367,"2026-07-04 17:10:00","56952","4.961","218.3","8.04","221.6","1020.8480000000001","29.03","55.17","339.2","0.0"],
    [1419368,"2026-07-04 17:20:00","56953","5.308","219.7","8.53","209.2","1020.9","28.78","57.61","307.1","0.0"],
    [1419369,"2026-07-04 17:30:00","56954","5.345","223.0","8.46","228.1","1020.9630000000001","28.7","54.22","276.5","0.0"],
    [1419370,"2026-07-04 17:40:00","56955","5.2989999999999995","217.8","7.611","218.9","1021.038","28.96","52.22","245.3","0.0"],
    [1419371,"2026-07-04 17:50:00","56956","4.649","221.2","7.644","225.6","1021.046","28.65","55.16","217.3","0.0"],
    [1419372,"2026-07-04 18:00:00","56957","4.002","217.1","6.566","224.9","1021.055","28.83","51.71","187.9","0.0"],
    [1419373,"2026-07-04 18:10:00","56958","4.18","218.4","6.86","227.1","1021.11","28.59","55.25","160.3","0.0"],
    [1419374,"2026-07-04 18:20:00","56959","4.811","220.4","6.958","231.3","1021.1239999999999","28.41","52.15","133.8","0.0"],
    [1419375,"2026-07-04 18:30:00","56960","4.801","222.0","7.252","233.6","1021.1469999999999","28.5","49.51","110.0","0.0"],
    [1419376,"2026-07-04 18:40:00","56961","4.484","219.2","6.958","235.6","1021.179","28.26","51.96","87.8","0.0"],
    [1419377,"2026-07-04 18:50:00","56962","4.065","220.1","6.305","233.4","1021.24","28.12","52.22","66.52","0.0"],
    [1419378,"2026-07-04 19:00:00","56963","3.884","220.7","7.35","229.6","1021.329","27.8","55.45","46.47","0.0"],
    [1419379,"2026-07-04 19:10:00","56964","4.427","221.3","6.631","216.7","1021.3580000000001","27.72","52.35","27.36","0.0"],
    [1419380,"2026-07-04 19:20:00","56965","4.44","224.0","6.468","226","1021.355","27.65","51.58","12.59","0.0"],
    [1419381,"2026-07-04 19:30:00","56966","4.397","224.1","7.219","202.1","1021.365","27.58","50.3","3.5589999999999997","0.0"],
    [1419382,"2026-07-04 19:40:00","56967","4.5489999999999995","224.8","6.501","214","1021.403","27.48","50.94","-0.124","0.0"],
    [1419383,"2026-07-04 19:50:00","56968","4.013","225.1","6.076","219.2","1021.432","27.24","53.68","-1.795","0.0"],
    [1419384,"2026-07-04 20:00:00","56969","3.8930000000000002","227.1","5.717","229.8","1021.465","27.0","55.0","-2.588","0.0"],
    [1419385,"2026-07-04 20:10:00","56970","3.428","227.2","4.769","228.6","1021.5419999999999","26.96","55.3","-2.5989999999999998","0.0"],
    [1419386,"2026-07-04 20:20:00","56971","2.87","229.5","4.475","217.7","1021.6510000000001","26.94","53.93","-2.8369999999999997","0.0"],
    [1419387,"2026-07-04 20:30:00","56972","2.156","230.2","4.214","197.2","1021.7689999999999","27.04","51.66","-2.949","0.0"],
    [1419388,"2026-07-04 20:40:00","56973","1.666","233.4","2.875","225.4","1021.8560000000001","27.01","51.31","-3.298","0.0"],
    [1419389,"2026-07-04 20:50:00","56974","1.45","232.1","2.058","238.6","1021.923","26.97","50.68","-3.335","0.0"],
    [1419390,"2026-07-04 21:00:00","56975","1.665","233.5","2.94","228.6","1021.9810000000001","27.0","47.51","-3.341","0.0"],
    [1419391,"2026-07-04 21:10:00","56976","1.511","232.3","2.711","264.5","1021.997","27.05","45.5","-3.338","0.0"],
    [1419392,"2026-07-04 21:20:00","56977","1.444","230.5","2.548","210.8","1021.9810000000001","27.08","43.52","-3.343","0.0"],
    [1419393,"2026-07-04 21:30:00","56978","1.445","232.1","2.515","229.2","1021.944","27.1","42.36","-3.355","0.0"],
    [1419394,"2026-07-04 21:40:00","56979","1.236","235.0","1.797","238.8","1021.8639999999999","27.16","41.39","-3.35","0.0"],
    [1419395,"2026-07-04 21:50:00","56980","1.206","236.2","2.123","250.4","1021.8589999999999","27.05","41.65","-3.344","0.0"],
    [1419396,"2026-07-04 22:00:00","56981","1.18","237.6","1.731","250.7","1021.882","26.75","42.29","-3.344","0.0"],
    [1419397,"2026-07-04 22:10:00","56982","1.227","233.6","1.568","223.7","1021.883","26.67","42.27","-3.345","0.0"],
    [1419398,"2026-07-04 22:20:00","56983","0.662","243.1","1.143","237.4","1021.862","26.48","43.14","-3.332","0.0"],
    [1419399,"2026-07-04 22:30:00","56984","0.142","264.8","0.653","273.8","1021.8480000000001","25.85","45.28","-3.3739999999999997","0.0"],
    [1419400,"2026-07-04 22:40:00","56985","0.45899999999999996","256.2","1.176","266.3","1021.852","25.6","44.94","-3.365","0.0"],
    [1419401,"2026-07-04 22:50:00","56986","0.29","265.7","1.143","271.4","1021.809","25.83","43.98","-3.263","0.0"],
    [1419402,"2026-07-04 23:00:00","56987","0.33399999999999996","268.8","0.98","309.5","1021.788","25.78","43.84","-3.264","0.0"],
    [1419403,"2026-07-04 23:10:00","56988","0.634","264.2","1.307","266.1","1021.72","25.98","43.09","-3.259","0.0"],
    [1419404,"2026-07-04 23:20:00","56989","0.214","269.0","0.849","250.3","1021.6610000000001","25.7","44.37","-3.21","0.0"],
    [1419405,"2026-07-04 23:30:00","56990","0.608","271.6","1.372","271.6","1021.635","25.25","45.89","-3.343","0.0"],
    [1419406,"2026-07-04 23:40:00","56991","0.491","259.3","1.045","263.2","1021.564","25.15","45.72","-3.3569999999999998","0.0"],
    [1419407,"2026-07-04 23:50:00","56992","0.261","270.7","0.882","311.9","1021.507","25.39","45.35","-2.9010000000000002","0.0"],
    [1419408,"2026-07-05 00:00:00","56993","0.815","288.6","1.372","297.4","1021.43","24.98","46.73","-3.071","0.0"],
    [1419409,"2026-07-05 00:10:00","56994","0.738","281.1","1.372","263","1021.373","25.13","46.65","-3.1","0.0"],
    [1419410,"2026-07-05 00:20:00","56995","0.725","269.5","1.764","267.4","1021.2860000000001","25.25","46.75","-3.03","0.0"],
    [1419411,"2026-07-05 00:30:00","56996","0.649","261.6","1.633","228.1","1021.25","25.39","46.87","-3.167","0.0"],
    [1419412,"2026-07-05 00:40:00","56997","0.67","268.6","1.535","267.9","1021.198","25.28","47.43","-3.1830000000000003","0.0"],
    [1419413,"2026-07-05 00:50:00","56998","0.48200000000000004","257.0","1.176","282.1","1021.1560000000001","24.76","49.32","-3.3560000000000003","0.0"],
    [1419414,"2026-07-05 01:00:00","56999","0.7190000000000001","272.5","1.47","271.8","1021.0980000000001","24.83","49.41","-3.3789999999999996","0.0"],
    [1419415,"2026-07-05 01:10:00","57000","0.56","271.9","1.633","255.8","1021.054","24.84","49.76","-3.2089999999999996","0.0"],
    [1419416,"2026-07-05 01:20:00","57001","0.693","273.7","1.601","309.1","1021.0089999999999","24.38","51.37","-3.35","0.0"],
    [1419417,"2026-07-05 01:30:00","57002","0.591","265.7","1.437","269.9","1020.959","24.17","52.45","-3.386","0.0"],
    [1419418,"2026-07-05 01:40:00","57003","0.721","270.2","1.666","293","1020.9","24.67","51.51","-3.0380000000000003","0.0"],
    [1419419,"2026-07-05 01:50:00","57004","0.9359999999999999","256.3","2.025","255.2","1020.8380000000001","24.69","52.38","-3.2430000000000003","0.0"],
    [1419420,"2026-07-05 02:00:00","57005","0.93","273.6","2.091","275.3","1020.7669999999999","24.4","53.64","-3.273","0.0"],
    [1419421,"2026-07-05 02:10:00","57006","0.843","269.9","1.699","248.6","1020.743","24.03","55.58","-3.366","0.0"],
    [1419422,"2026-07-05 02:20:00","57007","1.063","263.7","2.123","278.4","1020.712","23.68","57.45","-3.378","0.0"],
    [1419423,"2026-07-05 02:30:00","57008","0.988","269.5","2.352","290.6","1020.655","23.9","57.22","-3.2230000000000003","0.0"],
    [1419424,"2026-07-05 02:40:00","57009","1.037","280.9","2.091","295.9","1020.592","23.66","58.6","-3.338","0.0"],
    [1419425,"2026-07-05 02:50:00","57010","0.873","275.6","2.025","273.1","1020.535","23.65","58.59","-3.1860000000000004","0.0"],
    [1419426,"2026-07-05 03:00:00","57011","0.9890000000000001","280.4","2.189","297.6","1020.48","23.65","58.43","-3.2039999999999997","0.0"],
    [1419427,"2026-07-05 03:10:00","57012","1.4180000000000001","282.6","2.907","275.3","1020.4889999999999","23.51","58.85","-3.345","0.0"],
    [1419428,"2026-07-05 03:20:00","57013","2.002","273.6","3.495","256.4","1020.475","24.09","56.29","-3.397","0.0"],
    [1419429,"2026-07-05 03:30:00","57014","1.8330000000000002","268.9","3.463","276.5","1020.45","24.4","54.87","-2.7439999999999998","0.0"],
    [1419430,"2026-07-05 03:40:00","57015","1.426","279.5","3.038","266.7","1020.48","24.1","55.76","-2.7030000000000003","0.0"],
    [1419431,"2026-07-05 03:50:00","57016","1.5530000000000002","281.8","2.548","294.5","1020.529","23.61","57.27","-3.092","0.0"],
    [1419432,"2026-07-05 04:00:00","57017","1.393","288.2","2.352","286.7","1020.566","23.24","58.64","-2.675","0.0"],
    [1419433,"2026-07-05 04:10:00","57018","1.018","276.9","1.568","273.6","1020.627","23.02","59.47","-2.595","0.0"],
    [1419434,"2026-07-05 04:20:00","57019","1.526","265.3","2.515","264","1020.6289999999999","23.48","57.82","-1.33","0.0"],
    [1419435,"2026-07-05 04:30:00","57020","0.841","292.8","2.221","268.6","1020.685","23.65","57.1","2.412","0.0"],
    [1419436,"2026-07-05 04:40:00","57021","2.0140000000000002","321.4","3.299","348.1","1020.717","23.9","55.62","7.937","0.0"],
    [1419437,"2026-07-05 04:50:00","57022","0.769","282.9","2.319","295.7","1020.7189999999999","24.43","53.68","22.35","0.0"],
    [1419438,"2026-07-05 05:00:00","57023","1.527","255.6","3.299","267.6","1020.7230000000001","24.39","53.84","37.15","0.0"],
    [1419439,"2026-07-05 05:10:00","57024","1.561","264.2","2.483","258.8","1020.707","24.25","54.44","52.47","0.0"],
    [1419440,"2026-07-05 05:20:00","57025","0.934","267.5","2.548","247.7","1020.747","24.15","54.85","65.96","0.0"],
    [1419441,"2026-07-05 05:30:00","57026","1.854","270.3","3.103","282.8","1020.793","24.29","54.39","81.5","0.0"],
    [1419442,"2026-07-05 05:40:00","57027","1.455","277.2","2.613","275.5","1020.905","24.55","53.69","100.5","0.0"],
    [1419443,"2026-07-05 05:50:00","57028","1.291","278.3","2.385","290.7","1020.992","24.89","52.86","113.2","0.0"],
    [1419444,"2026-07-05 06:00:00","57029","1.037","250.6","1.862","231.8","1021.052","25.26","51.82","144.8","0.0"],
    [1419445,"2026-07-05 06:10:00","57030","1.11","262.7","1.862","255.1","1021.077","25.57","51.25","172.4","0.0"],
    [1419446,"2026-07-05 06:20:00","57031","0.996","271.2","1.862","305.8","1021.1","25.88","50.55","203.2","0.0"],
    [1419447,"2026-07-05 06:30:00","57032","1.182","272.6","1.895","276.3","1021.173","26.1","49.82","236.8","0.0"],
    [1419448,"2026-07-05 06:40:00","57033","0.755","255.1","1.731","217.9","1021.178","26.84","48.33","270.0","0.0"],
    [1419449,"2026-07-05 06:50:00","57034","1.005","275.4","1.764","286.5","1021.1669999999999","27.32","46.64","306.0","0.0"],
    [1419450,"2026-07-05 07:00:00","57035","0.563","252.6","1.568","198.8","1021.159","28.23","44.42","339.5","0.0"],
    [1419451,"2026-07-05 07:10:00","57036","0.951","262.3","2.091","294.6","1021.1560000000001","28.51","43.67","375.4","0.0"],
    [1419452,"2026-07-05 07:20:00","57037","1.143","232.5","1.96","270.4","1021.122","28.98","42.33","408.3","0.0"],
    [1419453,"2026-07-05 07:30:00","57038","1.465","227.7","2.679","223.5","1021.078","29.35","41.13","442.2","0.0"],
    [1419454,"2026-07-05 07:40:00","57039","1.879","213.1","3.005","208.2","1021.053","29.29","41.29","475.0","0.0"],
    [1419455,"2026-07-05 07:50:00","57040","1.9609999999999999","233.8","3.495","221.7","1021.048","29.42","41.24","506.8","0.0"],
    [1419456,"2026-07-05 08:00:00","57041","1.557","237.1","3.332","222.1","1021.064","29.89","40.5","537.2","0.0"],
    [1419457,"2026-07-05 08:10:00","57042","1.6280000000000001","239.9","3.561","291.1","1021.047","30.51","39.51","565.7","0.0"],
    [1419458,"2026-07-05 08:20:00","57043","1.734","226.4","3.136","207.9","1021.01","31.04","37.86","595.1","0.0"],
    [1419459,"2026-07-05 08:30:00","57044","2.436","213.3","3.92","222","1020.944","30.85","43.53","625.8","0.0"],
    [1419460,"2026-07-05 08:40:00","57045","2.199","192.4","4.018","174.1","1020.934","30.64","48.34","618.3","0.0"],
    [1419461,"2026-07-05 08:50:00","57046","2.377","205.7","4.181","215.4","1020.8919999999999","30.57","50.44","684.5","0.0"],
    [1419462,"2026-07-05 09:00:00","57047","3.109","210.8","4.541","209.7","1020.8689999999999","29.95","51.32","678.4","0.0"],
    [1419463,"2026-07-05 09:10:00","57048","2.657","206.4","4.279","208.9","1020.775","30.42","48.09","736.7","0.0"],
    [1419464,"2026-07-05 09:20:00","57049","2.702","209.4","4.214","212.7","1020.763","30.85","44.84","759.5","0.0"],
    [1419465,"2026-07-05 09:30:00","57050","2.838","209.9","4.41","212.1","1020.722","30.97","43.18","783.1","0.0"],
    [1419466,"2026-07-05 09:40:00","57051","2.271","198.6","5.129","203.4","1020.7230000000001","31.13","41.12","806.0","0.0"],
    [1419467,"2026-07-05 09:50:00","57052","3.1660000000000004","211.0","5.292","234.7","1020.763","30.94","42.61","828.0","0.0"],
    [1419468,"2026-07-05 10:00:00","57053","2.31","204.4","4.704","182.6","1020.77","31.56","42.41","846.0","0.0"],
    [1419469,"2026-07-05 10:10:00","57054","2.781","198.1","5.423","182.4","1020.813","31.26","43.39","862.0","0.0"],
    [1419470,"2026-07-05 10:20:00","57055","3.139","184.9","5.945","197.4","1020.804","31.23","43.52","878.0","0.0"],
    [1419471,"2026-07-05 10:30:00","57056","3.1860000000000004","200.2","5.455","204.6","1020.798","31.08","48.05","893.0","0.0"],
    [1419472,"2026-07-05 10:40:00","57057","3.2030000000000003","201.3","5.455","210","1020.7260000000001","30.86","48.21","906.0","0.0"],
    [1419473,"2026-07-05 10:50:00","57058","4.125","207.4","6.174","222.7","1020.72","30.84","48.47","920.0","0.0"],
    [1419474,"2026-07-05 11:00:00","57059","3.417","207.6","6.272","233","1020.683","30.7","51.24","930.0","0.0"],
    [1419475,"2026-07-05 11:10:00","57060","3.378","205.1","6.468","222.5","1020.6489999999999","31.2","50.77","939.0","0.0"],
    [1419476,"2026-07-05 11:20:00","57061","4.013","209.8","6.991","222.1","1020.625","30.86","50.96","948.0","0.0"],
    [1419477,"2026-07-05 11:30:00","57062","4.393","210.2","7.285","220.3","1020.5239999999999","30.71","51.65","957.0","0.0"],
    [1419478,"2026-07-05 11:40:00","57063","4.249","211.6","6.795","212.8","1020.404","31.23","48.47","961.0","0.0"],
    [1419479,"2026-07-05 11:50:00","57064","4.963","213.6","7.056","223.4","1020.32","31.34","47.69","965.0","0.0"],
    [1419480,"2026-07-05 12:00:00","57065","3.668","209.2","6.762","212.6","1020.253","31.35","47.61","965.0","0.0"],
    [1419481,"2026-07-05 12:10:00","57066","3.5610000000000004","206.3","6.893","216.3","1020.21","31.95","44.69","965.0","0.0"],
    [1419482,"2026-07-05 12:20:00","57067","3.3089999999999997","201.7","6.141","213.4","1020.127","32.05","44.54","962.0","0.0"],
    [1419483,"2026-07-05 12:30:00","57068","4.873","212.5","7.807","205.5","1020.047","31.66","47.19","959.0","0.0"],
    [1419484,"2026-07-05 12:40:00","57069","4.399","207.5","7.513","203.9","1019.972","31.29","48.13","952.0","0.0"],
    [1419485,"2026-07-05 12:50:00","57070","5.66","217.5","8.17","220.3","1019.887","31.66","44.88","944.0","0.0"],
    [1419486,"2026-07-05 13:00:00","57071","5.444","217.1","8.04","228.9","1019.773","32.19","40.12","936.0","0.0"],
    [1419487,"2026-07-05 13:10:00","57072","3.782","207.6","7.448","214.1","1019.682","33.13","34.72","926.0","0.0"],
    [1419488,"2026-07-05 13:20:00","57073","4.137","207.3","7.187","208.9","1019.638","33.21","34.81","916.0","0.0"],
    [1419489,"2026-07-05 13:30:00","57074","3.628","206.3","6.925","210.1","1019.535","33.26","33.46","902.0","0.0"],
    [1419490,"2026-07-05 13:40:00","57075","3.9210000000000003","211.1","7.709","225.6","1019.472","33.22","34.51","890.0","0.0"],
    [1419491,"2026-07-05 13:50:00","57076","3.38","205.5","7.285","228.5","1019.414","33.3","35.68","873.0","0.0"],
    [1419492,"2026-07-05 14:00:00","57077","4.975","214.2","7.971","210.4","1019.385","32.58","40.41","858.0","0.0"],
    [1419493,"2026-07-05 14:10:00","57078","4.825","211.4","7.089","217.5","1019.342","32.27","42.46","840.0","0.0"],
    [1419494,"2026-07-05 14:20:00","57079","5.026","218.7","7.513","230.2","1019.28","32.1","44.48","821.0","0.0"],
    [1419495,"2026-07-05 14:30:00","57080","4.8260000000000005","210.8","6.991","212.3","1019.19","32.03","44.96","799.6","0.0"],
    [1419496,"2026-07-05 14:40:00","57081","5.325","213.5","7.546","213.6","1019.11","31.62","44.79","778.4","0.0"],
    [1419497,"2026-07-05 14:50:00","57082","5.486000000000001","215.0","7.807","213.1","1019.0369999999999","31.79","43.43","755.4","0.0"],
    [1419498,"2026-07-05 15:00:00","57083","3.2760000000000002","205.2","6.174","223.9","1018.943","32.22","44.88","730.7","0.0"],
    [1419499,"2026-07-05 15:10:00","57084","2.909","204.7","5.553","233.8","1018.916","32.4","45.9","703.7","0.0"],
    [1419500,"2026-07-05 15:20:00","57085","3.412","203.8","6.37","200.1","1018.87","32.02","46.95","677.5","0.0"],
    [1419501,"2026-07-05 15:30:00","57086","3.923","201.7","6.991","207.9","1018.817","31.34","50.67","612.2","0.0"],
    [1419502,"2026-07-05 15:40:00","57087","4.19","206.3","7.252","219.8","1018.775","30.79","53.24","621.3","0.0"],
    [1419503,"2026-07-05 15:50:00","57088","5.013999999999999","213.5","8.26","222.9","1018.695","30.22","57.53","554.4","0.0"],
    [1419504,"2026-07-05 16:00:00","57089","4.013999999999999","206.6","6.403","211.5","1018.628","30.22","59.0","560.7","0.0"],
    [1419505,"2026-07-05 16:10:00","57090","5.055","213.5","7.611","207.8","1018.552","29.85","59.9","531.2","0.0"],
    [1419506,"2026-07-05 16:20:00","57091","4.301","212.2","7.383","229.8","1018.453","29.93","59.74","498.3","0.0"],
    [1419507,"2026-07-05 16:30:00","57092","4.2410000000000005","212.2","6.86","235.7","1018.3810000000001","29.96","61.29","467.1","0.0"],
    [1419508,"2026-07-05 16:40:00","57093","3.4939999999999998","212.4","6.501","219.5","1018.3589999999999","30.05","61.5","434.6","0.0"],
    [1419509,"2026-07-05 16:50:00","57094","4.81","214.4","7.481","227.5","1018.291","29.43","62.38","403.6","0.0"],
    [1419510,"2026-07-05 17:00:00","57095","4.178","209.7","7.905","229.5","1018.252","29.45","61.95","370.7","0.0"],
    [1419511,"2026-07-05 17:10:00","57096","4.581","216.2","7.644","224.9","1018.2260000000001","29.24","62.71","337.8","0.0"],
    [1419512,"2026-07-05 17:20:00","57097","4.26","214.2","6.403","214.6","1018.237","29.02","63.46","305.9","0.0"],
    [1419513,"2026-07-05 17:30:00","57098","3.545","215.0","8.1","225.7","1018.2410000000001","28.93","64.7","273.2","0.0"],
    [1419514,"2026-07-05 17:40:00","57099","4.246","218.6","7.121","219","1018.273","28.66","66.1","243.4","0.0"],
    [1419515,"2026-07-05 17:50:00","57100","4.0089999999999995","213.8","5.815","207.6","1018.2589999999999","28.46","67.27","212.5","0.0"],
    [1419516,"2026-07-05 18:00:00","57101","3.5260000000000002","210.9","6.925","210.5","1018.337","28.41","67.64","183.3","0.0"],
    [1419517,"2026-07-05 18:10:00","57102","2.439","204.5","4.606","220.9","1018.429","28.34","68.85","155.0","0.0"],
    [1419518,"2026-07-05 18:20:00","57103","2.45","191.5","4.998","218.6","1018.4760000000001","27.81","73.38","128.8","0.0"],
    [1419519,"2026-07-05 18:30:00","57104","2.335","202.9","4.214","214.3","1018.485","27.39","76.27","103.2","0.0"],
    [1419520,"2026-07-05 18:40:00","57105","3.2769999999999997","211.1","6.795","195.3","1018.552","27.08","76.47","80.4","0.0"],
    [1419521,"2026-07-05 18:50:00","57106","4.123","219.3","6.86","235.4","1018.5369999999999","27.2","74.86","60.12","0.0"],
    [1419522,"2026-07-05 19:00:00","57107","4.12","221.5","6.403","236.7","1018.534","27.05","74.94","40.58","0.0"],
    [1419523,"2026-07-05 19:10:00","57108","3.353","216.1","5.488","197.4","1018.557","27.13","72.55","21.21","0.0"],
    [1419524,"2026-07-05 19:20:00","57109","2.9939999999999998","215.5","4.933","219.1","1018.587","27.05","72.01","8.56","0.0"],
    [1419525,"2026-07-05 19:30:00","57110","2.8280000000000003","218.7","4.312","224.2","1018.6469999999999","27.1","70.38","2.037","0.0"],
    [1419526,"2026-07-05 19:40:00","57111","3.0989999999999998","222.0","4.704","206.4","1018.66","27.02","69.17","-1.158","0.0"],
    [1419527,"2026-07-05 19:50:00","57112","3.5060000000000002","226.0","5.684","226","1018.6339999999999","27.25","63.96","-2.614","0.0"],
    [1419528,"2026-07-05 20:00:00","57113","2.975","227.0","4.475","225.8","1018.721","27.28","62.95","-2.6289999999999996","0.0"],
    [1419529,"2026-07-05 20:10:00","57114","2.9130000000000003","226.9","4.345","236","1018.794","27.25","61.07","-3.1069999999999998","0.0"],
    [1419530,"2026-07-05 20:20:00","57115","2.185","230.4","3.789","217.9","1018.8910000000001","27.11","62.12","-2.946","0.0"],
    [1419531,"2026-07-05 20:30:00","57116","1.8090000000000002","228.6","2.875","216.3","1019.0319999999999","26.97","62.07","-3.325","0.0"],
    [1419532,"2026-07-05 20:40:00","57117","1.706","232.2","2.744","238.1","1019.0980000000001","26.9","62.49","-3.333","0.0"],
    [1419533,"2026-07-05 20:50:00","57118","1.78","233.5","2.907","263.9","1019.153","26.89","61.34","-3.342","0.0"],
    [1419534,"2026-07-05 21:00:00","57119","1.72","234.0","3.332","214.8","1019.25","27.1","57.27","-3.34","0.0"],
    [1419535,"2026-07-05 21:10:00","57120","1.65","232.8","2.973","246.6","1019.327","27.1","57.66","-3.32","0.0"],
    [1419536,"2026-07-05 21:20:00","57121","1.88","224.2","3.005","213.5","1019.313","26.8","61.28","-3.2310000000000003","0.0"],
    [1419537,"2026-07-05 21:30:00","57122","2.463","223.6","3.463","226.4","1019.2719999999999","26.66","62.86","-3.056","0.0"],
    [1419538,"2026-07-05 21:40:00","57123","1.986","218.6","2.973","231.7","1019.273","26.7","62.4","-3.26","0.0"],
    [1419539,"2026-07-05 21:50:00","57124","2.374","225.1","3.071","207.8","1019.238","26.71","59.65","-3.341","0.0"],
    [1419540,"2026-07-05 22:00:00","57125","1.9869999999999999","221.2","3.103","224.7","1019.235","26.8","58.55","-3.236","0.0"],
    [1419541,"2026-07-05 22:10:00","57126","1.276","221.4","1.993","217.1","1019.2239999999999","26.58","59.84","-3.3289999999999997","0.0"],
    [1419542,"2026-07-05 22:20:00","57127","1.128","239.7","2.254","236.9","1019.237","26.29","58.86","-3.347","0.0"],
    [1419543,"2026-07-05 22:30:00","57128","0.98","230.6","1.666","225.9","1019.2330000000001","26.23","57.67","-3.343","0.0"],
    [1419544,"2026-07-05 22:40:00","57129","1.36","228.7","1.731","224.2","1019.177","26.31","56.5","-3.335","0.0"],
    [1419545,"2026-07-05 22:50:00","57130","0.685","206.5","1.601","233.7","1019.14","26.37","56.02","-3.199","0.0"],
    [1419546,"2026-07-05 23:00:00","57131","0.395","196.2","1.078","172.6","1019.1239999999999","26.4","56.25","-3.343","0.0"],
    [1419547,"2026-07-05 23:10:00","57132","0.738","217.3","1.503","246.1","1019.056","26.16","57.28","-3.3360000000000003","0.0"],
    [1419548,"2026-07-05 23:20:00","57133","1.1540000000000001","247.9","1.895","260.1","1019.0089999999999","26.26","52.94","-3.31","0.0"],
    [1419549,"2026-07-05 23:30:00","57134","1.197","263.6","2.156","266.1","1018.96","26.66","43.24","-3.234","0.0"],
    [1419550,"2026-07-05 23:40:00","57135","1.179","263.6","2.483","293","1018.8939999999999","26.59","38.88","-3.1630000000000003","0.0"],
    [1419551,"2026-07-05 23:50:00","57136","1.3880000000000001","270.5","2.45","271.1","1018.798","26.4","37.97","-3.3280000000000003","0.0"],
    [1419552,"2026-07-06 00:00:00","57137","1.445","273.0","2.809","256.1","1018.7239999999999","26.3","37.91","-3.2310000000000003","0.0"],
    [1419553,"2026-07-06 00:10:00","57138","1.357","280.0","2.94","285","1018.638","26.11","37.82","-3.278","0.0"],
    [1419554,"2026-07-06 00:20:00","57139","0.968","269.4","2.45","288.4","1018.546","25.94","38.1","-3.063","0.0"],
    [1419555,"2026-07-06 00:30:00","57140","0.9159999999999999","254.0","1.601","238","1018.487","25.83","38.6","-3.2260000000000004","0.0"],
    [1419556,"2026-07-06 00:40:00","57141","0.626","259.8","1.535","253.2","1018.51","25.69","39.27","-3.1910000000000003","0.0"],
    [1419557,"2026-07-06 00:50:00","57142","0.8590000000000001","263.1","1.503","260","1018.513","25.62","39.58","-3.28","0.0"],
    [1419558,"2026-07-06 01:00:00","57143","0.306","289.6","1.078","317.7","1018.4989999999999","25.36","40.6","-3.028","0.0"],
    [1419559,"2026-07-06 01:10:00","57144","0.499","247.7","0.915","229.2","1018.4639999999999","25.22","40.42","-3.056","0.0"],
    [1419560,"2026-07-06 01:20:00","57145","0.39299999999999996","248.6","0.882","252.7","1018.427","25.43","40.37","-2.6069999999999998","0.0"],
    [1419561,"2026-07-06 01:30:00","57146","0.847","236.5","1.274","228.9","1018.388","25.7","38.97","-2.596","0.0"],
    [1419562,"2026-07-06 01:40:00","57147","0.8009999999999999","219.9","1.176","231.3","1018.365","25.85","39.32","-2.597","0.0"],
    [1419563,"2026-07-06 01:50:00","57148","1.3030000000000002","239.5","1.797","249.6","1018.3760000000001","25.65","39.82","-2.642","0.0"],
    [1419564,"2026-07-06 02:00:00","57149","1.033","253.2","1.764","227.8","1018.375","25.35","41.6","-2.6319999999999997","0.0"],
    [1419565,"2026-07-06 02:10:00","57150","1.505","265.0","2.711","277.1","1018.289","25.05","42.88","-3.02","0.0"],
    [1419566,"2026-07-06 02:20:00","57151","1.338","272.4","2.744","283.8","1018.202","24.93","43.2","-2.667","0.0"],
    [1419567,"2026-07-06 02:30:00","57152","1.8219999999999998","270.2","3.071","266.7","1018.123","24.76","43.45","-2.6919999999999997","0.0"],
    [1419568,"2026-07-06 02:40:00","57153","1.829","275.1","3.332","268.7","1018.069","24.63","43.38","-2.5989999999999998","0.0"],
    [1419569,"2026-07-06 02:50:00","57154","1.319","278.4","3.005","298.8","1018.051","24.45","43.6","-2.7260000000000004","0.0"],
    [1419570,"2026-07-06 03:00:00","57155","1.251","272.5","2.417","264.1","1018.02","24.63","42.7","-3.062","0.0"],
    [1419571,"2026-07-06 03:10:00","57156","1.5219999999999998","266.9","2.679","244.6","1017.937","24.99","41.22","-3.142","0.0"],
    [1419572,"2026-07-06 03:20:00","57157","1.3030000000000002","272.1","3.071","254","1017.905","25.15","40.41","-2.7569999999999997","0.0"],
    [1419573,"2026-07-06 03:30:00","57158","1.786","279.5","3.724","288.9","1017.882","24.91","40.78","-3.054","0.0"],
    [1419574,"2026-07-06 03:40:00","57159","1.777","272.7","3.071","296.2","1017.8760000000001","24.91","40.7","-3.025","0.0"],
    [1419575,"2026-07-06 03:50:00","57160","1.756","278.6","3.43","276.9","1017.847","24.8","40.89","-2.951","0.0"],
    [1419576,"2026-07-06 04:00:00","57161","1.4880000000000002","277.3","3.169","277","1017.836","24.78","40.64","-2.875","0.0"],
    [1419577,"2026-07-06 04:10:00","57162","1.369","265.5","2.777","260.7","1017.8710000000001","24.79","40.68","-2.636","0.0"],
    [1419578,"2026-07-06 04:20:00","57163","1.288","270.3","2.842","280.7","1017.88","24.79","40.72","-1.2790000000000001","0.0"],
    [1419579,"2026-07-06 04:30:00","57164","1.429","262.4","2.646","280.7","1017.8969999999999","24.65","40.98","1.661","0.0"],
    [1419580,"2026-07-06 04:40:00","57165","1.207","264.7","2.221","270.4","1017.934","24.58","41.21","7.497999999999999","0.0"],
    [1419581,"2026-07-06 04:50:00","57166","1.629","266.7","2.646","252.4","1017.98","24.69","40.9","20.32","0.0"],
    [1419582,"2026-07-06 05:00:00","57167","1.216","271.8","2.385","267.2","1017.987","24.79","40.32","33.83","0.0"],
    [1419583,"2026-07-06 05:10:00","57168","1.089","268.9","2.352","293.1","1018.0189999999999","24.96","39.98","49.13","0.0"],
    [1419584,"2026-07-06 05:20:00","57169","1.0490000000000002","267.7","1.927","261.2","1018.052","25.3","39.2","62.3","0.0"],
    [1419585,"2026-07-06 05:30:00","57170","1.51","260.0","2.581","249.3","1018.113","25.5","38.96","77.87","0.0"],
    [1419586,"2026-07-06 05:40:00","57171","1.8430000000000002","256.0","2.907","243.8","1018.1560000000001","25.48","39.18","95.4","0.0"],
    [1419587,"2026-07-06 05:50:00","57172","1.686","261.7","3.038","270.9","1018.1610000000001","25.48","39.41","110.1","0.0"],
    [1419588,"2026-07-06 06:00:00","57173","1.4569999999999999","269.8","2.875","287.3","1018.158","25.69","39.25","141.2","0.0"],
    [1419589,"2026-07-06 06:10:00","57174","1.649","293.6","2.94","291.7","1018.211","26.26","38.0","168.9","0.0"],
    [1419590,"2026-07-06 06:20:00","57175","1.626","291.1","2.613","282","1018.308","27.0","36.09","197.8","0.0"],
    [1419591,"2026-07-06 06:30:00","57176","1.453","273.5","2.319","283","1018.3710000000001","27.37","35.23","228.9","0.0"],
    [1419592,"2026-07-06 06:40:00","57177","1.4040000000000001","270.5","2.352","277.6","1018.3889999999999","27.66","34.94","261.0","0.0"],
    [1419593,"2026-07-06 06:50:00","57178","1.4469999999999998","270.6","2.254","293.8","1018.41","27.81","35.22","296.0","0.0"],
    [1419594,"2026-07-06 07:00:00","57179","1.382","280.8","2.058","289.9","1018.492","28.13","34.71","331.1","0.0"],
    [1419595,"2026-07-06 07:10:00","57180","1.476","229.3","2.94","211.5","1018.558","28.67","33.91","363.6","0.0"],
    [1419596,"2026-07-06 07:20:00","57181","1.9469999999999998","224.5","3.201","216.9","1018.563","28.87","33.52","395.7","0.0"],
    [1419597,"2026-07-06 07:30:00","57182","1.901","227.3","3.201","206.5","1018.568","28.89","33.6","427.0","0.0"],
    [1419598,"2026-07-06 07:40:00","57183","2.008","237.2","3.397","210.8","1018.56","29.11","33.44","457.4","0.0"],
    [1419599,"2026-07-06 07:50:00","57184","2.077","239.4","3.822","252.1","1018.54","29.59","31.9","491.7","0.0"],
    [1419600,"2026-07-06 08:00:00","57185","1.375","253.8","3.397","276.2","1018.534","30.45","30.82","521.1","0.0"],
    [1419601,"2026-07-06 08:10:00","57186","2.214","221.0","3.659","210.7","1018.4830000000001","30.41","41.19","553.7","0.0"],
    [1419602,"2026-07-06 08:20:00","57187","2.278","201.3","4.116","216.9","1018.431","29.83","48.74","581.5","0.0"],
    [1419603,"2026-07-06 08:30:00","57188","2.611","209.7","4.247","175","1018.4110000000001","29.85","47.88","611.5","0.0"],
    [1419604,"2026-07-06 08:40:00","57189","2.867","196.0","4.508","213.2","1018.453","29.66","50.38","606.6","0.0"],
    [1419605,"2026-07-06 08:50:00","57190","2.451","203.2","4.704","215.7","1018.5169999999999","29.69","52.48","666.6","0.0"],
    [1419606,"2026-07-06 09:00:00","57191","2.94","183.6","4.704","180.7","1018.546","29.44","53.81","664.3","0.0"],
    [1419607,"2026-07-06 09:10:00","57192","2.444","193.0","4.247","182.4","1018.5360000000001","29.55","55.49","725.2","0.0"],
    [1419608,"2026-07-06 09:20:00","57193","2.3280000000000003","194.5","4.573","174.8","1018.55","30.04","55.91","747.2","0.0"],
    [1419609,"2026-07-06 09:30:00","57194","2.544","202.7","4.933","222.5","1018.5089999999999","29.9","58.27","770.0","0.0"],
    [1419610,"2026-07-06 09:40:00","57195","3.051","196.9","5.488","211","1018.462","29.49","59.44","789.8","0.0"],
    [1419611,"2026-07-06 09:50:00","57196","3.305","205.1","5.129","214.4","1018.443","29.47","59.08","813.0","0.0"],
    [1419612,"2026-07-06 10:00:00","57197","2.9730000000000003","193.0","5.161","177.4","1018.4630000000001","29.53","60.27","826.0","0.0"],
    [1419613,"2026-07-06 10:10:00","57198","2.741","193.6","4.443","182.7","1018.4910000000001","29.92","60.83","839.0","0.0"],
    [1419614,"2026-07-06 10:20:00","57199","3.39","192.5","5.717","175.7","1018.533","29.45","63.49","855.0","0.0"],
    [1419615,"2026-07-06 10:30:00","57200","3.4210000000000003","190.2","6.109","177.8","1018.5210000000001","29.31","65.48","869.0","0.0"],
    [1419616,"2026-07-06 10:40:00","57201","3.286","195.6","6.174","177.8","1018.492","28.83","68.28","881.0","0.0"],
    [1419617,"2026-07-06 10:50:00","57202","3.545","203.5","6.043","204.3","1018.466","29.01","68.35","891.0","0.0"],
    [1419618,"2026-07-06 11:00:00","57203","3.846","189.5","6.599","177.1","1018.423","28.87","69.39","902.0","0.0"],
    [1419619,"2026-07-06 11:10:00","57204","3.8960000000000004","193.6","6.631","178.1","1018.357","29.0","69.14","912.0","0.0"],
    [1419620,"2026-07-06 11:20:00","57205","2.822","195.2","5.031","214.5","1018.326","29.32","68.25","917.0","0.0"],
    [1419621,"2026-07-06 11:30:00","57206","3.972","197.2","7.023","179.8","1018.2669999999999","29.15","68.14","929.0","0.0"],
    [1419622,"2026-07-06 11:40:00","57207","3.4","193.6","5.978","171.5","1018.2460000000001","29.61","66.81","933.0","0.0"],
    [1419623,"2026-07-06 11:50:00","57208","3.424","189.3","5.749","180.7","1018.189","29.32","67.91","937.0","0.0"],
    [1419624,"2026-07-06 12:00:00","57209","3.377","202.5","6.566","223.6","1018.1080000000001","29.82","66.72","938.0","0.0"],
    [1419625,"2026-07-06 12:10:00","57210","4.289","197.5","7.873","182.4","1017.9889999999999","29.88","66.33","940.0","0.0"],
    [1419626,"2026-07-06 12:20:00","57211","5.069","183.8","7.84","183","1017.908","28.92","69.4","938.0","0.0"],
    [1419627,"2026-07-06 12:30:00","57212","4.545","199.9","7.285","170.6","1017.8560000000001","29.12","69.25","935.0","0.0"],
    [1419628,"2026-07-06 12:40:00","57213","3.8760000000000003","195.9","6.501","172.1","1017.8","29.66","67.34","928.0","0.0"],
    [1419629,"2026-07-06 12:50:00","57214","4.569","198.7","6.697","227.6","1017.796","29.56","67.34","919.0","0.0"],
    [1419630,"2026-07-06 13:00:00","57215","4.2780000000000005","197.9","7.187","172.5","1017.789","29.71","67.32","910.0","0.0"],
    [1419631,"2026-07-06 13:10:00","57216","3.69","193.9","6.305","220.5","1017.797","29.35","68.43","903.0","0.0"],
    [1419632,"2026-07-06 13:20:00","57217","3.87","192.8","6.762","190.3","1017.7339999999999","29.32","68.39","891.0","0.0"],
    [1419633,"2026-07-06 13:30:00","57218","3.647","198.8","6.664","218.8","1017.658","29.67","67.4","880.0","0.0"],
    [1419634,"2026-07-06 13:40:00","57219","4.192","206.8","6.958","212.9","1017.664","29.57","67.69","868.0","0.0"],
    [1419635,"2026-07-06 13:50:00","57220","4.093999999999999","210.9","6.958","207.8","1017.617","29.72","67.52","851.0","0.0"],
    [1419636,"2026-07-06 14:00:00","57221","4.03","192.5","6.533","162","1017.573","29.93","67.14","838.0","0.0"],
    [1419637,"2026-07-06 14:10:00","57222","3.951","211.1","6.207","214.8","1017.512","29.76","67.51","823.0","0.0"],
    [1419638,"2026-07-06 14:20:00","57223","4.114","201.8","7.481","219.3","1017.447","29.75","67.42","803.0","0.0"],
    [1419639,"2026-07-06 14:30:00","57224","3.9610000000000003","199.4","6.468","223.3","1017.3610000000001","29.73","68.18","778.7","0.0"],
    [1419640,"2026-07-06 14:40:00","57225","3.406","203.7","6.631","229.2","1017.32","29.99","67.91","757.9","0.0"],
    [1419641,"2026-07-06 14:50:00","57226","4.071000000000001","201.0","7.219","175.3","1017.268","29.94","68.44","738.3","0.0"],
    [1419642,"2026-07-06 15:00:00","57227","4.208","203.5","7.905","223","1017.1619999999999","29.63","69.9","714.6","0.0"],
    [1419643,"2026-07-06 15:10:00","57228","3.9419999999999997","201.9","7.35","225","1017.041","29.57","70.68","691.1","0.0"],
    [1419644,"2026-07-06 15:20:00","57229","4.04","206.9","7.023","203.7","1016.938","29.78","69.97","666.6","0.0"],
    [1419645,"2026-07-06 15:30:00","57230","4.127","211.0","6.533","219.4","1016.845","29.59","70.71","604.6","0.0"],
    [1419646,"2026-07-06 15:40:00","57231","3.1910000000000003","201.3","6.239","211.1","1016.7639999999999","29.64","70.96","609.3","0.0"],
    [1419647,"2026-07-06 15:50:00","57232","3.053","197.6","5.325","199.4","1016.742","29.8","70.76","544.1","0.0"],
    [1419648,"2026-07-06 16:00:00","57233","3.674","189.3","5.717","186.1","1016.7080000000001","29.17","73.16","552.1","0.0"],
    [1419649,"2026-07-06 16:10:00","57234","3.13","192.7","6.109","190.9","1016.663","29.25","73.72","520.4","0.0"],
    [1419650,"2026-07-06 16:20:00","57235","4.331","183.8","7.481","190","1016.572","28.77","75.62","487.8","0.0"],
    [1419651,"2026-07-06 16:30:00","57236","3.534","190.0","5.978","179.7","1016.5369999999999","28.73","76.25","455.6","0.0"],
    [1419652,"2026-07-06 16:40:00","57237","3.114","200.0","5.292","216.1","1016.535","28.99","74.75","424.1","0.0"],
    [1419653,"2026-07-06 16:50:00","57238","3.3510000000000004","189.7","5.194","178.6","1016.5219999999999","28.55","76.29","392.8","0.0"],
    [1419654,"2026-07-06 17:00:00","57239","2.991","185.5","5.031","173.1","1016.4830000000001","28.46","76.93","362.2","0.0"],
    [1419655,"2026-07-06 17:10:00","57240","3.5780000000000003","183.6","6.468","180.7","1016.5","28.04","78.52","329.2","0.0"],
    [1419656,"2026-07-06 17:20:00","57241","2.499","193.4","4.41","235.4","1016.4860000000001","28.31","77.89","292.0","0.0"],
    [1419657,"2026-07-06 17:30:00","57242","2.46","204.0","4.41","222.6","1016.5219999999999","28.33","77.28","262.3","0.0"],
    [1419658,"2026-07-06 17:40:00","57243","2.0980000000000003","183.5","3.659","204.7","1016.577","28.12","78.71","228.0","0.0"],
    [1419659,"2026-07-06 17:50:00","57244","2.28","188.5","3.985","236.7","1016.5830000000001","27.71","80.7","195.1","0.0"],
    [1419660,"2026-07-06 18:00:00","57245","2.553","185.3","4.802","188.9","1016.591","27.67","80.8","168.8","0.0"],
    [1419661,"2026-07-06 18:10:00","57246","2.38","182.3","4.541","225.9","1016.605","27.49","81.7","126.5","0.0"],
    [1419662,"2026-07-06 18:20:00","57247","2.419","181.4","5.031","188.1","1016.592","27.45","81.7","97.4","0.0"],
    [1419663,"2026-07-06 18:30:00","57248","2.351","165.9","4.247","177.1","1016.6080000000001","27.15","82.8","77.63","0.0"],
    [1419664,"2026-07-06 18:40:00","57249","1.798","178.2","5.129","181.1","1016.686","27.21","80.5","56.8","0.0"],
    [1419665,"2026-07-06 18:50:00","57250","1.5830000000000002","180.1","3.365","170.2","1016.7669999999999","27.16","77.15","41.12","0.0"],
    [1419666,"2026-07-06 19:00:00","57251","1.8430000000000002","174.2","3.463","192.1","1016.802","27.2","76.06","25.89","0.0"],
    [1419667,"2026-07-06 19:10:00","57252","1.107","169.1","2.483","201","1016.7919999999999","27.18","75.89","20.62","0.0"],
    [1419668,"2026-07-06 19:20:00","57253","1.499","174.2","3.038","185.9","1016.794","27.14","76.09","8.38","0.0"],
    [1419669,"2026-07-06 19:30:00","57254","1.844","186.3","4.018","187.2","1016.798","26.96","75.72","1.514","0.0"],
    [1419670,"2026-07-06 19:40:00","57255","1.964","184.2","3.103","180.4","1016.8689999999999","26.91","76.24","-1.435","0.0"],
    [1419671,"2026-07-06 19:50:00","57256","1.8619999999999999","194.9","4.671","196.1","1016.947","26.76","77.36","-2.912","0.0"],
    [1419672,"2026-07-06 20:00:00","57257","2.551","184.2","3.887","185.7","1016.997","26.73","77.24","-3.0980000000000003","0.0"],
    [1419673,"2026-07-06 20:10:00","57258","1.382","200.5","3.234","208.6","1017.07","26.66","76.92","-3.2939999999999996","0.0"],
    [1419674,"2026-07-06 20:20:00","57259","1.268","208.8","3.757","194.5","1017.273","26.49","78.29","-3.505","0.0"],
    [1419675,"2026-07-06 20:30:00","57260","1.848","222.3","3.071","189.1","1017.3639999999999","26.53","77.62","-3.21","0.0"],
    [1419676,"2026-07-06 20:40:00","57261","1.78","214.3","2.973","231.5","1017.444","26.4","79.19","-3.327","0.0"],
    [1419677,"2026-07-06 20:50:00","57262","1.841","214.0","2.777","193.9","1017.55","26.34","79.33","-3.305","0.0"],
    [1419678,"2026-07-06 21:00:00","57263","1.69","209.2","3.169","205.5","1017.5219999999999","26.41","79.8","-3.326","0.0"],
    [1419679,"2026-07-06 21:10:00","57264","0.732","200.1","1.731","219.1","1017.535","26.22","82.0","-3.324","0.0"],
    [1419680,"2026-07-06 21:20:00","57265","0.972","208.3","1.895","208.1","1017.547","25.98","84.9","-3.3819999999999997","0.0"],
    [1419681,"2026-07-06 21:30:00","57266","1.022","212.7","2.385","202.2","1017.5830000000001","25.79","84.6","-3.495","0.0"],
    [1419682,"2026-07-06 21:40:00","57267","1.776","217.4","2.515","239.4","1017.57","25.84","84.4","-3.345","0.0"],
    [1419683,"2026-07-06 21:50:00","57268","1.834","218.7","2.483","223.9","1017.565","25.55","86.1","-3.557","0.0"],
    [1419684,"2026-07-06 22:00:00","57269","1.714","217.5","2.515","208.7","1017.498","24.86","89.2","-3.7680000000000002","0.0"],
    [1419685,"2026-07-06 22:10:00","57270","1.4880000000000002","227.4","2.45","237.5","1017.5239999999999","24.4","90.0","-4.073","0.0"],
    [1419686,"2026-07-06 22:20:00","57271","1.359","228.5","2.515","233.6","1017.586","24.27","90.2","-3.5980000000000003","0.0"],
    [1419687,"2026-07-06 22:30:00","57272","1.4469999999999998","239.8","2.156","228.8","1017.595","24.34","89.7","-3.345","0.0"],
    [1419688,"2026-07-06 22:40:00","57273","1.5659999999999998","230.5","2.319","224.8","1017.5830000000001","24.97","85.9","-3.345","0.0"],
    [1419689,"2026-07-06 22:50:00","57274","1.294","215.7","2.091","203.4","1017.623","25.12","85.1","-3.33","0.0"],
    [1419690,"2026-07-06 23:00:00","57275","1.6980000000000002","218.2","2.483","210.5","1017.67","25.11","84.5","-3.347","0.0"],
    [1419691,"2026-07-06 23:10:00","57276","1.473","224.1","2.189","198.9","1017.6419999999999","25.16","82.8","-3.333","0.0"],
    [1419692,"2026-07-06 23:20:00","57277","1.6059999999999999","209.7","2.548","211.9","1017.6469999999999","25.26","82.0","-2.853","0.0"],
    [1419693,"2026-07-06 23:30:00","57278","1.2819999999999998","212.1","2.221","217.2","1017.668","25.18","82.2","-3.055","0.0"],
    [1419694,"2026-07-06 23:40:00","57279","1.923","221.5","2.515","226.2","1017.663","25.18","81.8","-3.313","0.0"],
    [1419695,"2026-07-06 23:50:00","57280","1.879","229.1","2.417","229.6","1017.5930000000001","25.03","81.5","-2.9739999999999998","0.0"],
    [1419696,"2026-07-07 00:00:00","57281","1.3659999999999999","233.0","2.091","230.3","1017.554","25.02","82.3","-3.18","0.0"],
    [1419697,"2026-07-07 00:10:00","57282","1.3219999999999998","235.5","2.091","235.5","1017.539","24.94","82.4","-3.313","0.0"],
    [1419698,"2026-07-07 00:20:00","57283","1.069","238.2","1.993","236.6","1017.488","24.9","81.7","-3.259","0.0"],
    [1419699,"2026-07-07 00:30:00","57284","0.7709999999999999","266.3","1.405","275","1017.457","24.43","82.4","-3.339","0.0"],
    [1419700,"2026-07-07 00:40:00","57285","0.626","253.3","1.045","260.2","1017.3810000000001","23.98","81.6","-3.323","0.0"],
    [1419701,"2026-07-07 00:50:00","57286","0.6779999999999999","257.4","1.241","239.2","1017.297","23.77","77.84","-3.2760000000000002","0.0"],
    [1419702,"2026-07-07 01:00:00","57287","0.838","277.8","1.503","265.6","1017.217","23.76","73.44","-3.177","0.0"],
    [1419703,"2026-07-07 01:10:00","57288","0.82","261.6","1.731","279.5","1017.145","23.93","70.47","-3.32","0.0"],
    [1419704,"2026-07-07 01:20:00","57289","1.214","281.8","1.96","285.2","1017.04","23.68","70.1","-3.2460000000000004","0.0"],
    [1419705,"2026-07-07 01:30:00","57290","1.41","282.8","2.221","277.8","1017.0110000000001","23.45","68.51","-3.361","0.0"],
    [1419706,"2026-07-07 01:40:00","57291","1.405","279.2","2.385","272.3","1016.945","23.71","64.08","-3.201","0.0"],
    [1419707,"2026-07-07 01:50:00","57292","1.175","281.1","2.417","285.2","1016.92","23.47","62.23","-3.157","0.0"],
    [1419708,"2026-07-07 02:00:00","57293","1.35","276.7","2.679","282.1","1016.91","23.27","60.37","-3.32","0.0"],
    [1419709,"2026-07-07 02:10:00","57294","1.7280000000000002","276.3","2.907","270.9","1016.86","23.23","57.95","-3.3339999999999996","0.0"],
    [1419710,"2026-07-07 02:20:00","57295","0.917","265.3","2.319","285.3","1016.778","23.17","57.49","-3.2889999999999997","0.0"],
    [1419711,"2026-07-07 02:30:00","57296","1.081","251.0","1.993","240.1","1016.715","23.21","56.09","-3.4210000000000003","0.0"],
    [1419712,"2026-07-07 02:40:00","57297","1.3159999999999998","258.7","2.613","271.6","1016.6560000000001","23.62","53.99","-3.362","0.0"],
    [1419713,"2026-07-07 02:50:00","57298","1.614","269.4","2.646","267.2","1016.573","23.75","53.26","-3.3819999999999997","0.0"],
    [1419714,"2026-07-07 03:00:00","57299","1.636","261.3","2.711","265.9","1016.5219999999999","23.67","53.28","-3.38","0.0"],
    [1419715,"2026-07-07 03:10:00","57300","1.959","266.7","3.169","274.5","1016.466","23.67","52.5","-3.281","0.0"],
    [1419716,"2026-07-07 03:20:00","57301","2.2769999999999997","270.1","3.561","267.7","1016.455","23.26","52.88","-2.6689999999999996","0.0"],
    [1419717,"2026-07-07 03:30:00","57302","2.2159999999999997","271.4","3.463","262.8","1016.428","22.92","53.11","-2.7119999999999997","0.0"],
    [1419718,"2026-07-07 03:40:00","57303","2.153","281.3","4.083","278.5","1016.442","22.9","52.34","-2.822","0.0"],
    [1419719,"2026-07-07 04:00:00","57304","1.891","270.3","3.985","284.4","1016.544","23.8","48.94","-3.0060000000000002","0.0"],
    [1419720,"2026-07-07 04:10:00","57305","2.037","264.9","3.593","270.2","1016.581","24.01","48.04","-2.665","0.0"],
    [1419721,"2026-07-07 04:20:00","57306","2.213","259.2","4.116","249.9","1016.6339999999999","24.13","47.46","-1.556","0.0"],
    [1419722,"2026-07-07 04:30:00","57307","1.963","268.6","3.495","283.5","1016.635","24.13","47.67","1.198","0.0"],
    [1419723,"2026-07-07 04:40:00","57308","2.114","271.0","3.789","269.8","1016.737","23.69","48.09","6.1979999999999995","0.0"],
    [1419724,"2026-07-07 04:50:00","57309","1.885","274.2","3.561","266.5","1016.801","23.58","48.13","17.75","0.0"],
    [1419725,"2026-07-07 05:00:00","57310","1.629","260.9","3.103","253.9","1016.784","23.6","48.13","33.15","0.0"],
    [1419726,"2026-07-07 05:10:00","57311","1.9680000000000002","277.6","3.234","275.9","1016.8860000000001","23.6","48.31","49.93","0.0"],
    [1419727,"2026-07-07 05:20:00","57312","1.547","267.5","3.201","290.3","1016.943","23.69","47.77","65.24","0.0"],
    [1419728,"2026-07-07 05:30:00","57313","1.692","262.4","3.365","271.8","1016.9630000000001","24.12","45.88","81.9","0.0"],
    [1419729,"2026-07-07 05:40:00","57314","1.463","270.3","3.005","296.3","1016.9939999999999","24.39","44.76","100.1","0.0"],
    [1419730,"2026-07-07 05:50:00","57315","1.9169999999999998","261.0","3.724","298","1017.035","24.95","42.24","115.3","0.0"],
    [1419731,"2026-07-07 06:00:00","57316","2.386","264.2","4.573","297.7","1017.002","25.38","40.7","147.4","0.0"],
    [1419732,"2026-07-07 06:10:00","57317","2.242","261.3","4.443","261.1","1017.058","25.6","40.13","174.0","0.0"],
    [1419733,"2026-07-07 06:20:00","57318","1.91","266.4","3.953","284","1017.064","26.01","39.42","202.6","0.0"],
    [1419734,"2026-07-07 06:30:00","57319","1.761","260.7","3.626","249.7","1017.128","26.09","39.48","233.5","0.0"],
    [1419735,"2026-07-07 06:40:00","57320","2.2840000000000003","279.5","3.822","279.2","1017.192","26.21","39.39","266.2","0.0"],
    [1419736,"2026-07-07 06:50:00","57321","2.19","266.3","3.985","300.1","1017.2689999999999","26.59","38.14","299.2","0.0"],
    [1419737,"2026-07-07 07:00:00","57322","1.723","234.7","3.267","244.2","1017.323","27.34","36.89","330.4","0.0"],
    [1419738,"2026-07-07 07:10:00","57323","1.8259999999999998","246.4","3.528","240.2","1017.3639999999999","27.66","35.73","362.3","0.0"],
    [1419739,"2026-07-07 07:20:00","57324","1.912","237.1","3.953","274.8","1017.367","28.31","34.67","395.6","0.0"],
    [1419740,"2026-07-07 07:30:00","57325","2.085","222.0","3.365","209.1","1017.44","28.62","41.14","430.2","0.0"],
    [1419741,"2026-07-07 07:40:00","57326","1.5","233.9","3.005","252.6","1017.4810000000001","28.46","44.59","460.4","0.0"],
    [1419742,"2026-07-07 07:50:00","57327","2.1919999999999997","225.5","3.822","214.8","1017.5039999999999","28.99","46.31","493.6","0.0"],
    [1419743,"2026-07-07 08:00:00","57328","2.7060000000000004","212.3","3.985","210.2","1017.498","28.85","49.58","527.8","0.0"],
    [1419744,"2026-07-07 08:10:00","57329","1.65","215.6","2.907","210.5","1017.498","29.39","50.93","558.3","0.0"],
    [1419745,"2026-07-07 08:20:00","57330","2.095","211.2","3.267","204.1","1017.4760000000001","29.55","52.03","588.5","0.0"],
    [1419746,"2026-07-07 08:30:00","57331","2.224","209.2","3.953","204.8","1017.3639999999999","29.41","59.23","621.3","0.0"],
    [1419747,"2026-07-07 08:40:00","57332","2.499","200.8","3.985","201.4","1017.336","29.03","62.21","614.5","0.0"],
    [1419748,"2026-07-07 08:50:00","57333","2.802","182.6","4.965","187.5","1017.337","28.79","63.17","678.4","0.0"],
    [1419749,"2026-07-07 09:00:00","57334","2.437","201.2","4.835","172.6","1017.414","28.97","62.25","670.6","0.0"],
    [1419750,"2026-07-07 09:10:00","57335","3.002","213.7","4.214","222.9","1017.451","29.11","60.27","728.3","0.0"],
    [1419751,"2026-07-07 09:20:00","57336","2.925","206.5","4.965","197.8","1017.4860000000001","29.08","59.0","750.3","0.0"],
    [1419752,"2026-07-07 09:30:00","57337","2.488","179.8","4.867","194.9","1017.419","29.33","58.97","770.7","0.0"],
    [1419753,"2026-07-07 09:40:00","57338","2.219","177.7","3.822","160","1017.375","29.62","57.84","789.5","0.0"],
    [1419754,"2026-07-07 09:50:00","57339","1.92","187.3","4.737","230.6","1017.36","29.84","56.19","807.0","0.0"],
    [1419755,"2026-07-07 10:00:00","57340","1.778","186.9","3.365","172.1","1017.4580000000001","30.08","55.31","825.0","0.0"],
    [1419756,"2026-07-07 10:10:00","57341","1.931","208.0","3.855","207.1","1017.4780000000001","30.27","54.37","842.0","0.0"],
    [1419757,"2026-07-07 10:20:00","57342","2.215","205.2","3.985","209.7","1017.5160000000001","30.39","54.42","858.0","0.0"],
    [1419758,"2026-07-07 10:30:00","57343","1.5419999999999998","139.1","3.659","191.5","1017.5239999999999","30.37","57.21","873.0","0.0"],
    [1419759,"2026-07-07 10:40:00","57344","1.4869999999999999","114.1","3.757","121.9","1017.523","30.12","58.2","886.0","0.0"],
    [1419760,"2026-07-07 10:50:00","57345","1.263","116.7","3.887","122.2","1017.5239999999999","30.05","59.17","898.0","0.0"],
    [1419761,"2026-07-07 11:00:00","57346","1.775","118.8","3.887","128.2","1017.4630000000001","30.11","61.31","909.0","0.0"],
    [1419762,"2026-07-07 11:10:00","57347","1.411","118.4","3.495","113.2","1017.432","29.7","62.57","921.0","0.0"],
    [1419763,"2026-07-07 11:20:00","57348","1.3219999999999998","127.0","4.377","90.4","1017.424","29.62","64.17","929.0","0.0"],
    [1419764,"2026-07-07 11:30:00","57349","2.88","104.0","4.802","108.9","1017.395","29.36","67.15","941.0","0.0"],
    [1419765,"2026-07-07 11:40:00","57350","2.505","109.8","4.541","87.7","1017.3580000000001","29.4","64.13","945.0","0.0"],
    [1419766,"2026-07-07 11:50:00","57351","2.263","108.5","4.279","96","1017.336","29.65","62.31","951.0","0.0"],
    [1419767,"2026-07-07 12:00:00","57352","2.347","109.2","4.116","122.9","1017.3330000000001","29.81","63.08","953.0","0.0"],
    [1419768,"2026-07-07 12:10:00","57353","1.945","115.8","4.051","110.7","1017.3389999999999","29.76","64.45","953.0","0.0"],
    [1419769,"2026-07-07 12:20:00","57354","1.909","117.6","4.737","129.7","1017.324","30.26","62.98","951.0","0.0"],
    [1419770,"2026-07-07 12:30:00","57355","2.414","110.4","4.345","97.5","1017.318","30.07","62.25","946.0","0.0"],
    [1419771,"2026-07-07 12:40:00","57356","2.877","101.5","4.965","89.6","1017.314","29.85","63.49","939.0","0.0"],
    [1419772,"2026-07-07 12:50:00","57357","3.4219999999999997","96.9","5.292","94.5","1017.316","29.43","65.92","932.0","0.0"],
    [1419773,"2026-07-07 13:00:00","57358","3.3289999999999997","91.5","4.573","87.6","1017.317","29.25","66.83","921.0","0.0"],
    [1419774,"2026-07-07 13:10:00","57359","3.5669999999999997","95.1","5.227","87.8","1017.278","29.34","67.64","911.0","0.0"],
    [1419775,"2026-07-07 13:20:00","57360","2.841","101.6","5.063","87","1017.2130000000001","29.49","68.39","902.0","0.0"],
    [1419776,"2026-07-07 13:30:00","57361","3.012","99.2","4.606","78.82","1017.2","29.69","68.37","889.0","0.0"],
    [1419777,"2026-07-07 13:40:00","57362","3.656","96.4","4.802","97.2","1017.176","29.32","69.82","876.0","0.0"],
    [1419778,"2026-07-07 13:50:00","57363","3.42","94.4","4.802","82.4","1017.171","29.64","68.71","860.0","0.0"],
    [1419779,"2026-07-07 14:00:00","57364","2.786","100.1","4.345","114.2","1017.132","30.03","66.89","843.0","0.0"],
    [1419780,"2026-07-07 14:10:00","57365","3.511","84.8","5.978","84.9","1017.122","29.82","67.25","826.0","0.0"],
    [1419781,"2026-07-07 14:20:00","57366","3.0210000000000004","89.0","5.129","72.99","1017.1560000000001","30.17","66.41","805.0","0.0"],
    [1419782,"2026-07-07 14:30:00","57367","3.638","80.3","5.227","65.62","1017.1239999999999","30.12","66.72","781.4","0.0"],
    [1419783,"2026-07-07 14:40:00","57368","3.636","83.0","8.36","99","1017.044","29.84","67.84","755.4","0.0"],
    [1419784,"2026-07-07 14:50:00","57369","3.4130000000000003","88.0","4.769","83.8","1016.9989999999999","29.63","68.76","734.4","0.0"],
    [1419785,"2026-07-07 15:00:00","57370","3.475","86.8","5.259","78.29","1016.936","29.65","69.14","713.6","0.0"],
    [1419786,"2026-07-07 15:10:00","57371","3.7089999999999996","90.3","5.357","77.27","1016.8960000000001","29.42","70.4","687.9","0.0"],
    [1419787,"2026-07-07 15:20:00","57372","3.612","84.5","5.357","79.2","1016.863","29.54","70.28","660.9","0.0"],
    [1419788,"2026-07-07 15:30:00","57373","3.299","94.0","5.129","81.4","1016.929","29.48","70.98","600.6","0.0"],
    [1419789,"2026-07-07 15:40:00","57374","2.917","97.9","4.41","74.45","1016.938","29.39","72.22","588.3","0.0"],
    [1419790,"2026-07-07 15:50:00","57375","2.755","99.6","4.573","103.8","1016.904","29.17","76.21","471.4","0.0"],
    [1419791,"2026-07-07 16:00:00","57376","2.9130000000000003","98.3","4.083","91.5","1016.87","28.61","79.45","431.1","0.0"],
    [1419792,"2026-07-07 16:10:00","57377","3.065","98.2","4.345","92.8","1016.8330000000001","28.42","80.5","470.5","0.0"],
    [1419793,"2026-07-07 16:20:00","57378","2.977","87.8","5.749","111","1016.7660000000001","28.6","79.22","487.8","0.0"],
    [1419794,"2026-07-07 16:30:00","57379","2.572","95.5","4.181","85.4","1016.779","28.96","77.3","449.9","0.0"],
    [1419795,"2026-07-07 16:40:00","57380","2.818","89.4","4.639","99.8","1016.7760000000001","28.62","78.68","370.8","0.0"],
    [1419796,"2026-07-07 16:50:00","57381","2.735","87.3","4.769","79.55","1016.77","28.4","79.83","404.1","0.0"],
    [1419797,"2026-07-07 17:00:00","57382","2.512","77.72","4.247","66.3","1016.8430000000001","28.51","78.65","370.2","0.0"],
    [1419798,"2026-07-07 17:10:00","57383","2.9010000000000002","82.6","4.279","69.61","1016.9639999999999","28.37","78.94","337.8","0.0"],
    [1419799,"2026-07-07 17:20:00","57384","2.966","69.35","4.116","67.66","1017.052","28.43","76.36","298.9","0.0"],
    [1419800,"2026-07-07 17:30:00","57385","3.194","71.2","4.769","68.32","1017.0880000000001","28.56","74.35","266.7","0.0"],
    [1419801,"2026-07-07 17:40:00","57386","3.373","75.74","5.586","93.3","1017.0880000000001","28.39","74.26","230.8","0.0"],
    [1419802,"2026-07-07 17:50:00","57387","3.0269999999999997","70.26","5.39","68.43","1017.02","28.21","73.95","175.4","0.0"],
    [1419803,"2026-07-07 18:00:00","57388","3.112","73.88","5.455","71.11","1016.885","28.12","74.44","152.7","0.0"],
    [1419804,"2026-07-07 18:10:00","57389","2.657","69.83","4.051","49.89","1016.9680000000001","27.87","75.75","91.9","0.0"],
    [1419805,"2026-07-07 18:20:00","57390","2.494","79.6","4.377","101.2","1016.99","27.92","76.08","76.95","0.0"],
    [1419806,"2026-07-07 18:30:00","57391","2.061","80.6","4.083","117.9","1016.959","27.76","76.91","72.52","0.0"],
    [1419807,"2026-07-07 18:40:00","57392","2.113","87.7","2.907","76.91","1016.9580000000001","27.76","77.42","76.18","0.0"],
    [1419808,"2026-07-07 18:50:00","57393","1.975","99.9","2.907","93.5","1016.9730000000001","27.78","78.57","60.63","0.0"],
    [1419809,"2026-07-07 19:00:00","57394","1.301","103.4","2.483","102.7","1017.012","27.64","79.84","38.4","0.0"],
    [1419810,"2026-07-07 19:10:00","57395","1.137","99.2","1.862","98.9","1017.0210000000001","27.55","79.09","14.83","0.0"],
    [1419811,"2026-07-07 19:20:00","57396","1.0390000000000001","131.3","2.189","123.7","1016.93","27.52","78.22","4.623","0.0"],
    [1419812,"2026-07-07 19:30:00","57397","0.632","118.0","1.927","103.7","1017.0939999999999","27.3","78.38","0.426","0.0"],
    [1419813,"2026-07-07 19:40:00","57398","1.3659999999999999","167.8","3.267","138.8","1017.17","27.32","76.87","-1.6780000000000002","0.0"],
    [1419814,"2026-07-07 19:50:00","57399","1.587","198.8","3.103","213.2","1017.2410000000001","27.36","76.75","-2.613","0.0"],
    [1419815,"2026-07-07 20:00:00","57400","1.9240000000000002","207.9","3.038","229.8","1017.316","27.4","76.56","-2.826","0.0"],
    [1419816,"2026-07-07 20:10:00","57401","1.7","231.5","2.646","233.5","1017.424","27.18","79.26","-2.602","0.0"],
    [1419817,"2026-07-07 20:20:00","57402","1.5130000000000001","214.4","2.319","212.1","1017.534","27.08","79.63","-2.6210000000000004","0.0"],
    [1419818,"2026-07-07 20:30:00","57403","1.5619999999999998","220.4","2.417","229.7","1017.565","27.0","79.29","-2.79","0.0"],
    [1419819,"2026-07-07 20:40:00","57404","1.84","210.8","3.201","214.5","1017.655","27.08","78.72","-2.97","0.0"],
    [1419820,"2026-07-07 20:50:00","57405","1.62","201.7","3.169","198.8","1017.757","26.95","79.51","-2.943","0.0"],
    [1419821,"2026-07-07 21:00:00","57406","1.139","238.6","2.417","234.1","1017.88","26.76","79.83","-2.8160000000000003","0.0"],
    [1419822,"2026-07-07 21:10:00","57407","1.3319999999999999","222.4","2.319","224.7","1017.8439999999999","26.71","79.93","-2.8680000000000003","0.0"],
    [1419823,"2026-07-07 21:20:00","57408","1.892","206.8","3.528","208.6","1017.7330000000001","26.74","81.0","-2.804","0.0"],
    [1419824,"2026-07-07 21:30:00","57409","3.2489999999999997","210.4","4.933","204.1","1017.445","26.62","82.2","-2.65","0.0"],
    [1419825,"2026-07-07 21:40:00","57410","2.696","211.2","4.475","210.1","1017.41","26.57","83.1","-2.605","0.0"],
    [1419826,"2026-07-07 21:50:00","57411","2.661","215.5","4.018","202.5","1017.262","26.28","85.4","-2.645","0.0"],
    [1419827,"2026-07-07 22:00:00","57412","1.814","212.2","3.136","216.4","1017.297","25.7","88.9","-2.861","0.0"],
    [1419828,"2026-07-07 22:10:00","57413","2.1630000000000003","227.7","3.267","227.1","1017.192","25.46","91.0","-2.966","0.0"],
    [1419829,"2026-07-07 22:20:00","57414","1.256","241.9","2.711","231.6","1017.1289999999999","25.19","92.5","-2.9130000000000003","0.0"],
    [1419830,"2026-07-07 22:30:00","57415","1.459","236.0","2.352","242.2","1017.1519999999999","25.15","92.4","-2.727","0.0"],
    [1419831,"2026-07-07 22:40:00","57416","1.6740000000000002","230.2","2.646","232.1","1017.086","25.78","89.0","-2.8139999999999996","0.0"],
    [1419832,"2026-07-07 22:50:00","57417","2.081","229.2","3.267","230.1","1017.073","26.13","85.2","-2.971","0.0"],
    [1419833,"2026-07-07 23:00:00","57418","1.6340000000000001","229.5","3.071","233.3","1017.102","26.27","84.1","-2.694","0.0"],
    [1419834,"2026-07-07 23:10:00","57419","1.9080000000000001","228.0","3.561","223.8","1017.061","26.26","84.2","-2.9739999999999998","0.0"],
    [1419835,"2026-07-07 23:20:00","57420","1.8330000000000002","231.0","3.234","253.6","1016.965","26.28","85.4","-2.803","0.0"],
    [1419836,"2026-07-07 23:30:00","57421","1.902","228.9","3.234","227.7","1016.791","26.23","86.4","-2.735","0.0"],
    [1419837,"2026-07-07 23:40:00","57422","2.7319999999999998","228.5","4.051","227.5","1016.693","26.17","84.0","-2.639","0.0"],
    [1419838,"2026-07-07 23:50:00","57423","2.9560000000000004","228.2","4.998","228","1016.704","26.34","79.37","-2.59","0.0"],
    [1419839,"2026-07-08 00:00:00","57424","2.984","229.3","4.802","227.4","1016.706","26.51","75.55","-2.28","0.0"],
    [1419840,"2026-07-08 00:10:00","57425","3.3510000000000004","225.9","4.769","216","1016.6560000000001","26.66","71.73","-2.3080000000000003","0.0"],
    [1419841,"2026-07-08 00:20:00","57426","3.11","219.0","4.443","225.9","1016.5160000000001","26.68","71.2","-2.5180000000000002","0.0"],
    [1419842,"2026-07-08 00:30:00","57427","2.5639999999999996","220.0","4.606","231.4","1016.335","26.59","70.17","-2.5989999999999998","0.0"],
    [1419843,"2026-07-08 00:40:00","57428","2.6210000000000004","219.4","3.691","215.9","1016.1","26.67","67.56","-2.616","0.0"],
    [1419844,"2026-07-08 00:50:00","57429","2.205","229.6","4.149","230.5","1015.9939999999999","26.6","66.27","-2.614","0.0"],
    [1419845,"2026-07-08 01:00:00","57430","1.685","233.3","3.071","226.8","1016.084","26.33","64.64","-2.6239999999999997","0.0"],
    [1419846,"2026-07-08 01:10:00","57431","1.9380000000000002","226.9","3.103","219.1","1016.04","26.42","61.38","-2.947","0.0"],
    [1419847,"2026-07-08 01:20:00","57432","2.526","229.8","3.528","228.3","1015.939","26.67","58.73","-2.963","0.0"],
    [1419848,"2026-07-08 01:30:00","57433","1.848","229.5","2.973","234","1015.828","26.5","58.27","-2.595","0.0"],
    [1419849,"2026-07-08 01:40:00","57434","1.429","221.0","2.123","219.8","1015.655","26.08","58.04","-2.7430000000000003","0.0"],
    [1419850,"2026-07-08 01:50:00","57435","1.188","230.1","2.025","231.5","1015.563","25.82","58.31","-2.707","0.0"],
    [1419851,"2026-07-08 02:00:00","57436","1.216","233.0","1.829","219.2","1015.513","25.72","57.66","-2.932","0.0"],
    [1419852,"2026-07-08 02:10:00","57437","1.207","230.8","1.927","235.4","1015.465","25.71","57.69","-2.63","0.0"],
    [1419853,"2026-07-08 02:20:00","57438","1.228","243.8","1.829","246.2","1015.322","25.69","57.67","-2.6289999999999996","0.0"],
    [1419854,"2026-07-08 02:30:00","57439","1.272","276.5","2.483","255.2","1015.209","25.41","59.38","-2.593","0.0"],
    [1419855,"2026-07-08 02:40:00","57440","1.6880000000000002","273.6","2.646","295.2","1015.13","24.97","61.67","-2.6439999999999997","0.0"],
    [1419856,"2026-07-08 02:50:00","57441","1.215","250.5","2.679","251.5","1015.086","25.13","61.68","-2.7060000000000004","0.0"],
    [1419857,"2026-07-08 03:00:00","57442","1.462","241.8","2.581","231.4","1014.988","25.5","59.98","-2.685","0.0"],
    [1419858,"2026-07-08 03:10:00","57443","1.254","266.1","2.091","244","1015.045","25.68","59.41","-2.593","0.0"],
    [1419859,"2026-07-08 03:20:00","57444","1.4480000000000002","273.8","2.711","275.5","1015.03","25.02","62.36","-2.6060000000000003","0.0"],
    [1419860,"2026-07-08 03:30:00","57445","1.6840000000000002","266.4","3.234","274.6","1015.015","25.02","62.47","-2.6060000000000003","0.0"],
    [1419861,"2026-07-08 03:40:00","57446","1.92","243.7","3.397","258.5","1014.935","25.32","60.88","-2.595","0.0"],
    [1419862,"2026-07-08 03:50:00","57447","2.233","227.4","3.528","246.8","1014.929","25.51","59.55","-2.605","0.0"],
    [1419863,"2026-07-08 04:00:00","57448","2.108","242.2","4.083","225","1014.953","26.17","56.37","-2.7939999999999996","0.0"],
    [1419864,"2026-07-08 04:10:00","57449","2.323","246.0","3.887","261.4","1014.9060000000001","26.19","56.35","-2.481","0.0"],
    [1419865,"2026-07-08 04:20:00","57450","2.169","264.2","4.443","283.6","1014.898","25.95","56.83","-1.3330000000000002","0.0"],
    [1419866,"2026-07-08 04:30:00","57451","2.113","257.4","5.39","257.7","1014.9889999999999","25.95","56.0","1.248","0.0"],
    [1419867,"2026-07-08 04:40:00","57452","1.881","241.8","3.757","256.1","1015.06","25.73","56.67","5.811","0.0"],
    [1419868,"2026-07-08 04:50:00","57453","1.9140000000000001","240.8","3.855","263","1015.178","25.65","56.36","14.75","0.0"],
    [1419869,"2026-07-08 05:00:00","57454","1.841","238.2","3.887","240.7","1015.284","25.79","55.68","27.29","0.0"],
    [1419870,"2026-07-08 05:10:00","57455","1.452","253.4","2.875","243.8","1015.158","26.03","55.32","42.0","0.0"],
    [1419871,"2026-07-08 05:20:00","57456","1.577","254.4","3.005","258.9","1015.113","26.22","54.1","57.73","0.0"],
    [1419872,"2026-07-08 05:30:00","57457","1.669","227.6","2.581","241.4","1015.1139999999999","26.58","52.12","74.99","0.0"],
    [1419873,"2026-07-08 05:40:00","57458","2.055","233.2","3.43","247.2","1015.075","26.93","50.39","91.8","0.0"],
    [1419874,"2026-07-08 05:50:00","57459","1.79","232.6","3.005","228.9","1015.159","26.78","51.9","109.6","0.0"],
    [1419875,"2026-07-08 06:00:00","57460","1.8459999999999999","251.4","3.659","277.2","1015.164","27.1","50.53","137.8","0.0"],
    [1419876,"2026-07-08 06:10:00","57461","1.8769999999999998","268.6","3.299","280.2","1015.247","27.42","49.14","163.3","0.0"],
    [1419877,"2026-07-08 06:20:00","57462","1.742","252.0","3.528","224.3","1015.362","27.66","48.41","190.7","0.0"],
    [1419878,"2026-07-08 06:30:00","57463","1.9040000000000001","253.8","3.953","277.9","1015.3760000000001","27.78","48.16","221.1","0.0"],
    [1419879,"2026-07-08 06:40:00","57464","2.32","276.3","4.443","285","1015.3989999999999","27.99","47.39","255.0","0.0"],
    [1419880,"2026-07-08 06:50:00","57465","2.0669999999999997","251.4","3.855","266.4","1015.5169999999999","28.28","46.64","286.1","0.0"],
    [1419881,"2026-07-08 07:00:00","57466","2.728","226.6","4.279","227.7","1015.6210000000001","28.71","46.11","318.3","0.0"],
    [1419882,"2026-07-08 07:10:00","57467","2.67","217.7","4.214","195.9","1015.689","28.66","49.91","351.0","0.0"],
    [1419883,"2026-07-08 07:20:00","57468","3.3989999999999996","216.5","5.259","205.4","1015.688","28.21","62.18","385.6","0.0"],
    [1419884,"2026-07-08 07:30:00","57469","2.912","225.1","4.737","210.5","1015.6569999999999","28.73","59.83","414.8","0.0"],
    [1419885,"2026-07-08 07:40:00","57470","2.628","224.7","3.92","208","1015.679","29.34","57.61","446.4","0.0"],
    [1419886,"2026-07-08 07:50:00","57471","2.345","224.8","4.018","235.4","1015.6489999999999","29.76","55.19","477.9","0.0"],
    [1419887,"2026-07-08 08:00:00","57472","2.6689999999999996","220.9","3.985","226.2","1015.653","30.09","52.41","509.1","0.0"],
    [1419888,"2026-07-08 08:10:00","57473","1.614","268.0","3.397","291.8","1015.685","30.88","47.71","536.4","0.0"],
    [1419889,"2026-07-08 08:20:00","57474","1.449","288.4","3.201","299.1","1015.659","31.32","45.71","565.1","0.0"],
    [1419890,"2026-07-08 08:30:00","57475","1.49","283.4","2.679","278.9","1015.6339999999999","31.68","43.02","593.9","0.0"],
    [1419891,"2026-07-08 08:40:00","57476","1.2570000000000001","276.3","3.332","292.8","1015.628","32.41","39.35","589.9","0.0"],
    [1419892,"2026-07-08 08:50:00","57477","1.355","227.5","2.711","191","1015.655","33.06","38.64","650.5","0.0"],
    [1419893,"2026-07-08 09:00:00","57478","1.4680000000000002","216.9","2.581","214.1","1015.6310000000001","33.62","37.13","649.6","0.0"],
    [1419894,"2026-07-08 09:10:00","57479","1.198","217.8","2.809","241.9","1015.6210000000001","34.45","33.58","702.9","0.0"],
    [1419895,"2026-07-08 09:20:00","57480","1.432","243.3","2.581","197","1015.57","34.63","31.4","726.3","0.0"],
    [1419896,"2026-07-08 09:30:00","57481","1.2009999999999998","239.8","2.123","283.3","1015.546","35.08","27.92","750.9","0.0"],
    [1419897,"2026-07-08 09:40:00","57482","1.396","207.2","2.646","224.3","1015.548","35.86","25.29","771.1","0.0"],
    [1419898,"2026-07-08 09:50:00","57483","0.9179999999999999","188.2","2.156","167.8","1015.498","36.09","24.33","788.0","0.0"],
    [1419899,"2026-07-08 10:00:00","57484","1.521","173.3","2.875","172.3","1015.453","35.67","25.48","818.0","0.0"],
    [1419900,"2026-07-08 10:10:00","57485","1.341","166.8","2.777","183.5","1015.426","35.37","28.64","836.0","0.0"],
    [1419901,"2026-07-08 10:20:00","57486","1.537","161.7","3.169","147.8","1015.425","35.45","29.1","852.0","0.0"],
    [1419902,"2026-07-08 10:30:00","57487","1.578","205.2","5.063","232.1","1015.437","35.71","27.42","868.0","0.0"],
    [1419903,"2026-07-08 10:40:00","57488","1.054","158.1","2.613","166.2","1015.3969999999999","36.02","27.93","880.0","0.0"],
    [1419904,"2026-07-08 10:50:00","57489","2.3280000000000003","205.4","4.9","219.6","1015.395","35.92","23.02","894.0","0.0"],
    [1419905,"2026-07-08 11:00:00","57490","2.234","193.6","3.92","223","1015.3919999999999","35.93","23.12","908.0","0.0"],
    [1419906,"2026-07-08 11:10:00","57491","2.396","217.3","3.789","204.6","1015.3560000000001","36.31","21.03","919.0","0.0"],
    [1419907,"2026-07-08 11:20:00","57492","1.776","191.7","3.887","213.1","1015.2769999999999","36.92","19.66","927.0","0.0"],
    [1419908,"2026-07-08 11:30:00","57493","1.8119999999999998","189.2","3.724","188.4","1015.235","37.08","18.84","933.0","0.0"],
    [1419909,"2026-07-08 11:40:00","57494","2.174","183.4","4.018","175.8","1015.187","36.55","18.53","940.0","0.0"],
    [1419910,"2026-07-08 11:50:00","57495","2.636","180.8","4.116","182.3","1015.122","36.54","18.73","944.0","0.0"],
    [1419911,"2026-07-08 12:00:00","57496","2.456","185.5","4.769","173.6","1015.0089999999999","36.69","18.31","944.0","0.0"],
    [1419912,"2026-07-08 12:10:00","57497","3.043","205.9","5.847","219.8","1014.926","36.72","18.28","942.0","0.0"],
    [1419913,"2026-07-08 12:20:00","57498","2.989","202.9","4.704","208.3","1014.805","36.94","18.68","943.0","0.0"],
    [1419914,"2026-07-08 12:30:00","57499","3.278","213.0","5.129","224.2","1014.6610000000001","36.68","19.03","943.0","0.0"],
    [1419915,"2026-07-08 12:40:00","57500","3.0010000000000003","205.2","5.227","225.7","1014.556","36.67","19.06","939.0","0.0"],
    [1419916,"2026-07-08 12:50:00","57501","3.2680000000000002","213.6","5.684","227.1","1014.457","36.77","19.09","930.0","0.0"],
    [1419917,"2026-07-08 13:00:00","57502","3.1710000000000003","183.8","5.815","174.9","1014.3589999999999","36.47","19.84","923.0","0.0"],
    [1419918,"2026-07-08 13:10:00","57503","3.227","183.4","5.129","190","1014.324","35.68","27.42","913.0","0.0"],
    [1419919,"2026-07-08 13:20:00","57504","2.885","203.8","4.671","228.9","1014.314","34.28","44.39","903.0","0.0"],
    [1419920,"2026-07-08 13:30:00","57505","2.762","204.0","4.998","218.3","1014.2810000000001","33.47","49.75","892.0","0.0"],
    [1419921,"2026-07-08 13:40:00","57506","3.634","204.0","5.782","215.6","1014.2769999999999","33.15","55.5","878.0","0.0"],
    [1419922,"2026-07-08 13:50:00","57507","3.758","194.3","5.488","215.5","1014.195","31.81","60.17","864.0","0.0"],
    [1419923,"2026-07-08 14:00:00","57508","3.5269999999999997","200.1","6.011","214.8","1014.1439999999999","31.57","61.06","846.0","0.0"],
    [1419924,"2026-07-08 14:10:00","57509","3.694","206.6","6.533","229.7","1013.9939999999999","31.99","60.75","825.0","0.0"],
    [1419925,"2026-07-08 14:20:00","57510","4.784","214.9","7.285","211.8","1013.852","31.48","60.3","807.0","0.0"],
    [1419926,"2026-07-08 14:30:00","57511","3.255","203.0","6.076","218.3","1013.7389999999999","31.61","61.09","782.7","0.0"],
    [1419927,"2026-07-08 14:40:00","57512","3.095","205.2","6.762","200.5","1013.669","31.82","59.47","759.9","0.0"],
    [1419928,"2026-07-08 14:50:00","57513","2.877","200.8","4.965","210.5","1013.6410000000001","31.98","59.39","735.7","0.0"],
    [1419929,"2026-07-08 15:00:00","57514","3.1210000000000004","199.3","6.435","224.2","1013.6389999999999","31.59","59.85","712.6","0.0"],
    [1419930,"2026-07-08 15:10:00","57515","3.0839999999999996","198.0","5.39","226.5","1013.6489999999999","31.66","61.77","687.9","0.0"],
    [1419931,"2026-07-08 15:20:00","57516","3.282","206.2","6.239","224.3","1013.5830000000001","31.45","62.81","660.0","0.0"],
    [1419932,"2026-07-08 15:30:00","57517","4.101","212.6","6.272","230.1","1013.5219999999999","31.1","62.67","596.3","0.0"],
    [1419933,"2026-07-08 15:40:00","57518","3.9","217.8","6.011","229.2","1013.538","30.56","64.78","602.6","0.0"],
    [1419934,"2026-07-08 15:50:00","57519","3.8789999999999996","211.9","7.154","204.1","1013.513","30.76","64.88","537.7","0.0"],
    [1419935,"2026-07-08 16:00:00","57520","3.478","211.8","5.651","226.7","1013.4760000000001","30.69","65.44","543.2","0.0"],
    [1419936,"2026-07-08 16:10:00","57521","3.411","209.1","5.815","213.6","1013.461","30.84","64.1","518.3","0.0"],
    [1419937,"2026-07-08 16:20:00","57522","2.6060000000000003","191.8","5.063","178.1","1013.432","30.59","65.77","490.3","0.0"],
    [1419938,"2026-07-08 16:30:00","57523","3.625","202.8","5.782","206.6","1013.442","30.3","66.36","461.8","0.0"],
    [1419939,"2026-07-08 16:40:00","57524","3.023","207.5","6.174","196.3","1013.425","30.38","66.31","430.8","0.0"],
    [1419940,"2026-07-08 16:50:00","57525","2.909","218.0","4.802","197.5","1013.4780000000001","30.54","63.87","399.6","0.0"],
    [1419941,"2026-07-08 17:00:00","57526","3.161","226.8","4.737","228.1","1013.5039999999999","30.45","62.22","353.9","0.0"],
    [1419942,"2026-07-08 17:10:00","57527","3.1189999999999998","206.8","5.782","194.3","1013.513","30.25","63.88","308.3","0.0"],
    [1419943,"2026-07-08 17:20:00","57528","2.989","210.8","6.076","238","1013.466","30.21","63.84","293.1","0.0"],
    [1419944,"2026-07-08 17:30:00","57529","2.55","203.0","5.455","216","1013.455","30.03","64.12","259.8","0.0"],
    [1419945,"2026-07-08 17:40:00","57530","3.082","209.8","4.541","229.5","1013.4060000000001","29.63","66.18","229.4","0.0"],
    [1419946,"2026-07-08 17:50:00","57531","3.8739999999999997","213.2","6.272","227.4","1013.3480000000001","29.18","68.03","195.7","0.0"],
    [1419947,"2026-07-08 18:00:00","57532","2.878","214.1","5.325","202.5","1013.283","29.23","69.85","159.1","0.0"],
    [1419948,"2026-07-08 18:10:00","57533","2.782","219.5","4.573","223.8","1013.309","29.08","72.13","139.4","0.0"],
    [1419949,"2026-07-08 18:20:00","57534","2.642","216.3","4.214","220.4","1013.3639999999999","28.86","72.48","115.3","0.0"],
    [1419950,"2026-07-08 18:30:00","57535","2.67","224.2","4.769","232","1013.2689999999999","28.78","71.37","92.9","0.0"],
    [1419951,"2026-07-08 18:40:00","57536","2.039","210.6","3.561","216.5","1013.159","28.64","72.03","73.64","0.0"],
    [1419952,"2026-07-08 18:50:00","57537","1.607","204.6","3.397","203.8","1013.138","28.49","75.17","53.74","0.0"],
    [1419953,"2026-07-08 19:00:00","57538","1.9369999999999998","211.3","2.809","208","1013.225","28.03","79.41","35.34","0.0"],
    [1419954,"2026-07-08 19:10:00","57539","1.715","210.4","2.515","204.8","1013.195","27.67","82.0","19.27","0.0"],
    [1419955,"2026-07-08 19:20:00","57540","1.4669999999999999","231.3","2.646","225","1013.1569999999999","27.49","79.65","7.919","0.0"],
    [1419956,"2026-07-08 19:30:00","57541","1.9","228.2","3.169","222.6","1013.171","27.77","77.12","1.7690000000000001","0.0"],
    [1419957,"2026-07-08 19:40:00","57542","1.4909999999999999","213.8","3.005","210.5","1013.133","27.79","79.54","-1.364","0.0"],
    [1419958,"2026-07-08 19:50:00","57543","1.8880000000000001","222.7","2.973","220.8","1013.127","27.53","79.94","-2.653","0.0"],
    [1419959,"2026-07-08 20:00:00","57544","1.598","224.5","2.515","233","1013.1","27.48","80.2","-3.0980000000000003","0.0"],
    [1419960,"2026-07-08 20:10:00","57545","1.297","216.1","2.319","231","1013.0310000000001","27.44","79.66","-3.285","0.0"],
    [1419961,"2026-07-08 20:20:00","57546","1.8090000000000002","213.8","3.071","214.2","1012.8810000000001","27.35","81.3","-3.2939999999999996","0.0"],
    [1419962,"2026-07-08 20:30:00","57547","1.709","200.6","2.809","184.8","1012.745","27.12","84.5","-2.967","0.0"],
    [1419963,"2026-07-08 20:40:00","57548","0.6940000000000001","268.1","2.352","239.9","1012.946","26.83","86.7","-3.2769999999999997","0.0"],
    [1419964,"2026-07-08 20:50:00","57549","1.1740000000000002","235.4","2.025","230.3","1013.073","26.7","86.4","-3.347","0.0"],
    [1419965,"2026-07-08 21:00:00","57550","1.923","224.1","2.94","217.9","1013.159","26.77","84.6","-3.353","0.0"],
    [1419966,"2026-07-08 21:10:00","57551","0.8370000000000001","199.3","2.679","218.6","1013.041","27.11","83.9","-3.011","0.0"],
    [1419967,"2026-07-08 21:20:00","57552","1.9869999999999999","212.4","3.332","215.4","1013.2919999999999","26.9","86.1","-2.9989999999999997","0.0"],
    [1419968,"2026-07-08 21:30:00","57553","2.563","215.3","3.789","214.9","1013.3580000000001","26.66","87.1","-2.6039999999999996","0.0"],
    [1419969,"2026-07-08 21:40:00","57554","2.575","213.0","3.528","218.6","1013.2360000000001","26.54","88.1","-2.605","0.0"],
    [1419970,"2026-07-08 21:50:00","57555","3.3080000000000003","216.1","4.671","221.9","1013.1139999999999","26.26","90.1","-2.653","0.0"],
    [1419971,"2026-07-08 22:00:00","57556","3.103","224.5","4.214","211.9","1013.177","25.64","93.4","-2.786","0.0"],
    [1419972,"2026-07-08 22:10:00","57557","2.654","227.1","3.822","224.5","1013.137","25.4","94.4","-2.714","0.0"],
    [1419973,"2026-07-08 22:20:00","57558","1.6280000000000001","233.5","3.201","214.5","1013.1","25.35","94.0","-2.9930000000000003","0.0"],
    [1419974,"2026-07-08 22:30:00","57559","2.386","225.3","3.528","224.3","1012.9960000000001","25.6","92.5","-2.784","0.0"],
    [1419975,"2026-07-08 22:40:00","57560","1.8219999999999998","232.8","3.495","221.7","1012.99","26.05","89.3","-2.6010000000000004","0.0"],
    [1419976,"2026-07-08 22:50:00","57561","1.9269999999999998","233.2","2.842","233.6","1012.927","26.25","87.3","-2.6689999999999996","0.0"],
    [1419977,"2026-07-08 23:00:00","57562","1.4680000000000002","232.9","2.319","237","1012.857","26.32","85.7","-2.951","0.0"],
    [1419978,"2026-07-08 23:10:00","57563","1.31","227.8","2.156","253.2","1012.84","26.33","83.6","-3.341","0.0"],
    [1419979,"2026-07-08 23:20:00","57564","1.126","265.8","2.221","260.3","1012.768","26.31","82.3","-2.889","0.0"],
    [1419980,"2026-07-08 23:30:00","57565","1.212","227.3","2.025","251.1","1012.6560000000001","26.51","79.89","-2.929","0.0"],
    [1419981,"2026-07-08 23:40:00","57566","1.161","275.2","1.797","223.5","1012.5189999999999","26.54","79.67","-2.75","0.0"],
    [1419982,"2026-07-08 23:50:00","57567","1.274","263.5","2.744","302.7","1012.451","26.33","81.3","-3.2510000000000003","0.0"],
    [1419983,"2026-07-09 00:00:00","57568","1.8659999999999999","264.1","2.777","300","1012.428","26.18","82.3","-2.8169999999999997","0.0"],
    [1419984,"2026-07-09 00:10:00","57569","1.791","303.0","2.581","302.2","1012.434","26.03","74.22","-2.715","0.0"],
    [1419985,"2026-07-09 00:20:00","57570","0.852","318.0","2.189","332","1012.321","25.63","71.02","-3.1439999999999997","0.0"],
    [1419986,"2026-07-09 00:30:00","57571","1.5019999999999998","302.0","2.385","321.6","1012.196","25.74","65.01","-3.011","0.0"],
    [1419987,"2026-07-09 00:40:00","57572","2.133","319.3","2.907","320.1","1012.125","25.82","62.78","-3.15","0.0"],
    [1419988,"2026-07-09 00:50:00","57573","0.8029999999999999","340.0","1.829","321.6","1011.9860000000001","26.27","61.66","-2.787","0.0"],
    [1419989,"2026-07-09 01:00:00","57574","0.51","276.7","0.98","279","1011.868","26.49","59.32","-2.966","0.0"],
    [1419990,"2026-07-09 01:10:00","57575","0.317","275.7","1.078","303.1","1011.836","26.28","56.17","-2.766","0.0"],
    [1419991,"2026-07-09 01:20:00","57576","0.866","291.5","1.862","304.2","1011.743","26.78","50.99","-2.6039999999999996","0.0"],
    [1419992,"2026-07-09 01:30:00","57577","0.6990000000000001","298.2","1.405","297.2","1011.6","26.58","50.18","-2.7510000000000003","0.0"],
    [1419993,"2026-07-09 01:40:00","57578","1.208","285.2","2.025","282.2","1011.552","26.43","48.75","-3.185","0.0"],
    [1419994,"2026-07-09 01:50:00","57579","0.8240000000000001","291.2","1.339","292.8","1011.5269999999999","26.31","47.55","-3.003","0.0"],
    [1419995,"2026-07-09 02:00:00","57580","0.16699999999999998","273.9","1.209","294","1011.465","26.06","44.87","-3.217","0.0"],
    [1419996,"2026-07-09 02:10:00","57581","0.825","276.9","1.601","283","1011.3710000000001","26.85","39.22","-2.984","0.0"],
    [1419997,"2026-07-09 02:20:00","57582","0.875","298.0","1.633","306.5","1011.325","26.88","36.33","-2.761","0.0"],
    [1419998,"2026-07-09 02:30:00","57583","1.052","283.6","1.895","278.4","1011.2139999999999","26.71","34.05","-3.205","0.0"],
    [1419999,"2026-07-09 02:40:00","57584","1.629","292.9","2.94","294.3","1011.068","26.98","32.56","-3.181","0.0"],
    [1420000,"2026-07-09 02:50:00","57585","2.594","300.2","3.92","299","1010.9119999999999","27.12","32.0","-3.418","0.0"],
    [1420001,"2026-07-09 03:00:00","57586","2.8760000000000003","306.1","4.377","297.1","1010.9060000000001","27.35","30.75","-3.347","0.0"],
    [1420002,"2026-07-09 03:10:00","57587","2.4619999999999997","307.0","3.822","309.3","1010.904","27.33","31.01","-3.22","0.0"],
    [1420003,"2026-07-09 03:20:00","57588","1.556","302.1","2.287","302.9","1010.8380000000001","26.86","32.38","-3.301","0.0"],
    [1420004,"2026-07-09 03:30:00","57589","1.2209999999999999","298.3","1.764","292.7","1010.7769999999999","26.68","32.57","-3.366","0.0"],
    [1420005,"2026-07-09 03:40:00","57590","1.23","282.9","2.058","307.1","1010.7669999999999","26.54","32.87","-3.5260000000000002","0.0"],
    [1420006,"2026-07-09 03:50:00","57591","1.73","270.3","3.071","281.3","1010.773","26.79","33.53","-3.426","0.0"],
    [1420007,"2026-07-09 04:00:00","57592","1.983","282.2","2.842","286.5","1010.7439999999999","26.43","35.33","-2.9810000000000003","0.0"],
    [1420008,"2026-07-09 04:10:00","57593","2.0140000000000002","262.3","2.744","245.3","1010.797","26.19","35.53","-2.61","0.0"],
    [1420009,"2026-07-09 04:20:00","57594","1.942","273.3","3.397","269.8","1010.922","26.18","34.93","-1.8219999999999998","0.0"],
    [1420010,"2026-07-09 04:30:00","57595","2.654","273.4","4.116","278.4","1010.982","25.95","35.48","1.206","0.0"],
    [1420011,"2026-07-09 04:40:00","57596","2.4530000000000003","266.3","4.018","273.7","1011.0139999999999","25.48","36.9","6.5729999999999995","0.0"],
    [1420012,"2026-07-09 04:50:00","57597","2.568","262.9","3.953","271.7","1010.993","25.05","38.59","17.26","0.0"],
    [1420013,"2026-07-09 05:00:00","57598","2.211","261.0","3.561","265.7","1010.9860000000001","25.01","38.38","31.84","0.0"],
    [1420014,"2026-07-09 05:10:00","57599","1.4580000000000002","258.1","2.875","280.5","1011.0260000000001","25.28","37.83","47.39","0.0"],
    [1420015,"2026-07-09 05:20:00","57600","1.25","258.3","2.025","273.6","1011.015","25.57","37.0","61.72","0.0"],
    [1420016,"2026-07-09 05:30:00","57601","1.411","265.5","2.417","271.2","1011.105","26.07","36.05","77.04","0.0"],
    [1420017,"2026-07-09 05:40:00","57602","1.506","260.2","2.679","267.4","1011.192","26.46","35.25","92.5","0.0"],
    [1420018,"2026-07-09 05:50:00","57603","1.3619999999999999","279.2","2.711","287.1","1011.2260000000001","26.74","35.01","111.6","0.0"],
    [1420019,"2026-07-09 06:00:00","57604","0.8079999999999999","269.6","1.829","274.4","1011.2760000000001","27.3","33.81","138.5","0.0"],
    [1420020,"2026-07-09 06:10:00","57605","1.329","277.9","2.842","298.4","1011.332","27.76","32.82","164.2","0.0"],
    [1420021,"2026-07-09 06:20:00","57606","1.505","289.2","2.156","291.6","1011.331","28.19","31.73","193.1","0.0"],
    [1420022,"2026-07-09 06:30:00","57607","1.349","273.2","2.123","282.7","1011.393","28.68","30.67","222.9","0.0"],
    [1420023,"2026-07-09 06:40:00","57608","1.472","275.6","2.613","290.9","1011.461","29.15","29.99","254.5","0.0"],
    [1420024,"2026-07-09 06:50:00","57609","1.399","284.5","2.319","300.3","1011.4739999999999","29.62","29.59","286.7","0.0"],
    [1420025,"2026-07-09 07:00:00","57610","1.4269999999999998","292.2","2.319","313.1","1011.533","30.05","28.64","320.2","0.0"],
    [1420026,"2026-07-09 07:10:00","57611","1.375","271.0","2.483","293","1011.534","30.41","28.3","352.4","0.0"],
    [1420027,"2026-07-09 07:20:00","57612","1.476","285.3","2.156","296.4","1011.538","30.78","27.03","386.7","0.0"],
    [1420028,"2026-07-09 07:30:00","57613","1.37","310.7","2.156","314.5","1011.5219999999999","31.53","25.07","418.9","0.0"],
    [1420029,"2026-07-09 07:40:00","57614","0.968","308.4","2.156","57.77","1011.503","32.16","23.86","448.3","0.0"],
    [1420030,"2026-07-09 07:50:00","57615","2.128","84.6","2.744","87.2","1011.503","31.53","26.84","483.5","0.0"],
    [1420031,"2026-07-09 08:00:00","57616","2.313","81.9","3.038","92.7","1011.515","31.0","28.86","514.9","0.0"],
    [1420032,"2026-07-09 08:10:00","57617","1.278","94.4","2.189","80.9","1011.456","31.22","28.85","540.1","0.0"],
    [1420033,"2026-07-09 08:20:00","57618","1.525","76.48","3.136","90.4","1011.492","32.43","27.09","569.9","0.0"],
    [1420034,"2026-07-09 08:30:00","57619","2.0540000000000003","85.6","3.234","81.9","1011.5219999999999","32.0","27.45","596.5","0.0"],
    [1420035,"2026-07-09 08:40:00","57620","1.76","83.7","3.071","87.4","1011.485","32.63","24.88","596.9","0.0"],
    [1420036,"2026-07-09 08:50:00","57621","1.579","90.1","2.679","89.6","1011.4830000000001","32.84","24.48","657.2","0.0"],
    [1420037,"2026-07-09 09:00:00","57622","1.851","70.57","2.777","46.81","1011.48","33.66","22.3","648.2","0.0"],
    [1420038,"2026-07-09 09:10:00","57623","1.4409999999999998","85.6","2.875","77.49","1011.459","33.88","21.92","719.9","0.0"],
    [1420039,"2026-07-09 09:20:00","57624","1.317","90.9","2.189","74.41","1011.4639999999999","34.25","21.22","739.7","0.0"],
    [1420040,"2026-07-09 09:30:00","57625","1.002","106.9","2.058","106","1011.5","34.63","22.57","760.4","0.0"],
    [1420041,"2026-07-09 09:40:00","57626","1.365","93.7","2.352","76.58","1011.503","34.48","23.07","780.0","0.0"],
    [1420042,"2026-07-09 09:50:00","57627","1.6230000000000002","93.9","3.332","72.78","1011.471","34.34","23.98","799.8","0.0"],
    [1420043,"2026-07-09 10:00:00","57628","1.99","97.6","3.528","91.7","1011.5110000000001","33.94","25.95","822.0","0.0"],
    [1420044,"2026-07-09 10:10:00","57629","1.577","80.5","2.385","76.81","1011.502","34.17","28.23","847.0","0.0"],
    [1420045,"2026-07-09 10:20:00","57630","1.706","84.7","3.495","75.3","1011.49","34.24","26.74","854.0","0.0"],
    [1420046,"2026-07-09 10:30:00","57631","1.334","145.3","3.985","159","1011.467","34.59","25.82","869.0","0.0"],
    [1420047,"2026-07-09 10:40:00","0","1.115","167.2","2.744","161.6","1011.4580000000001","34.76","25.01","887.0","0.0"],
    [1420048,"2026-07-09 10:50:00","0","1.875","170.8","4.116","172.1","1011.4580000000001","34.47","25.55","897.0","0.0"],
    [1420049,"2026-07-09 11:00:00","0","2.576","186.0","4.312","211.9","1011.418","34.42","25.62","908.0","0.0"],
    [1420050,"2026-07-09 11:10:00","0","2.263","175.0","3.234","174","1011.4019999999999","33.93","26.11","919.0","0.0"],
    [1420051,"2026-07-09 11:20:00","1","2.8810000000000002","200.0","4.214","217.4","1011.3560000000001","34.15","25.89","925.0","0.0"],
    [1420052,"2026-07-09 11:30:00","0","3.6910000000000003","222.5","3.724","221.8","1011.258","34.25","25.3","935.0","0.0"],
    [1420053,"2026-07-09 11:40:00","0","2.804","209.9","4.704","241.2","1011.2280000000001","34.42","25.54","938.0","0.0"],
    [1420054,"2026-07-09 11:50:00","0","3.281","207.5","4.9","194.5","1011.127","34.59","25.85","942.0","0.0"],
    [1420055,"2026-07-09 12:00:00","0","2.8680000000000003","213.0","5.782","206.5","1011.086","34.53","26.39","943.0","0.0"],
    [1420056,"2026-07-09 12:10:00","1","2.174","190.4","5.194","224.2","1010.905","34.04","27.33","944.0","0.0"],
    [1420057,"2026-07-09 12:20:00","2","2.773","185.3","5.684","182.2","1010.8","33.97","27.79","942.0","0.0"],
    [1420058,"2026-07-09 12:30:00","3","2.8510000000000004","182.1","4.802","163","1010.705","33.85","27.99","938.0","0.0"],
    [1420059,"2026-07-09 12:40:00","4","3.2","175.6","4.998","155.5","1010.666","33.7","28.74","933.0","0.0"],
    [1420060,"2026-07-09 12:50:00","5","3.1839999999999997","176.2","7.252","195.1","1010.577","33.44","29.79","926.0","0.0"],
    [1420061,"2026-07-09 13:00:00","6","3.417","185.1","5.488","169","1010.4939999999999","33.38","30.7","919.0","0.0"],
    [1420062,"2026-07-09 13:10:00","7","3.427","180.6","6.174","176","1010.414","33.13","31.48","910.0","0.0"],
    [1420063,"2026-07-09 13:20:00","8","3.53","190.5","6.174","180.9","1010.3610000000001","33.06","33.77","900.0","0.0"],
    [1420064,"2026-07-09 13:30:00","9","3.6660000000000004","182.3","5.978","173.7","1010.294","32.84","33.63","888.0","0.0"],
    [1420065,"2026-07-09 13:40:00","10","2.532","194.9","5.684","191","1010.192","33.51","34.99","872.0","0.0"],
    [1420066,"2026-07-09 13:50:00","11","3.093","188.2","6.076","197.6","1010.179","33.3","36.48","857.0","0.0"],
    [1420067,"2026-07-09 14:00:00","12","3.7560000000000002","180.2","6.468","172.1","1010.1489999999999","32.39","39.21","839.0","0.0"],
    [1420068,"2026-07-09 14:10:00","13","3.549","181.2","6.664","182.5","1010.074","32.64","40.48","820.0","0.0"],
    [1420069,"2026-07-09 14:20:00","14","3.137","173.6","5.586","177.1","1010.008","32.4","42.63","799.0","0.0"],
    [1420070,"2026-07-09 14:30:00","15","3.052","188.5","5.88","187.7","1009.939","32.44","44.13","776.9","0.0"],
    [1420071,"2026-07-09 14:40:00","16","3.335","197.2","6.174","219.2","1009.934","32.51","46.2","754.8","0.0"],
    [1420072,"2026-07-09 14:50:00","17","2.8089999999999997","200.9","5.586","208.4","1009.977","32.52","47.66","731.9","0.0"],
    [1420073,"2026-07-09 15:00:00","18","2.9930000000000003","195.6","5.586","217.3","1009.9639999999999","32.56","49.61","706.4","0.0"],
    [1420074,"2026-07-09 15:10:00","19","2.835","192.5","4.802","192.6","1009.919","32.37","51.24","681.5","0.0"],
    [1420075,"2026-07-09 15:20:00","20","2.612","188.4","4.704","166.6","1009.8789999999999","32.18","53.79","654.8","0.0"],
    [1420076,"2026-07-09 15:30:00","21","2.713","183.0","5.096","178.8","1009.827","31.93","53.78","595.8","0.0"],
    [1420077,"2026-07-09 15:40:00","22","3.0860000000000003","181.2","4.704","181.7","1009.818","31.53","52.47","602.7","0.0"],
    [1420078,"2026-07-09 15:50:00","23","2.2030000000000003","191.5","4.312","183.4","1009.748","32.15","50.19","539.2","0.0"],
    [1420079,"2026-07-09 16:00:00","24","2.542","186.7","4.998","177.6","1009.702","31.78","50.76","545.4","0.0"],
    [1420080,"2026-07-09 16:10:00","25","1.915","202.6","4.41","227.2","1009.637","32.0","49.06","516.9","0.0"],
    [1420081,"2026-07-09 16:20:00","26","2.04","197.3","4.116","179.7","1009.6310000000001","32.09","48.89","487.5","0.0"],
    [1420082,"2026-07-09 16:30:00","27","1.595","144.0","4.018","171.3","1009.586","32.02","47.22","456.7","0.0"],
    [1420083,"2026-07-09 16:40:00","28","1.5130000000000001","136.7","3.92","120","1009.554","31.99","44.7","424.6","0.0"],
    [1420084,"2026-07-09 16:50:00","29","1.3969999999999998","114.2","5.488","91.9","1009.543","32.07","45.04","396.2","0.0"],
    [1420085,"2026-07-09 17:00:00","30","1.824","104.5","4.802","83.9","1009.564","31.11","45.43","366.1","0.0"],
    [1420086,"2026-07-09 17:10:00","31","1.376","110.0","4.704","129","1009.5980000000001","31.63","44.79","334.2","0.0"],
    [1420087,"2026-07-09 17:20:00","32","1.96","88.0","4.018","82.5","1009.579","31.26","49.0","303.9","0.0"],
    [1420088,"2026-07-09 17:30:00","33","2.084","82.1","5.488","99.1","1009.564","30.72","51.88","272.2","0.0"],
    [1420089,"2026-07-09 17:40:00","34","2.008","84.1","4.312","87.1","1009.62","30.59","53.37","241.2","0.0"],
    [1420090,"2026-07-09 17:50:00","35","2.392","79.81","4.116","73.24","1009.585","30.4","56.52","211.5","0.0"],
    [1420091,"2026-07-09 18:00:00","36","1.9809999999999999","72.49","3.136","70.67","1009.5980000000001","30.22","54.88","180.1","0.0"],
    [1420092,"2026-07-09 18:10:00","37","2.252","69.33","3.234","82.6","1009.6239999999999","30.23","54.07","152.0","0.0"],
    [1420093,"2026-07-09 18:20:00","38","2.365","72.69","3.136","75.94","1009.543","30.02","55.03","126.7","0.0"],
    [1420094,"2026-07-09 18:30:00","39","2.543","71.13","3.92","79.82","1009.5089999999999","29.94","53.57","98.2","0.0"],
    [1420095,"2026-07-09 18:40:00","40","2.648","77.12","3.822","118.1","1009.549","29.78","54.05","67.31","0.0"],
    [1420096,"2026-07-09 18:50:00","41","2.349","73.05","4.606","95.9","1009.6030000000001","29.54","56.3","41.54","0.0"],
    [1420097,"2026-07-09 19:00:00","42","2.04","56.55","3.038","52.15","1009.7","29.21","60.23","24.29","0.0"],
    [1420098,"2026-07-09 19:10:00","43","1.962","55.25","2.842","51.76","1009.7289999999999","29.09","59.1","13.33","0.0"],
    [1420099,"2026-07-09 19:20:00","44","1.739","63.76","2.842","56.51","1009.7689999999999","29.18","53.86","4.315","0.0"],
    [1420100,"2026-07-09 19:30:00","45","1.72","59.66","2.45","52.05","1009.798","29.14","56.67","-0.113","0.0"],
    [1420101,"2026-07-09 19:40:00","46","1.528","67.25","2.352","70.56","1009.8539999999999","29.14","52.0","-2.448","0.0"],
    [1420102,"2026-07-09 19:50:00","47","1.374","69.77","2.156","72.26","1009.888","29.02","52.46","-3.4160000000000004","0.0"],
    [1420103,"2026-07-09 20:00:00","48","0.9059999999999999","76.74","2.352","65.81","1009.89","28.97","48.67","-3.8960000000000004","0.0"],
    [1420104,"2026-07-09 20:10:00","49","1.07","63.91","3.038","107.9","1009.945","29.1","50.03","-4.005","0.0"],
    [1420105,"2026-07-09 20:20:00","50","0.971","67.8","2.45","84.4","1010.051","28.97","51.32","-3.7239999999999998","0.0"],
    [1420106,"2026-07-09 20:30:00","51","0.635","81.1","2.156","61.92","1010.1310000000001","28.85","49.11","-4.083","0.0"],
    [1420107,"2026-07-09 20:40:00","52","0.28300000000000003","222.2","1.862","158.8","1010.145","29.12","47.51","-3.6010000000000004","0.0"],
    [1420108,"2026-07-09 20:50:00","53","0.439","256.4","1.078","253.8","1010.153","28.81","48.29","-3.787","0.0"],
    [1420109,"2026-07-09 21:00:00","54","0.106","315.6","0.784","319.9","1010.1610000000001","28.24","50.23","-4.011","0.0"],
    [1420110,"2026-07-09 21:10:00","55","0.018000000000000002","319.8","0.49","319.9","1010.173","27.81","51.71","-4.048","0.0"],
    [1420111,"2026-07-09 21:20:00","56","0.024","310.9","0.49","313.6","1010.15","27.55","53.45","-3.8560000000000003","0.0"],
    [1420112,"2026-07-09 21:30:00","57","0.077","308.3","0.588","308.5","1010.074","27.4","52.77","-3.347","0.0"],
    [1420113,"2026-07-09 21:40:00","58","0.41","272.5","0.882","261","1010.048","27.3","51.39","-3.3819999999999997","0.0"],
    [1420114,"2026-07-09 21:50:00","59","0.249","254.1","0.784","242.2","1009.997","26.88","55.82","-5.079","0.0"],
    [1420115,"2026-07-09 22:00:00","60","0.6659999999999999","239.8","0.98","240.2","1009.988","25.34","62.76","-5.505","0.0"],
    [1420116,"2026-07-09 22:10:00","61","0.373","253.3","0.882","245.4","1010.002","25.12","63.63","-3.5410000000000004","0.0"],
    [1420117,"2026-07-09 22:20:00","62","0.203","303.9","0.686","299.7","1010.0","24.81","64.93","-3.6460000000000004","0.0"],
    [1420118,"2026-07-09 22:30:00","63","0.0","0.0","0","289.4","1009.957","24.32","64.09","-5.474","0.0"],
    [1420119,"2026-07-09 22:40:00","64","0.541","280.6","1.372","294.7","1009.8510000000001","24.94","59.52","-3.8139999999999996","0.0"],
    [1420120,"2026-07-09 22:50:00","65","1.301","261.7","2.156","273.7","1009.8530000000001","26.14","54.74","-3.8789999999999996","0.0"],
    [1420121,"2026-07-09 23:00:00","66","1.187","251.4","2.254","254.1","1009.92","27.34","48.31","-3.3939999999999997","0.0"],
    [1420122,"2026-07-09 23:10:00","67","1.113","283.5","2.058","262","1009.779","26.49","51.31","-3.344","0.0"],
    [1420123,"2026-07-09 23:20:00","68","0.5329999999999999","278.5","1.176","301.1","1009.666","25.72","53.8","-3.975","0.0"],
    [1420124,"2026-07-09 23:30:00","69","1.079","279.2","1.764","270.1","1009.6289999999999","25.69","53.81","-3.912","0.0"],
    [1420125,"2026-07-09 23:40:00","70","0.85","269.5","1.666","253.6","1009.653","26.56","50.18","-3.365","0.0"],
    [1420126,"2026-07-09 23:50:00","71","0.8290000000000001","255.8","1.47","270","1009.5189999999999","26.26","50.99","-3.4989999999999997","0.0"],
    [1420127,"2026-07-10 00:00:00","72","1.004","267.2","2.352","268.8","1009.363","26.27","50.47","-3.435","0.0"],
    [1420128,"2026-07-10 00:10:00","73","1.35","263.6","2.45","271.9","1009.35","26.31","50.42","-3.542","0.0"],
    [1420129,"2026-07-10 00:20:00","74","1.4869999999999999","274.8","2.744","284.5","1009.2760000000001","25.65","51.78","-3.361","0.0"],
    [1420130,"2026-07-10 00:30:00","75","0.997","279.9","2.352","277.9","1009.137","25.37","51.84","-3.345","0.0"],
    [1420131,"2026-07-10 00:40:00","76","0.426","296.3","1.176","304","1008.982","24.83","52.65","-3.866","0.0"],
    [1420132,"2026-07-10 00:50:00","77","0.282","271.8","0.882","289.5","1008.811","24.99","51.64","-3.352","0.0"],
    [1420133,"2026-07-10 01:00:00","78","0.04","247.0","0.49","247.7","1008.558","25.49","49.95","-3.095","0.0"],
    [1420134,"2026-07-10 01:10:00","79","0.168","265.5","0.98","277.1","1008.418","25.17","51.32","-3.1","0.0"],
    [1420135,"2026-07-10 01:20:00","80","1.588","276.8","2.548","272.2","1008.3939999999999","25.03","52.03","-3.365","0.0"],
    [1420136,"2026-07-10 01:30:00","81","1.014","273.7","1.764","270.1","1008.3","24.88","51.94","-3.2739999999999996","0.0"],
    [1420137,"2026-07-10 01:40:00","82","0.573","274.1","1.078","263.4","1008.297","25.06","50.86","-3.263","0.0"],
    [1420138,"2026-07-10 01:50:00","83","1.179","265.1","2.156","274.9","1008.331","24.94","51.12","-3.458","0.0"],
    [1420139,"2026-07-10 02:00:00","84","0.635","302.5","1.764","294.3","1008.255","24.7","51.05","-3.32","0.0"],
    [1420140,"2026-07-10 02:10:00","85","0.45799999999999996","265.5","1.666","242","1008.336","24.23","52.47","-3.8930000000000002","0.0"],
    [1420141,"2026-07-10 02:20:00","86","1.3330000000000002","268.5","2.058","281.3","1008.37","25.05","49.85","-3.3160000000000003","0.0"],
    [1420142,"2026-07-10 02:30:00","87","0.971","284.6","1.372","283","1008.296","24.73","50.4","-3.2239999999999998","0.0"],
    [1420143,"2026-07-10 02:40:00","88","1.357","278.7","2.646","277.5","1008.288","24.6","50.88","-3.511","0.0"],
    [1420144,"2026-07-10 02:50:00","89","1.9040000000000001","277.7","3.136","275.1","1008.29","24.54","50.33","-3.2710000000000004","0.0"],
    [1420145,"2026-07-10 03:00:00","90","1.796","263.0","3.724","264.7","1008.3580000000001","24.31","50.79","-2.97","0.0"],
    [1420146,"2026-07-10 03:10:00","91","1.595","268.9","3.332","303.2","1008.3960000000001","24.41","49.9","-3.323","0.0"],
    [1420147,"2026-07-10 03:20:00","92","2.13","278.4","3.43","262","1008.3589999999999","23.72","51.45","-2.775","0.0"],
    [1420148,"2026-07-10 03:30:00","93","1.449","282.3","2.45","281.8","1008.3330000000001","23.4","52.34","-3.0869999999999997","0.0"],
    [1420149,"2026-07-10 03:40:00","94","1.7590000000000001","268.4","2.94","250.3","1008.362","23.42","51.95","-3.307","0.0"],
    [1420150,"2026-07-10 03:50:00","95","1.7280000000000002","281.5","2.744","295.3","1008.44","23.33","51.96","-2.8339999999999996","0.0"],
    [1420151,"2026-07-10 04:00:00","96","1.7719999999999998","265.5","2.548","269.3","1008.513","23.45","51.38","-3.3089999999999997","0.0"],
    [1420152,"2026-07-10 04:10:00","97","1.818","272.2","2.744","271.3","1008.5369999999999","23.59","50.53","-2.67","0.0"],
    [1420153,"2026-07-10 04:20:00","98","0.512","277.8","1.666","260.2","1008.555","23.45","50.63","-2.117","0.0"],
    [1420154,"2026-07-10 04:30:00","99","0.32899999999999996","305.1","0.98","263.1","1008.535","23.04","52.16","0.022000000000000002","0.0"],
    [1420155,"2026-07-10 04:40:00","100","0.342","326.6","0.882","309.3","1008.581","22.78","53.08","4.86","0.0"],
    [1420156,"2026-07-10 04:50:00","101","0.608","297.9","1.176","294.2","1008.695","23.05","52.58","14.34","0.0"],
    [1420157,"2026-07-10 05:00:00","102","0.02","314.5","0.392","314.5","1008.7539999999999","23.2","51.71","30.08","0.0"],
    [1420158,"2026-07-10 05:10:00","103","0.114","298.0","0.686","297.9","1008.824","23.55","51.76","50.57","0.0"],
    [1420159,"2026-07-10 05:20:00","104","0.016","290.8","0.588","297.7","1008.893","24.07","50.18","74.9","0.0"],
    [1420160,"2026-07-10 05:30:00","105","0.433","260.3","1.176","282.7","1009.0160000000001","24.85","48.21","92.2","0.0"],
    [1420161,"2026-07-10 05:40:00","106","0.18899999999999997","267.6","1.176","241.2","1009.175","25.55","46.5","101.3","0.0"],
    [1420162,"2026-07-10 05:50:00","107","0.821","289.8","1.568","294.1","1009.307","25.69","46.23","114.7","0.0"],
    [1420163,"2026-07-10 06:00:00","108","0.6859999999999999","304.7","1.666","305.4","1009.4810000000001","25.64","45.99","139.1","0.0"],
    [1420164,"2026-07-10 06:10:00","109","0.57","355.7","3.626","34.01","1009.6389999999999","26.22","47.82","164.4","0.0"],
    [1420165,"2026-07-10 06:20:00","110","3.2489999999999997","40.52","4.704","40.89","1009.722","26.94","52.94","188.4","0.0"],
    [1420166,"2026-07-10 06:30:00","111","2.324","50.02","4.018","51.16","1009.784","27.4","51.52","219.1","0.0"],
    [1420167,"2026-07-10 06:40:00","112","2.131","38.52","3.136","49.08","1009.888","27.79","54.41","267.2","0.0"],
    [1420168,"2026-07-10 06:50:00","113","2.311","48.51","3.724","46.76","1009.909","27.99","52.39","280.9","0.0"],
    [1420169,"2026-07-10 07:00:00","114","1.9280000000000002","39.43","3.332","61.4","1010.068","28.11","51.66","329.7","0.0"],
    [1420170,"2026-07-10 07:10:00","115","3.418","53.66","5.488","58.05","1010.061","28.04","52.2","352.0","0.0"],
    [1420171,"2026-07-10 07:20:00","0","3.43","53.42","4.998","31.98","1010.047","28.07","56.14","389.2","0.0"],
    [1420172,"2026-07-10 07:30:00","0","3.912","53.09","5.586","48.66","1010.1419999999999","27.91","61.12","425.6","0.0"],
    [1420173,"2026-07-10 07:40:00","1","4.454","51.86","6.174","46.77","1010.18","27.72","63.89","451.2","0.0"],
    [1420174,"2026-07-10 07:50:00","2","4.406000000000001","53.46","6.37","47.54","1010.173","27.58","64.46","483.7","0.0"],
    [1420175,"2026-07-10 08:00:00","3","4.552","53.04","6.664","35.23","1010.182","27.83","63.79","516.1","0.0"],
    [1420176,"2026-07-10 08:10:00","4","3.84","48.35","6.468","52.92","1010.24","28.04","63.05","543.6","0.0"],
    [1420177,"2026-07-10 08:20:00","5","4.263","58.4","6.076","71.92","1010.2330000000001","28.2","64.85","559.3","0.0"],
    [1420178,"2026-07-10 08:30:00","6","3.859","49.05","5.88","47.4","1010.237","28.36","67.89","603.4","0.0"],
    [1420179,"2026-07-10 08:40:00","7","4.5760000000000005","59.58","6.958","75.85","1010.309","28.45","70.13","608.2","0.0"],
    [1420180,"2026-07-10 08:50:00","8","4.031000000000001","57.81","6.076","71.24","1010.419","28.78","70.34","673.7","0.0"],
    [1420181,"2026-07-10 09:00:00","9","3.818","52.49","5.88","53.26","1010.4789999999999","28.97","71.45","681.2","0.0"],
    [1420182,"2026-07-10 09:10:00","10","4.266","59.66","6.174","56.32","1010.5139999999999","29.03","72.55","748.5","0.0"],
    [1420183,"2026-07-10 09:20:00","11","4.228","57.39","5.88","64.7","1010.5139999999999","28.82","74.64","811.0","0.0"],
    [1420184,"2026-07-10 09:30:00","12","4.325","56.46","6.076","51.08","1010.47","28.91","74.93","832.0","0.0"],
    [1420185,"2026-07-10 09:40:00","13","4.357","55.58","6.174","43.76","1010.5060000000001","29.04","74.55","826.0","0.0"],
    [1420186,"2026-07-10 09:50:00","14","4.013999999999999","52.73","5.782","49.92","1010.5319999999999","29.12","74.67","812.0","0.0"],
    [1420187,"2026-07-10 10:00:00","15","4.588","57.99","6.762","55.73","1010.564","29.32","74.32","857.0","0.0"],
    [1420188,"2026-07-10 10:10:00","16","4.977","57.47","6.958","65.18","1010.533","28.57","77.81","666.7","0.0"],
    [1420189,"2026-07-10 10:20:00","17","5.082","58.21","7.448","41.78","1010.507","28.38","79.52","543.9","0.0"],
    [1420190,"2026-07-10 10:30:00","18","4.345","52.55","6.958","60.29","1010.5260000000001","29.15","77.05","935.0","0.0"],
    [1420191,"2026-07-10 10:40:00","19","5.341","52.14","7.742","31.36","1010.4630000000001","29.22","76.82","839.0","0.0"],
    [1420192,"2026-07-10 10:50:00","20","6.001","57.02","8.33","58.16","1010.3960000000001","28.79","78.4","631.9","0.0"],
    [1420193,"2026-07-10 11:00:00","21","6.181","53.37","8.23","57.04","1010.365","28.88","78.43","901.0","0.0"],
    [1420194,"2026-07-10 11:10:00","22","6.245","54.82","8.62","56.02","1010.352","28.89","78.36","704.4","0.0"],
    [1420195,"2026-07-10 11:20:00","23","6.377000000000001","55.57","8.72","48.46","1010.285","28.77","79.17","780.4","0.0"],
    [1420196,"2026-07-10 11:30:00","24","6.167000000000001","59.13","8.92","55.35","1010.288","29.05","78.29","939.0","0.0"],
    [1420197,"2026-07-10 11:40:00","25","6.506","55.22","9.31","61.02","1010.293","28.96","78.18","960.0","0.0"],
    [1420198,"2026-07-10 11:50:00","26","6.276","54.24","8.72","48.66","1010.318","29.06","76.91","902.0","0.0"],
    [1420199,"2026-07-10 12:00:00","27","6.023","56.75","8.53","47.2","1010.368","29.03","76.39","949.0","0.0"],
    [1420200,"2026-07-10 12:10:00","28","6.14","51.37","8.43","53.5","1010.3689999999999","29.03","75.17","943.0","0.0"],
    [1420201,"2026-07-10 12:20:00","29","5.763999999999999","55.61","8.43","43.62","1010.334","29.25","73.76","940.0","0.0"],
    [1420202,"2026-07-10 12:30:00","30","5.202000000000001","65.52","7.644","79.19","1010.385","29.5","72.18","936.0","0.0"],
    [1420203,"2026-07-10 12:40:00","31","5.6339999999999995","71.41","8.13","60.29","1010.372","29.22","71.72","933.0","0.0"],
    [1420204,"2026-07-10 12:50:00","32","5.751","73.75","8.33","85.5","1010.415","29.25","70.17","931.0","0.0"],
    [1420205,"2026-07-10 13:00:00","33","5.72","82.8","7.938","80.3","1010.4630000000001","29.31","69.87","925.0","0.0"],
    [1420206,"2026-07-10 13:10:00","34","5.962999999999999","78.85","8.33","78.66","1010.435","29.46","70.27","915.0","0.0"],
    [1420207,"2026-07-10 13:20:00","35","5.271","84.4","7.546","94.2","1010.5010000000001","29.3","69.44","854.0","0.0"],
    [1420208,"2026-07-10 13:30:00","36","5.968","73.28","8.23","87.3","1010.311","29.21","70.79","831.0","0.0"],
    [1420209,"2026-07-10 13:40:00","37","5.683","82.4","8.23","89.9","1010.403","28.51","73.28","547.4","0.0"],
    [1420210,"2026-07-10 13:50:00","38","5.227","83.3","8.13","85.9","1010.538","28.22","73.9","585.9","0.0"],
    [1420211,"2026-07-10 14:00:00","39","5.093","81.1","7.546","83.5","1010.57","27.98","74.18","247.4","0.0"],
    [1420212,"2026-07-10 14:10:00","40","5.44","66.16","7.448","70.37","1010.315","27.71","76.17","171.3","0.0"],
    [1420213,"2026-07-10 14:20:00","41","5.358","61.7","8.33","66.2","1010.068","27.63","75.72","112.2","0.0"],
    [1420214,"2026-07-10 14:30:00","42","6.3839999999999995","52.84","9.7","40.13","1009.6039999999999","27.2","77.9","124.6","0.0"],
    [1420215,"2026-07-10 14:40:00","43","6.007000000000001","62.9","8.62","53.41","1009.321","27.27","77.23","365.2","0.0"],
    [1420216,"2026-07-10 14:50:00","44","6.809","80.0","9.41","75.5","1009.76","28.22","73.35","827.0","0.0"],
    [1420217,"2026-07-10 15:00:00","45","6.111000000000001","74.87","9.21","103.9","1009.913","28.27","72.41","745.9","0.0"],
    [1420218,"2026-07-10 15:10:00","46","5.794","83.9","7.84","79.77","1010.2180000000001","28.1","72.77","699.6","0.0"],
    [1420219,"2026-07-10 17:40:00","0","3.79","56.46","5.684","53.06","1010.3969999999999","26.78","75.79","52.22","0.0"],
    [1420220,"2026-07-10 17:50:00","1","4.062","66.84","6.566","61.92","1010.5110000000001","26.54","78.21","57.88","0.0"],
    [1420221,"2026-07-10 18:00:00","2","4.1080000000000005","50.88","6.37","70.4","1010.3489999999999","26.39","80.9","66.29","0.0"],
    [1420222,"2026-07-10 18:10:00","3","4.178999999999999","48.13","7.742","55.76","1010.243","26.27","81.4","48.64","0.0"],
    [1420223,"2026-07-10 18:20:00","4","4.887","56.74","7.35","53.58","1010.245","26.06","81.7","41.08","0.0"],
    [1420224,"2026-07-10 18:30:00","5","3.945","53.75","5.978","42.34","1010.395","25.95","82.0","27.6","0.0"],
    [1420225,"2026-07-10 18:40:00","6","3.805","57.27","6.174","64.73","1010.562","25.95","81.7","22.34","0.0"],
    [1420226,"2026-07-10 18:50:00","7","4.152","52.65","6.664","61","1010.472","25.86","82.0","16.45","0.0"],
    [1420227,"2026-07-10 19:00:00","8","4.237","38.91","6.762","30.62","1010.4069999999999","25.8","82.1","10.74","0.0"],
    [1420228,"2026-07-10 19:10:00","9","3.7460000000000004","46.25","5.684","48.11","1010.563","25.74","82.4","6.167000000000001","0.0"],
    [1420229,"2026-07-10 19:20:00","10","3.153","42.7","4.802","24.18","1010.702","25.68","82.6","4.914","0.0"],
    [1420230,"2026-07-10 19:30:00","11","2.48","50.85","4.704","53.49","1010.852","25.68","82.5","0.757","0.0"],
    [1420231,"2026-07-10 19:40:00","12","3.0010000000000003","32.03","4.802","10.66","1011.012","25.62","82.1","-1.055","0.0"],
    [1420232,"2026-07-10 19:50:00","13","3.263","26.51","4.802","26.26","1011.0160000000001","25.56","82.0","-1.9969999999999999","0.0"],
    [1420233,"2026-07-10 20:00:00","14","3.522","26.2","6.174","25.77","1011.007","25.61","81.5","-2.592","0.0"],
    [1420234,"2026-07-10 20:10:00","15","3.0380000000000003","27.78","6.076","35.95","1011.076","25.55","82.2","-2.592","0.0"],
    [1420235,"2026-07-10 20:20:00","16","2.813","32.44","4.9","6.976","1011.078","25.47","82.7","-2.593","0.0"],
    [1420236,"2026-07-10 20:30:00","17","3.403","44.71","5.684","53.39","1011.347","25.34","83.7","-2.594","0.0"],
    [1420237,"2026-07-10 20:40:00","0","3.4960000000000004","51.53","5.782","42.34","1011.6389999999999","25.21","82.9","-2.59","0.0"],
    [1420238,"2026-07-10 20:50:00","1","3.71","53.31","5.782","52.86","1011.654","25.21","81.9","-2.592","0.0"],
    [1420239,"2026-07-10 21:00:00","2","3.428","54.7","5.684","53.83","1011.696","25.24","81.6","-2.593","0.0"],
    [1420240,"2026-07-10 21:10:00","3","3.947","66.85","6.076","73.74","1011.694","25.28","82.3","-2.593","0.0"],
    [1420241,"2026-07-10 21:20:00","4","4.414","60.11","6.86","61.77","1011.544","25.27","83.3","-2.593","0.0"],
    [1420242,"2026-07-10 21:30:00","5","3.717","63.29","6.174","69.28","1011.7489999999999","25.24","83.2","-2.591","0.0"],
    [1420243,"2026-07-10 21:40:00","6","3.747","68.25","5.782","59.3","1011.8530000000001","25.29","83.5","-2.592","0.0"],
    [1420244,"2026-07-10 21:50:00","7","3.728","70.92","5.782","87.7","1011.818","25.25","84.3","-2.593","0.0"],
    [1420245,"2026-07-10 22:00:00","8","3.773","71.25","5.194","78.05","1011.828","25.16","84.3","-2.592","0.0"],
    [1420246,"2026-07-10 22:10:00","9","3.917","69.79","6.272","65.79","1011.752","25.14","84.1","-2.585","0.0"],
    [1420247,"2026-07-10 22:20:00","10","3.752","67.51","5.684","79.07","1011.829","25.04","84.1","-2.565","0.0"],
    [1420248,"2026-07-10 22:30:00","11","3.785","65.01","6.076","64.92","1011.895","25.09","84.2","-2.22","0.0"],
    [1420249,"2026-07-10 22:40:00","12","4.029","62.82","5.978","79.55","1011.7610000000001","25.1","84.4","-2.986","0.0"],
    [1420250,"2026-07-10 22:50:00","13","3.853","61.75","6.076","69.43","1011.66","25.1","83.5","-3.04","0.0"],
    [1420251,"2026-07-10 23:00:00","14","3.468","58.94","5.586","54.65","1011.617","25.09","83.8","-2.592","0.0"],
    [1420252,"2026-07-10 23:10:00","15","4.067","60.11","6.958","72.53","1011.5160000000001","25.09","83.4","-2.338","0.0"],
    [1420253,"2026-07-10 23:20:00","16","4.599","58.92","7.056","68.07","1011.363","25.18","82.3","-1.84","0.0"],
    [1420254,"2026-07-10 23:30:00","17","4.218999999999999","53.93","7.154","54.89","1011.3639999999999","25.2","82.3","-2.059","0.0"],
    [1420255,"2026-07-10 23:40:00","18","3.4819999999999998","51.21","6.272","61.24","1011.552","25.24","82.6","-2.051","0.0"],
    [1420256,"2026-07-10 23:50:00","19","4.773","58.51","7.742","77.13","1011.436","25.27","82.3","-1.89","0.0"],
    [1420257,"2026-07-11 00:00:00","20","5.499","62.01","8.04","59.54","1011.1519999999999","25.32","82.8","-1.847","0.0"],
    [1420258,"2026-07-11 00:10:00","21","5.412000000000001","61.44","8.33","62.79","1010.993","25.35","83.3","-1.361","0.0"],
    [1420259,"2026-07-11 00:20:00","22","5.956","62.43","8.72","76.01","1010.8960000000001","25.36","83.6","-1.148","0.0"],
    [1420260,"2026-07-11 00:30:00","23","5.832999999999999","60.73","9.02","61.72","1010.865","25.34","83.7","-1.092","0.0"],
    [1420261,"2026-07-11 00:40:00","24","5.941","59.84","8.82","57.6","1010.8430000000001","25.33","83.6","-1.092","0.0"],
    [1420262,"2026-07-11 00:50:00","25","5.3660000000000005","52.11","8.82","59.78","1010.904","25.28","83.7","-1.097","0.0"],
    [1420263,"2026-07-11 01:00:00","26","4.76","54.82","8.33","22.96","1011.112","25.24","83.6","-1.1540000000000001","0.0"],
    [1420264,"2026-07-11 01:10:00","27","4.216","56.61","6.468","65.84","1011.378","25.22","83.6","-1.115","0.0"],
    [1420265,"2026-07-11 01:20:00","28","4.631","54.5","7.252","64.53","1011.313","25.22","82.5","-1.094","0.0"],
    [1420266,"2026-07-11 01:30:00","29","4.855","59.79","7.35","47.58","1011.258","25.3","81.4","-1.092","0.0"],
    [1420267,"2026-07-11 01:40:00","30","4.487","60.78","7.056","71.99","1011.3380000000001","25.34","81.1","-1.0959999999999999","0.0"],
    [1420268,"2026-07-11 01:50:00","31","4.4319999999999995","59.86","7.448","69.18","1011.317","25.33","81.4","-1.107","0.0"],
    [1420269,"2026-07-11 02:00:00","32","4.271","61.91","7.742","81.6","1011.273","25.29","81.9","-1.129","0.0"],
    [1420270,"2026-07-11 02:10:00","33","4.707","62.79","7.056","63.32","1011.291","25.26","82.4","-1.107","0.0"],
    [1420271,"2026-07-11 02:20:00","34","5.322","61.24","7.84","57.27","1011.2719999999999","25.18","82.9","-1.097","0.0"],
    [1420272,"2026-07-11 02:30:00","35","5.185","59.49","8.23","55.67","1011.2230000000001","25.15","83.2","-1.095","0.0"],
    [1420273,"2026-07-11 02:40:00","36","5.136","58.53","8.23","40.41","1011.368","25.15","83.4","-1.092","0.0"],
    [1420274,"2026-07-11 02:50:00","37","5.132999999999999","58.45","8.33","54.26","1011.442","25.1","83.5","-1.101","0.0"],
    [1420275,"2026-07-11 03:00:00","38","4.776","56.65","7.84","67","1011.5210000000001","25.06","82.9","-1.092","0.0"],
    [1420276,"2026-07-11 03:10:00","39","5.019","58.9","7.938","70.64","1011.475","25.04","82.0","-1.501","0.0"],
    [1420277,"2026-07-11 03:20:00","40","5.504","56.19","8.53","55.71","1011.523","25.02","82.7","-1.12","0.0"],
    [1420278,"2026-07-11 03:30:00","41","5.058","55.81","9.02","54.94","1011.81","24.81","82.7","-1.123","0.0"],
    [1420279,"2026-07-11 03:40:00","42","5.472","57.41","8.33","50.48","1011.8580000000001","24.72","82.2","-1.114","0.0"],
    [1420280,"2026-07-11 03:50:00","43","4.96","59.54","8.33","68.99","1011.898","24.75","82.5","-1.1","0.0"],
    [1420281,"2026-07-11 04:00:00","44","5.785","57.66","9.31","46.41","1011.885","24.73","82.3","-1.156","0.0"],
    [1420282,"2026-07-11 04:10:00","45","5.237","56.36","8.43","45.83","1011.7869999999999","24.7","81.9","-1.443","0.0"],
    [1420283,"2026-07-11 04:20:00","46","5.55","58.33","9.7","49.8","1011.778","24.78","81.4","-0.998","0.0"],
    [1420284,"2026-07-11 04:30:00","47","5.472","53.29","9.51","66.08","1011.8580000000001","24.77","80.9","0.42700000000000005","0.0"],
    [1420285,"2026-07-11 04:40:00","48","5.141","54.28","8.13","52.37","1011.842","24.74","81.1","3.023","0.0"],
    [1420286,"2026-07-11 04:50:00","49","5.119","51.87","7.448","43.65","1011.835","24.74","81.3","9.13","0.0"],
    [1420287,"2026-07-11 05:00:00","50","5.047","54.07","8.62","68.75","1011.816","24.78","80.2","22.13","0.0"],
    [1420288,"2026-07-11 05:10:00","51","5.229","54.99","8.62","42.97","1011.8639999999999","24.98","78.02","42.83","0.0"],
    [1420289,"2026-07-11 05:20:00","52","5.775","53.21","9.02","46.9","1012.061","25.13","76.62","47.3","0.0"],
    [1420290,"2026-07-11 05:30:00","53","5.341","56.49","8.62","46.56","1011.992","25.21","76.11","54.69","0.0"],
    [1420291,"2026-07-11 05:40:00","54","5.3260000000000005","56.73","8.43","63.81","1011.88","25.34","75.83","105.2","0.0"],
    [1420292,"2026-07-11 05:50:00","55","6.361000000000001","64.22","10.19","57.02","1011.863","25.58","74.81","112.9","0.0"],
    [1420293,"2026-07-11 06:00:00","56","6.178","63.73","9.7","70.2","1011.9069999999999","25.78","75.22","175.0","0.0"],
    [1420294,"2026-07-11 06:10:00","57","6.138999999999999","60.76","9.8","70.83","1011.977","25.92","74.68","166.2","0.0"],
    [1420295,"2026-07-11 06:20:00","58","5.192","51.09","8.33","58.04","1012.4169999999999","25.94","74.93","226.0","0.0"],
    [1420296,"2026-07-11 06:30:00","59","3.972","56.79","7.448","48.54","1012.424","26.33","73.53","223.7","0.0"],
    [1420297,"2026-07-11 06:40:00","60","3.665","57.45","5.684","74.9","1012.4019999999999","25.84","75.46","125.1","0.0"],
    [1420298,"2026-07-11 06:50:00","61","4.445","58.14","6.958","51.26","1012.25","25.63","76.45","118.5","0.0"],
    [1420299,"2026-07-11 07:00:00","62","3.923","55.13","6.664","51.84","1012.2510000000001","25.69","76.92","173.3","0.0"],
    [1420300,"2026-07-11 07:10:00","63","5.03","55.27","7.938","49.27","1012.198","25.97","75.35","262.5","0.0"],
    [1420301,"2026-07-11 07:20:00","64","4.59","53.75","8.82","67.25","1012.329","26.46","72.77","400.6","0.0"],
    [1420302,"2026-07-11 07:30:00","65","5.265","53.44","8.43","59.78","1012.47","26.75","71.88","432.3","0.0"],
    [1420303,"2026-07-11 07:40:00","66","6.013","55.55","8.92","50.73","1012.53","26.81","71.6","469.4","0.0"],
    [1420304,"2026-07-11 07:50:00","67","5.729","56.03","9.51","41.43","1012.4989999999999","26.94","70.3","444.9","0.0"],
    [1420305,"2026-07-11 08:00:00","68","5.7829999999999995","56.98","9.02","55.19","1012.44","26.83","71.88","348.0","0.0"],
    [1420306,"2026-07-11 08:10:00","69","5.063","42.37","8.53","39.06","1012.471","26.99","71.02","518.5","0.0"],
    [1420307,"2026-07-11 08:20:00","70","4.836","37.34","7.742","39.54","1012.563","27.15","70.16","552.2","0.0"],
    [1420308,"2026-07-11 08:30:00","71","4.962","56.67","7.644","66.29","1012.5369999999999","27.35","69.53","532.0","0.0"],
    [1420309,"2026-07-11 08:40:00","72","5.3020000000000005","61.8","7.742","50.45","1012.502","27.67","67.16","577.6","0.0"],
    [1420310,"2026-07-11 08:50:00","73","5.7379999999999995","57.23","8.92","52.92","1012.52","27.85","67.1","643.2","0.0"],
    [1420311,"2026-07-11 09:00:00","74","5.837999999999999","63.28","8.82","70.47","1012.554","28.06","66.32","643.9","0.0"],
    [1420312,"2026-07-11 09:10:00","75","5.819","61.23","8.72","68.33","1012.4630000000001","28.06","66.16","698.5","0.0"],
    [1420313,"2026-07-11 09:20:00","76","5.359","63.49","8.13","57.82","1012.528","28.27","65.37","723.2","0.0"],
    [1420314,"2026-07-11 09:30:00","77","5.797999999999999","67.09","9.02","61.89","1012.5939999999999","28.41","65.13","746.7","0.0"],
    [1420315,"2026-07-11 09:40:00","78","5.874","67.03","8.72","84.1","1012.5989999999999","28.47","65.42","769.7","0.0"],
    [1420316,"2026-07-11 09:50:00","79","5.379","67.85","8.72","81.5","1012.64","28.64","65.13","789.7","0.0"],
    [1420317,"2026-07-11 10:00:00","80","6.087999999999999","70.97","8.53","80.5","1012.747","28.59","65.38","810.0","0.0"],
    [1420318,"2026-07-11 10:10:00","81","5.968","66.8","9.11","61.11","1012.7139999999999","28.79","65.05","830.0","0.0"],
    [1420319,"2026-07-11 10:20:00","82","5.711","71.29","7.938","79.14","1012.7130000000001","28.68","65.62","846.0","0.0"],
    [1420320,"2026-07-11 10:30:00","83","5.816","71.69","8.62","77.49","1012.706","28.95","65.67","866.0","0.0"],
    [1420321,"2026-07-11 10:40:00","84","5.295","80.3","8.72","86.5","1012.872","29.06","65.68","880.0","0.0"],
    [1420322,"2026-07-11 10:50:00","85","6.015","84.7","8.92","87.5","1013.002","28.88","65.17","896.0","0.0"],
    [1420323,"2026-07-11 11:00:00","86","6.297999999999999","82.7","10.09","75.41","1013.0010000000001","29.22","64.19","905.0","0.0"],
    [1420324,"2026-07-11 11:10:00","87","6.25","86.3","9.21","75.7","1012.9810000000001","28.9","66.15","916.0","0.0"],
    [1420325,"2026-07-11 11:20:00","88","5.587000000000001","89.0","8.53","91","1013.008","28.81","67.13","922.0","0.0"],
    [1420326,"2026-07-11 11:30:00","89","5.22","90.2","7.938","76.19","1013.0989999999999","28.94","66.8","928.0","0.0"],
    [1420327,"2026-07-11 11:40:00","90","5.645","90.7","9.31","90.6","1013.069","28.86","67.15","934.0","0.0"],
    [1420328,"2026-07-11 11:50:00","91","5.971","93.8","9.21","84.1","1013.054","28.61","68.86","937.0","0.0"],
    [1420329,"2026-07-11 12:00:00","92","6.084","89.5","9.6","71.92","1013.015","28.67","69.52","937.0","0.0"],
    [1420330,"2026-07-11 12:10:00","93","6.535","88.2","9.31","101.6","1012.935","28.52","69.81","937.0","0.0"],
    [1420331,"2026-07-11 12:20:00","94","6.329","86.8","8.53","87.7","1012.904","28.65","69.63","932.0","0.0"],
    [1420332,"2026-07-11 12:30:00","95","6.3229999999999995","87.8","9.11","77.2","1012.8939999999999","28.59","71.12","929.0","0.0"],
    [1420333,"2026-07-11 12:50:00","0","6.065","85.4","8.53","77.93","1012.975","28.23","73.71","906.0","0.0"],
    [1420334,"2026-07-11 13:00:00","1","5.848","83.4","8.72","92.9","1012.959","28.51","71.93","898.0","0.0"],
    [1420335,"2026-07-11 13:10:00","2","5.4510000000000005","82.9","7.154","91.4","1012.9860000000001","28.63","72.2","913.0","0.0"],
    [1420336,"2026-07-11 13:20:00","3","5.803999999999999","78.1","7.84","93.8","1013.002","28.55","72.42","930.0","0.0"],
    [1420337,"2026-07-11 13:30:00","4","5.604","77.35","8.33","83.8","1012.9989999999999","28.77","71.43","916.0","0.0"],
    [1420338,"2026-07-11 13:40:00","5","5.455","79.01","7.644","93.2","1012.962","28.62","72.09","904.0","0.0"],
    [1420339,"2026-07-11 13:50:00","6","5.711","81.5","7.644","76.82","1013.035","28.17","73.42","721.4","0.0"],
    [1420340,"2026-07-11 14:00:00","7","5.487","74.38","8.04","82.5","1012.935","28.22","73.47","639.5","0.0"],
    [1420341,"2026-07-11 14:10:00","8","5.441","76.39","7.742","91.2","1012.883","28.35","72.59","746.0","0.0"],
    [1420342,"2026-07-11 14:20:00","9","5.277","81.1","7.644","90.4","1012.8539999999999","28.16","73.15","662.6","0.0"],
    [1420343,"2026-07-11 14:30:00","10","5.528","81.2","8.23","82","1012.804","27.95","74.11","747.5","0.0"],
    [1420344,"2026-07-11 14:40:00","11","5.406000000000001","82.3","7.644","90.2","1012.7810000000001","28.19","73.1","655.3","0.0"],
    [1420345,"2026-07-11 14:50:00","12","5.058","77.33","7.546","91.5","1012.615","27.83","74.8","515.0","0.0"],
    [1420346,"2026-07-11 15:00:00","13","5.157","84.6","7.252","80.4","1012.5310000000001","27.98","73.83","759.9","0.0"],
    [1420347,"2026-07-11 15:10:00","14","4.988","86.0","6.762","89.9","1012.5269999999999","28.06","73.01","631.4","0.0"],
    [1420348,"2026-07-11 15:20:00","15","4.748","71.76","7.35","70.95","1012.498","28.04","73.34","467.6","0.0"],
    [1420349,"2026-07-11 15:30:00","16","4.746","81.1","6.762","87.7","1012.5219999999999","28.0","73.09","388.1","0.0"],
    [1420350,"2026-07-11 15:40:00","17","4.126","81.7","5.782","74.2","1012.547","27.52","74.93","263.8","0.0"],
    [1420351,"2026-07-11 15:50:00","18","4.075","83.4","6.076","80.4","1012.5210000000001","27.55","74.42","433.0","0.0"],
    [1420352,"2026-07-11 16:00:00","19","4.343999999999999","81.8","6.174","83.5","1012.3989999999999","27.62","74.45","359.6","0.0"],
    [1420353,"2026-07-11 16:10:00","20","4.53","75.51","6.37","84.6","1012.419","27.54","74.74","345.3","0.0"],
    [1420354,"2026-07-11 16:20:00","21","4.361000000000001","77.89","6.174","79.77","1012.443","27.77","73.67","498.3","0.0"],
    [1420355,"2026-07-11 16:30:00","22","3.9","76.36","5.88","68.04","1012.48","27.73","73.41","443.7","0.0"],
    [1420356,"2026-07-11 16:40:00","23","4.185","76.24","6.174","74.78","1012.4169999999999","27.71","74.07","366.2","0.0"],
    [1420357,"2026-07-11 16:50:00","24","4.308","83.6","5.586","71.77","1012.419","27.32","75.28","316.0","0.0"],
    [1420358,"2026-07-11 17:00:00","25","3.719","76.43","5.39","96.4","1012.52","27.32","75.99","283.5","0.0"],
    [1420359,"2026-07-11 17:10:00","26","3.4739999999999998","85.3","6.272","87.9","1012.566","27.23","75.84","159.2","0.0"],
    [1420360,"2026-07-11 17:20:00","27","3.4130000000000003","68.28","4.998","66.58","1012.528","27.1","76.61","117.4","0.0"],
    [1420361,"2026-07-11 17:30:00","28","3.28","69.85","4.606","60.81","1012.544","26.93","77.46","143.5","0.0"],
    [1420362,"2026-07-11 17:40:00","29","3.2310000000000003","66.71","4.802","81.4","1012.562","27.02","77.51","150.4","0.0"],
    [1420363,"2026-07-11 17:50:00","30","3.516","69.61","5.096","77.53","1012.561","26.8","78.77","126.4","0.0"],
    [1420364,"2026-07-11 18:00:00","31","3.536","72.66","4.9","81.2","1012.4939999999999","26.87","78.63","169.9","0.0"],
    [1420365,"2026-07-11 18:10:00","32","3.091","60.95","4.802","78.26","1012.587","26.85","78.48","150.8","0.0"],
    [1420366,"2026-07-11 18:20:00","33","3.045","62.58","4.312","53.98","1012.684","26.74","78.89","109.9","0.0"],
    [1420367,"2026-07-11 18:30:00","34","3.215","71.08","5.194","90.5","1012.74","26.59","79.45","84.5","0.0"],
    [1420368,"2026-07-11 18:40:00","35","2.85","72.81","4.116","74.23","1012.81","26.57","79.68","57.43","0.0"],
    [1420369,"2026-07-11 18:50:00","36","2.753","65.91","3.822","87.8","1013.0089999999999","26.52","79.87","38.31","0.0"],
    [1420370,"2026-07-11 19:00:00","37","2.434","68.52","3.822","59.59","1013.053","26.38","80.0","25.51","0.0"],
    [1420371,"2026-07-11 19:10:00","38","2.661","63.14","3.92","81.9","1012.9789999999999","26.34","79.92","14.93","0.0"],
    [1420372,"2026-07-11 19:20:00","39","3.109","56.44","4.606","52.32","1012.89","26.26","80.6","7.041","0.0"],
    [1420373,"2026-07-11 19:30:00","40","3.3110000000000004","57.06","5.39","43.26","1012.796","26.04","81.1","1.4780000000000002","0.0"],
    [1420374,"2026-07-11 19:40:00","41","3.13","63.21","4.998","57.56","1012.8760000000001","25.99","81.4","-0.831","0.0"],
    [1420375,"2026-07-11 19:50:00","42","2.67","61.77","4.41","42.73","1013.0319999999999","25.98","82.0","-2.201","0.0"],
    [1420376,"2026-07-11 20:00:00","43","3.391","51.71","5.292","58.23","1013.072","25.92","82.6","-2.574","0.0"],
    [1420377,"2026-07-11 20:10:00","44","3.947","40.81","5.978","41.37","1013.1619999999999","25.89","83.3","-2.428","0.0"],
    [1420378,"2026-07-11 20:20:00","45","3.233","48.79","5.39","54.65","1013.297","25.88","83.4","-2.562","0.0"],
    [1420379,"2026-07-11 20:30:00","46","2.842","52.94","4.704","46.99","1013.395","25.83","83.5","-2.504","0.0"],
    [1420380,"2026-07-11 20:40:00","47","3.2289999999999996","55.03","5.096","65.21","1013.436","25.79","83.6","-2.56","0.0"],
    [1420381,"2026-07-11 20:50:00","48","3.318","52.06","5.096","58.23","1013.5089999999999","25.8","84.0","-2.542","0.0"],
    [1420382,"2026-07-11 21:00:00","49","3.3169999999999997","51.26","5.194","49.32","1013.677","25.72","84.3","-2.536","0.0"],
    [1420383,"2026-07-11 21:10:00","50","2.841","46.71","4.704","44.62","1013.865","25.72","84.9","-2.282","0.0"],
    [1420384,"2026-07-11 21:20:00","51","3.234","53.32","5.488","53.83","1013.95","25.7","85.1","-2.12","0.0"],
    [1420385,"2026-07-11 21:30:00","52","3.438","53.33","5.978","68.26","1013.865","25.64","85.7","-1.8719999999999999","0.0"],
    [1420386,"2026-07-11 21:40:00","53","3.912","51.07","6.174","53.87","1013.815","25.49","85.9","-1.865","0.0"],
    [1420387,"2026-07-11 21:50:00","54","3.237","53.58","5.194","66.76","1013.956","25.44","85.8","-2.213","0.0"],
    [1420388,"2026-07-11 22:00:00","55","3.389","55.08","5.978","58.14","1014.0039999999999","25.41","85.8","-2.031","0.0"],
    [1420389,"2026-07-11 22:10:00","56","3.389","55.99","5.194","49.51","1014.056","25.35","86.3","-2.173","0.0"],
    [1420390,"2026-07-11 22:20:00","57","3.1069999999999998","53.95","5.194","61.82","1014.203","25.37","86.7","-2.356","0.0"],
    [1420391,"2026-07-11 22:30:00","58","3.477","58.69","5.194","66.32","1014.278","25.36","86.8","-1.9869999999999999","0.0"],
    [1420392,"2026-07-11 22:40:00","59","3.2560000000000002","54.25","5.684","56.59","1014.388","25.38","87.0","-1.8419999999999999","0.0"],
    [1420393,"2026-07-11 22:50:00","60","3.366","53.69","5.488","58.62","1014.432","25.43","86.9","-1.6130000000000002","0.0"],
    [1420394,"2026-07-11 23:00:00","61","3.639","53.03","5.782","48.21","1014.47","25.5","87.0","-1.319","0.0"],
    [1420395,"2026-07-11 23:10:00","62","3.803","50.91","6.664","59.2","1014.539","25.52","86.9","-1.155","0.0"],
    [1420396,"2026-07-11 23:20:00","63","4.415","56.88","7.056","66.32","1014.497","25.52","86.5","-1.1","0.0"],
    [1420397,"2026-07-11 23:30:00","64","4.289","61.01","7.056","61.38","1014.573","25.55","85.8","-1.194","0.0"],
    [1420398,"2026-07-11 23:40:00","65","4.602","61.24","7.056","67","1014.443","25.55","86.0","-1.094","0.0"],
    [1420399,"2026-07-11 23:50:00","66","4.754","65.62","7.546","70.73","1014.365","25.51","86.4","-1.092","0.0"],
    [1420400,"2026-07-12 00:00:00","67","5.271","63.39","8.53","74.61","1014.345","25.53","86.1","-1.094","0.0"],
    [1420401,"2026-07-12 00:10:00","68","5.204","62.84","7.644","65.16","1014.2919999999999","25.5","85.3","-1.301","0.0"],
    [1420402,"2026-07-12 00:20:00","69","5.813","64.25","9.41","36.24","1014.2539999999999","25.59","85.6","-1.071","0.0"],
    [1420403,"2026-07-12 00:30:00","70","5.612","61.46","9.41","49.17","1014.14","25.54","86.3","-1.034","0.0"],
    [1420404,"2026-07-12 00:40:00","71","5.77","66.58","8.82","76.21","1014.048","25.39","87.1","-1.092","0.0"],
    [1420405,"2026-07-12 00:50:00","72","5.54","64.34","8.92","70.01","1013.93","25.28","86.3","-1.092","0.0"],
    [1420406,"2026-07-12 01:00:00","73","5.053999999999999","59.94","8.04","39.82","1013.78","25.28","85.5","-1.103","0.0"],
    [1420407,"2026-07-12 01:10:00","74","4.838","51.83","7.154","52.42","1013.683","25.23","83.3","-1.72","0.0"],
    [1420408,"2026-07-12 01:20:00","75","4.397","54.64","7.448","54.07","1013.6360000000001","25.34","82.5","-1.847","0.0"],
    [1420409,"2026-07-12 01:30:00","76","5.172000000000001","58.56","8.92","69.76","1013.432","25.46","81.2","-1.845","0.0"],
    [1420410,"2026-07-12 01:40:00","77","4.328","54.97","8.13","63.18","1013.445","25.49","81.1","-1.8459999999999999","0.0"],
    [1420411,"2026-07-12 01:50:00","78","3.9619999999999997","50.68","6.664","51.84","1013.451","25.41","82.4","-1.8619999999999999","0.0"],
    [1420412,"2026-07-12 02:00:00","79","4.016","51.55","8.04","57.6","1013.345","25.29","83.2","-2.147","0.0"],
    [1420413,"2026-07-12 02:10:00","80","3.925","49.26","6.664","45.49","1013.321","25.25","83.7","-2.532","0.0"],
    [1420414,"2026-07-12 02:20:00","81","3.8480000000000003","52.96","6.762","72.09","1013.222","25.2","83.6","-2.386","0.0"],
    [1420415,"2026-07-12 02:30:00","82","3.698","53.87","6.174","56.68","1013.24","25.19","83.4","-2.273","0.0"],
    [1420416,"2026-07-12 02:40:00","83","3.608","55.07","5.586","58.72","1013.184","25.14","83.1","-2.343","0.0"],
    [1420417,"2026-07-12 02:50:00","84","3.5860000000000003","54.88","5.88","51.55","1013.122","25.1","83.0","-2.428","0.0"],
    [1420418,"2026-07-12 03:00:00","85","3.3710000000000004","54.93","5.194","56.05","1013.1669999999999","25.08","83.0","-2.59","0.0"],
    [1420419,"2026-07-12 03:10:00","86","3.412","53.61","5.782","58.28","1013.1569999999999","25.01","82.9","-2.593","0.0"],
    [1420420,"2026-07-12 03:20:00","87","3.573","57.07","5.782","46.22","1013.08","24.97","83.0","-2.592","0.0"],
    [1420421,"2026-07-12 03:30:00","88","3.4","54.67","5.39","61.14","1013.1569999999999","24.92","83.0","-2.592","0.0"],
    [1420422,"2026-07-12 03:40:00","89","2.872","49.37","5.096","35.71","1013.3","24.88","82.9","-2.593","0.0"],
    [1420423,"2026-07-12 03:50:00","90","2.508","56.23","4.018","65.7","1013.288","24.82","83.3","-2.593","0.0"],
    [1420424,"2026-07-12 04:00:00","91","2.551","53.11","4.116","54.7","1013.308","24.77","83.5","-2.593","0.0"],
    [1420425,"2026-07-12 04:10:00","92","2.5540000000000003","48.7","4.998","48.16","1013.36","24.72","83.6","-2.593","0.0"],
    [1420426,"2026-07-12 04:20:00","93","3.0589999999999997","51.88","4.704","66.62","1013.3539999999999","24.71","83.5","-1.8259999999999998","0.0"],
    [1420427,"2026-07-12 04:30:00","94","2.305","32.0","4.214","26.84","1013.311","24.66","83.7","0.249","0.0"],
    [1420428,"2026-07-12 04:40:00","95","2.46","20.82","4.214","25.34","1013.346","24.7","84.1","4.476","0.0"],
    [1420429,"2026-07-12 04:50:00","96","2.2030000000000003","18.93","3.822","24.61","1013.3839999999999","24.66","84.0","8.64","0.0"],
    [1420430,"2026-07-12 05:00:00","97","1.6769999999999998","31.48","3.332","38.81","1013.3689999999999","24.66","83.1","16.89","0.0"],
    [1420431,"2026-07-12 05:10:00","98","2.032","35.02","4.704","36.82","1013.3969999999999","24.81","80.6","37.24","0.0"],
    [1420432,"2026-07-12 05:20:00","99","1.47","19.32","2.744","28.58","1013.477","25.15","78.44","54.78","0.0"],
    [1420433,"2026-07-12 05:30:00","100","2.423","17.43","3.724","18.07","1013.431","25.37","74.89","75.3","0.0"],
    [1420434,"2026-07-12 05:40:00","101","2.193","16.81","4.116","12.94","1013.502","25.77","70.5","88.0","0.0"],
    [1420435,"2026-07-12 05:50:00","102","1.472","12.22","3.136","24.47","1013.5880000000001","26.18","68.11","109.0","0.0"],
    [1420436,"2026-07-12 06:00:00","103","1.7630000000000001","18.2","3.234","29.75","1013.685","26.38","66.53","130.6","0.0"],
    [1420437,"2026-07-12 06:10:00","104","2.47","22.67","4.41","19.91","1013.755","26.75","61.95","154.9","0.0"],
    [1420438,"2026-07-12 06:20:00","105","2.424","22.71","4.214","10.27","1013.799","27.02","59.46","181.6","0.0"],
    [1420439,"2026-07-12 06:30:00","106","2.205","27.56","3.234","15.7","1013.96","27.38","58.34","212.8","0.0"],
    [1420440,"2026-07-12 06:40:00","107","2.918","50.03","4.508","57.66","1013.966","27.52","57.13","248.0","0.0"],
    [1420441,"2026-07-12 06:50:00","108","3.4739999999999998","45.07","5.684","47.44","1013.992","27.59","56.01","279.8","0.0"],
    [1420442,"2026-07-12 07:00:00","109","3.2569999999999997","44.22","5.782","48.26","1014.012","27.71","55.33","299.3","0.0"],
    [1420443,"2026-07-12 07:10:00","110","3.1710000000000003","43.96","5.782","62.51","1014.0060000000001","28.15","54.51","328.2","0.0"],
    [1420444,"2026-07-12 07:20:00","111","3.984","51.85","6.272","31.69","1014.054","28.0","54.31","350.2","0.0"],
    [1420445,"2026-07-12 07:30:00","112","4.473","47.31","6.272","48.07","1014.232","27.78","55.01","379.8","0.0"],
    [1420446,"2026-07-12 07:40:00","113","3.716","52.5","5.88","14.54","1014.3610000000001","27.89","56.39","397.7","0.0"],
    [1420447,"2026-07-12 07:50:00","114","4.176","58.03","6.37","60.82","1014.4010000000001","27.95","58.22","429.3","0.0"],
    [1420448,"2026-07-12 08:00:00","115","4.473","57.2","6.566","71.34","1014.3","27.65","60.43","371.9","0.0"],
    [1420449,"2026-07-12 08:10:00","116","4.383","61.9","6.762","35.62","1014.337","27.73","62.26","423.7","0.0"],
    [1420450,"2026-07-12 08:20:00","117","4.547","58.06","6.762","53.7","1014.294","27.69","63.87","506.0","0.0"],
    [1420451,"2026-07-12 08:30:00","118","3.984","57.67","6.076","66.3","1014.295","27.81","65.09","477.7","0.0"],
    [1420452,"2026-07-12 08:40:00","119","4.124","54.8","6.076","67.61","1014.373","27.58","67.69","355.4","0.0"],
    [1420453,"2026-07-12 08:50:00","120","4.397","55.22","6.958","50.01","1014.342","27.4","70.82","372.2","0.0"],
    [1420454,"2026-07-12 09:00:00","121","4.855","58.68","8.04","47.69","1014.3810000000001","27.45","71.66","359.3","0.0"],
    [1420455,"2026-07-12 09:10:00","122","5.24","58.23","7.742","58.64","1014.3610000000001","27.27","72.95","391.2","0.0"],
    [1420456,"2026-07-12 09:20:00","123","5.531000000000001","59.5","8.13","63.82","1014.424","27.35","72.05","449.5","0.0"],
    [1420457,"2026-07-12 09:30:00","124","5.194","55.15","7.84","42.69","1014.433","27.56","71.17","451.5","0.0"],
    [1420458,"2026-07-12 09:40:00","125","5.367999999999999","57.25","8.62","43.81","1014.435","27.53","70.99","456.5","0.0"],
    [1420459,"2026-07-12 09:50:00","126","6.106","59.06","9.02","78.7","1014.41","27.41","70.42","445.7","0.0"],
    [1420460,"2026-07-12 10:00:00","127","6.085","55.87","9.31","46.52","1014.403","27.52","69.88","522.0","0.0"],
    [1420461,"2026-07-12 10:10:00","128","5.702000000000001","55.96","8.62","61.93","1014.488","27.52","70.98","448.3","0.0"],
    [1420462,"2026-07-12 10:20:00","129","5.313","58.1","8.53","58.39","1014.6489999999999","27.44","72.39","458.9","0.0"],
    [1420463,"2026-07-12 10:30:00","130","5.496","60.17","8.43","62.46","1014.73","27.45","72.73","402.2","0.0"],
    [1420464,"2026-07-12 10:40:00","131","4.841","60.08","7.84","56.12","1014.7810000000001","27.63","71.67","469.6","0.0"],
    [1420465,"2026-07-12 10:50:00","132","4.973","59.74","7.252","51.32","1014.873","27.62","72.52","536.5","0.0"],
    [1420466,"2026-07-12 11:00:00","133","4.792","62.2","7.742","72.98","1014.953","28.17","71.42","720.0","0.0"],
    [1420467,"2026-07-12 11:10:00","134","5.776","67.43","7.644","69.78","1014.982","27.92","71.74","596.0","0.0"],
    [1420468,"2026-07-12 11:20:00","135","4.687","71.29","6.762","58.49","1015.076","28.22","70.28","694.7","0.0"],
    [1420469,"2026-07-12 11:30:00","136","4.834","72.76","7.056","78.85","1015.1439999999999","28.38","70.32","576.8","0.0"],
    [1420470,"2026-07-12 11:40:00","137","4.953","71.69","6.86","76.52","1015.117","28.4","70.31","635.3","0.0"],
    [1420471,"2026-07-12 11:50:00","138","5.271","75.97","7.252","89.2","1015.0989999999999","28.3","70.77","782.1","0.0"],
    [1420472,"2026-07-12 12:00:00","139","5.102","76.24","7.252","79.04","1015.041","28.32","72.51","726.2","0.0"],
    [1420473,"2026-07-12 12:10:00","140","5.151","72.44","7.644","69.3","1014.9830000000001","28.54","71.96","676.4","0.0"],
    [1420474,"2026-07-12 12:20:00","141","5.249","70.49","7.448","68.53","1014.9630000000001","28.61","71.36","895.0","0.0"],
    [1420475,"2026-07-12 12:30:00","142","5.042","72.84","7.252","85.5","1014.831","28.88","70.95","924.0","0.0"],
    [1420476,"2026-07-12 12:40:00","143","5.551","73.49","7.938","74.34","1014.826","28.52","72.45","818.0","0.0"],
    [1420477,"2026-07-12 12:50:00","144","5.555","74.33","7.546","78.12","1014.802","28.26","74.06","540.4","0.0"],
    [1420478,"2026-07-12 13:00:00","145","5.247999999999999","72.72","7.35","73.91","1014.692","27.86","75.73","576.7","0.0"],
    [1420479,"2026-07-12 13:10:00","146","5.162000000000001","68.43","7.252","77.98","1014.6210000000001","28.28","75.38","591.2","0.0"],
    [1420480,"2026-07-12 13:20:00","147","5.1610000000000005","62.37","7.938","64.65","1014.462","27.89","75.95","478.6","0.0"],
    [1420481,"2026-07-12 13:30:00","148","5.226","61.37","8.43","53.89","1014.3330000000001","28.4","75.12","890.0","0.0"],
    [1420482,"2026-07-12 13:40:00","149","6.072","55.25","8.33","42.02","1014.293","28.56","73.59","875.0","0.0"],
    [1420483,"2026-07-12 13:50:00","150","5.529","59.92","7.938","81.8","1014.294","28.61","73.99","875.0","0.0"],
    [1420484,"2026-07-12 14:00:00","151","5.422000000000001","60.03","8.23","76.09","1014.362","28.56","74.16","686.1","0.0"],
    [1420485,"2026-07-12 14:10:00","152","5.406000000000001","55.91","7.84","63.39","1014.288","28.51","74.4","778.9","0.0"],
    [1420486,"2026-07-12 14:20:00","153","5.771","58.31","8.04","61.06","1014.263","28.43","75.02","540.7","0.0"],
    [1420487,"2026-07-12 14:30:00","154","5.247999999999999","58.56","7.742","58.64","1014.15","27.68","78.32","278.6","0.0"],
    [1420488,"2026-07-12 14:40:00","155","5.314","56.27","7.938","48.03","1014.164","27.54","79.1","399.7","0.0"],
    [1420489,"2026-07-12 14:50:00","156","5.307","66.51","7.84","65.81","1014.086","27.55","79.46","314.2","0.0"],
    [1420490,"2026-07-12 15:00:00","157","5.35","55.09","7.938","50.93","1014.044","27.5","78.22","304.4","0.0"],
    [1420491,"2026-07-12 15:10:00","158","5.484","57.64","7.742","61.83","1013.921","27.31","79.29","272.7","0.0"],
    [1420492,"2026-07-12 15:20:00","159","5.765","58.56","8.23","73.71","1013.8739999999999","27.28","79.82","317.7","0.0"],
    [1420493,"2026-07-12 15:30:00","160","5.768","64.32","8.13","54.76","1013.824","27.28","79.94","266.7","0.0"],
    [1420494,"2026-07-12 15:40:00","161","5.511","63.3","8.33","73.66","1013.7860000000001","27.19","81.0","209.8","0.0"],
    [1420495,"2026-07-12 15:50:00","162","5.367000000000001","63.36","7.448","69.88","1013.795","26.97","82.3","182.1","0.0"],
    [1420496,"2026-07-12 16:00:00","163","5.0280000000000005","61.89","7.448","68.62","1013.868","27.0","82.2","246.1","0.0"],
    [1420497,"2026-07-12 16:10:00","164","5.165","63.18","7.644","56.11","1013.745","27.16","81.9","313.2","0.0"],
    [1420498,"2026-07-12 16:20:00","165","5.79","66.57","8.23","68.03","1013.648","27.32","80.9","448.2","0.0"],
    [1420499,"2026-07-12 16:30:00","166","5.898","65.3","8.53","73.36","1013.6160000000001","27.33","79.54","378.6","0.0"],
    [1420500,"2026-07-12 16:40:00","167","5.202999999999999","60.86","8.43","72.54","1013.5880000000001","27.41","79.24","313.5","0.0"],
    [1420501,"2026-07-12 16:50:00","168","4.742","57.07","7.35","53.64","1013.488","27.42","78.42","321.3","0.0"],
    [1420502,"2026-07-12 17:00:00","169","4.449","65.44","6.86","74.62","1013.568","27.26","79.11","201.4","0.0"],
    [1420503,"2026-07-12 17:10:00","170","4.69","60.21","7.35","73.51","1013.427","27.29","78.38","230.7","0.0"],
    [1420504,"2026-07-12 17:20:00","171","4.293","59.1","6.762","58.1","1013.2719999999999","27.3","79.11","196.5","0.0"],
    [1420505,"2026-07-12 17:30:00","172","4.187","58.64","6.37","54.37","1013.47","27.13","79.99","150.5","0.0"],
    [1420506,"2026-07-12 17:40:00","173","4.092","61.81","6.37","65.81","1013.4889999999999","27.01","80.3","148.7","0.0"],
    [1420507,"2026-07-12 17:50:00","174","4.1530000000000005","61.65","6.762","60.57","1013.4","26.94","80.3","123.6","0.0"],
    [1420508,"2026-07-12 18:00:00","175","4.064","55.37","6.37","53.34","1013.435","26.82","81.2","67.1","0.0"],
    [1420509,"2026-07-12 18:10:00","176","4.123","59.71","6.566","55.47","1013.35","26.57","81.9","63.72","0.0"],
    [1420510,"2026-07-12 18:20:00","177","3.8139999999999996","58.41","5.978","57.27","1013.327","26.65","81.7","88.2","0.0"],
    [1420511,"2026-07-12 18:30:00","178","3.946","56.41","6.272","50.97","1013.2","26.75","81.4","94.2","0.0"],
    [1420512,"2026-07-12 18:40:00","179","4.577","55.0","7.056","52.42","1013.1389999999999","26.59","82.1","64.33","0.0"],
    [1420513,"2026-07-12 18:50:00","180","3.799","49.88","6.272","54.31","1013.1669999999999","26.49","82.9","40.24","0.0"],
    [1420514,"2026-07-12 19:00:00","181","3.19","44.98","5.292","32.07","1013.127","26.4","83.6","21.19","0.0"],
    [1420515,"2026-07-12 19:10:00","182","3.5660000000000003","45.89","5.586","42.59","1013.117","26.24","84.7","10.54","0.0"],
    [1420516,"2026-07-12 19:20:00","183","3.4160000000000004","49.83","6.076","55.13","1013.15","26.13","85.7","5.3420000000000005","0.0"],
    [1420517,"2026-07-12 19:30:00","184","3.786","44.65","6.174","40.94","1013.113","26.02","86.6","0.895","0.0"],
    [1420518,"2026-07-12 19:40:00","185","3.667","45.97","6.076","46.7","1013.065","25.89","86.9","-1.2109999999999999","0.0"],
    [1420519,"2026-07-12 19:50:00","186","4.081","46.61","7.056","54.5","1013.15","25.85","86.9","-2.388","0.0"],
    [1420520,"2026-07-12 20:00:00","187","3.883","45.69","7.448","41.13","1013.2689999999999","25.82","86.6","-2.593","0.0"],
    [1420521,"2026-07-12 20:10:00","188","3.6060000000000003","50.95","6.762","62.84","1013.334","25.84","85.6","-2.593","0.0"],
    [1420522,"2026-07-12 20:20:00","189","3.8510000000000004","48.53","6.566","34.54","1013.461","25.86","84.6","-2.593","0.0"],
    [1420523,"2026-07-12 20:30:00","190","3.9560000000000004","45.46","6.86","45.35","1013.422","25.88","83.0","-2.593","0.0"],
    [1420524,"2026-07-12 20:40:00","191","3.66","43.29","6.468","36.05","1013.377","26.0","79.83","-2.594","0.0"],
    [1420525,"2026-07-12 20:50:00","192","3.845","44.27","6.566","61.09","1013.319","26.18","76.08","-2.597","0.0"],
    [1420526,"2026-07-12 21:00:00","193","4.002","44.76","6.86","47.24","1013.298","26.36","72.89","-2.612","0.0"],
    [1420527,"2026-07-12 21:10:00","194","4.207","42.88","6.762","44.57","1013.203","26.58","68.09","-2.733","0.0"],
    [1420528,"2026-07-12 21:20:00","195","5.37","42.34","8.43","24.85","1012.669","26.86","61.19","-2.7769999999999997","0.0"],
    [1420529,"2026-07-12 21:30:00","196","5.479","42.58","8.82","36.14","1012.451","27.05","59.36","-2.6","0.0"],
    [1420530,"2026-07-12 21:40:00","197","4.763","45.61","8.82","45.44","1012.7280000000001","27.29","54.95","-2.659","0.0"],
    [1420531,"2026-07-12 21:50:00","198","3.091","49.15","5.684","13.13","1013.346","27.37","53.81","-2.622","0.0"],
    [1420532,"2026-07-12 22:00:00","199","2.72","49.9","5.194","51.84","1013.45","27.31","54.27","-2.622","0.0"],
    [1420533,"2026-07-12 22:10:00","200","2.6660000000000004","48.08","5.096","38.47","1013.39","27.22","54.64","-2.6010000000000004","0.0"],
    [1420534,"2026-07-12 22:20:00","201","3.049","53.98","5.194","50.48","1013.3589999999999","27.24","54.72","-2.5989999999999998","0.0"],
    [1420535,"2026-07-12 22:30:00","202","2.568","51.86","4.606","38.61","1013.539","27.15","56.33","-2.594","0.0"],
    [1420536,"2026-07-12 22:40:00","203","2.542","55.63","3.822","38.61","1013.7439999999999","27.04","58.12","-2.593","0.0"],
    [1420537,"2026-07-12 22:50:00","204","2.494","53.93","4.018","44.81","1013.747","26.95","59.44","-2.593","0.0"],
    [1420538,"2026-07-12 23:00:00","205","2.8539999999999996","59.42","4.802","72.72","1013.69","26.82","63.18","-2.592","0.0"],
    [1420539,"2026-07-12 23:10:00","206","2.589","59.7","4.312","60.46","1013.8389999999999","26.72","64.87","-2.5","0.0"],
    [1420540,"2026-07-12 23:20:00","207","2.6839999999999997","52.0","4.606","55.86","1013.8889999999999","26.76","65.25","-1.8969999999999998","0.0"],
    [1420541,"2026-07-12 23:30:00","208","2.559","56.9","4.312","44.67","1013.872","26.77","65.84","-2.158","0.0"],
    [1420542,"2026-07-12 23:40:00","209","2.694","58.26","4.606","49.42","1013.803","26.64","67.34","-2.5380000000000003","0.0"],
    [1420543,"2026-07-12 23:50:00","210","2.597","52.57","4.312","71.27","1013.852","26.59","67.17","-2.5789999999999997","0.0"],
    [1420544,"2026-07-13 00:00:00","211","2.273","47.79","3.724","56.93","1013.704","26.57","67.1","-2.577","0.0"],
    [1420545,"2026-07-13 00:10:00","212","2.458","50.05","4.214","46.27","1013.6619999999999","26.58","66.03","-2.5789999999999997","0.0"],
    [1420546,"2026-07-13 00:20:00","213","2.997","59.83","4.312","63.56","1013.5110000000001","26.6","66.14","-2.515","0.0"],
    [1420547,"2026-07-13 00:30:00","214","2.465","57.66","3.822","62.69","1013.4110000000001","26.53","67.73","-2.404","0.0"],
    [1420548,"2026-07-13 00:40:00","215","2.764","60.93","4.312","57.56","1013.368","26.5","68.41","-2.231","0.0"],
    [1420549,"2026-07-13 00:50:00","216","1.901","54.9","3.038","45.83","1013.3910000000001","26.42","63.9","-1.8630000000000002","0.0"],
    [1420550,"2026-07-13 01:00:00","217","2.182","52.56","3.528","34.64","1013.35","26.45","59.36","-2.028","0.0"],
    [1420551,"2026-07-13 01:10:00","218","1.993","64.67","3.332","66.52","1013.441","26.49","60.96","-2.128","0.0"],
    [1420552,"2026-07-13 01:20:00","219","1.9580000000000002","64.98","3.234","68.99","1013.497","26.39","66.64","-2.4219999999999997","0.0"],
    [1420553,"2026-07-13 01:30:00","220","1.758","73.06","3.528","70.01","1013.5419999999999","26.34","70.51","-2.522","0.0"],
    [1420554,"2026-07-13 01:40:00","221","2.074","73.92","3.332","75.43","1013.54","26.19","72.55","-2.228","0.0"],
    [1420555,"2026-07-13 01:50:00","222","2.008","66.52","3.038","57.27","1013.564","26.06","74.13","-2.094","0.0"],
    [1420556,"2026-07-13 02:00:00","223","1.9340000000000002","63.82","3.332","60.56","1013.448","25.97","75.7","-1.85","0.0"],
    [1420557,"2026-07-13 02:10:00","224","2.154","63.86","3.43","61.72","1013.378","25.95","76.23","-1.9069999999999998","0.0"],
    [1420558,"2026-07-13 02:20:00","225","2.022","64.62","3.038","68.89","1013.2589999999999","25.91","77.32","-2.004","0.0"],
    [1420559,"2026-07-13 02:30:00","226","2.559","69.48","3.92","67.25","1013.222","25.85","77.2","-2.1180000000000003","0.0"],
    [1420560,"2026-07-13 02:40:00","227","2.6239999999999997","70.84","4.116","68.89","1013.15","25.86","78.58","-1.9140000000000001","0.0"],
    [1420561,"2026-07-13 02:50:00","228","2.515","68.25","3.92","67.39","1013.154","25.78","79.48","-1.959","0.0"],
    [1420562,"2026-07-13 03:00:00","229","3.012","57.98","4.9","43.85","1013.0889999999999","25.74","78.65","-2.012","0.0"],
    [1420563,"2026-07-13 03:10:00","230","2.867","53.54","4.9","39.34","1012.9639999999999","25.8","79.41","-1.9409999999999998","0.0"],
    [1420564,"2026-07-13 03:20:00","231","3.364","53.64","5.292","46.46","1012.855","25.75","80.1","-1.879","0.0"],
    [1420565,"2026-07-13 03:30:00","232","3.773","50.25","5.488","46.61","1012.6610000000001","25.73","79.04","-1.989","0.0"],
    [1420566,"2026-07-13 03:40:00","233","3.1830000000000003","50.44","5.488","54.89","1012.584","25.74","79.01","-1.976","0.0"],
    [1420567,"2026-07-13 03:50:00","234","3.7239999999999998","51.1","5.684","68.26","1012.554","25.75","77.21","-2.092","0.0"],
    [1420568,"2026-07-13 04:00:00","235","3.135","48.4","5.292","41.04","1012.5419999999999","25.78","78.94","-1.932","0.0"],
    [1420569,"2026-07-13 04:10:00","236","2.7739999999999996","50.83","4.704","60.95","1012.528","25.66","81.6","-2.052","0.0"],
    [1420570,"2026-07-13 04:20:00","237","2.8160000000000003","42.69","4.606","43.02","1012.4780000000001","25.47","80.4","-1.625","0.0"],
    [1420571,"2026-07-13 04:30:00","238","2.884","42.46","5.096","40.11","1012.541","25.48","78.68","-0.682","0.0"],
    [1420572,"2026-07-13 04:40:00","239","2.905","39.75","4.9","36.14","1012.607","25.47","75.48","2.184","0.0"],
    [1420573,"2026-07-13 04:50:00","240","2.8760000000000003","44.77","4.508","28.58","1012.721","25.55","74.58","10.41","0.0"],
    [1420574,"2026-07-13 05:00:00","241","2.7880000000000003","47.97","4.508","56.97","1012.802","25.67","76.5","19.58","0.0"],
    [1420575,"2026-07-13 05:10:00","242","2.9010000000000002","45.1","5.684","34.2","1012.8430000000001","25.65","79.76","33.53","0.0"],
    [1420576,"2026-07-13 05:20:00","243","2.615","41.48","5.194","49.42","1012.8639999999999","25.74","76.03","48.15","0.0"],
    [1420577,"2026-07-13 05:30:00","244","3.2239999999999998","50.2","5.586","31.44","1012.903","25.97","81.5","59.36","0.0"],
    [1420578,"2026-07-13 05:40:00","245","3.955","54.57","6.566","50.97","1012.9119999999999","25.86","82.8","71.82","0.0"],
    [1420579,"2026-07-13 05:50:00","246","3.8960000000000004","53.67","6.272","77.9","1012.933","25.88","82.9","84.3","0.0"],
    [1420580,"2026-07-13 06:00:00","247","4.064","53.99","6.468","67.1","1012.8939999999999","25.89","82.7","95.4","0.0"],
    [1420581,"2026-07-13 06:10:00","248","4.635","58.13","7.056","63.95","1012.9019999999999","25.91","82.8","108.4","0.0"],
    [1420582,"2026-07-13 06:20:00","249","4.593","50.99","7.644","46.51","1012.834","25.91","83.2","125.8","0.0"],
    [1420583,"2026-07-13 06:30:00","250","3.761","46.7","6.468","47.38","1012.7919999999999","25.96","83.0","149.0","0.0"],
    [1420584,"2026-07-13 06:40:00","251","4.4719999999999995","45.77","6.762","46.03","1012.815","26.04","82.5","192.6","0.0"],
    [1420585,"2026-07-13 06:50:00","252","4.48","41.75","7.056","30.57","1012.757","26.27","81.8","252.8","0.0"],
    [1420586,"2026-07-13 07:00:00","253","5.176","41.48","7.35","18.02","1012.666","26.41","81.0","298.7","0.0"],
    [1420587,"2026-07-13 07:10:00","254","4.747","46.47","7.644","33.72","1012.709","26.43","80.3","301.6","0.0"],
    [1420588,"2026-07-13 07:20:00","255","4.942","51.7","9.11","63.18","1012.717","26.48","79.3","320.5","0.0"],
    [1420589,"2026-07-13 07:30:00","256","5.395","57.28","8.72","52.42","1012.7539999999999","26.62","78.34","387.0","0.0"],
    [1420590,"2026-07-13 07:40:00","257","6.1610000000000005","56.61","8.92","56.88","1012.7239999999999","26.67","78.05","426.8","0.0"],
    [1420591,"2026-07-13 07:50:00","258","6.888","55.25","10.09","58.63","1012.548","26.38","81.1","366.6","0.0"],
    [1420592,"2026-07-13 08:00:00","259","5.577000000000001","54.5","9.21","55.14","1012.6360000000001","26.26","83.1","321.8","0.0"],
    [1420593,"2026-07-13 08:10:00","260","5.855","55.91","9.31","46.03","1012.732","26.42","82.8","424.6","0.0"],
    [1420594,"2026-07-13 08:20:00","261","5.553999999999999","53.57","9.6","44.34","1012.752","26.64","82.4","414.6","0.0"],
    [1420595,"2026-07-13 08:30:00","262","5.242000000000001","58.6","8.13","58.15","1012.822","26.82","82.0","502.4","0.0"],
    [1420596,"2026-07-13 08:40:00","263","5.666","58.74","7.644","48.46","1013.003","26.81","82.0","537.0","0.0"],
    [1420597,"2026-07-13 08:50:00","264","5.415","57.34","8.72","56.79","1013.033","27.04","81.7","615.3","0.0"],
    [1420598,"2026-07-13 09:00:00","265","5.224","58.4","7.938","55.87","1013.105","27.26","81.1","559.5","0.0"],
    [1420599,"2026-07-13 09:10:00","266","5.041","59.73","7.35","58.97","1013.182","27.4","80.9","663.7","0.0"],
    [1420600,"2026-07-13 09:20:00","267","4.996","68.08","6.958","74.72","1013.32","27.63","79.96","665.0","0.0"],
    [1420601,"2026-07-13 09:30:00","268","5.281000000000001","73.4","7.448","70.32","1013.4119999999999","27.48","80.7","717.4","0.0"],
    [1420602,"2026-07-13 09:40:00","269","5.551","83.3","7.742","83.7","1013.497","27.73","79.35","634.9","0.0"],
    [1420603,"2026-07-13 09:50:00","270","4.708","86.9","7.84","99.9","1013.747","27.9","79.2","754.4","0.0"],
    [1420604,"2026-07-13 10:00:00","271","3.2760000000000002","88.9","5.292","85.1","1014.258","27.86","79.28","507.7","0.0"],
    [1420605,"2026-07-13 10:10:00","272","3.02","95.9","5.586","96.3","1014.3","27.83","79.42","604.3","0.0"],
    [1420606,"2026-07-13 10:20:00","273","3.364","89.5","5.586","77.25","1014.2439999999999","27.8","78.71","482.1","0.0"],
    [1420607,"2026-07-13 10:30:00","274","3.387","96.1","5.782","105.7","1014.192","27.91","76.88","610.1","0.0"],
    [1420608,"2026-07-13 10:40:00","275","3.905","84.8","6.272","75.02","1014.122","27.91","77.27","444.7","0.0"],
    [1420609,"2026-07-13 10:50:00","276","4.189","81.4","6.174","83.9","1014.043","27.98","77.1","499.9","0.0"],
    [1420610,"2026-07-13 11:00:00","277","4.14","72.34","5.684","68.63","1013.982","28.22","77.03","525.6","0.0"],
    [1420611,"2026-07-13 11:10:00","278","4.447","76.14","6.272","52.92","1013.997","27.71","78.7","200.9","0.0"],
    [1420612,"2026-07-13 11:20:00","279","4.215","66.81","6.272","49.14","1013.977","27.41","80.4","491.8","0.0"],
    [1420613,"2026-07-13 11:30:00","280","4.52","69.61","6.762","95.6","1013.94","28.63","75.82","975.0","0.0"],
    [1420614,"2026-07-13 11:40:00","281","5.029","76.15","6.566","75.36","1013.832","28.16","76.78","641.2","0.0"],
    [1420615,"2026-07-13 11:50:00","282","4.618","71.29","6.664","81.2","1013.7689999999999","28.15","77.36","878.0","0.0"],
    [1420616,"2026-07-13 12:00:00","283","4.925","69.33","7.056","62.52","1013.678","28.61","75.46","638.1","0.0"],
    [1420617,"2026-07-13 12:10:00","284","4.7010000000000005","62.69","6.86","61.16","1013.587","27.99","77.96","585.2","0.0"],
    [1420618,"2026-07-13 12:20:00","285","5.599","67.36","7.938","84.6","1013.429","28.53","76.37","901.0","0.0"],
    [1420619,"2026-07-13 12:30:00","286","5.011","59.2","7.448","58.3","1013.414","28.79","75.27","908.0","0.0"],
    [1420620,"2026-07-13 12:40:00","287","4.711","57.72","7.154","80.3","1013.311","29.06","74.52","932.0","0.0"],
    [1420621,"2026-07-13 12:50:00","288","4.659","59.78","6.664","54.18","1013.19","28.95","75.0","928.0","0.0"],
    [1420622,"2026-07-13 13:00:00","289","4.997","59.07","7.546","86.7","1013.064","28.92","74.93","915.0","0.0"],
    [1420623,"2026-07-13 13:10:00","290","5.004","65.96","7.546","89.5","1013.02","29.22","73.89","903.0","0.0"],
    [1420624,"2026-07-13 13:20:00","291","5.957000000000001","70.62","7.546","64.89","1012.882","28.5","76.65","882.0","0.0"],
    [1420625,"2026-07-13 13:30:00","292","5.074","51.1","6.664","37.08","1012.837","28.71","75.49","865.0","0.0"],
    [1420626,"2026-07-13 13:40:00","293","5.465","67.9","7.742","78.75","1012.745","29.07","73.9","860.0","0.0"],
    [1420627,"2026-07-13 13:50:00","294","5.341","71.66","7.35","68.04","1012.7410000000001","28.76","75.19","844.0","0.0"],
    [1420628,"2026-07-13 14:00:00","295","5.439","69.57","7.448","70.37","1012.6310000000001","28.67","76.38","826.0","0.0"],
    [1420629,"2026-07-13 14:10:00","296","5.321000000000001","73.22","7.252","76.43","1012.505","28.5","77.01","809.0","0.0"],
    [1420630,"2026-07-13 14:20:00","297","4.757","75.01","6.664","79.97","1012.3589999999999","28.74","76.3","790.2","0.0"],
    [1420631,"2026-07-13 14:30:00","298","4.5089999999999995","84.5","6.272","84.2","1012.262","28.76","75.82","770.2","0.0"],
    [1420632,"2026-07-13 14:40:00","299","4.705","75.68","6.468","77.88","1012.221","28.72","76.71","747.7","0.0"],
    [1420633,"2026-07-13 14:50:00","300","4.537","71.14","6.174","83.6","1012.1519999999999","28.45","77.96","727.1","0.0"],
    [1420634,"2026-07-13 15:00:00","301","4.26","65.78","6.174","62.62","1011.948","28.59","77.53","705.0","0.0"],
    [1420635,"2026-07-13 15:10:00","302","4.621","73.09","6.86","75.12","1011.813","28.76","76.76","679.9","0.0"],
    [1420636,"2026-07-13 15:20:00","303","4.577","73.01","6.37","82.2","1011.7489999999999","28.57","77.67","654.2","0.0"],
    [1420637,"2026-07-13 15:30:00","304","4.296","77.31","5.88","84.3","1011.717","28.53","77.53","606.0","0.0"],
    [1420638,"2026-07-13 15:40:00","305","3.998","75.8","5.782","69.4","1011.71","28.68","76.94","580.0","0.0"],
    [1420639,"2026-07-13 15:50:00","306","4.129","88.5","5.978","89.7","1011.635","28.21","79.18","548.3","0.0"],
    [1420640,"2026-07-13 16:00:00","307","3.741","89.7","5.586","86.7","1011.615","28.31","78.86","513.9","0.0"],
    [1420641,"2026-07-13 16:10:00","308","3.95","81.5","5.586","79","1011.632","28.21","79.73","512.9","0.0"],
    [1420642,"2026-07-13 16:20:00","309","3.1289999999999996","86.9","4.802","68.63","1011.556","28.53","78.69","473.8","0.0"],
    [1420643,"2026-07-13 16:30:00","310","3.424","89.1","4.9","76.86","1011.523","28.29","78.93","441.2","0.0"],
    [1420644,"2026-07-13 16:40:00","311","2.82","93.1","4.41","100.1","1011.4780000000001","28.13","79.93","412.7","0.0"],
    [1420645,"2026-07-13 16:50:00","312","2.571","85.6","4.606","84.3","1011.538","28.17","80.1","374.7","0.0"],
    [1420646,"2026-07-13 17:00:00","313","2.8369999999999997","86.3","4.312","81.3","1011.5260000000001","27.86","81.4","372.3","0.0"],
    [1420647,"2026-07-13 17:10:00","314","2.969","85.4","4.116","81.5","1011.523","27.83","81.4","262.1","0.0"],
    [1420648,"2026-07-13 17:20:00","315","2.487","91.7","3.92","96.2","1011.533","27.63","81.9","208.1","0.0"],
    [1420649,"2026-07-13 17:30:00","316","1.767","98.2","3.528","81.4","1011.47","27.76","81.8","245.9","0.0"],
    [1420650,"2026-07-13 17:40:00","317","1.818","98.8","3.43","101.1","1011.4730000000001","27.97","81.1","198.9","0.0"],
    [1420651,"2026-07-13 17:50:00","318","1.7790000000000001","96.1","3.332","87.9","1011.557","27.74","81.5","41.86","0.0"],
    [1420652,"2026-07-13 18:00:00","319","1.3630000000000002","109.7","2.842","117","1011.735","27.33","83.3","46.11","0.0"],
    [1420653,"2026-07-13 18:10:00","320","1.933","105.8","5.88","158.5","1011.711","27.19","84.3","48.79","0.0"],
    [1420654,"2026-07-13 18:20:00","321","1.715","111.7","5.978","111.7","1011.7330000000001","27.07","85.0","40.48","0.0"],
    [1420655,"2026-07-13 18:30:00","322","1.835","92.4","3.332","80.9","1011.618","27.13","85.0","33.34","0.0"],
    [1420656,"2026-07-13 18:40:00","323","1.825","90.9","3.528","102.1","1011.7860000000001","27.05","84.9","26.99","0.0"],
    [1420657,"2026-07-13 18:50:00","324","1.524","84.8","4.606","66.67","1011.83","27.02","85.4","22.29","0.0"],
    [1420658,"2026-07-13 19:00:00","325","1.712","94.8","3.528","88.9","1011.883","26.96","85.3","15.48","0.0"],
    [1420659,"2026-07-13 19:10:00","326","1.837","88.0","4.018","94.4","1011.832","26.99","85.5","8.14","0.0"],
    [1420660,"2026-07-13 19:20:00","327","1.651","61.46","2.352","83.7","1011.88","26.94","86.0","2.31","0.0"],
    [1420661,"2026-07-13 19:30:00","328","1.19","67.06","2.058","47.96","1011.954","26.86","86.4","0.13699999999999998","0.0"],
    [1420662,"2026-07-13 19:40:00","329","1.296","78.32","2.058","106.9","1011.944","26.83","86.5","-1.621","0.0"],
    [1420663,"2026-07-13 19:50:00","330","1.344","85.8","2.94","67.88","1011.98","26.81","86.7","-2.276","0.0"],
    [1420664,"2026-07-13 20:00:00","331","1.511","79.96","1.96","81","1012.0319999999999","26.79","86.6","-2.592","0.0"],
    [1420665,"2026-07-13 20:10:00","332","1.496","87.3","2.548","79.12","1012.279","26.77","86.4","-2.291","0.0"],
    [1420666,"2026-07-13 20:20:00","333","1.3219999999999998","69.57","2.254","77.37","1012.515","26.8","86.6","-1.306","0.0"],
    [1420667,"2026-07-13 20:30:00","334","1.31","71.82","2.058","91.4","1012.697","26.81","86.2","-1.604","0.0"],
    [1420668,"2026-07-13 20:40:00","335","0.556","71.05","1.666","44.47","1012.88","26.79","85.7","-2.219","0.0"],
    [1420669,"2026-07-13 20:50:00","336","0.196","108.6","0.98","117.7","1013.048","26.69","85.2","-2.394","0.0"],
    [1420670,"2026-07-13 21:00:00","337","0.57","175.0","2.94","193.8","1013.169","26.69","84.6","-1.952","0.0"],
    [1420671,"2026-07-13 21:10:00","338","0.899","180.6","2.058","190","1013.205","26.81","84.3","-2.131","0.0"],
    [1420672,"2026-07-13 21:20:00","339","1.43","69.42","1.862","64.24","1013.3489999999999","26.75","85.9","-2.593","0.0"],
    [1420673,"2026-07-13 21:30:00","340","1.5419999999999998","70.35","2.352","61.43","1013.3939999999999","26.59","87.1","-2.593","0.0"],
    [1420674,"2026-07-13 21:40:00","341","1.788","66.0","2.45","60.75","1013.467","26.5","87.7","-2.592","0.0"],
    [1420675,"2026-07-13 21:50:00","342","2.126","66.91","2.842","68.94","1013.492","26.43","88.8","-2.5839999999999996","0.0"],
    [1420676,"2026-07-13 22:00:00","343","1.798","73.09","2.45","64.24","1013.567","26.17","90.1","-2.593","0.0"],
    [1420677,"2026-07-13 22:10:00","344","2.072","73.9","2.842","81.2","1013.576","26.04","90.6","-2.593","0.0"],
    [1420678,"2026-07-13 22:20:00","345","1.855","74.61","2.842","67.54","1013.635","25.9","91.5","-2.593","0.0"],
    [1420679,"2026-07-13 22:30:00","346","1.8980000000000001","73.65","2.94","77.86","1013.677","25.83","91.4","-2.593","0.0"],
    [1420680,"2026-07-13 22:40:00","347","1.587","73.66","2.548","77.9","1013.7610000000001","25.98","90.6","-2.593","0.0"],
    [1420681,"2026-07-13 22:50:00","348","1.93","82.7","2.842","86","1013.8389999999999","26.04","90.3","-2.6180000000000003","0.0"],
    [1420682,"2026-07-13 23:00:00","349","2.041","83.0","2.744","88.8","1013.9","26.13","89.7","-2.593","0.0"],
    [1420683,"2026-07-13 23:10:00","350","1.6269999999999998","78.81","2.352","77.52","1013.952","26.08","89.2","-2.59","0.0"],
    [1420684,"2026-07-13 23:20:00","351","1.094","76.92","1.568","73.64","1014.054","25.87","89.6","-2.593","0.0"],
    [1420685,"2026-07-13 23:30:00","352","1.147","86.7","1.764","85.4","1014.096","25.79","90.0","-2.593","0.0"],
    [1420686,"2026-07-13 23:40:00","353","0.981","83.0","1.568","96.7","1014.215","25.85","89.9","-2.592","0.0"],
    [1420687,"2026-07-13 23:50:00","354","1.5930000000000002","64.67","1.96","67.92","1014.263","25.74","90.1","-2.593","0.0"],
    [1420688,"2026-07-14 00:00:00","355","1.319","63.56","2.058","60.56","1014.311","25.78","90.3","-2.593","0.0"],
    [1420689,"2026-07-14 00:10:00","356","1.551","62.63","2.156","59.4","1014.368","25.88","89.9","-2.5810000000000004","0.0"],
    [1420690,"2026-07-14 00:20:00","357","1.386","57.88","2.156","58.96","1014.424","25.95","89.9","-2.0869999999999997","0.0"],
    [1420691,"2026-07-14 00:30:00","358","1.368","62.15","2.156","56.3","1014.41","25.92","89.6","-1.8430000000000002","0.0"],
    [1420692,"2026-07-14 00:40:00","359","1.6369999999999998","57.19","2.254","70.93","1014.335","25.93","89.1","-1.854","0.0"],
    [1420693,"2026-07-14 00:50:00","360","2.02","51.89","2.94","51.84","1014.362","25.91","89.1","-2.279","0.0"],
    [1420694,"2026-07-14 01:00:00","361","2.108","52.34","3.234","58.14","1014.336","25.85","89.0","-2.287","0.0"],
    [1420695,"2026-07-14 01:10:00","362","2.2319999999999998","49.27","3.626","60.85","1014.3489999999999","25.89","89.0","-1.922","0.0"],
    [1420696,"2026-07-14 01:20:00","363","2.276","53.34","3.626","47.33","1014.297","25.88","89.4","-1.9409999999999998","0.0"],
    [1420697,"2026-07-14 01:30:00","364","2.217","59.11","3.234","52.76","1014.24","25.88","89.8","-1.911","0.0"],
    [1420698,"2026-07-14 01:40:00","365","1.983","63.4","2.842","74.61","1014.25","25.84","90.1","-2.017","0.0"],
    [1420699,"2026-07-14 01:50:00","366","2.516","63.61","3.43","64.73","1014.2810000000001","25.84","90.2","-2.053","0.0"],
    [1420700,"2026-07-14 02:00:00","367","2.249","59.49","3.43","57.27","1014.295","25.85","90.0","-1.895","0.0"],
    [1420701,"2026-07-14 02:10:00","368","2.279","61.71","3.626","56.01","1014.2739999999999","25.86","89.8","-2.0269999999999997","0.0"],
    [1420702,"2026-07-14 02:20:00","369","2.374","66.69","3.332","83.6","1014.185","25.88","89.5","-1.885","0.0"],
    [1420703,"2026-07-14 02:30:00","370","2.195","69.13","3.136","66.76","1014.2180000000001","25.88","89.2","-1.899","0.0"],
    [1420704,"2026-07-14 02:40:00","371","2.278","62.14","4.116","59.93","1014.133","25.9","88.6","-1.88","0.0"],
    [1420705,"2026-07-14 02:50:00","372","2.095","61.51","3.332","55.52","1014.043","25.89","87.4","-1.88","0.0"],
    [1420706,"2026-07-14 03:00:00","373","2.194","58.16","3.626","55.57","1014.007","25.94","87.6","-1.959","0.0"],
    [1420707,"2026-07-14 03:10:00","374","2.49","55.38","3.724","58.67","1013.915","26.04","87.4","-1.85","0.0"],
    [1420708,"2026-07-14 03:20:00","375","2.7569999999999997","58.42","4.41","54.07","1013.873","26.05","86.9","-1.626","0.0"],
    [1420709,"2026-07-14 03:30:00","376","2.725","50.36","4.998","36.34","1013.865","26.16","86.2","-1.0979999999999999","0.0"],
    [1420710,"2026-07-14 03:40:00","377","3.411","50.18","5.39","55.23","1013.935","26.01","85.8","-1.095","0.0"],
    [1420711,"2026-07-14 03:50:00","378","3.103","47.03","5.292","48.06","1013.997","25.92","85.7","-1.6159999999999999","0.0"],
    [1420712,"2026-07-14 04:00:00","379","2.832","43.64","4.606","45.35","1013.937","25.83","86.1","-1.841","0.0"],
    [1420713,"2026-07-14 04:10:00","380","2.597","42.91","4.508","51.65","1013.8969999999999","25.76","86.0","-1.8430000000000002","0.0"],
    [1420714,"2026-07-14 04:20:00","381","2.077","41.16","3.332","33.62","1013.8810000000001","25.75","86.4","-1.516","0.0"],
    [1420715,"2026-07-14 04:30:00","382","2.26","37.4","3.332","31.1","1013.927","25.71","87.0","0.161","0.0"],
    [1420716,"2026-07-14 04:40:00","383","2.066","32.69","3.332","28.73","1013.9680000000001","25.64","86.9","4.148","0.0"],
    [1420717,"2026-07-14 04:50:00","384","2.461","33.42","3.626","28.97","1014.03","25.6","86.2","10.92","0.0"],
    [1420718,"2026-07-14 05:00:00","385","1.673","35.55","3.234","31.2","1014.044","25.66","85.5","22.63","0.0"],
    [1420719,"2026-07-14 05:10:00","386","1.7630000000000001","26.94","2.842","19.19","1014.179","25.77","84.7","37.38","0.0"],
    [1420720,"2026-07-14 05:20:00","387","1.944","18.95","3.234","16.33","1014.222","25.89","83.1","51.77","0.0"],
    [1420721,"2026-07-14 05:30:00","388","1.8619999999999999","22.04","3.234","22.77","1014.183","26.26","80.8","67.44","0.0"],
    [1420722,"2026-07-14 05:40:00","389","1.7180000000000002","28.87","2.94","45.83","1014.245","26.57","78.94","78.93","0.0"],
    [1420723,"2026-07-14 05:50:00","390","2.154","15.74","3.234","3.44","1014.197","26.61","78.08","100.5","0.0"],
    [1420724,"2026-07-14 06:00:00","391","1.7719999999999998","15.2","3.234","19.38","1014.1489999999999","26.85","77.12","121.7","0.0"],
    [1420725,"2026-07-14 06:10:00","392","2.117","24.61","3.43","23.45","1013.9989999999999","27.0","75.99","147.9","0.0"],
    [1420726,"2026-07-14 06:20:00","393","2.113","23.24","3.136","27.03","1014.041","27.16","75.0","174.3","0.0"],
    [1420727,"2026-07-14 06:30:00","394","2.177","34.26","4.018","16.09","1014.097","27.49","73.77","198.8","0.0"],
    [1420728,"2026-07-14 06:40:00","395","2.032","45.3","3.234","47.68","1014.178","27.62","73.13","228.7","0.0"],
    [1420729,"2026-07-14 06:50:00","396","2.99","74.16","4.214","77.39","1014.296","27.66","74.38","264.4","0.0"],
    [1420730,"2026-07-14 07:00:00","397","3.133","81.5","4.312","71.38","1014.465","27.54","74.04","298.4","0.0"],
    [1420731,"2026-07-14 07:10:00","398","3.498","82.9","4.704","89","1014.553","27.63","73.75","332.3","0.0"],
    [1420732,"2026-07-14 07:20:00","399","2.8939999999999997","90.8","4.704","82.8","1014.5880000000001","27.6","73.75","367.5","0.0"],
    [1420733,"2026-07-14 07:30:00","400","2.386","103.0","4.018","112","1014.674","27.65","74.41","404.5","0.0"],
    [1420734,"2026-07-14 07:40:00","401","2.045","104.2","3.822","71.29","1014.8480000000001","27.85","74.41","438.7","0.0"],
    [1420735,"2026-07-14 07:50:00","402","2.595","102.7","4.41","104.9","1014.982","27.85","73.26","473.6","0.0"],
    [1420736,"2026-07-14 08:00:00","403","3.261","91.5","4.606","75.56","1015.1139999999999","27.78","74.42","507.2","0.0"],
    [1420737,"2026-07-14 08:10:00","404","3.062","93.3","4.606","85.9","1015.2560000000001","27.74","73.33","537.9","0.0"],
    [1420738,"2026-07-14 08:20:00","405","2.898","98.1","5.292","91.5","1015.444","27.87","73.49","563.0","0.0"],
    [1420739,"2026-07-14 08:30:00","406","2.755","94.9","5.684","80.8","1015.57","28.02","73.45","581.3","0.0"],
    [1420740,"2026-07-14 08:40:00","407","2.9960000000000004","93.5","5.194","78.8","1015.628","28.12","71.69","586.5","0.0"],
    [1420741,"2026-07-14 08:50:00","408","2.219","103.3","4.508","96.5","1015.7769999999999","28.4","70.57","638.8","0.0"],
    [1420742,"2026-07-14 09:00:00","409","2.153","108.0","4.41","111.9","1015.943","28.5","72.09","635.7","0.0"],
    [1420743,"2026-07-14 09:10:00","410","2.793","104.5","4.802","108.9","1016.0889999999999","28.24","72.7","687.3","0.0"],
    [1420744,"2026-07-14 09:20:00","411","1.913","110.2","4.41","132.6","1016.188","28.65","71.24","711.5","0.0"],
    [1420745,"2026-07-14 09:30:00","412","1.992","109.8","4.116","151.5","1016.31","28.72","70.83","741.0","0.0"],
    [1420746,"2026-07-14 09:40:00","413","1.578","125.3","3.626","99.8","1016.3910000000001","28.85","70.25","764.0","0.0"],
    [1420747,"2026-07-14 09:50:00","414","2.199","102.4","5.096","93.1","1016.45","28.96","69.84","787.4","0.0"],
    [1420748,"2026-07-14 10:00:00","415","2.989","100.3","5.292","105.3","1016.466","28.26","72.06","814.0","0.0"],
    [1420749,"2026-07-14 10:10:00","416","2.161","112.4","4.802","108.3","1016.547","28.63","71.76","821.0","0.0"],
    [1420750,"2026-07-14 10:20:00","417","1.798","111.5","4.41","86.7","1016.5369999999999","28.96","72.15","874.0","0.0"],
    [1420751,"2026-07-14 10:30:00","418","1.345","126.1","4.704","169.3","1016.638","28.89","72.66","865.0","0.0"],
    [1420752,"2026-07-14 10:40:00","419","2.1519999999999997","126.2","4.802","190.3","1016.6519999999999","28.98","71.81","883.0","0.0"],
    [1420753,"2026-07-14 10:50:00","420","1.798","129.5","4.606","121.5","1016.76","28.82","72.41","928.0","0.0"],
    [1420754,"2026-07-14 11:00:00","421","1.905","115.1","4.214","106.4","1016.748","28.79","71.84","911.0","0.0"],
    [1420755,"2026-07-14 11:10:00","422","1.6580000000000001","127.8","4.9","163.9","1016.692","28.85","71.3","909.0","0.0"],
    [1420756,"2026-07-14 11:20:00","423","1.903","121.7","4.704","125","1016.7310000000001","28.74","71.3","923.0","0.0"],
    [1420757,"2026-07-14 11:30:00","424","1.6780000000000002","124.9","4.9","119.9","1016.743","29.31","69.69","915.0","0.0"],
    [1420758,"2026-07-14 11:40:00","425","1.9980000000000002","128.6","5.292","73.96","1016.548","29.01","70.33","912.0","0.0"],
    [1420759,"2026-07-14 11:50:00","426","2.117","105.1","4.704","128.6","1016.327","28.94","70.63","913.0","0.0"],
    [1420760,"2026-07-14 12:00:00","427","2.763","99.3","6.566","117.9","1016.206","28.31","72.4","915.0","0.0"],
    [1420761,"2026-07-14 12:10:00","428","2.0669999999999997","104.5","5.292","90.6","1016.2330000000001","28.64","71.62","919.0","0.0"],
    [1420762,"2026-07-14 12:20:00","429","2.12","124.9","4.704","88.1","1016.204","29.03","70.37","886.0","0.0"],
    [1420763,"2026-07-14 12:30:00","430","1.6030000000000002","109.3","5.586","111.5","1016.1210000000001","29.1","69.74","885.0","0.0"],
    [1420764,"2026-07-14 12:40:00","431","2.924","98.4","5.194","78.32","1016.053","28.71","70.56","905.0","0.0"],
    [1420765,"2026-07-14 12:50:00","432","2.282","101.2","4.704","86.8","1016.0169999999999","28.66","71.94","896.0","0.0"],
    [1420766,"2026-07-14 13:00:00","433","2.46","94.1","5.586","100","1016.018","28.84","71.39","883.0","0.0"],
    [1420767,"2026-07-14 13:10:00","434","1.715","104.8","4.214","99.4","1016.025","28.87","71.12","899.0","0.0"],
    [1420768,"2026-07-14 13:20:00","435","1.986","108.3","5.096","99","1015.9780000000001","29.07","70.23","880.0","0.0"],
    [1420769,"2026-07-14 13:30:00","436","2.5069999999999997","103.4","4.998","85.5","1015.9060000000001","28.81","70.84","870.0","0.0"],
    [1420770,"2026-07-14 13:40:00","437","2.128","106.7","4.312","82.8","1015.74","28.9","70.88","860.0","0.0"],
    [1420771,"2026-07-14 13:50:00","438","2.2","106.6","4.606","116.9","1015.625","28.79","70.25","835.0","0.0"],
    [1420772,"2026-07-14 14:00:00","439","1.764","109.5","3.822","159.2","1015.6460000000001","29.07","69.64","823.0","0.0"],
    [1420773,"2026-07-14 14:10:00","440","1.3419999999999999","155.8","3.92","181.8","1015.612","28.97","69.81","802.0","0.0"],
    [1420774,"2026-07-14 14:20:00","441","2.117","136.7","4.998","173.6","1015.5239999999999","28.54","70.4","781.8","0.0"],
    [1420775,"2026-07-14 14:30:00","442","1.875","119.6","4.606","93.3","1015.467","28.65","70.76","760.1","0.0"],
    [1420776,"2026-07-14 14:40:00","443","1.9709999999999999","114.8","4.606","104.6","1015.3969999999999","28.59","71.46","738.1","0.0"],
    [1420777,"2026-07-14 14:50:00","444","1.2","124.1","4.214","126.4","1015.377","28.94","71.13","701.9","0.0"],
    [1420778,"2026-07-14 15:00:00","445","1.244","160.4","3.626","120.4","1015.345","29.54","68.53","686.3","0.0"],
    [1420779,"2026-07-14 15:10:00","446","1.51","176.7","3.822","179.3","1015.2869999999999","29.28","68.57","663.3","0.0"],
    [1420780,"2026-07-14 15:20:00","447","1.735","195.5","4.312","181.5","1015.143","29.16","69.19","586.2","0.0"],
    [1420781,"2026-07-14 15:30:00","448","2.251","193.3","4.312","186.3","1015.1089999999999","28.78","69.17","371.4","0.0"],
    [1420782,"2026-07-14 15:40:00","449","2.066","189.2","4.312","181.4","1015.082","28.57","68.69","292.5","0.0"],
    [1420783,"2026-07-14 15:50:00","450","1.676","176.7","3.822","178.2","1015.0239999999999","28.72","69.74","433.5","0.0"],
    [1420784,"2026-07-14 16:00:00","451","2.0","185.0","4.018","171.8","1014.9630000000001","29.11","69.06","541.3","0.0"],
    [1420785,"2026-07-14 16:10:00","452","2.209","191.4","4.802","209.4","1015.0010000000001","28.74","70.89","495.3","0.0"],
    [1420786,"2026-07-14 16:20:00","453","2.77","189.0","5.684","180.9","1014.865","28.59","71.27","467.1","0.0"],
    [1420787,"2026-07-14 16:30:00","454","2.5989999999999998","183.0","4.998","196.9","1014.8","28.48","72.29","441.2","0.0"],
    [1420788,"2026-07-14 16:40:00","455","3.178","191.5","4.998","219.2","1014.697","28.41","72.21","413.7","0.0"],
    [1420789,"2026-07-14 16:50:00","456","2.8080000000000003","196.2","9.31","276","1014.63","28.37","72.44","384.7","0.0"],
    [1420790,"2026-07-14 17:00:00","457","3.0410000000000004","210.5","5.684","232.1","1014.623","28.53","72.06","352.7","0.0"],
    [1420791,"2026-07-14 17:10:00","458","2.7439999999999998","206.8","4.9","220","1014.63","28.75","71.84","320.5","0.0"],
    [1420792,"2026-07-14 17:20:00","459","2.523","201.6","4.508","215.5","1014.5419999999999","28.67","72.46","290.5","0.0"],
    [1420793,"2026-07-14 17:30:00","460","2.7","197.6","4.704","181.7","1014.488","28.5","73.74","259.2","0.0"],
    [1420794,"2026-07-14 17:40:00","461","2.642","200.0","4.312","168.9","1014.415","28.32","75.02","228.1","0.0"],
    [1420795,"2026-07-14 17:50:00","462","2.9189999999999996","207.9","5.586","187.4","1014.466","28.25","75.43","193.7","0.0"],
    [1420796,"2026-07-14 18:00:00","463","2.386","200.2","5.586","184.8","1014.587","28.28","76.03","160.6","0.0"],
    [1420797,"2026-07-14 18:10:00","464","3.397","213.0","5.88","207","1014.687","28.27","76.29","131.5","0.0"],
    [1420798,"2026-07-14 18:20:00","465","3.635","216.3","7.546","208.7","1014.681","27.92","77.79","107.3","0.0"],
    [1420799,"2026-07-14 18:30:00","466","3.1439999999999997","210.9","5.096","234.9","1014.493","27.78","78.33","78.94","0.0"],
    [1420800,"2026-07-14 18:40:00","467","3.187","218.4","6.762","226.5","1014.544","27.69","79.0","56.66","0.0"],
    [1420801,"2026-07-14 18:50:00","468","2.93","214.2","5.978","238.1","1014.556","27.63","79.27","36.18","0.0"],
    [1420802,"2026-07-14 19:00:00","469","3.088","221.9","5.292","240","1014.557","27.59","79.9","19.0","0.0"],
    [1420803,"2026-07-14 19:10:00","470","2.7489999999999997","218.9","4.41","231.7","1014.5060000000001","27.42","80.8","7.916","0.0"],
    [1420804,"2026-07-14 19:20:00","471","3.528","218.7","6.076","218.5","1014.585","27.36","81.3","2.718","0.0"],
    [1420805,"2026-07-14 19:30:00","472","3.364","217.0","5.978","255.7","1014.6","27.28","82.0","0.419","0.0"],
    [1420806,"2026-07-14 19:40:00","473","3.218","211.5","5.39","218.1","1014.54","27.23","82.9","-1.423","0.0"],
    [1420807,"2026-07-14 19:50:00","474","3.8089999999999997","215.3","7.84","209.9","1014.617","27.16","83.4","-2.035","0.0"],
    [1420808,"2026-07-14 20:00:00","475","4.066","218.6","6.664","202.5","1014.762","27.18","83.5","-2.445","0.0"],
    [1420809,"2026-07-14 20:10:00","476","4.135","220.3","7.056","199.7","1014.942","27.19","83.5","-2.313","0.0"],
    [1420810,"2026-07-14 20:20:00","477","3.7119999999999997","221.1","6.272","207.8","1015.207","27.2","83.7","-2.454","0.0"],
    [1420811,"2026-07-14 20:30:00","478","3.86","217.0","6.37","187.5","1015.377","27.2","83.8","-2.2430000000000003","0.0"],
    [1420812,"2026-07-14 20:40:00","479","3.148","223.4","5.39","214.9","1015.45","27.13","83.6","-2.27","0.0"],
    [1420813,"2026-07-14 20:50:00","480","3.3289999999999997","217.8","5.684","207.2","1015.294","27.08","83.3","-2.423","0.0"],
    [1420814,"2026-07-14 21:00:00","481","2.148","213.9","4.508","196.1","1014.8810000000001","27.09","83.1","-2.445","0.0"],
    [1420815,"2026-07-14 21:10:00","482","0.41100000000000003","89.9","1.176","115.7","1014.382","27.0","83.7","-2.487","0.0"],
    [1420816,"2026-07-14 21:20:00","483","0.807","116.7","1.96","218.4","1014.53","26.88","84.5","-2.593","0.0"],
    [1420817,"2026-07-14 21:30:00","484","2.48","225.5","3.92","236.9","1015.084","26.93","84.7","-2.475","0.0"],
    [1420818,"2026-07-14 21:40:00","485","1.102","188.1","3.234","214.7","1014.88","26.9","85.1","-2.45","0.0"],
    [1420819,"2026-07-14 21:50:00","486","1.064","203.2","2.744","225.4","1014.716","26.57","86.9","-2.58","0.0"],
    [1420820,"2026-07-14 22:00:00","487","2.175","225.0","5.684","210.7","1014.977","26.18","89.8","-2.594","0.0"],
    [1420821,"2026-07-14 22:10:00","488","2.6510000000000002","233.4","4.9","221","1015.2669999999999","26.15","90.5","-2.4","0.0"],
    [1420822,"2026-07-14 22:20:00","489","2.695","229.0","4.998","220.1","1015.453","26.25","90.9","-2.593","0.0"],
    [1420823,"2026-07-14 22:30:00","490","2.519","228.6","5.096","225.4","1015.3610000000001","26.32","89.8","-2.144","0.0"],
    [1420824,"2026-07-14 22:40:00","491","1.912","228.8","3.332","224.7","1015.2130000000001","26.57","87.6","-2.004","0.0"],
    [1420825,"2026-07-14 22:50:00","492","2.1519999999999997","224.4","3.724","229.9","1015.202","26.69","86.2","-2.54","0.0"],
    [1420826,"2026-07-14 23:00:00","493","2.559","218.4","4.41","215.6","1015.165","26.78","86.2","-2.6010000000000004","0.0"],
    [1420827,"2026-07-14 23:10:00","494","2.648","222.1","4.214","223.8","1015.1139999999999","26.73","86.7","-3.063","0.0"],
    [1420828,"2026-07-14 23:20:00","495","2.7060000000000004","219.1","4.508","213.7","1015.1089999999999","26.7","87.3","-2.595","0.0"],
    [1420829,"2026-07-14 23:30:00","496","3.5610000000000004","215.7","5.292","222.8","1015.127","26.68","87.8","-2.592","0.0"],
    [1420830,"2026-07-14 23:40:00","497","3.7319999999999998","223.5","5.684","228.7","1015.1089999999999","26.67","88.4","-2.582","0.0"],
    [1420831,"2026-07-14 23:50:00","498","2.867","226.4","4.508","232.1","1015.1110000000001","26.63","88.5","-2.5069999999999997","0.0"],
    [1420832,"2026-07-15 00:00:00","499","3.17","222.3","4.9","228.6","1015.034","26.57","88.5","-2.574","0.0"],
    [1420833,"2026-07-15 00:10:00","500","2.9730000000000003","221.4","4.9","192.2","1014.998","26.57","88.5","-2.575","0.0"],
    [1420834,"2026-07-15 00:20:00","501","3.408","219.0","5.096","220.8","1015.074","26.57","88.6","-2.577","0.0"],
    [1420835,"2026-07-15 00:30:00","502","4.08","219.7","6.272","234.4","1015.174","26.57","88.4","-2.436","0.0"],
    [1420836,"2026-07-15 00:40:00","503","3.888","224.8","6.076","235","1015.315","26.57","88.2","-2.092","0.0"],
    [1420837,"2026-07-15 00:50:00","504","3.5410000000000004","229.2","5.782","250.9","1015.433","26.56","88.3","-1.902","0.0"],
    [1420838,"2026-07-15 01:00:00","505","2.997","229.3","5.194","243.7","1015.4580000000001","26.49","88.1","-1.91","0.0"],
    [1420839,"2026-07-15 01:10:00","506","2.912","230.6","5.292","237.5","1015.3839999999999","26.41","87.7","-2.039","0.0"],
    [1420840,"2026-07-15 01:20:00","507","2.483","231.0","4.606","250.8","1015.283","26.42","87.7","-2.28","0.0"],
    [1420841,"2026-07-15 01:30:00","508","2.465","229.6","4.704","227.6","1015.2489999999999","26.4","87.6","-2.4419999999999997","0.0"],
    [1420842,"2026-07-15 01:40:00","509","2.3","232.3","3.92","209.2","1015.171","26.4","87.5","-2.576","0.0"],
    [1420843,"2026-07-15 01:50:00","510","2.174","232.4","4.018","240.9","1015.0880000000001","26.4","87.7","-2.5069999999999997","0.0"],
    [1420844,"2026-07-15 02:00:00","511","1.666","248.5","3.92","264.6","1014.9839999999999","26.41","87.4","-2.5580000000000003","0.0"],
    [1420845,"2026-07-15 02:10:00","512","1.409","257.5","2.744","284.9","1014.9730000000001","26.22","87.1","-2.4219999999999997","0.0"],
    [1420846,"2026-07-15 02:20:00","513","2.213","226.8","3.43","220.5","1014.949","26.35","87.0","-2.592","0.0"],
    [1420847,"2026-07-15 02:30:00","514","1.672","229.5","2.744","253.6","1014.895","26.45","86.2","-2.396","0.0"],
    [1420848,"2026-07-15 02:40:00","515","1.633","224.8","2.744","223.4","1014.82","26.41","85.9","-2.574","0.0"],
    [1420849,"2026-07-15 02:50:00","516","1.361","211.8","2.254","209.9","1014.811","26.48","86.0","-2.589","0.0"],
    [1420850,"2026-07-15 03:00:00","517","1.1840000000000002","216.3","1.96","213.3","1014.735","26.34","86.9","-2.593","0.0"],
    [1420851,"2026-07-15 03:10:00","518","0.8740000000000001","194.4","1.764","199.2","1014.427","26.21","87.8","-2.593","0.0"],
    [1420852,"2026-07-15 03:20:00","519","1.6","213.5","2.646","210.3","1014.578","26.15","88.5","-2.585","0.0"],
    [1420853,"2026-07-15 03:30:00","520","1.685","232.0","3.234","249.5","1014.9060000000001","26.17","88.4","-1.959","0.0"],
    [1420854,"2026-07-15 03:40:00","521","1.122","239.7","2.058","232.7","1014.913","26.05","88.3","-2.039","0.0"],
    [1420855,"2026-07-15 03:50:00","522","1.024","285.0","1.764","275.2","1014.817","25.65","87.0","-1.9809999999999999","0.0"],
    [1420856,"2026-07-15 04:00:00","523","1.185","283.1","1.96","285.4","1014.803","25.42","85.2","-1.972","0.0"],
    [1420857,"2026-07-15 04:10:00","524","0.858","269.2","2.058","285.7","1014.842","25.46","84.3","-1.954","0.0"],
    [1420858,"2026-07-15 04:20:00","525","0.7509999999999999","254.7","1.666","231.7","1014.8","25.66","84.6","-1.671","0.0"],
    [1420859,"2026-07-15 04:30:00","526","0.9229999999999999","270.1","1.666","260.6","1014.919","25.72","84.9","-0.077","0.0"],
    [1420860,"2026-07-15 04:40:00","527","0.7879999999999999","268.0","1.568","276.9","1014.942","25.59","84.7","2.862","0.0"],
    [1420861,"2026-07-15 04:50:00","528","0.9520000000000001","238.1","1.764","245.1","1015.0189999999999","25.83","85.6","9.5","0.0"],
    [1420862,"2026-07-15 05:00:00","529","1.003","243.7","2.45","215.3","1015.242","25.98","85.6","20.67","0.0"],
    [1420863,"2026-07-15 05:10:00","530","0.8759999999999999","233.2","1.96","241","1015.27","25.96","84.7","39.33","0.0"],
    [1420864,"2026-07-15 05:20:00","531","0.992","245.4","1.862","252","1015.337","26.13","84.0","51.41","0.0"],
    [1420865,"2026-07-15 05:30:00","532","1.158","234.5","3.136","217.5","1015.3330000000001","26.25","83.9","55.35","0.0"],
    [1420866,"2026-07-15 05:40:00","533","1.548","229.4","2.94","261.7","1015.4110000000001","26.36","84.0","66.42","0.0"],
    [1420867,"2026-07-15 05:50:00","534","1.4709999999999999","233.7","3.724","213.4","1015.3989999999999","26.42","84.1","97.3","0.0"],
    [1420868,"2026-07-15 06:00:00","535","3.377","213.4","6.37","224.1","1015.7589999999999","26.82","83.9","119.4","0.0"],
    [1420869,"2026-07-15 06:10:00","536","3.0239999999999996","212.3","5.488","219.1","1015.8330000000001","26.99","84.9","143.3","0.0"],
    [1420870,"2026-07-15 06:20:00","537","2.824","211.7","4.998","206","1015.77","27.15","85.7","171.4","0.0"],
    [1420871,"2026-07-15 06:30:00","538","3.077","211.5","6.272","205.8","1015.745","27.26","85.8","202.8","0.0"],
    [1420872,"2026-07-15 06:40:00","539","2.8939999999999997","217.1","5.194","213.3","1015.712","27.37","85.5","232.4","0.0"],
    [1420873,"2026-07-15 06:50:00","540","4.486000000000001","221.9","5.782","201.4","1015.574","27.53","83.6","162.8","0.0"],
    [1420874,"2026-07-15 07:10:00","543","1.831","227.0","2.548","223.7","1015.5269999999999","27.94","79.97","340.2","0.0"],
    [1420875,"2026-07-15 07:20:00","544","2.858","218.0","4.802","209","1015.409","28.17","79.24","353.8","0.0"],
    [1420876,"2026-07-15 07:30:00","545","2.189","217.2","4.214","222.2","1015.187","28.62","76.89","388.4","0.0"],
    [1420877,"2026-07-15 07:40:00","546","1.8130000000000002","233.0","3.724","219","1015.039","28.9","73.88","418.2","0.0"],
    [1420878,"2026-07-15 07:50:00","547","1.216","247.6","2.94","220.1","1014.9810000000001","29.45","71.4","451.7","0.0"],
    [1420879,"2026-07-15 08:00:00","548","1.425","193.4","3.528","177.6","1014.988","29.88","70.13","488.5","0.0"],
    [1420880,"2026-07-15 08:10:00","549","2.3409999999999997","194.5","4.508","181.5","1014.992","29.7","74.24","529.2","0.0"],
    [1420881,"2026-07-15 08:20:00","550","2.8810000000000002","195.1","4.802","166.8","1015.0930000000001","29.5","74.84","561.1","0.0"],
    [1420882,"2026-07-15 08:30:00","551","3.0780000000000003","188.7","6.272","162.9","1015.4580000000001","29.49","74.62","543.2","0.0"],
    [1420883,"2026-07-15 08:40:00","552","5.1739999999999995","208.8","8.04","198.1","1015.582","29.26","74.34","585.5","0.0"],
    [1420884,"2026-07-15 08:50:00","553","4.949","216.3","8.04","219.8","1015.3739999999999","29.14","74.15","616.1","0.0"],
    [1420885,"2026-07-15 09:00:00","541","3.965","216.7","6.468","214.2","1015.56","27.59","83.0","280.9","0.0"],
    [1420886,"2026-07-15 09:10:00","542","3.3","222.8","5.39","228.6","1015.595","27.89","80.9","325.1","0.0"],
    [1420887,"2026-07-15 09:20:00","1","3.903","189.5","8.23","181.6","1014.742","30.42","70.29","710.0","0.0"],
    [1420888,"2026-07-15 09:30:00","2","3.032","193.4","5.684","177.7","1014.5360000000001","29.97","72.09","721.9","0.0"],
    [1420889,"2026-07-15 09:40:00","3","2.734","202.3","4.41","209.9","1014.302","30.08","71.4","751.6","0.0"],
    [1420890,"2026-07-15 09:50:00","4","3.428","189.5","6.076","173.8","1014.438","30.34","71.29","764.2","0.0"],
    [1420891,"2026-07-15 10:00:00","5","3.173","203.4","6.272","177","1014.202","30.47","71.06","679.2","0.0"],
    [1420892,"2026-07-15 10:10:00","6","2.727","203.2","5.782","168.6","1013.8539999999999","30.85","69.59","826.0","0.0"],
    [1420893,"2026-07-15 10:20:00","7","2.843","217.9","4.508","234.4","1013.8439999999999","31.28","67.03","828.0","0.0"],
    [1420894,"2026-07-15 10:30:00","8","3.0189999999999997","197.8","5.978","173.3","1013.9989999999999","31.65","67.13","858.0","0.0"],
    [1420895,"2026-07-15 10:40:00","9","2.7260000000000004","203.2","5.292","167.3","1014.113","31.66","66.53","358.0","0.0"],
    [1420896,"2026-07-15 10:50:00","10","3.242","198.7","6.958","162.9","1014.388","30.5","71.53","162.5","0.0"],
    [1420897,"2026-07-15 11:00:00","11","4.394","205.0","13.82","192.9","1014.6410000000001","29.5","76.42","276.6","0.0"],
    [1420898,"2026-07-15 11:10:00","12","4.467","195.6","10.88","166","1014.487","29.05","78.92","466.8","0.0"],
    [1420899,"2026-07-15 11:20:00","13","5.459","208.5","10.19","227.7","1015.044","29.39","78.46","571.6","0.0"],
    [1420900,"2026-07-15 11:30:00","14","5.041","207.8","10.29","226.3","1015.125","30.24","75.6","710.1","0.0"],
    [1420901,"2026-07-15 11:40:00","15","5.4110000000000005","205.5","11.47","223.1","1014.73","29.9","75.93","430.8","0.0"],
    [1420902,"2026-07-15 11:50:00","16","7.15","218.4","15.09","220.3","1015.7139999999999","29.81","75.67","520.3","0.0"],
    [1420903,"2026-07-15 12:00:00","17","8.56","223.3","12.15","225.1","1015.87","29.72","76.29","601.3","0.0"],
    [1420904,"2026-07-15 12:10:00","18","8.83","219.6","13.62","224.8","1015.7460000000001","29.69","76.64","564.4","0.0"],
    [1420905,"2026-07-15 12:20:00","19","7.65","222.0","12.54","216.9","1015.675","29.77","76.45","720.3","0.0"],
    [1420906,"2026-07-15 12:30:00","20","6.667999999999999","217.8","11.86","197.4","1015.325","30.06","75.09","703.4","0.0"],
    [1420907,"2026-07-15 12:40:00","21","5.603","219.1","10.58","191.3","1015.061","30.1","73.87","533.0","0.0"],
    [1420908,"2026-07-15 12:50:00","22","4.453","212.6","9.7","229.1","1014.765","29.87","74.52","283.6","0.0"],
    [1420909,"2026-07-15 13:00:00","23","5.306","212.8","9.8","215.8","1014.819","29.58","75.41","348.7","0.0"],
    [1420910,"2026-07-15 13:10:00","24","6.164","212.6","10","205.6","1014.7360000000001","29.16","78.31","334.6","0.0"],
    [1420911,"2026-07-15 13:20:00","25","7.057","217.7","12.05","204.4","1015.188","29.53","76.79","584.8","0.0"],
    [1420912,"2026-07-15 13:30:00","26","6.686","217.4","10.49","200.6","1014.91","30.06","73.44","769.6","0.0"],
    [1420913,"2026-07-15 13:40:00","27","5.08","218.2","8.53","219.7","1014.633","31.09","66.55","863.0","0.0"],
    [1420914,"2026-07-15 13:50:00","28","4.1610000000000005","214.2","7.546","226.9","1014.326","32.52","60.28","809.0","0.0"],
    [1420915,"2026-07-15 14:00:00","29","4.673","212.4","7.35","204.9","1014.495","32.87","59.4","617.3","0.0"],
    [1420916,"2026-07-15 14:10:00","30","3.6180000000000003","203.4","7.448","209.8","1014.552","32.55","61.84","624.8","0.0"],
    [1420917,"2026-07-15 14:20:00","31","3.727","199.3","6.468","200.4","1014.209","31.24","66.61","441.4","0.0"],
    [1420918,"2026-07-15 14:30:00","32","3.725","200.7","8.13","176.4","1014.312","30.75","70.18","420.3","0.0"],
    [1420919,"2026-07-15 14:40:00","33","3.685","202.8","7.84","216.3","1014.194","29.83","76.34","241.0","0.0"],
    [1420920,"2026-07-15 14:50:00","34","4.471","207.2","7.742","220.5","1014.053","29.43","79.11","277.7","0.0"],
    [1420921,"2026-07-15 15:00:00","35","4.2860000000000005","211.0","8.04","181.1","1013.84","29.37","79.52","222.5","0.0"],
    [1420922,"2026-07-15 15:10:00","36","2.6710000000000003","200.3","6.566","215.5","1013.622","28.97","81.9","215.6","0.0"],
    [1420923,"2026-07-15 15:20:00","37","3.325","211.9","6.86","235.7","1013.798","29.22","81.5","309.1","0.0"],
    [1420924,"2026-07-15 15:30:00","38","2.605","204.3","4.9","233.6","1013.398","29.33","81.4","287.0","0.0"],
    [1420925,"2026-07-15 15:40:00","39","4.284","216.9","7.056","231.2","1013.81","29.27","81.3","312.9","0.0"],
    [1420926,"2026-07-15 15:50:00","40","4.985","213.2","8.62","217.7","1014.0360000000001","29.54","80.1","331.9","0.0"],
    [1420927,"2026-07-15 16:00:00","41","6.013","218.6","10.49","222.6","1014.61","29.68","80.5","448.5","0.0"],
    [1420928,"2026-07-15 16:10:00","42","4.571000000000001","214.7","9.21","207.3","1014.459","29.92","78.7","253.0","0.0"],
    [1420929,"2026-07-15 16:20:00","43","5.438","215.7","9.7","227.4","1014.258","29.49","79.53","276.5","0.0"],
    [1420930,"2026-07-15 16:30:00","44","5.473","212.5","10.68","201.4","1013.959","29.84","77.98","310.6","0.0"],
    [1420931,"2026-07-15 16:40:00","45","5.407","217.0","10.39","218","1014.0989999999999","29.55","77.95","134.7","0.0"],
    [1420932,"2026-07-15 16:50:00","46","4.51","222.5","8.04","231.3","1014.177","29.48","76.68","248.4","0.0"],
    [1420933,"2026-07-15 17:00:00","47","6.097","217.6","11.27","220.5","1014.52","29.83","73.94","195.1","0.0"],
    [1420934,"2026-07-15 17:10:00","48","6.206","217.4","11.66","217.2","1014.4739999999999","29.65","75.05","213.2","0.0"],
    [1420935,"2026-07-15 17:20:00","49","6.016","218.6","9.8","231.1","1014.53","29.49","77.89","156.7","0.0"],
    [1420936,"2026-07-15 17:30:00","50","5.7829999999999995","217.9","9.41","206.1","1014.3989999999999","29.18","78.95","150.5","0.0"],
    [1420937,"2026-07-15 17:40:00","51","4.72","218.6","8.62","213.6","1014.3760000000001","29.26","78.78","134.8","0.0"],
    [1420938,"2026-07-15 17:50:00","52","4.14","222.0","6.762","212.5","1014.188","29.14","79.29","136.5","0.0"],
    [1420939,"2026-07-15 18:00:00","53","4.948","215.4","9.21","237.3","1014.3960000000001","29.31","78.62","100.3","0.0"],
    [1420940,"2026-07-15 18:10:00","54","5.0360000000000005","221.5","9.21","207.2","1014.395","28.84","81.4","77.66","0.0"],
    [1420941,"2026-07-15 18:20:00","55","5.189","220.6","8.23","229.8","1014.456","28.72","81.2","74.9","0.0"],
    [1420942,"2026-07-15 18:30:00","56","4.255","218.5","6.958","226.5","1014.2360000000001","28.72","82.4","53.0","0.0"],
    [1420943,"2026-07-15 18:40:00","57","4.312","221.8","7.546","189.6","1014.206","28.45","83.4","35.75","0.0"],
    [1420944,"2026-07-15 18:50:00","58","4.376","216.6","7.252","214.2","1014.182","28.46","82.9","41.65","0.0"],
    [1420945,"2026-07-15 19:00:00","59","4.522","220.3","6.664","209.9","1014.252","28.51","82.8","41.3","0.0"],
    [1420946,"2026-07-15 19:10:00","60","4.591","224.4","7.35","226.2","1014.449","28.63","81.7","29.37","0.0"],
    [1420947,"2026-07-15 19:20:00","61","3.718","223.9","6.566","212.9","1014.2610000000001","28.71","80.9","13.19","0.0"],
    [1420948,"2026-07-15 19:30:00","62","3.304","222.8","5.782","213.9","1014.2660000000001","28.7","80.5","1.47","0.0"],
    [1420949,"2026-07-15 19:40:00","63","3.117","213.8","5.096","217.5","1014.2080000000001","28.5","81.3","-1.33","0.0"],
    [1420950,"2026-07-15 19:50:00","64","2.858","217.3","4.606","220.6","1014.168","28.26","83.2","-2.3040000000000003","0.0"],
    [1420951,"2026-07-15 20:00:00","65","3.884","219.8","5.586","212.5","1014.3939999999999","28.1","84.7","-2.577","0.0"],
    [1420952,"2026-07-15 20:10:00","66","3.3810000000000002","209.2","7.252","220.6","1014.587","28.15","84.8","-2.552","0.0"],
    [1420953,"2026-07-15 20:20:00","67","4.271","212.0","7.056","207.1","1014.4910000000001","27.9","87.4","-2.126","0.0"],
    [1420954,"2026-07-15 20:30:00","68","3.55","221.5","5.978","206.5","1014.419","27.86","85.9","-2.529","0.0"],
    [1420955,"2026-07-15 20:40:00","69","4.7410000000000005","220.1","8.13","192.1","1014.8589999999999","28.08","84.1","-2.356","0.0"],
    [1420956,"2026-07-15 20:50:00","70","2.861","233.1","6.762","216.6","1015.049","28.0","84.5","-2.062","0.0"],
    [1420957,"2026-07-15 21:00:00","71","2.412","228.6","4.606","231.7","1014.8989999999999","27.98","83.4","-2.593","0.0"],
    [1420958,"2026-07-15 21:10:00","72","1.733","234.8","3.724","227.3","1014.765","28.13","80.9","-2.592","0.0"],
    [1420959,"2026-07-15 21:20:00","73","1.695","228.1","3.528","245.5","1014.932","28.19","80.3","-2.593","0.0"],
    [1420960,"2026-07-15 21:30:00","74","2.184","214.0","3.43","225.7","1014.865","28.16","77.23","-2.592","0.0"],
    [1420961,"2026-07-15 21:40:00","75","2.37","219.7","3.822","210","1014.922","27.86","76.64","-2.7560000000000002","0.0"],
    [1420962,"2026-07-15 21:50:00","76","2.456","225.4","5.39","208.1","1015.215","27.33","78.64","-3.998","0.0"],
    [1420963,"2026-07-15 22:00:00","77","2.04","233.5","3.528","298.9","1015.222","27.35","78.81","-2.665","0.0"],
    [1420964,"2026-07-15 22:10:00","78","1.4409999999999998","236.0","2.842","210.2","1015.28","27.38","77.39","-3.306","0.0"],
    [1420965,"2026-07-15 22:20:00","79","1.495","295.6","2.352","294","1015.062","27.79","74.79","-3.5389999999999997","0.0"],
    [1420966,"2026-07-15 22:30:00","80","0.642","321.3","1.568","341.8","1014.805","27.58","75.69","-3.675","0.0"],
    [1420967,"2026-07-15 22:40:00","81","0.56","161.0","1.666","172.8","1014.691","27.49","74.78","-3.045","0.0"],
    [1420968,"2026-07-15 22:50:00","82","2.089","182.4","6.86","179.1","1014.7919999999999","27.97","73.44","-2.269","0.0"],
    [1420969,"2026-07-15 23:00:00","83","1.632","203.7","4.41","176.8","1014.9639999999999","27.68","82.5","-2.53","0.0"],
    [1420970,"2026-07-15 23:10:00","84","1.012","316.7","2.058","4.554","1014.573","27.37","84.4","-2.593","0.0"],
    [1420971,"2026-07-15 23:20:00","85","0.919","41.27","2.156","6.976","1014.438","27.06","84.0","-2.593","0.0"],
    [1420972,"2026-07-15 23:30:00","86","0.316","157.9","1.274","149.9","1014.6010000000001","27.25","83.7","-2.585","0.0"],
    [1420973,"2026-07-15 23:40:00","87","0.045","212.0","0.686","199.8","1014.67","27.17","83.6","-2.55","0.0"],
    [1420974,"2026-07-15 23:50:00","88","0.91","14.92","2.058","5.329","1014.4580000000001","26.97","84.1","-2.574","0.0"],
    [1420975,"2026-07-16 00:00:00","89","0.5529999999999999","61.57","1.568","29.84","1014.462","26.83","83.8","-2.593","0.0"],
    [1420976,"2026-07-16 00:10:00","90","0.276","346.3","1.47","349","1014.622","26.83","82.6","-2.593","0.0"],
    [1420977,"2026-07-16 00:20:00","91","0.172","332.2","1.176","340.3","1014.7489999999999","27.01","80.5","-1.9680000000000002","0.0"],
    [1420978,"2026-07-16 00:30:00","92","0.128","354.9","0.49","354.9","1014.753","27.02","79.84","-2.072","0.0"],
    [1420979,"2026-07-16 00:40:00","93","0.345","80.1","1.274","105.9","1014.954","27.09","79.93","-2.1519999999999997","0.0"],
    [1420980,"2026-07-16 00:50:00","94","0.82","103.3","1.862","82.5","1015.046","27.54","79.67","-2.0980000000000003","0.0"],
    [1420981,"2026-07-16 01:00:00","95","1.764","59.82","2.548","83.4","1015.038","27.41","83.1","-2.416","0.0"],
    [1420982,"2026-07-16 01:10:00","96","1.86","48.02","2.842","33.53","1015.055","27.34","83.3","-2.2159999999999997","0.0"],
    [1420983,"2026-07-16 01:20:00","97","2.138","51.17","3.136","56.93","1015.079","27.52","82.6","-1.895","0.0"],
    [1420984,"2026-07-16 01:30:00","98","2.1590000000000003","63.22","4.116","63.95","1015.107","27.56","82.8","-2.194","0.0"],
    [1420985,"2026-07-16 01:40:00","99","2.51","70.86","3.92","73.54","1015.1360000000001","27.45","83.8","-1.909","0.0"],
    [1420986,"2026-07-16 01:50:00","100","1.984","71.4","3.234","78.97","1015.2439999999999","27.16","86.0","-2.0980000000000003","0.0"],
    [1420987,"2026-07-16 02:00:00","101","2.4659999999999997","80.5","3.822","88.8","1015.2769999999999","27.19","86.5","-2.148","0.0"],
    [1420988,"2026-07-16 02:10:00","102","2.14","84.0","3.43","96.2","1015.3710000000001","27.31","86.4","-1.8780000000000001","0.0"],
    [1420989,"2026-07-16 02:20:00","103","2.105","72.62","3.136","73.16","1015.3539999999999","27.23","87.4","-1.885","0.0"],
    [1420990,"2026-07-16 02:30:00","104","1.829","61.11","2.842","50.82","1015.3739999999999","27.04","88.5","-2.099","0.0"],
    [1420991,"2026-07-16 02:40:00","105","1.6440000000000001","49.19","2.744","65.11","1015.309","26.93","89.2","-2.366","0.0"],
    [1420992,"2026-07-16 02:50:00","106","1.534","46.69","2.548","46.51","1015.33","26.84","89.9","-2.498","0.0"],
    [1420993,"2026-07-16 03:00:00","107","0.732","16.88","2.058","281","1015.8610000000001","26.82","90.3","-2.114","0.0"],
    [1420994,"2026-07-16 03:10:00","108","2.412","354.5","5.096","77.61","1015.8889999999999","26.83","90.2","-1.6780000000000002","0.0"],
    [1420995,"2026-07-16 03:20:00","109","5.747000000000001","82.8","8.23","82","1014.071","26.87","89.8","-1.479","0.0"],
    [1420996,"2026-07-16 03:30:00","110","3.323","83.2","7.742","71.99","1014.4580000000001","26.76","90.0","-1.73","0.0"],
    [1420997,"2026-07-16 03:40:00","111","1.23","66.96","2.646","77.9","1015.337","26.7","90.3","-2.405","0.0"],
    [1420998,"2026-07-16 03:50:00","112","0.971","76.92","3.234","69.18","1015.7669999999999","26.7","90.4","-2.555","0.0"],
    [1420999,"2026-07-16 04:00:00","113","1.328","39.38","2.94","39.44","1015.7230000000001","26.62","90.3","-2.444","0.0"],
    [1421000,"2026-07-16 04:10:00","114","2.376","52.5","4.018","52.47","1015.1610000000001","26.57","90.2","-1.861","0.0"],
    [1421001,"2026-07-16 04:20:00","115","2.323","77.15","3.92","73.79","1015.4019999999999","26.58","89.4","-1.534","0.0"],
    [1421002,"2026-07-16 04:30:00","116","2.9419999999999997","75.77","4.41","95.1","1015.467","26.48","88.9","-0.425","0.0"],
    [1421003,"2026-07-16 04:40:00","117","3.117","75.64","4.508","64.05","1015.6460000000001","26.48","88.7","2.6210000000000004","0.0"],
    [1421004,"2026-07-16 04:50:00","118","2.694","72.37","3.724","78.44","1015.828","26.5","88.9","8.54","0.0"],
    [1421005,"2026-07-16 05:00:00","119","2.2680000000000002","60.53","3.234","56.97","1015.9630000000001","26.47","89.3","18.72","0.0"],
    [1421006,"2026-07-16 05:10:00","120","2.406","39.99","3.92","46.61","1016.057","26.47","89.4","34.29","0.0"],
    [1421007,"2026-07-16 05:20:00","121","2.633","43.55","4.312","55.42","1015.955","26.55","88.9","50.53","0.0"],
    [1421008,"2026-07-16 05:30:00","122","3.8760000000000003","48.77","6.37","47.48","1015.735","26.62","88.5","59.36","0.0"],
    [1421009,"2026-07-16 05:40:00","123","4.084","51.48","6.468","57.85","1015.456","26.63","88.7","73.53","0.0"],
    [1421010,"2026-07-16 05:50:00","124","4.203","49.22","7.644","62.35","1015.2669999999999","26.62","88.9","88.7","0.0"],
    [1421011,"2026-07-16 06:00:00","125","4.859","52.87","8.13","43.99","1014.936","26.63","88.8","100.0","0.0"],
    [1421012,"2026-07-16 06:10:00","126","5.092","55.17","8.13","56.54","1014.831","26.72","88.9","136.4","0.0"],
    [1421013,"2026-07-16 06:20:00","127","4.502","57.23","6.86","75.43","1015.035","26.81","88.4","160.4","0.0"],
    [1421014,"2026-07-16 06:30:00","128","4.792","52.97","8.72","48.25","1014.988","26.96","86.4","194.8","0.0"],
    [1421015,"2026-07-16 06:40:00","129","5.523","55.1","8.82","54.65","1014.953","27.04","85.6","220.9","0.0"],
    [1421016,"2026-07-16 06:50:00","130","4.508","57.34","6.86","42.25","1015.03","27.26","85.2","248.6","0.0"],
    [1421017,"2026-07-16 07:00:00","131","3.781","56.08","6.664","45.49","1015.362","27.47","84.2","279.0","0.0"],
    [1421018,"2026-07-16 07:10:00","132","4.237","52.38","6.566","52.96","1015.4889999999999","27.57","82.7","317.3","0.0"],
    [1421019,"2026-07-16 07:20:00","133","3.545","47.73","5.782","48.8","1015.699","27.89","81.3","350.2","0.0"],
    [1421020,"2026-07-16 07:30:00","134","3.843","48.14","6.174","46.62","1015.752","27.96","81.3","451.5","0.0"],
    [1421021,"2026-07-16 07:40:00","135","4.272","52.18","6.37","58.2","1015.88","28.11","80.6","459.7","0.0"],
    [1421022,"2026-07-16 07:50:00","136","4.254","58.27","5.978","57.52","1016.135","28.04","80.5","410.2","0.0"],
    [1421023,"2026-07-16 08:00:00","137","3.944","59.25","5.782","86.3","1016.199","28.45","78.84","516.5","0.0"],
    [1421024,"2026-07-16 08:10:00","138","3.938","63.05","5.586","75.41","1016.1560000000001","28.3","79.92","506.6","0.0"],
    [1421025,"2026-07-16 08:20:00","139","4.949","73.39","6.566","65.52","1015.9810000000001","28.3","80.2","474.2","0.0"],
    [1421026,"2026-07-16 08:30:00","140","4.908","75.95","6.762","87","1015.685","28.08","79.74","464.3","0.0"],
    [1421027,"2026-07-16 08:40:00","141","4.699","77.25","6.468","68.24","1015.732","28.49","77.72","579.6","0.0"],
    [1421028,"2026-07-16 08:50:00","142","5.294","69.81","7.546","78.03","1015.342","28.63","77.48","543.7","0.0"],
    [1421029,"2026-07-16 09:00:00","143","4.99","59.0","6.958","67.66","1015.293","28.42","78.66","493.6","0.0"],
    [1421030,"2026-07-16 09:10:00","144","5.114","65.93","7.056","72.94","1015.419","28.12","80.5","534.1","0.0"],
    [1421031,"2026-07-16 09:20:00","145","4.6930000000000005","62.41","6.958","77.44","1015.373","28.31","80.1","564.6","0.0"],
    [1421032,"2026-07-16 09:30:00","146","4.848","57.81","7.448","58.69","1015.37","28.44","79.47","560.5","0.0"],
    [1421033,"2026-07-16 09:40:00","147","5.504","63.19","7.938","44.2","1015.2180000000001","28.46","79.4","631.8","0.0"],
    [1421034,"2026-07-16 09:50:00","148","4.309","67.88","7.35","69.64","1015.475","28.54","79.33","502.3","0.0"],
    [1421035,"2026-07-16 10:00:00","149","5.586","74.22","7.644","71.38","1015.467","28.52","79.89","629.4","0.0"],
    [1421036,"2026-07-16 10:10:00","150","5.402","75.76","7.546","66.63","1015.56","28.37","80.7","484.0","0.0"],
    [1421037,"2026-07-16 10:20:00","151","5.226","74.24","7.252","84.7","1015.5419999999999","28.4","80.6","614.1","0.0"],
    [1421038,"2026-07-16 10:30:00","152","4.531000000000001","82.5","7.938","79.71","1015.685","28.69","79.64","799.3","0.0"],
    [1421039,"2026-07-16 10:40:00","153","4.9","69.37","7.056","85.2","1015.5160000000001","28.73","79.32","616.8","0.0"],
    [1421040,"2026-07-16 10:50:00","154","4.814","69.85","6.958","76.86","1015.5880000000001","29.16","77.19","669.1","0.0"],
    [1421041,"2026-07-16 11:00:00","155","5.122999999999999","71.52","7.154","64.75","1015.495","28.77","78.78","667.5","0.0"],
    [1421042,"2026-07-16 11:10:00","156","5.178","73.03","7.84","82.3","1015.309","28.94","78.2","811.0","0.0"],
    [1421043,"2026-07-16 11:20:00","157","4.735","80.7","7.252","82.9","1015.378","29.05","77.83","747.5","0.0"],
    [1421044,"2026-07-16 11:30:00","158","4.908","70.3","6.762","94.5","1015.252","29.05","77.97","642.9","0.0"],
    [1421045,"2026-07-16 11:40:00","159","5.085","79.99","7.644","84.5","1015.321","28.82","78.46","543.4","0.0"],
    [1421046,"2026-07-16 11:50:00","160","4.715","85.6","7.448","80.5","1015.5219999999999","28.8","78.85","802.0","0.0"],
    [1421047,"2026-07-16 12:00:00","161","4.788","81.7","7.644","80.5","1015.613","29.11","77.52","934.0","0.0"],
    [1421048,"2026-07-16 12:10:00","162","3.742","91.3","6.174","87.8","1015.6389999999999","29.13","77.86","827.0","0.0"],
    [1421049,"2026-07-16 12:20:00","163","3.784","86.2","6.37","84.7","1015.807","29.02","77.77","839.0","0.0"],
    [1421050,"2026-07-16 12:30:00","164","4.101","85.3","6.076","90.8","1015.701","29.25","77.5","893.0","0.0"],
    [1421051,"2026-07-16 12:40:00","165","4.802","86.5","6.762","78.03","1015.707","28.7","79.07","463.7","0.0"],
    [1421052,"2026-07-16 12:50:00","166","5.244","87.3","7.644","109.2","1015.4169999999999","28.44","80.2","653.3","0.0"],
    [1421053,"2026-07-16 13:00:00","167","5.739","87.7","8.23","84.5","1015.2660000000001","28.34","80.4","455.6","0.0"],
    [1421054,"2026-07-16 13:10:00","168","5.736000000000001","85.3","8.23","87.4","1015.06","28.48","79.84","518.8","0.0"],
    [1421055,"2026-07-16 13:20:00","169","4.87","86.7","6.37","88.1","1015.547","28.41","79.82","387.6","0.0"],
    [1421056,"2026-07-16 13:30:00","170","4.368","83.6","6.272","102.3","1015.811","28.21","80.6","445.8","0.0"],
    [1421057,"2026-07-16 13:40:00","171","4.03","82.3","5.782","82.4","1015.882","28.11","80.9","315.0","0.0"],
    [1421058,"2026-07-16 13:50:00","172","3.36","84.5","5.096","96.6","1015.928","28.15","81.2","490.4","0.0"],
    [1421059,"2026-07-16 14:00:00","173","2.479","90.2","4.9","67.75","1016.438","28.08","81.1","287.7","0.0"],
    [1421060,"2026-07-16 14:10:00","174","3.377","93.2","5.586","91.5","1015.857","27.85","82.0","254.8","0.0"],
    [1421061,"2026-07-16 14:20:00","175","4.013999999999999","91.7","6.468","87.5","1015.628","27.79","82.2","322.0","0.0"],
    [1421062,"2026-07-16 14:30:00","176","4.863","85.3","6.86","76.23","1014.699","28.22","80.9","698.8","0.0"],
    [1421063,"2026-07-16 14:40:00","177","3.965","57.78","5.978","69.55","1014.94","28.22","80.5","401.6","0.0"],
    [1421064,"2026-07-16 14:50:00","178","3.3689999999999998","38.74","5.488","32.71","1014.687","27.97","81.0","239.1","0.0"],
    [1421065,"2026-07-16 15:00:00","179","4.933","49.66","7.938","50.01","1013.9060000000001","28.52","78.81","423.7","0.0"],
    [1421066,"2026-07-16 15:10:00","180","3.5269999999999997","36.2","6.076","21.03","1014.6339999999999","27.87","81.5","98.8","0.0"],
    [1421067,"2026-07-16 15:20:00","181","4.412","42.37","8.23","50.64","1014.012","27.72","81.0","176.1","0.0"],
    [1421068,"2026-07-16 15:30:00","182","6.058","52.76","10.09","25.39","1013.207","27.93","81.6","377.4","0.0"],
    [1421069,"2026-07-16 15:40:00","183","5.867000000000001","73.83","9.11","82.7","1013.903","28.17","80.8","617.1","0.0"],
    [1421070,"2026-07-16 15:50:00","184","4.553","72.0","6.664","73.37","1014.4119999999999","28.27","80.8","377.3","0.0"],
    [1421071,"2026-07-16 16:00:00","185","2.61","97.7","4.41","92.9","1015.143","27.75","82.7","225.2","0.0"],
    [1421072,"2026-07-16 16:10:00","186","3.427","81.8","4.41","91","1014.668","27.43","84.1","197.8","0.0"],
    [1421073,"2026-07-16 16:20:00","187","3.898","67.18","5.88","47.2","1014.0260000000001","27.66","83.2","207.6","0.0"],
    [1421074,"2026-07-16 16:30:00","188","4.325","51.24","6.86","48.27","1013.382","27.7","82.9","249.4","0.0"],
    [1421075,"2026-07-16 16:40:00","189","4.091","62.58","6.272","89","1013.78","27.53","83.7","185.3","0.0"],
    [1421076,"2026-07-16 16:50:00","190","4.231","64.37","6.174","75.02","1013.385","27.63","83.8","249.1","0.0"],
    [1421077,"2026-07-16 17:00:00","191","2.685","21.35","4.606","15.22","1013.72","27.6","83.2","190.2","0.0"],
    [1421078,"2026-07-16 17:10:00","192","3.658","48.59","5.978","44.49","1013.342","27.71","82.4","231.8","0.0"],
    [1421079,"2026-07-16 17:20:00","193","3.6310000000000002","57.13","5.39","88.3","1013.315","27.6","82.4","159.4","0.0"],
    [1421080,"2026-07-16 17:30:00","194","3.536","62.4","5.586","56.7","1013.289","27.59","82.4","199.2","0.0"],
    [1421081,"2026-07-16 17:40:00","195","3.665","69.46","5.194","72.93","1013.355","27.63","82.2","262.2","0.0"],
    [1421082,"2026-07-16 17:50:00","196","3.7230000000000003","66.91","5.39","45.26","1013.163","27.71","82.7","223.1","0.0"],
    [1421083,"2026-07-16 18:00:00","197","4.49","61.2","6.37","70.51","1012.815","27.61","83.5","181.4","0.0"],
    [1421084,"2026-07-16 18:10:00","198","4.335","54.39","6.272","45.84","1012.4889999999999","27.37","84.7","116.9","0.0"],
    [1421085,"2026-07-16 18:20:00","199","4.298","68.22","6.076","68.47","1012.5","27.21","85.1","82.0","0.0"],
    [1421086,"2026-07-16 18:30:00","200","4.289","69.7","5.88","52.53","1012.745","27.13","85.7","80.3","0.0"],
    [1421087,"2026-07-16 18:40:00","201","3.577","78.54","5.292","71.81","1012.84","27.06","86.5","69.66","0.0"],
    [1421088,"2026-07-16 18:50:00","202","3.395","79.95","4.9","87.4","1012.931","27.05","86.6","54.89","0.0"],
    [1421089,"2026-07-16 19:00:00","203","2.238","88.7","4.312","62.4","1013.153","26.99","86.8","43.54","0.0"],
    [1421090,"2026-07-16 19:10:00","204","2.303","64.54","3.528","61","1013.192","26.9","87.3","21.37","0.0"],
    [1421091,"2026-07-16 19:20:00","205","1.9240000000000002","64.11","3.038","66.47","1013.137","26.8","87.6","8.87","0.0"],
    [1421092,"2026-07-16 19:30:00","206","1.885","84.1","2.842","92.5","1013.23","26.77","87.9","2.116","0.0"],
    [1421093,"2026-07-16 19:40:00","207","2.19","68.74","3.038","66.57","1013.065","26.74","88.4","-1.057","0.0"],
    [1421094,"2026-07-16 19:50:00","208","2.241","64.83","3.234","64.53","1012.8889999999999","26.65","88.9","-1.722","0.0"],
    [1421095,"2026-07-16 20:00:00","209","2.22","69.63","3.332","70.73","1013.14","26.66","89.2","-1.9180000000000001","0.0"],
    [1421096,"2026-07-16 20:10:00","210","1.963","55.13","3.038","68.6","1013.2610000000001","26.61","89.4","-2.331","0.0"],
    [1421097,"2026-07-16 20:20:00","211","1.249","38.46","2.352","50.58","1013.452","26.57","89.7","-2.544","0.0"],
    [1421098,"2026-07-16 20:30:00","212","1.301","52.67","2.254","34.88","1013.5219999999999","26.48","89.4","-2.5669999999999997","0.0"],
    [1421099,"2026-07-16 20:40:00","213","1.359","96.0","2.254","90.1","1013.707","26.55","89.2","-2.533","0.0"],
    [1421100,"2026-07-16 20:50:00","214","1.524","65.79","1.96","64.87","1013.654","26.56","89.4","-2.45","0.0"],
    [1421101,"2026-07-16 21:00:00","215","1.119","57.79","1.96","44.47","1013.795","26.41","90.0","-2.577","0.0"],
    [1421102,"2026-07-16 21:10:00","216","1.1159999999999999","53.99","1.568","59.11","1013.671","26.35","90.3","-2.5869999999999997","0.0"],
    [1421103,"2026-07-16 21:20:00","217","1.3090000000000002","48.67","1.96","61.43","1013.4989999999999","26.31","90.4","-2.56","0.0"],
    [1421104,"2026-07-16 21:30:00","218","1.551","46.41","2.352","37.5","1013.268","26.3","90.0","-2.386","0.0"],
    [1421105,"2026-07-16 21:40:00","219","1.879","52.39","3.234","45.83","1013.2239999999999","26.32","90.3","-1.9040000000000001","0.0"],
    [1421106,"2026-07-16 21:50:00","220","1.554","38.26","2.744","11.34","1013.252","26.05","92.0","-1.8419999999999999","0.0"],
    [1421107,"2026-07-16 22:00:00","221","1.419","60.82","2.45","42.63","1013.243","25.9","92.9","-1.858","0.0"],
    [1421108,"2026-07-16 22:10:00","222","1.734","60.23","2.548","52.32","1013.2769999999999","25.85","92.8","-2.041","0.0"],
    [1421109,"2026-07-16 22:20:00","223","1.321","79.16","1.862","79.65","1013.275","26.02","91.9","-2.48","0.0"],
    [1421110,"2026-07-16 22:30:00","224","1.405","56.71","2.058","48.45","1013.096","26.08","91.4","-2.5340000000000003","0.0"],
    [1421111,"2026-07-16 22:40:00","225","1.38","65.74","2.254","53.97","1013.0160000000001","26.08","91.2","-2.565","0.0"],
    [1421112,"2026-07-16 22:50:00","226","1.626","79.83","2.548","80.4","1013.075","26.15","91.1","-2.467","0.0"],
    [1421113,"2026-07-16 23:00:00","227","1.287","55.86","1.862","77.86","1012.9889999999999","26.06","91.2","-2.557","0.0"],
    [1421114,"2026-07-16 23:10:00","228","0.965","73.1","1.764","56.2","1012.992","26.03","91.6","-2.569","0.0"],
    [1421115,"2026-07-16 23:20:00","229","0.064","94.8","0.588","95.2","1012.875","26.01","91.7","-2.5610000000000004","0.0"],
    [1421116,"2026-07-16 23:30:00","230","0.488","98.4","1.078","88.7","1012.8380000000001","25.97","91.8","-2.55","0.0"],
    [1421117,"2026-07-16 23:40:00","231","0.09","125.4","0.882","118.2","1012.7280000000001","25.9","91.8","-2.51","0.0"],
    [1421118,"2026-07-16 23:50:00","232","0.16699999999999998","145.7","0.882","146.2","1012.552","25.89","91.6","-2.5780000000000003","0.0"],
    [1421119,"2026-07-17 00:00:00","233","0.41","296.1","1.176","312.6","1012.551","25.84","91.7","-2.58","0.0"],
    [1421120,"2026-07-17 00:10:00","234","0.22899999999999998","324.4","0.98","309.9","1012.5039999999999","25.84","91.5","-2.535","0.0"],
    [1421121,"2026-07-17 00:20:00","235","0.305","290.6","1.47","261.2","1012.4910000000001","25.76","91.5","-2.589","0.0"],
    [1421122,"2026-07-17 00:30:00","236","0.633","251.7","1.176","252.3","1012.51","25.64","90.5","-2.5869999999999997","0.0"],
    [1421123,"2026-07-17 00:40:00","237","0.5660000000000001","251.0","1.078","263.6","1012.4860000000001","25.7","89.7","-2.59","0.0"],
    [1421124,"2026-07-17 00:50:00","238","0.735","226.9","1.274","271.8","1012.4830000000001","25.74","88.8","-2.583","0.0"],
    [1421125,"2026-07-17 01:00:00","239","0.8490000000000001","193.6","1.47","184.1","1012.5160000000001","25.86","87.8","-2.582","0.0"],
    [1421126,"2026-07-17 01:10:00","240","1.0290000000000001","221.9","1.96","253.7","1012.421","25.89","87.8","-2.569","0.0"],
    [1421127,"2026-07-17 01:20:00","241","1.4480000000000002","219.6","2.058","213.9","1012.3610000000001","25.79","87.4","-2.381","0.0"],
    [1421128,"2026-07-17 01:30:00","242","0.978","217.5","1.764","236.2","1012.331","25.82","86.6","-2.119","0.0"],
    [1421129,"2026-07-17 01:40:00","243","1.2770000000000001","223.9","2.058","237","1012.35","25.74","86.5","-2.374","0.0"],
    [1421130,"2026-07-17 01:50:00","244","1.156","229.8","2.156","212.7","1012.4010000000001","25.67","85.9","-1.919","0.0"],
    [1421131,"2026-07-17 02:00:00","245","1.188","231.2","1.666","256.4","1012.345","25.6","85.7","-2.253","0.0"],
    [1421132,"2026-07-17 02:10:00","246","1.365","233.4","2.156","235.1","1012.425","25.61","85.5","-2.003","0.0"],
    [1421133,"2026-07-17 02:20:00","247","0.915","240.3","1.862","251","1012.4889999999999","25.62","85.1","-1.893","0.0"],
    [1421134,"2026-07-17 02:30:00","248","0.307","271.1","0.98","247.5","1012.432","25.5","85.4","-2.468","0.0"],
    [1421135,"2026-07-17 02:40:00","249","0.255","266.3","0.882","247.5","1012.421","25.3","86.1","-2.458","0.0"],
    [1421136,"2026-07-17 02:50:00","250","0.35700000000000004","258.5","0.882","244","1012.5160000000001","25.26","86.4","-2.281","0.0"],
    [1421137,"2026-07-17 03:00:00","251","0.149","254.0","0.686","284.9","1012.554","25.3","85.7","-1.912","0.0"],
    [1421138,"2026-07-17 03:10:00","252","0.259","259.0","0.784","243.7","1012.6460000000001","25.32","85.4","-1.973","0.0"],
    [1421139,"2026-07-17 03:20:00","253","0.502","336.5","1.274","354.9","1012.829","25.23","85.3","-2.029","0.0"],
    [1421140,"2026-07-17 03:30:00","254","1.045","16.63","1.862","33.43","1012.967","25.28","85.3","-1.91","0.0"],
    [1421141,"2026-07-17 03:40:00","255","1.376","39.03","1.862","34.2","1013.1389999999999","25.26","85.4","-1.83","0.0"],
    [1421142,"2026-07-17 03:50:00","256","1.219","44.65","1.96","37.6","1013.2669999999999","25.46","84.9","-1.1159999999999999","0.0"],
    [1421143,"2026-07-17 04:00:00","257","1.419","52.13","1.764","49.13","1013.314","25.72","84.4","-1.0659999999999998","0.0"],
    [1421144,"2026-07-17 04:10:00","258","1.7890000000000001","60.24","3.724","63.9","1013.429","26.0","84.8","-0.877","0.0"],
    [1421145,"2026-07-17 04:20:00","259","3.0589999999999997","58.71","5.194","79.07","1013.485","26.26","85.5","-1.085","0.0"],
    [1421146,"2026-07-17 04:30:00","260","4.251","58.33","7.644","56.88","1013.5260000000001","26.32","87.3","0.05","0.0"],
    [1421147,"2026-07-17 04:40:00","261","4.516","60.78","7.056","59.01","1013.4960000000001","26.38","85.8","2.177","0.0"],
    [1421148,"2026-07-17 04:50:00","262","4.013","64.27","7.056","82.2","1013.596","26.39","85.7","5.837000000000001","0.0"],
    [1421149,"2026-07-17 05:00:00","263","4.556","53.88","7.154","39.29","1013.7130000000001","26.51","85.0","12.69","0.0"],
    [1421150,"2026-07-17 05:10:00","264","4.71","56.34","7.938","65.31","1013.834","26.41","86.2","26.69","0.0"],
    [1421151,"2026-07-17 05:20:00","265","4.665","52.89","7.154","53.44","1013.8689999999999","26.37","86.2","46.53","0.0"],
    [1421152,"2026-07-17 05:30:00","266","4.155","51.55","6.958","67","1013.95","26.36","86.0","60.89","0.0"],
    [1421153,"2026-07-17 05:40:00","267","3.83","51.97","5.88","59.11","1014.018","26.4","86.1","78.67","0.0"],
    [1421154,"2026-07-17 05:50:00","268","3.565","52.86","5.88","53.15","1014.058","26.47","86.1","99.9","0.0"],
    [1421155,"2026-07-17 06:00:00","269","4.079","51.0","6.958","54.36","1014.092","26.61","85.6","120.2","0.0"],
    [1421156,"2026-07-17 06:10:00","270","3.452","52.14","6.076","55.33","1014.175","26.91","83.8","143.9","0.0"],
    [1421157,"2026-07-17 06:20:00","271","3.753","56.81","6.468","61.43","1014.201","27.21","81.8","169.5","0.0"],
    [1421158,"2026-07-17 06:30:00","272","4.003","60.07","6.272","54.84","1014.194","27.38","81.3","200.7","0.0"],
    [1421159,"2026-07-17 06:40:00","273","3.3560000000000003","53.69","5.684","57.46","1014.265","27.47","81.8","229.3","0.0"],
    [1421160,"2026-07-17 06:50:00","274","3.4160000000000004","54.66","6.174","46.32","1014.357","27.57","81.2","256.3","0.0"],
    [1421161,"2026-07-17 07:00:00","275","3.654","60.31","5.194","58.24","1014.48","27.41","81.6","289.4","0.0"],
    [1421162,"2026-07-17 07:10:00","276","3.207","39.31","5.096","26.51","1014.528","27.62","80.3","324.9","0.0"],
    [1421163,"2026-07-17 07:20:00","277","2.648","60.0","4.606","70.9","1014.449","27.95","78.41","356.8","0.0"],
    [1421164,"2026-07-17 07:30:00","278","3.085","46.5","4.998","60.14","1014.4739999999999","28.04","77.17","394.0","0.0"],
    [1421165,"2026-07-17 07:40:00","279","2.7769999999999997","58.57","4.998","42.84","1014.482","28.35","76.23","431.3","0.0"],
    [1421166,"2026-07-17 07:50:00","280","3.113","82.2","4.606","76.91","1014.495","28.41","76.26","471.3","0.0"],
    [1421167,"2026-07-17 08:00:00","281","3.037","76.04","4.508","89.1","1014.409","28.3","77.4","508.3","0.0"],
    [1421168,"2026-07-17 08:10:00","282","3.555","79.25","4.802","84.5","1014.4810000000001","28.14","78.62","538.7","0.0"],
    [1421169,"2026-07-17 08:20:00","283","3.07","79.33","4.312","72.79","1014.5110000000001","28.31","78.58","571.8","0.0"],
    [1421170,"2026-07-17 08:30:00","284","2.719","74.05","4.312","83.7","1014.4860000000001","28.31","78.76","587.6","0.0"],
    [1421171,"2026-07-17 08:40:00","285","2.497","80.5","4.214","79.53","1014.543","28.34","78.24","624.2","0.0"],
    [1421172,"2026-07-17 08:50:00","286","2.346","97.9","3.822","81.7","1014.5210000000001","28.46","76.74","652.7","0.0"],
    [1421173,"2026-07-17 09:00:00","287","2.241","98.0","3.626","116.4","1014.5260000000001","28.69","75.05","679.3","0.0"],
    [1421174,"2026-07-17 09:10:00","288","2.228","92.0","3.234","70.08","1014.529","28.86","70.43","719.0","0.0"],
    [1421175,"2026-07-17 09:20:00","289","1.838","102.0","3.332","120.9","1014.559","29.41","68.4","732.4","0.0"],
    [1421176,"2026-07-17 09:30:00","290","1.23","113.4","2.94","70.08","1014.676","29.81","69.32","755.3","0.0"],
    [1421177,"2026-07-17 09:40:00","291","1.151","149.4","4.018","175.2","1014.6610000000001","29.78","69.07","780.7","0.0"],
    [1421178,"2026-07-17 09:50:00","292","1.7790000000000001","116.1","4.214","131.9","1014.6110000000001","29.52","69.94","806.0","0.0"],
    [1421179,"2026-07-17 10:00:00","293","2.083","109.6","4.018","103.8","1014.528","29.81","68.68","826.0","0.0"],
    [1421180,"2026-07-17 10:10:00","294","1.3019999999999998","132.6","3.332","126.2","1014.405","29.97","68.0","843.0","0.0"],
    [1421181,"2026-07-17 10:20:00","295","1.415","128.7","3.332","143","1014.33","30.45","66.09","859.0","0.0"],
    [1421182,"2026-07-17 10:30:00","0","1.288","128.3","3.234","132.6","1014.258","29.88","69.15","880.0","0.0"],
    [1421183,"2026-07-17 10:40:00","1","2.481","183.6","4.802","176.1","1014.24","30.37","67.78","889.0","0.0"],
    [1421184,"2026-07-17 10:50:00","2","2.674","193.9","4.9","200.3","1014.232","30.45","66.63","902.0","0.0"],
    [1421185,"2026-07-17 11:00:00","3","2.891","185.4","4.704","172","1014.216","30.19","66.72","916.0","0.0"],
    [1421186,"2026-07-17 11:10:00","4","3.216","184.8","5.292","185.5","1014.169","30.02","67.18","925.0","0.0"],
    [1421187,"2026-07-17 11:20:00","5","3.167","188.9","5.292","186.9","1014.06","30.13","68.84","934.0","0.0"],
    [1421188,"2026-07-17 11:30:00","6","3.168","183.8","5.684","177.5","1014.0169999999999","30.03","69.03","939.0","0.0"],
    [1421189,"2026-07-17 11:40:00","7","3.4360000000000004","193.2","6.37","183.5","1013.932","30.34","67.9","945.0","0.0"],
    [1421190,"2026-07-17 11:50:00","8","3.4939999999999998","185.3","6.076","161","1013.835","30.15","65.83","951.0","0.0"],
    [1421191,"2026-07-17 12:00:00","9","3.426","186.5","5.782","158.2","1013.795","30.31","66.06","953.0","0.0"],
    [1421192,"2026-07-17 12:10:00","10","3.471","189.6","6.076","160.8","1013.768","30.31","67.75","949.0","0.0"],
    [1421193,"2026-07-17 12:20:00","11","3.45","184.9","6.272","182.4","1013.7189999999999","30.0","68.82","947.0","0.0"],
    [1421194,"2026-07-17 12:30:00","12","2.927","191.4","5.096","156.1","1013.6469999999999","30.24","68.5","941.0","0.0"],
    [1421195,"2026-07-17 12:40:00","13","3.137","184.6","5.978","166.2","1013.6410000000001","30.46","66.75","939.0","0.0"],
    [1421196,"2026-07-17 12:50:00","14","3.3360000000000003","188.7","5.978","156.9","1013.585","30.24","67.41","931.0","0.0"],
    [1421197,"2026-07-17 13:00:00","15","3.622","181.2","5.88","161.1","1013.568","30.19","67.16","923.0","0.0"],
    [1421198,"2026-07-17 13:10:00","16","3.735","183.5","6.37","180.2","1013.55","30.12","66.79","913.0","0.0"],
    [1421199,"2026-07-17 13:20:00","17","3.263","180.8","6.762","172","1013.512","30.21","66.06","900.0","0.0"],
    [1421200,"2026-07-17 13:30:00","18","3.5469999999999997","190.9","6.762","161.1","1013.503","30.47","64.83","888.0","0.0"],
    [1421201,"2026-07-17 13:40:00","19","3.2680000000000002","188.3","6.272","213.8","1013.5039999999999","30.05","66.42","870.0","0.0"],
    [1421202,"2026-07-17 13:50:00","20","3.863","175.4","6.762","165.7","1013.4810000000001","29.93","67.52","854.0","0.0"],
    [1421203,"2026-07-17 14:00:00","21","3.679","183.7","6.664","166.5","1013.446","30.19","66.55","832.0","0.0"],
    [1421204,"2026-07-17 14:10:00","22","3.665","188.5","6.664","181","1013.3889999999999","30.37","66.54","814.0","0.0"],
    [1421205,"2026-07-17 14:20:00","23","3.465","184.6","5.88","191.6","1013.363","30.12","66.43","791.5","0.0"],
    [1421206,"2026-07-17 14:30:00","24","3.281","182.9","6.174","186","1013.316","30.17","66.89","770.6","0.0"],
    [1421207,"2026-07-17 14:40:00","25","3.758","197.1","7.35","235.7","1013.28","30.17","67.46","747.3","0.0"],
    [1421208,"2026-07-17 14:50:00","26","3.803","191.4","6.762","180.2","1013.178","30.26","67.19","718.9","0.0"],
    [1421209,"2026-07-17 15:00:00","27","3.722","207.0","7.84","219.1","1013.127","29.97","68.5","698.3","0.0"],
    [1421210,"2026-07-17 15:10:00","28","4.0169999999999995","190.5","6.664","209.3","1013.064","29.79","68.14","675.6","0.0"],
    [1421211,"2026-07-17 15:20:00","29","3.148","198.2","6.076","208.5","1013.0310000000001","30.17","66.96","647.0","0.0"],
    [1421212,"2026-07-17 15:30:00","30","3.111","194.6","6.37","227","1013.1030000000001","30.17","66.56","619.4","0.0"],
    [1421213,"2026-07-17 15:40:00","31","3.2680000000000002","204.2","9.21","220.4","1013.1489999999999","30.16","66.94","557.8","0.0"],
    [1421214,"2026-07-17 15:50:00","32","3.215","200.3","6.076","169.2","1013.1360000000001","29.9","68.36","553.8","0.0"],
    [1421215,"2026-07-17 16:00:00","33","3.1","185.7","5.586","177.8","1013.1239999999999","29.69","68.78","493.6","0.0"],
    [1421216,"2026-07-17 16:10:00","34","3.634","212.1","6.762","210.4","1013.198","29.67","69.31","490.6","0.0"],
    [1421217,"2026-07-17 16:20:00","35","2.548","201.7","6.37","230.8","1013.107","29.84","69.17","458.8","0.0"],
    [1421218,"2026-07-17 16:30:00","36","2.895","199.7","5.39","194.6","1012.967","29.71","69.51","430.4","0.0"],
    [1421219,"2026-07-17 16:40:00","37","3.428","204.1","5.782","191.7","1012.818","29.49","70.16","398.2","0.0"],
    [1421220,"2026-07-17 16:50:00","38","2.966","197.1","5.292","180.7","1012.5980000000001","29.28","71.44","365.4","0.0"],
    [1421221,"2026-07-17 17:00:00","39","2.63","200.0","5.096","190.2","1012.5169999999999","29.32","71.17","327.9","0.0"],
    [1421222,"2026-07-17 17:10:00","40","2.73","208.7","4.9","227.3","1012.47","29.25","71.94","296.0","0.0"],
    [1421223,"2026-07-17 17:20:00","41","3.1910000000000003","216.2","5.194","228.5","1012.5169999999999","29.11","72.32","269.6","0.0"],
    [1421224,"2026-07-17 17:30:00","42","2.821","199.7","5.292","209.3","1012.507","28.88","73.5","237.5","0.0"],
    [1421225,"2026-07-17 17:40:00","43","2.5469999999999997","189.7","5.39","144.8","1012.4939999999999","28.78","74.14","207.9","0.0"],
    [1421226,"2026-07-17 17:50:00","44","2.574","195.9","5.39","185.1","1012.477","28.62","74.92","183.1","0.0"],
    [1421227,"2026-07-17 18:00:00","45","2.865","217.1","5.684","225.9","1012.477","28.53","75.18","158.6","0.0"],
    [1421228,"2026-07-17 18:10:00","46","3.01","220.4","6.37","170.8","1012.48","28.32","76.31","130.6","0.0"],
    [1421229,"2026-07-17 18:20:00","47","2.074","203.4","5.586","203.7","1012.462","28.26","77.12","109.2","0.0"],
    [1421230,"2026-07-17 18:30:00","48","2.218","204.7","4.998","148.9","1012.5169999999999","28.26","76.78","65.23","0.0"],
    [1421231,"2026-07-17 18:40:00","49","2.21","209.7","4.312","203.6","1012.584","27.9","78.56","23.19","0.0"],
    [1421232,"2026-07-17 18:50:00","50","2.2359999999999998","199.8","4.606","195.9","1012.557","27.8","79.18","18.45","0.0"],
    [1421233,"2026-07-17 19:00:00","51","2.687","205.2","4.998","188.9","1012.581","27.66","79.56","19.69","0.0"],
    [1421234,"2026-07-17 19:10:00","52","2.121","218.6","6.174","222.5","1012.4780000000001","27.59","79.85","16.4","0.0"],
    [1421235,"2026-07-17 19:20:00","53","2.0140000000000002","198.9","3.92","185.6","1012.45","27.54","80.2","8.89","0.0"],
    [1421236,"2026-07-17 19:30:00","54","1.739","202.2","4.214","184","1012.5160000000001","27.45","80.6","2.3890000000000002","0.0"],
    [1421237,"2026-07-17 19:40:00","55","2.2230000000000003","205.1","5.684","179.5","1012.711","27.39","80.8","-1.357","0.0"],
    [1421238,"2026-07-17 19:50:00","56","1.681","201.8","8.23","195.1","1012.895","27.32","80.7","-2.185","0.0"],
    [1421239,"2026-07-17 20:00:00","57","1.505","207.1","5.488","239.1","1013.025","27.31","80.9","-2.59","0.0"],
    [1421240,"2026-07-17 20:10:00","58","1.661","198.8","3.724","161.4","1013.179","27.28","81.4","-2.5869999999999997","0.0"],
    [1421241,"2026-07-17 20:20:00","59","1.703","199.7","4.508","216.9","1013.377","27.26","81.9","-2.592","0.0"],
    [1421242,"2026-07-17 20:30:00","60","1.652","206.5","3.822","219.9","1013.694","27.25","82.2","-2.585","0.0"],
    [1421243,"2026-07-17 20:40:00","61","1.834","198.7","4.312","254.5","1013.8839999999999","27.22","82.5","-2.574","0.0"],
    [1421244,"2026-07-17 20:50:00","62","1.405","198.1","4.606","204.6","1013.946","27.21","82.8","-2.5810000000000004","0.0"],
    [1421245,"2026-07-17 21:00:00","63","1.27","187.3","4.018","191.5","1013.926","27.1","83.2","-2.592","0.0"],
    [1421246,"2026-07-17 21:10:00","64","0.8079999999999999","197.6","1.96","217.1","1013.8580000000001","27.12","83.1","-2.168","0.0"],
    [1421247,"2026-07-17 21:20:00","65","0.64","178.0","1.764","174.9","1013.8439999999999","27.08","83.3","-2.455","0.0"],
    [1421248,"2026-07-17 21:30:00","66","0.743","188.1","1.47","169","1013.903","27.01","83.6","-2.397","0.0"],
    [1421249,"2026-07-17 21:40:00","67","0.6579999999999999","181.7","1.862","166.1","1013.94","26.9","84.6","-2.0669999999999997","0.0"],
    [1421250,"2026-07-17 21:50:00","68","0.528","110.0","1.372","116.9","1013.7339999999999","26.36","87.2","-2.542","0.0"],
    [1421251,"2026-07-17 22:00:00","69","1.232","82.1","2.45","78.05","1013.6289999999999","26.32","87.3","-2.08","0.0"],
    [1421252,"2026-07-17 22:10:00","70","1.818","77.45","2.352","83.4","1013.541","26.65","85.5","-1.9469999999999998","0.0"],
    [1421253,"2026-07-17 22:20:00","71","1.702","80.9","2.548","70.06","1013.569","26.87","84.4","-1.85","0.0"],
    [1421254,"2026-07-17 22:30:00","72","1.61","70.49","2.156","76.35","1013.5","26.88","84.3","-1.78","0.0"],
    [1421255,"2026-07-17 22:40:00","73","1.5659999999999998","82.1","2.646","66.76","1013.669","26.83","84.4","-1.8419999999999999","0.0"],
    [1421256,"2026-07-17 22:50:00","74","2.37","69.71","3.234","71.46","1013.52","26.89","84.0","-1.7409999999999999","0.0"],
    [1421257,"2026-07-17 23:00:00","75","2.6639999999999997","64.28","3.626","66.76","1013.2719999999999","26.9","84.0","-1.838","0.0"],
    [1421258,"2026-07-17 23:10:00","76","2.5810000000000004","58.87","3.92","54.79","1013.046","26.83","84.5","-1.912","0.0"],
    [1421259,"2026-07-17 23:20:00","77","2.502","58.2","3.724","55.71","1013.0269999999999","26.74","84.6","-2.158","0.0"],
    [1421260,"2026-07-17 23:30:00","78","2.339","63.56","3.724","54.65","1013.041","26.76","84.3","-2.351","0.0"],
    [1421261,"2026-07-17 23:40:00","79","1.864","58.96","3.136","49.47","1013.069","26.72","84.4","-2.231","0.0"],
    [1421262,"2026-07-17 23:50:00","80","2.3480000000000003","56.51","3.92","58.62","1013.005","26.66","84.6","-2.4730000000000003","0.0"],
    [1421263,"2026-07-18 00:00:00","81","2.157","68.09","3.43","76.6","1013.1260000000001","26.73","84.7","-2.397","0.0"],
    [1421264,"2026-07-18 00:10:00","82","2.119","74.41","3.332","78.87","1013.329","26.77","85.1","-1.864","0.0"],
    [1421265,"2026-07-18 00:20:00","83","1.84","69.65","2.94","73.3","1013.2710000000001","26.73","85.5","-1.844","0.0"],
    [1421266,"2026-07-18 00:30:00","84","2.053","76.17","3.038","68.89","1013.2710000000001","26.76","85.1","-1.784","0.0"],
    [1421267,"2026-07-18 00:40:00","85","1.805","93.1","3.332","95.2","1013.5319999999999","26.8","84.6","-1.0959999999999999","0.0"],
    [1421268,"2026-07-18 00:50:00","86","1.5959999999999999","98.0","2.646","107.7","1013.673","26.91","84.5","-1.099","0.0"],
    [1421269,"2026-07-18 01:00:00","87","1.505","99.6","3.136","98.5","1013.682","26.9","84.4","-1.222","0.0"],
    [1421270,"2026-07-18 01:10:00","88","1.903","85.2","3.136","86.6","1013.668","26.95","85.0","-1.493","0.0"],
    [1421271,"2026-07-18 01:20:00","89","1.587","94.0","2.352","105.1","1013.707","26.88","85.7","-1.9580000000000002","0.0"],
    [1421272,"2026-07-18 01:30:00","90","1.922","88.5","2.744","96.6","1013.683","26.83","86.1","-2.037","0.0"],
    [1421273,"2026-07-18 01:40:00","91","1.694","94.6","2.744","85.8","1013.77","26.8","86.4","-1.854","0.0"],
    [1421274,"2026-07-18 01:50:00","92","1.6219999999999999","95.2","2.842","104.2","1013.794","26.74","86.6","-1.9340000000000002","0.0"],
    [1421275,"2026-07-18 02:00:00","93","1.766","83.6","2.744","98.3","1013.742","26.67","86.2","-2.312","0.0"],
    [1421276,"2026-07-18 02:10:00","94","1.5190000000000001","94.8","2.254","101.5","1013.7869999999999","26.67","86.5","-2.365","0.0"],
    [1421277,"2026-07-18 02:20:00","95","1.3880000000000001","85.5","1.96","86.7","1013.831","26.56","86.4","-2.5269999999999997","0.0"],
    [1421278,"2026-07-18 02:30:00","96","1.075","88.7","1.666","68.02","1013.934","26.43","86.9","-2.565","0.0"],
    [1421279,"2026-07-18 02:40:00","97","0.924","92.8","1.666","103.8","1014.012","26.44","87.2","-2.5789999999999997","0.0"],
    [1421280,"2026-07-18 02:50:00","98","1.005","76.65","1.47","93.3","1013.926","26.29","87.3","-2.591","0.0"],
    [1421281,"2026-07-18 03:00:00","99","1.5319999999999998","71.93","2.058","73.35","1013.91","26.12","87.7","-2.592","0.0"],
    [1421282,"2026-07-18 03:10:00","100","1.202","76.78","2.058","70.83","1013.8430000000001","26.12","87.3","-2.5669999999999997","0.0"],
    [1421283,"2026-07-18 03:20:00","101","1.015","74.36","1.862","70.83","1013.8939999999999","26.08","87.2","-2.563","0.0"],
    [1421284,"2026-07-18 03:30:00","102","1.554","70.08","2.156","73.64","1013.885","25.99","86.5","-2.447","0.0"],
    [1421285,"2026-07-18 03:40:00","103","1.692","64.58","2.058","55.42","1013.779","25.96","85.9","-2.5","0.0"],
    [1421286,"2026-07-18 03:50:00","104","1.41","70.42","2.058","82.7","1013.7239999999999","26.04","85.4","-2.477","0.0"],
    [1421287,"2026-07-18 04:00:00","105","1.4809999999999999","64.03","2.058","76.26","1013.758","26.01","85.4","-2.5610000000000004","0.0"],
    [1421288,"2026-07-18 04:10:00","106","1.44","50.9","1.862","49.61","1013.82","26.0","85.8","-2.477","0.0"],
    [1421289,"2026-07-18 04:20:00","107","1.5959999999999999","43.17","2.45","58.33","1013.88","25.97","85.7","-1.875","0.0"],
    [1421290,"2026-07-18 04:30:00","108","1.9409999999999998","38.35","2.94","30.43","1013.8839999999999","26.05","85.3","-0.7559999999999999","0.0"],
    [1421291,"2026-07-18 04:40:00","109","1.541","44.24","2.646","43.41","1013.929","26.14","84.7","1.96","0.0"],
    [1421292,"2026-07-18 04:50:00","110","1.66","41.77","2.744","41.66","1013.822","26.15","84.7","8.36","0.0"],
    [1421293,"2026-07-18 05:00:00","111","2.258","38.57","3.528","69.28","1013.7510000000001","26.18","84.8","18.96","0.0"],
    [1421294,"2026-07-18 05:10:00","112","1.7","42.84","2.94","27.47","1013.806","26.26","84.1","30.97","0.0"],
    [1421295,"2026-07-18 05:20:00","113","2.112","46.14","3.92","33.53","1013.857","26.35","83.6","43.33","0.0"],
    [1421296,"2026-07-18 05:30:00","114","2.033","46.09","3.43","39.92","1013.954","26.42","82.7","58.2","0.0"],
    [1421297,"2026-07-18 05:40:00","115","1.621","44.94","2.744","64.92","1013.8760000000001","26.59","81.9","79.72","0.0"],
    [1421298,"2026-07-18 05:50:00","116","2.193","39.13","3.822","25.39","1013.795","26.73","80.9","105.1","0.0"],
    [1421299,"2026-07-18 06:00:00","117","1.834","45.21","3.234","27.52","1013.77","26.89","79.7","128.4","0.0"],
    [1421300,"2026-07-18 06:10:00","118","1.851","47.2","2.842","55.67","1013.747","27.08","78.23","145.4","0.0"],
    [1421301,"2026-07-18 06:20:00","119","2.158","66.27","3.136","75.34","1013.695","27.21","76.58","174.9","0.0"],
    [1421302,"2026-07-18 06:30:00","120","1.916","40.92","3.528","29.94","1013.79","27.39","76.6","203.3","0.0"],
    [1421303,"2026-07-18 06:40:00","121","1.992","26.2","3.626","40.16","1013.7610000000001","27.48","75.72","205.7","0.0"],
    [1421304,"2026-07-18 06:50:00","122","2.088","43.17","3.234","17.83","1013.513","27.47","74.71","246.0","0.0"],
    [1421305,"2026-07-18 07:00:00","123","2.302","73.43","3.234","67.21","1013.518","27.66","74.54","269.8","0.0"],
    [1421306,"2026-07-18 07:10:00","124","1.327","48.95","2.646","36","1013.873","27.84","73.33","296.0","0.0"],
    [1421307,"2026-07-18 07:20:00","125","1.598","70.88","3.136","62.61","1013.681","28.43","69.26","341.1","0.0"],
    [1421308,"2026-07-18 07:30:00","126","0.925","94.3","2.254","113.3","1014.066","28.88","67.89","373.4","0.0"],
    [1421309,"2026-07-18 07:40:00","127","1.329","97.5","2.45","90.4","1014.143","29.14","67.07","407.1","0.0"],
    [1421310,"2026-07-18 07:50:00","128","2.279","80.3","4.018","62.62","1013.816","28.86","68.55","444.1","0.0"],
    [1421311,"2026-07-18 08:00:00","129","3.091","59.5","5.096","78.85","1013.3380000000001","28.86","66.82","477.8","0.0"],
    [1421312,"2026-07-18 08:10:00","130","3.627","73.6","5.586","89.4","1013.1189999999999","28.83","62.32","498.4","0.0"],
    [1421313,"2026-07-18 08:20:00","131","2.582","54.3","4.018","50.98","1013.487","29.33","59.3","524.4","0.0"],
    [1421314,"2026-07-18 08:30:00","132","1.5330000000000001","52.96","3.822","60.77","1013.81","30.1","55.11","536.1","0.0"],
    [1421315,"2026-07-18 08:40:00","133","2.005","73.84","4.116","100.1","1014.0110000000001","30.22","52.09","582.6","0.0"],
    [1421316,"2026-07-18 08:50:00","134","1.588","72.77","2.646","86.7","1014.1419999999999","30.33","52.66","599.1","0.0"],
    [1421317,"2026-07-18 09:00:00","135","1.67","97.5","3.43","77.54","1014.0210000000001","30.47","53.06","633.6","0.0"],
    [1421318,"2026-07-18 09:10:00","136","2.575","89.9","4.312","82.1","1013.71","30.45","50.77","667.3","0.0"],
    [1421319,"2026-07-18 09:20:00","137","2.3280000000000003","94.6","4.312","87","1013.6310000000001","30.31","51.96","691.1","0.0"],
    [1421320,"2026-07-18 09:30:00","138","2.407","99.7","4.508","90.9","1013.55","30.34","51.98","715.4","0.0"],
    [1421321,"2026-07-18 09:40:00","139","1.798","110.7","3.724","86","1013.784","30.67","50.55","742.3","0.0"],
    [1421322,"2026-07-18 09:50:00","140","1.78","110.2","3.626","94.1","1013.883","30.91","48.13","758.5","0.0"],
    [1421323,"2026-07-18 10:00:00","141","1.703","97.8","3.038","78.77","1013.937","31.04","48.44","784.3","0.0"],
    [1421324,"2026-07-18 10:10:00","142","1.703","100.1","3.332","91.6","1013.8","30.94","50.13","798.8","0.0"],
    [1421325,"2026-07-18 10:20:00","143","2.387","98.6","4.606","115.6","1013.757","31.0","47.54","815.0","0.0"],
    [1421326,"2026-07-18 10:30:00","144","2.175","102.0","4.214","96.5","1013.7810000000001","30.9","48.57","829.0","0.0"],
    [1421327,"2026-07-18 10:40:00","145","2.8289999999999997","99.4","4.802","106.3","1013.763","30.71","48.72","841.0","0.0"],
    [1421328,"2026-07-18 10:50:00","146","1.8719999999999999","109.7","3.528","109.8","1013.9010000000001","30.99","49.29","844.0","0.0"],
    [1421329,"2026-07-18 11:00:00","147","1.453","117.2","4.116","107.7","1014.074","30.99","51.86","854.0","0.0"],
    [1421330,"2026-07-18 11:10:00","148","1.964","166.6","4.41","208.6","1014.04","30.78","52.35","863.0","0.0"],
    [1421331,"2026-07-18 11:20:00","149","1.3","159.7","4.214","128.9","1013.895","30.42","53.83","868.0","0.0"],
    [1421332,"2026-07-18 11:30:00","150","1.933","150.1","4.9","156","1013.877","30.43","53.25","874.0","0.0"],
    [1421333,"2026-07-18 11:40:00","151","1.5819999999999999","122.1","4.018","90.1","1013.795","31.13","52.97","881.0","0.0"],
    [1421334,"2026-07-18 11:50:00","152","2.117","110.9","4.41","115.5","1013.819","30.57","54.61","886.0","0.0"],
    [1421335,"2026-07-18 12:00:00","153","2.9389999999999996","99.2","5.782","85.4","1013.63","30.48","54.4","889.0","0.0"],
    [1421336,"2026-07-18 12:10:00","154","1.966","105.3","4.508","107.8","1013.4789999999999","30.71","55.54","891.0","0.0"],
    [1421337,"2026-07-18 12:20:00","155","2.728","103.7","5.488","87.2","1013.36","30.41","56.15","890.0","0.0"],
    [1421338,"2026-07-18 12:30:00","156","2.86","102.8","4.998","103.5","1013.2189999999999","30.28","56.58","892.0","0.0"],
    [1421339,"2026-07-18 12:40:00","157","2.827","108.1","5.586","123.9","1013.15","30.33","56.97","861.0","0.0"],
    [1421340,"2026-07-18 12:50:00","158","2.58","112.6","4.9","110.7","1013.164","30.51","56.74","872.0","0.0"],
    [1421341,"2026-07-18 13:00:00","159","1.8090000000000002","119.2","4.41","114.6","1013.09","30.76","56.65","866.0","0.0"],
    [1421342,"2026-07-18 13:10:00","160","1.266","114.0","4.312","111.1","1013.057","31.03","56.07","850.0","0.0"],
    [1421343,"2026-07-18 13:20:00","161","1.8969999999999998","116.7","4.704","120.2","1013.054","30.78","57.13","844.0","0.0"],
    [1421344,"2026-07-18 13:30:00","162","1.736","117.2","5.194","114.3","1012.98","30.72","58.25","845.0","0.0"],
    [1421345,"2026-07-18 13:40:00","163","1.645","113.1","4.9","97.8","1012.8960000000001","30.59","58.84","822.0","0.0"],
    [1421346,"2026-07-18 13:50:00","164","1.396","128.4","4.508","142.9","1012.904","31.05","57.55","799.7","0.0"],
    [1421347,"2026-07-18 14:00:00","165","2.401","115.9","4.998","179","1012.9060000000001","30.55","56.04","768.4","0.0"],
    [1421348,"2026-07-18 14:10:00","166","1.298","123.3","4.312","140.9","1012.931","30.94","54.08","744.0","0.0"],
    [1421349,"2026-07-18 14:20:00","167","1.87","143.0","4.018","121.9","1012.9019999999999","30.76","55.92","769.8","0.0"],
    [1421350,"2026-07-18 14:30:00","168","1.624","127.8","4.704","113.3","1012.966","30.93","55.51","756.1","0.0"],
    [1421351,"2026-07-18 14:40:00","169","1.492","133.4","4.116","183.5","1013.053","30.85","55.71","703.3","0.0"],
    [1421352,"2026-07-18 14:50:00","170","1.835","124.9","4.606","108.3","1012.966","30.41","55.79","650.0","0.0"],
    [1421353,"2026-07-18 15:00:00","171","1.99","106.4","5.39","112.9","1012.814","30.37","57.78","659.3","0.0"],
    [1421354,"2026-07-18 15:10:00","172","1.943","104.8","4.508","102.6","1012.595","30.57","57.0","638.5","0.0"],
    [1421355,"2026-07-18 15:20:00","173","1.351","123.9","4.802","132.2","1012.454","30.5","56.97","599.3","0.0"],
    [1421356,"2026-07-18 15:30:00","174","1.702","132.0","4.606","108.3","1012.378","30.02","57.97","568.6","0.0"],
    [1421357,"2026-07-18 15:40:00","175","1.236","133.1","2.94","183.7","1012.2819999999999","30.23","58.19","523.9","0.0"],
    [1421358,"2026-07-18 15:50:00","176","1.8840000000000001","121.6","4.018","134.5","1012.096","29.93","58.04","532.4","0.0"],
    [1421359,"2026-07-18 16:00:00","177","1.571","120.3","3.724","167.4","1012.095","29.91","58.05","475.5","0.0"],
    [1421360,"2026-07-18 16:10:00","178","1.57","144.9","3.528","204.8","1012.173","29.85","58.34","456.1","0.0"],
    [1421361,"2026-07-18 16:20:00","179","2.5980000000000003","174.7","5.586","180.5","1012.201","29.66","57.44","413.3","0.0"],
    [1421362,"2026-07-18 16:30:00","180","1.155","154.8","4.018","157","1012.081","29.7","59.19","372.8","0.0"],
    [1421363,"2026-07-18 16:40:00","181","1.976","107.0","4.508","96.5","1011.982","29.26","60.74","234.1","0.0"],
    [1421364,"2026-07-18 16:50:00","182","1.702","112.9","3.332","90","1011.882","28.98","61.38","265.4","0.0"],
    [1421365,"2026-07-18 17:00:00","183","1.111","116.3","4.018","113.7","1011.752","29.14","61.39","216.6","0.0"],
    [1421366,"2026-07-18 17:10:00","184","1.028","117.3","2.842","139.4","1011.806","28.89","62.0","123.9","0.0"],
    [1421367,"2026-07-18 17:20:00","185","1.1640000000000001","170.3","2.94","82.5","1011.86","28.87","62.27","118.6","0.0"],
    [1421368,"2026-07-18 17:30:00","186","2.033","183.3","7.154","285.4","1011.823","28.7","62.88","139.4","0.0"],
    [1421369,"2026-07-18 17:40:00","187","2.475","196.3","4.508","240.4","1012.112","28.72","63.51","125.5","0.0"],
    [1421370,"2026-07-18 17:50:00","188","1.8769999999999998","172.3","4.312","161.1","1011.7","28.4","64.51","73.49","0.0"],
    [1421371,"2026-07-18 18:00:00","189","1.151","153.7","3.136","178.7","1011.529","28.25","64.55","61.33","0.0"],
    [1421372,"2026-07-18 18:10:00","190","2.622","198.0","5.684","219.4","1011.841","28.36","64.78","57.15","0.0"],
    [1421373,"2026-07-18 18:20:00","191","1.568","181.7","3.332","156.8","1011.6039999999999","28.2","66.06","32.65","0.0"],
    [1421374,"2026-07-18 18:30:00","192","1.165","175.1","2.744","165.9","1011.3530000000001","28.04","66.34","23.49","0.0"],
    [1421375,"2026-07-18 18:40:00","193","2.031","198.8","4.508","170","1011.6610000000001","28.13","67.24","21.83","0.0"],
    [1421376,"2026-07-18 18:50:00","194","2.533","204.2","6.076","184.4","1011.8539999999999","28.05","67.72","15.11","0.0"],
    [1421377,"2026-07-18 19:00:00","195","0.9109999999999999","157.0","3.136","228.7","1011.3810000000001","27.92","68.26","7.66","0.0"],
    [1421378,"2026-07-18 19:10:00","196","0.98","178.7","2.352","184.5","1011.513","27.84","68.79","3.6489999999999996","0.0"],
    [1421379,"2026-07-18 19:20:00","197","0.919","98.7","2.45","105.8","1011.2439999999999","27.9","68.36","1.136","0.0"],
    [1421380,"2026-07-18 19:30:00","198","1.886","83.4","3.724","128.4","1011.169","27.92","67.91","-0.64","0.0"],
    [1421381,"2026-07-18 19:40:00","199","1.6369999999999998","71.72","2.548","80.7","1011.342","27.88","68.46","-1.354","0.0"],
    [1421382,"2026-07-18 19:50:00","200","2.189","78.52","3.92","81.9","1011.3689999999999","27.9","68.57","-1.835","0.0"],
    [1421383,"2026-07-18 20:00:00","201","1.944","50.05","3.136","59.11","1011.596","27.8","69.09","-2.23","0.0"],
    [1421384,"2026-07-18 20:10:00","202","1.703","49.44","3.43","39.82","1011.8389999999999","27.71","69.78","-2.572","0.0"],
    [1421385,"2026-07-18 20:20:00","203","1.847","70.84","2.842","89.4","1011.94","27.69","69.29","-2.589","0.0"],
    [1421386,"2026-07-18 20:30:00","204","2.434","73.66","4.018","83.6","1011.941","27.76","69.46","-2.417","0.0"],
    [1421387,"2026-07-18 20:40:00","205","2.7439999999999998","66.5","4.116","66.08","1011.8960000000001","27.74","69.46","-1.9240000000000002","0.0"],
    [1421388,"2026-07-18 20:50:00","206","2.4659999999999997","58.48","3.822","78.87","1011.95","27.71","70.72","-1.841","0.0"],
    [1421389,"2026-07-18 21:00:00","207","3.1060000000000003","81.9","4.9","90.9","1012.064","27.65","71.01","-1.835","0.0"],
    [1421390,"2026-07-18 21:10:00","208","2.26","75.53","3.626","75","1012.195","27.66","71.48","-1.84","0.0"],
    [1421391,"2026-07-18 21:20:00","209","2.219","64.6","3.136","73.98","1012.25","27.5","72.27","-1.875","0.0"],
    [1421392,"2026-07-18 21:30:00","210","2.003","71.58","2.842","65.4","1012.196","27.47","72.8","-2.074","0.0"],
    [1421393,"2026-07-18 21:40:00","211","2.0869999999999997","73.21","3.234","73.54","1012.2130000000001","27.42","73.4","-2.533","0.0"],
    [1421394,"2026-07-18 21:50:00","212","1.6869999999999998","77.42","2.744","85.7","1012.317","27.36","73.76","-2.5660000000000003","0.0"],
    [1421395,"2026-07-18 22:00:00","213","1.766","76.76","2.744","76.35","1012.2180000000001","27.34","73.69","-2.574","0.0"],
    [1421396,"2026-07-18 22:10:00","214","1.489","72.94","2.352","71.51","1012.1139999999999","27.17","74.6","-2.535","0.0"],
    [1421397,"2026-07-18 22:20:00","215","1.9509999999999998","78.12","2.646","69.13","1012.034","27.11","75.32","-2.441","0.0"],
    [1421398,"2026-07-18 22:30:00","216","1.4709999999999999","94.3","2.842","85.5","1012.118","27.23","75.23","-2.258","0.0"],
    [1421399,"2026-07-18 22:40:00","217","1.6280000000000001","69.82","2.45","72.91","1012.225","27.16","75.73","-2.273","0.0"],
    [1421400,"2026-07-18 22:50:00","218","0.982","94.6","1.666","86.8","1012.2330000000001","27.1","76.41","-2.5","0.0"],
    [1421401,"2026-07-18 23:00:00","219","1.149","86.7","2.156","74.9","1012.164","27.11","76.0","-2.5860000000000003","0.0"],
    [1421402,"2026-07-18 23:10:00","220","1.656","68.36","2.156","56.05","1012.076","27.07","75.82","-2.456","0.0"],
    [1421403,"2026-07-18 23:20:00","221","1.564","63.09","2.058","61.96","1012.0189999999999","26.9","76.43","-2.546","0.0"],
    [1421404,"2026-07-18 23:30:00","222","1.338","61.46","1.96","51.94","1012.028","26.87","76.91","-2.53","0.0"],
    [1421405,"2026-07-18 23:40:00","223","1.1520000000000001","54.15","1.666","46.22","1012.096","26.83","77.27","-2.5469999999999997","0.0"],
    [1421406,"2026-07-18 23:50:00","224","1.354","35.54","2.548","18.41","1012.023","26.69","77.97","-2.5540000000000003","0.0"],
    [1421407,"2026-07-19 00:00:00","225","1.128","53.02","2.254","55.04","1011.997","26.83","77.72","-2.423","0.0"],
    [1421408,"2026-07-19 00:10:00","226","1.128","32.48","2.254","33.62","1011.9630000000001","26.8","77.34","-2.437","0.0"],
    [1421409,"2026-07-19 00:20:00","227","0.958","42.24","1.862","33.91","1011.9730000000001","26.83","77.28","-2.532","0.0"],
    [1421410,"2026-07-19 00:30:00","228","1.212","46.93","1.568","34.93","1011.8739999999999","26.75","77.48","-2.548","0.0"],
    [1421411,"2026-07-19 00:40:00","229","1.4569999999999999","50.88","1.96","49.03","1011.7339999999999","26.58","78.38","-2.5669999999999997","0.0"],
    [1421412,"2026-07-19 00:50:00","230","1.2409999999999999","52.37","1.666","49.22","1011.7439999999999","26.58","78.13","-2.457","0.0"],
    [1421413,"2026-07-19 01:00:00","231","1.042","35.68","1.666","39.24","1011.705","26.47","78.43","-2.5639999999999996","0.0"],
    [1421414,"2026-07-19 01:10:00","232","1.484","38.82","2.352","37.3","1011.615","26.53","77.91","-2.58","0.0"],
    [1421415,"2026-07-19 01:20:00","233","1.248","45.48","2.254","39.87","1011.5369999999999","26.68","77.54","-2.525","0.0"],
    [1421416,"2026-07-19 01:30:00","234","0.812","67.18","1.666","48.64","1011.5930000000001","26.69","77.64","-2.539","0.0"],
    [1421417,"2026-07-19 01:40:00","235","0.175","107.8","0.784","84.1","1011.732","26.56","78.57","-2.588","0.0"],
    [1421418,"2026-07-19 01:50:00","236","0.637","90.7","1.568","84.9","1011.813","26.57","79.01","-2.515","0.0"],
    [1421419,"2026-07-19 02:00:00","237","0.158","98.3","0.882","108","1011.797","26.6","78.86","-2.253","0.0"],
    [1421420,"2026-07-19 02:10:00","238","0.618","228.0","1.274","228.7","1011.7689999999999","26.29","77.93","-2.365","0.0"],
    [1421421,"2026-07-19 02:20:00","239","0.048","238.1","0.392","236.2","1011.7710000000001","26.15","77.34","-2.546","0.0"],
    [1421422,"2026-07-19 02:30:00","240","0.779","252.6","1.372","262.7","1011.814","26.02","76.68","-2.37","0.0"],
    [1421423,"2026-07-19 02:40:00","241","0.77","242.6","1.176","245.5","1011.815","25.99","75.59","-2.048","0.0"],
    [1421424,"2026-07-19 02:50:00","242","0.517","251.1","0.98","246.1","1011.873","25.94","75.13","-1.876","0.0"],
    [1421425,"2026-07-19 03:00:00","243","0.313","254.2","0.882","270.1","1011.9069999999999","25.8","75.89","-2.089","0.0"],
    [1421426,"2026-07-19 03:10:00","244","0.615","274.4","0.98","276.9","1011.949","25.71","75.99","-1.89","0.0"],
    [1421427,"2026-07-19 03:20:00","245","0.336","272.3","1.764","274.1","1011.9939999999999","25.67","75.97","-1.844","0.0"],
    [1421428,"2026-07-19 03:30:00","246","0.18","261.1","1.176","270.2","1011.952","25.75","75.93","-1.8419999999999999","0.0"],
    [1421429,"2026-07-19 03:40:00","247","0.209","268.5","1.078","276.4","1012.0139999999999","25.67","75.79","-1.91","0.0"],
    [1421430,"2026-07-19 03:50:00","248","1.023","285.4","1.47","294.4","1011.941","25.49","75.96","-2.166","0.0"],
    [1421431,"2026-07-19 04:00:00","249","0.9890000000000001","263.8","1.372","269.3","1012.1260000000001","25.52","75.73","-2.134","0.0"],
    [1421432,"2026-07-19 04:10:00","250","0.8959999999999999","268.0","1.666","272.4","1012.198","25.74","74.82","-1.882","0.0"],
    [1421433,"2026-07-19 04:20:00","251","0.031","272.1","0.588","272","1011.9910000000001","25.52","75.48","-1.855","0.0"],
    [1421434,"2026-07-19 04:30:00","252","0.485","277.9","1.274","275.3","1011.965","25.32","76.08","-1.051","0.0"],
    [1421435,"2026-07-19 04:40:00","253","0.623","270.3","1.176","267.8","1012.05","25.37","76.09","1.413","0.0"],
    [1421436,"2026-07-19 04:50:00","254","0.157","276.6","0.686","275.2","1012.13","25.3","76.25","6.882000000000001","0.0"],
    [1421437,"2026-07-19 05:00:00","255","0.087","275.5","0.49","275.5","1012.199","25.24","76.34","15.87","0.0"],
    [1421438,"2026-07-19 05:10:00","256","0.278","269.3","0.882","246.7","1012.2239999999999","25.35","76.17","27.3","0.0"],
    [1421439,"2026-07-19 05:20:00","257","0.91","264.0","1.96","280.9","1012.2919999999999","25.49","75.29","39.3","0.0"],
    [1421440,"2026-07-19 05:30:00","258","0.894","269.2","1.568","280.7","1012.3760000000001","25.68","74.34","54.69","0.0"],
    [1421441,"2026-07-19 05:40:00","259","1.2","272.2","1.764","264","1012.419","25.87","73.92","71.23","0.0"],
    [1421442,"2026-07-19 05:50:00","260","0.862","264.0","1.568","287.3","1012.502","25.97","73.94","90.0","0.0"],
    [1421443,"2026-07-19 06:00:00","261","0.434","249.1","0.98","255.8","1012.52","26.07","73.54","111.4","0.0"],
    [1421444,"2026-07-19 06:10:00","262","0.257","258.4","0.882","255.8","1012.56","26.39","72.57","134.3","0.0"],
    [1421445,"2026-07-19 06:20:00","263","0.527","279.3","0.98","278.3","1012.577","26.78","71.53","166.3","0.0"],
    [1421446,"2026-07-19 06:30:00","264","0.215","41.07","1.274","29.36","1012.459","27.44","70.25","198.3","0.0"],
    [1421447,"2026-07-19 06:40:00","265","0.584","40.89","1.274","341.9","1012.4810000000001","28.04","68.27","210.2","0.0"],
    [1421448,"2026-07-19 06:50:00","266","0.525","39.91","1.764","40.51","1012.4060000000001","28.38","66.91","186.9","0.0"],
    [1421449,"2026-07-19 07:00:00","267","0.767","58.75","1.666","65.61","1012.421","28.6","67.59","267.7","0.0"],
    [1421450,"2026-07-19 07:10:00","268","0.861","52.33","1.862","58.54","1012.409","29.16","64.94","312.8","0.0"],
    [1421451,"2026-07-19 07:20:00","269","1.71","38.83","2.744","34.7","1012.414","29.31","60.84","346.8","0.0"],
    [1421452,"2026-07-19 07:30:00","270","1.298","27.97","2.842","4.943","1012.4630000000001","29.76","56.98","358.5","0.0"],
    [1421453,"2026-07-19 07:40:00","271","1.607","39.93","2.548","15.94","1012.549","29.97","54.63","408.2","0.0"],
    [1421454,"2026-07-19 07:50:00","272","1.6159999999999999","76.49","2.646","86.1","1012.568","30.41","52.61","434.4","0.0"],
    [1421455,"2026-07-19 08:00:00","273","1.811","79.84","3.234","56.17","1012.6289999999999","30.46","52.26","464.2","0.0"],
    [1421456,"2026-07-19 08:10:00","274","1.147","57.51","2.842","88.6","1012.659","30.9","50.61","496.9","0.0"],
    [1421457,"2026-07-19 08:20:00","275","1.452","61.05","3.038","61.31","1012.671","30.96","49.19","521.5","0.0"],
    [1421458,"2026-07-19 08:30:00","276","1.973","79.54","3.822","85.5","1012.712","30.78","48.98","541.9","0.0"],
    [1421459,"2026-07-19 08:40:00","277","2.188","75.33","4.41","77.16","1012.803","30.71","48.8","578.1","0.0"],
    [1421460,"2026-07-19 08:50:00","278","1.899","77.91","3.234","73.82","1012.8639999999999","30.94","47.76","595.8","0.0"],
    [1421461,"2026-07-19 09:00:00","279","1.9509999999999998","79.37","3.822","86","1012.9069999999999","31.11","46.37","642.0","0.0"],
    [1421462,"2026-07-19 09:10:00","280","1.9040000000000001","77.16","3.332","87.8","1012.8910000000001","31.27","45.78","669.6","0.0"],
    [1421463,"2026-07-19 09:20:00","281","2.04","100.0","3.822","83.7","1012.9580000000001","31.4","44.49","697.3","0.0"],
    [1421464,"2026-07-19 09:30:00","282","1.588","107.6","3.234","90.3","1013.0319999999999","31.79","44.38","720.8","0.0"],
    [1421465,"2026-07-19 09:40:00","283","1.868","97.8","4.116","80.9","1013.0219999999999","31.88","43.46","747.1","0.0"],
    [1421466,"2026-07-19 09:50:00","284","1.642","101.5","5.096","127.9","1013.092","31.6","45.03","770.9","0.0"],
    [1421467,"2026-07-19 10:00:00","285","1.041","130.4","2.94","131.1","1013.294","31.97","44.98","788.4","0.0"],
    [1421468,"2026-07-19 10:10:00","286","1.464","123.7","4.214","155.2","1013.288","31.72","44.98","809.0","0.0"],
    [1421469,"2026-07-19 10:20:00","287","1.3090000000000002","127.5","3.724","151.3","1013.2280000000001","31.94","44.16","827.0","0.0"],
    [1421470,"2026-07-19 10:30:00","288","1.348","125.2","4.704","91.6","1013.19","31.9","44.07","846.0","0.0"],
    [1421471,"2026-07-19 10:40:00","289","1.3519999999999999","105.3","4.116","134.9","1013.198","32.19","43.88","859.0","0.0"],
    [1421472,"2026-07-19 10:50:00","290","1.6280000000000001","124.9","4.41","166.6","1013.255","32.49","43.1","871.0","0.0"],
    [1421473,"2026-07-19 11:00:00","291","2.3569999999999998","176.0","4.41","171.8","1013.299","31.84","46.69","882.0","0.0"],
    [1421474,"2026-07-19 11:10:00","292","2.356","171.7","4.312","188.6","1013.305","31.87","47.93","896.0","0.0"],
    [1421475,"2026-07-19 11:20:00","293","2.6719999999999997","180.4","5.194","203.2","1013.27","31.6","49.14","902.0","0.0"],
    [1421476,"2026-07-19 11:30:00","294","2.522","184.1","6.076","179.7","1013.2510000000001","32.32","47.85","906.0","0.0"],
    [1421477,"2026-07-19 11:40:00","295","3.563","200.0","6.958","206.8","1013.32","31.64","50.1","912.0","0.0"],
    [1421478,"2026-07-19 11:50:00","296","2.199","160.4","4.998","124.5","1013.2610000000001","31.68","49.42","916.0","0.0"],
    [1421479,"2026-07-19 12:00:00","297","2.654","182.9","4.9","145","1013.232","31.8","49.46","913.0","0.0"],
    [1421480,"2026-07-19 12:10:00","298","1.875","169.8","5.194","180.5","1013.1519999999999","32.15","48.38","917.0","0.0"],
    [1421481,"2026-07-19 12:20:00","299","3.3369999999999997","187.9","6.664","223.4","1013.3710000000001","31.96","48.73","921.0","0.0"],
    [1421482,"2026-07-19 12:30:00","300","3.509","190.5","6.174","157.2","1013.4860000000001","31.9","50.75","914.0","0.0"],
    [1421483,"2026-07-19 12:40:00","301","3.4819999999999998","191.5","5.782","203.4","1013.3","31.66","51.28","902.0","0.0"],
    [1421484,"2026-07-19 12:50:00","302","2.7539999999999996","185.7","5.684","182.9","1013.279","31.99","51.67","899.0","0.0"],
    [1421485,"2026-07-19 13:00:00","303","2.766","194.9","5.586","173.8","1013.079","32.02","53.55","860.0","0.0"],
    [1421486,"2026-07-19 13:10:00","304","3.542","203.4","6.664","226.4","1013.044","32.12","54.12","888.0","0.0"],
    [1421487,"2026-07-19 13:20:00","305","3.75","202.5","6.37","221.2","1012.92","31.51","54.97","863.0","0.0"],
    [1421488,"2026-07-19 13:30:00","306","3.267","202.4","5.194","225.3","1012.812","31.58","53.21","838.0","0.0"],
    [1421489,"2026-07-19 13:40:00","307","2.948","213.3","5.978","234.9","1012.841","31.53","53.1","626.1","0.0"],
    [1421490,"2026-07-19 13:50:00","308","3.304","200.0","6.272","230.7","1012.837","31.31","55.3","745.8","0.0"],
    [1421491,"2026-07-19 14:00:00","309","3.821","213.9","5.978","218.7","1012.789","31.57","56.13","786.5","0.0"],
    [1421492,"2026-07-19 14:10:00","310","3.455","200.0","6.174","247","1012.7280000000001","31.18","57.08","808.0","0.0"],
    [1421493,"2026-07-19 14:20:00","311","3.287","188.7","5.586","182","1012.7769999999999","31.5","55.51","760.4","0.0"],
    [1421494,"2026-07-19 14:30:00","312","3.5239999999999996","196.2","5.88","232.1","1012.847","31.49","53.96","781.5","0.0"],
    [1421495,"2026-07-19 14:40:00","313","3.5060000000000002","202.7","6.174","225","1012.91","31.35","55.35","604.9","0.0"],
    [1421496,"2026-07-19 14:50:00","314","3.5","192.4","6.468","193.5","1012.722","30.99","56.52","626.3","0.0"],
    [1421497,"2026-07-19 15:00:00","315","3.384","203.7","5.684","221.9","1012.632","30.94","57.96","505.0","0.0"],
    [1421498,"2026-07-19 15:10:00","316","2.839","193.2","5.586","224.7","1012.559","30.86","58.41","360.1","0.0"],
    [1421499,"2026-07-19 15:20:00","317","2.951","201.1","6.076","223.3","1012.46","30.49","59.72","391.5","0.0"],
    [1421500,"2026-07-19 15:30:00","318","2.818","200.0","5.488","216.3","1012.57","30.52","59.25","359.1","0.0"],
    [1421501,"2026-07-19 15:40:00","319","2.563","195.2","4.41","175.9","1012.673","30.41","58.03","302.6","0.0"],
    [1421502,"2026-07-19 15:50:00","320","2.498","193.0","5.39","174.9","1012.413","30.17","58.83","272.4","0.0"],
    [1421503,"2026-07-19 16:00:00","321","2.464","193.5","4.312","187.5","1012.38","30.21","57.54","300.9","0.0"],
    [1421504,"2026-07-19 16:10:00","322","2.5789999999999997","192.6","6.566","258.8","1012.5089999999999","30.57","57.28","416.9","0.0"],
    [1421505,"2026-07-19 16:20:00","323","2.3369999999999997","196.2","4.998","231","1012.4810000000001","30.58","57.66","269.5","0.0"],
    [1421506,"2026-07-19 16:30:00","324","2.907","201.8","8.33","190.4","1012.6030000000001","30.14","58.69","233.2","0.0"],
    [1421507,"2026-07-19 16:40:00","325","2.532","203.7","5.194","226.5","1012.541","30.14","59.89","236.9","0.0"],
    [1421508,"2026-07-19 16:50:00","326","2.454","196.3","5.194","168","1012.592","30.1","61.0","187.0","0.0"],
    [1421509,"2026-07-19 17:00:00","327","2.695","199.1","18.03","161.3","1012.3910000000001","29.9","63.36","115.6","0.0"],
    [1421510,"2026-07-19 17:10:00","328","2.772","209.2","4.9","165.9","1012.433","29.58","63.23","104.2","0.0"],
    [1421511,"2026-07-19 17:20:00","329","2.909","209.1","6.664","204.4","1012.27","29.52","60.53","115.2","0.0"],
    [1421512,"2026-07-19 17:30:00","330","2.218","193.3","4.508","182.2","1012.1","29.7","57.17","88.2","0.0"],
    [1421513,"2026-07-19 17:40:00","331","1.94","200.1","5.096","179.5","1012.007","29.41","62.83","72.19","0.0"],
    [1421514,"2026-07-19 17:50:00","332","2.001","188.5","8.53","175.8","1011.7719999999999","29.12","61.84","49.75","0.0"],
    [1421515,"2026-07-19 18:00:00","333","1.3259999999999998","196.6","3.43","165","1011.824","29.2","61.51","48.48","0.0"],
    [1421516,"2026-07-19 18:10:00","334","1.52","200.0","2.94","203.6","1011.804","29.1","61.6","46.9","0.0"],
    [1421517,"2026-07-19 18:20:00","335","1.178","197.6","2.45","226.2","1011.8960000000001","29.06","62.73","52.25","0.0"],
    [1421518,"2026-07-19 18:30:00","336","0.652","101.1","1.47","66.3","1011.56","29.0","63.9","35.28","0.0"],
    [1421519,"2026-07-19 18:40:00","337","0.723","51.63","1.568","47.1","1011.252","28.93","62.52","35.07","0.0"],
    [1421520,"2026-07-19 18:50:00","338","0.109","357.3","0.98","50.3","1011.3689999999999","28.95","61.85","25.13","0.0"],
    [1421521,"2026-07-19 19:00:00","339","1.1440000000000001","47.96","2.646","85.5","1011.204","29.03","62.04","19.9","0.0"],
    [1421522,"2026-07-19 19:10:00","340","1.338","83.2","2.45","81.8","1011.27","29.08","62.25","16.66","0.0"],
    [1421523,"2026-07-19 19:20:00","341","0.81","91.5","1.568","89.6","1011.52","28.93","63.21","13.91","0.0"],
    [1421524,"2026-07-19 19:30:00","342","0.767","155.6","2.842","204.9","1011.943","28.9","62.5","2.627","0.0"],
    [1421525,"2026-07-19 19:40:00","343","1.98","206.0","4.312","224.6","1012.317","29.08","62.25","-1.443","0.0"],
    [1421526,"2026-07-19 19:50:00","344","1.953","193.5","4.214","172.5","1012.673","28.87","65.32","-1.859","0.0"],
    [1421527,"2026-07-19 20:00:00","345","2.201","205.2","5.978","238.6","1012.85","28.76","67.89","-2.248","0.0"],
    [1421528,"2026-07-19 20:10:00","346","1.791","193.6","5.292","235","1012.9889999999999","28.57","71.31","-2.411","0.0"],
    [1421529,"2026-07-19 20:20:00","347","1.993","192.9","5.684","196.4","1013.1439999999999","28.42","72.92","-2.458","0.0"],
    [1421530,"2026-07-19 20:30:00","348","1.952","202.1","4.312","183","1013.1039999999999","28.39","74.26","-2.126","0.0"],
    [1421531,"2026-07-19 20:40:00","349","1.733","186.4","4.312","165.4","1013.14","28.25","74.82","-2.313","0.0"],
    [1421532,"2026-07-19 20:50:00","350","1.8130000000000002","210.9","3.92","190.6","1013.2189999999999","28.29","75.01","-1.8659999999999999","0.0"],
    [1421533,"2026-07-19 21:00:00","351","1.778","207.7","4.312","178.6","1013.332","28.23","76.36","-1.848","0.0"],
    [1421534,"2026-07-19 21:10:00","352","1.09","184.7","2.058","188.4","1013.457","28.19","76.54","-1.865","0.0"],
    [1421535,"2026-07-19 21:20:00","353","1.215","206.6","2.254","228.3","1013.415","28.13","77.12","-1.933","0.0"],
    [1421536,"2026-07-19 21:30:00","354","1.429","225.2","3.038","228.8","1013.437","28.1","77.06","-1.867","0.0"],
    [1421537,"2026-07-19 21:40:00","355","0.555","208.8","1.568","206.8","1013.334","27.97","77.6","-1.9469999999999998","0.0"],
    [1421538,"2026-07-19 21:50:00","356","0.147","151.2","0.686","149.4","1013.045","27.84","78.07","-2.239","0.0"],
    [1421539,"2026-07-19 22:00:00","357","0.41","64.72","0.98","64.15","1012.8789999999999","27.82","77.55","-2.291","0.0"],
    [1421540,"2026-07-19 22:10:00","358","0.8140000000000001","63.18","1.47","69.91","1012.73","27.86","77.06","-2.541","0.0"],
    [1421541,"2026-07-19 22:20:00","359","1.09","81.3","1.568","72.57","1012.6010000000001","27.87","76.46","-2.2319999999999998","0.0"],
    [1421542,"2026-07-19 22:30:00","360","1.5930000000000002","161.0","3.332","182.2","1013.202","27.98","74.7","-2.301","0.0"],
    [1421543,"2026-07-19 22:40:00","361","0.833","99.8","1.862","169.1","1013.1","28.15","74.91","-2.267","0.0"],
    [1421544,"2026-07-19 22:50:00","362","1.3019999999999998","80.1","1.96","79.65","1012.8989999999999","28.04","77.44","-2.577","0.0"],
    [1421545,"2026-07-19 23:00:00","363","1.101","88.9","2.058","76.64","1012.7719999999999","27.74","79.79","-2.591","0.0"],
    [1421546,"2026-07-19 23:10:00","364","0.519","216.9","1.372","284","1013.288","27.57","81.0","-2.592","0.0"],
    [1421547,"2026-07-19 23:20:00","365","0.6759999999999999","101.6","1.666","83.2","1012.937","27.63","80.3","-2.59","0.0"],
    [1421548,"2026-07-19 23:30:00","366","0.98","79.19","2.156","67.05","1012.811","27.59","80.3","-2.593","0.0"],
    [1421549,"2026-07-19 23:40:00","367","0.341","59.88","1.078","57.75","1012.796","27.48","81.2","-2.593","0.0"],
    [1421550,"2026-07-19 23:50:00","368","0.8109999999999999","38.65","1.176","34.4","1012.694","27.43","81.7","-2.594","0.0"],
    [1421551,"2026-07-20 00:00:00","369","0.433","37.88","0.98","38.56","1012.56","27.38","81.5","-2.593","0.0"],
    [1421552,"2026-07-20 00:10:00","370","0.185","57.38","0.98","85.7","1012.5310000000001","27.2","81.8","-2.6439999999999997","0.0"],
    [1421553,"2026-07-20 00:20:00","371","1.338","59.9","1.862","47.19","1012.393","26.99","81.7","-2.592","0.0"],
    [1421554,"2026-07-20 00:30:00","372","1.354","46.9","2.058","50.48","1012.307","26.84","82.2","-2.593","0.0"],
    [1421555,"2026-07-20 00:40:00","373","1.008","70.69","1.666","72.96","1012.367","26.95","81.4","-2.593","0.0"],
    [1421556,"2026-07-20 00:50:00","374","1.18","49.12","2.058","41.96","1012.189","26.96","80.9","-2.592","0.0"],
    [1421557,"2026-07-20 01:00:00","375","0.716","51.45","1.568","33.72","1012.18","26.85","81.1","-2.593","0.0"],
    [1421558,"2026-07-20 01:10:00","376","0.68","66.17","1.372","40.7","1012.1569999999999","26.84","81.1","-2.593","0.0"],
    [1421559,"2026-07-20 01:20:00","377","0.9079999999999999","82.5","1.568","88.2","1012.2660000000001","26.74","80.7","-2.594","0.0"],
    [1421560,"2026-07-20 01:30:00","378","1.002","41.83","1.96","67.44","1012.315","26.46","78.3","-2.593","0.0"],
    [1421561,"2026-07-20 01:40:00","379","0.43","232.7","1.176","226.8","1012.4889999999999","26.46","76.64","-2.595","0.0"],
    [1421562,"2026-07-20 01:50:00","380","0.8190000000000001","255.9","1.666","240.3","1012.552","26.36","74.19","-2.593","0.0"],
    [1421563,"2026-07-20 02:00:00","381","0.956","212.6","1.96","232.9","1012.755","26.31","71.02","-2.593","0.0"],
    [1421564,"2026-07-20 02:10:00","382","0.6829999999999999","234.7","1.96","232.3","1012.789","26.35","68.75","-2.592","0.0"],
    [1421565,"2026-07-20 02:20:00","383","0.38299999999999995","263.4","0.98","253.4","1012.7719999999999","26.2","68.73","-2.593","0.0"],
    [1421566,"2026-07-20 02:30:00","384","0.737","273.7","1.274","285.7","1012.821","26.0","69.45","-2.593","0.0"],
    [1421567,"2026-07-20 02:40:00","385","0.585","231.6","1.372","224.4","1012.957","26.03","68.75","-2.592","0.0"],
    [1421568,"2026-07-20 02:50:00","386","0.9209999999999999","238.2","1.666","232.3","1013.175","26.26","67.56","-2.5789999999999997","0.0"],
    [1421569,"2026-07-20 03:00:00","387","0.75","220.8","1.372","231.6","1013.321","26.41","66.64","-2.535","0.0"],
    [1421570,"2026-07-20 03:10:00","388","0.525","260.6","1.078","278.6","1013.3389999999999","26.33","66.79","-2.5669999999999997","0.0"],
    [1421571,"2026-07-20 03:20:00","389","1.1420000000000001","271.3","1.862","266.1","1013.4010000000001","26.11","67.28","-2.59","0.0"],
    [1421572,"2026-07-20 03:30:00","390","0.877","272.7","1.568","274.5","1013.447","26.1","67.21","-2.5789999999999997","0.0"],
    [1421573,"2026-07-20 03:40:00","391","0.8859999999999999","272.3","1.666","280.9","1013.552","25.82","68.46","-2.5669999999999997","0.0"],
    [1421574,"2026-07-20 03:50:00","392","0.9359999999999999","312.3","2.842","335.8","1013.427","25.45","69.86","-2.592","0.0"],
    [1421575,"2026-07-20 04:00:00","393","1.672","329.8","3.136","328","1013.346","25.83","67.08","-2.5869999999999997","0.0"],
    [1421576,"2026-07-20 04:10:00","394","1.145","335.9","1.96","325.3","1013.252","26.21","64.83","-2.062","0.0"],
    [1421577,"2026-07-20 04:20:00","395","0.94","346.5","1.666","341.6","1013.203","25.99","65.54","-2.005","0.0"],
    [1421578,"2026-07-20 04:30:00","396","1.124","350.8","1.96","354.9","1013.13","26.02","64.66","-1.052","0.0"],
    [1421579,"2026-07-20 04:40:00","397","1.382","346.1","1.862","344.2","1013.039","26.22","62.7","1.3869999999999998","0.0"],
    [1421580,"2026-07-20 04:50:00","398","1.311","355.2","1.764","354.6","1012.992","26.36","62.06","6.555","0.0"],
    [1421581,"2026-07-20 05:00:00","399","0.131","350.5","1.372","343","1013.1139999999999","26.74","62.5","15.55","0.0"],
    [1421582,"2026-07-20 05:10:00","400","0.48","289.6","1.372","320.1","1013.118","26.45","63.4","27.09","0.0"],
    [1421583,"2026-07-20 05:20:00","401","1.172","244.8","2.156","280.1","1013.2919999999999","26.29","63.22","40.48","0.0"],
    [1421584,"2026-07-20 05:30:00","402","1.361","283.7","2.058","291.1","1013.347","25.9","64.81","55.86","0.0"],
    [1421585,"2026-07-20 05:40:00","403","1.4340000000000002","279.1","1.96","287.6","1013.332","25.5","65.56","71.14","0.0"],
    [1421586,"2026-07-20 05:50:00","404","1.018","259.9","1.764","267.3","1013.357","25.79","64.58","91.1","0.0"],
    [1421587,"2026-07-20 06:00:00","405","0.767","276.7","1.372","276.8","1013.314","26.23","63.46","112.4","0.0"],
    [1421588,"2026-07-20 06:10:00","406","0.773","282.2","1.47","284.6","1013.2719999999999","26.81","62.0","136.1","0.0"],
    [1421589,"2026-07-20 06:20:00","407","0.531","277.4","1.274","304","1013.2589999999999","27.39","60.57","163.0","0.0"],
    [1421590,"2026-07-20 06:30:00","408","0.981","285.0","1.568","285.6","1013.28","27.82","58.66","188.9","0.0"],
    [1421591,"2026-07-20 06:40:00","409","1.0959999999999999","308.9","2.254","310.1","1013.263","28.23","58.27","217.9","0.0"],
    [1421592,"2026-07-20 06:50:00","410","1.892","48.23","3.43","32.52","1013.373","29.25","56.89","250.8","0.0"],
    [1421593,"2026-07-20 07:00:00","411","1.784","13.03","3.234","4.071","1013.495","29.34","57.38","284.7","0.0"],
    [1421594,"2026-07-20 07:10:00","412","1.692","19.53","3.234","17.06","1013.4810000000001","29.79","55.74","320.1","0.0"],
    [1421595,"2026-07-20 07:20:00","413","2.114","24.13","3.626","8.38","1013.449","29.89","55.47","353.6","0.0"],
    [1421596,"2026-07-20 07:30:00","414","2.613","65.59","3.92","86.7","1013.638","30.04","55.01","387.2","0.0"],
    [1421597,"2026-07-20 07:40:00","415","3.514","68.84","4.9","78.51","1013.669","29.82","57.69","421.9","0.0"],
    [1421598,"2026-07-20 07:50:00","416","3.998","61.38","5.488","62.13","1013.643","29.35","59.94","454.1","0.0"],
    [1421599,"2026-07-20 08:00:00","417","3.855","67.05","5.586","69.93","1013.679","29.33","59.85","484.6","0.0"],
    [1421600,"2026-07-20 08:10:00","418","3.597","57.66","4.998","60.1","1013.709","29.51","59.86","515.8","0.0"],
    [1421601,"2026-07-20 08:20:00","419","3.22","62.37","4.704","73.23","1013.7689999999999","29.37","63.04","546.2","0.0"],
    [1421602,"2026-07-20 08:30:00","420","3.466","68.42","4.704","85.4","1013.7610000000001","29.52","64.58","554.4","0.0"],
    [1421603,"2026-07-20 08:40:00","421","3.9019999999999997","75.91","5.194","76.28","1013.6619999999999","29.32","65.07","603.9","0.0"],
    [1421604,"2026-07-20 08:50:00","422","3.892","81.6","5.488","61.4","1013.7260000000001","29.45","66.47","609.8","0.0"],
    [1421605,"2026-07-20 09:00:00","423","2.439","89.7","4.018","74.68","1013.753","29.54","66.91","671.7","0.0"],
    [1421606,"2026-07-20 09:10:00","424","3.4130000000000003","83.1","5.292","61.74","1013.7439999999999","29.79","62.65","685.4","0.0"],
    [1421607,"2026-07-20 09:20:00","425","3.137","86.7","5.194","88.3","1013.768","29.95","59.52","708.3","0.0"],
    [1421608,"2026-07-20 09:30:00","426","3.9339999999999997","79.21","5.586","69.06","1013.742","29.73","60.58","730.2","0.0"],
    [1421609,"2026-07-20 09:40:00","427","3.3739999999999997","75.69","5.292","75.36","1013.745","29.96","59.69","746.9","0.0"],
    [1421610,"2026-07-20 09:50:00","428","2.705","87.5","4.606","85.1","1013.953","29.97","59.96","764.5","0.0"],
    [1421611,"2026-07-20 10:00:00","429","3.4160000000000004","87.7","4.998","99.4","1013.883","30.01","59.58","792.5","0.0"],
    [1421612,"2026-07-20 10:10:00","430","3.61","90.8","5.586","85.5","1013.788","30.06","58.53","807.0","0.0"],
    [1421613,"2026-07-20 10:20:00","431","2.779","100.6","4.998","75.08","1013.8939999999999","30.39","57.47","823.0","0.0"],
    [1421614,"2026-07-20 10:30:00","432","3.384","96.2","5.978","78.61","1014.079","29.97","62.12","839.0","0.0"],
    [1421615,"2026-07-20 10:40:00","433","3.509","93.1","5.488","83.8","1014.172","29.6","64.66","853.0","0.0"],
    [1421616,"2026-07-20 10:50:00","434","2.355","103.1","4.606","78.71","1014.304","29.99","65.13","864.0","0.0"],
    [1421617,"2026-07-20 11:00:00","435","2.99","101.1","5.586","136.2","1014.457","29.79","61.78","877.0","0.0"],
    [1421618,"2026-07-20 11:10:00","436","2.908","103.3","5.292","129.5","1014.586","30.2","58.35","888.0","0.0"],
    [1421619,"2026-07-20 11:30:00","0","0.0","0.0","0","0","0.0","0.0","0.0","0.0","0.0"],
    [1421620,"2026-07-20 12:40:00","0","2.992","91.2","5.194","79.87","795.6594","23.14","51.11","696.6","0.0"],
    [1421621,"2026-07-20 12:50:00","0","3.793","83.4","4.704","77.79","1013.949","29.88","63.11","881.0","0.0"],
    [1421622,"2026-07-20 13:00:00","0","4.482","78.96","5.978","83.2","1013.795","29.75","63.39","871.0","0.0"],
    [1421623,"2026-07-20 13:10:00","1","4.25","88.5","6.762","90.7","1013.699","29.67","63.5","867.0","0.0"],
    [1421624,"2026-07-20 13:20:00","2","4.171","81.0","6.174","78.51","1013.617","29.83","63.07","858.0","0.0"],
    [1421625,"2026-07-20 13:30:00","3","4.287","85.4","5.684","87.8","1013.538","29.7","62.58","845.0","0.0"],
    [1421626,"2026-07-20 13:40:00","4","3.972","87.6","6.076","95.7","1013.466","29.69","63.64","826.0","0.0"],
    [1421627,"2026-07-20 13:50:00","5","4.085","86.2","5.782","83.7","1013.422","29.48","64.39","808.0","0.0"],
    [1421628,"2026-07-20 14:00:00","6","3.366","93.5","5.782","85.9","1013.4689999999999","29.86","63.33","793.6","0.0"],
    [1421629,"2026-07-20 14:10:00","7","3.1069999999999998","99.8","4.9","94.9","1013.4860000000001","29.93","62.15","778.8","0.0"],
    [1421630,"2026-07-20 14:20:00","8","3.324","92.0","5.586","77.06","1013.378","29.79","63.0","754.4","0.0"],
    [1421631,"2026-07-20 14:30:00","9","3.435","91.6","4.9","81","1013.2589999999999","29.95","61.78","730.4","0.0"],
    [1421632,"2026-07-20 14:40:00","10","3.012","92.9","5.194","89.9","1013.145","29.78","61.66","708.0","0.0"],
    [1421633,"2026-07-20 14:50:00","11","3.248","100.7","5.684","78.71","1013.105","29.61","63.01","683.8","0.0"],
    [1421634,"2026-07-20 15:00:00","12","2.925","95.9","4.704","97.2","1013.0360000000001","29.44","64.24","656.0","0.0"],
    [1421635,"2026-07-20 15:10:00","13","3.35","87.1","5.39","91.9","1012.883","29.48","65.31","635.8","0.0"],
    [1421636,"2026-07-20 15:20:00","14","3.049","93.0","4.704","82.5","1012.7760000000001","29.43","66.04","482.4","0.0"],
    [1421637,"2026-07-20 15:30:00","15","1.724","108.5","3.528","72.99","1013.051","29.13","67.45","206.0","0.0"],
    [1421638,"2026-07-20 15:40:00","16","1.258","113.5","3.822","109.3","1013.438","28.66","69.04","113.3","0.0"],
    [1421639,"2026-07-20 15:50:00","17","2.106","117.4","3.822","81.2","1013.2310000000001","28.61","68.53","74.92","0.0"],
    [1421640,"2026-07-20 16:00:00","18","2.149","179.1","7.546","239.7","1013.685","28.59","69.63","39.3","0.0"],
    [1421641,"2026-07-20 16:10:00","19","1.8019999999999998","213.3","6.076","221","1014.079","28.38","71.87","11.51","0.0"],
    [1421642,"2026-07-20 16:20:00","20","3.821","47.53","7.35","68.91","1012.091","28.16","71.28","5.669","0.0"],
    [1421643,"2026-07-20 16:30:00","21","4.173","130.0","9.6","218.3","1012.565","28.43","72.19","6.377000000000001","0.0"],
    [1421644,"2026-07-20 16:40:00","22","3.133","140.0","7.938","101.8","1012.195","28.13","74.2","18.17","0.0"],
    [1421645,"2026-07-20 16:50:00","23","3.013","123.7","7.35","159.8","1010.7719999999999","27.98","74.59","46.67","0.0"],
    [1421646,"2026-07-20 17:00:00","24","2.9010000000000002","236.8","6.272","141.4","1012.003","28.11","74.44","31.75","0.0"],
    [1421647,"2026-07-20 17:10:00","25","3.534","225.0","6.37","214.3","1012.7239999999999","28.27","75.99","17.37","0.0"],
    [1421648,"2026-07-20 17:20:00","26","0.7509999999999999","1.9980000000000002","2.254","28.01","1011.953","27.91","77.97","12.23","0.0"],
    [1421649,"2026-07-20 17:30:00","27","1.6","317.9","3.626","258.1","1011.92","27.87","78.61","10.06","0.0"],
    [1421650,"2026-07-20 17:40:00","28","1.599","197.7","4.998","215.1","1012.309","28.11","78.74","15.44","0.0"],
    [1421651,"2026-07-20 17:50:00","29","1.268","333.4","2.842","317.5","1011.7639999999999","28.06","79.79","92.6","0.0"],
    [1421652,"2026-07-20 18:00:00","30","0.973","43.64","2.058","45.84","1011.1080000000001","28.3","79.5","168.3","0.0"],
    [1421653,"2026-07-20 18:10:00","31","0.907","36.31","2.156","50.39","1011.2489999999999","28.57","77.47","174.5","0.0"],
    [1421654,"2026-07-20 18:20:00","32","0.597","219.7","1.47","208.9","1011.586","28.74","76.11","106.8","0.0"],
    [1421655,"2026-07-20 18:30:00","33","0.742","205.1","2.156","227.7","1011.6460000000001","28.74","76.86","75.09","0.0"],
    [1421656,"2026-07-20 18:40:00","34","1.587","204.1","2.842","212.1","1011.6389999999999","28.51","78.24","52.38","0.0"],
    [1421657,"2026-07-20 18:50:00","35","1.263","191.6","2.352","177.1","1011.6489999999999","28.2","79.29","35.79","0.0"],
    [1421658,"2026-07-20 19:00:00","36","1.34","193.4","2.94","178.9","1011.558","28.11","79.43","22.03","0.0"],
    [1421659,"2026-07-20 19:10:00","37","1.725","201.0","3.626","185.9","1011.432","28.01","79.6","11.57","0.0"],
    [1421660,"2026-07-20 19:20:00","38","0.753","226.7","1.764","239.4","1011.388","27.91","80.3","3.838","0.0"],
    [1421661,"2026-07-20 19:30:00","39","0.11800000000000001","244.0","0.882","237.5","1011.347","27.67","80.6","-0.588","0.0"],
    [1421662,"2026-07-20 19:40:00","40","0.937","220.8","1.96","226.1","1011.367","27.56","81.5","-2.2319999999999998","0.0"],
    [1421663,"2026-07-20 19:50:00","41","1.351","200.9","2.744","198.9","1011.581","27.67","81.4","-2.589","0.0"],
    [1421664,"2026-07-20 20:00:00","42","1.556","206.3","2.842","215.2","1011.9580000000001","27.67","82.3","-2.585","0.0"],
    [1421665,"2026-07-20 20:10:00","43","1.569","202.7","3.234","218.5","1012.087","27.53","83.4","-2.5839999999999996","0.0"],
    [1421666,"2026-07-20 20:20:00","44","2.367","219.0","3.92","237.5","1012.176","27.47","83.6","-2.575","0.0"],
    [1421667,"2026-07-20 20:30:00","45","1.436","206.8","2.744","208","1012.47","27.42","83.6","-2.5180000000000002","0.0"],
    [1421668,"2026-07-20 20:40:00","46","1.35","202.5","2.842","196.3","1012.715","27.41","83.9","-2.569","0.0"],
    [1421669,"2026-07-20 20:50:00","47","1.3419999999999999","215.8","3.136","178.2","1012.934","27.4","84.4","-2.49","0.0"],
    [1421670,"2026-07-20 21:00:00","48","1.483","211.7","2.646","202.9","1012.8789999999999","27.38","84.7","-2.53","0.0"],
    [1421671,"2026-07-20 21:10:00","49","1.234","211.5","2.646","233.7","1012.9830000000001","27.39","84.7","-2.468","0.0"],
    [1421672,"2026-07-20 21:20:00","50","1.49","212.4","2.94","224.7","1013.123","27.38","84.5","-2.2880000000000003","0.0"],
    [1421673,"2026-07-20 21:30:00","51","0.66","215.8","1.862","219.5","1013.1189999999999","27.33","84.4","-2.406","0.0"],
    [1421674,"2026-07-20 21:40:00","52","0.67","179.1","1.862","163.5","1013.194","27.22","85.3","-2.5610000000000004","0.0"],
    [1421675,"2026-07-20 21:50:00","53","0.6709999999999999","198.2","1.96","189.2","1013.21","26.84","87.8","-2.499","0.0"],
    [1421676,"2026-07-20 22:00:00","54","0.551","188.9","1.568","174.8","1013.1289999999999","26.55","89.7","-2.555","0.0"],
    [1421677,"2026-07-20 22:10:00","55","0.406","192.3","1.078","188.4","1013.023","26.46","90.5","-2.593","0.0"],
    [1421678,"2026-07-20 22:20:00","56","0.6609999999999999","197.9","1.666","212.3","1013.074","26.66","89.6","-2.247","0.0"],
    [1421679,"2026-07-20 22:30:00","57","0.493","190.7","1.568","183.9","1013.018","26.81","88.8","-1.4580000000000002","0.0"],
    [1421680,"2026-07-20 22:40:00","58","0.225","202.3","0.784","189.5","1012.925","26.86","88.1","-1.264","0.0"],
    [1421681,"2026-07-20 22:50:00","59","0.314","252.2","1.176","267.2","1012.9730000000001","26.86","87.7","-1.065","0.0"],
    [1421682,"2026-07-20 23:00:00","60","0.091","125.6","0.784","99.3","1012.995","26.86","87.6","-1.069","0.0"],
    [1421683,"2026-07-20 23:10:00","61","0.23399999999999999","224.9","1.078","200.3","1013.02","26.97","87.2","-1.03","0.0"],
    [1421684,"2026-07-20 23:20:00","62","0.006","241.2","0.196","241.3","1012.84","26.87","86.9","-1.043","0.0"],
    [1421685,"2026-07-20 23:30:00","63","0.3","27.92","0.98","30.04","1012.91","26.99","86.2","-1.087","0.0"],
    [1421686,"2026-07-20 23:40:00","64","0.012","38.2","0.294","41.81","1012.926","27.06","86.4","-1.09","0.0"],
    [1421687,"2026-07-20 23:50:00","65","0.27","55.74","0.686","56.78","1012.941","27.01","86.6","-1.092","0.0"],
    [1421688,"2026-07-21 00:00:00","66","0.547","49.17","0.882","48.54","1012.842","26.93","86.7","-1.092","0.0"],
    [1421689,"2026-07-21 00:10:00","67","1.006","63.29","1.47","68.12","1012.882","26.96","86.6","-1.089","0.0"],
    [1421690,"2026-07-21 00:20:00","68","1.3319999999999999","60.19","2.156","62.11","1012.8789999999999","26.9","86.8","-1.091","0.0"],
    [1421691,"2026-07-21 00:30:00","69","1.649","79.3","3.626","68.36","1013.007","27.0","87.3","-1.213","0.0"],
    [1421692,"2026-07-21 00:40:00","70","2.679","55.52","4.214","60.12","1013.0319999999999","27.14","88.2","-1.212","0.0"],
    [1421693,"2026-07-21 00:50:00","71","2.0540000000000003","60.73","3.332","71.02","1013.069","26.99","88.2","-1.249","0.0"],
    [1421694,"2026-07-21 01:00:00","72","2.737","59.31","4.116","65.07","1013.033","27.04","87.4","-1.182","0.0"],
    [1421695,"2026-07-21 01:10:00","73","1.804","63.47","2.744","45.54","1013.163","27.1","87.2","-1.2890000000000001","0.0"],
    [1421696,"2026-07-21 01:20:00","74","2.011","55.31","2.94","49.71","1013.1419999999999","27.12","87.5","-1.121","0.0"],
    [1421697,"2026-07-21 01:30:00","75","1.7409999999999999","47.2","3.038","45.1","1013.102","27.0","87.7","-1.391","0.0"],
    [1421698,"2026-07-21 01:40:00","76","1.732","56.46","2.548","69.62","1013.0319999999999","26.91","87.5","-1.807","0.0"],
    [1421699,"2026-07-21 01:50:00","77","1.794","48.85","2.744","59.83","1012.905","26.88","87.4","-1.844","0.0"],
    [1421700,"2026-07-21 02:00:00","78","1.187","53.48","2.744","37.4","1012.922","26.86","87.5","-1.848","0.0"],
    [1421701,"2026-07-21 02:10:00","79","0.698","46.31","1.666","51.65","1012.732","26.81","87.7","-1.86","0.0"],
    [1421702,"2026-07-21 02:20:00","80","0.35100000000000003","350.7","0.882","28.29","1012.612","26.72","87.9","-2.0469999999999997","0.0"],
    [1421703,"2026-07-21 02:30:00","81","0.34299999999999997","116.4","0.882","156","1012.625","26.74","88.0","-2.0869999999999997","0.0"],
    [1421704,"2026-07-21 02:40:00","82","0.626","307.5","1.372","308","1012.717","26.12","85.7","-1.594","0.0"],
    [1421705,"2026-07-21 02:50:00","83","0.87","303.9","1.47","312.8","1012.795","26.02","83.6","-1.8769999999999998","0.0"],
    [1421706,"2026-07-21 03:00:00","84","0.43799999999999994","309.0","1.372","291.9","1012.9810000000001","26.29","83.5","-1.828","0.0"],
    [1421707,"2026-07-21 03:10:00","85","0.966","343.7","2.548","94.1","1012.747","26.14","82.7","-1.486","0.0"],
    [1421708,"2026-07-21 03:20:00","86","1.96","69.74","3.626","69.96","1012.46","26.93","86.7","-2.233","0.0"],
    [1421709,"2026-07-21 03:30:00","87","1.436","11.66","3.038","323.2","1012.975","26.94","87.8","-1.847","0.0"],
    [1421710,"2026-07-21 03:40:00","88","1.597","40.07","2.646","57.99","1013.0319999999999","26.89","88.0","-1.864","0.0"],
    [1421711,"2026-07-21 03:50:00","89","1.2919999999999998","58.92","2.548","58.04","1012.972","26.75","88.0","-1.8430000000000002","0.0"],
    [1421712,"2026-07-21 04:00:00","90","1.431","67.18","2.254","70.06","1013.054","26.68","88.1","-1.854","0.0"],
    [1421713,"2026-07-21 04:10:00","91","1.273","58.44","1.764","47.96","1012.9989999999999","26.62","88.4","-1.9680000000000002","0.0"],
    [1421714,"2026-07-21 04:20:00","92","0.9490000000000001","31.27","1.666","23.35","1013.232","26.63","88.8","-1.931","0.0"],
    [1421715,"2026-07-21 04:30:00","93","0.7979999999999999","352.9","1.47","354.6","1013.4730000000001","26.62","88.8","-1.2919999999999998","0.0"],
    [1421716,"2026-07-21 04:40:00","94","0.616","297.7","1.274","294","1013.382","25.8","86.8","0.6679999999999999","0.0"],
    [1421717,"2026-07-21 04:50:00","95","1.367","44.0","2.646","45.93","1013.082","26.26","88.3","4.025","0.0"],
    [1421718,"2026-07-21 05:00:00","96","1.6840000000000002","11.79","2.548","31.59","1013.03","26.6","88.2","10.93","0.0"],
    [1421719,"2026-07-21 05:10:00","97","1.663","17.46","2.45","0.097","1013.2810000000001","26.75","88.0","21.09","0.0"],
    [1421720,"2026-07-21 05:20:00","98","1.379","22.07","2.254","11.53","1013.0880000000001","26.73","87.9","36.72","0.0"],
    [1421721,"2026-07-21 05:30:00","99","1.82","18.66","2.94","12.06","1013.05","26.77","87.0","53.89","0.0"],
    [1421722,"2026-07-21 05:40:00","100","0.727","38.96","1.568","35.27","1013.328","26.99","85.9","72.16","0.0"],
    [1421723,"2026-07-21 05:50:00","101","0.49700000000000005","10.8","1.666","29.46","1013.52","27.18","84.2","99.2","0.0"],
    [1421724,"2026-07-21 06:00:00","102","1.067","13.22","2.352","353.7","1013.638","27.53","81.1","141.2","0.0"],
    [1421725,"2026-07-21 06:10:00","103","0.6859999999999999","81.7","1.764","90.5","1014.1460000000001","27.84","76.87","164.3","0.0"],
    [1421726,"2026-07-21 06:20:00","104","1.041","326.1","3.724","270","1014.4910000000001","28.04","72.14","140.7","0.0"],
    [1421727,"2026-07-21 06:30:00","105","5.501","83.5","10.49","88.5","1012.087","27.72","73.66","55.16","0.0"],
    [1421728,"2026-07-21 06:40:00","106","3.487","12.65","8.53","330.2","1013.3530000000001","27.6","72.9","110.7","0.0"],
    [1421729,"2026-07-21 06:50:00","107","1.819","40.37","3.136","17.73","1013.942","27.85","71.19","147.3","0.0"],
    [1421730,"2026-07-21 07:00:00","108","2.314","46.03","4.116","73.36","1013.7280000000001","28.08","69.06","225.8","0.0"],
    [1421731,"2026-07-21 07:10:00","109","3.1180000000000003","76.48","4.606","64.64","1013.663","28.38","68.43","329.6","0.0"],
    [1421732,"2026-07-21 07:20:00","110","1.321","101.2","3.332","91.7","1014.365","28.65","68.92","347.4","0.0"],
    [1421733,"2026-07-21 07:30:00","111","1.2309999999999999","98.9","3.332","95.2","1014.41","28.69","70.34","198.2","0.0"],
    [1421734,"2026-07-21 07:40:00","112","1.355","144.7","3.528","149.5","1015.046","27.97","72.27","156.2","0.0"],
    [1421735,"2026-07-21 07:50:00","113","2.8369999999999997","76.87","4.116","77.39","1014.416","28.22","72.35","404.1","0.0"],
    [1421736,"2026-07-21 08:00:00","114","3.378","49.98","5.194","40.03","1014.2869999999999","28.46","69.93","430.3","0.0"],
    [1421737,"2026-07-21 08:10:00","115","4.757","69.57","8.13","70.76","1013.564","28.34","69.98","229.0","0.0"],
    [1421738,"2026-07-21 08:20:00","116","4.345","74.01","7.252","81.3","1013.0269999999999","28.09","70.88","289.6","0.0"],
    [1421739,"2026-07-21 08:30:00","117","2.031","39.37","4.116","12.36","1014.087","28.49","68.24","470.0","0.0"],
    [1421740,"2026-07-21 08:40:00","118","2.5580000000000003","25.09","4.312","16.09","1014.2869999999999","29.01","64.75","591.8","0.0"],
    [1421741,"2026-07-21 08:50:00","119","2.866","77.18","4.606","99.2","1013.825","29.43","62.76","602.2","0.0"],
    [1421742,"2026-07-21 09:00:00","120","1.777","65.91","3.724","64.17","1014.2660000000001","29.55","61.97","614.3","0.0"],
    [1421743,"2026-07-21 09:10:00","121","1.775","96.4","3.528","84","1014.625","29.42","60.17","175.4","0.0"],
    [1421744,"2026-07-21 09:20:00","122","1.34","127.7","4.214","204.1","1014.888","29.51","60.09","641.9","0.0"],
    [1421745,"2026-07-21 09:30:00","123","1.611","109.8","4.018","101","1014.6519999999999","29.78","58.88","615.0","0.0"],
    [1421746,"2026-07-21 09:40:00","124","3.52","82.9","5.488","77.54","1014.423","29.72","58.01","544.1","0.0"],
    [1421747,"2026-07-21 09:50:00","125","2.806","74.73","5.39","82","1014.455","29.47","58.96","741.2","0.0"],
    [1421748,"2026-07-21 10:00:00","126","3.2030000000000003","90.3","5.292","96.7","1014.198","29.64","57.89","541.9","0.0"],
    [1421749,"2026-07-21 10:10:00","127","1.5719999999999998","117.8","4.41","87.1","1014.795","29.87","56.76","676.6","0.0"],
    [1421750,"2026-07-21 10:20:00","128","1.933","104.0","4.606","96.1","1015.09","29.98","55.39","840.0","0.0"],
    [1421751,"2026-07-21 10:30:00","129","2.9419999999999997","96.0","4.998","96","1014.847","29.79","56.31","722.7","0.0"],
    [1421752,"2026-07-21 10:40:00","130","2.8480000000000003","87.9","5.292","83.5","1015.1310000000001","29.98","54.64","852.0","0.0"],
    [1421753,"2026-07-21 10:50:00","131","3.205","90.8","4.802","86.5","1015.176","29.76","56.89","852.0","0.0"],
    [1421754,"2026-07-21 11:00:00","132","3.5589999999999997","96.7","5.782","91.5","1015.2389999999999","29.77","56.87","865.0","0.0"],
    [1421755,"2026-07-21 11:10:00","133","4.405","90.6","6.468","87.2","1015.01","29.75","57.58","869.0","0.0"],
    [1421756,"2026-07-21 11:20:00","134","5.121","83.1","7.154","79.19","1014.692","29.81","56.93","875.0","0.0"],
    [1421757,"2026-07-21 11:30:00","135","4.365","86.7","6.664","100.7","1014.898","29.59","60.1","870.0","0.0"],
    [1421758,"2026-07-21 11:40:00","136","3.8819999999999997","91.1","6.664","85.8","1015.1110000000001","29.88","56.9","873.0","0.0"],
    [1421759,"2026-07-21 11:50:00","137","3.3160000000000003","95.5","5.292","82.7","1015.258","30.01","54.58","872.0","0.0"],
    [1421760,"2026-07-21 12:00:00","138","2.5660000000000003","97.9","5.194","87.2","1015.5239999999999","29.96","55.53","830.0","0.0"],
    [1421761,"2026-07-21 12:10:00","139","2.478","105.3","5.586","85.6","1015.811","30.23","56.4","874.0","0.0"],
    [1421762,"2026-07-21 12:20:00","140","3.2430000000000003","95.4","5.782","71.82","1015.873","29.69","58.48","872.0","0.0"],
    [1421763,"2026-07-21 12:30:00","141","3.529","96.4","6.272","74.44","1015.6","29.38","60.03","861.0","0.0"],
    [1421764,"2026-07-21 12:40:00","142","4.361000000000001","91.2","6.566","93.9","1015.127","29.4","60.59","852.0","0.0"],
    [1421765,"2026-07-21 12:50:00","143","5.101","83.3","7.546","82.4","1014.92","29.64","58.4","844.0","0.0"],
    [1421766,"2026-07-21 13:00:00","144","4.897","80.3","7.35","81.1","1014.875","30.08","55.49","834.0","0.0"],
    [1421767,"2026-07-21 13:10:00","145","5.8389999999999995","73.46","7.938","79.68","1014.699","30.26","50.24","827.0","0.0"],
    [1421768,"2026-07-21 13:20:00","146","5.466","69.94","8.72","83.6","1014.424","30.37","48.87","815.0","0.0"],
    [1421769,"2026-07-21 13:30:00","147","5.665","67.11","7.938","80.4","1014.315","30.5","49.58","805.0","0.0"],
    [1421770,"2026-07-21 13:40:00","148","5.807","67.21","8.43","76.23","1014.309","30.28","49.55","793.3","0.0"],
    [1421771,"2026-07-21 13:50:00","149","5.73","68.09","8.23","56.65","1014.206","30.35","49.89","780.2","0.0"],
    [1421772,"2026-07-21 14:00:00","150","5.7410000000000005","72.87","8.04","79.63","1014.2810000000001","30.54","51.03","766.2","0.0"],
    [1421773,"2026-07-21 14:10:00","151","5.377999999999999","58.19","8.04","47.54","1014.046","30.61","49.45","751.5","0.0"],
    [1421774,"2026-07-21 14:20:00","152","5.789","66.85","8.53","69.59","1014.0930000000001","30.33","50.9","736.5","0.0"],
    [1421775,"2026-07-21 14:30:00","153","5.306","72.11","7.35","70.95","1014.3889999999999","30.14","49.72","715.2","0.0"],
    [1421776,"2026-07-21 14:40:00","154","5.047","74.41","7.056","70.13","1014.534","29.85","52.45","694.7","0.0"],
    [1421777,"2026-07-21 14:50:00","155","3.74","89.3","6.174","97.1","1014.7130000000001","29.78","53.21","669.6","0.0"],
    [1421778,"2026-07-21 15:00:00","156","3.165","93.9","4.998","101.4","1014.9689999999999","29.84","52.53","648.1","0.0"],
    [1421779,"2026-07-21 15:10:00","157","3.5060000000000002","88.2","5.194","85.1","1015.1389999999999","29.71","53.5","621.1","0.0"],
    [1421780,"2026-07-21 15:20:00","158","2.987","92.1","4.9","78.8","1014.997","29.66","54.12","599.6","0.0"],
    [1421781,"2026-07-21 15:30:00","159","2.456","98.9","4.9","85.4","1014.8510000000001","29.52","54.62","551.6","0.0"],
    [1421782,"2026-07-21 15:40:00","160","2.6710000000000003","97.1","4.9","59.03","1014.7439999999999","29.6","53.92","514.4","0.0"],
    [1421783,"2026-07-21 15:50:00","161","1.455","108.7","3.332","76.72","1015.086","29.6","53.96","420.1","0.0"],
    [1421784,"2026-07-21 16:00:00","162","2.384","80.1","4.018","83.5","1014.9989999999999","29.17","55.55","358.7","0.0"],
    [1421785,"2026-07-21 16:10:00","163","2.428","85.9","3.92","73.62","1014.832","29.42","55.83","490.8","0.0"],
    [1421786,"2026-07-21 16:20:00","164","1.87","96.8","3.528","71.63","1015.047","29.28","56.43","422.9","0.0"],
    [1421787,"2026-07-21 16:30:00","165","2.068","91.8","3.822","102.5","1015.0139999999999","29.32","56.26","292.0","0.0"],
    [1421788,"2026-07-21 16:40:00","166","1.521","112.7","3.136","93.7","1014.8969999999999","29.02","56.73","175.4","0.0"],
    [1421789,"2026-07-21 16:50:00","167","2.126","96.7","4.116","90.7","1014.7180000000001","28.87","57.48","234.0","0.0"],
    [1421790,"2026-07-21 17:00:00","168","2.051","89.2","3.822","80.5","1014.664","29.39","56.86","398.1","0.0"],
    [1421791,"2026-07-21 17:10:00","169","1.825","87.4","3.136","86.4","1014.727","29.29","57.39","313.0","0.0"],
    [1421792,"2026-07-21 17:20:00","170","1.181","101.6","2.744","84.8","1014.8430000000001","29.36","57.12","259.5","0.0"],
    [1421793,"2026-07-21 17:30:00","171","0.8170000000000001","147.5","2.646","83.9","1014.953","29.44","54.02","226.1","0.0"],
    [1421794,"2026-07-21 17:40:00","172","1.112","155.3","3.626","184.9","1015.0110000000001","29.51","52.81","196.4","0.0"],
    [1421795,"2026-07-21 17:50:00","173","1.236","168.0","3.92","195.3","1015.137","29.39","55.39","168.4","0.0"],
    [1421796,"2026-07-21 18:00:00","174","1.472","196.2","2.94","165.6","1015.1619999999999","29.18","56.85","140.8","0.0"],
    [1421797,"2026-07-21 18:10:00","175","1.689","196.7","3.92","211.9","1015.2180000000001","28.93","56.99","118.5","0.0"],
    [1421798,"2026-07-21 18:20:00","176","1.349","221.5","3.136","229.9","1015.3589999999999","28.83","57.98","92.5","0.0"],
    [1421799,"2026-07-21 18:30:00","177","1.436","202.1","2.744","231.3","1015.363","28.7","57.72","62.99","0.0"],
    [1421800,"2026-07-21 18:40:00","178","1.6030000000000002","211.1","2.548","229","1015.529","28.61","58.59","44.45","0.0"],
    [1421801,"2026-07-21 18:50:00","179","1.617","202.3","2.842","229.8","1015.573","28.44","61.13","31.31","0.0"],
    [1421802,"2026-07-21 19:00:00","180","2.1919999999999997","207.6","3.626","195.5","1015.725","28.31","61.27","18.22","0.0"],
    [1421803,"2026-07-21 19:10:00","181","2.009","209.9","4.018","218.5","1015.934","28.35","61.94","9.08","0.0"],
    [1421804,"2026-07-21 19:20:00","182","2.045","208.2","4.116","206.1","1016.0160000000001","28.17","62.32","2.432","0.0"],
    [1421805,"2026-07-21 19:30:00","183","2.877","216.7","4.998","215.4","1016.225","28.18","62.19","-0.589","0.0"],
    [1421806,"2026-07-21 19:40:00","184","1.494","233.9","2.548","211.6","1016.049","27.97","63.11","-2.138","0.0"],
    [1421807,"2026-07-21 19:50:00","185","1.263","233.5","3.038","247.7","1016.128","27.84","63.54","-2.573","0.0"],
    [1421808,"2026-07-21 20:00:00","186","1.26","237.0","2.156","253","1016.2360000000001","27.74","62.82","-2.61","0.0"],
    [1421809,"2026-07-21 20:10:00","187","1.0979999999999999","230.0","1.862","215.8","1016.2739999999999","27.83","59.86","-2.6889999999999996","0.0"],
    [1421810,"2026-07-21 20:20:00","188","0.721","283.9","1.764","252.1","1016.212","27.83","59.52","-2.654","0.0"],
    [1421811,"2026-07-21 20:30:00","189","0.888","301.4","1.96","351.1","1016.054","27.65","60.83","-2.6039999999999996","0.0"],
    [1421812,"2026-07-21 20:40:00","190","1.016","340.7","1.862","343.5","1015.956","27.51","59.02","-2.807","0.0"],
    [1421813,"2026-07-21 20:50:00","191","1.329","339.2","2.45","347.5","1016.0419999999999","27.92","54.4","-2.6919999999999997","0.0"],
    [1421814,"2026-07-21 21:00:00","192","1.5190000000000001","357.2","2.842","350.8","1015.9960000000001","28.17","51.04","-2.6719999999999997","0.0"],
    [1421815,"2026-07-21 21:10:00","193","1.07","359.2","1.764","351.9","1015.9810000000001","28.37","50.52","-2.594","0.0"],
    [1421816,"2026-07-21 21:20:00","194","0.9570000000000001","346.0","1.666","341.8","1015.966","28.05","51.34","-2.62","0.0"],
    [1421817,"2026-07-21 21:30:00","195","1.179","356.0","1.764","354.5","1015.905","28.06","50.72","-2.6839999999999997","0.0"],
    [1421818,"2026-07-21 21:40:00","196","1.149","12.02","2.254","23.55","1015.7310000000001","27.57","52.93","-2.6039999999999996","0.0"],
    [1421819,"2026-07-21 21:50:00","197","1.824","23.17","2.646","28.49","1015.595","26.5","56.49","-2.613","0.0"],
    [1421820,"2026-07-21 22:00:00","198","1.808","6.597","3.626","7.412","1015.51","26.94","55.78","-2.668","0.0"],
    [1421821,"2026-07-21 22:10:00","199","1.72","4.003","3.332","25.48","1015.447","27.58","50.79","-2.602","0.0"],
    [1421822,"2026-07-21 22:20:00","200","1.416","356.9","2.646","13.32","1015.47","28.05","48.27","-2.602","0.0"],
    [1421823,"2026-07-21 22:30:00","201","1.022","341.9","1.96","333.2","1015.5110000000001","27.5","50.19","-2.694","0.0"],
    [1421824,"2026-07-21 22:40:00","202","1.0170000000000001","343.0","1.862","354.3","1015.465","27.7","47.74","-2.65","0.0"],
    [1421825,"2026-07-21 22:50:00","203","0.81","291.1","1.568","293.1","1015.3539999999999","27.57","47.94","-2.6","0.0"],
    [1421826,"2026-07-21 23:00:00","204","1.386","292.0","1.96","303.2","1015.345","27.23","49.8","-2.6060000000000003","0.0"],
    [1421827,"2026-07-21 23:10:00","205","1.5130000000000001","285.0","2.058","292.9","1015.427","27.32","50.06","-2.69","0.0"],
    [1421828,"2026-07-21 23:20:00","206","1.444","259.0","2.156","245.6","1015.47","27.15","50.65","-2.6","0.0"],
    [1421829,"2026-07-21 23:30:00","207","1.045","283.2","1.862","306.6","1015.373","27.26","50.39","-2.592","0.0"],
    [1421830,"2026-07-21 23:40:00","208","1.291","280.1","2.058","281","1015.28","26.8","52.08","-2.593","0.0"],
    [1421831,"2026-07-21 23:50:00","209","0.917","263.2","1.372","269.5","1015.2189999999999","26.98","51.38","-2.593","0.0"],
    [1421832,"2026-07-22 00:00:00","210","1.32","281.6","2.058","287.5","1015.372","26.78","52.48","-2.605","0.0"],
    [1421833,"2026-07-22 00:10:00","211","1.09","281.2","2.254","268.6","1015.3910000000001","26.66","52.8","-2.595","0.0"],
    [1421834,"2026-07-22 00:20:00","212","1.2690000000000001","257.3","2.156","272.9","1015.546","26.95","51.42","-2.65","0.0"],
    [1421835,"2026-07-22 00:30:00","213","1.5130000000000001","262.8","2.646","274.5","1015.696","26.99","51.47","-2.593","0.0"],
    [1421836,"2026-07-22 00:40:00","214","0.883","292.3","2.156","276.3","1015.6519999999999","26.67","51.9","-2.597","0.0"],
    [1421837,"2026-07-22 00:50:00","215","0.631","308.1","1.764","319.3","1015.628","26.32","52.45","-2.6210000000000004","0.0"],
    [1421838,"2026-07-22 01:00:00","216","0.9229999999999999","271.8","1.666","268.8","1015.8","26.72","51.03","-2.6069999999999998","0.0"],
    [1421839,"2026-07-22 01:10:00","217","0.35100000000000003","284.4","1.372","266.9","1015.98","27.03","50.07","-2.565","0.0"],
    [1421840,"2026-07-22 01:20:00","218","1.625","52.41","2.254","67.25","1016.185","26.44","52.44","-2.595","0.0"],
    [1421841,"2026-07-22 01:30:00","219","1.8430000000000002","58.8","2.842","56.68","1016.1419999999999","26.27","53.94","-2.595","0.0"],
    [1421842,"2026-07-22 01:40:00","220","1.768","56.11","2.842","49.08","1016.26","26.83","60.54","-2.787","0.0"],
    [1421843,"2026-07-22 01:50:00","221","1.9509999999999998","55.96","2.94","49.9","1016.3960000000001","27.31","64.98","-2.7510000000000003","0.0"],
    [1421844,"2026-07-22 02:00:00","222","3.3939999999999997","60.71","6.272","76.89","1016.446","27.79","60.02","-3.1660000000000004","0.0"],
    [1421845,"2026-07-22 02:10:00","223","4.876","64.6","7.546","67.34","1016.4110000000001","28.28","50.48","-2.943","0.0"],
    [1421846,"2026-07-22 02:20:00","224","5.354","59.92","9.02","68.7","1016.439","28.46","44.23","-2.5610000000000004","0.0"],
    [1421847,"2026-07-22 02:30:00","225","4.81","54.59","7.84","48.64","1016.5260000000001","28.33","45.52","-2.52","0.0"],
    [1421848,"2026-07-22 02:40:00","226","5.314","54.23","8.92","63.85","1016.5010000000001","28.37","44.18","-2.585","0.0"],
    [1421849,"2026-07-22 02:50:00","227","4.948","51.68","9.11","45.35","1016.561","28.32","43.36","-2.525","0.0"],
    [1421850,"2026-07-22 03:00:00","228","4.88","55.1","7.644","71.17","1016.58","28.21","43.04","-2.5810000000000004","0.0"],
    [1421851,"2026-07-22 03:10:00","229","4.414","53.54","7.252","47.09","1016.5210000000001","28.16","42.62","-2.582","0.0"],
    [1421852,"2026-07-22 03:20:00","230","4.45","53.8","7.056","42.25","1016.545","28.06","42.94","-2.591","0.0"],
    [1421853,"2026-07-22 03:30:00","231","5.11","57.72","8.43","65.31","1016.559","28.06","41.14","-2.594","0.0"],
    [1421854,"2026-07-22 03:40:00","232","5.117","53.7","7.84","60.85","1016.678","28.08","42.31","-2.593","0.0"],
    [1421855,"2026-07-22 03:50:00","233","5.008","53.45","8.33","59.01","1016.711","28.11","40.66","-2.592","0.0"],
    [1421856,"2026-07-22 04:00:00","234","4.552","52.58","8.23","37.89","1016.7130000000001","27.89","39.77","-2.568","0.0"],
    [1421857,"2026-07-22 04:10:00","235","4.623","65.21","7.448","43.65","1016.654","27.73","40.88","-2.5789999999999997","0.0"],
    [1421858,"2026-07-22 04:20:00","236","3.765","61.7","6.762","48.64","1016.7310000000001","27.52","45.24","-2.5269999999999997","0.0"],
    [1421859,"2026-07-22 04:30:00","237","3.84","54.35","6.566","54.65","1016.807","27.47","43.27","-1.985","0.0"],
    [1421860,"2026-07-22 04:40:00","238","4.504","54.04","7.448","56.49","1016.693","27.56","42.84","0.622","0.0"],
    [1421861,"2026-07-22 04:50:00","239","4.793","57.82","7.252","51.16","1016.712","27.47","43.05","6.135","0.0"],
    [1421862,"2026-07-22 05:00:00","240","5.066","63.56","7.742","65.79","1016.706","27.34","44.13","15.63","0.0"],
    [1421863,"2026-07-22 05:10:00","241","4.748","62.81","7.938","70.2","1016.7589999999999","27.28","45.86","27.84","0.0"],
    [1421864,"2026-07-22 05:20:00","242","4.782","65.69","6.958","60.9","1016.83","27.23","47.28","43.64","0.0"],
    [1421865,"2026-07-22 05:30:00","243","4.962","62.92","7.252","65.99","1016.711","27.11","49.58","59.88","0.0"],
    [1421866,"2026-07-22 05:40:00","244","4.113","58.16","6.664","57.8","1016.788","27.12","50.08","75.56","0.0"],
    [1421867,"2026-07-22 05:50:00","245","4.452","55.58","6.566","69.52","1016.817","27.18","49.81","96.3","0.0"],
    [1421868,"2026-07-22 06:00:00","246","4.213","56.02","6.468","55.13","1016.6460000000001","27.24","51.18","120.2","0.0"],
    [1421869,"2026-07-22 06:10:00","247","3.92","59.13","6.664","70.83","1016.735","27.28","52.25","144.9","0.0"],
    [1421870,"2026-07-22 06:20:00","248","4.295","60.56","6.468","51.45","1016.82","27.27","53.04","169.6","0.0"],
    [1421871,"2026-07-22 06:30:00","249","4.327","62.51","6.37","68.99","1016.7660000000001","27.27","52.91","196.8","0.0"],
    [1421872,"2026-07-22 06:40:00","250","4.132","60.93","6.37","59.01","1017.008","27.35","52.97","225.6","0.0"],
    [1421873,"2026-07-22 06:50:00","251","3.972","63.34","6.076","64.97","1017.067","27.51","52.95","258.9","0.0"],
    [1421874,"2026-07-22 07:00:00","252","3.472","62.62","5.684","84.8","1017.2560000000001","27.58","53.19","285.0","0.0"],
    [1421875,"2026-07-22 07:10:00","253","3.491","64.75","5.39","76.66","1017.26","27.72","53.01","319.5","0.0"],
    [1421876,"2026-07-22 07:20:00","254","3.261","63.67","5.292","63.24","1017.298","27.76","52.73","347.2","0.0"],
    [1421877,"2026-07-22 07:30:00","255","3.69","64.21","5.194","69.73","1017.326","27.73","53.25","378.6","0.0"],
    [1421878,"2026-07-22 07:40:00","256","3.905","67.7","5.39","102.5","1017.433","27.89","53.54","407.7","0.0"],
    [1421879,"2026-07-22 07:50:00","257","3.448","69.24","5.782","71.43","1017.552","28.05","53.11","434.8","0.0"],
    [1421880,"2026-07-22 08:00:00","258","3.513","69.38","5.684","81","1017.5319999999999","28.22","52.26","462.4","0.0"],
    [1421881,"2026-07-22 08:10:00","259","3.79","70.55","5.194","75.46","1017.445","28.31","49.46","490.7","0.0"],
    [1421882,"2026-07-22 08:20:00","260","4.506","72.67","6.566","78.66","1017.4","28.52","49.24","518.2","0.0"],
    [1421883,"2026-07-22 08:30:00","261","4.791","66.38","6.37","70.47","1017.436","28.59","47.28","529.9","0.0"],
    [1421884,"2026-07-22 08:40:00","262","5.053999999999999","65.97","7.35","72.21","1017.502","28.86","43.44","581.0","0.0"],
    [1421885,"2026-07-22 08:50:00","263","4.897","67.63","7.056","73.23","1017.538","28.88","43.08","593.6","0.0"],
    [1421886,"2026-07-22 09:00:00","264","4.706","74.27","6.762","80.9","1017.584","28.78","42.01","639.7","0.0"],
    [1421887,"2026-07-22 09:10:00","265","4.504","78.76","6.468","84.2","1017.638","28.99","43.92","665.9","0.0"],
    [1421888,"2026-07-22 09:20:00","266","4.707","75.47","6.37","86.2","1017.74","29.04","42.51","694.1","0.0"],
    [1421889,"2026-07-22 09:30:00","267","4.879","79.37","7.448","57.04","1017.54","29.13","43.58","713.8","0.0"],
    [1421890,"2026-07-22 09:40:00","268","4.702","79.3","6.86","83.9","1017.5830000000001","29.08","45.37","741.1","0.0"],
    [1421891,"2026-07-22 09:50:00","269","5.144","86.3","7.448","81.9","1017.451","28.7","47.11","765.9","0.0"],
    [1421892,"2026-07-22 10:00:00","270","4.938","85.5","7.154","77.35","1017.485","28.69","46.81","784.9","0.0"],
    [1421893,"2026-07-22 10:10:00","271","4.982","77.67","7.252","83.4","1017.61","28.84","47.46","807.0","0.0"],
    [1421894,"2026-07-22 10:20:00","272","4.717","82.0","6.958","83.7","1017.701","28.89","48.88","813.0","0.0"],
    [1421895,"2026-07-22 10:30:00","273","4.627","78.27","6.86","77.35","1017.699","28.97","49.0","840.0","0.0"],
    [1421896,"2026-07-22 10:40:00","274","4.69","77.58","6.664","87","1017.709","28.94","49.9","856.0","0.0"],
    [1421897,"2026-07-22 10:50:00","275","4.235","86.8","6.86","87","1017.8580000000001","29.15","50.04","862.0","0.0"],
    [1421898,"2026-07-22 11:00:00","276","4.894","85.0","7.252","84.6","1017.794","28.99","51.91","871.0","0.0"],
    [1421899,"2026-07-22 11:10:00","277","4.6419999999999995","85.9","7.35","64.89","1017.8860000000001","29.03","51.26","883.0","0.0"],
    [1421900,"2026-07-22 11:20:00","278","4.774","85.6","6.762","99.5","1017.888","29.09","51.01","886.0","0.0"],
    [1421901,"2026-07-22 11:30:00","279","4.343","89.9","6.762","83","1017.8430000000001","29.16","50.43","884.0","0.0"],
    [1421902,"2026-07-22 11:40:00","280","5.109","80.4","7.448","93.4","1017.76","29.14","48.6","881.0","0.0"],
    [1421903,"2026-07-22 11:50:00","281","4.85","86.2","6.958","101.8","1017.738","29.11","49.29","886.0","0.0"],
    [1421904,"2026-07-22 12:00:00","282","4.84","81.9","6.566","47.74","1017.617","29.17","49.23","877.0","0.0"],
    [1421905,"2026-07-22 12:10:00","283","4.887","86.1","7.154","94.3","1017.6469999999999","28.97","50.53","893.0","0.0"],
    [1421906,"2026-07-22 12:20:00","284","4.198","92.8","6.762","92.2","1017.6039999999999","29.23","49.02","884.0","0.0"],
    [1421907,"2026-07-22 12:30:00","285","4.665","91.8","6.468","72.7","1017.54","29.29","48.54","875.0","0.0"],
    [1421908,"2026-07-22 12:40:00","286","4.638","93.6","7.056","89.1","1017.3860000000001","29.21","50.16","871.0","0.0"],
    [1421909,"2026-07-22 12:50:00","287","4.551","90.6","6.958","93.5","1017.307","29.12","51.79","772.8","0.0"],
    [1421910,"2026-07-22 13:00:00","288","5.053999999999999","93.1","7.644","96","1016.956","28.84","52.89","848.0","0.0"],
    [1421911,"2026-07-22 13:10:00","289","3.4130000000000003","101.0","5.782","95.6","1017.3439999999999","29.0","52.46","864.0","0.0"],
    [1421912,"2026-07-22 13:20:00","290","2.815","107.1","5.194","101.4","1017.405","29.1","52.9","837.0","0.0"],
    [1421913,"2026-07-22 13:30:00","291","3.647","99.4","5.586","82.1","1017.3489999999999","28.93","52.31","820.0","0.0"],
    [1421914,"2026-07-22 13:40:00","292","4.086","96.1","5.88","101.5","1017.306","28.84","52.2","812.0","0.0"],
    [1421915,"2026-07-22 13:50:00","293","3.887","94.5","6.076","88.2","1017.24","28.89","51.12","792.6","0.0"],
    [1421916,"2026-07-22 14:00:00","294","2.472","97.2","5.194","92.8","1017.029","29.53","50.42","795.7","0.0"],
    [1421917,"2026-07-22 14:10:00","295","2.447","96.7","4.606","78.9","1017.0980000000001","29.38","50.81","510.4","0.0"],
    [1421918,"2026-07-22 14:20:00","296","1.749","104.5","3.92","79.82","1017.005","29.56","51.66","653.3","0.0"],
    [1421919,"2026-07-22 14:30:00","297","1.953","103.0","4.508","86.8","1017.04","29.67","47.66","741.3","0.0"],
    [1421920,"2026-07-22 14:40:00","298","2.884","104.6","4.998","99.3","1016.691","29.21","50.04","730.3","0.0"],
    [1421921,"2026-07-22 14:50:00","299","2.39","101.1","4.606","91","1016.6439999999999","29.29","50.08","566.1","0.0"],
    [1421922,"2026-07-22 15:00:00","300","2.7569999999999997","101.6","5.586","95.4","1016.6289999999999","28.56","52.29","236.8","0.0"],
    [1421923,"2026-07-22 15:10:00","301","3.3310000000000004","91.0","5.39","84.8","1015.8330000000001","28.54","54.02","182.8","0.0"],
    [1421924,"2026-07-22 15:20:00","302","2.416","95.2","4.312","103.1","1015.929","28.42","55.91","294.5","0.0"],
    [1421925,"2026-07-22 15:30:00","303","1.875","97.3","4.214","90.8","1016.2130000000001","28.47","55.9","351.4","0.0"],
    [1421926,"2026-07-22 15:40:00","304","1.705","105.7","4.312","103.4","1016.0189999999999","28.79","55.0","534.3","0.0"],
    [1421927,"2026-07-22 15:50:00","305","2.019","104.3","5.978","91.5","1016.182","28.92","54.04","554.3","0.0"],
    [1421928,"2026-07-22 16:00:00","306","1.665","105.6","3.724","108.2","1016.342","28.97","51.21","467.5","0.0"],
    [1421929,"2026-07-22 16:10:00","307","1.186","135.2","3.626","85.7","1016.363","29.11","51.6","316.8","0.0"],
    [1421930,"2026-07-22 16:20:00","308","1.952","189.6","4.41","230.6","1016.505","29.04","49.68","367.6","0.0"],
    [1421931,"2026-07-22 16:30:00","309","2.452","184.6","6.174","196.7","1016.436","28.97","54.28","406.2","0.0"],
    [1421932,"2026-07-22 16:40:00","310","2.178","175.8","3.724","181.1","1016.1339999999999","28.69","55.97","380.0","0.0"],
    [1421933,"2026-07-22 16:50:00","311","1.476","146.2","4.018","139.4","1015.806","28.67","51.11","199.4","0.0"],
    [1421934,"2026-07-22 17:00:00","312","2.5669999999999997","94.8","6.762","89.6","1015.332","28.64","53.7","272.4","0.0"],
    [1421935,"2026-07-22 17:10:00","313","2.173","101.0","4.508","205.9","1015.42","28.31","57.78","200.2","0.0"],
    [1421936,"2026-07-22 17:20:00","314","2.714","87.4","4.704","67.66","1015.3689999999999","28.11","58.5","237.5","0.0"],
    [1421937,"2026-07-22 17:30:00","315","2.9610000000000003","88.7","5.096","75.46","1015.437","27.96","59.06","214.7","0.0"],
    [1421938,"2026-07-22 17:40:00","316","3.2119999999999997","87.0","6.37","77.78","1015.2460000000001","27.96","59.09","187.0","0.0"],
    [1421939,"2026-07-22 17:50:00","317","3.1639999999999997","80.4","5.096","64.84","1015.19","27.96","59.64","127.4","0.0"],
    [1421940,"2026-07-22 18:00:00","318","3.199","71.38","4.606","71.05","1015.169","27.8","60.03","121.7","0.0"],
    [1421941,"2026-07-22 18:10:00","319","3.3160000000000003","79.23","5.88","63.43","1015.2389999999999","27.84","59.55","132.4","0.0"],
    [1421942,"2026-07-22 18:20:00","320","3.516","69.0","5.39","86.3","1015.179","27.77","62.87","109.7","0.0"],
    [1421943,"2026-07-22 18:30:00","321","3.069","79.51","5.684","101.9","1015.3939999999999","27.44","64.77","87.6","0.0"],
    [1421944,"2026-07-22 18:40:00","322","2.772","72.12","5.292","79.91","1015.395","27.4","65.54","62.84","0.0"],
    [1421945,"2026-07-22 18:50:00","323","3.083","74.65","4.802","76.27","1015.352","27.24","65.02","45.48","0.0"],
    [1421946,"2026-07-22 19:00:00","324","2.64","76.01","6.174","99.7","1015.423","27.16","63.05","29.28","0.0"],
    [1421947,"2026-07-22 19:10:00","325","2.081","76.16","3.332","109.9","1015.654","27.19","63.94","13.51","0.0"],
    [1421948,"2026-07-22 19:20:00","326","1.895","77.54","2.646","68.55","1015.5989999999999","27.1","63.61","6.172999999999999","0.0"],
    [1421949,"2026-07-22 19:30:00","327","1.855","76.61","2.94","64.58","1015.763","27.06","63.79","-0.158","0.0"],
    [1421950,"2026-07-22 19:40:00","328","2.001","70.69","2.94","57.46","1015.7460000000001","26.98","65.18","-2.3480000000000003","0.0"],
    [1421951,"2026-07-22 19:50:00","329","2.092","62.62","3.332","64.82","1015.676","26.8","66.19","-2.593","0.0"],
    [1421952,"2026-07-22 20:00:00","330","2.2840000000000003","60.79","3.528","78.44","1015.683","26.77","66.23","-2.593","0.0"],
    [1421953,"2026-07-22 20:10:00","331","2.8369999999999997","55.42","4.214","52.9","1015.561","26.71","66.58","-2.593","0.0"],
    [1421954,"2026-07-22 20:20:00","332","2.4730000000000003","66.96","4.41","53","1015.648","26.7","66.65","-2.593","0.0"],
    [1421955,"2026-07-22 20:30:00","333","2.589","54.83","4.41","57.56","1015.732","26.66","66.68","-2.593","0.0"],
    [1421956,"2026-07-22 20:40:00","334","2.4930000000000003","54.14","4.018","43.02","1015.707","26.61","66.57","-2.589","0.0"],
    [1421957,"2026-07-22 20:50:00","335","1.5490000000000002","71.56","2.646","67","1016.057","26.59","66.35","-2.594","0.0"],
    [1421958,"2026-07-22 21:00:00","336","2.084","67.98","3.136","60.56","1016.041","26.49","66.68","-2.594","0.0"],
    [1421959,"2026-07-22 21:10:00","337","1.715","56.37","2.548","54.75","1016.2280000000001","26.36","67.78","-2.593","0.0"],
    [1421960,"2026-07-22 21:20:00","338","1.278","77.65","2.646","79.55","1016.328","26.23","68.47","-2.605","0.0"],
    [1421961,"2026-07-22 21:30:00","339","1.8559999999999999","78.87","2.548","76.45","1016.278","26.21","68.85","-2.593","0.0"],
    [1421962,"2026-07-22 21:40:00","340","1.851","70.01","2.548","55.42","1016.311","25.97","70.29","-2.593","0.0"],
    [1421963,"2026-07-22 21:50:00","341","1.685","72.51","2.646","71.99","1016.188","25.42","72.2","-2.594","0.0"],
    [1421964,"2026-07-22 22:00:00","342","1.024","73.36","1.764","47.58","1016.323","25.31","71.38","-2.592","0.0"],
    [1421965,"2026-07-22 22:10:00","343","0.579","88.2","1.372","89.9","1016.403","25.35","70.69","-2.609","0.0"],
    [1421966,"2026-07-22 22:20:00","344","0.17800000000000002","90.5","0.882","91.2","1016.512","25.53","69.06","-2.594","0.0"],
    [1421967,"2026-07-22 22:30:00","345","0.326","83.9","1.078","78.68","1016.6110000000001","25.67","69.77","-2.594","0.0"],
    [1421968,"2026-07-22 22:40:00","346","0.226","104.8","0.98","110.9","1016.554","25.65","70.4","-2.593","0.0"],
    [1421969,"2026-07-22 22:50:00","347","0.789","53.78","1.372","45.93","1016.352","25.49","70.66","-2.593","0.0"],
    [1421970,"2026-07-22 23:00:00","348","0.779","57.41","1.372","45.25","1016.2260000000001","25.37","71.87","-2.594","0.0"],
    [1421971,"2026-07-22 23:10:00","349","0.9359999999999999","54.84","1.47","43.41","1015.966","25.54","71.67","-2.593","0.0"],
    [1421972,"2026-07-22 23:20:00","350","0.215","98.1","1.078","101","1015.799","25.48","72.22","-2.593","0.0"],
    [1421973,"2026-07-22 23:30:00","351","0.33799999999999997","94.3","1.274","98","1015.654","25.36","72.3","-2.595","0.0"],
    [1421974,"2026-07-22 23:40:00","352","0.782","78.58","1.372","68.41","1015.529","25.46","71.5","-2.593","0.0"],
    [1421975,"2026-07-22 23:50:00","353","0.946","80.8","1.568","78.78","1015.443","25.41","71.51","-2.593","0.0"],
    [1421976,"2026-07-23 00:00:00","354","0.747","72.3","1.47","64.73","1015.3919999999999","25.64","70.36","-2.593","0.0"],
    [1421977,"2026-07-23 00:10:00","355","1.097","57.5","1.372","59.88","1015.255","25.38","71.33","-2.593","0.0"],
    [1421978,"2026-07-23 00:20:00","356","1.171","63.72","1.764","55.13","1015.1210000000001","25.31","71.41","-2.593","0.0"],
    [1421979,"2026-07-23 00:30:00","357","1.051","63.05","1.568","55.33","1015.005","25.34","72.29","-2.593","0.0"],
    [1421980,"2026-07-23 00:40:00","358","0.631","48.94","1.666","282.6","1014.898","25.21","73.05","-2.592","0.0"],
    [1421981,"2026-07-23 00:50:00","359","1.392","277.6","2.058","281.6","1014.8430000000001","25.01","69.87","-2.511","0.0"],
    [1421982,"2026-07-23 01:00:00","360","0.988","278.1","2.352","260.8","1014.7280000000001","24.98","68.39","-2.38","0.0"],
    [1421983,"2026-07-23 01:10:00","361","1.355","271.0","2.156","273.2","1014.675","24.8","68.26","-2.472","0.0"],
    [1421984,"2026-07-23 01:20:00","362","1.074","267.6","2.058","266.1","1014.602","24.91","67.2","-2.2359999999999998","0.0"],
    [1421985,"2026-07-23 01:30:00","363","0.657","272.5","1.666","253.6","1014.543","24.76","67.07","-2.4859999999999998","0.0"],
    [1421986,"2026-07-23 01:40:00","364","1.0070000000000001","272.3","1.764","269","1014.547","24.62","67.3","-2.5180000000000002","0.0"],
    [1421987,"2026-07-23 01:50:00","365","1.278","269.6","1.862","267.7","1014.5","24.59","66.44","-2.464","0.0"],
    [1421988,"2026-07-23 02:00:00","366","1.3019999999999998","274.4","2.352","285.6","1014.418","24.63","65.67","-2.045","0.0"],
    [1421989,"2026-07-23 02:10:00","367","1.383","269.9","2.352","266.3","1014.362","24.51","65.94","-2.349","0.0"],
    [1421990,"2026-07-23 02:20:00","368","1.4809999999999999","278.4","2.45","285.9","1014.2860000000001","24.47","65.88","-2.325","0.0"],
    [1421991,"2026-07-23 02:30:00","369","1.396","279.0","2.254","288","1014.248","24.48","65.64","-2.176","0.0"],
    [1421992,"2026-07-23 02:40:00","370","1.138","279.5","2.058","260.3","1014.2389999999999","24.4","65.91","-2.355","0.0"],
    [1421993,"2026-07-23 02:50:00","371","0.851","283.9","1.47","287.8","1014.2139999999999","24.48","65.44","-2.295","0.0"],
    [1421994,"2026-07-23 03:00:00","372","0.845","286.7","1.568","275.4","1014.153","24.51","65.52","-2.391","0.0"],
    [1421995,"2026-07-23 03:10:00","373","0.767","290.8","1.47","303.4","1014.064","24.51","65.9","-2.519","0.0"],
    [1421996,"2026-07-23 03:20:00","374","0.718","285.4","1.666","288.5","1014.0239999999999","24.61","65.83","-2.4219999999999997","0.0"],
    [1421997,"2026-07-23 03:30:00","375","0.8370000000000001","286.1","1.47","314.2","1013.925","24.85","64.97","-2.228","0.0"],
    [1421998,"2026-07-23 03:40:00","376","0.705","264.1","1.274","260.4","1013.814","24.83","64.57","-2.511","0.0"],
    [1421999,"2026-07-23 03:50:00","377","1.0490000000000002","271.8","1.96","272.2","1013.801","24.81","64.26","-2.523","0.0"],
    [1422000,"2026-07-23 04:00:00","378","0.8109999999999999","267.0","1.764","262.4","1013.7769999999999","24.69","63.85","-2.498","0.0"],
    [1422001,"2026-07-23 04:10:00","379","0.9279999999999999","273.0","1.568","284.3","1013.783","24.55","63.8","-2.591","0.0"],
    [1422002,"2026-07-23 04:20:00","380","0.6679999999999999","272.5","1.47","278.6","1013.7330000000001","24.45","63.43","-2.374","0.0"],
    [1422003,"2026-07-23 04:30:00","381","0.9159999999999999","283.3","1.862","296.3","1013.689","24.36","62.6","-1.577","0.0"],
    [1422004,"2026-07-23 04:40:00","382","1.444","279.4","2.842","285.2","1013.694","24.37","61.64","0.28800000000000003","0.0"],
    [1422005,"2026-07-23 04:50:00","383","1.6269999999999998","286.5","2.94","297.5","1013.76","24.32","60.76","4.381","0.0"],
    [1422006,"2026-07-23 05:00:00","384","1.672","286.6","2.744","290.5","1013.7719999999999","24.12","61.39","12.21","0.0"],
    [1422007,"2026-07-23 05:10:00","385","1.626","281.9","2.744","277.1","1013.826","24.1","61.39","23.37","0.0"],
    [1422008,"2026-07-23 05:20:00","386","1.153","287.1","1.862","289.5","1013.832","24.01","61.96","36.79","0.0"],
    [1422009,"2026-07-23 05:30:00","387","1.16","290.2","2.058","305.3","1013.825","24.28","61.09","51.55","0.0"],
    [1422010,"2026-07-23 05:40:00","388","1.0759999999999998","284.1","1.764","276.8","1013.822","24.58","59.71","68.35","0.0"],
    [1422011,"2026-07-23 05:50:00","389","0.855","275.9","1.862","275.3","1013.9119999999999","24.78","59.29","87.3","0.0"],
    [1422012,"2026-07-23 06:00:00","390","1.023","275.9","1.96","270.7","1013.9910000000001","25.08","58.38","108.6","0.0"],
    [1422013,"2026-07-23 06:10:00","391","0.637","267.6","1.47","258.8","1014.012","25.38","57.24","131.8","0.0"],
    [1422014,"2026-07-23 06:20:00","392","1.102","264.5","2.058","281.8","1014.067","25.45","56.77","156.1","0.0"],
    [1422015,"2026-07-23 06:30:00","393","1.429","263.2","2.352","274.9","1014.202","25.6","55.45","182.8","0.0"],
    [1422016,"2026-07-23 06:40:00","394","1.105","241.0","2.058","264.9","1014.14","25.94","54.23","210.5","0.0"],
    [1422017,"2026-07-23 06:50:00","395","1.065","256.3","1.96","181.3","1014.179","26.42","52.49","240.6","0.0"],
    [1422018,"2026-07-23 07:00:00","396","0.547","288.4","1.764","275.9","1014.237","26.78","51.32","271.0","0.0"],
    [1422019,"2026-07-23 07:10:00","397","0.449","222.8","1.176","192.9","1014.263","27.5","50.12","302.1","0.0"],
    [1422020,"2026-07-23 07:20:00","398","0.36700000000000005","194.2","1.372","200.7","1014.331","27.86","52.05","331.6","0.0"],
    [1422021,"2026-07-23 07:30:00","399","0.609","170.0","2.842","84.3","1014.347","28.3","52.34","362.1","0.0"],
    [1422022,"2026-07-23 07:40:00","400","1.274","97.8","4.214","133.7","1014.425","28.33","55.22","396.0","0.0"],
    [1422023,"2026-07-23 07:50:00","401","1.4140000000000001","88.1","2.548","86.8","1014.428","28.54","54.84","427.7","0.0"],
    [1422024,"2026-07-23 08:00:00","402","1.618","86.2","3.136","99.4","1014.42","28.56","56.53","457.0","0.0"],
    [1422025,"2026-07-23 08:10:00","403","1.689","94.1","3.136","91.7","1014.493","28.47","55.79","489.7","0.0"],
    [1422026,"2026-07-23 08:20:00","404","1.31","104.6","2.842","135.5","1014.569","28.81","51.62","526.7","0.0"],
    [1422027,"2026-07-23 08:30:00","405","1.778","98.5","3.332","95.9","1014.568","29.07","49.65","537.0","0.0"],
    [1422028,"2026-07-23 08:40:00","406","1.913","98.6","3.822","128","1014.62","29.17","49.51","593.6","0.0"],
    [1422029,"2026-07-23 08:50:00","407","2.265","96.7","3.822","104.6","1014.6669999999999","29.01","50.83","601.4","0.0"],
    [1422030,"2026-07-23 09:00:00","408","2.334","93.4","4.214","90.9","1014.66","28.91","53.66","651.4","0.0"],
    [1422031,"2026-07-23 09:10:00","409","2.909","89.2","4.9","81.9","1014.706","28.8","55.12","684.2","0.0"],
    [1422032,"2026-07-23 09:20:00","410","2.9139999999999997","93.2","6.664","170.2","1014.716","28.77","57.21","713.8","0.0"],
    [1422033,"2026-07-23 09:30:00","411","3.1689999999999996","90.3","5.292","83.8","1014.742","28.83","57.73","741.5","0.0"],
    [1422034,"2026-07-23 09:40:00","412","2.6639999999999997","101.2","4.312","108","1014.722","29.09","58.66","766.5","0.0"],
    [1422035,"2026-07-23 09:50:00","413","2.841","95.4","5.978","93.3","1014.7539999999999","28.82","60.64","789.7","0.0"],
    [1422036,"2026-07-23 10:00:00","414","3.18","88.0","6.468","105.2","1014.77","29.05","60.05","811.0","0.0"],
    [1422037,"2026-07-23 10:10:00","415","3.435","89.0","5.978","82.2","1014.7639999999999","29.07","63.68","832.0","0.0"],
    [1422038,"2026-07-23 10:20:00","416","3.0980000000000003","94.4","5.096","114.7","1014.825","29.04","64.31","851.0","0.0"],
    [1422039,"2026-07-23 10:30:00","417","3.3739999999999997","88.1","5.39","99.4","1014.8439999999999","28.81","63.45","867.0","0.0"],
    [1422040,"2026-07-23 10:40:00","418","3.8680000000000003","81.5","6.272","67.41","1014.862","28.96","57.84","881.0","0.0"],
    [1422041,"2026-07-23 10:50:00","419","3.594","83.7","6.664","83.2","1014.817","29.15","56.06","893.0","0.0"],
    [1422042,"2026-07-23 11:00:00","420","3.9619999999999997","82.7","6.762","81.6","1014.748","29.11","54.13","905.0","0.0"],
    [1422043,"2026-07-23 11:10:00","421","2.9810000000000003","95.1","7.154","83.8","1014.738","29.17","52.73","913.0","0.0"],
    [1422044,"2026-07-23 11:20:00","422","3.1439999999999997","95.8","5.488","75.85","1014.699","29.1","51.88","915.0","0.0"],
    [1422045,"2026-07-23 11:30:00","423","2.7880000000000003","101.5","4.9","97.9","1014.691","29.34","50.25","914.0","0.0"],
    [1422046,"2026-07-23 11:40:00","424","3.279","92.1","5.096","95.5","1014.68","29.6","49.07","915.0","0.0"],
    [1422047,"2026-07-23 11:50:00","425","3.745","92.2","5.586","95.6","1014.602","29.23","49.97","914.0","0.0"],
    [1422048,"2026-07-23 12:00:00","426","3.466","95.5","5.488","78.71","1014.51","29.29","49.38","909.0","0.0"],
    [1422049,"2026-07-23 12:10:00","427","3.154","93.3","4.998","79.87","1014.36","29.01","50.14","904.0","0.0"],
    [1422050,"2026-07-23 12:20:00","428","3.58","89.5","5.586","85.2","1014.2860000000001","29.19","50.83","898.0","0.0"],
    [1422051,"2026-07-23 12:30:00","429","3.262","93.6","4.9","94","1014.2639999999999","29.01","52.39","892.0","0.0"],
    [1422052,"2026-07-23 12:40:00","430","2.26","108.9","4.802","111.2","1014.175","29.33","51.84","887.0","0.0"],
    [1422053,"2026-07-23 12:50:00","431","3.094","88.6","5.684","88.7","1014.0319999999999","29.47","52.29","877.0","0.0"],
    [1422054,"2026-07-23 13:00:00","432","3.25","91.0","5.39","76.57","1014.0010000000001","29.02","53.72","867.0","0.0"],
    [1422055,"2026-07-23 13:10:00","433","2.6010000000000004","92.5","5.194","81.4","1013.914","29.02","53.22","861.0","0.0"],
    [1422056,"2026-07-23 13:20:00","434","2.622","98.7","4.214","104.5","1013.8710000000001","29.37","51.88","852.0","0.0"],
    [1422057,"2026-07-23 13:30:00","435","2.302","99.0","4.508","108.6","1013.798","29.15","52.74","844.0","0.0"],
    [1422058,"2026-07-23 13:40:00","436","2.752","85.6","5.684","93.4","1013.694","29.1","53.83","832.0","0.0"],
    [1422059,"2026-07-23 13:50:00","437","2.888","83.5","4.998","90.4","1013.618","29.3","53.84","814.0","0.0"],
    [1422060,"2026-07-23 14:00:00","438","2.82","84.2","4.508","83.9","1013.503","29.3","55.1","799.3","0.0"],
    [1422061,"2026-07-23 14:10:00","439","3.1519999999999997","85.2","4.802","90.8","1013.368","29.25","54.99","784.1","0.0"],
    [1422062,"2026-07-23 14:20:00","440","2.966","89.0","5.488","86.9","1013.26","28.95","55.59","764.9","0.0"],
    [1422063,"2026-07-23 14:30:00","441","2.7439999999999998","90.4","4.606","97.7","1013.153","29.12","55.92","745.2","0.0"],
    [1422064,"2026-07-23 14:40:00","442","2.3280000000000003","98.7","4.704","75.31","1013.077","29.14","57.92","734.2","0.0"],
    [1422065,"2026-07-23 14:50:00","443","3.103","83.6","4.9","86.8","1012.8839999999999","29.02","59.05","713.9","0.0"],
    [1422066,"2026-07-23 15:00:00","444","2.832","84.8","4.802","95.2","1012.8660000000001","29.06","59.14","688.0","0.0"],
    [1422067,"2026-07-23 15:10:00","445","3.13","88.0","4.802","86.9","1012.716","28.92","59.59","659.4","0.0"],
    [1422068,"2026-07-23 15:20:00","446","3.2680000000000002","76.53","5.096","90.1","1012.6260000000001","28.78","60.3","636.0","0.0"],
    [1422069,"2026-07-23 15:30:00","447","3.1010000000000004","80.9","4.802","92.8","1012.5830000000001","28.78","60.63","609.5","0.0"],
    [1422070,"2026-07-23 15:40:00","448","2.748","94.7","4.998","86.1","1012.512","28.76","61.48","558.4","0.0"],
    [1422071,"2026-07-23 15:50:00","449","1.964","99.3","4.41","74.25","1012.4739999999999","28.99","60.94","549.7","0.0"],
    [1422072,"2026-07-23 16:00:00","450","1.724","110.6","3.43","99.7","1012.46","29.16","60.91","497.6","0.0"],
    [1422073,"2026-07-23 16:10:00","451","1.6569999999999998","103.6","3.626","83.5","1012.322","28.93","62.75","503.2","0.0"],
    [1422074,"2026-07-23 16:20:00","452","1.915","94.8","3.43","95.2","1012.2810000000001","29.13","62.26","474.7","0.0"],
    [1422075,"2026-07-23 16:30:00","453","1.984","98.9","3.332","109.9","1012.327","28.56","64.58","446.3","0.0"],
    [1422076,"2026-07-23 16:40:00","454","3.272","70.83","4.704","77.59","1012.375","28.75","63.98","413.7","0.0"],
    [1422077,"2026-07-23 16:50:00","455","3.64","73.36","4.9","69.93","1012.452","28.58","64.38","383.6","0.0"],
    [1422078,"2026-07-23 17:00:00","456","3.569","66.84","5.194","74","1012.498","28.65","64.63","348.9","0.0"],
    [1422079,"2026-07-23 17:10:00","457","3.838","67.78","5.39","72.89","1012.49","28.66","64.89","315.1","0.0"],
    [1422080,"2026-07-23 17:20:00","458","4.141","72.79","5.684","71.92","1012.5160000000001","28.2","66.22","282.2","0.0"],
    [1422081,"2026-07-23 17:30:00","459","4.055","71.89","5.978","83","1012.457","28.05","66.84","252.2","0.0"],
    [1422082,"2026-07-23 17:40:00","460","3.347","75.39","4.998","83.9","1012.36","27.95","67.31","219.6","0.0"],
    [1422083,"2026-07-23 17:50:00","461","2.8489999999999998","76.72","4.018","60.39","1012.461","27.78","68.26","188.4","0.0"],
    [1422084,"2026-07-23 18:00:00","462","2.847","77.66","4.116","94.8","1012.454","27.73","69.26","158.2","0.0"],
    [1422085,"2026-07-23 18:10:00","463","2.194","85.6","3.332","93.2","1012.4810000000001","27.64","69.7","127.3","0.0"],
    [1422086,"2026-07-23 18:20:00","464","2.29","85.9","3.332","84.5","1012.352","27.56","70.26","100.3","0.0"],
    [1422087,"2026-07-23 18:30:00","465","1.8530000000000002","70.5","3.136","87.8","1012.293","27.34","70.97","74.78","0.0"],
    [1422088,"2026-07-23 18:40:00","466","1.133","70.42","2.058","52.14","1012.283","27.18","71.75","53.94","0.0"],
    [1422089,"2026-07-23 18:50:00","467","1.065","60.0","1.47","63.09","1012.3589999999999","27.11","71.48","36.44","0.0"],
    [1422090,"2026-07-23 19:00:00","468","0.8190000000000001","79.36","1.47","73.95","1012.3","27.1","70.96","21.55","0.0"],
    [1422091,"2026-07-23 19:10:00","469","1.3130000000000002","91.3","2.058","77","1012.3839999999999","27.15","70.67","10.48","0.0"],
    [1422092,"2026-07-23 19:20:00","470","1.617","77.91","2.254","74.04","1012.445","27.08","72.13","3.392","0.0"],
    [1422093,"2026-07-23 19:30:00","471","1.229","70.48","2.352","84.2","1012.4739999999999","26.9","72.83","-0.915","0.0"],
    [1422094,"2026-07-23 19:40:00","472","0.659","88.1","1.176","63.56","1012.6569999999999","26.74","73.76","-2.779","0.0"],
    [1422095,"2026-07-23 19:50:00","473","0.794","81.8","1.372","66.86","1012.797","26.67","74.09","-3.28","0.0"],
    [1422096,"2026-07-23 20:00:00","474","0.8240000000000001","167.7","1.862","187.7","1012.9760000000001","26.74","73.7","-3.153","0.0"],
    [1422097,"2026-07-23 20:10:00","475","1.02","173.2","1.764","156.6","1013.1469999999999","26.85","73.52","-2.741","0.0"],
    [1422098,"2026-07-23 20:20:00","476","1.073","169.3","1.862","179.3","1013.342","26.81","74.11","-2.8139999999999996","0.0"],
    [1422099,"2026-07-23 20:30:00","477","0.9279999999999999","185.4","1.764","196.8","1013.622","26.82","74.49","-2.625","0.0"],
    [1422100,"2026-07-23 20:40:00","478","1.159","181.1","1.862","178.2","1013.8710000000001","26.79","75.17","-2.7539999999999996","0.0"],
    [1422101,"2026-07-23 20:50:00","479","1.391","185.0","2.352","175.6","1013.873","26.78","76.01","-2.67","0.0"],
    [1422102,"2026-07-23 21:00:00","480","1.315","183.8","2.352","177.5","1013.949","26.74","76.56","-2.714","0.0"],
    [1422103,"2026-07-23 21:10:00","481","1.24","179.9","1.96","195.2","1013.962","26.79","76.89","-2.61","0.0"],
    [1422104,"2026-07-23 21:20:00","482","1.171","185.4","1.96","190.7","1014.053","26.76","77.45","-2.6189999999999998","0.0"],
    [1422105,"2026-07-23 21:30:00","483","1.25","187.9","2.352","203","1014.047","26.74","78.09","-2.608","0.0"],
    [1422106,"2026-07-23 21:40:00","484","1.371","202.9","2.646","216.7","1013.9989999999999","26.48","80.8","-2.6439999999999997","0.0"],
    [1422107,"2026-07-23 21:50:00","485","1.31","220.6","2.744","222.9","1013.8739999999999","25.98","84.0","-2.821","0.0"],
    [1422108,"2026-07-23 22:00:00","486","1.3559999999999999","212.3","2.45","207.8","1013.924","25.78","86.0","-3.3789999999999996","0.0"],
    [1422109,"2026-07-23 22:10:00","487","1.047","237.3","2.45","213.4","1013.89","25.74","86.4","-2.951","0.0"],
    [1422110,"2026-07-23 22:20:00","488","1.455","233.9","2.45","234.1","1013.828","26.04","85.4","-2.772","0.0"],
    [1422111,"2026-07-23 22:30:00","489","1.472","230.3","2.744","218.5","1013.7669999999999","26.43","84.5","-2.592","0.0"],
    [1422112,"2026-07-23 22:40:00","490","1.022","236.9","1.666","221.2","1013.763","26.47","84.4","-2.589","0.0"],
    [1422113,"2026-07-23 22:50:00","491","0.502","256.0","1.47","280.2","1013.7610000000001","26.42","84.6","-2.5810000000000004","0.0"],
    [1422114,"2026-07-23 23:00:00","492","0.674","292.3","1.274","309.9","1013.6619999999999","26.34","85.2","-2.592","0.0"],
    [1422115,"2026-07-23 23:10:00","493","0.9159999999999999","333.9","2.058","340.6","1013.5830000000001","26.23","85.1","-2.592","0.0"],
    [1422116,"2026-07-23 23:20:00","494","0.9209999999999999","338.5","1.372","342.9","1013.482","26.18","84.3","-2.592","0.0"],
    [1422117,"2026-07-23 23:30:00","495","0.6759999999999999","333.9","1.372","338.2","1013.3560000000001","26.26","84.3","-2.595","0.0"],
    [1422118,"2026-07-23 23:40:00","496","0.515","343.8","1.078","0.097","1013.242","26.18","84.5","-2.595","0.0"],
    [1422119,"2026-07-23 23:50:00","497","1.119","344.1","1.764","332.2","1013.207","26.17","84.7","-2.595","0.0"],
    [1422120,"2026-07-24 00:00:00","498","0.789","343.2","1.47","329.3","1013.182","26.1","84.5","-2.594","0.0"],
    [1422121,"2026-07-24 00:10:00","499","1.327","322.2","1.96","303.1","1013.057","25.98","82.9","-2.356","0.0"],
    [1422122,"2026-07-24 00:20:00","500","1.06","297.5","1.764","295","1012.9060000000001","25.08","79.56","-2.5839999999999996","0.0"],
    [1422123,"2026-07-24 00:30:00","501","0.9840000000000001","294.3","1.764","301.2","1012.806","24.99","77.49","-2.602","0.0"],
    [1422124,"2026-07-24 00:40:00","502","1.157","303.0","1.764","297.4","1012.677","25.01","75.22","-2.6","0.0"],
    [1422125,"2026-07-24 00:50:00","503","0.8390000000000001","303.0","1.666","312.1","1012.505","25.07","73.35","-2.5980000000000003","0.0"],
    [1422126,"2026-07-24 01:00:00","504","1.285","293.8","2.058","297.5","1012.424","25.3","69.19","-2.676","0.0"],
    [1422127,"2026-07-24 01:10:00","505","1.307","294.6","2.254","289.5","1012.315","25.3","68.48","-2.6180000000000003","0.0"],
    [1422128,"2026-07-24 01:20:00","506","1.58","299.8","2.156","307.2","1012.2139999999999","25.35","68.53","-2.762","0.0"],
    [1422129,"2026-07-24 01:30:00","507","1.1340000000000001","290.1","2.058","294.9","1012.143","25.22","69.45","-2.912","0.0"],
    [1422130,"2026-07-24 01:40:00","508","1.463","282.9","2.352","288.9","1012.1339999999999","25.19","69.44","-2.812","0.0"],
    [1422131,"2026-07-24 01:50:00","509","1.556","286.1","2.548","270.9","1012.1310000000001","25.19","67.77","-2.645","0.0"],
    [1422132,"2026-07-24 02:00:00","510","2.137","277.8","2.842","281.7","1012.158","25.23","65.07","-2.687","0.0"],
    [1422133,"2026-07-24 02:10:00","511","1.48","299.4","2.94","307.7","1012.0939999999999","24.99","64.68","-2.795","0.0"],
    [1422134,"2026-07-24 02:20:00","512","1.409","298.6","2.842","311.2","1011.9789999999999","25.04","62.4","-2.799","0.0"],
    [1422135,"2026-07-24 02:30:00","513","1.256","290.4","2.156","305.3","1011.927","25.12","60.35","-2.853","0.0"],
    [1422136,"2026-07-24 02:40:00","514","1.3459999999999999","294.8","2.254","284.7","1011.9110000000001","25.09","59.03","-2.9810000000000003","0.0"],
    [1422137,"2026-07-24 02:50:00","515","1.403","296.8","1.96","310.5","1011.847","25.08","58.28","-2.798","0.0"],
    [1422138,"2026-07-24 03:00:00","516","1.493","284.9","2.45","291.5","1011.915","25.07","56.01","-3.27","0.0"],
    [1422139,"2026-07-24 03:10:00","517","1.975","275.1","2.94","273.6","1012.1289999999999","25.42","52.76","-2.83","0.0"],
    [1422140,"2026-07-24 03:20:00","518","1.9140000000000001","285.0","2.744","276.4","1012.2539999999999","25.13","53.3","-2.718","0.0"],
    [1422141,"2026-07-24 03:30:00","519","1.238","300.6","2.254","291.1","1012.304","24.98","53.89","-2.835","0.0"],
    [1422142,"2026-07-24 03:40:00","520","0.8959999999999999","325.6","2.058","292.8","1012.31","25.09","52.67","-3.0210000000000004","0.0"],
    [1422143,"2026-07-24 03:50:00","521","0.753","345.0","1.764","340.7","1012.426","25.01","52.24","-2.972","0.0"],
    [1422144,"2026-07-24 04:00:00","522","0.149","324.9","0.784","328.5","1012.4730000000001","24.85","52.64","-2.641","0.0"],
    [1422145,"2026-07-24 04:10:00","523","0.19699999999999998","263.6","0.784","261.8","1012.5089999999999","24.74","53.26","-2.883","0.0"],
    [1422146,"2026-07-24 04:20:00","524","0.892","279.1","1.666","282.5","1012.529","24.66","52.81","-2.6189999999999998","0.0"],
    [1422147,"2026-07-24 04:30:00","525","1.216","278.7","1.764","275.2","1012.6010000000001","24.34","53.61","-2.199","0.0"],
    [1422148,"2026-07-24 04:40:00","526","0.8270000000000001","285.0","1.47","267.4","1012.762","24.15","53.0","-0.16","0.0"],
    [1422149,"2026-07-24 04:50:00","527","0.382","282.7","1.176","288.7","1012.9830000000001","24.03","52.55","3.972","0.0"],
    [1422150,"2026-07-24 05:00:00","528","0.34299999999999997","311.1","1.372","302","1013.0239999999999","23.95","53.05","11.52","0.0"],
    [1422151,"2026-07-24 05:10:00","529","0.009000000000000001","314.8","0.294","314.7","1013.14","23.99","52.78","21.83","0.0"],
    [1422152,"2026-07-24 05:20:00","530","0.0","0.0","0","310.8","1013.2339999999999","24.49","51.75","35.48","0.0"],
    [1422153,"2026-07-24 05:30:00","531","0.222","301.5","1.078","307.1","1013.3860000000001","24.71","52.3","47.41","0.0"],
    [1422154,"2026-07-24 05:40:00","532","0.635","313.2","1.372","297.1","1013.51","24.8","53.69","59.39","0.0"],
    [1422155,"2026-07-24 05:50:00","533","0.185","313.9","1.078","303.6","1013.5369999999999","24.91","54.2","68.6","0.0"],
    [1422156,"2026-07-24 06:00:00","534","1.3530000000000002","52.65","2.842","45.3","1013.4989999999999","25.78","55.43","82.8","0.0"],
    [1422157,"2026-07-24 06:10:00","535","1.952","61.94","3.626","83.7","1013.615","27.41","50.65","99.2","0.0"],
    [1422158,"2026-07-24 06:20:00","536","1.7309999999999999","55.32","4.214","65.94","1013.678","27.66","50.15","125.8","0.0"],
    [1422159,"2026-07-24 06:30:00","537","2.861","46.28","4.41","47.67","1013.727","27.9","47.59","163.1","0.0"],
    [1422160,"2026-07-24 06:40:00","538","3.1889999999999996","54.57","4.9","52.9","1013.818","28.02","46.4","179.9","0.0"],
    [1422161,"2026-07-24 06:50:00","539","3.83","58.42","6.566","82.2","1013.8580000000001","28.21","45.23","200.8","0.0"],
    [1422162,"2026-07-24 07:00:00","540","4.862","63.56","7.448","67.39","1013.579","28.32","43.49","240.5","0.0"],
    [1422163,"2026-07-24 07:10:00","541","4.288","57.26","6.566","66.71","1014.015","28.37","43.74","271.0","0.0"],
    [1422164,"2026-07-24 07:20:00","542","4.301","58.68","6.86","58.91","1014.2139999999999","28.4","42.68","303.5","0.0"],
    [1422165,"2026-07-24 07:30:00","543","3.9819999999999998","58.94","6.076","62.12","1014.273","28.59","42.54","340.0","0.0"],
    [1422166,"2026-07-24 07:40:00","544","4.646","70.66","6.664","76.51","1014.049","28.73","41.38","362.5","0.0"],
    [1422167,"2026-07-24 07:50:00","545","4.516","65.7","6.86","64.55","1013.998","28.81","41.49","378.6","0.0"],
    [1422168,"2026-07-24 08:00:00","546","4.266","55.43","6.664","64.21","1014.045","28.95","40.77","394.4","0.0"],
    [1422169,"2026-07-24 08:10:00","547","4.513","66.42","6.566","70.61","1014.0939999999999","28.95","42.26","436.1","0.0"],
    [1422170,"2026-07-24 08:20:00","548","4.72","63.04","7.154","73.22","1014.063","28.93","41.36","472.9","0.0"],
    [1422171,"2026-07-24 08:30:00","549","4.0489999999999995","59.41","5.978","40.03","1014.071","29.22","41.84","480.3","0.0"],
    [1422172,"2026-07-24 08:40:00","550","4.779","61.47","7.252","64.94","1013.87","29.27","39.41","563.9","0.0"],
    [1422173,"2026-07-24 08:50:00","551","4.688","64.94","7.252","71.34","1013.778","28.97","39.69","352.3","0.0"],
    [1422174,"2026-07-24 09:00:00","552","4.619","68.95","6.86","65.28","1013.653","28.91","41.27","466.9","0.0"],
    [1422175,"2026-07-24 09:10:00","553","5.114","73.58","7.252","66.2","1013.488","28.92","41.15","473.7","0.0"],
    [1422176,"2026-07-24 09:20:00","554","4.654","67.1","6.958","76.09","1013.584","29.22","40.35","564.9","0.0"],
    [1422177,"2026-07-24 09:30:00","555","5.016","60.55","7.252","58.74","1013.654","29.46","38.79","733.0","0.0"],
    [1422178,"2026-07-24 09:40:00","556","4.867","72.24","6.664","48.27","1013.676","29.56","39.57","687.9","0.0"],
    [1422179,"2026-07-24 09:50:00","557","5.497999999999999","72.41","8.23","76.28","1013.552","29.74","38.82","759.0","0.0"],
    [1422180,"2026-07-24 10:00:00","558","5.327999999999999","72.98","8.53","67.12","1013.437","29.48","40.25","626.6","0.0"],
    [1422181,"2026-07-24 10:10:00","559","4.77","72.34","7.448","63.68","1013.6489999999999","29.67","40.76","773.2","0.0"],
    [1422182,"2026-07-24 10:20:00","560","5.069","72.08","6.86","79.34","1013.65","29.65","41.66","817.0","0.0"],
    [1422183,"2026-07-24 10:30:00","561","4.452","70.94","6.566","54.52","1013.5419999999999","29.56","43.27","829.0","0.0"],
    [1422184,"2026-07-24 10:40:00","562","4.676","82.6","7.546","77.11","1013.3530000000001","29.37","43.41","836.0","0.0"],
    [1422185,"2026-07-24 10:50:00","563","5.061","75.28","7.448","69.01","1013.2819999999999","29.4","44.11","841.0","0.0"],
    [1422186,"2026-07-24 11:00:00","564","5.392","76.83","7.448","59.71","1013.2439999999999","29.42","44.28","858.0","0.0"],
    [1422187,"2026-07-24 11:10:00","565","4.713","83.8","7.35","81.4","1013.323","29.16","46.04","873.0","0.0"],
    [1422188,"2026-07-24 11:20:00","566","4.6339999999999995","75.07","6.566","90.8","1013.322","29.46","47.4","878.0","0.0"],
    [1422189,"2026-07-24 11:30:00","567","4.276","87.9","6.958","69.06","1013.298","29.26","47.66","885.0","0.0"],
    [1422190,"2026-07-24 11:40:00","568","4.556","76.73","7.546","84.1","1013.283","29.5","47.73","881.0","0.0"],
    [1422191,"2026-07-24 11:50:00","569","4.321000000000001","82.8","6.37","87.7","1013.2639999999999","29.18","50.25","874.0","0.0"],
    [1422192,"2026-07-24 12:00:00","570","4.377","84.5","6.272","82","1013.176","29.13","51.62","870.0","0.0"],
    [1422193,"2026-07-24 12:10:00","571","3.887","89.6","5.978","88.9","1013.232","29.07","51.99","866.0","0.0"],
    [1422194,"2026-07-24 12:20:00","572","4.369","86.1","6.468","85.7","1013.0260000000001","28.86","54.19","859.0","0.0"],
    [1422195,"2026-07-24 12:30:00","573","4.604","84.9","6.86","88.1","1012.885","28.94","54.18","852.0","0.0"],
    [1422196,"2026-07-24 12:40:00","574","4.0569999999999995","87.1","6.272","93.4","1012.7869999999999","28.8","54.9","845.0","0.0"],
    [1422197,"2026-07-24 12:50:00","575","3.645","88.8","6.174","73.52","1012.678","29.02","55.36","841.0","0.0"],
    [1422198,"2026-07-24 13:00:00","576","4.234","77.35","7.154","75.75","1012.569","28.98","56.29","832.0","0.0"],
    [1422199,"2026-07-24 13:10:00","577","4.4910000000000005","77.96","6.37","74.49","1012.498","28.85","57.13","823.0","0.0"],
    [1422200,"2026-07-24 13:20:00","578","4.416","78.0","6.37","77.4","1012.3660000000001","28.8","58.52","813.0","0.0"],
    [1422201,"2026-07-24 13:30:00","579","3.903","83.6","6.566","93.6","1012.235","28.83","59.05","802.0","0.0"],
    [1422202,"2026-07-24 13:40:00","580","4.197","82.5","6.37","86.2","1012.148","28.74","59.5","788.6","0.0"],
    [1422203,"2026-07-24 13:50:00","581","4.242","84.0","6.076","69.06","1012.0310000000001","28.57","59.61","772.7","0.0"],
    [1422204,"2026-07-24 14:00:00","582","3.98","87.4","6.272","88.9","1011.9060000000001","29.0","58.52","762.5","0.0"],
    [1422205,"2026-07-24 14:10:00","583","4.302","86.2","6.272","78.46","1011.7869999999999","28.89","58.32","747.7","0.0"],
    [1422206,"2026-07-24 14:20:00","584","4.131","84.3","6.37","58.79","1011.6060000000001","29.02","58.62","729.3","0.0"],
    [1422207,"2026-07-24 14:30:00","585","4.166","82.3","6.174","97.1","1011.4680000000001","28.74","59.58","712.8","0.0"],
    [1422208,"2026-07-24 14:40:00","586","3.925","88.2","6.076","88.7","1011.3330000000001","28.69","59.9","692.0","0.0"],
    [1422209,"2026-07-24 14:50:00","587","4.051","85.3","6.272","84.1","1011.278","28.87","59.82","670.7","0.0"],
    [1422210,"2026-07-24 15:00:00","588","3.923","86.5","5.586","74.73","1011.297","28.59","60.2","647.5","0.0"],
    [1422211,"2026-07-24 15:10:00","589","3.4139999999999997","78.25","5.096","88.3","1011.2589999999999","28.91","60.07","622.0","0.0"],
    [1422212,"2026-07-24 15:20:00","590","3.469","78.42","5.39","85.7","1011.193","28.94","60.19","597.7","0.0"],
    [1422213,"2026-07-24 15:30:00","591","3.363","82.6","5.292","65.52","1011.159","28.78","60.66","566.9","0.0"],
    [1422214,"2026-07-24 15:40:00","592","3.448","82.6","4.9","81.8","1011.1469999999999","28.42","61.74","513.1","0.0"],
    [1422215,"2026-07-24 15:50:00","593","3.4139999999999997","82.0","5.782","92.6","1011.191","28.51","61.5","405.6","0.0"],
    [1422216,"2026-07-24 16:00:00","594","3.947","81.2","5.88","86.1","1010.8910000000001","28.39","62.51","418.8","0.0"],
    [1422217,"2026-07-24 16:10:00","595","3.45","82.5","5.194","93.4","1010.916","28.52","63.17","360.1","0.0"],
    [1422218,"2026-07-24 16:20:00","596","3.154","90.4","4.704","92.1","1010.828","28.39","63.78","345.5","0.0"],
    [1422219,"2026-07-24 16:30:00","597","3.762","79.87","4.998","77.2","1010.7460000000001","28.12","64.44","136.2","0.0"],
    [1422220,"2026-07-24 16:40:00","598","2.875","73.71","4.704","77.45","1010.745","27.98","65.6","196.1","0.0"],
    [1422221,"2026-07-24 16:50:00","599","2.556","74.37","4.116","83.9","1010.898","28.09","65.44","279.7","0.0"],
    [1422222,"2026-07-24 17:00:00","600","2.638","73.58","4.41","86.2","1010.735","28.29","65.69","331.8","0.0"],
    [1422223,"2026-07-24 17:10:00","601","3.217","88.6","4.606","92.1","1010.434","28.09","66.27","279.6","0.0"],
    [1422224,"2026-07-24 17:20:00","602","3.68","83.5","4.998","91.3","1010.2460000000001","28.02","67.37","240.6","0.0"],
    [1422225,"2026-07-24 17:30:00","603","3.3280000000000003","89.8","4.998","83","1010.018","28.11","67.46","209.8","0.0"],
    [1422226,"2026-07-24 17:40:00","604","3.56","91.8","5.39","85","1009.868","28.09","67.7","177.4","0.0"],
    [1422227,"2026-07-24 17:50:00","605","3.338","93.0","4.998","84.4","1009.808","28.05","68.23","150.7","0.0"],
    [1422228,"2026-07-24 18:00:00","606","2.779","95.0","4.704","109.2","1009.877","27.99","68.83","124.7","0.0"],
    [1422229,"2026-07-24 18:10:00","607","2.64","95.3","4.312","111.2","1009.929","27.89","69.21","103.2","0.0"],
    [1422230,"2026-07-24 18:20:00","608","2.4819999999999998","95.1","4.312","84","1009.8889999999999","27.92","68.91","80.9","0.0"],
    [1422231,"2026-07-24 18:30:00","609","2.661","89.7","3.92","83.9","1009.87","27.82","69.26","53.17","0.0"],
    [1422232,"2026-07-24 18:40:00","610","2.7060000000000004","86.4","3.92","76.9","1009.8330000000001","27.79","70.0","36.89","0.0"],
    [1422233,"2026-07-24 18:50:00","611","1.96","92.2","3.332","85.1","1009.875","27.7","71.01","21.69","0.0"],
    [1422234,"2026-07-24 19:00:00","612","2.16","74.18","3.332","68.81","1009.86","27.66","71.61","15.28","0.0"],
    [1422235,"2026-07-24 19:10:00","613","1.771","80.5","3.038","78.93","1009.855","27.65","72.33","7.757999999999999","0.0"],
    [1422236,"2026-07-24 19:20:00","614","2.096","70.43","3.136","74.62","1009.8760000000001","27.59","72.41","2.201","0.0"],
    [1422237,"2026-07-24 19:30:00","615","2.089","66.31","2.744","62.79","1009.8330000000001","27.62","72.56","-0.096","0.0"],
    [1422238,"2026-07-24 19:40:00","616","1.8840000000000001","73.04","3.038","64.34","1009.882","27.6","73.18","-0.752","0.0"],
    [1422239,"2026-07-24 19:50:00","617","2.269","68.04","3.332","79.21","1009.8689999999999","27.57","73.39","-1.156","0.0"],
    [1422240,"2026-07-24 20:00:00","618","2.134","61.56","3.136","72.28","1009.813","27.54","73.59","-1.786","0.0"],
    [1422241,"2026-07-24 20:10:00","619","2.697","56.1","3.92","77.71","1009.658","27.43","73.93","-1.6269999999999998","0.0"],
    [1422242,"2026-07-24 20:20:00","620","2.6660000000000004","49.73","4.018","43.99","1009.732","27.37","75.4","-1.09","0.0"],
    [1422243,"2026-07-24 20:30:00","621","2.184","50.7","3.822","39.87","1009.939","27.17","75.86","-1.064","0.0"],
    [1422244,"2026-07-24 20:40:00","622","2.2769999999999997","59.24","3.234","49.22","1010.067","27.2","75.78","-0.927","0.0"],
    [1422245,"2026-07-24 20:50:00","623","2.451","61.2","3.528","53.92","1010.0039999999999","27.19","75.64","-0.9590000000000001","0.0"],
    [1422246,"2026-07-24 21:00:00","624","2.42","60.37","3.528","65.36","1009.9110000000001","27.22","75.26","-1.082","0.0"],
    [1422247,"2026-07-24 21:10:00","625","2.438","53.89","3.528","63.9","1009.8439999999999","27.15","75.73","-1.092","0.0"],
    [1422248,"2026-07-24 21:20:00","626","2.344","51.72","3.724","53.87","1009.826","27.1","76.28","-1.114","0.0"],
    [1422249,"2026-07-24 21:30:00","627","2.198","57.16","3.136","52.03","1009.878","27.1","76.16","-1.124","0.0"],
    [1422250,"2026-07-24 21:40:00","628","2.13","55.59","3.43","57.7","1009.808","26.98","77.08","-1.097","0.0"],
    [1422251,"2026-07-24 21:50:00","629","2.088","54.42","3.136","58.28","1009.721","26.6","79.49","-1.69","0.0"],
    [1422252,"2026-07-24 22:00:00","630","2.3480000000000003","60.38","3.234","65.45","1009.71","26.33","80.1","-1.8419999999999999","0.0"],
    [1422253,"2026-07-24 22:10:00","631","2.269","67.52","3.234","71.31","1009.675","26.41","79.63","-2.515","0.0"],
    [1422254,"2026-07-24 22:20:00","632","2.176","63.95","3.332","58.48","1009.682","26.66","78.86","-1.814","0.0"],
    [1422255,"2026-07-24 22:30:00","633","2.252","63.7","3.038","61.63","1009.565","26.68","78.86","-1.486","0.0"],
    [1422256,"2026-07-24 22:40:00","634","2.142","53.78","3.332","64.44","1009.53","26.68","78.68","-1.092","0.0"],
    [1422257,"2026-07-24 22:50:00","635","1.3119999999999998","41.46","2.45","36.14","1009.425","26.7","78.08","-1.092","0.0"],
    [1422258,"2026-07-24 23:00:00","636","1.415","50.34","2.646","37.6","1009.306","26.83","77.33","-1.101","0.0"],
    [1422259,"2026-07-24 23:10:00","637","1.569","72.06","2.45","82","1009.319","27.03","76.47","-1.088","0.0"],
    [1422260,"2026-07-24 23:20:00","638","1.609","56.58","2.45","64.48","1009.2310000000001","27.16","76.04","-0.887","0.0"],
    [1422261,"2026-07-24 23:30:00","639","1.882","69.53","2.646","70.2","1009.225","27.27","75.56","-0.8009999999999999","0.0"],
    [1422262,"2026-07-24 23:40:00","640","1.9269999999999998","73.38","3.136","80.7","1009.1160000000001","27.35","75.21","-0.898","0.0"],
    [1422263,"2026-07-24 23:50:00","641","2.34","66.62","3.234","80.6","1009.049","27.35","74.89","-0.871","0.0"],
    [1422264,"2026-07-25 00:00:00","642","2.319","73.92","3.332","61.82","1008.93","27.42","74.0","-0.963","0.0"],
    [1422265,"2026-07-25 00:10:00","643","1.835","63.21","2.94","59.4","1008.921","27.45","73.62","-0.792","0.0"],
    [1422266,"2026-07-25 00:20:00","644","1.743","64.49","2.45","67.73","1008.79","27.46","73.29","-0.982","0.0"],
    [1422267,"2026-07-25 00:30:00","645","1.079","58.68","1.666","58.43","1008.7189999999999","27.52","72.93","-0.995","0.0"],
    [1422268,"2026-07-25 00:40:00","646","1.185","67.96","1.96","78.24","1008.758","27.55","72.77","-1.077","0.0"],
    [1422269,"2026-07-25 00:50:00","647","1.179","70.33","1.764","78.63","1008.675","27.61","72.67","-1.052","0.0"],
    [1422270,"2026-07-25 01:00:00","648","1.137","77.23","2.058","77.42","1008.6010000000001","27.62","72.8","-0.948","0.0"],
    [1422271,"2026-07-25 01:10:00","649","1.526","88.8","2.352","89.6","1008.577","27.6","73.08","-0.951","0.0"],
    [1422272,"2026-07-25 01:20:00","650","1.874","83.6","2.45","87.4","1008.452","27.56","73.11","-1.0270000000000001","0.0"],
    [1422273,"2026-07-25 01:30:00","651","1.49","94.6","2.45","88.1","1008.305","27.55","73.06","-1.08","0.0"],
    [1422274,"2026-07-25 01:40:00","652","1.155","99.9","2.156","100.3","1008.2310000000001","27.49","73.31","-1.092","0.0"],
    [1422275,"2026-07-25 01:50:00","653","1.5090000000000001","85.6","2.254","80.3","1008.154","27.48","73.56","-1.176","0.0"],
    [1422276,"2026-07-25 02:00:00","654","1.254","76.28","1.96","85.6","1008.1289999999999","27.43","74.01","-1.7590000000000001","0.0"],
    [1422277,"2026-07-25 02:10:00","655","1.518","73.99","1.96","75.68","1008.051","27.29","74.71","-1.855","0.0"],
    [1422278,"2026-07-25 02:20:00","656","1.435","65.35","1.862","71.22","1008.0210000000001","27.15","75.7","-1.84","0.0"],
    [1422279,"2026-07-25 02:30:00","657","0.973","74.53","1.666","69.38","1008.049","27.15","76.13","-1.176","0.0"],
    [1422280,"2026-07-25 02:40:00","658","0.9890000000000001","75.7","1.666","80.4","1008.018","27.32","75.64","-1.091","0.0"],
    [1422281,"2026-07-25 02:50:00","659","1.138","75.84","1.666","76.16","1007.88","27.33","75.13","-1.304","0.0"],
    [1422282,"2026-07-25 03:00:00","660","0.9570000000000001","76.47","1.372","71.9","1007.8539999999999","27.29","75.13","-1.705","0.0"],
    [1422283,"2026-07-25 03:10:00","661","0.885","64.72","1.176","66.18","1007.836","27.31","75.04","-1.097","0.0"],
    [1422284,"2026-07-25 03:20:00","662","0.8859999999999999","72.57","1.176","65.89","1007.893","27.37","75.24","-1.09","0.0"],
    [1422285,"2026-07-25 03:30:00","663","1.022","61.65","1.862","71.31","1007.9119999999999","27.45","75.4","-1.069","0.0"],
    [1422286,"2026-07-25 03:40:00","664","0.8759999999999999","61.74","1.764","58.23","1007.8969999999999","27.45","75.54","-1.091","0.0"],
    [1422287,"2026-07-25 03:50:00","665","1.077","50.88","1.764","45.54","1007.8989999999999","27.42","75.78","-1.1909999999999998","0.0"],
    [1422288,"2026-07-25 04:00:00","666","0.6859999999999999","43.52","1.764","41.47","1007.93","27.35","76.01","-1.699","0.0"],
    [1422289,"2026-07-25 04:10:00","667","0.816","31.81","1.372","29.07","1008.043","27.33","76.09","-1.092","0.0"],
    [1422290,"2026-07-25 04:20:00","668","0.7829999999999999","40.31","1.47","43.31","1008.0189999999999","27.46","75.53","-1.092","0.0"],
    [1422291,"2026-07-25 04:30:00","669","0.981","66.7","1.568","68.99","1008.061","27.41","76.17","-1.092","0.0"],
    [1422292,"2026-07-25 04:40:00","670","1.181","61.76","1.666","64.05","1008.1189999999999","27.26","77.32","-0.23600000000000002","0.0"],
    [1422293,"2026-07-25 04:50:00","671","1.087","68.3","1.47","75","1008.2260000000001","27.06","78.17","2.5989999999999998","0.0"],
    [1422294,"2026-07-25 05:00:00","672","1.534","63.46","2.352","61.43","1008.2710000000001","27.14","77.29","7.667000000000001","0.0"],
    [1422295,"2026-07-25 05:10:00","673","1.5119999999999998","56.34","2.352","55.91","1008.232","27.29","76.46","13.51","0.0"],
    [1422296,"2026-07-25 05:20:00","674","1.568","59.18","2.352","62.59","1008.315","27.39","76.03","19.75","0.0"],
    [1422297,"2026-07-25 05:30:00","675","2.3369999999999997","55.07","3.626","62.45","1008.2810000000001","27.39","76.48","35.01","0.0"],
    [1422298,"2026-07-25 05:40:00","676","2.258","57.12","3.822","42.83","1008.2489999999999","27.37","76.63","51.92","0.0"],
    [1422299,"2026-07-25 05:50:00","677","2.125","52.48","3.626","44.62","1008.2439999999999","27.49","76.0","79.33","0.0"],
    [1422300,"2026-07-25 06:00:00","678","2.696","63.18","4.116","74.08","1008.289","27.66","75.6","115.7","0.0"],
    [1422301,"2026-07-25 06:10:00","679","3.177","64.75","4.41","50.09","1008.328","27.71","77.63","121.3","0.0"],
    [1422302,"2026-07-25 06:20:00","680","2.431","62.55","3.92","76.5","1008.2869999999999","27.48","78.87","169.7","0.0"],
    [1422303,"2026-07-25 06:30:00","681","2.372","72.72","3.626","97.7","1008.284","27.64","76.73","192.7","0.0"],
    [1422304,"2026-07-25 06:40:00","682","1.97","60.93","3.332","88.6","1008.318","27.79","75.79","217.0","0.0"],
    [1422305,"2026-07-25 06:50:00","683","2.682","78.1","4.018","70.55","1008.3789999999999","27.9","75.25","242.8","0.0"],
    [1422306,"2026-07-25 07:00:00","684","2.478","76.33","4.018","88.6","1008.457","27.92","75.09","269.3","0.0"],
    [1422307,"2026-07-25 07:10:00","685","2.905","86.5","4.312","93.9","1008.498","28.06","73.76","298.8","0.0"],
    [1422308,"2026-07-25 07:20:00","686","2.949","86.9","4.508","91.5","1008.466","28.31","72.2","328.0","0.0"],
    [1422309,"2026-07-25 07:30:00","687","3.386","90.4","5.194","105.2","1008.445","28.36","69.48","360.3","0.0"],
    [1422310,"2026-07-25 07:40:00","688","3.787","83.1","5.39","77.54","1008.419","28.56","66.84","393.7","0.0"],
    [1422311,"2026-07-25 07:50:00","689","4.578","84.3","6.468","94.2","1008.3580000000001","28.44","67.05","427.2","0.0"],
    [1422312,"2026-07-25 08:00:00","690","4.994","79.88","6.86","75.31","1008.316","28.62","63.98","462.5","0.0"],
    [1422313,"2026-07-25 08:10:00","691","4.69","75.71","6.272","72.99","1008.316","28.67","66.98","494.7","0.0"],
    [1422314,"2026-07-25 08:20:00","692","4.85","83.7","7.056","87.1","1008.315","28.42","67.9","531.6","0.0"],
    [1422315,"2026-07-25 08:30:00","693","4.481","84.2","6.566","92.1","1008.322","28.34","68.37","541.0","0.0"],
    [1422316,"2026-07-25 08:40:00","694","5.0","79.13","6.762","66.88","1008.301","28.32","68.18","602.8","0.0"],
    [1422317,"2026-07-25 08:50:00","695","4.814","81.1","6.664","89.7","1008.304","28.4","68.64","607.4","0.0"],
    [1422318,"2026-07-25 09:00:00","696","4.58","83.2","6.37","93.1","1008.315","28.26","69.57","663.6","0.0"],
    [1422319,"2026-07-25 09:10:00","697","4.271","83.9","6.468","76.96","1008.357","28.31","68.77","688.8","0.0"],
    [1422320,"2026-07-25 09:20:00","698","4.636","89.0","6.958","76.33","1008.4060000000001","28.23","68.25","716.9","0.0"],
    [1422321,"2026-07-25 09:30:00","699","4.191","92.3","6.272","86.2","1008.456","28.39","67.42","739.7","0.0"],
    [1422322,"2026-07-25 09:40:00","700","4.212","92.1","6.566","79.63","1008.435","28.36","68.45","775.9","0.0"],
    [1422323,"2026-07-25 09:50:00","701","4.55","93.6","6.37","89.6","1008.449","28.53","67.16","734.3","0.0"],
    [1422324,"2026-07-25 10:00:00","702","4.586","94.4","6.468","93.3","1008.4830000000001","28.16","65.28","645.9","0.0"],
    [1422325,"2026-07-25 10:10:00","703","4.631","94.9","6.762","82.1","1008.453","28.45","61.81","855.0","0.0"],
    [1422326,"2026-07-25 10:20:00","704","4.452","97.3","6.762","103.8","1008.413","28.44","60.97","862.0","0.0"],
    [1422327,"2026-07-25 10:30:00","705","4.169","96.8","6.566","83.4","1008.44","28.58","61.81","901.0","0.0"],
    [1422328,"2026-07-25 10:40:00","706","4.55","94.5","6.762","97.3","1008.4119999999999","28.49","62.85","757.9","0.0"],
    [1422329,"2026-07-25 10:50:00","707","4.208","97.2","6.174","93.2","1008.413","28.41","63.87","592.0","0.0"],
    [1422330,"2026-07-25 11:00:00","708","3.6439999999999997","101.3","6.272","79.72","1008.341","28.7","65.27","764.7","0.0"],
    [1422331,"2026-07-25 11:10:00","709","4.0489999999999995","98.7","6.174","93.7","1008.313","28.52","67.22","658.7","0.0"],
    [1422332,"2026-07-25 11:20:00","710","3.589","102.2","6.37","129.4","1008.2539999999999","28.52","66.89","622.9","0.0"],
    [1422333,"2026-07-25 11:30:00","711","3.878","98.8","6.762","95.3","1008.21","28.5","65.81","568.0","0.0"],
    [1422334,"2026-07-25 11:40:00","712","4.294","100.8","6.664","100.4","1008.132","28.31","65.99","579.7","0.0"],
    [1422335,"2026-07-25 11:50:00","713","3.3310000000000004","100.7","6.076","110.6","1008.07","28.7","64.83","871.0","0.0"],
    [1422336,"2026-07-25 12:00:00","714","3.415","105.2","6.468","87.7","1008.005","29.05","63.71","845.0","0.0"],
    [1422337,"2026-07-25 12:10:00","715","2.733","108.6","5.194","113.1","1007.936","28.77","65.1","803.0","0.0"],
    [1422338,"2026-07-25 12:20:00","716","3.54","102.6","6.566","85.1","1007.921","29.15","64.33","927.0","0.0"],
    [1422339,"2026-07-25 12:30:00","717","4.314","96.1","6.958","95.6","1007.946","28.77","65.96","917.0","0.0"],
    [1422340,"2026-07-25 12:40:00","718","3.6719999999999997","100.7","6.566","91.3","1007.913","28.79","66.32","916.0","0.0"],
    [1422341,"2026-07-25 12:50:00","719","3.173","109.1","6.076","115.9","1007.868","28.93","65.91","915.0","0.0"],
    [1422342,"2026-07-25 13:00:00","720","3.366","108.4","6.272","113.5","1007.885","29.07","66.67","895.0","0.0"],
    [1422343,"2026-07-25 13:10:00","721","3.654","105.5","6.37","104.6","1007.898","28.95","67.93","914.0","0.0"],
    [1422344,"2026-07-25 13:20:00","722","3.457","104.0","6.664","124.4","1007.87","29.03","68.03","914.0","0.0"],
    [1422345,"2026-07-25 13:30:00","723","4.007","103.5","6.076","104.7","1007.941","28.8","68.6","922.0","0.0"],
    [1422346,"2026-07-25 13:40:00","724","3.88","102.0","5.782","94.1","1007.922","28.71","69.43","810.0","0.0"],
    [1422347,"2026-07-25 13:50:00","725","3.9019999999999997","97.9","7.056","95.5","1007.903","28.85","68.91","816.0","0.0"],
    [1422348,"2026-07-25 14:00:00","726","4.457","95.4","7.056","93.6","1007.929","28.54","70.32","553.4","0.0"],
    [1422349,"2026-07-25 14:10:00","727","4.297","99.5","6.37","98.8","1007.893","28.51","70.77","714.2","0.0"],
    [1422350,"2026-07-25 14:20:00","728","3.616","97.0","5.88","107.4","1007.7869999999999","28.77","70.61","458.6","0.0"],
    [1422351,"2026-07-25 14:30:00","729","3.784","94.6","6.174","88.6","1007.727","28.67","71.45","501.3","0.0"],
    [1422352,"2026-07-25 14:40:00","730","3.96","96.0","6.86","122.9","1007.672","28.57","72.14","665.0","0.0"],
    [1422353,"2026-07-25 14:50:00","731","3.8710000000000004","97.7","5.88","98.4","1007.638","28.32","73.3","564.3","0.0"],
    [1422354,"2026-07-25 15:00:00","732","3.2510000000000003","103.4","5.586","106.6","1007.5830000000001","28.59","72.48","673.2","0.0"],
    [1422355,"2026-07-25 15:10:00","733","4.012","97.7","6.664","91","1007.5939999999999","28.58","72.73","442.4","0.0"],
    [1422356,"2026-07-25 15:20:00","734","3.574","103.6","6.174","96.4","1007.658","28.54","72.93","532.2","0.0"],
    [1422357,"2026-07-25 15:30:00","735","3.1719999999999997","96.6","5.782","94.4","1007.663","28.91","71.81","604.1","0.0"],
    [1422358,"2026-07-25 15:40:00","736","4.904","91.8","7.154","75.41","1007.717","28.45","73.1","302.3","0.0"],
    [1422359,"2026-07-25 15:50:00","737","4.81","91.1","7.35","81.4","1007.778","28.22","74.27","452.7","0.0"],
    [1422360,"2026-07-25 16:00:00","738","5.086","93.2","7.448","79.05","1007.8580000000001","28.32","73.78","451.6","0.0"],
    [1422361,"2026-07-25 16:10:00","739","4.753","88.0","7.546","90.8","1007.9119999999999","28.38","73.67","269.6","0.0"],
    [1422362,"2026-07-25 16:20:00","740","5.2620000000000005","85.3","7.742","76.77","1007.922","28.1","73.6","238.5","0.0"],
    [1422363,"2026-07-25 16:30:00","741","5.066","83.9","7.056","100.2","1007.929","28.03","73.38","176.8","0.0"],
    [1422364,"2026-07-25 16:40:00","742","5.292000000000001","84.4","7.448","89.3","1007.935","28.13","71.73","320.4","0.0"],
    [1422365,"2026-07-25 16:50:00","743","6.007000000000001","87.3","8.53","101.2","1007.921","28.11","70.92","338.7","0.0"],
    [1422366,"2026-07-25 17:00:00","744","5.711","88.6","7.742","91.4","1007.9780000000001","28.08","70.13","310.4","0.0"],
    [1422367,"2026-07-25 17:10:00","745","5.766","82.6","8.43","71.82","1007.99","28.29","69.69","272.6","0.0"],
    [1422368,"2026-07-25 17:20:00","746","5.678","78.48","8.13","88.2","1008.057","28.21","70.35","233.7","0.0"],
    [1422369,"2026-07-25 17:30:00","747","5.416","80.4","8.72","76.76","1008.1089999999999","28.15","70.98","210.3","0.0"],
    [1422370,"2026-07-25 17:40:00","748","5.624","81.0","8.62","69.93","1008.122","27.88","71.49","166.3","0.0"],
    [1422371,"2026-07-25 17:50:00","749","5.643","80.6","8.33","82.2","1008.113","27.77","71.82","146.7","0.0"],
    [1422372,"2026-07-25 18:00:00","750","5.075","83.5","8.33","65.23","1008.155","27.71","70.32","120.1","0.0"],
    [1422373,"2026-07-25 18:10:00","751","4.647","90.5","7.252","78.79","1008.1610000000001","27.52","71.31","66.77","0.0"],
    [1422374,"2026-07-25 18:20:00","752","4.096","89.5","6.958","95.8","1008.265","27.53","71.88","44.97","0.0"],
    [1422375,"2026-07-25 18:30:00","753","4.925","80.8","7.056","97.2","1008.46","27.39","72.58","33.4","0.0"],
    [1422376,"2026-07-25 18:40:00","754","4.6530000000000005","86.3","6.958","94.3","1008.6360000000001","27.21","73.0","12.9","0.0"],
    [1422377,"2026-07-25 18:50:00","755","4.538","77.95","8.13","80","1008.7560000000001","27.24","72.6","6.685","0.0"],
    [1422378,"2026-07-25 19:00:00","756","5.5729999999999995","68.88","8.72","54.65","1008.831","27.06","73.49","5.307","0.0"],
    [1422379,"2026-07-25 19:10:00","757","5.653","76.18","8.43","81.2","1008.7539999999999","26.72","73.81","3.803","0.0"],
    [1422380,"2026-07-25 19:20:00","758","4.397","74.44","6.664","69.13","1008.784","26.53","75.11","1.203","0.0"],
    [1422381,"2026-07-25 19:30:00","759","3.9530000000000003","66.36","6.076","81.4","1008.928","26.34","76.73","-0.6920000000000001","0.0"],
    [1422382,"2026-07-25 19:40:00","760","3.85","72.74","6.86","75.72","1008.997","26.35","76.7","-1.2930000000000001","0.0"],
    [1422383,"2026-07-25 19:50:00","761","4.5360000000000005","81.1","6.37","69.43","1009.092","26.44","75.98","-1.857","0.0"],
    [1422384,"2026-07-25 20:00:00","762","4.629","82.9","6.86","69.18","1009.319","26.5","75.62","-1.865","0.0"],
    [1422385,"2026-07-25 20:10:00","763","4.258","87.9","6.762","89.6","1009.447","26.49","75.42","-1.855","0.0"],
    [1422386,"2026-07-25 20:20:00","764","3.235","80.1","5.488","91.8","1009.7289999999999","26.56","76.09","-1.545","0.0"],
    [1422387,"2026-07-25 20:30:00","765","3.173","46.58","5.292","27.91","1010.153","26.5","75.99","-1.082","0.0"],
    [1422388,"2026-07-25 20:40:00","766","3.4139999999999997","66.08","5.684","82.9","1010.2260000000001","26.49","72.7","-1.0090000000000001","0.0"],
    [1422389,"2026-07-25 20:50:00","767","4.617","67.75","7.154","70.73","1010.02","26.4","72.27","-1.262","0.0"],
    [1422390,"2026-07-25 21:00:00","768","3.878","63.6","6.174","46.32","1009.9939999999999","25.73","72.26","-1.284","0.0"],
    [1422391,"2026-07-25 21:10:00","769","2.622","67.28","5.88","79.84","1010.1039999999999","24.79","77.92","-1.685","0.0"],
    [1422392,"2026-07-25 21:20:00","770","1.8159999999999998","30.9","3.332","23.35","1010.238","24.41","78.19","-2.164","0.0"],
    [1422393,"2026-07-25 21:30:00","771","1.3219999999999998","8.02","2.548","16.71","1010.36","24.39","73.6","-2.365","0.0"],
    [1422394,"2026-07-25 21:40:00","772","1.088","17.66","2.156","14.82","1010.4060000000001","24.35","67.7","-2.555","0.0"],
    [1422395,"2026-07-25 21:50:00","773","2.1390000000000002","31.75","3.038","30.43","1010.4789999999999","24.54","65.4","-2.593","0.0"],
    [1422396,"2026-07-25 22:00:00","774","1.64","12.27","2.548","31.93","1010.535","24.69","63.04","-2.59","0.0"],
    [1422397,"2026-07-25 22:10:00","775","1.4069999999999998","18.71","2.352","28.58","1010.591","24.79","61.59","-2.592","0.0"],
    [1422398,"2026-07-25 22:20:00","776","1.0759999999999998","17.73","1.96","14.34","1010.623","24.94","60.7","-2.293","0.0"],
    [1422399,"2026-07-25 22:30:00","777","1.219","351.6","2.352","354.9","1010.55","25.04","61.59","-1.975","0.0"],
    [1422400,"2026-07-25 22:40:00","778","1.4169999999999998","7.234","2.254","3.876","1010.683","25.17","64.25","-1.841","0.0"],
    [1422401,"2026-07-25 22:50:00","779","0.961","356.6","2.156","19.77","1010.847","25.36","66.88","-1.6640000000000001","0.0"],
    [1422402,"2026-07-25 23:00:00","780","1.15","333.2","2.058","312.5","1010.855","25.3","65.74","-1.558","0.0"],
    [1422403,"2026-07-25 23:10:00","781","1.556","330.4","2.548","333.1","1010.925","25.37","65.28","-1.591","0.0"],
    [1422404,"2026-07-25 23:20:00","782","1.3230000000000002","343.6","2.352","327.5","1010.982","25.49","65.3","-1.242","0.0"],
    [1422405,"2026-07-25 23:30:00","783","1.256","332.8","2.548","309.2","1011.1510000000001","25.56","65.53","-1.306","0.0"],
    [1422406,"2026-07-25 23:40:00","784","1.814","283.1","2.744","277.8","1011.159","24.92","66.21","-1.3119999999999998","0.0"],
    [1422407,"2026-07-25 23:50:00","785","1.423","296.8","2.156","268.9","1010.8739999999999","24.55","67.12","-1.995","0.0"],
    [1422408,"2026-07-26 00:00:00","786","0.41600000000000004","284.3","1.274","304.5","1011.071","24.62","68.15","-4.525","0.0"],
    [1422409,"2026-07-26 00:10:00","787","1.0959999999999999","251.4","1.764","296.8","1011.158","24.52","69.28","-4.265","0.0"],
    [1422410,"2026-07-26 00:20:00","788","0.805","261.5","2.058","262.7","1011.0010000000001","24.23","69.64","-2.295","0.0"],
    [1422411,"2026-07-26 00:30:00","789","0.519","244.3","1.862","264.8","1010.9939999999999","24.16","69.2","-1.8219999999999998","0.0"],
    [1422412,"2026-07-26 00:40:00","790","1.3230000000000002","250.2","2.156","221.2","1011.302","24.31","68.64","-1.8359999999999999","0.0"],
    [1422413,"2026-07-26 00:50:00","791","1.281","294.8","2.646","262.7","1011.27","24.48","67.72","-1.287","0.0"],
    [1422414,"2026-07-26 01:00:00","792","1.071","258.4","2.058","263.8","1011.529","24.32","68.25","-1.371","0.0"],
    [1422415,"2026-07-26 01:10:00","793","1.07","274.3","1.862","248.4","1011.538","24.44","68.16","-1.092","0.0"],
    [1422416,"2026-07-26 01:20:00","794","0.799","266.1","1.568","278","1011.507","24.33","69.0","-1.171","0.0"],
    [1422417,"2026-07-26 01:30:00","795","0.889","278.1","2.842","273","1011.4839999999999","24.36","69.06","-1.791","0.0"],
    [1422418,"2026-07-26 01:40:00","796","1.2670000000000001","297.9","1.96","285.5","1011.543","24.49","68.51","-1.5090000000000001","0.0"],
    [1422419,"2026-07-26 01:50:00","797","1.6869999999999998","179.1","6.272","184.2","1011.6239999999999","24.67","70.71","-1.412","0.0"],
    [1422420,"2026-07-26 02:00:00","798","1.811","178.0","3.332","216.6","1011.454","24.56","73.65","-1.9980000000000002","0.0"],
    [1422421,"2026-07-26 02:10:00","799","1.071","224.1","2.744","184","1011.443","24.31","76.03","-2.52","0.0"],
    [1422422,"2026-07-26 02:20:00","800","1.406","286.8","2.352","267.9","1011.347","24.08","77.19","-2.592","0.0"],
    [1422423,"2026-07-26 02:30:00","801","1.104","292.0","1.568","306.5","1011.3330000000001","23.93","77.44","-2.593","0.0"],
    [1422424,"2026-07-26 02:40:00","802","0.561","292.0","1.568","281.8","1011.523","23.6","79.12","-2.407","0.0"],
    [1422425,"2026-07-26 02:50:00","803","0.41600000000000004","300.4","0.686","297.8","1011.7389999999999","23.56","79.21","-1.841","0.0"],
    [1422426,"2026-07-26 03:00:00","804","0.41700000000000004","301.1","0.784","306","1011.823","23.85","77.94","-1.845","0.0"],
    [1422427,"2026-07-26 03:10:00","805","0.654","296.5","0.98","294.2","1012.041","24.04","76.85","-1.8630000000000002","0.0"],
    [1422428,"2026-07-26 03:20:00","806","0.882","286.1","1.274","283.7","1012.0889999999999","24.04","76.87","-1.4369999999999998","0.0"],
    [1422429,"2026-07-26 03:30:00","807","0.9470000000000001","290.3","2.058","301.1","1012.2230000000001","24.09","76.43","-1.104","0.0"],
    [1422430,"2026-07-26 03:40:00","808","1.9480000000000002","314.8","3.626","308.7","1012.275","24.06","71.52","-1.127","0.0"],
    [1422431,"2026-07-26 03:50:00","809","2.838","326.4","4.508","322.3","1012.13","24.53","53.36","-1.314","0.0"],
    [1422432,"2026-07-26 04:00:00","810","3.24","321.9","5.292","313.7","1012.1160000000001","24.76","49.03","-1.6219999999999999","0.0"],
    [1422433,"2026-07-26 04:10:00","811","2.838","327.2","4.9","340.5","1012.0189999999999","24.54","47.41","-1.8980000000000001","0.0"],
    [1422434,"2026-07-26 04:20:00","812","3.2239999999999998","324.1","5.292","350.4","1011.91","24.43","46.89","-2.032","0.0"],
    [1422435,"2026-07-26 04:30:00","813","3.1460000000000004","325.1","5.978","329.5","1012.0139999999999","24.27","46.54","-1.755","0.0"],
    [1422436,"2026-07-26 04:40:00","814","2.6889999999999996","320.4","4.802","316.6","1012.038","24.05","46.8","-0.642","0.0"],
    [1422437,"2026-07-26 04:50:00","815","2.75","315.2","5.096","324.9","1012.0139999999999","23.86","47.33","2.31","0.0"],
    [1422438,"2026-07-26 05:00:00","816","4.251","315.5","6.566","317.5","1012.012","23.64","48.2","8.15","0.0"],
    [1422439,"2026-07-26 05:10:00","817","4.2860000000000005","309.1","7.546","329.7","1012.062","23.45","49.13","17.1","0.0"],
    [1422440,"2026-07-26 05:20:00","818","3.938","305.4","6.468","300","1012.1510000000001","23.25","50.27","29.78","0.0"],
    [1422441,"2026-07-26 05:30:00","819","3.847","302.5","6.566","318.7","1012.278","23.12","50.84","38.04","0.0"],
    [1422442,"2026-07-26 05:40:00","820","3.986","300.6","7.056","304.1","1012.357","23.0","51.23","54.6","0.0"],
    [1422443,"2026-07-26 05:50:00","821","4.038","315.6","7.546","324.2","1012.414","22.94","51.04","72.3","0.0"],
    [1422444,"2026-07-26 06:00:00","822","5.215","316.2","8.33","322.8","1012.416","22.92","50.72","85.0","0.0"],
    [1422445,"2026-07-26 06:10:00","823","5.309","315.3","8.72","344.8","1012.441","22.76","50.92","86.3","0.0"],
    [1422446,"2026-07-26 06:20:00","824","5.643","319.2","9.11","331.3","1012.4019999999999","22.77","50.64","124.9","0.0"],
    [1422447,"2026-07-26 06:30:00","825","5.147","310.8","9.11","309.1","1012.436","22.87","50.17","151.3","0.0"],
    [1422448,"2026-07-26 06:40:00","826","5.22","309.5","9.11","302.6","1012.449","23.08","49.62","194.3","0.0"],
    [1422449,"2026-07-26 06:50:00","827","5.99","310.5","10.58","313.7","1012.565","23.19","49.09","222.7","0.0"],
    [1422450,"2026-07-26 07:00:00","828","5.232","316.8","8.62","327.1","1012.758","23.29","48.89","238.0","0.0"],
    [1422451,"2026-07-26 07:10:00","829","4.488","313.3","7.35","289.6","1012.8539999999999","23.58","48.54","296.7","0.0"],
    [1422452,"2026-07-26 07:20:00","830","5.565","311.2","8.13","310","1012.955","23.56","48.58","302.4","0.0"],
    [1422453,"2026-07-26 07:30:00","831","4.732","316.9","8.13","332.2","1013.049","23.9","47.89","342.3","0.0"],
    [1422454,"2026-07-26 07:40:00","832","5.525","306.2","8.72","305","1013.222","24.06","47.37","337.6","0.0"],
    [1422455,"2026-07-26 07:50:00","833","5.95","312.4","8.82","321.3","1013.4","23.78","48.05","211.8","0.0"],
    [1422456,"2026-07-26 08:00:00","834","4.482","315.1","7.252","313.8","1013.368","23.84","48.32","270.9","0.0"],
    [1422457,"2026-07-26 08:10:00","835","5.495","314.7","8.13","327.7","1013.419","23.9","47.86","226.8","0.0"],
    [1422458,"2026-07-26 08:20:00","836","4.302","310.4","7.84","306.9","1013.4760000000001","23.85","47.99","208.7","0.0"],
    [1422459,"2026-07-26 08:30:00","837","4.76","313.9","7.35","315.4","1013.6439999999999","24.29","47.09","416.3","0.0"],
    [1422460,"2026-07-26 08:40:00","838","4.048","324.6","6.958","301.5","1013.678","24.96","45.79","514.4","0.0"],
    [1422461,"2026-07-26 08:50:00","839","3.886","322.0","6.664","338","1013.694","25.56","44.49","521.6","0.0"],
    [1422462,"2026-07-26 09:00:00","840","4.692","331.7","6.86","324.1","1013.847","25.63","44.23","523.9","0.0"],
    [1422463,"2026-07-26 09:10:00","841","5.372000000000001","314.4","8.62","316.8","1013.932","25.59","44.54","537.5","0.0"],
    [1422464,"2026-07-26 09:20:00","842","4.586","316.6","7.056","312.3","1013.9639999999999","25.74","44.37","564.1","0.0"],
    [1422465,"2026-07-26 09:30:00","843","3.6010000000000004","316.7","5.488","320","1014.029","26.16","43.54","573.9","0.0"],
    [1422466,"2026-07-26 09:40:00","844","2.823","311.7","4.9","328.6","1014.05","26.18","43.83","402.2","0.0"],
    [1422467,"2026-07-26 09:50:00","845","2.385","319.3","4.312","305.9","1014.025","26.52","43.35","567.3","0.0"],
    [1422468,"2026-07-26 10:00:00","846","2.15","322.0","3.724","319.1","1013.9889999999999","26.98","42.82","712.9","0.0"],
    [1422469,"2026-07-26 10:10:00","847","1.7730000000000001","326.3","3.43","306.5","1014.0319999999999","27.35","42.0","791.8","0.0"],
    [1422470,"2026-07-26 10:20:00","848","1.429","0.508","3.332","296.6","1013.997","27.71","42.11","825.0","0.0"],
    [1422471,"2026-07-26 10:30:00","849","1.946","216.2","4.704","226.5","1014.048","28.1","43.6","833.0","0.0"],
    [1422472,"2026-07-26 10:40:00","850","2.821","202.0","6.566","195.5","1013.959","27.9","43.61","848.0","0.0"],
    [1422473,"2026-07-26 10:50:00","851","2.36","170.5","4.9","180.4","1013.872","27.89","45.32","870.0","0.0"],
    [1422474,"2026-07-26 11:00:00","852","2.9760000000000004","171.3","6.076","170.3","1013.789","27.33","47.27","882.0","0.0"],
    [1422475,"2026-07-26 11:10:00","853","3.113","198.8","5.684","215.6","1013.701","27.9","46.69","882.0","0.0"],
    [1422476,"2026-07-26 11:20:00","854","2.5069999999999997","195.1","5.586","216.1","1013.7260000000001","28.15","46.95","886.0","0.0"],
    [1422477,"2026-07-26 11:30:00","855","2.394","190.9","5.39","165.2","1013.6610000000001","28.38","48.04","895.0","0.0"],
    [1422478,"2026-07-26 11:40:00","856","3.677","172.8","6.272","160.5","1013.693","27.82","49.61","906.0","0.0"],
    [1422479,"2026-07-26 11:50:00","857","3.056","176.9","5.88","166.7","1013.7810000000001","27.78","48.85","909.0","0.0"],
    [1422480,"2026-07-26 12:00:00","858","2.905","173.4","5.88","161.2","1013.798","28.08","47.44","913.0","0.0"],
    [1422481,"2026-07-26 12:10:00","859","2.8369999999999997","188.6","5.88","211","1013.7","28.11","48.07","915.0","0.0"],
    [1422482,"2026-07-26 12:20:00","860","3.912","174.9","6.762","174","1013.57","28.06","48.35","921.0","0.0"],
    [1422483,"2026-07-26 12:30:00","861","4.516","170.4","7.154","177.7","1013.462","27.6","49.52","919.0","0.0"],
    [1422484,"2026-07-26 12:40:00","862","3.739","173.5","7.252","167.9","1013.395","28.0","49.11","915.0","0.0"],
    [1422485,"2026-07-26 12:50:00","863","3.585","182.4","6.86","171.2","1013.3380000000001","28.23","49.04","913.0","0.0"],
    [1422486,"2026-07-26 13:00:00","864","4.276","177.7","7.448","194.9","1013.304","28.15","49.7","905.0","0.0"],
    [1422487,"2026-07-26 13:10:00","865","4.61","177.7","7.546","176.6","1013.3439999999999","27.94","50.8","895.0","0.0"],
    [1422488,"2026-07-26 13:20:00","866","4.374","176.4","6.37","185.8","1013.3610000000001","28.15","50.44","891.0","0.0"],
    [1422489,"2026-07-26 13:30:00","867","4.723","176.5","7.252","193.3","1013.335","27.85","51.0","879.0","0.0"],
    [1422490,"2026-07-26 13:40:00","868","4.23","175.6","7.154","189.2","1013.307","28.34","49.23","867.0","0.0"],
    [1422491,"2026-07-26 13:50:00","869","3.67","178.9","7.252","180.2","1013.192","28.68","48.03","855.0","0.0"],
    [1422492,"2026-07-26 14:00:00","870","4.154","188.3","8.62","189.6","1013.16","29.05","46.19","834.0","0.0"],
    [1422493,"2026-07-26 14:10:00","871","4.769","193.8","8.82","181.9","1013.145","29.06","47.88","812.0","0.0"],
    [1422494,"2026-07-26 14:20:00","872","4.971","197.9","10.88","204.7","1013.075","29.02","48.24","791.9","0.0"],
    [1422495,"2026-07-26 14:30:00","873","4.867","202.3","9.31","209.8","1013.0219999999999","29.16","48.29","776.1","0.0"],
    [1422496,"2026-07-26 14:40:00","874","5.207999999999999","202.1","9.51","211.7","1013.04","29.25","46.31","751.6","0.0"],
    [1422497,"2026-07-26 14:50:00","875","5.167999999999999","202.0","10.39","171.8","1013.064","29.13","45.41","728.8","0.0"],
    [1422498,"2026-07-26 15:00:00","876","4.57","192.6","9.6","173.3","1013.115","29.01","44.86","702.7","0.0"],
    [1422499,"2026-07-26 15:10:00","877","4.678","202.7","8.53","177.9","1013.197","29.13","43.4","675.8","0.0"],
    [1422500,"2026-07-26 15:20:00","878","4.285","203.8","9.21","166.5","1013.252","29.31","43.1","644.1","0.0"],
    [1422501,"2026-07-26 15:30:00","879","4.645","208.8","8.04","221.4","1013.295","29.15","42.49","615.3","0.0"],
    [1422502,"2026-07-26 15:40:00","880","4.664","201.8","7.742","208.9","1013.335","29.1","43.29","575.7","0.0"],
    [1422503,"2026-07-26 15:50:00","881","3.9139999999999997","197.6","7.644","174.3","1013.357","29.03","43.89","532.8","0.0"],
    [1422504,"2026-07-26 16:00:00","882","3.571","196.9","7.154","185","1013.409","29.32","43.87","509.0","0.0"],
    [1422505,"2026-07-26 16:10:00","883","3.551","196.7","7.35","236.1","1013.418","29.1","44.7","470.9","0.0"],
    [1422506,"2026-07-26 16:20:00","884","3.355","185.4","5.782","177.7","1013.429","28.96","45.42","457.6","0.0"],
    [1422507,"2026-07-26 16:30:00","885","3.0780000000000003","182.7","5.684","160.9","1013.451","28.89","45.72","425.8","0.0"],
    [1422508,"2026-07-26 16:40:00","886","3.0189999999999997","185.0","6.664","166.8","1013.5","28.99","44.87","394.8","0.0"],
    [1422509,"2026-07-26 16:50:00","887","3.477","181.2","6.272","238.2","1013.5189999999999","28.67","45.04","363.3","0.0"],
    [1422510,"2026-07-26 17:00:00","888","3.752","179.4","6.37","166.2","1013.567","28.51","45.64","330.9","0.0"],
    [1422511,"2026-07-26 17:10:00","889","4.02","174.6","6.37","193.7","1013.57","28.28","46.59","300.9","0.0"],
    [1422512,"2026-07-26 17:20:00","890","2.965","181.6","5.88","187.7","1013.612","28.49","45.7","268.5","0.0"],
    [1422513,"2026-07-26 17:30:00","891","1.386","144.6","4.312","180.1","1013.6189999999999","28.55","45.06","236.0","0.0"],
    [1422514,"2026-07-26 17:40:00","892","2.19","170.2","6.468","174.4","1013.7410000000001","28.48","44.67","204.1","0.0"],
    [1422515,"2026-07-26 17:50:00","893","1.68","158.4","5.292","147","1013.813","28.17","45.51","174.9","0.0"],
    [1422516,"2026-07-26 18:00:00","894","1.167","138.0","4.116","165.3","1013.8639999999999","28.17","45.92","146.9","0.0"],
    [1422517,"2026-07-26 18:10:00","895","1.819","165.9","4.312","179.4","1013.9839999999999","28.06","46.49","119.5","0.0"],
    [1422518,"2026-07-26 18:20:00","896","1.253","117.5","4.116","84.3","1014.039","27.91","47.16","93.8","0.0"],
    [1422519,"2026-07-26 18:30:00","897","1.506","112.7","4.9","129.3","1014.0939999999999","27.86","47.17","69.89","0.0"],
    [1422520,"2026-07-26 18:40:00","898","1.6909999999999998","126.7","5.096","140.7","1014.145","27.69","48.82","49.63","0.0"],
    [1422521,"2026-07-26 18:50:00","899","0.8759999999999999","135.7","3.626","163.7","1014.172","27.49","53.91","30.61","0.0"],
    [1422522,"2026-07-26 19:00:00","900","1.285","148.6","3.724","197.1","1014.209","27.22","55.7","16.28","0.0"],
    [1422523,"2026-07-26 19:10:00","901","1.39","155.6","3.92","187.5","1014.265","27.06","58.07","6.791","0.0"],
    [1422524,"2026-07-26 19:20:00","902","1.149","161.3","4.214","195.3","1014.329","26.89","58.53","1.463","0.0"],
    [1422525,"2026-07-26 19:30:00","903","1.42","163.1","3.822","172.4","1014.4060000000001","26.84","58.05","-1.246","0.0"],
    [1422526,"2026-07-26 19:40:00","904","1.1340000000000001","148.2","4.508","146.7","1014.572","26.83","59.21","-2.373","0.0"],
    [1422527,"2026-07-26 19:50:00","905","1.6059999999999999","166.2","4.018","140.5","1014.7289999999999","26.82","58.59","-2.594","0.0"],
    [1422528,"2026-07-26 20:00:00","906","1.598","158.7","4.802","149.6","1014.8539999999999","26.8","58.71","-2.593","0.0"],
    [1422529,"2026-07-26 20:10:00","907","1.195","163.0","4.018","152.9","1015.003","26.84","58.37","-2.593","0.0"],
    [1422530,"2026-07-26 20:20:00","908","1.214","161.5","4.116","170.7","1015.189","26.85","59.06","-2.444","0.0"],
    [1422531,"2026-07-26 20:30:00","909","1.44","166.4","3.822","159.4","1015.3810000000001","26.97","57.82","-1.847","0.0"],
    [1422532,"2026-07-26 20:40:00","910","1.268","158.4","3.528","170.2","1015.4739999999999","27.03","56.97","-1.875","0.0"],
    [1422533,"2026-07-26 20:50:00","911","1.764","164.1","3.626","181.4","1015.54","27.1","56.69","-2.032","0.0"],
    [1422534,"2026-07-26 21:00:00","912","1.959","169.6","4.116","137.8","1015.566","27.08","57.44","-2.5789999999999997","0.0"],
    [1422535,"2026-07-26 21:10:00","913","2.396","188.9","4.9","183.5","1015.6310000000001","27.13","55.76","-2.592","0.0"],
    [1422536,"2026-07-26 21:20:00","914","2.54","186.0","6.076","179.6","1015.678","27.2","55.83","-2.4330000000000003","0.0"],
    [1422537,"2026-07-26 21:30:00","915","2.7539999999999996","185.6","4.998","179.5","1015.676","27.24","56.37","-2.577","0.0"],
    [1422538,"2026-07-26 21:40:00","916","2.943","186.1","5.88","182.3","1015.703","27.28","56.63","-2.589","0.0"],
    [1422539,"2026-07-26 21:50:00","917","2.285","197.5","4.508","199.4","1015.7080000000001","27.23","57.36","-2.577","0.0"],
    [1422540,"2026-07-26 22:00:00","918","1.9240000000000002","204.5","3.528","215.5","1015.732","27.07","57.32","-2.595","0.0"],
    [1422541,"2026-07-26 22:10:00","919","2.2359999999999998","207.7","4.9","227.3","1015.816","27.07","57.62","-2.594","0.0"],
    [1422542,"2026-07-26 22:20:00","920","2.283","209.3","3.92","204.8","1015.93","27.02","58.21","-2.593","0.0"],
    [1422543,"2026-07-26 22:30:00","921","2.157","205.6","3.822","212.4","1015.9739999999999","26.97","59.53","-2.593","0.0"],
    [1422544,"2026-07-26 22:40:00","922","2.214","206.0","4.312","181.6","1015.971","26.87","59.53","-2.593","0.0"],
    [1422545,"2026-07-26 22:50:00","923","1.579","204.3","3.724","211.2","1015.938","26.83","60.04","-2.593","0.0"],
    [1422546,"2026-07-26 23:00:00","924","1.305","199.8","3.43","212.9","1015.905","26.65","61.07","-2.5989999999999998","0.0"],
    [1422547,"2026-07-26 23:10:00","925","2.144","191.5","5.194","184.7","1015.8910000000001","26.73","61.65","-2.594","0.0"],
    [1422548,"2026-07-26 23:20:00","926","2.086","192.1","4.312","187.7","1015.863","26.78","62.59","-2.593","0.0"],
    [1422549,"2026-07-26 23:30:00","927","2.379","190.2","5.39","181.2","1015.872","26.69","64.13","-2.593","0.0"],
    [1422550,"2026-07-26 23:40:00","928","2.134","192.9","4.606","181","1015.824","26.69","64.63","-2.5869999999999997","0.0"],
    [1422551,"2026-07-26 23:50:00","929","2.738","188.8","5.39","169.2","1015.7819999999999","26.64","65.61","-2.592","0.0"],
    [1422552,"2026-07-27 00:00:00","930","3.201","183.8","5.782","174.7","1015.716","26.67","66.61","-2.5789999999999997","0.0"],
    [1422553,"2026-07-27 00:10:00","931","2.968","183.4","5.39","180.5","1015.622","26.67","67.98","-2.5839999999999996","0.0"],
    [1422554,"2026-07-27 00:20:00","932","3.634","173.2","6.86","176.2","1015.535","26.69","68.98","-2.552","0.0"],
    [1422555,"2026-07-27 00:30:00","933","2.7680000000000002","171.8","5.978","174.7","1015.4689999999999","26.75","69.72","-2.512","0.0"],
    [1422556,"2026-07-27 00:40:00","934","2.019","202.8","5.096","198.3","1015.3889999999999","26.71","67.94","-2.59","0.0"],
    [1422557,"2026-07-27 00:50:00","935","0.8809999999999999","197.2","2.254","222.1","1015.326","26.47","67.01","-2.6210000000000004","0.0"],
    [1422558,"2026-07-27 01:00:00","936","0.6940000000000001","194.6","1.764","218.5","1015.307","26.08","67.79","-3.193","0.0"],
    [1422559,"2026-07-27 01:10:00","937","0.8","270.8","2.156","272.5","1015.29","25.84","68.08","-2.785","0.0"],
    [1422560,"2026-07-27 01:20:00","938","1.785","277.8","2.646","270.5","1015.316","24.84","69.7","-2.5789999999999997","0.0"],
    [1422561,"2026-07-27 01:30:00","939","1.57","280.0","2.254","273.4","1015.305","24.31","71.08","-2.593","0.0"],
    [1422562,"2026-07-27 01:40:00","940","1.187","279.7","1.96","287.1","1015.334","24.21","71.98","-2.593","0.0"],
    [1422563,"2026-07-27 01:50:00","941","1.4069999999999998","283.8","2.058","283","1015.421","24.13","72.96","-2.594","0.0"],
    [1422564,"2026-07-27 02:00:00","942","1.209","294.0","2.548","282","1015.445","24.02","73.67","-2.6010000000000004","0.0"],
    [1422565,"2026-07-27 02:10:00","943","1.139","294.9","2.646","301.1","1015.47","24.05","73.68","-2.605","0.0"],
    [1422566,"2026-07-27 02:20:00","944","1.6380000000000001","307.2","3.038","322.3","1015.437","24.12","73.59","-2.688","0.0"],
    [1422567,"2026-07-27 02:30:00","945","1.8519999999999999","330.8","3.234","332.4","1015.439","24.87","72.07","-2.682","0.0"],
    [1422568,"2026-07-27 02:40:00","946","2.14","321.9","3.626","321.9","1015.449","25.24","70.84","-2.6060000000000003","0.0"],
    [1422569,"2026-07-27 02:50:00","947","2.2569999999999997","298.2","3.43","331.4","1015.55","24.7","71.51","-2.479","0.0"],
    [1422570,"2026-07-27 03:00:00","948","2.085","297.7","3.234","296.1","1015.6389999999999","24.03","73.34","-2.5980000000000003","0.0"],
    [1422571,"2026-07-27 03:10:00","949","2.412","313.6","3.332","294.3","1015.637","24.28","72.39","-2.594","0.0"],
    [1422572,"2026-07-27 03:20:00","950","2.283","303.6","3.626","338.4","1015.703","24.38","71.66","-2.596","0.0"],
    [1422573,"2026-07-27 03:30:00","951","2.414","303.6","3.626","309.3","1015.666","24.37","71.65","-2.5989999999999998","0.0"],
    [1422574,"2026-07-27 03:40:00","952","2.464","295.4","4.116","290.1","1015.696","24.16","71.3","-2.508","0.0"],
    [1422575,"2026-07-27 03:50:00","953","3.505","307.4","4.9","302.3","1015.717","23.94","70.38","-2.526","0.0"],
    [1422576,"2026-07-27 04:00:00","954","3.262","303.4","5.096","319.5","1015.738","23.96","69.45","-2.4290000000000003","0.0"],
    [1422577,"2026-07-27 04:10:00","955","3.27","307.0","4.9","310.1","1015.7869999999999","23.91","68.26","-2.233","0.0"],
    [1422578,"2026-07-27 04:20:00","956","3.185","310.9","5.194","310.2","1015.863","23.82","66.59","-2.02","0.0"],
    [1422579,"2026-07-27 04:30:00","957","3.3560000000000003","309.3","5.096","305.6","1015.927","23.85","64.53","-1.633","0.0"],
    [1422580,"2026-07-27 04:40:00","958","3.145","310.3","6.076","320.9","1016.03","23.94","61.84","-0.303","0.0"],
    [1422581,"2026-07-27 04:50:00","959","4.071000000000001","312.8","6.762","312.3","1016.1289999999999","24.16","56.35","2.903","0.0"],
    [1422582,"2026-07-27 05:00:00","960","3.5669999999999997","315.3","5.488","316.9","1016.179","24.23","53.81","9.23","0.0"],
    [1422583,"2026-07-27 05:10:00","961","3.299","315.6","5.194","314","1016.2330000000001","24.23","52.71","19.62","0.0"],
    [1422584,"2026-07-27 05:20:00","962","3.216","312.4","4.802","315.2","1016.289","24.27","52.05","33.53","0.0"],
    [1422585,"2026-07-27 05:30:00","963","3.293","315.9","4.802","318","1016.363","24.32","51.63","50.89","0.0"],
    [1422586,"2026-07-27 05:40:00","964","3.116","311.4","5.39","317","1016.461","24.43","50.84","71.11","0.0"],
    [1422587,"2026-07-27 05:50:00","965","3.532","313.4","4.9","310.2","1016.498","24.48","50.51","92.9","0.0"],
    [1422588,"2026-07-27 06:00:00","966","3.673","314.9","5.684","303.3","1016.582","24.69","49.34","119.6","0.0"],
    [1422589,"2026-07-27 06:10:00","967","3.49","313.7","5.684","313.7","1016.654","24.85","48.57","147.3","0.0"],
    [1422590,"2026-07-27 06:20:00","968","3.1889999999999996","314.1","4.998","311.3","1016.7919999999999","25.01","48.41","171.8","0.0"],
    [1422591,"2026-07-27 06:30:00","969","3.59","312.3","5.194","301.1","1016.8839999999999","25.11","47.95","196.6","0.0"],
    [1422592,"2026-07-27 06:40:00","970","4.1530000000000005","313.5","5.586","317.2","1016.953","25.13","47.77","221.7","0.0"],
    [1422593,"2026-07-27 06:50:00","971","3.825","314.8","5.39","306.2","1017.11","25.21","47.76","245.0","0.0"],
    [1422594,"2026-07-27 07:00:00","972","3.577","310.7","5.194","313.5","1017.24","25.44","47.5","281.7","0.0"],
    [1422595,"2026-07-27 07:10:00","973","3.263","312.0","5.096","314","1017.3","25.73","47.41","292.4","0.0"],
    [1422596,"2026-07-27 07:20:00","974","2.261","320.5","4.116","309.4","1017.3919999999999","26.07","46.94","324.9","0.0"],
    [1422597,"2026-07-27 07:30:00","975","2.911","21.66","5.194","31.98","1017.3989999999999","26.82","54.44","383.8","0.0"],
    [1422598,"2026-07-27 07:40:00","976","3.5180000000000002","30.44","5.586","25.1","1017.436","26.57","58.32","404.8","0.0"],
    [1422599,"2026-07-27 07:50:00","977","3.428","47.74","6.272","59.51","1017.505","26.79","57.41","440.6","0.0"],
    [1422600,"2026-07-27 08:00:00","978","3.275","53.49","5.39","56.6","1017.552","27.14","56.25","484.5","0.0"],
    [1422601,"2026-07-27 08:10:00","979","3.5789999999999997","50.71","5.88","41.34","1017.576","26.77","57.83","403.7","0.0"],
    [1422602,"2026-07-27 08:20:00","980","4.1819999999999995","63.65","6.272","85","1017.555","26.71","59.65","499.1","0.0"],
    [1422603,"2026-07-27 08:30:00","981","4.058","67.29","6.174","65.37","1017.591","26.89","59.79","542.5","0.0"],
    [1422604,"2026-07-27 08:40:00","982","4.495","74.91","6.468","85.9","1017.702","26.85","60.72","606.1","0.0"],
    [1422605,"2026-07-27 08:50:00","983","4.408","71.57","6.664","56.22","1017.7689999999999","27.22","61.49","606.5","0.0"],
    [1422606,"2026-07-27 09:00:00","984","4.598","70.89","6.076","62.57","1017.8330000000001","27.05","62.5","663.3","0.0"],
    [1422607,"2026-07-27 09:10:00","985","4.622","72.78","6.37","84","1017.8839999999999","27.06","62.49","692.2","0.0"],
    [1422608,"2026-07-27 09:20:00","986","4.5","74.8","6.762","74.54","1017.863","27.21","62.09","722.5","0.0"],
    [1422609,"2026-07-27 09:30:00","987","4.736000000000001","83.8","7.252","79.38","1017.9060000000001","27.07","62.38","747.4","0.0"],
    [1422610,"2026-07-27 09:40:00","988","4.973","80.7","7.252","87.3","1017.966","27.08","61.85","771.5","0.0"],
    [1422611,"2026-07-27 09:50:00","989","5.315","83.1","7.84","53.12","1017.957","27.14","60.77","795.1","0.0"],
    [1422612,"2026-07-27 10:00:00","990","5.455","85.2","7.742","80.8","1018.0","27.19","60.57","814.0","0.0"],
    [1422613,"2026-07-27 10:10:00","991","5.316","85.3","7.84","87.4","1017.985","27.08","61.54","837.0","0.0"],
    [1422614,"2026-07-27 10:20:00","992","5.7","85.0","7.742","92.8","1017.993","26.88","62.56","855.0","0.0"],
    [1422615,"2026-07-27 10:30:00","993","5.081","83.1","7.938","82","1017.9580000000001","27.31","61.89","870.0","0.0"],
    [1422616,"2026-07-27 10:40:00","994","5.29","78.87","8.04","78.42","1017.957","27.36","62.43","883.0","0.0"],
    [1422617,"2026-07-27 10:50:00","995","5.013999999999999","89.6","7.448","95.1","1017.946","27.0","64.37","892.0","0.0"],
    [1422618,"2026-07-27 11:00:00","996","5.351","86.2","7.644","72.21","1017.962","27.02","65.15","899.0","0.0"],
    [1422619,"2026-07-27 11:10:00","997","5.317","87.6","7.35","83.4","1017.9960000000001","27.03","65.76","906.0","0.0"],
    [1422620,"2026-07-27 11:20:00","998","4.957","84.8","7.154","92.9","1017.942","27.49","64.56","909.0","0.0"],
    [1422621,"2026-07-27 11:30:00","999","4.718999999999999","92.7","7.644","83.6","1017.8960000000001","27.39","65.28","911.0","0.0"],
    [1422622,"2026-07-27 11:40:00","1000","3.988","92.5","7.644","91.2","1017.867","27.73","64.24","911.0","0.0"],
    [1422623,"2026-07-27 11:50:00","1001","4.295","91.9","6.37","97.8","1017.883","27.56","64.91","912.0","0.0"],
    [1422624,"2026-07-27 12:00:00","1002","4.6339999999999995","87.9","7.35","84","1017.814","27.63","65.33","913.0","0.0"],
    [1422625,"2026-07-27 12:10:00","1003","4.2010000000000005","92.1","6.468","84.5","1017.722","27.7","66.53","913.0","0.0"],
    [1422626,"2026-07-27 12:20:00","1004","4.051","94.7","6.664","84.4","1017.6260000000001","28.03","66.13","913.0","0.0"],
    [1422627,"2026-07-27 12:30:00","1005","4.143","94.3","6.174","100.9","1017.565","27.96","66.61","910.0","0.0"],
    [1422628,"2026-07-27 12:40:00","1006","4.4830000000000005","95.7","7.056","103","1017.459","27.8","67.65","908.0","0.0"],
    [1422629,"2026-07-27 12:50:00","1007","4.053","93.1","7.056","80.6","1017.418","28.13","66.97","903.0","0.0"],
    [1422630,"2026-07-27 13:00:00","1008","3.865","99.9","6.566","94.3","1017.3489999999999","28.35","67.06","897.0","0.0"],
    [1422631,"2026-07-27 13:10:00","1009","3.92","96.4","6.37","79.38","1017.336","28.63","66.14","890.0","0.0"],
    [1422632,"2026-07-27 13:20:00","1010","3.468","98.3","6.86","87.3","1017.3","28.88","66.01","885.0","0.0"],
    [1422633,"2026-07-27 13:30:00","1011","3.071","106.3","6.468","110.4","1017.2339999999999","29.11","65.36","876.0","0.0"],
    [1422634,"2026-07-27 13:40:00","1012","3.008","105.5","5.978","114.7","1017.1669999999999","28.98","65.44","863.0","0.0"],
    [1422635,"2026-07-27 13:50:00","1013","3.0589999999999997","106.0","6.37","87","1017.1080000000001","29.09","63.95","846.0","0.0"],
    [1422636,"2026-07-27 14:00:00","1014","3.275","102.3","6.174","94.5","1017.0239999999999","28.96","64.32","832.0","0.0"],
    [1422637,"2026-07-27 14:10:00","1015","2.142","104.7","5.194","87.3","1016.922","29.41","62.13","814.0","0.0"],
    [1422638,"2026-07-27 14:20:00","1016","2.4219999999999997","103.1","5.586","107.8","1016.795","29.24","63.83","790.9","0.0"],
    [1422639,"2026-07-27 14:30:00","1017","3.123","96.4","6.664","85.3","1016.71","29.3","62.83","771.4","0.0"],
    [1422640,"2026-07-27 14:40:00","1018","2.407","109.3","5.096","102.1","1016.632","29.16","62.91","745.3","0.0"],
    [1422641,"2026-07-27 14:50:00","1019","2.9539999999999997","190.6","5.684","211","1016.576","29.75","58.82","725.2","0.0"],
    [1422642,"2026-07-27 15:00:00","1020","3.069","198.6","5.88","231.8","1016.558","29.43","59.54","700.9","0.0"],
    [1422643,"2026-07-27 15:10:00","1021","3.498","214.0","6.174","164","1016.4989999999999","29.33","59.62","676.6","0.0"],
    [1422644,"2026-07-27 15:20:00","1022","3.2560000000000002","209.0","5.488","199.3","1016.441","29.38","58.1","649.8","0.0"],
    [1422645,"2026-07-27 15:30:00","1023","3.904","216.3","6.272","216.6","1016.4069999999999","29.23","55.53","620.1","0.0"],
    [1422646,"2026-07-27 15:40:00","1024","2.873","196.9","7.056","172.8","1016.413","29.4","52.04","587.5","0.0"],
    [1422647,"2026-07-27 15:50:00","1025","3.542","209.6","6.958","210.4","1016.368","29.58","47.92","531.4","0.0"],
    [1422648,"2026-07-27 16:00:00","1026","3.411","207.3","7.154","192.6","1016.3989999999999","29.51","47.45","525.6","0.0"],
    [1422649,"2026-07-27 16:10:00","1027","3.4419999999999997","209.6","6.468","194.3","1016.39","29.58","47.18","472.9","0.0"],
    [1422650,"2026-07-27 16:20:00","1028","4.245","213.9","6.86","210.5","1016.3839999999999","29.13","48.49","468.0","0.0"],
    [1422651,"2026-07-27 16:30:00","1029","4.111000000000001","221.5","7.154","226.2","1016.314","29.19","49.08","436.3","0.0"],
    [1422652,"2026-07-27 16:40:00","1030","4.314","214.5","7.644","222.4","1016.314","29.05","48.96","405.3","0.0"],
    [1422653,"2026-07-27 16:50:00","1031","3.367","218.3","6.664","218.7","1016.2610000000001","29.03","48.22","373.0","0.0"],
    [1422654,"2026-07-27 17:00:00","1032","4.162","214.2","11.17","240.9","1016.212","28.81","47.54","340.8","0.0"],
    [1422655,"2026-07-27 17:10:00","1033","3.0269999999999997","213.2","7.154","207","1016.203","28.98","47.5","307.5","0.0"],
    [1422656,"2026-07-27 17:20:00","1034","3.6689999999999996","212.8","6.958","218.3","1016.181","28.85","46.12","276.9","0.0"],
    [1422657,"2026-07-27 17:30:00","1035","3.747","217.7","7.056","206.9","1016.179","28.7","45.06","245.6","0.0"],
    [1422658,"2026-07-27 17:40:00","1036","3.4760000000000004","225.1","6.664","235.6","1016.203","28.59","44.59","215.6","0.0"],
    [1422659,"2026-07-27 17:50:00","1037","3.924","223.5","6.762","233.5","1016.148","28.43","44.32","185.6","0.0"],
    [1422660,"2026-07-27 18:00:00","1038","3.58","224.1","8.13","204.3","1016.105","28.33","45.21","155.5","0.0"],
    [1422661,"2026-07-27 18:10:00","1039","3.6860000000000004","221.4","6.468","210.4","1016.1210000000001","28.2","45.86","128.5","0.0"],
    [1422662,"2026-07-27 18:20:00","1040","3.7119999999999997","220.4","6.272","222.8","1016.1619999999999","28.14","44.94","102.6","0.0"],
    [1422663,"2026-07-27 18:30:00","1041","3.792","221.7","5.684","221.4","1016.2","27.93","45.96","78.03","0.0"],
    [1422664,"2026-07-27 18:40:00","1042","3.835","217.6","7.35","224.2","1016.2719999999999","27.74","47.57","56.02","0.0"],
    [1422665,"2026-07-27 18:50:00","1043","3.766","221.3","6.37","222.2","1016.301","27.57","49.76","35.38","0.0"],
    [1422666,"2026-07-27 19:00:00","1044","4.008","221.7","6.86","192","1016.355","27.28","52.65","18.12","0.0"],
    [1422667,"2026-07-27 19:10:00","1045","3.196","225.6","5.488","212.9","1016.41","27.07","54.29","6.86","0.0"],
    [1422668,"2026-07-27 19:20:00","1046","3.112","222.3","5.488","198.7","1016.5269999999999","26.91","54.99","1.179","0.0"],
    [1422669,"2026-07-27 19:30:00","1047","3.612","221.0","5.586","222.1","1016.643","26.87","55.24","-1.374","0.0"],
    [1422670,"2026-07-27 19:40:00","1048","3.448","226.4","5.194","215.9","1016.643","26.71","56.86","-2.373","0.0"],
    [1422671,"2026-07-27 19:50:00","1049","3.665","223.1","6.076","228.1","1016.722","26.67","57.4","-2.594","0.0"],
    [1422672,"2026-07-27 20:00:00","1050","3.596","222.8","5.88","203.3","1016.855","26.65","57.85","-2.593","0.0"],
    [1422673,"2026-07-27 20:10:00","1051","4.146","222.2","6.958","218.5","1016.957","26.6","57.74","-2.5980000000000003","0.0"],
    [1422674,"2026-07-27 20:20:00","1052","3.0439999999999996","225.2","4.508","242.7","1017.039","26.44","58.74","-2.593","0.0"],
    [1422675,"2026-07-27 20:30:00","1053","2.713","228.0","4.704","232.5","1017.1310000000001","26.35","58.69","-2.6","0.0"],
    [1422676,"2026-07-27 20:40:00","1054","2.416","228.0","4.214","205.1","1017.2080000000001","26.36","58.06","-2.654","0.0"],
    [1422677,"2026-07-27 20:50:00","1055","1.764","235.0","3.43","208.4","1017.263","26.28","56.26","-3.139","0.0"],
    [1422678,"2026-07-27 21:00:00","1056","1.188","232.5","2.45","210.6","1017.2919999999999","26.15","55.14","-3.33","0.0"],
    [1422679,"2026-07-27 21:10:00","1057","1.554","230.4","2.352","245.7","1017.2869999999999","26.25","54.3","-3.347","0.0"],
    [1422680,"2026-07-27 21:20:00","1058","0.9359999999999999","232.5","1.666","235.9","1017.2769999999999","26.13","54.83","-3.3689999999999998","0.0"],
    [1422681,"2026-07-27 21:30:00","1059","0.433","264.7","1.372","245.1","1017.29","25.91","54.81","-3.35","0.0"],
    [1422682,"2026-07-27 21:40:00","1060","0.828","238.5","1.47","217.4","1017.31","25.71","55.95","-3.552","0.0"],
    [1422683,"2026-07-27 21:50:00","1061","1.0590000000000002","214.7","2.45","212.4","1017.325","25.75","56.8","-3.2880000000000003","0.0"],
    [1422684,"2026-07-27 22:00:00","1062","0.995","204.6","2.548","212.2","1017.3580000000001","25.64","58.95","-3.339","0.0"],
    [1422685,"2026-07-27 22:10:00","1063","1.2570000000000001","204.9","2.156","216.2","1017.398","25.51","58.07","-3.358","0.0"],
    [1422686,"2026-07-27 22:20:00","1064","1.636","228.3","2.45","240.6","1017.378","25.72","55.99","-3.218","0.0"],
    [1422687,"2026-07-27 22:30:00","1065","1.6","230.5","2.45","229.4","1017.3919999999999","25.77","55.3","-3.08","0.0"],
    [1422688,"2026-07-27 22:40:00","1066","0.9179999999999999","245.7","1.568","211.5","1017.425","25.49","55.58","-3.217","0.0"],
    [1422689,"2026-07-27 22:50:00","1067","0.905","243.8","1.568","239","1017.462","25.26","55.68","-3.3160000000000003","0.0"],
    [1422690,"2026-07-27 23:00:00","1068","0.8440000000000001","249.3","1.764","227.9","1017.418","25.42","55.08","-2.9539999999999997","0.0"],
    [1422691,"2026-07-27 23:10:00","1069","0.941","252.6","2.156","262.3","1017.377","25.3","57.18","-3.05","0.0"],
    [1422692,"2026-07-27 23:20:00","1070","0.9309999999999999","252.6","1.666","253.6","1017.357","25.33","59.22","-2.93","0.0"],
    [1422693,"2026-07-27 23:30:00","1071","0.978","244.1","2.058","248.1","1017.3430000000001","25.16","60.19","-3.076","0.0"],
    [1422694,"2026-07-27 23:40:00","1072","1.324","235.4","2.156","230.3","1017.329","25.34","57.39","-3.1289999999999996","0.0"],
    [1422695,"2026-07-27 23:50:00","1073","1.0070000000000001","260.7","2.254","266.4","1017.32","25.21","57.91","-2.823","0.0"],
    [1422696,"2026-07-28 00:00:00","1074","1.3219999999999998","274.0","2.45","269.3","1017.355","24.82","57.17","-2.839","0.0"],
    [1422697,"2026-07-28 00:10:00","1075","1.119","279.5","2.254","269.6","1017.3510000000001","24.49","57.76","-2.986","0.0"],
    [1422698,"2026-07-28 00:20:00","1076","0.927","275.4","1.96","270.3","1017.302","24.22","58.45","-2.9130000000000003","0.0"],
    [1422699,"2026-07-28 00:30:00","1077","0.726","274.5","1.862","279.4","1017.2410000000001","24.03","59.0","-2.7119999999999997","0.0"],
    [1422700,"2026-07-28 00:40:00","1078","0.47","262.6","1.568","247.4","1017.188","23.71","59.96","-3.145","0.0"],
    [1422701,"2026-07-28 00:50:00","1079","0.9059999999999999","271.2","1.666","250.9","1017.188","24.03","58.51","-2.656","0.0"],
    [1422702,"2026-07-28 01:00:00","1080","0.826","262.0","1.47","280.5","1017.183","23.9","58.94","-2.66","0.0"],
    [1422703,"2026-07-28 01:10:00","1081","0.522","251.7","1.666","247.4","1017.143","23.79","58.99","-2.6510000000000002","0.0"],
    [1422704,"2026-07-28 01:20:00","1082","0.28600000000000003","254.3","1.372","265.6","1017.155","23.58","59.58","-2.736","0.0"],
    [1422705,"2026-07-28 01:30:00","1083","0.287","270.9","0.882","292.3","1017.153","23.44","60.07","-2.661","0.0"],
    [1422706,"2026-07-28 01:40:00","1084","0.52","279.4","1.274","288.8","1017.193","23.28","60.47","-2.6660000000000004","0.0"],
    [1422707,"2026-07-28 01:50:00","1085","0.626","277.9","1.274","273","1017.182","23.16","61.15","-2.658","0.0"],
    [1422708,"2026-07-28 02:00:00","1086","0.43799999999999994","288.0","1.078","269.2","1017.195","22.99","61.9","-2.6630000000000003","0.0"],
    [1422709,"2026-07-28 02:10:00","1087","0.652","271.4","1.47","278.8","1017.215","22.78","62.85","-2.66","0.0"],
    [1422710,"2026-07-28 02:20:00","1088","0.452","263.7","0.98","252.4","1017.237","22.8","62.77","-2.658","0.0"],
    [1422711,"2026-07-28 02:30:00","1089","0.67","272.2","1.274","263.8","1017.253","22.81","63.04","-2.658","0.0"],
    [1422712,"2026-07-28 02:40:00","1090","0.904","276.7","1.372","275.3","1017.2389999999999","22.84","62.89","-2.657","0.0"],
    [1422713,"2026-07-28 02:50:00","1091","0.9390000000000001","273.9","1.568","273.5","1017.2439999999999","22.77","63.13","-2.657","0.0"],
    [1422714,"2026-07-28 03:00:00","1092","0.562","267.7","1.176","272","1017.188","22.6","63.82","-2.656","0.0"],
    [1422715,"2026-07-28 03:10:00","1093","0.755","272.9","1.372","284","1017.1460000000001","22.62","63.73","-2.654","0.0"],
    [1422716,"2026-07-28 03:20:00","1094","1.016","270.7","1.862","279.9","1017.117","22.55","63.99","-2.657","0.0"],
    [1422717,"2026-07-28 03:30:00","1095","1.2770000000000001","269.8","1.862","276.1","1017.197","22.74","63.14","-2.658","0.0"],
    [1422718,"2026-07-28 03:40:00","1096","1.249","271.5","1.96","276.3","1017.238","22.7","63.25","-2.6510000000000002","0.0"],
    [1422719,"2026-07-28 03:50:00","1097","1.024","276.4","1.96","271.6","1017.2230000000001","22.6","63.76","-2.657","0.0"],
    [1422720,"2026-07-28 04:00:00","1098","0.74","272.2","1.862","288.1","1017.2289999999999","22.58","64.11","-2.658","0.0"],
    [1422721,"2026-07-28 04:10:00","1099","1.008","272.3","1.568","282.3","1017.21","22.68","64.25","-2.658","0.0"],
    [1422722,"2026-07-28 04:20:00","1100","1.1440000000000001","272.5","1.764","272.6","1017.2139999999999","22.69","64.57","-2.5639999999999996","0.0"],
    [1422723,"2026-07-28 04:30:00","1101","1.3159999999999998","274.2","1.862","276.9","1017.227","22.51","65.43","-1.714","0.0"],
    [1422724,"2026-07-28 04:40:00","1102","1.214","278.8","1.96","285.4","1017.194","22.33","66.49","-0.28","0.0"],
    [1422725,"2026-07-28 04:50:00","1103","0.955","280.5","1.47","301.7","1017.203","22.38","67.07","2.702","0.0"],
    [1422726,"2026-07-28 05:00:00","1104","0.738","273.0","1.372","281.4","1017.21","22.58","67.19","9.21","0.0"],
    [1422727,"2026-07-28 05:10:00","1105","0.6659999999999999","264.1","1.274","267.6","1017.225","22.78","66.69","20.78","0.0"],
    [1422728,"2026-07-28 05:20:00","1106","0.755","260.7","1.568","259.6","1017.252","22.98","66.15","35.49","0.0"],
    [1422729,"2026-07-28 05:30:00","1107","1.034","269.5","1.666","238.1","1017.2439999999999","22.51","69.07","48.67","0.0"],
    [1422730,"2026-07-28 05:40:00","1108","1.3159999999999998","270.7","2.058","265.3","1017.206","22.59","68.42","67.48","0.0"],
    [1422731,"2026-07-28 05:50:00","1109","1.5919999999999999","268.2","2.352","271.6","1017.2280000000001","22.88","67.29","85.7","0.0"],
    [1422732,"2026-07-28 06:00:00","1110","1.3769999999999998","264.7","2.156","265","1017.308","23.1","66.44","109.7","0.0"],
    [1422733,"2026-07-28 06:10:00","1111","1.3419999999999999","270.0","2.254","274.4","1017.355","23.47","65.43","137.2","0.0"],
    [1422734,"2026-07-28 06:20:00","1112","1.305","272.1","1.96","272.9","1017.395","23.98","64.16","163.2","0.0"],
    [1422735,"2026-07-28 06:30:00","1113","1.194","279.4","1.862","275.9","1017.493","24.62","62.5","190.4","0.0"],
    [1422736,"2026-07-28 06:40:00","1114","1.2670000000000001","277.2","1.96","264.9","1017.525","25.07","61.21","217.3","0.0"],
    [1422737,"2026-07-28 06:50:00","1115","1.357","276.1","2.352","284.7","1017.559","25.55","61.37","245.5","0.0"],
    [1422738,"2026-07-28 07:00:00","1116","1.459","272.6","2.254","272.2","1017.6410000000001","25.79","60.57","275.1","0.0"],
    [1422739,"2026-07-28 07:10:00","1117","1.047","278.2","2.058","258.2","1017.7180000000001","26.15","60.88","301.7","0.0"],
    [1422740,"2026-07-28 07:20:00","1118","1.253","280.1","2.058","275.3","1017.732","26.59","61.61","328.8","0.0"],
    [1422741,"2026-07-28 07:30:00","1119","0.9279999999999999","298.5","2.156","285.7","1017.784","27.01","64.69","360.1","0.0"],
    [1422742,"2026-07-28 07:40:00","1120","0.7040000000000001","242.2","2.352","225.5","1017.7919999999999","27.14","66.23","391.2","0.0"],
    [1422743,"2026-07-28 07:50:00","1121","1.0170000000000001","195.2","3.136","177.9","1017.822","27.59","66.02","423.7","0.0"],
    [1422744,"2026-07-28 08:00:00","1122","1.995","184.0","4.41","200.4","1017.828","27.5","67.13","463.6","0.0"],
    [1422745,"2026-07-28 08:10:00","1123","1.8230000000000002","205.8","4.998","174.5","1017.883","27.65","65.5","499.8","0.0"],
    [1422746,"2026-07-28 08:20:00","1124","2.31","194.0","5.194","210.5","1017.909","27.75","65.79","537.6","0.0"],
    [1422747,"2026-07-28 08:30:00","1125","2.523","190.7","4.606","170.8","1017.9739999999999","28.04","66.96","542.3","0.0"],
    [1422748,"2026-07-28 08:40:00","1126","2.299","203.0","4.116","181.5","1017.998","28.07","67.0","605.5","0.0"],
    [1422749,"2026-07-28 08:50:00","1127","2.6660000000000004","201.7","5.488","209.4","1018.012","28.36","66.61","610.5","0.0"],
    [1422750,"2026-07-28 09:00:00","1128","3.0989999999999998","199.3","6.958","184.8","1018.012","28.08","68.72","669.4","0.0"],
    [1422751,"2026-07-28 09:10:00","1129","3.5269999999999997","189.9","6.566","188.3","1018.062","28.26","68.36","695.8","0.0"],
    [1422752,"2026-07-28 09:20:00","1130","3.202","200.4","6.174","203.6","1018.125","28.35","68.69","721.0","0.0"],
    [1422753,"2026-07-28 09:30:00","1131","3.77","194.7","7.84","182","1018.185","28.59","67.98","744.1","0.0"],
    [1422754,"2026-07-28 09:40:00","1132","3.74","194.3","7.154","196.6","1018.1669999999999","28.7","68.1","770.9","0.0"],
    [1422755,"2026-07-28 09:50:00","1133","4.225","199.8","7.84","222.4","1018.227","28.83","67.95","790.3","0.0"],
    [1422756,"2026-07-28 10:00:00","1134","4.401","198.7","8.92","209.8","1018.2510000000001","28.98","67.79","810.0","0.0"],
    [1422757,"2026-07-28 10:10:00","1135","4.135","201.9","7.742","179.9","1018.2410000000001","29.13","67.35","833.0","0.0"],
    [1422758,"2026-07-28 10:20:00","1136","4.302","204.3","8.53","224.5","1018.2189999999999","29.61","65.74","850.0","0.0"],
    [1422759,"2026-07-28 10:30:00","1137","5.537000000000001","211.4","9.9","210.6","1018.211","29.44","65.2","864.0","0.0"],
    [1422760,"2026-07-28 10:40:00","1138","5.567","213.1","10","226.6","1018.172","29.46","64.64","872.0","0.0"],
    [1422761,"2026-07-28 10:50:00","1139","5.477","208.3","9.51","221.9","1018.1289999999999","29.42","64.99","883.0","0.0"],
    [1422762,"2026-07-28 11:00:00","1140","4.869","205.3","9.7","224.7","1018.1139999999999","29.88","64.34","889.0","0.0"],
    [1422763,"2026-07-28 11:10:00","1141","6.071000000000001","213.6","10.39","220.7","1018.125","29.64","65.09","895.0","0.0"],
    [1422764,"2026-07-28 11:20:00","1142","5.519","212.8","10.19","211.1","1018.069","29.77","65.32","901.0","0.0"],
    [1422765,"2026-07-28 11:30:00","1143","5.232","209.8","9.7","209.5","1018.0210000000001","29.91","64.58","903.0","0.0"],
    [1422766,"2026-07-28 11:40:00","1144","6.566","215.0","11.07","214.8","1017.987","29.97","64.04","907.0","0.0"],
    [1422767,"2026-07-28 11:50:00","1145","6.3020000000000005","212.8","10.58","226.5","1017.943","29.83","64.96","912.0","0.0"],
    [1422768,"2026-07-28 12:00:00","1146","6.122999999999999","210.8","11.17","196.4","1017.909","29.96","64.38","912.0","0.0"],
    [1422769,"2026-07-28 12:10:00","1147","5.896","212.1","9.8","224.3","1017.807","30.09","64.39","923.0","0.0"],
    [1422770,"2026-07-28 12:20:00","1148","5.76","212.1","10.78","229.7","1017.793","30.04","64.41","924.0","0.0"],
    [1422771,"2026-07-28 12:30:00","1149","6.773","215.3","10.78","222.3","1017.78","29.81","63.97","925.0","0.0"],
    [1422772,"2026-07-28 12:40:00","1150","5.596","213.9","9.6","212.8","1017.74","30.16","62.86","920.0","0.0"],
    [1422773,"2026-07-28 12:50:00","1151","4.859","210.1","9.02","222.3","1017.681","30.39","60.81","921.0","0.0"],
    [1422774,"2026-07-28 13:00:00","1152","5.9079999999999995","217.4","10.49","224.1","1017.6389999999999","30.32","61.62","915.0","0.0"],
    [1422775,"2026-07-28 13:10:00","1153","6.215","212.4","10.88","230","1017.54","29.99","62.44","912.0","0.0"],
    [1422776,"2026-07-28 13:20:00","1154","6.207000000000001","211.9","10.78","209.4","1017.436","30.04","62.67","901.0","0.0"],
    [1422777,"2026-07-28 13:30:00","1155","5.1080000000000005","211.1","10.29","221","1017.3739999999999","30.16","62.68","889.0","0.0"],
    [1422778,"2026-07-28 13:40:00","1156","6.832999999999999","212.9","10.78","222","1017.357","29.98","62.16","873.0","0.0"],
    [1422779,"2026-07-28 13:50:00","1157","6.666","214.1","12.94","238.9","1017.323","29.89","62.2","856.0","0.0"],
    [1422780,"2026-07-28 14:00:00","1158","6.795","216.2","11.37","230","1017.34","30.03","60.47","836.0","0.0"],
    [1422781,"2026-07-28 14:10:00","1159","5.129","214.1","10.39","209.6","1017.2860000000001","30.3","60.44","811.0","0.0"],
    [1422782,"2026-07-28 14:20:00","1160","5.93","218.1","10.29","218.3","1017.26","30.25","60.42","790.3","0.0"],
    [1422783,"2026-07-28 14:30:00","1161","6.6610000000000005","217.5","11.37","231.3","1017.2489999999999","29.94","61.26","768.7","0.0"],
    [1422784,"2026-07-28 14:40:00","1162","6.419","217.9","10.49","224","1017.184","29.97","62.19","741.9","0.0"],
    [1422785,"2026-07-28 14:50:00","1163","6.782","219.1","10.78","230.6","1017.19","29.93","61.51","719.9","0.0"],
    [1422786,"2026-07-28 15:00:00","1164","5.614","215.3","10.29","230.4","1017.181","30.09","61.12","694.8","0.0"],
    [1422787,"2026-07-28 15:10:00","1165","6.289","219.9","10.39","227","1017.217","29.65","63.89","666.3","0.0"],
    [1422788,"2026-07-28 15:20:00","1166","5.949","214.4","10.39","213.8","1017.1569999999999","29.86","62.9","635.4","0.0"],
    [1422789,"2026-07-28 15:30:00","1167","5.131","218.6","9.21","220.1","1017.074","29.81","63.41","607.0","0.0"],
    [1422790,"2026-07-28 15:40:00","1168","5.595","220.6","10.88","227.4","1016.9989999999999","29.62","63.18","575.5","0.0"],
    [1422791,"2026-07-28 15:50:00","1169","6.015","221.4","9.51","202.4","1016.94","29.47","64.07","521.1","0.0"],
    [1422792,"2026-07-28 16:00:00","1170","4.91","223.0","8.82","246.3","1016.993","29.71","62.5","515.5","0.0"],
    [1422793,"2026-07-28 16:10:00","1171","4.621","212.4","8.82","205.1","1017.051","29.61","64.33","455.0","0.0"],
    [1422794,"2026-07-28 16:20:00","1172","5.284","216.0","9.31","229.2","1017.0239999999999","29.55","64.0","448.9","0.0"],
    [1422795,"2026-07-28 16:30:00","1173","4.962","219.2","10.19","228.8","1016.967","29.46","64.11","419.0","0.0"],
    [1422796,"2026-07-28 16:40:00","1174","5.944","218.2","10.39","226.6","1016.8939999999999","29.28","64.07","386.4","0.0"],
    [1422797,"2026-07-28 16:50:00","1175","6.085","218.3","9.51","212.6","1016.904","29.11","66.3","360.4","0.0"],
    [1422798,"2026-07-28 17:00:00","1176","5.199","222.0","9.8","213.2","1016.8439999999999","29.05","66.45","327.9","0.0"],
    [1422799,"2026-07-28 17:10:00","1177","5.252000000000001","225.6","10.19","217.8","1016.865","28.91","66.87","298.2","0.0"],
    [1422800,"2026-07-28 17:20:00","1178","4.968999999999999","220.5","8.23","226.1","1016.824","29.03","67.27","267.4","0.0"],
    [1422801,"2026-07-28 17:30:00","1179","5.477","220.2","9.41","216.5","1016.827","28.78","68.1","237.1","0.0"],
    [1422802,"2026-07-28 17:40:00","1180","5.41","226.3","9.11","229","1016.812","28.61","69.42","206.8","0.0"],
    [1422803,"2026-07-28 17:50:00","1181","4.863","226.3","8.53","243.7","1016.812","28.43","70.68","178.8","0.0"],
    [1422804,"2026-07-28 18:00:00","1182","4.47","231.1","8.04","255.8","1016.826","28.25","71.26","151.6","0.0"],
    [1422805,"2026-07-28 18:10:00","1183","5.513999999999999","224.2","9.6","216.3","1016.8960000000001","27.99","73.01","123.9","0.0"],
    [1422806,"2026-07-28 18:20:00","1184","5.492999999999999","223.7","10","221.7","1016.921","27.92","73.59","98.0","0.0"],
    [1422807,"2026-07-28 18:30:00","1185","5.235","225.7","9.41","220.8","1016.953","27.77","74.46","75.2","0.0"],
    [1422808,"2026-07-28 18:40:00","1186","6.156000000000001","219.8","10.58","219.7","1017.0039999999999","27.58","75.65","53.42","0.0"],
    [1422809,"2026-07-28 18:50:00","1187","3.905","228.7","8.23","234.4","1017.11","27.49","76.49","33.94","0.0"],
    [1422810,"2026-07-28 19:00:00","1188","4.391","226.1","8.53","210","1017.168","27.36","76.81","18.27","0.0"],
    [1422811,"2026-07-28 19:10:00","1189","4.415","222.9","7.056","212.7","1017.26","27.25","77.18","7.082000000000001","0.0"],
    [1422812,"2026-07-28 19:20:00","1190","4.218999999999999","226.0","6.86","220.2","1017.29","27.16","77.9","1.5590000000000002","0.0"],
    [1422813,"2026-07-28 19:30:00","1191","4.8469999999999995","220.6","7.448","236.6","1017.3510000000001","27.07","78.08","-1.013","0.0"],
    [1422814,"2026-07-28 19:40:00","1192","4.355","224.1","6.958","202.5","1017.5039999999999","27.02","78.57","-1.912","0.0"],
    [1422815,"2026-07-28 19:50:00","1193","4.314","224.4","6.86","235.5","1017.688","26.94","79.01","-2.363","0.0"],
    [1422816,"2026-07-28 20:00:00","1194","4.486000000000001","223.2","6.664","221.7","1017.8560000000001","26.91","79.23","-2.483","0.0"],
    [1422817,"2026-07-28 20:10:00","1195","4.4719999999999995","222.2","7.056","201.7","1018.0260000000001","26.92","79.17","-2.5580000000000003","0.0"],
    [1422818,"2026-07-28 20:20:00","1196","4.114","225.9","6.86","214.7","1018.148","26.87","79.29","-2.2680000000000002","0.0"],
    [1422819,"2026-07-28 20:30:00","1197","2.8539999999999996","230.8","5.096","228.9","1018.2510000000001","26.8","79.52","-2.5669999999999997","0.0"],
    [1422820,"2026-07-28 20:40:00","1198","2.91","228.3","4.704","217","1018.373","26.74","79.52","-2.593","0.0"],
    [1422821,"2026-07-28 20:50:00","1199","3.503","227.1","5.88","221.1","1018.433","26.77","79.35","-2.592","0.0"],
    [1422822,"2026-07-28 21:00:00","1200","3.9330000000000003","225.0","5.978","228.7","1018.4789999999999","26.81","78.61","-2.591","0.0"],
    [1422823,"2026-07-28 21:10:00","1201","3.411","226.5","4.998","218.9","1018.5110000000001","26.77","78.65","-2.512","0.0"],
    [1422824,"2026-07-28 21:20:00","1202","2.8930000000000002","230.5","4.998","239","1018.5160000000001","26.64","78.63","-2.577","0.0"],
    [1422825,"2026-07-28 21:30:00","1203","2.821","229.2","4.998","204.7","1018.559","26.61","78.57","-2.585","0.0"],
    [1422826,"2026-07-28 21:40:00","1204","2.716","227.7","4.508","197.7","1018.68","26.57","78.74","-2.589","0.0"],
    [1422827,"2026-07-28 21:50:00","1205","2.282","227.4","4.9","216.7","1018.7130000000001","26.48","78.76","-2.592","0.0"],
    [1422828,"2026-07-28 22:00:00","1206","2.204","226.7","3.528","210.9","1018.76","26.45","78.72","-2.593","0.0"],
    [1422829,"2026-07-28 22:10:00","1207","2.1180000000000003","229.5","3.822","240.6","1018.842","26.43","78.93","-2.59","0.0"],
    [1422830,"2026-07-28 22:20:00","1208","1.81","231.7","2.94","288.8","1018.88","26.34","79.56","-2.592","0.0"],
    [1422831,"2026-07-28 22:30:00","1209","1.9769999999999999","228.8","3.332","231.3","1018.9010000000001","26.3","79.86","-2.592","0.0"],
    [1422832,"2026-07-28 22:40:00","1210","2.035","227.4","3.234","229.7","1018.92","26.31","80.0","-2.592","0.0"],
    [1422833,"2026-07-28 22:50:00","1211","2.166","230.9","3.528","234.2","1018.965","26.3","80.0","-2.592","0.0"],
    [1422834,"2026-07-28 23:00:00","1212","1.945","233.9","3.43","246.3","1018.99","26.26","80.1","-2.59","0.0"],
    [1422835,"2026-07-28 23:10:00","1213","1.7619999999999998","230.7","2.94","216.8","1018.972","26.18","80.4","-2.592","0.0"],
    [1422836,"2026-07-28 23:20:00","1214","1.466","236.1","2.94","239.5","1018.961","26.19","80.1","-2.593","0.0"],
    [1422837,"2026-07-28 23:30:00","1215","1.261","235.2","3.136","273.2","1018.935","26.24","79.7","-2.593","0.0"],
    [1422838,"2026-07-28 23:40:00","1216","0.982","247.5","2.058","253.5","1018.8489999999999","26.2","79.39","-2.593","0.0"],
    [1422839,"2026-07-28 23:50:00","1217","0.929","272.7","1.862","272.8","1018.802","26.07","79.42","-2.593","0.0"],
    [1422840,"2026-07-29 00:00:00","1218","0.981","267.1","1.764","255.5","1018.7860000000001","25.96","79.82","-2.593","0.0"],
    [1422841,"2026-07-29 00:10:00","1219","0.951","284.3","1.666","285","1018.793","25.8","79.82","-2.593","0.0"],
    [1422842,"2026-07-29 00:20:00","1220","0.716","288.4","1.372","301.8","1018.752","25.55","80.5","-2.593","0.0"],
    [1422843,"2026-07-29 00:30:00","1221","1.035","289.5","1.862","278.1","1018.6560000000001","25.38","80.7","-2.594","0.0"],
    [1422844,"2026-07-29 00:40:00","1222","1.305","283.0","2.058","269.1","1018.566","25.4","80.9","-2.5980000000000003","0.0"],
    [1422845,"2026-07-29 00:50:00","1223","1.13","285.4","2.156","288.1","1018.462","25.45","80.7","-2.593","0.0"],
    [1422846,"2026-07-29 01:00:00","1224","1.392","281.6","2.352","304.6","1018.367","25.45","80.1","-2.593","0.0"],
    [1422847,"2026-07-29 01:10:00","1225","1.015","277.1","1.96","261.2","1018.2719999999999","25.38","79.92","-2.593","0.0"],
    [1422848,"2026-07-29 01:20:00","1226","0.836","277.1","1.764","288.5","1018.2510000000001","25.22","80.4","-2.593","0.0"],
    [1422849,"2026-07-29 01:30:00","1227","1.125","272.1","2.45","260.6","1018.2130000000001","25.17","80.6","-2.593","0.0"],
    [1422850,"2026-07-29 01:40:00","1228","0.98","282.0","1.862","295.8","1018.211","25.04","80.4","-2.592","0.0"],
    [1422851,"2026-07-29 01:50:00","1229","1.449","280.9","2.254","286","1018.0889999999999","24.76","80.4","-2.594","0.0"],
    [1422852,"2026-07-29 02:00:00","1230","0.568","272.3","1.47","266.6","1018.038","24.72","80.1","-2.593","0.0"],
    [1422853,"2026-07-29 02:10:00","1231","0.484","273.4","1.078","255.4","1018.04","24.67","80.2","-2.594","0.0"],
    [1422854,"2026-07-29 02:20:00","1232","0.534","262.8","1.372","238","1018.0369999999999","24.73","80.3","-2.593","0.0"],
    [1422855,"2026-07-29 02:30:00","1233","0.995","270.5","1.764","262.9","1017.975","24.93","80.2","-2.5860000000000003","0.0"],
    [1422856,"2026-07-29 02:40:00","1234","1.05","265.3","2.058","282.6","1017.9630000000001","25.01","80.2","-2.592","0.0"],
    [1422857,"2026-07-29 02:50:00","1235","0.741","276.3","1.96","279.3","1017.935","25.01","80.2","-2.573","0.0"],
    [1422858,"2026-07-29 03:00:00","1236","1.452","273.8","2.352","260.6","1017.914","24.65","80.9","-2.594","0.0"],
    [1422859,"2026-07-29 03:10:00","1237","1.334","264.9","2.058","255.3","1017.94","24.46","81.1","-2.585","0.0"],
    [1422860,"2026-07-29 03:20:00","1238","1.278","265.3","2.45","264.9","1017.96","24.44","81.1","-2.583","0.0"],
    [1422861,"2026-07-29 03:30:00","1239","1.641","274.2","2.45","272.3","1017.992","24.39","81.4","-2.5810000000000004","0.0"],
    [1422862,"2026-07-29 03:40:00","1240","1.869","272.7","2.646","273.7","1017.9739999999999","24.29","82.2","-2.568","0.0"],
    [1422863,"2026-07-29 03:50:00","1241","2.1319999999999997","271.5","3.528","282.2","1017.935","24.2","82.8","-2.472","0.0"],
    [1422864,"2026-07-29 04:00:00","1242","1.079","271.6","2.548","255.8","1017.909","24.13","83.2","-2.499","0.0"],
    [1422865,"2026-07-29 04:10:00","1243","1.444","277.3","2.45","273.8","1017.8969999999999","23.97","83.6","-2.596","0.0"],
    [1422866,"2026-07-29 04:20:00","1244","1.4969999999999999","280.4","2.352","279.4","1017.944","23.83","84.1","-2.487","0.0"],
    [1422867,"2026-07-29 04:30:00","1245","1.177","282.2","2.254","287.3","1018.0169999999999","23.7","84.3","-1.9040000000000001","0.0"],
    [1422868,"2026-07-29 04:40:00","1246","1.5090000000000001","273.1","2.45","278.2","1018.048","23.63","84.2","-0.47","0.0"],
    [1422869,"2026-07-29 04:50:00","1247","1.544","278.3","2.548","260.2","1018.1310000000001","23.7","83.0","3.245","0.0"],
    [1422870,"2026-07-29 05:00:00","1248","1.7109999999999999","283.8","2.646","283.8","1018.159","23.73","82.1","10.04","0.0"],
    [1422871,"2026-07-29 05:10:00","1249","1.409","281.4","2.548","296.1","1018.21","23.73","81.4","21.77","0.0"],
    [1422872,"2026-07-29 05:20:00","1250","1.2819999999999998","267.9","2.058","275","1018.33","23.69","80.9","34.18","0.0"],
    [1422873,"2026-07-29 05:30:00","1251","0.985","256.9","1.96","273.3","1018.39","23.82","79.66","47.54","0.0"],
    [1422874,"2026-07-29 05:40:00","1252","1.006","271.2","1.764","280.6","1018.383","24.03","78.43","66.21","0.0"],
    [1422875,"2026-07-29 05:50:00","1253","0.815","268.4","1.568","281.7","1018.3560000000001","24.33","76.83","84.8","0.0"],
    [1422876,"2026-07-29 06:00:00","1254","1.084","281.0","2.058","290.9","1018.3910000000001","24.64","75.06","108.0","0.0"],
    [1422877,"2026-07-29 06:10:00","1255","1.501","280.9","2.156","291.2","1018.436","24.84","73.69","134.1","0.0"],
    [1422878,"2026-07-29 06:20:00","1256","1.179","279.6","1.862","282.6","1018.507","25.07","72.46","158.1","0.0"],
    [1422879,"2026-07-29 06:30:00","1257","1.5330000000000001","291.6","2.45","298","1018.549","25.32","71.01","182.7","0.0"],
    [1422880,"2026-07-29 06:40:00","1258","1.5919999999999999","294.9","2.156","288.6","1018.654","25.69","69.69","208.0","0.0"],
    [1422881,"2026-07-29 06:50:00","1259","1.5319999999999998","293.0","2.352","298.3","1018.7689999999999","26.02","68.69","234.6","0.0"],
    [1422882,"2026-07-29 07:00:00","1260","1.6840000000000002","293.0","2.744","308","1018.826","26.48","67.75","263.0","0.0"],
    [1422883,"2026-07-29 07:10:00","1261","1.5830000000000002","265.1","2.646","293.8","1018.8580000000001","26.9","67.54","292.4","0.0"],
    [1422884,"2026-07-29 07:20:00","1262","1.821","219.6","3.234","198.6","1018.8860000000001","27.18","68.69","324.5","0.0"],
    [1422885,"2026-07-29 07:30:00","1263","1.479","224.9","2.94","249.9","1018.8689999999999","27.48","68.46","354.7","0.0"],
    [1422886,"2026-07-29 07:40:00","1264","2.822","214.6","4.704","215.2","1018.846","27.89","68.95","386.9","0.0"],
    [1422887,"2026-07-29 07:50:00","1265","2.46","212.8","3.822","197.6","1018.8580000000001","28.16","68.52","419.9","0.0"],
    [1422888,"2026-07-29 08:00:00","1266","1.962","220.4","4.116","236.5","1018.855","28.61","67.78","448.4","0.0"],
    [1422889,"2026-07-29 08:10:00","1267","2.048","199.2","4.41","206.4","1018.867","28.98","68.56","487.0","0.0"],
    [1422890,"2026-07-29 08:20:00","1268","3.015","202.9","5.292","213.8","1018.862","28.82","69.37","521.1","0.0"],
    [1422891,"2026-07-29 08:30:00","1269","3.593","208.1","6.468","192.9","1018.8939999999999","28.78","69.5","533.7","0.0"],
    [1422892,"2026-07-29 08:40:00","1270","2.784","198.6","6.174","222.8","1018.913","28.84","69.22","589.3","0.0"],
    [1422893,"2026-07-29 08:50:00","1271","2.904","198.6","5.194","222.8","1018.9739999999999","29.09","68.68","595.6","0.0"],
    [1422894,"2026-07-29 09:00:00","1272","3.0669999999999997","194.1","6.272","176.9","1019.051","28.82","69.05","648.8","0.0"],
    [1422895,"2026-07-29 09:10:00","1273","3.225","201.6","7.056","177.6","1019.056","29.03","69.05","676.4","0.0"],
    [1422896,"2026-07-29 09:20:00","1274","3.201","201.7","5.978","218.6","1019.105","29.0","70.2","698.2","0.0"],
    [1422897,"2026-07-29 09:30:00","1275","4.138","209.6","7.154","226.2","1019.169","29.07","69.66","725.0","0.0"],
    [1422898,"2026-07-29 09:40:00","1276","3.8310000000000004","201.8","8.43","212.8","1019.171","29.22","68.89","752.1","0.0"],
    [1422899,"2026-07-29 09:50:00","1277","4.295","192.3","7.938","180.1","1019.1189999999999","29.24","68.75","774.3","0.0"],
    [1422900,"2026-07-29 10:00:00","1278","3.862","200.0","7.448","202.1","1019.1289999999999","29.58","68.57","795.5","0.0"],
    [1422901,"2026-07-29 10:10:00","1279","3.497","201.2","8.92","181.8","1019.155","29.94","67.4","814.0","0.0"],
    [1422902,"2026-07-29 10:20:00","1280","4.333","195.9","8.82","212.7","1019.143","29.49","68.73","833.0","0.0"],
    [1422903,"2026-07-29 10:30:00","1281","4.506","198.3","8.72","174","1019.077","29.63","68.96","845.0","0.0"],
    [1422904,"2026-07-29 10:40:00","1282","4.494","199.8","9.41","211.8","1019.065","29.62","68.02","856.0","0.0"],
    [1422905,"2026-07-29 10:50:00","1283","5.165","210.3","9.11","228.7","1019.1080000000001","29.63","68.8","867.0","0.0"],
    [1422906,"2026-07-29 11:00:00","1284","4.54","203.9","8.43","219.2","1019.123","29.92","67.36","875.0","0.0"],
    [1422907,"2026-07-29 11:10:00","1285","4.942","205.4","8.72","229.7","1019.112","29.93","67.0","884.0","0.0"],
    [1422908,"2026-07-29 11:20:00","1286","5.117","206.0","8.92","200.8","1019.03","30.05","66.67","891.0","0.0"],
    [1422909,"2026-07-29 11:30:00","1287","4.633","202.0","8.53","210.4","1019.0139999999999","30.05","65.34","895.0","0.0"],
    [1422910,"2026-07-29 11:40:00","1288","4.981","200.7","10","211.9","1018.95","30.15","65.39","898.0","0.0"],
    [1422911,"2026-07-29 11:50:00","1289","4.1930000000000005","195.2","8.72","172.4","1018.8639999999999","30.58","64.64","899.0","0.0"],
    [1422912,"2026-07-29 12:00:00","1290","4.856","207.7","8.62","222.5","1018.8969999999999","30.51","65.29","899.0","0.0"],
    [1422913,"2026-07-29 12:10:00","1291","5.944","205.9","9.8","227.9","1018.835","30.09","66.26","901.0","0.0"],
    [1422914,"2026-07-29 12:20:00","1292","4.811","203.8","10.39","218.9","1018.875","30.23","65.15","899.0","0.0"],
    [1422915,"2026-07-29 12:30:00","1293","4.499","202.1","9.9","208.6","1018.855","30.46","64.29","895.0","0.0"],
    [1422916,"2026-07-29 12:40:00","1294","4.962","205.9","8.92","201.2","1018.793","30.38","63.91","891.0","0.0"],
    [1422917,"2026-07-29 12:50:00","1295","5.449","212.2","9.9","220.9","1018.79","30.51","63.56","885.0","0.0"],
    [1422918,"2026-07-29 13:00:00","1296","6.504","211.8","10.09","220.6","1018.721","30.35","62.83","882.0","0.0"],
    [1422919,"2026-07-29 13:10:00","1297","5.309","208.7","11.07","211.8","1018.6519999999999","30.39","62.77","871.0","0.0"],
    [1422920,"2026-07-29 13:20:00","1298","6.686","211.8","11.07","210.9","1018.63","30.15","63.54","865.0","0.0"],
    [1422921,"2026-07-29 13:30:00","1299","5.428999999999999","210.2","9.8","238.1","1018.625","30.39","63.46","851.0","0.0"],
    [1422922,"2026-07-29 13:40:00","1300","5.5520000000000005","208.6","10.09","203.9","1018.5989999999999","30.4","63.46","840.0","0.0"],
    [1422923,"2026-07-29 13:50:00","1301","6.127000000000001","211.4","10.98","215.2","1018.557","30.24","63.78","824.0","0.0"],
    [1422924,"2026-07-29 14:00:00","1302","6.11","213.8","11.56","213.9","1018.5089999999999","30.45","61.6","809.0","0.0"],
    [1422925,"2026-07-29 14:10:00","1303","6.941","217.8","11.86","221.4","1018.471","30.24","62.25","792.5","0.0"],
    [1422926,"2026-07-29 14:20:00","1304","5.86","215.3","11.86","226.1","1018.3839999999999","30.53","61.99","768.1","0.0"],
    [1422927,"2026-07-29 14:30:00","1305","6.098","215.0","10.58","220.3","1018.329","30.43","61.67","747.0","0.0"],
    [1422928,"2026-07-29 14:40:00","1306","6.974","215.8","11.17","210.8","1018.283","30.26","61.67","724.8","0.0"],
    [1422929,"2026-07-29 14:50:00","1307","6.206","213.2","10","221.9","1018.2739999999999","30.26","61.73","693.8","0.0"],
    [1422930,"2026-07-29 15:00:00","1308","7.001","219.5","11.66","218.5","1018.2410000000001","30.17","60.49","669.6","0.0"],
    [1422931,"2026-07-29 15:10:00","1309","7.252000000000001","216.5","10.68","216","1018.198","30.13","61.15","643.4","0.0"],
    [1422932,"2026-07-29 15:20:00","1310","5.718999999999999","215.8","10.19","217.5","1018.1469999999999","30.49","59.5","614.2","0.0"],
    [1422933,"2026-07-29 15:30:00","1311","6.999","217.3","10.49","211.8","1018.12","30.08","62.51","585.8","0.0"],
    [1422934,"2026-07-29 15:40:00","1312","5.797999999999999","220.9","8.82","206.9","1018.073","30.2","60.88","550.8","0.0"],
    [1422935,"2026-07-29 15:50:00","1313","5.3","218.7","8.82","235.8","1017.966","30.35","61.79","495.3","0.0"],
    [1422936,"2026-07-29 16:00:00","1314","6.1579999999999995","218.7","9.7","218.8","1017.92","30.13","61.32","491.4","0.0"],
    [1422937,"2026-07-29 16:10:00","1315","6.252999999999999","218.4","9.41","221","1017.932","30.11","62.66","438.2","0.0"],
    [1422938,"2026-07-29 16:20:00","1316","5.955","216.7","10","214.6","1017.927","29.92","62.63","433.2","0.0"],
    [1422939,"2026-07-29 16:30:00","1317","4.728","217.7","9.11","210.1","1017.8789999999999","30.11","62.74","405.2","0.0"],
    [1422940,"2026-07-29 16:40:00","1318","5.595","220.8","9.8","227.8","1017.783","30.03","62.15","374.9","0.0"],
    [1422941,"2026-07-29 16:50:00","1319","5.3839999999999995","215.6","8.43","202.3","1017.7539999999999","29.89","62.65","341.3","0.0"],
    [1422942,"2026-07-29 17:00:00","1320","4.855","217.1","8.33","199.1","1017.683","29.85","63.12","311.1","0.0"],
    [1422943,"2026-07-29 17:10:00","1321","5.657","218.4","9.21","206.8","1017.6010000000001","29.77","62.6","279.2","0.0"],
    [1422944,"2026-07-29 17:20:00","1322","6.434","218.4","10","223.7","1017.571","29.27","65.08","249.1","0.0"],
    [1422945,"2026-07-29 17:30:00","1323","6.103","219.6","9.7","237.2","1017.5310000000001","29.27","64.63","218.9","0.0"],
    [1422946,"2026-07-29 17:40:00","1324","5.516","218.3","8.72","205.1","1017.485","29.19","64.79","189.9","0.0"],
    [1422947,"2026-07-29 17:50:00","1325","5.247000000000001","219.9","9.11","230","1017.462","29.21","64.21","161.9","0.0"],
    [1422948,"2026-07-29 18:00:00","1326","4.945","218.7","9.21","203.8","1017.4680000000001","29.01","66.56","135.2","0.0"],
    [1422949,"2026-07-29 18:10:00","1327","4.7330000000000005","219.8","7.742","208.4","1017.4760000000001","28.86","66.36","109.3","0.0"],
    [1422950,"2026-07-29 18:20:00","1328","4.922","219.8","8.04","237.2","1017.538","28.65","68.66","85.3","0.0"],
    [1422951,"2026-07-29 18:30:00","1329","5.351","223.0","8.92","217.5","1017.576","28.41","68.61","64.45","0.0"],
    [1422952,"2026-07-29 18:40:00","1330","4.808","221.1","7.448","220.9","1017.559","28.27","69.87","45.25","0.0"],
    [1422953,"2026-07-29 18:50:00","1331","4.985","222.7","8.53","199.4","1017.569","28.15","69.63","27.89","0.0"],
    [1422954,"2026-07-29 19:00:00","1332","4.761","221.5","8.82","226.8","1017.623","28.09","68.06","14.39","0.0"],
    [1422955,"2026-07-29 19:10:00","1333","4.618","220.0","8.72","225.2","1017.677","28.02","68.65","5.065","0.0"],
    [1422956,"2026-07-29 19:20:00","1334","4.43","220.6","7.644","227.6","1017.7260000000001","27.94","69.38","0.429","0.0"],
    [1422957,"2026-07-29 19:30:00","1335","4.228","217.3","7.154","220.4","1017.73","27.84","70.32","-1.6440000000000001","0.0"],
    [1422958,"2026-07-29 19:40:00","1336","3.807","217.2","6.37","218.6","1017.798","27.7","72.81","-2.55","0.0"],
    [1422959,"2026-07-29 19:50:00","1337","3.272","216.7","6.272","226.3","1017.888","27.55","73.94","-2.597","0.0"],
    [1422960,"2026-07-29 20:00:00","1338","3.762","218.3","5.978","239.3","1017.959","27.46","75.43","-2.595","0.0"],
    [1422961,"2026-07-29 20:10:00","1339","4.141","220.1","7.644","211.8","1018.092","27.39","75.11","-2.593","0.0"],
    [1422962,"2026-07-29 20:20:00","1340","3.818","219.8","6.958","253.8","1018.265","27.44","74.62","-2.594","0.0"],
    [1422963,"2026-07-29 20:30:00","1341","3.4960000000000004","215.0","6.566","241.3","1018.3789999999999","27.37","75.28","-2.593","0.0"],
    [1422964,"2026-07-29 20:40:00","1342","3.284","216.2","6.762","212.5","1018.492","27.29","76.29","-2.597","0.0"],
    [1422965,"2026-07-29 20:50:00","1343","3.48","215.6","6.566","244.8","1018.5189999999999","27.24","76.84","-2.595","0.0"],
    [1422966,"2026-07-29 21:00:00","1344","3.412","221.9","6.86","228.9","1018.585","27.2","77.03","-2.595","0.0"],
    [1422967,"2026-07-29 21:10:00","1345","2.911","224.2","4.606","236.6","1018.595","27.15","77.42","-2.594","0.0"],
    [1422968,"2026-07-29 21:20:00","1346","2.698","225.5","4.214","199.4","1018.6310000000001","27.07","78.21","-2.593","0.0"],
    [1422969,"2026-07-29 21:30:00","1347","2.7260000000000004","229.2","4.018","203.3","1018.686","26.99","78.93","-2.594","0.0"],
    [1422970,"2026-07-29 21:40:00","1348","2.37","223.2","4.214","225.8","1018.6519999999999","26.97","79.16","-2.602","0.0"],
    [1422971,"2026-07-29 21:50:00","1349","2.595","228.6","4.508","217.6","1018.582","26.89","79.54","-2.594","0.0"],
    [1422972,"2026-07-29 22:00:00","1350","1.848","232.4","3.92","214.4","1018.564","26.75","80.0","-2.593","0.0"],
    [1422973,"2026-07-29 22:10:00","1351","2.369","227.3","3.724","236","1018.5110000000001","26.68","80.3","-2.595","0.0"],
    [1422974,"2026-07-29 22:20:00","1352","2.556","224.5","3.626","222.7","1018.5419999999999","26.71","79.88","-2.593","0.0"],
    [1422975,"2026-07-29 22:30:00","1353","2.468","224.3","3.528","221.8","1018.5419999999999","26.73","79.61","-2.594","0.0"],
    [1422976,"2026-07-29 22:40:00","1354","2.569","226.5","4.018","211.9","1018.534","26.67","79.46","-2.594","0.0"],
    [1422977,"2026-07-29 22:50:00","1355","2.43","224.7","4.018","217.8","1018.6460000000001","26.61","79.16","-2.594","0.0"],
    [1422978,"2026-07-29 23:00:00","1356","2.707","225.9","3.724","239.5","1018.745","26.58","78.97","-2.593","0.0"],
    [1422979,"2026-07-29 23:10:00","1357","2.356","226.7","3.626","202.5","1018.7660000000001","26.61","79.18","-2.593","0.0"],
    [1422980,"2026-07-29 23:20:00","1358","2.024","229.2","3.038","217.5","1018.806","26.53","79.65","-2.595","0.0"],
    [1422981,"2026-07-29 23:30:00","1359","2.588","225.8","3.724","236.7","1018.82","26.5","80.3","-2.595","0.0"],
    [1422982,"2026-07-29 23:40:00","1360","2.199","224.0","3.92","232.9","1018.816","26.48","80.9","-2.594","0.0"],
    [1422983,"2026-07-29 23:50:00","1361","2.576","214.1","3.822","207.5","1018.7439999999999","26.33","81.8","-2.594","0.0"],
    [1422984,"2026-07-30 00:00:00","1362","3.0780000000000003","216.1","4.606","212.2","1018.742","26.25","82.7","-2.594","0.0"],
    [1422985,"2026-07-30 00:10:00","1363","3.136","218.8","4.41","208.3","1018.715","26.24","83.2","-2.593","0.0"],
    [1422986,"2026-07-30 00:20:00","1364","3.583","224.3","5.586","229.7","1018.6310000000001","26.26","83.3","-2.593","0.0"],
    [1422987,"2026-07-30 00:30:00","1365","3.363","224.0","5.39","221.7","1018.553","26.27","83.5","-2.593","0.0"],
    [1422988,"2026-07-30 00:40:00","1366","2.949","221.6","4.802","218.6","1018.4839999999999","26.24","83.7","-2.593","0.0"],
    [1422989,"2026-07-30 00:50:00","1367","2.9930000000000003","218.7","4.998","207.5","1018.385","26.23","83.8","-2.594","0.0"],
    [1422990,"2026-07-30 01:00:00","1368","2.8289999999999997","219.6","4.508","230.1","1018.326","26.19","83.8","-2.593","0.0"],
    [1422991,"2026-07-30 01:10:00","1369","3.469","226.2","5.194","222.2","1018.283","26.19","83.3","-2.593","0.0"],
    [1422992,"2026-07-30 01:20:00","1370","3.0389999999999997","227.1","4.606","236.1","1018.248","26.18","82.6","-2.593","0.0"],
    [1422993,"2026-07-30 01:30:00","1371","1.869","229.4","4.214","207.6","1018.2460000000001","26.03","82.2","-2.593","0.0"],
    [1422994,"2026-07-30 01:40:00","1372","1.271","233.3","2.45","231.2","1018.23","25.69","82.4","-2.597","0.0"],
    [1422995,"2026-07-30 01:50:00","1373","1.382","261.4","2.646","257.1","1018.171","25.37","80.6","-2.594","0.0"],
    [1422996,"2026-07-30 02:00:00","1374","1.538","279.5","2.156","260.2","1018.159","24.56","72.87","-2.593","0.0"],
    [1422997,"2026-07-30 02:10:00","1375","1.1520000000000001","281.7","2.352","279.2","1018.18","24.6","66.48","-2.6","0.0"],
    [1422998,"2026-07-30 02:20:00","1376","1.218","276.5","1.862","282","1018.16","24.66","65.09","-2.63","0.0"],
    [1422999,"2026-07-30 02:30:00","1377","0.677","271.4","1.176","277.3","1018.068","24.59","64.71","-2.596","0.0"],
    [1423000,"2026-07-30 02:40:00","1378","0.718","256.3","1.176","265.6","1017.977","24.65","65.39","-2.605","0.0"],
    [1423001,"2026-07-30 02:50:00","1379","1.0270000000000001","264.0","1.96","266.2","1017.993","24.96","65.84","-2.596","0.0"],
    [1423002,"2026-07-30 03:00:00","1380","0.9640000000000001","274.3","1.764","263.5","1017.93","24.93","66.62","-2.594","0.0"],
    [1423003,"2026-07-30 03:10:00","1381","1.1","271.4","2.058","273.2","1017.841","24.74","67.59","-2.603","0.0"],
    [1423004,"2026-07-30 03:20:00","1382","0.9690000000000001","281.9","1.764","272.4","1017.775","24.39","68.33","-2.597","0.0"],
    [1423005,"2026-07-30 03:30:00","1383","1.133","278.7","2.156","281","1017.73","24.06","70.23","-2.6010000000000004","0.0"],
    [1423006,"2026-07-30 03:40:00","1384","1.234","275.1","2.156","276","1017.694","24.07","71.76","-2.603","0.0"],
    [1423007,"2026-07-30 03:50:00","1385","1.361","275.9","2.254","274.2","1017.6089999999999","24.11","72.01","-2.6069999999999998","0.0"],
    [1423008,"2026-07-30 04:00:00","1386","1.7009999999999998","273.2","2.548","272.2","1017.54","23.95","73.63","-2.6210000000000004","0.0"],
    [1423009,"2026-07-30 04:10:00","1387","1.4580000000000002","273.9","2.352","260.4","1017.5060000000001","23.78","75.48","-2.625","0.0"],
    [1423010,"2026-07-30 04:20:00","1388","1.149","270.4","2.058","265.5","1017.466","23.72","76.55","-2.6260000000000003","0.0"],
    [1423011,"2026-07-30 04:30:00","1389","1.0090000000000001","272.0","2.254","270.1","1017.513","23.58","77.31","-2.489","0.0"],
    [1423012,"2026-07-30 04:40:00","1390","0.9840000000000001","266.1","1.764","270.3","1017.534","23.55","77.92","-1.249","0.0"],
    [1423013,"2026-07-30 04:50:00","1391","0.96","269.9","1.764","286.7","1017.618","23.43","78.16","1.31","0.0"],
    [1423014,"2026-07-30 05:00:00","1392","0.507","262.3","1.176","252","1017.7130000000001","23.44","78.0","7.051","0.0"],
    [1423015,"2026-07-30 05:10:00","1393","0.8","260.0","1.862","254.5","1017.7739999999999","23.64","77.32","17.75","0.0"],
    [1423016,"2026-07-30 05:20:00","1394","0.904","268.7","1.96","247","1017.817","23.84","76.23","31.23","0.0"],
    [1423017,"2026-07-30 05:30:00","1395","0.873","255.1","2.156","258.7","1017.7610000000001","24.02","75.31","44.61","0.0"],
    [1423018,"2026-07-30 05:40:00","1396","0.982","261.3","2.156","293.9","1017.696","24.23","74.16","62.45","0.0"],
    [1423019,"2026-07-30 05:50:00","1397","0.7759999999999999","261.1","1.666","258.5","1017.7460000000001","24.52","73.05","79.62","0.0"],
    [1423020,"2026-07-30 06:00:00","1398","1.123","262.4","1.862","229.5","1017.836","24.86","72.09","101.5","0.0"],
    [1423021,"2026-07-30 06:10:00","1399","1.0190000000000001","258.2","2.45","254.9","1017.834","25.19","71.31","126.6","0.0"],
    [1423022,"2026-07-30 06:20:00","1400","1.018","256.1","1.96","249","1017.795","25.54","70.52","153.1","0.0"],
    [1423023,"2026-07-30 06:30:00","1401","1.2670000000000001","270.9","2.352","271.5","1017.842","25.97","69.89","177.9","0.0"],
    [1423024,"2026-07-30 06:40:00","1402","1.3119999999999998","269.7","2.646","229","1017.9119999999999","26.44","69.08","203.0","0.0"],
    [1423025,"2026-07-30 06:50:00","1403","1.506","271.3","2.744","273.8","1017.952","26.66","69.4","231.8","0.0"],
    [1423026,"2026-07-30 07:00:00","1404","1.348","280.2","2.744","300","1017.926","27.12","68.95","263.5","0.0"],
    [1423027,"2026-07-30 07:10:00","1405","1.494","288.5","2.548","279.7","1017.842","27.62","68.76","296.0","0.0"],
    [1423028,"2026-07-30 07:20:00","1406","1.262","262.3","2.646","247.6","1017.882","27.94","68.15","325.0","0.0"],
    [1423029,"2026-07-30 07:30:00","1407","1.364","232.8","2.744","287.6","1017.9789999999999","28.52","67.17","356.5","0.0"],
    [1423030,"2026-07-30 07:40:00","1408","1.7080000000000002","239.8","3.822","269.2","1018.0210000000001","28.61","66.48","390.5","0.0"],
    [1423031,"2026-07-30 07:50:00","1409","1.945","237.8","4.116","252.1","1018.069","28.59","66.48","425.0","0.0"],
    [1423032,"2026-07-30 08:00:00","1410","1.921","231.0","3.332","241.8","1018.1160000000001","28.91","66.24","457.4","0.0"],
    [1423033,"2026-07-30 08:10:00","1411","2.92","218.2","7.056","209.2","1018.1310000000001","29.15","66.28","496.7","0.0"],
    [1423034,"2026-07-30 08:20:00","1412","4.422","217.9","8.23","210.3","1018.12","29.21","66.74","526.4","0.0"],
    [1423035,"2026-07-30 08:30:00","1413","3.7889999999999997","213.3","6.664","234.9","1018.08","29.33","66.75","541.8","0.0"],
    [1423036,"2026-07-30 08:40:00","1414","4.294","214.3","8.33","235.4","1018.1010000000001","29.44","66.87","590.0","0.0"],
    [1423037,"2026-07-30 08:50:00","1415","3.886","212.8","7.35","213.7","1018.0980000000001","29.64","65.82","612.9","0.0"],
    [1423038,"2026-07-30 09:00:00","1416","3.168","201.4","6.86","208.2","1018.074","29.83","66.31","659.7","0.0"],
    [1423039,"2026-07-30 09:10:00","1417","3.694","206.0","7.84","223.8","1018.1110000000001","29.68","66.33","683.6","0.0"],
    [1423040,"2026-07-30 09:20:00","1418","4.121","206.4","7.644","229.7","1018.1080000000001","29.72","66.82","711.5","0.0"],
    [1423041,"2026-07-30 09:30:00","1419","3.615","201.3","7.056","206.7","1018.097","29.69","66.87","739.4","0.0"],
    [1423042,"2026-07-30 09:40:00","1420","3.535","200.0","8.04","213.9","1018.0939999999999","29.93","67.17","762.2","0.0"],
    [1423043,"2026-07-30 09:50:00","1421","4.427","201.2","8.33","216.2","1018.038","29.92","68.03","785.7","0.0"],
    [1423044,"2026-07-30 10:00:00","1422","3.8480000000000003","194.0","7.252","171.9","1017.9680000000001","29.87","68.62","809.0","0.0"],
    [1423045,"2026-07-30 10:10:00","1423","4.386","192.4","8.13","183","1017.931","29.63","69.76","830.0","0.0"],
    [1423046,"2026-07-30 10:20:00","1424","4.008","199.7","7.35","242.1","1017.9019999999999","29.8","69.55","842.0","0.0"],
    [1423047,"2026-07-30 10:30:00","1425","4.212","194.9","7.84","192.3","1017.9069999999999","29.88","69.59","854.0","0.0"],
    [1423048,"2026-07-30 10:40:00","1426","4.291","195.3","8.62","177.2","1017.8610000000001","29.94","69.68","865.0","0.0"],
    [1423049,"2026-07-30 10:50:00","1427","4.341","195.5","8.33","186.7","1017.826","30.0","69.83","876.0","0.0"],
    [1423050,"2026-07-30 11:00:00","1428","4.513999999999999","195.7","7.644","212.2","1017.865","30.05","69.45","884.0","0.0"],
    [1423051,"2026-07-30 11:10:00","1429","4.95","198.8","9.6","170.1","1017.92","29.86","70.01","893.0","0.0"],
    [1423052,"2026-07-30 11:20:00","1430","4.691","200.0","8.92","187.5","1017.932","30.18","69.07","899.0","0.0"],
    [1423053,"2026-07-30 11:30:00","1431","5.237","206.3","8.13","178.9","1017.898","30.22","68.81","904.0","0.0"],
    [1423054,"2026-07-30 11:40:00","1432","4.784","197.7","8.82","203.3","1017.8939999999999","30.11","69.4","906.0","0.0"],
    [1423055,"2026-07-30 11:50:00","1433","4.584","207.0","8.23","223","1017.8489999999999","30.31","68.75","906.0","0.0"],
    [1423056,"2026-07-30 12:00:00","1434","4.428","198.0","8.43","178.3","1017.878","30.24","68.81","907.0","0.0"],
    [1423057,"2026-07-30 12:10:00","1435","4.178999999999999","199.7","7.448","172.5","1017.971","30.55","68.48","908.0","0.0"],
    [1423058,"2026-07-30 12:20:00","1436","4.795","202.6","8.33","213.8","1017.971","30.45","67.56","907.0","0.0"],
    [1423059,"2026-07-30 12:30:00","1437","5.678","199.8","9.41","214.4","1017.9839999999999","30.05","67.91","907.0","0.0"],
    [1423060,"2026-07-30 12:40:00","1438","4.507","207.8","8.43","216","1018.0039999999999","30.24","67.37","902.0","0.0"],
    [1423061,"2026-07-30 12:50:00","1439","4.7","215.2","8.43","216.3","1017.916","30.71","65.51","898.0","0.0"],
    [1423062,"2026-07-30 13:00:00","1440","4.213","207.9","8.33","192.1","1017.8919999999999","30.59","65.91","892.0","0.0"],
    [1423063,"2026-07-30 13:10:00","1441","4.105","196.3","7.84","195.5","1017.7669999999999","30.68","65.66","883.0","0.0"],
    [1423064,"2026-07-30 13:20:00","1442","4.573","213.8","7.84","214.1","1017.676","30.48","65.61","873.0","0.0"],
    [1423065,"2026-07-30 13:30:00","1443","4.381","205.1","7.742","209.8","1017.622","30.5","65.76","860.0","0.0"],
    [1423066,"2026-07-30 13:40:00","1444","4.493","207.0","8.13","227.9","1017.567","30.81","64.29","845.0","0.0"],
    [1423067,"2026-07-30 13:50:00","1445","3.8360000000000003","194.5","7.938","185.4","1017.4960000000001","30.59","64.48","831.0","0.0"],
    [1423068,"2026-07-30 14:00:00","1446","4.016","205.4","7.448","186.4","1017.382","30.51","64.6","815.0","0.0"],
    [1423069,"2026-07-30 14:10:00","1447","4.095","204.2","7.546","227","1017.265","30.77","62.84","795.8","0.0"],
    [1423070,"2026-07-30 14:20:00","1448","4.101","215.0","8.53","223.8","1017.202","30.81","62.8","774.4","0.0"],
    [1423071,"2026-07-30 14:30:00","1449","3.992","209.5","7.938","222.2","1017.1039999999999","30.68","61.74","753.0","0.0"],
    [1423072,"2026-07-30 14:40:00","1450","4.117","206.1","7.154","181.1","1016.9889999999999","31.16","59.1","732.0","0.0"],
    [1423073,"2026-07-30 14:50:00","1451","3.708","199.8","7.252","179.8","1016.9019999999999","31.1","58.0","709.3","0.0"],
    [1423074,"2026-07-30 15:00:00","1452","4.495","206.5","8.53","226.1","1016.847","30.83","58.82","683.7","0.0"],
    [1423075,"2026-07-30 15:10:00","1453","4.745","209.1","8.33","194.6","1016.829","30.61","59.49","658.0","0.0"],
    [1423076,"2026-07-30 15:20:00","1454","4.2989999999999995","205.5","7.742","223.1","1016.788","30.63","60.02","628.4","0.0"],
    [1423077,"2026-07-30 15:30:00","1455","5.206","213.6","9.02","220","1016.738","30.3","60.47","599.7","0.0"],
    [1423078,"2026-07-30 15:40:00","1456","3.8710000000000004","211.4","7.35","210.3","1016.655","30.66","59.3","568.6","0.0"],
    [1423079,"2026-07-30 15:50:00","1457","4.3180000000000005","208.0","8.33","232.5","1016.597","30.52","59.44","510.7","0.0"],
    [1423080,"2026-07-30 16:00:00","1458","4.284","215.2","7.448","196.8","1016.552","30.33","59.49","506.5","0.0"],
    [1423081,"2026-07-30 16:10:00","1459","4.32","214.2","8.04","202.4","1016.467","30.39","59.5","447.2","0.0"],
    [1423082,"2026-07-30 16:20:00","1460","3.77","210.7","7.35","217.5","1016.325","30.37","59.12","445.2","0.0"],
    [1423083,"2026-07-30 16:30:00","1461","3.466","208.5","7.252","213.3","1016.305","30.49","59.37","413.9","0.0"],
    [1423084,"2026-07-30 16:40:00","1462","5.416","218.4","9.41","214.2","1016.2360000000001","29.99","61.06","384.3","0.0"],
    [1423085,"2026-07-30 16:50:00","1463","4.941","215.2","9.7","230.9","1016.123","29.61","62.35","352.5","0.0"],
    [1423086,"2026-07-30 17:00:00","1464","4.2219999999999995","211.2","7.644","220.2","1016.05","29.8","61.1","320.2","0.0"],
    [1423087,"2026-07-30 17:10:00","1465","3.93","218.7","7.84","225.4","1015.937","29.75","61.05","290.4","0.0"],
    [1423088,"2026-07-30 17:20:00","1466","4.76","224.1","7.742","200.5","1015.9169999999999","29.45","61.89","259.8","0.0"],
    [1423089,"2026-07-30 17:30:00","1467","4.037","221.3","7.448","221.9","1015.9","29.46","62.47","226.5","0.0"],
    [1423090,"2026-07-30 17:40:00","1468","4.9430000000000005","223.1","7.644","229.4","1015.895","29.22","62.61","194.5","0.0"],
    [1423091,"2026-07-30 17:50:00","1469","4.39","229.0","7.154","208.3","1015.9119999999999","29.06","62.41","163.4","0.0"],
    [1423092,"2026-07-30 18:00:00","1470","4.272","222.7","6.762","213.4","1015.928","28.94","62.95","134.5","0.0"],
    [1423093,"2026-07-30 18:10:00","1471","4.119","217.9","8.13","203.9","1015.94","28.85","64.72","110.3","0.0"],
    [1423094,"2026-07-30 18:20:00","1472","4.387","225.0","7.644","220.1","1015.956","28.63","65.0","88.1","0.0"],
    [1423095,"2026-07-30 18:30:00","1473","4.48","221.9","7.644","210.6","1016.023","28.45","65.81","66.19","0.0"],
    [1423096,"2026-07-30 18:40:00","1474","3.947","223.0","6.664","207.9","1016.064","28.3","67.26","46.13","0.0"],
    [1423097,"2026-07-30 18:50:00","1475","3.3089999999999997","224.4","5.39","213.7","1016.0189999999999","28.19","68.16","29.13","0.0"],
    [1423098,"2026-07-30 19:00:00","1476","3.3569999999999998","227.6","6.37","235.4","1016.0160000000001","28.02","68.17","15.29","0.0"],
    [1423099,"2026-07-30 19:10:00","1477","3.697","223.7","6.174","230.3","1016.053","27.97","67.19","5.1","0.0"],
    [1423100,"2026-07-30 19:20:00","1478","3.818","222.9","6.37","213.4","1016.138","27.96","66.77","-0.381","0.0"],
    [1423101,"2026-07-30 19:30:00","1479","3.3339999999999996","224.3","5.88","207.7","1016.192","27.91","66.61","-2.146","0.0"],
    [1423102,"2026-07-30 19:40:00","1480","2.7960000000000003","226.6","4.312","206.7","1016.2410000000001","27.82","67.26","-2.593","0.0"],
    [1423103,"2026-07-30 19:50:00","1481","2.6180000000000003","228.4","4.116","230.3","1016.301","27.7","67.28","-2.6180000000000003","0.0"],
    [1423104,"2026-07-30 20:00:00","1482","2.487","227.4","3.822","230.8","1016.44","27.65","67.59","-2.842","0.0"],
    [1423105,"2026-07-30 20:10:00","1483","2.556","227.5","4.116","239.9","1016.5060000000001","27.65","67.88","-2.823","0.0"],
    [1423106,"2026-07-30 20:20:00","1484","2.949","226.5","4.606","216.5","1016.638","27.65","67.99","-2.715","0.0"],
    [1423107,"2026-07-30 20:30:00","1485","2.467","222.3","3.92","199.8","1016.745","27.59","68.66","-2.659","0.0"],
    [1423108,"2026-07-30 20:40:00","1486","2.266","215.7","4.606","206.4","1016.8510000000001","27.5","69.91","-2.971","0.0"],
    [1423109,"2026-07-30 20:50:00","1487","2.346","217.1","3.822","216.3","1016.925","27.51","70.8","-2.694","0.0"],
    [1423110,"2026-07-30 21:00:00","1488","2.206","219.0","3.92","206.7","1016.965","27.43","71.9","-2.8369999999999997","0.0"],
    [1423111,"2026-07-30 21:10:00","1489","1.062","213.3","1.96","224.3","1016.9839999999999","27.22","73.33","-2.998","0.0"],
    [1423112,"2026-07-30 21:20:00","1490","1.17","232.7","2.058","244.1","1017.077","26.92","74.5","-3.24","0.0"],
    [1423113,"2026-07-30 21:30:00","1491","1.236","230.3","2.254","234.1","1017.067","26.8","74.42","-2.9760000000000004","0.0"],
    [1423114,"2026-07-30 21:40:00","1492","0.821","231.9","2.058","254.1","1017.084","26.73","74.86","-2.866","0.0"],
    [1423115,"2026-07-30 21:50:00","1493","0.769","236.7","1.764","236.6","1017.03","26.63","74.33","-2.9130000000000003","0.0"],
    [1423116,"2026-07-30 22:00:00","1494","1.023","232.3","1.666","250","1016.9639999999999","26.49","74.21","-2.9139999999999997","0.0"],
    [1423117,"2026-07-30 22:10:00","1495","1.071","236.4","1.764","239.8","1016.956","26.57","73.57","-2.7969999999999997","0.0"],
    [1423118,"2026-07-30 22:20:00","1496","0.8740000000000001","239.3","1.666","233","1016.941","26.66","73.36","-2.662","0.0"],
    [1423119,"2026-07-30 22:30:00","1497","1.07","240.8","1.96","240.6","1016.887","26.66","73.41","-2.6510000000000002","0.0"],
    [1423120,"2026-07-30 22:40:00","1498","0.955","240.7","1.372","233.8","1016.9069999999999","26.59","73.65","-2.611","0.0"],
    [1423121,"2026-07-30 22:50:00","1499","0.721","243.9","1.274","220.9","1016.931","26.59","74.16","-2.605","0.0"],
    [1423122,"2026-07-30 23:00:00","1500","0.774","285.8","1.764","280.2","1017.049","26.4","75.02","-2.602","0.0"],
    [1423123,"2026-07-30 23:10:00","1501","0.7290000000000001","278.6","1.568","302.1","1017.0930000000001","26.22","75.55","-2.642","0.0"],
    [1423124,"2026-07-30 23:20:00","1502","0.732","273.0","1.862","278.9","1017.096","26.19","76.52","-2.66","0.0"],
    [1423125,"2026-07-30 23:30:00","1503","0.484","274.5","1.176","258.8","1017.084","26.15","76.89","-2.593","0.0"],
    [1423126,"2026-07-30 23:40:00","1504","0.938","268.8","1.764","284.7","1017.115","26.16","77.0","-2.6860000000000004","0.0"],
    [1423127,"2026-07-30 23:50:00","1505","0.555","272.4","1.274","277.9","1017.1030000000001","26.01","77.09","-2.5980000000000003","0.0"],
    [1423128,"2026-07-31 00:00:00","1506","0.765","289.9","1.372","280","1017.067","25.8","77.73","-2.67","0.0"],
    [1423129,"2026-07-31 00:10:00","1507","0.743","274.9","1.862","267.1","1017.0310000000001","25.54","76.61","-2.614","0.0"],
    [1423130,"2026-07-31 00:20:00","1508","0.983","268.6","1.666","271.3","1017.044","25.61","71.97","-2.594","0.0"],
    [1423131,"2026-07-31 00:30:00","1509","1.225","278.4","1.764","273.5","1017.035","25.57","69.25","-2.593","0.0"],
    [1423132,"2026-07-31 00:40:00","1510","0.679","282.5","1.568","281.1","1017.015","25.37","69.19","-2.63","0.0"],
    [1423133,"2026-07-31 00:50:00","1511","0.16","283.6","0.784","285.6","1016.951","25.13","69.98","-2.61","0.0"],
    [1423134,"2026-07-31 01:00:00","1512","0.47200000000000003","283.8","0.784","286","1016.927","25.11","70.3","-2.593","0.0"],
    [1423135,"2026-07-31 01:10:00","1513","0.276","281.8","0.588","276.3","1016.934","25.0","70.72","-2.593","0.0"],
    [1423136,"2026-07-31 01:20:00","1514","0.031","276.5","0.49","276.3","1016.887","24.75","71.5","-2.593","0.0"],
    [1423137,"2026-07-31 01:30:00","1515","0.0","0.0","0","276.3","1016.822","24.74","71.48","-2.592","0.0"],
    [1423138,"2026-07-31 01:40:00","1516","0.5379999999999999","276.4","1.078","273.7","1016.8480000000001","24.72","70.72","-2.595","0.0"],
    [1423139,"2026-07-31 01:50:00","1517","0.267","269.9","0.686","271.2","1016.822","24.78","70.01","-2.5780000000000003","0.0"],
    [1423140,"2026-07-31 02:00:00","1518","0.0","270.3","0.196","270.3","1016.705","24.51","70.85","-2.5989999999999998","0.0"],
    [1423141,"2026-07-31 02:10:00","1519","0.8109999999999999","276.5","1.274","284.4","1016.709","24.55","70.86","-2.6039999999999996","0.0"],
    [1423142,"2026-07-31 02:20:00","1520","0.8759999999999999","272.7","1.666","284.2","1016.659","24.45","71.47","-2.613","0.0"],
    [1423143,"2026-07-31 02:30:00","1521","1.084","272.3","1.96","272.9","1016.6339999999999","24.56","70.65","-2.6039999999999996","0.0"],
    [1423144,"2026-07-31 02:40:00","1522","0.9309999999999999","276.3","1.372","267.2","1016.5","24.48","70.64","-2.617","0.0"],
    [1423145,"2026-07-31 02:50:00","1523","0.981","280.3","1.666","282.7","1016.4830000000001","24.41","71.01","-2.612","0.0"],
    [1423146,"2026-07-31 03:00:00","1524","0.7909999999999999","279.2","1.372","267.1","1016.383","24.41","70.92","-2.6","0.0"],
    [1423147,"2026-07-31 03:10:00","1525","0.601","280.9","1.078","287.3","1016.2610000000001","24.35","71.07","-2.617","0.0"],
    [1423148,"2026-07-31 03:20:00","1526","0.41700000000000004","276.9","0.98","272.1","1016.164","24.28","71.28","-2.612","0.0"],
    [1423149,"2026-07-31 03:30:00","1527","0.774","278.7","1.176","281.2","1016.1460000000001","24.09","71.93","-2.617","0.0"],
    [1423150,"2026-07-31 03:40:00","1528","1.31","275.2","1.96","279","1016.159","24.03","72.36","-2.591","0.0"],
    [1423151,"2026-07-31 03:50:00","1529","1.551","272.6","2.156","276.2","1016.177","24.14","71.26","-2.418","0.0"],
    [1423152,"2026-07-31 04:00:00","1530","1.153","277.3","2.156","287","1016.107","24.07","70.67","-2.315","0.0"],
    [1423153,"2026-07-31 04:10:00","1531","0.982","281.6","1.666","277.2","1016.058","23.91","70.71","-2.374","0.0"],
    [1423154,"2026-07-31 04:20:00","1532","0.6890000000000001","278.5","1.274","287.1","1016.0260000000001","23.83","71.29","-2.522","0.0"],
    [1423155,"2026-07-31 04:30:00","1533","0.652","277.6","1.274","295.9","1016.0089999999999","23.9","71.15","-1.933","0.0"],
    [1423156,"2026-07-31 04:40:00","1534","0.902","279.1","2.548","274.7","1015.922","23.78","72.12","-1.0959999999999999","0.0"],
    [1423157,"2026-07-31 04:50:00","1535","1.435","273.9","2.744","261.7","1015.99","24.05","71.57","2.238","0.0"],
    [1423158,"2026-07-31 05:00:00","1536","1.4669999999999999","278.6","2.45","280.8","1015.9839999999999","23.95","71.92","9.96","0.0"],
    [1423159,"2026-07-31 05:10:00","1537","1.693","271.4","2.842","276.1","1016.015","23.94","71.8","19.89","0.0"],
    [1423160,"2026-07-31 05:20:00","1538","0.958","267.9","1.96","249","1015.898","23.8","71.29","31.49","0.0"],
    [1423161,"2026-07-31 05:30:00","1539","0.858","273.7","2.156","278.8","1015.852","23.93","70.32","45.7","0.0"],
    [1423162,"2026-07-31 05:40:00","1540","1.0590000000000002","269.9","2.254","273.9","1015.8330000000001","24.27","69.69","62.89","0.0"],
    [1423163,"2026-07-31 05:50:00","1541","1.3330000000000002","268.7","1.96","278.5","1015.801","24.49","68.35","79.42","0.0"],
    [1423164,"2026-07-31 06:00:00","1542","1.52","274.3","2.156","278.7","1015.8560000000001","24.63","67.59","99.5","0.0"],
    [1423165,"2026-07-31 06:10:00","1543","0.7909999999999999","274.3","1.764","278.4","1015.807","24.98","66.7","117.1","0.0"],
    [1423166,"2026-07-31 06:20:00","1544","1.351","273.1","2.254","281.6","1015.8589999999999","25.47","65.17","143.4","0.0"],
    [1423167,"2026-07-31 06:30:00","1545","1.335","272.8","2.156","265.2","1015.931","25.9","64.91","170.3","0.0"],
    [1423168,"2026-07-31 06:40:00","1546","0.997","279.2","1.666","286.3","1015.909","26.41","64.74","197.0","0.0"],
    [1423169,"2026-07-31 06:50:00","1547","1.681","275.4","2.352","279.8","1016.091","26.74","63.43","227.3","0.0"],
    [1423170,"2026-07-31 07:00:00","1548","2.043","278.1","3.136","280.9","1016.332","27.17","62.12","255.9","0.0"],
    [1423171,"2026-07-31 07:10:00","1549","1.8159999999999998","287.9","3.136","291.5","1016.459","27.7","62.01","287.5","0.0"],
    [1423172,"2026-07-31 07:20:00","1550","2.147","285.6","2.94","295","1016.456","27.97","64.44","321.6","0.0"],
    [1423173,"2026-07-31 07:30:00","1551","2.035","304.6","3.234","291.5","1016.4630000000001","28.13","66.99","356.3","0.0"],
    [1423174,"2026-07-31 07:40:00","1552","0.9940000000000001","276.3","2.352","293.8","1016.341","28.38","67.93","387.7","0.0"],
    [1423175,"2026-07-31 07:50:00","1553","1.065","214.5","2.744","202.7","1016.171","28.57","69.23","425.7","0.0"],
    [1423176,"2026-07-31 08:00:00","1554","1.179","198.3","2.842","204.5","1016.097","28.63","68.76","383.8","0.0"],
    [1423177,"2026-07-31 08:10:00","1555","1.288","186.1","3.234","197.5","1015.971","28.79","68.42","483.7","0.0"],
    [1423178,"2026-07-31 08:20:00","1556","2.144","188.9","4.508","109.1","1015.882","29.12","67.8","509.0","0.0"],
    [1423179,"2026-07-31 08:30:00","1557","2.461","213.9","4.214","222.9","1016.0010000000001","28.81","68.86","581.0","0.0"],
    [1423180,"2026-07-31 08:40:00","1558","2.7260000000000004","181.8","5.978","127.7","1016.1610000000001","28.82","68.23","529.3","0.0"],
    [1423181,"2026-07-31 08:50:00","1559","2.867","177.6","4.998","178.3","1016.299","28.59","69.06","406.0","0.0"],
    [1423182,"2026-07-31 09:00:00","1560","2.383","190.7","6.174","242.2","1016.3689999999999","28.51","70.16","461.4","0.0"],
    [1423183,"2026-07-31 09:10:00","1561","2.544","211.4","5.586","201.4","1016.445","28.8","69.36","449.7","0.0"],
    [1423184,"2026-07-31 09:20:00","1562","2.417","188.2","4.802","178.5","1016.5089999999999","28.86","69.65","424.2","0.0"],
    [1423185,"2026-07-31 09:30:00","1563","3.247","188.2","5.194","192.9","1016.513","28.94","69.9","532.4","0.0"],
    [1423186,"2026-07-31 09:40:00","1564","2.717","197.5","5.488","174.6","1016.4889999999999","28.85","70.58","384.4","0.0"],
    [1423187,"2026-07-31 09:50:00","1565","2.6510000000000002","189.8","5.586","181.5","1016.4780000000001","28.9","71.54","680.5","0.0"],
    [1423188,"2026-07-31 10:00:00","1566","3.028","189.8","5.194","168.3","1016.4019999999999","29.25","70.79","804.0","0.0"],
    [1423189,"2026-07-31 10:10:00","1567","3.023","186.9","5.586","180.2","1016.32","29.39","70.35","813.0","0.0"],
    [1423190,"2026-07-31 10:20:00","1568","3.097","190.1","6.762","188.5","1016.329","29.41","70.58","829.0","0.0"],
    [1423191,"2026-07-31 10:30:00","1569","3.2569999999999997","201.8","6.566","181","1016.316","29.65","69.3","846.0","0.0"],
    [1423192,"2026-07-31 10:40:00","1570","4.084","209.4","7.154","224.2","1016.145","29.67","68.12","861.0","0.0"],
    [1423193,"2026-07-31 10:50:00","1571","4.032","201.7","7.056","187.8","1016.008","29.94","67.84","877.0","0.0"],
    [1423194,"2026-07-31 11:00:00","1572","4.126","197.3","6.958","229.8","1015.954","29.85","68.3","887.0","0.0"],
    [1423195,"2026-07-31 11:10:00","1573","3.9160000000000004","195.9","6.958","178.4","1015.872","30.05","68.01","900.0","0.0"],
    [1423196,"2026-07-31 11:20:00","1574","3.9989999999999997","204.0","7.448","213.9","1015.86","30.49","66.17","910.0","0.0"],
    [1423197,"2026-07-31 11:30:00","1575","3.758","200.6","7.056","226.5","1015.8810000000001","30.16","67.25","916.0","0.0"],
    [1423198,"2026-07-31 11:40:00","1576","4.1610000000000005","207.5","7.252","228.8","1015.803","30.34","66.37","918.0","0.0"],
    [1423199,"2026-07-31 11:50:00","1577","3.701","196.5","8.13","222.5","1015.748","30.43","66.66","923.0","0.0"],
    [1423200,"2026-07-31 12:00:00","1578","4.118","205.9","7.546","222.2","1015.689","30.41","65.75","923.0","0.0"],
    [1423201,"2026-07-31 12:10:00","1579","4.32","198.2","8.33","212.4","1015.64","30.0","66.93","921.0","0.0"],
    [1423202,"2026-07-31 12:20:00","1580","3.47","197.1","7.252","181.2","1015.5980000000001","30.38","65.75","918.0","0.0"],
    [1423203,"2026-07-31 12:30:00","1581","4.23","197.8","8.04","209.9","1015.59","30.07","66.25","916.0","0.0"],
    [1423204,"2026-07-31 12:40:00","1582","4.2410000000000005","199.9","7.742","188.4","1015.552","30.37","65.82","909.0","0.0"],
    [1423205,"2026-07-31 12:50:00","1583","4.382","208.3","7.84","207.2","1015.507","30.44","65.79","900.0","0.0"],
    [1423206,"2026-07-31 13:00:00","1584","4.854","211.3","7.742","226.1","1015.5060000000001","30.2","65.97","893.0","0.0"],
    [1423207,"2026-07-31 13:10:00","1585","3.98","207.2","7.252","166.9","1015.428","30.5","65.99","883.0","0.0"],
    [1423208,"2026-07-31 13:20:00","1586","4.886","211.4","8.04","172.4","1015.408","30.45","65.64","869.0","0.0"],
    [1423209,"2026-07-31 13:30:00","1587","4.417","204.5","8.04","199.8","1015.2860000000001","30.43","65.58","852.0","0.0"],
    [1423210,"2026-07-31 13:40:00","1588","4.7989999999999995","209.8","8.23","218","1015.19","30.15","66.71","836.0","0.0"],
    [1423211,"2026-07-31 13:50:00","1589","3.56","193.1","8.43","167.1","1015.075","30.58","65.19","820.0","0.0"],
    [1423212,"2026-07-31 14:00:00","1590","4.023","200.7","7.84","218.5","1015.0360000000001","30.72","64.63","801.0","0.0"],
    [1423213,"2026-07-31 14:10:00","1591","3.99","200.0","7.84","216.1","1014.998","30.63","64.77","782.3","0.0"],
    [1423214,"2026-07-31 14:20:00","1592","4.372","203.8","8.04","213","1014.89","30.45","65.15","759.6","0.0"],
    [1423215,"2026-07-31 14:30:00","1593","4.023","201.7","8.23","229.1","1014.8389999999999","30.6","63.03","734.2","0.0"],
    [1423216,"2026-07-31 14:40:00","1594","4.478","200.6","7.742","186.5","1014.816","30.62","62.04","710.9","0.0"],
    [1423217,"2026-07-31 14:50:00","1595","4.329","191.2","8.23","177.9","1014.7589999999999","30.27","65.1","687.6","0.0"],
    [1423218,"2026-07-31 15:00:00","1596","3.733","198.0","6.86","170.9","1014.7230000000001","30.52","64.83","662.3","0.0"],
    [1423219,"2026-07-31 15:10:00","1597","3.358","195.1","6.762","165.9","1014.763","30.18","65.79","635.4","0.0"],
    [1423220,"2026-07-31 15:20:00","1598","3.545","198.2","7.154","185.2","1014.69","30.11","66.34","606.9","0.0"],
    [1423221,"2026-07-31 15:30:00","1599","3.7319999999999998","197.5","6.664","227","1014.6060000000001","30.03","66.17","577.7","0.0"],
    [1423222,"2026-07-31 15:40:00","1600","3.612","204.6","7.056","188.1","1014.587","29.9","67.14","544.7","0.0"],
    [1423223,"2026-07-31 15:50:00","1601","3.478","198.2","6.37","228.5","1014.451","29.83","67.6","493.9","0.0"],
    [1423224,"2026-07-31 16:00:00","1602","3.1919999999999997","201.8","5.978","212.7","1014.518","29.86","67.05","488.9","0.0"],
    [1423225,"2026-07-31 16:10:00","1603","3.676","197.9","6.664","180.9","1014.6039999999999","29.58","67.74","459.2","0.0"],
    [1423226,"2026-07-31 16:20:00","1604","3.39","194.2","5.88","176.5","1014.5939999999999","29.54","68.9","455.6","0.0"],
    [1423227,"2026-07-31 16:30:00","1605","2.262","198.1","4.508","159.1","1014.512","29.41","69.93","294.2","0.0"],
    [1423228,"2026-07-31 16:40:00","1606","2.9339999999999997","200.3","5.194","167.8","1014.6160000000001","29.15","70.75","228.8","0.0"],
    [1423229,"2026-07-31 16:50:00","1607","2.589","197.3","4.998","186.2","1014.575","28.84","72.2","230.6","0.0"],
    [1423230,"2026-07-31 17:00:00","1608","2.594","209.1","7.056","184.8","1014.4630000000001","29.0","72.15","239.8","0.0"],
    [1423231,"2026-07-31 17:10:00","1609","2.541","209.8","4.704","224","1014.2289999999999","28.85","72.71","246.0","0.0"],
    [1423232,"2026-07-31 17:20:00","1610","1.962","180.3","3.822","215.5","1013.993","28.94","72.9","246.1","0.0"],
    [1423233,"2026-07-31 17:30:00","1611","1.735","182.1","3.43","144.9","1013.9739999999999","28.77","74.03","180.8","0.0"],
    [1423234,"2026-07-31 17:40:00","1612","1.9909999999999999","197.7","8.62","222","1014.105","28.57","74.6","147.7","0.0"],
    [1423235,"2026-07-31 17:50:00","1613","1.79","182.4","3.43","160.3","1014.043","28.43","75.88","138.2","0.0"],
    [1423236,"2026-07-31 18:00:00","1614","2.5069999999999997","217.0","4.704","200.2","1014.13","28.33","76.06","85.4","0.0"],
    [1423237,"2026-07-31 18:10:00","1615","2.049","219.7","4.018","198.7","1014.137","28.09","77.01","65.29","0.0"],
    [1423238,"2026-07-31 18:20:00","1616","2.2640000000000002","199.0","4.704","191.4","1014.0419999999999","28.03","77.25","52.67","0.0"],
    [1423239,"2026-07-31 18:30:00","1617","2.0540000000000003","189.0","4.41","186.9","1014.0310000000001","27.95","77.48","24.67","0.0"],
    [1423240,"2026-07-31 18:40:00","1618","2.096","214.2","5.292","200","1014.155","27.84","77.47","10.98","0.0"],
    [1423241,"2026-07-31 18:50:00","1619","2.6919999999999997","211.7","4.606","188.7","1014.3330000000001","27.86","77.5","8.83","0.0"],
    [1423242,"2026-07-31 19:00:00","1620","2.6630000000000003","214.7","5.586","200.9","1014.346","27.84","77.68","7.077000000000001","0.0"],
    [1423243,"2026-07-31 19:10:00","1621","2.097","212.2","4.508","247.5","1014.419","27.77","77.24","1.9969999999999999","0.0"],
    [1423244,"2026-07-31 19:20:00","1622","2.2230000000000003","216.5","6.468","155.3","1014.4730000000001","27.73","76.01","-0.951","0.0"],
    [1423245,"2026-07-31 19:30:00","1623","1.99","205.0","4.9","229.8","1014.4810000000001","27.72","75.31","-1.9340000000000002","0.0"],
    [1423246,"2026-07-31 19:40:00","1624","1.625","215.3","4.116","209.3","1014.462","27.66","75.72","-2.5780000000000003","0.0"],
    [1423247,"2026-07-31 19:50:00","1625","1.47","195.0","2.548","147.5","1014.44","27.71","76.02","-2.573","0.0"],
    [1423248,"2026-07-31 20:00:00","1626","1.3330000000000002","219.2","2.45","191.1","1014.565","27.7","76.05","-2.53","0.0"],
    [1423249,"2026-07-31 20:10:00","1627","1.7180000000000002","230.7","2.94","212.5","1015.0239999999999","27.71","76.51","-2.242","0.0"],
    [1423250,"2026-07-31 20:20:00","1628","1.278","230.4","2.646","235.7","1015.205","27.66","76.66","-1.5919999999999999","0.0"],
    [1423251,"2026-07-31 20:30:00","1629","1.7819999999999998","220.7","3.038","222.1","1015.237","27.8","75.99","-1.469","0.0"],
    [1423252,"2026-07-31 20:40:00","1630","1.7009999999999998","219.7","3.528","220","1015.268","27.9","75.34","-1.7009999999999998","0.0"],
    [1423253,"2026-07-31 20:50:00","1631","1.492","223.5","2.254","216.9","1015.293","27.89","75.02","-1.838","0.0"],
    [1423254,"2026-07-31 21:00:00","1632","0.79","217.9","2.156","213.6","1015.309","27.82","75.3","-2.028","0.0"],
    [1423255,"2026-07-31 21:10:00","1633","0.568","221.2","1.96","175","1015.365","27.62","76.43","-2.338","0.0"],
    [1423256,"2026-07-31 21:20:00","1634","0.7659999999999999","215.0","1.568","219.5","1015.385","27.57","77.13","-1.874","0.0"],
    [1423257,"2026-07-31 21:30:00","1635","0.7879999999999999","244.0","1.764","254.3","1015.459","27.57","77.12","-1.618","0.0"],
    [1423258,"2026-07-31 21:40:00","1636","0.602","249.3","2.058","250.9","1015.5010000000001","27.54","77.49","-1.27","0.0"],
    [1423259,"2026-07-31 21:50:00","1637","0.797","247.2","1.666","298.8","1015.477","27.52","77.51","-1.5130000000000001","0.0"],
    [1423260,"2026-07-31 22:00:00","1638","0.879","214.3","1.568","205.3","1015.3960000000001","27.48","77.86","-2.366","0.0"],
    [1423261,"2026-07-31 22:10:00","1639","0.8420000000000001","255.8","1.372","199.8","1015.342","27.31","78.21","-2.583","0.0"],
    [1423262,"2026-07-31 22:20:00","1640","0.873","305.3","1.372","309.3","1015.413","27.31","77.94","-2.577","0.0"],
    [1423263,"2026-07-31 22:30:00","1641","0.94","302.4","1.568","311.6","1015.416","27.3","78.05","-2.052","0.0"],
    [1423264,"2026-07-31 22:40:00","1642","0.419","297.4","1.372","306.2","1015.4580000000001","27.22","78.15","-2.112","0.0"],
    [1423265,"2026-07-31 22:50:00","1643","0.415","302.0","1.274","340.8","1015.42","27.05","78.63","-2.593","0.0"],
    [1423266,"2026-07-31 23:00:00","1644","0.5820000000000001","304.5","1.274","309","1015.4730000000001","27.05","78.56","-2.592","0.0"],
    [1423267,"2026-07-31 23:10:00","1645","0.42","298.9","0.882","303.4","1015.438","27.06","78.37","-2.537","0.0"],
    [1423268,"2026-07-31 23:20:00","1646","0.0","0.0","0","300.4","1015.3919999999999","26.91","78.55","-2.5860000000000003","0.0"],
    [1423269,"2026-07-31 23:30:00","1647","0.0","0.0","0","302.9","1015.4119999999999","26.76","79.18","-2.591","0.0"],
    [1423270,"2026-07-31 23:40:00","1648","0.001","290.1","0.098","290.1","1015.433","26.72","79.21","-2.488","0.0"],
    [1423271,"2026-07-31 23:50:00","1649","0.0","0.0","0","290","1015.398","26.72","79.02","-2.478","0.0"],
    [1423272,"2026-08-01 00:00:00","1650","0.0","0.0","0","289.9","1015.365","26.51","79.36","-2.574","0.0"],
    [1423273,"2026-08-01 00:10:00","1651","0.005","290.0","0.196","290","1015.3510000000001","26.45","79.79","-2.063","0.0"],
    [1423274,"2026-08-01 00:20:00","1652","0.0","0.0","0","290","1015.29","26.45","79.99","-1.945","0.0"],
    [1423275,"2026-08-01 00:30:00","1653","0.0","0.0","0","290","1015.222","26.48","79.52","-2.204","0.0"],
    [1423276,"2026-08-01 00:40:00","1654","0.527","74.14","0.98","72.38","1015.238","26.62","79.64","-2.4130000000000003","0.0"],
    [1423277,"2026-08-01 00:50:00","1655","0.354","93.6","0.784","84.6","1015.291","26.54","81.3","-2.5780000000000003","0.0"],
    [1423278,"2026-08-01 01:00:00","1656","0.059000000000000004","96.2","0.686","96.2","1015.257","26.61","81.7","-2.548","0.0"],
    [1423279,"2026-08-01 01:10:00","1657","0.39399999999999996","303.7","1.176","298","1015.171","26.52","80.9","-2.403","0.0"],
    [1423280,"2026-08-01 01:20:00","1658","0.818","275.3","1.372","291.5","1015.14","26.26","81.5","-2.5140000000000002","0.0"],
    [1423281,"2026-08-01 01:30:00","1659","0.8220000000000001","285.8","1.764","276.6","1015.1519999999999","26.11","81.7","-2.5380000000000003","0.0"],
    [1423282,"2026-08-01 01:40:00","1660","1.318","273.2","1.96","270.7","1015.1160000000001","25.92","81.5","-2.4530000000000003","0.0"],
    [1423283,"2026-08-01 01:50:00","1661","0.5870000000000001","279.1","1.274","271.3","1015.067","25.88","81.0","-2.448","0.0"],
    [1423284,"2026-08-01 02:00:00","1662","0.451","68.05","1.764","71.31","1015.1310000000001","25.7","81.5","-2.591","0.0"],
    [1423285,"2026-08-01 02:10:00","1663","1.625","56.67","2.744","58.23","1015.0939999999999","25.94","80.8","-2.539","0.0"],
    [1423286,"2026-08-01 02:20:00","1664","1.538","56.33","2.254","60.22","1015.077","26.19","81.5","-2.513","0.0"],
    [1423287,"2026-08-01 02:30:00","1665","1.278","44.78","2.45","58.04","1015.1080000000001","26.25","83.8","-2.532","0.0"],
    [1423288,"2026-08-01 02:40:00","1666","1.926","49.72","3.332","46.99","1015.07","26.24","84.0","-2.324","0.0"],
    [1423289,"2026-08-01 02:50:00","1667","1.969","53.05","3.136","62.4","1014.9810000000001","26.27","83.3","-1.742","0.0"],
    [1423290,"2026-08-01 03:00:00","1668","2.681","49.6","4.508","54.46","1014.987","26.2","81.8","-1.348","0.0"],
    [1423291,"2026-08-01 03:10:00","1669","2.67","43.84","4.116","46.7","1014.962","26.17","80.6","-1.838","0.0"],
    [1423292,"2026-08-01 03:20:00","1670","2.451","36.99","4.41","40.45","1014.9860000000001","26.18","81.9","-1.8519999999999999","0.0"],
    [1423293,"2026-08-01 03:30:00","1671","1.993","39.82","3.724","29.65","1015.0139999999999","26.12","82.4","-1.837","0.0"],
    [1423294,"2026-08-01 03:40:00","1672","2.365","43.01","4.41","66.95","1014.9810000000001","26.02","82.6","-1.849","0.0"],
    [1423295,"2026-08-01 03:50:00","1673","3.048","47.37","5.39","56.59","1014.904","25.96","83.1","-1.858","0.0"],
    [1423296,"2026-08-01 04:00:00","1674","3.213","40.59","4.802","27.76","1014.8439999999999","25.88","82.9","-1.847","0.0"],
    [1423297,"2026-08-01 04:10:00","1675","2.395","35.32","4.606","46.07","1014.855","25.82","81.8","-1.855","0.0"],
    [1423298,"2026-08-01 04:20:00","1676","2.2769999999999997","37.07","4.214","27.18","1014.73","25.81","81.8","-1.9140000000000001","0.0"],
    [1423299,"2026-08-01 04:30:00","1677","2.035","47.4","3.92","36.77","1014.682","25.79","82.2","-1.827","0.0"],
    [1423300,"2026-08-01 04:40:00","1678","2.515","45.87","4.802","59.35","1014.7560000000001","25.75","82.1","-0.9109999999999999","0.0"],
    [1423301,"2026-08-01 04:50:00","1679","1.91","44.88","3.43","43.6","1014.7869999999999","25.74","82.5","1.4569999999999999","0.0"],
    [1423302,"2026-08-01 05:00:00","1680","1.75","36.89","3.136","15.31","1014.909","25.76","82.8","6.545","0.0"],
    [1423303,"2026-08-01 05:10:00","1681","2.082","26.62","3.234","6.976","1014.943","25.78","82.5","14.29","0.0"],
    [1423304,"2026-08-01 05:20:00","1682","2.463","24.45","4.116","18.56","1014.927","25.77","81.5","23.03","0.0"],
    [1423305,"2026-08-01 05:30:00","1683","2.3280000000000003","30.32","3.92","30.04","1014.875","25.86","80.8","34.9","0.0"],
    [1423306,"2026-08-01 05:40:00","1684","1.661","45.26","3.92","56.15","1014.9580000000001","26.06","80.9","45.46","0.0"],
    [1423307,"2026-08-01 05:50:00","1685","1.916","40.84","3.136","38.23","1015.041","26.13","80.6","63.46","0.0"],
    [1423308,"2026-08-01 06:00:00","1686","2.227","24.12","3.92","19.62","1015.0939999999999","26.31","78.96","116.8","0.0"],
    [1423309,"2026-08-01 06:10:00","1687","2.099","38.97","4.312","30.23","1015.095","26.74","78.17","125.9","0.0"],
    [1423310,"2026-08-01 06:20:00","1688","3.245","42.45","5.39","38.76","1015.075","26.9","77.98","183.2","0.0"],
    [1423311,"2026-08-01 06:30:00","1689","2.948","39.99","4.998","35.9","1015.1089999999999","27.02","77.43","208.6","0.0"],
    [1423312,"2026-08-01 06:40:00","1690","3.278","42.65","5.39","34.2","1015.206","27.13","77.44","255.3","0.0"],
    [1423313,"2026-08-01 06:50:00","1691","3.262","40.41","4.998","30.76","1015.262","27.21","77.21","228.1","0.0"],
    [1423314,"2026-08-01 07:00:00","1692","3.245","48.58","5.096","29.17","1015.258","27.24","76.91","241.6","0.0"],
    [1423315,"2026-08-01 07:10:00","1693","3.2260000000000004","59.97","4.704","46.91","1015.237","27.17","76.98","279.4","0.0"],
    [1423316,"2026-08-01 07:20:00","1694","3.321","60.07","5.194","72.44","1015.2330000000001","27.7","75.67","398.0","0.0"],
    [1423317,"2026-08-01 07:30:00","1695","3.5039999999999996","58.49","5.586","58.93","1015.185","27.92","74.94","455.3","0.0"],
    [1423318,"2026-08-01 07:40:00","1696","4.022","54.26","6.174","71.96","1015.087","27.77","76.59","414.1","0.0"],
    [1423319,"2026-08-01 07:50:00","1697","3.313","59.24","4.802","53.36","1015.194","27.97","76.27","394.5","0.0"],
    [1423320,"2026-08-01 08:00:00","1698","2.102","64.02","4.41","52.82","1015.533","27.9","76.77","308.3","0.0"],
    [1423321,"2026-08-01 08:10:00","1699","1.6269999999999998","59.37","3.136","75.6","1015.778","27.57","78.22","210.1","0.0"],
    [1423322,"2026-08-01 08:20:00","1700","1.37","96.4","2.744","69.26","1015.753","27.75","77.25","304.5","0.0"],
    [1423323,"2026-08-01 08:30:00","1701","2.34","84.7","3.234","66.1","1015.648","28.07","76.08","587.5","0.0"],
    [1423324,"2026-08-01 08:40:00","1702","2.177","92.7","3.528","81.4","1015.571","28.54","73.62","600.8","0.0"],
    [1423325,"2026-08-01 08:50:00","1703","2.253","100.3","3.43","92.7","1015.5210000000001","28.82","72.56","644.4","0.0"],
    [1423326,"2026-08-01 09:00:00","1704","2.897","91.8","4.116","97.6","1015.416","28.39","74.08","671.8","0.0"],
    [1423327,"2026-08-01 09:10:00","1705","2.9019999999999997","93.0","4.704","93.7","1015.385","28.66","73.09","689.2","0.0"],
    [1423328,"2026-08-01 09:20:00","1706","2.6830000000000003","101.8","4.704","77.54","1015.3760000000001","28.93","71.3","706.8","0.0"],
    [1423329,"2026-08-01 09:30:00","1707","2.8080000000000003","89.2","6.86","87.1","1015.3389999999999","28.89","71.13","737.6","0.0"],
    [1423330,"2026-08-01 09:40:00","1708","2.366","99.2","4.312","75.12","1015.446","29.22","68.18","758.6","0.0"],
    [1423331,"2026-08-01 09:50:00","1709","1.127","129.9","3.234","134.2","1015.482","29.93","65.69","839.0","0.0"],
    [1423332,"2026-08-01 10:00:00","1710","1.771","112.9","5.292","112.6","1015.455","30.24","65.0","525.1","0.0"],
    [1423333,"2026-08-01 10:10:00","1711","1.996","117.5","4.508","103.7","1015.434","29.54","67.23","488.8","0.0"],
    [1423334,"2026-08-01 10:20:00","1712","2.119","117.4","5.488","129.2","1015.434","29.45","67.03","569.7","0.0"],
    [1423335,"2026-08-01 10:30:00","1713","1.91","123.6","4.802","111","1015.441","30.11","64.88","873.0","0.0"],
    [1423336,"2026-08-01 10:40:00","1714","1.339","145.1","4.606","167.1","1015.3739999999999","30.79","62.39","903.0","0.0"],
    [1423337,"2026-08-01 10:50:00","1715","2.073","142.4","5.488","178.8","1015.3489999999999","30.11","63.75","601.1","0.0"],
    [1423338,"2026-08-01 11:00:00","1716","2.222","130.0","5.684","137.1","1015.341","29.74","65.13","560.8","0.0"],
    [1423339,"2026-08-01 11:10:00","1717","2.069","134.1","5.782","140.3","1015.243","29.86","64.82","552.3","0.0"],
    [1423340,"2026-08-01 11:20:00","1718","1.8780000000000001","124.2","5.488","122.9","1015.199","29.72","64.44","646.4","0.0"],
    [1423341,"2026-08-01 11:30:00","1719","2.283","159.2","5.978","173","1015.079","30.05","63.36","923.0","0.0"],
    [1423342,"2026-08-01 11:40:00","1720","2.688","165.4","6.272","199.1","1014.957","30.47","62.3","674.7","0.0"],
    [1423343,"2026-08-01 11:50:00","1721","1.3659999999999999","137.1","5.292","144.5","1014.845","29.67","65.57","460.1","0.0"],
    [1423344,"2026-08-01 12:00:00","1722","1.8","156.0","4.802","191.4","1014.807","30.11","62.96","759.0","0.0"],
    [1423345,"2026-08-01 12:10:00","1723","2.244","153.4","5.88","187.5","1014.78","29.7","63.98","635.4","0.0"],
    [1423346,"2026-08-01 12:20:00","1724","2.72","171.5","6.566","135.5","1014.7130000000001","30.0","63.54","529.5","0.0"],
    [1423347,"2026-08-01 12:30:00","1725","3.054","167.7","5.88","175.9","1014.61","29.46","65.08","739.4","0.0"],
    [1423348,"2026-08-01 12:40:00","1726","3.06","168.4","6.468","166.1","1014.4739999999999","29.53","65.23","640.5","0.0"],
    [1423349,"2026-08-01 12:50:00","1727","2.7569999999999997","167.7","6.86","180.5","1014.3560000000001","29.71","64.13","577.0","0.0"],
    [1423350,"2026-08-01 13:00:00","1728","3.1639999999999997","170.7","6.174","179.9","1014.216","29.18","66.32","582.6","0.0"],
    [1423351,"2026-08-01 13:10:00","1729","2.8110000000000004","152.6","6.37","179.2","1014.1060000000001","29.37","66.31","546.6","0.0"],
    [1423352,"2026-08-01 13:20:00","1730","1.565","149.3","4.9","202.8","1014.048","30.05","64.08","614.4","0.0"],
    [1423353,"2026-08-01 13:30:00","1731","2.01","140.8","6.762","158.1","1014.008","30.43","63.06","747.3","0.0"],
    [1423354,"2026-08-01 13:40:00","1732","2.821","160.2","5.978","152.2","1013.992","30.13","63.37","691.2","0.0"],
    [1423355,"2026-08-01 13:50:00","1733","3.72","162.9","7.546","172.7","1013.942","29.05","66.73","494.5","0.0"],
    [1423356,"2026-08-01 14:00:00","1734","2.852","164.7","6.468","149.7","1013.862","29.16","66.26","486.4","0.0"],
    [1423357,"2026-08-01 14:10:00","1735","2.231","167.3","7.252","182","1013.7","29.47","65.0","669.4","0.0"],
    [1423358,"2026-08-01 14:20:00","1736","2.398","162.2","6.468","188","1013.513","29.95","63.72","805.0","0.0"],
    [1423359,"2026-08-01 14:30:00","1737","3.1689999999999996","164.0","7.35","163.8","1013.403","29.66","64.2","750.3","0.0"],
    [1423360,"2026-08-01 14:40:00","1738","1.588","144.4","5.488","133.5","1013.3","30.08","63.28","715.4","0.0"],
    [1423361,"2026-08-01 14:50:00","1739","2.614","155.1","6.174","164.6","1013.22","30.12","63.46","687.7","0.0"],
    [1423362,"2026-08-01 15:00:00","1740","2.44","161.9","6.958","154","1013.1410000000001","29.61","65.5","661.0","0.0"],
    [1423363,"2026-08-01 15:10:00","1741","2.405","170.8","6.076","187.2","1013.0139999999999","29.8","64.37","635.1","0.0"],
    [1423364,"2026-08-01 15:20:00","1742","2.342","156.5","6.37","163.3","1012.93","29.84","64.09","606.7","0.0"],
    [1423365,"2026-08-01 15:30:00","1743","2.93","187.4","6.076","192.5","1012.8789999999999","29.87","65.52","574.0","0.0"],
    [1423366,"2026-08-01 15:40:00","1744","3.1689999999999996","184.2","6.468","180.2","1012.945","29.92","65.83","545.6","0.0"],
    [1423367,"2026-08-01 15:50:00","1745","3.523","185.5","6.762","180.2","1012.928","29.79","66.03","486.6","0.0"],
    [1423368,"2026-08-01 16:00:00","1746","3.023","183.5","5.782","191.2","1012.8789999999999","29.75","66.0","481.6","0.0"],
    [1423369,"2026-08-01 16:10:00","1747","2.77","199.5","5.684","182.4","1012.8660000000001","29.7","66.54","428.0","0.0"],
    [1423370,"2026-08-01 16:20:00","1748","2.48","188.3","5.488","173.1","1012.921","29.91","66.98","419.5","0.0"],
    [1423371,"2026-08-01 16:30:00","1749","2.489","192.3","4.704","164.5","1012.875","29.73","67.26","391.1","0.0"],
    [1423372,"2026-08-01 16:40:00","1750","2.804","188.9","5.586","181.5","1012.78","29.55","68.18","360.7","0.0"],
    [1423373,"2026-08-01 16:50:00","1751","2.926","183.9","5.586","161.1","1012.855","29.43","68.98","330.8","0.0"],
    [1423374,"2026-08-01 17:00:00","1752","2.61","180.3","5.096","185","1012.893","29.22","70.57","300.2","0.0"],
    [1423375,"2026-08-01 17:10:00","1753","2.8819999999999997","194.6","4.802","155.9","1012.796","29.03","71.12","270.8","0.0"],
    [1423376,"2026-08-01 17:20:00","1754","2.57","195.7","5.292","199.4","1012.568","29.19","70.7","245.1","0.0"],
    [1423377,"2026-08-01 17:30:00","1755","2.274","168.0","4.802","178.4","1012.8580000000001","28.9","71.57","214.1","0.0"],
    [1423378,"2026-08-01 17:40:00","1756","2.57","177.5","5.096","172.3","1012.9910000000001","28.67","72.28","148.2","0.0"],
    [1423379,"2026-08-01 17:50:00","1757","1.6369999999999998","131.6","3.332","141.4","1013.2869999999999","28.52","73.46","84.4","0.0"],
    [1423380,"2026-08-01 18:00:00","1758","1.535","112.2","3.822","88.9","1013.059","28.36","74.25","60.85","0.0"],
    [1423381,"2026-08-01 18:10:00","1759","1.33","128.3","3.626","79.87","1013.078","28.24","74.39","48.61","0.0"],
    [1423382,"2026-08-01 18:20:00","1760","0.985","120.5","4.018","101","1013.347","28.22","74.41","36.27","0.0"],
    [1423383,"2026-08-01 18:30:00","1761","1.694","118.2","3.234","140","1013.562","28.14","74.55","28.73","0.0"],
    [1423384,"2026-08-01 18:40:00","1762","1.193","110.9","3.136","112","1013.262","27.94","75.45","26.91","0.0"],
    [1423385,"2026-08-01 18:50:00","1763","1.63","104.2","3.332","97.7","1012.987","28.02","75.04","21.95","0.0"],
    [1423386,"2026-08-01 19:00:00","1764","1.1159999999999999","126.5","3.038","115.6","1012.916","27.86","75.7","13.94","0.0"],
    [1423387,"2026-08-01 19:10:00","1765","0.853","125.8","2.842","123.7","1012.945","27.69","76.09","3.889","0.0"],
    [1423388,"2026-08-01 19:20:00","1766","2.206","183.1","3.626","180.1","1012.867","27.68","76.41","0.309","0.0"],
    [1423389,"2026-08-01 19:30:00","1767","1.574","170.5","3.724","168.1","1012.83","27.62","76.87","-1.567","0.0"],
    [1423390,"2026-08-01 19:40:00","1768","1.3659999999999999","173.1","3.43","189.5","1012.461","27.53","77.29","-1.854","0.0"],
    [1423391,"2026-08-01 19:50:00","1769","0.8420000000000001","156.4","2.352","159.3","1012.5210000000001","27.5","77.63","-1.867","0.0"],
    [1423392,"2026-08-01 20:00:00","1770","1.2409999999999999","117.8","3.136","103.5","1012.449","27.5","77.94","-2.01","0.0"],
    [1423393,"2026-08-01 20:10:00","1771","0.66","171.1","1.568","155.9","1012.615","27.48","78.04","-1.916","0.0"],
    [1423394,"2026-08-01 20:20:00","1772","1.5859999999999999","179.9","5.684","210.6","1012.61","27.44","78.37","-2.131","0.0"],
    [1423395,"2026-08-01 20:30:00","1773","1.4280000000000002","170.5","2.45","161.6","1012.4910000000001","27.44","78.28","-2.1109999999999998","0.0"],
    [1423396,"2026-08-01 20:40:00","1774","1.493","173.6","7.742","161.5","1012.694","27.47","78.16","-2.046","0.0"],
    [1423397,"2026-08-01 20:50:00","1775","1.3730000000000002","188.1","4.508","169","1012.88","27.49","77.8","-1.902","0.0"],
    [1423398,"2026-08-01 21:00:00","1776","1.569","193.1","3.136","174.2","1013.091","27.55","78.13","-1.8519999999999999","0.0"],
    [1423399,"2026-08-01 21:10:00","1777","1.179","188.6","2.744","190.8","1012.982","27.57","78.51","-1.831","0.0"],
    [1423400,"2026-08-01 21:20:00","1778","1.208","189.6","1.862","185.4","1012.9780000000001","27.54","78.66","-1.85","0.0"],
    [1423401,"2026-08-01 21:30:00","1779","1.364","187.7","3.038","178.9","1013.061","27.53","78.39","-1.825","0.0"],
    [1423402,"2026-08-01 21:40:00","1780","1.072","208.6","2.156","196.7","1012.919","27.56","78.04","-1.795","0.0"],
    [1423403,"2026-08-01 21:50:00","1781","0.8540000000000001","249.7","1.764","223.5","1012.842","27.51","78.91","-1.9040000000000001","0.0"],
    [1423404,"2026-08-01 22:00:00","1782","0.836","305.4","1.274","316.6","1012.568","27.31","79.59","-2.502","0.0"],
    [1423405,"2026-08-01 22:10:00","1783","0.925","309.2","1.372","300.7","1012.3889999999999","27.14","80.1","-2.4730000000000003","0.0"],
    [1423406,"2026-08-01 22:20:00","1784","0.45","270.6","0.882","284","1012.413","27.12","80.4","-2.593","0.0"],
    [1423407,"2026-08-01 22:30:00","1785","0.509","277.1","1.47","288.4","1012.319","27.0","80.8","-2.593","0.0"],
    [1423408,"2026-08-01 22:40:00","1786","0.8320000000000001","279.9","1.568","277","1012.2710000000001","26.85","81.3","-2.559","0.0"],
    [1423409,"2026-08-01 22:50:00","1787","1.004","298.9","1.862","290.1","1012.288","26.88","80.9","-1.9269999999999998","0.0"],
    [1423410,"2026-08-01 23:00:00","1788","1.3780000000000001","314.6","2.548","320.5","1012.1389999999999","26.86","81.0","-2.443","0.0"],
    [1423411,"2026-08-01 23:10:00","1789","1.255","309.0","2.45","325.6","1012.07","26.96","80.7","-2.589","0.0"],
    [1423412,"2026-08-01 23:20:00","1790","0.304","280.6","0.882","272.6","1012.045","26.89","80.7","-2.593","0.0"],
    [1423413,"2026-08-01 23:30:00","1791","0.9490000000000001","240.7","1.568","268.9","1012.056","26.84","80.9","-2.585","0.0"],
    [1423414,"2026-08-01 23:40:00","1792","0.961","207.0","1.96","212","1012.038","26.94","80.7","-2.59","0.0"],
    [1423415,"2026-08-01 23:50:00","1793","1.06","217.4","1.96","182.3","1011.945","26.9","81.0","-2.5669999999999997","0.0"],
    [1423416,"2026-08-02 00:00:00","1794","0.833","214.8","1.666","203","1011.84","26.72","81.9","-2.592","0.0"],
    [1423417,"2026-08-02 00:10:00","1795","0.629","207.0","1.47","227.8","1011.7389999999999","26.6","82.2","-2.59","0.0"],
    [1423418,"2026-08-02 00:20:00","1796","0.815","227.9","1.96","240.6","1011.655","26.46","82.8","-2.592","0.0"],
    [1423419,"2026-08-02 00:30:00","1797","0.872","266.3","1.47","256.1","1011.553","26.41","83.0","-2.592","0.0"],
    [1423420,"2026-08-02 00:40:00","1798","0.521","279.8","1.176","301","1011.515","26.09","83.7","-2.592","0.0"],
    [1423421,"2026-08-02 00:50:00","1799","0.9670000000000001","278.3","2.254","269.3","1011.404","25.84","84.7","-2.615","0.0"],
    [1423422,"2026-08-02 01:00:00","1800","0.63","280.3","1.372","280.4","1011.346","25.9","84.3","-2.592","0.0"],
    [1423423,"2026-08-02 01:10:00","1801","0.7090000000000001","290.4","1.568","277.3","1011.243","25.89","84.0","-2.563","0.0"],
    [1423424,"2026-08-02 01:20:00","1802","0.12300000000000001","309.5","0.882","307.5","1011.11","25.65","84.4","-2.593","0.0"],
    [1423425,"2026-08-02 01:30:00","1803","0.359","1.194","0.686","1.163","1010.938","25.72","84.4","-2.545","0.0"],
    [1423426,"2026-08-02 01:40:00","1804","0.0","1.26","0.098","1.26","1010.862","25.65","84.3","-2.585","0.0"],
    [1423427,"2026-08-02 01:50:00","1805","0.0","0.0","0","1.26","1010.801","25.59","84.6","-2.577","0.0"],
    [1423428,"2026-08-02 02:00:00","1806","0.0","0.0","0","0.194","1010.7280000000001","25.42","84.1","-2.33","0.0"],
    [1423429,"2026-08-02 02:10:00","1807","0.0","0.19399999999999998","0.098","0.194","1010.694","25.37","84.5","-2.428","0.0"],
    [1423430,"2026-08-02 02:20:00","1808","0.065","0.6459999999999999","0.588","0.775","1010.637","25.36","84.6","-2.211","0.0"],
    [1423431,"2026-08-02 02:30:00","1809","0.863","19.24","1.274","22","1010.51","25.38","84.6","-2.437","0.0"],
    [1423432,"2026-08-02 02:40:00","1810","0.5760000000000001","34.24","0.98","29.75","1010.508","25.39","84.7","-2.265","0.0"],
    [1423433,"2026-08-02 02:50:00","1811","0.647","66.75","1.568","76.35","1010.533","25.43","85.3","-2.394","0.0"],
    [1423434,"2026-08-02 03:00:00","1812","0.98","93.3","1.96","92","1010.6519999999999","25.77","85.2","-2.371","0.0"],
    [1423435,"2026-08-02 03:10:00","1813","0.789","97.9","2.058","100.5","1010.779","25.96","84.8","-2.251","0.0"],
    [1423436,"2026-08-02 03:20:00","1814","0.526","107.4","1.274","85.7","1010.8689999999999","25.91","85.8","-2.532","0.0"],
    [1423437,"2026-08-02 03:30:00","1815","0.129","92.5","0.882","120.2","1010.966","25.76","86.5","-2.585","0.0"],
    [1423438,"2026-08-02 03:40:00","1816","0.653","304.4","1.274","292.4","1010.9889999999999","25.42","86.6","-2.452","0.0"],
    [1423439,"2026-08-02 03:50:00","1817","0.445","251.6","0.98","257.6","1011.051","25.15","86.6","-2.425","0.0"],
    [1423440,"2026-08-02 04:00:00","1818","0.856","295.4","1.568","288","1011.0160000000001","25.05","86.5","-1.956","0.0"],
    [1423441,"2026-08-02 04:10:00","1819","0.7240000000000001","294.5","1.568","289.1","1011.0310000000001","24.86","86.8","-1.859","0.0"],
    [1423442,"2026-08-02 04:20:00","1820","0.544","292.3","1.176","303.3","1011.0039999999999","24.78","86.7","-1.8459999999999999","0.0"],
    [1423443,"2026-08-02 04:30:00","1821","0.389","306.4","0.98","297.7","1010.9939999999999","24.76","86.8","-1.52","0.0"],
    [1423444,"2026-08-02 04:40:00","1822","0.7090000000000001","296.2","1.372","289","1011.073","24.79","86.7","-0.935","0.0"],
    [1423445,"2026-08-02 04:50:00","1823","0.726","280.1","1.274","282.9","1011.1389999999999","24.91","86.5","0.6940000000000001","0.0"],
    [1423446,"2026-08-02 05:00:00","1824","0.091","291.6","0.686","295.9","1011.148","24.98","86.0","4.188","0.0"],
    [1423447,"2026-08-02 05:10:00","1825","0.161","295.8","0.686","295.9","1011.1619999999999","24.93","85.9","10.86","0.0"],
    [1423448,"2026-08-02 05:20:00","1826","0.787","349.3","1.568","351.4","1011.217","25.2","85.9","20.74","0.0"],
    [1423449,"2026-08-02 05:30:00","1827","0.759","352.6","1.372","352.3","1011.2739999999999","25.52","85.4","35.02","0.0"],
    [1423450,"2026-08-02 05:40:00","1828","0.769","16.54","1.568","17.15","1011.2189999999999","25.81","84.3","47.36","0.0"],
    [1423451,"2026-08-02 05:50:00","1829","0.7170000000000001","43.28","1.274","57.94","1011.153","26.19","83.2","63.57","0.0"],
    [1423452,"2026-08-02 06:00:00","1830","1.041","44.32","2.156","33.33","1011.07","26.54","81.7","77.05","0.0"],
    [1423453,"2026-08-02 06:10:00","1831","1.6380000000000001","26.31","3.038","23.25","1010.977","26.68","78.01","79.63","0.0"],
    [1423454,"2026-08-02 06:20:00","1832","2.6189999999999998","30.58","4.508","12.55","1010.956","26.81","77.26","106.9","0.0"],
    [1423455,"2026-08-02 06:30:00","1833","2.467","30.1","4.214","36.63","1010.957","27.01","78.55","156.9","0.0"],
    [1423456,"2026-08-02 06:40:00","1834","2.033","32.09","4.018","20.88","1010.9730000000001","27.34","77.54","157.8","0.0"],
    [1423457,"2026-08-02 06:50:00","1835","1.661","25.27","3.332","29.17","1011.04","27.48","76.87","208.9","0.0"],
    [1423458,"2026-08-02 07:00:00","1836","1.709","21.05","3.136","13.66","1011.0830000000001","27.98","75.01","245.6","0.0"],
    [1423459,"2026-08-02 07:10:00","1837","2.086","55.19","3.038","55.04","1011.1339999999999","28.13","74.86","281.5","0.0"],
    [1423460,"2026-08-02 07:20:00","1838","1.794","37.22","2.94","71.33","1011.253","28.28","75.85","307.0","0.0"],
    [1423461,"2026-08-02 07:30:00","1839","2.079","71.56","3.43","74.14","1011.3510000000001","28.44","75.69","351.2","0.0"],
    [1423462,"2026-08-02 07:40:00","1840","1.992","73.8","3.136","92.8","1011.373","28.5","75.76","385.7","0.0"],
    [1423463,"2026-08-02 07:50:00","1841","2.271","82.3","3.626","86.1","1011.373","28.48","76.21","419.9","0.0"],
    [1423464,"2026-08-02 08:00:00","1842","2.187","74.9","3.528","78.8","1011.372","28.56","75.94","453.9","0.0"],
    [1423465,"2026-08-02 08:10:00","1843","2.532","83.6","3.822","97.3","1011.307","28.52","76.2","486.2","0.0"],
    [1423466,"2026-08-02 08:20:00","1844","2.647","80.4","4.606","80.3","1011.26","28.47","76.82","500.2","0.0"],
    [1423467,"2026-08-02 08:30:00","1845","2.6830000000000003","78.08","4.214","87.2","1011.247","28.51","76.88","548.5","0.0"],
    [1423468,"2026-08-02 08:40:00","1846","2.767","68.24","4.606","56.99","1011.288","28.62","76.49","557.1","0.0"],
    [1423469,"2026-08-02 08:50:00","1847","2.917","75.33","5.39","110.2","1011.2230000000001","28.9","75.48","609.7","0.0"],
    [1423470,"2026-08-02 09:00:00","1848","2.662","81.5","4.508","93.1","1011.176","28.79","75.85","635.6","0.0"],
    [1423471,"2026-08-02 09:10:00","1849","2.406","80.8","3.626","58.35","1011.1460000000001","29.17","73.36","663.0","0.0"],
    [1423472,"2026-08-02 09:20:00","1850","2.697","93.7","5.096","104.2","1011.184","29.25","73.33","688.5","0.0"],
    [1423473,"2026-08-02 09:30:00","1851","3.1289999999999996","86.8","4.802","83","1011.143","29.07","75.92","713.5","0.0"],
    [1423474,"2026-08-02 09:40:00","1852","3.28","92.8","6.958","341.7","1011.096","29.11","76.45","736.0","0.0"],
    [1423475,"2026-08-02 09:50:00","1853","3.216","93.7","6.664","74.68","1011.073","28.9","77.45","756.8","0.0"],
    [1423476,"2026-08-02 10:00:00","1854","3.338","97.2","6.86","91.5","1011.051","28.95","77.1","775.4","0.0"],
    [1423477,"2026-08-02 10:10:00","1855","3.324","92.5","4.998","105.1","1011.0160000000001","29.07","76.12","798.9","0.0"],
    [1423478,"2026-08-02 10:20:00","1856","3.383","99.7","6.37","82.5","1011.008","28.7","75.74","819.0","0.0"],
    [1423479,"2026-08-02 10:30:00","1857","2.778","104.3","4.704","93.3","1010.939","29.12","74.47","840.0","0.0"],
    [1423480,"2026-08-02 10:40:00","1858","2.907","104.2","4.704","95.6","1010.914","29.47","72.87","858.0","0.0"],
    [1423481,"2026-08-02 10:50:00","1859","2.975","98.8","8.53","111.5","1010.961","29.46","73.18","871.0","0.0"],
    [1423482,"2026-08-02 11:00:00","1860","2.8080000000000003","102.0","4.704","86","1010.957","29.45","73.99","885.0","0.0"],
    [1423483,"2026-08-02 11:10:00","1861","1.912","117.0","4.704","138.2","1010.946","29.85","72.54","898.0","0.0"],
    [1423484,"2026-08-02 11:20:00","1862","2.6069999999999998","102.9","5.978","103.9","1010.932","29.72","73.06","906.0","0.0"],
    [1423485,"2026-08-02 11:30:00","1863","3.056","106.1","5.292","99.2","1010.857","29.4","74.76","903.0","0.0"],
    [1423486,"2026-08-02 11:40:00","1864","3.16","103.1","5.978","111.8","1010.796","29.63","73.52","914.0","0.0"],
    [1423487,"2026-08-02 11:50:00","1865","2.162","110.3","5.488","107.3","1010.748","30.14","71.41","915.0","0.0"],
    [1423488,"2026-08-02 12:00:00","1866","1.925","115.7","5.194","109.1","1010.7080000000001","30.28","70.76","914.0","0.0"],
    [1423489,"2026-08-02 12:10:00","1867","2.005","109.9","4.704","79.92","1010.6260000000001","30.31","71.04","913.0","0.0"],
    [1423490,"2026-08-02 12:20:00","1868","2.367","113.5","4.704","131.3","1010.51","30.39","71.29","913.0","0.0"],
    [1423491,"2026-08-02 12:30:00","1869","3.193","101.0","5.488","121.2","1010.419","29.9","73.43","911.0","0.0"],
    [1423492,"2026-08-02 12:40:00","1870","3.114","101.3","5.684","83.5","1010.3389999999999","29.79","74.44","905.0","0.0"],
    [1423493,"2026-08-02 12:50:00","1871","1.9809999999999999","120.5","4.606","127","1010.335","30.28","72.36","898.0","0.0"],
    [1423494,"2026-08-02 13:00:00","1872","1.3530000000000002","114.3","4.41","140.4","1010.3810000000001","30.76","70.96","831.0","0.0"],
    [1423495,"2026-08-02 13:10:00","1873","1.396","128.5","3.724","93.4","1010.3860000000001","31.22","69.47","889.0","0.0"],
    [1423496,"2026-08-02 13:20:00","1874","2.074","196.8","4.214","231","1010.373","31.73","64.69","872.0","0.0"],
    [1423497,"2026-08-02 13:30:00","1875","2.926","187.6","7.154","195.5","1010.304","31.38","63.99","860.0","0.0"],
    [1423498,"2026-08-02 13:40:00","1876","2.194","174.7","5.488","224.4","1010.308","31.28","65.61","831.0","0.0"],
    [1423499,"2026-08-02 13:50:00","1877","1.879","147.1","5.096","161.7","1010.306","30.99","67.27","834.0","0.0"],
    [1423500,"2026-08-02 14:00:00","1878","1.266","134.2","4.214","117.8","1010.242","31.39","66.62","816.0","0.0"],
    [1423501,"2026-08-02 14:10:00","1879","1.034","147.0","4.41","156.5","1010.207","31.38","67.37","785.7","0.0"],
    [1423502,"2026-08-02 14:20:00","1880","2.124","166.2","4.802","164.5","1010.137","31.14","67.98","763.3","0.0"],
    [1423503,"2026-08-02 14:30:00","1881","1.5390000000000001","149.0","4.116","176.4","1010.007","30.85","69.79","738.2","0.0"],
    [1423504,"2026-08-02 14:40:00","1882","1.462","125.7","3.724","132.2","1009.872","31.1","69.81","731.3","0.0"],
    [1423505,"2026-08-02 14:50:00","1883","1.324","120.8","4.41","117.9","1009.76","31.01","69.82","716.1","0.0"],
    [1423506,"2026-08-02 15:00:00","1884","1.074","124.1","3.136","130.8","1009.672","31.17","69.66","686.9","0.0"],
    [1423507,"2026-08-02 15:10:00","1885","1.4669999999999999","123.3","4.018","129.4","1009.63","31.13","69.82","666.7","0.0"],
    [1423508,"2026-08-02 15:20:00","1886","1.1340000000000001","101.0","3.822","120.1","1009.579","31.48","69.01","640.8","0.0"],
    [1423509,"2026-08-02 15:30:00","1887","1.541","127.2","3.724","165.8","1009.564","30.89","70.88","625.2","0.0"],
    [1423510,"2026-08-02 15:40:00","1888","1.033","150.3","3.822","134.6","1009.5369999999999","30.89","71.12","602.7","0.0"],
    [1423511,"2026-08-02 15:50:00","1889","1.702","164.9","4.312","231.1","1009.457","30.65","71.53","515.2","0.0"],
    [1423512,"2026-08-02 16:00:00","1890","1.319","112.3","4.606","102.8","1009.382","30.78","71.61","542.1","0.0"],
    [1423513,"2026-08-02 16:10:00","1891","1.226","116.3","3.528","156.6","1009.346","30.85","71.41","497.9","0.0"],
    [1423514,"2026-08-02 16:20:00","1892","1.736","129.8","3.724","138.3","1009.26","30.61","72.1","490.1","0.0"],
    [1423515,"2026-08-02 16:30:00","1893","2.3480000000000003","103.2","4.312","105.3","1009.18","30.13","74.17","374.6","0.0"],
    [1423516,"2026-08-02 16:40:00","1894","1.6840000000000002","110.0","3.626","85.5","1009.1239999999999","29.71","75.99","344.6","0.0"],
    [1423517,"2026-08-02 16:50:00","1895","2.0269999999999997","106.1","7.252","100.7","1009.066","29.58","76.46","313.9","0.0"],
    [1423518,"2026-08-02 17:00:00","1896","1.881","113.9","5.292","127.4","1008.987","29.46","77.01","319.2","0.0"],
    [1423519,"2026-08-02 17:10:00","1897","2.21","106.7","6.076","116.1","1008.8889999999999","29.5","77.41","296.0","0.0"],
    [1423520,"2026-08-02 17:20:00","1898","1.5419999999999998","152.9","3.626","77.98","1008.817","29.65","76.13","218.5","0.0"],
    [1423521,"2026-08-02 17:30:00","1899","1.73","210.7","6.37","177.2","1008.8389999999999","29.59","75.09","155.5","0.0"],
    [1423522,"2026-08-02 17:40:00","1900","1.949","193.4","4.214","209.8","1008.857","29.41","76.2","183.0","0.0"],
    [1423523,"2026-08-02 17:50:00","1901","1.8330000000000002","205.4","4.802","151.5","1008.875","29.51","75.45","140.2","0.0"],
    [1423524,"2026-08-02 18:00:00","1902","1.6119999999999999","171.3","3.528","190.4","1008.883","29.3","76.56","127.8","0.0"],
    [1423525,"2026-08-02 18:10:00","1903","1.185","127.8","3.332","73.81","1008.872","29.25","76.71","55.38","0.0"],
    [1423526,"2026-08-02 18:20:00","1904","0.909","154.4","2.744","194.6","1008.8510000000001","29.07","77.21","53.43","0.0"],
    [1423527,"2026-08-02 18:30:00","1905","1.328","113.9","2.94","129.7","1008.7439999999999","29.02","78.02","42.38","0.0"],
    [1423528,"2026-08-02 18:40:00","1906","1.331","110.3","2.94","83.5","1008.7639999999999","28.93","78.79","21.66","0.0"],
    [1423529,"2026-08-02 18:50:00","1907","1.24","165.2","3.038","154.2","1008.862","28.79","79.47","13.29","0.0"],
    [1423530,"2026-08-02 19:00:00","1908","1.7530000000000001","175.7","3.136","160.7","1008.908","28.62","80.3","7.567","0.0"],
    [1423531,"2026-08-02 19:10:00","1909","1.3769999999999998","182.7","2.744","151.1","1008.8589999999999","28.55","80.6","2.438","0.0"],
    [1423532,"2026-08-02 19:20:00","1910","1.494","183.4","2.842","187.2","1008.8810000000001","28.48","80.8","-0.868","0.0"],
    [1423533,"2026-08-02 19:30:00","1911","1.181","167.5","2.45","167.8","1008.915","28.47","81.1","-2.302","0.0"],
    [1423534,"2026-08-02 19:40:00","1912","0.7","163.1","1.862","180","1009.023","28.48","81.1","-2.059","0.0"],
    [1423535,"2026-08-02 19:50:00","1913","1.9909999999999999","211.8","4.116","201.6","1009.225","28.44","80.2","-1.983","0.0"],
    [1423536,"2026-08-02 20:00:00","1914","1.574","195.4","4.41","198.9","1009.3389999999999","28.4","79.43","-2.4930000000000003","0.0"],
    [1423537,"2026-08-02 20:10:00","1915","2.1069999999999998","205.4","4.312","203.9","1009.528","28.36","78.95","-2.55","0.0"],
    [1423538,"2026-08-02 20:20:00","1916","1.382","204.4","4.998","163.8","1009.655","28.35","78.79","-2.5069999999999997","0.0"],
    [1423539,"2026-08-02 20:30:00","1917","1.3869999999999998","204.3","2.744","196.1","1009.773","28.29","78.55","-2.5839999999999996","0.0"],
    [1423540,"2026-08-02 20:40:00","1918","1.485","189.1","3.234","183.3","1009.875","28.27","78.37","-2.5860000000000003","0.0"],
    [1423541,"2026-08-02 20:50:00","1919","1.192","176.0","3.038","169.8","1009.9119999999999","28.29","78.45","-2.5780000000000003","0.0"],
    [1423542,"2026-08-02 21:00:00","1920","1.166","193.3","2.548","212","1009.961","28.24","78.76","-2.5869999999999997","0.0"],
    [1423543,"2026-08-02 21:10:00","1921","0.7","187.4","1.568","185.1","1010.033","28.14","79.24","-2.591","0.0"],
    [1423544,"2026-08-02 21:20:00","1922","0.664","185.2","1.372","175.2","1010.1","28.01","79.79","-2.349","0.0"],
    [1423545,"2026-08-02 21:30:00","1923","0.613","195.1","1.274","238.6","1010.154","28.01","79.76","-1.8459999999999999","0.0"],
    [1423546,"2026-08-02 21:40:00","1924","0.4","255.0","1.176","263.5","1010.148","27.95","79.84","-2.379","0.0"],
    [1423547,"2026-08-02 21:50:00","1925","0.267","215.4","1.274","231.6","1010.1519999999999","27.9","79.95","-2.592","0.0"],
    [1423548,"2026-08-02 22:00:00","1926","0.648","238.6","1.372","235.2","1010.11","27.8","80.2","-2.593","0.0"],
    [1423549,"2026-08-02 22:10:00","1927","0.431","239.4","0.784","230.6","1010.137","27.82","80.0","-2.591","0.0"],
    [1423550,"2026-08-02 22:20:00","1928","0.902","239.5","1.47","234.5","1010.238","27.74","80.1","-2.589","0.0"],
    [1423551,"2026-08-02 22:30:00","1929","0.779","236.8","1.176","225.8","1010.29","27.72","79.91","-2.589","0.0"],
    [1423552,"2026-08-02 22:40:00","1930","0.7929999999999999","242.0","1.274","243.4","1010.318","27.68","80.0","-2.591","0.0"],
    [1423553,"2026-08-02 22:50:00","1931","0.502","217.5","1.372","228.5","1010.414","27.66","80.1","-2.592","0.0"],
    [1423554,"2026-08-02 23:00:00","1932","0.67","182.8","1.176","182.4","1010.46","27.58","80.5","-2.592","0.0"],
    [1423555,"2026-08-02 23:10:00","1933","0.397","199.8","0.98","195.9","1010.446","27.71","80.1","-2.535","0.0"],
    [1423556,"2026-08-02 23:20:00","1934","0.332","188.6","0.98","184.1","1010.444","27.5","80.5","-2.592","0.0"],
    [1423557,"2026-08-02 23:30:00","1935","0.23600000000000002","199.9","0.98","227.3","1010.4689999999999","27.37","81.0","-2.593","0.0"],
    [1423558,"2026-08-02 23:40:00","1936","0.608","229.6","1.078","224.5","1010.4810000000001","27.55","80.4","-2.4459999999999997","0.0"],
    [1423559,"2026-08-02 23:50:00","1937","0.611","245.4","1.078","239.8","1010.485","27.54","80.3","-2.261","0.0"],
    [1423560,"2026-08-03 00:00:00","1938","0.5920000000000001","245.4","1.078","239.9","1010.459","27.54","80.2","-1.901","0.0"],
    [1423561,"2026-08-03 00:10:00","1939","0.226","246.9","0.98","246.9","1010.398","27.44","80.4","-2.309","0.0"],
    [1423562,"2026-08-03 00:20:00","1940","0.0","0.0","0","248.5","1010.368","27.3","80.7","-2.3819999999999997","0.0"],
    [1423563,"2026-08-03 00:30:00","1941","0.239","302.2","0.98","298.6","1010.283","27.18","81.1","-2.509","0.0"],
    [1423564,"2026-08-03 00:40:00","1942","0.322","290.8","0.98","294.2","1010.279","27.19","80.9","-2.43","0.0"],
    [1423565,"2026-08-03 00:50:00","1943","0.0","0.0","0","289.4","1010.247","26.94","81.3","-2.57","0.0"],
    [1423566,"2026-08-03 01:00:00","1944","0.0","0.0","0","293.2","1010.187","27.08","81.6","-2.305","0.0"],
    [1423567,"2026-08-03 01:10:00","1945","0.462","46.25","1.274","48.45","1010.1010000000001","27.15","81.2","-2.202","0.0"],
    [1423568,"2026-08-03 01:20:00","1946","1.099","50.22","1.372","53.29","1010.033","26.98","82.0","-2.502","0.0"],
    [1423569,"2026-08-03 01:30:00","1947","0.945","45.25","1.176","43.51","1009.91","26.89","82.5","-2.52","0.0"],
    [1423570,"2026-08-03 01:40:00","1948","1.0390000000000001","63.55","1.372","63.76","1009.882","26.99","82.7","-2.483","0.0"],
    [1423571,"2026-08-03 01:50:00","1949","1.646","61.0","2.254","59.59","1009.855","26.94","83.8","-2.58","0.0"],
    [1423572,"2026-08-03 02:00:00","1950","1.234","52.87","2.058","67.83","1009.8510000000001","26.99","84.0","-2.485","0.0"],
    [1423573,"2026-08-03 02:10:00","1951","1.0659999999999998","45.62","1.666","59.3","1009.8539999999999","27.06","83.5","-2.4090000000000003","0.0"],
    [1423574,"2026-08-03 02:20:00","1952","0.977","29.59","2.058","10.66","1009.797","27.06","83.0","-2.468","0.0"],
    [1423575,"2026-08-03 02:30:00","1953","1.5419999999999998","36.19","3.136","32.9","1009.755","27.12","83.6","-2.5660000000000003","0.0"],
    [1423576,"2026-08-03 02:40:00","1954","1.794","28.25","2.842","48.06","1009.725","27.19","84.7","-2.069","0.0"],
    [1423577,"2026-08-03 02:50:00","1955","1.043","34.93","1.96","71.99","1009.722","27.13","85.1","-1.85","0.0"],
    [1423578,"2026-08-03 03:00:00","1956","1.252","50.66","1.96","60.51","1009.691","27.2","85.5","-1.841","0.0"],
    [1423579,"2026-08-03 03:10:00","1957","1.4140000000000001","37.78","2.254","23.84","1009.576","27.19","85.7","-1.89","0.0"],
    [1423580,"2026-08-03 03:20:00","1958","1.2590000000000001","33.16","2.156","45.44","1009.49","27.16","86.0","-2.013","0.0"],
    [1423581,"2026-08-03 03:30:00","1959","1.2429999999999999","31.19","2.254","26.36","1009.482","27.08","86.4","-2.3609999999999998","0.0"],
    [1423582,"2026-08-03 03:40:00","1960","1.774","44.36","3.038","54.55","1009.515","27.07","86.6","-1.859","0.0"],
    [1423583,"2026-08-03 03:50:00","1961","2.167","51.33","3.626","44.57","1009.591","27.05","86.7","-1.827","0.0"],
    [1423584,"2026-08-03 04:00:00","1962","2.509","51.63","4.116","76.45","1009.645","27.0","86.9","-1.8419999999999999","0.0"],
    [1423585,"2026-08-03 04:10:00","1963","2.544","54.41","4.214","40.55","1009.701","26.95","87.1","-1.8419999999999999","0.0"],
    [1423586,"2026-08-03 04:20:00","1964","2.207","53.25","4.116","51.65","1009.77","26.89","87.3","-1.8419999999999999","0.0"],
    [1423587,"2026-08-03 04:30:00","1965","2.843","49.1","4.802","65.26","1009.788","26.8","87.2","-1.661","0.0"],
    [1423588,"2026-08-03 04:40:00","1966","2.8989999999999996","50.36","4.998","52.37","1009.8330000000001","26.76","87.0","-0.875","0.0"],
    [1423589,"2026-08-03 04:50:00","1967","2.766","45.35","4.508","46.9","1009.972","26.73","87.3","0.705","0.0"],
    [1423590,"2026-08-03 05:00:00","1968","2.639","45.19","4.41","51.02","1010.04","26.73","87.6","3.9019999999999997","0.0"],
    [1423591,"2026-08-03 05:10:00","1969","3.16","43.37","5.292","37.89","1010.1560000000001","26.76","87.0","9.45","0.0"],
    [1423592,"2026-08-03 05:20:00","1970","3.055","42.86","4.9","48.64","1010.197","26.81","87.0","16.02","0.0"],
    [1423593,"2026-08-03 05:30:00","1971","3.083","40.97","5.684","47.58","1010.288","26.92","87.2","18.92","0.0"],
    [1423594,"2026-08-03 05:40:00","1972","2.625","43.69","4.802","50.82","1010.38","27.02","86.9","41.02","0.0"],
    [1423595,"2026-08-03 05:50:00","1973","3.3089999999999997","51.86","5.194","74.9","1010.515","27.16","86.0","59.53","0.0"],
    [1423596,"2026-08-03 06:00:00","1974","3.833","58.12","6.076","67.68","1010.582","27.27","85.7","72.76","0.0"],
    [1423597,"2026-08-03 06:10:00","1975","3.7560000000000002","59.95","5.684","46.7","1010.549","27.46","83.6","128.6","0.0"],
    [1423598,"2026-08-03 06:20:00","1976","3.958","60.31","5.978","59.78","1010.674","27.51","82.4","97.4","0.0"],
    [1423599,"2026-08-03 06:30:00","1977","4.2","59.51","6.566","57.12","1010.7610000000001","27.46","82.3","97.1","0.0"],
    [1423600,"2026-08-03 06:40:00","1978","3.865","56.64","5.488","61.48","1010.8789999999999","27.43","82.7","103.8","0.0"],
    [1423601,"2026-08-03 06:50:00","1979","4.058","54.7","6.076","54.65","1011.012","27.5","82.9","214.4","0.0"],
    [1423602,"2026-08-03 07:00:00","1980","4.016","55.61","6.174","61.92","1011.051","27.78","81.7","148.0","0.0"],
    [1423603,"2026-08-03 07:10:00","1981","4.024","49.94","6.468","62.55","1011.0319999999999","27.55","81.8","170.4","0.0"],
    [1423604,"2026-08-03 07:20:00","1982","4.152","56.68","6.468","62.84","1011.003","27.94","79.69","338.6","0.0"],
    [1423605,"2026-08-03 07:30:00","1983","4.547","48.65","7.252","46.42","1010.9760000000001","28.24","77.64","351.1","0.0"],
    [1423606,"2026-08-03 07:40:00","1984","4.716","38.86","7.938","41.67","1010.9960000000001","28.1","78.08","362.0","0.0"],
    [1423607,"2026-08-03 07:50:00","1985","4.211","39.61","6.958","31.21","1011.0260000000001","27.98","78.34","307.6","0.0"],
    [1423608,"2026-08-03 08:00:00","1986","4.409","55.26","7.154","61.59","1011.028","28.44","77.06","437.3","0.0"],
    [1423609,"2026-08-03 08:10:00","1987","4.515","48.71","7.056","71.48","1011.041","28.73","75.81","490.0","0.0"],
    [1423610,"2026-08-03 08:20:00","1988","4.654","57.38","7.252","63.78","1011.107","28.88","75.01","510.8","0.0"],
    [1423611,"2026-08-03 08:30:00","1989","4.961","58.85","7.35","44.54","1011.169","28.94","74.69","575.4","0.0"],
    [1423612,"2026-08-03 08:40:00","1990","5.152","53.36","7.742","51.52","1011.216","28.99","74.47","587.5","0.0"],
    [1423613,"2026-08-03 08:50:00","1991","4.761","57.65","7.154","53.21","1011.3689999999999","29.02","74.22","524.3","0.0"],
    [1423614,"2026-08-03 09:00:00","1992","4.784","59.29","7.742","66.4","1011.515","29.31","73.27","675.9","0.0"],
    [1423615,"2026-08-03 09:10:00","1993","4.313","58.63","6.174","49.92","1011.586","29.22","73.99","515.2","0.0"],
    [1423616,"2026-08-03 09:20:00","1994","4.415","57.82","6.37","60.68","1011.635","29.3","73.75","645.8","0.0"],
    [1423617,"2026-08-03 09:30:00","1995","4.824","57.7","7.056","48.85","1011.6619999999999","29.35","73.95","655.5","0.0"],
    [1423618,"2026-08-03 09:40:00","1996","4.959","60.83","7.154","57.91","1011.683","29.17","73.83","518.7","0.0"],
    [1423619,"2026-08-03 09:50:00","1997","4.643","55.89","7.154","47.01","1011.735","29.76","71.69","719.1","0.0"],
    [1423620,"2026-08-03 10:00:00","1998","4.758","54.31","7.252","54.86","1011.7080000000001","29.8","71.19","712.4","0.0"],
    [1423621,"2026-08-03 10:10:00","1999","5.061","61.44","7.546","56.9","1011.7280000000001","29.8","71.39","752.7","0.0"],
    [1423622,"2026-08-03 10:20:00","2000","5.12","70.22","7.546","77.93","1011.716","29.95","70.73","841.0","0.0"],
    [1423623,"2026-08-03 10:30:00","2001","5.013999999999999","68.82","7.154","79.87","1011.6289999999999","29.94","70.56","862.0","0.0"],
    [1423624,"2026-08-03 10:40:00","2002","4.742","67.96","6.86","66.78","1011.57","30.41","68.6","882.0","0.0"],
    [1423625,"2026-08-03 10:50:00","2003","4.956","64.92","7.546","71.39","1011.5139999999999","30.11","68.72","885.0","0.0"],
    [1423626,"2026-08-03 11:00:00","2004","4.949","54.09","7.154","48.95","1011.507","29.91","69.55","764.1","0.0"],
    [1423627,"2026-08-03 11:10:00","2005","4.8580000000000005","55.87","7.056","54.81","1011.466","30.03","70.09","767.0","0.0"],
    [1423628,"2026-08-03 11:20:00","2006","4.697","58.93","6.86","80.4","1011.3889999999999","30.02","70.67","774.3","0.0"],
    [1423629,"2026-08-03 11:30:00","2007","4.737","64.64","7.35","82.1","1011.3430000000001","30.17","70.48","848.0","0.0"],
    [1423630,"2026-08-03 11:40:00","2008","5.186","65.91","6.958","63.97","1011.3710000000001","29.84","71.6","866.0","0.0"],
    [1423631,"2026-08-03 11:50:00","2009","5.156000000000001","73.86","7.644","84.1","1011.37","29.97","71.0","939.0","0.0"],
    [1423632,"2026-08-03 12:00:00","2010","5.056","77.79","7.35","72.55","1011.321","30.07","69.75","814.0","0.0"],
    [1423633,"2026-08-03 12:10:00","2011","4.936","75.04","7.154","84.1","1011.2489999999999","29.94","71.03","763.4","0.0"],
    [1423634,"2026-08-03 12:20:00","2012","5.015","85.7","7.546","87.5","1011.222","29.77","71.86","522.7","0.0"],
    [1423635,"2026-08-03 12:30:00","2013","4.823","86.3","7.154","71.24","1011.172","29.32","73.33","500.8","0.0"],
    [1423636,"2026-08-03 12:40:00","2014","4.422","89.7","6.762","81.1","1011.091","29.66","72.62","669.1","0.0"],
    [1423637,"2026-08-03 12:50:00","2015","4.522","87.7","7.056","83.4","1011.079","29.59","71.94","515.5","0.0"],
    [1423638,"2026-08-03 13:00:00","2016","4.216","90.7","6.958","78.03","1011.03","29.56","72.1","777.7","0.0"],
    [1423639,"2026-08-03 13:10:00","2017","4.801","91.1","6.958","86.6","1011.008","29.67","72.43","871.0","0.0"],
    [1423640,"2026-08-03 13:20:00","2018","4.342","94.0","6.272","86.9","1010.9960000000001","29.68","73.37","943.0","0.0"],
    [1423641,"2026-08-03 13:30:00","2019","4.303","93.6","6.37","97.1","1010.865","29.99","71.94","806.0","0.0"],
    [1423642,"2026-08-03 13:40:00","2020","3.5610000000000004","97.9","6.076","85","1010.765","29.91","72.92","654.1","0.0"],
    [1423643,"2026-08-03 13:50:00","2021","4.355","92.0","6.468","86.4","1010.574","29.67","73.1","750.2","0.0"],
    [1423644,"2026-08-03 14:00:00","2022","4.144","90.7","6.272","94.7","1010.424","29.56","74.21","578.4","0.0"],
    [1423645,"2026-08-03 14:10:00","2023","3.673","95.9","5.782","69.45","1010.438","29.63","74.42","708.3","0.0"],
    [1423646,"2026-08-03 14:20:00","2024","3.491","95.7","5.684","93.2","1010.502","29.65","74.04","740.6","0.0"],
    [1423647,"2026-08-03 14:30:00","2025","3.395","98.2","4.9","95.3","1010.451","29.3","75.22","496.3","0.0"],
    [1423648,"2026-08-03 14:40:00","2026","3.503","93.8","5.194","96.1","1010.357","29.35","75.86","546.1","0.0"],
    [1423649,"2026-08-03 14:50:00","2027","3.367","97.5","4.704","93.7","1010.33","29.07","76.78","364.7","0.0"],
    [1423650,"2026-08-03 15:00:00","2028","3.6060000000000003","92.4","5.096","74.68","1010.2589999999999","29.21","76.36","626.5","0.0"],
    [1423651,"2026-08-03 15:10:00","2029","2.877","96.1","5.39","79.48","1010.215","29.29","75.37","504.3","0.0"],
    [1423652,"2026-08-03 15:20:00","2030","2.477","96.1","4.998","86.1","1010.11","29.63","74.86","606.7","0.0"],
    [1423653,"2026-08-03 15:30:00","2031","1.214","113.2","3.038","84.8","1010.16","29.94","73.77","421.2","0.0"],
    [1423654,"2026-08-03 15:40:00","2032","1.3969999999999998","109.5","4.508","115.7","1010.1030000000001","29.83","74.87","326.0","0.0"],
    [1423655,"2026-08-03 15:50:00","2033","1.3769999999999998","121.8","3.724","116.9","1009.9839999999999","29.88","74.42","451.2","0.0"],
    [1423656,"2026-08-03 16:00:00","2034","1.921","117.9","4.312","85.6","1010.074","30.1","73.2","523.8","0.0"],
    [1423657,"2026-08-03 16:10:00","2035","1.122","136.3","4.116","168.8","1010.188","30.05","73.09","319.9","0.0"],
    [1423658,"2026-08-03 16:20:00","2036","1.6840000000000002","114.7","3.626","143.1","1010.046","29.62","74.57","312.1","0.0"],
    [1423659,"2026-08-03 16:30:00","2037","1.655","117.3","3.724","117.5","1009.893","29.12","76.57","175.6","0.0"],
    [1423660,"2026-08-03 16:40:00","2038","2.127","104.5","4.998","77.88","1009.528","29.06","76.75","166.7","0.0"],
    [1423661,"2026-08-03 16:50:00","2039","3.7","88.3","4.998","86.1","1009.1239999999999","29.02","77.21","165.1","0.0"],
    [1423662,"2026-08-03 17:00:00","2040","3.9789999999999996","87.6","5.978","81.5","1008.7310000000001","28.98","77.85","128.9","0.0"],
    [1423663,"2026-08-03 17:10:00","2041","3.793","87.8","5.684","94.1","1008.8989999999999","28.89","78.22","120.1","0.0"],
    [1423664,"2026-08-03 17:20:00","2042","3.167","94.6","5.194","79.63","1009.074","28.77","78.68","93.2","0.0"],
    [1423665,"2026-08-03 17:30:00","2043","4.047","85.0","5.488","90.6","1008.5419999999999","28.75","78.37","77.07","0.0"],
    [1423666,"2026-08-03 17:40:00","2044","3.81","83.8","5.684","72.16","1008.4889999999999","28.74","78.32","68.93","0.0"],
    [1423667,"2026-08-03 17:50:00","2045","2.319","87.8","4.802","81.4","1008.965","28.62","79.12","54.59","0.0"],
    [1423668,"2026-08-03 18:00:00","2046","0.848","170.8","3.038","171.3","1009.735","28.47","79.78","34.06","0.0"],
    [1423669,"2026-08-03 18:10:00","2047","1.193","211.3","2.94","206.7","1010.063","28.56","79.05","25.58","0.0"],
    [1423670,"2026-08-03 18:20:00","2048","1.653","186.8","2.744","198.1","1010.115","28.6","78.9","25.7","0.0"],
    [1423671,"2026-08-03 18:30:00","2049","1.652","180.3","3.038","165.5","1009.9639999999999","28.53","79.18","26.11","0.0"],
    [1423672,"2026-08-03 18:40:00","2050","1.308","176.2","2.842","168.7","1009.824","28.55","79.05","39.82","0.0"],
    [1423673,"2026-08-03 18:50:00","2051","1.694","185.5","3.136","156.8","1009.7739999999999","28.49","78.9","16.65","0.0"],
    [1423674,"2026-08-03 19:00:00","2052","1.411","175.1","2.352","174.4","1009.6410000000001","28.42","79.53","9.77","0.0"],
    [1423675,"2026-08-03 19:10:00","2053","1.107","169.9","2.646","195.1","1009.573","28.35","79.98","5.997999999999999","0.0"],
    [1423676,"2026-08-03 19:20:00","2054","0.8340000000000001","121.5","2.254","143.4","1009.418","28.33","80.2","2.597","0.0"],
    [1423677,"2026-08-03 19:30:00","2055","0.445","160.0","2.646","96.8","1009.51","28.28","80.7","-1.443","0.0"],
    [1423678,"2026-08-03 19:40:00","2056","1.005","188.7","2.058","167.5","1009.551","28.24","80.5","-1.85","0.0"],
    [1423679,"2026-08-03 19:50:00","2057","0.7290000000000001","199.0","1.666","242.3","1009.5889999999999","28.18","80.4","-2.437","0.0"],
    [1423680,"2026-08-03 20:00:00","2058","0.355","220.6","1.176","223.4","1009.809","28.09","81.1","-2.582","0.0"],
    [1423681,"2026-08-03 20:10:00","2059","0.629","259.8","1.568","273.8","1010.178","28.0","81.4","-2.463","0.0"],
    [1423682,"2026-08-03 20:20:00","2060","0.183","255.2","1.078","223.4","1010.454","27.98","80.8","-1.875","0.0"],
    [1423683,"2026-08-03 20:30:00","2061","0.0","0.0","0","286.9","1010.64","27.96","80.8","-2.2430000000000003","0.0"],
    [1423684,"2026-08-03 20:40:00","2062","0.249","295.9","1.078","311.7","1010.8389999999999","27.9","80.9","-2.447","0.0"],
    [1423685,"2026-08-03 20:50:00","2063","0.389","284.4","0.98","275.6","1011.0210000000001","27.93","80.8","-1.849","0.0"],
    [1423686,"2026-08-03 21:00:00","2064","0.384","270.5","1.176","272.4","1011.076","28.0","80.7","-1.84","0.0"],
    [1423687,"2026-08-03 21:10:00","2065","0.569","272.9","1.47","76.84","1011.081","28.04","81.0","-2.039","0.0"],
    [1423688,"2026-08-03 21:20:00","2066","1.396","76.6","2.254","72.77","1011.062","28.11","82.5","-2.161","0.0"],
    [1423689,"2026-08-03 21:30:00","2067","1.331","84.5","2.058","75.63","1011.176","28.07","82.7","-2.039","0.0"],
    [1423690,"2026-08-03 21:40:00","2068","1.298","67.16","1.96","76.16","1011.2230000000001","28.01","82.5","-2.092","0.0"],
    [1423691,"2026-08-03 21:50:00","2069","1.796","71.18","2.45","73.35","1011.154","27.93","83.8","-2.166","0.0"],
    [1423692,"2026-08-03 22:00:00","2070","1.5490000000000002","70.52","2.156","68.7","1011.172","27.83","84.4","-2.029","0.0"],
    [1423693,"2026-08-03 22:10:00","2071","1.435","64.58","1.96","65.79","1011.248","27.74","84.4","-2.0780000000000003","0.0"],
    [1423694,"2026-08-03 22:20:00","2072","1.561","69.18","2.156","61.53","1011.258","27.81","83.7","-1.892","0.0"],
    [1423695,"2026-08-03 22:30:00","2073","1.79","78.51","2.646","87.7","1011.173","27.97","83.8","-1.85","0.0"],
    [1423696,"2026-08-03 22:40:00","2074","1.7369999999999999","74.46","2.548","73.74","1011.1060000000001","27.98","84.0","-1.854","0.0"],
    [1423697,"2026-08-03 22:50:00","2075","1.3880000000000001","82.2","2.352","66.18","1011.105","27.94","84.1","-1.844","0.0"],
    [1423698,"2026-08-03 23:00:00","2076","1.445","75.7","1.96","85.3","1011.148","27.95","83.9","-1.61","0.0"],
    [1423699,"2026-08-03 23:10:00","2077","1.376","66.95","2.156","70.93","1011.196","27.9","84.5","-1.093","0.0"],
    [1423700,"2026-08-03 23:20:00","2078","1.578","62.89","2.352","75.29","1011.199","27.93","85.2","-1.092","0.0"],
    [1423701,"2026-08-03 23:30:00","2079","1.617","73.12","2.254","70.06","1011.17","27.9","85.2","-1.113","0.0"],
    [1423702,"2026-08-03 23:40:00","2080","1.6269999999999998","66.13","2.156","63.18","1011.177","27.85","85.4","-1.495","0.0"],
    [1423703,"2026-08-03 23:50:00","2081","1.2919999999999998","75.6","2.156","78.87","1011.154","27.77","85.4","-1.825","0.0"],
    [1423704,"2026-08-04 00:00:00","2082","1.022","78.15","1.568","84.9","1011.195","27.75","84.9","-1.8419999999999999","0.0"],
    [1423705,"2026-08-04 00:10:00","2083","1.444","71.57","1.96","72.96","1011.189","27.71","84.9","-1.8419999999999999","0.0"],
    [1423706,"2026-08-04 00:20:00","2084","1.3530000000000002","65.78","1.862","57.07","1011.193","27.67","85.1","-1.844","0.0"],
    [1423707,"2026-08-04 00:30:00","2085","1.433","57.68","1.96","57.75","1011.227","27.61","85.7","-1.8419999999999999","0.0"],
    [1423708,"2026-08-04 00:40:00","2086","1.3519999999999999","51.34","2.156","60.08","1011.279","27.57","85.7","-1.6780000000000002","0.0"],
    [1423709,"2026-08-04 00:50:00","2087","1.56","62.27","2.156","63.95","1011.22","27.61","85.3","-1.825","0.0"],
    [1423710,"2026-08-04 01:00:00","2088","1.605","72.58","2.156","76.16","1011.25","27.6","85.0","-1.86","0.0"],
    [1423711,"2026-08-04 01:10:00","2089","1.541","54.32","2.156","66.57","1011.248","27.53","85.3","-1.8459999999999999","0.0"],
    [1423712,"2026-08-04 01:20:00","2090","1.4569999999999999","64.43","2.058","64.24","1011.2339999999999","27.51","85.5","-1.8419999999999999","0.0"],
    [1423713,"2026-08-04 01:30:00","2091","2.318","49.63","3.43","44.91","1011.2489999999999","27.51","85.7","-1.159","0.0"],
    [1423714,"2026-08-04 01:40:00","2092","1.916","56.1","2.646","74.37","1011.2739999999999","27.52","85.3","-1.092","0.0"],
    [1423715,"2026-08-04 01:50:00","2093","1.882","56.72","2.744","50.97","1011.322","27.56","85.1","-1.087","0.0"],
    [1423716,"2026-08-04 02:00:00","2094","1.7209999999999999","51.25","3.038","40.36","1011.3660000000001","27.54","85.3","-1.092","0.0"],
    [1423717,"2026-08-04 02:10:00","2095","2.07","59.79","3.038","65.6","1011.311","27.53","85.0","-1.089","0.0"],
    [1423718,"2026-08-04 02:20:00","2096","2.125","59.75","3.332","74.56","1011.293","27.48","84.9","-1.092","0.0"],
    [1423719,"2026-08-04 02:30:00","2097","1.963","50.03","3.528","44.57","1011.2289999999999","27.41","84.1","-1.092","0.0"],
    [1423720,"2026-08-04 02:40:00","2098","1.693","17.86","3.136","14.53","1011.201","27.3","82.7","-1.535","0.0"],
    [1423721,"2026-08-04 02:50:00","2099","2.113","23.6","3.528","36.05","1011.245","27.19","81.6","-1.889","0.0"],
    [1423722,"2026-08-04 03:00:00","2100","1.482","33.25","3.136","23.25","1011.2769999999999","27.18","81.1","-2.33","0.0"],
    [1423723,"2026-08-04 03:10:00","2101","1.136","33.1","2.45","0.678","1011.303","27.12","80.9","-2.577","0.0"],
    [1423724,"2026-08-04 03:20:00","2102","1.444","29.11","2.548","1.163","1011.304","27.03","81.7","-2.592","0.0"],
    [1423725,"2026-08-04 03:30:00","2103","1.6230000000000002","46.19","3.136","29.36","1011.283","27.02","82.3","-2.589","0.0"],
    [1423726,"2026-08-04 03:40:00","2104","1.631","44.6","2.45","54.65","1011.2289999999999","26.97","82.4","-2.577","0.0"],
    [1423727,"2026-08-04 03:50:00","2105","1.3130000000000002","33.24","2.45","29.07","1011.242","26.84","82.2","-2.593","0.0"],
    [1423728,"2026-08-04 04:00:00","2106","1.203","16.07","1.96","23.88","1011.316","26.77","81.5","-2.5869999999999997","0.0"],
    [1423729,"2026-08-04 04:10:00","2107","1.03","304.0","1.666","276","1011.4019999999999","26.21","78.27","-2.345","0.0"],
    [1423730,"2026-08-04 04:20:00","2108","0.987","287.6","1.47","288.8","1011.508","25.7","75.01","-2.544","0.0"],
    [1423731,"2026-08-04 04:30:00","2109","0.759","262.8","1.47","264.7","1011.579","25.75","73.96","-2.146","0.0"],
    [1423732,"2026-08-04 04:40:00","2110","1.143","279.2","1.568","282.7","1011.673","25.84","72.98","-1.589","0.0"],
    [1423733,"2026-08-04 04:50:00","2111","1.565","276.2","2.156","278.9","1011.693","25.66","73.52","0.44799999999999995","0.0"],
    [1423734,"2026-08-04 05:00:00","2112","1.25","271.3","2.058","296.6","1011.7439999999999","25.45","73.54","5.0169999999999995","0.0"],
    [1423735,"2026-08-04 05:10:00","2113","1.371","270.7","2.352","258.1","1011.841","25.33","72.28","18.73","0.0"],
    [1423736,"2026-08-04 05:20:00","2114","0.958","255.7","2.058","242.5","1011.972","25.45","71.37","33.54","0.0"],
    [1423737,"2026-08-04 05:30:00","2115","1.2890000000000001","290.0","2.058","299","1012.049","25.5","71.65","39.79","0.0"],
    [1423738,"2026-08-04 05:40:00","2116","1.5390000000000001","281.0","2.254","283","1012.137","25.54","71.86","29.74","0.0"],
    [1423739,"2026-08-04 05:50:00","2117","1.649","275.4","2.254","274.8","1012.202","25.53","71.99","52.31","0.0"],
    [1423740,"2026-08-04 06:00:00","2118","1.456","273.2","2.352","276.7","1012.319","25.78","70.84","106.0","0.0"],
    [1423741,"2026-08-04 06:10:00","2119","1.595","276.1","2.548","277.8","1012.34","26.05","69.02","123.0","0.0"],
    [1423742,"2026-08-04 06:20:00","2120","1.112","266.1","1.862","292.7","1012.4019999999999","26.32","68.49","116.4","0.0"],
    [1423743,"2026-08-04 06:30:00","2121","1.018","270.8","1.764","289.5","1012.4939999999999","26.45","68.24","95.0","0.0"],
    [1423744,"2026-08-04 06:40:00","2122","0.867","243.1","1.96","285.7","1012.591","26.7","67.91","140.1","0.0"],
    [1423745,"2026-08-04 06:50:00","2123","1.656","279.3","2.548","291.8","1012.698","27.01","66.51","141.6","0.0"],
    [1423746,"2026-08-04 07:00:00","2124","2.1390000000000002","284.4","2.744","286.2","1012.748","27.06","66.08","134.9","0.0"],
    [1423747,"2026-08-04 07:10:00","2125","1.671","280.9","2.646","279.5","1012.801","26.88","66.7","114.5","0.0"],
    [1423748,"2026-08-04 07:20:00","2126","1.683","281.6","2.646","281.6","1012.86","27.24","65.68","228.8","0.0"],
    [1423749,"2026-08-04 07:30:00","2127","1.3090000000000002","303.3","2.45","272.1","1012.9110000000001","28.22","64.34","336.0","0.0"],
    [1423750,"2026-08-04 07:40:00","2128","1.0590000000000002","331.0","2.646","354.5","1012.9680000000001","28.78","65.46","376.7","0.0"],
    [1423751,"2026-08-04 07:50:00","2129","1.545","46.86","3.43","76.23","1013.071","29.14","68.58","436.1","0.0"],
    [1423752,"2026-08-04 08:00:00","2130","2.2769999999999997","83.1","3.528","85","1013.1030000000001","28.99","71.69","465.8","0.0"],
    [1423753,"2026-08-04 08:10:00","2131","2.718","74.29","3.92","73.76","1013.177","28.81","72.29","508.5","0.0"],
    [1423754,"2026-08-04 08:20:00","2132","2.434","91.2","4.802","99.8","1013.2589999999999","28.86","71.97","522.5","0.0"],
    [1423755,"2026-08-04 08:30:00","2133","2.565","88.3","4.802","85.2","1013.297","28.85","72.29","567.5","0.0"],
    [1423756,"2026-08-04 08:40:00","2134","2.633","78.44","4.802","73.52","1013.341","28.98","72.16","563.7","0.0"],
    [1423757,"2026-08-04 08:50:00","2135","2.7739999999999996","81.0","5.586","85.3","1013.341","29.2","71.54","625.4","0.0"],
    [1423758,"2026-08-04 09:00:00","2136","3.055","83.9","5.194","90.1","1013.3760000000001","29.17","70.51","651.6","0.0"],
    [1423759,"2026-08-04 09:10:00","2137","3.7460000000000004","84.3","7.056","69.21","1013.421","28.88","71.22","686.8","0.0"],
    [1423760,"2026-08-04 09:20:00","2138","3.636","85.1","5.684","95.5","1013.5010000000001","29.11","70.16","651.9","0.0"],
    [1423761,"2026-08-04 09:30:00","2139","3.9","85.3","6.272","99.4","1013.549","28.98","71.12","722.7","0.0"],
    [1423762,"2026-08-04 09:40:00","2140","3.6289999999999996","89.9","6.076","89.1","1013.56","29.24","70.2","751.5","0.0"],
    [1423763,"2026-08-04 09:50:00","2141","3.5210000000000004","92.4","5.88","92.1","1013.565","29.23","70.11","766.7","0.0"],
    [1423764,"2026-08-04 10:00:00","2142","3.01","103.1","5.39","101.9","1013.596","29.35","69.57","781.3","0.0"],
    [1423765,"2026-08-04 10:10:00","2143","3.4939999999999998","100.9","6.076","96.6","1013.638","29.12","70.58","806.0","0.0"],
    [1423766,"2026-08-04 10:20:00","2144","3.852","94.0","5.586","84.9","1013.698","29.14","70.49","844.0","0.0"],
    [1423767,"2026-08-04 10:30:00","2145","3.985","90.9","6.076","82","1013.778","29.41","71.19","873.0","0.0"],
    [1423768,"2026-08-04 10:40:00","2146","4.071000000000001","95.7","5.88","96.9","1013.8330000000001","29.13","71.91","887.0","0.0"],
    [1423769,"2026-08-04 10:50:00","2147","4.27","96.0","6.468","83.1","1013.831","29.2","71.61","903.0","0.0"],
    [1423770,"2026-08-04 11:00:00","2148","3.93","98.6","6.762","83.9","1013.809","29.18","71.52","909.0","0.0"],
    [1423771,"2026-08-04 11:10:00","2149","3.533","99.5","6.37","92.9","1013.747","29.61","69.55","921.0","0.0"],
    [1423772,"2026-08-04 11:20:00","2150","4.103","94.0","6.762","88.4","1013.755","29.36","70.26","914.0","0.0"],
    [1423773,"2026-08-04 11:30:00","2151","3.242","98.1","6.076","120.3","1013.762","29.79","69.13","934.0","0.0"],
    [1423774,"2026-08-04 11:40:00","2152","3.1039999999999996","98.4","5.88","82.8","1013.7130000000001","29.77","69.39","956.0","0.0"],
    [1423775,"2026-08-04 11:50:00","2153","2.804","104.9","5.096","117.7","1013.692","29.84","68.42","730.3","0.0"],
    [1423776,"2026-08-04 12:00:00","2154","2.0980000000000003","107.2","4.704","97.3","1013.689","29.22","70.59","302.4","0.0"],
    [1423777,"2026-08-04 12:10:00","2155","2.381","110.1","5.096","118.1","1013.704","29.62","70.14","924.0","0.0"],
    [1423778,"2026-08-04 12:20:00","2156","2.509","110.6","5.292","103.5","1013.695","30.42","66.68","999.0","0.0"],
    [1423779,"2026-08-04 12:30:00","2157","2.73","111.7","5.292","97.1","1013.555","30.03","68.21","969.0","0.0"],
    [1423780,"2026-08-04 12:40:00","2158","2.696","96.8","5.782","97","1013.53","30.41","67.31","991.0","0.0"],
    [1423781,"2026-08-04 12:50:00","2159","3.4160000000000004","94.8","5.88","85.9","1013.4830000000001","30.17","67.45","640.2","0.0"],
    [1423782,"2026-08-04 13:00:00","2160","3.384","93.3","5.88","78.03","1013.762","28.87","72.06","221.2","0.0"],
    [1423783,"2026-08-04 13:10:00","2161","2.721","105.6","6.762","88.2","1013.6610000000001","28.69","72.37","139.9","0.0"],
    [1423784,"2026-08-04 13:20:00","2162","2.093","106.2","4.214","86.8","1013.942","28.49","72.86","81.1","0.0"],
    [1423785,"2026-08-04 13:30:00","2163","2.6060000000000003","104.2","4.998","107.5","1013.975","28.04","74.36","61.61","0.0"],
    [1423786,"2026-08-04 13:40:00","2164","1.188","116.1","3.822","123.6","1014.0930000000001","28.18","74.01","58.14","0.0"],
    [1423787,"2026-08-04 13:50:00","2165","0.95","127.9","4.704","63.78","1014.0260000000001","28.22","74.04","66.7","0.0"],
    [1423788,"2026-08-04 14:00:00","2166","1.103","118.6","3.43","117.9","1013.943","28.2","74.01","85.6","0.0"],
    [1423789,"2026-08-04 14:10:00","2167","1.165","99.2","4.116","66.44","1013.9960000000001","28.26","73.94","121.4","0.0"],
    [1423790,"2026-08-04 14:20:00","2168","1.297","106.1","3.136","108.4","1014.0060000000001","28.38","74.02","310.7","0.0"],
    [1423791,"2026-08-04 14:30:00","2169","1.579","112.0","3.724","114.1","1013.9110000000001","29.19","71.03","510.3","0.0"],
    [1423792,"2026-08-04 14:40:00","2170","2.1069999999999998","99.3","4.116","87.3","1013.819","29.04","71.51","419.3","0.0"],
    [1423793,"2026-08-04 14:50:00","2171","2.211","111.6","4.312","105.5","1013.637","29.0","71.94","709.4","0.0"],
    [1423794,"2026-08-04 15:00:00","2172","2.496","97.7","4.802","149.8","1013.585","29.35","70.92","685.3","0.0"],
    [1423795,"2026-08-04 15:10:00","2173","1.909","115.6","4.312","111.6","1013.563","29.36","70.99","638.7","0.0"],
    [1423796,"2026-08-04 15:20:00","2174","2.32","96.2","4.312","123.6","1013.502","29.46","70.34","604.4","0.0"],
    [1423797,"2026-08-04 15:30:00","2175","2.401","96.4","5.194","93.1","1013.44","29.17","71.41","580.0","0.0"],
    [1423798,"2026-08-04 15:40:00","2176","1.484","125.8","3.234","100","1013.416","29.67","69.36","543.0","0.0"],
    [1423799,"2026-08-04 15:50:00","2177","1.891","106.7","4.802","79.58","1013.382","29.58","69.38","489.5","0.0"],
    [1423800,"2026-08-04 16:00:00","2178","1.27","125.9","3.92","152.9","1013.372","29.6","69.52","479.4","0.0"],
    [1423801,"2026-08-04 16:10:00","2179","1.702","117.3","4.508","111.5","1013.39","29.61","69.33","432.1","0.0"],
    [1423802,"2026-08-04 16:20:00","2180","1.969","100.2","4.214","67.75","1013.477","29.38","69.53","355.9","0.0"],
    [1423803,"2026-08-04 16:30:00","2181","2.658","90.6","4.606","95.8","1013.704","28.93","70.97","394.3","0.0"],
    [1423804,"2026-08-04 16:40:00","2182","2.718","91.3","5.292","189.4","1013.802","29.02","70.39","364.6","0.0"],
    [1423805,"2026-08-04 16:50:00","2183","2.34","93.7","4.802","101.1","1013.757","29.13","69.41","342.8","0.0"],
    [1423806,"2026-08-04 17:00:00","2184","1.785","99.6","3.92","41.05","1013.7189999999999","29.12","69.11","314.7","0.0"],
    [1423807,"2026-08-04 17:10:00","2185","2.642","90.1","4.9","79.97","1013.89","29.16","68.8","305.2","0.0"],
    [1423808,"2026-08-04 17:20:00","2186","2.61","91.5","4.802","84.5","1013.7689999999999","29.07","69.07","258.5","0.0"],
    [1423809,"2026-08-04 17:30:00","2187","2.855","86.0","4.41","64.26","1013.6060000000001","28.87","70.09","220.9","0.0"],
    [1423810,"2026-08-04 17:40:00","2188","3.116","83.8","5.88","98.6","1013.553","28.75","70.9","185.1","0.0"],
    [1423811,"2026-08-04 17:50:00","2189","1.6669999999999998","112.6","3.43","73.33","1013.63","28.71","71.72","154.1","0.0"],
    [1423812,"2026-08-04 18:00:00","2190","1.5490000000000002","76.94","3.234","59.13","1013.828","28.56","72.08","127.3","0.0"],
    [1423813,"2026-08-04 18:10:00","2191","1.111","96.6","2.156","58.93","1013.779","28.47","72.47","103.4","0.0"],
    [1423814,"2026-08-04 18:20:00","2192","1.0190000000000001","144.5","2.254","180.8","1013.6110000000001","28.41","72.83","80.7","0.0"],
    [1423815,"2026-08-04 18:30:00","2193","0.935","174.0","2.646","126.4","1013.696","28.41","72.2","61.35","0.0"],
    [1423816,"2026-08-04 18:40:00","2194","0.608","97.9","1.568","85.2","1013.877","28.33","72.71","43.52","0.0"],
    [1423817,"2026-08-04 18:50:00","2195","1.061","166.5","1.862","159.9","1013.7660000000001","28.24","73.3","26.49","0.0"],
    [1423818,"2026-08-04 19:00:00","2196","0.46799999999999997","162.7","2.842","174.9","1013.967","28.09","73.87","11.95","0.0"],
    [1423819,"2026-08-04 19:10:00","2197","0.754","220.3","2.352","250.1","1014.087","27.92","74.22","7.096","0.0"],
    [1423820,"2026-08-04 19:20:00","2198","1.422","211.8","2.842","150.8","1014.072","27.85","74.89","4.019","0.0"],
    [1423821,"2026-08-04 19:30:00","2199","1.462","205.4","2.94","227.7","1014.075","27.83","74.88","-1.798","0.0"],
    [1423822,"2026-08-04 19:40:00","2200","1.36","210.8","2.744","216.8","1014.0269999999999","27.79","74.62","-2.568","0.0"],
    [1423823,"2026-08-04 19:50:00","2201","1.364","214.4","2.744","224.9","1014.085","27.63","75.07","-2.952","0.0"],
    [1423824,"2026-08-04 20:00:00","2202","1.587","230.2","2.94","210.3","1014.329","27.71","74.91","-2.6189999999999998","0.0"],
    [1423825,"2026-08-04 20:10:00","2203","0.72","247.9","1.372","240.5","1014.5310000000001","27.46","75.99","-3.162","0.0"],
    [1423826,"2026-08-04 20:20:00","2204","0.45799999999999996","295.9","1.274","263.4","1014.681","27.42","75.89","-2.9930000000000003","0.0"],
    [1423827,"2026-08-04 20:30:00","2205","0.175","319.5","0.686","315.5","1014.77","27.25","76.39","-3.201","0.0"],
    [1423828,"2026-08-04 20:40:00","2206","0.073","245.4","0.784","250.6","1014.905","27.04","77.33","-3.0010000000000003","0.0"],
    [1423829,"2026-08-04 20:50:00","2207","0.598","201.0","1.862","196.9","1014.9069999999999","27.19","77.22","-2.688","0.0"],
    [1423830,"2026-08-04 21:00:00","2208","1.1","184.1","1.764","206","1014.865","27.42","76.51","-2.762","0.0"],
    [1423831,"2026-08-04 21:10:00","2209","0.938","199.6","1.96","233.6","1014.806","27.43","76.77","-2.705","0.0"],
    [1423832,"2026-08-04 21:20:00","2210","0.542","218.4","1.47","236.6","1014.816","27.02","78.76","-3.262","0.0"],
    [1423833,"2026-08-04 21:30:00","2211","0.9159999999999999","241.0","1.568","250.9","1014.863","26.98","79.19","-3.0189999999999997","0.0"],
    [1423834,"2026-08-04 21:40:00","2212","0.875","230.7","1.666","242.2","1014.852","26.98","79.61","-2.897","0.0"],
    [1423835,"2026-08-04 21:50:00","2213","1.102","232.1","2.352","224.1","1014.9119999999999","27.03","79.95","-2.859","0.0"],
    [1423836,"2026-08-04 22:00:00","2214","1.294","228.4","1.96","255.3","1014.8889999999999","26.99","80.7","-2.761","0.0"],
    [1423837,"2026-08-04 22:10:00","2215","1.4609999999999999","230.3","2.352","240.4","1014.9780000000001","26.9","81.4","-2.699","0.0"],
    [1423838,"2026-08-04 22:20:00","2216","1.589","232.2","3.234","244.9","1015.0010000000001","26.88","81.6","-2.627","0.0"],
    [1423839,"2026-08-04 22:30:00","2217","1.93","228.2","3.724","247.6","1015.028","26.76","81.5","-2.6069999999999998","0.0"],
    [1423840,"2026-08-04 22:40:00","2218","1.485","235.2","2.94","260.5","1015.063","26.66","80.5","-2.63","0.0"],
    [1423841,"2026-08-04 22:50:00","2219","1.274","266.7","2.45","298.7","1015.074","26.6","80.1","-2.7769999999999997","0.0"],
    [1423842,"2026-08-04 23:00:00","2220","1.189","280.0","2.45","290.5","1015.092","26.2","80.4","-2.762","0.0"],
    [1423843,"2026-08-04 23:10:00","2221","1.337","271.7","2.352","275.5","1015.1439999999999","26.08","80.4","-2.821","0.0"],
    [1423844,"2026-08-04 23:20:00","2222","1.248","270.7","2.058","282.5","1015.1439999999999","26.02","79.74","-2.6260000000000003","0.0"],
    [1423845,"2026-08-04 23:30:00","2223","1.3980000000000001","273.4","2.156","277.7","1015.1010000000001","25.88","78.95","-2.6039999999999996","0.0"],
    [1423846,"2026-08-04 23:40:00","2224","1.228","256.3","2.156","250.4","1015.0089999999999","26.03","78.59","-2.715","0.0"],
    [1423847,"2026-08-04 23:50:00","2225","1.071","261.5","2.646","277.3","1014.8989999999999","26.21","78.72","-2.673","0.0"],
    [1423848,"2026-08-05 00:00:00","2226","1.749","261.8","2.94","281.9","1014.82","26.12","77.49","-2.64","0.0"],
    [1423849,"2026-08-05 00:10:00","2227","1.7269999999999999","270.5","3.332","276.6","1014.783","26.08","75.66","-2.594","0.0"],
    [1423850,"2026-08-05 00:20:00","2228","1.726","277.9","2.842","295.6","1014.8439999999999","25.63","76.58","-2.593","0.0"],
    [1423851,"2026-08-05 00:30:00","2229","1.7469999999999999","282.1","2.842","278.9","1014.8810000000001","25.13","78.0","-2.593","0.0"],
    [1423852,"2026-08-05 00:40:00","2230","1.2109999999999999","269.1","2.254","270.4","1014.916","24.99","78.72","-2.596","0.0"],
    [1423853,"2026-08-05 00:50:00","2231","0.767","276.2","1.568","296.8","1014.8510000000001","24.99","78.71","-2.605","0.0"],
    [1423854,"2026-08-05 01:00:00","2232","0.889","281.4","1.274","286","1014.8510000000001","24.87","79.46","-2.78","0.0"],
    [1423855,"2026-08-05 01:10:00","2233","0.727","281.6","1.274","283.9","1014.885","24.85","79.91","-2.648","0.0"],
    [1423856,"2026-08-05 01:20:00","2234","1.341","276.2","2.058","268.1","1014.8510000000001","24.82","80.3","-2.781","0.0"],
    [1423857,"2026-08-05 01:30:00","2235","1.3019999999999998","279.7","2.352","268","1014.8389999999999","24.92","79.84","-2.593","0.0"],
    [1423858,"2026-08-05 01:40:00","2236","1.041","280.2","1.666","300.5","1014.845","24.7","80.8","-2.799","0.0"],
    [1423859,"2026-08-05 01:50:00","2237","1.416","276.2","2.352","262.2","1014.9760000000001","25.0","80.0","-2.772","0.0"],
    [1423860,"2026-08-05 02:00:00","2238","1.42","293.7","2.156","296.8","1015.086","24.65","80.3","-2.6069999999999998","0.0"],
    [1423861,"2026-08-05 02:10:00","2239","1.501","286.0","2.254","287","1015.067","24.55","80.6","-2.76","0.0"],
    [1423862,"2026-08-05 02:20:00","2240","1.3880000000000001","294.8","2.548","281.1","1014.993","24.8","78.57","-2.5989999999999998","0.0"],
    [1423863,"2026-08-05 02:30:00","2241","0.946","315.5","2.352","314.6","1015.051","24.95","77.44","-2.5980000000000003","0.0"],
    [1423864,"2026-08-05 02:40:00","2242","1.3230000000000002","329.9","2.254","326.3","1015.078","25.19","76.09","-2.625","0.0"],
    [1423865,"2026-08-05 02:50:00","2243","1.186","309.6","1.862","305.6","1015.078","25.39","74.08","-2.5980000000000003","0.0"],
    [1423866,"2026-08-05 03:00:00","2244","1.1740000000000002","284.0","1.96","275","1015.057","25.23","73.74","-2.778","0.0"],
    [1423867,"2026-08-05 03:10:00","2245","1.474","265.3","2.646","270.1","1015.0260000000001","25.24","72.53","-2.609","0.0"],
    [1423868,"2026-08-05 03:20:00","2246","1.383","269.9","2.254","289","1014.9739999999999","25.06","73.01","-2.596","0.0"],
    [1423869,"2026-08-05 03:30:00","2247","1.0859999999999999","261.6","2.058","279.2","1014.951","24.81","73.65","-2.5980000000000003","0.0"],
    [1423870,"2026-08-05 03:40:00","2248","1.368","262.7","2.45","275.1","1014.9060000000001","24.76","73.42","-2.596","0.0"],
    [1423871,"2026-08-05 03:50:00","2249","1.411","275.4","2.352","269.5","1014.92","24.6","73.63","-2.595","0.0"],
    [1423872,"2026-08-05 04:00:00","2250","1.182","282.1","1.764","273.6","1015.002","24.43","74.03","-2.595","0.0"],
    [1423873,"2026-08-05 04:10:00","2251","1.075","290.6","2.058","275.6","1015.0269999999999","24.24","74.44","-2.6039999999999996","0.0"],
    [1423874,"2026-08-05 04:20:00","2252","1.4069999999999998","285.8","2.45","287.4","1015.0160000000001","24.26","74.08","-2.7039999999999997","0.0"],
    [1423875,"2026-08-05 04:30:00","2253","1.706","282.4","2.548","285.1","1015.09","24.28","73.84","-2.6039999999999996","0.0"],
    [1423876,"2026-08-05 04:40:00","2254","1.445","286.1","2.646","284.3","1015.193","24.3","73.7","-1.94","0.0"],
    [1423877,"2026-08-05 04:50:00","2255","1.284","290.0","2.352","300.6","1015.2539999999999","24.36","73.13","-0.21600000000000003","0.0"],
    [1423878,"2026-08-05 05:00:00","2256","1.3030000000000002","284.9","2.156","288.3","1015.293","24.42","72.57","3.18","0.0"],
    [1423879,"2026-08-05 05:10:00","2257","1.6119999999999999","284.5","2.548","286.1","1015.3939999999999","24.49","72.32","11.05","0.0"],
    [1423880,"2026-08-05 05:20:00","2258","1.535","284.9","2.842","286.4","1015.442","24.63","71.75","22.06","0.0"],
    [1423881,"2026-08-05 05:30:00","2259","1.4240000000000002","285.2","2.646","286","1015.446","24.81","71.04","37.92","0.0"],
    [1423882,"2026-08-05 05:40:00","2260","1.5190000000000001","294.8","2.94","289.8","1015.447","25.08","70.14","52.23","0.0"],
    [1423883,"2026-08-05 05:50:00","2261","1.8319999999999999","293.3","3.234","301.3","1015.461","25.45","68.58","65.6","0.0"],
    [1423884,"2026-08-05 06:00:00","2262","1.8230000000000002","295.1","3.332","305.2","1015.515","25.83","66.48","81.9","0.0"],
    [1423885,"2026-08-05 06:10:00","2263","1.825","293.0","3.136","282.3","1015.534","26.26","64.77","103.2","0.0"],
    [1423886,"2026-08-05 06:20:00","2264","2.455","294.0","3.528","305","1015.579","26.57","63.35","128.5","0.0"],
    [1423887,"2026-08-05 06:30:00","2265","2.303","287.7","3.43","280.6","1015.755","26.98","61.63","155.2","0.0"],
    [1423888,"2026-08-05 06:40:00","2266","2.4330000000000003","292.1","4.116","283.9","1015.905","27.19","60.9","182.8","0.0"],
    [1423889,"2026-08-05 06:50:00","2267","2.6239999999999997","299.1","4.41","302.1","1016.034","27.72","58.91","213.6","0.0"],
    [1423890,"2026-08-05 07:00:00","2268","2.405","290.9","3.724","321.6","1016.172","28.15","57.37","247.0","0.0"],
    [1423891,"2026-08-05 07:10:00","2269","2.7319999999999998","307.6","4.214","316.7","1016.268","28.48","55.6","281.5","0.0"],
    [1423892,"2026-08-05 07:20:00","2270","1.695","309.8","2.744","322.1","1016.306","29.06","53.62","315.1","0.0"],
    [1423893,"2026-08-05 07:30:00","2271","1.181","304.0","2.058","299.2","1016.3580000000001","29.69","51.39","347.9","0.0"],
    [1423894,"2026-08-05 07:40:00","2272","0.43700000000000006","227.3","1.568","283.8","1016.377","30.41","50.11","380.0","0.0"],
    [1423895,"2026-08-05 07:50:00","2273","1.608","85.3","2.842","73.47","1016.3330000000001","30.64","53.46","416.8","0.0"],
    [1423896,"2026-08-05 08:00:00","2274","1.43","90.4","2.94","134.9","1016.314","30.54","57.94","452.0","0.0"],
    [1423897,"2026-08-05 08:10:00","2275","1.097","106.4","2.058","77.64","1016.273","30.57","58.43","487.2","0.0"],
    [1423898,"2026-08-05 08:20:00","2276","0.96","102.4","3.136","115.3","1016.33","30.82","58.87","493.7","0.0"],
    [1423899,"2026-08-05 08:30:00","2277","1.511","100.0","3.724","91.4","1016.346","30.52","58.18","556.2","0.0"],
    [1423900,"2026-08-05 08:40:00","2278","1.56","85.9","4.802","102.7","1016.42","30.76","57.2","561.1","0.0"],
    [1423901,"2026-08-05 08:50:00","2279","1.749","75.95","3.136","81.9","1016.4119999999999","30.78","56.78","619.1","0.0"],
    [1423902,"2026-08-05 09:00:00","2280","1.725","90.4","3.332","87.6","1016.382","30.92","55.88","648.8","0.0"],
    [1423903,"2026-08-05 09:10:00","2281","1.5530000000000002","92.2","3.724","61.56","1016.414","31.12","54.54","676.7","0.0"],
    [1423904,"2026-08-05 09:20:00","2282","1.824","95.6","3.43","103","1016.4730000000001","30.95","56.32","704.3","0.0"],
    [1423905,"2026-08-05 09:30:00","2283","1.901","106.7","3.332","72.9","1016.513","31.29","55.15","730.5","0.0"],
    [1423906,"2026-08-05 09:40:00","2284","1.04","132.6","3.332","182.2","1016.56","31.62","52.36","754.1","0.0"],
    [1423907,"2026-08-05 09:50:00","2285","1.57","104.6","4.41","72.32","1016.6060000000001","31.67","51.82","773.2","0.0"],
    [1423908,"2026-08-05 10:00:00","2286","1.665","170.6","4.9","183.5","1016.6669999999999","32.01","47.23","796.0","0.0"],
    [1423909,"2026-08-05 10:10:00","2287","1.371","134.6","3.038","140","1016.7439999999999","32.04","49.85","816.0","0.0"],
    [1423910,"2026-08-05 10:20:00","2288","1.554","161.5","4.41","181.6","1016.8330000000001","32.05","47.5","832.0","0.0"],
    [1423911,"2026-08-05 10:30:00","2289","1.848","171.9","5.096","177.9","1016.913","32.14","43.57","846.0","0.0"],
    [1423912,"2026-08-05 10:40:00","2290","3.1910000000000003","180.8","5.292","189.1","1016.9910000000001","32.35","36.47","872.0","0.0"],
    [1423913,"2026-08-05 10:50:00","0","2.909","182.3","5.292","188.5","1016.9739999999999","32.78","37.6","892.0","0.0"],
    [1423914,"2026-08-05 11:00:00","1","2.681","175.6","4.998","182.2","1016.949","32.31","39.54","905.0","0.0"],
    [1423915,"2026-08-05 11:10:00","2","3.4210000000000003","176.8","5.684","165.7","1016.944","32.45","40.5","915.0","0.0"],
    [1423916,"2026-08-05 11:20:00","3","3.431","172.4","5.978","182.4","1016.919","31.84","42.13","925.0","0.0"],
    [1423917,"2026-08-05 11:30:00","4","3.1460000000000004","187.6","5.39","169.1","1016.8860000000001","32.57","44.97","929.0","0.0"],
    [1423918,"2026-08-05 11:40:00","5","4.252","196.9","7.056","198.6","1016.875","32.38","40.57","935.0","0.0"],
    [1423919,"2026-08-05 11:50:00","6","4.159","203.3","7.252","219.6","1016.836","32.81","39.33","934.0","0.0"],
    [1423920,"2026-08-05 12:00:00","7","4.306","205.2","7.252","182.4","1016.753","32.75","38.64","935.0","0.0"],
    [1423921,"2026-08-05 12:10:00","8","4.0280000000000005","189.7","7.154","178.2","1016.7339999999999","32.56","41.77","932.0","0.0"],
    [1423922,"2026-08-05 12:20:00","9","3.332","196.8","6.37","215.1","1016.695","32.99","42.62","928.0","0.0"],
    [1423923,"2026-08-05 12:30:00","10","4.038","199.8","7.252","206.9","1016.683","32.44","44.91","924.0","0.0"],
    [1423924,"2026-08-05 12:40:00","11","4.144","210.3","7.252","192.4","1016.61","32.29","47.0","918.0","0.0"],
    [1423925,"2026-08-05 12:50:00","12","3.6010000000000004","194.8","6.37","167.2","1016.6010000000001","32.16","49.33","908.0","0.0"],
    [1423926,"2026-08-05 13:00:00","13","3.7119999999999997","192.4","7.35","177.9","1016.6189999999999","32.07","50.5","901.0","0.0"],
    [1423927,"2026-08-05 13:10:00","14","4.284","205.8","7.154","228.4","1016.577","32.26","49.0","887.0","0.0"],
    [1423928,"2026-08-05 13:20:00","15","3.662","206.4","7.35","218.8","1016.591","32.42","49.8","875.0","0.0"],
    [1423929,"2026-08-05 13:30:00","16","3.613","200.9","8.92","219.1","1016.564","32.18","51.05","859.0","0.0"],
    [1423930,"2026-08-05 13:40:00","17","3.985","206.1","7.056","216.5","1016.5210000000001","32.13","52.64","843.0","0.0"],
    [1423931,"2026-08-05 13:50:00","18","4.67","205.9","7.546","215.5","1016.465","31.77","55.44","827.0","0.0"],
    [1423932,"2026-08-05 14:00:00","19","4.064","209.1","7.938","197.8","1016.334","32.06","55.98","807.0","0.0"],
    [1423933,"2026-08-05 14:10:00","20","5.337000000000001","213.6","8.04","207.3","1016.2869999999999","31.73","58.53","788.1","0.0"],
    [1423934,"2026-08-05 14:20:00","21","4.401","215.8","7.252","196","1016.2489999999999","32.01","58.13","764.7","0.0"],
    [1423935,"2026-08-05 14:30:00","22","4.126","209.9","7.35","209.5","1016.205","32.32","56.68","742.0","0.0"],
    [1423936,"2026-08-05 14:40:00","23","4.586","213.5","8.33","211","1016.16","32.01","57.38","721.0","0.0"],
    [1423937,"2026-08-05 14:50:00","24","4.936","213.5","8.23","200.4","1016.13","31.8","58.18","695.1","0.0"],
    [1423938,"2026-08-05 15:00:00","25","5.4270000000000005","217.6","8.82","227.3","1016.097","31.47","59.72","668.6","0.0"],
    [1423939,"2026-08-05 15:10:00","26","4.512","210.9","7.84","220.7","1015.988","31.37","59.82","639.8","0.0"],
    [1423940,"2026-08-05 15:20:00","27","3.665","208.4","7.056","207.8","1015.9580000000001","31.75","59.76","611.1","0.0"],
    [1423941,"2026-08-05 15:30:00","28","4.29","215.5","7.252","201.5","1015.943","31.76","59.63","580.4","0.0"],
    [1423942,"2026-08-05 15:40:00","29","4.004","212.4","6.958","233.1","1015.905","31.78","59.81","548.2","0.0"],
    [1423943,"2026-08-05 15:50:00","30","5.485","219.1","8.33","228.4","1015.893","31.25","59.41","503.5","0.0"],
    [1423944,"2026-08-05 16:00:00","31","4.622","215.0","8.82","242.3","1015.84","31.37","57.51","478.0","0.0"],
    [1423945,"2026-08-05 16:10:00","32","4.609","212.6","7.546","243.7","1015.808","31.29","58.32","433.6","0.0"],
    [1423946,"2026-08-05 16:20:00","33","4.94","221.2","8.23","220.3","1015.837","31.19","59.9","425.3","0.0"],
    [1423947,"2026-08-05 16:30:00","34","3.862","214.5","7.154","232.8","1015.8560000000001","31.22","57.48","397.3","0.0"],
    [1423948,"2026-08-05 16:40:00","35","3.53","214.8","5.88","220.7","1015.828","31.3","58.33","366.4","0.0"],
    [1423949,"2026-08-05 16:50:00","36","4.321000000000001","218.6","7.84","208.1","1015.763","30.91","60.9","334.6","0.0"],
    [1423950,"2026-08-05 17:00:00","37","3.405","215.3","6.762","190.4","1015.704","31.09","60.3","303.1","0.0"],
    [1423951,"2026-08-05 17:10:00","38","3.635","214.6","6.076","226.4","1015.683","30.82","61.1","272.0","0.0"],
    [1423952,"2026-08-05 17:20:00","39","3.593","216.3","5.782","217","1015.806","30.51","62.34","241.9","0.0"],
    [1423953,"2026-08-05 17:30:00","40","3.5810000000000004","218.0","6.664","206.5","1015.8739999999999","30.62","61.95","212.2","0.0"],
    [1423954,"2026-08-05 17:40:00","41","3.7089999999999996","212.5","6.272","211.8","1015.895","30.24","63.02","184.7","0.0"],
    [1423955,"2026-08-05 17:50:00","42","2.9610000000000003","212.3","7.056","229.8","1016.0310000000001","30.26","62.59","156.6","0.0"],
    [1423956,"2026-08-05 18:00:00","43","3.957","216.6","5.978","192.8","1016.1469999999999","30.08","63.41","130.2","0.0"],
    [1423957,"2026-08-05 18:10:00","44","3.8289999999999997","215.1","6.174","204.3","1016.2589999999999","29.9","64.12","105.4","0.0"],
    [1423958,"2026-08-05 18:20:00","45","2.81","208.1","5.978","221.2","1016.357","29.87","61.43","80.8","0.0"],
    [1423959,"2026-08-05 18:30:00","46","2.635","211.4","5.096","235.8","1016.461","29.81","61.77","58.02","0.0"],
    [1423960,"2026-08-05 18:40:00","47","2.0","207.3","4.508","231.9","1016.4960000000001","29.6","62.83","31.8","0.0"],
    [1423961,"2026-08-05 18:50:00","48","1.931","201.6","5.39","273.3","1016.4939999999999","29.34","63.93","13.07","0.0"],
    [1423962,"2026-08-05 19:00:00","49","1.429","203.6","3.724","231.8","1016.57","29.13","65.21","5.024","0.0"],
    [1423963,"2026-08-05 19:10:00","50","1.7730000000000001","209.3","5.096","189.4","1016.607","29.0","66.14","0.794","0.0"],
    [1423964,"2026-08-05 19:20:00","51","1.751","209.8","3.92","205.3","1016.7539999999999","28.96","66.75","-1.35","0.0"],
    [1423965,"2026-08-05 19:30:00","52","2.18","204.3","5.586","247.6","1016.865","28.89","67.66","-2.533","0.0"],
    [1423966,"2026-08-05 19:40:00","53","1.546","208.7","3.136","236.4","1016.926","28.83","67.88","-2.546","0.0"],
    [1423967,"2026-08-05 19:50:00","54","1.7830000000000001","192.2","4.998","217.5","1016.985","28.77","67.68","-2.56","0.0"],
    [1423968,"2026-08-05 20:00:00","55","1.455","195.8","2.94","171.6","1017.175","28.76","67.99","-2.553","0.0"],
    [1423969,"2026-08-05 20:10:00","56","1.089","193.4","2.156","177.2","1017.2339999999999","28.68","67.99","-2.57","0.0"],
    [1423970,"2026-08-05 20:20:00","57","1.764","203.5","4.704","216.3","1017.307","28.62","67.72","-2.592","0.0"],
    [1423971,"2026-08-05 20:30:00","58","0.995","188.9","2.842","311.1","1017.3939999999999","28.65","67.14","-2.576","0.0"],
    [1423972,"2026-08-05 20:40:00","59","1.78","198.8","3.332","202.4","1017.558","28.66","66.53","-2.6069999999999998","0.0"],
    [1423973,"2026-08-05 20:50:00","60","1.703","206.0","4.312","168.6","1017.574","28.66","67.35","-2.5780000000000003","0.0"],
    [1423974,"2026-08-05 21:00:00","61","0.858","191.9","2.156","193.3","1017.472","28.6","67.79","-2.582","0.0"],
    [1423975,"2026-08-05 21:10:00","62","0.278","201.3","1.96","188.2","1017.544","28.31","68.7","-2.673","0.0"],
    [1423976,"2026-08-05 21:20:00","63","0.055","207.5","0.882","239","1017.555","28.06","69.62","-2.605","0.0"],
    [1423977,"2026-08-05 21:30:00","64","0.0","0.0","0","220.8","1017.5110000000001","27.94","70.21","-2.767","0.0"],
    [1423978,"2026-08-05 21:40:00","65","0.0","69.38","0.098","69.38","1017.459","28.01","69.74","-2.592","0.0"],
    [1423979,"2026-08-05 21:50:00","66","0.266","245.1","1.078","242.3","1017.413","27.74","70.71","-2.628","0.0"],
    [1423980,"2026-08-05 22:00:00","67","0.155","238.8","0.784","238.3","1017.471","27.88","70.27","-2.593","0.0"],
    [1423981,"2026-08-05 22:10:00","68","0.001","234.6","0.098","236.8","1017.45","27.9","70.2","-2.59","0.0"],
    [1423982,"2026-08-05 22:20:00","69","0.0","0.0","0","234.1","1017.441","27.62","70.5","-2.593","0.0"],
    [1423983,"2026-08-05 22:30:00","70","0.0","0.0","0","234.3","1017.487","27.77","70.77","-2.593","0.0"],
    [1423984,"2026-08-05 22:40:00","71","0.001","247.8","0.098","247.9","1017.449","27.57","70.74","-2.593","0.0"],
    [1423985,"2026-08-05 22:50:00","72","0.0","0.0","0","240.6","1017.434","27.78","70.36","-2.572","0.0"],
    [1423986,"2026-08-05 23:00:00","73","0.0","0.0","0","222.8","1017.37","27.71","70.57","-2.593","0.0"],
    [1423987,"2026-08-05 23:10:00","74","0.632","282.3","1.47","301.2","1017.373","27.42","71.25","-2.592","0.0"],
    [1423988,"2026-08-05 23:20:00","75","0.725","272.5","1.372","271.4","1017.301","27.25","72.44","-2.593","0.0"],
    [1423989,"2026-08-05 23:30:00","76","0.975","235.8","1.666","263.1","1017.309","27.46","72.17","-2.5869999999999997","0.0"],
    [1423990,"2026-08-05 23:40:00","77","1.093","231.4","1.764","231.3","1017.33","27.69","71.09","-2.589","0.0"],
    [1423991,"2026-08-05 23:50:00","78","1.349","228.6","1.764","233.5","1017.265","27.71","70.9","-2.593","0.0"],
    [1423992,"2026-08-06 00:00:00","79","0.79","264.9","1.666","266.2","1017.1619999999999","27.43","71.52","-2.592","0.0"],
    [1423993,"2026-08-06 00:10:00","80","1.242","236.9","2.058","235.2","1017.0310000000001","27.26","71.6","-2.593","0.0"],
    [1423994,"2026-08-06 00:20:00","81","1.249","232.1","2.156","226.2","1017.04","27.21","71.32","-2.593","0.0"],
    [1423995,"2026-08-06 00:30:00","82","0.9279999999999999","254.1","1.96","285.8","1017.01","27.01","71.81","-2.593","0.0"],
    [1423996,"2026-08-06 00:40:00","83","1.183","276.3","1.96","274.5","1017.008","26.67","72.73","-2.593","0.0"],
    [1423997,"2026-08-06 00:50:00","84","1.409","276.0","2.45","267.3","1016.988","26.45","72.99","-2.593","0.0"],
    [1423998,"2026-08-06 01:00:00","85","1.136","275.1","2.744","266.8","1017.03","26.48","72.7","-2.58","0.0"],
    [1423999,"2026-08-06 01:10:00","86","1.022","279.9","1.764","280.4","1017.085","25.97","74.68","-2.589","0.0"],
    [1424000,"2026-08-06 01:20:00","87","0.5710000000000001","283.5","1.372","252","1017.039","25.93","75.59","-2.593","0.0"],
    [1424001,"2026-08-06 01:30:00","88","0.37","310.3","1.176","312.8","1016.893","25.96","75.33","-2.5869999999999997","0.0"],
    [1424002,"2026-08-06 01:40:00","89","0.765","332.1","1.47","340.6","1016.832","25.76","75.83","-2.5869999999999997","0.0"],
    [1424003,"2026-08-06 01:50:00","90","0.265","328.0","0.686","327.5","1016.7869999999999","25.92","75.49","-2.266","0.0"],
    [1424004,"2026-08-06 02:00:00","91","0.035","334.9","0.588","335.4","1016.717","26.05","74.37","-2.1390000000000002","0.0"],
    [1424005,"2026-08-06 02:10:00","92","0.001","335.4","0.098","335.4","1016.7189999999999","25.91","75.18","-2.044","0.0"],
    [1424006,"2026-08-06 02:20:00","93","0.489","238.2","1.47","238","1016.745","26.41","73.32","-2.373","0.0"],
    [1424007,"2026-08-06 02:30:00","94","1.412","228.0","2.058","216.9","1016.7919999999999","26.71","71.36","-2.427","0.0"],
    [1424008,"2026-08-06 02:40:00","95","1.213","271.9","2.156","309.9","1016.847","26.09","73.18","-2.535","0.0"],
    [1424009,"2026-08-06 02:50:00","96","1.1420000000000001","273.2","2.352","250.5","1016.836","25.71","74.56","-2.593","0.0"],
    [1424010,"2026-08-06 03:00:00","97","1.455","278.4","2.646","276.5","1016.7860000000001","25.43","75.44","-2.592","0.0"],
    [1424011,"2026-08-06 03:10:00","98","1.671","268.9","2.352","262.2","1016.697","25.3","76.2","-2.591","0.0"],
    [1424012,"2026-08-06 03:20:00","99","1.912","266.5","3.43","262.2","1016.66","25.31","76.25","-2.557","0.0"],
    [1424013,"2026-08-06 03:30:00","100","1.2770000000000001","274.7","2.45","247.5","1016.612","25.25","76.27","-2.568","0.0"],
    [1424014,"2026-08-06 03:40:00","101","1.415","279.6","2.548","245","1016.686","25.12","76.88","-2.585","0.0"],
    [1424015,"2026-08-06 03:50:00","102","1.339","296.1","2.548","301","1016.74","25.21","76.7","-2.572","0.0"],
    [1424016,"2026-08-06 04:00:00","103","1.3530000000000002","292.3","2.842","294.3","1016.785","25.52","76.23","-2.5869999999999997","0.0"],
    [1424017,"2026-08-06 04:10:00","104","1.776","296.0","3.136","312.2","1016.802","25.78","74.93","-2.492","0.0"],
    [1424018,"2026-08-06 04:20:00","105","1.9140000000000001","304.5","3.724","329.9","1016.755","25.67","74.76","-2.483","0.0"],
    [1424019,"2026-08-06 04:30:00","106","1.936","299.4","3.626","313","1016.7180000000001","25.71","74.43","-2.046","0.0"],
    [1424020,"2026-08-06 04:40:00","107","1.5330000000000001","284.6","2.548","296.5","1016.7760000000001","25.62","74.97","-1.4880000000000002","0.0"],
    [1424021,"2026-08-06 04:50:00","108","1.6440000000000001","283.4","3.332","258.1","1016.809","25.45","75.7","0.099","0.0"],
    [1424022,"2026-08-06 05:00:00","109","1.661","275.6","3.136","269","1016.8919999999999","25.4","76.11","3.0789999999999997","0.0"],
    [1424023,"2026-08-06 05:10:00","110","1.327","282.4","2.646","289.8","1016.967","25.38","76.49","8.65","0.0"],
    [1424024,"2026-08-06 05:20:00","111","0.818","284.2","1.47","296.4","1016.9830000000001","25.68","75.72","28.05","0.0"],
    [1424025,"2026-08-06 05:30:00","112","1.328","283.0","2.548","279.3","1017.115","26.11","73.82","43.24","0.0"],
    [1424026,"2026-08-06 05:40:00","113","1.569","296.0","2.744","282.1","1017.212","26.48","71.54","64.55","0.0"],
    [1424027,"2026-08-06 05:50:00","114","1.751","296.0","2.646","304","1017.2130000000001","26.75","69.79","66.83","0.0"],
    [1424028,"2026-08-06 06:00:00","115","1.755","292.7","3.038","297","1017.331","26.82","68.84","65.03","0.0"],
    [1424029,"2026-08-06 06:10:00","116","1.548","306.7","2.94","294.8","1017.3919999999999","26.94","67.7","64.11","0.0"],
    [1424030,"2026-08-06 06:20:00","117","1.162","291.8","1.666","325.5","1017.5089999999999","27.05","67.1","61.19","0.0"],
    [1424031,"2026-08-06 06:30:00","118","1.083","268.5","1.96","279.7","1017.672","27.07","67.27","91.3","0.0"],
    [1424032,"2026-08-06 06:40:00","119","1.249","280.2","2.45","276.7","1017.686","27.31","66.69","175.9","0.0"],
    [1424033,"2026-08-06 06:50:00","120","0.512","295.6","1.372","306.7","1017.678","27.73","65.48","204.6","0.0"],
    [1424034,"2026-08-06 07:00:00","121","0.09","218.8","0.686","319.3","1017.674","28.6","63.35","232.5","0.0"],
    [1424035,"2026-08-06 07:10:00","122","0.428","81.7","1.568","88.6","1017.8","29.46","60.52","263.7","0.0"],
    [1424036,"2026-08-06 07:20:00","123","0.836","93.6","2.058","64.17","1017.9789999999999","29.69","61.32","300.1","0.0"],
    [1424037,"2026-08-06 07:30:00","124","0.648","112.1","1.764","69.01","1018.071","29.77","61.27","332.5","0.0"],
    [1424038,"2026-08-06 07:40:00","125","0.917","151.6","2.254","74.73","1018.01","30.02","60.48","357.7","0.0"],
    [1424039,"2026-08-06 07:50:00","126","1.6340000000000001","92.6","3.822","112","1018.0039999999999","29.74","62.53","397.8","0.0"],
    [1424040,"2026-08-06 08:00:00","127","2.082","72.81","3.822","79.92","1017.948","29.8","62.66","430.8","0.0"],
    [1424041,"2026-08-06 08:10:00","128","2.7710000000000004","78.64","4.214","91.9","1017.997","29.49","63.9","467.6","0.0"],
    [1424042,"2026-08-06 08:20:00","129","2.02","105.6","4.802","105","1018.123","29.54","64.56","478.0","0.0"],
    [1424043,"2026-08-06 08:30:00","130","0.983","105.4","2.842","99.3","1018.2","29.81","65.42","535.5","0.0"],
    [1424044,"2026-08-06 08:40:00","131","1.128","131.1","5.684","106","1018.179","30.06","64.54","542.8","0.0"],
    [1424045,"2026-08-06 08:50:00","132","0.932","139.0","3.136","129.7","1018.175","29.99","65.64","603.3","0.0"],
    [1424046,"2026-08-06 09:00:00","133","1.8330000000000002","110.4","4.802","207.4","1018.28","29.91","65.68","635.6","0.0"],
    [1424047,"2026-08-06 09:10:00","134","2.064","98.7","3.528","90.3","1018.373","29.86","65.91","657.8","0.0"],
    [1424048,"2026-08-06 09:20:00","135","2.222","96.3","3.822","81.7","1018.4010000000001","30.06","65.33","693.8","0.0"],
    [1424049,"2026-08-06 09:30:00","136","1.81","107.7","3.626","118.3","1018.46","30.31","66.06","713.0","0.0"],
    [1424050,"2026-08-06 09:40:00","137","1.4869999999999999","116.3","4.312","106.8","1018.5","30.39","66.57","732.5","0.0"],
    [1424051,"2026-08-06 09:50:00","138","1.874","140.3","4.9","98.2","1018.4839999999999","30.13","67.77","762.1","0.0"],
    [1424052,"2026-08-06 10:00:00","139","0.9279999999999999","127.9","2.45","151.8","1018.4069999999999","30.61","67.18","780.9","0.0"],
    [1424053,"2026-08-06 10:10:00","140","1.4569999999999999","144.1","4.312","150.5","1018.4639999999999","30.16","67.74","799.9","0.0"],
    [1424054,"2026-08-06 10:20:00","141","1.665","108.1","4.312","115.8","1018.42","30.46","67.17","818.0","0.0"],
    [1424055,"2026-08-06 10:30:00","142","1.6019999999999999","124.9","4.312","121.2","1018.3989999999999","30.95","65.63","839.0","0.0"],
    [1424056,"2026-08-06 10:40:00","143","2.127","146.9","5.194","148.9","1018.3839999999999","30.29","67.53","872.0","0.0"],
    [1424057,"2026-08-06 10:50:00","144","1.463","134.0","4.606","133.1","1018.257","30.85","66.02","933.0","0.0"],
    [1424058,"2026-08-06 11:00:00","145","1.92","160.7","4.802","182.5","1018.2339999999999","30.91","63.79","901.0","0.0"],
    [1424059,"2026-08-06 11:10:00","146","1.702","156.0","4.998","186.2","1018.17","30.74","64.14","704.9","0.0"],
    [1424060,"2026-08-06 11:20:00","147","2.702","187.6","5.978","157.1","1018.075","31.53","62.59","1028.0","0.0"],
    [1424061,"2026-08-06 11:30:00","148","2.8310000000000004","198.1","5.292","231.9","1018.047","31.08","63.8","684.9","0.0"],
    [1424062,"2026-08-06 11:40:00","149","2.628","182.6","5.292","175.2","1018.012","30.82","65.16","791.6","0.0"],
    [1424063,"2026-08-06 11:50:00","150","3.696","183.7","6.468","169.5","1017.8919999999999","30.36","67.85","691.2","0.0"],
    [1424064,"2026-08-06 12:00:00","151","3.533","185.7","6.272","196","1017.801","30.61","66.62","944.0","0.0"],
    [1424065,"2026-08-06 12:10:00","152","3.0210000000000004","188.2","5.782","155.8","1017.663","31.38","64.17","921.0","0.0"],
    [1424066,"2026-08-06 12:20:00","153","3.819","179.6","6.37","173.9","1017.581","30.85","64.41","913.0","0.0"],
    [1424067,"2026-08-06 12:30:00","154","3.485","182.4","5.782","169.8","1017.47","31.26","63.22","907.0","0.0"],
    [1424068,"2026-08-06 12:40:00","155","3.932","174.3","7.154","193","1017.328","30.69","65.08","901.0","0.0"],
    [1424069,"2026-08-06 12:50:00","156","4.013","193.4","6.762","187.1","1017.27","31.03","64.26","890.0","0.0"],
    [1424070,"2026-08-06 13:00:00","157","3.53","186.4","6.468","174.1","1017.186","31.04","64.82","877.0","0.0"],
    [1424071,"2026-08-06 13:10:00","158","3.458","190.1","6.664","179.7","1017.047","31.28","63.74","867.0","0.0"],
    [1424072,"2026-08-06 13:20:00","159","3.301","189.5","6.762","195.1","1016.952","31.32","62.83","857.0","0.0"],
    [1424073,"2026-08-06 13:30:00","160","3.839","172.2","7.35","173.2","1016.827","30.8","64.41","840.0","0.0"],
    [1424074,"2026-08-06 13:40:00","161","3.611","191.9","6.566","180.7","1016.73","31.14","63.85","847.0","0.0"],
    [1424075,"2026-08-06 13:50:00","162","3.366","187.3","6.37","174.2","1016.7739999999999","31.5","63.52","903.0","0.0"],
    [1424076,"2026-08-06 14:00:00","163","4.0489999999999995","209.2","7.252","222.8","1016.735","31.49","61.86","858.0","0.0"],
    [1424077,"2026-08-06 14:10:00","164","3.8960000000000004","200.2","7.35","215.6","1016.648","31.61","61.57","799.9","0.0"],
    [1424078,"2026-08-06 14:20:00","165","4.099","195.0","7.154","202.9","1016.6610000000001","31.28","62.57","758.8","0.0"],
    [1424079,"2026-08-06 14:30:00","166","4.087","203.6","7.448","214.1","1016.7610000000001","31.29","62.72","730.9","0.0"],
    [1424080,"2026-08-06 14:40:00","167","4.04","193.4","7.35","192.2","1016.791","31.28","63.39","706.7","0.0"],
    [1424081,"2026-08-06 14:50:00","168","3.267","201.6","6.664","209.9","1016.72","31.26","64.12","684.6","0.0"],
    [1424082,"2026-08-06 15:00:00","169","3.565","198.2","6.174","182.2","1016.567","31.19","63.86","662.1","0.0"],
    [1424083,"2026-08-06 15:10:00","170","4.507","202.0","7.546","217","1016.433","30.98","64.05","639.9","0.0"],
    [1424084,"2026-08-06 15:20:00","171","3.6639999999999997","203.1","7.644","224","1016.617","31.28","63.18","595.6","0.0"],
    [1424085,"2026-08-06 15:30:00","172","3.551","207.1","6.762","231.2","1016.773","31.25","63.03","388.2","0.0"],
    [1424086,"2026-08-06 15:40:00","173","3.852","205.2","6.174","225.3","1016.97","30.22","65.61","127.4","0.0"],
    [1424087,"2026-08-06 15:50:00","174","3.092","204.9","5.782","221","1017.053","29.98","66.1","99.1","0.0"],
    [1424088,"2026-08-06 16:00:00","175","2.859","210.3","6.272","231","1017.053","29.84","66.56","84.0","0.0"],
    [1424089,"2026-08-06 16:10:00","176","3.201","214.4","6.566","225.8","1017.145","29.72","66.81","68.77","0.0"],
    [1424090,"2026-08-06 16:20:00","177","2.8680000000000003","216.0","5.292","220.9","1017.314","29.58","67.55","52.64","0.0"],
    [1424091,"2026-08-06 16:30:00","178","1.182","252.6","2.156","277.8","1017.862","29.47","68.42","36.25","0.0"],
    [1424092,"2026-08-06 16:40:00","179","1.301","264.9","2.94","225.4","1018.337","29.36","68.71","18.73","0.0"],
    [1424093,"2026-08-06 16:50:00","180","0.905","276.0","2.744","313","1018.2230000000001","29.43","68.66","14.14","0.0"],
    [1424094,"2026-08-06 17:00:00","181","4.6","357.1","8.62","0.097","1018.572","29.11","51.31","5.1610000000000005","0.0"],
    [1424095,"2026-08-06 17:10:00","182","3.965","5.497000000000001","8.04","19.97","1019.164","29.12","50.73","3.3569999999999998","0.0"],
    [1424096,"2026-08-06 17:20:00","183","5.712000000000001","343.1","11.66","321.1","1019.6460000000001","28.16","56.73","3.017","0.0"],
    [1424097,"2026-08-06 17:30:00","184","4.777","3.466","9.02","334.8","1019.309","25.99","67.32","8.24","0.0"],
    [1424098,"2026-08-06 17:40:00","185","2.9189999999999996","30.35","6.762","12.36","1018.701","25.33","74.17","2.858","0.0"],
    [1424099,"2026-08-06 17:50:00","186","1.865","27.7","4.116","18.36","1017.927","25.76","71.82","5.218","0.0"],
    [1424100,"2026-08-06 18:00:00","187","1.085","93.6","2.646","110.6","1017.153","26.14","68.62","6.303","0.0"],
    [1424101,"2026-08-06 18:10:00","188","1.0","316.3","2.646","335.9","1017.299","26.56","68.8","7.202000000000001","0.0"],
    [1424102,"2026-08-06 18:20:00","189","2.887","285.5","5.88","309","1017.355","26.28","69.6","8.32","0.0"],
    [1424103,"2026-08-06 18:30:00","190","3.282","297.3","5.782","311.6","1017.3489999999999","25.16","71.51","19.7","0.0"],
    [1424104,"2026-08-06 18:40:00","191","2.485","298.9","5.39","291.5","1017.378","24.69","72.43","29.96","0.0"],
    [1424105,"2026-08-06 18:50:00","192","2.23","294.4","3.92","302.4","1017.2410000000001","24.84","71.52","22.5","0.0"],
    [1424106,"2026-08-06 19:00:00","193","1.71","264.3","3.234","286.1","1017.17","24.75","71.58","5.446000000000001","0.0"],
    [1424107,"2026-08-06 19:10:00","194","2.4859999999999998","292.3","3.822","281","1017.195","24.41","73.23","0.7070000000000001","0.0"],
    [1424108,"2026-08-06 19:20:00","195","3.408","298.5","5.782","276.9","1017.201","24.25","74.47","-0.9159999999999999","0.0"],
    [1424109,"2026-08-06 19:30:00","196","2.951","298.4","5.586","308.2","1017.04","24.19","73.89","-1.742","0.0"],
    [1424110,"2026-08-06 19:40:00","197","2.35","297.2","4.116","301.2","1016.913","24.19","72.81","-1.89","0.0"],
    [1424111,"2026-08-06 19:50:00","198","3.227","291.6","5.586","294.6","1017.035","24.38","71.21","-1.901","0.0"],
    [1424112,"2026-08-06 20:00:00","199","2.9610000000000003","293.8","5.586","308.9","1016.878","24.48","70.29","-1.8419999999999999","0.0"],
    [1424113,"2026-08-06 20:10:00","200","2.911","290.3","4.802","313.1","1016.811","24.6","69.18","-1.85","0.0"],
    [1424114,"2026-08-06 20:20:00","201","2.639","294.2","4.41","295.8","1016.98","24.83","67.67","-1.806","0.0"],
    [1424115,"2026-08-06 20:30:00","202","2.826","294.4","5.194","288.4","1017.172","24.92","67.58","-1.494","0.0"],
    [1424116,"2026-08-06 20:40:00","203","3.472","294.8","5.684","287.2","1017.4830000000001","25.09","67.29","-1.2309999999999999","0.0"],
    [1424117,"2026-08-06 20:50:00","204","3.698","294.9","6.958","285.8","1017.453","25.2","66.71","-1.127","0.0"],
    [1424118,"2026-08-06 21:00:00","205","3.0","296.9","5.39","277.9","1017.357","25.08","67.38","-1.092","0.0"],
    [1424119,"2026-08-06 21:10:00","206","3.99","304.3","6.37","310.7","1017.461","25.11","67.18","-1.094","0.0"],
    [1424120,"2026-08-06 21:20:00","207","3.1180000000000003","307.5","5.39","292.6","1017.362","25.26","66.05","-1.1","0.0"],
    [1424121,"2026-08-06 21:30:00","208","2.052","304.6","4.508","329","1017.078","25.57","64.4","-1.113","0.0"],
    [1424122,"2026-08-06 21:40:00","209","1.893","314.3","2.94","317.1","1017.057","25.6","64.81","-1.401","0.0"],
    [1424123,"2026-08-06 21:50:00","210","1.824","284.6","2.94","278.5","1016.985","25.63","64.5","-1.7530000000000001","0.0"],
    [1424124,"2026-08-06 22:00:00","211","1.922","278.8","4.214","294.3","1017.043","25.48","64.74","-1.84","0.0"],
    [1424125,"2026-08-06 22:10:00","212","1.8019999999999998","284.0","3.626","262.7","1017.081","25.25","65.23","-1.814","0.0"],
    [1424126,"2026-08-06 22:20:00","213","1.835","290.9","3.528","286.3","1017.315","25.03","65.7","-1.8530000000000002","0.0"],
    [1424127,"2026-08-06 22:30:00","214","1.944","295.9","3.92","305.8","1017.423","24.94","66.51","-1.7380000000000002","0.0"],
    [1424128,"2026-08-06 22:40:00","215","2.04","304.1","3.626","295.5","1017.6010000000001","24.92","66.43","-1.76","0.0"],
    [1424129,"2026-08-06 22:50:00","216","1.9909999999999999","315.0","3.43","309.2","1017.665","25.23","65.11","-1.726","0.0"],
    [1424130,"2026-08-06 23:00:00","217","1.0979999999999999","292.0","2.646","308.5","1017.548","25.33","64.3","-1.381","0.0"],
    [1424131,"2026-08-06 23:10:00","218","0.12","345.4","1.078","307.1","1017.334","25.25","64.51","-1.692","0.0"],
    [1424132,"2026-08-06 23:20:00","219","0.799","257.8","1.862","247.8","1017.252","25.37","63.71","-1.621","0.0"],
    [1424133,"2026-08-06 23:30:00","220","1.556","280.3","3.136","275.4","1017.337","25.35","65.23","-1.643","0.0"],
    [1424134,"2026-08-06 23:40:00","221","2.142","285.9","3.528","282.5","1017.433","24.85","68.22","-1.113","0.0"],
    [1424135,"2026-08-06 23:50:00","222","1.621","289.5","3.136","290.1","1017.414","24.78","69.39","-1.04","0.0"],
    [1424136,"2026-08-07 00:00:00","223","1.555","276.9","2.646","272.9","1017.3810000000001","24.88","68.94","-1.046","0.0"],
    [1424137,"2026-08-07 00:10:00","224","1.213","295.4","2.156","304.7","1017.3580000000001","24.72","69.75","-1.212","0.0"],
    [1424138,"2026-08-07 00:20:00","225","1.439","276.6","2.548","260.3","1017.3539999999999","24.76","69.31","-1.147","0.0"],
    [1424139,"2026-08-07 00:30:00","226","1.5630000000000002","274.1","2.45","263","1017.38","24.79","68.91","-1.139","0.0"],
    [1424140,"2026-08-07 00:40:00","227","1.3419999999999999","279.5","2.646","270.3","1017.455","24.63","69.77","-1.256","0.0"],
    [1424141,"2026-08-07 00:50:00","228","1.133","295.4","2.352","307.3","1017.387","24.54","70.11","-1.838","0.0"],
    [1424142,"2026-08-07 01:00:00","229","1.296","303.8","2.058","305.8","1017.2460000000001","24.63","69.05","-1.8319999999999999","0.0"],
    [1424143,"2026-08-07 01:10:00","230","0.9790000000000001","271.1","1.764","281.3","1017.2239999999999","24.74","68.23","-1.841","0.0"],
    [1424144,"2026-08-07 01:20:00","231","0.912","290.8","1.568","282.9","1017.1610000000001","24.78","68.27","-1.844","0.0"],
    [1424145,"2026-08-07 01:30:00","232","0.5720000000000001","277.7","0.98","281","1017.1389999999999","24.62","68.94","-1.939","0.0"],
    [1424146,"2026-08-07 01:40:00","233","1.6119999999999999","276.5","3.234","268.4","1017.1339999999999","24.58","69.56","-1.8719999999999999","0.0"],
    [1424147,"2026-08-07 01:50:00","234","1.149","288.9","1.862","290.3","1017.1210000000001","24.03","73.06","-1.9280000000000002","0.0"],
    [1424148,"2026-08-07 02:00:00","235","0.7659999999999999","277.1","1.47","277.2","1017.1260000000001","24.07","72.57","-1.984","0.0"],
    [1424149,"2026-08-07 02:10:00","236","1.182","282.9","2.058","278","1017.1669999999999","24.08","72.83","-1.9269999999999998","0.0"],
    [1424150,"2026-08-07 02:20:00","237","1.436","279.1","2.352","275.9","1017.118","23.91","73.49","-1.9","0.0"],
    [1424151,"2026-08-07 02:30:00","238","1.5090000000000001","280.9","2.842","276.4","1017.041","23.9","73.71","-1.89","0.0"],
    [1424152,"2026-08-07 02:40:00","239","2.08","274.6","3.038","275.4","1017.0160000000001","23.71","74.34","-1.8430000000000002","0.0"],
    [1424153,"2026-08-07 02:50:00","240","1.921","272.8","2.646","260.2","1017.044","23.57","75.29","-1.835","0.0"],
    [1424154,"2026-08-07 03:00:00","241","1.7630000000000001","275.2","2.744","272.1","1017.023","23.26","77.3","-1.844","0.0"],
    [1424155,"2026-08-07 03:10:00","242","1.818","276.8","3.332","282.3","1017.04","23.23","77.66","-1.8459999999999999","0.0"],
    [1424156,"2026-08-07 03:20:00","243","1.5619999999999998","281.2","2.646","278.6","1017.054","23.34","77.11","-1.636","0.0"],
    [1424157,"2026-08-07 03:30:00","244","1.463","287.0","2.352","271.1","1017.0169999999999","23.49","76.76","-1.031","0.0"],
    [1424158,"2026-08-07 03:40:00","245","1.4869999999999999","296.7","2.548","307.2","1016.9889999999999","23.65","76.65","-1.011","0.0"],
    [1424159,"2026-08-07 03:50:00","246","1.969","300.4","3.724","293.6","1016.957","23.94","75.1","-1.095","0.0"],
    [1424160,"2026-08-07 04:00:00","247","1.673","312.3","2.744","315.3","1016.84","23.96","74.64","-1.202","0.0"],
    [1424161,"2026-08-07 04:10:00","248","1.1420000000000001","301.9","1.96","312","1016.79","23.99","74.57","-1.8030000000000002","0.0"],
    [1424162,"2026-08-07 04:20:00","249","1.515","287.1","2.842","287.4","1016.948","23.72","75.94","-1.882","0.0"],
    [1424163,"2026-08-07 04:30:00","250","1.619","286.6","2.646","297.8","1017.02","23.49","76.91","-1.848","0.0"],
    [1424164,"2026-08-07 04:40:00","251","1.81","288.3","2.744","282.9","1017.1310000000001","23.38","77.15","-1.227","0.0"],
    [1424165,"2026-08-07 04:50:00","252","1.9409999999999998","295.6","3.332","306.8","1017.2410000000001","23.39","76.73","0.231","0.0"],
    [1424166,"2026-08-07 05:00:00","253","1.692","291.6","2.842","280.3","1017.303","23.5","76.4","3.284","0.0"],
    [1424167,"2026-08-07 05:10:00","254","1.5959999999999999","288.7","2.744","275.7","1017.315","23.65","75.74","9.03","0.0"],
    [1424168,"2026-08-07 05:20:00","255","2.416","287.7","4.018","293.6","1017.36","23.76","74.97","19.38","0.0"],
    [1424169,"2026-08-07 05:30:00","256","2.171","299.4","3.626","308.9","1017.409","23.98","73.3","36.43","0.0"],
    [1424170,"2026-08-07 05:40:00","257","2.555","299.4","4.116","298.7","1017.437","24.3","71.07","54.09","0.0"],
    [1424171,"2026-08-07 05:50:00","258","2.532","301.6","4.41","310.2","1017.512","24.58","69.54","76.43","0.0"],
    [1424172,"2026-08-07 06:00:00","259","2.231","298.2","4.116","302.9","1017.55","24.67","68.95","56.48","0.0"],
    [1424173,"2026-08-07 06:10:00","260","2.066","289.7","3.234","291.2","1017.5010000000001","24.84","68.37","122.1","0.0"],
    [1424174,"2026-08-07 06:20:00","261","2.58","298.9","3.822","303.4","1017.529","25.29","66.65","166.1","0.0"],
    [1424175,"2026-08-07 06:30:00","262","2.595","303.5","4.116","319.6","1017.559","25.72","65.36","196.6","0.0"],
    [1424176,"2026-08-07 06:40:00","263","1.8630000000000002","301.9","3.038","286.2","1017.5160000000001","26.02","64.84","222.4","0.0"],
    [1424177,"2026-08-07 06:50:00","264","1.982","305.7","3.528","273.5","1017.584","26.33","63.93","204.9","0.0"],
    [1424178,"2026-08-07 07:00:00","265","1.796","297.0","2.94","297.5","1017.6060000000001","26.36","64.22","190.3","0.0"],
    [1424179,"2026-08-07 07:10:00","266","1.7","297.5","2.548","301.4","1017.6469999999999","26.81","63.62","288.8","0.0"],
    [1424180,"2026-08-07 07:20:00","267","1.9069999999999998","295.0","2.744","284.3","1017.715","27.23","62.24","335.8","0.0"],
    [1424181,"2026-08-07 07:30:00","268","1.81","292.9","2.45","279.5","1017.775","27.62","61.01","377.6","0.0"],
    [1424182,"2026-08-07 07:40:00","269","1.403","299.7","2.352","279.5","1017.7769999999999","28.16","59.79","403.7","0.0"],
    [1424183,"2026-08-07 07:50:00","270","0.907","297.0","2.058","311.6","1017.762","28.66","59.81","434.4","0.0"],
    [1424184,"2026-08-07 08:00:00","271","1.002","270.5","1.96","303.1","1017.677","29.09","60.3","465.6","0.0"],
    [1424185,"2026-08-07 08:10:00","272","1.07","186.4","1.862","183.8","1017.6460000000001","29.21","62.48","491.1","0.0"],
    [1424186,"2026-08-07 08:20:00","273","0.41700000000000004","207.5","1.96","191.9","1017.64","29.63","63.4","498.5","0.0"],
    [1424187,"2026-08-07 08:30:00","274","1.109","213.5","2.156","227.6","1017.607","30.04","63.07","555.1","0.0"],
    [1424188,"2026-08-07 08:40:00","275","1.225","206.6","2.94","201.8","1017.58","30.08","64.7","563.5","0.0"],
    [1424189,"2026-08-07 08:50:00","276","1.798","198.7","3.528","187.5","1017.544","30.04","65.42","613.2","0.0"],
    [1424190,"2026-08-07 09:00:00","277","1.579","216.4","3.038","194.6","1017.539","29.99","66.23","641.1","0.0"],
    [1424191,"2026-08-07 09:10:00","278","1.597","207.4","3.822","206.9","1017.6080000000001","30.23","65.12","676.4","0.0"],
    [1424192,"2026-08-07 09:20:00","279","1.605","176.3","3.136","214.3","1017.576","30.33","64.96","698.1","0.0"],
    [1424193,"2026-08-07 09:30:00","280","1.7830000000000001","112.5","4.214","99.4","1017.523","30.56","63.6","735.3","0.0"],
    [1424194,"2026-08-07 09:40:00","281","1.9140000000000001","163.3","6.37","152.1","1017.5219999999999","30.23","65.31","756.2","0.0"],
    [1424195,"2026-08-07 09:50:00","282","1.4469999999999998","99.8","4.802","105.1","1017.518","30.89","63.46","767.0","0.0"],
    [1424196,"2026-08-07 10:00:00","283","1.381","115.7","4.312","135.1","1017.465","30.37","65.18","787.9","0.0"],
    [1424197,"2026-08-07 10:10:00","284","1.9169999999999998","121.0","4.214","124.2","1017.437","30.39","65.62","805.0","0.0"],
    [1424198,"2026-08-07 10:20:00","285","2.133","115.8","5.194","140.1","1017.3610000000001","30.41","65.87","823.0","0.0"],
    [1424199,"2026-08-07 10:30:00","286","1.874","127.9","4.41","144.7","1017.3710000000001","30.57","66.06","839.0","0.0"],
    [1424200,"2026-08-07 10:40:00","287","1.825","118.7","4.508","149.3","1017.38","30.5","66.41","853.0","0.0"],
    [1424201,"2026-08-07 10:50:00","288","1.685","122.4","4.802","138.7","1017.413","30.73","66.5","862.0","0.0"],
    [1424202,"2026-08-07 11:00:00","289","2.153","153.8","5.488","163.1","1017.44","30.45","67.36","875.0","0.0"],
    [1424203,"2026-08-07 11:10:00","290","2.3680000000000003","167.1","4.606","166.7","1017.434","30.05","69.33","883.0","0.0"],
    [1424204,"2026-08-07 11:20:00","291","2.4330000000000003","160.8","4.998","149.8","1017.297","30.16","69.04","892.0","0.0"],
    [1424205,"2026-08-07 11:30:00","292","2.167","160.9","4.704","192.8","1017.128","30.25","69.41","900.0","0.0"],
    [1424206,"2026-08-07 11:40:00","293","2.11","174.3","5.194","206.9","1017.1080000000001","30.73","68.36","902.0","0.0"],
    [1424207,"2026-08-07 11:50:00","294","2.815","192.4","5.88","228.2","1017.0939999999999","30.93","68.23","905.0","0.0"],
    [1424208,"2026-08-07 12:00:00","295","3.341","196.4","6.762","178.2","1017.041","30.86","68.78","909.0","0.0"],
    [1424209,"2026-08-07 12:10:00","296","3.7110000000000003","185.3","5.782","170.7","1016.92","30.67","69.46","913.0","0.0"],
    [1424210,"2026-08-07 12:20:00","297","3.299","175.2","6.37","155.8","1016.82","30.47","70.28","915.0","0.0"],
    [1424211,"2026-08-07 12:30:00","298","2.878","188.8","5.782","176.5","1016.695","30.93","69.16","918.0","0.0"],
    [1424212,"2026-08-07 12:40:00","299","3.728","191.4","7.546","186","1016.5889999999999","31.47","66.41","910.0","0.0"],
    [1424213,"2026-08-07 12:50:00","300","4.726","194.2","7.448","170.3","1016.4760000000001","31.16","67.32","901.0","0.0"],
    [1424214,"2026-08-07 13:00:00","301","3.5239999999999996","198.9","6.37","209.3","1016.38","31.6","66.95","889.0","0.0"],
    [1424215,"2026-08-07 13:10:00","302","4.413","208.0","8.23","222.4","1016.3330000000001","31.49","66.89","882.0","0.0"],
    [1424216,"2026-08-07 13:20:00","303","4.462","197.9","7.644","158.8","1016.275","31.34","67.32","866.0","0.0"],
    [1424217,"2026-08-07 13:30:00","304","3.998","203.3","7.742","229.9","1016.209","31.47","66.83","850.0","0.0"],
    [1424218,"2026-08-07 13:40:00","305","3.9189999999999996","196.3","6.958","178.5","1016.086","31.9","65.71","831.0","0.0"],
    [1424219,"2026-08-07 13:50:00","306","4.6","209.6","7.742","205.9","1015.9780000000001","31.61","66.39","817.0","0.0"],
    [1424220,"2026-08-07 14:00:00","307","4.204","203.3","7.546","212.5","1015.95","31.48","67.19","810.0","0.0"],
    [1424221,"2026-08-07 14:10:00","308","3.763","197.7","7.252","218.8","1016.01","31.36","67.54","806.0","0.0"],
    [1424222,"2026-08-07 14:20:00","309","4.607","199.2","7.448","189.4","1015.933","31.16","67.63","787.3","0.0"],
    [1424223,"2026-08-07 14:30:00","310","3.583","202.6","6.664","225","1015.793","31.57","67.11","745.0","0.0"],
    [1424224,"2026-08-07 14:40:00","311","4.337","195.1","7.938","162.9","1015.705","31.29","67.06","714.2","0.0"],
    [1424225,"2026-08-07 14:50:00","312","4.666","196.6","7.546","174","1015.6560000000001","31.11","67.19","697.4","0.0"],
    [1424226,"2026-08-07 15:00:00","313","4.17","208.0","8.13","206.6","1015.64","30.83","68.03","594.5","0.0"],
    [1424227,"2026-08-07 15:10:00","314","4.686","199.3","7.644","168.4","1015.5830000000001","30.85","67.36","629.1","0.0"],
    [1424228,"2026-08-07 15:20:00","315","4.422","210.6","7.448","214.5","1015.546","30.71","68.86","586.4","0.0"],
    [1424229,"2026-08-07 15:30:00","316","4.281000000000001","208.6","7.84","200.7","1015.4860000000001","30.88","67.99","581.6","0.0"],
    [1424230,"2026-08-07 15:40:00","317","3.199","201.3","5.978","211.4","1015.3560000000001","31.07","68.05","513.3","0.0"],
    [1424231,"2026-08-07 15:50:00","318","4.379","210.1","7.35","201","1015.237","31.02","67.85","522.7","0.0"],
    [1424232,"2026-08-07 16:00:00","319","4.207","207.3","8.72","217.5","1015.171","30.86","68.29","431.2","0.0"],
    [1424233,"2026-08-07 16:10:00","320","5.606","219.6","9.11","227","1015.17","30.25","70.57","369.1","0.0"],
    [1424234,"2026-08-07 16:20:00","321","3.362","204.7","6.174","203.5","1014.9960000000001","30.62","69.94","417.9","0.0"],
    [1424235,"2026-08-07 16:30:00","322","3.1889999999999996","198.2","6.272","225.9","1014.87","30.26","70.74","259.5","0.0"],
    [1424236,"2026-08-07 16:40:00","323","3.509","207.9","12.15","210.2","1014.7769999999999","30.2","71.11","262.9","0.0"],
    [1424237,"2026-08-07 16:50:00","324","3.738","208.3","6.762","219.5","1014.7339999999999","30.01","71.83","220.9","0.0"],
    [1424238,"2026-08-07 17:00:00","325","3.5580000000000003","213.4","6.468","219.6","1014.7389999999999","29.96","72.5","242.6","0.0"],
    [1424239,"2026-08-07 17:10:00","326","3.761","222.3","6.468","225.4","1014.903","29.67","73.64","189.8","0.0"],
    [1424240,"2026-08-07 17:20:00","327","3.32","216.5","6.958","206.6","1015.096","29.89","73.27","150.4","0.0"],
    [1424241,"2026-08-07 17:30:00","328","3.134","213.3","6.37","221.4","1015.2539999999999","29.64","74.14","135.9","0.0"],
    [1424242,"2026-08-07 17:40:00","329","3.157","217.0","5.586","221.8","1015.3910000000001","29.6","74.21","156.8","0.0"],
    [1424243,"2026-08-07 17:50:00","330","3.737","215.7","5.684","230.5","1015.559","29.73","73.21","136.2","0.0"],
    [1424244,"2026-08-07 18:00:00","331","3.09","215.5","5.488","203","1015.658","29.54","74.13","67.65","0.0"],
    [1424245,"2026-08-07 18:10:00","332","3.2439999999999998","215.6","6.174","197","1015.69","29.34","74.71","37.45","0.0"],
    [1424246,"2026-08-07 18:20:00","333","3.4219999999999997","216.9","5.88","199","1015.822","29.19","74.54","27.92","0.0"],
    [1424247,"2026-08-07 18:30:00","334","3.471","217.8","5.194","212.5","1016.0930000000001","29.27","73.62","37.63","0.0"],
    [1424248,"2026-08-07 18:40:00","335","1.755","219.7","3.332","209.5","1016.6289999999999","29.31","73.59","38.41","0.0"],
    [1424249,"2026-08-07 18:50:00","336","1.505","214.9","2.94","195.9","1016.637","29.27","73.81","21.96","0.0"],
    [1424250,"2026-08-07 19:00:00","337","1.639","216.6","3.234","173.8","1016.512","29.11","73.63","9.33","0.0"],
    [1424251,"2026-08-07 19:10:00","338","2.516","212.7","4.802","215.8","1016.033","29.12","73.91","2.349","0.0"],
    [1424252,"2026-08-07 19:20:00","339","2.859","215.2","5.684","245.9","1015.829","28.95","74.71","-0.528","0.0"],
    [1424253,"2026-08-07 19:30:00","340","1.626","199.4","3.92","210.1","1015.702","28.84","76.66","-2.2119999999999997","0.0"],
    [1424254,"2026-08-07 19:40:00","341","1.761","193.7","3.822","182","1015.632","28.64","78.16","-2.543","0.0"],
    [1424255,"2026-08-07 19:50:00","342","1.5490000000000002","208.4","3.724","195.9","1015.819","28.57","77.87","-2.546","0.0"],
    [1424256,"2026-08-07 20:00:00","343","2.841","214.0","5.194","199.3","1015.87","28.61","77.45","-2.545","0.0"],
    [1424257,"2026-08-07 20:10:00","344","2.7460000000000004","212.2","6.762","230.3","1015.64","28.64","76.42","-2.544","0.0"],
    [1424258,"2026-08-07 20:20:00","345","2.8169999999999997","217.8","6.468","221.2","1015.706","28.57","76.97","-2.559","0.0"],
    [1424259,"2026-08-07 20:30:00","346","3.358","215.7","5.096","201.5","1015.7460000000001","28.56","77.14","-2.557","0.0"],
    [1424260,"2026-08-07 20:40:00","347","1.379","224.7","4.214","217.7","1015.779","28.44","77.68","-2.5660000000000003","0.0"],
    [1424261,"2026-08-07 20:50:00","348","2.645","217.7","5.096","204.9","1015.622","28.36","78.29","-2.888","0.0"],
    [1424262,"2026-08-07 21:00:00","349","3.092","218.5","4.998","216.1","1015.455","28.47","78.12","-2.58","0.0"],
    [1424263,"2026-08-07 21:10:00","350","2.2","224.8","4.508","200.2","1015.3489999999999","28.44","77.3","-2.585","0.0"],
    [1424264,"2026-08-07 21:20:00","351","2.119","218.7","3.332","204.8","1015.257","28.28","78.14","-2.589","0.0"],
    [1424265,"2026-08-07 21:30:00","352","0.5920000000000001","294.6","1.47","267.9","1015.525","28.08","79.04","-2.6510000000000002","0.0"],
    [1424266,"2026-08-07 21:40:00","353","0.526","285.2","1.666","309.7","1015.461","27.81","79.9","-3.25","0.0"],
    [1424267,"2026-08-07 21:50:00","354","1.548","242.4","2.352","209.6","1015.3560000000001","27.81","79.03","-2.738","0.0"],
    [1424268,"2026-08-07 22:00:00","355","1.838","229.4","2.842","211.2","1015.22","27.94","78.83","-2.61","0.0"],
    [1424269,"2026-08-07 22:10:00","356","1.7719999999999998","229.8","2.94","210.5","1015.24","27.74","78.17","-2.593","0.0"],
    [1424270,"2026-08-07 22:20:00","357","2.887","227.2","4.214","220","1014.997","27.67","77.77","-2.591","0.0"],
    [1424271,"2026-08-07 22:30:00","358","2.2430000000000003","231.3","4.214","223.3","1015.09","27.47","79.33","-2.575","0.0"],
    [1424272,"2026-08-07 22:40:00","359","1.646","250.6","3.234","252.8","1015.2510000000001","27.35","78.23","-2.594","0.0"],
    [1424273,"2026-08-07 22:50:00","360","1.18","267.5","2.548","234.2","1015.3480000000001","27.47","77.0","-2.593","0.0"],
    [1424274,"2026-08-07 23:00:00","361","0.9359999999999999","282.4","1.764","290.2","1015.26","27.27","77.05","-2.593","0.0"],
    [1424275,"2026-08-07 23:10:00","362","0.631","303.6","1.274","314.5","1015.334","27.03","78.53","-2.593","0.0"],
    [1424276,"2026-08-07 23:20:00","363","0.701","354.2","1.666","328.5","1015.3480000000001","27.1","79.63","-2.625","0.0"],
    [1424277,"2026-08-07 23:30:00","364","0.478","248.0","1.372","244.8","1015.385","27.09","79.46","-2.8160000000000003","0.0"],
    [1424278,"2026-08-07 23:40:00","365","2.276","220.0","4.606","230.4","1015.278","27.53","80.5","-2.9210000000000003","0.0"],
    [1424279,"2026-08-07 23:50:00","366","1.9280000000000002","219.1","3.528","235.8","1015.345","27.72","79.89","-2.593","0.0"],
    [1424280,"2026-08-08 00:00:00","367","3.159","220.5","5.586","203.7","1015.334","27.71","80.1","-2.596","0.0"],
    [1424281,"2026-08-08 00:10:00","368","1.24","289.9","2.744","227.3","1015.4789999999999","27.49","78.82","-2.595","0.0"],
    [1424282,"2026-08-08 00:20:00","369","0.617","330.3","1.568","340.2","1015.541","27.05","78.76","-3.074","0.0"],
    [1424283,"2026-08-08 00:30:00","370","1.031","338.5","1.666","348.6","1015.472","26.91","78.91","-3.08","0.0"],
    [1424284,"2026-08-08 00:40:00","371","1.265","326.4","2.156","328.1","1015.5039999999999","27.04","78.69","-2.742","0.0"],
    [1424285,"2026-08-08 00:50:00","372","0.86","302.9","1.764","330.5","1015.5139999999999","27.03","77.54","-2.594","0.0"],
    [1424286,"2026-08-08 01:00:00","373","1.365","303.4","2.254","305.8","1015.539","26.58","76.71","-2.594","0.0"],
    [1424287,"2026-08-08 01:10:00","374","0.746","300.6","1.568","296.5","1015.508","25.97","74.12","-2.603","0.0"],
    [1424288,"2026-08-08 01:20:00","375","1.431","288.8","2.254","297.5","1015.4910000000001","25.68","71.87","-2.593","0.0"],
    [1424289,"2026-08-08 01:30:00","376","0.501","291.2","1.078","317.4","1015.404","25.68","69.43","-2.593","0.0"],
    [1424290,"2026-08-08 01:40:00","377","0.483","286.8","1.47","312.4","1015.284","25.86","68.5","-2.593","0.0"],
    [1424291,"2026-08-08 01:50:00","378","0.474","312.9","1.372","307.4","1015.159","25.63","69.66","-2.595","0.0"],
    [1424292,"2026-08-08 02:00:00","379","0.826","291.5","1.372","309.6","1015.072","25.65","70.44","-2.594","0.0"],
    [1424293,"2026-08-08 02:10:00","380","1.208","265.6","2.254","261.6","1015.056","25.75","70.25","-2.593","0.0"],
    [1424294,"2026-08-08 02:20:00","381","1.393","273.9","3.038","288.2","1015.0160000000001","25.57","70.16","-2.582","0.0"],
    [1424295,"2026-08-08 02:30:00","382","1.6159999999999999","266.0","3.234","293.6","1014.9780000000001","25.11","70.56","-2.593","0.0"],
    [1424296,"2026-08-08 02:40:00","383","1.077","258.6","2.254","293.8","1014.97","25.23","69.25","-2.5869999999999997","0.0"],
    [1424297,"2026-08-08 02:50:00","384","1.604","278.7","2.94","286.7","1014.857","25.15","69.03","-2.5789999999999997","0.0"],
    [1424298,"2026-08-08 03:00:00","385","1.5030000000000001","286.6","2.94","284","1014.7260000000001","25.03","69.24","-2.543","0.0"],
    [1424299,"2026-08-08 03:10:00","386","1.2819999999999998","285.6","2.646","271.1","1014.689","24.84","70.19","-2.5380000000000003","0.0"],
    [1424300,"2026-08-08 03:20:00","387","1.761","273.8","3.038","255.6","1014.668","24.79","71.33","-2.582","0.0"],
    [1424301,"2026-08-08 03:30:00","388","1.232","262.3","2.94","267.4","1014.61","25.0","71.74","-2.537","0.0"],
    [1424302,"2026-08-08 03:40:00","389","1.125","276.0","2.058","292.1","1014.669","25.1","71.5","-2.591","0.0"],
    [1424303,"2026-08-08 03:50:00","390","1.9080000000000001","269.9","3.038","274.9","1014.6519999999999","24.87","72.43","-2.592","0.0"],
    [1424304,"2026-08-08 04:00:00","391","1.37","278.2","2.842","270.1","1014.565","24.79","73.49","-2.54","0.0"],
    [1424305,"2026-08-08 04:10:00","392","1.181","282.5","2.352","267.8","1014.574","24.51","74.96","-2.594","0.0"],
    [1424306,"2026-08-08 04:20:00","393","1.206","289.8","2.352","259","1014.6139999999999","24.49","75.14","-2.5869999999999997","0.0"],
    [1424307,"2026-08-08 04:30:00","394","1.402","282.4","2.744","270.8","1014.59","24.36","74.61","-2.375","0.0"],
    [1424308,"2026-08-08 04:40:00","395","1.531","276.4","2.842","269.3","1014.693","24.12","73.06","-1.797","0.0"],
    [1424309,"2026-08-08 04:50:00","396","1.655","277.8","2.646","296.6","1014.801","24.01","70.57","-0.22","0.0"],
    [1424310,"2026-08-08 05:00:00","397","1.53","275.4","2.842","273.8","1014.8739999999999","23.88","70.09","3.0810000000000004","0.0"],
    [1424311,"2026-08-08 05:10:00","398","1.429","276.3","3.234","284.4","1015.067","23.94","69.05","10.23","0.0"],
    [1424312,"2026-08-08 05:20:00","399","1.704","296.7","2.842","304.2","1015.095","24.12","67.39","24.38","0.0"],
    [1424313,"2026-08-08 05:30:00","400","1.724","293.0","3.43","296.7","1015.127","24.57","65.28","42.29","0.0"],
    [1424314,"2026-08-08 05:40:00","401","1.3869999999999998","295.7","2.842","320.5","1015.215","24.82","64.56","62.16","0.0"],
    [1424315,"2026-08-08 05:50:00","402","1.831","300.7","3.038","289.5","1015.307","25.11","63.38","85.6","0.0"],
    [1424316,"2026-08-08 06:00:00","403","1.984","296.5","3.43","305.1","1015.3560000000001","25.41","62.19","110.6","0.0"],
    [1424317,"2026-08-08 06:10:00","404","2.053","301.5","3.724","327.5","1015.321","25.75","60.7","138.3","0.0"],
    [1424318,"2026-08-08 06:20:00","405","2.354","301.7","3.92","305.2","1015.304","26.02","59.54","166.6","0.0"],
    [1424319,"2026-08-08 06:30:00","406","1.705","301.2","3.136","310.8","1015.331","26.31","58.51","196.4","0.0"],
    [1424320,"2026-08-08 06:40:00","407","1.653","304.9","2.744","314","1015.3380000000001","26.94","57.44","226.0","0.0"],
    [1424321,"2026-08-08 06:50:00","408","1.7480000000000002","300.7","2.94","309.6","1015.4630000000001","27.34","56.68","255.0","0.0"],
    [1424322,"2026-08-08 07:00:00","409","1.96","291.7","2.842","309.6","1015.6260000000001","27.44","56.37","283.9","0.0"],
    [1424323,"2026-08-08 07:10:00","410","1.5919999999999999","293.1","2.548","305.5","1015.696","27.7","56.53","313.2","0.0"],
    [1424324,"2026-08-08 07:20:00","411","1.49","293.7","2.45","285.1","1015.7810000000001","28.07","56.12","343.1","0.0"],
    [1424325,"2026-08-08 07:30:00","412","1.146","299.7","1.96","314.5","1015.789","28.59","55.38","376.5","0.0"],
    [1424326,"2026-08-08 07:40:00","413","0.9470000000000001","278.5","1.862","307.2","1015.8389999999999","28.94","54.57","404.6","0.0"],
    [1424327,"2026-08-08 07:50:00","414","0.77","6.197","2.058","5.476","1015.926","29.77","55.97","431.4","0.0"],
    [1424328,"2026-08-08 08:00:00","415","0.139","177.5","0.784","153.9","1015.9780000000001","30.1","57.78","462.6","0.0"],
    [1424329,"2026-08-08 08:10:00","416","0.08800000000000001","208.0","0.686","193.4","1016.043","30.43","60.09","492.9","0.0"],
    [1424330,"2026-08-08 08:20:00","417","1.169","84.5","3.43","81.9","1016.1","30.94","56.73","501.2","0.0"],
    [1424331,"2026-08-08 08:30:00","418","2.3040000000000003","95.4","3.626","91.1","1016.0889999999999","30.16","59.61","561.7","0.0"],
    [1424332,"2026-08-08 08:40:00","419","1.95","89.1","3.92","89","1016.1010000000001","30.1","62.02","570.6","0.0"],
    [1424333,"2026-08-08 08:50:00","420","2.021","92.9","3.626","90.4","1016.1160000000001","30.24","62.2","624.8","0.0"],
    [1424334,"2026-08-08 09:00:00","421","1.476","101.0","3.626","136.6","1016.202","30.66","62.92","652.1","0.0"],
    [1424335,"2026-08-08 09:10:00","422","1.751","103.9","3.43","109.1","1016.283","30.58","63.84","678.6","0.0"],
    [1424336,"2026-08-08 09:20:00","423","1.953","91.8","3.724","77.07","1016.2819999999999","30.36","67.03","702.2","0.0"],
    [1424337,"2026-08-08 09:30:00","424","2.803","84.8","4.998","110.5","1016.31","30.12","68.94","727.5","0.0"],
    [1424338,"2026-08-08 09:40:00","425","3.11","89.4","4.606","93.2","1016.324","29.93","69.75","751.6","0.0"],
    [1424339,"2026-08-08 09:50:00","426","3.364","90.0","5.88","95.8","1016.275","30.08","69.93","772.4","0.0"],
    [1424340,"2026-08-08 10:00:00","427","3.199","85.8","4.998","85.3","1016.2669999999999","30.18","70.38","792.5","0.0"],
    [1424341,"2026-08-08 10:10:00","428","3.647","89.9","5.488","81.5","1016.252","29.9","71.57","811.0","0.0"],
    [1424342,"2026-08-08 10:20:00","429","3.6189999999999998","93.5","7.154","68.39","1016.336","29.95","71.78","825.0","0.0"],
    [1424343,"2026-08-08 10:30:00","430","3.6319999999999997","90.9","6.86","98.1","1016.3439999999999","30.01","71.48","840.0","0.0"],
    [1424344,"2026-08-08 10:40:00","431","3.648","93.9","6.566","86.3","1016.332","30.0","67.1","857.0","0.0"],
    [1424345,"2026-08-08 10:50:00","432","3.5380000000000003","87.9","5.096","78.72","1016.312","30.37","65.52","868.0","0.0"],
    [1424346,"2026-08-08 11:00:00","433","3.779","81.5","5.782","83.5","1016.288","30.34","64.63","878.0","0.0"],
    [1424347,"2026-08-08 11:10:00","434","3.569","85.7","5.586","78.72","1016.28","30.31","64.92","887.0","0.0"],
    [1424348,"2026-08-08 11:20:00","435","3.1310000000000002","96.4","5.292","85.3","1016.2360000000001","30.43","64.86","896.0","0.0"],
    [1424349,"2026-08-08 11:30:00","436","2.352","96.5","4.802","97.7","1016.227","30.89","63.75","903.0","0.0"],
    [1424350,"2026-08-08 11:40:00","437","2.28","102.0","4.508","83","1016.195","31.13","63.45","907.0","0.0"],
    [1424351,"2026-08-08 11:50:00","438","2.271","108.4","4.312","124.1","1016.181","31.03","64.68","910.0","0.0"],
    [1424352,"2026-08-08 12:00:00","439","3.515","94.9","5.292","100.4","1016.1619999999999","30.23","67.82","913.0","0.0"],
    [1424353,"2026-08-08 12:10:00","440","3.279","98.8","5.096","102.5","1016.0880000000001","30.36","67.64","911.0","0.0"],
    [1424354,"2026-08-08 12:20:00","441","3.58","99.2","6.566","130.8","1015.97","30.66","66.79","907.0","0.0"],
    [1424355,"2026-08-08 12:30:00","442","2.736","104.0","4.9","105.4","1015.9010000000001","30.58","67.57","905.0","0.0"],
    [1424356,"2026-08-08 12:40:00","443","2.753","103.2","5.292","90.3","1015.8839999999999","30.81","67.12","899.0","0.0"],
    [1424357,"2026-08-08 12:50:00","444","2.062","116.5","4.508","140.1","1015.8589999999999","31.14","66.17","888.0","0.0"],
    [1424358,"2026-08-08 13:00:00","445","2.804","110.2","5.096","110.2","1015.82","31.04","66.29","879.0","0.0"],
    [1424359,"2026-08-08 13:10:00","446","1.983","143.1","4.704","206.7","1015.7260000000001","31.08","65.61","866.0","0.0"],
    [1424360,"2026-08-08 13:20:00","447","1.962","142.7","4.704","155.5","1015.6469999999999","31.58","65.25","848.0","0.0"],
    [1424361,"2026-08-08 13:30:00","448","1.706","150.1","5.292","157.7","1015.6039999999999","31.09","66.54","837.0","0.0"],
    [1424362,"2026-08-08 13:40:00","449","1.8719999999999999","159.7","5.194","189.8","1015.523","30.98","66.97","822.0","0.0"],
    [1424363,"2026-08-08 13:50:00","450","1.621","152.8","4.9","190.4","1015.355","31.49","65.94","803.0","0.0"],
    [1424364,"2026-08-08 14:00:00","451","2.12","144.0","5.096","101.1","1015.216","31.3","66.56","783.5","0.0"],
    [1424365,"2026-08-08 14:10:00","452","2.5540000000000003","108.1","5.39","111.1","1015.054","31.01","66.56","771.6","0.0"],
    [1424366,"2026-08-08 14:20:00","453","2.549","110.5","4.704","114.7","1014.877","30.73","66.79","755.0","0.0"],
    [1424367,"2026-08-08 14:30:00","454","2.3169999999999997","111.8","5.488","108.9","1014.8510000000001","31.13","65.59","732.3","0.0"],
    [1424368,"2026-08-08 14:40:00","455","2.121","119.4","4.312","133.1","1014.814","31.14","66.28","706.3","0.0"],
    [1424369,"2026-08-08 14:50:00","456","2.4859999999999998","162.7","4.998","168.6","1014.797","30.94","66.6","684.4","0.0"],
    [1424370,"2026-08-08 15:00:00","457","2.339","187.2","4.998","164.5","1014.7739999999999","31.52","64.24","661.0","0.0"],
    [1424371,"2026-08-08 15:10:00","458","2.081","182.9","4.312","223.1","1014.7689999999999","31.28","66.6","636.7","0.0"],
    [1424372,"2026-08-08 15:20:00","459","2.932","174.8","5.488","167.8","1014.6080000000001","30.92","67.42","612.5","0.0"],
    [1424373,"2026-08-08 15:30:00","460","3.075","187.3","4.998","181.5","1014.403","30.83","67.91","586.2","0.0"],
    [1424374,"2026-08-08 15:40:00","461","1.976","191.3","4.116","152.6","1014.268","31.2","67.1","559.1","0.0"],
    [1424375,"2026-08-08 15:50:00","462","1.238","165.3","4.214","199.8","1014.2719999999999","31.26","67.04","529.4","0.0"],
    [1424376,"2026-08-08 16:00:00","463","1.455","173.8","3.822","177.4","1014.5260000000001","31.4","67.95","478.4","0.0"],
    [1424377,"2026-08-08 16:10:00","464","2.1719999999999997","188.1","4.508","184.2","1014.7510000000001","31.02","69.3","464.0","0.0"],
    [1424378,"2026-08-08 16:20:00","465","2.303","175.2","4.508","185.2","1014.7289999999999","30.67","70.56","409.9","0.0"],
    [1424379,"2026-08-08 16:30:00","466","2.464","185.6","5.096","172.8","1014.6260000000001","30.72","70.71","414.3","0.0"],
    [1424380,"2026-08-08 16:40:00","467","2.6919999999999997","178.3","4.508","187.3","1014.4760000000001","30.24","72.12","293.5","0.0"],
    [1424381,"2026-08-08 16:50:00","468","2.14","200.3","4.606","234.8","1014.561","30.21","72.74","198.4","0.0"],
    [1424382,"2026-08-08 17:00:00","469","2.332","193.6","4.704","164.1","1014.607","30.09","73.52","221.7","0.0"],
    [1424383,"2026-08-08 17:10:00","470","2.398","185.0","4.606","184.2","1014.534","30.11","73.28","190.0","0.0"],
    [1424384,"2026-08-08 17:20:00","471","2.9760000000000004","185.6","6.958","200.3","1014.4169999999999","29.94","72.05","151.7","0.0"],
    [1424385,"2026-08-08 17:30:00","472","2.447","184.4","4.508","179.7","1014.312","29.79","72.2","110.2","0.0"],
    [1424386,"2026-08-08 17:40:00","473","2.694","173.8","5.39","158.8","1014.211","29.52","73.43","64.76","0.0"],
    [1424387,"2026-08-08 17:50:00","474","1.5430000000000001","175.3","3.234","194.8","1014.143","29.35","74.34","48.56","0.0"],
    [1424388,"2026-08-08 18:00:00","475","1.9880000000000002","179.3","4.116","144.4","1014.16","29.24","75.33","46.45","0.0"],
    [1424389,"2026-08-08 18:10:00","476","2.535","207.7","4.704","220.8","1014.275","29.33","75.76","51.87","0.0"],
    [1424390,"2026-08-08 18:20:00","477","2.072","215.7","4.214","231","1014.323","29.27","76.39","49.29","0.0"],
    [1424391,"2026-08-08 18:30:00","478","2.371","212.5","3.724","214.2","1014.4989999999999","29.22","76.62","39.15","0.0"],
    [1424392,"2026-08-08 18:40:00","479","2.2880000000000003","213.2","4.41","193.1","1014.8","29.14","77.03","26.21","0.0"],
    [1424393,"2026-08-08 18:50:00","480","2.049","216.3","3.332","221.1","1015.067","29.13","76.44","11.02","0.0"],
    [1424394,"2026-08-08 19:00:00","481","2.116","196.7","4.704","192","1015.057","29.19","75.19","2.7430000000000003","0.0"],
    [1424395,"2026-08-08 19:10:00","482","1.4880000000000002","203.8","3.822","213.6","1015.137","29.03","75.84","-0.659","0.0"],
    [1424396,"2026-08-08 19:20:00","483","1.683","202.2","5.978","255.4","1015.11","28.91","75.67","-2.345","0.0"],
    [1424397,"2026-08-08 19:30:00","484","1.518","209.2","3.038","199","1015.0269999999999","28.91","75.57","-2.55","0.0"],
    [1424398,"2026-08-08 19:40:00","485","1.281","197.7","4.508","163.4","1014.961","28.85","76.28","-2.546","0.0"],
    [1424399,"2026-08-08 19:50:00","486","1.4269999999999998","186.9","2.352","189.1","1014.88","28.79","76.82","-2.5469999999999997","0.0"],
    [1424400,"2026-08-08 20:00:00","487","1.527","213.3","3.724","233.4","1015.04","28.75","77.34","-2.548","0.0"],
    [1424401,"2026-08-08 20:10:00","488","1.5330000000000001","215.6","2.548","232.9","1015.192","28.74","77.79","-2.5580000000000003","0.0"],
    [1424402,"2026-08-08 20:20:00","489","2.251","201.8","3.626","168.4","1015.3639999999999","28.72","78.01","-2.552","0.0"],
    [1424403,"2026-08-08 20:30:00","490","1.963","202.7","4.116","148.8","1015.342","28.69","77.62","-2.523","0.0"],
    [1424404,"2026-08-08 20:40:00","491","2.611","213.9","4.998","239.5","1015.243","28.64","76.9","-2.545","0.0"],
    [1424405,"2026-08-08 20:50:00","492","2.562","215.6","4.9","227","1015.186","28.66","76.92","-2.5","0.0"],
    [1424406,"2026-08-08 21:00:00","493","2.6510000000000002","218.1","5.978","203.7","1015.2760000000001","28.66","77.11","-2.497","0.0"],
    [1424407,"2026-08-08 21:10:00","494","1.827","223.6","3.234","215.8","1015.2410000000001","28.59","76.65","-2.5660000000000003","0.0"],
    [1424408,"2026-08-08 21:20:00","495","0.9359999999999999","221.5","1.666","211.6","1015.38","28.34","77.53","-2.576","0.0"],
    [1424409,"2026-08-08 21:30:00","496","1.251","227.0","2.45","220.9","1015.3439999999999","28.28","77.82","-2.577","0.0"],
    [1424410,"2026-08-08 21:40:00","497","1.3869999999999998","230.0","2.548","240.2","1015.33","28.21","77.82","-2.577","0.0"],
    [1424411,"2026-08-08 21:50:00","498","0.892","250.4","2.058","220","1015.3969999999999","28.1","78.0","-2.583","0.0"],
    [1424412,"2026-08-08 22:00:00","499","1.365","275.6","2.156","257.3","1015.5160000000001","27.9","78.83","-2.5860000000000003","0.0"],
    [1424413,"2026-08-08 22:10:00","500","1.507","228.9","2.45","231.1","1015.3389999999999","27.97","78.57","-2.565","0.0"],
    [1424414,"2026-08-08 22:20:00","501","1.901","230.4","2.94","217.8","1015.37","28.13","77.68","-2.54","0.0"],
    [1424415,"2026-08-08 22:30:00","502","1.252","230.2","2.254","204.9","1015.42","28.04","77.92","-2.437","0.0"],
    [1424416,"2026-08-08 22:40:00","503","1.178","212.4","2.352","231.8","1015.3919999999999","28.01","77.95","-2.5869999999999997","0.0"],
    [1424417,"2026-08-08 22:50:00","504","1.766","220.5","2.744","232.9","1015.5319999999999","27.98","77.77","-2.5860000000000003","0.0"],
    [1424418,"2026-08-08 23:00:00","505","2.213","224.6","3.136","222.2","1015.596","28.04","77.49","-2.186","0.0"],
    [1424419,"2026-08-08 23:10:00","506","1.6869999999999998","216.9","2.646","204.4","1015.4639999999999","28.14","77.8","-2.146","0.0"],
    [1424420,"2026-08-08 23:20:00","507","1.6119999999999999","213.5","2.842","203.3","1015.375","28.07","78.57","-2.443","0.0"],
    [1424421,"2026-08-08 23:30:00","508","1.7619999999999998","216.9","2.744","215.5","1015.23","28.0","79.23","-2.555","0.0"],
    [1424422,"2026-08-08 23:40:00","509","1.368","224.8","2.058","218.5","1015.14","27.89","79.86","-2.592","0.0"],
    [1424423,"2026-08-08 23:50:00","510","1.2229999999999999","218.6","2.156","227.5","1015.067","27.81","80.5","-2.592","0.0"],
    [1424424,"2026-08-09 00:00:00","511","0.919","203.3","1.96","223.5","1014.932","27.82","80.7","-2.592","0.0"],
    [1424425,"2026-08-09 00:10:00","512","1.3330000000000002","220.8","2.352","223.1","1014.811","27.8","80.9","-2.592","0.0"],
    [1424426,"2026-08-09 00:20:00","513","1.3159999999999998","223.8","2.254","226.4","1014.794","27.74","81.1","-2.593","0.0"],
    [1424427,"2026-08-09 00:30:00","514","1.371","228.9","2.352","246","1014.802","27.67","81.2","-2.5989999999999998","0.0"],
    [1424428,"2026-08-09 00:40:00","515","1.526","227.8","2.548","230.7","1014.885","27.66","81.3","-2.593","0.0"],
    [1424429,"2026-08-09 00:50:00","516","2.188","279.5","3.528","283.6","1015.054","27.37","81.0","-2.309","0.0"],
    [1424430,"2026-08-09 01:00:00","517","1.685","282.2","3.332","287.8","1014.975","26.69","80.7","-2.396","0.0"],
    [1424431,"2026-08-09 01:10:00","518","1.805","313.1","4.018","307.8","1014.8560000000001","26.53","79.96","-2.593","0.0"],
    [1424432,"2026-08-09 01:20:00","519","0.9620000000000001","302.9","2.058","340.2","1014.6060000000001","26.73","78.88","-2.593","0.0"],
    [1424433,"2026-08-09 01:30:00","520","0.669","270.7","1.666","265.1","1014.3969999999999","26.71","78.74","-2.593","0.0"],
    [1424434,"2026-08-09 01:40:00","521","0.93","252.1","1.764","268.9","1014.3430000000001","26.69","78.25","-2.593","0.0"],
    [1424435,"2026-08-09 01:50:00","522","0.45299999999999996","254.9","1.274","238.7","1014.186","26.64","78.21","-2.593","0.0"],
    [1424436,"2026-08-09 02:00:00","523","0.6559999999999999","250.2","1.372","227.2","1014.172","26.38","79.22","-2.593","0.0"],
    [1424437,"2026-08-09 02:10:00","524","0.48100000000000004","274.6","1.274","261.6","1014.176","26.31","79.75","-2.589","0.0"],
    [1424438,"2026-08-09 02:20:00","525","0.977","254.1","1.47","262.6","1014.166","26.36","79.87","-2.525","0.0"],
    [1424439,"2026-08-09 02:30:00","526","0.711","264.7","1.372","262.4","1014.185","26.47","79.41","-1.935","0.0"],
    [1424440,"2026-08-09 02:40:00","527","1.092","254.6","1.862","245.2","1014.209","26.58","79.31","-2.1830000000000003","0.0"],
    [1424441,"2026-08-09 02:50:00","528","1.125","235.9","1.96","245.4","1014.306","26.93","77.77","-1.85","0.0"],
    [1424442,"2026-08-09 03:00:00","529","0.7170000000000001","251.5","1.568","271.4","1014.319","27.02","77.24","-1.8419999999999999","0.0"],
    [1424443,"2026-08-09 03:10:00","530","1.094","276.0","2.058","279.4","1014.337","26.77","78.31","-1.848","0.0"],
    [1424444,"2026-08-09 03:20:00","531","1.7109999999999999","280.8","4.704","284.5","1014.675","26.37","79.83","-2.176","0.0"],
    [1424445,"2026-08-09 03:30:00","532","2.552","288.6","5.586","301","1014.9010000000001","26.28","80.2","-2.201","0.0"],
    [1424446,"2026-08-09 03:40:00","533","1.09","292.0","2.254","282.2","1014.706","26.12","80.4","-2.591","0.0"],
    [1424447,"2026-08-09 03:50:00","534","2.339","299.7","4.606","272.6","1014.7389999999999","26.1","80.9","-2.311","0.0"],
    [1424448,"2026-08-09 04:00:00","535","2.428","306.3","5.292","309.7","1014.682","26.52","75.95","-1.817","0.0"],
    [1424449,"2026-08-09 04:10:00","536","2.5340000000000003","313.6","4.312","316.2","1014.5989999999999","26.72","69.06","-1.86","0.0"],
    [1424450,"2026-08-09 04:20:00","537","2.224","312.4","4.018","318.4","1014.544","27.01","62.82","-1.88","0.0"],
    [1424451,"2026-08-09 04:30:00","538","1.291","322.3","2.156","320.1","1014.46","27.08","60.85","-1.875","0.0"],
    [1424452,"2026-08-09 04:40:00","539","0.836","42.33","1.764","346.2","1014.252","27.09","60.97","-1.805","0.0"],
    [1424453,"2026-08-09 04:50:00","540","0.9490000000000001","64.13","3.136","292.2","1014.079","27.14","62.13","0.409","0.0"],
    [1424454,"2026-08-09 05:00:00","541","1.641","315.8","2.842","289.9","1014.205","26.57","64.93","6.524","0.0"],
    [1424455,"2026-08-09 05:10:00","542","1.7790000000000001","277.2","3.43","335.8","1014.188","26.98","64.21","14.89","0.0"],
    [1424456,"2026-08-09 05:20:00","543","0.654","306.2","1.96","339.4","1014.2330000000001","26.71","65.69","32.01","0.0"],
    [1424457,"2026-08-09 05:30:00","544","0.38799999999999996","289.8","1.274","310.3","1014.2769999999999","26.84","66.65","54.22","0.0"],
    [1424458,"2026-08-09 05:40:00","545","0.15","228.0","0.588","248.9","1014.185","27.01","66.75","68.88","0.0"],
    [1424459,"2026-08-09 05:50:00","546","0.43200000000000005","114.4","2.352","86.9","1014.215","27.16","66.64","82.8","0.0"],
    [1424460,"2026-08-09 06:00:00","547","0.971","107.5","3.136","107.1","1014.196","27.76","66.46","100.1","0.0"],
    [1424461,"2026-08-09 06:10:00","548","1.376","100.3","2.45","85.5","1014.22","28.34","66.78","143.3","0.0"],
    [1424462,"2026-08-09 06:20:00","549","1.65","95.6","3.038","97.8","1014.306","28.69","67.28","164.6","0.0"],
    [1424463,"2026-08-09 06:30:00","550","2.039","89.5","3.822","51.22","1014.422","28.83","67.78","194.3","0.0"],
    [1424464,"2026-08-09 06:40:00","551","1.7619999999999998","85.6","3.626","114.3","1014.53","28.96","69.23","229.9","0.0"],
    [1424465,"2026-08-09 06:50:00","552","0.807","68.94","3.528","139.8","1014.693","29.0","70.02","259.2","0.0"],
    [1424466,"2026-08-09 07:00:00","553","0.955","106.7","2.156","91.2","1014.673","29.32","69.25","241.5","0.0"],
    [1424467,"2026-08-09 07:10:00","554","1.085","137.9","3.626","163.9","1014.705","29.41","69.3","332.7","0.0"],
    [1424468,"2026-08-09 07:20:00","555","0.9620000000000001","126.7","2.646","138.7","1014.7710000000001","29.56","68.74","301.9","0.0"],
    [1424469,"2026-08-09 07:30:00","556","1.036","189.1","3.038","192.4","1014.8969999999999","29.57","70.06","254.5","0.0"],
    [1424470,"2026-08-09 07:40:00","557","1.063","178.3","2.744","189.8","1014.9630000000001","29.81","71.37","408.6","0.0"],
    [1424471,"2026-08-09 07:50:00","558","1.307","209.3","2.842","216.3","1015.0319999999999","29.81","71.53","334.4","0.0"],
    [1424472,"2026-08-09 08:00:00","559","1.104","233.1","3.038","238","1015.091","29.85","72.1","433.7","0.0"],
    [1424473,"2026-08-09 08:10:00","560","1.36","183.8","2.842","178.8","1015.034","30.35","68.73","517.0","0.0"],
    [1424474,"2026-08-09 08:20:00","561","0.986","149.4","2.156","168.1","1015.076","30.7","65.82","459.4","0.0"],
    [1424475,"2026-08-09 08:30:00","562","1.435","209.1","2.94","221.3","1015.2510000000001","31.24","63.59","563.6","0.0"],
    [1424476,"2026-08-09 08:40:00","563","2.187","205.4","3.92","179.3","1015.2","31.42","59.95","553.9","0.0"],
    [1424477,"2026-08-09 08:50:00","564","1.227","216.4","3.724","213.3","1015.195","31.97","57.11","615.4","0.0"],
    [1424478,"2026-08-09 09:00:00","565","1.8359999999999999","177.3","5.39","185.8","1015.125","32.25","53.78","651.9","0.0"],
    [1424479,"2026-08-09 09:10:00","566","2.364","179.6","5.88","180.1","1015.201","31.95","54.11","679.7","0.0"],
    [1424480,"2026-08-09 09:20:00","567","2.369","185.3","5.096","197.7","1015.221","32.04","51.07","707.3","0.0"],
    [1424481,"2026-08-09 09:30:00","568","1.5819999999999999","180.6","3.038","214","1015.225","32.67","49.97","740.4","0.0"],
    [1424482,"2026-08-09 09:40:00","569","1.7480000000000002","189.2","3.136","211.3","1015.203","32.42","50.86","339.1","0.0"],
    [1424483,"2026-08-09 09:50:00","570","1.8530000000000002","173.8","3.626","168.9","1015.227","31.16","56.59","452.5","0.0"],
    [1424484,"2026-08-09 10:00:00","571","1.749","172.8","3.724","175.5","1015.179","31.61","56.22","796.8","0.0"],
    [1424485,"2026-08-09 10:10:00","572","1.4780000000000002","168.5","3.43","146.9","1015.202","31.92","52.25","812.0","0.0"],
    [1424486,"2026-08-09 10:20:00","573","1.5330000000000001","174.0","2.94","163.6","1015.177","32.29","50.0","828.0","0.0"],
    [1424487,"2026-08-09 10:30:00","574","1.649","175.6","3.136","182.8","1015.102","32.58","48.89","843.0","0.0"],
    [1424488,"2026-08-09 10:40:00","575","1.7","167.4","3.822","90","1015.075","32.86","49.1","855.0","0.0"],
    [1424489,"2026-08-09 10:50:00","576","1.651","165.3","3.724","172.3","1015.068","32.83","48.0","865.0","0.0"],
    [1424490,"2026-08-09 11:00:00","577","1.27","168.1","2.646","223.6","1015.074","33.08","50.22","878.0","0.0"],
    [1424491,"2026-08-09 11:10:00","578","1.048","151.4","3.136","148.6","1015.1089999999999","33.12","49.21","884.0","0.0"],
    [1424492,"2026-08-09 11:20:00","579","1.104","125.8","3.528","115.3","1015.072","33.83","46.65","889.0","0.0"],
    [1424493,"2026-08-09 11:30:00","580","1.248","130.8","3.528","156.3","1015.038","33.87","46.27","896.0","0.0"],
    [1424494,"2026-08-09 11:40:00","581","1.4609999999999999","176.7","4.018","161.4","1015.035","33.73","43.43","903.0","0.0"],
    [1424495,"2026-08-09 11:50:00","582","2.665","208.5","4.704","223.4","1014.9910000000001","33.67","38.13","911.0","0.0"],
    [1424496,"2026-08-09 12:00:00","583","2.436","197.4","4.998","233.5","1014.985","33.55","41.92","909.0","0.0"],
    [1424497,"2026-08-09 12:10:00","584","2.311","202.8","4.998","221.3","1014.96","33.71","43.07","911.0","0.0"],
    [1424498,"2026-08-09 12:20:00","585","2.416","205.4","4.41","224.6","1014.903","33.5","45.74","912.0","0.0"],
    [1424499,"2026-08-09 12:30:00","586","2.591","179.6","4.41","210.7","1014.893","33.05","47.53","911.0","0.0"],
    [1424500,"2026-08-09 12:40:00","587","2.7","178.5","4.9","188.5","1014.824","32.61","50.68","908.0","0.0"],
    [1424501,"2026-08-09 12:50:00","588","2.551","192.8","4.41","169.7","1014.765","32.79","52.93","908.0","0.0"],
    [1424502,"2026-08-09 13:00:00","589","2.8160000000000003","189.6","4.606","182.2","1014.709","32.6","53.1","628.5","0.0"],
    [1424503,"2026-08-09 13:10:00","590","3.053","184.6","5.096","179.1","1014.6189999999999","32.45","54.16","898.0","0.0"],
    [1424504,"2026-08-09 13:20:00","591","2.76","189.4","4.9","171.5","1014.5319999999999","32.89","55.13","881.0","0.0"],
    [1424505,"2026-08-09 13:30:00","592","3.298","178.2","5.39","165.2","1014.454","32.42","57.32","823.0","0.0"],
    [1424506,"2026-08-09 13:40:00","593","3.221","178.5","6.468","172.1","1014.4119999999999","31.84","59.61","542.5","0.0"],
    [1424507,"2026-08-09 13:50:00","594","2.997","172.6","4.9","241.8","1014.289","32.03","57.71","864.0","0.0"],
    [1424508,"2026-08-09 14:00:00","595","3.0239999999999996","173.8","5.88","168.2","1014.247","32.6","56.94","839.0","0.0"],
    [1424509,"2026-08-09 14:10:00","596","3.444","177.3","5.488","161","1014.128","32.25","57.37","849.0","0.0"],
    [1424510,"2026-08-09 14:20:00","597","3.552","169.1","5.88","184.6","1014.062","31.86","61.33","808.0","0.0"],
    [1424511,"2026-08-09 14:30:00","598","3.761","183.5","6.272","179.1","1013.9910000000001","32.02","58.93","757.6","0.0"],
    [1424512,"2026-08-09 14:40:00","599","3.108","178.7","5.978","166.9","1013.997","32.48","56.47","736.3","0.0"],
    [1424513,"2026-08-09 14:50:00","600","2.6860000000000004","172.4","5.39","161.5","1013.835","32.16","58.71","702.0","0.0"],
    [1424514,"2026-08-09 15:00:00","601","2.68","186.4","5.782","184.4","1013.775","32.51","59.91","671.8","0.0"],
    [1424515,"2026-08-09 15:10:00","602","2.495","196.7","4.704","221.5","1013.687","32.68","60.24","646.7","0.0"],
    [1424516,"2026-08-09 15:20:00","603","2.727","210.4","4.704","208.7","1013.686","32.43","61.2","616.9","0.0"],
    [1424517,"2026-08-09 15:30:00","604","2.096","197.2","5.096","183.5","1013.628","32.0","63.23","584.9","0.0"],
    [1424518,"2026-08-09 15:40:00","605","2.637","199.8","5.782","208","1013.61","31.96","62.97","554.7","0.0"],
    [1424519,"2026-08-09 15:50:00","606","1.936","186.1","4.802","184.8","1013.5189999999999","32.12","64.0","525.5","0.0"],
    [1424520,"2026-08-09 16:00:00","607","2.48","190.7","4.116","137.5","1013.4830000000001","31.93","63.12","472.1","0.0"],
    [1424521,"2026-08-09 16:10:00","608","2.541","174.2","4.312","179.3","1013.578","31.45","63.74","464.3","0.0"],
    [1424522,"2026-08-09 16:20:00","609","2.387","189.8","4.312","207.6","1013.63","31.53","63.44","412.0","0.0"],
    [1424523,"2026-08-09 16:30:00","610","2.162","182.8","4.41","174.6","1013.6560000000001","31.5","63.18","417.9","0.0"],
    [1424524,"2026-08-09 16:40:00","611","1.969","181.8","4.116","171.7","1013.6610000000001","31.67","63.0","386.9","0.0"],
    [1424525,"2026-08-09 16:50:00","612","2.074","182.6","3.626","170.3","1013.676","31.66","62.76","340.1","0.0"],
    [1424526,"2026-08-09 17:00:00","613","2.13","167.9","6.566","188.7","1013.6389999999999","31.08","66.02","306.7","0.0"],
    [1424527,"2026-08-09 17:10:00","614","2.261","190.0","4.116","233","1013.571","31.14","64.73","272.9","0.0"],
    [1424528,"2026-08-09 17:20:00","615","2.369","199.7","4.508","235.4","1013.564","31.17","64.81","236.8","0.0"],
    [1424529,"2026-08-09 17:30:00","616","2.5069999999999997","182.0","5.194","179.1","1013.563","31.0","66.31","208.3","0.0"],
    [1424530,"2026-08-09 17:40:00","617","2.457","190.8","4.704","176.4","1013.529","30.72","67.81","177.8","0.0"],
    [1424531,"2026-08-09 17:50:00","618","1.6640000000000001","191.8","4.018","223.9","1013.495","30.67","69.31","135.7","0.0"],
    [1424532,"2026-08-09 18:00:00","619","2.134","211.1","4.998","211.5","1013.5089999999999","30.29","70.64","79.98","0.0"],
    [1424533,"2026-08-09 18:10:00","620","2.34","203.7","4.214","180.3","1013.562","30.28","71.46","88.2","0.0"],
    [1424534,"2026-08-09 18:20:00","621","2.227","201.9","5.684","194.5","1013.573","30.01","72.58","55.15","0.0"],
    [1424535,"2026-08-09 18:30:00","622","2.2569999999999997","189.7","4.41","171.5","1013.45","29.84","73.18","16.63","0.0"],
    [1424536,"2026-08-09 18:40:00","623","2.0","204.7","4.606","230.8","1013.544","29.74","73.44","8.17","0.0"],
    [1424537,"2026-08-09 18:50:00","624","1.679","191.9","3.822","145.8","1013.472","29.67","73.64","4.104","0.0"],
    [1424538,"2026-08-09 19:00:00","625","2.354","182.0","3.92","187.3","1013.325","29.59","74.14","1.035","0.0"],
    [1424539,"2026-08-09 19:10:00","626","1.97","183.6","3.724","213.4","1013.255","29.54","74.59","-1.2770000000000001","0.0"],
    [1424540,"2026-08-09 19:20:00","627","1.746","196.1","3.43","179.1","1013.153","29.43","74.78","-2.4290000000000003","0.0"],
    [1424541,"2026-08-09 19:30:00","628","1.943","187.4","3.332","179.9","1013.0939999999999","29.41","73.91","-2.5860000000000003","0.0"],
    [1424542,"2026-08-09 19:40:00","629","1.694","195.0","3.234","180.9","1013.2919999999999","29.43","73.1","-2.764","0.0"],
    [1424543,"2026-08-09 19:50:00","630","1.3319999999999999","203.0","3.038","173.8","1013.5139999999999","29.38","73.17","-2.747","0.0"],
    [1424544,"2026-08-09 20:00:00","631","1.5419999999999998","215.2","3.43","222.1","1013.628","29.29","73.15","-3.0610000000000004","0.0"],
    [1424545,"2026-08-09 20:10:00","632","1.464","219.7","3.92","218.8","1013.8510000000001","29.28","72.78","-2.623","0.0"],
    [1424546,"2026-08-09 20:20:00","633","1.214","215.0","3.136","160.2","1013.867","29.15","73.06","-2.778","0.0"],
    [1424547,"2026-08-09 20:30:00","634","0.943","184.0","2.156","195.8","1013.793","29.11","73.33","-2.799","0.0"],
    [1424548,"2026-08-09 20:40:00","635","1.2109999999999999","182.1","3.332","110.7","1013.8739999999999","29.12","72.5","-2.9419999999999997","0.0"],
    [1424549,"2026-08-09 20:50:00","636","0.868","173.7","2.352","183.2","1013.88","29.2","71.72","-2.78","0.0"],
    [1424550,"2026-08-09 21:00:00","637","0.318","136.3","0.98","167.9","1013.8439999999999","29.06","72.27","-3.142","0.0"],
    [1424551,"2026-08-09 21:10:00","638","0.165","136.3","0.784","138.1","1013.842","29.01","72.5","-2.892","0.0"],
    [1424552,"2026-08-09 21:20:00","639","0.255","149.0","1.568","159","1013.806","28.81","73.3","-3.22","0.0"],
    [1424553,"2026-08-09 21:30:00","640","0.314","134.6","1.274","143.6","1013.813","28.86","73.55","-2.603","0.0"],
    [1424554,"2026-08-09 21:40:00","641","0.17","125.5","0.98","122","1013.8739999999999","28.67","74.87","-2.8710000000000004","0.0"],
    [1424555,"2026-08-09 21:50:00","642","0.11","148.6","1.078","144.6","1013.92","28.59","75.46","-2.745","0.0"],
    [1424556,"2026-08-09 22:00:00","643","0.265","349.4","0.98","317.2","1014.1289999999999","28.43","76.39","-2.8560000000000003","0.0"],
    [1424557,"2026-08-09 22:10:00","644","0.259","323.3","0.784","324.4","1014.1160000000001","28.38","76.24","-2.592","0.0"],
    [1424558,"2026-08-09 22:20:00","645","0.077","15.87","0.686","15.94","1014.158","28.09","77.32","-2.5989999999999998","0.0"],
    [1424559,"2026-08-09 22:30:00","646","0.578","41.56","0.98","60.85","1014.187","28.36","76.64","-2.592","0.0"],
    [1424560,"2026-08-09 22:40:00","647","0.28800000000000003","83.3","0.98","79.84","1014.2239999999999","28.38","76.95","-2.593","0.0"],
    [1424561,"2026-08-09 22:50:00","648","0.374","354.7","0.784","7.558","1014.2660000000001","28.19","78.14","-2.596","0.0"],
    [1424562,"2026-08-09 23:00:00","649","0.0","0.0","0","348","1014.132","27.93","78.69","-2.593","0.0"],
    [1424563,"2026-08-09 23:10:00","650","0.001","348.0","0.098","348","1014.1160000000001","27.82","78.62","-2.593","0.0"],
    [1424564,"2026-08-09 23:20:00","651","0.0","0.0","0","350.7","1014.1080000000001","27.93","79.07","-2.593","0.0"],
    [1424565,"2026-08-09 23:30:00","652","0.5820000000000001","288.3","1.666","292","1013.998","28.06","78.27","-2.591","0.0"],
    [1424566,"2026-08-09 23:40:00","653","0.537","275.5","1.176","272","1014.047","27.65","79.25","-2.593","0.0"],
    [1424567,"2026-08-09 23:50:00","654","0.679","264.4","1.372","272.9","1014.059","27.57","79.88","-2.596","0.0"],
    [1424568,"2026-08-10 00:00:00","655","0.539","277.5","1.078","274.8","1014.044","27.58","79.61","-2.593","0.0"],
    [1424569,"2026-08-10 00:10:00","656","0.413","287.7","0.882","289.4","1014.047","27.33","80.1","-2.593","0.0"],
    [1424570,"2026-08-10 00:20:00","657","0.019","289.2","0.686","288.6","1013.949","27.14","80.5","-2.591","0.0"],
    [1424571,"2026-08-10 00:30:00","658","0.381","289.2","0.784","287.9","1013.796","27.02","80.9","-2.575","0.0"],
    [1424572,"2026-08-10 00:40:00","659","0.183","284.3","0.784","287.9","1013.672","26.94","81.0","-2.51","0.0"],
    [1424573,"2026-08-10 00:50:00","660","0.674","289.3","1.372","289.7","1013.697","27.15","79.85","-2.134","0.0"],
    [1424574,"2026-08-10 01:00:00","661","0.624","284.0","1.274","296.3","1013.707","26.99","79.67","-2.169","0.0"],
    [1424575,"2026-08-10 01:10:00","662","0.716","261.6","1.372","258.4","1013.681","26.9","79.5","-2.238","0.0"],
    [1424576,"2026-08-10 01:20:00","663","0.10300000000000001","240.0","0.686","244.7","1013.602","27.04","78.03","-1.864","0.0"],
    [1424577,"2026-08-10 01:30:00","664","0.0","0.0","0","244.5","1013.6389999999999","26.97","77.77","-1.929","0.0"],
    [1424578,"2026-08-10 01:40:00","665","0.14800000000000002","88.7","1.078","80.6","1013.6289999999999","26.94","78.25","-1.98","0.0"],
    [1424579,"2026-08-10 01:50:00","666","0.653","70.7","1.372","56.97","1013.637","27.18","78.56","-2.07","0.0"],
    [1424580,"2026-08-10 02:00:00","667","1.189","292.2","2.254","284.9","1013.691","26.64","78.66","-1.858","0.0"],
    [1424581,"2026-08-10 02:10:00","668","0.601","284.8","1.176","283.1","1013.6489999999999","26.5","78.53","-2.1109999999999998","0.0"],
    [1424582,"2026-08-10 02:20:00","669","0.0","0.0","0","272.9","1013.665","26.63","77.99","-2.427","0.0"],
    [1424583,"2026-08-10 02:30:00","670","0.335","293.3","0.98","302.5","1013.7080000000001","26.62","77.69","-2.593","0.0"],
    [1424584,"2026-08-10 02:40:00","671","0.301","308.2","0.98","311.7","1013.804","26.43","78.67","-2.54","0.0"],
    [1424585,"2026-08-10 02:50:00","672","1.05","26.74","2.352","43.99","1013.8589999999999","26.65","79.68","-2.528","0.0"],
    [1424586,"2026-08-10 03:00:00","673","1.879","41.61","3.136","24.61","1013.905","27.49","80.8","-2.735","0.0"],
    [1424587,"2026-08-10 03:10:00","674","2.458","38.66","4.116","39.15","1013.8589999999999","27.7","80.4","-2.594","0.0"],
    [1424588,"2026-08-10 03:20:00","675","2.365","35.28","4.312","26.45","1013.918","27.74","80.2","-2.494","0.0"],
    [1424589,"2026-08-10 03:30:00","676","2.153","29.34","3.724","16.96","1014.0419999999999","27.55","78.14","-2.478","0.0"],
    [1424590,"2026-08-10 03:40:00","677","3.1319999999999997","43.35","5.194","35.66","1014.172","27.72","78.01","-2.52","0.0"],
    [1424591,"2026-08-10 03:50:00","678","3.9139999999999997","40.65","5.978","54.5","1014.173","27.75","77.65","-1.8030000000000002","0.0"],
    [1424592,"2026-08-10 04:00:00","679","3.0660000000000003","27.66","5.88","26.16","1014.169","27.8","76.55","-1.178","0.0"],
    [1424593,"2026-08-10 04:10:00","680","3.339","39.34","6.272","40.7","1014.165","27.83","76.61","-1.136","0.0"],
    [1424594,"2026-08-10 04:20:00","681","3.43","45.45","6.762","64.39","1014.191","27.84","79.22","-1.7930000000000001","0.0"],
    [1424595,"2026-08-10 04:30:00","682","4.735","55.28","8.33","50.68","1014.278","27.88","78.25","-2.081","0.0"],
    [1424596,"2026-08-10 04:40:00","683","5.852","63.05","9.9","62.59","1014.3789999999999","28.15","75.04","-1.6219999999999999","0.0"],
    [1424597,"2026-08-10 04:50:00","684","5.832000000000001","65.45","9.41","72.67","1014.398","28.01","78.06","-0.601","0.0"],
    [1424598,"2026-08-10 05:00:00","685","6.2","62.76","11.27","59.35","1014.471","28.02","72.92","2.335","0.0"],
    [1424599,"2026-08-10 05:10:00","686","5.926","60.39","9.41","60.08","1014.518","28.03","72.3","9.68","0.0"],
    [1424600,"2026-08-10 05:20:00","687","6.442","59.36","10.39","71.22","1014.518","28.03","72.89","21.89","0.0"],
    [1424601,"2026-08-10 05:30:00","688","7.2989999999999995","58.66","10.78","53.15","1014.4730000000001","27.81","78.97","40.84","0.0"],
    [1424602,"2026-08-10 05:40:00","689","7.002000000000001","58.89","9.9","48.55","1014.505","27.69","80.4","60.67","0.0"],
    [1424603,"2026-08-10 05:50:00","690","6.591","56.85","11.27","66.03","1014.573","27.67","82.1","64.33","0.0"],
    [1424604,"2026-08-10 06:00:00","691","6.247000000000001","57.44","9.21","60.08","1014.6139999999999","27.64","82.6","60.01","0.0"],
    [1424605,"2026-08-10 06:10:00","692","5.572","57.53","9.51","66.28","1014.709","27.79","82.4","132.6","0.0"],
    [1424606,"2026-08-10 06:20:00","693","4.83","59.45","7.644","63.71","1014.883","28.0","81.7","123.2","0.0"],
    [1424607,"2026-08-10 06:30:00","694","4.681","55.09","7.644","74.86","1014.945","27.92","81.7","170.5","0.0"],
    [1424608,"2026-08-10 06:40:00","695","4.595","57.07","7.056","63.53","1014.948","28.16","80.5","214.3","0.0"],
    [1424609,"2026-08-10 06:50:00","696","4.668","57.27","6.958","61.54","1015.076","28.26","79.48","242.3","0.0"],
    [1424610,"2026-08-10 07:00:00","697","4.774","53.37","7.448","53.01","1015.203","28.41","77.96","271.7","0.0"],
    [1424611,"2026-08-10 07:10:00","698","3.938","53.41","6.468","53.3","1015.367","28.69","75.67","303.1","0.0"],
    [1424612,"2026-08-10 07:20:00","699","3.983","56.98","6.272","80.4","1015.562","28.81","74.27","347.5","0.0"],
    [1424613,"2026-08-10 07:30:00","700","4.373","56.23","6.566","55.78","1015.555","28.88","73.41","380.8","0.0"],
    [1424614,"2026-08-10 07:40:00","701","4.745","52.72","7.742","49.38","1015.212","28.83","72.94","245.2","0.0"],
    [1424615,"2026-08-10 07:50:00","702","3.301","56.79","5.684","50.6","1015.409","28.64","74.12","168.1","0.0"],
    [1424616,"2026-08-10 08:00:00","703","2.965","64.93","4.606","66.83","1015.669","28.51","72.54","135.3","0.0"],
    [1424617,"2026-08-10 08:10:00","704","3.815","63.78","5.39","58.45","1015.513","28.75","72.16","384.6","0.0"],
    [1424618,"2026-08-10 08:20:00","705","4.031000000000001","58.83","5.684","58.69","1015.377","29.45","70.0","508.7","0.0"],
    [1424619,"2026-08-10 08:30:00","706","3.6489999999999996","59.36","5.684","83.4","1015.363","29.73","68.91","535.9","0.0"],
    [1424620,"2026-08-10 08:40:00","707","3.406","65.13","4.998","87.5","1015.445","29.96","67.6","585.3","0.0"],
    [1424621,"2026-08-10 08:50:00","708","3.7939999999999996","67.25","5.096","80.6","1015.398","30.0","67.03","624.1","0.0"],
    [1424622,"2026-08-10 09:00:00","709","4.144","77.24","5.684","83.9","1015.438","30.13","65.99","651.9","0.0"],
    [1424623,"2026-08-10 09:10:00","710","4.18","74.02","6.762","61.02","1015.561","30.23","64.65","674.4","0.0"],
    [1424624,"2026-08-10 09:20:00","711","4.341","89.6","6.468","91.1","1015.551","30.42","61.51","698.2","0.0"],
    [1424625,"2026-08-10 09:30:00","712","5.43","86.4","7.742","72.21","1015.4839999999999","30.59","60.38","725.1","0.0"],
    [1424626,"2026-08-10 09:40:00","713","5.405","83.0","7.644","80.2","1015.633","30.82","58.94","748.3","0.0"],
    [1424627,"2026-08-10 09:50:00","714","5.132999999999999","82.7","7.546","84.8","1015.7280000000001","30.84","58.82","762.1","0.0"],
    [1424628,"2026-08-10 10:00:00","715","4.427","92.1","7.056","93.5","1015.76","30.44","61.21","789.7","0.0"],
    [1424629,"2026-08-10 10:10:00","716","4.086","87.8","6.468","83.9","1015.77","30.77","59.99","815.0","0.0"],
    [1424630,"2026-08-10 10:20:00","717","3.715","98.6","6.272","109.4","1015.847","30.7","60.22","843.0","0.0"],
    [1424631,"2026-08-10 10:30:00","718","3.551","95.0","6.076","88.8","1015.8560000000001","30.86","60.69","869.0","0.0"],
    [1424632,"2026-08-10 10:40:00","719","3.109","100.1","6.174","99","1015.97","30.87","61.66","863.0","0.0"],
    [1424633,"2026-08-10 10:50:00","720","4.158","85.5","6.468","90.9","1015.952","30.81","61.56","872.0","0.0"],
    [1424634,"2026-08-10 11:00:00","721","3.5239999999999996","101.2","5.488","102.5","1015.982","30.7","63.0","882.0","0.0"],
    [1424635,"2026-08-10 11:10:00","722","3.764","94.0","6.272","76.05","1015.898","30.88","61.82","889.0","0.0"],
    [1424636,"2026-08-10 11:20:00","723","3.727","90.4","6.37","85.7","1015.809","31.38","59.6","897.0","0.0"],
    [1424637,"2026-08-10 11:30:00","724","4.0760000000000005","92.6","6.272","85.7","1015.821","31.3","58.31","907.0","0.0"],
    [1424638,"2026-08-10 11:40:00","725","3.863","90.8","7.056","86.1","1015.83","31.26","58.29","908.0","0.0"],
    [1424639,"2026-08-10 11:50:00","726","3.554","97.4","5.978","76.97","1015.7919999999999","31.22","58.69","910.0","0.0"],
    [1424640,"2026-08-10 12:00:00","727","3.6510000000000002","94.9","5.88","119.7","1015.686","31.39","58.93","912.0","0.0"],
    [1424641,"2026-08-10 12:10:00","728","4.593999999999999","91.5","6.958","102.6","1015.6560000000001","31.59","57.91","912.0","0.0"],
    [1424642,"2026-08-10 12:20:00","729","4.914","95.2","7.84","116.9","1015.6","31.22","59.87","911.0","0.0"],
    [1424643,"2026-08-10 12:30:00","730","4.88","93.6","8.23","71.79","1015.52","31.05","62.54","912.0","0.0"],
    [1424644,"2026-08-10 12:40:00","731","5.103","91.5","7.84","101.5","1015.403","31.21","64.28","915.0","0.0"],
    [1424645,"2026-08-10 12:50:00","732","4.62","96.3","7.056","112.6","1015.3480000000001","30.87","64.66","922.0","0.0"],
    [1424646,"2026-08-10 13:00:00","733","4.828","96.2","7.448","103.1","1015.335","30.89","65.06","911.0","0.0"],
    [1424647,"2026-08-10 13:10:00","734","4.463","95.9","7.84","79.06","1015.257","30.83","65.87","884.0","0.0"],
    [1424648,"2026-08-10 13:20:00","735","4.191","96.0","6.664","88.7","1015.296","30.91","66.52","863.0","0.0"],
    [1424649,"2026-08-10 13:30:00","736","5.065","94.7","7.742","85.9","1015.2489999999999","30.7","67.53","807.0","0.0"],
    [1424650,"2026-08-10 13:40:00","737","3.695","101.3","6.272","101.1","1015.28","30.54","68.03","851.0","0.0"],
    [1424651,"2026-08-10 13:50:00","738","3.883","94.1","6.468","90.7","1015.27","30.66","68.39","813.0","0.0"],
    [1424652,"2026-08-10 14:00:00","739","3.734","96.6","5.782","82.6","1015.298","30.54","69.48","785.5","0.0"],
    [1424653,"2026-08-10 14:10:00","740","3.6660000000000004","95.1","6.174","92.7","1015.245","30.16","71.33","777.5","0.0"],
    [1424654,"2026-08-10 14:20:00","741","3.372","92.7","5.782","96.4","1015.181","30.45","70.62","745.7","0.0"],
    [1424655,"2026-08-10 14:30:00","742","2.965","97.3","5.194","82.3","1015.0139999999999","30.43","70.82","749.5","0.0"],
    [1424656,"2026-08-10 14:40:00","743","3.5239999999999996","90.3","5.488","96.1","1014.8660000000001","30.33","71.57","696.2","0.0"],
    [1424657,"2026-08-10 14:50:00","744","3.9219999999999997","89.1","6.076","75.46","1014.9","30.03","72.84","680.9","0.0"],
    [1424658,"2026-08-10 15:00:00","745","3.489","92.1","5.782","77.59","1014.895","29.73","75.07","652.1","0.0"],
    [1424659,"2026-08-10 15:10:00","746","4.181","87.1","6.076","82.8","1014.747","29.48","75.61","499.9","0.0"],
    [1424660,"2026-08-10 15:20:00","747","3.49","89.1","5.488","89.1","1014.684","29.8","75.17","614.4","0.0"],
    [1424661,"2026-08-10 15:30:00","748","3.6889999999999996","81.1","5.88","81.1","1014.578","29.8","75.14","586.6","0.0"],
    [1424662,"2026-08-10 15:40:00","749","3.719","91.7","5.39","82.7","1014.341","29.54","75.45","556.2","0.0"],
    [1424663,"2026-08-10 15:50:00","750","3.529","88.8","5.684","92.3","1014.215","29.76","74.58","530.1","0.0"],
    [1424664,"2026-08-10 16:00:00","751","3.383","89.7","5.096","58.06","1014.23","29.67","74.55","481.2","0.0"],
    [1424665,"2026-08-10 16:10:00","752","3.29","89.3","4.9","86.5","1014.314","29.56","75.67","400.9","0.0"],
    [1424666,"2026-08-10 16:20:00","753","3.628","83.6","5.39","61.89","1014.255","29.47","76.54","297.7","0.0"],
    [1424667,"2026-08-10 16:30:00","754","2.878","90.8","4.802","88.4","1014.3969999999999","29.29","77.75","328.4","0.0"],
    [1424668,"2026-08-10 16:40:00","755","2.861","83.7","4.802","80.5","1014.562","29.23","78.61","202.3","0.0"],
    [1424669,"2026-08-10 16:50:00","756","2.252","91.2","4.214","84.8","1014.755","29.07","79.45","157.9","0.0"],
    [1424670,"2026-08-10 17:00:00","757","2.137","88.3","4.018","80.6","1014.805","28.99","79.22","195.3","0.0"],
    [1424671,"2026-08-10 17:10:00","758","2.2359999999999998","92.1","3.528","97.4","1014.7080000000001","28.97","79.68","121.3","0.0"],
    [1424672,"2026-08-10 17:20:00","759","2.557","78.88","4.508","86.5","1014.4830000000001","28.93","79.52","81.6","0.0"],
    [1424673,"2026-08-10 17:30:00","760","2.66","90.9","4.41","88.2","1014.193","28.89","79.81","77.62","0.0"],
    [1424674,"2026-08-10 17:40:00","761","2.485","86.1","3.822","83.8","1014.302","28.72","80.4","72.9","0.0"],
    [1424675,"2026-08-10 17:50:00","762","2.281","94.2","3.822","77.64","1014.3380000000001","28.72","80.4","62.2","0.0"],
    [1424676,"2026-08-10 18:00:00","763","2.4659999999999997","87.5","3.822","86.8","1014.448","28.74","80.5","50.7","0.0"],
    [1424677,"2026-08-10 18:10:00","764","2.138","92.2","3.626","93.1","1014.523","28.68","80.2","38.38","0.0"],
    [1424678,"2026-08-10 18:20:00","765","2.128","98.0","3.038","95.9","1014.698","28.56","81.7","25.63","0.0"],
    [1424679,"2026-08-10 18:30:00","766","1.955","93.8","3.332","89.8","1014.648","28.54","81.9","14.76","0.0"],
    [1424680,"2026-08-10 18:40:00","767","2.156","83.6","3.332","74.09","1014.6210000000001","28.66","82.3","7.775","0.0"],
    [1424681,"2026-08-10 18:50:00","768","1.49","78.87","2.646","65.08","1014.814","28.46","82.4","2.759","0.0"],
    [1424682,"2026-08-10 19:00:00","769","1.314","86.1","1.96","85","1014.8789999999999","28.43","82.5","-0.311","0.0"],
    [1424683,"2026-08-10 19:10:00","770","1.193","79.17","2.254","72.59","1014.952","28.33","82.9","-1.3119999999999998","0.0"],
    [1424684,"2026-08-10 19:20:00","771","1.242","52.02","1.96","49.04","1014.942","28.33","83.1","-1.883","0.0"],
    [1424685,"2026-08-10 19:30:00","772","0.878","70.88","1.666","77.05","1015.0880000000001","28.27","83.4","-2.146","0.0"],
    [1424686,"2026-08-10 19:40:00","773","1.068","75.46","1.666","70.94","1015.0419999999999","28.24","83.4","-2.213","0.0"],
    [1424687,"2026-08-10 19:50:00","774","1.426","86.0","2.058","97.4","1014.942","28.3","82.5","-1.895","0.0"],
    [1424688,"2026-08-10 20:00:00","775","1.574","51.65","2.254","54.66","1015.0089999999999","28.34","83.1","-1.835","0.0"],
    [1424689,"2026-08-10 20:10:00","776","1.194","61.4","1.862","69.58","1015.2510000000001","28.23","83.9","-2.001","0.0"],
    [1424690,"2026-08-10 20:20:00","777","1.12","69.28","1.862","71.81","1015.53","28.23","83.8","-1.9280000000000002","0.0"],
    [1424691,"2026-08-10 20:30:00","778","1.425","80.9","2.254","74.18","1015.798","28.22","83.9","-1.8430000000000002","0.0"],
    [1424692,"2026-08-10 20:40:00","779","1.32","101.2","2.156","90.7","1016.165","28.24","84.0","-1.825","0.0"],
    [1424693,"2026-08-10 20:50:00","780","0.818","114.6","1.96","159.8","1016.2660000000001","28.28","84.0","-1.1640000000000001","0.0"],
    [1424694,"2026-08-10 21:00:00","781","0.997","104.4","1.96","78.2","1016.3689999999999","28.39","83.8","-1.187","0.0"],
    [1424695,"2026-08-10 21:10:00","782","0.9329999999999999","146.5","3.038","127.2","1016.455","28.48","82.6","-1.071","0.0"],
    [1424696,"2026-08-10 21:20:00","783","0.763","175.2","2.254","122.8","1016.3989999999999","28.59","81.7","-1.2329999999999999","0.0"],
    [1424697,"2026-08-10 21:30:00","784","1.095","176.7","2.45","158.3","1016.307","28.65","81.5","-1.073","0.0"],
    [1424698,"2026-08-10 21:40:00","785","0.07","198.5","0.784","186.9","1015.992","28.6","82.1","-1.621","0.0"],
    [1424699,"2026-08-10 21:50:00","786","0.703","228.3","1.47","253.7","1015.943","28.46","82.5","-1.811","0.0"],
    [1424700,"2026-08-10 22:00:00","787","0.434","301.5","1.078","340.4","1015.923","28.45","82.3","-1.7890000000000001","0.0"],
    [1424701,"2026-08-10 22:10:00","788","0.5670000000000001","323.3","1.078","267.5","1015.805","28.44","82.5","-1.814","0.0"],
    [1424702,"2026-08-10 22:20:00","789","0.594","23.08","1.078","71.71","1015.71","28.49","81.8","-1.798","0.0"],
    [1424703,"2026-08-10 22:30:00","790","1.185","46.57","2.156","35.57","1015.525","28.59","80.9","-1.561","0.0"],
    [1424704,"2026-08-10 22:40:00","791","1.496","6.735","2.842","21.08","1015.28","28.61","79.76","-1.3430000000000002","0.0"],
    [1424705,"2026-08-10 22:50:00","792","2.1830000000000003","12.24","4.018","20.06","1014.929","28.73","79.48","-1.735","0.0"],
    [1424706,"2026-08-10 23:00:00","793","1.935","2.332","3.234","3.537","1014.821","28.78","78.81","-1.1420000000000001","0.0"],
    [1424707,"2026-08-10 23:10:00","794","2.7230000000000003","343.4","4.998","352.7","1014.6060000000001","28.82","77.5","-1.4069999999999998","0.0"],
    [1424708,"2026-08-10 23:20:00","795","3.707","338.7","5.586","350","1014.263","28.89","75.4","-1.188","0.0"],
    [1424709,"2026-08-10 23:30:00","796","2.9210000000000003","344.8","4.802","340.1","1013.982","28.75","74.84","-1.473","0.0"],
    [1424710,"2026-08-10 23:40:00","797","2.877","339.9","4.802","343.3","1013.538","28.74","72.8","-1.7590000000000001","0.0"],
    [1424711,"2026-08-10 23:50:00","798","1.521","337.6","4.312","334.8","1013.378","28.72","72.45","-1.806","0.0"],
    [1424712,"2026-08-11 00:00:00","799","0.7859999999999999","45.22","2.058","44.87","1013.444","28.63","72.54","-1.829","0.0"],
    [1424713,"2026-08-11 00:10:00","800","0.54","66.89","1.666","55.63","1013.4110000000001","28.72","70.12","-1.808","0.0"],
    [1424714,"2026-08-11 00:20:00","801","0.863","105.0","2.45","100","1013.435","28.72","69.75","-1.84","0.0"],
    [1424715,"2026-08-11 00:30:00","802","2.494","96.6","8.72","85.5","1013.757","28.86","71.78","-1.625","0.0"],
    [1424716,"2026-08-11 00:40:00","803","4.6530000000000005","52.15","8.04","50.39","1013.6460000000001","28.41","70.0","-1.08","0.0"],
    [1424717,"2026-08-11 00:50:00","804","2.826","55.76","6.37","45.59","1013.755","28.62","69.77","-1.385","0.0"],
    [1424718,"2026-08-11 01:00:00","805","2.0669999999999997","23.61","4.41","28.2","1013.686","28.43","71.97","-1.676","0.0"],
    [1424719,"2026-08-11 01:10:00","806","1.9869999999999999","49.19","3.528","30.24","1013.704","28.59","70.12","-1.8219999999999998","0.0"],
    [1424720,"2026-08-11 01:20:00","807","2.546","64.41","3.92","49.18","1013.435","28.61","76.12","-1.6969999999999998","0.0"],
    [1424721,"2026-08-11 01:30:00","808","1.8869999999999998","44.88","3.822","64.3","1013.24","28.34","77.22","-1.693","0.0"],
    [1424722,"2026-08-11 01:40:00","809","1.49","350.0","2.842","263.3","1013.3489999999999","28.18","73.69","-1.5659999999999998","0.0"],
    [1424723,"2026-08-11 01:50:00","810","2.081","280.4","3.626","269.6","1013.555","27.29","67.17","-1.064","0.0"],
    [1424724,"2026-08-11 02:00:00","811","1.956","305.2","4.41","311.9","1013.721","27.01","67.06","-1.4880000000000002","0.0"],
    [1424725,"2026-08-11 02:10:00","812","1.5090000000000001","324.3","3.332","325.3","1013.8580000000001","27.48","64.33","-1.469","0.0"],
    [1424726,"2026-08-11 02:20:00","813","0.207","161.5","1.176","145.9","1014.189","27.59","63.75","-1.465","0.0"],
    [1424727,"2026-08-11 02:30:00","814","0.531","359.2","0.98","351.6","1014.1460000000001","27.69","63.4","-1.845","0.0"],
    [1424728,"2026-08-11 02:40:00","815","0.11900000000000001","328.6","0.784","351.6","1014.1410000000001","27.69","63.69","-2.25","0.0"],
    [1424729,"2026-08-11 02:50:00","816","1.27","276.8","2.548","298.9","1014.215","27.44","64.39","-2.318","0.0"],
    [1424730,"2026-08-11 03:00:00","817","1.8880000000000001","270.1","2.842","271.3","1014.2689999999999","26.69","67.16","-2.414","0.0"],
    [1424731,"2026-08-11 03:10:00","818","1.159","281.7","2.156","284.1","1014.342","26.45","68.57","-2.516","0.0"],
    [1424732,"2026-08-11 03:20:00","819","1.456","283.9","2.254","296.9","1014.362","26.4","69.21","-2.583","0.0"],
    [1424733,"2026-08-11 03:30:00","820","1.273","285.3","2.548","306.6","1014.38","26.34","69.26","-2.555","0.0"],
    [1424734,"2026-08-11 03:40:00","821","1.3090000000000002","283.9","2.548","283.9","1014.505","26.28","69.06","-2.593","0.0"],
    [1424735,"2026-08-11 03:50:00","822","1.505","288.8","2.352","292.8","1014.564","26.42","68.0","-2.565","0.0"],
    [1424736,"2026-08-11 04:00:00","823","1.026","284.9","2.45","312.2","1014.581","26.28","68.34","-2.592","0.0"],
    [1424737,"2026-08-11 04:10:00","824","2.0069999999999997","301.2","3.332","297.9","1014.655","26.34","68.07","-2.593","0.0"],
    [1424738,"2026-08-11 04:20:00","825","1.7930000000000001","318.2","3.136","318.9","1014.711","26.58","66.82","-2.592","0.0"],
    [1424739,"2026-08-11 04:30:00","826","1.742","328.4","3.038","324.1","1014.67","26.77","65.9","-2.5869999999999997","0.0"],
    [1424740,"2026-08-11 04:40:00","827","0.6509999999999999","336.6","1.764","316.7","1014.763","26.92","65.1","-2.386","0.0"],
    [1424741,"2026-08-11 04:50:00","828","0.29","327.1","0.686","333.2","1014.931","26.81","65.46","-1.364","0.0"],
    [1424742,"2026-08-11 05:00:00","829","0.35200000000000004","244.9","0.98","263.2","1015.0239999999999","26.57","66.22","2.287","0.0"],
    [1424743,"2026-08-11 05:10:00","830","0.532","249.6","1.568","263.2","1015.112","26.61","66.16","11.33","0.0"],
    [1424744,"2026-08-11 05:20:00","831","1.3519999999999999","268.5","2.058","274.9","1015.42","26.58","66.54","20.91","0.0"],
    [1424745,"2026-08-11 05:30:00","832","1.364","303.2","1.862","312.4","1015.587","26.47","67.21","31.65","0.0"],
    [1424746,"2026-08-11 05:40:00","833","1.006","260.5","1.764","291.1","1015.655","26.15","69.32","56.09","0.0"],
    [1424747,"2026-08-11 05:50:00","834","1.071","268.8","1.764","289.2","1015.7280000000001","26.26","69.28","64.82","0.0"],
    [1424748,"2026-08-11 06:00:00","835","1.47","267.8","2.744","277.5","1015.7769999999999","26.4","68.87","89.6","0.0"],
    [1424749,"2026-08-11 06:10:00","836","0.925","274.8","1.862","304.4","1015.824","26.74","68.01","145.4","0.0"],
    [1424750,"2026-08-11 06:20:00","837","0.27899999999999997","286.1","0.882","276","1015.945","27.45","66.09","106.0","0.0"],
    [1424751,"2026-08-11 06:30:00","838","3.424","60.71","6.664","55.72","1016.061","28.45","66.92","178.9","0.0"],
    [1424752,"2026-08-11 06:40:00","839","3.802","44.57","6.762","46.13","1016.118","29.06","66.51","220.2","0.0"],
    [1424753,"2026-08-11 06:50:00","840","4.0089999999999995","44.08","6.272","71.43","1016.105","29.15","69.82","233.0","0.0"],
    [1424754,"2026-08-11 07:00:00","841","4.203","54.41","6.664","78.41","1016.065","29.17","75.66","184.9","0.0"],
    [1424755,"2026-08-11 07:10:00","842","4.325","54.81","7.252","48.85","1016.195","28.77","79.49","214.1","0.0"],
    [1424756,"2026-08-11 07:20:00","843","4.58","60.89","7.252","61.5","1016.319","29.11","77.79","337.0","0.0"],
    [1424757,"2026-08-11 07:30:00","844","4.471","60.04","7.35","62.42","1016.377","29.3","75.53","353.5","0.0"],
    [1424758,"2026-08-11 07:40:00","845","5.001","59.49","8.53","66.2","1016.4110000000001","29.31","72.49","392.7","0.0"],
    [1424759,"2026-08-11 07:50:00","846","4.9719999999999995","64.57","7.448","68.24","1016.4730000000001","29.24","70.64","427.4","0.0"],
    [1424760,"2026-08-11 08:00:00","847","4.881","64.3","7.252","84.1","1016.566","29.24","72.63","426.1","0.0"],
    [1424761,"2026-08-11 08:10:00","848","4.824","66.4","7.742","73.18","1016.618","29.2","72.42","438.5","0.0"],
    [1424762,"2026-08-11 08:20:00","849","5.199","73.7","7.546","58.5","1016.75","29.41","71.72","487.9","0.0"],
    [1424763,"2026-08-11 08:30:00","850","5.082","71.46","7.35","79.29","1016.779","29.56","71.51","510.5","0.0"],
    [1424764,"2026-08-11 08:40:00","851","4.989","65.19","7.742","72.94","1016.802","29.5","71.31","554.6","0.0"],
    [1424765,"2026-08-11 08:50:00","852","4.782","64.1","6.958","48.56","1016.8560000000001","29.47","71.69","562.0","0.0"],
    [1424766,"2026-08-11 09:00:00","853","4.926","60.79","7.448","48.46","1016.89","29.39","72.17","600.8","0.0"],
    [1424767,"2026-08-11 09:10:00","854","4.555","60.03","6.86","66.11","1016.812","29.52","71.83","666.3","0.0"],
    [1424768,"2026-08-11 09:20:00","855","4.4110000000000005","53.15","6.86","66.59","1016.77","29.49","72.04","683.3","0.0"],
    [1424769,"2026-08-11 09:30:00","856","4.744","69.53","6.958","85.4","1016.81","29.46","72.49","710.9","0.0"],
    [1424770,"2026-08-11 09:40:00","857","4.2330000000000005","56.98","6.37","49.48","1016.878","29.45","72.41","713.8","0.0"],
    [1424771,"2026-08-11 09:50:00","858","4.42","69.1","6.468","110.6","1016.8380000000001","29.45","72.47","712.3","0.0"],
    [1424772,"2026-08-11 10:00:00","859","4.484","73.58","6.272","72.31","1016.845","29.41","72.97","791.6","0.0"],
    [1424773,"2026-08-11 10:10:00","860","4.0169999999999995","62.94","6.174","65.43","1016.795","29.69","72.2","791.7","0.0"],
    [1424774,"2026-08-11 10:20:00","861","3.992","72.69","6.272","63.73","1016.878","29.67","71.71","809.0","0.0"],
    [1424775,"2026-08-11 10:30:00","862","3.7510000000000003","87.6","5.782","91.1","1016.94","29.68","71.3","828.0","0.0"],
    [1424776,"2026-08-11 10:40:00","863","3.735","92.1","5.978","82.7","1016.94","29.71","71.41","840.0","0.0"],
    [1424777,"2026-08-11 10:50:00","864","3.737","85.8","5.782","96.8","1016.91","29.8","71.17","859.0","0.0"],
    [1424778,"2026-08-11 11:00:00","865","4.165","84.1","5.782","77.93","1016.829","29.68","71.0","851.0","0.0"],
    [1424779,"2026-08-11 11:10:00","866","4.534","84.9","6.37","68.04","1016.679","29.9","69.34","901.0","0.0"],
    [1424780,"2026-08-11 11:20:00","867","4.359","87.3","6.566","80.3","1016.5269999999999","29.93","69.05","890.0","0.0"],
    [1424781,"2026-08-11 11:30:00","868","4.3580000000000005","82.0","6.566","81.6","1016.4680000000001","30.12","68.53","894.0","0.0"],
    [1424782,"2026-08-11 11:40:00","869","4.067","90.0","5.782","94.3","1016.455","30.18","68.69","896.0","0.0"],
    [1424783,"2026-08-11 11:50:00","870","4.083","83.3","6.174","79.58","1016.375","30.29","67.33","898.0","0.0"],
    [1424784,"2026-08-11 12:00:00","871","3.946","88.7","6.076","79.19","1016.2810000000001","30.44","66.17","899.0","0.0"],
    [1424785,"2026-08-11 12:10:00","872","3.862","86.9","7.056","95.2","1016.184","30.58","65.5","899.0","0.0"],
    [1424786,"2026-08-11 12:20:00","873","4.041","88.0","6.37","86.6","1016.087","30.58","64.89","898.0","0.0"],
    [1424787,"2026-08-11 12:30:00","874","3.443","91.9","5.684","81.7","1016.0310000000001","30.67","64.83","895.0","0.0"],
    [1424788,"2026-08-11 12:40:00","875","3.9939999999999998","86.6","6.37","86.9","1015.9010000000001","30.76","64.38","886.0","0.0"],
    [1424789,"2026-08-11 12:50:00","876","3.159","97.2","5.586","104.8","1015.7869999999999","30.97","63.16","878.0","0.0"],
    [1424790,"2026-08-11 13:00:00","877","2.975","94.1","5.39","80.7","1015.721","31.11","62.29","869.0","0.0"],
    [1424791,"2026-08-11 13:10:00","878","3.764","95.7","5.586","86.4","1015.64","31.0","59.96","859.0","0.0"],
    [1424792,"2026-08-11 13:20:00","879","2.884","101.2","5.292","105.3","1015.55","31.0","61.57","847.0","0.0"],
    [1424793,"2026-08-11 13:30:00","880","3.085","97.5","5.488","90.3","1015.465","30.77","64.85","832.0","0.0"],
    [1424794,"2026-08-11 13:40:00","881","3.8930000000000002","94.6","4.998","90.2","1015.373","29.95","70.27","815.0","0.0"],
    [1424795,"2026-08-11 13:50:00","882","3.28","94.5","4.704","97","1015.217","30.12","71.21","798.0","0.0"],
    [1424796,"2026-08-11 14:00:00","883","2.738","97.1","4.704","88.5","1015.1419999999999","30.18","72.29","778.4","0.0"],
    [1424797,"2026-08-11 14:10:00","884","1.911","109.9","4.704","115.5","1015.12","30.63","71.39","756.7","0.0"],
    [1424798,"2026-08-11 14:20:00","885","2.513","96.1","4.312","74.83","1015.0010000000001","30.6","71.59","741.3","0.0"],
    [1424799,"2026-08-11 14:30:00","886","3.565","86.5","5.194","82.1","1014.8710000000001","30.25","73.29","716.0","0.0"],
    [1424800,"2026-08-11 14:40:00","887","2.7680000000000002","98.2","5.292","77.88","1014.8380000000001","29.96","74.75","695.7","0.0"],
    [1424801,"2026-08-11 14:50:00","888","2.57","107.6","4.9","95.9","1014.798","30.17","74.7","669.6","0.0"],
    [1424802,"2026-08-11 15:00:00","889","2.617","101.9","4.41","94.5","1014.732","30.14","75.62","640.5","0.0"],
    [1424803,"2026-08-11 15:10:00","890","2.269","101.4","4.508","63.88","1014.698","30.21","76.23","635.8","0.0"],
    [1424804,"2026-08-11 15:20:00","891","1.6909999999999998","114.1","4.312","101.2","1014.697","30.32","76.28","615.2","0.0"],
    [1424805,"2026-08-11 15:30:00","892","2.221","97.2","4.508","91.5","1014.663","30.54","75.19","521.5","0.0"],
    [1424806,"2026-08-11 15:40:00","893","2.614","98.3","4.41","82.4","1014.5980000000001","30.06","77.65","531.0","0.0"],
    [1424807,"2026-08-11 15:50:00","894","2.205","101.4","4.312","125.1","1014.5989999999999","29.91","78.21","509.2","0.0"],
    [1424808,"2026-08-11 16:00:00","895","2.205","101.9","4.312","93.5","1014.716","30.09","77.41","479.0","0.0"],
    [1424809,"2026-08-11 16:10:00","896","1.386","116.9","3.332","87.2","1014.7330000000001","29.95","78.37","414.3","0.0"],
    [1424810,"2026-08-11 16:20:00","897","1.749","100.3","3.724","139.5","1014.722","30.18","76.78","415.5","0.0"],
    [1424811,"2026-08-11 16:30:00","898","2.3280000000000003","100.7","4.018","82.8","1014.665","29.8","78.36","379.8","0.0"],
    [1424812,"2026-08-11 16:40:00","899","1.456","105.8","4.312","65.81","1014.6519999999999","30.24","76.37","372.7","0.0"],
    [1424813,"2026-08-11 16:50:00","900","1.818","104.1","3.822","105.7","1014.5369999999999","30.16","77.46","359.3","0.0"],
    [1424814,"2026-08-11 17:00:00","901","2.093","106.5","4.312","86.3","1014.388","30.11","78.03","338.2","0.0"],
    [1424815,"2026-08-11 17:10:00","902","2.641","87.6","4.41","93.6","1014.414","29.94","79.22","318.6","0.0"],
    [1424816,"2026-08-11 17:20:00","903","2.463","86.0","4.704","88.8","1014.44","29.63","80.4","283.6","0.0"],
    [1424817,"2026-08-11 17:30:00","904","2.492","80.9","4.704","112.1","1014.4689999999999","29.69","80.6","229.4","0.0"],
    [1424818,"2026-08-11 17:40:00","905","2.5","83.4","5.292","85.8","1014.4019999999999","29.62","80.5","182.4","0.0"],
    [1424819,"2026-08-11 17:50:00","906","2.662","80.3","5.978","84.3","1014.4169999999999","29.5","81.4","150.8","0.0"],
    [1424820,"2026-08-11 18:00:00","907","2.7489999999999997","77.96","4.9","86.8","1014.645","29.43","81.9","128.8","0.0"],
    [1424821,"2026-08-11 18:10:00","908","2.969","73.78","4.802","108.4","1014.8380000000001","29.46","81.5","82.4","0.0"],
    [1424822,"2026-08-11 18:20:00","909","3.085","81.0","5.194","93.4","1014.982","29.4","81.7","66.83","0.0"],
    [1424823,"2026-08-11 18:30:00","910","3.029","71.12","4.9","95.2","1015.4019999999999","29.35","81.8","42.45","0.0"],
    [1424824,"2026-08-11 18:40:00","911","2.94","64.1","4.508","75.89","1015.717","29.34","82.1","26.35","0.0"],
    [1424825,"2026-08-11 18:50:00","912","3.091","72.94","4.704","82","1015.684","29.36","81.4","14.05","0.0"],
    [1424826,"2026-08-11 19:00:00","913","3.319","69.97","4.9","85.4","1015.451","29.3","83.8","4.729","0.0"],
    [1424827,"2026-08-11 19:10:00","914","3.364","61.46","5.194","68.33","1015.6089999999999","29.05","84.4","0.45299999999999996","0.0"],
    [1424828,"2026-08-11 19:20:00","915","3.2689999999999997","57.34","4.998","65.52","1015.704","29.02","84.9","-1.4680000000000002","0.0"],
    [1424829,"2026-08-11 19:30:00","916","3.214","52.21","5.586","73.81","1015.687","28.94","85.6","-1.4609999999999999","0.0"],
    [1424830,"2026-08-11 19:40:00","917","2.88","37.82","4.998","25.83","1015.727","28.91","85.6","-1.594","0.0"],
    [1424831,"2026-08-11 19:50:00","918","3.015","51.97","4.606","37.32","1015.804","28.86","86.1","-1.551","0.0"],
    [1424832,"2026-08-11 20:00:00","919","2.699","58.84","4.018","44.82","1016.091","28.81","86.1","-1.771","0.0"],
    [1424833,"2026-08-11 20:10:00","920","2.7","49.95","4.116","58.68","1016.307","28.87","86.3","-1.479","0.0"],
    [1424834,"2026-08-11 20:20:00","921","2.924","52.77","4.312","59.99","1016.472","28.84","85.6","-1.062","0.0"],
    [1424835,"2026-08-11 20:30:00","922","2.995","58.88","4.312","67.94","1016.655","28.91","84.8","-1.046","0.0"],
    [1424836,"2026-08-11 20:40:00","923","2.568","57.76","3.822","55.24","1016.82","28.85","85.2","-1.56","0.0"],
    [1424837,"2026-08-11 20:50:00","924","2.9810000000000003","33.66","4.312","25.97","1016.932","28.8","85.2","-1.699","0.0"],
    [1424838,"2026-08-11 21:00:00","925","2.661","55.55","4.214","63.29","1016.815","28.87","84.9","-1.801","0.0"],
    [1424839,"2026-08-11 21:10:00","926","2.9560000000000004","66.38","4.116","56.21","1016.788","28.8","85.8","-1.796","0.0"],
    [1424840,"2026-08-11 21:20:00","927","2.563","65.4","4.116","77.15","1016.7289999999999","28.78","85.8","-1.798","0.0"],
    [1424841,"2026-08-11 21:30:00","928","2.42","64.17","3.724","74.63","1016.7439999999999","28.72","85.7","-1.798","0.0"],
    [1424842,"2026-08-11 21:40:00","929","2.144","74.11","3.822","62.37","1016.564","28.72","84.7","-1.8","0.0"],
    [1424843,"2026-08-11 21:50:00","930","1.754","78.85","2.646","85.7","1016.5110000000001","28.75","84.6","-1.804","0.0"],
    [1424844,"2026-08-11 22:00:00","931","1.3880000000000001","77.89","2.156","79.67","1016.459","28.68","84.5","-1.8030000000000002","0.0"],
    [1424845,"2026-08-11 22:10:00","932","0.784","99.9","1.666","97.4","1016.436","28.65","85.0","-1.955","0.0"],
    [1424846,"2026-08-11 22:20:00","933","0.35100000000000003","119.5","1.568","100.6","1016.3","28.58","85.7","-2.483","0.0"],
    [1424847,"2026-08-11 22:30:00","934","0.506","163.9","1.47","155.8","1016.133","28.5","86.2","-2.44","0.0"],
    [1424848,"2026-08-11 22:40:00","935","0.161","165.4","0.784","160.9","1016.165","28.45","86.3","-2.339","0.0"],
    [1424849,"2026-08-11 22:50:00","936","0.721","175.9","1.764","176.9","1016.0989999999999","28.4","86.3","-2.5780000000000003","0.0"],
    [1424850,"2026-08-11 23:00:00","937","0.387","177.5","1.078","184.6","1016.1110000000001","28.38","86.4","-2.5810000000000004","0.0"],
    [1424851,"2026-08-11 23:10:00","938","0.677","232.8","1.372","224","1016.113","28.22","86.5","-2.502","0.0"],
    [1424852,"2026-08-11 23:20:00","939","1.121","293.4","2.058","310.8","1016.2919999999999","27.2","74.9","-1.841","0.0"],
    [1424853,"2026-08-11 23:30:00","940","1.29","326.3","2.254","337.3","1016.42","27.63","66.6","-2.28","0.0"],
    [1424854,"2026-08-11 23:40:00","941","1.473","326.6","2.352","335.7","1016.576","28.11","60.69","-1.844","0.0"],
    [1424855,"2026-08-11 23:50:00","942","0.7390000000000001","348.9","2.548","341.9","1016.548","28.49","58.0","-1.97","0.0"],
    [1424856,"2026-08-12 00:00:00","943","0.213","352.2","0.784","349.2","1016.508","28.47","58.77","-2.571","0.0"],
    [1424857,"2026-08-12 00:10:00","944","0.9690000000000001","307.6","1.47","302.6","1016.6210000000001","28.4","59.24","-2.36","0.0"],
    [1424858,"2026-08-12 00:20:00","945","0.078","291.3","0.686","296.4","1016.5219999999999","28.03","60.52","-2.593","0.0"],
    [1424859,"2026-08-12 00:30:00","946","0.993","283.8","2.156","270.8","1016.596","27.81","61.82","-2.592","0.0"],
    [1424860,"2026-08-12 00:40:00","947","1.018","278.7","2.058","269.7","1016.6310000000001","27.87","61.35","-2.5069999999999997","0.0"],
    [1424861,"2026-08-12 00:50:00","948","1.088","275.7","2.156","295.9","1016.645","27.66","61.72","-2.51","0.0"],
    [1424862,"2026-08-12 01:00:00","949","1.06","289.0","1.96","302.9","1016.61","27.21","61.51","-2.377","0.0"],
    [1424863,"2026-08-12 01:10:00","950","1.0759999999999998","287.0","1.666","276.2","1016.472","27.34","59.02","-1.9909999999999999","0.0"],
    [1424864,"2026-08-12 01:20:00","951","0.735","288.6","1.568","292.7","1016.4169999999999","27.29","57.99","-2.559","0.0"],
    [1424865,"2026-08-12 01:30:00","952","1.329","290.5","2.156","298.4","1016.442","26.98","58.86","-2.5810000000000004","0.0"],
    [1424866,"2026-08-12 01:40:00","953","1.694","290.7","2.352","288.7","1016.442","26.75","59.52","-2.548","0.0"],
    [1424867,"2026-08-12 01:50:00","954","1.2919999999999998","283.6","1.764","276.7","1016.363","26.76","59.3","-2.571","0.0"],
    [1424868,"2026-08-12 02:00:00","955","1.263","287.3","1.666","293.3","1016.3539999999999","27.02","58.14","-2.543","0.0"],
    [1424869,"2026-08-12 02:10:00","956","1.1","303.6","1.568","295.8","1016.302","27.06","57.88","-2.425","0.0"],
    [1424870,"2026-08-12 02:20:00","957","1.551","300.0","1.96","300.3","1016.325","26.71","58.92","-2.5869999999999997","0.0"],
    [1424871,"2026-08-12 02:30:00","958","1.14","283.6","1.96","293.9","1016.4069999999999","26.66","58.06","-2.54","0.0"],
    [1424872,"2026-08-12 02:40:00","959","0.9390000000000001","271.0","1.666","275.5","1016.457","26.53","58.26","-2.588","0.0"],
    [1424873,"2026-08-12 02:50:00","960","1.449","274.3","2.254","272.9","1016.48","26.74","57.63","-2.5140000000000002","0.0"],
    [1424874,"2026-08-12 03:00:00","961","1.44","284.4","2.156","284","1016.437","26.39","59.15","-2.309","0.0"],
    [1424875,"2026-08-12 03:10:00","962","1.228","291.0","2.156","304.1","1016.421","26.2","60.47","-2.59","0.0"],
    [1424876,"2026-08-12 03:20:00","963","0.966","286.4","1.764","291.6","1016.441","26.24","60.34","-2.5610000000000004","0.0"],
    [1424877,"2026-08-12 03:30:00","964","1.21","284.2","1.862","286","1016.453","26.15","60.8","-2.54","0.0"],
    [1424878,"2026-08-12 03:40:00","965","1.256","286.0","1.862","274.6","1016.444","26.07","61.11","-2.58","0.0"],
    [1424879,"2026-08-12 03:50:00","966","1.308","288.1","2.156","291.2","1016.444","26.13","61.03","-2.555","0.0"],
    [1424880,"2026-08-12 04:00:00","967","0.992","286.0","2.058","271.4","1016.459","25.97","61.62","-2.517","0.0"],
    [1424881,"2026-08-12 04:10:00","968","1.061","276.2","1.96","277.1","1016.512","25.99","61.84","-2.56","0.0"],
    [1424882,"2026-08-12 04:20:00","969","1.75","273.8","2.646","281.2","1016.6419999999999","25.92","61.67","-2.129","0.0"],
    [1424883,"2026-08-12 04:30:00","970","1.83","285.1","2.548","288","1016.7180000000001","25.53","62.9","-2.029","0.0"],
    [1424884,"2026-08-12 04:40:00","971","1.784","284.6","2.646","288.2","1016.799","25.48","63.25","-1.891","0.0"],
    [1424885,"2026-08-12 04:50:00","972","1.122","291.9","2.352","301.9","1016.77","25.48","63.59","-1.3159999999999998","0.0"],
    [1424886,"2026-08-12 05:00:00","973","0.856","285.7","2.156","292.2","1016.7810000000001","25.59","63.51","0.622","0.0"],
    [1424887,"2026-08-12 05:10:00","974","1.215","287.7","2.156","294.3","1016.868","25.68","63.33","5.062","0.0"],
    [1424888,"2026-08-12 05:20:00","975","1.409","291.5","2.45","299.9","1016.987","25.96","62.31","14.06","0.0"],
    [1424889,"2026-08-12 05:30:00","976","0.884","283.5","1.96","305","1017.041","26.18","61.5","32.3","0.0"],
    [1424890,"2026-08-12 05:40:00","977","0.812","286.1","1.568","271.1","1017.0310000000001","26.31","61.29","47.7","0.0"],
    [1424891,"2026-08-12 05:50:00","978","1.337","287.9","2.254","294.4","1017.164","26.65","60.42","65.66","0.0"],
    [1424892,"2026-08-12 06:00:00","979","1.73","283.2","2.45","281","1017.284","26.85","59.49","87.3","0.0"],
    [1424893,"2026-08-12 06:10:00","980","1.318","284.9","2.45","289.6","1017.324","26.99","58.72","98.8","0.0"],
    [1424894,"2026-08-12 06:20:00","981","1.959","308.5","2.646","302.8","1017.4060000000001","27.24","58.76","118.6","0.0"],
    [1424895,"2026-08-12 06:30:00","982","1.6269999999999998","301.0","2.646","310.6","1017.472","27.59","58.67","168.9","0.0"],
    [1424896,"2026-08-12 06:40:00","983","1.7380000000000002","295.2","2.646","275.4","1017.586","28.02","57.82","198.5","0.0"],
    [1424897,"2026-08-12 06:50:00","984","1.33","290.9","2.744","304","1017.6089999999999","28.53","58.39","226.7","0.0"],
    [1424898,"2026-08-12 07:00:00","985","1.031","35.82","4.018","47.15","1017.668","29.71","63.74","260.7","0.0"],
    [1424899,"2026-08-12 07:10:00","986","2.719","61.84","4.802","47.2","1017.725","29.5","73.8","300.1","0.0"],
    [1424900,"2026-08-12 07:20:00","987","3.0780000000000003","57.29","4.802","44.49","1017.7869999999999","29.07","75.75","330.7","0.0"],
    [1424901,"2026-08-12 07:30:00","988","3.61","62.41","5.194","48.8","1017.813","29.09","76.88","361.1","0.0"],
    [1424902,"2026-08-12 07:40:00","989","2.967","66.19","4.704","79.34","1017.852","29.23","75.39","390.6","0.0"],
    [1424903,"2026-08-12 07:50:00","990","3.264","64.17","5.292","60.82","1017.877","29.18","75.76","426.0","0.0"],
    [1424904,"2026-08-12 08:00:00","991","3.1180000000000003","56.97","4.41","63","1017.822","29.37","74.8","453.7","0.0"],
    [1424905,"2026-08-12 08:10:00","992","3.713","42.18","5.684","31.31","1017.845","29.42","75.18","474.9","0.0"],
    [1424906,"2026-08-12 08:20:00","993","3.685","41.75","5.782","31.21","1017.909","29.57","73.33","520.0","0.0"],
    [1424907,"2026-08-12 08:30:00","994","3.477","52.2","5.684","83.1","1017.971","29.6","72.14","522.9","0.0"],
    [1424908,"2026-08-12 08:40:00","995","3.937","62.37","6.174","70.66","1018.071","29.52","72.61","580.2","0.0"],
    [1424909,"2026-08-12 08:50:00","996","3.825","73.54","5.88","87.7","1018.105","29.63","72.45","610.3","0.0"],
    [1424910,"2026-08-12 09:00:00","997","3.867","69.67","5.586","71.34","1018.204","29.6","73.03","635.0","0.0"],
    [1424911,"2026-08-12 09:10:00","998","4.041","72.15","5.586","80.1","1018.275","29.54","74.24","659.1","0.0"],
    [1424912,"2026-08-12 09:20:00","999","4.113","73.97","5.488","83.9","1018.311","29.58","75.17","685.6","0.0"],
    [1424913,"2026-08-12 09:30:00","1000","4.297","74.84","6.076","64.65","1018.3380000000001","29.55","76.38","707.2","0.0"],
    [1424914,"2026-08-12 09:40:00","1001","4.45","78.6","6.272","79.87","1018.408","29.69","75.62","729.9","0.0"],
    [1424915,"2026-08-12 09:50:00","1002","4.345","77.41","6.664","86.7","1018.4760000000001","29.69","74.79","750.5","0.0"],
    [1424916,"2026-08-12 10:00:00","1003","3.908","86.7","5.978","78.12","1018.58","29.93","74.42","771.4","0.0"],
    [1424917,"2026-08-12 10:10:00","1004","3.963","87.7","5.684","74.68","1018.6560000000001","29.98","74.94","787.6","0.0"],
    [1424918,"2026-08-12 10:20:00","1005","3.812","88.9","5.782","84.8","1018.698","29.99","75.08","808.0","0.0"],
    [1424919,"2026-08-12 10:30:00","1006","4.593","82.8","6.762","73.67","1018.72","30.11","74.9","825.0","0.0"],
    [1424920,"2026-08-12 10:40:00","1007","3.819","88.6","5.88","86","1018.727","30.11","75.05","841.0","0.0"],
    [1424921,"2026-08-12 10:50:00","1008","4.1739999999999995","87.7","6.076","85.2","1018.748","30.03","74.96","858.0","0.0"],
    [1424922,"2026-08-12 11:00:00","1009","3.272","95.6","5.586","108.7","1018.7739999999999","30.22","74.02","871.0","0.0"],
    [1424923,"2026-08-12 11:10:00","1010","2.9819999999999998","98.3","5.586","84.9","1018.7139999999999","30.31","73.33","881.0","0.0"],
    [1424924,"2026-08-12 11:20:00","1011","3.241","95.8","5.39","90","1018.6510000000001","30.23","72.71","891.0","0.0"],
    [1424925,"2026-08-12 11:30:00","1012","3.448","98.3","5.684","86.8","1018.586","30.3","70.33","893.0","0.0"],
    [1424926,"2026-08-12 11:40:00","1013","2.8539999999999996","101.0","5.194","82.4","1018.5189999999999","30.79","66.79","896.0","0.0"],
    [1424927,"2026-08-12 11:50:00","1014","3.362","96.2","5.782","87.2","1018.456","30.54","69.07","899.0","0.0"],
    [1424928,"2026-08-12 12:00:00","1015","3.5439999999999996","94.6","5.292","85.2","1018.4019999999999","30.62","69.86","901.0","0.0"],
    [1424929,"2026-08-12 12:10:00","1016","3.323","93.0","5.488","102","1018.288","30.62","70.8","901.0","0.0"],
    [1424930,"2026-08-12 12:20:00","1017","3.841","88.7","5.488","88","1018.203","30.4","72.1","902.0","0.0"],
    [1424931,"2026-08-12 12:30:00","1018","2.8939999999999997","99.4","4.606","100.6","1018.195","30.64","70.74","897.0","0.0"],
    [1424932,"2026-08-12 12:40:00","1019","3.3489999999999998","92.3","4.998","75.61","1018.153","30.67","69.45","891.0","0.0"],
    [1424933,"2026-08-12 12:50:00","1020","3.182","94.3","4.802","89.9","1018.2239999999999","30.72","69.61","884.0","0.0"],
    [1424934,"2026-08-12 13:00:00","1021","3.2939999999999996","96.8","4.802","96.2","1018.2660000000001","30.37","70.17","874.0","0.0"],
    [1424935,"2026-08-12 13:10:00","1022","2.6719999999999997","100.1","4.508","86.3","1018.2189999999999","30.83","67.69","866.0","0.0"],
    [1424936,"2026-08-12 13:20:00","1023","2.8339999999999996","98.7","4.802","81.4","1018.2139999999999","30.99","70.82","852.0","0.0"],
    [1424937,"2026-08-12 13:30:00","1024","3.591","90.9","5.488","85.8","1018.165","30.7","72.24","836.0","0.0"],
    [1424938,"2026-08-12 13:40:00","1025","3.887","93.8","5.39","82.9","1018.1469999999999","30.41","73.4","810.0","0.0"],
    [1424939,"2026-08-12 13:50:00","1026","3.855","96.0","5.292","92.1","1018.148","30.4","72.72","791.7","0.0"],
    [1424940,"2026-08-12 14:00:00","1027","3.52","95.9","5.684","88.7","1018.064","30.39","72.93","765.0","0.0"],
    [1424941,"2026-08-12 14:10:00","1028","3.333","97.9","5.39","84.6","1018.043","30.41","72.35","745.5","0.0"],
    [1424942,"2026-08-12 14:20:00","1029","3.597","93.2","5.39","85.3","1017.995","30.7","70.7","730.6","0.0"],
    [1424943,"2026-08-12 14:30:00","1030","3.343","97.3","5.586","72.79","1017.95","30.5","71.06","715.2","0.0"],
    [1424944,"2026-08-12 14:40:00","1031","3.8819999999999997","93.8","6.174","85.1","1017.88","30.26","70.61","694.9","0.0"],
    [1424945,"2026-08-12 14:50:00","1032","3.844","95.0","5.88","88.6","1017.81","30.39","67.66","668.4","0.0"],
    [1424946,"2026-08-12 15:00:00","1033","3.411","94.2","6.076","96.9","1017.78","30.9","66.95","645.3","0.0"],
    [1424947,"2026-08-12 15:10:00","1034","3.235","95.7","4.9","89.9","1017.743","30.73","67.93","628.7","0.0"],
    [1424948,"2026-08-12 15:20:00","1035","2.806","101.9","4.998","113.1","1017.7280000000001","30.87","67.4","599.9","0.0"],
    [1424949,"2026-08-12 15:30:00","1036","2.53","109.2","5.684","115.5","1017.68","31.0","67.86","573.0","0.0"],
    [1424950,"2026-08-12 15:40:00","1037","2.519","104.5","4.998","79.05","1017.6419999999999","31.02","68.24","541.2","0.0"],
    [1424951,"2026-08-12 15:50:00","1038","2.157","109.1","4.606","94.2","1017.654","31.04","68.23","507.7","0.0"],
    [1424952,"2026-08-12 16:00:00","1039","2.164","100.5","4.606","104.9","1017.617","30.73","69.36","453.0","0.0"],
    [1424953,"2026-08-12 16:10:00","1040","2.477","102.4","4.704","111.6","1017.582","30.56","70.0","447.4","0.0"],
    [1424954,"2026-08-12 16:20:00","1041","2.24","106.4","4.508","115.6","1017.6560000000001","30.49","69.91","395.1","0.0"],
    [1424955,"2026-08-12 16:30:00","1042","2.5839999999999996","104.8","4.214","100.8","1017.7360000000001","30.37","69.67","383.8","0.0"],
    [1424956,"2026-08-12 16:40:00","1043","3.093","91.8","5.096","69.59","1017.727","30.39","70.19","350.8","0.0"],
    [1424957,"2026-08-12 16:50:00","1044","2.978","92.8","4.312","79.09","1017.685","30.2","70.16","317.8","0.0"],
    [1424958,"2026-08-12 17:00:00","1045","3.003","95.3","4.508","97.5","1017.702","30.1","70.99","284.4","0.0"],
    [1424959,"2026-08-12 17:10:00","1046","3.29","92.9","4.606","94.8","1017.655","30.12","70.15","252.9","0.0"],
    [1424960,"2026-08-12 17:20:00","1047","2.889","100.0","4.41","91.9","1017.676","29.96","70.87","190.2","0.0"],
    [1424961,"2026-08-12 17:30:00","1048","3.0269999999999997","95.5","4.312","106.7","1017.76","29.9","71.4","107.4","0.0"],
    [1424962,"2026-08-12 17:40:00","1049","2.772","95.6","4.018","85.1","1017.8960000000001","29.46","74.24","58.99","0.0"],
    [1424963,"2026-08-12 17:50:00","1050","2.679","87.7","4.41","75.6","1017.9680000000001","29.39","74.63","51.76","0.0"],
    [1424964,"2026-08-12 18:00:00","1051","2.763","91.0","5.88","87.8","1018.039","29.31","74.57","46.41","0.0"],
    [1424965,"2026-08-12 18:10:00","1052","2.658","91.4","5.488","82.3","1017.987","29.34","73.39","40.25","0.0"],
    [1424966,"2026-08-12 18:20:00","1053","2.0469999999999997","96.9","5.194","99.5","1018.025","29.24","73.89","15.47","0.0"],
    [1424967,"2026-08-12 18:30:00","1054","2.129","88.5","4.312","102.5","1018.0160000000001","29.17","72.52","0.292","0.0"],
    [1424968,"2026-08-12 18:40:00","1055","2.309","86.9","5.782","113.6","1018.013","29.14","72.93","-0.9740000000000001","0.0"],
    [1424969,"2026-08-12 18:50:00","1056","1.6740000000000002","88.2","2.94","58.25","1018.0319999999999","29.13","71.97","1.157","0.0"],
    [1424970,"2026-08-12 19:00:00","1057","2.184","71.2","3.92","80.6","1018.0089999999999","29.08","71.65","0.20600000000000002","0.0"],
    [1424971,"2026-08-12 19:10:00","1058","2.0780000000000003","84.4","4.018","81.8","1018.007","29.07","72.44","-1.218","0.0"],
    [1424972,"2026-08-12 19:20:00","1059","1.4669999999999999","81.7","4.116","93.4","1017.94","28.97","72.84","-2.585","0.0"],
    [1424973,"2026-08-12 19:30:00","1060","1.516","97.3","2.842","86.4","1018.034","28.94","73.17","-2.575","0.0"],
    [1424974,"2026-08-12 19:40:00","1061","1.26","105.3","2.352","137.7","1018.057","28.85","74.26","-2.716","0.0"],
    [1424975,"2026-08-12 19:50:00","1062","1.639","90.6","4.018","121.5","1018.135","28.85","73.42","-2.596","0.0"],
    [1424976,"2026-08-12 20:00:00","1063","0.889","96.6","3.626","79.81","1018.4060000000001","28.86","73.54","-2.639","0.0"],
    [1424977,"2026-08-12 20:10:00","1064","0.619","57.85","1.568","95.7","1018.6210000000001","28.77","73.92","-2.6","0.0"],
    [1424978,"2026-08-12 20:20:00","1065","0.643","65.08","1.47","67.69","1018.7739999999999","28.69","73.93","-2.687","0.0"],
    [1424979,"2026-08-12 20:30:00","1066","0.706","88.1","1.568","75","1018.9060000000001","28.69","73.84","-2.7880000000000003","0.0"],
    [1424980,"2026-08-12 20:40:00","1067","0.307","76.04","1.764","86.8","1019.074","28.71","74.05","-2.752","0.0"],
    [1424981,"2026-08-12 20:50:00","1068","0.067","134.9","0.686","155.7","1019.138","28.53","74.86","-2.6319999999999997","0.0"],
    [1424982,"2026-08-12 21:00:00","1069","0.121","125.0","1.666","96.8","1019.053","28.39","75.45","-2.7460000000000004","0.0"],
    [1424983,"2026-08-12 21:10:00","1070","0.3","237.4","0.98","232.9","1019.1289999999999","28.26","75.87","-2.6260000000000003","0.0"],
    [1424984,"2026-08-12 21:20:00","1071","0.7190000000000001","245.3","1.176","241.7","1019.207","28.1","76.54","-2.5989999999999998","0.0"],
    [1424985,"2026-08-12 21:30:00","1072","0.9359999999999999","232.8","1.764","229.6","1019.294","28.15","76.8","-2.6239999999999997","0.0"],
    [1424986,"2026-08-12 21:40:00","1073","0.753","227.7","1.47","250.8","1019.322","28.02","77.99","-2.654","0.0"],
    [1424987,"2026-08-12 21:50:00","1074","0.914","251.3","1.47","244","1019.387","27.97","78.48","-2.609","0.0"],
    [1424988,"2026-08-12 22:00:00","1075","0.20800000000000002","266.8","0.98","266.2","1019.448","27.87","79.03","-2.721","0.0"],
    [1424989,"2026-08-12 22:10:00","1076","0.515","259.2","0.882","260.1","1019.4910000000001","27.67","80.1","-2.9589999999999996","0.0"],
    [1424990,"2026-08-12 22:20:00","1077","0.628","259.3","0.98","250","1019.618","27.66","79.97","-2.595","0.0"],
    [1424991,"2026-08-12 22:30:00","1078","0.725","270.4","2.156","256.4","1019.6160000000001","27.52","79.87","-2.6210000000000004","0.0"],
    [1424992,"2026-08-12 22:40:00","1079","1.006","278.8","1.96","260.7","1019.561","27.57","78.75","-2.6069999999999998","0.0"],
    [1424993,"2026-08-12 22:50:00","1080","1.252","261.5","2.058","274","1019.466","27.54","78.19","-2.693","0.0"],
    [1424994,"2026-08-12 23:00:00","1081","1.031","274.6","1.862","264.3","1019.444","27.57","77.57","-2.612","0.0"],
    [1424995,"2026-08-12 23:10:00","1082","1.088","268.8","1.96","255.6","1019.446","27.64","77.05","-2.603","0.0"],
    [1424996,"2026-08-12 23:20:00","1083","1.001","274.0","1.764","274.6","1019.3939999999999","27.61","76.91","-2.597","0.0"],
    [1424997,"2026-08-12 23:30:00","1084","0.9940000000000001","275.2","1.764","287.5","1019.342","27.39","77.47","-2.8339999999999996","0.0"],
    [1424998,"2026-08-12 23:40:00","1085","0.9520000000000001","275.6","1.764","280.9","1019.245","27.3","77.74","-2.6510000000000002","0.0"],
    [1424999,"2026-08-12 23:50:00","1086","1.001","275.6","1.568","283.6","1019.172","26.91","79.0","-2.841","0.0"],
    [1425000,"2026-08-13 00:00:00","1087","0.873","285.5","1.568","300.2","1019.091","26.83","79.12","-2.717","0.0"],
    [1425001,"2026-08-13 00:10:00","1088","0.8","278.3","1.47","278.7","1018.971","26.69","79.27","-2.609","0.0"],
    [1425002,"2026-08-13 00:20:00","1089","0.758","280.9","1.274","283","1018.842","26.67","79.18","-2.627","0.0"],
    [1425003,"2026-08-13 00:30:00","1090","0.91","259.2","1.372","268.6","1018.763","26.75","78.46","-2.6210000000000004","0.0"],
    [1425004,"2026-08-13 00:40:00","1091","0.905","252.3","1.666","278.9","1018.687","26.87","77.56","-2.6010000000000004","0.0"],
    [1425005,"2026-08-13 00:50:00","1092","1.548","273.7","2.45","271.5","1018.633","26.82","78.06","-2.641","0.0"],
    [1425006,"2026-08-13 01:00:00","1093","1.228","265.3","2.45","273.1","1018.5830000000001","26.74","78.27","-2.6010000000000004","0.0"],
    [1425007,"2026-08-13 01:10:00","1094","1.4280000000000002","275.1","2.254","264.7","1018.508","26.48","78.79","-2.6","0.0"],
    [1425008,"2026-08-13 01:20:00","1095","0.948","282.3","1.666","283","1018.495","26.23","79.78","-2.6189999999999998","0.0"],
    [1425009,"2026-08-13 01:30:00","1096","0.9059999999999999","273.5","1.47","271.5","1018.472","25.98","80.5","-2.7960000000000003","0.0"],
    [1425010,"2026-08-13 01:40:00","1097","1.158","275.3","1.666","271.8","1018.385","26.13","79.61","-2.6039999999999996","0.0"],
    [1425011,"2026-08-13 01:50:00","1098","1.28","277.8","1.862","281.8","1018.3530000000001","25.97","79.36","-2.593","0.0"],
    [1425012,"2026-08-13 02:00:00","1099","0.9520000000000001","267.9","1.666","269.8","1018.329","25.86","79.09","-2.593","0.0"],
    [1425013,"2026-08-13 02:10:00","1100","0.922","271.7","2.156","276.2","1018.331","25.78","78.12","-2.593","0.0"],
    [1425014,"2026-08-13 02:20:00","1101","1.7","277.8","2.352","269","1018.305","25.67","78.15","-2.593","0.0"],
    [1425015,"2026-08-13 02:30:00","1102","1.665","273.0","2.156","276.9","1018.309","25.55","78.7","-2.593","0.0"],
    [1425016,"2026-08-13 02:40:00","1103","1.256","278.8","2.254","275.3","1018.252","25.49","78.64","-2.593","0.0"],
    [1425017,"2026-08-13 02:50:00","1104","1.331","269.2","2.058","277.3","1018.2289999999999","25.45","79.1","-2.594","0.0"],
    [1425018,"2026-08-13 03:00:00","1105","1.8090000000000002","265.1","2.842","272.8","1018.2289999999999","25.67","79.04","-2.593","0.0"],
    [1425019,"2026-08-13 03:10:00","1106","1.4869999999999999","273.8","2.548","274.8","1018.313","25.64","78.82","-2.593","0.0"],
    [1425020,"2026-08-13 03:20:00","1107","1.821","277.2","2.646","273.8","1018.308","25.37","77.89","-2.591","0.0"],
    [1425021,"2026-08-13 03:30:00","1108","1.8559999999999999","270.6","2.744","268.6","1018.262","25.11","76.41","-2.593","0.0"],
    [1425022,"2026-08-13 03:40:00","1109","1.575","277.7","3.234","283.3","1018.255","25.15","73.94","-2.593","0.0"],
    [1425023,"2026-08-13 03:50:00","1110","1.22","290.9","2.254","269.8","1018.2330000000001","24.88","73.84","-2.635","0.0"],
    [1425024,"2026-08-13 04:00:00","1111","1.281","283.2","2.646","285.2","1018.24","25.0","73.96","-2.61","0.0"],
    [1425025,"2026-08-13 04:10:00","1112","1.528","284.8","3.43","279","1018.2510000000001","25.02","74.07","-2.593","0.0"],
    [1425026,"2026-08-13 04:20:00","1113","1.3880000000000001","295.9","2.352","275","1018.265","25.11","73.75","-2.593","0.0"],
    [1425027,"2026-08-13 04:30:00","1114","1.7990000000000002","294.8","3.332","303.1","1018.299","25.32","72.25","-2.56","0.0"],
    [1425028,"2026-08-13 04:40:00","1115","1.895","294.7","3.92","301.6","1018.3639999999999","25.22","71.67","-2.019","0.0"],
    [1425029,"2026-08-13 04:50:00","1116","1.805","297.0","3.234","309.9","1018.416","25.14","70.97","-1.376","0.0"],
    [1425030,"2026-08-13 05:00:00","1117","1.735","293.7","3.038","310.8","1018.4119999999999","25.27","70.47","0.889","0.0"],
    [1425031,"2026-08-13 05:10:00","1118","0.961","287.4","1.764","283.5","1018.423","25.35","70.27","6.7170000000000005","0.0"],
    [1425032,"2026-08-13 05:20:00","1119","1.527","280.9","2.45","288","1018.4939999999999","25.33","70.33","19.2","0.0"],
    [1425033,"2026-08-13 05:30:00","1120","1.39","278.8","2.156","276.2","1018.5169999999999","25.28","70.55","35.86","0.0"],
    [1425034,"2026-08-13 05:40:00","1121","1.554","277.8","2.156","285.8","1018.523","25.31","70.1","50.31","0.0"],
    [1425035,"2026-08-13 05:50:00","1122","1.516","276.3","2.646","290.2","1018.5260000000001","25.48","68.83","62.82","0.0"],
    [1425036,"2026-08-13 06:00:00","1123","1.7269999999999999","279.0","2.842","283.3","1018.623","25.72","67.4","76.52","0.0"],
    [1425037,"2026-08-13 06:10:00","1124","1.486","272.7","3.038","280.5","1018.7769999999999","26.05","65.87","89.2","0.0"],
    [1425038,"2026-08-13 06:20:00","1125","1.6780000000000002","280.8","2.646","284","1018.893","26.27","64.99","77.82","0.0"],
    [1425039,"2026-08-13 06:30:00","1126","1.8030000000000002","269.2","2.94","303","1018.965","26.34","64.67","142.5","0.0"],
    [1425040,"2026-08-13 06:40:00","1127","1.7480000000000002","272.5","2.842","279","1019.0239999999999","26.6","63.39","179.2","0.0"],
    [1425041,"2026-08-13 06:50:00","1128","1.6340000000000001","278.7","3.136","293.5","1019.034","27.09","61.7","206.0","0.0"],
    [1425042,"2026-08-13 07:00:00","1129","2.086","300.6","3.038","311.4","1019.057","27.94","58.95","231.3","0.0"],
    [1425043,"2026-08-13 07:10:00","1130","1.9369999999999998","305.5","2.744","303.4","1019.0889999999999","28.65","56.6","260.7","0.0"],
    [1425044,"2026-08-13 07:20:00","1131","1.869","307.3","3.038","310.6","1019.0369999999999","29.42","54.15","290.3","0.0"],
    [1425045,"2026-08-13 07:30:00","1132","1.7180000000000002","313.0","2.548","293.9","1018.9889999999999","29.88","52.69","320.8","0.0"],
    [1425046,"2026-08-13 07:40:00","1133","1.696","299.2","2.646","308.2","1019.0039999999999","30.16","51.51","352.4","0.0"],
    [1425047,"2026-08-13 07:50:00","1134","1.053","307.5","2.254","302.4","1018.9860000000001","30.74","50.17","386.9","0.0"],
    [1425048,"2026-08-13 08:00:00","1135","0.9359999999999999","311.0","1.862","350.2","1018.951","31.45","46.99","413.8","0.0"],
    [1425049,"2026-08-13 08:10:00","1136","0.675","66.42","2.45","78.51","1018.946","32.38","44.69","436.2","0.0"],
    [1425050,"2026-08-13 08:20:00","1137","1.5759999999999998","92.5","2.548","75.22","1018.98","31.68","49.7","496.6","0.0"],
    [1425051,"2026-08-13 08:30:00","1138","2.092","91.6","3.234","89.8","1019.0","31.13","52.77","497.5","0.0"],
    [1425052,"2026-08-13 08:40:00","1139","2.204","92.6","3.724","83.4","1018.992","31.16","55.22","521.1","0.0"],
    [1425053,"2026-08-13 08:50:00","1140","1.798","102.0","3.038","100.5","1019.0210000000001","30.75","58.75","557.6","0.0"],
    [1425054,"2026-08-13 09:00:00","1141","1.646","105.2","3.136","134.7","1019.0319999999999","31.08","54.49","590.0","0.0"],
    [1425055,"2026-08-13 09:10:00","1142","1.8230000000000002","104.7","3.234","99.4","1019.064","31.4","55.87","622.9","0.0"],
    [1425056,"2026-08-13 09:20:00","1143","1.8719999999999999","105.8","3.92","80.6","1019.115","31.47","59.12","651.6","0.0"],
    [1425057,"2026-08-13 09:30:00","1144","2.247","105.5","4.312","93.5","1019.199","31.05","60.55","679.1","0.0"],
    [1425058,"2026-08-13 09:40:00","1145","2.059","106.8","4.018","109.6","1019.283","31.33","58.76","693.6","0.0"],
    [1425059,"2026-08-13 09:50:00","1146","1.055","146.6","3.332","150.8","1019.2919999999999","31.63","54.46","714.4","0.0"],
    [1425060,"2026-08-13 10:00:00","1147","1.032","118.4","3.136","116.4","1019.293","32.04","50.56","734.0","0.0"],
    [1425061,"2026-08-13 10:10:00","1148","1.161","132.4","3.234","122.4","1019.33","32.73","45.31","756.6","0.0"],
    [1425062,"2026-08-13 10:20:00","1149","1.764","185.4","5.39","222.9","1019.3480000000001","32.57","46.02","777.0","0.0"],
    [1425063,"2026-08-13 10:30:00","1150","1.9269999999999998","194.0","3.822","186.1","1019.3760000000001","32.33","47.59","798.2","0.0"],
    [1425064,"2026-08-13 10:40:00","1151","2.349","180.5","4.802","154.7","1019.404","32.66","45.69","808.0","0.0"],
    [1425065,"2026-08-13 10:50:00","1152","2.4219999999999997","170.9","4.802","188","1019.446","32.13","44.41","812.0","0.0"],
    [1425066,"2026-08-13 11:00:00","1153","2.6630000000000003","189.2","5.096","193.2","1019.462","32.73","44.17","822.0","0.0"],
    [1425067,"2026-08-13 11:10:00","1154","2.762","192.6","4.9","186.2","1019.442","32.58","46.82","832.0","0.0"],
    [1425068,"2026-08-13 11:20:00","1155","2.7569999999999997","200.7","5.39","183.5","1019.43","32.84","43.69","834.0","0.0"],
    [1425069,"2026-08-13 11:30:00","1156","2.9189999999999996","202.0","7.742","185","1019.451","32.61","45.75","841.0","0.0"],
    [1425070,"2026-08-13 11:40:00","1157","3.548","184.8","5.978","185.4","1019.4889999999999","32.26","48.09","855.0","0.0"],
    [1425071,"2026-08-13 11:50:00","1158","3.511","189.0","6.174","174.8","1019.457","31.82","52.88","866.0","0.0"],
    [1425072,"2026-08-13 12:00:00","1159","3.54","180.5","5.88","166.2","1019.435","31.85","55.6","874.0","0.0"],
    [1425073,"2026-08-13 12:10:00","1160","3.283","192.6","6.37","183.9","1019.455","32.08","57.26","874.0","0.0"],
    [1425074,"2026-08-13 12:20:00","1161","3.4960000000000004","189.8","6.37","158.3","1019.3989999999999","31.75","58.01","874.0","0.0"],
    [1425075,"2026-08-13 12:30:00","1162","3.1519999999999997","180.8","6.272","159.5","1019.4169999999999","32.2","54.82","872.0","0.0"],
    [1425076,"2026-08-13 12:40:00","1163","3.355","185.0","6.272","176.2","1019.454","32.08","54.42","865.0","0.0"],
    [1425077,"2026-08-13 12:50:00","1164","2.915","193.1","5.488","159.2","1019.419","32.38","54.34","862.0","0.0"],
    [1425078,"2026-08-13 13:00:00","1165","3.136","184.1","7.35","165.5","1019.3660000000001","32.32","56.04","850.0","0.0"],
    [1425079,"2026-08-13 13:10:00","1166","3.2539999999999996","179.9","5.684","162.2","1019.316","32.04","57.86","840.0","0.0"],
    [1425080,"2026-08-13 13:20:00","1167","2.5780000000000003","194.7","5.978","175.9","1019.222","32.21","59.53","823.0","0.0"],
    [1425081,"2026-08-13 13:30:00","1168","2.736","189.5","5.39","172.1","1019.187","32.15","59.38","809.0","0.0"],
    [1425082,"2026-08-13 13:40:00","1169","3.4819999999999998","179.5","6.272","165","1019.132","31.72","61.38","794.6","0.0"],
    [1425083,"2026-08-13 13:50:00","1170","3.912","201.8","6.468","203.6","1019.028","31.65","61.88","777.0","0.0"],
    [1425084,"2026-08-13 14:00:00","1171","3.7880000000000003","207.7","5.684","225.9","1019.012","31.7","61.85","763.6","0.0"],
    [1425085,"2026-08-13 14:10:00","1172","3.614","203.0","6.272","227.4","1018.9630000000001","31.78","61.14","742.6","0.0"],
    [1425086,"2026-08-13 14:20:00","1173","3.346","191.7","5.88","169","1018.805","31.74","62.7","735.7","0.0"],
    [1425087,"2026-08-13 14:30:00","1174","3.103","194.1","5.782","207.2","1018.687","31.83","63.38","721.1","0.0"],
    [1425088,"2026-08-13 14:40:00","1175","3.455","210.3","5.782","221","1018.575","32.14","61.16","700.7","0.0"],
    [1425089,"2026-08-13 14:50:00","1176","2.9989999999999997","205.7","5.586","214.1","1018.5089999999999","32.02","61.92","676.3","0.0"],
    [1425090,"2026-08-13 15:00:00","1177","3.0460000000000003","197.2","5.194","237.2","1018.525","31.92","60.75","646.8","0.0"],
    [1425091,"2026-08-13 15:10:00","1178","2.613","195.2","4.998","179.3","1018.395","31.66","61.7","621.2","0.0"],
    [1425092,"2026-08-13 15:20:00","1179","2.903","193.4","5.782","164.6","1018.195","31.62","61.19","594.1","0.0"],
    [1425093,"2026-08-13 15:30:00","1180","2.9160000000000004","175.3","5.684","178.7","1018.1519999999999","31.46","62.9","559.5","0.0"],
    [1425094,"2026-08-13 15:40:00","1181","2.833","187.5","6.272","144.9","1018.227","31.21","63.5","526.7","0.0"],
    [1425095,"2026-08-13 15:50:00","1182","2.918","194.9","5.096","175.3","1018.3910000000001","31.34","64.11","497.7","0.0"],
    [1425096,"2026-08-13 16:00:00","1183","2.533","208.9","4.802","208.1","1018.422","31.43","62.47","448.8","0.0"],
    [1425097,"2026-08-13 16:10:00","1184","2.325","209.6","4.606","228.9","1018.414","31.65","59.41","438.5","0.0"],
    [1425098,"2026-08-13 16:20:00","1185","2.381","212.4","4.312","220.9","1018.307","31.85","59.11","389.4","0.0"],
    [1425099,"2026-08-13 16:30:00","1186","2.186","211.0","3.822","232.5","1018.177","31.79","59.35","385.6","0.0"],
    [1425100,"2026-08-13 16:40:00","1187","2.362","200.0","5.88","225.5","1018.038","31.73","58.73","350.9","0.0"],
    [1425101,"2026-08-13 16:50:00","1188","2.891","196.9","4.41","205","1017.9810000000001","31.34","61.1","320.9","0.0"],
    [1425102,"2026-08-13 17:00:00","1189","2.157","203.8","4.214","206.5","1017.922","31.33","60.78","292.7","0.0"],
    [1425103,"2026-08-13 17:10:00","1190","1.8630000000000002","216.0","3.136","223.5","1017.84","31.4","59.33","264.2","0.0"],
    [1425104,"2026-08-13 17:20:00","1191","1.854","210.9","3.136","181.5","1017.7360000000001","31.35","57.12","234.5","0.0"],
    [1425105,"2026-08-13 17:30:00","1192","2.16","203.6","3.92","200.9","1017.618","31.36","54.19","202.5","0.0"],
    [1425106,"2026-08-13 17:40:00","1193","1.972","196.0","4.312","222.8","1017.625","31.15","57.63","166.0","0.0"],
    [1425107,"2026-08-13 17:50:00","1194","1.6969999999999998","202.9","3.528","180.1","1017.752","30.83","61.31","132.6","0.0"],
    [1425108,"2026-08-13 18:00:00","1195","1.984","199.3","4.802","200.1","1017.705","30.72","60.43","89.8","0.0"],
    [1425109,"2026-08-13 18:10:00","1196","1.794","197.6","4.9","207","1017.7610000000001","30.48","65.47","67.54","0.0"],
    [1425110,"2026-08-13 18:20:00","1197","1.79","194.9","4.606","210.5","1017.903","30.07","70.1","44.01","0.0"],
    [1425111,"2026-08-13 18:30:00","1198","1.569","191.2","2.94","237","1017.9939999999999","29.83","71.71","31.2","0.0"],
    [1425112,"2026-08-13 18:40:00","1199","1.814","200.1","4.508","221.5","1018.054","29.63","73.62","15.61","0.0"],
    [1425113,"2026-08-13 18:50:00","1200","2.1180000000000003","207.3","4.998","225.4","1018.125","29.41","75.15","3.915","0.0"],
    [1425114,"2026-08-13 19:00:00","1201","2.029","204.4","4.41","238.4","1018.16","29.34","76.54","0.019","0.0"],
    [1425115,"2026-08-13 19:10:00","1202","1.9080000000000001","211.3","3.43","240.4","1018.242","29.18","77.63","-1.726","0.0"],
    [1425116,"2026-08-13 19:20:00","1203","1.996","212.7","4.214","235.3","1018.3489999999999","29.08","78.39","-2.5269999999999997","0.0"],
    [1425117,"2026-08-13 19:30:00","1204","2.497","219.4","4.214","171.4","1018.4780000000001","29.01","78.88","-2.531","0.0"],
    [1425118,"2026-08-13 19:40:00","1205","3.2030000000000003","215.1","6.076","228","1018.5039999999999","29.0","78.59","-2.54","0.0"],
    [1425119,"2026-08-13 19:50:00","1206","2.991","219.3","4.606","229.4","1018.492","28.96","78.59","-2.545","0.0"],
    [1425120,"2026-08-13 20:00:00","1207","2.8","216.5","5.488","203.7","1018.434","28.91","78.84","-2.545","0.0"],
    [1425121,"2026-08-13 20:10:00","1208","3.082","214.5","4.998","192.6","1018.426","28.85","78.64","-2.546","0.0"],
    [1425122,"2026-08-13 20:20:00","1209","2.16","208.8","6.762","220.8","1018.4019999999999","28.83","78.21","-2.5469999999999997","0.0"],
    [1425123,"2026-08-13 20:30:00","1210","1.9809999999999999","213.3","6.566","257.7","1018.341","28.78","78.14","-2.575","0.0"],
    [1425124,"2026-08-13 20:40:00","1211","3.017","215.0","6.664","210.1","1018.332","28.76","77.47","-2.622","0.0"],
    [1425125,"2026-08-13 20:50:00","1212","2.424","214.2","4.998","236.9","1018.245","28.75","77.23","-2.5660000000000003","0.0"],
    [1425126,"2026-08-13 21:00:00","1213","3.037","223.8","5.488","218.8","1018.258","28.76","76.77","-2.555","0.0"],
    [1425127,"2026-08-13 21:10:00","1214","2.141","229.8","3.626","239.8","1018.2410000000001","28.7","76.86","-2.551","0.0"],
    [1425128,"2026-08-13 21:20:00","1215","2.667","227.4","3.822","221.4","1018.193","28.61","77.1","-2.553","0.0"],
    [1425129,"2026-08-13 21:30:00","1216","3.3","226.9","4.312","218.5","1018.135","28.55","77.19","-2.5580000000000003","0.0"],
    [1425130,"2026-08-13 21:40:00","1217","2.7769999999999997","227.1","4.606","230.4","1018.102","28.51","76.31","-2.5610000000000004","0.0"],
    [1425131,"2026-08-13 21:50:00","1218","1.788","229.9","3.234","230.4","1018.1060000000001","28.42","75.58","-2.565","0.0"],
    [1425132,"2026-08-13 22:00:00","1219","1.9909999999999999","233.5","3.234","235","1018.086","28.34","75.71","-2.575","0.0"],
    [1425133,"2026-08-13 22:10:00","1220","1.9980000000000002","231.6","3.234","226.2","1018.077","28.24","76.23","-2.575","0.0"],
    [1425134,"2026-08-13 22:20:00","1221","2.298","229.5","3.528","217.6","1017.945","28.3","76.21","-2.574","0.0"],
    [1425135,"2026-08-13 22:30:00","1222","2.2030000000000003","230.9","3.332","247.9","1018.008","28.27","76.61","-2.583","0.0"],
    [1425136,"2026-08-13 22:40:00","1223","1.778","231.4","3.43","272.4","1018.008","28.16","77.25","-2.5860000000000003","0.0"],
    [1425137,"2026-08-13 22:50:00","1224","1.3840000000000001","233.7","2.548","230.2","1018.08","28.0","78.09","-2.597","0.0"],
    [1425138,"2026-08-13 23:00:00","1225","1.6480000000000001","237.1","2.842","223.7","1018.043","27.85","77.49","-2.616","0.0"],
    [1425139,"2026-08-13 23:10:00","1226","1.0","253.1","2.254","270.1","1017.9810000000001","27.77","74.18","-2.694","0.0"],
    [1425140,"2026-08-13 23:20:00","1227","1.3159999999999998","232.7","2.548","226.5","1017.867","27.79","69.11","-3.043","0.0"],
    [1425141,"2026-08-13 23:30:00","1228","1.604","230.8","3.332","227","1017.73","27.89","65.85","-2.65","0.0"],
    [1425142,"2026-08-13 23:40:00","1229","1.256","247.9","2.45","248","1017.655","27.87","64.25","-2.648","0.0"],
    [1425143,"2026-08-13 23:50:00","1230","1.389","235.6","2.45","243.6","1017.63","27.76","63.36","-2.722","0.0"],
    [1425144,"2026-08-14 00:00:00","1231","1.9680000000000002","227.8","2.842","237.4","1017.467","27.76","62.25","-2.6239999999999997","0.0"],
    [1425145,"2026-08-14 00:10:00","1232","1.706","229.9","2.94","215.6","1017.421","27.54","62.11","-2.595","0.0"],
    [1425146,"2026-08-14 00:20:00","1233","1.35","232.8","2.646","231.5","1017.297","27.43","61.55","-2.7739999999999996","0.0"],
    [1425147,"2026-08-14 00:30:00","1234","1.064","245.8","2.156","255.2","1017.133","27.32","61.37","-2.699","0.0"],
    [1425148,"2026-08-14 00:40:00","1235","1.7690000000000001","230.1","3.332","253.8","1016.9760000000001","27.26","61.33","-2.804","0.0"],
    [1425149,"2026-08-14 00:50:00","1236","1.01","237.6","2.156","261.9","1016.934","27.06","62.07","-2.784","0.0"],
    [1425150,"2026-08-14 01:00:00","1237","1.815","242.3","3.136","261","1016.852","27.11","61.81","-2.8960000000000004","0.0"],
    [1425151,"2026-08-14 01:10:00","1238","1.9609999999999999","264.1","4.116","266.1","1016.7360000000001","27.18","61.47","-2.603","0.0"],
    [1425152,"2026-08-14 01:20:00","1239","1.9780000000000002","263.2","3.92","267.3","1016.7","27.22","61.81","-2.717","0.0"],
    [1425153,"2026-08-14 01:30:00","1240","2.489","250.2","4.214","211.4","1016.685","27.2","62.96","-2.602","0.0"],
    [1425154,"2026-08-14 01:40:00","1241","1.652","238.1","3.43","244.4","1016.676","26.89","64.7","-2.595","0.0"],
    [1425155,"2026-08-14 01:50:00","1242","1.659","255.6","2.94","278.5","1016.569","26.83","64.32","-2.702","0.0"],
    [1425156,"2026-08-14 02:00:00","1243","1.555","271.5","2.548","263.8","1016.449","26.69","63.59","-2.5989999999999998","0.0"],
    [1425157,"2026-08-14 02:10:00","1244","1.301","258.2","2.45","270.8","1016.3710000000001","26.52","63.29","-2.605","0.0"],
    [1425158,"2026-08-14 02:20:00","1245","1.7630000000000001","246.6","3.136","257","1016.419","26.77","61.43","-2.675","0.0"],
    [1425159,"2026-08-14 02:30:00","1246","1.745","273.2","3.332","256.9","1016.342","26.81","60.46","-2.5989999999999998","0.0"],
    [1425160,"2026-08-14 02:40:00","1247","1.935","269.1","3.626","250.9","1016.3","26.61","59.25","-2.6","0.0"],
    [1425161,"2026-08-14 02:50:00","1248","2.049","282.3","4.116","281.4","1016.203","26.42","58.24","-2.6189999999999998","0.0"],
    [1425162,"2026-08-14 03:00:00","1249","2.173","270.0","4.802","275.7","1016.063","26.82","56.07","-2.793","0.0"],
    [1425163,"2026-08-14 03:10:00","1250","2.1430000000000002","277.2","4.018","284.1","1015.944","26.94","55.41","-2.6180000000000003","0.0"],
    [1425164,"2026-08-14 03:20:00","1251","2.502","285.6","3.92","293.4","1015.885","27.08","54.38","-2.801","0.0"],
    [1425165,"2026-08-14 03:30:00","1252","2.424","297.5","3.92","303.7","1015.8939999999999","27.09","54.14","-2.7030000000000003","0.0"],
    [1425166,"2026-08-14 03:40:00","1253","1.61","268.0","2.94","248.2","1015.91","26.95","54.56","-2.637","0.0"],
    [1425167,"2026-08-14 03:50:00","1254","1.158","272.0","2.058","265.1","1015.966","26.47","56.42","-2.7110000000000003","0.0"],
    [1425168,"2026-08-14 04:00:00","1255","1.371","274.7","2.548","289.8","1015.975","26.0","57.92","-3.122","0.0"],
    [1425169,"2026-08-14 04:10:00","1256","1.3869999999999998","279.7","2.744","283.2","1015.951","26.01","57.1","-3.2260000000000004","0.0"],
    [1425170,"2026-08-14 04:20:00","1257","1.7309999999999999","286.5","2.842","297","1015.919","26.0","56.47","-2.852","0.0"],
    [1425171,"2026-08-14 04:30:00","1258","2.252","303.7","3.724","320","1015.918","26.26","54.65","-3.173","0.0"],
    [1425172,"2026-08-14 04:40:00","1259","1.527","284.3","2.94","278.6","1015.8910000000001","26.74","53.0","-2.8560000000000003","0.0"],
    [1425173,"2026-08-14 04:50:00","1260","1.518","287.4","2.94","293.7","1015.905","26.43","54.56","-2.388","0.0"],
    [1425174,"2026-08-14 05:00:00","1261","3.0180000000000002","302.2","5.194","310.2","1015.8969999999999","26.4","55.18","-0.192","0.0"],
    [1425175,"2026-08-14 05:10:00","1262","2.824","298.6","5.39","303.1","1015.878","26.8","53.65","5.306","0.0"],
    [1425176,"2026-08-14 05:20:00","1263","2.391","300.7","4.312","297.1","1015.903","26.8","53.29","15.28","0.0"],
    [1425177,"2026-08-14 05:30:00","1264","2.068","286.7","3.724","287.9","1015.936","26.65","53.89","29.65","0.0"],
    [1425178,"2026-08-14 05:40:00","1265","2.345","273.3","4.998","274.1","1015.904","26.83","52.96","46.41","0.0"],
    [1425179,"2026-08-14 05:50:00","1266","2.405","279.2","4.312","285.1","1015.9630000000001","26.89","52.41","63.55","0.0"],
    [1425180,"2026-08-14 06:00:00","1267","2.622","279.9","5.292","263.8","1016.1080000000001","26.87","52.37","81.9","0.0"],
    [1425181,"2026-08-14 06:10:00","1268","1.811","280.4","3.626","283.6","1016.1510000000001","26.86","52.58","103.3","0.0"],
    [1425182,"2026-08-14 06:20:00","1269","1.869","282.1","3.234","278.4","1016.2130000000001","26.95","52.18","128.6","0.0"],
    [1425183,"2026-08-14 06:30:00","1270","2.032","280.8","2.94","291.3","1016.2439999999999","27.2","51.73","156.8","0.0"],
    [1425184,"2026-08-14 06:40:00","1271","1.5119999999999998","258.2","2.842","277.5","1016.268","27.52","51.32","184.6","0.0"],
    [1425185,"2026-08-14 06:50:00","1272","1.123","273.8","2.94","312.3","1016.327","28.04","50.27","215.9","0.0"],
    [1425186,"2026-08-14 07:00:00","1273","1.931","293.5","3.234","293.6","1016.355","28.53","49.46","248.1","0.0"],
    [1425187,"2026-08-14 07:10:00","1274","2.15","286.6","3.234","286.5","1016.383","28.99","48.61","283.1","0.0"],
    [1425188,"2026-08-14 07:20:00","1275","2.063","287.8","3.136","285.8","1016.4060000000001","29.31","48.45","317.6","0.0"],
    [1425189,"2026-08-14 07:30:00","1276","2.2969999999999997","281.3","3.43","297.6","1016.3510000000001","29.51","46.99","347.9","0.0"],
    [1425190,"2026-08-14 07:40:00","1277","1.9180000000000001","277.9","3.038","280.7","1016.3660000000001","29.83","45.13","379.6","0.0"],
    [1425191,"2026-08-14 07:50:00","1278","1.699","273.7","4.116","295.3","1016.322","30.24","42.76","410.0","0.0"],
    [1425192,"2026-08-14 08:00:00","1279","2.591","268.9","4.41","260.5","1016.301","30.61","40.84","443.2","0.0"],
    [1425193,"2026-08-14 08:10:00","1280","2.654","275.9","4.704","279.5","1016.294","31.01","40.18","451.4","0.0"],
    [1425194,"2026-08-14 08:20:00","1281","2.006","236.8","4.9","186.9","1016.313","31.57","39.43","510.0","0.0"],
    [1425195,"2026-08-14 08:30:00","1282","2.255","233.9","4.802","229.3","1016.3330000000001","31.87","38.87","521.6","0.0"],
    [1425196,"2026-08-14 08:40:00","1283","2.525","223.3","4.508","234.3","1016.294","32.27","38.22","581.0","0.0"],
    [1425197,"2026-08-14 08:50:00","1284","2.701","222.5","4.998","229.4","1016.2610000000001","32.44","37.59","613.2","0.0"],
    [1425198,"2026-08-14 09:00:00","1285","2.86","216.0","5.782","226.3","1016.237","32.78","40.03","638.3","0.0"],
    [1425199,"2026-08-14 09:10:00","1286","3.4810000000000003","216.7","5.88","228.4","1016.199","32.22","46.91","665.1","0.0"],
    [1425200,"2026-08-14 09:20:00","1287","3.495","210.4","6.174","223.8","1016.2080000000001","32.32","48.81","690.2","0.0"],
    [1425201,"2026-08-14 09:30:00","1288","3.8289999999999997","218.2","6.762","202.6","1016.2280000000001","32.4","48.87","711.1","0.0"],
    [1425202,"2026-08-14 09:40:00","1289","3.7119999999999997","213.3","6.076","206.2","1016.243","32.62","52.02","728.0","0.0"],
    [1425203,"2026-08-14 09:50:00","1290","3.693","215.4","7.154","217.4","1016.2689999999999","32.64","53.27","749.3","0.0"],
    [1425204,"2026-08-14 10:00:00","1291","4.707","215.5","7.938","216.8","1016.2710000000001","32.29","57.16","771.8","0.0"],
    [1425205,"2026-08-14 10:10:00","1292","4.197","216.2","7.644","229.5","1016.2260000000001","32.17","61.05","794.2","0.0"],
    [1425206,"2026-08-14 10:20:00","1293","4.005","211.5","8.62","212.8","1016.196","32.3","60.44","819.0","0.0"],
    [1425207,"2026-08-14 10:30:00","1294","4.234","214.8","7.938","197.8","1016.137","32.3","60.43","832.0","0.0"],
    [1425208,"2026-08-14 10:40:00","1295","4.729","215.0","7.742","207.4","1016.074","32.27","61.11","844.0","0.0"],
    [1425209,"2026-08-14 10:50:00","1296","3.8739999999999997","211.4","7.546","224.3","1015.998","32.54","61.04","855.0","0.0"],
    [1425210,"2026-08-14 11:00:00","1297","3.8289999999999997","207.4","6.86","207.3","1015.922","32.59","61.92","866.0","0.0"],
    [1425211,"2026-08-14 11:10:00","1298","4.525","214.5","9.51","196.6","1015.834","32.64","61.36","879.0","0.0"],
    [1425212,"2026-08-14 11:20:00","1299","4.062","209.0","8.04","216.3","1015.753","32.92","59.83","887.0","0.0"],
    [1425213,"2026-08-14 11:30:00","1300","4.4830000000000005","217.8","7.252","200.7","1015.683","32.97","58.16","894.0","0.0"],
    [1425214,"2026-08-14 11:40:00","1301","5.445","216.0","8.82","273.5","1015.6089999999999","32.91","56.94","902.0","0.0"],
    [1425215,"2026-08-14 11:50:00","1302","6.416","216.1","10.78","229.5","1015.4939999999999","32.92","56.15","904.0","0.0"],
    [1425216,"2026-08-14 12:00:00","1303","4.743","213.5","7.84","229","1015.438","33.34","57.04","909.0","0.0"],
    [1425217,"2026-08-14 12:10:00","1304","4.544","213.7","8.33","215.2","1015.3689999999999","33.45","58.55","920.0","0.0"],
    [1425218,"2026-08-14 12:20:00","1305","3.464","205.7","6.664","213.8","1015.299","33.72","59.8","923.0","0.0"],
    [1425219,"2026-08-14 12:30:00","1306","4.3260000000000005","213.4","7.742","224.4","1015.2389999999999","33.37","60.96","864.0","0.0"],
    [1425220,"2026-08-14 12:40:00","1307","5.216","218.6","8.92","215.8","1015.175","32.77","62.0","823.0","0.0"],
    [1425221,"2026-08-14 12:50:00","1308","4.57","215.2","7.546","231.5","1015.0989999999999","32.73","62.63","834.0","0.0"],
    [1425222,"2026-08-14 13:00:00","1309","4.369","210.4","9.21","225.8","1015.0269999999999","32.82","61.92","748.8","0.0"],
    [1425223,"2026-08-14 13:10:00","1310","4.431","211.7","9.6","221.8","1014.9580000000001","32.64","62.22","741.3","0.0"],
    [1425224,"2026-08-14 13:20:00","1311","4.081","207.9","8.53","206.2","1014.8510000000001","32.67","61.38","715.2","0.0"],
    [1425225,"2026-08-14 13:30:00","1312","5.353","213.5","8.72","228.4","1014.7360000000001","32.33","61.09","698.8","0.0"],
    [1425226,"2026-08-14 13:40:00","1313","5.148","212.7","8.72","209.9","1014.584","32.45","60.89","753.3","0.0"],
    [1425227,"2026-08-14 13:50:00","1314","4.229","209.6","7.35","212.3","1014.451","32.58","61.48","767.5","0.0"],
    [1425228,"2026-08-14 14:00:00","1315","4.263999999999999","208.2","7.84","227.1","1014.329","32.92","60.43","765.3","0.0"],
    [1425229,"2026-08-14 14:10:00","1316","4.9830000000000005","210.3","8.13","209.5","1014.27","32.84","59.43","770.1","0.0"],
    [1425230,"2026-08-14 14:20:00","1317","4.891","209.2","8.33","218.1","1014.24","32.56","60.3","740.8","0.0"],
    [1425231,"2026-08-14 14:30:00","1318","4.401","206.3","8.62","211.5","1014.192","32.67","60.89","699.2","0.0"],
    [1425232,"2026-08-14 14:40:00","1319","5.199","212.8","8.92","238.1","1014.17","32.18","62.06","640.9","0.0"],
    [1425233,"2026-08-14 14:50:00","1320","4.039","205.5","7.35","209.6","1014.143","32.32","63.25","654.8","0.0"],
    [1425234,"2026-08-14 15:00:00","1321","3.188","206.0","6.86","227.8","1014.047","32.6","61.49","654.9","0.0"],
    [1425235,"2026-08-14 15:10:00","1322","3.2569999999999997","202.2","7.252","204.8","1013.925","32.36","62.44","610.5","0.0"],
    [1425236,"2026-08-14 15:20:00","1323","5.141","216.5","8.92","225.5","1013.8910000000001","31.92","63.21","587.5","0.0"],
    [1425237,"2026-08-14 15:30:00","1324","4.137","211.4","7.84","226.9","1013.8530000000001","32.2","61.83","536.0","0.0"],
    [1425238,"2026-08-14 15:40:00","1325","4.399","209.4","7.448","201.1","1013.847","31.85","63.42","522.4","0.0"],
    [1425239,"2026-08-14 15:50:00","1326","4.569","212.4","7.84","214.8","1013.762","31.98","62.67","512.6","0.0"],
    [1425240,"2026-08-14 16:00:00","1327","4.395","215.2","7.35","233.6","1013.6060000000001","32.05","59.69","457.5","0.0"],
    [1425241,"2026-08-14 16:10:00","1328","4.042","214.2","7.056","197.7","1013.587","32.32","59.59","424.3","0.0"],
    [1425242,"2026-08-14 16:20:00","1329","4.002","211.5","6.86","218.7","1013.503","32.14","58.06","397.3","0.0"],
    [1425243,"2026-08-14 16:30:00","1330","4.368","216.0","8.33","234.4","1013.4810000000001","31.86","58.93","307.2","0.0"],
    [1425244,"2026-08-14 16:40:00","1331","4.852","220.1","7.546","222.1","1013.448","31.44","61.25","275.2","0.0"],
    [1425245,"2026-08-14 16:50:00","1332","5.156000000000001","216.5","8.13","226.8","1013.4110000000001","31.26","62.28","223.2","0.0"],
    [1425246,"2026-08-14 17:00:00","1333","4.111000000000001","226.6","7.448","227.3","1013.377","31.17","63.14","247.1","0.0"],
    [1425247,"2026-08-14 17:10:00","1334","4.65","216.7","8.92","198.5","1013.311","31.25","64.89","240.4","0.0"],
    [1425248,"2026-08-14 17:20:00","1335","3.9610000000000003","223.8","7.448","235.6","1013.2669999999999","31.15","65.9","210.1","0.0"],
    [1425249,"2026-08-14 17:30:00","1336","5.105","218.7","8.53","214.8","1013.307","30.99","64.05","179.2","0.0"],
    [1425250,"2026-08-14 17:40:00","1337","4.274","219.0","6.664","226.4","1013.169","31.07","61.59","146.9","0.0"],
    [1425251,"2026-08-14 17:50:00","1338","4.1819999999999995","216.4","7.35","196.4","1013.1339999999999","31.01","60.88","88.3","0.0"],
    [1425252,"2026-08-14 18:00:00","1339","3.4819999999999998","223.7","5.782","201","1013.3810000000001","30.9","59.28","46.86","0.0"],
    [1425253,"2026-08-14 18:10:00","1340","3.4589999999999996","218.0","5.194","227","1013.487","30.78","60.6","31.01","0.0"],
    [1425254,"2026-08-14 18:20:00","1341","3.7119999999999997","217.7","6.272","202.5","1013.533","30.49","61.55","23.98","0.0"],
    [1425255,"2026-08-14 18:30:00","1342","3.114","213.6","5.88","179.2","1013.686","30.31","64.29","17.83","0.0"],
    [1425256,"2026-08-14 18:40:00","1343","3.8480000000000003","215.2","6.37","179.3","1013.735","29.98","68.11","10.45","0.0"],
    [1425257,"2026-08-14 18:50:00","1344","3.923","218.9","7.252","226.6","1013.809","29.9","68.23","2.562","0.0"],
    [1425258,"2026-08-14 19:00:00","1345","3.45","217.1","6.272","217.5","1013.807","29.78","68.96","-0.731","0.0"],
    [1425259,"2026-08-14 19:10:00","1346","3.03","219.1","4.9","234.3","1013.8380000000001","29.69","68.44","-2.299","0.0"],
    [1425260,"2026-08-14 19:20:00","1347","3.1239999999999997","229.0","4.704","224.6","1013.944","29.75","63.29","-2.7880000000000003","0.0"],
    [1425261,"2026-08-14 19:30:00","1348","2.977","224.4","4.41","237.5","1013.98","30.0","62.02","-2.5860000000000003","0.0"],
    [1425262,"2026-08-14 19:40:00","1349","2.677","222.0","4.018","219.4","1013.965","29.76","64.92","-2.783","0.0"],
    [1425263,"2026-08-14 19:50:00","1350","2.109","218.9","3.92","229.6","1013.956","29.7","66.37","-2.7319999999999998","0.0"],
    [1425264,"2026-08-14 20:00:00","1351","2.035","210.6","3.528","209.4","1013.9810000000001","29.52","68.15","-2.923","0.0"],
    [1425265,"2026-08-14 20:10:00","1352","2.123","211.2","3.626","224","1014.053","29.37","70.93","-2.552","0.0"],
    [1425266,"2026-08-14 20:20:00","1353","2.086","223.2","3.43","228.4","1014.1619999999999","29.29","73.11","-1.8119999999999998","0.0"],
    [1425267,"2026-08-14 20:30:00","1354","1.298","233.7","2.352","233.5","1014.3439999999999","29.24","72.18","-1.858","0.0"],
    [1425268,"2026-08-14 20:40:00","1355","1.9380000000000002","230.4","2.94","203.5","1014.262","29.39","72.19","-2.5180000000000002","0.0"],
    [1425269,"2026-08-14 20:50:00","1356","2.158","227.1","3.332","261.9","1014.194","29.34","71.86","-2.548","0.0"],
    [1425270,"2026-08-14 21:00:00","1357","2.2","229.2","4.018","254.4","1014.045","29.39","68.56","-2.695","0.0"],
    [1425271,"2026-08-14 21:10:00","1358","2.8480000000000003","226.1","3.92","223.7","1013.877","29.64","66.47","-2.736","0.0"],
    [1425272,"2026-08-14 21:20:00","1359","2.801","223.8","4.41","217.5","1013.78","29.27","70.06","-2.557","0.0"],
    [1425273,"2026-08-14 21:30:00","1360","2.54","231.9","5.782","228.5","1013.747","29.42","55.11","-3.037","0.0"],
    [1425274,"2026-08-14 21:40:00","1361","2.162","231.7","4.508","204.5","1013.703","30.0","48.74","-2.9","0.0"],
    [1425275,"2026-08-14 21:50:00","1362","2.742","227.2","4.312","230.5","1013.696","29.64","63.33","-2.63","0.0"],
    [1425276,"2026-08-14 22:00:00","1363","1.446","250.5","3.528","223.8","1013.6289999999999","29.08","72.13","-2.7","0.0"],
    [1425277,"2026-08-14 22:10:00","1364","2.077","226.2","3.822","205.1","1013.502","28.74","75.96","-2.719","0.0"],
    [1425278,"2026-08-14 22:20:00","1365","2.5639999999999996","227.4","4.312","218.2","1013.385","28.56","78.1","-2.556","0.0"],
    [1425279,"2026-08-14 22:30:00","1366","3.03","227.4","4.998","229.9","1013.33","28.56","78.06","-2.548","0.0"],
    [1425280,"2026-08-14 22:40:00","1367","2.461","227.3","3.626","227.5","1013.172","28.47","78.72","-2.56","0.0"],
    [1425281,"2026-08-14 22:50:00","1368","1.653","225.6","2.548","226","1013.1510000000001","28.35","79.45","-2.585","0.0"],
    [1425282,"2026-08-14 23:00:00","1369","1.8419999999999999","229.4","3.136","225.7","1013.091","28.28","79.91","-2.608","0.0"],
    [1425283,"2026-08-14 23:10:00","1370","2.0980000000000003","225.6","3.234","215.3","1013.075","28.28","80.1","-2.625","0.0"],
    [1425284,"2026-08-14 23:20:00","1371","2.248","227.1","3.136","234.1","1013.105","28.31","80.1","-2.5860000000000003","0.0"],
    [1425285,"2026-08-14 23:30:00","1372","2.81","228.5","4.018","232.5","1013.1510000000001","28.26","80.3","-2.5860000000000003","0.0"],
    [1425286,"2026-08-14 23:40:00","1373","2.6","226.2","4.116","218.5","1013.1260000000001","28.23","80.2","-2.59","0.0"],
    [1425287,"2026-08-14 23:50:00","1374","2.687","221.3","4.214","205.8","1013.0830000000001","28.27","79.14","-2.591","0.0"],
    [1425288,"2026-08-15 00:00:00","1375","2.556","215.9","4.214","210.1","1013.095","28.31","77.51","-2.59","0.0"],
    [1425289,"2026-08-15 00:10:00","1376","2.985","219.3","4.998","194.9","1013.107","28.32","76.79","-2.5860000000000003","0.0"],
    [1425290,"2026-08-15 00:20:00","1377","3.035","222.8","5.39","219.6","1013.065","28.29","76.52","-2.5869999999999997","0.0"],
    [1425291,"2026-08-15 00:30:00","1378","2.9010000000000002","227.6","4.312","228.3","1013.0360000000001","28.3","76.0","-2.591","0.0"],
    [1425292,"2026-08-15 00:40:00","1379","2.699","227.9","4.508","238","1012.946","28.24","75.34","-2.591","0.0"],
    [1425293,"2026-08-15 00:50:00","1380","1.42","238.2","2.548","213.8","1012.929","27.98","75.34","-2.6239999999999997","0.0"],
    [1425294,"2026-08-15 01:00:00","1381","1.083","235.8","2.45","250.3","1012.8639999999999","27.81","74.18","-2.807","0.0"],
    [1425295,"2026-08-15 01:10:00","1382","1.247","230.9","2.254","217.5","1012.814","27.5","72.09","-2.855","0.0"],
    [1425296,"2026-08-15 01:20:00","1383","1.206","228.5","1.764","230.6","1012.8330000000001","27.39","67.37","-2.787","0.0"],
    [1425297,"2026-08-15 01:30:00","1384","1.6680000000000001","224.3","2.744","228.7","1012.898","27.18","63.35","-2.6630000000000003","0.0"],
    [1425298,"2026-08-15 01:40:00","1385","2.213","222.1","3.234","207.7","1012.914","26.74","59.22","-2.595","0.0"],
    [1425299,"2026-08-15 01:50:00","1386","1.679","227.5","3.038","224.4","1012.916","26.29","53.44","-2.595","0.0"],
    [1425300,"2026-08-15 02:00:00","1387","2.104","225.5","2.94","231.8","1012.919","26.25","51.95","-2.593","0.0"],
    [1425301,"2026-08-15 02:10:00","1388","1.255","269.7","2.156","267","1012.8989999999999","26.09","52.16","-2.596","0.0"],
    [1425302,"2026-08-15 02:20:00","1389","1.0659999999999998","272.5","2.058","271.6","1012.938","25.97","52.62","-2.6210000000000004","0.0"],
    [1425303,"2026-08-15 02:30:00","1390","1.315","255.9","2.45","242.6","1012.936","26.29","50.28","-2.679","0.0"],
    [1425304,"2026-08-15 02:40:00","1391","1.413","231.7","2.254","237","1012.928","26.56","48.78","-2.5989999999999998","0.0"],
    [1425305,"2026-08-15 02:50:00","1392","1.4669999999999999","232.8","2.254","215","1013.0089999999999","26.74","48.37","-2.594","0.0"],
    [1425306,"2026-08-15 03:00:00","1393","1.4669999999999999","263.4","3.038","267","1013.0360000000001","26.85","48.22","-2.6210000000000004","0.0"],
    [1425307,"2026-08-15 03:10:00","1394","1.101","265.0","1.96","252.6","1013.005","26.51","49.56","-2.593","0.0"],
    [1425308,"2026-08-15 03:20:00","1395","1.143","280.2","2.156","260.7","1012.938","26.22","50.5","-2.593","0.0"],
    [1425309,"2026-08-15 03:30:00","1396","0.8190000000000001","289.0","1.47","289","1012.807","25.79","52.14","-2.597","0.0"],
    [1425310,"2026-08-15 03:40:00","1397","0.807","290.0","1.96","295.9","1012.687","25.77","52.31","-2.5980000000000003","0.0"],
    [1425311,"2026-08-15 03:50:00","1398","1.102","273.1","1.96","258.9","1012.696","25.66","52.78","-2.593","0.0"],
    [1425312,"2026-08-15 04:00:00","1399","1.699","270.8","2.842","276.3","1012.665","25.55","53.11","-2.593","0.0"],
    [1425313,"2026-08-15 04:10:00","1400","1.459","278.2","2.352","266.3","1012.65","25.44","53.33","-2.575","0.0"],
    [1425314,"2026-08-15 04:20:00","1401","1.51","277.4","2.254","272.2","1012.693","25.11","54.48","-2.5839999999999996","0.0"],
    [1425315,"2026-08-15 04:30:00","1402","1.2770000000000001","269.2","2.254","252.9","1012.669","24.98","54.88","-2.591","0.0"],
    [1425316,"2026-08-15 04:40:00","1403","1.2","275.7","2.058","250","1012.697","24.86","55.3","-2.591","0.0"],
    [1425317,"2026-08-15 04:50:00","1404","1.3330000000000002","275.4","2.156","267.3","1012.7769999999999","24.96","54.37","-1.996","0.0"],
    [1425318,"2026-08-15 05:00:00","1405","1.431","273.2","2.548","269.8","1012.8","24.88","54.2","-0.067","0.0"],
    [1425319,"2026-08-15 05:10:00","1406","1.475","294.9","2.94","313.2","1012.85","24.78","54.56","4.617","0.0"],
    [1425320,"2026-08-15 05:20:00","1407","1.78","302.7","2.94","314.8","1012.8589999999999","24.76","54.37","13.78","0.0"],
    [1425321,"2026-08-15 05:30:00","1408","1.8319999999999999","311.1","3.136","334.6","1012.9060000000001","25.58","51.51","27.72","0.0"],
    [1425322,"2026-08-15 05:40:00","1409","1.94","310.8","3.038","306","1012.939","26.11","49.9","44.11","0.0"],
    [1425323,"2026-08-15 05:50:00","1410","1.411","313.2","2.646","307.4","1012.967","26.42","49.07","62.29","0.0"],
    [1425324,"2026-08-15 06:00:00","1411","1.021","315.9","1.96","324.4","1013.065","26.84","47.91","80.7","0.0"],
    [1425325,"2026-08-15 06:10:00","1412","1.095","344.6","1.862","350.5","1013.177","27.36","46.41","101.4","0.0"],
    [1425326,"2026-08-15 06:20:00","1413","1.193","305.4","1.96","300.3","1013.291","27.58","46.28","125.4","0.0"],
    [1425327,"2026-08-15 06:30:00","1414","1.149","306.6","1.96","306.7","1013.329","27.5","46.71","152.0","0.0"],
    [1425328,"2026-08-15 06:40:00","1415","0.5820000000000001","296.1","1.078","290.1","1013.3939999999999","27.9","46.53","178.1","0.0"],
    [1425329,"2026-08-15 06:50:00","1417","0.79","281.2","1.274","298.9","1013.492","28.24","46.18","206.3","0.0"],
    [1425330,"2026-08-15 07:00:00","1418","1.018","320.3","2.156","345.6","1013.54","28.68","45.92","236.6","0.0"],
    [1425331,"2026-08-15 07:10:00","1419","1.2409999999999999","42.26","2.94","87.1","1013.6160000000001","29.57","48.81","271.2","0.0"],
    [1425332,"2026-08-15 07:20:00","1420","1.129","31.42","2.646","86.1","1013.635","29.92","52.9","304.3","0.0"],
    [1425333,"2026-08-15 07:30:00","1421","1.824","26.44","3.528","12.89","1013.6569999999999","30.08","57.86","335.1","0.0"],
    [1425334,"2026-08-15 07:40:00","1422","3.542","49.76","6.174","51.23","1013.66","29.88","69.19","375.5","0.0"],
    [1425335,"2026-08-15 07:50:00","1423","4.282","49.69","6.566","58.84","1013.587","29.55","73.74","411.5","0.0"],
    [1425336,"2026-08-15 08:00:00","1424","4.65","53.85","7.84","53.94","1013.6519999999999","29.62","73.42","443.2","0.0"],
    [1425337,"2026-08-15 08:10:00","1425","4.657","53.44","7.546","47.3","1013.704","29.82","72.64","451.8","0.0"],
    [1425338,"2026-08-15 08:20:00","1426","5.205","54.24","7.84","69.93","1013.7139999999999","29.82","76.7","507.0","0.0"],
    [1425339,"2026-08-15 08:30:00","1427","5.46","58.65","8.82","60.87","1013.753","29.51","78.41","514.7","0.0"],
    [1425340,"2026-08-15 08:40:00","1428","5.303","52.74","8.62","54.86","1013.8560000000001","29.57","78.14","565.7","0.0"],
    [1425341,"2026-08-15 08:50:00","1429","5.013999999999999","50.25","8.92","47.98","1013.89","29.8","77.4","595.6","0.0"],
    [1425342,"2026-08-15 09:00:00","1430","4.968","53.24","8.04","48.22","1013.972","29.88","77.41","625.2","0.0"],
    [1425343,"2026-08-15 09:10:00","1431","5.2170000000000005","53.46","8.04","64.02","1014.0169999999999","29.96","76.74","656.9","0.0"],
    [1425344,"2026-08-15 09:20:00","1432","4.706","55.22","7.252","49.29","1014.052","30.17","75.65","631.4","0.0"],
    [1425345,"2026-08-15 09:30:00","1433","4.622","66.86","6.86","74.44","1014.1039999999999","30.43","73.95","640.2","0.0"],
    [1425346,"2026-08-15 09:40:00","1434","5.112","70.28","7.644","76.43","1014.203","30.05","74.28","581.2","0.0"],
    [1425347,"2026-08-15 09:50:00","1435","4.385","73.76","6.37","71.68","1014.304","30.37","73.1","667.4","0.0"],
    [1425348,"2026-08-15 10:00:00","1436","4.454","74.64","6.664","84.5","1014.4069999999999","30.49","73.27","704.4","0.0"],
    [1425349,"2026-08-15 10:10:00","1437","4.993","72.05","7.154","86.3","1014.4989999999999","30.39","75.12","796.3","0.0"],
    [1425350,"2026-08-15 10:20:00","1438","4.843","82.0","7.35","73.47","1014.534","30.46","74.06","783.7","0.0"],
    [1425351,"2026-08-15 10:30:00","1439","5.122000000000001","85.8","6.566","86","1014.492","30.25","74.59","814.0","0.0"],
    [1425352,"2026-08-15 10:40:00","1440","4.768","89.7","6.664","89.8","1014.559","30.11","74.84","836.0","0.0"],
    [1425353,"2026-08-15 10:50:00","1441","4.21","94.1","6.272","111.8","1014.5939999999999","30.14","73.71","824.0","0.0"],
    [1425354,"2026-08-15 11:00:00","1442","4.272","91.8","5.88","93.3","1014.679","30.3","72.66","778.3","0.0"],
    [1425355,"2026-08-15 11:10:00","1443","3.773","95.2","5.488","102.6","1014.717","30.21","72.98","808.0","0.0"],
    [1425356,"2026-08-15 11:20:00","1444","3.8810000000000002","89.4","6.076","84.5","1014.709","30.39","72.21","903.0","0.0"],
    [1425357,"2026-08-15 11:30:00","1445","3.741","91.7","6.076","100.3","1014.64","30.45","71.95","895.0","0.0"],
    [1425358,"2026-08-15 11:40:00","1446","3.4539999999999997","97.8","5.292","89.2","1014.515","30.41","71.86","881.0","0.0"],
    [1425359,"2026-08-15 11:50:00","1447","3.6289999999999996","98.8","5.39","104.4","1014.4069999999999","30.1","72.95","889.0","0.0"],
    [1425360,"2026-08-15 12:00:00","1448","2.9939999999999998","106.0","4.802","120.5","1014.316","30.66","70.96","896.0","0.0"],
    [1425361,"2026-08-15 12:10:00","1449","2.8960000000000004","101.8","4.998","89.3","1014.169","30.64","70.76","869.0","0.0"],
    [1425362,"2026-08-15 12:20:00","1450","2.752","103.9","5.488","108.7","1014.086","30.74","70.55","894.0","0.0"],
    [1425363,"2026-08-15 12:30:00","1451","1.8519999999999999","118.1","5.194","124.1","1013.9680000000001","30.85","69.76","895.0","0.0"],
    [1425364,"2026-08-15 12:40:00","1452","2.3480000000000003","109.9","4.41","91.2","1013.819","31.04","68.91","884.0","0.0"],
    [1425365,"2026-08-15 12:50:00","1453","1.9909999999999999","112.4","4.606","121.3","1013.85","31.11","69.05","877.0","0.0"],
    [1425366,"2026-08-15 13:00:00","1454","2.013","112.8","4.508","130.1","1013.8639999999999","31.44","68.15","868.0","0.0"],
    [1425367,"2026-08-15 13:10:00","1455","2.542","104.5","5.586","105.8","1013.8489999999999","31.14","69.1","855.0","0.0"],
    [1425368,"2026-08-15 13:20:00","1456","2.82","102.4","6.272","115.8","1013.913","30.91","70.36","855.0","0.0"],
    [1425369,"2026-08-15 13:30:00","1457","3.826","100.1","5.39","88.9","1013.793","30.21","73.21","837.0","0.0"],
    [1425370,"2026-08-15 13:40:00","1458","3.3080000000000003","104.3","5.684","118.1","1013.549","30.31","73.31","812.0","0.0"],
    [1425371,"2026-08-15 13:50:00","1459","2.7430000000000003","102.3","4.998","88","1013.255","30.54","72.92","796.2","0.0"],
    [1425372,"2026-08-15 14:00:00","1460","2.405","109.1","5.194","131.2","1013.11","31.14","71.1","775.7","0.0"],
    [1425373,"2026-08-15 14:10:00","1461","1.3330000000000002","130.3","4.704","172.8","1013.2410000000001","31.65","69.6","802.0","0.0"],
    [1425374,"2026-08-15 14:20:00","1462","2.293","179.9","6.076","180.3","1013.4069999999999","31.79","64.59","761.7","0.0"],
    [1425375,"2026-08-15 14:30:00","1463","1.8019999999999998","170.4","5.39","205.3","1013.309","31.65","64.51","723.1","0.0"],
    [1425376,"2026-08-15 14:40:00","1464","2.9010000000000002","189.9","4.9","228.7","1013.2130000000001","31.77","62.98","702.5","0.0"],
    [1425377,"2026-08-15 14:50:00","1465","2.887","175.0","5.88","177.4","1013.185","31.21","63.66","676.4","0.0"],
    [1425378,"2026-08-15 15:00:00","1466","2.842","186.0","5.488","143.6","1013.1030000000001","31.53","61.9","663.0","0.0"],
    [1425379,"2026-08-15 15:10:00","1467","2.463","183.1","5.292","178.1","1013.062","31.27","64.28","653.6","0.0"],
    [1425380,"2026-08-15 15:20:00","1468","1.976","184.3","8.92","170.1","1012.9680000000001","31.76","62.96","655.0","0.0"],
    [1425381,"2026-08-15 15:30:00","1469","1.6640000000000001","165.2","4.606","194.3","1012.837","31.72","59.32","578.3","0.0"],
    [1425382,"2026-08-15 15:40:00","1470","0.976","119.4","2.646","97","1012.8710000000001","31.5","59.7","364.0","0.0"],
    [1425383,"2026-08-15 15:50:00","1471","1.7630000000000001","323.9","7.056","300.1","1013.296","31.58","59.92","104.1","0.0"],
    [1425384,"2026-08-15 16:00:00","1472","5.682","348.4","11.37","345.4","1013.4","31.35","39.34","95.8","0.0"],
    [1425385,"2026-08-15 16:10:00","1473","4.058","356.5","8.13","341.3","1013.069","31.03","38.74","156.6","0.0"],
    [1425386,"2026-08-15 16:20:00","1474","3.64","359.3","6.958","5.622","1012.8969999999999","30.36","39.81","126.5","0.0"],
    [1425387,"2026-08-15 16:30:00","1475","3.2060000000000004","17.69","6.272","355","1012.681","30.05","41.1","108.4","0.0"],
    [1425388,"2026-08-15 16:40:00","1476","2.19","0.539","4.9","4.459","1012.3919999999999","30.03","41.24","94.0","0.0"],
    [1425389,"2026-08-15 16:50:00","1477","1.564","342.6","3.234","333","1012.253","30.07","40.98","88.8","0.0"],
    [1425390,"2026-08-15 17:00:00","1478","1.162","330.4","2.646","280.4","1012.288","30.26","40.36","83.6","0.0"],
    [1425391,"2026-08-15 17:10:00","1479","2.396","257.7","5.39","293","1012.3560000000001","29.61","44.58","80.4","0.0"],
    [1425392,"2026-08-15 17:20:00","1480","3.321","286.3","5.978","283.5","1012.4119999999999","28.48","48.73","88.4","0.0"],
    [1425393,"2026-08-15 17:30:00","1481","2.7569999999999997","285.4","5.096","269.6","1012.413","28.16","49.79","67.09","0.0"],
    [1425394,"2026-08-15 17:40:00","1482","2.763","277.4","4.9","273.1","1012.4119999999999","28.13","49.75","54.73","0.0"],
    [1425395,"2026-08-15 17:50:00","1483","2.747","270.8","4.9","270.8","1012.507","27.9","50.64","42.63","0.0"],
    [1425396,"2026-08-15 18:00:00","1484","1.87","259.3","4.214","291.2","1012.563","27.7","51.4","29.93","0.0"],
    [1425397,"2026-08-15 18:10:00","1485","2.356","264.7","4.704","250","1012.702","27.72","51.16","21.01","0.0"],
    [1425398,"2026-08-15 18:20:00","1486","2.764","291.6","4.998","290.5","1012.725","27.64","51.27","12.9","0.0"],
    [1425399,"2026-08-15 18:30:00","1487","2.823","300.2","4.704","299.4","1012.7439999999999","27.7","50.06","6.957000000000001","0.0"],
    [1425400,"2026-08-15 18:40:00","1488","3.3680000000000003","304.0","5.978","311.8","1012.915","27.77","49.2","2.995","0.0"],
    [1425401,"2026-08-15 18:50:00","1489","3.0239999999999996","308.0","4.998","292.9","1013.117","27.72","49.76","0.611","0.0"],
    [1425402,"2026-08-15 19:00:00","1490","3.383","319.7","5.88","316.4","1013.159","27.71","48.79","-0.778","0.0"],
    [1425403,"2026-08-15 19:10:00","1491","3.307","313.4","5.194","324.7","1013.2669999999999","27.78","47.34","-1.564","0.0"],
    [1425404,"2026-08-15 19:20:00","1492","3.625","303.8","5.684","320","1013.3889999999999","27.82","46.64","-1.818","0.0"],
    [1425405,"2026-08-15 19:30:00","1493","3.202","313.7","5.782","311.6","1013.35","27.72","46.7","-1.831","0.0"],
    [1425406,"2026-08-15 19:40:00","1494","2.803","307.4","4.312","293.5","1013.459","27.78","46.49","-1.847","0.0"],
    [1425407,"2026-08-15 19:50:00","1495","2.5340000000000003","310.2","4.018","306.8","1013.6569999999999","27.87","46.21","-1.912","0.0"],
    [1425408,"2026-08-15 20:00:00","1496","2.173","313.8","3.626","312.7","1013.747","28.07","45.54","-1.829","0.0"],
    [1425409,"2026-08-15 20:10:00","1497","1.506","311.9","3.136","324.9","1013.826","28.11","45.37","-1.844","0.0"],
    [1425410,"2026-08-15 20:20:00","1498","1.6740000000000002","301.7","2.94","327.4","1013.9689999999999","28.1","45.35","-2.024","0.0"],
    [1425411,"2026-08-15 20:30:00","1499","1.617","322.3","2.842","320.2","1013.885","28.17","44.54","-2.55","0.0"],
    [1425412,"2026-08-15 20:40:00","1500","1.044","320.3","1.862","326.1","1013.815","28.22","44.09","-2.5869999999999997","0.0"],
    [1425413,"2026-08-15 20:50:00","1501","1.3130000000000002","292.0","2.058","301.1","1013.8389999999999","28.11","44.51","-2.5869999999999997","0.0"],
    [1425414,"2026-08-15 21:00:00","1502","1.082","279.2","2.156","293.4","1013.829","28.0","45.06","-2.59","0.0"],
    [1425415,"2026-08-15 21:10:00","1503","1.228","282.5","1.862","275.8","1013.9060000000001","27.6","47.05","-2.591","0.0"],
    [1425416,"2026-08-15 21:20:00","1504","1.537","254.7","2.842","237.4","1014.052","27.24","49.51","-2.589","0.0"],
    [1425417,"2026-08-15 21:30:00","1505","1.419","277.9","2.646","278.4","1014.117","26.85","50.85","-2.589","0.0"],
    [1425418,"2026-08-15 21:40:00","1506","1.6219999999999999","295.2","2.842","285.3","1014.09","26.67","51.23","-2.593","0.0"],
    [1425419,"2026-08-15 21:50:00","1507","1.3119999999999998","279.8","2.058","281.1","1014.082","26.89","50.22","-2.593","0.0"],
    [1425420,"2026-08-15 22:00:00","1508","1.646","268.7","2.94","258.9","1014.221","26.87","50.85","-2.498","0.0"],
    [1425421,"2026-08-15 22:10:00","1509","1.53","287.7","3.528","268","1014.184","26.49","51.92","-2.5540000000000003","0.0"],
    [1425422,"2026-08-15 22:20:00","1510","1.615","288.7","2.842","297.4","1014.201","26.29","52.78","-2.588","0.0"],
    [1425423,"2026-08-15 22:30:00","1511","1.869","307.5","3.332","332.1","1014.081","26.22","53.51","-2.593","0.0"],
    [1425424,"2026-08-15 22:40:00","1512","2.046","301.0","2.94","308.7","1014.096","26.43","52.59","-2.593","0.0"],
    [1425425,"2026-08-15 22:50:00","1513","1.733","289.5","2.842","284","1014.198","26.47","52.71","-2.593","0.0"],
    [1425426,"2026-08-15 23:00:00","1514","1.784","280.3","3.234","283","1014.304","26.42","52.99","-2.592","0.0"],
    [1425427,"2026-08-15 23:10:00","1515","2.02","282.8","3.136","292.3","1014.3389999999999","26.16","53.51","-2.5","0.0"],
    [1425428,"2026-08-15 23:20:00","1516","1.8840000000000001","284.3","3.332","285","1014.4119999999999","25.65","56.4","-2.437","0.0"],
    [1425429,"2026-08-15 23:30:00","1517","2.227","293.2","3.724","294.8","1014.3610000000001","25.44","57.51","-2.5839999999999996","0.0"],
    [1425430,"2026-08-15 23:40:00","1518","2.529","291.7","4.508","287.3","1014.315","25.48","57.63","-2.583","0.0"],
    [1425431,"2026-08-15 23:50:00","1519","2.5639999999999996","297.2","3.92","292.3","1014.153","25.45","57.58","-2.53","0.0"],
    [1425432,"2026-08-16 00:00:00","1520","2.7939999999999996","295.3","4.606","304.6","1013.997","25.38","58.14","-2.542","0.0"],
    [1425433,"2026-08-16 00:10:00","1521","2.112","283.1","3.724","320.2","1014.1210000000001","25.29","58.67","-2.546","0.0"],
    [1425434,"2026-08-16 00:20:00","1522","2.123","280.5","3.92","273.7","1014.2710000000001","25.08","59.72","-2.458","0.0"],
    [1425435,"2026-08-16 00:30:00","1523","2.431","285.2","4.9","300","1014.432","24.76","61.73","-2.096","0.0"],
    [1425436,"2026-08-16 00:40:00","1524","3.208","291.3","5.684","285.8","1014.5830000000001","24.65","62.74","-2.1180000000000003","0.0"],
    [1425437,"2026-08-16 00:50:00","1525","4.035","298.1","6.958","303.2","1014.637","24.84","62.01","-1.8719999999999999","0.0"],
    [1425438,"2026-08-16 01:00:00","1526","3.656","301.8","5.88","296.8","1014.4169999999999","24.95","61.31","-1.8019999999999998","0.0"],
    [1425439,"2026-08-16 01:10:00","1527","3.338","307.6","5.586","301.1","1014.2410000000001","25.18","60.09","-1.5530000000000002","0.0"],
    [1425440,"2026-08-16 01:20:00","1528","2.063","325.9","3.332","313.9","1013.9780000000001","25.36","59.06","-1.206","0.0"],
    [1425441,"2026-08-16 01:30:00","1529","1.906","303.0","3.038","275.3","1013.7310000000001","25.74","57.16","-1.3130000000000002","0.0"],
    [1425442,"2026-08-16 01:40:00","1530","1.2009999999999998","261.5","2.842","262","1013.665","25.84","57.27","-1.157","0.0"],
    [1425443,"2026-08-16 01:50:00","1531","2.7030000000000003","289.3","4.312","292.2","1013.709","25.25","59.83","-1.099","0.0"],
    [1425444,"2026-08-16 02:00:00","1532","2.17","299.5","3.332","308.5","1013.6469999999999","24.85","61.18","-1.196","0.0"],
    [1425445,"2026-08-16 02:10:00","1533","2.28","287.6","4.41","289.8","1013.6289999999999","24.96","60.48","-1.829","0.0"],
    [1425446,"2026-08-16 02:20:00","1534","2.5340000000000003","286.0","4.606","293","1013.706","24.82","60.78","-1.78","0.0"],
    [1425447,"2026-08-16 02:30:00","1535","2.576","297.3","4.116","321.5","1013.7739999999999","24.81","60.38","-1.848","0.0"],
    [1425448,"2026-08-16 02:40:00","1536","2.502","287.2","4.018","267","1013.797","25.04","59.15","-1.867","0.0"],
    [1425449,"2026-08-16 02:50:00","1537","2.378","293.4","4.508","308.8","1013.763","25.07","58.29","-2.416","0.0"],
    [1425450,"2026-08-16 03:00:00","1538","2.381","292.4","4.606","293.4","1013.655","25.09","57.36","-2.593","0.0"],
    [1425451,"2026-08-16 03:10:00","1539","3.24","291.8","4.9","281.5","1013.6039999999999","25.17","57.24","-2.577","0.0"],
    [1425452,"2026-08-16 03:20:00","1540","3.612","305.8","5.782","302.5","1013.576","24.96","58.96","-2.572","0.0"],
    [1425453,"2026-08-16 03:30:00","1541","3.451","306.5","5.782","301.1","1013.5210000000001","24.8","59.73","-2.511","0.0"],
    [1425454,"2026-08-16 03:40:00","1542","2.847","288.6","5.292","289.5","1013.5369999999999","24.51","61.46","-2.349","0.0"],
    [1425455,"2026-08-16 03:50:00","1543","2.398","286.2","4.704","293.7","1013.63","24.0","63.93","-2.428","0.0"],
    [1425456,"2026-08-16 04:00:00","1544","2.3","285.7","4.214","282.2","1013.627","23.9","64.01","-2.593","0.0"],
    [1425457,"2026-08-16 04:10:00","1545","2.767","289.0","4.508","287.4","1013.6289999999999","24.17","62.5","-2.593","0.0"],
    [1425458,"2026-08-16 04:20:00","1546","3.385","294.1","5.782","317.8","1013.5239999999999","24.52","60.36","-2.593","0.0"],
    [1425459,"2026-08-16 04:30:00","1547","2.8339999999999996","294.3","4.606","306.5","1013.362","24.64","59.23","-2.5869999999999997","0.0"],
    [1425460,"2026-08-16 04:40:00","1548","2.38","290.2","3.822","285.6","1013.367","24.54","59.68","-2.568","0.0"],
    [1425461,"2026-08-16 04:50:00","1549","2.14","294.7","3.724","315.2","1013.45","24.45","60.34","-1.933","0.0"],
    [1425462,"2026-08-16 05:00:00","1550","2.34","303.8","3.528","307.1","1013.4839999999999","24.36","60.57","-0.461","0.0"],
    [1425463,"2026-08-16 05:10:00","1551","2.113","291.6","3.136","298.6","1013.573","24.45","60.17","3.1919999999999997","0.0"],
    [1425464,"2026-08-16 05:20:00","1552","1.7990000000000002","280.1","3.528","285","1013.6260000000001","24.49","59.86","11.17","0.0"],
    [1425465,"2026-08-16 05:30:00","1553","1.9340000000000002","283.6","4.018","280.9","1013.6360000000001","24.52","59.63","23.56","0.0"],
    [1425466,"2026-08-16 05:40:00","1554","2.045","282.0","4.116","280.6","1013.622","24.6","59.03","46.07","0.0"],
    [1425467,"2026-08-16 05:50:00","1555","2.75","289.3","5.292","301.7","1013.664","24.7","58.58","59.06","0.0"],
    [1425468,"2026-08-16 06:00:00","1556","2.719","293.4","4.802","289.8","1013.675","24.76","58.3","68.81","0.0"],
    [1425469,"2026-08-16 06:10:00","1557","3.263","282.3","5.586","294.9","1013.8960000000001","25.03","57.29","106.2","0.0"],
    [1425470,"2026-08-16 06:20:00","1558","3.358","293.8","6.076","291.3","1013.965","25.12","57.31","131.6","0.0"],
    [1425471,"2026-08-16 06:30:00","1559","3.5869999999999997","295.9","5.88","310.6","1014.0310000000001","25.35","56.45","160.0","0.0"],
    [1425472,"2026-08-16 06:40:00","1560","3.241","298.4","5.586","295.6","1014.1060000000001","25.68","54.95","189.3","0.0"],
    [1425473,"2026-08-16 06:50:00","1561","3.2260000000000004","295.0","5.488","307","1014.188","26.18","53.15","218.5","0.0"],
    [1425474,"2026-08-16 07:00:00","1562","3.5589999999999997","298.4","5.978","291.6","1014.195","26.48","51.75","249.8","0.0"],
    [1425475,"2026-08-16 07:10:00","1563","3.14","297.6","5.194","312.4","1014.155","27.06","50.11","283.7","0.0"],
    [1425476,"2026-08-16 07:20:00","1564","2.786","297.1","5.096","311.8","1014.071","27.56","48.27","317.4","0.0"],
    [1425477,"2026-08-16 07:30:00","1565","2.358","291.9","4.214","288.8","1014.105","28.36","45.81","349.0","0.0"],
    [1425478,"2026-08-16 07:40:00","1566","1.7590000000000001","275.8","3.43","284.9","1014.1260000000001","28.74","45.15","380.6","0.0"],
    [1425479,"2026-08-16 07:50:00","1567","2.76","285.4","4.41","305.3","1014.118","28.81","45.43","413.6","0.0"],
    [1425480,"2026-08-16 08:00:00","1568","2.8489999999999998","288.6","4.606","296.2","1014.14","29.02","44.88","446.0","0.0"],
    [1425481,"2026-08-16 08:10:00","1569","2.083","283.8","4.116","282.9","1014.1039999999999","29.56","43.56","455.7","0.0"],
    [1425482,"2026-08-16 08:20:00","1570","1.604","256.1","3.332","288.7","1014.1410000000001","30.24","42.23","511.0","0.0"],
    [1425483,"2026-08-16 08:30:00","1571","1.436","265.1","3.038","300.2","1014.1510000000001","30.84","41.86","521.5","0.0"],
    [1425484,"2026-08-16 08:40:00","1572","1.923","225.9","3.43","226.4","1014.2410000000001","31.23","43.04","576.7","0.0"],
    [1425485,"2026-08-16 08:50:00","1573","2.276","218.3","4.312","223.4","1014.331","30.95","45.14","607.8","0.0"],
    [1425486,"2026-08-16 09:00:00","1574","2.42","208.2","5.194","182.3","1014.426","31.19","45.31","637.5","0.0"],
    [1425487,"2026-08-16 09:10:00","1575","2.211","199.8","4.312","168.1","1014.502","31.25","47.93","664.0","0.0"],
    [1425488,"2026-08-16 09:20:00","1576","2.556","183.3","4.606","174.4","1014.493","30.98","51.0","690.8","0.0"],
    [1425489,"2026-08-16 09:30:00","1577","2.44","194.1","4.9","217.1","1014.462","31.24","52.03","715.5","0.0"],
    [1425490,"2026-08-16 09:40:00","1578","2.832","191.6","5.684","201.9","1014.525","31.15","54.83","737.3","0.0"],
    [1425491,"2026-08-16 09:50:00","1579","3.134","192.4","5.684","184.6","1014.578","30.54","59.1","758.5","0.0"],
    [1425492,"2026-08-16 10:00:00","1580","3.1289999999999996","200.5","6.076","182.5","1014.6619999999999","30.83","59.42","779.6","0.0"],
    [1425493,"2026-08-16 10:10:00","1581","2.995","201.8","4.9","235","1014.6489999999999","31.01","59.94","797.4","0.0"],
    [1425494,"2026-08-16 10:20:00","1582","2.625","198.7","5.39","182.8","1014.6560000000001","31.21","61.59","815.0","0.0"],
    [1425495,"2026-08-16 10:30:00","1583","3.032","194.6","5.586","230","1014.6339999999999","31.21","62.9","831.0","0.0"],
    [1425496,"2026-08-16 10:40:00","1584","3.4939999999999998","193.4","7.546","217.1","1014.643","30.8","64.89","845.0","0.0"],
    [1425497,"2026-08-16 10:50:00","1585","3.755","194.1","6.174","181.6","1014.6389999999999","30.66","65.4","857.0","0.0"],
    [1425498,"2026-08-16 11:00:00","1586","3.4219999999999997","186.8","6.076","183.3","1014.57","30.71","64.71","868.0","0.0"],
    [1425499,"2026-08-16 11:10:00","1587","3.236","203.8","6.272","218.4","1014.518","31.24","63.8","879.0","0.0"],
    [1425500,"2026-08-16 11:20:00","1588","3.523","192.6","6.762","159.9","1014.475","31.25","64.12","890.0","0.0"],
    [1425501,"2026-08-16 11:30:00","1589","3.7569999999999997","192.9","6.272","188.3","1014.453","31.29","64.54","895.0","0.0"],
    [1425502,"2026-08-16 11:40:00","1590","3.6689999999999996","187.0","6.566","179.1","1014.441","30.96","66.43","899.0","0.0"],
    [1425503,"2026-08-16 11:50:00","1591","4.013999999999999","199.1","7.056","203.9","1014.46","31.18","65.2","905.0","0.0"],
    [1425504,"2026-08-16 12:00:00","1592","3.49","188.6","6.272","183.6","1014.472","31.35","64.82","905.0","0.0"],
    [1425505,"2026-08-16 12:10:00","1593","4.324","198.1","7.35","177.4","1014.426","31.2","64.38","905.0","0.0"],
    [1425506,"2026-08-16 12:20:00","1594","3.7910000000000004","201.9","6.566","214.2","1014.365","31.42","63.53","906.0","0.0"],
    [1425507,"2026-08-16 12:30:00","1595","3.785","209.5","7.154","220.3","1014.32","31.7","62.18","905.0","0.0"],
    [1425508,"2026-08-16 12:40:00","1596","3.965","195.9","7.448","205","1014.278","31.91","60.76","900.0","0.0"],
    [1425509,"2026-08-16 12:50:00","1597","4.296","185.3","7.448","177.5","1014.38","31.58","61.63","903.0","0.0"],
    [1425510,"2026-08-16 13:00:00","1598","3.821","198.4","8.04","208.7","1014.45","31.98","60.7","899.0","0.0"],
    [1425511,"2026-08-16 13:10:00","1599","3.926","204.1","7.252","163.8","1014.566","31.08","62.53","408.3","0.0"],
    [1425512,"2026-08-16 13:20:00","1600","3.503","208.5","6.076","229.3","1014.65","30.58","64.4","200.0","0.0"],
    [1425513,"2026-08-16 13:30:00","1601","3.283","199.5","5.782","191","1014.582","30.35","65.47","157.0","0.0"],
    [1425514,"2026-08-16 13:40:00","1602","3.133","207.7","5.978","216.5","1014.48","30.2","66.73","117.3","0.0"],
    [1425515,"2026-08-16 13:50:00","1603","3.04","206.3","6.174","204.6","1014.413","29.96","68.65","110.9","0.0"],
    [1425516,"2026-08-16 14:00:00","1604","2.2769999999999997","195.8","4.41","197.4","1014.307","30.1","67.65","129.1","0.0"],
    [1425517,"2026-08-16 14:10:00","1605","2.625","206.3","4.998","230.3","1014.2510000000001","30.17","67.05","123.1","0.0"],
    [1425518,"2026-08-16 14:20:00","1606","2.73","210.6","5.194","216.2","1014.3639999999999","30.05","67.18","109.9","0.0"],
    [1425519,"2026-08-16 14:30:00","1607","2.279","201.9","4.508","216.7","1014.416","30.02","66.9","128.4","0.0"],
    [1425520,"2026-08-16 14:40:00","1608","3.0210000000000004","213.2","5.292","214.4","1014.331","30.08","67.03","152.3","0.0"],
    [1425521,"2026-08-16 14:50:00","1609","3.049","216.4","5.586","225.5","1014.316","30.09","66.98","142.3","0.0"],
    [1425522,"2026-08-16 15:00:00","1610","2.2030000000000003","208.2","4.018","202.2","1014.2260000000001","30.07","65.99","138.1","0.0"],
    [1425523,"2026-08-16 15:10:00","1611","2.146","194.1","5.684","229.1","1014.15","30.14","66.1","161.2","0.0"],
    [1425524,"2026-08-16 15:20:00","1612","1.7519999999999998","195.0","4.41","174.8","1014.081","30.28","66.07","183.7","0.0"],
    [1425525,"2026-08-16 15:30:00","1613","1.972","204.5","6.762","236.6","1014.0369999999999","30.31","65.12","195.4","0.0"],
    [1425526,"2026-08-16 15:40:00","1614","2.255","203.5","5.096","170.2","1014.008","30.42","65.71","192.0","0.0"],
    [1425527,"2026-08-16 15:50:00","1615","2.233","199.8","4.214","213.6","1014.0369999999999","30.4","66.13","187.7","0.0"],
    [1425528,"2026-08-16 16:00:00","1616","2.5540000000000003","209.9","4.9","227.4","1013.998","30.47","66.44","194.1","0.0"],
    [1425529,"2026-08-16 16:10:00","1617","2.762","204.5","4.704","178.3","1013.813","30.41","67.43","222.6","0.0"],
    [1425530,"2026-08-16 16:20:00","1618","2.693","200.0","5.096","172","1013.745","30.7","68.42","364.9","0.0"],
    [1425531,"2026-08-16 16:30:00","1619","2.786","212.1","6.37","166.8","1014.0","30.62","68.18","207.0","0.0"],
    [1425532,"2026-08-16 16:40:00","1620","2.086","200.4","9.21","225.3","1014.182","30.32","67.7","163.9","0.0"],
    [1425533,"2026-08-16 16:50:00","1621","1.665","190.3","3.92","194.3","1014.278","30.26","65.81","181.9","0.0"],
    [1425534,"2026-08-16 17:00:00","1622","1.639","180.2","3.43","191.5","1014.189","30.37","64.86","187.0","0.0"],
    [1425535,"2026-08-16 17:10:00","1623","1.975","183.7","4.9","171.5","1014.084","30.13","66.94","134.9","0.0"],
    [1425536,"2026-08-16 17:20:00","1624","2.052","193.7","3.626","190.9","1014.01","30.01","67.61","87.2","0.0"],
    [1425537,"2026-08-16 17:30:00","1625","2.3609999999999998","190.8","6.566","215.2","1013.88","29.96","67.49","61.97","0.0"],
    [1425538,"2026-08-16 17:40:00","1626","1.6669999999999998","199.8","4.018","181.8","1013.94","29.84","68.17","106.7","0.0"],
    [1425539,"2026-08-16 17:50:00","1627","1.5590000000000002","167.3","3.92","144.6","1013.961","29.95","68.0","117.3","0.0"],
    [1425540,"2026-08-16 18:00:00","1628","1.1","178.3","2.254","187.3","1013.949","29.89","68.08","93.9","0.0"],
    [1425541,"2026-08-16 18:10:00","1629","0.884","209.0","2.646","206.4","1013.9010000000001","30.04","67.67","94.0","0.0"],
    [1425542,"2026-08-16 18:20:00","1630","0.865","114.3","3.822","76.52","1014.154","29.95","68.36","63.42","0.0"],
    [1425543,"2026-08-16 18:30:00","1631","0.893","129.6","3.332","79","1014.171","29.69","70.19","35.75","0.0"],
    [1425544,"2026-08-16 18:40:00","1632","1.194","169.7","2.744","174.5","1014.143","29.48","70.61","16.1","0.0"],
    [1425545,"2026-08-16 18:50:00","1633","1.517","172.8","3.92","219.2","1014.242","29.3","71.52","4.459","0.0"],
    [1425546,"2026-08-16 19:00:00","1634","1.3230000000000002","165.1","6.762","236.1","1014.288","29.2","72.1","0.344","0.0"],
    [1425547,"2026-08-16 19:10:00","1635","1.3230000000000002","173.2","2.646","159","1014.211","29.11","73.11","-1.945","0.0"],
    [1425548,"2026-08-16 19:20:00","1636","1.123","169.4","2.352","189.5","1014.36","29.01","73.91","-2.536","0.0"],
    [1425549,"2026-08-16 19:30:00","1637","0.932","83.9","2.646","109.6","1014.684","29.02","73.94","-2.536","0.0"],
    [1425550,"2026-08-16 19:40:00","1638","1.3880000000000001","112.6","4.41","77.34","1014.709","28.97","74.15","-2.546","0.0"],
    [1425551,"2026-08-16 19:50:00","1639","0.588","158.9","2.548","146","1014.6310000000001","28.86","74.84","-2.546","0.0"],
    [1425552,"2026-08-16 20:00:00","1640","0.525","140.1","1.666","159.7","1014.812","28.78","75.18","-2.545","0.0"],
    [1425553,"2026-08-16 20:10:00","1641","1.262","158.8","3.724","191.3","1014.9069999999999","28.79","75.38","-2.544","0.0"],
    [1425554,"2026-08-16 20:20:00","1642","1.237","170.8","2.548","176.4","1015.0310000000001","28.82","75.39","-2.528","0.0"],
    [1425555,"2026-08-16 20:30:00","1643","0.862","167.4","5.586","64.3","1015.221","28.75","76.04","-2.55","0.0"],
    [1425556,"2026-08-16 20:40:00","1644","0.578","150.9","1.862","241.9","1015.2310000000001","28.72","76.26","-2.5140000000000002","0.0"],
    [1425557,"2026-08-16 20:50:00","1645","1.196","84.6","2.254","66.53","1015.2230000000001","28.46","78.46","-2.5660000000000003","0.0"],
    [1425558,"2026-08-16 21:00:00","1646","1.006","90.9","2.352","59.84","1015.2310000000001","28.21","79.81","-2.536","0.0"],
    [1425559,"2026-08-16 21:10:00","1647","1.891","64.71","2.94","60.91","1015.305","28.31","79.31","-1.7519999999999998","0.0"],
    [1425560,"2026-08-16 21:20:00","1648","1.82","87.8","2.744","93.8","1015.324","28.39","78.79","-1.689","0.0"],
    [1425561,"2026-08-16 21:30:00","1649","1.715","71.97","2.548","84.3","1015.4730000000001","28.45","78.43","-1.301","0.0"],
    [1425562,"2026-08-16 21:40:00","1650","1.611","82.4","2.254","86.3","1015.4860000000001","28.44","78.24","-1.861","0.0"],
    [1425563,"2026-08-16 21:50:00","1651","1.395","81.3","2.156","80.1","1015.4860000000001","28.42","78.03","-2.391","0.0"],
    [1425564,"2026-08-16 22:00:00","1652","1.044","102.8","1.862","98.8","1015.51","28.34","78.52","-2.571","0.0"],
    [1425565,"2026-08-16 22:10:00","1653","1.0390000000000001","94.9","1.666","91.8","1015.5939999999999","28.31","78.24","-2.575","0.0"],
    [1425566,"2026-08-16 22:20:00","1654","0.8759999999999999","105.7","1.666","112.6","1015.6210000000001","28.26","78.33","-2.5810000000000004","0.0"],
    [1425567,"2026-08-16 22:30:00","1655","0.9329999999999999","80.6","1.372","67.1","1015.7230000000001","28.17","78.58","-2.582","0.0"],
    [1425568,"2026-08-16 22:40:00","1656","1.13","62.31","1.47","55.23","1015.681","27.87","80.5","-2.589","0.0"],
    [1425569,"2026-08-16 22:50:00","1657","1.443","49.89","1.764","48.64","1015.648","27.68","81.0","-2.5869999999999997","0.0"],
    [1425570,"2026-08-16 23:00:00","1658","1.248","62.28","1.96","51.45","1015.552","27.45","81.6","-2.589","0.0"],
    [1425571,"2026-08-16 23:10:00","1659","1.706","55.38","2.156","50.68","1015.507","27.49","81.9","-2.591","0.0"],
    [1425572,"2026-08-16 23:20:00","1660","1.959","61.71","2.646","61.04","1015.523","27.58","81.7","-2.591","0.0"],
    [1425573,"2026-08-16 23:30:00","1661","1.8230000000000002","56.98","3.136","53.78","1015.569","27.76","81.8","-2.5580000000000003","0.0"],
    [1425574,"2026-08-16 23:40:00","1662","2.048","52.93","3.528","43.51","1015.615","27.79","81.2","-2.128","0.0"],
    [1425575,"2026-08-16 23:50:00","1663","1.8780000000000001","48.03","3.234","52.37","1015.618","27.73","80.1","-1.857","0.0"],
    [1425576,"2026-08-17 00:00:00","1664","1.891","47.38","2.842","47.28","1015.643","27.76","79.42","-1.85","0.0"],
    [1425577,"2026-08-17 00:10:00","1665","1.806","37.25","3.136","27.66","1015.6039999999999","27.7","79.24","-1.858","0.0"],
    [1425578,"2026-08-17 00:20:00","1666","1.386","47.31","2.45","57.46","1015.6510000000001","27.68","79.34","-1.8530000000000002","0.0"],
    [1425579,"2026-08-17 00:30:00","1667","1.609","44.15","2.548","40.41","1015.6060000000001","27.65","79.71","-2.135","0.0"],
    [1425580,"2026-08-17 00:40:00","1668","1.3530000000000002","43.16","2.45","37.3","1015.5","27.55","79.73","-2.53","0.0"],
    [1425581,"2026-08-17 00:50:00","1669","1.05","42.36","1.764","47.33","1015.584","27.51","79.73","-2.407","0.0"],
    [1425582,"2026-08-17 01:00:00","1670","0.248","34.88","1.372","18.31","1015.5419999999999","27.4","79.74","-2.208","0.0"],
    [1425583,"2026-08-17 01:10:00","1671","0.871","27.2","2.45","19.96","1015.487","27.26","80.2","-2.592","0.0"],
    [1425584,"2026-08-17 01:20:00","1672","1.3230000000000002","26.61","2.156","17.93","1015.3510000000001","27.23","80.4","-2.582","0.0"],
    [1425585,"2026-08-17 01:30:00","1673","0.612","18.15","1.372","43.6","1015.3969999999999","27.22","80.6","-2.59","0.0"],
    [1425586,"2026-08-17 01:40:00","1674","1.177","290.8","1.862","288.9","1015.3610000000001","26.57","78.21","-2.081","0.0"],
    [1425587,"2026-08-17 01:50:00","1675","0.292","259.2","0.882","286","1015.2810000000001","26.19","78.37","-2.59","0.0"],
    [1425588,"2026-08-17 02:00:00","1676","0.821","288.4","1.274","291.3","1015.2919999999999","26.09","78.61","-2.592","0.0"],
    [1425589,"2026-08-17 02:10:00","1677","0.7090000000000001","284.2","1.274","286.6","1015.2660000000001","25.95","78.72","-2.592","0.0"],
    [1425590,"2026-08-17 02:20:00","1678","1.075","281.4","1.764","280.9","1015.242","26.04","77.61","-2.4459999999999997","0.0"],
    [1425591,"2026-08-17 02:30:00","1679","1.439","278.6","2.156","274.9","1015.299","25.95","77.08","-2.345","0.0"],
    [1425592,"2026-08-17 02:40:00","1680","1.324","284.5","2.254","287.9","1015.347","25.83","77.31","-2.532","0.0"],
    [1425593,"2026-08-17 02:50:00","1681","1.3419999999999999","281.1","2.156","277.1","1015.2819999999999","25.71","76.36","-2.411","0.0"],
    [1425594,"2026-08-17 03:00:00","1682","1.412","272.7","2.744","273.1","1015.2310000000001","25.59","75.03","-2.26","0.0"],
    [1425595,"2026-08-17 03:10:00","1683","1.766","271.7","2.842","257.9","1015.217","25.53","73.48","-1.979","0.0"],
    [1425596,"2026-08-17 03:20:00","1684","1.5719999999999998","276.6","2.744","288.5","1015.1289999999999","25.3","72.9","-2.194","0.0"],
    [1425597,"2026-08-17 03:30:00","1685","1.433","285.6","2.156","287.1","1014.9989999999999","25.16","72.03","-2.231","0.0"],
    [1425598,"2026-08-17 03:40:00","1686","1.429","283.4","2.352","280","1014.9830000000001","25.17","71.42","-2.421","0.0"],
    [1425599,"2026-08-17 03:50:00","1687","1.409","283.3","2.45","290.1","1014.927","25.2","70.05","-2.408","0.0"],
    [1425600,"2026-08-17 04:00:00","1688","1.4040000000000001","278.8","2.254","294.2","1014.972","25.31","68.82","-2.445","0.0"],
    [1425601,"2026-08-17 04:10:00","1689","1.2919999999999998","271.6","2.45","282.5","1014.9760000000001","25.28","68.36","-2.169","0.0"],
    [1425602,"2026-08-17 04:20:00","1690","0.963","268.4","1.96","278.2","1014.947","25.1","68.6","-2.443","0.0"],
    [1425603,"2026-08-17 04:30:00","1691","1.5190000000000001","281.3","2.352","288.5","1014.895","24.97","68.78","-2.492","0.0"],
    [1425604,"2026-08-17 04:40:00","1692","1.232","292.7","2.058","274.8","1014.8739999999999","25.03","68.46","-2.363","0.0"],
    [1425605,"2026-08-17 04:50:00","1693","1.172","293.8","2.352","296.9","1014.852","25.03","68.88","-2.125","0.0"],
    [1425606,"2026-08-17 05:00:00","1694","1.208","277.9","2.45","262.3","1014.88","25.31","68.06","-0.521","0.0"],
    [1425607,"2026-08-17 05:10:00","1695","1.018","282.7","1.764","265.3","1014.9789999999999","25.34","67.93","3.068","0.0"],
    [1425608,"2026-08-17 05:20:00","1696","1.557","284.4","3.038","302.8","1015.11","25.2","68.88","9.96","0.0"],
    [1425609,"2026-08-17 05:30:00","1697","1.348","281.4","2.548","297.1","1015.15","25.28","68.91","23.84","0.0"],
    [1425610,"2026-08-17 05:40:00","1698","1.274","276.3","2.352","279.9","1015.1289999999999","25.38","69.27","42.91","0.0"],
    [1425611,"2026-08-17 05:50:00","1699","1.348","276.6","2.45","296.3","1015.1289999999999","25.4","68.87","62.52","0.0"],
    [1425612,"2026-08-17 06:00:00","1700","1.7369999999999999","289.0","2.94","292.1","1015.1669999999999","25.54","67.99","81.2","0.0"],
    [1425613,"2026-08-17 06:10:00","1701","1.97","284.3","3.234","296.8","1015.176","25.86","66.84","103.1","0.0"],
    [1425614,"2026-08-17 06:20:00","1702","0.991","279.8","1.862","289.8","1015.235","26.16","65.84","129.3","0.0"],
    [1425615,"2026-08-17 06:30:00","1703","1.405","287.0","2.254","289.7","1015.3380000000001","26.46","64.78","158.4","0.0"],
    [1425616,"2026-08-17 06:40:00","1704","1.689","289.5","2.646","291.7","1015.3860000000001","26.75","63.91","186.9","0.0"],
    [1425617,"2026-08-17 06:50:00","1705","1.666","293.4","2.548","285.3","1015.403","27.22","63.03","219.8","0.0"],
    [1425618,"2026-08-17 07:00:00","1706","1.8019999999999998","285.7","2.744","275.1","1015.382","27.56","61.88","250.8","0.0"],
    [1425619,"2026-08-17 07:10:00","1707","1.6880000000000002","290.4","2.254","279.4","1015.3380000000001","28.08","61.27","281.6","0.0"],
    [1425620,"2026-08-17 07:20:00","1708","1.371","287.8","2.646","277.2","1015.299","28.75","60.78","310.7","0.0"],
    [1425621,"2026-08-17 07:30:00","1709","2.036","285.6","3.136","291.4","1015.307","28.9","62.71","342.6","0.0"],
    [1425622,"2026-08-17 07:40:00","1710","1.764","295.0","2.744","294.8","1015.293","28.99","64.94","373.7","0.0"],
    [1425623,"2026-08-17 07:50:00","1711","1.055","305.3","2.254","287.5","1015.335","29.44","65.46","404.3","0.0"],
    [1425624,"2026-08-17 08:00:00","1712","1.021","286.0","2.94","251.4","1015.4110000000001","29.73","66.38","427.1","0.0"],
    [1425625,"2026-08-17 08:10:00","1713","0.8809999999999999","322.3","2.254","321.8","1015.435","29.91","65.91","431.2","0.0"],
    [1425626,"2026-08-17 08:20:00","1714","0.768","350.6","2.744","314.6","1015.448","30.16","64.61","472.1","0.0"],
    [1425627,"2026-08-17 08:30:00","1715","1.6269999999999998","86.2","3.822","86.9","1015.5010000000001","30.43","64.56","487.3","0.0"],
    [1425628,"2026-08-17 08:40:00","1716","3.234","88.8","5.194","77.46","1015.6","29.52","68.08","561.3","0.0"],
    [1425629,"2026-08-17 08:50:00","1717","2.026","108.3","3.92","95.3","1015.633","29.58","68.17","588.6","0.0"],
    [1425630,"2026-08-17 09:00:00","1718","3.055","99.7","4.704","89.8","1015.6510000000001","29.48","69.69","627.1","0.0"],
    [1425631,"2026-08-17 09:10:00","1719","1.046","122.9","3.626","104.2","1015.71","29.87","69.52","655.8","0.0"],
    [1425632,"2026-08-17 09:20:00","1720","1.744","109.9","4.018","118.2","1015.684","30.41","67.68","680.2","0.0"],
    [1425633,"2026-08-17 09:30:00","1721","1.95","112.5","4.018","142.9","1015.755","30.0","69.05","702.7","0.0"],
    [1425634,"2026-08-17 09:40:00","1722","1.999","115.1","4.508","119.2","1015.688","30.23","68.62","723.8","0.0"],
    [1425635,"2026-08-17 09:50:00","1723","1.266","144.0","3.92","164.9","1015.665","30.4","67.77","744.6","0.0"],
    [1425636,"2026-08-17 10:00:00","1724","1.643","119.1","3.528","135.9","1015.6469999999999","30.64","67.53","745.8","0.0"],
    [1425637,"2026-08-17 10:10:00","1725","1.54","144.1","4.214","80","1015.685","30.48","68.1","784.6","0.0"],
    [1425638,"2026-08-17 10:20:00","1726","1.429","159.8","4.018","170.5","1015.7389999999999","30.3","68.88","793.3","0.0"],
    [1425639,"2026-08-17 10:30:00","1727","1.621","138.7","4.018","137.2","1015.748","30.48","68.39","814.0","0.0"],
    [1425640,"2026-08-17 10:40:00","1728","1.975","125.8","5.39","135","1015.7289999999999","30.31","69.02","829.0","0.0"],
    [1425641,"2026-08-17 10:50:00","1729","2.253","150.6","5.684","172.6","1015.693","30.68","67.87","843.0","0.0"],
    [1425642,"2026-08-17 11:00:00","1730","2.502","153.9","5.782","165.8","1015.6260000000001","30.87","66.35","856.0","0.0"],
    [1425643,"2026-08-17 11:10:00","1731","2.04","157.6","5.488","144.6","1015.585","30.42","67.4","865.0","0.0"],
    [1425644,"2026-08-17 11:20:00","1732","2.479","173.0","6.076","175.5","1015.562","30.71","66.73","849.0","0.0"],
    [1425645,"2026-08-17 11:30:00","1733","3.016","198.2","6.468","162.2","1015.564","31.28","65.33","866.0","0.0"],
    [1425646,"2026-08-17 11:40:00","1734","3.292","196.4","5.782","213.9","1015.5310000000001","31.35","64.86","874.0","0.0"],
    [1425647,"2026-08-17 11:50:00","1735","3.127","192.7","6.37","186.6","1015.493","31.49","64.27","874.0","0.0"],
    [1425648,"2026-08-17 12:00:00","1736","3.766","173.0","6.958","168.5","1015.561","31.06","64.19","885.0","0.0"],
    [1425649,"2026-08-17 12:10:00","1737","3.2689999999999997","183.3","6.174","178.7","1015.549","31.13","63.85","883.0","0.0"],
    [1425650,"2026-08-17 12:20:00","1738","3.66","180.6","6.664","162.1","1015.4810000000001","31.36","63.11","881.0","0.0"],
    [1425651,"2026-08-17 12:30:00","1739","3.253","185.1","5.978","171.5","1015.415","31.22","62.92","876.0","0.0"],
    [1425652,"2026-08-17 12:40:00","1740","3.965","183.6","6.762","180.4","1015.39","31.49","63.38","900.0","0.0"],
    [1425653,"2026-08-17 12:50:00","1741","3.489","185.2","6.174","165.3","1015.3","31.42","62.86","859.0","0.0"],
    [1425654,"2026-08-17 13:00:00","1742","3.332","196.3","6.664","223.9","1015.1360000000001","31.78","60.16","862.0","0.0"],
    [1425655,"2026-08-17 13:10:00","1743","3.852","174.5","6.272","164.1","1015.13","31.42","61.87","902.0","0.0"],
    [1425656,"2026-08-17 13:20:00","1744","3.497","184.2","6.566","170.8","1015.1389999999999","31.62","61.98","576.6","0.0"],
    [1425657,"2026-08-17 13:30:00","1745","3.8789999999999996","202.8","6.468","184.4","1015.216","30.56","64.9","189.5","0.0"],
    [1425658,"2026-08-17 13:40:00","1746","3.3989999999999996","207.8","10.09","177.3","1015.168","30.33","64.72","172.8","0.0"],
    [1425659,"2026-08-17 13:50:00","1747","2.9989999999999997","200.6","6.076","183.1","1015.039","30.2","65.71","168.9","0.0"],
    [1425660,"2026-08-17 14:00:00","1748","2.812","203.7","5.194","171.5","1014.962","30.33","65.17","175.2","0.0"],
    [1425661,"2026-08-17 14:10:00","1749","3.136","210.6","5.88","219.5","1014.8910000000001","30.32","65.15","234.4","0.0"],
    [1425662,"2026-08-17 14:20:00","1750","2.7230000000000003","200.7","5.096","181","1014.705","31.35","62.1","697.6","0.0"],
    [1425663,"2026-08-17 14:30:00","1751","3.661","189.8","6.174","179.3","1014.665","31.34","62.01","733.0","0.0"],
    [1425664,"2026-08-17 14:40:00","1752","3.008","198.3","5.488","177","1014.556","31.77","61.12","689.2","0.0"],
    [1425665,"2026-08-17 14:50:00","1753","3.738","200.9","7.546","190.8","1014.419","31.35","61.32","610.4","0.0"],
    [1425666,"2026-08-17 15:00:00","1754","3.367","198.8","6.076","175.2","1014.3969999999999","31.3","61.57","529.0","0.0"],
    [1425667,"2026-08-17 15:10:00","1755","3.7430000000000003","211.7","6.37","228.4","1014.314","31.52","62.73","520.5","0.0"],
    [1425668,"2026-08-17 15:20:00","1756","4.001","198.7","6.762","211.6","1014.258","31.26","65.21","614.9","0.0"],
    [1425669,"2026-08-17 15:30:00","1757","4.056","208.7","6.664","211.4","1014.297","31.24","65.24","555.7","0.0"],
    [1425670,"2026-08-17 15:40:00","1758","4.113","205.6","7.35","205.1","1014.335","30.96","65.81","395.3","0.0"],
    [1425671,"2026-08-17 15:50:00","1759","3.31","210.6","6.664","225.6","1014.378","30.54","66.15","144.7","0.0"],
    [1425672,"2026-08-17 16:00:00","1760","3.492","210.8","6.076","217.8","1014.308","30.26","68.0","92.3","0.0"],
    [1425673,"2026-08-17 16:10:00","1761","2.77","213.9","4.704","229.5","1014.334","30.14","68.49","67.74","0.0"],
    [1425674,"2026-08-17 16:20:00","1762","2.7910000000000004","206.3","5.978","209","1014.365","29.94","68.71","54.31","0.0"],
    [1425675,"2026-08-17 16:30:00","1763","2.821","206.0","5.88","195.2","1014.2080000000001","29.82","69.26","44.42","0.0"],
    [1425676,"2026-08-17 16:40:00","1764","2.305","213.5","4.41","241.6","1014.303","29.69","69.69","38.56","0.0"],
    [1425677,"2026-08-17 16:50:00","1765","2.636","215.1","5.292","214.3","1014.3380000000001","29.67","68.84","35.67","0.0"],
    [1425678,"2026-08-17 17:00:00","1766","2.333","210.7","5.292","152.4","1014.201","29.58","68.59","33.26","0.0"],
    [1425679,"2026-08-17 17:10:00","1767","2.147","218.2","4.214","229.2","1014.304","29.59","68.45","33.83","0.0"],
    [1425680,"2026-08-17 17:20:00","1768","1.68","205.2","4.116","191.6","1014.311","29.55","69.06","39.89","0.0"],
    [1425681,"2026-08-17 17:30:00","1769","1.857","197.5","6.37","321.7","1014.169","29.56","69.36","47.01","0.0"],
    [1425682,"2026-08-17 17:40:00","1770","1.892","194.4","6.86","149.3","1014.058","29.53","70.01","48.56","0.0"],
    [1425683,"2026-08-17 17:50:00","1771","1.808","191.9","3.724","196.5","1014.059","29.49","70.6","41.44","0.0"],
    [1425684,"2026-08-17 18:00:00","1772","1.386","190.7","3.332","131.8","1014.174","29.41","71.08","30.54","0.0"],
    [1425685,"2026-08-17 18:10:00","1773","1.663","195.5","3.038","181.4","1014.22","29.38","71.05","21.39","0.0"],
    [1425686,"2026-08-17 18:20:00","1774","1.6340000000000001","187.8","4.214","194.1","1014.209","29.38","71.04","18.18","0.0"],
    [1425687,"2026-08-17 18:30:00","1775","1.3019999999999998","180.1","5.194","164.1","1014.3689999999999","29.34","71.18","10.56","0.0"],
    [1425688,"2026-08-17 18:40:00","1776","1.1320000000000001","170.3","4.018","192.4","1014.419","29.25","71.36","3.7060000000000004","0.0"],
    [1425689,"2026-08-17 18:50:00","1777","1.4180000000000001","186.7","3.136","231.7","1014.3889999999999","29.21","71.74","0.696","0.0"],
    [1425690,"2026-08-17 19:00:00","1778","1.6119999999999999","191.2","3.038","186.8","1014.436","29.2","71.98","-0.9179999999999999","0.0"],
    [1425691,"2026-08-17 19:10:00","1779","1.348","161.4","4.116","156","1014.3889999999999","29.12","72.38","-1.985","0.0"],
    [1425692,"2026-08-17 19:20:00","1780","1.159","182.3","4.312","182.5","1014.453","29.11","72.29","-2.1109999999999998","0.0"],
    [1425693,"2026-08-17 19:30:00","1781","1.073","178.1","3.234","173.3","1014.564","29.07","72.7","-2.524","0.0"],
    [1425694,"2026-08-17 19:40:00","1782","1.162","166.9","2.842","137.6","1014.6389999999999","29.02","72.99","-2.421","0.0"],
    [1425695,"2026-08-17 19:50:00","1783","0.69","162.0","3.822","142.3","1014.755","29.02","73.07","-2.476","0.0"],
    [1425696,"2026-08-17 20:00:00","1784","0.445","151.7","1.47","211.6","1014.868","28.98","73.32","-2.542","0.0"],
    [1425697,"2026-08-17 20:10:00","1785","0.434","125.9","2.156","175","1014.943","28.89","73.72","-2.548","0.0"],
    [1425698,"2026-08-17 20:20:00","1786","0.674","115.4","2.058","139.6","1014.895","28.94","73.76","-2.451","0.0"],
    [1425699,"2026-08-17 20:30:00","1787","0.185","118.4","0.882","85.2","1014.949","28.81","74.27","-2.519","0.0"],
    [1425700,"2026-08-17 20:40:00","1788","0.78","127.2","3.234","123.8","1015.0189999999999","28.76","74.41","-2.546","0.0"],
    [1425701,"2026-08-17 20:50:00","1789","0.875","112.5","2.548","95.1","1015.176","28.88","74.02","-2.312","0.0"],
    [1425702,"2026-08-17 21:00:00","1790","0.905","183.4","2.646","347.1","1015.182","28.89","74.03","-2.359","0.0"],
    [1425703,"2026-08-17 21:10:00","1791","0.485","128.7","1.274","76.27","1015.235","28.83","74.23","-2.359","0.0"],
    [1425704,"2026-08-17 21:20:00","1792","0.754","67.46","1.47","62.6","1015.243","28.62","75.4","-2.545","0.0"],
    [1425705,"2026-08-17 21:30:00","1793","0.33399999999999996","78.87","0.686","76.94","1015.1360000000001","28.44","76.38","-2.569","0.0"],
    [1425706,"2026-08-17 21:40:00","1794","0.29600000000000004","75.74","0.882","76.55","1015.1339999999999","28.32","76.67","-2.537","0.0"],
    [1425707,"2026-08-17 21:50:00","1795","0.3","80.8","0.784","89.9","1015.1489999999999","28.2","77.47","-2.511","0.0"],
    [1425708,"2026-08-17 22:00:00","1796","0.774","62.52","1.176","63.47","1015.225","28.09","77.86","-2.46","0.0"],
    [1425709,"2026-08-17 22:10:00","1797","0.552","56.91","1.078","58.72","1015.199","28.0","78.22","-2.437","0.0"],
    [1425710,"2026-08-17 22:20:00","1798","0.07400000000000001","61.92","0.686","61.92","1015.138","28.03","78.42","-2.146","0.0"],
    [1425711,"2026-08-17 22:30:00","1799","0.192","64.95","0.784","61.92","1015.137","27.94","78.82","-2.294","0.0"],
    [1425712,"2026-08-17 22:40:00","1800","0.191","66.16","0.588","67.49","1015.165","27.82","78.85","-2.031","0.0"],
    [1425713,"2026-08-17 22:50:00","1801","0.0","0.0","0","63.56","1015.1439999999999","27.63","79.6","-1.93","0.0"],
    [1425714,"2026-08-17 23:00:00","1802","0.0","0.0","0","63.56","1015.051","27.7","79.5","-1.8519999999999999","0.0"],
    [1425715,"2026-08-17 23:10:00","1803","0.0","63.56","0.098","63.56","1015.068","27.89","78.44","-1.855","0.0"],
    [1425716,"2026-08-17 23:20:00","1804","0.0","39.9","0.098","43.26","1015.0830000000001","27.77","78.66","-1.8940000000000001","0.0"],
    [1425717,"2026-08-17 23:30:00","1805","0.335","290.6","1.176","267.6","1015.0939999999999","27.71","78.84","-1.9809999999999999","0.0"],
    [1425718,"2026-08-17 23:40:00","1806","1.204","273.7","1.764","276.5","1015.084","27.64","79.12","-2.246","0.0"],
    [1425719,"2026-08-17 23:50:00","1807","0.929","284.7","1.568","274.6","1015.048","27.58","78.7","-2.032","0.0"],
    [1425720,"2026-08-18 00:00:00","1808","0.40700000000000003","282.1","0.784","288.4","1015.01","27.46","78.84","-2.327","0.0"],
    [1425721,"2026-08-18 00:10:00","1809","0.33299999999999996","280.8","0.784","291.5","1014.9680000000001","27.38","79.07","-2.3819999999999997","0.0"],
    [1425722,"2026-08-18 00:20:00","1810","0.816","274.2","1.176","275.8","1014.9789999999999","27.42","79.07","-2.181","0.0"],
    [1425723,"2026-08-18 00:30:00","1811","0.713","268.9","1.274","282.5","1014.966","27.46","78.68","-1.88","0.0"],
    [1425724,"2026-08-18 00:40:00","1812","0.607","271.1","1.274","281.1","1014.961","27.31","79.02","-2.1919999999999997","0.0"],
    [1425725,"2026-08-18 00:50:00","1813","0.9059999999999999","274.1","1.372","282.1","1014.961","27.27","79.23","-2.053","0.0"],
    [1425726,"2026-08-18 01:00:00","1814","0.726","266.6","1.372","271.3","1014.971","27.19","79.36","-2.1790000000000003","0.0"],
    [1425727,"2026-08-18 01:10:00","1815","0.637","269.0","1.176","273.6","1014.9780000000001","27.22","79.22","-2.1390000000000002","0.0"],
    [1425728,"2026-08-18 01:20:00","1816","0.8859999999999999","269.1","1.47","264.9","1014.938","27.21","79.16","-2.305","0.0"],
    [1425729,"2026-08-18 01:30:00","1817","0.5720000000000001","277.9","1.176","285.6","1014.926","27.07","79.41","-2.286","0.0"],
    [1425730,"2026-08-18 01:40:00","1818","0.564","276.4","1.176","285.3","1014.962","26.76","80.5","-2.5860000000000003","0.0"],
    [1425731,"2026-08-18 01:50:00","1819","0.603","281.1","1.176","287","1014.88","26.75","80.8","-2.459","0.0"],
    [1425732,"2026-08-18 02:00:00","1820","0.634","275.8","1.176","277.7","1014.84","26.71","80.9","-2.532","0.0"],
    [1425733,"2026-08-18 02:10:00","1821","0.8809999999999999","275.5","1.47","275.5","1014.85","26.68","81.2","-2.54","0.0"],
    [1425734,"2026-08-18 02:20:00","1822","1.321","270.8","2.156","274","1014.81","26.72","81.0","-2.408","0.0"],
    [1425735,"2026-08-18 02:30:00","1823","1.311","277.6","2.156","277.8","1014.805","26.61","80.9","-2.1390000000000002","0.0"],
    [1425736,"2026-08-18 02:40:00","1824","0.866","278.7","1.764","264.3","1014.752","26.37","81.7","-2.376","0.0"],
    [1425737,"2026-08-18 02:50:00","1825","1.082","280.6","1.666","286.8","1014.7139999999999","26.25","82.1","-2.543","0.0"],
    [1425738,"2026-08-18 03:00:00","1826","0.922","284.0","1.764","305.7","1014.681","26.11","82.6","-2.5669999999999997","0.0"],
    [1425739,"2026-08-18 03:10:00","1827","0.893","278.5","1.568","279","1014.698","26.15","82.5","-2.47","0.0"],
    [1425740,"2026-08-18 03:20:00","1828","0.58","271.1","1.078","275.8","1014.68","26.14","82.3","-2.543","0.0"],
    [1425741,"2026-08-18 03:30:00","1829","0.504","256.6","1.078","254.3","1014.712","26.13","82.1","-2.34","0.0"],
    [1425742,"2026-08-18 03:40:00","1830","0.527","271.1","1.372","279.2","1014.7819999999999","26.06","82.2","-2.1180000000000003","0.0"],
    [1425743,"2026-08-18 03:50:00","1831","0.111","113.2","0.784","127.7","1014.7919999999999","25.97","82.5","-1.946","0.0"],
    [1425744,"2026-08-18 04:00:00","1832","0.057","93.5","0.49","97.4","1014.79","26.01","82.4","-1.859","0.0"],
    [1425745,"2026-08-18 04:10:00","1833","0.165","256.8","0.686","263.7","1014.802","25.87","82.7","-1.946","0.0"],
    [1425746,"2026-08-18 04:20:00","1834","0.545","286.3","0.882","288.1","1014.857","25.77","83.1","-2.1390000000000002","0.0"],
    [1425747,"2026-08-18 04:30:00","1835","0.705","268.5","1.372","284.4","1014.8889999999999","25.82","82.9","-1.86","0.0"],
    [1425748,"2026-08-18 04:40:00","1836","0.257","244.5","0.98","247.7","1014.945","25.95","82.4","-1.849","0.0"],
    [1425749,"2026-08-18 04:50:00","1837","1.067","271.8","2.156","271.6","1014.997","26.02","82.2","-1.6469999999999998","0.0"],
    [1425750,"2026-08-18 05:00:00","1838","1.7890000000000001","276.3","2.646","272","1015.066","25.8","82.8","-0.37799999999999995","0.0"],
    [1425751,"2026-08-18 05:10:00","1839","2.255","275.2","2.842","277.8","1015.196","25.45","83.4","2.4219999999999997","0.0"],
    [1425752,"2026-08-18 05:20:00","1840","1.6369999999999998","272.4","2.156","268.4","1015.315","25.39","83.5","6.785","0.0"],
    [1425753,"2026-08-18 05:30:00","1841","1.0759999999999998","268.9","1.764","273.4","1015.3739999999999","25.39","83.4","13.32","0.0"],
    [1425754,"2026-08-18 05:40:00","1842","0.882","263.3","1.862","277.3","1015.422","25.43","83.1","20.89","0.0"],
    [1425755,"2026-08-18 05:50:00","1843","0.98","251.9","1.764","272.5","1015.4739999999999","25.6","82.3","32.97","0.0"],
    [1425756,"2026-08-18 06:00:00","1844","0.531","246.0","1.47","240.2","1015.512","25.75","81.6","40.44","0.0"],
    [1425757,"2026-08-18 06:10:00","1845","1.851","275.6","2.744","280.3","1015.6039999999999","25.88","81.2","54.09","0.0"],
    [1425758,"2026-08-18 06:20:00","1846","1.128","266.8","1.96","270.9","1015.6569999999999","26.06","80.7","94.5","0.0"],
    [1425759,"2026-08-18 06:30:00","1847","1.1340000000000001","270.6","1.96","277.7","1015.7539999999999","26.35","79.76","67.8","0.0"],
    [1425760,"2026-08-18 06:40:00","1848","0.9790000000000001","266.7","1.862","291.4","1015.775","26.65","78.81","58.66","0.0"],
    [1425761,"2026-08-18 06:50:00","1849","0.8009999999999999","273.8","1.47","284.5","1015.788","26.97","78.02","139.0","0.0"],
    [1425762,"2026-08-18 07:00:00","1850","0.9640000000000001","277.6","1.666","265.6","1015.893","27.7","75.6","234.9","0.0"],
    [1425763,"2026-08-18 07:10:00","1851","1.141","286.1","1.764","282.7","1016.077","28.35","73.3","285.9","0.0"],
    [1425764,"2026-08-18 07:20:00","1852","0.995","308.8","2.45","96.7","1016.145","29.1","71.61","399.7","0.0"],
    [1425765,"2026-08-18 07:30:00","1853","0.517","116.3","3.724","128.3","1016.215","29.97","65.52","303.8","0.0"],
    [1425766,"2026-08-18 07:40:00","1854","1.4","77.81","2.744","83.2","1016.192","29.45","68.66","136.4","0.0"],
    [1425767,"2026-08-18 07:50:00","1855","1.695","81.1","3.038","84.8","1016.118","28.99","72.14","156.1","0.0"],
    [1425768,"2026-08-18 08:00:00","1856","1.072","122.4","3.038","106.7","1016.03","29.3","72.12","378.4","0.0"],
    [1425769,"2026-08-18 08:10:00","1857","0.802","111.3","5.096","116.6","1015.939","30.46","67.49","449.7","0.0"],
    [1425770,"2026-08-18 08:20:00","1858","1.305","142.9","4.116","96","1015.936","30.1","66.45","496.8","0.0"],
    [1425771,"2026-08-18 08:30:00","1859","1.268","165.5","3.92","148.9","1015.962","30.34","64.16","555.4","0.0"],
    [1425772,"2026-08-18 08:40:00","1860","1.101","133.6","3.136","91.1","1015.9680000000001","30.82","60.3","579.1","0.0"],
    [1425773,"2026-08-18 08:50:00","1861","1.879","170.4","4.41","181","1015.951","30.74","59.95","598.7","0.0"],
    [1425774,"2026-08-18 09:00:00","1862","1.5","154.3","4.018","193.3","1015.945","30.97","59.33","621.5","0.0"],
    [1425775,"2026-08-18 09:10:00","1863","1.561","150.8","5.194","159.9","1015.888","31.21","58.72","659.6","0.0"],
    [1425776,"2026-08-18 09:20:00","1864","1.5490000000000002","121.9","4.41","126","1015.8539999999999","31.97","55.61","684.4","0.0"],
    [1425777,"2026-08-18 09:30:00","1865","1.702","117.1","5.586","134.5","1015.87","31.86","55.53","709.1","0.0"],
    [1425778,"2026-08-18 09:40:00","1866","1.217","132.9","4.312","103.7","1015.83","32.01","54.81","734.7","0.0"],
    [1425779,"2026-08-18 09:50:00","1867","1.6440000000000001","135.0","5.194","162.7","1015.7539999999999","31.62","56.39","726.6","0.0"],
    [1425780,"2026-08-18 10:00:00","1868","2.27","157.8","5.586","184.4","1015.689","31.42","61.03","739.6","0.0"],
    [1425781,"2026-08-18 10:10:00","1869","2.87","190.0","6.37","204","1015.6510000000001","31.11","64.64","792.3","0.0"],
    [1425782,"2026-08-18 10:20:00","1870","3.877","198.4","6.958","214.6","1015.597","31.12","65.01","751.2","0.0"],
    [1425783,"2026-08-18 10:30:00","1871","3.2939999999999996","199.3","6.076","226.9","1015.5210000000001","31.7","62.12","836.0","0.0"],
    [1425784,"2026-08-18 10:40:00","1872","4.158","194.9","7.056","187.7","1015.428","31.77","62.59","804.0","0.0"],
    [1425785,"2026-08-18 10:50:00","1873","4.446000000000001","199.1","7.056","216.5","1015.34","31.66","62.87","836.0","0.0"],
    [1425786,"2026-08-18 11:00:00","1874","4.345","203.3","7.448","207.1","1015.312","31.83","62.1","876.0","0.0"],
    [1425787,"2026-08-18 11:10:00","1875","3.8560000000000003","193.3","7.644","180","1015.2869999999999","32.09","61.2","881.0","0.0"],
    [1425788,"2026-08-18 11:20:00","1876","4.43","183.3","7.546","178.9","1015.25","31.65","63.16","864.0","0.0"],
    [1425789,"2026-08-18 11:30:00","1877","3.7680000000000002","200.0","7.546","218","1015.206","31.91","61.74","908.0","0.0"],
    [1425790,"2026-08-18 11:40:00","1878","3.927","197.5","7.742","169.1","1015.154","32.39","60.14","915.0","0.0"],
    [1425791,"2026-08-18 11:50:00","1879","4.226","193.8","7.84","225.4","1015.081","32.09","61.01","918.0","0.0"],
    [1425792,"2026-08-18 12:00:00","1880","3.638","187.7","7.448","176.8","1014.997","32.07","60.64","892.0","0.0"],
    [1425793,"2026-08-18 12:10:00","1881","4.675","179.1","7.938","175","1014.9069999999999","31.72","60.98","892.0","0.0"],
    [1425794,"2026-08-18 12:20:00","1882","3.923","187.5","8.13","181.6","1014.818","31.97","60.51","878.0","0.0"],
    [1425795,"2026-08-18 12:30:00","1883","4.0360000000000005","181.8","7.742","177.5","1014.7439999999999","32.03","58.7","872.0","0.0"],
    [1425796,"2026-08-18 12:40:00","1884","4.46","187.6","8.13","176","1014.7280000000001","32.15","58.65","888.0","0.0"],
    [1425797,"2026-08-18 12:50:00","1885","4.004","187.8","7.84","204.5","1014.681","31.93","57.3","764.4","0.0"],
    [1425798,"2026-08-18 13:00:00","1886","3.4819999999999998","189.4","7.742","194.4","1014.6260000000001","32.09","56.61","677.1","0.0"],
    [1425799,"2026-08-18 13:10:00","1887","4.64","184.7","8.23","199.8","1014.5060000000001","31.9","57.3","778.8","0.0"],
    [1425800,"2026-08-18 13:20:00","1888","4.266","185.2","8.33","174","1014.352","31.94","56.88","829.0","0.0"],
    [1425801,"2026-08-18 13:30:00","1889","4.431","184.8","8.33","186.5","1014.222","32.09","56.61","834.0","0.0"],
    [1425802,"2026-08-18 13:40:00","1890","4.629","185.7","8.62","174.9","1014.082","31.7","58.87","735.4","0.0"],
    [1425803,"2026-08-18 13:50:00","1891","3.8680000000000003","189.8","7.644","176.4","1013.919","32.13","58.67","725.0","0.0"],
    [1425804,"2026-08-18 14:00:00","1892","4.223","194.1","8.33","199","1013.8330000000001","32.22","58.32","770.4","0.0"],
    [1425805,"2026-08-18 14:10:00","1893","5.026","188.2","8.92","190","1013.794","31.63","60.3","746.3","0.0"],
    [1425806,"2026-08-18 14:20:00","1894","4.434","201.0","8.82","193.1","1013.706","31.86","60.55","724.7","0.0"],
    [1425807,"2026-08-18 14:30:00","1895","4.207","201.6","8.53","235.6","1013.591","32.0","60.28","704.4","0.0"],
    [1425808,"2026-08-18 14:40:00","1896","4.849","208.6","8.62","216.9","1013.4739999999999","31.71","61.98","682.9","0.0"],
    [1425809,"2026-08-18 14:50:00","1897","4.32","195.8","7.644","223.8","1013.3989999999999","31.93","61.81","659.9","0.0"],
    [1425810,"2026-08-18 15:00:00","1898","4.245","204.4","8.33","227.8","1013.314","31.67","63.19","631.5","0.0"],
    [1425811,"2026-08-18 15:10:00","1899","4.49","194.5","8.62","179.4","1013.2589999999999","31.46","64.03","595.1","0.0"],
    [1425812,"2026-08-18 15:20:00","1900","4.226","204.3","9.31","214.9","1013.2080000000001","31.64","63.9","589.6","0.0"],
    [1425813,"2026-08-18 15:30:00","1901","4.6","205.6","8.23","234.2","1013.1460000000001","31.54","64.37","549.8","0.0"],
    [1425814,"2026-08-18 15:40:00","1902","3.86","205.4","7.154","243.4","1013.159","31.27","65.32","380.7","0.0"],
    [1425815,"2026-08-18 15:50:00","1903","3.4210000000000003","198.7","7.35","218.1","1013.202","31.43","65.02","423.7","0.0"],
    [1425816,"2026-08-18 16:00:00","1904","4.003","201.7","7.644","214.4","1013.203","30.87","66.91","231.5","0.0"],
    [1425817,"2026-08-18 16:10:00","1905","3.859","194.8","7.546","217.2","1013.169","30.61","67.96","296.2","0.0"],
    [1425818,"2026-08-18 16:20:00","1906","4.421","198.0","8.04","188","1013.066","30.68","67.97","292.8","0.0"],
    [1425819,"2026-08-18 16:30:00","1907","3.657","202.3","7.154","210.7","1013.0139999999999","30.72","68.42","291.3","0.0"],
    [1425820,"2026-08-18 16:40:00","1908","3.72","193.4","7.546","174.6","1013.0110000000001","30.75","68.32","274.2","0.0"],
    [1425821,"2026-08-18 16:50:00","1909","3.7119999999999997","192.3","7.546","205.2","1013.035","30.53","69.56","263.4","0.0"],
    [1425822,"2026-08-18 17:00:00","1910","3.7060000000000004","191.0","7.056","191.9","1013.068","30.16","71.24","158.3","0.0"],
    [1425823,"2026-08-18 17:10:00","1911","3.0810000000000004","190.2","6.272","168.1","1013.0930000000001","30.1","71.5","157.4","0.0"],
    [1425824,"2026-08-18 17:20:00","1912","3.112","191.8","6.664","188.2","1013.005","30.09","72.1","110.2","0.0"],
    [1425825,"2026-08-18 17:30:00","1913","3.199","187.7","6.468","172.9","1012.949","29.77","73.51","85.8","0.0"],
    [1425826,"2026-08-18 17:40:00","1914","3.596","186.7","6.762","200","1012.9010000000001","29.67","74.18","77.62","0.0"],
    [1425827,"2026-08-18 17:50:00","1915","2.928","187.5","5.782","185.4","1012.8539999999999","29.72","74.67","60.08","0.0"],
    [1425828,"2026-08-18 18:00:00","1916","3.469","185.2","7.546","192.4","1012.8389999999999","29.64","75.6","56.49","0.0"],
    [1425829,"2026-08-18 18:10:00","1917","3.197","176.6","5.488","157.5","1012.933","29.52","76.33","33.35","0.0"],
    [1425830,"2026-08-18 18:20:00","1918","2.51","195.5","4.9","185.7","1012.9860000000001","29.62","75.13","29.9","0.0"],
    [1425831,"2026-08-18 18:30:00","1919","2.835","213.5","5.782","213.5","1013.065","29.75","73.81","21.37","0.0"],
    [1425832,"2026-08-18 18:40:00","1920","2.3369999999999997","213.1","4.214","207.6","1013.128","29.73","73.45","10.26","0.0"],
    [1425833,"2026-08-18 18:50:00","1921","2.053","211.1","4.998","216.1","1013.187","29.63","74.78","2.9610000000000003","0.0"],
    [1425834,"2026-08-18 19:00:00","1922","1.9509999999999998","208.1","4.312","237.1","1013.2230000000001","29.49","75.56","-0.057999999999999996","0.0"],
    [1425835,"2026-08-18 19:10:00","1923","1.911","215.1","4.116","233.2","1013.3480000000001","29.41","76.04","-1.043","0.0"],
    [1425836,"2026-08-18 19:20:00","1924","2.002","215.4","3.822","227.5","1013.438","29.42","76.19","-1.031","0.0"],
    [1425837,"2026-08-18 19:30:00","1925","2.253","208.5","4.606","195.8","1013.5110000000001","29.36","76.74","-1.381","0.0"],
    [1425838,"2026-08-18 19:40:00","1926","2.077","212.6","4.018","194.2","1013.648","29.25","76.71","-1.784","0.0"],
    [1425839,"2026-08-18 19:50:00","1927","1.956","220.5","4.116","187.1","1013.7539999999999","29.25","76.68","-1.636","0.0"],
    [1425840,"2026-08-18 20:00:00","1928","1.3530000000000002","220.5","2.548","205.8","1013.8560000000001","29.26","77.07","-1.079","0.0"],
    [1425841,"2026-08-18 20:10:00","1929","1.514","211.1","3.234","177.1","1013.919","29.32","76.53","-1.0390000000000001","0.0"],
    [1425842,"2026-08-18 20:20:00","1930","1.385","196.4","3.038","169.1","1013.988","29.39","74.86","-1.04","0.0"],
    [1425843,"2026-08-18 20:30:00","1931","1.527","176.9","3.724","166.9","1014.066","29.37","73.81","-1.663","0.0"],
    [1425844,"2026-08-18 20:40:00","1932","1.002","163.3","2.842","187.1","1014.1139999999999","29.34","73.6","-1.222","0.0"],
    [1425845,"2026-08-18 20:50:00","1933","1.504","166.8","3.234","151.8","1014.154","29.34","73.48","-1.3259999999999998","0.0"],
    [1425846,"2026-08-18 21:00:00","1934","1.159","172.2","2.744","163.6","1014.16","29.26","73.46","-1.841","0.0"],
    [1425847,"2026-08-18 21:10:00","1935","1.724","182.0","3.43","191.5","1014.1410000000001","29.16","74.77","-2.431","0.0"],
    [1425848,"2026-08-18 21:20:00","1936","1.974","183.1","3.528","181.3","1014.074","29.07","76.63","-2.532","0.0"],
    [1425849,"2026-08-18 21:30:00","1937","2.075","184.7","3.626","181.5","1014.0139999999999","28.96","77.07","-2.548","0.0"],
    [1425850,"2026-08-18 21:40:00","1938","1.7309999999999999","169.5","3.724","171.6","1014.05","28.9","77.85","-2.501","0.0"],
    [1425851,"2026-08-18 21:50:00","1939","1.31","179.8","2.842","181.2","1014.082","28.78","78.01","-2.551","0.0"],
    [1425852,"2026-08-18 22:00:00","1940","1.194","185.9","2.254","160.5","1014.1","28.76","77.05","-2.55","0.0"],
    [1425853,"2026-08-18 22:10:00","1941","1.105","184.7","1.96","167.6","1014.123","28.74","77.51","-2.552","0.0"],
    [1425854,"2026-08-18 22:20:00","1942","0.797","200.6","1.568","222.5","1014.1460000000001","28.65","77.74","-2.551","0.0"],
    [1425855,"2026-08-18 22:30:00","1943","0.8170000000000001","207.2","1.47","214.4","1014.084","28.55","77.85","-2.553","0.0"],
    [1425856,"2026-08-18 22:40:00","1944","0.8340000000000001","207.2","2.058","215.6","1014.0210000000001","28.41","78.38","-2.569","0.0"],
    [1425857,"2026-08-18 22:50:00","1945","0.92","200.0","1.862","225.1","1014.003","28.39","79.06","-2.575","0.0"],
    [1425858,"2026-08-18 23:00:00","1946","1.268","212.1","2.548","214.1","1013.967","28.36","80.1","-2.575","0.0"],
    [1425859,"2026-08-18 23:10:00","1947","1.1079999999999999","215.1","2.156","224","1013.91","28.26","79.97","-2.58","0.0"],
    [1425860,"2026-08-18 23:20:00","1948","0.82","209.8","1.96","223.6","1013.8560000000001","28.22","80.2","-2.5860000000000003","0.0"],
    [1425861,"2026-08-18 23:30:00","1949","1.5119999999999998","215.2","2.45","217.7","1013.832","28.19","80.5","-2.5839999999999996","0.0"],
    [1425862,"2026-08-18 23:40:00","1950","1.624","215.9","2.548","216.3","1013.811","28.16","79.88","-2.5839999999999996","0.0"],
    [1425863,"2026-08-18 23:50:00","1951","1.736","211.5","2.548","207.7","1013.7389999999999","28.13","79.29","-2.555","0.0"],
    [1425864,"2026-08-19 00:00:00","1952","1.663","225.9","2.94","246.6","1013.684","28.09","79.59","-2.0380000000000003","0.0"],
    [1425865,"2026-08-19 00:10:00","1953","0.7709999999999999","244.9","1.96","225.3","1013.585","28.06","80.4","-1.7830000000000001","0.0"],
    [1425866,"2026-08-19 00:20:00","1954","0.652","273.4","1.568","266","1013.4839999999999","27.77","80.3","-2.457","0.0"],
    [1425867,"2026-08-19 00:30:00","1955","0.135","278.9","0.588","286.1","1013.367","27.62","80.2","-2.592","0.0"],
    [1425868,"2026-08-19 00:40:00","1956","0.46399999999999997","247.3","0.98","232.7","1013.279","27.54","80.5","-2.5780000000000003","0.0"],
    [1425869,"2026-08-19 00:50:00","1957","0.648","268.5","1.274","254.5","1013.164","27.49","80.7","-2.503","0.0"],
    [1425870,"2026-08-19 01:00:00","1958","0.32899999999999996","275.9","0.882","278.7","1013.118","27.41","81.0","-2.592","0.0"],
    [1425871,"2026-08-19 01:10:00","1959","0.684","281.7","1.274","290.7","1013.044","27.31","81.5","-2.5639999999999996","0.0"],
    [1425872,"2026-08-19 01:20:00","1960","0.542","286.0","1.176","275.3","1012.957","27.29","81.6","-2.222","0.0"],
    [1425873,"2026-08-19 01:30:00","1961","0.718","275.0","1.47","273.6","1012.924","27.17","81.6","-2.385","0.0"],
    [1425874,"2026-08-19 01:40:00","1962","0.6779999999999999","272.9","1.47","276.5","1012.924","26.93","82.1","-2.589","0.0"],
    [1425875,"2026-08-19 01:50:00","1963","0.807","277.9","1.568","269","1012.9169999999999","26.85","82.2","-2.548","0.0"],
    [1425876,"2026-08-19 02:00:00","1964","0.856","271.0","1.47","267.8","1012.794","26.77","82.4","-2.571","0.0"],
    [1425877,"2026-08-19 02:10:00","1965","0.56","279.5","1.274","282.4","1012.7489999999999","26.61","82.5","-2.577","0.0"],
    [1425878,"2026-08-19 02:20:00","1966","0.7120000000000001","283.5","1.176","272.2","1012.669","26.54","82.8","-2.575","0.0"],
    [1425879,"2026-08-19 02:30:00","1967","0.5920000000000001","281.3","1.176","282.1","1012.6110000000001","26.44","83.0","-2.588","0.0"],
    [1425880,"2026-08-19 02:40:00","1968","0.7659999999999999","276.7","1.176","299.4","1012.538","26.42","83.2","-2.593","0.0"],
    [1425881,"2026-08-19 02:50:00","1969","0.5","276.3","1.176","278","1012.441","26.64","82.6","-2.301","0.0"],
    [1425882,"2026-08-19 03:00:00","1970","0.983","258.2","1.568","249.2","1012.4110000000001","26.63","82.3","-2.201","0.0"],
    [1425883,"2026-08-19 03:10:00","1971","1.133","278.5","1.96","278.5","1012.418","26.53","82.3","-2.306","0.0"],
    [1425884,"2026-08-19 03:20:00","1972","0.946","280.8","2.058","281.2","1012.3889999999999","26.21","83.1","-2.5580000000000003","0.0"],
    [1425885,"2026-08-19 03:30:00","1973","0.813","283.1","1.862","280.9","1012.29","26.06","83.8","-2.593","0.0"],
    [1425886,"2026-08-19 03:40:00","1974","0.8109999999999999","278.9","1.47","302.1","1012.2510000000001","26.06","83.7","-2.576","0.0"],
    [1425887,"2026-08-19 03:50:00","1975","0.861","270.0","1.666","279","1012.2510000000001","26.03","83.7","-2.557","0.0"],
    [1425888,"2026-08-19 04:00:00","1976","0.8079999999999999","282.2","1.666","283","1012.155","25.99","83.5","-2.47","0.0"],
    [1425889,"2026-08-19 04:10:00","1977","0.956","286.1","1.372","294.2","1012.0310000000001","25.88","83.8","-2.5839999999999996","0.0"],
    [1425890,"2026-08-19 04:20:00","1978","0.912","275.7","1.47","277.5","1011.99","25.87","83.9","-2.5580000000000003","0.0"],
    [1425891,"2026-08-19 04:30:00","1979","0.7340000000000001","289.6","1.176","306.7","1011.993","25.87","83.9","-2.573","0.0"],
    [1425892,"2026-08-19 04:40:00","1980","1.0","280.8","1.666","281.9","1011.962","25.83","84.1","-2.574","0.0"],
    [1425893,"2026-08-19 04:50:00","1981","0.898","277.5","1.568","270.7","1011.951","25.93","84.0","-2.032","0.0"],
    [1425894,"2026-08-19 05:00:00","1982","0.8909999999999999","273.6","1.666","285.6","1011.92","25.92","84.0","-0.853","0.0"],
    [1425895,"2026-08-19 05:10:00","1983","0.727","261.8","1.568","276.2","1011.927","25.91","84.3","2.419","0.0"],
    [1425896,"2026-08-19 05:20:00","1984","0.863","270.9","1.666","243.2","1011.8960000000001","25.94","84.0","9.59","0.0"],
    [1425897,"2026-08-19 05:30:00","1985","0.856","268.1","1.666","281.2","1011.924","25.87","84.2","21.44","0.0"],
    [1425898,"2026-08-19 05:40:00","1986","0.919","270.5","1.96","261.6","1011.914","26.0","83.7","38.11","0.0"],
    [1425899,"2026-08-19 05:50:00","1987","0.777","273.2","1.764","279.3","1011.8889999999999","26.09","83.0","55.76","0.0"],
    [1425900,"2026-08-19 06:00:00","1988","0.841","271.9","1.764","291.1","1011.8960000000001","26.33","81.9","73.42","0.0"],
    [1425901,"2026-08-19 06:10:00","1989","1.146","281.4","1.862","262.8","1011.865","26.66","80.6","93.9","0.0"],
    [1425902,"2026-08-19 06:20:00","1990","1.218","285.4","2.156","263.5","1011.8760000000001","27.01","79.17","118.6","0.0"],
    [1425903,"2026-08-19 06:30:00","1991","1.5959999999999999","285.2","2.548","270.2","1011.8939999999999","27.29","77.76","145.7","0.0"],
    [1425904,"2026-08-19 06:40:00","1992","1.386","283.1","2.156","283.3","1011.82","27.61","76.49","174.0","0.0"],
    [1425905,"2026-08-19 06:50:00","1993","1.317","279.6","2.548","306.5","1011.826","27.97","75.35","204.8","0.0"],
    [1425906,"2026-08-19 07:00:00","1994","1.5119999999999998","272.6","2.548","256.3","1011.8480000000001","28.28","74.38","236.7","0.0"],
    [1425907,"2026-08-19 07:10:00","1995","1.5619999999999998","276.9","2.646","270.2","1011.845","28.5","74.19","270.6","0.0"],
    [1425908,"2026-08-19 07:20:00","1996","1.994","279.7","2.842","281.5","1011.768","28.64","74.29","302.9","0.0"],
    [1425909,"2026-08-19 07:30:00","1997","1.744","292.9","3.234","294","1011.7410000000001","29.01","73.92","334.1","0.0"],
    [1425910,"2026-08-19 07:40:00","1998","1.143","251.3","2.646","275.2","1011.7460000000001","29.5","72.67","364.6","0.0"],
    [1425911,"2026-08-19 07:50:00","1999","1.35","227.2","2.94","206.6","1011.737","29.9","71.38","394.8","0.0"],
    [1425912,"2026-08-19 08:00:00","2000","0.9620000000000001","244.9","2.744","236.3","1011.686","30.11","70.89","418.3","0.0"],
    [1425913,"2026-08-19 08:10:00","2001","1.8840000000000001","220.8","3.528","213","1011.6460000000001","30.14","70.04","446.6","0.0"],
    [1425914,"2026-08-19 08:20:00","2002","1.6440000000000001","201.7","4.998","203.1","1011.567","30.43","69.08","457.9","0.0"],
    [1425915,"2026-08-19 08:30:00","2003","2.596","203.1","5.978","197","1011.57","30.91","67.74","533.7","0.0"],
    [1425916,"2026-08-19 08:40:00","2004","2.609","205.2","4.508","186.7","1011.6139999999999","30.77","68.71","559.9","0.0"],
    [1425917,"2026-08-19 08:50:00","2005","2.498","192.5","5.488","185.6","1011.6339999999999","30.57","70.39","590.8","0.0"],
    [1425918,"2026-08-19 09:00:00","2006","2.426","202.6","5.096","165.7","1011.6389999999999","30.9","69.63","619.0","0.0"],
    [1425919,"2026-08-19 09:10:00","2007","2.955","190.0","5.586","166.8","1011.613","31.02","68.72","648.4","0.0"],
    [1425920,"2026-08-19 09:20:00","2008","3.09","193.3","5.978","179.8","1011.563","30.8","69.63","674.7","0.0"],
    [1425921,"2026-08-19 09:30:00","2009","2.795","203.9","5.39","215.6","1011.5360000000001","31.27","68.13","697.4","0.0"],
    [1425922,"2026-08-19 09:40:00","2010","3.4560000000000004","198.7","6.272","187","1011.5210000000001","31.05","68.66","721.1","0.0"],
    [1425923,"2026-08-19 09:50:00","2011","3.5380000000000003","198.0","5.978","211.7","1011.5210000000001","30.92","69.53","739.4","0.0"],
    [1425924,"2026-08-19 10:00:00","2012","3.678","199.1","6.86","223.4","1011.4889999999999","31.07","69.04","757.0","0.0"],
    [1425925,"2026-08-19 10:10:00","2013","3.411","195.1","6.174","173.9","1011.375","31.16","68.31","773.8","0.0"],
    [1425926,"2026-08-19 10:20:00","2014","3.3960000000000004","192.2","6.958","183.3","1011.3639999999999","31.4","65.3","790.4","0.0"],
    [1425927,"2026-08-19 10:30:00","2015","4.085","190.8","7.056","176.6","1011.278","31.38","65.28","804.0","0.0"],
    [1425928,"2026-08-19 10:40:00","2016","3.264","193.3","8.23","155.6","1011.247","31.44","65.72","818.0","0.0"],
    [1425929,"2026-08-19 10:50:00","2017","3.508","200.8","6.86","192.4","1011.158","31.84","65.02","830.0","0.0"],
    [1425930,"2026-08-19 11:00:00","2018","3.139","201.2","5.096","223.4","1011.066","31.34","67.65","842.0","0.0"],
    [1425931,"2026-08-19 11:10:00","2019","4.223","215.9","6.566","195.4","1010.948","31.56","67.34","850.0","0.0"],
    [1425932,"2026-08-19 11:20:00","2020","3.6919999999999997","204.1","6.958","230.1","1010.8560000000001","31.7","67.35","857.0","0.0"],
    [1425933,"2026-08-19 11:30:00","2021","3.838","205.9","6.958","216.7","1010.77","31.68","67.8","862.0","0.0"],
    [1425934,"2026-08-19 11:40:00","2022","3.5389999999999997","196.1","6.076","234.3","1010.7360000000001","31.66","68.14","866.0","0.0"],
    [1425935,"2026-08-19 11:50:00","2023","3.181","197.3","6.174","180.9","1010.682","31.92","67.78","866.0","0.0"],
    [1425936,"2026-08-19 12:00:00","2024","3.617","205.4","7.84","226.4","1010.547","31.79","68.22","867.0","0.0"],
    [1425937,"2026-08-19 12:10:00","2025","3.855","199.9","6.958","240","1010.477","31.82","68.17","867.0","0.0"],
    [1425938,"2026-08-19 12:20:00","2026","3.965","201.8","6.86","183.8","1010.409","31.77","68.59","865.0","0.0"],
    [1425939,"2026-08-19 12:30:00","2027","3.755","200.9","6.958","228.9","1010.362","32.07","67.36","861.0","0.0"],
    [1425940,"2026-08-19 12:40:00","2028","4.013","194.2","7.056","177.1","1010.215","32.29","66.26","858.0","0.0"],
    [1425941,"2026-08-19 12:50:00","2029","3.7239999999999998","196.0","7.154","186.9","1010.079","32.41","66.24","850.0","0.0"],
    [1425942,"2026-08-19 13:00:00","2030","3.674","201.6","6.468","185","1009.9689999999999","32.41","66.99","842.0","0.0"],
    [1425943,"2026-08-19 13:10:00","2031","3.803","203.0","7.154","231.4","1009.862","32.23","68.15","832.0","0.0"],
    [1425944,"2026-08-19 13:20:00","2032","3.5010000000000003","200.6","7.154","219.1","1009.785","32.14","68.61","820.0","0.0"],
    [1425945,"2026-08-19 13:30:00","2033","4.109","195.6","7.35","216.5","1009.7130000000001","32.24","67.92","807.0","0.0"],
    [1425946,"2026-08-19 13:40:00","2034","4.271","197.6","6.958","169.1","1009.6030000000001","32.25","69.1","791.4","0.0"],
    [1425947,"2026-08-19 13:50:00","2035","4.169","200.9","7.546","217","1009.495","32.1","69.97","776.5","0.0"],
    [1425948,"2026-08-19 14:00:00","2036","3.883","198.8","6.86","166.7","1009.408","32.56","69.61","757.2","0.0"],
    [1425949,"2026-08-19 14:10:00","2037","3.7510000000000003","197.3","7.35","196.5","1009.315","32.27","70.05","740.0","0.0"],
    [1425950,"2026-08-19 14:20:00","2038","3.835","202.8","6.958","212.7","1009.225","32.36","69.93","720.4","0.0"],
    [1425951,"2026-08-19 14:30:00","2039","3.818","193.6","7.938","178.8","1009.1619999999999","32.52","70.02","702.2","0.0"],
    [1425952,"2026-08-19 14:40:00","2040","3.471","198.5","7.35","175.5","1008.904","32.35","71.77","667.9","0.0"],
    [1425953,"2026-08-19 14:50:00","2041","3.388","200.8","6.664","217","1008.806","32.31","72.49","666.9","0.0"],
    [1425954,"2026-08-19 15:00:00","2042","4.44","210.3","7.546","216.3","1009.023","32.02","72.81","649.1","0.0"],
    [1425955,"2026-08-19 15:10:00","2043","3.258","202.8","6.664","183","1008.932","32.29","70.9","535.8","0.0"],
    [1425956,"2026-08-19 15:20:00","2044","3.66","201.9","6.958","214.8","1008.625","32.11","71.37","350.2","0.0"],
    [1425957,"2026-08-19 15:30:00","2045","3.673","213.4","8.53","229.3","1008.809","31.71","73.19","342.1","0.0"],
    [1425958,"2026-08-19 15:40:00","2046","5.202999999999999","214.8","8.04","236.4","1008.863","31.16","75.0","245.3","0.0"],
    [1425959,"2026-08-19 15:50:00","2047","3.947","207.9","7.154","194.8","1008.5419999999999","31.01","74.92","211.9","0.0"],
    [1425960,"2026-08-19 16:00:00","2048","4.126","221.2","7.938","223.6","1008.4760000000001","30.86","75.61","206.1","0.0"],
    [1425961,"2026-08-19 16:10:00","2049","4.524","220.0","7.154","226.7","1008.58","30.63","76.47","193.8","0.0"],
    [1425962,"2026-08-19 16:20:00","2050","4.622","221.2","8.33","223.9","1008.57","30.61","75.63","190.0","0.0"],
    [1425963,"2026-08-19 16:30:00","2051","5.347","216.0","9.31","204","1008.528","30.71","74.69","210.8","0.0"],
    [1425964,"2026-08-19 16:40:00","2052","4.295","216.9","8.23","227.9","1008.574","30.8","74.42","237.9","0.0"],
    [1425965,"2026-08-19 16:50:00","2053","5.178","219.0","9.51","220","1008.575","30.85","74.56","233.9","0.0"],
    [1425966,"2026-08-19 17:00:00","2054","4.965","219.1","8.43","221.2","1008.441","30.8","74.62","204.9","0.0"],
    [1425967,"2026-08-19 17:10:00","2055","3.641","208.1","7.056","198.8","1008.334","30.53","76.07","121.8","0.0"],
    [1425968,"2026-08-19 17:20:00","2056","3.426","210.4","6.762","205.7","1008.297","30.45","75.5","93.6","0.0"],
    [1425969,"2026-08-19 17:30:00","2057","3.0460000000000003","210.7","6.468","223.7","1008.3","30.3","74.68","93.2","0.0"],
    [1425970,"2026-08-19 17:40:00","2058","3.46","207.6","6.762","200.5","1008.2339999999999","30.33","75.05","101.1","0.0"],
    [1425971,"2026-08-19 17:50:00","2059","3.247","204.6","6.076","220.1","1008.17","30.26","75.96","77.72","0.0"],
    [1425972,"2026-08-19 18:00:00","2060","3.155","204.1","5.88","220.6","1008.107","30.06","77.19","68.78","0.0"],
    [1425973,"2026-08-19 18:10:00","2061","2.917","192.6","6.076","173.2","1008.17","29.99","77.69","75.85","0.0"],
    [1425974,"2026-08-19 18:20:00","2062","2.917","189.7","5.292","177.8","1008.2360000000001","29.83","78.23","49.52","0.0"],
    [1425975,"2026-08-19 18:30:00","2063","2.6260000000000003","203.0","4.606","226.9","1008.377","29.68","78.2","25.66","0.0"],
    [1425976,"2026-08-19 18:40:00","2064","2.4419999999999997","201.1","5.096","219.2","1008.4839999999999","29.55","79.17","7.621","0.0"],
    [1425977,"2026-08-19 18:50:00","2065","2.395","209.6","4.704","217.4","1008.515","29.44","78.99","0.63","0.0"],
    [1425978,"2026-08-19 19:00:00","2066","2.568","210.6","4.9","210.3","1008.665","29.35","78.86","-1.605","0.0"],
    [1425979,"2026-08-19 19:10:00","2067","2.374","208.7","4.802","212.4","1008.716","29.32","78.93","-2.515","0.0"],
    [1425980,"2026-08-19 19:20:00","2068","3.198","213.8","7.35","224","1008.7860000000001","29.3","79.33","-2.532","0.0"],
    [1425981,"2026-08-19 19:30:00","2069","3.217","216.5","5.782","239","1008.8510000000001","29.28","80.3","-2.5140000000000002","0.0"],
    [1425982,"2026-08-19 19:40:00","2070","3.435","217.5","6.272","218.7","1008.9169999999999","29.24","81.0","-2.524","0.0"],
    [1425983,"2026-08-19 19:50:00","2071","3.656","216.6","7.546","236.8","1008.9739999999999","29.24","80.4","-2.531","0.0"],
    [1425984,"2026-08-19 20:00:00","2072","2.86","227.4","4.704","221.4","1008.959","29.25","80.1","-2.543","0.0"],
    [1425985,"2026-08-19 20:10:00","2073","1.89","230.1","3.234","223.7","1008.921","29.12","79.91","-2.542","0.0"],
    [1425986,"2026-08-19 20:20:00","2074","1.5659999999999998","226.2","2.646","214.1","1009.0239999999999","29.07","80.8","-2.545","0.0"],
    [1425987,"2026-08-19 20:30:00","2075","1.206","211.4","3.234","203.5","1009.055","28.98","81.5","-2.553","0.0"],
    [1425988,"2026-08-19 20:40:00","2076","1.933","210.6","3.43","194.5","1009.153","28.95","81.3","-2.55","0.0"],
    [1425989,"2026-08-19 20:50:00","2077","2.25","221.3","4.606","209.8","1009.28","28.96","81.3","-2.512","0.0"],
    [1425990,"2026-08-19 21:00:00","2078","1.325","217.2","2.646","198.3","1009.278","29.05","81.3","-2.1430000000000002","0.0"],
    [1425991,"2026-08-19 21:10:00","2079","1.026","212.1","2.352","196.7","1009.294","29.03","81.5","-2.546","0.0"],
    [1425992,"2026-08-19 21:20:00","2080","0.37200000000000005","222.1","0.98","260.6","1009.1669999999999","28.93","81.8","-2.55","0.0"],
    [1425993,"2026-08-19 21:30:00","2081","0.20199999999999999","188.2","0.882","187.2","1009.0930000000001","28.86","82.3","-2.4290000000000003","0.0"],
    [1425994,"2026-08-19 21:40:00","2082","0.12","135.0","0.588","140.9","1009.12","28.74","82.9","-2.455","0.0"],
    [1425995,"2026-08-19 21:50:00","2083","0.33799999999999997","123.0","2.058","164","1009.003","28.8","83.1","-2.307","0.0"],
    [1425996,"2026-08-19 22:00:00","2084","0.518","147.4","2.548","158.7","1008.882","28.91","84.0","-2.539","0.0"],
    [1425997,"2026-08-19 22:10:00","2085","1.215","180.1","2.254","190.4","1009.044","28.96","84.2","-2.48","0.0"],
    [1425998,"2026-08-19 22:20:00","2086","0.655","164.5","1.666","164.1","1009.079","28.98","84.9","-2.374","0.0"],
    [1425999,"2026-08-19 22:30:00","2087","0.593","163.6","1.568","164.3","1009.0110000000001","28.97","85.6","-2.0980000000000003","0.0"],
    [1426000,"2026-08-19 22:40:00","2088","0.706","179.1","1.764","190.7","1009.023","28.95","85.9","-1.601","0.0"],
    [1426001,"2026-08-19 22:50:00","2089","0.047","156.6","0.588","145.3","1009.068","28.92","85.9","-1.081","0.0"],
    [1426002,"2026-08-19 23:00:00","2090","0.087","246.2","0.882","252.5","1009.107","28.92","85.7","-1.063","0.0"],
    [1426003,"2026-08-19 23:10:00","2091","0.16699999999999998","344.6","0.98","0.872","1009.198","28.98","85.4","-1.1320000000000001","0.0"],
    [1426004,"2026-08-19 23:20:00","2092","1.121","1.325","1.666","2.132","1009.2310000000001","28.96","85.2","-1.083","0.0"],
    [1426005,"2026-08-19 23:30:00","2093","1.057","17.1","1.862","6.009","1009.2389999999999","29.09","84.8","-0.9490000000000001","0.0"],
    [1426006,"2026-08-19 23:40:00","2094","1.147","11.39","1.96","17.06","1009.166","29.16","84.3","-1.062","0.0"],
    [1426007,"2026-08-19 23:50:00","2095","1.058","44.91","2.058","38.19","1009.2719999999999","29.16","84.0","-1.695","0.0"],
    [1426008,"2026-08-20 00:00:00","2096","0.975","32.21","2.058","29.17","1009.2660000000001","29.12","83.8","-1.645","0.0"],
    [1426009,"2026-08-20 00:10:00","2097","1.825","66.12","3.136","66.15","1009.2719999999999","29.08","84.1","-2.213","0.0"],
    [1426010,"2026-08-20 00:20:00","2098","2.918","54.78","4.214","50.84","1009.2180000000001","28.8","85.0","-1.7890000000000001","0.0"],
    [1426011,"2026-08-20 00:30:00","2099","2.279","39.76","3.626","41.19","1009.319","28.6","85.8","-1.891","0.0"],
    [1426012,"2026-08-20 00:40:00","2100","2.441","43.54","3.626","40.95","1009.45","28.57","85.6","-1.8130000000000002","0.0"],
    [1426013,"2026-08-20 00:50:00","2101","2.531","50.49","4.508","58.87","1009.332","28.57","85.1","-1.8030000000000002","0.0"],
    [1426014,"2026-08-20 01:00:00","2102","2.6180000000000003","46.11","4.508","38.96","1009.1239999999999","28.59","84.9","-1.808","0.0"],
    [1426015,"2026-08-20 01:10:00","2103","2.843","55.42","4.41","77.28","1009.077","28.53","84.9","-1.8319999999999999","0.0"],
    [1426016,"2026-08-20 01:20:00","2104","2.424","53.67","4.704","58.05","1009.283","28.49","85.6","-1.815","0.0"],
    [1426017,"2026-08-20 01:30:00","2105","2.06","55.45","3.038","62.08","1009.3330000000001","28.45","86.3","-1.8130000000000002","0.0"],
    [1426018,"2026-08-20 01:40:00","2106","2.084","50.76","3.626","48.65","1009.422","28.46","86.7","-1.28","0.0"],
    [1426019,"2026-08-20 01:50:00","2107","1.9609999999999999","46.24","3.43","39.83","1009.355","28.49","86.6","-1.208","0.0"],
    [1426020,"2026-08-20 02:00:00","2108","1.714","39.76","2.842","37.22","1009.2489999999999","28.49","86.3","-1.704","0.0"],
    [1426021,"2026-08-20 02:10:00","2109","2.0909999999999997","51.36","3.332","45.65","1009.196","28.45","86.2","-1.805","0.0"],
    [1426022,"2026-08-20 02:20:00","2110","2.022","54.03","3.234","55.82","1009.177","28.36","86.6","-1.8130000000000002","0.0"],
    [1426023,"2026-08-20 02:30:00","2111","2.177","54.86","3.332","39.83","1009.199","28.29","86.5","-1.8130000000000002","0.0"],
    [1426024,"2026-08-20 02:40:00","2112","1.736","44.9","3.332","39.39","1009.1460000000001","28.3","86.6","-1.837","0.0"],
    [1426025,"2026-08-20 02:50:00","2113","2.031","44.38","3.626","34.16","1009.212","28.36","87.0","-1.8330000000000002","0.0"],
    [1426026,"2026-08-20 03:00:00","2114","2.299","49.51","4.312","34.98","1009.398","28.38","86.5","-1.28","0.0"],
    [1426027,"2026-08-20 03:10:00","2115","2.329","47.36","3.528","32.75","1009.432","28.3","84.5","-1.085","0.0"],
    [1426028,"2026-08-20 03:20:00","2116","2.8","43.62","4.606","35.18","1009.408","28.4","84.0","-1.6440000000000001","0.0"],
    [1426029,"2026-08-20 03:30:00","2117","2.8819999999999997","39.78","4.998","25.34","1009.508","28.37","84.6","-1.3869999999999998","0.0"],
    [1426030,"2026-08-20 03:40:00","2118","2.8510000000000004","40.51","4.508","42.88","1009.525","28.45","83.7","-1.064","0.0"],
    [1426031,"2026-08-20 03:50:00","2119","3.1239999999999997","45.82","6.272","39.49","1009.51","28.51","82.1","-0.626","0.0"],
    [1426032,"2026-08-20 04:00:00","2120","4.018","46.46","7.154","52.43","1009.597","28.47","80.6","-0.706","0.0"],
    [1426033,"2026-08-20 04:10:00","2121","3.182","46.5","5.684","36.05","1009.663","28.47","82.4","-0.848","0.0"],
    [1426034,"2026-08-20 04:20:00","2122","3.3989999999999996","47.29","5.782","49.38","1009.6669999999999","28.32","84.3","-1.057","0.0"],
    [1426035,"2026-08-20 04:30:00","2123","3.5580000000000003","37.58","6.37","39.83","1009.748","28.32","85.4","-1.052","0.0"],
    [1426036,"2026-08-20 04:40:00","2124","2.819","51.38","5.782","36.49","1009.8660000000001","28.29","84.2","-1.055","0.0"],
    [1426037,"2026-08-20 04:50:00","2125","1.761","36.53","2.94","25.78","1010.0160000000001","28.5","83.3","-1.054","0.0"],
    [1426038,"2026-08-20 05:00:00","2126","2.377","73.17","6.076","113.8","1010.2389999999999","28.68","82.3","-0.733","0.0"],
    [1426039,"2026-08-20 05:10:00","2127","3.6639999999999997","91.0","6.664","138.9","1010.328","28.65","74.75","-0.402","0.0"],
    [1426040,"2026-08-20 05:20:00","2128","2.479","94.3","8.04","66.29","1010.2260000000001","28.78","74.94","5.672999999999999","0.0"],
    [1426041,"2026-08-20 05:30:00","2129","4.11","90.6","6.86","109.4","1010.4119999999999","28.73","74.99","4.202","0.0"],
    [1426042,"2026-08-20 05:40:00","2130","3.299","84.9","6.566","63.97","1010.459","28.72","74.37","6.938","0.0"],
    [1426043,"2026-08-20 05:50:00","2131","3.864","86.8","6.076","71.28","1010.564","28.74","75.16","11.35","0.0"],
    [1426044,"2026-08-20 06:00:00","2132","3.58","94.0","6.174","92.7","1010.69","28.8","74.37","11.15","0.0"],
    [1426045,"2026-08-20 06:10:00","2133","3.178","99.0","5.586","80.3","1010.7289999999999","28.93","73.58","14.71","0.0"],
    [1426046,"2026-08-20 06:20:00","2134","2.5989999999999998","98.4","5.88","78.84","1010.8510000000001","29.06","70.87","8.7","0.0"],
    [1426047,"2026-08-20 06:30:00","2135","3.2460000000000004","90.8","6.37","145.1","1010.738","29.24","69.14","21.17","0.0"],
    [1426048,"2026-08-20 06:40:00","2136","3.2439999999999998","81.2","4.606","79.28","1010.6469999999999","29.21","69.98","15.63","0.0"],
    [1426049,"2026-08-20 06:50:00","2137","3.7510000000000003","81.0","5.096","82.9","1010.632","29.2","67.62","17.49","0.0"],
    [1426050,"2026-08-20 07:00:00","2138","2.7910000000000004","57.87","4.802","72.16","1010.535","29.14","69.65","21.06","0.0"],
    [1426051,"2026-08-20 07:10:00","2139","3.0610000000000004","52.11","4.9","54.61","1010.6110000000001","28.05","77.34","14.46","0.0"],
    [1426052,"2026-08-20 07:20:00","2140","2.988","62.99","4.9","85.9","1010.6339999999999","27.22","82.5","17.78","0.0"],
    [1426053,"2026-08-20 07:30:00","2141","2.9560000000000004","56.88","4.508","43.51","1010.676","27.19","82.7","20.23","0.0"],
    [1426054,"2026-08-20 07:40:00","2142","2.964","60.46","5.096","44.04","1010.71","27.41","80.8","30.12","0.0"],
    [1426055,"2026-08-20 07:50:00","2143","2.755","60.55","3.92","37.89","1010.818","27.63","78.87","30.46","0.0"],
    [1426056,"2026-08-20 08:00:00","2144","2.772","66.44","4.214","66.18","1010.8639999999999","27.74","78.66","29.32","0.0"],
    [1426057,"2026-08-20 08:10:00","2145","2.841","61.66","4.116","70.2","1010.788","27.82","78.42","50.37","0.0"],
    [1426058,"2026-08-20 08:20:00","2146","3.0439999999999996","61.75","4.606","59.83","1010.727","27.98","78.46","73.19","0.0"],
    [1426059,"2026-08-20 08:30:00","2147","2.708","57.57","4.018","58.38","1010.7639999999999","28.05","78.89","98.8","0.0"],
    [1426060,"2026-08-20 08:40:00","2148","2.904","60.24","4.704","56.64","1010.837","28.05","78.45","133.6","0.0"],
    [1426061,"2026-08-20 08:50:00","2149","3.483","56.03","4.998","49.27","1010.888","28.05","77.85","128.1","0.0"],
    [1426062,"2026-08-20 09:00:00","2150","3.1710000000000003","52.16","4.606","45.79","1010.8510000000001","28.15","77.37","152.2","0.0"],
    [1426063,"2026-08-20 09:10:00","2151","2.843","46.03","4.214","64.59","1010.9169999999999","28.32","76.11","213.7","0.0"],
    [1426064,"2026-08-20 09:20:00","2152","2.906","46.66","5.194","42.3","1010.904","28.48","74.51","172.1","0.0"],
    [1426065,"2026-08-20 09:30:00","2153","3.747","35.75","5.39","36.3","1010.877","28.43","74.21","186.2","0.0"],
    [1426066,"2026-08-20 09:40:00","2154","3.295","43.18","5.978","47.39","1010.8480000000001","28.56","73.67","234.3","0.0"],
    [1426067,"2026-08-20 09:50:00","2155","3.2319999999999998","46.62","5.88","39.2","1010.753","28.84","72.14","305.4","0.0"],
    [1426068,"2026-08-20 10:00:00","2156","3.702","39.69","5.684","39.64","1010.828","28.89","71.73","306.1","0.0"],
    [1426069,"2026-08-20 10:10:00","2157","3.4989999999999997","43.28","5.586","10.18","1010.8919999999999","28.93","72.02","264.4","0.0"],
    [1426070,"2026-08-20 10:20:00","2158","3.637","38.98","5.292","27.14","1010.867","28.88","72.25","299.3","0.0"],
    [1426071,"2026-08-20 10:30:00","2159","2.9530000000000003","51.66","5.39","58.2","1010.9939999999999","29.23","71.37","360.1","0.0"],
    [1426072,"2026-08-20 10:40:00","2160","3.734","58.44","5.684","52.05","1010.905","29.19","71.04","355.5","0.0"],
    [1426073,"2026-08-20 10:50:00","2161","3.28","41.14","4.9","44.78","1010.878","29.16","70.78","327.4","0.0"],
    [1426074,"2026-08-20 11:00:00","2162","3.505","34.53","5.292","6.979","1010.86","30.16","67.62","937.0","0.0"],
    [1426075,"2026-08-20 11:10:00","2163","3.88","56.5","6.076","63.2","1010.796","30.63","64.85","895.0","0.0"],
    [1426076,"2026-08-20 11:20:00","2164","4.203","55.36","6.174","67.8","1010.883","30.61","64.94","893.0","0.0"],
    [1426077,"2026-08-20 11:30:00","2165","4.031000000000001","59.24","5.88","87.9","1010.831","30.85","65.08","881.0","0.0"],
    [1426078,"2026-08-20 11:40:00","2166","4.68","70.43","6.762","63.2","1010.7539999999999","30.72","61.77","882.0","0.0"],
    [1426079,"2026-08-20 11:50:00","2167","4.6739999999999995","79.12","6.272","77.93","1010.676","30.8","60.29","877.0","0.0"],
    [1426080,"2026-08-20 12:00:00","2168","4.603","82.6","6.37","90.4","1010.664","30.64","60.9","875.0","0.0"],
    [1426081,"2026-08-20 12:10:00","2169","4.606","80.8","6.468","92.6","1010.607","30.7","61.19","878.0","0.0"],
    [1426082,"2026-08-20 12:20:00","2170","4.585","81.2","6.468","79.48","1010.431","30.86","61.53","868.0","0.0"],
    [1426083,"2026-08-20 12:30:00","2171","5.1579999999999995","82.6","7.154","78.51","1010.2339999999999","30.54","63.2","865.0","0.0"],
    [1426084,"2026-08-20 12:40:00","2172","4.526","89.0","6.566","89.8","1010.216","30.39","65.23","856.0","0.0"],
    [1426085,"2026-08-20 12:50:00","2173","5.159","80.6","7.35","87.1","1010.065","30.78","65.14","847.0","0.0"],
    [1426086,"2026-08-20 13:00:00","2174","5.459","78.92","7.252","81.9","1009.7919999999999","30.73","66.13","844.0","0.0"],
    [1426087,"2026-08-20 13:10:00","2175","4.865","75.63","6.664","93.9","1009.597","30.9","66.7","838.0","0.0"],
    [1426088,"2026-08-20 13:20:00","2176","4.365","78.98","6.762","93.1","1009.831","30.85","68.06","830.0","0.0"],
    [1426089,"2026-08-20 13:30:00","2177","4.2589999999999995","55.56","6.468","23.46","1010.034","31.3","67.46","822.0","0.0"],
    [1426090,"2026-08-20 13:40:00","2178","3.5039999999999996","50.41","5.39","57.04","1010.0319999999999","31.23","67.66","778.7","0.0"],
    [1426091,"2026-08-20 13:50:00","2179","3.043","32.36","5.684","19.68","1010.077","31.71","64.36","586.0","0.0"],
    [1426092,"2026-08-20 14:00:00","2180","3.9139999999999997","31.58","7.056","44.79","1009.971","31.78","63.79","447.5","0.0"],
    [1426093,"2026-08-20 14:10:00","2181","4.999","47.0","7.84","36.35","1009.88","31.5","64.69","641.7","0.0"],
    [1426094,"2026-08-20 14:20:00","2182","5.247999999999999","57.86","8.53","54.63","1009.7660000000001","31.67","63.59","611.3","0.0"],
    [1426095,"2026-08-20 14:30:00","2183","5.056","55.3","8.04","48.37","1009.546","30.88","65.6","363.3","0.0"],
    [1426096,"2026-08-20 14:40:00","2184","4.9319999999999995","60.18","7.644","56.61","1009.5269999999999","30.3","65.44","216.0","0.0"],
    [1426097,"2026-08-20 14:50:00","2185","4.6","57.31","7.056","48.95","1009.79","30.07","63.98","118.5","0.0"],
    [1426098,"2026-08-20 15:00:00","2186","4.397","61.95","6.664","52.63","1010.09","29.74","64.98","52.65","0.0"],
    [1426099,"2026-08-20 15:10:00","2187","4.504","58.3","6.86","55.49","1010.319","29.11","70.34","31.43","0.0"],
    [1426100,"2026-08-20 15:20:00","2188","3.886","62.16","5.488","70.08","1010.194","28.14","76.43","74.98","0.0"],
    [1426101,"2026-08-20 15:30:00","2189","3.34","49.09","5.096","46.77","1010.0169999999999","28.15","75.92","88.4","0.0"],
    [1426102,"2026-08-20 15:40:00","2190","2.735","47.04","4.606","46.33","1009.865","28.16","79.6","104.8","0.0"],
    [1426103,"2026-08-20 15:50:00","2191","3.1210000000000004","62.79","5.194","80.7","1009.9119999999999","28.39","79.55","127.5","0.0"],
    [1426104,"2026-08-20 16:00:00","2192","3.603","69.28","5.488","71.24","1009.6489999999999","28.5","78.01","139.5","0.0"],
    [1426105,"2026-08-20 16:10:00","2193","3.714","66.33","5.39","49.33","1009.49","28.66","74.14","154.3","0.0"],
    [1426106,"2026-08-20 16:20:00","2194","3.236","62.16","5.194","71.14","1009.507","28.83","71.93","131.8","0.0"],
    [1426107,"2026-08-20 16:30:00","2195","3.062","57.81","4.606","58.92","1009.328","29.0","70.99","110.3","0.0"],
    [1426108,"2026-08-20 16:40:00","2196","2.875","54.81","4.214","50.78","1009.154","29.0","70.36","91.9","0.0"],
    [1426109,"2026-08-20 16:50:00","2197","2.074","51.0","4.018","56.6","1009.077","29.09","68.59","74.96","0.0"],
    [1426110,"2026-08-20 17:00:00","2198","1.9980000000000002","57.64","3.626","50.3","1009.163","29.18","67.37","60.41","0.0"],
    [1426111,"2026-08-20 17:10:00","2199","2.855","59.32","4.018","44.82","1009.046","29.09","66.76","49.14","0.0"],
    [1426112,"2026-08-20 17:20:00","2200","2.679","57.61","4.312","64.98","1008.9989999999999","28.9","68.76","36.92","0.0"],
    [1426113,"2026-08-20 17:30:00","2201","2.011","46.85","3.43","57.47","1009.1439999999999","28.66","68.52","26.61","0.0"],
    [1426114,"2026-08-20 17:40:00","2202","1.0090000000000001","24.64","2.254","31.69","1009.2760000000001","28.78","68.82","17.66","0.0"],
    [1426115,"2026-08-20 17:50:00","2203","1.224","45.15","3.92","59.99","1009.316","28.73","69.61","12.98","0.0"],
    [1426116,"2026-08-20 18:00:00","2204","2.6719999999999997","225.0","6.076","274.3","1009.3910000000001","28.92","67.02","11.0","0.0"],
    [1426117,"2026-08-20 18:10:00","2205","4.565","218.6","7.448","181.9","1009.4","29.62","57.59","7.371","0.0"],
    [1426118,"2026-08-20 18:20:00","2206","3.841","204.7","8.53","232.8","1009.439","29.77","55.24","3.786","0.0"],
    [1426119,"2026-08-20 18:30:00","2207","4.121","208.5","8.72","213.4","1009.279","29.79","55.58","0.764","0.0"],
    [1426120,"2026-08-20 18:40:00","2208","6.037000000000001","219.4","10.09","202.9","1009.049","29.81","53.84","-0.815","0.0"],
    [1426121,"2026-08-20 18:50:00","2209","7.031000000000001","218.3","11.66","213.3","1008.687","29.79","51.91","-1.314","0.0"],
    [1426122,"2026-08-20 19:00:00","2210","6.752999999999999","226.8","11.66","218.1","1008.617","29.94","47.11","-3.23","0.0"],
    [1426123,"2026-08-20 19:10:00","2211","7.216","223.1","11.66","200.3","1008.7310000000001","30.06","43.98","-1.975","0.0"],
    [1426124,"2026-08-20 19:20:00","2212","4.066","233.6","10.88","227.2","1008.595","29.25","52.14","-3.4610000000000003","0.0"],
    [1426125,"2026-08-20 19:30:00","2213","2.14","265.1","4.018","299","1008.1389999999999","27.79","60.08","-5.069","0.0"],
    [1426126,"2026-08-20 19:40:00","2214","3.076","289.4","6.37","303.1","1008.061","27.36","63.28","-2.0580000000000003","0.0"],
    [1426127,"2026-08-20 19:50:00","2215","3.0789999999999997","318.5","5.684","310.1","1007.76","27.17","60.8","-1.766","0.0"],
    [1426128,"2026-08-20 20:00:00","2216","2.753","304.2","4.508","326.7","1007.8760000000001","27.46","58.62","-1.778","0.0"],
    [1426129,"2026-08-20 20:10:00","2217","2.371","265.7","4.508","288.4","1008.071","27.69","56.35","-1.896","0.0"],
    [1426130,"2026-08-20 20:20:00","2218","1.984","231.9","3.234","258.4","1008.431","27.63","56.79","-2.0180000000000002","0.0"],
    [1426131,"2026-08-20 20:30:00","2219","2.145","245.5","3.822","265.7","1008.7769999999999","27.41","59.15","-1.8459999999999999","0.0"],
    [1426132,"2026-08-20 20:40:00","2220","2.233","244.3","4.802","261","1009.082","27.16","60.75","-1.841","0.0"],
    [1426133,"2026-08-20 20:50:00","2221","1.776","248.3","4.606","273.1","1008.985","27.07","61.13","-1.8519999999999999","0.0"],
    [1426134,"2026-08-20 21:00:00","2222","4.328","236.5","11.07","225.6","1008.945","27.5","60.73","-2.275","0.0"],
    [1426135,"2026-08-20 21:10:00","2223","4.368","230.3","8.72","219.1","1009.081","27.58","61.03","-1.642","0.0"],
    [1426136,"2026-08-20 21:20:00","2224","4.396","234.0","8.92","212.2","1009.189","27.39","58.74","-1.16","0.0"],
    [1426137,"2026-08-20 21:30:00","2225","3.8110000000000004","239.2","8.13","229.6","1008.9789999999999","27.23","62.65","-1.114","0.0"],
    [1426138,"2026-08-20 21:40:00","2226","3.8939999999999997","231.5","8.72","198.1","1008.755","27.12","64.45","-1.136","0.0"],
    [1426139,"2026-08-20 21:50:00","2227","4.605","226.8","8.53","253.1","1008.8330000000001","26.99","65.85","-1.093","0.0"],
    [1426140,"2026-08-20 22:00:00","2228","4.636","228.0","8.62","219.6","1008.922","26.73","67.51","-1.091","0.0"],
    [1426141,"2026-08-20 22:10:00","2229","2.775","245.1","5.782","284.7","1009.007","26.69","67.4","-1.099","0.0"],
    [1426142,"2026-08-20 22:20:00","2230","3.326","284.7","5.88","288.6","1008.5889999999999","26.6","67.58","-2.229","0.0"],
    [1426143,"2026-08-20 22:30:00","2231","3.505","278.9","6.076","289.7","1008.748","26.39","68.55","-3.747","0.0"],
    [1426144,"2026-08-20 22:40:00","2232","3.484","274.2","7.35","275","1009.062","26.2","68.72","-3.358","0.0"],
    [1426145,"2026-08-20 22:50:00","2233","2.875","273.5","6.272","248.1","1009.5110000000001","26.08","69.47","-5.276","0.0"],
    [1426146,"2026-08-20 23:00:00","2234","2.415","273.5","4.508","272.5","1009.946","25.5","72.27","-5.617999999999999","0.0"],
    [1426147,"2026-08-20 23:10:00","2235","3.0660000000000003","290.1","6.762","291.4","1010.102","24.96","73.55","-3.807","0.0"],
    [1426148,"2026-08-20 23:20:00","2236","3.83","285.1","7.154","290.9","1010.217","24.46","70.42","-4.6160000000000005","0.0"],
    [1426149,"2026-08-20 23:30:00","2237","2.349","298.8","4.312","274.7","1009.9169999999999","23.79","74.98","-4.197","0.0"],
    [1426150,"2026-08-20 23:40:00","2238","1.767","302.8","2.646","284.9","1009.5139999999999","23.54","76.86","-3.168","0.0"],
    [1426151,"2026-08-20 23:50:00","2239","1.666","301.6","2.744","305.6","1009.174","23.54","77.3","-1.7","0.0"],
    [1426152,"2026-08-21 00:00:00","2240","1.7530000000000001","287.8","3.136","277.6","1009.1560000000001","23.72","75.9","-0.69","0.0"],
    [1426153,"2026-08-21 00:10:00","2241","1.868","280.7","3.136","259.9","1009.1160000000001","23.93","73.92","0.138","0.0"],
    [1426154,"2026-08-21 00:20:00","2242","1.696","269.8","3.332","255.2","1008.935","23.97","73.68","0.405","0.0"],
    [1426155,"2026-08-21 00:30:00","2243","2.512","263.1","5.978","244","1008.88","24.05","73.19","0.318","0.0"],
    [1426156,"2026-08-21 00:40:00","2244","3.963","232.1","7.84","217.6","1009.007","24.51","71.17","-2.131","0.0"],
    [1426157,"2026-08-21 00:50:00","2245","2.583","251.9","5.978","259.5","1008.758","23.49","73.55","-3.877","0.0"],
    [1426158,"2026-08-21 01:00:00","2246","1.225","216.7","3.528","265.1","1008.227","22.75","77.07","-3.455","0.0"],
    [1426159,"2026-08-21 01:10:00","2247","1.649","259.7","3.136","258.8","1008.2139999999999","22.39","78.67","-3.1860000000000004","0.0"],
    [1426160,"2026-08-21 01:20:00","2248","1.217","281.0","2.548","274.3","1008.0930000000001","22.13","81.3","-1.597","0.0"],
    [1426161,"2026-08-21 01:30:00","2249","0.8029999999999999","251.4","1.47","273.1","1007.862","21.93","82.3","-1.1520000000000001","0.0"],
    [1426162,"2026-08-21 01:40:00","2250","1.4240000000000002","315.9","2.254","324.6","1007.737","22.03","83.3","-1.166","0.0"],
    [1426163,"2026-08-21 01:50:00","2251","1.5530000000000002","314.3","3.136","314.2","1007.758","22.05","84.5","-1.155","0.0"],
    [1426164,"2026-08-21 02:00:00","2252","2.156","299.6","3.332","308.7","1007.877","22.32","84.9","-0.972","0.0"],
    [1426165,"2026-08-21 02:10:00","2253","1.791","281.8","3.038","301.7","1007.9019999999999","22.53","84.6","-0.722","0.0"],
    [1426166,"2026-08-21 02:20:00","2254","1.8259999999999998","275.0","3.234","281.4","1007.918","22.57","84.9","-0.531","0.0"],
    [1426167,"2026-08-21 02:30:00","2255","1.797","255.9","3.626","255.3","1008.085","22.64","84.9","-0.466","0.0"],
    [1426168,"2026-08-21 02:40:00","2256","1.8090000000000002","270.6","3.332","228.1","1008.052","22.78","84.4","-0.41","0.0"],
    [1426169,"2026-08-21 02:50:00","2257","1.198","262.2","2.156","295.1","1007.9789999999999","22.67","84.9","-0.414","0.0"],
    [1426170,"2026-08-21 03:00:00","2258","1.046","272.1","1.862","271.9","1008.0","22.67","84.4","-0.445","0.0"],
    [1426171,"2026-08-21 03:10:00","2259","0.885","293.8","1.96","286.4","1008.1410000000001","22.73","84.9","-1.057","0.0"],
    [1426172,"2026-08-21 03:20:00","2260","1.3559999999999999","264.7","2.646","276.1","1008.262","22.79","83.3","-1.016","0.0"],
    [1426173,"2026-08-21 03:30:00","2261","1.4280000000000002","300.4","3.038","296.6","1008.362","22.97","82.2","-1.382","0.0"],
    [1426174,"2026-08-21 03:40:00","2262","1.828","281.9","3.92","295","1008.462","22.91","82.4","-1.8019999999999998","0.0"],
    [1426175,"2026-08-21 03:50:00","2263","1.7819999999999998","303.1","3.136","330.9","1008.563","22.84","82.0","-1.874","0.0"],
    [1426176,"2026-08-21 04:00:00","2264","1.788","319.1","2.842","332.6","1008.615","22.98","80.6","-1.892","0.0"],
    [1426177,"2026-08-21 04:10:00","2265","1.9709999999999999","316.2","3.724","307.7","1008.678","23.03","79.78","-1.8969999999999998","0.0"],
    [1426178,"2026-08-21 04:20:00","2266","1.3519999999999999","297.8","3.332","311.3","1008.803","23.06","79.0","-1.8940000000000001","0.0"],
    [1426179,"2026-08-21 04:30:00","2267","0.278","182.4","0.98","173.2","1008.82","23.06","77.82","-2.185","0.0"],
    [1426180,"2026-08-21 04:40:00","2268","0.951","269.3","2.254","293.8","1009.007","23.07","76.36","-2.213","0.0"],
    [1426181,"2026-08-21 04:50:00","2269","1.764","304.4","4.508","293.1","1009.1669999999999","23.01","73.84","-1.922","0.0"],
    [1426182,"2026-08-21 05:00:00","2270","3.025","316.6","5.096","312","1009.284","22.88","71.19","-1.544","0.0"],
    [1426183,"2026-08-21 05:10:00","2271","3.532","312.1","5.586","324.1","1009.398","22.97","70.34","0.456","0.0"],
    [1426184,"2026-08-21 05:20:00","2272","4.248","309.5","7.448","330.7","1009.538","23.04","69.8","3.8080000000000003","0.0"],
    [1426185,"2026-08-21 05:30:00","2273","3.202","304.9","6.076","313.8","1009.721","22.85","70.97","9.54","0.0"],
    [1426186,"2026-08-21 05:40:00","2274","2.408","308.6","3.724","300.5","1009.812","22.73","71.96","30.68","0.0"],
    [1426187,"2026-08-21 05:50:00","2275","3.12","314.6","5.096","321","1009.846","23.04","70.58","57.42","0.0"],
    [1426188,"2026-08-21 06:00:00","2276","3.588","306.0","6.174","314.1","1010.1510000000001","23.37","69.16","84.1","0.0"],
    [1426189,"2026-08-21 06:10:00","2277","2.1180000000000003","315.1","3.724","325","1010.416","23.48","69.49","113.6","0.0"],
    [1426190,"2026-08-21 06:20:00","2278","2.6","324.3","4.508","326","1010.33","23.79","68.56","152.7","0.0"],
    [1426191,"2026-08-21 06:30:00","2279","4.0680000000000005","310.8","5.782","309.3","1010.301","23.79","68.22","173.9","0.0"],
    [1426192,"2026-08-21 06:40:00","2280","3.4219999999999997","305.8","5.39","316.8","1010.565","23.81","68.5","197.8","0.0"],
    [1426193,"2026-08-21 06:50:00","2281","3.388","308.1","5.292","294.8","1010.7139999999999","24.1","67.31","234.6","0.0"],
    [1426194,"2026-08-21 07:00:00","2282","3.074","323.0","4.802","333.6","1010.846","24.57","65.69","265.8","0.0"],
    [1426195,"2026-08-21 07:10:00","2283","3.551","313.2","5.88","287","1010.987","24.88","64.05","297.3","0.0"],
    [1426196,"2026-08-21 07:20:00","2284","4.2","314.5","8.43","322.8","1011.0089999999999","24.94","63.48","329.9","0.0"],
    [1426197,"2026-08-21 07:30:00","2285","4.492","318.6","7.35","317.7","1011.118","24.85","63.14","361.1","0.0"],
    [1426198,"2026-08-21 07:40:00","2286","4.171","315.1","6.762","336.8","1011.2289999999999","24.97","63.17","393.3","0.0"],
    [1426199,"2026-08-21 07:50:00","2287","3.9960000000000004","307.5","6.664","304.6","1011.237","25.06","62.97","425.1","0.0"],
    [1426200,"2026-08-21 08:00:00","2288","3.68","304.6","5.978","304.5","1011.1310000000001","25.46","62.14","431.0","0.0"],
    [1426201,"2026-08-21 08:10:00","2289","3.623","308.7","5.39","316.8","1011.084","25.57","61.63","482.5","0.0"],
    [1426202,"2026-08-21 08:20:00","2290","3.3819999999999997","298.2","6.468","292.2","1011.17","25.75","61.12","490.9","0.0"],
    [1426203,"2026-08-21 08:30:00","2291","3.0660000000000003","313.0","5.194","335.7","1011.285","26.04","60.29","544.3","0.0"],
    [1426204,"2026-08-21 08:40:00","2292","2.88","313.0","5.978","311.5","1011.33","26.39","59.42","565.1","0.0"],
    [1426205,"2026-08-21 08:50:00","2293","2.82","307.2","5.194","296.2","1011.5319999999999","26.59","58.61","592.4","0.0"],
    [1426206,"2026-08-21 09:00:00","2294","3.037","304.2","4.9","307.5","1011.648","26.72","57.62","619.3","0.0"],
    [1426207,"2026-08-21 09:10:00","2295","2.423","292.2","4.606","286.2","1011.7239999999999","26.77","56.69","644.6","0.0"],
    [1426208,"2026-08-21 09:20:00","2296","2.577","293.9","6.566","306.9","1011.789","27.23","55.48","672.9","0.0"],
    [1426209,"2026-08-21 09:30:00","2297","2.592","322.7","4.214","314","1011.9730000000001","27.65","54.4","693.9","0.0"],
    [1426210,"2026-08-21 09:40:00","2298","1.8880000000000001","310.1","4.116","260.1","1012.051","28.07","52.89","719.4","0.0"],
    [1426211,"2026-08-21 09:50:00","2299","1.004","18.47","3.234","280.4","1012.096","28.06","52.73","748.0","0.0"],
    [1426212,"2026-08-21 10:00:00","2300","0.856","33.68","3.822","5.913","1012.102","28.92","50.87","749.9","0.0"],
    [1426213,"2026-08-21 10:10:00","2301","1.436","104.4","4.9","96.3","1012.1139999999999","28.46","52.5","775.5","0.0"],
    [1426214,"2026-08-21 10:20:00","2302","3.217","84.0","4.9","73.96","1012.153","27.88","54.44","808.0","0.0"],
    [1426215,"2026-08-21 10:30:00","2303","2.9819999999999998","91.6","5.194","86.1","1012.137","27.65","54.83","809.0","0.0"],
    [1426216,"2026-08-21 10:40:00","2304","2.7539999999999996","97.9","4.312","91.8","1012.137","27.71","53.8","798.9","0.0"],
    [1426217,"2026-08-21 10:50:00","2305","3.135","95.0","5.096","103","1012.123","28.06","53.99","814.0","0.0"],
    [1426218,"2026-08-21 11:00:00","2306","2.694","99.7","4.508","114.1","1012.1439999999999","27.83","54.93","821.0","0.0"],
    [1426219,"2026-08-21 11:10:00","2307","2.637","97.9","4.606","96","1012.145","28.28","54.48","819.0","0.0"],
    [1426220,"2026-08-21 11:20:00","2308","2.721","98.6","4.312","91.6","1012.181","27.83","54.89","812.0","0.0"],
    [1426221,"2026-08-21 11:30:00","2309","2.773","102.8","4.802","103.5","1012.1489999999999","28.22","51.26","871.0","0.0"],
    [1426222,"2026-08-21 11:40:00","2310","3.051","95.8","4.802","97.5","1012.1360000000001","28.11","54.2","874.0","0.0"],
    [1426223,"2026-08-21 11:50:00","2311","3.352","95.5","5.39","86.5","1012.188","27.98","54.26","878.0","0.0"],
    [1426224,"2026-08-21 12:00:00","2312","2.239","100.6","4.802","77.2","1012.188","28.57","53.63","876.0","0.0"],
    [1426225,"2026-08-21 12:10:00","2313","3.628","99.8","5.684","82.6","1012.187","28.25","53.47","889.0","0.0"],
    [1426226,"2026-08-21 12:20:00","2314","3.1180000000000003","98.1","6.86","85.7","1012.191","28.65","54.07","884.0","0.0"],
    [1426227,"2026-08-21 12:30:00","2315","2.73","107.2","6.272","90.1","1012.288","28.35","55.62","872.0","0.0"],
    [1426228,"2026-08-21 12:40:00","2316","1.829","111.8","4.802","80.9","1012.3939999999999","29.27","54.24","861.0","0.0"],
    [1426229,"2026-08-21 12:50:00","2317","2.614","108.4","5.194","113.1","1012.436","28.61","57.77","870.0","0.0"],
    [1426230,"2026-08-21 13:00:00","2318","1.9509999999999998","104.6","4.41","91.9","1012.488","28.96","58.8","913.0","0.0"],
    [1426231,"2026-08-21 13:10:00","2319","1.416","129.4","4.704","128.5","1012.427","29.06","59.51","906.0","0.0"],
    [1426232,"2026-08-21 13:20:00","2320","3.87","100.5","9.11","92.6","1012.328","28.92","61.58","356.2","0.0"],
    [1426233,"2026-08-21 13:30:00","2321","4.756","100.7","8.82","105.4","1012.3560000000001","27.79","65.28","434.6","0.0"],
    [1426234,"2026-08-21 13:40:00","2322","4.9030000000000005","102.4","7.938","103.5","1012.3989999999999","27.23","66.71","406.6","0.0"],
    [1426235,"2026-08-21 13:50:00","2323","4.052","102.0","7.154","96","1012.347","27.2","67.1","385.6","0.0"],
    [1426236,"2026-08-21 14:00:00","2324","3.5980000000000003","103.2","6.958","97.8","1012.325","26.93","68.58","214.7","0.0"],
    [1426237,"2026-08-21 14:10:00","2325","4.106","103.3","7.742","108.9","1012.211","26.8","69.23","185.3","0.0"],
    [1426238,"2026-08-21 14:20:00","2326","4.675","97.5","7.938","97.1","1012.216","26.69","69.65","172.3","0.0"],
    [1426239,"2026-08-21 14:30:00","2327","3.8689999999999998","101.3","8.72","106.4","1012.192","26.82","69.87","159.3","0.0"],
    [1426240,"2026-08-21 14:40:00","2328","3.3169999999999997","102.2","7.35","91.2","1012.1560000000001","26.86","69.82","231.5","0.0"],
    [1426241,"2026-08-21 14:50:00","2329","3.468","103.0","6.37","93.9","1012.171","26.96","69.23","308.7","0.0"],
    [1426242,"2026-08-21 15:00:00","2330","3.509","103.4","6.566","80.2","1012.178","27.18","68.19","537.5","0.0"],
    [1426243,"2026-08-21 15:10:00","2331","4.245","97.3","7.742","88.1","1012.153","27.38","67.47","438.4","0.0"],
    [1426244,"2026-08-21 15:20:00","2332","4.034","95.5","7.448","88.1","1012.2510000000001","27.03","68.86","185.6","0.0"],
    [1426245,"2026-08-21 15:30:00","2333","3.967","99.6","7.448","101","1012.257","26.74","69.96","201.4","0.0"],
    [1426246,"2026-08-21 15:40:00","2334","4.137","100.2","6.37","109","1012.2719999999999","26.49","70.97","99.7","0.0"],
    [1426247,"2026-08-21 15:50:00","2335","3.8160000000000003","99.2","7.84","95.1","1012.372","26.5","69.85","127.5","0.0"],
    [1426248,"2026-08-21 16:00:00","2336","3.7960000000000003","101.9","6.762","96.3","1012.472","26.54","69.76","124.9","0.0"],
    [1426249,"2026-08-21 16:10:00","2337","4.204","97.1","6.37","86.6","1012.5319999999999","26.5","69.56","102.1","0.0"],
    [1426250,"2026-08-21 16:20:00","2338","4.321000000000001","93.5","6.762","80.3","1012.575","26.53","70.06","109.7","0.0"],
    [1426251,"2026-08-21 16:30:00","2339","3.2739999999999996","96.5","6.076","88.1","1012.677","26.76","69.2","276.3","0.0"],
    [1426252,"2026-08-21 16:40:00","2340","3.898","94.9","6.076","90.6","1012.7510000000001","27.2","67.62","336.2","0.0"],
    [1426253,"2026-08-21 16:50:00","2341","4.527","90.4","6.86","94","1012.81","27.01","68.5","221.4","0.0"],
    [1426254,"2026-08-21 17:00:00","2342","4.002","96.2","5.978","101.5","1012.904","27.02","67.79","181.6","0.0"],
    [1426255,"2026-08-21 17:10:00","2343","4.0","85.4","6.174","90.2","1012.956","26.89","67.75","153.7","0.0"],
    [1426256,"2026-08-21 17:20:00","2344","4.04","87.2","6.37","93.4","1013.0219999999999","27.04","66.98","122.9","0.0"],
    [1426257,"2026-08-21 17:30:00","2345","3.605","95.2","6.174","111.9","1013.159","26.91","67.3","110.3","0.0"],
    [1426258,"2026-08-21 17:40:00","2346","3.668","95.7","6.174","91.3","1013.194","26.77","67.94","151.5","0.0"],
    [1426259,"2026-08-21 17:50:00","2347","4.019","95.5","6.468","114.5","1013.192","26.81","67.78","133.1","0.0"],
    [1426260,"2026-08-21 18:00:00","2348","4.166","96.6","6.37","81","1013.232","26.64","68.74","73.33","0.0"],
    [1426261,"2026-08-21 18:10:00","2349","4.713","97.0","7.546","92.4","1013.3860000000001","26.38","68.34","30.2","0.0"],
    [1426262,"2026-08-21 18:20:00","2350","4.09","99.0","7.056","122.8","1013.4910000000001","26.24","68.41","20.45","0.0"],
    [1426263,"2026-08-21 18:30:00","2351","4.503","95.2","6.566","113.7","1013.6160000000001","26.25","68.1","12.8","0.0"],
    [1426264,"2026-08-21 18:40:00","2352","3.925","98.3","7.35","86.9","1013.684","26.29","67.68","4.2860000000000005","0.0"],
    [1426265,"2026-08-21 18:50:00","2353","4.734","96.1","7.644","98.7","1013.696","26.27","67.82","1.391","0.0"],
    [1426266,"2026-08-21 19:00:00","2354","4.447","97.4","7.644","94.2","1013.841","26.18","68.21","-0.828","0.0"],
    [1426267,"2026-08-21 19:10:00","2355","3.905","97.7","6.468","89.4","1014.0189999999999","26.17","68.18","-1.1320000000000001","0.0"],
    [1426268,"2026-08-21 19:20:00","2356","4.202","98.5","7.252","82.4","1014.128","26.2","68.05","-1.092","0.0"],
    [1426269,"2026-08-21 19:30:00","2357","4.034","101.6","7.056","94.1","1014.2339999999999","26.17","67.92","-1.092","0.0"],
    [1426270,"2026-08-21 19:40:00","2358","3.9619999999999997","100.2","7.546","90","1014.453","26.11","67.76","-1.107","0.0"],
    [1426271,"2026-08-21 19:50:00","2359","4.649","91.6","7.84","100.7","1014.567","26.12","67.39","-1.548","0.0"],
    [1426272,"2026-08-21 20:00:00","2360","4.708","91.1","7.252","93.5","1014.607","26.11","67.37","-1.8519999999999999","0.0"],
    [1426273,"2026-08-21 20:10:00","2361","4.19","97.4","8.33","106.3","1014.7439999999999","26.07","68.06","-1.854","0.0"],
    [1426274,"2026-08-21 20:20:00","2362","3.943","98.8","6.566","91.2","1014.941","26.06","67.67","-1.839","0.0"],
    [1426275,"2026-08-21 20:30:00","2363","3.897","96.1","6.762","83.4","1015.1189999999999","26.09","66.4","-1.383","0.0"],
    [1426276,"2026-08-21 20:40:00","2364","3.8689999999999998","93.0","6.076","86.5","1015.185","26.14","66.52","-1.6880000000000002","0.0"],
    [1426277,"2026-08-21 20:50:00","2365","4.132","93.8","6.566","100.1","1015.2080000000001","26.16","66.38","-1.705","0.0"],
    [1426278,"2026-08-21 21:00:00","2366","4.2","92.2","6.958","89","1015.166","26.17","66.26","-1.844","0.0"],
    [1426279,"2026-08-21 21:10:00","2367","4.272","90.5","6.762","92","1015.2289999999999","26.16","65.2","-1.844","0.0"],
    [1426280,"2026-08-21 21:20:00","2368","3.937","98.0","6.86","118.3","1015.247","26.13","64.78","-1.8319999999999999","0.0"],
    [1426281,"2026-08-21 21:30:00","2369","3.555","95.6","6.37","89","1015.3910000000001","26.18","64.68","-1.765","0.0"],
    [1426282,"2026-08-21 21:40:00","2370","4.003","90.5","6.86","78.68","1015.2810000000001","26.2","64.07","-1.854","0.0"],
    [1426283,"2026-08-21 21:50:00","2371","4.418","82.8","6.86","90.2","1015.174","26.2","63.99","-1.989","0.0"],
    [1426284,"2026-08-21 22:00:00","2372","3.8080000000000003","87.6","6.076","89.8","1015.217","26.2","63.43","-2.362","0.0"],
    [1426285,"2026-08-21 22:10:00","2373","3.585","89.9","5.88","78.63","1015.212","26.24","63.11","-2.331","0.0"],
    [1426286,"2026-08-21 22:20:00","2374","4.426","90.2","7.154","90.6","1015.137","26.28","62.54","-1.8459999999999999","0.0"],
    [1426287,"2026-08-21 22:30:00","2375","3.647","93.6","5.88","103.9","1015.18","26.3","63.44","-1.8419999999999999","0.0"],
    [1426288,"2026-08-21 22:40:00","2376","4.202","89.8","6.272","101.4","1015.225","26.26","62.55","-1.8519999999999999","0.0"],
    [1426289,"2026-08-21 22:50:00","2377","4.441","84.8","7.252","89.3","1015.2189999999999","26.26","62.32","-1.966","0.0"],
    [1426290,"2026-08-21 23:00:00","2378","4.06","91.5","6.86","115.4","1015.212","26.22","63.21","-1.892","0.0"],
    [1426291,"2026-08-21 23:10:00","2379","4.234","87.3","6.566","87.7","1015.3439999999999","26.26","62.05","-1.112","0.0"],
    [1426292,"2026-08-21 23:20:00","2380","4.365","84.5","6.566","84.1","1015.3539999999999","26.27","61.52","-1.092","0.0"],
    [1426293,"2026-08-21 23:30:00","2381","4.928","81.0","8.04","79.84","1015.562","26.24","60.29","-1.091","0.0"],
    [1426294,"2026-08-21 23:40:00","2382","4.984","78.05","7.154","91.1","1015.505","26.18","60.15","-1.092","0.0"],
    [1426295,"2026-08-21 23:50:00","2383","4.762","75.44","6.86","66.81","1015.444","26.04","60.66","-1.176","0.0"],
    [1426296,"2026-08-22 00:00:00","2384","4.93","79.95","7.546","74.71","1015.367","26.01","61.05","-1.814","0.0"],
    [1426297,"2026-08-22 00:10:00","2385","4.742","75.75","6.468","97.7","1015.245","25.85","60.57","-1.8869999999999998","0.0"],
    [1426298,"2026-08-22 00:20:00","2386","4.254","73.55","6.37","64.63","1015.2819999999999","25.83","61.7","-1.589","0.0"],
    [1426299,"2026-08-22 00:30:00","2387","4.407","67.41","6.664","65.89","1015.221","25.82","62.27","-1.121","0.0"],
    [1426300,"2026-08-22 00:40:00","2388","3.5860000000000003","60.47","6.468","50.87","1015.275","25.65","63.12","-1.092","0.0"],
    [1426301,"2026-08-22 00:50:00","2389","3.9160000000000004","54.3","6.566","58.04","1015.211","25.4","62.05","-1.499","0.0"],
    [1426302,"2026-08-22 01:00:00","2390","4.118","52.72","6.664","45.35","1015.2260000000001","25.28","62.05","-1.8419999999999999","0.0"],
    [1426303,"2026-08-22 01:10:00","2391","3.826","52.4","6.762","53.73","1015.329","25.25","61.79","-1.845","0.0"],
    [1426304,"2026-08-22 01:20:00","2392","3.553","56.73","5.586","61.38","1015.3710000000001","25.25","62.0","-1.8019999999999998","0.0"],
    [1426305,"2026-08-22 01:30:00","2393","3.8710000000000004","53.75","6.37","45.73","1015.382","25.26","61.02","-1.19","0.0"],
    [1426306,"2026-08-22 01:40:00","2394","3.838","53.65","6.468","42.97","1015.437","25.26","60.27","-1.092","0.0"],
    [1426307,"2026-08-22 01:50:00","2395","4.18","55.13","6.076","63.08","1015.388","25.26","59.52","-1.092","0.0"],
    [1426308,"2026-08-22 02:00:00","2396","3.6630000000000003","54.31","6.174","56.78","1015.194","25.23","59.22","-1.092","0.0"],
    [1426309,"2026-08-22 02:10:00","2397","4.0489999999999995","58.26","6.566","48.79","1015.265","25.23","59.35","-1.092","0.0"],
    [1426310,"2026-08-22 02:20:00","2398","3.679","64.28","5.586","77.86","1015.3639999999999","25.22","59.02","-1.092","0.0"],
    [1426311,"2026-08-22 02:30:00","2399","3.855","65.97","5.782","70.54","1015.262","25.17","58.25","-1.092","0.0"],
    [1426312,"2026-08-22 02:40:00","2400","3.208","64.47","5.096","53.92","1015.3510000000001","25.12","58.53","-1.094","0.0"],
    [1426313,"2026-08-22 02:50:00","2401","3.085","56.03","5.194","60.56","1015.439","25.1","57.83","-1.092","0.0"],
    [1426314,"2026-08-22 03:00:00","2402","4.006","74.12","6.86","81.7","1015.445","25.14","56.74","-1.092","0.0"],
    [1426315,"2026-08-22 03:10:00","2403","3.6430000000000002","69.86","5.684","72.77","1015.502","25.16","56.68","-1.093","0.0"],
    [1426316,"2026-08-22 03:20:00","2404","4.394","71.97","7.546","65.45","1015.205","25.18","56.23","-1.092","0.0"],
    [1426317,"2026-08-22 03:30:00","2405","3.5060000000000002","61.74","5.586","52.08","1015.428","25.16","55.71","-1.092","0.0"],
    [1426318,"2026-08-22 03:40:00","2406","3.8","69.39","5.88","55.62","1015.278","25.15","55.88","-1.092","0.0"],
    [1426319,"2026-08-22 03:50:00","2407","3.6510000000000002","56.75","5.684","57.36","1015.2489999999999","25.09","56.32","-1.092","0.0"],
    [1426320,"2026-08-22 04:00:00","2408","3.2880000000000003","60.22","5.488","67.2","1015.325","25.07","57.39","-1.092","0.0"],
    [1426321,"2026-08-22 04:10:00","2409","3.14","71.07","4.704","70.44","1015.365","25.05","58.88","-1.092","0.0"],
    [1426322,"2026-08-22 04:20:00","2410","2.7089999999999996","67.01","4.41","77.13","1015.4060000000001","25.04","59.7","-1.102","0.0"],
    [1426323,"2026-08-22 04:30:00","2411","2.596","71.75","4.9","86.2","1015.457","24.98","59.86","-1.105","0.0"],
    [1426324,"2026-08-22 04:40:00","2412","3.395","69.59","5.586","83.5","1015.342","25.04","59.82","-1.092","0.0"],
    [1426325,"2026-08-22 04:50:00","2413","3.638","63.92","5.88","66.47","1015.324","24.97","59.64","-1.092","0.0"],
    [1426326,"2026-08-22 05:00:00","2414","3.8280000000000003","63.89","5.782","54.6","1015.347","24.91","59.83","-0.396","0.0"],
    [1426327,"2026-08-22 05:10:00","2415","3.847","66.75","5.782","64.48","1015.6","24.87","59.28","1.004","0.0"],
    [1426328,"2026-08-22 05:20:00","2416","3.207","66.15","5.39","61.53","1015.81","24.87","59.44","1.161","0.0"],
    [1426329,"2026-08-22 05:30:00","2417","3.602","63.32","5.684","72.19","1015.8860000000001","24.84","60.21","1.63","0.0"],
    [1426330,"2026-08-22 05:40:00","2418","3.647","61.72","6.272","41.66","1015.941","24.83","59.9","5.0760000000000005","0.0"],
    [1426331,"2026-08-22 05:50:00","2419","3.185","66.91","5.096","57.36","1016.235","24.79","59.73","6.09","0.0"],
    [1426332,"2026-08-22 06:00:00","2420","3.658","69.25","5.978","75.09","1016.225","24.68","60.13","14.69","0.0"],
    [1426333,"2026-08-22 06:10:00","2421","3.815","74.07","5.88","81.1","1016.357","24.69","60.33","13.58","0.0"],
    [1426334,"2026-08-22 06:20:00","2422","4.165","69.91","6.076","74.85","1016.362","24.72","60.06","22.88","0.0"],
    [1426335,"2026-08-22 06:30:00","2423","3.885","73.05","6.272","72.96","1016.508","24.77","58.2","31.01","0.0"],
    [1426336,"2026-08-22 06:40:00","2424","3.885","68.0","6.174","62.74","1016.574","24.82","58.33","40.59","0.0"],
    [1426337,"2026-08-22 06:50:00","2425","3.428","61.59","5.586","48.4","1016.6160000000001","24.89","57.51","71.13","0.0"],
    [1426338,"2026-08-22 07:00:00","2426","3.56","63.16","6.37","58.48","1016.692","25.08","57.23","81.9","0.0"],
    [1426339,"2026-08-22 07:10:00","2427","4.067","67.42","6.272","83.2","1016.595","25.14","57.58","130.0","0.0"],
    [1426340,"2026-08-22 07:20:00","2428","3.8510000000000004","59.82","5.978","49.9","1016.625","25.44","57.28","223.9","0.0"],
    [1426341,"2026-08-22 07:30:00","2429","3.636","60.1","5.88","74.22","1016.7080000000001","25.6","56.7","135.8","0.0"],
    [1426342,"2026-08-22 07:40:00","2430","3.885","62.28","5.978","67.54","1016.778","25.41","57.14","143.0","0.0"],
    [1426343,"2026-08-22 07:50:00","2431","3.7739999999999996","56.48","5.88","60.08","1016.8589999999999","25.4","56.87","154.4","0.0"],
    [1426344,"2026-08-22 08:00:00","2432","4.508","63.13","6.468","73.88","1016.804","25.42","57.14","183.2","0.0"],
    [1426345,"2026-08-22 08:10:00","2433","3.963","65.22","6.174","61.38","1016.7810000000001","25.42","56.93","134.7","0.0"],
    [1426346,"2026-08-22 08:20:00","2434","4.1819999999999995","63.21","6.566","65.99","1016.8889999999999","25.34","56.78","159.1","0.0"],
    [1426347,"2026-08-22 08:30:00","2435","4.03","58.29","6.566","42.49","1016.95","25.35","56.15","213.7","0.0"],
    [1426348,"2026-08-22 08:40:00","2436","3.858","67.28","6.076","64.82","1017.1010000000001","25.57","54.47","284.5","0.0"],
    [1426349,"2026-08-22 08:50:00","2437","3.6510000000000002","65.63","6.076","66.86","1017.2339999999999","26.06","53.1","375.4","0.0"],
    [1426350,"2026-08-22 09:00:00","2438","3.911","65.1","5.978","61.63","1017.3739999999999","26.13","52.18","425.9","0.0"],
    [1426351,"2026-08-22 09:10:00","2439","4.129","88.3","6.468","89.9","1017.43","26.38","50.42","598.3","0.0"],
    [1426352,"2026-08-22 09:20:00","2440","4.9510000000000005","76.05","7.154","76.79","1017.3430000000001","26.73","49.47","653.6","0.0"],
    [1426353,"2026-08-22 09:30:00","2441","4.801","71.86","7.252","78.74","1017.329","27.21","48.07","716.8","0.0"],
    [1426354,"2026-08-22 09:40:00","2442","5.186","73.39","7.644","85.4","1017.492","27.01","47.94","730.8","0.0"],
    [1426355,"2026-08-22 09:50:00","2443","4.909","81.7","7.448","89.4","1017.4889999999999","26.84","48.87","753.2","0.0"],
    [1426356,"2026-08-22 10:00:00","2444","5.045","80.7","7.742","93.4","1017.346","26.82","47.54","771.6","0.0"],
    [1426357,"2026-08-22 10:10:00","2445","4.825","69.37","6.86","66.05","1017.253","27.06","48.14","788.3","0.0"],
    [1426358,"2026-08-22 10:20:00","2446","4.6160000000000005","69.6","7.742","53.45","1017.222","27.28","47.91","808.0","0.0"],
    [1426359,"2026-08-22 10:30:00","2447","5.105","72.47","7.84","69.59","1017.238","27.21","47.62","824.0","0.0"],
    [1426360,"2026-08-22 10:40:00","2448","5.0489999999999995","65.89","6.958","72.74","1017.311","27.07","47.81","838.0","0.0"],
    [1426361,"2026-08-22 10:50:00","2449","4.81","65.36","7.448","67.75","1017.2760000000001","27.26","48.69","854.0","0.0"],
    [1426362,"2026-08-22 11:00:00","2450","4.9830000000000005","70.92","7.252","70.95","1017.2560000000001","27.0","50.07","878.0","0.0"],
    [1426363,"2026-08-22 11:10:00","2451","4.556","62.87","7.154","38.77","1017.19","27.41","49.89","761.3","0.0"],
    [1426364,"2026-08-22 11:20:00","2452","4.553","65.69","6.664","64.75","1017.1389999999999","26.94","51.16","679.9","0.0"],
    [1426365,"2026-08-22 11:30:00","2453","4.73","70.15","7.742","75.12","1017.002","26.84","51.49","763.6","0.0"],
    [1426366,"2026-08-22 11:40:00","2454","4.533","68.58","7.154","35.86","1016.988","27.04","51.47","887.0","0.0"],
    [1426367,"2026-08-22 11:50:00","2455","4.542","72.93","7.546","61.45","1016.921","27.21","51.1","764.0","0.0"],
    [1426368,"2026-08-22 12:00:00","2456","4.172","73.74","6.272","63.68","1016.865","26.65","53.28","551.7","0.0"],
    [1426369,"2026-08-22 12:10:00","2457","4.187","72.72","6.762","66.68","1016.885","26.77","53.04","610.8","0.0"],
    [1426370,"2026-08-22 12:20:00","2458","4.315","82.3","5.978","81","1016.811","26.56","54.43","607.3","0.0"],
    [1426371,"2026-08-22 12:30:00","2459","4.255","73.64","6.664","61.98","1016.885","26.61","55.05","536.3","0.0"],
    [1426372,"2026-08-22 12:40:00","2460","3.7289999999999996","81.4","5.782","98.1","1016.908","26.75","55.26","687.5","0.0"],
    [1426373,"2026-08-22 12:50:00","2461","3.63","71.99","5.782","60.04","1016.804","27.02","54.45","771.3","0.0"],
    [1426374,"2026-08-22 13:00:00","2462","3.957","86.7","6.762","84.4","1016.813","27.13","52.96","849.0","0.0"],
    [1426375,"2026-08-22 13:10:00","2463","3.074","97.5","4.998","88.4","1016.794","27.07","52.92","706.1","0.0"],
    [1426376,"2026-08-22 13:20:00","2464","3.361","98.5","5.978","89.7","1016.6569999999999","27.06","53.72","724.1","0.0"],
    [1426377,"2026-08-22 13:30:00","2465","3.7539999999999996","88.8","5.39","68.04","1016.567","27.15","53.17","836.0","0.0"],
    [1426378,"2026-08-22 13:40:00","2466","3.3110000000000004","94.1","5.978","87.8","1016.547","27.44","51.55","830.0","0.0"],
    [1426379,"2026-08-22 13:50:00","2467","4.015","95.4","6.468","77.54","1016.52","27.04","53.72","795.9","0.0"],
    [1426380,"2026-08-22 14:00:00","2468","3.4560000000000004","98.7","6.272","71.82","1016.434","26.97","54.09","785.2","0.0"],
    [1426381,"2026-08-22 14:10:00","2469","3.516","100.2","5.586","88.6","1016.435","27.08","54.01","736.2","0.0"],
    [1426382,"2026-08-22 14:20:00","2470","4.156000000000001","91.3","6.566","83.6","1016.346","26.81","55.57","762.6","0.0"],
    [1426383,"2026-08-22 14:30:00","2471","3.4730000000000003","93.1","5.684","104.6","1016.211","26.8","56.45","744.1","0.0"],
    [1426384,"2026-08-22 14:40:00","2472","2.785","102.4","5.488","104.6","1016.0880000000001","26.96","55.34","710.6","0.0"],
    [1426385,"2026-08-22 14:50:00","2473","3.6460000000000004","96.4","6.174","111.7","1016.035","27.07","55.07","674.0","0.0"],
    [1426386,"2026-08-22 15:00:00","2474","3.384","93.8","6.174","87.8","1015.961","26.76","55.1","644.7","0.0"],
    [1426387,"2026-08-22 15:10:00","2475","3.279","95.7","5.586","90.2","1015.836","27.11","55.35","613.9","0.0"],
    [1426388,"2026-08-22 15:20:00","2476","3.588","98.1","5.586","92.1","1015.804","26.68","56.53","583.4","0.0"],
    [1426389,"2026-08-22 15:30:00","2477","2.9930000000000003","98.0","5.096","76.23","1015.709","26.75","57.65","551.8","0.0"],
    [1426390,"2026-08-22 15:40:00","2478","2.9960000000000004","94.2","5.684","68.86","1015.628","26.85","57.56","519.5","0.0"],
    [1426391,"2026-08-22 15:50:00","2479","3.1660000000000004","91.0","5.488","100.8","1015.6110000000001","26.65","59.35","487.2","0.0"],
    [1426392,"2026-08-22 16:00:00","2480","3.252","91.5","5.194","114","1015.515","26.51","60.05","455.8","0.0"],
    [1426393,"2026-08-22 16:10:00","2481","2.536","100.4","4.606","114.7","1015.5319999999999","26.63","59.61","403.2","0.0"],
    [1426394,"2026-08-22 16:20:00","2482","3.142","99.0","5.292","83.9","1015.51","26.55","60.13","390.8","0.0"],
    [1426395,"2026-08-22 16:30:00","2483","2.169","104.2","4.9","81.7","1015.5039999999999","26.53","60.25","336.4","0.0"],
    [1426396,"2026-08-22 16:40:00","2484","2.529","96.2","5.88","98.1","1015.461","26.65","60.02","324.4","0.0"],
    [1426397,"2026-08-22 16:50:00","2485","2.125","101.9","4.9","90.6","1015.4730000000001","26.55","61.12","289.3","0.0"],
    [1426398,"2026-08-22 17:00:00","2486","2.372","99.6","4.41","102.8","1015.5210000000001","26.52","61.53","256.8","0.0"],
    [1426399,"2026-08-22 17:10:00","2487","2.6660000000000004","98.0","3.92","83.2","1015.493","26.24","62.92","222.8","0.0"],
    [1426400,"2026-08-22 17:20:00","2488","1.895","99.1","3.92","74.14","1015.4939999999999","26.35","63.12","190.0","0.0"],
    [1426401,"2026-08-22 17:30:00","2489","2.0540000000000003","100.9","4.214","109.7","1015.436","26.34","62.24","160.2","0.0"],
    [1426402,"2026-08-22 17:40:00","2490","2.207","86.7","3.724","47.2","1015.3660000000001","26.26","63.04","131.3","0.0"],
    [1426403,"2026-08-22 17:50:00","2491","2.359","86.1","6.174","95.5","1015.3919999999999","26.04","63.63","104.3","0.0"],
    [1426404,"2026-08-22 18:00:00","2492","1.68","78.4","4.41","91.5","1015.373","25.86","64.2","77.15","0.0"],
    [1426405,"2026-08-22 18:10:00","2493","1.335","89.1","3.528","86.8","1015.421","25.82","64.05","51.47","0.0"],
    [1426406,"2026-08-22 18:20:00","2494","1.212","81.7","2.45","79.23","1015.508","25.83","64.37","23.52","0.0"],
    [1426407,"2026-08-22 18:30:00","2495","1.511","66.23","2.352","49.62","1015.551","25.72","65.3","14.05","0.0"],
    [1426408,"2026-08-22 18:40:00","2496","1.505","73.68","2.94","80.9","1015.557","25.64","65.7","4.2010000000000005","0.0"],
    [1426409,"2026-08-22 18:50:00","2497","1.601","76.88","2.744","90.6","1015.568","25.6","65.35","-0.309","0.0"],
    [1426410,"2026-08-22 19:00:00","2498","1.324","78.97","2.842","54.26","1015.655","25.49","66.02","-2.335","0.0"],
    [1426411,"2026-08-22 19:10:00","2499","1.463","82.0","3.234","80.7","1015.727","25.49","66.39","-2.603","0.0"],
    [1426412,"2026-08-22 19:20:00","2500","1.395","94.2","2.352","77.61","1015.7610000000001","25.53","66.52","-2.593","0.0"],
    [1426413,"2026-08-22 19:30:00","2501","1.72","91.7","4.802","101.1","1015.807","25.48","66.92","-2.597","0.0"],
    [1426414,"2026-08-22 19:40:00","2502","1.844","90.1","7.252","113.2","1015.8489999999999","25.52","67.1","-2.593","0.0"],
    [1426415,"2026-08-22 19:50:00","2503","1.3980000000000001","79.25","2.646","105.5","1015.952","25.49","66.93","-2.593","0.0"],
    [1426416,"2026-08-22 20:00:00","2504","1.78","79.45","3.724","75.58","1015.99","25.48","67.01","-2.6060000000000003","0.0"],
    [1426417,"2026-08-22 20:10:00","2505","1.716","70.54","2.94","90.1","1015.948","25.37","67.81","-2.596","0.0"],
    [1426418,"2026-08-22 20:20:00","2506","1.36","68.0","3.724","82.2","1015.9739999999999","25.38","67.83","-2.594","0.0"],
    [1426419,"2026-08-22 20:30:00","2507","1.484","76.24","3.234","134","1015.959","25.23","68.45","-2.6060000000000003","0.0"],
    [1426420,"2026-08-22 20:40:00","2508","1.401","91.4","5.292","120.2","1015.977","25.42","67.91","-2.5980000000000003","0.0"],
    [1426421,"2026-08-22 20:50:00","2509","1.078","72.5","2.254","83.5","1016.078","25.27","68.31","-2.595","0.0"],
    [1426422,"2026-08-22 21:00:00","2510","0.8390000000000001","101.8","2.744","129.2","1016.171","25.38","67.99","-2.597","0.0"],
    [1426423,"2026-08-22 21:10:00","2511","0.711","61.12","1.274","60.27","1016.312","25.16","68.91","-2.648","0.0"],
    [1426424,"2026-08-22 21:20:00","2512","0.838","55.41","1.078","72.91","1016.373","24.99","69.72","-2.613","0.0"],
    [1426425,"2026-08-22 21:30:00","2513","0.381","40.02","0.784","40.02","1016.456","24.95","69.7","-2.593","0.0"],
    [1426426,"2026-08-22 21:40:00","2514","0.001","40.02","0.196","40.02","1016.467","24.83","70.05","-2.593","0.0"],
    [1426427,"2026-08-22 21:50:00","2515","0.526","42.82","0.882","50.48","1016.459","24.76","70.37","-2.593","0.0"],
    [1426428,"2026-08-22 22:00:00","2516","0.182","54.0","0.686","50.58","1016.44","24.6","71.01","-2.593","0.0"],
    [1426429,"2026-08-22 22:10:00","2517","0.478","310.9","1.078","306.2","1016.5169999999999","24.5","71.32","-2.592","0.0"],
    [1426430,"2026-08-22 22:20:00","2518","0.006","308.9","0.392","308.9","1016.485","24.14","72.08","-2.593","0.0"],
    [1426431,"2026-08-22 22:30:00","2519","0.069","318.2","0.588","318.6","1016.508","23.97","73.06","-2.385","0.0"],
    [1426432,"2026-08-22 22:40:00","2520","0.001","318.5","0.098","318.4","1016.4860000000001","23.95","73.54","-1.9140000000000001","0.0"],
    [1426433,"2026-08-22 22:50:00","2521","0.008","310.4","0.49","309.9","1016.47","24.11","73.04","-2.215","0.0"],
    [1426434,"2026-08-22 23:00:00","2522","0.6970000000000001","273.8","1.176","274.3","1016.508","24.18","73.21","-2.535","0.0"],
    [1426435,"2026-08-22 23:10:00","2523","1.137","297.0","1.764","312.2","1016.546","23.8","74.0","-2.57","0.0"],
    [1426436,"2026-08-22 23:20:00","2524","0.171","332.1","0.98","318","1016.56","23.68","74.48","-2.6069999999999998","0.0"],
    [1426437,"2026-08-22 23:30:00","2525","0.9570000000000001","297.4","1.568","293.6","1016.55","23.92","73.34","-2.556","0.0"],
    [1426438,"2026-08-22 23:40:00","2526","0.659","294.9","1.078","292","1016.572","23.69","73.9","-2.608","0.0"],
    [1426439,"2026-08-22 23:50:00","2527","0.585","302.6","0.784","300.9","1016.567","23.64","74.07","-2.565","0.0"],
    [1426440,"2026-08-23 00:00:00","2528","0.938","315.7","1.764","327.6","1016.5319999999999","23.62","74.19","-2.597","0.0"],
    [1426441,"2026-08-23 00:10:00","2529","1.192","311.9","1.666","316.9","1016.44","23.77","73.74","-2.543","0.0"],
    [1426442,"2026-08-23 00:20:00","2530","1.436","305.1","2.254","310","1016.435","23.57","74.32","-2.544","0.0"],
    [1426443,"2026-08-23 00:30:00","2531","1.038","283.9","1.764","316.4","1016.3439999999999","23.71","74.07","-2.6260000000000003","0.0"],
    [1426444,"2026-08-23 00:40:00","2532","1.0859999999999999","288.6","2.058","304.2","1016.2539999999999","23.66","74.01","-2.576","0.0"],
    [1426445,"2026-08-23 00:50:00","2533","1.245","288.8","2.058","308.7","1016.178","23.5","74.5","-2.635","0.0"],
    [1426446,"2026-08-23 01:00:00","2534","1.07","290.2","1.862","292","1016.0889999999999","23.37","74.81","-2.627","0.0"],
    [1426447,"2026-08-23 01:10:00","2535","0.5429999999999999","279.3","1.274","288.8","1015.9730000000001","23.23","75.39","-2.6319999999999997","0.0"],
    [1426448,"2026-08-23 01:20:00","2536","0.5539999999999999","273.8","1.176","282.1","1015.9110000000001","23.07","75.75","-2.645","0.0"],
    [1426449,"2026-08-23 01:30:00","2537","0.687","275.8","1.47","280.3","1015.7760000000001","22.92","76.35","-2.6519999999999997","0.0"],
    [1426450,"2026-08-23 01:40:00","2538","1.095","278.4","1.764","276.4","1015.7539999999999","22.84","76.6","-2.4859999999999998","0.0"],
    [1426451,"2026-08-23 01:50:00","2539","1.453","282.8","2.058","291.2","1015.79","22.64","77.33","-2.509","0.0"],
    [1426452,"2026-08-23 02:00:00","2540","1.403","285.9","2.156","285.9","1015.82","22.59","77.33","-2.238","0.0"],
    [1426453,"2026-08-23 02:10:00","2541","1.3090000000000002","284.3","2.058","290.4","1015.811","22.59","77.26","-2.0269999999999997","0.0"],
    [1426454,"2026-08-23 02:20:00","2542","1.456","284.6","2.548","285.7","1015.809","22.74","76.84","-1.344","0.0"],
    [1426455,"2026-08-23 02:30:00","2543","1.679","297.2","3.136","314.4","1015.808","23.0","75.93","-0.88","0.0"],
    [1426456,"2026-08-23 02:40:00","2544","1.9969999999999999","297.3","3.43","303.4","1015.68","23.19","74.89","-1.0859999999999999","0.0"],
    [1426457,"2026-08-23 02:50:00","2545","1.98","299.8","3.038","299","1015.586","23.25","74.51","-1.6980000000000002","0.0"],
    [1426458,"2026-08-23 03:00:00","2546","1.4180000000000001","289.6","2.352","293.4","1015.51","23.24","74.61","-1.944","0.0"],
    [1426459,"2026-08-23 03:10:00","2547","1.2309999999999999","282.5","2.058","279.6","1015.467","23.1","75.01","-2.4530000000000003","0.0"],
    [1426460,"2026-08-23 03:20:00","2548","0.43799999999999994","278.5","1.372","289.2","1015.403","22.98","75.45","-2.471","0.0"],
    [1426461,"2026-08-23 03:30:00","2549","0.37799999999999995","309.6","0.882","299.3","1015.3430000000001","22.8","75.88","-2.638","0.0"],
    [1426462,"2026-08-23 03:40:00","2550","0.59","284.5","2.058","275.9","1015.3489999999999","22.64","76.82","-2.608","0.0"],
    [1426463,"2026-08-23 03:50:00","2551","1.415","285.8","2.352","283.9","1015.301","22.67","76.92","-2.191","0.0"],
    [1426464,"2026-08-23 04:00:00","2552","1.195","289.5","1.96","297.7","1015.2460000000001","22.66","76.86","-2.2640000000000002","0.0"],
    [1426465,"2026-08-23 04:10:00","2553","1.319","293.6","2.254","312.6","1015.2560000000001","22.6","77.08","-2.441","0.0"],
    [1426466,"2026-08-23 04:20:00","2554","1.525","291.6","3.136","289.4","1015.309","22.59","77.15","-2.36","0.0"],
    [1426467,"2026-08-23 04:30:00","2555","1.903","298.8","3.136","304.5","1015.3430000000001","22.62","76.97","-2.2119999999999997","0.0"],
    [1426468,"2026-08-23 04:40:00","2556","1.814","299.5","3.136","312.9","1015.337","22.68","76.87","-2.158","0.0"],
    [1426469,"2026-08-23 04:50:00","2557","1.3730000000000002","299.0","2.45","305.6","1015.291","22.74","76.86","-1.952","0.0"],
    [1426470,"2026-08-23 05:00:00","2558","1.5219999999999998","285.8","2.352","273.6","1015.336","22.63","77.21","-1.41","0.0"],
    [1426471,"2026-08-23 05:10:00","2559","1.401","279.8","2.646","285.4","1015.485","22.55","76.97","1.084","0.0"],
    [1426472,"2026-08-23 05:20:00","2560","1.276","283.0","2.156","280","1015.574","22.43","77.11","6.392","0.0"],
    [1426473,"2026-08-23 05:30:00","2561","1.325","288.4","3.136","310.4","1015.6389999999999","22.42","76.83","18.55","0.0"],
    [1426474,"2026-08-23 05:40:00","2562","1.615","294.9","2.842","296.1","1015.675","22.57","76.0","37.09","0.0"],
    [1426475,"2026-08-23 05:50:00","2563","1.43","288.1","3.234","290.1","1015.7460000000001","22.81","74.99","57.45","0.0"],
    [1426476,"2026-08-23 06:00:00","2564","1.9769999999999999","292.6","3.332","298.6","1015.8969999999999","23.07","73.95","79.7","0.0"],
    [1426477,"2026-08-23 06:10:00","2565","1.7369999999999999","294.8","3.43","296.2","1016.01","23.32","72.82","103.8","0.0"],
    [1426478,"2026-08-23 06:20:00","2566","1.8319999999999999","294.0","3.234","282.1","1016.078","23.78","71.1","130.8","0.0"],
    [1426479,"2026-08-23 06:30:00","2567","1.585","288.0","2.744","299.5","1016.188","24.15","69.47","162.0","0.0"],
    [1426480,"2026-08-23 06:40:00","2568","1.443","295.8","2.45","319.9","1016.227","24.62","67.6","194.1","0.0"],
    [1426481,"2026-08-23 06:50:00","2569","1.6540000000000001","299.4","2.646","315.5","1016.2310000000001","24.97","66.24","226.6","0.0"],
    [1426482,"2026-08-23 07:00:00","2570","1.531","291.9","2.156","293.4","1016.2539999999999","25.31","65.2","258.6","0.0"],
    [1426483,"2026-08-23 07:10:00","2571","1.819","291.4","2.744","283","1016.31","25.74","64.19","290.9","0.0"],
    [1426484,"2026-08-23 07:20:00","2572","1.7180000000000002","300.4","2.94","289.4","1016.314","26.08","63.4","322.3","0.0"],
    [1426485,"2026-08-23 07:30:00","2573","1.52","305.2","2.646","290.9","1016.3510000000001","26.4","63.13","352.5","0.0"],
    [1426486,"2026-08-23 07:40:00","2574","0.883","322.4","1.862","318.1","1016.345","27.05","63.42","381.4","0.0"],
    [1426487,"2026-08-23 07:50:00","2575","0.633","335.5","1.764","320.7","1016.324","27.7","63.0","411.2","0.0"],
    [1426488,"2026-08-23 08:00:00","2576","0.884","176.9","2.254","80.6","1016.306","28.02","62.55","421.3","0.0"],
    [1426489,"2026-08-23 08:10:00","2577","0.9059999999999999","174.2","2.646","197.5","1016.312","27.79","63.02","473.1","0.0"],
    [1426490,"2026-08-23 08:20:00","2578","0.711","105.7","2.744","132","1016.2639999999999","28.32","61.76","482.9","0.0"],
    [1426491,"2026-08-23 08:30:00","2579","1.587","107.9","3.234","111","1016.242","28.29","63.13","538.5","0.0"],
    [1426492,"2026-08-23 08:40:00","2580","2.272","101.9","3.528","112.6","1016.3560000000001","27.77","64.88","570.3","0.0"],
    [1426493,"2026-08-23 08:50:00","2581","2.404","99.2","4.214","89.3","1016.3710000000001","27.5","65.8","601.5","0.0"],
    [1426494,"2026-08-23 09:00:00","2582","2.417","101.3","4.802","116.9","1016.31","27.78","65.27","626.8","0.0"],
    [1426495,"2026-08-23 09:10:00","2583","2.675","88.4","4.802","85.9","1016.2439999999999","27.8","65.71","653.4","0.0"],
    [1426496,"2026-08-23 09:20:00","2584","2.306","102.1","3.626","79.19","1016.2919999999999","27.83","65.95","678.3","0.0"],
    [1426497,"2026-08-23 09:30:00","2585","2.287","100.0","3.92","86.7","1016.311","28.17","65.1","703.5","0.0"],
    [1426498,"2026-08-23 09:40:00","2586","2.8560000000000003","108.8","5.488","135","1016.419","28.13","65.32","725.4","0.0"],
    [1426499,"2026-08-23 09:50:00","2587","2.9130000000000003","100.9","4.9","105.7","1016.4119999999999","27.75","67.18","746.8","0.0"],
    [1426500,"2026-08-23 10:00:00","2588","1.169","123.0","3.822","85.6","1016.452","28.64","64.76","766.3","0.0"],
    [1426501,"2026-08-23 10:10:00","2589","1.7369999999999999","126.0","4.018","123.7","1016.461","28.8","64.2","784.6","0.0"],
    [1426502,"2026-08-23 10:20:00","2590","1.591","141.7","4.116","106.8","1016.4730000000001","28.65","64.99","800.0","0.0"],
    [1426503,"2026-08-23 10:30:00","2591","1.401","140.1","3.92","126.8","1016.409","28.65","65.38","818.0","0.0"],
    [1426504,"2026-08-23 10:40:00","2592","1.635","127.9","5.096","126.3","1016.365","29.08","64.7","832.0","0.0"],
    [1426505,"2026-08-23 10:50:00","2593","1.6780000000000002","132.6","4.508","98.6","1016.28","29.13","64.9","843.0","0.0"],
    [1426506,"2026-08-23 11:00:00","2594","1.358","125.0","5.096","146.8","1016.2339999999999","29.1","65.77","852.0","0.0"],
    [1426507,"2026-08-23 11:10:00","2595","2.068","121.8","4.508","173.4","1016.173","29.48","64.27","862.0","0.0"],
    [1426508,"2026-08-23 11:20:00","2596","2.184","159.1","5.39","187.6","1016.096","29.0","66.22","870.0","0.0"],
    [1426509,"2026-08-23 11:30:00","2597","2.16","181.5","5.782","208.6","1016.0","29.03","66.34","874.0","0.0"],
    [1426510,"2026-08-23 11:40:00","2598","2.719","188.4","4.998","178.2","1015.977","29.56","64.14","879.0","0.0"],
    [1426511,"2026-08-23 11:50:00","2599","2.91","196.6","5.978","204","1015.933","29.57","64.2","882.0","0.0"],
    [1426512,"2026-08-23 12:00:00","2600","2.67","203.4","5.782","229.4","1015.926","29.82","63.79","882.0","0.0"],
    [1426513,"2026-08-23 12:10:00","2601","3.1860000000000004","202.6","6.272","224.5","1015.805","29.47","64.86","882.0","0.0"],
    [1426514,"2026-08-23 12:20:00","2602","2.9989999999999997","187.5","5.684","184.4","1015.7189999999999","29.61","64.35","878.0","0.0"],
    [1426515,"2026-08-23 12:30:00","2603","2.8760000000000003","199.0","5.978","213.1","1015.6110000000001","29.73","64.36","871.0","0.0"],
    [1426516,"2026-08-23 12:40:00","2604","2.641","182.2","5.39","177.1","1015.534","29.77","63.77","866.0","0.0"],
    [1426517,"2026-08-23 12:50:00","2605","2.513","177.5","4.9","209.6","1015.441","29.45","64.53","860.0","0.0"],
    [1426518,"2026-08-23 13:00:00","2606","1.9809999999999999","158.5","5.586","169.6","1015.307","29.71","63.47","850.0","0.0"],
    [1426519,"2026-08-23 13:10:00","2607","1.475","128.3","4.606","174.1","1015.168","29.9","63.53","837.0","0.0"],
    [1426520,"2026-08-23 13:20:00","2608","2.127","150.1","5.88","160.9","1015.1560000000001","30.37","61.5","828.0","0.0"],
    [1426521,"2026-08-23 13:30:00","2609","2.103","126.6","4.802","116.6","1015.0310000000001","29.68","63.67","817.0","0.0"],
    [1426522,"2026-08-23 13:40:00","2610","1.9369999999999998","145.7","5.096","102.3","1014.97","29.96","62.42","800.0","0.0"],
    [1426523,"2026-08-23 13:50:00","2611","3.5010000000000003","169.2","6.174","168.1","1015.054","29.34","64.0","786.8","0.0"],
    [1426524,"2026-08-23 14:00:00","2612","2.056","159.4","5.292","200.9","1015.0089999999999","29.57","63.42","766.8","0.0"],
    [1426525,"2026-08-23 14:10:00","2613","3.0260000000000002","165.9","6.37","181.5","1014.933","29.49","63.2","748.3","0.0"],
    [1426526,"2026-08-23 14:20:00","2614","2.069","153.0","5.684","200.4","1014.9019999999999","29.66","62.69","726.3","0.0"],
    [1426527,"2026-08-23 14:30:00","2615","3.2230000000000003","189.6","6.566","172.3","1014.9","29.88","61.37","705.6","0.0"],
    [1426528,"2026-08-23 14:40:00","2616","3.307","199.5","7.84","170.8","1014.883","29.89","60.67","683.1","0.0"],
    [1426529,"2026-08-23 14:50:00","2617","3.657","191.5","7.35","200.2","1014.9760000000001","29.93","60.15","658.3","0.0"],
    [1426530,"2026-08-23 15:00:00","2618","3.5060000000000002","194.8","6.86","173.2","1015.05","30.0","60.06","631.5","0.0"],
    [1426531,"2026-08-23 15:10:00","2619","3.7969999999999997","186.3","6.468","175.8","1015.1139999999999","29.81","60.45","603.7","0.0"],
    [1426532,"2026-08-23 15:20:00","2620","3.53","191.1","6.566","191.8","1015.172","29.85","60.75","575.3","0.0"],
    [1426533,"2026-08-23 15:30:00","2621","3.2239999999999998","186.2","6.174","157.8","1015.168","29.78","60.84","546.5","0.0"],
    [1426534,"2026-08-23 15:40:00","2622","3.1210000000000004","183.9","6.468","181.6","1014.995","29.68","60.93","514.7","0.0"],
    [1426535,"2026-08-23 15:50:00","2623","2.7","186.2","5.782","192.1","1014.933","29.89","60.25","484.1","0.0"],
    [1426536,"2026-08-23 16:00:00","2624","2.8810000000000002","184.6","5.88","200.3","1014.9119999999999","29.97","60.25","453.2","0.0"],
    [1426537,"2026-08-23 16:10:00","2625","2.765","197.6","5.39","170.8","1014.953","29.66","60.76","402.1","0.0"],
    [1426538,"2026-08-23 16:20:00","2626","2.8939999999999997","193.4","5.88","184.6","1014.8639999999999","29.93","59.55","392.6","0.0"],
    [1426539,"2026-08-23 16:30:00","2627","2.71","186.4","4.802","174.7","1014.7610000000001","29.53","60.35","339.5","0.0"],
    [1426540,"2026-08-23 16:40:00","2628","2.967","182.0","4.802","194.4","1014.725","29.4","61.38","327.1","0.0"],
    [1426541,"2026-08-23 16:50:00","2629","3.134","180.2","5.488","186.5","1014.79","29.12","62.32","295.2","0.0"],
    [1426542,"2026-08-23 17:00:00","2630","2.8539999999999996","186.6","5.292","185.3","1014.793","28.9","63.07","169.8","0.0"],
    [1426543,"2026-08-23 17:10:00","2631","2.529","191.7","4.508","190.1","1014.69","28.66","62.93","99.9","0.0"],
    [1426544,"2026-08-23 17:20:00","2632","2.662","205.9","4.802","217.5","1014.8489999999999","28.5","64.14","49.93","0.0"],
    [1426545,"2026-08-23 17:30:00","2633","2.445","190.5","6.076","202.9","1014.6060000000001","28.25","64.32","38.33","0.0"],
    [1426546,"2026-08-23 17:40:00","2634","2.0069999999999997","192.3","3.724","229.8","1014.512","28.18","64.23","36.23","0.0"],
    [1426547,"2026-08-23 17:50:00","2635","1.956","185.4","4.312","187.3","1014.413","28.13","65.58","32.78","0.0"],
    [1426548,"2026-08-23 18:00:00","2636","1.869","193.7","4.214","167.7","1014.312","27.99","65.92","24.07","0.0"],
    [1426549,"2026-08-23 18:10:00","2637","1.885","187.6","3.626","183.2","1014.2710000000001","27.93","65.63","16.1","0.0"],
    [1426550,"2026-08-23 18:20:00","2638","1.905","193.0","3.626","183.7","1014.3969999999999","27.82","66.6","10.66","0.0"],
    [1426551,"2026-08-23 18:30:00","2639","2.104","183.0","4.018","182.4","1014.328","27.73","66.7","5.274","0.0"],
    [1426552,"2026-08-23 18:40:00","2640","1.821","183.1","3.626","179.6","1014.245","27.71","66.09","1.429","0.0"],
    [1426553,"2026-08-23 18:50:00","2641","1.597","181.5","3.92","160.1","1014.082","27.63","66.89","-1.2830000000000001","0.0"],
    [1426554,"2026-08-23 19:00:00","2642","1.902","184.5","4.9","204.6","1014.268","27.55","67.12","-2.43","0.0"],
    [1426555,"2026-08-23 19:10:00","2643","1.7819999999999998","195.5","4.508","154.7","1014.502","27.52","67.5","-2.59","0.0"],
    [1426556,"2026-08-23 19:20:00","2644","1.473","218.8","3.234","217.7","1014.7869999999999","27.46","67.17","-2.5869999999999997","0.0"],
    [1426557,"2026-08-23 19:30:00","2645","1.207","223.7","2.352","196.2","1014.961","27.42","67.8","-2.591","0.0"],
    [1426558,"2026-08-23 19:40:00","2646","0.878","214.5","2.058","162","1014.9630000000001","27.29","68.07","-2.602","0.0"],
    [1426559,"2026-08-23 19:50:00","2647","1.298","190.2","2.94","169.4","1014.946","27.36","67.97","-2.6","0.0"],
    [1426560,"2026-08-23 20:00:00","2648","1.4080000000000001","177.2","3.528","158","1015.02","27.36","68.03","-2.594","0.0"],
    [1426561,"2026-08-23 20:10:00","2649","1.45","200.8","3.43","240.8","1015.215","27.38","68.11","-2.593","0.0"],
    [1426562,"2026-08-23 20:20:00","2650","1.339","200.1","4.214","221.7","1015.4010000000001","27.37","68.59","-2.593","0.0"],
    [1426563,"2026-08-23 20:30:00","2651","1.764","180.7","3.822","305.3","1015.508","27.3","69.45","-2.589","0.0"],
    [1426564,"2026-08-23 20:40:00","2652","1.1740000000000002","188.8","2.548","179.7","1015.284","27.26","69.85","-2.593","0.0"],
    [1426565,"2026-08-23 20:50:00","2653","1.426","186.8","3.92","189.2","1015.26","27.16","70.43","-2.597","0.0"],
    [1426566,"2026-08-23 21:00:00","2654","1.1909999999999998","195.7","3.234","208.8","1015.211","27.13","70.54","-2.593","0.0"],
    [1426567,"2026-08-23 21:10:00","2655","0.446","222.4","1.568","208.5","1015.204","26.97","71.03","-2.65","0.0"],
    [1426568,"2026-08-23 21:20:00","2656","0.81","199.5","1.862","174.3","1014.9580000000001","26.73","72.24","-2.634","0.0"],
    [1426569,"2026-08-23 21:30:00","2657","0.243","189.4","1.764","181.9","1014.928","26.67","72.45","-2.6010000000000004","0.0"],
    [1426570,"2026-08-23 21:40:00","2658","0.0","184.2","0.098","184.2","1014.8789999999999","26.45","73.66","-2.657","0.0"],
    [1426571,"2026-08-23 21:50:00","2659","0.7170000000000001","182.5","1.568","180.8","1014.7330000000001","26.5","73.2","-2.605","0.0"],
    [1426572,"2026-08-23 22:00:00","2660","0.6729999999999999","188.0","1.47","167.9","1014.67","26.64","71.96","-2.593","0.0"],
    [1426573,"2026-08-23 22:10:00","2661","0.376","204.6","0.98","215","1014.7139999999999","26.57","72.12","-2.594","0.0"],
    [1426574,"2026-08-23 22:20:00","2662","0.015","238.4","0.294","239.9","1014.7769999999999","26.33","73.53","-2.594","0.0"],
    [1426575,"2026-08-23 22:30:00","2663","0.2","242.9","0.98","248.1","1014.818","26.14","74.53","-2.5989999999999998","0.0"],
    [1426576,"2026-08-23 22:40:00","2664","0.45799999999999996","253.2","1.078","261.1","1014.8589999999999","26.19","74.58","-2.593","0.0"],
    [1426577,"2026-08-23 22:50:00","2665","0.525","278.8","0.98","300","1014.995","26.13","74.59","-2.593","0.0"],
    [1426578,"2026-08-23 23:00:00","2666","0.629","287.1","1.666","284.9","1014.99","26.0","74.79","-2.593","0.0"],
    [1426579,"2026-08-23 23:10:00","2667","0.36","280.9","0.784","284.3","1014.9739999999999","25.8","75.45","-2.593","0.0"],
    [1426580,"2026-08-23 23:20:00","2668","0.342","274.2","0.882","266.3","1014.904","25.64","75.98","-2.593","0.0"],
    [1426581,"2026-08-23 23:30:00","2669","0.508","280.9","1.078","267.4","1014.904","25.66","75.96","-2.591","0.0"],
    [1426582,"2026-08-23 23:40:00","2670","0.21899999999999997","283.6","0.588","284.8","1014.85","25.52","76.2","-2.592","0.0"],
    [1426583,"2026-08-23 23:50:00","2671","0.57","283.3","0.882","284.9","1014.8889999999999","25.31","76.95","-2.592","0.0"],
    [1426584,"2026-08-24 00:00:00","2672","0.623","281.5","1.078","275.4","1014.88","25.2","77.2","-2.58","0.0"],
    [1426585,"2026-08-24 00:10:00","2673","0.721","273.4","1.176","275.6","1014.862","25.27","76.81","-2.477","0.0"],
    [1426586,"2026-08-24 00:20:00","2674","0.895","276.4","1.372","269.4","1014.779","25.09","77.21","-2.515","0.0"],
    [1426587,"2026-08-24 00:30:00","2675","0.773","279.5","1.274","280.2","1014.573","24.86","77.89","-2.508","0.0"],
    [1426588,"2026-08-24 00:40:00","2676","0.71","297.7","1.078","288.8","1014.455","24.72","78.42","-2.5669999999999997","0.0"],
    [1426589,"2026-08-24 00:50:00","2677","0.6409999999999999","316.3","1.764","322.3","1014.222","24.56","78.88","-2.593","0.0"],
    [1426590,"2026-08-24 01:00:00","2678","1.109","323.4","1.666","321.6","1014.14","24.71","78.81","-2.502","0.0"],
    [1426591,"2026-08-24 01:10:00","2679","0.7170000000000001","303.6","1.666","313.5","1014.0189999999999","24.98","77.75","-2.235","0.0"],
    [1426592,"2026-08-24 01:20:00","2680","0.018000000000000002","296.0","0.392","297.5","1013.9739999999999","24.97","77.64","-2.338","0.0"],
    [1426593,"2026-08-24 01:30:00","2681","0.919","276.3","1.764","272.2","1014.01","24.89","77.96","-2.544","0.0"],
    [1426594,"2026-08-24 01:40:00","2682","0.922","285.1","1.764","278","1013.8330000000001","24.74","78.27","-2.219","0.0"],
    [1426595,"2026-08-24 01:50:00","2683","0.486","277.7","1.176","272.6","1013.727","24.44","79.58","-2.589","0.0"],
    [1426596,"2026-08-24 02:00:00","2684","0.34600000000000003","269.4","1.078","269.6","1013.75","24.41","79.72","-2.504","0.0"],
    [1426597,"2026-08-24 02:10:00","2685","0.708","270.5","1.47","278.9","1013.715","24.33","79.79","-2.502","0.0"],
    [1426598,"2026-08-24 02:20:00","2686","0.757","277.9","1.274","283.4","1013.6139999999999","24.14","80.4","-2.449","0.0"],
    [1426599,"2026-08-24 02:30:00","2687","0.922","274.9","1.372","279","1013.738","24.22","80.1","-2.3280000000000003","0.0"],
    [1426600,"2026-08-24 02:40:00","2688","1.099","280.0","1.568","280","1013.684","24.18","80.0","-2.166","0.0"],
    [1426601,"2026-08-24 02:50:00","2689","1.1440000000000001","284.0","1.568","280.2","1013.569","23.98","80.6","-2.222","0.0"],
    [1426602,"2026-08-24 03:00:00","2690","0.7","286.8","1.372","286.5","1013.498","23.89","80.9","-2.215","0.0"],
    [1426603,"2026-08-24 03:10:00","2691","0.897","292.0","1.47","282.2","1013.2919999999999","23.95","80.7","-2.162","0.0"],
    [1426604,"2026-08-24 03:20:00","2692","0.809","307.6","1.47","313.6","1013.195","24.05","80.4","-2.141","0.0"],
    [1426605,"2026-08-24 03:30:00","2693","0.752","304.6","1.568","308.1","1013.1110000000001","24.12","80.3","-2.198","0.0"],
    [1426606,"2026-08-24 03:40:00","2694","1.064","282.7","1.862","282.1","1013.1460000000001","24.13","80.3","-2.478","0.0"],
    [1426607,"2026-08-24 03:50:00","2695","1.44","258.4","2.45","269.4","1013.365","24.19","80.0","-1.896","0.0"],
    [1426608,"2026-08-24 04:00:00","2696","1.252","274.7","2.058","306.6","1013.294","23.88","81.0","-2.006","0.0"],
    [1426609,"2026-08-24 04:10:00","2697","1.466","275.3","2.254","275.7","1013.322","23.81","81.3","-1.92","0.0"],
    [1426610,"2026-08-24 04:20:00","2698","1.6469999999999998","264.6","2.45","283.4","1013.4069999999999","23.7","81.7","-1.8730000000000002","0.0"],
    [1426611,"2026-08-24 04:30:00","2699","1.7930000000000001","269.8","2.646","250.4","1013.448","23.66","81.9","-1.5319999999999998","0.0"],
    [1426612,"2026-08-24 04:40:00","2700","1.2790000000000001","285.2","2.548","271.1","1013.342","23.52","82.3","-1.801","0.0"],
    [1426613,"2026-08-24 04:50:00","2701","0.893","299.4","1.862","298.5","1013.163","23.54","82.4","-1.855","0.0"],
    [1426614,"2026-08-24 05:00:00","2702","0.79","295.5","1.764","319.4","1013.2139999999999","23.65","82.1","-1.117","0.0"],
    [1426615,"2026-08-24 05:10:00","2703","1.3869999999999998","305.9","2.352","314.9","1013.133","23.91","81.2","1.8430000000000002","0.0"],
    [1426616,"2026-08-24 05:20:00","2704","0.883","287.0","1.47","305.5","1013.092","24.05","80.4","8.07","0.0"],
    [1426617,"2026-08-24 05:30:00","2705","0.7609999999999999","259.4","1.274","267.7","1013.217","24.08","80.3","17.41","0.0"],
    [1426618,"2026-08-24 05:40:00","2706","0.7509999999999999","241.9","1.47","240.6","1013.4910000000001","24.21","79.71","31.41","0.0"],
    [1426619,"2026-08-24 05:50:00","2707","0.8","264.9","1.274","268.2","1013.743","24.39","79.26","49.32","0.0"],
    [1426620,"2026-08-24 06:00:00","2708","1.367","282.2","2.254","280","1013.829","24.44","79.24","64.13","0.0"],
    [1426621,"2026-08-24 06:10:00","2709","0.958","283.6","1.96","285","1013.92","24.5","79.19","92.4","0.0"],
    [1426622,"2026-08-24 06:20:00","2710","0.5670000000000001","290.3","1.176","294","1013.947","24.94","77.54","119.9","0.0"],
    [1426623,"2026-08-24 06:30:00","2711","0.8440000000000001","312.8","1.862","316.3","1013.99","25.54","75.64","145.5","0.0"],
    [1426624,"2026-08-24 06:40:00","2712","1.266","318.0","1.862","301.3","1013.916","26.16","73.31","171.6","0.0"],
    [1426625,"2026-08-24 06:50:00","2713","0.506","320.1","1.372","312.5","1013.827","26.63","71.59","198.7","0.0"],
    [1426626,"2026-08-24 07:00:00","2714","0.326","16.76","1.372","4.651","1013.6239999999999","27.43","69.19","227.9","0.0"],
    [1426627,"2026-08-24 07:10:00","2715","1.472","45.92","3.43","74.63","1013.3939999999999","27.86","68.64","260.7","0.0"],
    [1426628,"2026-08-24 07:20:00","2716","2.489","68.1","3.626","46.76","1013.2360000000001","27.7","70.34","293.0","0.0"],
    [1426629,"2026-08-24 07:30:00","2717","2.545","39.65","3.822","48.85","1013.1560000000001","27.71","70.54","296.0","0.0"],
    [1426630,"2026-08-24 07:40:00","2718","2.522","39.82","3.822","32.18","1013.072","27.88","69.76","325.6","0.0"],
    [1426631,"2026-08-24 07:50:00","2719","1.8780000000000001","65.48","3.724","85.8","1013.2739999999999","28.04","69.16","367.7","0.0"],
    [1426632,"2026-08-24 08:00:00","2720","1.685","86.5","3.038","74.15","1013.472","28.21","68.46","401.0","0.0"],
    [1426633,"2026-08-24 08:10:00","2721","1.6840000000000002","78.32","3.234","91.6","1013.6560000000001","28.53","67.55","453.7","0.0"],
    [1426634,"2026-08-24 08:20:00","2722","1.696","100.1","3.822","116.8","1013.836","28.64","66.95","480.3","0.0"],
    [1426635,"2026-08-24 08:30:00","2723","1.295","106.9","2.744","93.6","1013.8580000000001","28.76","66.24","475.7","0.0"],
    [1426636,"2026-08-24 08:40:00","2724","1.797","101.4","3.136","93.3","1014.091","28.5","67.49","441.8","0.0"],
    [1426637,"2026-08-24 08:50:00","2725","2.282","98.4","3.92","93.3","1014.187","28.49","67.26","479.1","0.0"],
    [1426638,"2026-08-24 09:00:00","2726","2.189","98.8","4.606","74.63","1013.985","28.63","66.82","493.9","0.0"],
    [1426639,"2026-08-24 09:10:00","2727","3.39","88.9","6.076","100.8","1013.5189999999999","28.21","68.43","507.9","0.0"],
    [1426640,"2026-08-24 09:20:00","2728","3.0189999999999997","89.5","5.194","69.59","1013.47","28.11","69.55","504.2","0.0"],
    [1426641,"2026-08-24 09:30:00","2729","3.054","92.6","4.9","72.21","1013.674","28.29","69.47","534.7","0.0"],
    [1426642,"2026-08-24 09:40:00","2730","3.4530000000000003","89.9","4.704","88.6","1013.55","28.02","70.81","444.4","0.0"],
    [1426643,"2026-08-24 09:50:00","2731","3.3169999999999997","85.7","5.194","50.89","1013.45","28.13","71.26","522.3","0.0"],
    [1426644,"2026-08-24 10:00:00","2732","3.645","85.2","6.468","95.2","1013.0939999999999","28.24","70.52","501.9","0.0"],
    [1426645,"2026-08-24 10:10:00","2733","3.125","73.01","5.684","70.47","1012.785","28.17","71.07","565.1","0.0"],
    [1426646,"2026-08-24 10:20:00","2734","2.8789999999999996","73.85","4.802","75.94","1012.7610000000001","28.95","68.44","778.5","0.0"],
    [1426647,"2026-08-24 10:30:00","2735","2.747","87.2","5.488","129.1","1012.711","28.97","67.16","771.3","0.0"],
    [1426648,"2026-08-24 10:40:00","2736","3.071","83.6","5.194","88.1","1012.565","28.7","67.45","505.9","0.0"],
    [1426649,"2026-08-24 10:50:00","2737","3.48","83.6","5.194","83.3","1012.3660000000001","28.56","68.37","542.5","0.0"],
    [1426650,"2026-08-24 11:00:00","2738","3.1630000000000003","98.9","4.998","82.9","1012.4730000000001","29.01","66.95","739.6","0.0"],
    [1426651,"2026-08-24 11:10:00","2739","3.1860000000000004","96.5","4.998","91.7","1012.45","29.02","67.35","799.5","0.0"],
    [1426652,"2026-08-24 11:20:00","2740","3.235","98.2","5.782","65.38","1012.538","29.33","66.71","803.0","0.0"],
    [1426653,"2026-08-24 11:30:00","2741","2.78","101.0","4.802","94","1012.691","29.16","67.69","609.5","0.0"],
    [1426654,"2026-08-24 11:40:00","2742","2.9339999999999997","92.8","5.684","95.5","1012.831","29.24","67.94","756.9","0.0"],
    [1426655,"2026-08-24 11:50:00","2743","3.1310000000000002","90.5","5.978","81.4","1012.703","29.28","68.55","618.7","0.0"],
    [1426656,"2026-08-24 12:00:00","2744","2.3169999999999997","95.3","4.508","80.6","1012.578","29.03","71.5","759.4","0.0"],
    [1426657,"2026-08-24 12:10:00","2745","2.121","100.6","5.194","81.7","1012.316","30.06","68.66","859.0","0.0"],
    [1426658,"2026-08-24 12:20:00","2746","2.055","107.9","4.41","96.8","1012.273","29.7","69.24","858.0","0.0"],
    [1426659,"2026-08-24 12:30:00","2747","2.017","105.1","3.92","120.8","1012.0360000000001","29.8","67.25","857.0","0.0"],
    [1426660,"2026-08-24 12:40:00","2748","1.3459999999999999","121.2","4.116","103.2","1011.784","30.17","65.18","813.0","0.0"],
    [1426661,"2026-08-24 12:50:00","2749","1.685","125.4","4.606","173.9","1011.6489999999999","30.98","61.83","882.0","0.0"],
    [1426662,"2026-08-24 13:00:00","2750","2.287","112.1","5.096","54.24","1011.5930000000001","30.3","64.68","690.4","0.0"],
    [1426663,"2026-08-24 13:10:00","2751","1.959","119.2","5.39","143.4","1011.378","30.08","65.85","644.6","0.0"],
    [1426664,"2026-08-24 13:20:00","2752","1.571","124.5","5.39","111.2","1011.2389999999999","29.7","67.41","465.4","0.0"],
    [1426665,"2026-08-24 13:30:00","2753","1.798","114.4","4.312","135.6","1011.2289999999999","29.5","69.1","308.3","0.0"],
    [1426666,"2026-08-24 13:40:00","2754","1.2990000000000002","129.7","4.312","111.6","1011.176","29.36","69.31","368.7","0.0"],
    [1426667,"2026-08-24 13:50:00","2755","2.168","200.0","4.606","202.8","1011.3430000000001","29.37","67.43","296.2","0.0"],
    [1426668,"2026-08-24 14:00:00","2756","1.966","191.6","5.096","191.4","1011.176","29.18","66.39","394.8","0.0"],
    [1426669,"2026-08-24 14:10:00","2757","2.128","208.0","4.312","197.9","1010.8380000000001","29.48","66.36","434.6","0.0"],
    [1426670,"2026-08-24 14:20:00","2758","1.594","177.1","3.92","228.6","1010.2810000000001","29.92","64.8","600.2","0.0"],
    [1426671,"2026-08-24 14:30:00","2759","1.5959999999999999","137.3","4.018","111.7","1009.872","30.17","64.47","690.2","0.0"],
    [1426672,"2026-08-24 14:40:00","2760","1.004","144.7","3.43","134.1","1009.7860000000001","30.51","63.52","578.8","0.0"],
    [1426673,"2026-08-24 14:50:00","2761","1.495","165.0","4.214","186.6","1009.7180000000001","30.24","64.08","535.8","0.0"],
    [1426674,"2026-08-24 15:00:00","2762","2.3369999999999997","202.0","4.802","164","1009.5210000000001","30.17","62.99","599.9","0.0"],
    [1426675,"2026-08-24 15:10:00","2763","2.674","207.5","4.606","202.3","1009.53","29.58","65.31","279.3","0.0"],
    [1426676,"2026-08-24 15:20:00","2764","2.46","192.5","5.488","198.6","1009.502","29.13","68.29","126.0","0.0"],
    [1426677,"2026-08-24 15:30:00","2765","2.44","188.9","4.606","176.4","1009.3660000000001","28.91","68.44","128.0","0.0"],
    [1426678,"2026-08-24 15:40:00","2766","3.2430000000000003","187.1","5.194","184.7","1009.1419999999999","28.51","69.23","74.23","0.0"],
    [1426679,"2026-08-24 15:50:00","2767","2.8810000000000002","184.8","5.488","181","1008.93","28.3","69.95","36.42","0.0"],
    [1426680,"2026-08-24 16:00:00","2768","3.3960000000000004","182.0","6.076","173.1","1008.673","28.26","71.53","27.06","0.0"],
    [1426681,"2026-08-24 16:10:00","2769","3.3080000000000003","188.1","6.076","196.2","1008.732","28.18","72.37","23.21","0.0"],
    [1426682,"2026-08-24 16:20:00","2770","3.824","185.8","6.762","198.7","1008.811","28.08","73.38","17.54","0.0"],
    [1426683,"2026-08-24 16:30:00","2771","3.714","182.7","7.252","170.3","1008.5939999999999","27.98","73.61","11.76","0.0"],
    [1426684,"2026-08-24 16:40:00","2772","3.764","188.9","8.04","182.5","1008.863","27.97","73.91","6.667000000000001","0.0"],
    [1426685,"2026-08-24 16:50:00","2773","3.716","210.3","7.252","204.9","1009.4839999999999","28.04","74.58","2.49","0.0"],
    [1426686,"2026-08-24 17:00:00","2774","3.5189999999999997","203.6","7.546","211.7","1009.701","27.58","79.86","-0.14800000000000002","0.0"],
    [1426687,"2026-08-24 17:10:00","2775","6.02","218.1","10.78","228.7","1009.941","26.73","84.4","4.289","0.0"],
    [1426688,"2026-08-24 17:20:00","2776","6.395","212.7","10.09","217.1","1008.827","25.79","83.8","14.32","0.0"],
    [1426689,"2026-08-24 17:30:00","2777","5.071000000000001","209.6","10.88","240.7","1008.9860000000001","24.96","79.86","14.41","0.0"],
    [1426690,"2026-08-24 17:40:00","2778","4.655","186.2","9.11","189.5","1008.7289999999999","24.61","67.12","16.77","0.0"],
    [1426691,"2026-08-24 17:50:00","2779","4.925","168.7","10.68","167.5","1008.6360000000001","24.5","64.59","12.94","0.0"],
    [1426692,"2026-08-24 18:00:00","2780","4.337","177.1","8.33","196.1","1008.7689999999999","25.68","59.39","8.98","0.0"],
    [1426693,"2026-08-24 18:10:00","2781","2.952","277.9","5.782","172.2","1009.289","25.75","62.81","9.83","0.0"],
    [1426694,"2026-08-24 18:20:00","2782","3.352","277.0","6.37","265.4","1009.482","24.36","70.11","10.41","0.0"],
    [1426695,"2026-08-24 18:30:00","2783","2.563","240.7","4.9","284","1009.43","24.03","72.03","12.09","0.0"],
    [1426696,"2026-08-24 18:40:00","2784","2.325","267.7","4.116","270.6","1009.2410000000001","23.98","73.46","6.646","0.0"],
    [1426697,"2026-08-24 18:50:00","2785","2.367","291.4","4.116","288.7","1009.181","23.83","75.33","0.23600000000000002","0.0"],
    [1426698,"2026-08-24 19:00:00","2786","2.825","292.7","4.802","312.1","1009.232","23.85","75.47","-1.351","0.0"],
    [1426699,"2026-08-24 19:10:00","2787","2.569","241.3","7.644","272.7","1009.181","24.06","75.25","-1.972","0.0"],
    [1426700,"2026-08-24 19:20:00","2788","2.496","254.2","7.154","246","1009.2389999999999","24.11","72.38","-2.324","0.0"],
    [1426701,"2026-08-24 19:30:00","2789","2.928","236.8","6.664","244.5","1009.4639999999999","24.34","66.09","-2.463","0.0"],
    [1426702,"2026-08-24 19:40:00","2790","2.086","254.0","4.9","256.1","1009.586","24.21","65.64","-2.455","0.0"],
    [1426703,"2026-08-24 19:50:00","2791","1.651","290.6","4.018","298.7","1009.666","24.0","65.46","-2.67","0.0"],
    [1426704,"2026-08-24 20:00:00","2792","2.002","276.0","4.41","299.8","1009.956","24.21","59.76","-2.614","0.0"],
    [1426705,"2026-08-24 20:10:00","2793","1.462","239.2","2.842","255.9","1010.066","24.35","58.54","-2.593","0.0"],
    [1426706,"2026-08-24 20:20:00","2794","1.113","269.5","2.352","276","1010.096","24.22","58.66","-2.594","0.0"],
    [1426707,"2026-08-24 20:30:00","2795","1.083","245.9","1.764","219.8","1010.245","24.11","58.48","-2.593","0.0"],
    [1426708,"2026-08-24 20:40:00","2796","1.212","262.0","1.862","265.2","1010.2860000000001","24.14","58.33","-2.594","0.0"],
    [1426709,"2026-08-24 20:50:00","2797","1.091","239.1","1.862","282.6","1010.201","24.18","57.73","-2.593","0.0"],
    [1426710,"2026-08-24 21:00:00","2798","0.915","250.7","1.666","244.9","1010.067","24.16","58.18","-2.571","0.0"],
    [1426711,"2026-08-24 21:10:00","2799","0.696","256.7","1.372","245.9","1009.971","24.18","58.15","-2.585","0.0"],
    [1426712,"2026-08-24 21:20:00","2800","0.19899999999999998","188.1","1.176","309.9","1009.935","24.02","58.51","-2.592","0.0"],
    [1426713,"2026-08-24 21:30:00","2801","0.02","164.4","0.392","164.4","1009.8989999999999","23.95","58.63","-2.594","0.0"],
    [1426714,"2026-08-24 21:40:00","2802","0.0","0.0","0","164.4","1009.8610000000001","23.88","60.36","-2.573","0.0"],
    [1426715,"2026-08-24 21:50:00","2803","0.0","0.0","0","164.5","1009.937","23.69","63.9","-2.515","0.0"],
    [1426716,"2026-08-24 22:00:00","2804","0.0","0.0","0","164.4","1009.9889999999999","23.48","64.85","-2.552","0.0"],
    [1426717,"2026-08-24 22:10:00","2805","0.0","164.4","0.098","164.4","1009.957","23.44","64.77","-2.0669999999999997","0.0"],
    [1426718,"2026-08-24 22:20:00","2806","0.136","14.24","0.686","327.2","1010.0260000000001","23.36","65.31","-2.25","0.0"],
    [1426719,"2026-08-24 22:30:00","2807","0.138","358.5","0.686","-3.148","1010.177","23.35","65.44","-2.171","0.0"],
    [1426720,"2026-08-24 22:40:00","2808","0.085","196.1","0.882","189.3","1010.085","23.42","63.75","-2.186","0.0"],
    [1426721,"2026-08-24 22:50:00","2809","0.065","258.9","0.882","290.9","1010.1410000000001","23.93","62.95","-1.9509999999999998","0.0"],
    [1426722,"2026-08-24 23:00:00","2810","0.027999999999999997","331.5","0.392","331.5","1010.198","23.67","66.12","-2.008","0.0"],
    [1426723,"2026-08-24 23:10:00","2811","0.055","331.6","0.49","331.6","1010.31","23.35","65.91","-1.9569999999999999","0.0"],
    [1426724,"2026-08-24 23:20:00","2812","0.0","0.0","0","331.1","1010.322","23.61","65.45","-1.8419999999999999","0.0"],
    [1426725,"2026-08-24 23:30:00","2813","0.44","324.0","0.882","326","1010.3560000000001","23.57","67.1","-1.902","0.0"],
    [1426726,"2026-08-24 23:40:00","2814","1.255","296.5","1.862","282.7","1010.3789999999999","23.3","67.57","-1.9040000000000001","0.0"],
    [1426727,"2026-08-24 23:50:00","2815","0.28600000000000003","285.4","0.98","293.7","1010.373","23.07","67.41","-1.949","0.0"],
    [1426728,"2026-08-25 00:00:00","2816","0.389","302.2","0.882","297","1010.237","23.2","68.84","-2.079","0.0"],
    [1426729,"2026-08-25 00:10:00","2817","0.23600000000000002","292.4","1.176","290.6","1010.16","23.03","69.2","-2.16","0.0"],
    [1426730,"2026-08-25 00:20:00","2818","1.011","290.6","1.47","291.8","1010.1439999999999","23.12","68.76","-1.95","0.0"],
    [1426731,"2026-08-25 00:30:00","2819","0.996","280.5","2.352","281.4","1010.1439999999999","22.91","69.78","-2.041","0.0"],
    [1426732,"2026-08-25 00:40:00","2820","1.056","280.6","1.764","284.6","1010.1510000000001","23.04","67.81","-2.093","0.0"],
    [1426733,"2026-08-25 00:50:00","2821","1.399","279.9","2.156","275.5","1010.092","22.83","68.45","-2.359","0.0"],
    [1426734,"2026-08-25 01:00:00","2822","0.521","273.2","1.176","265","1010.107","22.98","67.65","-1.9140000000000001","0.0"],
    [1426735,"2026-08-25 01:10:00","2823","0.665","278.9","1.372","267.3","1010.0219999999999","23.02","68.16","-1.9280000000000002","0.0"],
    [1426736,"2026-08-25 01:20:00","2824","0.7979999999999999","261.6","2.058","273","1009.992","23.15","67.92","-2.024","0.0"],
    [1426737,"2026-08-25 01:30:00","2825","1.155","262.7","2.45","274.7","1010.0010000000001","23.27","67.16","-2.046","0.0"],
    [1426738,"2026-08-25 01:40:00","2826","1.7519999999999998","278.6","2.548","277.9","1009.935","23.16","67.15","-2.066","0.0"],
    [1426739,"2026-08-25 01:50:00","2827","1.976","275.2","2.646","275.7","1009.922","23.07","66.35","-2.121","0.0"],
    [1426740,"2026-08-25 02:00:00","2828","1.669","277.5","2.45","289.8","1009.929","23.06","65.63","-2.199","0.0"],
    [1426741,"2026-08-25 02:10:00","2829","1.7280000000000002","273.1","2.45","274.2","1009.9019999999999","23.09","64.61","-2.57","0.0"],
    [1426742,"2026-08-25 02:20:00","2830","1.6230000000000002","280.6","2.45","276.6","1009.865","22.97","64.61","-2.385","0.0"],
    [1426743,"2026-08-25 02:30:00","2831","1.286","287.5","2.352","298.6","1009.7560000000001","22.54","66.46","-2.596","0.0"],
    [1426744,"2026-08-25 02:40:00","2832","1.325","290.2","2.646","318.3","1009.702","22.65","66.04","-2.6319999999999997","0.0"],
    [1426745,"2026-08-25 02:50:00","2833","1.08","283.3","1.862","279.8","1009.752","22.92","64.98","-2.165","0.0"],
    [1426746,"2026-08-25 03:00:00","2834","1.631","280.1","2.45","283.2","1009.785","23.12","64.15","-2.471","0.0"],
    [1426747,"2026-08-25 03:10:00","2835","1.2930000000000001","285.8","2.352","299.3","1009.83","23.15","64.47","-2.546","0.0"],
    [1426748,"2026-08-25 03:20:00","2836","0.993","293.5","2.352","309.5","1009.8610000000001","22.95","65.68","-2.627","0.0"],
    [1426749,"2026-08-25 03:30:00","2837","1.64","299.5","3.332","312.8","1009.92","22.98","65.87","-2.659","0.0"],
    [1426750,"2026-08-25 03:40:00","2838","1.742","299.4","3.038","293.6","1009.931","23.11","65.55","-2.56","0.0"],
    [1426751,"2026-08-25 03:50:00","2839","2.267","299.9","4.018","313.9","1009.898","23.13","65.57","-2.5660000000000003","0.0"],
    [1426752,"2026-08-25 04:00:00","2840","2.5660000000000003","303.1","3.92","302.5","1009.913","23.18","65.48","-2.477","0.0"],
    [1426753,"2026-08-25 04:10:00","2841","2.0909999999999997","299.4","3.332","299.2","1009.9860000000001","23.25","65.64","-2.541","0.0"],
    [1426754,"2026-08-25 04:20:00","2842","1.7","297.3","2.45","316.1","1010.012","23.21","66.0","-2.603","0.0"],
    [1426755,"2026-08-25 04:30:00","2843","1.726","278.3","3.038","270.1","1010.132","22.84","67.5","-2.395","0.0"],
    [1426756,"2026-08-25 04:40:00","2844","1.435","276.8","2.45","281.2","1010.2","22.54","68.6","-2.278","0.0"],
    [1426757,"2026-08-25 04:50:00","2845","1.867","275.6","2.842","272.6","1010.2410000000001","22.46","69.06","-2.04","0.0"],
    [1426758,"2026-08-25 05:00:00","2846","1.217","287.7","1.96","288.6","1010.194","22.33","69.76","-1.081","0.0"],
    [1426759,"2026-08-25 05:10:00","2847","1.203","284.4","2.254","289.4","1010.279","22.19","70.59","0.825","0.0"],
    [1426760,"2026-08-25 05:20:00","2848","1.226","278.3","2.058","285.6","1010.3539999999999","22.21","70.49","1.837","0.0"],
    [1426761,"2026-08-25 05:30:00","2849","1.4469999999999998","278.0","2.352","243.6","1010.385","22.11","71.0","7.928","0.0"],
    [1426762,"2026-08-25 05:40:00","2850","0.845","280.0","1.96","294","1010.559","22.1","71.06","15.22","0.0"],
    [1426763,"2026-08-25 05:50:00","2851","1.3030000000000002","280.7","2.254","291.9","1010.6339999999999","22.13","71.25","25.08","0.0"],
    [1426764,"2026-08-25 06:00:00","2852","1.68","287.9","2.45","288.3","1010.577","22.11","71.8","35.04","0.0"],
    [1426765,"2026-08-25 06:10:00","2853","1.607","295.6","2.94","289.9","1010.6160000000001","22.36","71.23","44.73","0.0"],
    [1426766,"2026-08-25 06:20:00","2854","1.499","287.3","3.43","290.4","1010.758","22.76","69.41","50.04","0.0"],
    [1426767,"2026-08-25 06:30:00","2855","1.081","296.4","2.352","308.6","1010.825","23.05","68.56","77.77","0.0"],
    [1426768,"2026-08-25 06:40:00","2856","1.2990000000000002","276.4","2.352","271.1","1010.832","23.64","66.46","160.2","0.0"],
    [1426769,"2026-08-25 06:50:00","2857","1.29","265.7","2.94","269.8","1010.926","24.19","64.23","213.5","0.0"],
    [1426770,"2026-08-25 07:00:00","2858","1.7719999999999998","274.6","3.724","272.3","1011.0010000000001","24.64","62.81","261.1","0.0"],
    [1426771,"2026-08-25 07:10:00","2859","1.7309999999999999","281.2","3.234","294.8","1011.096","25.1","60.68","242.9","0.0"],
    [1426772,"2026-08-25 07:20:00","2860","2.431","287.2","4.606","281.9","1011.1489999999999","25.88","57.52","309.8","0.0"],
    [1426773,"2026-08-25 07:30:00","2861","1.949","282.7","4.018","275.3","1011.215","26.44","55.17","339.1","0.0"],
    [1426774,"2026-08-25 07:40:00","2862","1.854","271.5","3.528","311.6","1011.334","26.99","53.19","385.9","0.0"],
    [1426775,"2026-08-25 07:50:00","2863","1.9580000000000002","280.9","3.136","281.3","1011.355","27.33","51.78","434.0","0.0"],
    [1426776,"2026-08-25 08:00:00","2864","1.982","268.8","3.528","257.4","1011.33","27.66","49.93","451.5","0.0"],
    [1426777,"2026-08-25 08:10:00","2865","1.8880000000000001","269.3","3.136","316.2","1011.3810000000001","28.15","49.05","471.1","0.0"],
    [1426778,"2026-08-25 08:20:00","2866","1.6130000000000002","259.6","2.94","236.5","1011.45","28.63","48.39","522.6","0.0"],
    [1426779,"2026-08-25 08:30:00","2867","1.1440000000000001","273.6","2.646","290","1011.451","28.77","48.55","557.8","0.0"],
    [1426780,"2026-08-25 08:40:00","2868","1.5719999999999998","285.7","3.43","308.3","1011.515","29.2","46.43","585.9","0.0"],
    [1426781,"2026-08-25 08:50:00","2869","1.392","246.8","3.528","299.8","1011.56","29.92","43.92","612.1","0.0"],
    [1426782,"2026-08-25 09:00:00","2870","2.552","303.2","6.272","344.9","1011.6060000000001","30.39","40.8","636.9","0.0"],
    [1426783,"2026-08-25 09:10:00","2871","2.306","275.8","4.508","280","1011.6239999999999","30.47","40.16","664.9","0.0"],
    [1426784,"2026-08-25 09:20:00","2872","2.958","288.9","5.292","289.9","1011.6360000000001","30.6","39.1","693.1","0.0"],
    [1426785,"2026-08-25 09:30:00","2873","3.045","288.5","6.468","301.2","1011.581","31.17","38.05","719.1","0.0"],
    [1426786,"2026-08-25 09:40:00","2874","2.591","295.3","4.802","314.6","1011.563","31.69","37.14","733.7","0.0"],
    [1426787,"2026-08-25 09:50:00","2875","2.465","297.8","5.194","299.9","1011.6469999999999","32.31","33.87","761.9","0.0"],
    [1426788,"2026-08-25 10:00:00","2876","2.253","234.5","4.41","238.6","1011.7510000000001","31.68","39.26","756.4","0.0"],
    [1426789,"2026-08-25 10:10:00","2877","3.56","195.3","5.782","226.3","1011.742","30.65","44.92","808.0","0.0"],
    [1426790,"2026-08-25 10:20:00","2878","4.032","196.3","6.566","179.2","1011.556","30.65","46.41","830.0","0.0"],
    [1426791,"2026-08-25 10:30:00","2879","3.011","198.5","5.978","171.1","1011.518","31.28","43.27","850.0","0.0"],
    [1426792,"2026-08-25 10:40:00","2880","4.0360000000000005","187.7","7.644","177","1011.541","31.42","43.11","851.0","0.0"],
    [1426793,"2026-08-25 10:50:00","2881","2.984","199.7","5.684","203.3","1011.538","31.86","40.86","857.0","0.0"],
    [1426794,"2026-08-25 11:00:00","2882","3.675","201.8","6.958","209.4","1011.523","32.47","40.08","868.0","0.0"],
    [1426795,"2026-08-25 11:10:00","2883","3.682","201.9","6.664","209.7","1011.5160000000001","32.45","39.7","878.0","0.0"],
    [1426796,"2026-08-25 11:20:00","2884","4.726","212.8","7.938","220.8","1011.3910000000001","32.23","38.61","888.0","0.0"],
    [1426797,"2026-08-25 11:30:00","2885","4.269","207.3","8.04","220.7","1011.3989999999999","32.04","41.77","898.0","0.0"],
    [1426798,"2026-08-25 11:40:00","2886","3.612","203.9","7.154","228.1","1011.426","32.42","43.47","896.0","0.0"],
    [1426799,"2026-08-25 11:50:00","2887","3.87","200.3","7.938","170.2","1011.3889999999999","32.26","46.79","892.0","0.0"],
    [1426800,"2026-08-25 12:00:00","2888","5.09","209.0","9.31","230","1011.25","32.19","43.1","904.0","0.0"],
    [1426801,"2026-08-25 12:10:00","2889","4.281000000000001","204.8","9.6","216.7","1011.174","32.36","44.63","891.0","0.0"],
    [1426802,"2026-08-25 12:20:00","2890","5.142","210.4","9.11","212.9","1011.168","32.25","44.26","897.0","0.0"],
    [1426803,"2026-08-25 12:30:00","2891","5.129","207.8","10.09","223.5","1011.189","31.84","46.13","890.0","0.0"],
    [1426804,"2026-08-25 12:40:00","2892","4.8469999999999995","208.6","9.11","221.1","1011.1410000000001","32.05","44.48","884.0","0.0"],
    [1426805,"2026-08-25 12:50:00","2893","5.7829999999999995","213.6","9.9","209.1","1011.0210000000001","32.36","43.36","878.0","0.0"],
    [1426806,"2026-08-25 13:00:00","2894","6.218","213.4","9.41","223.3","1010.9680000000001","32.03","43.37","871.0","0.0"],
    [1426807,"2026-08-25 13:10:00","2895","5.111000000000001","216.4","9.11","224","1010.78","32.55","40.8","863.0","0.0"],
    [1426808,"2026-08-25 13:20:00","2896","5.462000000000001","212.0","9.6","206.6","1010.796","32.38","43.74","850.0","0.0"],
    [1426809,"2026-08-25 13:30:00","2897","5.382000000000001","206.0","10.39","224","1010.8330000000001","31.73","45.64","836.0","0.0"],
    [1426810,"2026-08-25 13:40:00","2898","4.675","203.8","9.8","213.1","1010.7639999999999","31.61","45.36","818.0","0.0"],
    [1426811,"2026-08-25 13:50:00","2899","5.138","207.3","11.17","207.2","1010.773","31.85","44.85","801.0","0.0"],
    [1426812,"2026-08-25 14:00:00","2900","5.935","207.8","10.88","219.2","1010.752","31.43","45.96","782.8","0.0"],
    [1426813,"2026-08-25 14:10:00","2901","4.647","205.0","10.88","204","1010.6460000000001","31.8","45.68","760.1","0.0"],
    [1426814,"2026-08-25 14:20:00","2902","5.0089999999999995","209.7","9.21","199.6","1010.578","31.72","46.87","739.6","0.0"],
    [1426815,"2026-08-25 14:30:00","2903","5.14","206.0","11.17","206.3","1010.587","31.73","47.37","713.8","0.0"],
    [1426816,"2026-08-25 14:40:00","2904","5.406000000000001","207.1","10.49","210.4","1010.549","31.28","49.24","689.2","0.0"],
    [1426817,"2026-08-25 14:50:00","2905","4.644","204.5","9.02","212.9","1010.4810000000001","31.44","49.83","664.9","0.0"],
    [1426818,"2026-08-25 15:00:00","2906","4.15","204.2","10.29","214.8","1010.4780000000001","31.39","50.97","636.1","0.0"],
    [1426819,"2026-08-25 15:10:00","2907","4.4430000000000005","206.4","8.82","215.4","1010.416","31.25","51.1","608.8","0.0"],
    [1426820,"2026-08-25 15:20:00","2908","3.48","197.5","7.938","175.4","1010.37","31.29","52.38","578.6","0.0"],
    [1426821,"2026-08-25 15:30:00","2909","4.204","202.2","8.33","161.7","1010.368","31.1","52.54","549.3","0.0"],
    [1426822,"2026-08-25 15:40:00","2910","4.585","203.9","9.41","216.3","1010.388","30.77","53.1","520.2","0.0"],
    [1426823,"2026-08-25 15:50:00","2911","3.563","194.9","7.448","187.7","1010.441","30.85","54.15","488.6","0.0"],
    [1426824,"2026-08-25 16:00:00","2912","3.4339999999999997","197.4","7.056","167.5","1010.4910000000001","30.96","54.24","456.3","0.0"],
    [1426825,"2026-08-25 16:10:00","2913","4.042","208.1","8.13","212.1","1010.529","30.65","54.8","406.6","0.0"],
    [1426826,"2026-08-25 16:20:00","2914","4.656000000000001","210.7","8.72","203.4","1010.563","30.8","52.71","388.0","0.0"],
    [1426827,"2026-08-25 16:30:00","2915","3.343","203.8","7.35","213.5","1010.556","30.65","53.8","337.5","0.0"],
    [1426828,"2026-08-25 16:40:00","2916","4.947","210.8","8.62","213.2","1010.565","30.4","55.02","325.1","0.0"],
    [1426829,"2026-08-25 16:50:00","2917","3.909","209.5","8.92","203.2","1010.6160000000001","30.37","55.55","290.7","0.0"],
    [1426830,"2026-08-25 17:00:00","2918","5.718999999999999","217.7","10.58","232.8","1010.663","30.13","56.66","259.4","0.0"],
    [1426831,"2026-08-25 17:10:00","2919","5.295","216.4","8.82","215","1010.7180000000001","29.68","59.5","226.0","0.0"],
    [1426832,"2026-08-25 17:20:00","2920","4.393","214.9","8.23","206.9","1010.768","29.77","59.03","192.4","0.0"],
    [1426833,"2026-08-25 17:30:00","2921","4.187","220.5","7.056","211.1","1010.83","29.64","59.76","159.9","0.0"],
    [1426834,"2026-08-25 17:40:00","2922","4.979","219.9","8.53","233.6","1010.841","29.38","60.22","131.0","0.0"],
    [1426835,"2026-08-25 17:50:00","2923","4.727","222.6","8.53","225.6","1010.8710000000001","29.22","60.41","101.5","0.0"],
    [1426836,"2026-08-25 18:00:00","2924","4.3469999999999995","222.2","8.43","218.2","1010.933","29.03","60.71","74.4","0.0"],
    [1426837,"2026-08-25 18:10:00","2925","4.506","224.5","8.23","231.1","1011.025","28.82","61.65","38.2","0.0"],
    [1426838,"2026-08-25 18:20:00","2926","4.797","222.6","7.35","197.8","1011.1439999999999","28.6","62.42","18.04","0.0"],
    [1426839,"2026-08-25 18:30:00","2927","4.423","223.5","6.762","224","1011.175","28.38","63.25","9.63","0.0"],
    [1426840,"2026-08-25 18:40:00","2928","3.807","228.3","6.762","228.6","1011.187","28.16","64.02","2.0140000000000002","0.0"],
    [1426841,"2026-08-25 18:50:00","2929","4.494","223.9","7.938","229.8","1011.217","28.11","64.43","-1.2770000000000001","0.0"],
    [1426842,"2026-08-25 19:00:00","2930","3.9739999999999998","219.6","6.86","242.6","1011.3560000000001","28.05","64.51","-2.511","0.0"],
    [1426843,"2026-08-25 19:10:00","2931","3.614","225.7","6.272","219.4","1011.4760000000001","27.87","64.69","-2.5580000000000003","0.0"],
    [1426844,"2026-08-25 19:20:00","2932","3.122","228.1","4.9","218.9","1011.551","27.75","62.75","-2.8280000000000003","0.0"],
    [1426845,"2026-08-25 19:30:00","2933","3.182","224.3","5.292","237","1011.705","27.94","60.1","-2.988","0.0"],
    [1426846,"2026-08-25 19:40:00","2934","2.476","228.9","3.528","219.9","1011.811","27.76","60.04","-2.917","0.0"],
    [1426847,"2026-08-25 19:50:00","2935","3.255","218.6","5.292","204.2","1011.9910000000001","27.83","58.27","-3.1689999999999996","0.0"],
    [1426848,"2026-08-25 20:00:00","2936","3.415","216.6","5.88","209.1","1012.096","27.6","60.18","-2.989","0.0"],
    [1426849,"2026-08-25 20:10:00","2937","2.3480000000000003","212.1","5.684","236.1","1012.32","27.47","61.65","-3.14","0.0"],
    [1426850,"2026-08-25 20:20:00","2938","3.221","215.1","5.292","205.9","1012.4580000000001","27.52","60.93","-3.1010000000000004","0.0"],
    [1426851,"2026-08-25 20:30:00","2939","3.022","218.7","4.998","227.8","1012.632","27.45","62.0","-3.108","0.0"],
    [1426852,"2026-08-25 20:40:00","2940","2.6","225.6","5.39","213.4","1012.748","27.41","62.01","-3.028","0.0"],
    [1426853,"2026-08-25 20:50:00","2941","2.421","218.5","5.096","199","1012.865","27.32","62.73","-3.051","0.0"],
    [1426854,"2026-08-25 21:00:00","2942","2.614","225.1","4.116","226.4","1012.818","27.36","62.66","-2.855","0.0"],
    [1426855,"2026-08-25 21:10:00","2943","1.685","218.4","2.842","228.6","1012.8919999999999","27.23","62.89","-3.11","0.0"],
    [1426856,"2026-08-25 21:20:00","2944","1.383","250.5","2.352","265.3","1012.9019999999999","26.92","64.3","-3.3369999999999997","0.0"],
    [1426857,"2026-08-25 21:30:00","2945","0.591","236.1","2.058","264.7","1012.938","26.72","64.15","-3.312","0.0"],
    [1426858,"2026-08-25 21:40:00","2946","1.033","91.0","1.666","88.7","1013.034","26.61","64.42","-3.298","0.0"],
    [1426859,"2026-08-25 21:50:00","2947","0.451","142.6","1.372","120.5","1013.003","26.66","63.25","-3.076","0.0"],
    [1426860,"2026-08-25 22:00:00","2948","0.522","215.7","0.98","220.9","1012.937","26.54","62.14","-3.095","0.0"],
    [1426861,"2026-08-25 22:10:00","2949","0.07400000000000001","231.3","0.98","209.4","1013.005","26.06","63.25","-3.2","0.0"],
    [1426862,"2026-08-25 22:20:00","2950","0.529","194.6","0.98","209.4","1012.928","26.07","63.0","-2.8930000000000002","0.0"],
    [1426863,"2026-08-25 22:30:00","2951","0.373","175.7","0.98","181.4","1013.05","26.07","63.17","-2.912","0.0"],
    [1426864,"2026-08-25 22:40:00","2952","0.002","154.6","0.196","154.5","1013.0939999999999","25.94","63.14","-2.615","0.0"],
    [1426865,"2026-08-25 22:50:00","2953","0.682","276.7","1.666","280.3","1013.058","25.42","64.76","-2.647","0.0"],
    [1426866,"2026-08-25 23:00:00","2954","0.365","270.9","1.372","274.1","1013.112","25.34","64.13","-2.596","0.0"],
    [1426867,"2026-08-25 23:10:00","2955","0.009000000000000001","279.3","0.294","279.3","1013.1339999999999","25.26","63.95","-2.602","0.0"],
    [1426868,"2026-08-25 23:20:00","2956","0.0","0.0","0","279.3","1013.202","24.99","64.25","-2.5989999999999998","0.0"],
    [1426869,"2026-08-25 23:30:00","2957","0.7340000000000001","288.7","1.372","283.3","1013.128","24.77","64.03","-2.593","0.0"],
    [1426870,"2026-08-25 23:40:00","2958","0.08199999999999999","256.7","0.98","267.7","1013.113","24.36","63.46","-2.5980000000000003","0.0"],
    [1426871,"2026-08-25 23:50:00","2959","0.0","0.0","0","252","1013.2769999999999","24.23","63.13","-2.593","0.0"],
    [1426872,"2026-08-26 00:00:00","2960","0.0","0.0","0","252","1013.288","24.18","62.84","-2.397","0.0"],
    [1426873,"2026-08-26 00:10:00","2961","0.0","261.8","0.098","261.8","1013.565","24.24","63.11","-2.102","0.0"],
    [1426874,"2026-08-26 00:20:00","2962","0.7240000000000001","66.23","1.96","52.9","1013.46","24.66","65.7","-2.037","0.0"],
    [1426875,"2026-08-26 00:30:00","2963","1.591","44.84","2.646","34.83","1013.159","25.68","71.29","-2.5789999999999997","0.0"],
    [1426876,"2026-08-26 00:40:00","2964","1.69","46.49","3.43","50.43","1013.013","26.1","74.02","-2.6510000000000002","0.0"],
    [1426877,"2026-08-26 00:50:00","2965","0.235","311.7","1.176","233.8","1013.665","25.86","73.57","-2.515","0.0"],
    [1426878,"2026-08-26 01:00:00","2966","0.256","274.2","0.98","231.2","1013.318","24.85","70.08","-2.5839999999999996","0.0"],
    [1426879,"2026-08-26 01:10:00","2967","0.9990000000000001","315.2","1.96","343.7","1012.8589999999999","24.51","68.27","-2.464","0.0"],
    [1426880,"2026-08-26 01:20:00","2968","0.9570000000000001","128.4","2.156","11.43","1012.7710000000001","24.84","71.08","-2.637","0.0"],
    [1426881,"2026-08-26 01:30:00","2969","1.9140000000000001","239.6","2.94","236.2","1014.058","25.26","68.38","-2.349","0.0"],
    [1426882,"2026-08-26 01:40:00","2970","1.053","339.5","2.156","286.3","1013.347","24.72","66.04","-1.851","0.0"],
    [1426883,"2026-08-26 01:50:00","2971","0.653","119.2","1.372","232.5","1012.965","24.38","67.59","-2.3930000000000002","0.0"],
    [1426884,"2026-08-26 02:00:00","2972","1.349","281.6","2.156","277.3","1013.456","24.5","67.29","-2.439","0.0"],
    [1426885,"2026-08-26 02:10:00","2973","0.369","302.9","1.862","307.1","1013.105","23.89","68.44","-2.563","0.0"],
    [1426886,"2026-08-26 02:20:00","2974","0.69","31.6","1.862","288.7","1012.7","23.84","69.22","-2.59","0.0"],
    [1426887,"2026-08-26 02:30:00","2975","1.051","289.3","2.156","283.8","1013.0210000000001","23.85","69.97","-2.55","0.0"],
    [1426888,"2026-08-26 02:40:00","2976","0.574","307.9","1.568","293.8","1012.808","23.82","70.09","-2.5580000000000003","0.0"],
    [1426889,"2026-08-26 02:50:00","2977","0.9329999999999999","269.5","1.666","273.9","1012.895","23.91","69.97","-2.214","0.0"],
    [1426890,"2026-08-26 03:00:00","2978","1.9180000000000001","286.4","3.136","279","1013.176","24.04","69.42","-2.0780000000000003","0.0"],
    [1426891,"2026-08-26 03:10:00","2979","0.491","318.1","1.568","326.5","1012.757","23.63","71.06","-2.142","0.0"],
    [1426892,"2026-08-26 03:20:00","2980","1.137","268.4","2.646","278.7","1013.068","24.06","70.67","-1.8559999999999999","0.0"],
    [1426893,"2026-08-26 03:30:00","2981","1.953","283.1","3.234","275.9","1013.6110000000001","24.12","69.79","-1.126","0.0"],
    [1426894,"2026-08-26 03:40:00","2982","1.611","324.3","3.43","283.2","1013.0310000000001","24.12","70.58","-1.23","0.0"],
    [1426895,"2026-08-26 03:50:00","2983","3.4619999999999997","318.4","5.978","323.7","1013.195","24.45","70.43","-2.021","0.0"],
    [1426896,"2026-08-26 04:00:00","2984","2.792","325.9","5.488","315.2","1012.561","24.59","69.5","-1.229","0.0"],
    [1426897,"2026-08-26 04:10:00","2985","1.892","348.8","3.43","330.8","1012.201","24.73","70.98","-1.6969999999999998","0.0"],
    [1426898,"2026-08-26 04:20:00","2986","1.114","44.42","2.352","40.16","1012.196","24.91","72.64","-1.9709999999999999","0.0"],
    [1426899,"2026-08-26 04:30:00","2987","1.666","256.6","4.606","283.9","1013.466","25.12","72.1","-1.883","0.0"],
    [1426900,"2026-08-26 04:40:00","2988","1.091","282.0","3.92","273.5","1013.227","24.36","71.0","-1.5619999999999998","0.0"],
    [1426901,"2026-08-26 04:50:00","2989","0.8","290.8","1.47","338.5","1012.929","24.15","71.3","-1.8359999999999999","0.0"],
    [1426902,"2026-08-26 05:00:00","2990","0.345","197.5","1.372","197.7","1013.008","24.16","70.92","-1.515","0.0"],
    [1426903,"2026-08-26 05:10:00","2991","0.682","101.1","1.274","94.9","1012.6060000000001","24.43","71.05","-0.462","0.0"],
    [1426904,"2026-08-26 05:20:00","2992","0.951","311.0","2.842","279.2","1012.972","24.53","71.6","2.7239999999999998","0.0"],
    [1426905,"2026-08-26 05:30:00","2993","2.1180000000000003","284.0","3.332","274.6","1013.2610000000001","23.92","69.58","14.27","0.0"],
    [1426906,"2026-08-26 05:40:00","2994","0.775","292.8","2.548","305","1013.363","23.87","67.65","20.47","0.0"],
    [1426907,"2026-08-26 05:50:00","2995","1.129","287.2","2.156","290.9","1013.477","24.17","66.89","32.63","0.0"],
    [1426908,"2026-08-26 06:00:00","2996","1.464","309.4","2.45","283.3","1013.555","24.5","66.9","44.99","0.0"],
    [1426909,"2026-08-26 06:10:00","2997","1.8259999999999998","309.2","3.136","327.6","1013.4739999999999","24.96","67.03","52.49","0.0"],
    [1426910,"2026-08-26 06:20:00","2998","1.659","301.9","3.234","293","1013.512","25.38","66.43","60.4","0.0"],
    [1426911,"2026-08-26 06:30:00","2999","2.539","305.9","4.704","280.1","1013.752","25.62","65.74","90.2","0.0"],
    [1426912,"2026-08-26 06:40:00","3000","1.641","12.87","2.744","38.08","1012.8889999999999","25.9","65.01","121.5","0.0"],
    [1426913,"2026-08-26 06:50:00","3001","2.17","359.2","3.528","336.4","1012.835","26.26","64.71","77.69","0.0"],
    [1426914,"2026-08-26 07:00:00","3002","1.608","23.07","4.312","48.93","1012.548","26.47","65.14","41.14","0.0"],
    [1426915,"2026-08-26 07:10:00","3003","4.124","53.99","8.72","59.25","1012.055","27.02","67.96","134.3","0.0"],
    [1426916,"2026-08-26 07:20:00","3004","5.831","70.33","8.62","86.4","1011.095","26.91","69.6","161.4","0.0"],
    [1426917,"2026-08-26 07:30:00","3005","4.808","54.69","7.742","57.36","1011.1439999999999","26.6","70.0","168.8","0.0"],
    [1426918,"2026-08-26 07:40:00","3006","3.051","22.55","7.448","35.12","1011.722","26.68","70.53","143.9","0.0"],
    [1426919,"2026-08-26 07:50:00","3007","2.758","353.1","5.292","351.1","1012.3480000000001","27.08","69.41","194.3","0.0"],
    [1426920,"2026-08-26 08:00:00","3008","2.84","356.2","5.586","349.9","1012.3510000000001","27.34","67.88","134.3","0.0"],
    [1426921,"2026-08-26 08:10:00","3009","2.5","92.8","5.292","80.9","1012.544","27.23","69.57","76.14","0.0"],
    [1426922,"2026-08-26 08:20:00","3010","2.384","91.7","4.116","92.9","1013.1669999999999","27.15","74.21","87.4","0.0"],
    [1426923,"2026-08-26 08:30:00","3011","1.703","87.6","3.234","107.3","1013.627","27.2","75.05","148.7","0.0"],
    [1426924,"2026-08-26 08:40:00","3012","2.189","79.66","3.92","74.85","1013.387","27.42","75.13","243.1","0.0"],
    [1426925,"2026-08-26 08:50:00","3013","3.745","88.3","5.292","89.1","1012.86","27.55","74.83","238.0","0.0"],
    [1426926,"2026-08-26 09:00:00","3014","4.102","72.83","8.04","69.82","1012.485","27.42","76.84","92.4","0.0"],
    [1426927,"2026-08-26 09:10:00","3015","6.707999999999999","82.3","11.07","87.3","1011.1010000000001","27.32","76.93","92.5","0.0"],
    [1426928,"2026-08-26 09:20:00","3016","7.085","75.64","11.76","68.99","1010.3969999999999","27.5","75.82","186.3","0.0"],
    [1426929,"2026-08-26 09:30:00","3017","4.871","88.6","8.43","86.3","1011.498","27.49","77.86","159.5","0.0"],
    [1426930,"2026-08-26 09:40:00","3018","3.1039999999999996","98.1","6.272","107.9","1012.3889999999999","27.53","78.78","204.1","0.0"],
    [1426931,"2026-08-26 09:50:00","3019","1.264","130.2","3.234","117.2","1013.301","27.73","75.18","157.2","0.0"],
    [1426932,"2026-08-26 10:00:00","3020","1.38","112.5","5.39","78.98","1013.8989999999999","27.91","72.67","101.8","0.0"],
    [1426933,"2026-08-26 10:10:00","3021","2.427","111.7","5.684","115","1013.1569999999999","27.72","73.61","126.9","0.0"],
    [1426934,"2026-08-26 10:20:00","3022","1.639","115.9","3.528","112.6","1013.18","27.87","72.73","177.7","0.0"],
    [1426935,"2026-08-26 10:30:00","3023","2.983","82.5","5.096","78.88","1012.7189999999999","27.94","72.18","238.8","0.0"],
    [1426936,"2026-08-26 10:40:00","3024","2.8939999999999997","86.0","4.802","52.43","1012.6160000000001","28.05","71.25","303.4","0.0"],
    [1426937,"2026-08-26 10:50:00","3025","2.69","71.53","4.41","95.1","1012.373","28.27","69.99","302.7","0.0"],
    [1426938,"2026-08-26 11:00:00","3026","2.227","96.2","3.528","96.3","1012.8860000000001","28.3","68.86","282.4","0.0"],
    [1426939,"2026-08-26 11:10:00","3027","1.45","115.5","2.94","114.1","1013.318","28.13","69.22","161.9","0.0"],
    [1426940,"2026-08-26 11:20:00","3028","2.009","94.9","3.528","86.5","1013.115","28.15","69.8","205.1","0.0"],
    [1426941,"2026-08-26 11:30:00","3029","2.9","89.0","4.214","83.2","1012.7760000000001","28.25","68.43","297.4","0.0"],
    [1426942,"2026-08-26 11:40:00","3030","3.198","76.78","4.998","75.45","1012.5319999999999","28.6","68.12","473.1","0.0"],
    [1426943,"2026-08-26 11:50:00","3031","3.1719999999999997","50.02","5.194","65.52","1012.22","29.4","65.57","883.0","0.0"],
    [1426944,"2026-08-26 12:00:00","3032","3.488","45.79","5.684","7.754","1011.8960000000001","29.78","63.17","893.0","0.0"],
    [1426945,"2026-08-26 12:10:00","3033","3.4989999999999997","37.13","5.39","8.24","1011.5419999999999","29.77","60.59","595.8","0.0"],
    [1426946,"2026-08-26 12:20:00","3034","2.638","23.67","4.998","24.28","1011.3910000000001","29.65","59.88","402.7","0.0"],
    [1426947,"2026-08-26 12:30:00","3035","3.093","43.14","4.802","43.23","1011.444","29.6","59.51","458.2","0.0"],
    [1426948,"2026-08-26 12:40:00","3036","3.8289999999999997","51.44","5.684","57.38","1011.252","29.8","59.45","578.2","0.0"],
    [1426949,"2026-08-26 12:50:00","3037","4.0","58.72","5.684","66.49","1011.06","29.49","59.08","469.8","0.0"],
    [1426950,"2026-08-26 13:00:00","3038","3.682","57.36","5.488","63.68","1010.698","29.89","57.8","652.2","0.0"],
    [1426951,"2026-08-26 13:10:00","3039","3.91","67.63","6.37","63.92","1010.668","30.06","58.96","828.0","0.0"],
    [1426952,"2026-08-26 13:20:00","3040","4.063","81.3","5.978","74.15","1011.0089999999999","30.02","59.09","805.0","0.0"],
    [1426953,"2026-08-26 13:30:00","3041","3.6489999999999996","78.28","5.782","79.77","1011.092","30.06","58.46","763.0","0.0"],
    [1426954,"2026-08-26 13:40:00","3042","2.5140000000000002","100.1","4.116","97.9","1011.562","30.0","59.6","730.4","0.0"],
    [1426955,"2026-08-26 13:50:00","3043","3.2039999999999997","90.4","4.9","82","1011.5269999999999","29.46","60.98","712.0","0.0"],
    [1426956,"2026-08-26 14:00:00","3044","2.334","82.1","4.606","105.6","1011.408","29.52","62.77","684.8","0.0"],
    [1426957,"2026-08-26 14:10:00","3045","3.47","90.1","5.292","91.4","1011.432","29.39","63.39","670.2","0.0"],
    [1426958,"2026-08-26 14:20:00","3046","2.695","75.15","4.41","78.22","1011.3330000000001","29.44","64.65","650.7","0.0"],
    [1426959,"2026-08-26 14:30:00","3047","2.733","86.1","4.998","98.5","1011.217","29.9","62.92","618.3","0.0"],
    [1426960,"2026-08-26 14:40:00","3048","3.375","90.3","4.802","72.07","1011.148","29.23","65.67","590.3","0.0"],
    [1426961,"2026-08-26 14:50:00","3049","4.155","85.4","5.782","91.4","1010.8860000000001","29.15","65.8","570.5","0.0"],
    [1426962,"2026-08-26 15:00:00","3050","4.074","88.8","5.88","94.5","1010.8439999999999","29.06","67.22","541.3","0.0"],
    [1426963,"2026-08-26 15:10:00","3051","4.44","91.4","6.174","89.4","1010.7689999999999","29.02","68.68","513.4","0.0"],
    [1426964,"2026-08-26 15:20:00","3052","3.929","91.9","6.664","90.1","1010.7280000000001","29.02","69.66","485.7","0.0"],
    [1426965,"2026-08-26 15:30:00","3053","3.4760000000000004","98.7","5.488","100.4","1010.6610000000001","29.07","70.43","460.0","0.0"],
    [1426966,"2026-08-26 15:40:00","3054","4.25","82.8","6.272","79.87","1010.4830000000001","28.99","71.74","427.0","0.0"],
    [1426967,"2026-08-26 15:50:00","3055","4.137","75.48","5.88","78.66","1010.367","28.9","72.91","399.6","0.0"],
    [1426968,"2026-08-26 16:00:00","3056","3.78","78.15","5.194","71.92","1010.289","28.9","73.47","372.2","0.0"],
    [1426969,"2026-08-26 16:10:00","3057","3.75","78.44","5.292","92.5","1010.309","28.96","73.36","339.1","0.0"],
    [1426970,"2026-08-26 16:20:00","3058","4.35","85.4","6.272","77.25","1010.3430000000001","28.8","74.51","314.2","0.0"],
    [1426971,"2026-08-26 16:30:00","3059","4.012","83.1","5.586","92.7","1010.345","28.62","75.02","279.4","0.0"],
    [1426972,"2026-08-26 16:40:00","3060","4.013","83.4","5.684","93.1","1010.2230000000001","28.69","74.17","251.4","0.0"],
    [1426973,"2026-08-26 16:50:00","3061","3.4939999999999998","82.3","5.39","90.2","1010.21","28.62","75.26","216.8","0.0"],
    [1426974,"2026-08-26 17:00:00","3062","3.285","78.27","4.802","82.1","1010.0930000000001","28.68","74.18","189.4","0.0"],
    [1426975,"2026-08-26 17:10:00","3063","3.6260000000000003","83.3","4.9","85","1010.0889999999999","28.62","73.82","165.9","0.0"],
    [1426976,"2026-08-26 17:20:00","3064","3.353","76.14","5.194","82.1","1010.057","28.53","75.98","139.9","0.0"],
    [1426977,"2026-08-26 17:30:00","3065","3.7319999999999998","77.82","5.096","90.1","1009.95","28.52","76.11","112.5","0.0"],
    [1426978,"2026-08-26 17:40:00","3066","3.1660000000000004","85.9","4.802","88.5","1009.9860000000001","28.38","76.48","87.6","0.0"],
    [1426979,"2026-08-26 17:50:00","3067","3.3810000000000002","95.9","4.802","98.4","1010.076","28.15","76.29","66.77","0.0"],
    [1426980,"2026-08-26 18:00:00","3068","3.037","96.9","4.606","99.6","1010.202","28.09","75.57","47.43","0.0"],
    [1426981,"2026-08-26 18:10:00","3069","2.77","94.9","4.9","88.7","1010.174","28.03","75.04","29.38","0.0"],
    [1426982,"2026-08-26 18:20:00","3070","2.2969999999999997","89.9","4.018","77.87","1010.1339999999999","28.0","75.13","14.62","0.0"],
    [1426983,"2026-08-26 18:30:00","3071","2.063","82.6","3.136","93.4","1010.122","27.97","74.7","4.0169999999999995","0.0"],
    [1426984,"2026-08-26 18:40:00","3072","1.736","74.14","2.45","68.72","1009.9889999999999","27.9","75.29","0.087","0.0"],
    [1426985,"2026-08-26 18:50:00","3073","1.8730000000000002","70.5","2.842","60.81","1009.993","27.65","76.34","-1.7819999999999998","0.0"],
    [1426986,"2026-08-26 19:00:00","3074","1.831","73.3","3.136","92.5","1010.0269999999999","27.75","74.27","-2.582","0.0"],
    [1426987,"2026-08-26 19:10:00","3075","2.0580000000000003","73.14","3.528","72.19","1010.1389999999999","27.86","72.62","-2.589","0.0"],
    [1426988,"2026-08-26 19:20:00","3076","0.972","68.35","2.45","61.04","1010.2760000000001","27.9","71.69","-2.591","0.0"],
    [1426989,"2026-08-26 19:30:00","3077","0.414","77.2","2.156","82.9","1010.278","27.71","72.19","-2.8489999999999998","0.0"],
    [1426990,"2026-08-26 19:40:00","3078","1.317","98.3","3.528","160.6","1010.314","27.88","72.9","-2.6060000000000003","0.0"],
    [1426991,"2026-08-26 19:50:00","3079","1.401","80.1","3.332","66.57","1010.449","27.7","75.29","-2.593","0.0"],
    [1426992,"2026-08-26 20:00:00","3080","1.179","100.4","2.058","115","1010.581","27.53","77.72","-2.594","0.0"],
    [1426993,"2026-08-26 20:10:00","3081","0.5870000000000001","120.1","1.372","125.2","1010.6489999999999","27.48","79.04","-2.592","0.0"],
    [1426994,"2026-08-26 20:20:00","3082","0.439","115.0","1.568","95.1","1010.5889999999999","27.37","79.66","-2.594","0.0"],
    [1426995,"2026-08-26 20:30:00","3083","0.758","93.3","5.096","16.86","1010.579","27.46","79.46","-2.592","0.0"],
    [1426996,"2026-08-26 20:40:00","3084","0.879","99.3","3.724","53.87","1010.586","27.49","78.85","-2.574","0.0"],
    [1426997,"2026-08-26 20:50:00","3085","0.8320000000000001","108.7","2.842","129.5","1010.5880000000001","27.49","79.1","-2.594","0.0"],
    [1426998,"2026-08-26 21:00:00","3086","0.9440000000000001","83.6","2.548","76.4","1010.549","27.46","80.0","-2.588","0.0"],
    [1426999,"2026-08-26 21:10:00","3087","0.715","82.7","1.862","69.96","1010.448","27.07","81.9","-2.592","0.0"],
    [1427000,"2026-08-26 21:20:00","3088","1.446","57.53","2.058","58.33","1010.505","26.78","83.8","-2.588","0.0"],
    [1427001,"2026-08-26 21:30:00","3089","1.143","42.03","1.47","37.79","1010.58","26.68","84.5","-2.5860000000000003","0.0"],
    [1427002,"2026-08-26 21:40:00","3090","1.251","48.54","1.568","52.9","1010.565","26.72","84.1","-2.149","0.0"],
    [1427003,"2026-08-26 21:50:00","3091","1.121","37.78","1.666","40.5","1010.5989999999999","26.78","83.2","-2.002","0.0"],
    [1427004,"2026-08-26 22:00:00","3092","1.008","37.09","1.47","36.82","1010.692","26.93","82.6","-1.875","0.0"],
    [1427005,"2026-08-26 22:10:00","3093","1.016","51.87","1.372","38.08","1010.7130000000001","27.02","82.1","-1.4880000000000002","0.0"],
    [1427006,"2026-08-26 22:20:00","3094","1.097","76.62","1.372","61.24","1010.789","27.17","81.6","-1.068","0.0"],
    [1427007,"2026-08-26 22:30:00","3095","1.119","93.9","1.862","89.5","1010.98","27.47","82.1","-1.092","0.0"],
    [1427008,"2026-08-26 22:40:00","3096","0.922","73.79","1.568","92.7","1011.041","27.51","83.0","-1.092","0.0"],
    [1427009,"2026-08-26 22:50:00","3097","1.087","33.08","1.568","45.44","1010.9110000000001","27.36","83.7","-1.693","0.0"],
    [1427010,"2026-08-26 23:00:00","3098","1.112","57.92","1.764","48.06","1010.8660000000001","27.19","84.3","-2.036","0.0"],
    [1427011,"2026-08-26 23:10:00","3099","0.733","91.3","1.568","79.16","1011.0989999999999","27.12","84.6","-1.686","0.0"],
    [1427012,"2026-08-26 23:20:00","3100","0.889","90.0","1.568","89.1","1011.1110000000001","27.2","84.6","-1.216","0.0"],
    [1427013,"2026-08-26 23:30:00","3101","0.858","68.0","1.274","58.62","1011.123","27.2","84.9","-1.092","0.0"],
    [1427014,"2026-08-26 23:40:00","3102","0.9279999999999999","56.18","1.47","50.09","1011.03","27.15","85.1","-1.092","0.0"],
    [1427015,"2026-08-26 23:50:00","3103","0.9490000000000001","51.45","1.47","54.36","1011.0260000000001","27.22","85.0","-1.09","0.0"],
    [1427016,"2026-08-27 00:00:00","3104","1.631","34.08","2.45","28.2","1010.74","27.3","84.6","-1.092","0.0"],
    [1427017,"2026-08-27 00:10:00","3105","1.16","32.51","2.45","46.85","1010.4580000000001","27.36","83.9","-1.088","0.0"],
    [1427018,"2026-08-27 00:20:00","3106","1.401","16.71","2.352","3.294","1010.33","27.48","83.6","-0.888","0.0"],
    [1427019,"2026-08-27 00:30:00","3107","1.827","22.57","2.646","46.9","1010.258","27.51","83.3","-0.94","0.0"],
    [1427020,"2026-08-27 00:40:00","3108","1.21","33.28","2.352","39.97","1010.059","27.51","82.7","-1.092","0.0"],
    [1427021,"2026-08-27 00:50:00","3109","0.968","33.98","2.254","34.79","1009.8589999999999","27.58","81.5","-1.089","0.0"],
    [1427022,"2026-08-27 01:00:00","3110","1.32","72.95","2.548","73.16","1009.903","27.63","80.9","-1.093","0.0"],
    [1427023,"2026-08-27 01:10:00","3111","1.871","61.61","2.646","58.72","1009.738","27.56","81.2","-1.09","0.0"],
    [1427024,"2026-08-27 01:20:00","3112","2.231","61.47","3.136","45.25","1009.505","27.43","79.84","-1.092","0.0"],
    [1427025,"2026-08-27 01:30:00","3113","1.633","60.84","2.548","56.93","1009.375","27.28","80.1","-1.67","0.0"],
    [1427026,"2026-08-27 01:40:00","3114","1.4480000000000002","64.24","2.45","58.91","1009.5369999999999","27.16","79.68","-1.425","0.0"],
    [1427027,"2026-08-27 01:50:00","3115","1.21","41.18","1.96","31.2","1009.456","27.14","78.68","-1.0959999999999999","0.0"],
    [1427028,"2026-08-27 02:00:00","3116","0.953","42.06","2.254","45.93","1009.508","27.12","77.55","-1.391","0.0"],
    [1427029,"2026-08-27 02:10:00","3117","1.0659999999999998","342.1","2.45","308.1","1009.7289999999999","27.0","76.86","-1.133","0.0"],
    [1427030,"2026-08-27 02:20:00","3118","0.988","313.5","2.156","304.7","1009.685","26.46","77.16","-1.094","0.0"],
    [1427031,"2026-08-27 02:30:00","3119","0.515","55.98","1.078","36.82","1009.403","26.57","76.76","-1.739","0.0"],
    [1427032,"2026-08-27 02:40:00","3120","1.43","292.4","3.234","277.1","1009.438","26.69","76.05","-1.6219999999999999","0.0"],
    [1427033,"2026-08-27 02:50:00","3121","0.521","22.54","1.47","316.2","1009.313","26.63","76.28","-1.883","0.0"],
    [1427034,"2026-08-27 03:00:00","3122","0.505","22.32","0.882","24.81","1009.26","26.61","76.45","-1.7169999999999999","0.0"],
    [1427035,"2026-08-27 03:10:00","3123","0.594","106.6","1.078","170.1","1009.2810000000001","26.83","75.78","-1.025","0.0"],
    [1427036,"2026-08-27 03:20:00","3124","0.887","201.5","1.47","194.9","1009.367","27.05","75.02","-0.762","0.0"],
    [1427037,"2026-08-27 03:30:00","3125","0.613","236.3","1.176","231.6","1009.4580000000001","26.9","75.04","-1.091","0.0"],
    [1427038,"2026-08-27 03:40:00","3126","0.134","194.6","0.686","188.4","1009.38","26.89","75.39","-1.1159999999999999","0.0"],
    [1427039,"2026-08-27 03:50:00","3127","0.243","248.3","0.686","258.2","1009.182","26.79","76.14","-1.186","0.0"],
    [1427040,"2026-08-27 04:00:00","3128","1.074","283.0","2.352","282.6","1009.038","26.67","76.26","-1.24","0.0"],
    [1427041,"2026-08-27 04:10:00","3129","1.371","304.9","2.156","303.4","1009.0889999999999","26.56","75.71","-1.456","0.0"],
    [1427042,"2026-08-27 04:20:00","3130","1.001","285.2","1.862","284.6","1009.211","26.62","75.02","-1.889","0.0"],
    [1427043,"2026-08-27 04:30:00","3131","0.6509999999999999","271.7","1.372","279.1","1009.2539999999999","26.44","75.34","-2.333","0.0"],
    [1427044,"2026-08-27 04:40:00","3132","0.6","278.3","1.176","285.1","1009.268","26.49","75.33","-2.153","0.0"],
    [1427045,"2026-08-27 04:50:00","3133","0.0","0.0","0","308.4","1009.051","26.32","75.82","-2.369","0.0"],
    [1427046,"2026-08-27 05:00:00","3134","0.0","0.0","0","280.7","1008.946","26.15","76.61","-1.88","0.0"],
    [1427047,"2026-08-27 05:10:00","3135","0.217","263.1","1.274","244.2","1009.203","26.01","77.21","-0.406","0.0"],
    [1427048,"2026-08-27 05:20:00","3136","0.66","262.1","1.274","251.7","1009.4730000000001","26.07","77.5","2.98","0.0"],
    [1427049,"2026-08-27 05:30:00","3137","0.07","147.2","0.784","138.2","1009.5039999999999","26.13","77.37","9.1","0.0"],
    [1427050,"2026-08-27 05:40:00","3138","0.099","51.57","0.686","254.4","1009.433","26.28","77.55","26.7","0.0"],
    [1427051,"2026-08-27 05:50:00","3139","0.258","297.3","1.568","175.6","1009.456","26.76","77.55","35.34","0.0"],
    [1427052,"2026-08-27 06:00:00","3140","0.997","177.6","4.018","187.8","1009.5139999999999","27.22","77.96","30.46","0.0"],
    [1427053,"2026-08-27 06:10:00","3141","1.4880000000000002","178.5","3.92","176.8","1009.617","27.27","78.62","38.7","0.0"],
    [1427054,"2026-08-27 06:20:00","3142","2.4619999999999997","216.5","4.704","209.8","1009.81","27.32","79.39","86.2","0.0"],
    [1427055,"2026-08-27 06:30:00","3143","1.92","226.7","3.038","229.7","1009.948","27.31","76.53","123.1","0.0"],
    [1427056,"2026-08-27 06:40:00","3144","1.722","229.5","4.018","198.8","1010.0939999999999","27.53","74.85","160.4","0.0"],
    [1427057,"2026-08-27 06:50:00","3145","2.064","225.7","4.704","199.9","1010.155","27.76","73.94","183.5","0.0"],
    [1427058,"2026-08-27 07:00:00","3146","3.2439999999999998","215.7","6.37","223.8","1010.2330000000001","28.12","73.4","235.5","0.0"],
    [1427059,"2026-08-27 07:10:00","3147","3.4930000000000003","211.2","7.938","174.9","1010.205","28.46","72.21","280.9","0.0"],
    [1427060,"2026-08-27 07:20:00","3148","3.859","214.6","5.978","203.4","1010.184","28.43","72.38","300.7","0.0"],
    [1427061,"2026-08-27 07:30:00","3149","2.737","210.2","6.86","199.5","1010.28","28.73","71.53","336.7","0.0"],
    [1427062,"2026-08-27 07:40:00","3150","3.529","211.1","5.586","220.6","1010.2869999999999","28.88","67.78","369.1","0.0"],
    [1427063,"2026-08-27 07:50:00","3151","2.614","199.3","4.704","217","1010.427","29.26","66.92","397.4","0.0"],
    [1427064,"2026-08-27 08:00:00","3152","2.887","203.3","7.644","169.1","1010.577","29.12","66.13","366.5","0.0"],
    [1427065,"2026-08-27 08:10:00","3153","3.81","215.0","6.958","219.7","1010.7919999999999","29.2","65.66","394.1","0.0"],
    [1427066,"2026-08-27 08:20:00","3154","2.705","191.1","5.586","183","1010.9580000000001","29.23","66.65","401.8","0.0"],
    [1427067,"2026-08-27 08:30:00","3155","2.496","205.9","5.586","213.7","1011.01","29.06","67.22","255.2","0.0"],
    [1427068,"2026-08-27 08:40:00","3156","3.069","207.6","6.37","216.4","1011.1","29.11","67.09","473.5","0.0"],
    [1427069,"2026-08-27 08:50:00","3157","2.536","198.5","5.782","223.1","1011.113","29.85","65.56","609.6","0.0"],
    [1427070,"2026-08-27 09:00:00","3158","3.19","207.8","6.566","218","1011.117","29.81","65.54","648.3","0.0"],
    [1427071,"2026-08-27 09:10:00","3159","2.971","192.3","5.586","183","1011.2","29.91","65.54","645.9","0.0"],
    [1427072,"2026-08-27 09:20:00","3160","3.638","214.8","5.978","223.8","1011.133","29.89","65.33","673.1","0.0"],
    [1427073,"2026-08-27 09:30:00","3161","2.495","193.9","4.41","179.2","1011.055","30.1","64.89","619.7","0.0"],
    [1427074,"2026-08-27 09:40:00","3162","2.741","214.3","5.978","206.6","1011.096","29.92","63.99","666.6","0.0"],
    [1427075,"2026-08-27 09:50:00","3163","2.6260000000000003","197.6","5.39","237.8","1011.1060000000001","30.14","63.48","734.4","0.0"],
    [1427076,"2026-08-27 10:00:00","3164","2.065","190.9","4.41","162.2","1011.177","30.39","63.46","744.2","0.0"],
    [1427077,"2026-08-27 10:10:00","3165","1.496","169.3","4.41","148.9","1011.0010000000001","30.29","64.35","760.0","0.0"],
    [1427078,"2026-08-27 10:20:00","3166","1.895","199.1","3.528","213.7","1010.815","30.46","64.47","773.9","0.0"],
    [1427079,"2026-08-27 10:30:00","3167","2.092","184.3","5.684","180.9","1010.698","30.44","65.13","775.5","0.0"],
    [1427080,"2026-08-27 10:40:00","3168","1.5190000000000001","133.3","3.822","183.3","1010.6039999999999","30.78","64.23","778.8","0.0"],
    [1427081,"2026-08-27 10:50:00","3169","2.021","108.4","4.41","92.9","1010.563","30.35","66.6","808.0","0.0"],
    [1427082,"2026-08-27 11:00:00","3170","1.4409999999999998","120.4","4.116","152","1010.487","30.42","66.54","794.9","0.0"],
    [1427083,"2026-08-27 11:10:00","3171","1.45","152.6","3.92","182.1","1010.3960000000001","30.92","64.54","796.5","0.0"],
    [1427084,"2026-08-27 11:20:00","3172","1.5719999999999998","118.9","4.606","217.9","1010.302","30.74","65.54","800.0","0.0"],
    [1427085,"2026-08-27 11:30:00","3173","1.8130000000000002","164.5","4.998","200.8","1010.319","31.0","65.6","811.0","0.0"],
    [1427086,"2026-08-27 11:40:00","3174","3.156","190.2","5.978","179.1","1010.345","30.91","66.67","814.0","0.0"],
    [1427087,"2026-08-27 11:50:00","3175","3.9819999999999998","175.4","6.566","170.2","1010.3610000000001","30.03","69.62","826.0","0.0"],
    [1427088,"2026-08-27 12:00:00","3176","2.925","192.7","6.076","185.4","1010.242","30.67","68.52","834.0","0.0"],
    [1427089,"2026-08-27 12:10:00","3177","3.197","198.8","5.684","157.8","1010.166","31.22","66.98","824.0","0.0"],
    [1427090,"2026-08-27 12:20:00","3178","3.2119999999999997","197.5","6.174","216.3","1010.158","30.64","68.57","839.0","0.0"],
    [1427091,"2026-08-27 12:30:00","3179","3.846","202.7","6.664","188.8","1010.216","30.52","68.52","841.0","0.0"],
    [1427092,"2026-08-27 12:40:00","3180","3.685","204.8","6.86","235.3","1010.2460000000001","30.88","67.48","827.0","0.0"],
    [1427093,"2026-08-27 12:50:00","3181","4.341","208.5","8.43","205.8","1010.1389999999999","30.72","67.75","839.0","0.0"],
    [1427094,"2026-08-27 13:00:00","3182","4.971","211.7","7.742","204.6","1010.1560000000001","30.37","69.3","824.0","0.0"],
    [1427095,"2026-08-27 13:10:00","3183","4.53","198.0","7.546","171.9","1010.192","30.54","68.72","797.9","0.0"],
    [1427096,"2026-08-27 13:20:00","3184","5.031000000000001","207.6","8.13","175","1010.225","30.38","68.85","779.8","0.0"],
    [1427097,"2026-08-27 13:30:00","3185","4.244","194.4","8.72","169.7","1010.3330000000001","30.84","67.35","782.6","0.0"],
    [1427098,"2026-08-27 13:40:00","3186","4.628","202.3","9.11","201.5","1010.441","30.62","68.39","771.6","0.0"],
    [1427099,"2026-08-27 13:50:00","3187","5.034","212.2","8.13","215.7","1010.32","30.72","67.8","743.4","0.0"],
    [1427100,"2026-08-27 14:00:00","3188","4.138999999999999","206.7","7.252","219.4","1010.227","30.9","65.4","731.5","0.0"],
    [1427101,"2026-08-27 14:10:00","3189","4.439","198.0","8.33","185","1010.355","30.76","65.94","741.1","0.0"],
    [1427102,"2026-08-27 14:20:00","3190","4.24","205.8","8.33","188.9","1010.5980000000001","30.94","65.81","757.8","0.0"],
    [1427103,"2026-08-27 14:30:00","3191","4.243","204.4","9.02","202.4","1010.6569999999999","30.83","66.74","590.8","0.0"],
    [1427104,"2026-08-27 14:40:00","3192","5.1770000000000005","212.9","9.51","216.1","1010.592","30.02","68.83","597.9","0.0"],
    [1427105,"2026-08-27 14:50:00","3193","4.0169999999999995","212.6","7.84","238","1010.422","30.05","67.23","563.0","0.0"],
    [1427106,"2026-08-27 15:00:00","3194","3.799","211.6","7.448","231.7","1010.3560000000001","30.18","67.56","507.9","0.0"],
    [1427107,"2026-08-27 15:10:00","3195","3.2680000000000002","199.8","5.88","183.7","1010.2860000000001","30.01","69.2","496.9","0.0"],
    [1427108,"2026-08-27 15:20:00","3196","3.641","214.8","5.978","232.2","1010.29","29.68","70.61","471.3","0.0"],
    [1427109,"2026-08-27 15:30:00","3197","3.57","197.9","6.664","174.8","1010.341","29.83","70.23","446.0","0.0"],
    [1427110,"2026-08-27 15:40:00","3198","3.181","205.5","5.684","209.8","1010.3710000000001","29.63","70.56","268.3","0.0"],
    [1427111,"2026-08-27 15:50:00","3199","3.03","205.5","5.88","197.1","1010.253","28.97","74.0","190.0","0.0"],
    [1427112,"2026-08-27 16:00:00","3200","4.067","212.7","7.056","223.6","1010.299","28.92","70.8","211.8","0.0"],
    [1427113,"2026-08-27 16:10:00","3201","2.805","199.2","6.37","229.7","1010.204","28.99","65.17","158.9","0.0"],
    [1427114,"2026-08-27 16:20:00","3202","2.8510000000000004","205.9","5.488","167.8","1010.247","29.23","61.96","210.4","0.0"],
    [1427115,"2026-08-27 16:30:00","3203","3.715","217.5","6.566","190.2","1010.26","29.14","60.32","182.4","0.0"],
    [1427116,"2026-08-27 16:40:00","3204","3.4789999999999996","215.7","5.684","218.5","1010.165","29.14","57.67","126.5","0.0"],
    [1427117,"2026-08-27 16:50:00","3205","3.3489999999999998","211.6","7.84","213","1010.1360000000001","29.01","59.58","74.68","0.0"],
    [1427118,"2026-08-27 17:00:00","3206","2.804","211.4","6.958","189.2","1010.028","28.82","63.28","54.27","0.0"],
    [1427119,"2026-08-27 17:10:00","3207","3.185","212.0","7.546","170.3","1009.971","28.55","66.13","66.89","0.0"],
    [1427120,"2026-08-27 17:20:00","3208","2.516","203.0","5.096","235.3","1010.209","28.55","65.34","61.63","0.0"],
    [1427121,"2026-08-27 17:30:00","3209","2.327","209.3","5.88","230.8","1010.419","28.63","63.42","69.67","0.0"],
    [1427122,"2026-08-27 17:40:00","3210","2.066","197.1","4.018","189","1010.243","28.62","63.59","68.45","0.0"],
    [1427123,"2026-08-27 17:50:00","3211","2.222","212.2","5.782","226.4","1010.188","28.61","60.82","53.58","0.0"],
    [1427124,"2026-08-27 18:00:00","3212","2.254","206.7","4.802","245.9","1010.05","28.57","60.73","40.22","0.0"],
    [1427125,"2026-08-27 18:10:00","3213","2.819","218.8","4.998","197.2","1009.7760000000001","28.4","61.29","25.08","0.0"],
    [1427126,"2026-08-27 18:20:00","3214","2.681","210.7","5.096","173.5","1009.565","28.33","62.25","6.75","0.0"],
    [1427127,"2026-08-27 18:30:00","3215","1.704","233.1","6.958","164.6","1009.703","28.2","62.71","1.003","0.0"],
    [1427128,"2026-08-27 18:40:00","3216","1.633","234.2","3.038","243.2","1009.821","28.05","63.07","-0.599","0.0"],
    [1427129,"2026-08-27 18:50:00","3217","1.3019999999999998","258.5","2.45","262.1","1010.127","28.0","62.28","-2.158","0.0"],
    [1427130,"2026-08-27 19:00:00","3218","1.666","244.0","3.528","209.5","1010.173","27.95","64.68","-2.57","0.0"],
    [1427131,"2026-08-27 19:10:00","3219","1.801","222.0","4.606","212.3","1010.309","27.95","64.73","-2.592","0.0"],
    [1427132,"2026-08-27 19:20:00","3220","1.396","234.4","2.94","211.7","1010.6139999999999","27.89","65.52","-2.2840000000000003","0.0"],
    [1427133,"2026-08-27 19:30:00","3221","1.8530000000000002","182.5","5.684","171","1010.9169999999999","27.95","65.45","-2.471","0.0"],
    [1427134,"2026-08-27 19:40:00","3222","2.201","215.4","5.488","214.5","1011.2410000000001","27.84","65.79","-2.5860000000000003","0.0"],
    [1427135,"2026-08-27 19:50:00","3223","1.473","254.9","3.038","211.5","1011.332","27.85","66.33","-2.571","0.0"],
    [1427136,"2026-08-27 20:00:00","3224","0.914","261.6","1.862","261.5","1011.199","27.54","67.41","-2.563","0.0"],
    [1427137,"2026-08-27 20:10:00","3225","0.9690000000000001","249.7","1.862","247.4","1011.296","27.5","67.78","-2.456","0.0"],
    [1427138,"2026-08-27 20:20:00","3226","1.736","237.0","2.94","270.3","1011.505","27.74","67.24","-1.882","0.0"],
    [1427139,"2026-08-27 20:30:00","3227","1.022","189.7","2.254","183.6","1011.497","27.84","66.83","-1.681","0.0"],
    [1427140,"2026-08-27 20:40:00","3228","1.145","222.8","3.92","207.4","1011.5310000000001","27.84","66.55","-1.801","0.0"],
    [1427141,"2026-08-27 20:50:00","3229","2.226","230.8","4.606","220.3","1012.328","27.95","66.35","-1.665","0.0"],
    [1427142,"2026-08-27 21:00:00","3230","2.011","211.5","4.312","176.5","1012.3430000000001","27.95","66.22","-1.8019999999999998","0.0"],
    [1427143,"2026-08-27 21:10:00","3231","1.212","254.6","3.136","186.2","1012.095","27.84","67.33","-1.821","0.0"],
    [1427144,"2026-08-27 21:20:00","3232","1.345","297.3","2.352","304.2","1011.3919999999999","27.74","67.84","-1.841","0.0"],
    [1427145,"2026-08-27 21:30:00","3233","1.517","264.6","2.646","285.1","1011.556","27.66","68.11","-1.834","0.0"],
    [1427146,"2026-08-27 21:40:00","3234","1.7890000000000001","290.9","2.744","276.7","1011.248","27.6","68.25","-1.7369999999999999","0.0"],
    [1427147,"2026-08-27 21:50:00","3235","1.74","224.4","2.842","232.5","1011.562","27.68","67.43","-1.702","0.0"],
    [1427148,"2026-08-27 22:00:00","3236","1.692","234.0","3.234","235","1011.9680000000001","27.87","66.35","-1.6219999999999999","0.0"],
    [1427149,"2026-08-27 22:10:00","3237","1.972","226.6","3.43","223.2","1012.362","27.87","66.61","-1.51","0.0"],
    [1427150,"2026-08-27 22:20:00","3238","1.473","257.0","4.41","271.4","1012.422","27.86","66.41","-1.9040000000000001","0.0"],
    [1427151,"2026-08-27 22:30:00","3239","1.814","247.5","4.116","241.5","1012.4810000000001","27.82","65.96","-2.642","0.0"],
    [1427152,"2026-08-27 22:40:00","3240","2.378","234.4","4.116","236.5","1012.8539999999999","27.88","65.77","-2.394","0.0"],
    [1427153,"2026-08-27 22:50:00","3241","2.3409999999999997","227.9","4.018","215.6","1012.803","27.81","66.78","-2.306","0.0"],
    [1427154,"2026-08-27 23:00:00","3242","2.242","223.6","4.312","214.6","1012.86","27.88","66.58","-1.837","0.0"],
    [1427155,"2026-08-27 23:10:00","3243","2.108","211.3","5.096","204.4","1012.875","27.83","66.91","-1.744","0.0"],
    [1427156,"2026-08-27 23:20:00","3244","1.469","286.8","2.45","313.5","1012.1089999999999","27.65","67.82","-1.837","0.0"],
    [1427157,"2026-08-27 23:30:00","3245","2.259","296.5","3.626","318.6","1011.778","27.46","67.89","-1.834","0.0"],
    [1427158,"2026-08-27 23:40:00","3246","1.631","278.2","3.528","297.9","1011.9580000000001","27.57","65.98","-1.824","0.0"],
    [1427159,"2026-08-27 23:50:00","3247","1.083","190.2","2.254","167.4","1012.3919999999999","27.69","64.46","-1.827","0.0"],
    [1427160,"2026-08-28 00:00:00","3248","0.992","199.1","1.862","181.2","1012.431","27.75","64.36","-1.7919999999999998","0.0"],
    [1427161,"2026-08-28 00:10:00","3249","1.032","244.8","1.96","298.5","1012.2080000000001","27.67","64.59","-1.824","0.0"],
    [1427162,"2026-08-28 00:20:00","3250","1.5630000000000002","228.6","3.332","210.4","1012.579","27.57","60.81","-1.848","0.0"],
    [1427163,"2026-08-28 00:30:00","3251","2.083","223.0","4.312","246.2","1012.987","28.15","50.14","-1.861","0.0"],
    [1427164,"2026-08-28 00:40:00","3252","2.249","206.7","4.214","220.6","1013.568","28.23","47.86","-2.33","0.0"],
    [1427165,"2026-08-28 00:50:00","3253","1.537","237.1","3.038","266","1013.7260000000001","27.89","52.57","-6.774","0.0"],
    [1427166,"2026-08-28 01:00:00","3254","3.222","275.8","6.174","300.4","1013.279","27.59","42.56","-9.22","0.0"],
    [1427167,"2026-08-28 01:10:00","3255","1.521","224.4","3.822","222.9","1013.472","27.22","46.13","-6.106","0.0"],
    [1427168,"2026-08-28 01:20:00","3256","1.182","203.1","2.352","201.1","1013.475","26.87","50.13","-3.781","0.0"],
    [1427169,"2026-08-28 01:30:00","3257","1.291","232.1","2.156","238.3","1013.42","26.58","52.91","-1.3030000000000002","0.0"],
    [1427170,"2026-08-28 01:40:00","3258","1.192","247.4","2.45","226.2","1012.965","26.31","53.22","-2.41","0.0"],
    [1427171,"2026-08-28 01:50:00","3259","1.341","254.6","3.038","284.3","1013.023","26.34","52.17","-2.285","0.0"],
    [1427172,"2026-08-28 02:00:00","3260","1.7169999999999999","254.2","4.214","269.3","1013.2230000000001","26.82","43.1","-2.375","0.0"],
    [1427173,"2026-08-28 02:10:00","3261","2.208","285.5","3.822","263.1","1013.1669999999999","27.07","39.26","-2.492","0.0"],
    [1427174,"2026-08-28 02:20:00","3262","2.251","290.2","5.194","294.2","1012.837","26.31","41.15","-2.612","0.0"],
    [1427175,"2026-08-28 02:30:00","3263","2.358","274.8","5.39","302.9","1013.187","26.64","36.34","-2.654","0.0"],
    [1427176,"2026-08-28 02:40:00","3264","2.338","287.1","4.508","266.3","1012.875","26.72","35.23","-2.392","0.0"],
    [1427177,"2026-08-28 02:50:00","3265","2.7939999999999996","263.0","5.488","246.9","1013.1","26.62","34.08","-2.847","0.0"],
    [1427178,"2026-08-28 03:00:00","3266","2.345","273.4","4.312","272.4","1013.025","26.73","33.41","-2.773","0.0"],
    [1427179,"2026-08-28 03:10:00","3267","2.079","276.7","3.724","290","1013.075","26.2","34.59","-2.5989999999999998","0.0"],
    [1427180,"2026-08-28 03:20:00","3268","2.313","273.4","4.312","289.5","1013.1469999999999","26.32","34.02","-2.614","0.0"],
    [1427181,"2026-08-28 03:30:00","3269","2.2","267.4","4.312","270.3","1013.305","26.39","33.86","-2.5789999999999997","0.0"],
    [1427182,"2026-08-28 03:40:00","3270","2.9019999999999997","283.1","5.586","294","1013.253","26.26","34.22","-2.465","0.0"],
    [1427183,"2026-08-28 03:50:00","3271","2.864","278.7","6.664","297.5","1013.4780000000001","26.2","33.98","-2.562","0.0"],
    [1427184,"2026-08-28 04:00:00","3272","3.02","287.6","6.86","280.8","1013.659","26.22","33.68","-2.572","0.0"],
    [1427185,"2026-08-28 04:10:00","3273","4.212","294.8","8.43","312.1","1013.575","26.24","33.42","-2.565","0.0"],
    [1427186,"2026-08-28 04:20:00","3274","4.301","298.5","7.644","278.6","1013.3939999999999","26.29","33.18","-2.54","0.0"],
    [1427187,"2026-08-28 04:30:00","3275","4.024","301.7","7.546","296.4","1013.2439999999999","26.25","33.19","-2.483","0.0"],
    [1427188,"2026-08-28 04:40:00","3276","5.162999999999999","311.0","9.11","306","1013.327","26.35","32.85","-2.477","0.0"],
    [1427189,"2026-08-28 04:50:00","3277","4.603","306.1","9.31","311.1","1013.26","26.27","33.31","-2.275","0.0"],
    [1427190,"2026-08-28 05:00:00","3278","5.544","305.8","10.09","295.4","1013.3439999999999","26.23","33.67","-2.211","0.0"],
    [1427191,"2026-08-28 05:10:00","3279","5.121","307.0","10.78","327.6","1013.335","26.07","34.19","-1.565","0.0"],
    [1427192,"2026-08-28 05:20:00","3280","4.658","304.8","8.43","304.7","1013.5930000000001","26.01","34.23","0.19399999999999998","0.0"],
    [1427193,"2026-08-28 05:30:00","3281","4.627","309.0","7.938","315.8","1013.59","25.86","34.54","4.801","0.0"],
    [1427194,"2026-08-28 05:40:00","3282","4.592","303.4","7.644","312.6","1013.988","25.84","34.55","11.9","0.0"],
    [1427195,"2026-08-28 05:50:00","3283","4.126","303.4","8.04","305.6","1014.034","25.77","34.64","17.79","0.0"],
    [1427196,"2026-08-28 06:00:00","3284","4.816","307.7","8.92","322.8","1014.077","25.82","34.13","32.7","0.0"],
    [1427197,"2026-08-28 06:10:00","3285","4.878","305.6","9.31","311.4","1014.074","25.89","33.61","47.88","0.0"],
    [1427198,"2026-08-28 06:20:00","3286","5.188","307.0","8.04","302","1014.262","25.99","33.28","66.3","0.0"],
    [1427199,"2026-08-28 06:30:00","3287","5.02","308.7","9.11","304.8","1014.3739999999999","26.03","33.13","84.0","0.0"],
    [1427200,"2026-08-28 06:40:00","3288","5.598","312.6","10.29","320.2","1014.25","26.13","32.16","109.6","0.0"],
    [1427201,"2026-08-28 06:50:00","3289","6.01","311.7","10.98","320.4","1014.289","26.21","31.77","138.4","0.0"],
    [1427202,"2026-08-28 07:00:00","3290","5.17","304.0","8.82","318.9","1014.773","26.28","31.36","149.6","0.0"],
    [1427203,"2026-08-28 07:10:00","3291","4.284","304.7","7.644","316.7","1015.01","26.39","30.93","140.6","0.0"],
    [1427204,"2026-08-28 07:20:00","3292","5.0489999999999995","311.1","8.43","311.1","1015.262","26.33","30.41","142.5","0.0"],
    [1427205,"2026-08-28 07:30:00","3293","5.072","315.2","9.6","329.7","1015.32","26.49","30.05","187.8","0.0"],
    [1427206,"2026-08-28 07:40:00","3294","5.621","309.0","11.96","305.7","1015.3560000000001","26.51","29.6","158.1","0.0"],
    [1427207,"2026-08-28 07:50:00","3295","7.042000000000001","311.3","13.23","318.4","1015.278","26.4","29.35","185.7","0.0"],
    [1427208,"2026-08-28 08:00:00","3296","6.079","307.3","10.78","323.5","1015.434","26.39","29.4","187.3","0.0"],
    [1427209,"2026-08-28 08:10:00","3297","7.075","307.6","12.64","288.1","1015.5319999999999","26.33","29.31","208.3","0.0"],
    [1427210,"2026-08-28 08:20:00","3298","6.553999999999999","316.1","12.74","315.2","1015.752","26.35","29.29","189.6","0.0"],
    [1427211,"2026-08-28 08:30:00","3299","5.098","301.4","9.8","287.3","1015.882","26.46","29.43","213.5","0.0"],
    [1427212,"2026-08-28 08:40:00","3300","4.111000000000001","302.0","7.938","287.1","1016.038","26.65","29.36","263.8","0.0"],
    [1427213,"2026-08-28 08:50:00","3301","3.532","291.2","7.056","313.7","1016.178","26.9","29.23","294.5","0.0"],
    [1427214,"2026-08-28 09:00:00","3302","4.975","289.6","8.62","297.7","1016.298","27.02","28.59","337.2","0.0"],
    [1427215,"2026-08-28 09:10:00","3303","4.78","296.2","8.72","249.8","1016.419","27.26","27.72","362.5","0.0"],
    [1427216,"2026-08-28 09:20:00","3304","4.524","291.8","7.742","273.2","1016.279","27.35","26.73","334.0","0.0"],
    [1427217,"2026-08-28 09:30:00","3305","5.145","293.1","9.31","290","1016.409","27.61","25.11","384.4","0.0"],
    [1427218,"2026-08-28 09:40:00","3306","5.635","296.6","9.21","298.6","1016.303","27.76","22.83","399.9","0.0"],
    [1427219,"2026-08-28 09:50:00","3307","4.417","295.0","8.53","287.6","1016.2139999999999","27.98","22.3","291.1","0.0"],
    [1427220,"2026-08-28 10:00:00","3308","4.73","296.2","8.23","287.3","1016.2639999999999","28.08","22.16","377.8","0.0"],
    [1427221,"2026-08-28 10:10:00","3309","5.033","305.5","8.53","295.5","1016.0160000000001","28.38","21.98","409.6","0.0"],
    [1427222,"2026-08-28 10:20:00","3310","5.138","301.8","9.02","300","1015.9019999999999","28.39","22.72","429.0","0.0"],
    [1427223,"2026-08-28 10:30:00","3311","4.93","303.1","7.84","291.4","1015.882","28.52","22.96","426.7","0.0"],
    [1427224,"2026-08-28 10:40:00","3312","4.428","308.4","8.43","305.5","1016.196","29.04","22.72","521.0","0.0"],
    [1427225,"2026-08-28 10:50:00","3313","4.486000000000001","301.4","9.51","316.9","1016.34","29.24","22.96","503.7","0.0"],
    [1427226,"2026-08-28 11:00:00","3314","5.0360000000000005","312.5","8.72","318.2","1016.46","29.31","22.68","486.8","0.0"],
    [1427227,"2026-08-28 11:10:00","3315","5.1","315.1","9.21","319.3","1016.5010000000001","29.0","22.61","444.8","0.0"],
    [1427228,"2026-08-28 11:20:00","3316","4.033","301.8","7.154","313.3","1016.465","29.26","22.54","544.2","0.0"],
    [1427229,"2026-08-28 11:30:00","3317","3.8680000000000003","303.9","6.762","295.1","1016.318","29.95","22.14","574.4","0.0"],
    [1427230,"2026-08-28 11:40:00","3318","3.883","289.7","6.664","288.2","1016.2460000000001","29.93","21.7","572.5","0.0"],
    [1427231,"2026-08-28 11:50:00","3319","2.903","310.0","5.292","309.2","1016.1489999999999","30.39","21.29","672.2","0.0"],
    [1427232,"2026-08-28 12:00:00","3320","2.812","301.5","5.88","277.1","1016.1060000000001","31.12","20.35","875.0","0.0"],
    [1427233,"2026-08-28 12:10:00","3321","2.241","301.4","4.998","280.3","1016.115","31.19","20.28","567.3","0.0"],
    [1427234,"2026-08-28 12:20:00","3322","3.076","229.9","5.586","208.7","1016.153","31.16","21.38","589.3","0.0"],
    [1427235,"2026-08-28 12:30:00","3323","2.714","246.8","5.586","259.9","1016.1039999999999","31.65","21.23","690.1","0.0"],
    [1427236,"2026-08-28 12:40:00","3324","3.305","228.5","9.21","200.7","1016.1289999999999","31.75","21.63","676.1","0.0"],
    [1427237,"2026-08-28 12:50:00","3325","4.019","208.9","6.762","204.7","1016.0889999999999","31.48","23.61","627.4","0.0"],
    [1427238,"2026-08-28 13:00:00","3326","4.175","208.7","7.35","229.3","1016.068","30.85","27.52","664.0","0.0"],
    [1427239,"2026-08-28 13:10:00","3327","3.8489999999999998","191.3","7.938","217.6","1015.931","30.76","28.83","751.7","0.0"],
    [1427240,"2026-08-28 13:20:00","3328","3.614","208.8","6.664","209.8","1015.666","31.28","29.24","739.1","0.0"],
    [1427241,"2026-08-28 13:30:00","3329","5.6770000000000005","222.0","9.31","198.5","1015.573","31.58","26.06","701.3","0.0"],
    [1427242,"2026-08-28 13:40:00","3330","6.022","222.4","9.31","233.4","1015.45","31.45","24.76","674.5","0.0"],
    [1427243,"2026-08-28 13:50:00","3331","5.34","223.2","8.53","217.7","1015.37","31.52","24.85","678.6","0.0"],
    [1427244,"2026-08-28 14:00:00","3332","5.654","215.2","10.78","212.3","1015.242","31.51","25.82","702.3","0.0"],
    [1427245,"2026-08-28 14:10:00","3333","6.417000000000001","217.0","10.58","231","1015.135","31.08","26.51","664.8","0.0"],
    [1427246,"2026-08-28 14:20:00","3334","4.731","213.5","8.72","202.3","1014.985","30.97","28.09","566.4","0.0"],
    [1427247,"2026-08-28 14:30:00","3335","5.055","213.4","9.11","205.2","1014.8789999999999","30.93","28.53","727.9","0.0"],
    [1427248,"2026-08-28 14:40:00","3336","5.169","211.9","8.92","200.9","1014.8969999999999","30.92","28.5","497.6","0.0"],
    [1427249,"2026-08-28 14:50:00","3337","5.325","213.0","9.31","221.3","1014.801","30.21","30.22","465.2","0.0"],
    [1427250,"2026-08-28 15:00:00","3338","3.928","211.6","8.43","223.1","1014.7489999999999","30.31","31.15","431.9","0.0"],
    [1427251,"2026-08-28 15:10:00","3339","5.737","212.8","8.92","203.8","1014.8960000000001","30.27","29.0","473.6","0.0"],
    [1427252,"2026-08-28 15:20:00","3340","4.123","208.9","8.13","212.6","1015.125","29.9","31.85","337.1","0.0"],
    [1427253,"2026-08-28 15:30:00","3341","4.371","210.7","8.62","212.3","1015.178","29.63","32.03","331.4","0.0"],
    [1427254,"2026-08-28 15:40:00","3342","5.292000000000001","214.7","9.31","214.7","1015.07","29.48","33.17","347.5","0.0"],
    [1427255,"2026-08-28 15:50:00","3343","4.725","212.4","8.82","243.6","1015.053","29.4","34.85","329.6","0.0"],
    [1427256,"2026-08-28 16:00:00","3344","5.98","217.6","9.21","228.1","1015.132","29.21","35.18","339.2","0.0"],
    [1427257,"2026-08-28 16:10:00","3345","4.754","210.8","8.33","223.5","1015.153","29.14","37.4","241.0","0.0"],
    [1427258,"2026-08-28 16:20:00","3346","5.2","215.4","8.62","224.3","1015.0939999999999","28.81","38.1","207.3","0.0"],
    [1427259,"2026-08-28 16:30:00","3347","5.155","220.3","9.31","229.9","1015.005","28.78","38.96","170.0","0.0"],
    [1427260,"2026-08-28 16:40:00","3348","4.716","219.4","8.23","221","1014.9830000000001","28.62","40.7","152.4","0.0"],
    [1427261,"2026-08-28 16:50:00","3349","4.367","218.2","7.252","215.9","1014.905","28.7","39.22","125.9","0.0"],
    [1427262,"2026-08-28 17:00:00","3350","4.632","224.2","8.43","210.3","1014.7860000000001","28.75","36.92","116.7","0.0"],
    [1427263,"2026-08-28 17:10:00","3351","4.798","223.3","9.02","205.2","1014.857","28.9","33.78","102.8","0.0"],
    [1427264,"2026-08-28 17:20:00","3352","4.834","221.7","7.35","225","1014.809","28.9","35.53","94.8","0.0"],
    [1427265,"2026-08-28 17:30:00","3353","4.588","223.8","7.056","229.1","1014.7289999999999","29.09","35.78","177.3","0.0"],
    [1427266,"2026-08-28 17:40:00","3354","4.069","226.2","6.958","227.4","1014.674","29.45","31.94","132.3","0.0"],
    [1427267,"2026-08-28 17:50:00","3355","3.411","228.0","5.88","204.4","1014.683","29.74","26.05","101.4","0.0"],
    [1427268,"2026-08-28 18:00:00","3356","2.355","261.0","5.096","269.6","1014.668","29.98","20.36","81.0","0.0"],
    [1427269,"2026-08-28 18:10:00","3357","1.882","271.3","3.724","264","1014.699","29.74","16.68","28.91","0.0"],
    [1427270,"2026-08-28 18:20:00","3358","1.879","275.6","3.332","266.2","1014.791","29.24","17.41","18.69","0.0"],
    [1427271,"2026-08-28 18:30:00","3359","1.804","285.8","2.842","281.4","1014.8","28.88","17.79","8.88","0.0"],
    [1427272,"2026-08-28 18:40:00","3360","2.162","295.5","3.626","296.1","1014.882","28.46","18.46","3.263","0.0"],
    [1427273,"2026-08-28 18:50:00","3361","2.948","297.6","5.292","289.8","1015.1619999999999","28.43","19.06","-2.537","0.0"],
    [1427274,"2026-08-28 19:00:00","3362","2.495","295.5","4.312","306.8","1015.368","28.31","19.65","-4.083","0.0"],
    [1427275,"2026-08-28 19:10:00","3363","3.051","294.9","5.096","290.8","1015.3989999999999","27.93","19.61","-4.126","0.0"],
    [1427276,"2026-08-28 19:20:00","3364","2.892","285.8","5.096","283.5","1015.4739999999999","27.74","19.69","-4.125","0.0"],
    [1427277,"2026-08-28 19:30:00","3365","2.1109999999999998","282.1","4.116","271.8","1015.4739999999999","27.33","20.83","-4.092","0.0"],
    [1427278,"2026-08-28 19:40:00","3366","1.666","292.3","3.724","288.1","1015.68","26.84","21.63","-4.112","0.0"],
    [1427279,"2026-08-28 19:50:00","3367","1.858","301.5","3.822","297.4","1015.92","26.51","22.55","-4.247","0.0"],
    [1427280,"2026-08-28 20:00:00","3368","2.15","302.9","3.626","299.9","1016.081","26.62","22.83","-4.234","0.0"],
    [1427281,"2026-08-28 20:10:00","3369","2.398","312.8","4.018","311.6","1016.05","26.47","23.44","-4.123","0.0"],
    [1427282,"2026-08-28 20:20:00","3370","2.096","313.9","3.724","331.3","1016.171","26.49","23.79","-4.066","0.0"],
    [1427283,"2026-08-28 20:30:00","3371","1.682","326.1","3.332","334.5","1016.294","26.46","24.14","-4.081","0.0"],
    [1427284,"2026-08-28 20:40:00","3372","1.308","337.8","3.136","345.9","1016.455","26.48","24.32","-4.123","0.0"],
    [1427285,"2026-08-28 20:50:00","3373","2.194","327.8","3.822","344.2","1016.449","26.64","24.43","-4.228","0.0"],
    [1427286,"2026-08-28 21:00:00","3374","1.788","314.7","4.312","307.5","1016.487","26.26","25.39","-4.082","0.0"],
    [1427287,"2026-08-28 21:10:00","3375","0.38299999999999995","346.7","1.274","7.316","1016.7710000000001","25.84","26.1","-4.256","0.0"],
    [1427288,"2026-08-28 21:20:00","3376","1.1340000000000001","343.4","1.862","348.6","1017.072","25.48","27.0","-4.106","0.0"],
    [1427289,"2026-08-28 21:30:00","3377","0.988","43.71","1.47","40.41","1017.265","24.82","28.17","-4.122","0.0"],
    [1427290,"2026-08-28 21:40:00","3378","1.107","38.75","1.764","44.09","1017.307","24.12","29.84","-4.083","0.0"],
    [1427291,"2026-08-28 21:50:00","3379","1.443","25.57","2.352","39","1017.311","24.04","30.34","-4.003","0.0"],
    [1427292,"2026-08-28 22:00:00","3380","2.4819999999999998","59.91","3.724","76.54","1017.695","25.26","39.27","-4.203","0.0"],
    [1427293,"2026-08-28 22:10:00","3381","4.072","67.69","6.37","89.9","1017.798","25.48","59.65","-3.563","0.0"],
    [1427294,"2026-08-28 22:20:00","3382","4.282","66.33","6.762","78.91","1017.738","25.44","61.3","-2.9819999999999998","0.0"],
    [1427295,"2026-08-28 22:30:00","3383","3.055","54.82","5.586","56.44","1017.7360000000001","25.29","60.43","-2.6260000000000003","0.0"],
    [1427296,"2026-08-28 22:40:00","3384","2.238","42.64","4.018","50.68","1017.8839999999999","25.16","58.64","-3.114","0.0"],
    [1427297,"2026-08-28 22:50:00","3385","2.122","31.81","3.528","19.96","1017.944","25.11","58.84","-3.248","0.0"],
    [1427298,"2026-08-28 23:00:00","3386","0.9890000000000001","37.83","1.96","26.84","1018.115","24.96","60.36","-3.3160000000000003","0.0"],
    [1427299,"2026-08-28 23:10:00","3387","0.8320000000000001","0.792","1.274","14.82","1018.305","24.49","61.38","-3.3939999999999997","0.0"],
    [1427300,"2026-08-28 23:20:00","3388","1.8","294.7","2.842","280.4","1018.433","24.01","53.66","-2.905","0.0"],
    [1427301,"2026-08-28 23:30:00","3389","1.774","270.3","2.646","268.5","1018.554","23.39","40.07","-2.682","0.0"],
    [1427302,"2026-08-28 23:40:00","3390","1.693","277.5","2.548","278","1018.6189999999999","23.66","37.55","-2.971","0.0"],
    [1427303,"2026-08-28 23:50:00","3391","0.408","261.8","1.274","275.5","1018.5239999999999","23.47","38.7","-3.083","0.0"],
    [1427304,"2026-08-29 00:00:00","3392","0.6","282.8","1.274","293","1018.423","23.03","40.38","-3.372","0.0"],
    [1427305,"2026-08-29 00:10:00","3393","1.36","276.1","2.156","278.4","1018.5060000000001","23.07","42.05","-3.181","0.0"],
    [1427306,"2026-08-29 00:20:00","3394","1.107","264.0","2.058","269.7","1018.4860000000001","23.02","42.52","-2.8810000000000002","0.0"],
    [1427307,"2026-08-29 00:30:00","3395","0.855","278.3","2.156","285.3","1018.3539999999999","22.73","43.82","-3.2310000000000003","0.0"],
    [1427308,"2026-08-29 00:40:00","3396","1.045","275.3","1.764","283.1","1018.255","22.5","45.6","-3.116","0.0"],
    [1427309,"2026-08-29 00:50:00","3397","0.574","277.6","1.078","263.3","1018.196","22.42","46.55","-3.02","0.0"],
    [1427310,"2026-08-29 01:00:00","3398","0.386","293.5","1.274","298.2","1018.03","22.05","48.08","-3.142","0.0"],
    [1427311,"2026-08-29 01:10:00","3399","0.629","278.7","1.47","271.7","1017.857","21.75","49.49","-3.343","0.0"],
    [1427312,"2026-08-29 01:20:00","3400","0.96","283.4","1.764","296.1","1017.806","21.69","50.6","-2.7289999999999996","0.0"],
    [1427313,"2026-08-29 01:30:00","3401","1.161","293.3","1.764","289.3","1017.655","21.66","51.24","-2.7089999999999996","0.0"],
    [1427314,"2026-08-29 01:40:00","3402","0.565","284.2","1.078","288.1","1017.513","21.41","52.07","-2.841","0.0"],
    [1427315,"2026-08-29 01:50:00","3403","1.111","290.7","1.96","286.4","1017.447","21.5","51.62","-2.81","0.0"],
    [1427316,"2026-08-29 02:00:00","3404","1.078","294.6","1.862","302","1017.4060000000001","21.3","53.17","-2.925","0.0"],
    [1427317,"2026-08-29 02:10:00","3405","1.178","289.5","1.96","283.4","1017.39","21.22","54.76","-2.9960000000000004","0.0"],
    [1427318,"2026-08-29 02:20:00","3406","0.9670000000000001","281.4","1.666","291.9","1017.3989999999999","21.25","55.06","-2.764","0.0"],
    [1427319,"2026-08-29 02:30:00","3407","1.082","287.9","1.666","285.5","1017.298","21.24","54.83","-2.905","0.0"],
    [1427320,"2026-08-29 02:40:00","3408","1.0190000000000001","285.9","1.568","289.1","1017.207","21.17","54.88","-2.864","0.0"],
    [1427321,"2026-08-29 02:50:00","3409","0.8009999999999999","284.1","1.47","289.8","1017.199","20.88","55.64","-2.9539999999999997","0.0"],
    [1427322,"2026-08-29 03:00:00","3410","0.992","291.1","1.568","288.1","1017.1439999999999","20.78","55.77","-3.01","0.0"],
    [1427323,"2026-08-29 03:10:00","3411","1.287","284.6","2.058","278.6","1017.0880000000001","20.7","55.12","-3.2030000000000003","0.0"],
    [1427324,"2026-08-29 03:20:00","3412","1.38","283.5","2.058","286.9","1017.064","20.71","52.7","-2.887","0.0"],
    [1427325,"2026-08-29 03:30:00","3413","1.177","285.6","1.96","289.5","1017.025","20.48","52.39","-2.878","0.0"],
    [1427326,"2026-08-29 03:40:00","3414","1.075","287.2","1.862","277.4","1017.041","20.27","53.05","-2.861","0.0"],
    [1427327,"2026-08-29 03:50:00","3415","1.18","287.1","1.666","286.9","1017.0319999999999","20.05","53.92","-3.175","0.0"],
    [1427328,"2026-08-29 04:00:00","3416","1.2919999999999998","287.6","2.058","290.1","1017.0319999999999","20.07","53.8","-3.0","0.0"],
    [1427329,"2026-08-29 04:10:00","3417","1.236","285.6","2.254","296","1017.1039999999999","20.16","53.62","-2.9560000000000004","0.0"],
    [1427330,"2026-08-29 04:20:00","3418","1.033","284.4","2.058","288.6","1017.11","20.37","53.55","-2.818","0.0"],
    [1427331,"2026-08-29 04:30:00","3419","1.429","278.5","2.45","268.7","1017.1510000000001","20.54","53.11","-3.0389999999999997","0.0"],
    [1427332,"2026-08-29 04:40:00","3420","1.0979999999999999","284.8","2.254","276.1","1017.1469999999999","20.56","53.04","-2.8289999999999997","0.0"],
    [1427333,"2026-08-29 04:50:00","3421","1.291","283.1","2.352","292.3","1017.204","20.49","53.38","-3.275","0.0"],
    [1427334,"2026-08-29 05:00:00","3422","1.5219999999999998","283.9","2.646","277.9","1017.288","20.65","52.73","-2.773","0.0"],
    [1427335,"2026-08-29 05:10:00","3423","1.633","278.9","2.744","270.4","1017.439","20.64","51.76","-1.6540000000000001","0.0"],
    [1427336,"2026-08-29 05:20:00","3424","1.774","282.8","2.842","282.8","1017.628","20.6","50.9","1.604","0.0"],
    [1427337,"2026-08-29 05:30:00","3425","1.756","283.2","2.94","283","1017.7660000000001","20.58","50.77","9.25","0.0"],
    [1427338,"2026-08-29 05:40:00","3426","1.601","288.0","2.94","307.4","1017.795","20.71","49.89","25.89","0.0"],
    [1427339,"2026-08-29 05:50:00","3427","1.8980000000000001","293.1","3.724","304.6","1017.7919999999999","20.95","49.04","47.69","0.0"],
    [1427340,"2026-08-29 06:00:00","3428","2.431","298.6","4.116","297.6","1017.799","21.26","47.48","72.12","0.0"],
    [1427341,"2026-08-29 06:10:00","3429","1.9969999999999999","299.1","3.626","303.8","1017.804","21.61","46.81","95.2","0.0"],
    [1427342,"2026-08-29 06:20:00","3430","1.785","298.0","3.626","309.8","1017.7360000000001","22.04","45.96","119.8","0.0"],
    [1427343,"2026-08-29 06:30:00","3431","2.206","293.8","3.234","303.7","1017.804","22.43","44.8","148.3","0.0"],
    [1427344,"2026-08-29 06:40:00","3432","2.224","293.8","4.018","292.8","1017.8810000000001","22.76","44.62","179.4","0.0"],
    [1427345,"2026-08-29 06:50:00","3433","2.391","291.1","4.116","290.6","1017.92","22.97","44.39","211.3","0.0"],
    [1427346,"2026-08-29 07:00:00","3434","2.623","292.8","3.822","304.8","1017.948","23.2","44.14","245.0","0.0"],
    [1427347,"2026-08-29 07:10:00","3435","2.351","291.9","3.92","308.4","1018.018","23.8","42.9","280.4","0.0"],
    [1427348,"2026-08-29 07:20:00","3436","2.71","298.9","4.116","307.5","1018.01","24.06","42.4","316.9","0.0"],
    [1427349,"2026-08-29 07:30:00","3437","2.596","295.7","4.018","297","1018.12","24.44","41.78","352.4","0.0"],
    [1427350,"2026-08-29 07:40:00","3438","2.519","296.8","3.724","296.7","1018.172","24.97","40.93","389.6","0.0"],
    [1427351,"2026-08-29 07:50:00","3439","2.642","299.3","3.724","316.6","1018.191","25.39","40.12","399.6","0.0"],
    [1427352,"2026-08-29 08:00:00","3440","2.249","293.2","3.136","281.9","1018.221","25.86","39.21","455.0","0.0"],
    [1427353,"2026-08-29 08:10:00","3441","2.228","283.8","3.332","285.9","1018.3489999999999","26.3","38.52","464.6","0.0"],
    [1427354,"2026-08-29 08:20:00","3442","1.598","281.4","3.626","293.1","1018.422","26.71","38.38","517.2","0.0"],
    [1427355,"2026-08-29 08:30:00","3443","1.51","77.32","3.92","76.52","1018.497","27.48","40.01","547.6","0.0"],
    [1427356,"2026-08-29 08:40:00","3444","1.9380000000000002","67.27","3.43","31.89","1018.61","27.12","43.31","578.1","0.0"],
    [1427357,"2026-08-29 08:50:00","3445","1.726","101.9","3.234","80.8","1018.7360000000001","27.37","41.33","605.7","0.0"],
    [1427358,"2026-08-29 09:00:00","3446","2.237","89.1","3.92","84.6","1018.834","27.29","39.45","630.7","0.0"],
    [1427359,"2026-08-29 09:10:00","3447","2.542","73.31","4.704","77.83","1018.8839999999999","27.34","38.9","656.7","0.0"],
    [1427360,"2026-08-29 09:20:00","3448","2.188","59.94","3.92","34.8","1018.9889999999999","27.52","38.37","677.4","0.0"],
    [1427361,"2026-08-29 09:30:00","3449","2.189","52.66","4.116","67.56","1019.018","27.62","39.56","698.7","0.0"],
    [1427362,"2026-08-29 09:40:00","3450","2.503","79.7","4.018","77.98","1019.025","27.36","43.17","726.5","0.0"],
    [1427363,"2026-08-29 09:50:00","3451","2.294","67.69","4.802","94.8","1019.033","27.13","44.67","739.6","0.0"],
    [1427364,"2026-08-29 10:00:00","3452","1.787","93.3","4.018","87.3","1018.946","27.43","44.9","761.7","0.0"],
    [1427365,"2026-08-29 10:10:00","3453","2.436","88.4","6.958","75.02","1018.8839999999999","27.39","45.08","783.5","0.0"],
    [1427366,"2026-08-29 10:20:00","3454","2.6910000000000003","93.0","4.704","87.1","1018.811","27.23","45.51","800.0","0.0"],
    [1427367,"2026-08-29 10:30:00","3455","2.616","93.0","4.998","62.81","1018.779","27.17","45.89","812.0","0.0"],
    [1427368,"2026-08-29 10:40:00","3456","3.056","90.8","4.704","74.44","1018.705","27.26","46.13","825.0","0.0"],
    [1427369,"2026-08-29 10:50:00","3457","2.08","109.1","4.116","98.9","1018.533","27.72","45.1","838.0","0.0"],
    [1427370,"2026-08-29 11:00:00","3458","1.8219999999999998","119.2","4.606","112.8","1018.445","28.08","44.11","845.0","0.0"],
    [1427371,"2026-08-29 11:10:00","3459","1.796","108.5","5.586","124","1018.3539999999999","28.35","44.01","853.0","0.0"],
    [1427372,"2026-08-29 11:20:00","3460","1.4509999999999998","124.3","4.214","86","1018.35","28.31","44.76","859.0","0.0"],
    [1427373,"2026-08-29 11:30:00","3461","2.13","117.5","4.41","123.4","1018.293","28.05","46.22","863.0","0.0"],
    [1427374,"2026-08-29 11:40:00","3462","1.5290000000000001","135.7","5.292","147.2","1018.201","28.08","46.32","864.0","0.0"],
    [1427375,"2026-08-29 11:50:00","3463","1.626","150.6","4.312","154","1018.1089999999999","28.06","46.26","866.0","0.0"],
    [1427376,"2026-08-29 12:00:00","3464","2.515","168.4","5.782","171.7","1018.035","27.85","47.2","865.0","0.0"],
    [1427377,"2026-08-29 12:10:00","3465","2.177","149.8","5.39","166.1","1017.939","27.87","47.05","863.0","0.0"],
    [1427378,"2026-08-29 12:20:00","3466","1.393","123.5","4.312","199","1017.8580000000001","28.64","45.31","859.0","0.0"],
    [1427379,"2026-08-29 12:30:00","3467","1.7109999999999999","156.7","4.9","178.8","1017.804","28.76","45.49","857.0","0.0"],
    [1427380,"2026-08-29 12:40:00","3468","2.025","166.7","4.9","160.8","1017.7080000000001","28.67","46.1","851.0","0.0"],
    [1427381,"2026-08-29 12:50:00","3469","2.906","189.0","6.468","220.8","1017.6160000000001","28.57","46.62","846.0","0.0"],
    [1427382,"2026-08-29 13:00:00","3470","3.085","180.2","5.488","190.7","1017.552","28.36","47.45","837.0","0.0"],
    [1427383,"2026-08-29 13:10:00","3471","3.083","200.1","5.782","171.3","1017.439","28.75","47.07","827.0","0.0"],
    [1427384,"2026-08-29 13:20:00","3472","3.372","189.2","6.86","176","1017.3430000000001","28.61","47.89","817.0","0.0"],
    [1427385,"2026-08-29 13:30:00","3473","3.9739999999999998","183.4","7.644","187.4","1017.293","28.35","49.18","806.0","0.0"],
    [1427386,"2026-08-29 13:40:00","3474","4.03","182.4","6.762","167.3","1017.187","28.21","49.95","789.7","0.0"],
    [1427387,"2026-08-29 13:50:00","3475","3.805","182.9","7.644","157.9","1017.128","28.65","49.17","771.8","0.0"],
    [1427388,"2026-08-29 14:00:00","3476","3.407","187.9","6.86","171.2","1017.041","28.67","49.53","752.6","0.0"],
    [1427389,"2026-08-29 14:10:00","3477","3.315","193.3","6.86","188","1016.962","29.01","47.0","731.7","0.0"],
    [1427390,"2026-08-29 14:20:00","3478","4.281000000000001","191.7","7.546","180.6","1016.935","28.81","46.82","710.8","0.0"],
    [1427391,"2026-08-29 14:30:00","3479","4.696000000000001","210.9","8.33","236.3","1016.789","28.82","47.09","687.0","0.0"],
    [1427392,"2026-08-29 14:40:00","3480","4.181","196.8","7.056","180","1016.7439999999999","28.83","48.02","661.5","0.0"],
    [1427393,"2026-08-29 14:50:00","3481","3.409","191.8","6.762","181.6","1016.6569999999999","28.91","48.3","634.3","0.0"],
    [1427394,"2026-08-29 15:00:00","3482","3.515","203.5","7.644","221.8","1016.55","29.07","48.11","606.2","0.0"],
    [1427395,"2026-08-29 15:10:00","3483","4.258","195.4","7.938","212.4","1016.544","28.64","49.85","579.1","0.0"],
    [1427396,"2026-08-29 15:20:00","3484","3.9","193.7","7.742","176","1016.367","28.32","50.66","550.2","0.0"],
    [1427397,"2026-08-29 15:30:00","3485","4.341","208.3","7.84","211.3","1016.2410000000001","28.6","49.79","520.9","0.0"],
    [1427398,"2026-08-29 15:40:00","3486","3.51","207.5","6.762","199.5","1016.175","28.7","49.88","490.6","0.0"],
    [1427399,"2026-08-29 15:50:00","3487","4.698","205.8","7.448","181.4","1016.115","28.49","50.73","462.7","0.0"],
    [1427400,"2026-08-29 16:00:00","3488","3.864","203.0","7.938","224","1016.0260000000001","28.28","51.28","432.2","0.0"],
    [1427401,"2026-08-29 16:10:00","3489","4.4830000000000005","209.3","7.644","211.1","1015.972","28.34","51.5","402.0","0.0"],
    [1427402,"2026-08-29 16:20:00","3490","4.868","214.8","7.644","231.9","1015.919","28.24","52.06","351.4","0.0"],
    [1427403,"2026-08-29 16:30:00","3491","4.191","206.6","7.448","198","1015.824","28.19","52.3","322.7","0.0"],
    [1427404,"2026-08-29 16:40:00","3492","3.008","207.8","6.076","225","1015.7819999999999","28.37","52.37","303.8","0.0"],
    [1427405,"2026-08-29 16:50:00","3493","5.492999999999999","219.7","8.13","212.5","1015.77","27.99","53.6","273.3","0.0"],
    [1427406,"2026-08-29 17:00:00","3494","4.119","216.3","7.742","227.2","1015.735","27.83","54.39","236.9","0.0"],
    [1427407,"2026-08-29 17:10:00","3495","4.2","211.8","10.49","169.3","1015.703","27.77","55.18","203.0","0.0"],
    [1427408,"2026-08-29 17:20:00","3496","3.676","213.1","6.664","203.7","1015.6619999999999","27.7","55.54","170.7","0.0"],
    [1427409,"2026-08-29 17:30:00","3497","4.456","217.1","7.252","227.1","1015.5369999999999","27.39","56.84","141.9","0.0"],
    [1427410,"2026-08-29 17:40:00","3498","4.281000000000001","219.0","7.644","242.6","1015.535","27.28","57.75","114.5","0.0"],
    [1427411,"2026-08-29 17:50:00","3499","4.499","219.7","8.62","223.8","1015.5060000000001","27.16","58.67","86.4","0.0"],
    [1427412,"2026-08-29 18:00:00","3500","4.672","217.9","7.35","230.9","1015.5010000000001","26.95","59.82","46.5","0.0"],
    [1427413,"2026-08-29 18:10:00","3501","4.436","219.7","7.546","238.8","1015.488","26.73","60.24","18.13","0.0"],
    [1427414,"2026-08-29 18:20:00","3502","4.081","218.7","6.762","223.8","1015.497","26.6","61.35","10.79","0.0"],
    [1427415,"2026-08-29 18:30:00","3503","2.6719999999999997","217.1","6.076","240.7","1015.585","26.46","61.96","4.197","0.0"],
    [1427416,"2026-08-29 18:40:00","3504","2.204","213.1","5.096","228.7","1015.684","26.37","62.73","-0.107","0.0"],
    [1427417,"2026-08-29 18:50:00","3505","3.4219999999999997","224.6","5.978","225.5","1015.73","26.28","62.95","-2.131","0.0"],
    [1427418,"2026-08-29 19:00:00","3506","3.639","218.1","7.056","221.9","1015.7810000000001","26.39","62.26","-2.5989999999999998","0.0"],
    [1427419,"2026-08-29 19:10:00","3507","2.5469999999999997","227.1","4.508","211.7","1015.8380000000001","26.35","63.16","-2.5989999999999998","0.0"],
    [1427420,"2026-08-29 19:20:00","3508","2.822","225.8","4.802","217.2","1015.887","26.24","63.46","-2.64","0.0"],
    [1427421,"2026-08-29 19:30:00","3509","3.1519999999999997","224.8","5.292","242.1","1015.988","26.3","62.81","-2.597","0.0"],
    [1427422,"2026-08-29 19:40:00","3510","2.911","225.4","4.802","228.1","1016.13","26.24","63.16","-2.602","0.0"],
    [1427423,"2026-08-29 19:50:00","3511","1.855","230.0","3.332","237.4","1016.252","26.11","63.51","-2.639","0.0"],
    [1427424,"2026-08-29 20:00:00","3512","1.569","229.4","2.94","223.7","1016.294","25.96","63.98","-2.9939999999999998","0.0"],
    [1427425,"2026-08-29 20:10:00","3513","1.205","239.5","2.94","247.5","1016.4110000000001","25.78","64.62","-3.2230000000000003","0.0"],
    [1427426,"2026-08-29 20:20:00","3514","1.128","265.5","2.842","255.3","1016.5369999999999","25.57","65.35","-3.3369999999999997","0.0"],
    [1427427,"2026-08-29 20:30:00","3515","1.4140000000000001","237.7","2.548","234.8","1016.5830000000001","25.57","65.19","-3.0069999999999997","0.0"],
    [1427428,"2026-08-29 20:40:00","3516","1.087","257.0","2.744","263.6","1016.655","25.68","64.89","-3.075","0.0"],
    [1427429,"2026-08-29 20:50:00","3517","0.48","301.7","1.078","326.8","1016.763","25.39","65.53","-3.1860000000000004","0.0"],
    [1427430,"2026-08-29 21:00:00","3518","0.159","317.9","1.176","328.5","1016.83","25.13","66.1","-3.3080000000000003","0.0"],
    [1427431,"2026-08-29 21:10:00","3519","0.0","334.3","0.098","334.3","1016.8960000000001","25.04","66.29","-3.237","0.0"],
    [1427432,"2026-08-29 21:20:00","3520","0.0","0.0","0","88.6","1016.9069999999999","25.2","65.57","-2.64","0.0"],
    [1427433,"2026-08-29 21:30:00","3521","0.0","0.0","0","54.6","1016.895","25.01","65.93","-3.155","0.0"],
    [1427434,"2026-08-29 21:40:00","3522","0.067","175.3","1.078","169","1016.932","25.24","65.15","-3.0210000000000004","0.0"],
    [1427435,"2026-08-29 21:50:00","3523","0.91","196.4","1.568","212.4","1016.921","25.3","64.95","-3.136","0.0"],
    [1427436,"2026-08-29 22:00:00","3524","1.3330000000000002","187.0","2.156","177.6","1016.908","25.23","65.7","-3.242","0.0"],
    [1427437,"2026-08-29 22:10:00","3525","0.804","203.6","1.764","222.7","1016.903","25.25","65.94","-2.813","0.0"],
    [1427438,"2026-08-29 22:20:00","3526","0.826","208.1","1.568","204.9","1016.946","24.91","67.53","-3.343","0.0"],
    [1427439,"2026-08-29 22:30:00","3527","0.636","216.8","1.47","219.3","1016.998","24.86","68.46","-3.03","0.0"],
    [1427440,"2026-08-29 22:40:00","3528","0.675","266.8","1.372","295.6","1017.0210000000001","24.63","69.23","-3.1289999999999996","0.0"],
    [1427441,"2026-08-29 22:50:00","3529","1.472","284.8","2.058","269.8","1017.053","24.17","70.38","-2.668","0.0"],
    [1427442,"2026-08-29 23:00:00","3530","0.7120000000000001","295.4","1.47","281.5","1017.057","23.8","71.04","-3.0469999999999997","0.0"],
    [1427443,"2026-08-29 23:10:00","3531","0.8190000000000001","285.4","1.274","288","1017.05","23.54","71.79","-2.995","0.0"],
    [1427444,"2026-08-29 23:20:00","3532","0.721","287.9","1.078","282.3","1017.072","23.29","71.88","-2.7760000000000002","0.0"],
    [1427445,"2026-08-29 23:30:00","3533","0.594","299.6","1.176","297.2","1017.04","22.92","72.23","-2.662","0.0"],
    [1427446,"2026-08-29 23:40:00","3534","0.8809999999999999","292.9","1.666","302.5","1017.033","22.67","73.23","-2.653","0.0"],
    [1427447,"2026-08-29 23:50:00","3535","1.056","297.1","1.372","303.3","1017.015","22.93","72.5","-2.658","0.0"],
    [1427448,"2026-08-30 00:00:00","3536","1.09","286.0","1.568","293.1","1016.99","23.05","72.12","-2.708","0.0"],
    [1427449,"2026-08-30 00:10:00","3537","0.8270000000000001","274.5","1.47","268.1","1016.96","23.27","70.94","-2.658","0.0"],
    [1427450,"2026-08-30 00:20:00","3538","0.94","287.0","1.568","282.5","1016.887","23.13","71.13","-2.662","0.0"],
    [1427451,"2026-08-30 00:30:00","3539","1.2690000000000001","301.4","1.666","288.9","1016.7610000000001","22.7","72.37","-2.6830000000000003","0.0"],
    [1427452,"2026-08-30 00:40:00","3540","1.5190000000000001","314.9","2.156","321.4","1016.712","22.68","72.65","-2.6919999999999997","0.0"],
    [1427453,"2026-08-30 00:50:00","3541","1.256","290.4","1.862","274.4","1016.618","22.9","71.92","-2.66","0.0"],
    [1427454,"2026-08-30 01:00:00","3542","0.863","286.8","1.47","295.4","1016.578","22.65","72.62","-2.713","0.0"],
    [1427455,"2026-08-30 01:10:00","3543","1.018","271.3","1.568","275.2","1016.591","22.94","72.07","-2.673","0.0"],
    [1427456,"2026-08-30 01:20:00","3544","1.4709999999999999","268.8","2.744","270.8","1016.597","22.78","72.39","-2.707","0.0"],
    [1427457,"2026-08-30 01:30:00","3545","1.455","281.4","2.646","278.4","1016.6410000000001","22.59","72.5","-2.667","0.0"],
    [1427458,"2026-08-30 01:40:00","3546","1.4169999999999998","291.8","2.646","297.5","1016.676","22.01","74.57","-2.966","0.0"],
    [1427459,"2026-08-30 01:50:00","3547","1.104","288.9","2.254","290.9","1016.6410000000001","22.02","74.98","-2.667","0.0"],
    [1427460,"2026-08-30 02:00:00","3548","0.826","291.3","1.764","292","1016.6160000000001","21.99","75.22","-2.7310000000000003","0.0"],
    [1427461,"2026-08-30 02:10:00","3549","1.199","287.9","2.058","291.8","1016.534","22.17","74.55","-2.662","0.0"],
    [1427462,"2026-08-30 02:20:00","3550","0.99","275.5","1.666","289","1016.4810000000001","22.15","74.63","-2.659","0.0"],
    [1427463,"2026-08-30 02:30:00","3551","1.112","269.3","1.666","274.7","1016.403","22.35","73.97","-2.657","0.0"],
    [1427464,"2026-08-30 02:40:00","3552","0.789","271.9","1.764","275.3","1016.41","22.31","73.92","-2.659","0.0"],
    [1427465,"2026-08-30 02:50:00","3553","1.018","274.1","2.156","278.2","1016.308","22.26","74.38","-2.665","0.0"],
    [1427466,"2026-08-30 03:00:00","3554","0.988","276.5","2.058","274.1","1016.308","22.07","75.04","-2.688","0.0"],
    [1427467,"2026-08-30 03:10:00","3555","1.4469999999999998","278.7","2.45","278","1016.3530000000001","22.19","75.09","-2.752","0.0"],
    [1427468,"2026-08-30 03:20:00","3556","1.4609999999999999","284.2","2.45","272.9","1016.33","22.06","75.5","-2.659","0.0"],
    [1427469,"2026-08-30 03:30:00","3557","1.115","291.1","2.254","286.2","1016.304","21.74","76.69","-2.71","0.0"],
    [1427470,"2026-08-30 03:40:00","3558","1.319","286.8","2.45","273.6","1016.316","21.77","76.92","-2.66","0.0"],
    [1427471,"2026-08-30 03:50:00","3559","1.39","289.6","2.548","290.4","1016.3389999999999","21.69","77.05","-2.659","0.0"],
    [1427472,"2026-08-30 04:00:00","3560","1.9","296.2","3.234","307.3","1016.365","21.8","76.22","-2.659","0.0"],
    [1427473,"2026-08-30 04:10:00","3561","1.9609999999999999","300.3","3.136","317.9","1016.334","21.95","74.81","-2.66","0.0"],
    [1427474,"2026-08-30 04:20:00","3562","2.102","297.1","3.43","302.1","1016.355","21.99","73.69","-2.66","0.0"],
    [1427475,"2026-08-30 04:30:00","3563","1.646","288.5","3.038","291","1016.2410000000001","21.93","73.04","-2.658","0.0"],
    [1427476,"2026-08-30 04:40:00","3564","1.959","297.6","4.606","306.7","1016.243","21.86","72.43","-2.677","0.0"],
    [1427477,"2026-08-30 04:50:00","3565","2.048","296.1","3.528","301","1016.191","21.97","71.45","-2.662","0.0"],
    [1427478,"2026-08-30 05:00:00","3566","2.556","296.2","4.508","298.2","1016.216","22.01","71.11","-2.404","0.0"],
    [1427479,"2026-08-30 05:10:00","3567","1.8259999999999998","289.3","3.822","319.5","1016.2560000000001","21.88","71.46","-1.163","0.0"],
    [1427480,"2026-08-30 05:20:00","3568","1.995","281.1","3.724","297.5","1016.289","21.62","72.35","1.96","0.0"],
    [1427481,"2026-08-30 05:30:00","3569","1.768","293.7","2.842","292.8","1016.3439999999999","21.41","73.44","9.45","0.0"],
    [1427482,"2026-08-30 05:40:00","3570","1.84","286.5","3.528","320.5","1016.3960000000001","21.5","72.88","26.71","0.0"],
    [1427483,"2026-08-30 05:50:00","3571","2.327","286.6","3.724","276.2","1016.502","21.57","72.26","48.04","0.0"],
    [1427484,"2026-08-30 06:00:00","3572","2.279","289.8","4.312","286.4","1016.6260000000001","21.69","71.74","70.92","0.0"],
    [1427485,"2026-08-30 06:10:00","3573","2.6039999999999996","291.1","4.41","302.5","1016.63","22.07","69.65","92.7","0.0"],
    [1427486,"2026-08-30 06:20:00","3574","2.3819999999999997","298.2","4.41","306.6","1016.6439999999999","22.46","66.73","116.2","0.0"],
    [1427487,"2026-08-30 06:30:00","3575","2.928","297.1","4.998","303","1016.648","22.91","64.06","143.8","0.0"],
    [1427488,"2026-08-30 06:40:00","3576","3.1060000000000003","293.0","5.488","313.3","1016.742","23.28","62.44","173.0","0.0"],
    [1427489,"2026-08-30 06:50:00","3577","3.023","296.3","5.194","291.8","1016.7339999999999","23.64","60.96","202.7","0.0"],
    [1427490,"2026-08-30 07:00:00","3578","3.543","296.8","5.488","301.9","1016.7510000000001","24.04","59.4","236.3","0.0"],
    [1427491,"2026-08-30 07:10:00","3579","3.61","296.0","5.978","304.8","1016.811","24.31","58.3","272.7","0.0"],
    [1427492,"2026-08-30 07:20:00","3580","2.931","298.4","4.704","304.4","1016.8560000000001","24.83","56.85","309.0","0.0"],
    [1427493,"2026-08-30 07:30:00","3581","2.588","295.8","4.312","301.9","1016.927","25.13","56.37","345.3","0.0"],
    [1427494,"2026-08-30 07:40:00","3582","2.678","286.1","3.724","280.2","1016.9580000000001","25.48","55.49","381.3","0.0"],
    [1427495,"2026-08-30 07:50:00","3583","2.2840000000000003","287.1","4.018","292.3","1016.971","25.88","54.41","393.2","0.0"],
    [1427496,"2026-08-30 08:00:00","3584","2.492","284.7","3.528","277.8","1017.05","26.29","53.69","447.4","0.0"],
    [1427497,"2026-08-30 08:10:00","3585","1.749","291.2","3.038","280.2","1017.0930000000001","26.94","52.4","456.4","0.0"],
    [1427498,"2026-08-30 08:20:00","3586","1.911","280.4","3.626","282.7","1017.118","27.26","50.66","510.4","0.0"],
    [1427499,"2026-08-30 08:30:00","3587","1.206","256.4","2.744","298.9","1017.181","27.65","49.92","539.1","0.0"],
    [1427500,"2026-08-30 08:40:00","3588","1.148","241.6","2.548","281.2","1017.27","28.47","47.74","568.0","0.0"],
    [1427501,"2026-08-30 08:50:00","3589","1.41","231.8","3.822","214.2","1017.334","28.77","50.1","595.9","0.0"],
    [1427502,"2026-08-30 09:00:00","3590","1.83","224.2","3.724","200.8","1017.327","28.53","50.96","623.2","0.0"],
    [1427503,"2026-08-30 09:10:00","3591","1.506","222.6","3.626","204.1","1017.2760000000001","29.05","47.66","646.7","0.0"],
    [1427504,"2026-08-30 09:20:00","3592","1.472","202.5","3.626","186.8","1017.263","29.15","47.37","669.3","0.0"],
    [1427505,"2026-08-30 09:30:00","3593","2.29","210.8","4.508","236.8","1017.247","29.06","54.78","692.3","0.0"],
    [1427506,"2026-08-30 09:40:00","3594","2.329","187.7","5.39","172.5","1017.207","28.95","57.74","714.3","0.0"],
    [1427507,"2026-08-30 09:50:00","3595","3.05","183.9","5.194","180.1","1017.186","28.53","57.83","736.2","0.0"],
    [1427508,"2026-08-30 10:00:00","3596","3.138","194.5","6.37","223.7","1017.122","28.45","61.42","756.3","0.0"],
    [1427509,"2026-08-30 10:10:00","3597","3.573","208.0","6.272","207.4","1017.115","28.51","60.94","774.8","0.0"],
    [1427510,"2026-08-30 10:20:00","3598","3.2230000000000003","186.1","6.37","186.7","1017.1030000000001","28.47","64.52","790.4","0.0"],
    [1427511,"2026-08-30 10:30:00","3599","3.3089999999999997","193.2","7.546","187.9","1017.063","28.45","65.6","805.0","0.0"],
    [1427512,"2026-08-30 10:40:00","3600","3.27","197.9","6.468","194.8","1017.06","28.59","66.01","817.0","0.0"],
    [1427513,"2026-08-30 10:50:00","3601","3.2060000000000004","191.1","5.586","176.5","1016.988","28.36","67.17","829.0","0.0"],
    [1427514,"2026-08-30 11:00:00","3602","3.718","196.8","6.468","171.8","1016.947","28.47","67.61","838.0","0.0"],
    [1427515,"2026-08-30 11:10:00","3603","3.655","191.7","6.664","186.5","1016.903","28.41","68.3","847.0","0.0"],
    [1427516,"2026-08-30 11:20:00","3604","3.795","205.1","7.056","216.7","1016.8330000000001","28.47","68.44","854.0","0.0"],
    [1427517,"2026-08-30 11:30:00","3605","3.1860000000000004","186.8","5.782","182.1","1016.7660000000001","28.97","66.36","859.0","0.0"],
    [1427518,"2026-08-30 11:40:00","3606","3.239","203.1","6.468","205.3","1016.673","28.81","66.08","862.0","0.0"],
    [1427519,"2026-08-30 11:50:00","3607","4.227","198.3","7.056","223.8","1016.595","29.02","64.12","865.0","0.0"],
    [1427520,"2026-08-30 12:00:00","3608","3.989","198.3","6.86","227.1","1016.555","28.83","64.09","862.0","0.0"],
    [1427521,"2026-08-30 12:10:00","3609","4.154","195.5","6.958","183.8","1016.5039999999999","28.97","61.55","860.0","0.0"],
    [1427522,"2026-08-30 12:20:00","3610","3.843","201.5","6.664","177.6","1016.426","29.28","59.53","858.0","0.0"],
    [1427523,"2026-08-30 12:30:00","3611","4.171","196.2","8.43","199.5","1016.3610000000001","29.34","59.5","855.0","0.0"],
    [1427524,"2026-08-30 12:40:00","3612","4.5569999999999995","204.5","7.448","158.7","1016.2660000000001","29.25","60.09","850.0","0.0"],
    [1427525,"2026-08-30 12:50:00","3613","4.556","210.6","7.84","218.6","1016.192","29.38","60.01","844.0","0.0"],
    [1427526,"2026-08-30 13:00:00","3614","3.614","206.3","7.644","223.2","1016.1210000000001","29.72","58.4","836.0","0.0"],
    [1427527,"2026-08-30 13:10:00","3615","4.26","198.1","7.546","224","1016.013","29.45","59.05","829.0","0.0"],
    [1427528,"2026-08-30 13:20:00","3616","3.907","207.3","7.742","204.7","1015.953","29.61","58.98","818.0","0.0"],
    [1427529,"2026-08-30 13:30:00","3617","4.3069999999999995","209.0","7.742","210.5","1015.914","29.83","58.22","805.0","0.0"],
    [1427530,"2026-08-30 13:40:00","3618","5.029","209.1","7.938","206","1015.852","29.27","59.67","789.8","0.0"],
    [1427531,"2026-08-30 13:50:00","3619","4.328","217.6","8.82","218","1015.7669999999999","29.59","59.17","772.7","0.0"],
    [1427532,"2026-08-30 14:00:00","3620","4.9030000000000005","216.9","8.04","216.7","1015.6669999999999","29.41","59.21","754.6","0.0"],
    [1427533,"2026-08-30 14:10:00","3621","4.343999999999999","210.0","8.04","229.5","1015.586","29.57","58.64","732.9","0.0"],
    [1427534,"2026-08-30 14:20:00","3622","5.239","214.5","9.31","235.6","1015.552","29.18","59.55","710.5","0.0"],
    [1427535,"2026-08-30 14:30:00","3623","5.053","215.0","8.43","227.3","1015.449","29.29","58.37","685.5","0.0"],
    [1427536,"2026-08-30 14:40:00","3624","4.946000000000001","212.2","8.53","170.9","1015.3689999999999","29.09","59.11","659.2","0.0"],
    [1427537,"2026-08-30 14:50:00","3625","3.977","207.8","7.644","216.2","1015.273","29.44","58.24","632.4","0.0"],
    [1427538,"2026-08-30 15:00:00","3626","5.683","223.5","8.62","198.8","1015.199","28.83","59.6","607.2","0.0"],
    [1427539,"2026-08-30 15:10:00","3627","3.661","211.3","7.546","204.8","1015.155","29.41","58.56","576.1","0.0"],
    [1427540,"2026-08-30 15:20:00","3628","4.062","208.2","7.252","218","1015.0239999999999","29.14","58.02","548.5","0.0"],
    [1427541,"2026-08-30 15:30:00","3629","3.464","203.2","6.37","233.5","1014.941","29.33","58.53","518.3","0.0"],
    [1427542,"2026-08-30 15:40:00","3630","3.5869999999999997","217.5","7.252","228.2","1014.939","29.34","59.78","488.5","0.0"],
    [1427543,"2026-08-30 15:50:00","3631","3.964","218.2","7.35","205","1014.826","29.21","60.27","460.8","0.0"],
    [1427544,"2026-08-30 16:00:00","3632","4.501","217.4","8.04","227.2","1014.795","29.08","60.1","432.0","0.0"],
    [1427545,"2026-08-30 16:10:00","3633","4.803","221.4","9.31","220.8","1014.816","28.82","60.22","404.2","0.0"],
    [1427546,"2026-08-30 16:20:00","3634","4.181","226.1","6.958","222.5","1014.8389999999999","28.76","59.38","353.5","0.0"],
    [1427547,"2026-08-30 16:30:00","3635","4.05","218.2","6.468","209","1014.817","28.93","60.6","328.4","0.0"],
    [1427548,"2026-08-30 16:40:00","3636","4.207","220.3","7.056","212.8","1014.842","28.61","61.62","298.3","0.0"],
    [1427549,"2026-08-30 16:50:00","3637","4.756","220.5","8.23","217.9","1014.8380000000001","28.43","61.35","271.1","0.0"],
    [1427550,"2026-08-30 17:00:00","3638","4.271","223.9","8.23","218.5","1014.78","28.14","63.04","237.5","0.0"],
    [1427551,"2026-08-30 17:10:00","3639","4.998","220.4","8.13","188.1","1014.7539999999999","27.86","64.48","202.2","0.0"],
    [1427552,"2026-08-30 17:20:00","3640","5.072","217.8","7.84","202.6","1014.768","27.63","65.93","169.6","0.0"],
    [1427553,"2026-08-30 17:30:00","3641","4.998","215.0","8.43","204.9","1014.7289999999999","27.51","66.39","139.6","0.0"],
    [1427554,"2026-08-30 17:40:00","3642","4.948","218.7","7.84","212.9","1014.679","27.27","67.84","112.0","0.0"],
    [1427555,"2026-08-30 17:50:00","3643","4.611000000000001","219.5","6.958","203.7","1014.6669999999999","27.03","68.61","76.45","0.0"],
    [1427556,"2026-08-30 18:00:00","3644","3.556","226.6","6.076","220.2","1014.695","26.83","69.29","31.03","0.0"],
    [1427557,"2026-08-30 18:10:00","3645","3.7239999999999998","225.3","6.468","206.6","1014.7339999999999","26.67","69.52","16.44","0.0"],
    [1427558,"2026-08-30 18:20:00","3646","3.5789999999999997","221.9","6.272","215.4","1014.7339999999999","26.56","69.74","9.15","0.0"],
    [1427559,"2026-08-30 18:30:00","3647","3.3569999999999998","223.5","4.9","190.3","1014.681","26.49","69.51","3.1830000000000003","0.0"],
    [1427560,"2026-08-30 18:40:00","3648","3.335","223.3","5.194","229.7","1014.7080000000001","26.39","69.34","-0.76","0.0"],
    [1427561,"2026-08-30 18:50:00","3649","3.798","220.8","5.684","218.5","1014.795","26.36","68.99","-2.472","0.0"],
    [1427562,"2026-08-30 19:00:00","3650","3.641","224.1","6.468","238.8","1014.908","26.27","69.88","-2.595","0.0"],
    [1427563,"2026-08-30 19:10:00","3651","3.889","223.7","6.174","213.5","1015.002","26.18","70.23","-2.648","0.0"],
    [1427564,"2026-08-30 19:20:00","3652","3.6910000000000003","221.0","5.978","208.8","1015.1560000000001","26.17","70.01","-2.612","0.0"],
    [1427565,"2026-08-30 19:30:00","3653","4.342","220.7","6.762","204.9","1015.297","26.13","69.78","-2.733","0.0"],
    [1427566,"2026-08-30 19:40:00","3654","4.021","224.5","6.468","207.6","1015.398","26.08","69.4","-2.6260000000000003","0.0"],
    [1427567,"2026-08-30 19:50:00","3655","3.642","225.4","5.978","205","1015.4630000000001","26.03","69.01","-2.5980000000000003","0.0"],
    [1427568,"2026-08-30 20:00:00","3656","3.0789999999999997","224.7","4.606","219.8","1015.5039999999999","25.92","68.76","-2.8169999999999997","0.0"],
    [1427569,"2026-08-30 20:10:00","3657","2.84","226.4","5.292","228.3","1015.555","25.97","67.94","-2.7319999999999998","0.0"],
    [1427570,"2026-08-30 20:20:00","3658","2.5639999999999996","226.2","4.116","233.5","1015.561","25.88","67.74","-2.7880000000000003","0.0"],
    [1427571,"2026-08-30 20:30:00","3659","2.722","229.9","4.214","231","1015.6","25.8","67.68","-2.8169999999999997","0.0"],
    [1427572,"2026-08-30 20:40:00","3660","2.515","230.4","4.116","220.6","1015.683","25.8","67.79","-2.859","0.0"],
    [1427573,"2026-08-30 20:50:00","3661","2.572","230.7","4.9","228.6","1015.7330000000001","25.66","68.57","-2.6519999999999997","0.0"],
    [1427574,"2026-08-30 21:00:00","3662","2.083","233.0","4.214","244.5","1015.747","25.56","69.37","-2.67","0.0"],
    [1427575,"2026-08-30 21:10:00","3663","2.126","227.6","3.822","261.9","1015.699","25.46","70.34","-2.787","0.0"],
    [1427576,"2026-08-30 21:20:00","3664","1.936","223.7","3.234","237.3","1015.69","25.34","71.13","-3.1430000000000002","0.0"],
    [1427577,"2026-08-30 21:30:00","3665","2.131","230.9","3.626","226.2","1015.7180000000001","25.27","71.99","-2.719","0.0"],
    [1427578,"2026-08-30 21:40:00","3666","1.804","231.7","3.038","269.4","1015.813","25.18","72.76","-2.78","0.0"],
    [1427579,"2026-08-30 21:50:00","3667","2.096","231.2","3.528","235.6","1015.8960000000001","25.17","72.94","-2.71","0.0"],
    [1427580,"2026-08-30 22:00:00","3668","2.133","226.8","3.234","207.5","1015.9780000000001","25.16","72.91","-2.63","0.0"],
    [1427581,"2026-08-30 22:10:00","3669","1.5030000000000001","232.3","3.038","200.6","1016.0360000000001","25.11","72.92","-2.615","0.0"],
    [1427582,"2026-08-30 22:20:00","3670","1.3419999999999999","230.9","2.254","241.9","1016.0889999999999","25.02","73.23","-3.116","0.0"],
    [1427583,"2026-08-30 22:30:00","3671","1.401","233.2","2.352","252","1016.04","24.94","73.39","-3.108","0.0"],
    [1427584,"2026-08-30 22:40:00","3672","1.6769999999999998","230.9","2.744","221.6","1016.02","24.92","73.33","-2.773","0.0"],
    [1427585,"2026-08-30 22:50:00","3673","1.4480000000000002","232.0","2.94","246.5","1016.06","24.88","73.32","-2.6260000000000003","0.0"],
    [1427586,"2026-08-30 23:00:00","3674","1.4280000000000002","235.1","2.842","239.5","1016.035","24.85","73.06","-2.766","0.0"],
    [1427587,"2026-08-30 23:10:00","3675","1.218","256.9","2.058","240.5","1016.03","24.75","71.07","-2.759","0.0"],
    [1427588,"2026-08-30 23:20:00","3676","1.128","279.0","2.058","287.5","1016.1010000000001","24.07","63.42","-2.597","0.0"],
    [1427589,"2026-08-30 23:30:00","3677","0.919","266.0","1.666","251.3","1016.1419999999999","23.81","62.21","-2.9939999999999998","0.0"],
    [1427590,"2026-08-30 23:40:00","3678","1.1179999999999999","269.0","2.156","272.9","1016.1669999999999","23.96","59.61","-2.91","0.0"],
    [1427591,"2026-08-30 23:50:00","3679","0.85","269.2","1.47","278.3","1016.19","23.93","59.37","-2.639","0.0"],
    [1427592,"2026-08-31 00:00:00","3680","0.608","255.4","1.47","300.3","1016.1310000000001","23.65","60.64","-2.685","0.0"],
    [1427593,"2026-08-31 00:10:00","3681","0.35700000000000004","281.9","1.078","295.3","1016.1519999999999","23.39","61.58","-2.6639999999999997","0.0"],
    [1427594,"2026-08-31 00:20:00","3682","0.9059999999999999","269.3","1.96","283.8","1016.198","23.48","61.78","-2.8510000000000004","0.0"],
    [1427595,"2026-08-31 00:30:00","3683","0.723","261.0","1.568","264.3","1016.227","23.49","61.52","-2.648","0.0"],
    [1427596,"2026-08-31 00:40:00","3684","0.97","278.6","1.96","285.9","1016.201","23.38","62.08","-2.656","0.0"],
    [1427597,"2026-08-31 00:50:00","3685","0.915","276.0","1.47","272.7","1016.248","22.99","63.56","-2.658","0.0"],
    [1427598,"2026-08-31 01:00:00","3686","0.9159999999999999","267.5","1.666","276.8","1016.253","23.18","64.66","-2.647","0.0"],
    [1427599,"2026-08-31 01:10:00","3687","0.5870000000000001","268.0","1.666","281.9","1016.216","23.13","65.29","-2.659","0.0"],
    [1427600,"2026-08-31 01:20:00","3688","1.0190000000000001","280.2","1.568","284.2","1016.2510000000001","22.92","65.72","-2.66","0.0"],
    [1427601,"2026-08-31 01:30:00","3689","0.907","280.0","1.764","280.4","1016.314","22.62","66.4","-2.66","0.0"],
    [1427602,"2026-08-31 01:40:00","3690","0.639","272.8","1.372","278.8","1016.3389999999999","22.56","67.06","-2.656","0.0"],
    [1427603,"2026-08-31 01:50:00","3691","0.667","271.9","1.274","283.5","1016.294","22.65","67.09","-2.614","0.0"],
    [1427604,"2026-08-31 02:00:00","3692","0.65","265.8","1.274","269.5","1016.328","22.58","67.23","-2.638","0.0"],
    [1427605,"2026-08-31 02:10:00","3693","0.5820000000000001","268.7","1.372","277.2","1016.322","22.58","67.31","-2.595","0.0"],
    [1427606,"2026-08-31 02:20:00","3694","0.013000000000000001","269.6","0.588","271","1016.309","22.46","66.92","-2.313","0.0"],
    [1427607,"2026-08-31 02:30:00","3695","0.0","0.0","0","271.1","1016.312","22.38","67.49","-2.637","0.0"],
    [1427608,"2026-08-31 02:40:00","3696","0.0","267.7","0.098","267.7","1016.316","22.31","67.92","-2.47","0.0"],
    [1427609,"2026-08-31 02:50:00","3697","0.569","272.9","1.372","277.8","1016.336","22.27","68.26","-2.6210000000000004","0.0"],
    [1427610,"2026-08-31 03:00:00","3698","0.6890000000000001","263.0","1.372","266.1","1016.38","22.26","68.5","-2.4819999999999998","0.0"],
    [1427611,"2026-08-31 03:10:00","3699","0.638","270.2","1.274","275.5","1016.428","22.3","68.59","-2.605","0.0"],
    [1427612,"2026-08-31 03:20:00","3700","0.774","267.9","1.372","257.3","1016.434","22.3","68.95","-2.613","0.0"],
    [1427613,"2026-08-31 03:30:00","3701","0.9159999999999999","275.1","1.568","288.2","1016.435","22.15","70.53","-2.635","0.0"],
    [1427614,"2026-08-31 03:40:00","3702","0.797","282.1","1.274","290","1016.471","22.12","71.57","-2.614","0.0"],
    [1427615,"2026-08-31 03:50:00","3703","0.909","288.1","1.568","280.2","1016.457","21.98","72.66","-2.5540000000000003","0.0"],
    [1427616,"2026-08-31 04:00:00","3704","0.978","286.1","1.568","286.9","1016.4680000000001","21.96","72.61","-2.585","0.0"],
    [1427617,"2026-08-31 04:10:00","3705","0.909","277.6","1.47","289.6","1016.448","21.89","71.2","-2.463","0.0"],
    [1427618,"2026-08-31 04:20:00","3706","1.3019999999999998","278.5","2.058","294.2","1016.443","22.01","68.39","-2.5469999999999997","0.0"],
    [1427619,"2026-08-31 04:30:00","3707","1.3719999999999999","277.9","2.156","267.7","1016.448","21.97","66.32","-2.371","0.0"],
    [1427620,"2026-08-31 04:40:00","3708","1.672","276.6","2.352","279.7","1016.487","21.8","65.03","-2.32","0.0"],
    [1427621,"2026-08-31 04:50:00","3709","1.42","276.5","2.45","274.3","1016.533","21.71","65.38","-2.364","0.0"],
    [1427622,"2026-08-31 05:00:00","3710","1.409","269.4","2.45","256.1","1016.575","21.64","65.74","-1.962","0.0"],
    [1427623,"2026-08-31 05:10:00","3711","1.159","272.4","2.646","276.6","1016.6","21.52","66.04","-1.046","0.0"],
    [1427624,"2026-08-31 05:20:00","3712","1.757","278.6","2.94","265.6","1016.686","21.51","66.56","1.859","0.0"],
    [1427625,"2026-08-31 05:30:00","3713","1.995","281.0","2.744","266.5","1016.7669999999999","21.44","65.79","8.36","0.0"],
    [1427626,"2026-08-31 05:40:00","3714","2.032","278.8","3.234","275.5","1016.8889999999999","21.55","64.43","22.56","0.0"],
    [1427627,"2026-08-31 05:50:00","3715","1.564","274.2","2.646","285.5","1016.966","21.73","63.62","41.49","0.0"],
    [1427628,"2026-08-31 06:00:00","3716","1.3019999999999998","260.6","1.96","274.6","1017.1160000000001","22.05","62.53","63.49","0.0"],
    [1427629,"2026-08-31 06:10:00","3717","1.2429999999999999","267.2","2.058","282.6","1017.28","22.38","62.08","86.1","0.0"],
    [1427630,"2026-08-31 06:20:00","3718","1.097","256.9","1.96","261","1017.395","22.74","61.15","111.3","0.0"],
    [1427631,"2026-08-31 06:30:00","3719","1.415","270.1","2.352","256.4","1017.5","23.07","59.99","133.2","0.0"],
    [1427632,"2026-08-31 06:40:00","3720","1.2819999999999998","268.5","2.254","288.6","1017.6039999999999","23.4","58.32","163.2","0.0"],
    [1427633,"2026-08-31 06:50:00","3721","1.093","266.5","2.156","272.1","1017.689","23.88","56.79","193.2","0.0"],
    [1427634,"2026-08-31 07:00:00","3722","0.8190000000000001","245.9","1.862","288.2","1017.7669999999999","24.63","55.41","224.8","0.0"],
    [1427635,"2026-08-31 07:10:00","3723","1.055","268.3","1.862","294.2","1017.8689999999999","25.04","55.51","258.8","0.0"],
    [1427636,"2026-08-31 07:20:00","3724","0.884","291.8","1.666","315.4","1017.921","25.73","54.42","290.6","0.0"],
    [1427637,"2026-08-31 07:30:00","3725","0.976","287.2","1.862","286.8","1017.971","26.05","53.99","328.6","0.0"],
    [1427638,"2026-08-31 07:40:00","3726","1.6469999999999998","281.0","2.94","283","1018.0","26.34","53.86","365.3","0.0"],
    [1427639,"2026-08-31 07:50:00","3727","1.705","297.5","2.842","289.6","1018.08","26.8","59.07","379.4","0.0"],
    [1427640,"2026-08-31 08:00:00","3728","0.976","301.7","2.058","302.7","1018.135","27.37","60.12","430.2","0.0"],
    [1427641,"2026-08-31 08:10:00","3729","0.943","49.15","2.156","77.54","1018.2180000000001","27.64","60.09","438.5","0.0"],
    [1427642,"2026-08-31 08:20:00","3730","3.065","85.8","4.998","73.04","1018.323","27.07","60.39","494.1","0.0"],
    [1427643,"2026-08-31 08:30:00","3731","3.148","76.16","4.998","94.2","1018.437","26.76","60.68","519.3","0.0"],
    [1427644,"2026-08-31 08:40:00","3732","2.0580000000000003","91.2","3.822","95.5","1018.4910000000001","27.45","59.76","549.4","0.0"],
    [1427645,"2026-08-31 08:50:00","3733","2.254","97.0","4.214","93.7","1018.584","27.25","60.84","575.6","0.0"],
    [1427646,"2026-08-31 09:00:00","3734","2.075","96.0","4.018","94.1","1018.6030000000001","27.5","61.72","602.6","0.0"],
    [1427647,"2026-08-31 09:10:00","3735","1.416","102.5","2.744","91.6","1018.632","27.91","61.21","629.2","0.0"],
    [1427648,"2026-08-31 09:20:00","3736","1.665","104.6","4.606","136.7","1018.68","28.06","61.85","653.6","0.0"],
    [1427649,"2026-08-31 09:30:00","3737","3.116","89.0","5.096","91.8","1018.688","27.73","63.03","675.4","0.0"],
    [1427650,"2026-08-31 09:40:00","3738","2.9410000000000003","88.9","5.194","76.43","1018.673","27.72","64.37","698.9","0.0"],
    [1427651,"2026-08-31 09:50:00","3739","2.8989999999999996","94.9","4.802","82.5","1018.704","27.85","65.22","721.1","0.0"],
    [1427652,"2026-08-31 10:00:00","3740","2.931","91.0","4.9","68.33","1018.695","27.76","66.61","740.8","0.0"],
    [1427653,"2026-08-31 10:10:00","3741","3.326","89.3","4.9","76.82","1018.73","27.87","66.63","757.4","0.0"],
    [1427654,"2026-08-31 10:20:00","3742","2.736","96.4","4.508","88.7","1018.715","28.04","65.42","775.8","0.0"],
    [1427655,"2026-08-31 10:30:00","3743","3.2489999999999997","97.2","4.704","88.3","1018.757","27.87","66.35","790.1","0.0"],
    [1427656,"2026-08-31 10:40:00","3744","4.138999999999999","85.5","5.292","91.5","1018.7719999999999","27.69","66.7","803.0","0.0"],
    [1427657,"2026-08-31 10:50:00","3745","3.772","89.7","5.684","90.3","1018.74","27.83","66.86","813.0","0.0"],
    [1427658,"2026-08-31 11:00:00","3746","2.945","100.2","4.9","84.5","1018.762","28.44","65.91","821.0","0.0"],
    [1427659,"2026-08-31 11:10:00","3747","2.719","98.6","4.998","83.4","1018.735","28.23","66.79","829.0","0.0"],
    [1427660,"2026-08-31 11:20:00","3748","2.5669999999999997","98.2","4.802","98.8","1018.711","28.77","65.45","833.0","0.0"],
    [1427661,"2026-08-31 11:30:00","3749","2.332","101.6","4.116","106.3","1018.735","28.81","66.22","838.0","0.0"],
    [1427662,"2026-08-31 11:40:00","3750","2.09","101.8","4.214","105.6","1018.703","28.99","66.57","839.0","0.0"],
    [1427663,"2026-08-31 11:50:00","3751","2.608","94.2","4.312","76.52","1018.669","29.05","67.06","841.0","0.0"],
    [1427664,"2026-08-31 12:00:00","3752","2.0669999999999997","100.7","4.41","72.6","1018.6439999999999","28.98","68.28","841.0","0.0"],
    [1427665,"2026-08-31 12:10:00","3753","1.831","99.7","3.92","88.3","1018.597","29.16","68.11","839.0","0.0"],
    [1427666,"2026-08-31 12:20:00","3754","1.6030000000000002","108.2","4.018","110.2","1018.49","29.54","67.13","837.0","0.0"],
    [1427667,"2026-08-31 12:30:00","3755","2.092","108.8","4.312","107.1","1018.448","29.19","67.35","840.0","0.0"],
    [1427668,"2026-08-31 12:40:00","3756","1.34","124.9","4.41","128.9","1018.46","29.67","65.03","841.0","0.0"],
    [1427669,"2026-08-31 12:50:00","3757","1.743","127.6","4.704","118.1","1018.4110000000001","29.75","63.19","845.0","0.0"],
    [1427670,"2026-08-31 13:00:00","3758","2.239","111.7","5.684","110.7","1018.334","29.62","62.01","849.0","0.0"],
    [1427671,"2026-08-31 13:10:00","3759","1.406","119.6","4.508","178.8","1018.363","30.35","58.71","822.0","0.0"],
    [1427672,"2026-08-31 13:20:00","3760","1.56","116.0","5.194","104.9","1018.413","29.79","60.23","780.2","0.0"],
    [1427673,"2026-08-31 13:30:00","3761","1.645","131.8","4.9","133.2","1018.403","29.85","59.87","767.9","0.0"],
    [1427674,"2026-08-31 13:40:00","3762","1.426","144.2","4.508","98.3","1018.32","29.8","60.64","747.8","0.0"],
    [1427675,"2026-08-31 13:50:00","3763","2.1109999999999998","177.6","5.978","188.1","1018.29","30.34","58.19","759.6","0.0"],
    [1427676,"2026-08-31 14:00:00","3764","3.108","183.9","6.272","205.8","1018.314","29.84","58.59","735.1","0.0"],
    [1427677,"2026-08-31 14:10:00","3765","2.7880000000000003","189.1","6.958","166.1","1018.32","30.02","58.81","711.2","0.0"],
    [1427678,"2026-08-31 14:20:00","3766","3.1460000000000004","200.1","6.174","180.1","1018.25","30.2","56.93","692.1","0.0"],
    [1427679,"2026-08-31 14:30:00","3767","3.653","192.4","7.154","185.1","1018.21","29.72","58.97","670.9","0.0"],
    [1427680,"2026-08-31 14:40:00","3768","3.503","190.0","7.252","193.8","1018.177","29.56","60.82","623.5","0.0"],
    [1427681,"2026-08-31 14:50:00","3769","3.708","180.3","7.056","188.2","1018.145","28.99","60.57","574.9","0.0"],
    [1427682,"2026-08-31 15:00:00","3770","3.2460000000000004","188.5","6.468","173.5","1018.174","29.44","58.3","587.2","0.0"],
    [1427683,"2026-08-31 15:10:00","3771","3.304","187.3","6.664","165.3","1018.185","29.34","57.28","558.5","0.0"],
    [1427684,"2026-08-31 15:20:00","3772","2.855","200.9","6.37","158.8","1018.192","29.48","56.73","530.9","0.0"],
    [1427685,"2026-08-31 15:30:00","3773","3.008","200.6","5.39","176","1018.189","29.24","57.41","501.2","0.0"],
    [1427686,"2026-08-31 15:40:00","3774","2.767","204.4","5.586","176.5","1018.171","29.14","59.54","470.3","0.0"],
    [1427687,"2026-08-31 15:50:00","3775","3.353","188.5","6.762","188.3","1018.201","28.72","61.37","440.7","0.0"],
    [1427688,"2026-08-31 16:00:00","3776","3.365","185.8","5.978","177.3","1018.127","28.5","63.29","410.7","0.0"],
    [1427689,"2026-08-31 16:10:00","3777","2.7439999999999998","200.2","5.488","189.1","1018.069","28.59","62.51","380.3","0.0"],
    [1427690,"2026-08-31 16:20:00","3778","2.6060000000000003","192.9","5.292","174.5","1017.961","28.66","61.66","331.7","0.0"],
    [1427691,"2026-08-31 16:30:00","3779","2.379","200.9","5.096","217.6","1017.923","28.41","62.28","311.6","0.0"],
    [1427692,"2026-08-31 16:40:00","3780","2.426","193.8","4.704","192.6","1017.86","28.33","61.69","270.3","0.0"],
    [1427693,"2026-08-31 16:50:00","3781","1.416","157.5","3.724","159.6","1017.842","28.29","61.35","248.1","0.0"],
    [1427694,"2026-08-31 17:00:00","3782","1.5430000000000001","171.0","4.606","163.2","1017.7710000000001","27.95","63.47","215.2","0.0"],
    [1427695,"2026-08-31 17:10:00","3783","2.362","176.6","4.116","199.5","1017.7610000000001","27.81","63.1","183.6","0.0"],
    [1427696,"2026-08-31 17:20:00","3784","2.142","158.8","4.704","175.4","1017.7280000000001","27.6","63.13","152.3","0.0"],
    [1427697,"2026-08-31 17:30:00","3785","1.712","166.7","5.194","185.5","1017.7","27.48","63.01","122.9","0.0"],
    [1427698,"2026-08-31 17:40:00","3786","2.373","171.1","4.508","183.2","1017.7","27.27","63.59","84.8","0.0"],
    [1427699,"2026-08-31 17:50:00","3787","1.335","165.7","3.822","166.9","1017.738","26.99","65.79","33.67","0.0"],
    [1427700,"2026-08-31 18:00:00","3788","1.27","147.2","3.822","192.1","1017.7510000000001","26.88","67.11","26.96","0.0"],
    [1427701,"2026-08-31 18:10:00","3789","0.8759999999999999","156.2","3.43","181.5","1017.7539999999999","26.82","67.27","16.82","0.0"],
    [1427702,"2026-08-31 18:20:00","3790","1.485","163.9","3.332","175.9","1017.8430000000001","26.67","68.11","9.48","0.0"],
    [1427703,"2026-08-31 18:30:00","3791","1.301","161.6","3.038","175.5","1017.8810000000001","26.55","69.1","2.552","0.0"],
    [1427704,"2026-08-31 18:40:00","3792","0.762","150.4","3.136","184.3","1017.927","26.43","70.0","-1.156","0.0"],
    [1427705,"2026-08-31 18:50:00","3793","0.966","134.9","2.94","183.5","1017.987","26.36","69.9","-2.4419999999999997","0.0"],
    [1427706,"2026-08-31 19:00:00","3794","0.516","124.7","2.254","129.5","1018.14","26.26","70.34","-2.594","0.0"],
    [1427707,"2026-08-31 19:10:00","3795","0.805","120.4","2.254","131","1018.252","26.24","70.76","-2.596","0.0"],
    [1427708,"2026-08-31 19:20:00","3796","1.015","117.0","2.744","137.2","1018.3560000000001","26.24","71.3","-2.593","0.0"],
    [1427709,"2026-08-31 19:30:00","3797","1.492","106.6","3.136","94.5","1018.51","26.24","72.01","-2.593","0.0"],
    [1427710,"2026-08-31 19:40:00","3798","1.795","104.6","2.94","104.1","1018.69","26.22","72.58","-2.593","0.0"],
    [1427711,"2026-08-31 19:50:00","3799","2.086","97.6","3.43","88.5","1018.823","26.16","73.51","-2.593","0.0"],
    [1427712,"2026-08-31 20:00:00","3800","2.131","85.3","3.234","81.1","1018.8789999999999","26.12","74.23","-2.593","0.0"],
    [1427713,"2026-08-31 20:10:00","3801","2.53","83.2","5.292","80.8","1018.9630000000001","26.04","74.98","-2.593","0.0"],
    [1427714,"2026-08-31 20:20:00","3802","2.226","80.7","3.136","90.9","1019.086","25.92","75.7","-2.593","0.0"],
    [1427715,"2026-08-31 20:30:00","3803","1.944","77.17","3.43","82.3","1019.198","25.83","75.91","-2.592","0.0"],
    [1427716,"2026-08-31 20:40:00","3804","2.085","72.34","4.9","65.02","1019.3889999999999","25.64","76.77","-2.592","0.0"],
    [1427717,"2026-08-31 20:50:00","3805","2.283","76.25","5.194","53.87","1019.467","25.65","76.5","-2.582","0.0"],
    [1427718,"2026-08-31 21:00:00","3806","1.942","67.84","2.548","65.89","1019.4580000000001","25.49","77.43","-2.591","0.0"],
    [1427719,"2026-08-31 21:10:00","3807","1.875","69.28","2.744","81.2","1019.539","25.33","78.65","-2.593","0.0"],
    [1427720,"2026-08-31 21:20:00","3808","1.939","67.79","2.744","61.82","1019.573","25.3","79.37","-2.543","0.0"],
    [1427721,"2026-08-31 21:30:00","3809","1.604","71.83","2.254","72.28","1019.625","25.11","79.42","-2.593","0.0"],
    [1427722,"2026-08-31 21:40:00","3810","1.663","71.85","2.156","73.06","1019.6260000000001","24.97","78.48","-2.593","0.0"],
    [1427723,"2026-08-31 21:50:00","3811","1.57","66.71","1.96","64.73","1019.698","24.95","78.81","-2.593","0.0"]
]}
